/* DATA DESCRIPTION:
Citation:	Wacker, Stefan (2026): Radiosonde measurements from station Lindenberg (2023-08) [dataset]. Meteorologisches Observatorium Lindenberg - Richard-Aßmann-Observatorium, PANGAEA, https://doi.org/10.1594/PANGAEA.991441
Other version:	Wacker, Stefan (2026): BSRN Station-to-archive file for station Lindenberg (2023-08) [dataset]. ftp://ftp.bsrn.awi.de/lin/lin0823.dat.gz
Project(s):	Baseline Surface Radiation Network (BSRN) (URI: https://bsrn.awi.de/)
Coverage:	LATITUDE: 52.210000 * LONGITUDE: 14.122000
	DATE/TIME START: 2023-08-01T00:00:00 * DATE/TIME END: 2023-08-31T18:00:00
	MINIMUM ALTITUDE: -999 m * MAXIMUM ALTITUDE: 37701 m
Event(s):	LIN (Lindenberg) (URI: http://www.dwd.de/DE/forschung/atmosphaerenbeob/lindenbergersaeule/mol/mol_node.html) * LATITUDE: 52.210000 * LONGITUDE: 14.122000 * DATE/TIME: 1994-09-01T00:00:00 * ELEVATION: 125.0 m * LOCATION: Germany * METHOD/DEVICE: Monitoring station (MONS) * COMMENT: BSRN station no: 12; Surface type: cultivated; Topography type: hilly, rural; Horizon: doi:10.1594/PANGAEA.669521; Station scientist: Stefan Wacker (Stefan.Wacker@dwd.de)
Comment:	*C0006
Parameter(s):	DATE/TIME (Date/Time) * GEOCODE * PI: Wacker, Stefan (Stefan.Wacker@dwd.de)
	ALTITUDE [m] (Altitude) * GEOCODE * PI: Wacker, Stefan (Stefan.Wacker@dwd.de)
	Pressure, at given altitude [hPa] (PPPP) * PI: Wacker, Stefan (Stefan.Wacker@dwd.de) * METHOD/DEVICE: Radiosonde, Vaisala, RS41 (URI: http://www.vaisala.com/en/products/soundingsystemsandradiosondes/radiosondes/Pages/RS41.aspx)
	Temperature, air [°C] (TTT) * PI: Wacker, Stefan (Stefan.Wacker@dwd.de) * METHOD/DEVICE: Radiosonde, Vaisala, RS41 (URI: http://www.vaisala.com/en/products/soundingsystemsandradiosondes/radiosondes/Pages/RS41.aspx)
	Dew/frost point [°C] (TdTdTd) * PI: Wacker, Stefan (Stefan.Wacker@dwd.de) * METHOD/DEVICE: Radiosonde, Vaisala, RS41 (URI: http://www.vaisala.com/en/products/soundingsystemsandradiosondes/radiosondes/Pages/RS41.aspx)
	Wind direction [deg] (dd) * PI: Wacker, Stefan (Stefan.Wacker@dwd.de) * METHOD/DEVICE: Radiosonde, Vaisala, RS41 (URI: http://www.vaisala.com/en/products/soundingsystemsandradiosondes/radiosondes/Pages/RS41.aspx)
	Wind speed [m/s] (ff) * PI: Wacker, Stefan (Stefan.Wacker@dwd.de) * METHOD/DEVICE: Radiosonde, Vaisala, RS41 (URI: http://www.vaisala.com/en/products/soundingsystemsandradiosondes/radiosondes/Pages/RS41.aspx)
License:	Baseline Surface Radiation Network License 1.0 (BSRN-1.0) (URI: https://bsrn.awi.de/data/conditions-of-data-release/)
Status:	Curation Level: Enhanced curation (URI: https://wiki.pangaea.de/wiki/Curation_levels)
Size:	841485 data points
*/
Date/Time	Altitude [m]	PPPP [hPa]	TTT [°C]	TdTdTd [°C]	dd [deg]	ff [m/s]
2023-08-01T00:00	112	991	17.8	13.5	200	4
2023-08-01T00:00	136	988	18.5	13.5	199	4
2023-08-01T00:00	166	984	18.1	13.4	200	5
2023-08-01T00:00	200	981	18.1	13.0	203	7
2023-08-01T00:00	229	977	18.1	12.9	207	9
2023-08-01T00:00	249	975	18.0	12.8	210	10
2023-08-01T00:00	279	972	18.3	12.6	214	11
2023-08-01T00:00	302	969	18.4	12.3	218	12
2023-08-01T00:00	330	966	18.4	12.2	222	12
2023-08-01T00:00	353	963	18.3	12.2	226	13
2023-08-01T00:00	375	961	18.1	12.1	229	13
2023-08-01T00:00	399	958	18.0	12.1	232	13
2023-08-01T00:00	421	955	17.9	12.0	234	14
2023-08-01T00:00	454	952	17.7	11.8	236	15
2023-08-01T00:00	478	949	17.5	11.8	238	15
2023-08-01T00:00	506	946	17.4	11.7	241	16
2023-08-01T00:00	528	944	17.3	11.7	243	17
2023-08-01T00:00	552	941	17.1	11.6	245	18
2023-08-01T00:00	574	939	17.0	11.5	246	18
2023-08-01T00:00	601	936	16.9	11.6	246	18
2023-08-01T00:00	625	933	16.7	11.7	246	18
2023-08-01T00:00	651	930	16.5	11.6	246	17
2023-08-01T00:00	674	928	16.3	11.6	246	17
2023-08-01T00:00	697	925	16.0	11.5	246	17
2023-08-01T00:00	718	923	15.8	11.5	246	17
2023-08-01T00:00	742	920	15.6	11.5	247	17
2023-08-01T00:00	767	918	15.4	11.4	247	16
2023-08-01T00:00	789	915	15.2	11.4	247	16
2023-08-01T00:00	814	912	15.0	11.4	248	16
2023-08-01T00:00	838	910	14.8	11.3	249	16
2023-08-01T00:00	874	906	14.7	11.0	249	16
2023-08-01T00:00	896	904	14.5	11.0	249	15
2023-08-01T00:00	920	901	14.3	10.8	248	15
2023-08-01T00:00	944	899	14.1	10.7	247	14
2023-08-01T00:00	970	896	13.9	10.5	245	14
2023-08-01T00:00	995	893	13.7	10.3	245	13
2023-08-01T00:00	1016	891	13.6	10.4	245	12
2023-08-01T00:00	1033	889	13.4	10.2	246	12
2023-08-01T00:00	1052	887	13.3	10.3	248	11
2023-08-01T00:00	1076	885	13.1	9.9	249	11
2023-08-01T00:00	1104	882	13.0	9.7	250	11
2023-08-01T00:00	1132	879	12.8	9.6	250	11
2023-08-01T00:00	1160	876	12.6	9.4	249	12
2023-08-01T00:00	1183	874	12.4	9.2	249	12
2023-08-01T00:00	1205	871	12.2	9.0	249	12
2023-08-01T00:00	1233	868	12.0	8.9	249	12
2023-08-01T00:00	1259	866	11.8	8.8	249	12
2023-08-01T00:00	1279	864	11.6	8.7	248	13
2023-08-01T00:00	1297	862	11.4	8.6	245	13
2023-08-01T00:00	1317	860	11.3	8.6	242	13
2023-08-01T00:00	1335	858	11.1	8.6	239	14
2023-08-01T00:00	1353	856	10.9	8.5	237	13
2023-08-01T00:00	1376	854	10.8	8.5	236	13
2023-08-01T00:00	1400	851	10.5	8.2	236	13
2023-08-01T00:00	1429	848	10.4	8.1	237	12
2023-08-01T00:00	1457	845	10.2	7.8	237	12
2023-08-01T00:00	1480	843	10.1	7.7	236	11
2023-08-01T00:00	1497	841	9.9	7.5	234	11
2023-08-01T00:00	1528	838	9.7	7.3	233	11
2023-08-01T00:00	1550	836	9.6	7.2	232	10
2023-08-01T00:00	1571	834	9.4	7.2	231	10
2023-08-01T00:00	1592	832	9.3	7.1	230	10
2023-08-01T00:00	1611	830	9.1	7.1	228	11
2023-08-01T00:00	1632	828	8.9	6.9	227	12
2023-08-01T00:00	1651	826	8.9	6.8	226	12
2023-08-01T00:00	1668	824	8.7	6.7	225	12
2023-08-01T00:00	1690	822	8.5	6.7	227	11
2023-08-01T00:00	1710	820	8.3	6.5	230	11
2023-08-01T00:00	1728	818	8.1	6.5	233	11
2023-08-01T00:00	1748	816	8.0	6.5	235	11
2023-08-01T00:00	1769	814	7.8	6.3	236	12
2023-08-01T00:00	1795	812	7.7	6.2	235	12
2023-08-01T00:00	1821	809	7.5	5.7	235	12
2023-08-01T00:00	1847	806	7.3	5.5	234	12
2023-08-01T00:00	1874	804	7.1	5.6	234	12
2023-08-01T00:00	1896	802	6.8	5.6	234	11
2023-08-01T00:00	1917	800	6.6	5.7	234	11
2023-08-01T00:00	1937	798	6.4	5.7	234	12
2023-08-01T00:00	1956	796	6.3	5.7	234	12
2023-08-01T00:00	1984	793	6.1	5.6	233	12
2023-08-01T00:00	2009	791	5.9	5.6	233	13
2023-08-01T00:00	2032	788	5.7	5.2	232	13
2023-08-01T00:00	2061	786	5.6	4.9	232	13
2023-08-01T00:00	2086	783	5.5	4.8	233	13
2023-08-01T00:00	2112	781	5.3	4.6	234	12
2023-08-01T00:00	2130	779	5.1	4.4	234	12
2023-08-01T00:00	2155	777	4.9	4.2	234	13
2023-08-01T00:00	2183	774	4.7	3.9	233	13
2023-08-01T00:00	2218	771	4.5	3.7	232	13
2023-08-01T00:00	2246	768	4.4	3.7	229	14
2023-08-01T00:00	2271	766	4.3	2.8	227	14
2023-08-01T00:00	2294	764	4.6	1.9	225	14
2023-08-01T00:00	2321	761	4.4	3.3	225	14
2023-08-01T00:00	2351	758	4.3	3.7	226	13
2023-08-01T00:00	2389	755	4.0	3.5	230	13
2023-08-01T00:00	2419	752	3.8	3.4	235	13
2023-08-01T00:00	2441	750	3.6	2.9	239	13
2023-08-01T00:00	2464	748	3.5	2.8	242	13
2023-08-01T00:00	2493	745	3.3	1.9	242	13
2023-08-01T00:00	2523	743	3.3	0.4	240	12
2023-08-01T00:00	2552	740	4.1	-4.1	237	12
2023-08-01T00:00	2583	737	4.6	-4.7	234	13
2023-08-01T00:00	2616	734	4.6		232	13
2023-08-01T00:00	2646	731	4.4	-4.8	232	14
2023-08-01T00:00	2672	729	4.1	-4.9	232	14
2023-08-01T00:00	2697	727	3.9	-4.7	232	15
2023-08-01T00:00	2726	724	3.7	-4.4	232	15
2023-08-01T00:00	2755	722	3.5	-4.3	232	15
2023-08-01T00:00	2782	719	3.3	-4.3	233	15
2023-08-01T00:00	2811	717	3.0	-4.4	233	15
2023-08-01T00:00	2842	714	2.7	-4.2	233	15
2023-08-01T00:00	2874	711	2.4	-4.3	233	15
2023-08-01T00:00	2907	708	2.1	-4.3	232	16
2023-08-01T00:00	2943	705	1.8	-3.9	232	16
2023-08-01T00:00	2983	702	1.4	-4.5	232	16
2023-08-01T00:00	3016	699	1.0	-4.5	232	16
2023-08-01T00:00	3053	696	0.7	-4.6	231	16
2023-08-01T00:00	3092	692	0.3	-4.4	231	16
2023-08-01T00:00	3125	689	0.0	-4.6	231	16
2023-08-01T00:00	3157	687	-0.4	-4.6	230	16
2023-08-01T00:00	3186	684	-0.7	-4.3	229	16
2023-08-01T00:00	3214	682	-1.0	-4.3	229	16
2023-08-01T00:00	3245	679	-1.4	-4.4	228	16
2023-08-01T00:00	3274	676	-1.7	-4.5	227	16
2023-08-01T00:00	3307	674	-2.0	-4.5	227	16
2023-08-01T00:00	3337	671	-2.3	-4.7	227	16
2023-08-01T00:00	3364	669	-2.5	-4.7	228	15
2023-08-01T00:00	3392	667	-2.8	-4.8	230	16
2023-08-01T00:00	3417	664	-3.0	-4.9	231	16
2023-08-01T00:00	3443	662	-3.3	-5.0	231	17
2023-08-01T00:00	3462	660	-3.5	-5.1	230	18
2023-08-01T00:00	3493	658	-3.7	-5.2	228	19
2023-08-01T00:00	3515	656	-3.9	-5.3	226	20
2023-08-01T00:00	3532	655	-4.1	-5.3	224	21
2023-08-01T00:00	3550	653	-4.1	-4.8	223	22
2023-08-01T00:00	3572	652	-3.9	-4.7	223	22
2023-08-01T00:00	3591	650	-3.6		224	23
2023-08-01T00:00	3612	648	-2.8	-3.4	226	23
2023-08-01T00:00	3633	647	-2.4	-2.9	228	24
2023-08-01T00:00	3652	645	-2.4	-2.9	230	24
2023-08-01T00:00	3676	643	-2.5	-3.0	231	23
2023-08-01T00:00	3700	641	-2.6	-3.1	231	23
2023-08-01T00:00	3725	639	-2.8	-3.2	232	23
2023-08-01T00:00	3747	637	-2.8	-3.2	233	23
2023-08-01T00:00	3774	635	-2.8	-3.2	235	24
2023-08-01T00:00	3800	633	-2.9	-3.4	237	24
2023-08-01T00:00	3823	631	-3.0	-3.4	239	24
2023-08-01T00:00	3846	630	-3.1	-3.5	240	24
2023-08-01T00:00	3865	628	-3.1	-3.6	241	24
2023-08-01T00:00	3886	626	-3.2	-3.7	242	24
2023-08-01T00:00	3909	624	-3.3	-3.8	243	23
2023-08-01T00:00	3935	622	-3.6		244	23
2023-08-01T00:00	3961	620	-3.7	-4.1	246	22
2023-08-01T00:00	3987	618	-3.5	-3.9	247	22
2023-08-01T00:00	4008	617	-3.5	-4.0	248	21
2023-08-01T00:00	4031	615	-3.6	-4.0	248	21
2023-08-01T00:00	4053	613	-3.7	-4.1	248	21
2023-08-01T00:00	4073	612	-3.8	-4.2	247	21
2023-08-01T00:00	4092	610	-3.9	-4.3	247	20
2023-08-01T00:00	4114	609	-3.9	-4.4	246	20
2023-08-01T00:00	4136	607	-4.1	-4.7	245	20
2023-08-01T00:00	4159	605	-4.2	-4.7	245	20
2023-08-01T00:00	4182	603	-4.2	-4.8	245	19
2023-08-01T00:00	4204	602	-4.3	-4.9	246	19
2023-08-01T00:00	4233	600	-4.4	-5.0	248	19
2023-08-01T00:00	4254	598	-4.6	-5.2	250	19
2023-08-01T00:00	4277	596	-4.8	-5.3	251	20
2023-08-01T00:00	4303	594	-4.9	-5.4	252	20
2023-08-01T00:00	4327	592	-5.0	-5.6	252	21
2023-08-01T00:00	4351	591	-5.1	-5.6	251	21
2023-08-01T00:00	4374	589	-5.2	-5.8	249	21
2023-08-01T00:00	4397	587	-5.3	-6.0	248	22
2023-08-01T00:00	4421	585	-5.4	-6.1	248	22
2023-08-01T00:00	4448	583	-5.5	-6.1	248	22
2023-08-01T00:00	4475	581	-5.6	-6.2	249	22
2023-08-01T00:00	4500	579	-5.8	-6.5	250	22
2023-08-01T00:00	4526	577	-5.9	-6.6	250	23
2023-08-01T00:00	4555	575	-6.1	-6.8	251	23
2023-08-01T00:00	4579	574	-6.3	-7.0	251	23
2023-08-01T00:00	4600	572	-6.4	-7.1	251	23
2023-08-01T00:00	4623	570	-6.5	-7.2	251	23
2023-08-01T00:00	4645	569	-6.7	-7.4	251	23
2023-08-01T00:00	4668	567	-6.8	-7.4	251	23
2023-08-01T00:00	4695	565	-7.0	-7.6	251	23
2023-08-01T00:00	4721	563	-7.1	-7.7	252	23
2023-08-01T00:00	4752	561	-7.3	-7.9	253	23
2023-08-01T00:00	4780	559	-7.5	-8.1	254	24
2023-08-01T00:00	4809	557	-7.6	-8.3	254	24
2023-08-01T00:00	4843	555	-7.9	-8.6	254	23
2023-08-01T00:00	4864	553	-8.0	-8.6	253	23
2023-08-01T00:00	4893	551	-8.2	-8.8	252	23
2023-08-01T00:00	4919	549	-8.4	-9.1	252	23
2023-08-01T00:00	4945	547	-8.5	-9.1	252	23
2023-08-01T00:00	4972	545	-8.7	-9.4	252	23
2023-08-01T00:00	5002	543	-8.8	-9.4	252	23
2023-08-01T00:00	5029	541	-9.0	-9.7	252	23
2023-08-01T00:00	5058	539	-9.2	-9.9	253	23
2023-08-01T00:00	5083	538	-9.4	-10.0	253	23
2023-08-01T00:00	5113	536	-9.5	-10.1	253	23
2023-08-01T00:00	5144	533	-9.7	-10.3	253	23
2023-08-01T00:00	5171	532	-9.9	-10.4	253	23
2023-08-01T00:00	5200	530	-10.0	-10.5	254	22
2023-08-01T00:00	5229	528	-10.2	-10.8	253	22
2023-08-01T00:00	5257	526	-10.4	-11.1	253	22
2023-08-01T00:00	5286	524	-10.5		253	22
2023-08-01T00:00	5316	522	-10.7	-11.3	253	21
2023-08-01T00:00	5343	520	-10.9	-11.5	253	21
2023-08-01T00:00	5368	518	-11.0	-11.7	253	21
2023-08-01T00:00	5395	516	-11.2	-12.0	254	21
2023-08-01T00:00	5429	514	-11.4	-12.2	254	21
2023-08-01T00:00	5458	512	-11.6	-12.3	254	22
2023-08-01T00:00	5484	510	-11.7	-12.4	254	22
2023-08-01T00:00	5514	508	-11.9	-12.6	254	23
2023-08-01T00:00	5538	507	-12.1	-12.8	254	23
2023-08-01T00:00	5564	505	-12.2	-12.9	254	23
2023-08-01T00:00	5588	503	-12.4	-13.0	254	23
2023-08-01T00:00	5615	502	-12.6	-13.2	254	23
2023-08-01T00:00	5641	500	-12.8	-13.5	254	23
2023-08-01T00:00	5670	498	-12.9	-13.6	253	23
2023-08-01T00:00	5700	496	-13.1	-13.8	252	23
2023-08-01T00:00	5724	495	-13.3	-14.1	251	23
2023-08-01T00:00	5751	493	-13.4	-14.2	250	23
2023-08-01T00:00	5775	491	-13.6	-14.4	250	23
2023-08-01T00:00	5806	489	-13.8	-14.6	250	23
2023-08-01T00:00	5832	488	-14.0	-14.8	250	23
2023-08-01T00:00	5862	486	-14.1	-14.9	251	23
2023-08-01T00:00	5892	484	-14.3	-15.1	251	23
2023-08-01T00:00	5916	482	-14.5	-15.3	251	23
2023-08-01T00:00	5941	481	-14.6	-15.4	250	23
2023-08-01T00:00	5968	479	-14.8	-15.7	249	23
2023-08-01T00:00	5990	477	-14.9	-15.8	249	24
2023-08-01T00:00	6017	476	-15.1	-16.0	248	24
2023-08-01T00:00	6054	474	-15.3	-16.3	249	23
2023-08-01T00:00	6083	472	-15.5	-16.6	249	23
2023-08-01T00:00	6110	470	-15.7	-16.7	250	24
2023-08-01T00:00	6139	468	-15.8	-16.9	251	24
2023-08-01T00:00	6168	466	-16.0	-17.1	252	24
2023-08-01T00:00	6202	464	-16.2	-17.3	253	24
2023-08-01T00:00	6226	463	-16.3	-17.6	253	23
2023-08-01T00:00	6255	461	-16.5	-17.6	253	23
2023-08-01T00:00	6289	459	-16.8	-18.0	253	23
2023-08-01T00:00	6314	457	-17.0	-18.2	253	22
2023-08-01T00:00	6336	456	-17.1	-18.3	253	22
2023-08-01T00:00	6362	455	-17.3	-18.5	253	22
2023-08-01T00:00	6389	453	-17.5	-18.7	252	22
2023-08-01T00:00	6414	451	-17.7	-19.0	251	23
2023-08-01T00:00	6441	450	-17.8	-19.2	250	23
2023-08-01T00:00	6469	448	-18.0	-19.3	249	22
2023-08-01T00:00	6496	446	-18.1	-19.5	248	22
2023-08-01T00:00	6523	445	-18.3	-19.8	248	22
2023-08-01T00:00	6555	443	-18.3	-19.7	248	23
2023-08-01T00:00	6583	441	-18.5	-19.9	250	23
2023-08-01T00:00	6608	440	-18.6	-20.0	252	23
2023-08-01T00:00	6639	438	-18.7	-20.2	253	23
2023-08-01T00:00	6669	436	-18.8	-20.4	255	23
2023-08-01T00:00	6692	435	-18.9	-20.4	256	23
2023-08-01T00:00	6717	433	-18.9	-20.4	256	23
2023-08-01T00:00	6743	432	-19.1	-20.7	256	23
2023-08-01T00:00	6765	431	-19.3	-20.9	256	23
2023-08-01T00:00	6790	429	-19.4	-21.0	256	23
2023-08-01T00:00	6819	428	-19.6	-21.2	256	23
2023-08-01T00:00	6844	426	-19.8	-21.4	256	23
2023-08-01T00:00	6871	425	-19.9	-21.5	256	23
2023-08-01T00:00	6902	423	-20.1	-21.7	256	23
2023-08-01T00:00	6935	421	-20.3	-22.1	256	23
2023-08-01T00:00	6953	420	-20.5	-22.1	256	23
2023-08-01T00:00	6985	418	-20.7	-22.4	256	23
2023-08-01T00:00	7013	416	-20.8	-22.5	256	23
2023-08-01T00:00	7051	415	-21.1	-22.9	255	23
2023-08-01T00:00	7072	413	-21.3	-23.0	255	23
2023-08-01T00:00	7105	411	-21.5	-23.2	255	24
2023-08-01T00:00	7131	410	-21.7	-23.5	254	24
2023-08-01T00:00	7161	408	-21.9	-23.7	253	24
2023-08-01T00:00	7188	407	-22.1	-24.0	253	24
2023-08-01T00:00	7212	405	-22.3	-24.1	252	24
2023-08-01T00:00	7242	404	-22.5	-24.3	252	24
2023-08-01T00:00	7275	402	-22.7	-24.5	253	24
2023-08-01T00:00	7304	400	-22.9	-24.8	254	24
2023-08-01T00:00	7338	399	-23.2	-25.1	255	24
2023-08-01T00:00	7366	397	-23.4	-25.2	256	24
2023-08-01T00:00	7397	395	-23.6	-25.5	257	23
2023-08-01T00:00	7427	394	-23.8	-25.7	257	23
2023-08-01T00:00	7457	392	-24.1	-25.9	257	23
2023-08-01T00:00	7486	390	-24.2	-26.0	256	23
2023-08-01T00:00	7518	389	-24.5	-26.3	256	23
2023-08-01T00:00	7559	387	-24.8	-26.7	256	23
2023-08-01T00:00	7583	385	-24.9	-26.7	256	23
2023-08-01T00:00	7606	384	-25.1	-26.9	257	23
2023-08-01T00:00	7639	382	-25.3	-27.1	258	23
2023-08-01T00:00	7670	381	-25.5	-27.3	259	24
2023-08-01T00:00	7703	379	-25.8	-27.8	260	25
2023-08-01T00:00	7728	378	-25.9	-27.8	261	26
2023-08-01T00:00	7763	376	-26.2	-28.0	261	26
2023-08-01T00:00	7799	374	-26.4	-28.3	261	26
2023-08-01T00:00	7822	373	-26.6	-28.6	261	26
2023-08-01T00:00	7856	371	-26.8	-28.8	260	26
2023-08-01T00:00	7892	369	-27.1	-29.1	260	26
2023-08-01T00:00	7922	368	-27.3	-29.2	260	25
2023-08-01T00:00	7960	366	-27.6	-29.6	260	25
2023-08-01T00:00	7985	364	-27.8	-29.8	260	24
2023-08-01T00:00	8012	363	-28.0	-30.0	260	24
2023-08-01T00:00	8041	362	-28.3	-30.3	260	24
2023-08-01T00:00	8075	360	-28.6	-30.7	259	24
2023-08-01T00:00	8104	359	-28.8	-31.0	258	24
2023-08-01T00:00	8129	357	-29.0	-31.1	257	24
2023-08-01T00:00	8165	355	-29.2	-31.4	257	24
2023-08-01T00:00	8203	354	-29.6	-32.0	257	24
2023-08-01T00:00	8226	352	-29.7	-32.0	258	24
2023-08-01T00:00	8255	351	-30.0	-32.2	259	25
2023-08-01T00:00	8282	350	-30.2	-32.4	260	25
2023-08-01T00:00	8313	348	-30.5	-32.8	261	26
2023-08-01T00:00	8353	346	-30.8	-33.2	261	26
2023-08-01T00:00	8384	345	-31.0	-33.3	261	26
2023-08-01T00:00	8421	343	-31.3	-33.6	261	26
2023-08-01T00:00	8462	341	-31.7	-34.1	261	26
2023-08-01T00:00	8487	340	-31.9	-34.3	261	26
2023-08-01T00:00	8509	339	-32.1	-34.4	261	26
2023-08-01T00:00	8531	338	-32.3	-34.5	261	27
2023-08-01T00:00	8554	336	-32.4	-34.7	261	27
2023-08-01T00:00	8579	335	-32.7	-35.0	261	27
2023-08-01T00:00	8606	334	-32.9	-35.2	261	27
2023-08-01T00:00	8645	332	-33.2	-35.5	260	27
2023-08-01T00:00	8677	331	-33.5	-36.0	260	27
2023-08-01T00:00	8698	330	-33.7	-36.0	260	27
2023-08-01T00:00	8725	328	-33.9	-36.1	261	28
2023-08-01T00:00	8759	327	-34.2	-36.3	262	28
2023-08-01T00:00	8795	325	-34.5	-37.0	262	29
2023-08-01T00:00	8819	324	-34.7	-37.0	263	29
2023-08-01T00:00	8852	323	-35.0	-37.2	264	29
2023-08-01T00:00	8889	321	-35.3	-37.5	264	28
2023-08-01T00:00	8925	319	-35.6	-38.2	264	28
2023-08-01T00:00	8948	318	-35.8	-38.2	263	28
2023-08-01T00:00	8973	317	-36.0	-38.2	262	28
2023-08-01T00:00	9000	316	-36.3		261	28
2023-08-01T00:00	9026	315	-36.5	-38.6	261	28
2023-08-01T00:00	9053	313	-36.7	-38.9	260	28
2023-08-01T00:00	9083	312	-37.0	-39.3	260	28
2023-08-01T00:00	9117	310	-37.3	-39.7	261	28
2023-08-01T00:00	9154	309	-37.6	-40.0	261	27
2023-08-01T00:00	9177	308	-37.8	-40.4	261	27
2023-08-01T00:00	9195	307	-38.0	-40.6	262	27
2023-08-01T00:00	9218	306	-38.1	-40.8	262	27
2023-08-01T00:00	9239	305	-38.3	-40.9	263	27
2023-08-01T00:00	9264	304	-38.5	-41.2	264	27
2023-08-01T00:00	9293	303	-38.8	-41.7	264	28
2023-08-01T00:00	9327	301	-39.1	-42.3	264	28
2023-08-01T00:00	9352	300	-39.3	-42.5	264	29
2023-08-01T00:00	9369	299	-39.5	-42.5	264	29
2023-08-01T00:00	9390	298	-39.7	-42.7	264	29
2023-08-01T00:00	9411	297	-39.9	-43.1	264	29
2023-08-01T00:00	9433	297	-40.1	-43.2	264	29
2023-08-01T00:00	9454	296	-40.3	-43.4	264	29
2023-08-01T00:00	9476	295	-40.5	-43.6	265	29
2023-08-01T00:00	9502	293	-40.7	-43.7	265	30
2023-08-01T00:00	9529	292	-40.9	-43.9	265	30
2023-08-01T00:00	9559	291	-41.2	-44.1	265	30
2023-08-01T00:00	9583	290	-41.4	-44.3	266	30
2023-08-01T00:00	9621	289	-41.7	-44.9	266	31
2023-08-01T00:00	9643	287	-41.9	-45.2	266	31
2023-08-01T00:00	9663	287	-42.1	-45.0	267	31
2023-08-01T00:00	9687	285	-42.3	-44.9	267	31
2023-08-01T00:00	9725	284	-42.6	-45.1	267	31
2023-08-01T00:00	9748	283	-42.9	-45.7	268	32
2023-08-01T00:00	9767	282	-43.0	-45.6	268	32
2023-08-01T00:00	9786	281	-43.2	-46.0	268	32
2023-08-01T00:00	9805	281	-43.3	-46.5	269	32
2023-08-01T00:00	9826	280	-43.5	-46.9	269	33
2023-08-01T00:00	9846	279	-43.7	-47.2	269	33
2023-08-01T00:00	9865	278	-43.8	-47.3	269	33
2023-08-01T00:00	9885	277	-44.0		269	33
2023-08-01T00:00	9904	276	-44.2	-47.4	270	33
2023-08-01T00:00	9925	276	-44.4	-47.5	270	33
2023-08-01T00:00	9946	275	-44.6	-47.8	270	33
2023-08-01T00:00	9964	274	-44.7	-47.9	270	33
2023-08-01T00:00	9982	273	-44.9	-48.1	270	33
2023-08-01T00:00	10002	272	-45.1	-48.3	271	33
2023-08-01T00:00	10023	272	-45.3	-48.5	271	33
2023-08-01T00:00	10047	271	-45.5	-48.6	271	33
2023-08-01T00:00	10067	270	-45.7	-48.9	271	33
2023-08-01T00:00	10088	269	-45.8	-49.2	271	33
2023-08-01T00:00	10112	268	-46.0	-49.4	271	33
2023-08-01T00:00	10134	267	-46.2	-49.7	271	33
2023-08-01T00:00	10156	266	-46.4	-50.2	271	33
2023-08-01T00:00	10182	265	-46.7	-50.3	271	33
2023-08-01T00:00	10212	264	-47.0	-50.5	271	33
2023-08-01T00:00	10241	263	-47.2	-50.8	271	33
2023-08-01T00:00	10263	262	-47.4	-51.0	272	33
2023-08-01T00:00	10286	261	-47.7	-51.2	272	33
2023-08-01T00:00	10310	260	-47.9	-51.3	272	34
2023-08-01T00:00	10336	259	-48.1	-51.6	272	34
2023-08-01T00:00	10361	258	-48.3	-51.9	272	34
2023-08-01T00:00	10387	257	-48.5	-52.2	272	34
2023-08-01T00:00	10415	256	-48.8	-52.5	271	34
2023-08-01T00:00	10443	255	-49.1	-52.8	271	34
2023-08-01T00:00	10468	254	-49.3	-53.0	271	34
2023-08-01T00:00	10499	253	-49.6	-53.1	270	34
2023-08-01T00:00	10534	251	-49.9	-53.4	270	35
2023-08-01T00:00	10564	250	-50.2	-53.9	270	35
2023-08-01T00:00	10585	249	-50.4	-54.4	271	35
2023-08-01T00:00	10607	249	-50.6	-54.4	271	35
2023-08-01T00:00	10638	247	-50.9	-54.7	271	35
2023-08-01T00:00	10668	246	-51.2	-55.4	271	35
2023-08-01T00:00	10686	246	-51.4	-55.9	271	35
2023-08-01T00:00	10709	245	-51.6	-56.1	271	35
2023-08-01T00:00	10733	244	-51.8	-56.1	271	36
2023-08-01T00:00	10760	243	-52.0	-56.2	271	36
2023-08-01T00:00	10795	242	-52.3	-56.4	271	36
2023-08-01T00:00	10814	241	-52.5	-56.7	272	36
2023-08-01T00:00	10836	240	-52.7	-56.9	273	36
2023-08-01T00:00	10867	239	-53.0	-57.2	274	36
2023-08-01T00:00	10898	238	-53.2	-57.3	275	37
2023-08-01T00:00	10918	237	-53.3	-57.5	276	37
2023-08-01T00:00	10941	236	-53.5	-57.7	276	38
2023-08-01T00:00	10973	235	-53.7	-57.9	276	39
2023-08-01T00:00	11009	234	-53.9	-58.1	276	40
2023-08-01T00:00	11044	232	-54.1	-58.4	277	40
2023-08-01T00:00	11072	231	-54.3	-58.6	277	41
2023-08-01T00:00	11095	231	-54.5	-58.7	278	42
2023-08-01T00:00	11115	230	-54.6	-58.7	278	42
2023-08-01T00:00	11138	229	-54.7	-58.8	278	43
2023-08-01T00:00	11166	228	-54.9	-59.0	278	44
2023-08-01T00:00	11197	227	-55.1	-59.3	278	44
2023-08-01T00:00	11220	226	-55.3	-59.6	278	44
2023-08-01T00:00	11243	225	-55.5	-59.7	277	44
2023-08-01T00:00	11268	224	-55.7	-59.9	277	44
2023-08-01T00:00	11291	224	-55.9	-60.0	277	45
2023-08-01T00:00	11310	223	-56.1	-60.2	276	45
2023-08-01T00:00	11332	222	-56.3	-60.4	276	45
2023-08-01T00:00	11353	221	-56.4	-60.5	276	45
2023-08-01T00:00	11376	221	-56.6	-60.5	276	45
2023-08-01T00:00	11397	220	-56.7	-60.1	277	45
2023-08-01T00:00	11419	219	-56.8	-59.6	277	46
2023-08-01T00:00	11441	218	-56.9	-59.3	277	46
2023-08-01T00:00	11459	218	-57.0	-59.3	277	46
2023-08-01T00:00	11482	217	-57.2	-59.4	278	46
2023-08-01T00:00	11502	216	-57.3	-59.6	278	46
2023-08-01T00:00	11525	215	-57.5	-60.1	278	47
2023-08-01T00:00	11545	215	-57.7	-60.5	278	47
2023-08-01T00:00	11567	214	-57.8	-60.5	277	47
2023-08-01T00:00	11586	213	-57.9	-60.5	277	48
2023-08-01T00:00	11606	213	-57.9	-60.6	277	47
2023-08-01T00:00	11626	212	-58.0	-60.8	277	47
2023-08-01T00:00	11648	211	-58.1	-60.8	277	47
2023-08-01T00:00	11668	211	-58.2	-60.4	277	47
2023-08-01T00:00	11688	210	-58.4	-60.2	276	47
2023-08-01T00:00	11710	209	-58.5	-60.1	276	47
2023-08-01T00:00	11730	209	-58.6	-60.1	276	47
2023-08-01T00:00	11749	208	-58.6	-60.3	276	47
2023-08-01T00:00	11769	207	-58.7	-60.9	277	46
2023-08-01T00:00	11792	207	-58.6	-62.0	278	46
2023-08-01T00:00	11812	206	-58.5	-64.0	279	45
2023-08-01T00:00	11833	205	-58.2	-66.4	281	44
2023-08-01T00:00	11857	204	-58.1		283	43
2023-08-01T00:00	11888	203	-57.0	-69.9	284	42
2023-08-01T00:00	11912	203	-56.7	-70.7	285	40
2023-08-01T00:00	11945	201	-56.6	-71.1	285	38
2023-08-01T00:00	11985	200	-56.4	-71.4	285	36
2023-08-01T00:00	12019	199	-56.4	-71.8	284	34
2023-08-01T00:00	12059	198	-55.9	-72.1	283	32
2023-08-01T00:00	12087	197	-55.3	-72.0	281	30
2023-08-01T00:00	12112	196	-55.3	-72.2	278	29
2023-08-01T00:00	12143	195	-55.3	-72.2	276	28
2023-08-01T00:00	12165	195	-55.0	-72.1	273	27
2023-08-01T00:00	12190	194	-54.8	-72.0	272	26
2023-08-01T00:00	12211	193	-54.8	-71.9	271	25
2023-08-01T00:00	12250	192	-54.8	-71.9	271	25
2023-08-01T00:00	12276	191	-54.8	-72.2	271	24
2023-08-01T00:00	12293	191	-54.7	-72.4	270	23
2023-08-01T00:00	12311	190	-54.6	-72.6	268	23
2023-08-01T00:00	12327	190	-54.4	-73.0	266	23
2023-08-01T00:00	12346	189	-54.1	-73.5	265	23
2023-08-01T00:00	12366	189	-53.8	-74.4	265	23
2023-08-01T00:00	12385	188	-53.5	-74.9	265	24
2023-08-01T00:00	12407	188	-53.1	-74.6	266	24
2023-08-01T00:00	12426	187	-52.8	-74.2	266	24
2023-08-01T00:00	12446	186	-52.7	-74.2	267	24
2023-08-01T00:00	12465	186	-52.7	-74.5	268	24
2023-08-01T00:00	12483	185	-52.5	-74.8	269	24
2023-08-01T00:00	12503	185	-52.3	-74.9	270	23
2023-08-01T00:00	12522	184	-52.4	-75.3	270	23
2023-08-01T00:00	12541	184	-52.3	-75.2	270	23
2023-08-01T00:00	12560	183	-52.2	-75.1	271	22
2023-08-01T00:00	12580	182	-52.2	-75.5	272	22
2023-08-01T00:00	12608	182	-52.2	-76.2	273	21
2023-08-01T00:00	12640	181	-51.3	-76.2	273	20
2023-08-01T00:00	12662	180	-50.9	-76.1	272	20
2023-08-01T00:00	12682	180	-50.9	-76.1	271	19
2023-08-01T00:00	12702	179	-50.9	-76.4	269	19
2023-08-01T00:00	12721	179	-50.9	-76.6	268	19
2023-08-01T00:00	12743	178	-50.7	-76.7	267	19
2023-08-01T00:00	12762	177	-50.8	-77.0	266	19
2023-08-01T00:00	12782	177	-50.9	-76.8	265	19
2023-08-01T00:00	12802	176	-51.0	-76.9	264	19
2023-08-01T00:00	12823	176	-51.1	-77.2	263	19
2023-08-01T00:00	12843	175	-51.2	-77.3	262	19
2023-08-01T00:00	12866	175	-51.4	-77.7	261	20
2023-08-01T00:00	12883	174	-51.5	-77.8	261	20
2023-08-01T00:00	12904	174	-51.5	-77.8	261	20
2023-08-01T00:00	12922	173	-51.6	-77.9	261	21
2023-08-01T00:00	12941	173	-51.6	-78.1	261	21
2023-08-01T00:00	12962	172	-51.7	-78.5	262	20
2023-08-01T00:00	12982	172	-51.5	-78.6	263	20
2023-08-01T00:00	13001	171	-51.1	-78.6	264	20
2023-08-01T00:00	13021	171	-50.5	-78.5	265	20
2023-08-01T00:00	13040	170	-50.4	-78.4	266	20
2023-08-01T00:00	13062	170	-50.4	-78.7	268	20
2023-08-01T00:00	13079	169	-50.3	-78.7	269	21
2023-08-01T00:00	13098	169	-50.3	-79.0	270	21
2023-08-01T00:00	13121	168	-50.1	-78.9	272	21
2023-08-01T00:00	13138	168	-50.0	-78.8	273	21
2023-08-01T00:00	13158	167	-49.9	-79.1	274	21
2023-08-01T00:00	13177	167	-49.7	-78.9	274	20
2023-08-01T00:00	13195	166	-49.6	-78.8	274	20
2023-08-01T00:00	13216	166	-49.6	-78.8	274	19
2023-08-01T00:00	13236	165	-49.5	-78.8	274	19
2023-08-01T00:00	13255	165	-49.6	-78.8	273	18
2023-08-01T00:00	13274	164	-49.5	-78.8	272	18
2023-08-01T00:00	13298	164	-49.6	-78.8	271	18
2023-08-01T00:00	13316	163	-49.7	-78.9	270	17
2023-08-01T00:00	13338	162	-49.9	-79.1	269	17
2023-08-01T00:00	13358	162	-50.1	-79.2	268	17
2023-08-01T00:00	13378	161	-50.3	-79.4	267	17
2023-08-01T00:00	13396	161	-50.4	-79.5	266	17
2023-08-01T00:00	13416	161	-50.6	-79.2	267	17
2023-08-01T00:00	13436	160	-50.6	-79.2	267	18
2023-08-01T00:00	13455	160	-50.5	-79.5	267	18
2023-08-01T00:00	13477	159	-50.4	-79.5	268	18
2023-08-01T00:00	13496	159	-50.2	-79.3	268	18
2023-08-01T00:00	13516	158	-50.2	-79.7	267	18
2023-08-01T00:00	13541	158	-50.2	-79.7	267	18
2023-08-01T00:00	13559	157	-50.0	-79.5	266	17
2023-08-01T00:00	13580	157	-49.7	-79.7	265	17
2023-08-01T00:00	13600	156	-49.9	-79.9	264	17
2023-08-01T00:00	13621	156	-50.0	-80.0	262	17
2023-08-01T00:00	13641	155	-49.9	-79.9	261	17
2023-08-01T00:00	13660	155	-50.0	-79.5	260	17
2023-08-01T00:00	13680	154	-50.0	-79.5	259	17
2023-08-01T00:00	13698	154	-50.1	-79.6	259	17
2023-08-01T00:00	13718	153	-50.3	-79.8	258	18
2023-08-01T00:00	13737	153	-50.3	-79.8	259	18
2023-08-01T00:00	13756	152	-50.4	-79.8	259	19
2023-08-01T00:00	13775	152	-50.5	-79.9	259	19
2023-08-01T00:00	13794	152	-50.4	-80.3	260	19
2023-08-01T00:00	13811	151	-50.4	-80.3	260	19
2023-08-01T00:00	13831	151	-50.1	-80.0	260	19
2023-08-01T00:00	13849	150	-50.1	-80.0	261	18
2023-08-01T00:00	13867	150	-50.1	-80.0	261	18
2023-08-01T00:00	13887	149	-49.8	-79.8	262	18
2023-08-01T00:00	13906	149	-49.7	-79.7	263	17
2023-08-01T00:00	13924	149	-49.7	-79.7	265	17
2023-08-01T00:00	13944	148	-49.8	-79.8	266	17
2023-08-01T00:00	13965	148	-49.9	-79.9	267	17
2023-08-01T00:00	13984	147	-50.1	-80.0	268	17
2023-08-01T00:00	14005	147	-50.1	-79.6	269	17
2023-08-01T00:00	14024	146	-50.0	-79.5	269	17
2023-08-01T00:00	14042	146	-50.0	-80.0	269	17
2023-08-01T00:00	14064	145	-50.0	-80.0	268	17
2023-08-01T00:00	14082	145	-50.0	-80.0	268	17
2023-08-01T00:00	14102	145	-50.1	-80.0	268	17
2023-08-01T00:00	14122	144	-50.1	-80.0	268	16
2023-08-01T00:00	14140	144	-50.0	-80.0	268	16
2023-08-01T00:00	14159	143	-49.8	-79.8	268	15
2023-08-01T00:00	14178	143	-49.7	-79.7	267	15
2023-08-01T00:00	14199	142	-49.8	-79.8	266	15
2023-08-01T00:00	14220	142	-49.9	-79.9	265	14
2023-08-01T00:00	14240	142	-50.0	-80.0	264	14
2023-08-01T00:00	14259	141	-50.1	-80.0	263	15
2023-08-01T00:00	14276	141	-50.1	-80.0	263	15
2023-08-01T00:00	14297	140	-50.2	-80.1	263	15
2023-08-01T00:00	14315	140	-50.0	-80.0	263	16
2023-08-01T00:00	14333	139	-50.0	-80.0	263	16
2023-08-01T00:00	14355	139	-50.1	-80.0	264	16
2023-08-01T00:00	14374	139	-50.2	-80.1	264	16
2023-08-01T00:00	14393	138	-50.1	-80.0	265	16
2023-08-01T00:00	14412	138	-50.1	-80.0	266	16
2023-08-01T00:00	14432	137	-50.3	-80.2	266	17
2023-08-01T00:00	14455	137	-50.4	-80.3	266	17
2023-08-01T00:00	14474	137	-50.6	-80.4	267	17
2023-08-01T00:00	14495	136	-50.6	-80.4	267	17
2023-08-01T00:00	14516	136	-50.7	-80.5	268	17
2023-08-01T00:00	14533	135	-50.7	-80.5	270	17
2023-08-01T00:00	14555	135	-50.8	-80.6	272	17
2023-08-01T00:00	14579	134	-50.7	-80.5	274	16
2023-08-01T00:00	14597	134	-50.6	-80.4	275	16
2023-08-01T00:00	14615	134	-50.5	-80.8	275	15
2023-08-01T00:00	14635	133	-50.4	-80.7	275	15
2023-08-01T00:00	14654	133	-50.6	-80.9	274	14
2023-08-01T00:00	14673	132	-50.6	-80.9	272	14
2023-08-01T00:00	14694	132	-50.6	-80.9	271	13
2023-08-01T00:00	14712	132	-50.5	-80.8	269	13
2023-08-01T00:00	14732	131	-50.4	-80.7	267	12
2023-08-01T00:00	14754	131	-50.3	-80.6	265	12
2023-08-01T00:00	14773	130	-50.2	-81.0	264	12
2023-08-01T00:00	14794	130	-50.3	-81.1	264	12
2023-08-01T00:00	14815	130	-50.1	-81.0	265	12
2023-08-01T00:00	14836	129	-50.0	-80.9	265	12
2023-08-01T00:00	14855	129	-50.1	-81.0	266	12
2023-08-01T00:00	14874	128	-50.0	-80.9	266	12
2023-08-01T00:00	14896	128	-50.0	-80.9	266	12
2023-08-01T00:00	14917	128	-50.1	-81.0	266	12
2023-08-01T00:00	14938	127	-50.0	-80.9	265	11
2023-08-01T00:00	14959	127	-49.8	-80.8	265	11
2023-08-01T00:00	14981	126	-49.9	-80.8	265	11
2023-08-01T00:00	15000	126	-50.0	-80.9	265	11
2023-08-01T00:00	15018	126	-50.1	-81.0	266	12
2023-08-01T00:00	15039	125	-50.2	-81.0	267	12
2023-08-01T00:00	15061	125	-50.1	-81.0	268	12
2023-08-01T00:00	15082	124	-50.0	-80.9	269	12
2023-08-01T00:00	15104	124	-50.1	-81.0	270	12
2023-08-01T00:00	15125	124	-50.1	-81.0	270	12
2023-08-01T00:00	15145	123	-50.1	-81.0	270	12
2023-08-01T00:00	15164	123	-50.1	-81.0	270	12
2023-08-01T00:00	15186	122	-50.2	-81.0	270	12
2023-08-01T00:00	15206	122	-50.0	-81.4	270	13
2023-08-01T00:00	15228	122	-49.9	-81.3	270	13
2023-08-01T00:00	15249	121	-49.9	-81.3	269	13
2023-08-01T00:00	15270	121	-49.7	-81.2	268	12
2023-08-01T00:00	15290	121	-49.6	-81.1	267	12
2023-08-01T00:00	15309	120	-49.5	-81.1	267	12
2023-08-01T00:00	15328	120	-49.7	-81.2	266	12
2023-08-01T00:00	15350	119	-49.8	-81.3	267	11
2023-08-01T00:00	15368	119	-49.9	-81.3	269	11
2023-08-01T00:00	15390	119	-49.9	-81.3	271	11
2023-08-01T00:00	15410	118	-49.7	-81.2	273	11
2023-08-01T00:00	15428	118	-49.7	-81.2	274	10
2023-08-01T00:00	15449	118	-49.7	-81.8	275	10
2023-08-01T00:00	15470	117	-49.7	-81.8	276	9
2023-08-01T00:00	15488	117	-49.6	-81.7	276	9
2023-08-01T00:00	15507	117	-49.6	-81.7	277	9
2023-08-01T00:00	15525	116	-49.6	-81.7	278	8
2023-08-01T00:00	15547	116	-49.7	-81.8	280	8
2023-08-01T00:00	15563	116	-49.7	-81.2	282	8
2023-08-01T00:00	15583	115	-49.8	-81.3	283	8
2023-08-01T00:00	15603	115	-49.9	-81.3	283	7
2023-08-01T00:00	15625	115	-50.0	-81.4	282	7
2023-08-01T00:00	15642	114	-50.0	-82.0	280	6
2023-08-01T00:00	15664	114	-50.0	-82.0	276	6
2023-08-01T00:00	15682	113	-49.8	-81.8	271	6
2023-08-01T00:00	15701	113	-49.9	-81.9	267	6
2023-08-01T00:00	15719	113	-50.0	-82.0	262	6
2023-08-01T00:00	15739	113	-50.1	-82.1	258	6
2023-08-01T00:00	15758	112	-50.2	-82.1	254	6
2023-08-01T00:00	15777	112	-50.2		251	6
2023-08-01T00:00	15796	112	-50.3	-81.6	249	6
2023-08-01T00:00	15816	111	-50.4	-81.7	248	6
2023-08-01T00:00	15836	111	-50.5	-81.8	248	7
2023-08-01T00:00	15856	111	-50.6	-81.9	249	7
2023-08-01T00:00	15874	110	-50.6	-81.9	249	7
2023-08-01T00:00	15895	110	-50.6	-81.9	248	7
2023-08-01T00:00	15915	110	-50.6	-82.4	246	7
2023-08-01T00:00	15935	109	-50.6	-82.4	244	7
2023-08-01T00:00	15954	109	-50.5		242	7
2023-08-01T00:00	15975	108	-50.5		242	7
2023-08-01T00:00	15996	108	-50.3	-82.2	242	8
2023-08-01T00:00	16015	108	-50.2	-82.1	243	8
2023-08-01T00:00	16037	107	-50.4	-82.3	245	9
2023-08-01T00:00	16057	107	-50.6	-82.4	247	9
2023-08-01T00:00	16077	107	-50.7	-82.5	249	10
2023-08-01T00:00	16095	106	-50.7		251	10
2023-08-01T00:00	16119	106	-50.7		254	10
2023-08-01T00:00	16139	106	-50.7		257	10
2023-08-01T00:00	16159	105	-50.8	-82.6	260	10
2023-08-01T00:00	16179	105	-50.7	-82.5	263	10
2023-08-01T00:00	16200	105	-50.6	-82.4	265	9
2023-08-01T00:00	16226	104	-50.4	-82.3	266	9
2023-08-01T00:00	16247	104	-50.5		266	9
2023-08-01T00:00	16269	104	-50.5		266	9
2023-08-01T00:00	16292	103	-50.4	-82.3	265	9
2023-08-01T00:00	16311	103	-50.5		264	9
2023-08-01T00:00	16334	103	-50.6	-82.4	263	9
2023-08-01T00:00	16357	102	-50.6	-82.4	263	9
2023-08-01T00:00	16380	102	-50.6	-82.4	263	9
2023-08-01T00:00	16402	102	-50.6	-82.4	263	9
2023-08-01T00:00	16421	101	-50.6	-82.4	263	8
2023-08-01T00:00	16443	101	-50.6	-82.4	264	8
2023-08-01T00:00	16469	101	-50.6	-82.4	265	8
2023-08-01T00:00	16488	100	-50.6	-82.4	265	7
2023-08-01T00:00	16512	100	-50.7	-82.5	265	7
2023-08-01T00:00	16530	100	-50.7	-82.5	263	6
2023-08-01T00:00	16554	99	-50.7	-82.5	261	7
2023-08-01T00:00	16571	99	-50.8	-82.6	260	7
2023-08-01T00:00	16595	99	-50.9	-82.1	258	7
2023-08-01T00:00	16617	98	-50.9	-82.1	258	7
2023-08-01T00:00	16639	98	-51.0	-82.2	258	8
2023-08-01T00:00	16661	98	-51.1	-82.2	258	8
2023-08-01T00:00	16684	97	-51.2	-82.3	258	8
2023-08-01T00:00	16704	97	-51.3	-82.9	257	8
2023-08-01T00:00	16728	97	-51.3	-82.9	256	8
2023-08-01T00:00	16747	96	-51.4	-83.0	254	8
2023-08-01T00:00	16773	96	-51.1	-82.8	251	8
2023-08-01T00:00	16797	96	-50.9	-82.7	247	7
2023-08-01T00:00	16820	95	-51.0	-82.7	243	7
2023-08-01T00:00	16838	95	-51.1	-82.8	240	7
2023-08-01T00:00	16862	95	-51.3	-82.9	238	8
2023-08-01T00:00	16885	94	-51.3	-82.9	237	8
2023-08-01T00:00	16906	94	-51.3	-82.4	237	8
2023-08-01T00:00	16928	94	-51.4	-82.5	239	8
2023-08-01T00:00	16950	93	-51.4	-82.5	242	8
2023-08-01T00:00	16973	93	-51.6	-82.6	246	8
2023-08-01T00:00	16995	93	-51.7	-82.7	250	8
2023-08-01T00:00	17016	92	-51.8	-82.8	254	9
2023-08-01T00:00	17040	92	-51.9	-82.8	257	9
2023-08-01T00:00	17062	92	-51.9	-83.4	259	9
2023-08-01T00:00	17084	91	-51.6	-83.2	260	9
2023-08-01T00:00	17108	91	-51.6	-83.2	261	9
2023-08-01T00:00	17132	91	-51.5	-83.1	260	8
2023-08-01T00:00	17152	91	-51.2	-82.9	259	8
2023-08-01T00:00	17177	90	-50.9	-82.7	256	8
2023-08-01T00:00	17199	90	-50.9	-82.7	253	7
2023-08-01T00:00	17222	90	-51.0	-82.7	250	7
2023-08-01T00:00	17245	89	-51.1	-82.8	248	7
2023-08-01T00:00	17266	89	-51.2	-82.9	245	6
2023-08-01T00:00	17286	89	-51.2	-82.9	242	6
2023-08-01T00:00	17307	88	-51.3	-82.9	238	5
2023-08-01T00:00	17328	88	-51.5	-83.1	236	5
2023-08-01T00:00	17350	88	-51.6	-83.2	236	5
2023-08-01T00:00	17369	88	-51.8	-83.3	239	5
2023-08-01T00:00	17391	87	-51.8	-83.3	243	6
2023-08-01T00:00	17416	87	-51.8	-83.3	247	6
2023-08-01T00:00	17436	87	-51.8	-83.3	250	7
2023-08-01T00:00	17455	86	-51.8	-83.3	253	7
2023-08-01T00:00	17477	86	-51.9	-83.4	255	7
2023-08-01T00:00	17498	86	-51.9	-83.4	258	8
2023-08-01T00:00	17518	86	-51.7	-83.2	261	8
2023-08-01T00:00	17540	85	-51.6	-83.2	265	8
2023-08-01T00:00	17560	85	-51.7	-83.2	268	9
2023-08-01T00:00	17584	85	-51.8	-83.3	271	9
2023-08-01T00:00	17604	84	-51.9	-83.4	273	9
2023-08-01T00:00	17625	84	-51.8	-83.3	275	9
2023-08-01T00:00	17652	84	-51.5	-83.1	276	8
2023-08-01T00:00	17676	84	-50.9	-83.3	277	8
2023-08-01T00:00	17692	83	-50.7	-83.1	278	7
2023-08-01T00:00	17717	83	-50.8	-83.2	278	7
2023-08-01T00:00	17736	83	-50.6	-83.1	278	6
2023-08-01T00:00	17762	82	-50.6	-83.1	278	6
2023-08-01T00:00	17781	82	-50.8	-82.6	278	6
2023-08-01T00:00	17800	82	-51.0	-82.7	278	6
2023-08-01T00:00	17825	82	-51.1	-82.8	277	6
2023-08-01T00:00	17844	81	-51.2	-82.9	277	6
2023-08-01T00:00	17868	81	-51.3	-82.9	276	6
2023-08-01T00:00	17887	81	-51.4	-83.0	275	7
2023-08-01T00:00	17913	81	-51.5	-83.1	274	7
2023-08-01T00:00	17933	80	-51.5	-83.1	274	7
2023-08-01T00:00	17953	80	-51.5	-83.1	274	7
2023-08-01T00:00	17973	80	-51.5	-83.1	274	6
2023-08-01T00:00	17997	79	-51.4	-83.0	274	6
2023-08-01T00:00	18022	79	-51.5	-83.1	273	6
2023-08-01T00:00	18045	79	-51.5	-83.1	273	6
2023-08-01T00:00	18066	79	-51.6	-83.2	273	6
2023-08-01T00:00	18090	78	-51.1	-83.4	275	6
2023-08-01T00:00	18110	78	-51.1	-83.4	278	5
2023-08-01T00:00	18131	78	-50.7	-83.1	281	5
2023-08-01T00:00	18153	78	-50.3	-82.8	283	4
2023-08-01T00:00	18176	77	-50.0	-83.3	285	4
2023-08-01T00:00	18199	77	-49.9	-83.2	286	3
2023-08-01T00:00	18217	77	-49.4	-82.9	284	2
2023-08-01T00:00	18240	77	-49.1	-82.7	281	2
2023-08-01T00:00	18264	76	-49.0	-82.6	274	2
2023-08-01T00:00	18285	76	-49.2	-82.7	266	2
2023-08-01T00:00	18312	76	-49.4	-82.2	259	2
2023-08-01T00:00	18331	76	-49.4	-82.2	254	2
2023-08-01T00:00	18353	75	-49.5	-82.3	252	2
2023-08-01T00:00	18376	75	-49.5	-82.3	253	3
2023-08-01T00:00	18395	75	-49.7	-82.4	256	3
2023-08-01T00:00	18419	75	-49.8	-82.5	257	3
2023-08-01T00:00	18441	74	-50.0	-82.6	257	3
2023-08-01T00:00	18464	74	-50.2	-82.8	255	3
2023-08-01T00:00	18489	74	-50.4	-82.3	252	3
2023-08-01T00:00	18509	74	-50.6	-82.4	245	3
2023-08-01T00:00	18530	73	-50.5		237	3
2023-08-01T00:00	18553	73	-50.5		225	3
2023-08-01T00:00	18580	73	-50.5	-83.0	214	3
2023-08-01T00:00	18601	72	-50.7	-82.5	204	3
2023-08-01T00:00	18622	72	-50.8	-82.6	197	3
2023-08-01T00:00	18647	72	-50.8	-82.6	193	3
2023-08-01T00:00	18669	72	-51.0	-82.7	191	4
2023-08-01T00:00	18690	71	-51.3	-82.9	190	4
2023-08-01T00:00	18712	71	-51.5	-83.1	190	4
2023-08-01T00:00	18734	71	-51.6	-83.2	191	5
2023-08-01T00:00	18759	71	-51.8	-83.3	193	5
2023-08-01T00:00	18780	71	-52.0	-83.5	196	5
2023-08-01T00:00	18803	70	-52.2	-83.6	199	6
2023-08-01T00:00	18826	70	-52.2	-83.6	202	6
2023-08-01T00:00	18849	70	-52.4	-83.2	205	6
2023-08-01T00:00	18869	70	-52.6	-83.9	209	7
2023-08-01T00:00	18890	69	-52.6	-83.9	214	7
2023-08-01T00:00	18914	69	-52.5	-83.8	218	7
2023-08-01T00:00	18935	69	-52.3	-83.7	222	7
2023-08-01T00:00	18956	69	-52.3	-83.7	225	6
2023-08-01T00:00	18978	68	-52.2	-83.6	227	6
2023-08-01T00:00	19000	68	-52.1	-83.5	228	5
2023-08-01T00:00	19026	68	-51.8	-83.9	229	5
2023-08-01T00:00	19046	68	-51.3	-83.6	230	4
2023-08-01T00:00	19068	67	-51.3	-83.6	232	4
2023-08-01T00:00	19087	67	-51.2	-83.5	235	4
2023-08-01T00:00	19117	67	-51.4	-83.6	238	3
2023-08-01T00:00	19137	67	-51.5	-83.7	240	3
2023-08-01T00:00	19158	67	-51.4	-83.6	242	3
2023-08-01T00:00	19181	66	-51.4	-83.6	244	3
2023-08-01T00:00	19205	66	-51.4	-83.6	245	3
2023-08-01T00:00	19224	66	-51.3	-82.9	247	2
2023-08-01T00:00	19246	66	-51.4	-83.0	248	2
2023-08-01T00:00	19268	65	-51.5	-83.1	247	1
2023-08-01T00:00	19293	65	-51.4	-83.0	243	1
2023-08-01T00:00	19314	65	-51.4	-83.0	225	1
2023-08-01T00:00	19336	65	-51.6	-83.2	172	0
2023-08-01T00:00	19358	65	-51.7	-83.2	136	1
2023-08-01T00:00	19379	64	-51.6	-83.2	125	1
2023-08-01T00:00	19402	64	-51.6	-83.2	123	1
2023-08-01T00:00	19429	64	-51.6	-83.8	125	1
2023-08-01T00:00	19448	64	-51.2	-83.5	131	1
2023-08-01T00:00	19470	63	-50.9	-83.3	139	1
2023-08-01T00:00	19493	63	-50.8	-83.2	143	1
2023-08-01T00:00	19516	63	-51.0	-83.3	142	1
2023-08-01T00:00	19538	63	-51.1	-83.4	135	2
2023-08-01T00:00	19558	63	-51.2	-83.5	128	2
2023-08-01T00:00	19585	62	-51.0	-83.3	126	2
2023-08-01T00:00	19609	62	-51.0	-83.3	127	3
2023-08-01T00:00	19628	62	-50.7	-83.1	132	3
2023-08-01T00:00	19651	62	-50.6	-83.1	137	3
2023-08-01T00:00	19674	61	-50.7	-83.1	143	3
2023-08-01T00:00	19695	61	-50.9	-83.3	150	4
2023-08-01T00:00	19716	61	-51.0	-83.3	157	4
2023-08-01T00:00	19738	61	-51.1	-83.4	166	4
2023-08-01T00:00	19764	61	-51.2	-82.9	175	4
2023-08-01T00:00	19785	60	-51.4	-83.0	183	4
2023-08-01T00:00	19809	60	-51.5	-83.1	191	4
2023-08-01T00:00	19832	60	-51.6	-83.2	196	5
2023-08-01T00:00	19854	60	-51.7	-83.9	201	5
2023-08-01T00:00	19875	60	-51.5	-83.7	204	5
2023-08-01T00:00	19898	59	-51.4	-83.6	206	5
2023-08-01T00:00	19919	59	-51.4	-83.6	207	5
2023-08-01T00:00	19937	59	-51.3	-83.6	209	5
2023-08-01T00:00	19962	59	-50.9	-83.3	211	5
2023-08-01T00:00	19981	59	-50.7	-83.1	213	4
2023-08-01T00:00	20000	58	-50.7	-83.1	215	4
2023-08-01T00:00	20021	58	-50.6	-83.1	218	3
2023-08-01T00:00	20045	58	-50.7	-83.1	221	3
2023-08-01T00:00	20068	58	-50.8	-83.2	224	3
2023-08-01T00:00	20090	58	-50.7	-83.1	228	2
2023-08-01T00:00	20113	57	-50.7	-83.1	231	2
2023-08-01T00:00	20137	57	-50.3	-82.8	232	1
2023-08-01T00:00	20158	57	-50.2	-82.8	229	1
2023-08-01T00:00	20177	57	-50.2	-82.8	216	0
2023-08-01T00:00	20201	57	-50.3	-82.8	179	0
2023-08-01T00:00	20221	57	-50.4	-82.9	121	0
2023-08-01T00:00	20240	56	-50.4	-82.9	104	0
2023-08-01T00:00	20262	56	-50.5	-83.0	109	1
2023-08-01T00:00	20284	56	-50.5	-83.0	122	1
2023-08-01T00:00	20305	56	-50.4	-82.9	136	1
2023-08-01T00:00	20326	56	-50.4	-82.9	148	2
2023-08-01T00:00	20348	55	-50.4	-82.9	157	2
2023-08-01T00:00	20366	55	-50.5	-83.0	166	3
2023-08-01T00:00	20390	55	-50.5	-83.0	175	3
2023-08-01T00:00	20408	55	-50.6	-83.1	187	3
2023-08-01T00:00	20432	55	-50.4	-82.9	203	2
2023-08-01T00:00	20451	55	-50.2	-83.5	222	2
2023-08-01T00:00	20472	54	-50.0	-83.3	238	2
2023-08-01T00:00	20498	54	-49.9	-83.2	246	3
2023-08-01T00:00	20519	54	-49.8	-83.2	247	3
2023-08-01T00:00	20541	54	-49.7	-83.1	239	2
2023-08-01T00:00	20559	54	-49.2	-82.7	224	2
2023-08-01T00:00	20582	53	-49.1	-82.7	207	3
2023-08-01T00:00	20602	53	-49.3	-82.8	194	3
2023-08-01T00:00	20627	53	-49.4	-82.9	188	3
2023-08-01T00:00	20644	53	-49.5	-82.9	186	4
2023-08-01T00:00	20669	53	-49.5	-82.9	188	4
2023-08-01T00:00	20693	53	-49.3	-82.8	191	4
2023-08-01T00:00	20714	52	-49.2	-82.7	196	5
2023-08-01T00:00	20736	52	-49.2	-82.7	200	5
2023-08-01T00:00	20759	52	-49.4	-82.9	205	5
2023-08-01T00:00	20782	52	-49.6	-83.0	210	5
2023-08-01T00:00	20804	52	-49.7	-83.1	216	6
2023-08-01T00:00	20825	51	-49.7	-83.1	221	5
2023-08-01T00:00	20849	51	-49.7	-83.1	226	5
2023-08-01T00:00	20875	51	-49.7	-83.1	230	4
2023-08-01T00:00	20894	51	-49.5	-82.9	234	3
2023-08-01T00:00	20920	51	-49.5	-82.9	238	2
2023-08-01T00:00	20946	51	-49.5	-82.9	249	1
2023-08-01T00:00	20968	50	-49.4	-82.9	295	1
2023-08-01T00:00	20989	50	-49.3	-82.8	357	1
2023-08-01T00:00	21011	50	-49.3	-82.8	12	2
2023-08-01T00:00	21038	50	-49.4	-82.9	19	2
2023-08-01T00:00	21063	50	-49.3	-82.8	25	2
2023-08-01T00:00	21082	50	-49.4	-82.9	32	3
2023-08-01T00:00	21105	49	-49.4	-82.9	42	3
2023-08-01T00:00	21126	49	-49.4	-82.9	55	2
2023-08-01T00:00	21157	49	-49.5	-82.9	69	2
2023-08-01T00:00	21180	49	-49.4	-82.9	85	2
2023-08-01T00:00	21197	49	-49.5	-82.9	102	2
2023-08-01T00:00	21224	48	-49.7	-83.1	118	2
2023-08-01T00:00	21248	48	-49.7	-82.4	134	2
2023-08-01T00:00	21275	48	-49.8	-82.5	149	3
2023-08-01T00:00	21300	48	-49.9	-82.5	164	3
2023-08-01T00:00	21322	48	-50.0	-82.6	177	3
2023-08-01T00:00	21347	48	-50.1	-82.7	189	4
2023-08-01T00:00	21368	47	-50.1	-82.7	200	4
2023-08-01T00:00	21388	47	-50.2	-82.8	208	4
2023-08-01T00:00	21419	47	-50.3	-82.8	214	5
2023-08-01T00:00	21436	47	-50.4	-82.9	220	5
2023-08-01T00:00	21463	47	-50.2	-83.5	226	5
2023-08-01T00:00	21485	47	-50.1	-83.4	232	4
2023-08-01T00:00	21507	46	-49.9	-83.2	238	4
2023-08-01T00:00	21531	46	-49.8	-83.2	243	4
2023-08-01T00:00	21555	46	-49.7	-83.1	248	3
2023-08-01T00:00	21581	46	-49.6	-83.0	252	3
2023-08-01T00:00	21603	46	-49.6	-83.0	256	3
2023-08-01T00:00	21629	46	-49.5	-82.9	260	2
2023-08-01T00:00	21651	45	-49.4	-82.9	266	2
2023-08-01T00:00	21670	45	-49.2	-82.7	273	2
2023-08-01T00:00	21697	45	-49.2	-82.7	280	2
2023-08-01T00:00	21721	45	-49.2	-82.7	287	2
2023-08-01T00:00	21741	45	-49.3	-82.8	293	2
2023-08-01T00:00	21763	45	-49.5	-82.9	299	2
2023-08-01T00:00	21785	44	-49.5	-82.9	306	2
2023-08-01T00:00	21810	44	-49.6	-83.0	314	2
2023-08-01T00:00	21835	44	-49.6	-83.0	323	2
2023-08-01T00:00	21856	44	-49.7	-83.1	334	2
2023-08-01T00:00	21880	44	-49.8	-83.2	345	2
2023-08-01T00:00	21901	44	-49.9	-83.2	356	2
2023-08-01T00:00	21924	44	-49.8	-83.2	4	2
2023-08-01T00:00	21944	43	-49.7	-83.1	9	2
2023-08-01T00:00	21967	43	-49.7	-83.1	11	2
2023-08-01T00:00	21992	43	-49.8	-83.2	13	3
2023-08-01T00:00	22014	43	-49.8	-83.2	16	3
2023-08-01T00:00	22036	43	-49.8	-83.2	18	4
2023-08-01T00:00	22057	43	-49.7	-83.1	21	4
2023-08-01T00:00	22079	43	-49.8	-83.2	24	5
2023-08-01T00:00	22108	42	-49.7	-83.1	27	5
2023-08-01T00:00	22131	42	-49.6	-83.0	30	5
2023-08-01T00:00	22155	42	-49.5	-82.9	34	6
2023-08-01T00:00	22174	42	-49.5	-82.9	39	6
2023-08-01T00:00	22193	42	-49.5	-82.9	44	6
2023-08-01T00:00	22220	42	-49.4	-82.9	50	6
2023-08-01T00:00	22240	41	-49.2	-82.7	57	6
2023-08-01T00:00	22265	41	-49.1	-82.7	65	6
2023-08-01T00:00	22284	41	-49.1	-82.7	72	6
2023-08-01T00:00	22311	41	-49.3	-82.8	78	6
2023-08-01T00:00	22332	41	-49.4	-82.9	85	7
2023-08-01T00:00	22354	41	-49.5	-82.9	91	7
2023-08-01T00:00	22381	41	-49.7	-83.1	97	7
2023-08-01T00:00	22402	41	-49.8	-83.2	103	7
2023-08-01T00:00	22426	40	-49.9	-83.2	109	7
2023-08-01T00:00	22446	40	-50.0	-83.3	115	7
2023-08-01T00:00	22465	40	-49.9	-83.2	119	7
2023-08-01T00:00	22493	40	-49.9	-83.2	123	6
2023-08-01T00:00	22514	40	-49.8	-83.2	125	6
2023-08-01T00:00	22538	40	-49.8	-83.2	126	6
2023-08-01T00:00	22559	40	-49.9	-83.2	126	5
2023-08-01T00:00	22584	39	-50.1	-83.4	125	5
2023-08-01T00:00	22607	39	-50.1	-83.4	123	5
2023-08-01T00:00	22625	39	-50.2	-83.5	118	4
2023-08-01T00:00	22648	39	-50.2	-83.5	112	4
2023-08-01T00:00	22675	39	-50.3	-83.5	104	4
2023-08-01T00:00	22700	39	-50.3	-83.5	97	4
2023-08-01T00:00	22722	39	-50.2	-83.5	89	4
2023-08-01T00:00	22745	38	-50.1	-83.4	82	4
2023-08-01T00:00	22771	38	-50.1	-83.4	75	4
2023-08-01T00:00	22795	38	-50.2	-83.5	68	4
2023-08-01T00:00	22823	38	-50.3	-83.5	62	4
2023-08-01T00:00	22844	38	-50.4	-83.6	59	4
2023-08-01T00:00	22870	38	-50.4	-83.6	60	5
2023-08-01T00:00	22888	38	-50.5	-83.7	63	5
2023-08-01T00:00	22911	37	-50.4	-83.6	67	5
2023-08-01T00:00	22938	37	-50.2	-83.5	73	5
2023-08-01T00:00	22964	37	-50.1	-83.4	79	5
2023-08-01T00:00	22988	37	-50.0	-83.3	87	5
2023-08-01T00:00	23010	37	-50.1	-83.4	94	5
2023-08-01T00:00	23038	37	-50.3	-83.5	100	4
2023-08-01T00:00	23062	37	-50.3	-83.5	104	4
2023-08-01T00:00	23087	36	-50.3	-83.5	103	4
2023-08-01T00:00	23112	36	-50.3	-83.5	98	4
2023-08-01T00:00	23138	36	-50.1	-83.4	90	4
2023-08-01T00:00	23160	36	-50.0	-83.3	81	4
2023-08-01T00:00	23185	36	-50.0	-83.3	74	4
2023-08-01T00:00	23204	36	-50.0	-83.3	71	4
2023-08-01T00:00	23233	36	-49.9	-83.2	71	5
2023-08-01T00:00	23264	36	-49.8	-83.2	74	5
2023-08-01T00:00	23287	35	-49.7	-83.1	77	5
2023-08-01T00:00	23308	35	-49.7	-83.1	81	6
2023-08-01T00:00	23328	35	-49.6	-83.0	83	6
2023-08-01T00:00	23359	35	-49.7	-83.1	83	6
2023-08-01T00:00	23386	35	-49.8	-83.2	81	6
2023-08-01T00:00	23409	35	-49.9	-83.2	76	6
2023-08-01T00:00	23437	35	-49.9	-83.2	71	6
2023-08-01T00:00	23460	34	-49.8	-83.2	65	6
2023-08-01T00:00	23482	34	-49.7	-83.1	60	6
2023-08-01T00:00	23508	34	-49.7	-83.1	56	6
2023-08-01T00:00	23527	34	-49.7	-83.1	54	6
2023-08-01T00:00	23552	34	-49.8	-83.2	53	6
2023-08-01T00:00	23578	34	-49.9	-83.2	54	6
2023-08-01T00:00	23606	34	-50.1	-83.4	56	6
2023-08-01T00:00	23628	34	-49.9	-83.2	60	6
2023-08-01T00:00	23658	33	-49.8	-83.2	64	6
2023-08-01T00:00	23677	33	-49.9	-83.2	68	7
2023-08-01T00:00	23708	33	-50.0	-83.3	72	7
2023-08-01T00:00	23729	33	-50.0	-83.3	76	8
2023-08-01T00:00	23763	33	-50.0	-83.3	80	8
2023-08-01T00:00	23778	33	-49.9	-83.2	83	9
2023-08-01T00:00	23801	33	-50.0	-83.3	86	9
2023-08-01T00:00	23823	33	-50.0	-83.3	88	9
2023-08-01T00:00	23851	32	-50.1	-83.4	88	9
2023-08-01T00:00	23872	32	-50.2	-83.5	88	9
2023-08-01T00:00	23893	32	-50.1	-83.4	86	9
2023-08-01T00:00	23922	32	-50.0	-83.3	84	9
2023-08-01T00:00	23947	32	-50.0	-83.3	82	9
2023-08-01T00:00	23975	32	-50.0	-83.3	81	9
2023-08-01T00:00	23995	32	-49.9	-83.2	81	8
2023-08-01T00:00	24021	32	-50.0	-83.3	82	8
2023-08-01T00:00	24045	31	-49.9	-83.2	84	8
2023-08-01T00:00	24068	31	-49.9	-83.2	86	7
2023-08-01T00:00	24093	31	-49.9	-83.2	88	7
2023-08-01T00:00	24114	31	-49.9	-83.2	90	8
2023-08-01T00:00	24137	31	-49.9	-83.2	93	8
2023-08-01T00:00	24161	31	-49.9	-83.2	95	8
2023-08-01T00:00	24187	31	-49.9	-83.2	97	8
2023-08-01T00:00	24211	31	-49.9	-83.2	99	9
2023-08-01T00:00	24234	31	-49.9	-83.2	101	9
2023-08-01T00:00	24263	30	-50.0	-83.3	101	9
2023-08-01T00:00	24287	30	-50.0	-83.3	101	8
2023-08-01T00:00	24301	30	-50.1	-83.4	100	8
2023-08-01T00:00	24327	30	-49.9	-83.2	98	8
2023-08-01T00:00	24359	30	-49.7	-83.9	95	8
2023-08-01T00:00	24369	30	-49.7	-83.9	92	8
2023-08-01T00:00	24401	30	-49.6	-83.8	90	9
2023-08-01T00:00	24422	30	-49.6	-83.8	90	9
2023-08-01T00:00	24444	30	-49.6	-83.8	90	10
2023-08-01T00:00	24472	30	-49.5	-83.7	91	10
2023-08-01T00:00	24499	29	-49.5	-83.7	93	11
2023-08-01T00:00	24519	29	-49.4	-83.7	94	11
2023-08-01T00:00	24544	29	-49.4	-83.7	95	10
2023-08-01T00:00	24563	29	-49.4	-83.7	95	9
2023-08-01T00:00	24590	29	-49.3	-83.6	94	9
2023-08-01T00:00	24615	29	-49.4	-83.7	92	8
2023-08-01T00:00	24637	29	-49.5	-83.7	90	7
2023-08-01T00:00	24658	29	-49.4	-83.7	89	7
2023-08-01T00:00	24686	29	-49.5	-83.7	89	6
2023-08-01T00:00	24702	28	-49.6	-83.8	91	6
2023-08-01T00:00	24739	28	-49.6	-83.8	93	7
2023-08-01T00:00	24764	28	-49.4	-83.7	96	7
2023-08-01T00:00	24787	28	-49.5	-82.9	99	7
2023-08-01T00:00	24813	28	-49.6	-83.0	101	8
2023-08-01T00:00	24830	28	-49.7	-83.1	104	9
2023-08-01T00:00	24860	28	-49.8	-83.2	106	9
2023-08-01T00:00	24883	28	-49.9	-83.2	109	10
2023-08-01T00:00	24907	28	-49.9	-83.2	112	10
2023-08-01T00:00	24936	27	-49.9	-83.2	115	11
2023-08-01T00:00	24960	27	-49.9	-84.0	118	11
2023-08-01T00:00	24986	27	-49.7	-83.9	120	11
2023-08-01T00:00	25009	27	-49.6	-83.8	123	10
2023-08-01T00:00	25039	27	-49.6	-83.8	124	10
2023-08-01T00:00	25058	27	-49.7	-83.9	125	10
2023-08-01T00:00	25088	27	-49.8	-84.0	125	9
2023-08-01T00:00	25114	27	-49.8	-84.0	126	9
2023-08-01T00:00	25137	27	-49.8	-84.0	128	10
2023-08-01T00:00	25168	27	-49.7	-83.9	130	10
2023-08-01T00:00	25190	26	-49.6	-83.8	132	9
2023-08-01T00:00	25216	26	-49.7	-83.9	133	9
2023-08-01T00:00	25239	26	-49.8	-84.0	134	8
2023-08-01T00:00	25270	26	-49.7	-83.9	133	8
2023-08-01T00:00	25294	26	-49.6	-83.8	130	7
2023-08-01T00:00	25320	26	-49.7	-83.9	125	6
2023-08-01T00:00	25344	26	-49.7	-83.9	118	6
2023-08-01T00:00	25371	26	-49.5	-83.7	109	5
2023-08-01T00:00	25397	26	-49.0	-83.4	100	6
2023-08-01T00:00	25428	26	-48.8	-83.2	94	6
2023-08-01T00:00	25448	25	-48.7	-83.2	92	6
2023-08-01T00:00	25473	25	-48.7	-83.2	92	7
2023-08-01T00:00	25497	25	-48.6	-83.1	96	7
2023-08-01T00:00	25529	25	-48.5	-83.0	100	7
2023-08-01T00:00	25548	25	-48.5	-83.0	105	8
2023-08-01T00:00	25574	25	-48.4	-82.9	108	8
2023-08-01T00:00	25604	25	-48.4	-83.8	109	8
2023-08-01T00:00	25624	25	-48.3	-83.8	107	8
2023-08-01T00:00	25654	25	-48.0	-83.6	103	8
2023-08-01T00:00	25685	25	-47.4	-83.1	97	7
2023-08-01T00:00	25704	24	-47.1	-82.9	91	7
2023-08-01T00:00	25730	24	-46.9	-82.8	87	7
2023-08-01T00:00	25759	24	-46.9	-82.8	85	7
2023-08-01T00:00	25782	24	-46.7	-82.6	86	7
2023-08-01T00:00	25808	24	-46.3	-82.4	89	7
2023-08-01T00:00	25828	24	-46.3	-82.4	93	7
2023-08-01T00:00	25860	24	-46.3	-82.4	97	7
2023-08-01T00:00	25887	24	-46.4	-82.4	102	7
2023-08-01T00:00	25907	24	-46.5	-82.5	106	7
2023-08-01T00:00	25935	24	-46.6	-82.6	111	7
2023-08-01T00:00	25964	24	-46.7	-82.6	114	7
2023-08-01T00:00	25988	23	-46.8	-82.7	117	8
2023-08-01T00:00	26010	23	-46.8	-82.7	119	8
2023-08-01T00:00	26041	23	-46.6	-82.6	119	7
2023-08-01T00:00	26064	23	-46.4	-82.4	119	7
2023-08-01T00:00	26085	23	-46.4	-82.4	119	7
2023-08-01T00:00	26114	23	-46.3	-82.4	119	7
2023-08-01T00:00	26139	23	-46.4	-82.4	120	7
2023-08-01T00:00	26159	23	-46.4	-82.4	123	7
2023-08-01T00:00	26182	23	-46.5	-82.5	126	7
2023-08-01T00:00	26201	23	-46.3	-82.4	128	7
2023-08-01T00:00	26233	23	-46.3	-82.4	130	7
2023-08-01T00:00	26261	23	-46.2	-82.3	130	6
2023-08-01T00:00	26280	22	-46.2	-82.3	127	6
2023-08-01T00:00	26307	22	-46.1	-82.2	124	6
2023-08-01T00:00	26328	22	-46.1	-82.2	118	6
2023-08-01T00:00	26358	22	-46.1	-82.2	112	6
2023-08-01T00:00	26376	22	-46.0	-82.1	106	6
2023-08-01T00:00	26408	22	-46.0	-82.1	101	6
2023-08-01T00:00	26430	22	-46.1	-82.2	97	6
2023-08-01T00:00	26454	22	-46.2	-82.3	95	6
2023-08-01T00:00	26476	22	-46.3	-82.4	94	7
2023-08-01T00:00	26511	22	-46.3	-82.4	94	7
2023-08-01T00:00	26528	22	-46.3	-82.4	93	8
2023-08-01T00:00	26557	22	-46.4	-82.4	92	8
2023-08-01T00:00	26583	21	-46.3	-82.4	89	9
2023-08-01T00:00	26613	21	-46.0	-82.1	87	9
2023-08-01T00:00	26626	21	-45.9	-82.1	85	9
2023-08-01T00:00	26657	21	-45.7	-81.9	83	9
2023-08-01T00:00	26679	21	-45.7	-81.9	83	9
2023-08-01T00:00	26713	21	-45.7	-81.9	83	9
2023-08-01T00:00	26739	21	-45.7	-81.9	84	9
2023-08-01T00:00	26757	21	-45.9	-82.1	84	10
2023-08-01T00:00	26784	21	-45.9	-82.1	84	10
2023-08-01T00:00	26804	21	-46.0	-82.1	85	10
2023-08-01T00:00	26833	21	-46.0	-82.1	86	10
2023-08-01T00:00	26858	21	-46.1	-82.2	88	11
2023-08-01T00:00	26879	20	-46.1	-82.2	90	11
2023-08-01T00:00	26912	20	-46.3	-82.4	93	11
2023-08-01T00:00	26932	20	-46.5	-82.5	95	11
2023-08-01T00:00	26961	20	-46.6	-82.6	98	12
2023-08-01T00:00	26980	20	-46.7	-82.6	99	12
2023-08-01T00:00	27013	20	-46.8	-82.7	100	12
2023-08-01T00:00	27041	20	-46.8	-82.7	101	12
2023-08-01T00:00	27066	20	-46.8	-82.7	102	12
2023-08-01T00:00	27090	20	-46.7	-82.6	102	11
2023-08-01T00:00	27121	20	-46.5	-82.5	103	11
2023-08-01T00:00	27144	20	-46.3	-82.4	103	10
2023-08-01T00:00	27159	20	-46.2	-82.3	103	10
2023-08-01T00:00	27187	20	-46.1	-82.2	103	9
2023-08-01T00:00	27218	19	-46.1	-82.2	103	9
2023-08-01T00:00	27246	19	-46.3	-82.4	102	9
2023-08-01T00:00	27273	19	-46.1	-82.2	102	9
2023-08-01T00:00	27298	19	-46.0	-82.1	103	8
2023-08-01T00:00	27327	19	-46.0	-82.1	104	8
2023-08-01T00:00	27362	19	-45.8	-82.0	105	8
2023-08-01T00:00	27372	19	-45.8	-82.0	107	7
2023-08-01T00:00	27405	19	-45.7	-81.9	108	7
2023-08-01T00:00	27423	19	-45.6	-82.9	110	6
2023-08-01T00:00	27457	19	-45.5	-82.9	111	6
2023-08-01T00:00	27481	19	-45.4	-82.8	112	5
2023-08-01T00:00	27512	19	-45.2	-82.7	111	5
2023-08-01T00:00	27551	19	-45.1	-82.6	108	5
2023-08-01T00:00	27558	18	-45.0	-82.5	101	5
2023-08-01T00:00	27592	18	-44.7	-82.3	92	5
2023-08-01T00:00	27618	18	-44.4	-82.1	84	6
2023-08-01T00:00	27649	18	-44.2	-82.0	79	7
2023-08-01T00:00	27681	18	-44.0	-81.8	75	8
2023-08-01T00:00	27698	18	-43.8	-81.7	73	8
2023-08-01T00:00	27723	18	-43.5	-81.5	72	8
2023-08-01T00:00	27755	18	-43.5	-81.5	71	8
2023-08-01T00:00	27782	18	-43.5	-81.5	71	8
2023-08-01T00:00	27813	18	-43.7	-81.6	71	8
2023-08-01T00:00	27825	18	-43.8	-81.7	70	7
2023-08-01T00:00	27860	18	-43.9	-81.8	70	7
2023-08-01T00:00	27892	18	-44.0	-81.8	69	7
2023-08-01T00:00	27910	18	-44.1	-81.9	70	7
2023-08-01T00:00	27948	17	-44.2	-82.0	71	8
2023-08-01T00:00	27956	17	-44.2	-82.0	74	8
2023-08-01T00:00	27993	17	-44.2	-82.0	78	8
2023-08-01T00:00	28022	17	-44.2	-82.0	83	9
2023-08-01T00:00	28059	17	-44.2	-82.0	87	9
2023-08-01T00:00	28075	17	-44.3	-82.0	91	9
2023-08-01T00:00	28107	17	-44.4	-82.1	94	9
2023-08-01T00:00	28131	17	-44.5	-82.2	96	9
2023-08-01T00:00	28156	17	-44.6	-82.2	97	9
2023-08-01T00:00	28183	17	-44.7	-82.3	96	9
2023-08-01T00:00	28206	17	-44.6	-82.2	94	9
2023-08-01T00:00	28227	17	-44.5	-82.2	92	10
2023-08-01T00:00	28260	17	-44.6	-82.2	90	10
2023-08-01T00:00	28274	17	-44.5	-82.2	88	10
2023-08-01T00:00	28309	17	-44.5	-82.2	87	11
2023-08-01T00:00	28326	17	-44.5	-82.2	87	11
2023-08-01T00:00	28352	16	-44.4	-82.1	88	12
2023-08-01T00:00	28379	16	-44.3	-82.0	89	12
2023-08-01T00:00	28411	16	-44.1	-81.9	90	12
2023-08-01T00:00	28438	16	-44.0	-81.8	92	12
2023-08-01T00:00	28449	16	-44.1	-81.9	94	12
2023-08-01T00:00	28484	16	-44.0	-81.8	96	12
2023-08-01T00:00	28504	16	-44.2	-82.0	97	12
2023-08-01T00:00	28539	16	-44.1	-81.9	98	12
2023-08-01T00:00	28552	16	-44.2	-82.0	99	12
2023-08-01T00:00	28591	16	-44.2	-82.0	100	12
2023-08-01T00:00	28607	16	-44.2	-82.0	100	11
2023-08-01T00:00	28637	16	-44.3	-82.0	100	11
2023-08-01T00:00	28673	16	-44.1	-81.9	100	10
2023-08-01T00:00	28686	16	-44.0	-81.8	99	10
2023-08-01T00:00	28713	16	-43.9	-81.8	98	9
2023-08-01T00:00	28741	16	-43.8	-81.7	97	9
2023-08-01T00:00	28769	15	-43.7	-81.6	95	8
2023-08-01T00:00	28794	15	-43.6	-81.5	94	8
2023-08-01T00:00	28817	15	-43.7	-81.6	92	8
2023-08-01T00:00	28838	15	-43.7	-81.6	91	9
2023-08-01T00:00	28872	15	-43.7	-81.6	89	9
2023-08-01T00:00	28891	15	-43.7	-81.6	87	9
2023-08-01T00:00	28926	15	-43.8	-81.7	85	9
2023-08-01T00:00	28959	15	-43.7	-81.6	84	10
2023-08-01T00:00	28968	15	-43.6	-81.5	82	10
2023-08-01T00:00	28995	15	-43.7	-81.6	82	11
2023-08-01T00:00	29026	15	-43.7	-81.6	82	11
2023-08-01T00:00	29051	15	-43.7	-81.6	84	11
2023-08-01T00:00	29081	15	-43.7	-81.6	87	12
2023-08-01T00:00	29112	15	-43.6	-81.5	91	12
2023-08-01T00:00	29144	15	-43.4	-81.4	95	12
2023-08-01T00:00	29170	15	-43.3	-81.3	99	12
2023-08-01T00:00	29193	15	-43.2	-81.3	101	13
2023-08-01T00:00	29218	14	-43.1	-81.2	102	13
2023-08-01T00:00	29242	14	-43.0	-81.1	102	14
2023-08-01T00:00	29263	14	-43.0	-81.1	102	14
2023-08-01T00:00	29283	14	-43.1	-81.2	101	14
2023-08-01T00:00	29322	14	-43.1	-81.2	100	14
2023-08-01T00:00	29349	14	-43.1	-81.2	100	13
2023-08-01T00:00	29377	14	-43.1	-81.2	100	13
2023-08-01T00:00	29407	14	-43.2	-81.3	101	12
2023-08-01T00:00	29424	14	-43.2	-81.3	103	12
2023-08-01T00:00	29442	14	-43.2	-81.3	104	12
2023-08-01T00:00	29467	14	-43.2	-81.3	105	12
2023-08-01T00:00	29500	14	-43.2	-81.3	105	12
2023-08-01T00:00	29526	14	-43.2	-81.3	105	11
2023-08-01T00:00	29561	14	-43.0	-81.1	104	11
2023-08-01T00:00	29594	14	-42.9	-81.1	103	11
2023-08-01T00:00	29609	14	-42.7	-80.9	102	11
2023-08-01T00:00	29637	14	-42.5	-80.8	101	10
2023-08-01T00:00	29663	14	-42.5	-80.8	100	10
2023-08-01T00:00	29692	13	-42.4	-80.7	100	10
2023-08-01T00:00	29706	13	-42.2	-80.6	100	10
2023-08-01T00:00	29741	13	-42.2	-80.6	100	10
2023-08-01T00:00	29766	13	-42.1	-80.5	100	9
2023-08-01T00:00	29799	13	-42.0	-80.4	100	9
2023-08-01T00:00	29805	13	-42.0	-80.4	100	9
2023-08-01T00:00	29843	13	-41.8	-80.3	100	9
2023-08-01T00:00	29879	13	-41.7	-80.2	102	8
2023-08-01T00:00	29899	13	-41.7	-80.2	106	8
2023-08-01T00:00	29933	13	-41.6	-80.1	109	8
2023-08-01T00:00	29942	13	-41.6	-80.1	112	8
2023-08-01T00:00	29984	13	-41.4	-80.0	113	9
2023-08-01T00:00	29996	13	-41.4	-80.0	112	9
2023-08-01T00:00	30026	13	-41.3	-79.9	110	9
2023-08-01T00:00	30055	13	-41.2	-79.9	107	9
2023-08-01T00:00	30071	13	-41.2	-79.9	105	9
2023-08-01T00:00	30125	13	-41.1	-79.8	104	10
2023-08-01T00:00	30136	13	-40.9	-79.7	104	10
2023-08-01T00:00	30168	13	-40.8	-79.6	104	10
2023-08-01T00:00	30192	13	-40.5	-79.4	104	10
2023-08-01T00:00	30218	12	-40.4	-79.3	104	10
2023-08-01T00:00	30244	12	-40.2	-79.2	103	9
2023-08-01T00:00	30275	12	-40.0	-79.0	102	9
2023-08-01T00:00	30284	12	-39.9	-79.0	101	8
2023-08-01T00:00	30320	12	-39.7	-78.8	99	8
2023-08-01T00:00	30348	12	-39.7	-78.8	96	8
2023-08-01T00:00	30367	12	-39.7	-78.8	94	9
2023-08-01T00:00	30406	12	-39.6	-78.8	92	9
2023-08-01T00:00	30426	12	-39.5	-78.7	90	10
2023-08-01T00:00	30453	12	-39.3	-78.5	90	11
2023-08-01T00:00	30486	12	-39.2	-78.5	91	12
2023-08-01T00:00	30503	12	-39.1	-78.4	92	13
2023-08-01T00:00	30532	12	-39.1	-78.4	94	14
2023-08-01T00:00	30544	12	-39.2	-78.5	96	15
2023-08-01T00:00	30562	12	-39.1	-78.4	99	16
2023-08-01T00:00	30605	12	-39.2	-78.5	100	16
2023-08-01T00:00	30626	12	-39.2	-78.5	102	16
2023-08-01T00:00	30652	12	-39.1	-78.4	103	16
2023-08-01T00:00	30672	12	-39.0	-78.3	103	16
2023-08-01T00:00	30706	12	-39.0	-78.3	104	15
2023-08-01T00:00	30728	12	-39.0	-78.3	104	14
2023-08-01T00:00	30757	12	-39.0	-78.3	104	14
2023-08-01T00:00	30776	12	-39.0	-78.3	103	13
2023-08-01T00:00	30814	11	-38.9	-78.3	101	13
2023-08-01T00:00	30828	11	-39.0	-78.3	100	12
2023-08-01T00:00	30846	11	-38.9	-78.3	98	12
2023-08-01T00:00	30882	11	-38.8	-78.2	97	12
2023-08-01T00:00	30895	11	-38.5	-78.0	97	12
2023-08-01T00:00	30936	11	-38.2	-77.8	96	11
2023-08-01T00:00	30937	11	-38.1	-77.7	95	11
2023-08-01T00:00	30960	11	-38.1	-77.7	94	11
2023-08-01T00:00	30998	11	-38.2	-77.8	92	10
2023-08-01T00:00	31015	11	-38.2	-77.8	91	10
2023-08-01T00:00	31049	11	-38.0	-77.6	90	10
2023-08-01T00:00	31070	11	-38.0	-77.6	90	10
2023-08-01T00:00	31082	11	-37.9	-77.6	91	10
2023-08-01T00:00	31115	11	-37.8	-77.5	91	10
2023-08-01T00:00	31124	11	-37.8	-77.5	91	10
2023-08-01T00:00	31144	11	-37.7	-77.4	91	10
2023-08-01T00:00	31179	11	-37.7	-77.4	90	10
2023-08-01T00:00	31196	11	-37.8	-77.5	90	10
2023-08-01T00:00	31226	11	-37.8	-77.5	89	10
2023-08-01T00:00	31247	11	-37.8	-77.5	87	10
2023-08-01T00:00	31281	11	-37.8	-77.5	86	10
2023-08-01T00:00	31303	11	-37.9	-77.6	84	11
2023-08-01T00:00	31332	11	-37.9	-77.6	82	11
2023-08-01T00:00	31364	11	-37.9	-77.6	81	11
2023-08-01T00:00	31370	11	-37.9	-77.6	82	12
2023-08-01T00:00	31391	11	-37.8	-77.5	83	12
2023-08-01T00:00	31426	10	-37.7	-77.4	86	12
2023-08-01T00:00	31462	10	-37.6	-77.4	89	13
2023-08-01T00:00	31478	10	-37.6	-77.4	92	13
2023-08-01T00:00	31493	10	-37.6	-77.4	94	13
2023-08-01T00:00	31533	10	-37.7	-77.4	95	13
2023-08-01T00:00	31546	10	-37.6	-77.4	95	14
2023-08-01T00:00	31571	10	-37.5	-77.3	94	14
2023-08-01T00:00	31597	10	-37.4	-77.2	92	14
2023-08-01T00:00	31630	10	-37.3	-77.2	91	14
2023-08-01T00:00	31651	10	-37.3	-77.2	90	15
2023-08-01T00:00	31674	10	-37.1	-77.0	89	15
2023-08-01T00:00	31694	10	-36.9	-76.9	89	15
2023-08-01T00:00	31747	10	-36.7	-76.7	90	15
2023-08-01T00:00	31751	10	-36.3	-76.5	91	15
2023-08-01T00:00	31779	10	-36.1	-76.3	91	15
2023-08-01T00:00	31797	10	-36.1	-76.3	92	16
2023-08-01T00:00	31825	10	-36.1	-76.3	92	16
2023-08-01T00:00	31881	10	-36.1	-76.3	92	16
2023-08-01T00:00	31891	10	-36.0	-76.3	91	16
2023-08-01T00:00	31919	10	-35.7	-76.1	91	16
2023-08-01T00:00	31940	10	-35.4	-75.8	91	16
2023-08-01T00:00	31946	10	-35.4	-75.8	91	15
2023-08-01T00:00	31991	10	-35.2	-75.7	92	15
2023-08-01T00:00	32034	10	-35.2	-75.7	94	14
2023-08-01T00:00	32052	10	-35.0	-75.6	95	14
2023-08-01T00:00	32061	10	-35.0	-75.6	97	14
2023-08-01T00:00	32084	10	-35.0	-75.6	99	13
2023-08-01T00:00	32119	9	-35.1	-75.6	101	12
2023-08-01T00:00	32150	9	-35.2	-75.7	103	12
2023-08-01T00:00	32176	9	-35.2	-75.7	104	11
2023-08-01T00:00	32200	9	-35.2	-75.7	106	10
2023-08-01T00:00	32230	9	-35.1	-75.6	108	9
2023-08-01T00:00	32255	9	-35.0	-75.6	109	8
2023-08-01T00:00	32270	9	-35.1	-75.6	109	8
2023-08-01T00:00	32310	9	-35.2	-75.7	108	7
2023-08-01T00:00	32361	9	-35.1	-75.6	106	7
2023-08-01T00:00	32379	9	-35.2	-75.7	102	7
2023-08-01T00:00	32388	9	-35.2	-75.7	97	7
2023-08-01T00:00	32428	9	-35.1	-75.6	93	7
2023-08-01T00:00	32468	9	-34.9	-75.5	90	8
2023-08-01T00:00	32499	9	-34.9	-75.5	91	8
2023-08-01T00:00	32521	9	-34.9	-75.5	93	8
2023-08-01T00:00	32537	9	-34.9	-75.5	95	7
2023-08-01T00:00	32576	9	-35.0	-75.6	97	7
2023-08-01T00:00	32621	9	-35.2	-75.7	98	6
2023-08-01T00:00	32677	9	-35.3	-75.8	100	6
2023-08-01T00:00	32691	9	-35.3	-75.8	101	6
2023-08-01T00:00	32699	9	-35.3	-75.8	102	6
2023-08-01T00:00	32753	9	-35.2	-75.7	104	6
2023-08-01T00:00	32780	9	-35.2	-75.7	106	7
2023-08-01T00:00	32786	9	-35.3	-75.8	106	7
2023-08-01T00:00	32823	9	-35.4	-75.8	106	8
2023-08-01T00:00	32857	9	-35.4	-75.8	105	9
2023-08-01T00:00	32872	9	-35.5	-75.9	103	9
2023-08-01T00:00	32884	8	-35.4	-75.8	101	10
2023-08-01T00:00	32949	8	-35.5	-75.9	100	10
2023-08-01T00:00	32996	8	-35.4	-75.8	98	11
2023-08-01T00:00	33006	8	-35.5	-75.9	97	11
2023-08-01T00:00	33037	8	-35.6	-76.0	96	12
2023-08-01T00:00	33075	8	-35.7	-76.1	96	12
2023-08-01T00:00	33094	8	-35.7	-76.1	95	13
2023-08-01T00:00	33123	8	-35.8	-76.1	95	13
2023-08-01T00:00	33176	8	-35.8	-76.1	95	13
2023-08-01T00:00	33190	8	-35.8	-76.1	95	14
2023-08-01T00:00	33220	8	-35.8	-76.1	96	14
2023-08-01T00:00	33240	8	-35.8	-76.1	98	14
2023-08-01T00:00	33291	8	-35.9	-76.2	100	14
2023-08-01T00:00	33300	8	-36.0	-76.3	102	15
2023-08-01T00:00	33336	8	-36.1	-76.3	103	14
2023-08-01T00:00	33381	8	-36.2	-76.4	105	14
2023-08-01T00:00	33412	8	-36.3	-76.5	105	14
2023-08-01T00:00	33418	8	-36.3	-76.5	105	13
2023-08-01T00:00	33450	8	-36.3	-76.5	103	12
2023-08-01T00:00	33503	8	-36.3	-76.5	101	11
2023-08-01T00:00	33536	8	-36.2	-76.4	96	9
2023-08-01T00:00	33578	8	-35.7	-76.1	93	9
2023-08-01T00:00	33589	8	-35.4	-75.8	91	9
2023-08-01T00:00	33607	8	-35.1	-75.6	90	8
2023-08-01T00:00	33628	8	-34.8	-75.4	89	8
2023-08-01T00:00	33679	8	-34.6	-75.3	88	8
2023-08-01T00:00	33686	8	-34.4	-75.2	86	7
2023-08-01T00:00	33739	8	-34.4	-75.2	82	7
2023-08-01T00:00	33750	8	-34.4	-75.2	78	8
2023-08-01T00:00	33769	7	-34.3	-75.1	74	8
2023-08-01T00:00	33781	7	-34.0	-74.9	70	9
2023-08-01T00:00	33820	7	-33.9	-74.8	68	10
2023-08-01T00:00	33854	7	-33.8	-74.7	63	11
2023-08-01T00:00	33875	7	-33.5	-74.5	61	11
2023-08-01T00:00	33898	7	-33.2	-74.3	60	11
2023-08-01T00:00	33905	7	-33.1	-74.3	59	11
2023-08-01T00:00	33929	7	-32.9	-74.1	59	11
2023-08-01T00:00	33964	7	-32.8	-74.1	59	11
2023-08-01T00:00	34008	7	-32.8	-74.1	61	11
2023-08-01T00:00	34013	7	-32.9	-74.1	62	10
2023-08-01T00:00	34019	7	-32.9	-74.1	63	10
2023-08-01T00:00	34094	7	-33.0	-74.2	64	11
2023-08-01T00:00	34097	7	-33.2	-74.3	64	11
2023-08-01T00:00	34141	7	-33.2	-74.3	65	12
2023-08-01T00:00	34191	7	-32.7	-74.0	66	13
2023-08-01T00:00	34217	7	-32.3	-73.7	66	14
2023-08-01T00:00	34252	7	-32.3	-73.7	65	14
2023-08-01T00:00	34265	7	-32.4	-73.8	65	15
2023-08-01T00:00	34289	7	-32.4	-73.8	66	15
2023-08-01T00:00	34295	7	-32.5	-73.8	66	16
2023-08-01T00:00	34348	7	-32.4	-73.8	68	16
2023-08-01T00:00	34370	7	-32.4	-73.8	69	17
2023-08-01T00:00	34373	7	-32.3	-73.7	70	17
2023-08-01T00:00	34387	7	-32.2	-73.6	72	17
2023-08-01T00:00	34443	7	-31.9	-73.4	73	18
2023-08-01T00:00	34455	7	-32.2	-73.6	75	18
2023-08-01T00:00	34464	7	-32.6	-73.9	76	18
2023-08-01T00:00	34503	7	-32.3	-73.7	77	18
2023-08-01T00:00	34519	7	-32.4	-73.8	77	18
2023-08-01T00:00	34537	7	-32.2	-73.6	77	17
2023-08-01T00:00	34570	7	-32.2	-73.6	77	16
2023-08-01T00:00	34571	7	-32.2	-73.6	78	15
2023-08-01T00:00	34590	7	-32.2	-73.6	79	15
2023-08-01T00:00	34621	7	-32.3	-73.7	81	14
2023-08-01T00:00	34665	7	-32.7	-74.0	84	13
2023-08-01T00:00	34701	7	-32.7	-74.0	85	12
2023-08-01T00:00	34733	7	-32.3	-73.7	81	11
2023-08-01T00:00	34735	7	-32.1	-73.6	78	11
2023-08-01T00:00	34769	7	-31.7	-73.3	70	11
2023-08-01T00:00	34811	6	-31.2	-73.0	68	11
2023-08-01T00:00	34841	6	-31.1	-72.9	68	12
2023-08-01T00:00	34885	6	-31.0	-72.8	69	13
2023-08-01T00:00	34896	6	-30.7	-72.6	71	15
2023-08-01T00:00	34941	6	-30.5	-72.5	71	16
2023-08-01T00:00	34962	6	-30.1	-72.2	74	18
2023-08-01T00:00	34987	6	-30.2	-72.3	76	19
2023-08-01T00:00	35052	6	-30.2	-72.3	76	20
2023-08-01T00:00	35057	6	-30.3	-72.3	78	20
2023-08-01T00:00	35077	6	-30.4	-72.4	79	20
2023-08-01T00:00	35092	6	-30.4	-72.4	80	21
2023-08-01T00:00	35113	6	-30.5	-72.5	82	21
2023-08-01T00:00	35117	6	-30.5	-72.5	83	21
2023-08-01T00:00	35176	6	-30.5	-72.5	84	20
2023-08-01T06:00	112	986	16.2	15.6	210	3
2023-08-01T06:00	140	983	16.1	15.4	194	4
2023-08-01T06:00	169	979	16.0	15.1	195	6
2023-08-01T06:00	199	976	15.7	15.0	198	7
2023-08-01T06:00	226	973	15.5	14.9	202	9
2023-08-01T06:00	258	969	15.2	15.0	206	10
2023-08-01T06:00	285	966	15.4	14.7	210	10
2023-08-01T06:00	306	963	15.2	14.6	213	11
2023-08-01T06:00	335	961	14.9	14.5	216	12
2023-08-01T06:00	360	958	14.8	14.5	218	13
2023-08-01T06:00	388	955	14.6	14.4	220	13
2023-08-01T06:00	412	952	14.6	14.2	221	14
2023-08-01T06:00	436	949	14.4	14.0	223	14
2023-08-01T06:00	462	946	14.2	14.0	226	15
2023-08-01T06:00	487	943	14.1	14.0	228	15
2023-08-01T06:00	513	940	13.9	13.8	230	16
2023-08-01T06:00	541	937	13.8	13.8	232	16
2023-08-01T06:00	564	935	13.7	13.6	235	17
2023-08-01T06:00	589	932	13.6	13.5	237	17
2023-08-01T06:00	613	929	13.5	13.4	240	17
2023-08-01T06:00	639	927	13.4	13.3	242	18
2023-08-01T06:00	665	924	13.6	13.1	245	18
2023-08-01T06:00	688	921	13.4	13.0	247	18
2023-08-01T06:00	720	918	13.2	13.0	249	18
2023-08-01T06:00	747	915	13.0	12.9	250	18
2023-08-01T06:00	773	912	12.9	12.9	251	18
2023-08-01T06:00	802	909	12.7	12.6	252	17
2023-08-01T06:00	829	906	12.6	12.5	252	16
2023-08-01T06:00	853	903	12.5	12.5	252	16
2023-08-01T06:00	876	901	12.4	12.3	251	15
2023-08-01T06:00	900	898	12.2	12.2	251	14
2023-08-01T06:00	922	896	12.1	12.1	250	13
2023-08-01T06:00	947	893	11.9	11.9	249	13
2023-08-01T06:00	971	891	11.9	11.8	248	12
2023-08-01T06:00	990	889	11.9	11.4	246	12
2023-08-01T06:00	1011	886	11.9	11.2	245	11
2023-08-01T06:00	1034	884	11.8	11.1	244	11
2023-08-01T06:00	1055	882	11.6	10.7	243	11
2023-08-01T06:00	1076	880	11.7	10.5	242	11
2023-08-01T06:00	1101	877	11.5	10.4	241	11
2023-08-01T06:00	1123	875	11.4	10.3	241	12
2023-08-01T06:00	1148	872	11.2	10.2	241	12
2023-08-01T06:00	1171	870	11.1	10.1	241	12
2023-08-01T06:00	1193	867	10.9	10.0	241	12
2023-08-01T06:00	1216	865	10.8	9.8	241	13
2023-08-01T06:00	1236	863	10.7	9.7	241	13
2023-08-01T06:00	1259	861	10.6	9.7	242	14
2023-08-01T06:00	1286	858	10.4	9.5	243	14
2023-08-01T06:00	1312	855	10.2	9.6	245	14
2023-08-01T06:00	1335	853	9.9	9.5	245	14
2023-08-01T06:00	1359	850	9.8	9.3	245	14
2023-08-01T06:00	1381	848	9.7	9.0	244	13
2023-08-01T06:00	1401	846	9.6	8.9	242	13
2023-08-01T06:00	1421	844	9.5	8.9	241	13
2023-08-01T06:00	1448	841	9.4	8.8	240	12
2023-08-01T06:00	1472	839	9.2	8.7	239	12
2023-08-01T06:00	1494	837	9.0	8.6	239	12
2023-08-01T06:00	1517	834	8.9	8.6	238	12
2023-08-01T06:00	1539	832	8.7	8.5	238	12
2023-08-01T06:00	1562	830	8.6	8.3	238	12
2023-08-01T06:00	1582	828	8.5	8.2	238	13
2023-08-01T06:00	1602	826	8.4	8.2	238	13
2023-08-01T06:00	1624	823	8.3	8.1	238	13
2023-08-01T06:00	1650	821	8.2	7.8	237	13
2023-08-01T06:00	1669	819	8.3	7.6	237	13
2023-08-01T06:00	1699	816	8.2	7.4	237	13
2023-08-01T06:00	1723	814	8.0	7.3	238	13
2023-08-01T06:00	1743	812	8.0	7.2	239	13
2023-08-01T06:00	1767	809	7.9	7.1	239	13
2023-08-01T06:00	1796	807	7.7	7.1	238	12
2023-08-01T06:00	1826	804	7.4	6.9	237	12
2023-08-01T06:00	1847	802	7.3	7.1	236	12
2023-08-01T06:00	1872	799	7.1	7.1	237	12
2023-08-01T06:00	1895	797	6.9	6.9	238	12
2023-08-01T06:00	1918	795	6.7	6.7	239	12
2023-08-01T06:00	1943	792	6.6	6.6	240	12
2023-08-01T06:00	1968	790	6.5	6.5	241	12
2023-08-01T06:00	1987	788	6.7	6.3	241	11
2023-08-01T06:00	2010	786	6.5	6.2	241	11
2023-08-01T06:00	2040	783	6.7	5.9	243	12
2023-08-01T06:00	2075	780	6.5	5.5	244	12
2023-08-01T06:00	2104	777	6.5	5.4	246	13
2023-08-01T06:00	2132	774	6.3	5.1	247	13
2023-08-01T06:00	2157	772	6.2	5.1	248	14
2023-08-01T06:00	2175	770	6.1	5.1	247	14
2023-08-01T06:00	2197	768	5.9	5.0	246	14
2023-08-01T06:00	2226	766	5.7	4.9	245	14
2023-08-01T06:00	2252	763	5.6	4.7	245	14
2023-08-01T06:00	2282	761	5.4	4.6	244	13
2023-08-01T06:00	2306	758	5.2	4.5	244	14
2023-08-01T06:00	2333	756	5.2	4.1	245	14
2023-08-01T06:00	2357	753	5.1	3.3	245	14
2023-08-01T06:00	2381	751	5.1	3.3	245	14
2023-08-01T06:00	2405	749	4.9	3.2	245	14
2023-08-01T06:00	2433	746	5.0	2.4	245	14
2023-08-01T06:00	2460	744	4.7	2.4	246	13
2023-08-01T06:00	2486	742	4.6	2.3	246	13
2023-08-01T06:00	2511	739	4.5	2.0	247	13
2023-08-01T06:00	2532	737	4.5	2.1	249	13
2023-08-01T06:00	2557	735	4.3	1.9	249	14
2023-08-01T06:00	2578	733	4.2	2.0	249	15
2023-08-01T06:00	2605	731	4.2	2.0	248	15
2023-08-01T06:00	2629	729	4.0	2.2	246	15
2023-08-01T06:00	2655	726	3.8	2.1	244	15
2023-08-01T06:00	2681	724	3.7	2.0	243	15
2023-08-01T06:00	2703	722	3.6	1.8	242	15
2023-08-01T06:00	2723	720	3.4	1.7	242	14
2023-08-01T06:00	2750	718	3.2	1.8	243	14
2023-08-01T06:00	2775	716	3.0	1.7	245	14
2023-08-01T06:00	2797	714	2.8	1.6	246	14
2023-08-01T06:00	2817	712	2.6	1.6	247	15
2023-08-01T06:00	2844	710	2.4	1.5	248	15
2023-08-01T06:00	2866	708	2.2	1.4	248	16
2023-08-01T06:00	2888	706	2.1	1.4	247	16
2023-08-01T06:00	2910	704	1.9	1.3	247	17
2023-08-01T06:00	2934	702	1.8	1.0	246	17
2023-08-01T06:00	2953	700	1.7	0.8	245	17
2023-08-01T06:00	2973	698	1.6	0.7	244	17
2023-08-01T06:00	2999	696	1.6	0.4	243	17
2023-08-01T06:00	3026	694	1.5	0.2	242	17
2023-08-01T06:00	3055	691	1.3	-0.1	242	17
2023-08-01T06:00	3077	689	1.2	-0.1	242	17
2023-08-01T06:00	3108	687	1.0	-0.6	241	17
2023-08-01T06:00	3131	685	0.9	-0.5	241	17
2023-08-01T06:00	3168	682	0.8	-0.6	241	17
2023-08-01T06:00	3198	679	0.7	-1.2	241	16
2023-08-01T06:00	3221	677	0.5	-1.1	242	16
2023-08-01T06:00	3244	675	0.4	-1.3	242	16
2023-08-01T06:00	3276	673	0.4	-1.7	243	15
2023-08-01T06:00	3302	671	0.3	-1.6	242	15
2023-08-01T06:00	3330	668	0.3	-1.6	241	15
2023-08-01T06:00	3356	666	0.0	-1.7	240	15
2023-08-01T06:00	3381	664	-0.2	-1.7	238	15
2023-08-01T06:00	3405	662	-0.4	-1.7	238	15
2023-08-01T06:00	3426	660	-0.6	-1.8	237	15
2023-08-01T06:00	3447	658	-0.8	-1.8	237	15
2023-08-01T06:00	3473	656	-1.0	-1.8	237	15
2023-08-01T06:00	3503	654	-1.3	-2.0	237	15
2023-08-01T06:00	3531	652	-1.4	-2.1	238	15
2023-08-01T06:00	3553	650	-1.4	-2.4	239	15
2023-08-01T06:00	3580	648	-1.6	-2.6	241	15
2023-08-01T06:00	3610	645	-1.9	-2.8	243	15
2023-08-01T06:00	3639	643	-2.0	-3.4	245	15
2023-08-01T06:00	3666	641	-2.1	-3.9	247	15
2023-08-01T06:00	3690	639	-2.2	-4.0	248	15
2023-08-01T06:00	3716	637	-2.4	-4.1	248	15
2023-08-01T06:00	3743	635	-2.5	-4.7	248	14
2023-08-01T06:00	3766	633	-2.5	-5.0	246	14
2023-08-01T06:00	3790	631	-2.7	-5.1	244	14
2023-08-01T06:00	3816	629	-2.9	-5.7	242	14
2023-08-01T06:00	3842	627	-3.1	-5.8	240	14
2023-08-01T06:00	3870	624	-3.3	-6.5	238	14
2023-08-01T06:00	3899	622	-3.3	-7.7	237	13
2023-08-01T06:00	3926	620	-3.2	-8.3	236	12
2023-08-01T06:00	3951	618	-3.4	-8.4	236	12
2023-08-01T06:00	3976	616	-3.7	-8.5	236	11
2023-08-01T06:00	3998	614	-3.8	-8.8	236	11
2023-08-01T06:00	4027	612	-4.1	-8.9	236	11
2023-08-01T06:00	4048	610	-4.3	-9.0	237	11
2023-08-01T06:00	4070	609	-4.5	-8.9	238	11
2023-08-01T06:00	4094	607	-4.8	-9.2	239	12
2023-08-01T06:00	4118	605	-5.0	-9.2	241	12
2023-08-01T06:00	4143	603	-5.3	-9.3	242	12
2023-08-01T06:00	4171	601	-5.4	-9.2	242	12
2023-08-01T06:00	4196	599	-5.6	-9.4	242	12
2023-08-01T06:00	4227	597	-5.9	-9.3	242	11
2023-08-01T06:00	4252	595	-6.1	-9.5	241	11
2023-08-01T06:00	4278	593	-6.4	-9.5	240	10
2023-08-01T06:00	4308	591	-6.7	-9.6	240	10
2023-08-01T06:00	4338	588	-7.0	-9.7	240	10
2023-08-01T06:00	4360	587	-7.2	-9.8	241	10
2023-08-01T06:00	4385	585	-7.4	-9.8	243	11
2023-08-01T06:00	4410	583	-7.7	-10.0	244	11
2023-08-01T06:00	4434	581	-7.9	-10.1	244	11
2023-08-01T06:00	4463	579	-8.0	-10.2	244	12
2023-08-01T06:00	4491	577	-8.1	-10.2	243	12
2023-08-01T06:00	4515	575	-8.3	-10.3	240	13
2023-08-01T06:00	4546	573	-8.1	-10.0	237	14
2023-08-01T06:00	4573	571	-8.2	-9.9	234	15
2023-08-01T06:00	4600	569	-8.4	-9.8	231	17
2023-08-01T06:00	4623	567	-8.2	-9.4	230	18
2023-08-01T06:00	4646	565	-8.4	-9.5	229	18
2023-08-01T06:00	4677	563	-8.6	-9.4	229	19
2023-08-01T06:00	4702	561	-8.6	-9.1	230	19
2023-08-01T06:00	4729	559	-8.7	-9.0	231	19
2023-08-01T06:00	4758	558	-8.9	-8.9	232	19
2023-08-01T06:00	4782	556	-9.0	-9.0	233	19
2023-08-01T06:00	4812	554	-9.0	-9.0	232	19
2023-08-01T06:00	4838	552	-9.2	-9.2	231	19
2023-08-01T06:00	4867	550	-9.3	-9.3	230	20
2023-08-01T06:00	4896	548	-9.4	-9.4	227	20
2023-08-01T06:00	4920	546	-9.5	-9.5	226	21
2023-08-01T06:00	4951	544	-9.7	-9.7	225	21
2023-08-01T06:00	4979	542	-9.8	-9.8	225	21
2023-08-01T06:00	5005	540	-9.9	-9.9	226	22
2023-08-01T06:00	5031	538	-10.0	-10.0	227	22
2023-08-01T06:00	5059	536	-10.1	-10.1	228	22
2023-08-01T06:00	5087	534	-10.3	-10.3	228	21
2023-08-01T06:00	5111	533	-10.5	-10.5	229	21
2023-08-01T06:00	5136	531	-10.6	-10.6	229	21
2023-08-01T06:00	5164	529	-10.9	-10.9	230	21
2023-08-01T06:00	5192	527	-11.1	-11.1	231	21
2023-08-01T06:00	5221	525	-11.3	-11.3	232	21
2023-08-01T06:00	5250	523	-11.4	-11.4	233	22
2023-08-01T06:00	5282	521	-11.5	-11.7	234	22
2023-08-01T06:00	5308	519	-11.6	-11.8	234	22
2023-08-01T06:00	5335	517	-11.7	-11.9	234	22
2023-08-01T06:00	5364	515	-11.9	-12.2	234	22
2023-08-01T06:00	5388	514	-12.0	-12.5	233	22
2023-08-01T06:00	5419	512	-12.2	-12.8	233	22
2023-08-01T06:00	5440	510	-12.3	-13.0	233	22
2023-08-01T06:00	5468	508	-12.4	-13.1	233	22
2023-08-01T06:00	5494	507	-12.5	-13.4	233	23
2023-08-01T06:00	5520	505	-12.6	-13.4	233	23
2023-08-01T06:00	5548	503	-12.8	-13.8	232	23
2023-08-01T06:00	5576	501	-12.9	-13.9	232	23
2023-08-01T06:00	5603	499	-13.1	-14.1	231	23
2023-08-01T06:00	5635	497	-13.3	-14.2	231	23
2023-08-01T06:00	5664	495	-13.5	-14.3	231	23
2023-08-01T06:00	5691	494	-13.6	-14.3	231	23
2023-08-01T06:00	5719	492	-13.8	-14.5	231	23
2023-08-01T06:00	5746	490	-13.9	-14.7	231	24
2023-08-01T06:00	5767	489	-14.0	-14.9	230	24
2023-08-01T06:00	5798	487	-14.1	-15.1	230	24
2023-08-01T06:00	5823	485	-14.2	-15.4	230	24
2023-08-01T06:00	5846	484	-14.3	-15.5	230	24
2023-08-01T06:00	5876	482	-14.5	-15.6	230	24
2023-08-01T06:00	5902	480	-14.6	-16.0	230	24
2023-08-01T06:00	5933	478	-14.8	-16.2	231	24
2023-08-01T06:00	5958	477	-14.9	-16.2	232	25
2023-08-01T06:00	5991	475	-15.1	-16.5	232	25
2023-08-01T06:00	6019	473	-15.3	-16.8	232	25
2023-08-01T06:00	6044	471	-15.4	-16.8	232	26
2023-08-01T06:00	6066	470	-15.6	-17.2	231	26
2023-08-01T06:00	6089	468	-15.6	-17.2	231	26
2023-08-01T06:00	6117	467	-15.8	-17.5	230	26
2023-08-01T06:00	6147	465	-16.0	-17.9	230	26
2023-08-01T06:00	6172	463	-16.2	-18.0	230	26
2023-08-01T06:00	6202	461	-16.4	-18.1	231	26
2023-08-01T06:00	6226	460	-16.6	-18.4	231	26
2023-08-01T06:00	6248	459	-16.7	-18.4	231	25
2023-08-01T06:00	6270	457	-16.9	-18.7	231	25
2023-08-01T06:00	6295	456	-17.1	-18.8	232	25
2023-08-01T06:00	6321	454	-17.2	-19.0	232	25
2023-08-01T06:00	6343	453	-17.3	-19.2	232	25
2023-08-01T06:00	6368	451	-17.5	-19.3	232	26
2023-08-01T06:00	6395	450	-17.7	-19.5	233	26
2023-08-01T06:00	6424	448	-17.8	-19.9	233	26
2023-08-01T06:00	6444	447	-17.9	-20.2	233	26
2023-08-01T06:00	6469	445	-18.0	-20.2	233	26
2023-08-01T06:00	6493	444	-18.2	-20.3	233	26
2023-08-01T06:00	6519	442	-18.3	-20.5	233	26
2023-08-01T06:00	6548	441	-18.5	-20.9	233	25
2023-08-01T06:00	6572	439	-18.7	-21.0	232	25
2023-08-01T06:00	6602	437	-19.0	-21.2	231	25
2023-08-01T06:00	6632	436	-19.1	-21.4	231	25
2023-08-01T06:00	6657	434	-19.3	-21.7	230	25
2023-08-01T06:00	6679	433	-19.5	-21.7	230	25
2023-08-01T06:00	6701	432	-19.6	-21.7	229	25
2023-08-01T06:00	6724	430	-19.7	-21.7	229	25
2023-08-01T06:00	6746	429	-19.9	-21.8	229	25
2023-08-01T06:00	6769	428	-20.0	-21.9	230	26
2023-08-01T06:00	6796	426	-20.1	-22.1	230	26
2023-08-01T06:00	6826	424	-20.3	-22.3	230	26
2023-08-01T06:00	6855	423	-20.6	-22.7	231	27
2023-08-01T06:00	6882	421	-20.7	-23.0	231	28
2023-08-01T06:00	6903	420	-20.8	-22.9	231	28
2023-08-01T06:00	6929	419	-20.9	-22.9	231	29
2023-08-01T06:00	6950	417	-21.1	-23.0	232	29
2023-08-01T06:00	6979	416	-21.2	-23.4	232	29
2023-08-01T06:00	7009	414	-21.5	-23.6	232	30
2023-08-01T06:00	7034	413	-21.6	-23.6	232	30
2023-08-01T06:00	7060	411	-21.8	-23.6	232	30
2023-08-01T06:00	7089	410	-22.0	-23.9	232	29
2023-08-01T06:00	7112	408	-22.2	-24.2	231	29
2023-08-01T06:00	7133	407	-22.3	-24.2	231	29
2023-08-01T06:00	7160	406	-22.5	-24.2	231	29
2023-08-01T06:00	7191	404	-22.7	-24.5	231	29
2023-08-01T06:00	7214	403	-22.9	-24.7	231	30
2023-08-01T06:00	7239	401	-23.1	-24.8	231	30
2023-08-01T06:00	7262	400	-23.3	-25.0	232	30
2023-08-01T06:00	7289	399	-23.5	-25.2	232	31
2023-08-01T06:00	7316	397	-23.7	-25.3	233	31
2023-08-01T06:00	7342	396	-23.9	-25.4	233	31
2023-08-01T06:00	7368	394	-24.2	-25.5	233	31
2023-08-01T06:00	7398	393	-24.4	-25.6	234	31
2023-08-01T06:00	7430	391	-24.7	-26.2	234	31
2023-08-01T06:00	7466	389	-24.9	-26.7	234	31
2023-08-01T06:00	7490	388	-25.1	-26.7	233	31
2023-08-01T06:00	7515	386	-25.3	-26.8	233	31
2023-08-01T06:00	7541	385	-25.5	-26.8	233	31
2023-08-01T06:00	7567	384	-25.7		233	31
2023-08-01T06:00	7595	382	-25.9	-27.5	233	31
2023-08-01T06:00	7622	381	-26.1	-28.1	233	31
2023-08-01T06:00	7647	379	-26.3	-28.2	233	31
2023-08-01T06:00	7672	378	-26.5	-28.3	233	31
2023-08-01T06:00	7702	377	-26.7	-28.4	233	31
2023-08-01T06:00	7730	375	-26.8	-28.4	233	32
2023-08-01T06:00	7756	374	-27.0	-28.8	233	32
2023-08-01T06:00	7780	372	-27.2	-28.8	233	32
2023-08-01T06:00	7814	371	-27.5	-29.0	233	32
2023-08-01T06:00	7844	369	-27.7	-29.2	233	32
2023-08-01T06:00	7873	368	-28.0	-29.4	233	32
2023-08-01T06:00	7907	366	-28.3	-29.5	234	32
2023-08-01T06:00	7945	364	-28.6	-29.8	234	32
2023-08-01T06:00	7976	362	-28.8	-30.0	235	31
2023-08-01T06:00	8002	361	-29.0	-30.4	236	31
2023-08-01T06:00	8029	360	-29.2	-30.8	236	31
2023-08-01T06:00	8062	358	-29.5	-31.5	237	32
2023-08-01T06:00	8090	357	-29.6	-32.3	237	32
2023-08-01T06:00	8120	355	-29.9	-32.3	237	32
2023-08-01T06:00	8152	354	-30.2	-32.5	237	32
2023-08-01T06:00	8191	352	-30.5	-32.7	237	32
2023-08-01T06:00	8217	350	-30.7	-33.2	237	32
2023-08-01T06:00	8244	349	-30.9	-33.6	238	32
2023-08-01T06:00	8279	347	-31.1	-34.1	239	32
2023-08-01T06:00	8307	346	-31.3	-34.6	240	32
2023-08-01T06:00	8339	344	-31.4	-34.7	241	32
2023-08-01T06:00	8379	343	-31.5	-35.2	241	32
2023-08-01T06:00	8405	341	-31.5	-35.8	242	33
2023-08-01T06:00	8434	340	-31.7	-36.2	242	33
2023-08-01T06:00	8461	339	-31.9	-37.7	242	34
2023-08-01T06:00	8485	337	-31.9	-38.8	242	34
2023-08-01T06:00	8515	336	-32.1	-38.6	242	34
2023-08-01T06:00	8541	335	-32.3	-39.5	242	34
2023-08-01T06:00	8563	334	-32.5	-39.9	242	34
2023-08-01T06:00	8587	333	-32.5	-39.8	242	34
2023-08-01T06:00	8613	331	-32.7	-39.9	241	34
2023-08-01T06:00	8636	330	-32.8	-40.4	241	34
2023-08-01T06:00	8661	329	-33.0	-41.2	241	34
2023-08-01T06:00	8692	328	-33.1	-42.3	240	34
2023-08-01T06:00	8718	326	-33.3	-42.8	240	34
2023-08-01T06:00	8746	325	-33.5	-43.1	240	34
2023-08-01T06:00	8779	324	-33.8	-44.2	240	34
2023-08-01T06:00	8814	322	-34.1	-44.5	240	34
2023-08-01T06:00	8838	321	-34.3		240	34
2023-08-01T06:00	8861	320	-34.5	-45.5	240	35
2023-08-01T06:00	8885	319	-34.7	-46.1	240	35
2023-08-01T06:00	8906	318	-34.9	-46.1	239	35
2023-08-01T06:00	8929	317	-35.1	-46.2	239	35
2023-08-01T06:00	8960	315	-35.4	-47.4	239	35
2023-08-01T06:00	8986	314	-35.5	-48.6	239	36
2023-08-01T06:00	9017	313	-35.8	-49.1	239	36
2023-08-01T06:00	9047	311	-36.0	-49.7	239	36
2023-08-01T06:00	9084	310	-36.3	-50.0	239	35
2023-08-01T06:00	9114	308	-36.6	-50.2	239	35
2023-08-01T06:00	9138	307	-36.8	-50.3	239	35
2023-08-01T06:00	9163	306	-37.1	-50.3	239	35
2023-08-01T06:00	9194	305	-37.3	-51.1	238	35
2023-08-01T06:00	9222	304	-37.5	-51.4	238	35
2023-08-01T06:00	9246	303	-37.7		237	35
2023-08-01T06:00	9270	301	-37.9	-51.2	237	35
2023-08-01T06:00	9301	300	-38.2	-51.6	236	35
2023-08-01T06:00	9335	299	-38.5	-51.8	236	34
2023-08-01T06:00	9367	297	-38.8	-52.0	236	34
2023-08-01T06:00	9395	296	-39.0	-52.1	235	34
2023-08-01T06:00	9422	295	-39.3	-52.4	236	34
2023-08-01T06:00	9447	294	-39.5	-52.5	236	34
2023-08-01T06:00	9472	293	-39.7	-52.1	236	34
2023-08-01T06:00	9503	291	-39.9	-52.8	236	34
2023-08-01T06:00	9530	290	-40.1	-53.7	236	34
2023-08-01T06:00	9554	289	-40.4	-53.9	236	34
2023-08-01T06:00	9579	288	-40.6	-53.7	235	35
2023-08-01T06:00	9609	287	-40.9	-53.8	235	35
2023-08-01T06:00	9637	286	-41.2	-54.2	235	34
2023-08-01T06:00	9658	285	-41.4	-54.4	235	34
2023-08-01T06:00	9678	284	-41.6	-54.5	236	34
2023-08-01T06:00	9702	283	-41.8	-54.4	236	34
2023-08-01T06:00	9721	282	-42.0	-54.4	237	34
2023-08-01T06:00	9753	281	-42.3	-54.7	237	34
2023-08-01T06:00	9775	280	-42.5	-54.9	237	34
2023-08-01T06:00	9804	279	-42.7	-55.0	237	34
2023-08-01T06:00	9833	278	-43.0	-54.9	237	34
2023-08-01T06:00	9861	277	-43.2	-54.9	237	34
2023-08-01T06:00	9881	276	-43.4	-55.1	237	35
2023-08-01T06:00	9904	275	-43.6	-55.0	237	34
2023-08-01T06:00	9934	273	-44.0	-54.9	238	34
2023-08-01T06:00	9963	272	-44.2	-55.0	239	34
2023-08-01T06:00	9995	271	-44.5	-55.2	240	34
2023-08-01T06:00	10017	270	-44.8	-55.4	240	34
2023-08-01T06:00	10046	269	-45.0	-55.4	239	34
2023-08-01T06:00	10079	268	-45.4	-55.4	239	34
2023-08-01T06:00	10115	266	-45.7	-55.7	238	34
2023-08-01T06:00	10138	265	-45.9	-56.2	238	35
2023-08-01T06:00	10164	264	-46.0	-56.5	238	35
2023-08-01T06:00	10194	263	-46.3	-56.8	237	35
2023-08-01T06:00	10218	262	-46.4	-57.1	238	36
2023-08-01T06:00	10237	261	-46.6	-57.2	238	36
2023-08-01T06:00	10258	260	-46.7	-57.1	238	36
2023-08-01T06:00	10278	260	-46.9	-57.0	238	36
2023-08-01T06:00	10299	259	-47.1	-56.9	239	36
2023-08-01T06:00	10326	258	-47.4	-57.0	239	36
2023-08-01T06:00	10346	257	-47.5	-57.0	239	36
2023-08-01T06:00	10368	256	-47.7	-56.9	239	36
2023-08-01T06:00	10391	255	-47.8	-57.1	239	37
2023-08-01T06:00	10410	255	-48.0	-57.4	239	37
2023-08-01T06:00	10432	254	-48.2	-57.4	238	37
2023-08-01T06:00	10452	253	-48.3	-57.3	238	37
2023-08-01T06:00	10476	252	-48.6	-57.3	238	37
2023-08-01T06:00	10496	251	-48.7	-57.3	238	37
2023-08-01T06:00	10518	250	-48.9	-57.4	238	37
2023-08-01T06:00	10540	250	-49.0	-57.0	238	37
2023-08-01T06:00	10565	249	-49.3	-57.0	238	37
2023-08-01T06:00	10586	248	-49.4	-57.1	238	37
2023-08-01T06:00	10610	247	-49.7	-57.2	238	37
2023-08-01T06:00	10638	246	-49.9	-57.0	238	37
2023-08-01T06:00	10660	245	-50.1	-56.9	239	37
2023-08-01T06:00	10682	244	-50.4	-57.2	238	37
2023-08-01T06:00	10705	243	-50.5	-57.5	238	37
2023-08-01T06:00	10727	243	-50.7	-57.4	238	37
2023-08-01T06:00	10752	242	-50.9	-57.3	238	37
2023-08-01T06:00	10776	241	-51.1	-57.3	238	37
2023-08-01T06:00	10800	240	-51.4	-57.4	238	37
2023-08-01T06:00	10820	239	-51.5	-57.3	238	38
2023-08-01T06:00	10849	238	-51.7	-57.2	238	38
2023-08-01T06:00	10883	237	-52.0	-57.1	238	38
2023-08-01T06:00	10911	236	-52.2	-57.2	238	38
2023-08-01T06:00	10935	235	-52.5	-57.4	239	38
2023-08-01T06:00	10960	234	-52.7	-57.3	239	38
2023-08-01T06:00	10984	233	-52.9		239	38
2023-08-01T06:00	11014	232	-53.1		239	38
2023-08-01T06:00	11051	231	-53.3	-58.2	240	38
2023-08-01T06:00	11080	230	-53.4	-58.6	241	38
2023-08-01T06:00	11105	229	-53.6	-58.7	242	39
2023-08-01T06:00	11127	228	-53.8	-58.6	243	39
2023-08-01T06:00	11149	227	-54.0	-58.7	243	39
2023-08-01T06:00	11175	226	-54.0	-59.3	243	38
2023-08-01T06:00	11198	225	-54.1	-61.0	243	38
2023-08-01T06:00	11225	225	-54.1	-63.5	242	37
2023-08-01T06:00	11250	224	-54.1	-65.9	242	37
2023-08-01T06:00	11276	223	-54.2	-67.2	241	36
2023-08-01T06:00	11299	222	-54.4	-67.3	240	36
2023-08-01T06:00	11329	221	-54.7	-67.1	239	36
2023-08-01T06:00	11363	220	-54.9	-66.8	239	36
2023-08-01T06:00	11397	219	-55.2	-66.7	239	36
2023-08-01T06:00	11441	217	-55.6	-66.9	239	35
2023-08-01T06:00	11467	216	-55.8	-67.3	240	35
2023-08-01T06:00	11495	215	-55.6	-67.7	242	34
2023-08-01T06:00	11529	214	-55.6	-68.4	243	34
2023-08-01T06:00	11554	213	-55.4	-68.5	244	33
2023-08-01T06:00	11583	212	-55.5	-68.7	244	32
2023-08-01T06:00	11607	212	-55.1	-68.6	244	32
2023-08-01T06:00	11632	211	-54.7	-68.6	244	31
2023-08-01T06:00	11659	210	-54.8	-68.7	244	30
2023-08-01T06:00	11693	209	-54.8	-68.7	244	30
2023-08-01T06:00	11719	208	-54.9	-68.8	244	30
2023-08-01T06:00	11747	207	-55.1	-68.8	245	30
2023-08-01T06:00	11776	206	-55.4	-68.8	245	29
2023-08-01T06:00	11806	205	-55.7	-68.8	246	29
2023-08-01T06:00	11836	204	-56.0	-68.8	246	29
2023-08-01T06:00	11871	203	-56.3	-68.8	245	29
2023-08-01T06:00	11896	202	-56.5	-68.9	245	28
2023-08-01T06:00	11920	201	-56.8	-69.2	243	28
2023-08-01T06:00	11943	201	-56.6	-69.4	242	28
2023-08-01T06:00	11964	200	-56.4	-69.7	242	28
2023-08-01T06:00	11988	199	-56.4	-69.9	241	27
2023-08-01T06:00	12009	199	-56.5	-70.1	240	27
2023-08-01T06:00	12030	198	-56.6	-70.3	240	27
2023-08-01T06:00	12053	197	-56.7	-70.4	239	27
2023-08-01T06:00	12076	196	-56.8	-70.6	239	27
2023-08-01T06:00	12098	196	-56.9	-70.8	238	27
2023-08-01T06:00	12122	195	-57.0	-70.9	238	27
2023-08-01T06:00	12144	194	-57.1	-71.1	237	27
2023-08-01T06:00	12165	194	-57.3	-71.3	237	28
2023-08-01T06:00	12188	193	-57.4	-71.5	237	28
2023-08-01T06:00	12211	192	-57.4	-71.8	237	27
2023-08-01T06:00	12235	192	-57.2	-72.6	238	27
2023-08-01T06:00	12265	191	-56.7	-73.7	238	26
2023-08-01T06:00	12302	190	-55.5	-74.8	239	26
2023-08-01T06:00	12325	189	-54.7	-76.0	239	25
2023-08-01T06:00	12348	188	-54.6	-76.9	240	25
2023-08-01T06:00	12373	188	-54.3	-77.1	240	26
2023-08-01T06:00	12392	187	-54.2	-77.4	241	26
2023-08-01T06:00	12421	186	-53.9	-77.3	241	26
2023-08-01T06:00	12446	185	-53.8	-77.8	242	26
2023-08-01T06:00	12469	185	-53.6	-78.1	242	26
2023-08-01T06:00	12494	184	-53.1	-78.6	242	26
2023-08-01T06:00	12519	183	-52.2	-78.6	242	25
2023-08-01T06:00	12542	183	-51.9	-78.9	242	25
2023-08-01T06:00	12569	182	-51.9	-78.9	242	24
2023-08-01T06:00	12593	181	-52.2	-79.2	242	24
2023-08-01T06:00	12615	181	-52.3	-79.2	243	24
2023-08-01T06:00	12641	180	-52.2	-79.2	243	24
2023-08-01T06:00	12662	179	-52.1	-79.4	244	24
2023-08-01T06:00	12683	179	-51.9	-79.2	244	24
2023-08-01T06:00	12704	178	-52.0	-79.3	244	24
2023-08-01T06:00	12728	177	-52.1	-79.4	244	24
2023-08-01T06:00	12751	177	-52.3	-79.2	243	24
2023-08-01T06:00	12771	176	-52.3	-79.2	243	25
2023-08-01T06:00	12795	176	-52.4	-79.3	243	25
2023-08-01T06:00	12815	175	-52.5	-79.1	243	26
2023-08-01T06:00	12837	174	-52.5	-79.1	244	26
2023-08-01T06:00	12861	174	-52.3	-79.2	245	25
2023-08-01T06:00	12884	173	-51.8	-79.2	247	25
2023-08-01T06:00	12906	173	-51.4	-79.2	248	25
2023-08-01T06:00	12928	172	-51.1	-79.6	250	24
2023-08-01T06:00	12949	172	-50.7	-79.7	251	24
2023-08-01T06:00	12969	171	-50.4	-79.8	251	23
2023-08-01T06:00	12994	170	-50.1	-80.0	252	23
2023-08-01T06:00	13016	170	-49.9	-79.9	253	22
2023-08-01T06:00	13037	169	-49.9	-80.3	254	21
2023-08-01T06:00	13065	169	-50.0	-80.4	254	20
2023-08-01T06:00	13088	168	-49.8	-80.3	254	19
2023-08-01T06:00	13114	167	-49.3	-79.9	254	18
2023-08-01T06:00	13142	167	-49.4	-80.0	253	18
2023-08-01T06:00	13170	166	-49.6	-80.1	252	17
2023-08-01T06:00	13193	165	-49.8	-80.3	250	17
2023-08-01T06:00	13217	165	-49.8	-80.3	248	16
2023-08-01T06:00	13240	164	-50.1	-80.0	247	16
2023-08-01T06:00	13262	163	-50.3	-80.2	245	16
2023-08-01T06:00	13287	163	-50.4	-80.3	244	17
2023-08-01T06:00	13307	162	-50.5	-80.3	242	17
2023-08-01T06:00	13330	162	-50.7	-80.5	241	17
2023-08-01T06:00	13350	161	-50.8	-80.6	241	18
2023-08-01T06:00	13371	161	-50.8	-80.6	240	18
2023-08-01T06:00	13393	160	-50.9	-80.6	240	19
2023-08-01T06:00	13415	160	-51.0	-80.7	240	19
2023-08-01T06:00	13436	159	-51.2	-80.9	241	20
2023-08-01T06:00	13460	159	-51.2	-80.9	243	20
2023-08-01T06:00	13481	158	-50.9	-81.1	244	20
2023-08-01T06:00	13503	158	-50.7	-80.9	246	20
2023-08-01T06:00	13524	157	-50.6	-80.9	247	20
2023-08-01T06:00	13544	157	-50.0	-80.4	248	20
2023-08-01T06:00	13568	156	-49.5	-80.0	249	20
2023-08-01T06:00	13589	155	-49.4	-80.0	248	19
2023-08-01T06:00	13612	155	-49.2	-79.8	248	19
2023-08-01T06:00	13634	154	-49.1	-80.2	247	19
2023-08-01T06:00	13657	154	-48.9	-80.1	247	18
2023-08-01T06:00	13678	153	-48.7	-79.9	247	19
2023-08-01T06:00	13701	153	-48.6	-80.4	248	19
2023-08-01T06:00	13723	152	-48.4	-80.2	249	19
2023-08-01T06:00	13744	152	-48.4	-80.2	251	19
2023-08-01T06:00	13768	151	-48.5	-80.3	253	19
2023-08-01T06:00	13790	151	-48.5	-80.3	254	19
2023-08-01T06:00	13811	150	-48.6	-80.4	256	19
2023-08-01T06:00	13838	150	-48.5	-80.3	257	18
2023-08-01T06:00	13862	149	-48.3	-80.2	257	17
2023-08-01T06:00	13887	149	-48.0	-79.9	257	17
2023-08-01T06:00	13914	148	-48.0	-79.9	256	16
2023-08-01T06:00	13941	147	-48.2	-80.1	254	15
2023-08-01T06:00	13975	147	-48.4	-80.2	252	15
2023-08-01T06:00	14007	146	-48.7	-80.5	249	14
2023-08-01T06:00	14036	145	-48.7	-80.5	247	14
2023-08-01T06:00	14057	145	-48.4	-80.2	245	14
2023-08-01T06:00	14080	144	-47.9	-79.9	245	14
2023-08-01T06:00	14104	144	-48.0	-79.9	246	14
2023-08-01T06:00	14127	143	-48.2	-80.1	247	14
2023-08-01T06:00	14147	143	-48.4	-79.7	249	14
2023-08-01T06:00	14172	142	-48.5	-79.8	251	14
2023-08-01T06:00	14198	142	-48.6	-79.9	254	14
2023-08-01T06:00	14220	141	-48.6	-79.9	256	14
2023-08-01T06:00	14242	141	-48.8	-80.0	258	14
2023-08-01T06:00	14265	140	-49.0	-80.2	259	13
2023-08-01T06:00	14287	140	-48.9	-80.1	260	13
2023-08-01T06:00	14310	139	-48.7	-80.5	259	12
2023-08-01T06:00	14334	139	-48.7	-80.5	258	12
2023-08-01T06:00	14354	138	-48.6	-80.4	256	11
2023-08-01T06:00	14378	138	-48.7	-80.5	254	11
2023-08-01T06:00	14400	137	-48.7	-80.5	252	11
2023-08-01T06:00	14424	137	-48.9	-80.6	250	11
2023-08-01T06:00	14446	136	-49.0	-80.7	248	11
2023-08-01T06:00	14469	136	-49.1	-80.2	246	11
2023-08-01T06:00	14493	136	-49.3	-80.4	245	12
2023-08-01T06:00	14513	135	-49.4	-80.5	244	12
2023-08-01T06:00	14536	135	-49.4	-80.5	243	13
2023-08-01T06:00	14557	134	-49.5	-80.5	243	13
2023-08-01T06:00	14582	134	-49.6	-80.6	244	14
2023-08-01T06:00	14606	133	-49.7	-80.7	246	14
2023-08-01T06:00	14629	133	-49.8	-81.3	247	15
2023-08-01T06:00	14651	132	-49.1	-80.8	249	15
2023-08-01T06:00	14673	132	-48.6	-81.0	251	15
2023-08-01T06:00	14697	131	-48.5	-80.9	252	14
2023-08-01T06:00	14718	131	-48.6	-81.0	254	14
2023-08-01T06:00	14743	130	-48.7	-81.0	256	14
2023-08-01T06:00	14768	130	-48.8		259	13
2023-08-01T06:00	14790	129	-48.9	-80.6	261	13
2023-08-01T06:00	14815	129	-49.0	-80.7	263	12
2023-08-01T06:00	14839	129	-49.2	-80.8	266	12
2023-08-01T06:00	14864	128	-49.4	-81.0	267	12
2023-08-01T06:00	14888	128	-49.5	-81.1	269	11
2023-08-01T06:00	14913	127	-49.6	-81.1	270	11
2023-08-01T06:00	14936	127	-49.8	-81.3	271	10
2023-08-01T06:00	14957	126	-49.9	-81.3	271	10
2023-08-01T06:00	14981	126	-50.0	-81.4	271	10
2023-08-01T06:00	15004	125	-50.2		271	9
2023-08-01T06:00	15028	125	-50.2		270	9
2023-08-01T06:00	15053	124	-50.1	-81.5	270	9
2023-08-01T06:00	15075	124	-49.8	-81.3	270	9
2023-08-01T06:00	15097	124	-49.8	-81.3	272	9
2023-08-01T06:00	15122	123	-49.5	-81.1	273	8
2023-08-01T06:00	15147	123	-49.2	-80.8	273	8
2023-08-01T06:00	15170	122	-49.3	-80.9	273	7
2023-08-01T06:00	15196	122	-49.4	-81.0	271	7
2023-08-01T06:00	15220	121	-49.6	-81.1	268	7
2023-08-01T06:00	15244	121	-49.8	-81.3	264	6
2023-08-01T06:00	15267	120	-49.8	-81.3	260	6
2023-08-01T06:00	15289	120	-49.8	-81.3	256	6
2023-08-01T06:00	15312	120	-49.7	-81.2	253	7
2023-08-01T06:00	15338	119	-49.8	-81.3	250	7
2023-08-01T06:00	15361	119	-49.8	-81.3	247	7
2023-08-01T06:00	15385	118	-50.0	-81.4	245	8
2023-08-01T06:00	15410	118	-50.2		243	8
2023-08-01T06:00	15432	117	-50.3	-81.6	241	9
2023-08-01T06:00	15456	117	-50.4	-81.7	239	9
2023-08-01T06:00	15482	117	-50.5	-81.8	238	10
2023-08-01T06:00	15503	116	-50.5	-81.8	238	10
2023-08-01T06:00	15529	116	-50.5	-81.8	238	10
2023-08-01T06:00	15551	115	-50.5		239	10
2023-08-01T06:00	15576	115	-50.5		240	10
2023-08-01T06:00	15599	114	-50.5		241	10
2023-08-01T06:00	15621	114	-50.3	-82.2	241	10
2023-08-01T06:00	15644	114	-50.2	-82.1	241	10
2023-08-01T06:00	15668	113	-50.2	-82.1	240	10
2023-08-01T06:00	15690	113	-50.3	-82.2	238	10
2023-08-01T06:00	15712	112	-50.2	-82.1	237	10
2023-08-01T06:00	15737	112	-50.0	-82.0	237	10
2023-08-01T06:00	15758	112	-49.9	-81.9	237	11
2023-08-01T06:00	15779	111	-49.8	-81.8	237	11
2023-08-01T06:00	15804	111	-49.8	-81.8	238	11
2023-08-01T06:00	15823	111	-49.8	-81.8	240	11
2023-08-01T06:00	15847	110	-49.8	-81.8	242	11
2023-08-01T06:00	15872	110	-49.9	-81.9	244	11
2023-08-01T06:00	15893	109	-49.9	-81.9	245	11
2023-08-01T06:00	15917	109	-50.0	-82.0	245	11
2023-08-01T06:00	15938	109	-49.9	-81.9	245	11
2023-08-01T06:00	15965	108	-49.8	-81.8	244	11
2023-08-01T06:00	15985	108	-50.0	-82.0	244	11
2023-08-01T06:00	16009	107	-50.1	-82.1	243	11
2023-08-01T06:00	16033	107	-50.1	-82.7	243	11
2023-08-01T06:00	16055	107	-50.0	-82.6	243	10
2023-08-01T06:00	16080	106	-49.9	-82.5	242	10
2023-08-01T06:00	16100	106	-49.9	-82.5	242	10
2023-08-01T06:00	16123	106	-49.9	-82.5	242	10
2023-08-01T06:00	16149	105	-50.0	-82.6	242	10
2023-08-01T06:00	16172	105	-50.0	-82.0	241	10
2023-08-01T06:00	16196	104	-50.1	-82.1	241	10
2023-08-01T06:00	16219	104	-50.0	-82.0	241	10
2023-08-01T06:00	16242	104	-50.1	-82.1	240	10
2023-08-01T06:00	16268	103	-50.2	-82.1	239	10
2023-08-01T06:00	16291	103	-50.2	-82.8	237	10
2023-08-01T06:00	16317	103	-50.0	-82.6	235	10
2023-08-01T06:00	16339	102	-49.9	-82.5	233	10
2023-08-01T06:00	16361	102	-49.7	-82.4	231	10
2023-08-01T06:00	16386	101	-49.7	-82.4	230	10
2023-08-01T06:00	16411	101	-49.7	-82.4	230	11
2023-08-01T06:00	16434	101	-49.7	-82.4	230	11
2023-08-01T06:00	16457	100	-49.5	-82.3	231	11
2023-08-01T06:00	16484	100	-49.4	-82.2	233	12
2023-08-01T06:00	16507	100	-49.5	-82.3	234	12
2023-08-01T06:00	16532	99	-49.7	-82.4	236	12
2023-08-01T06:00	16554	99	-49.8	-82.5	238	12
2023-08-01T06:00	16579	99	-49.8	-82.5	240	12
2023-08-01T06:00	16602	98	-49.9	-82.5	241	11
2023-08-01T06:00	16626	98	-50.0	-82.6	242	11
2023-08-01T06:00	16651	97	-50.0	-82.6	243	11
2023-08-01T06:00	16677	97	-49.9	-82.5	244	10
2023-08-01T06:00	16699	97	-49.8	-82.5	246	10
2023-08-01T06:00	16724	96	-49.7	-82.4	248	10
2023-08-01T06:00	16747	96	-49.9	-82.5	253	9
2023-08-01T06:00	16774	96	-50.0	-82.6	257	9
2023-08-01T06:00	16799	95	-50.1	-82.7	263	9
2023-08-01T06:00	16823	95	-50.0	-82.6	268	9
2023-08-01T06:00	16851	95	-49.9	-82.5	273	9
2023-08-01T06:00	16874	94	-49.9	-82.5	278	9
2023-08-01T06:00	16900	94	-50.0	-82.6	283	9
2023-08-01T06:00	16923	93	-50.1	-82.7	287	8
2023-08-01T06:00	16949	93	-50.0	-82.6	290	8
2023-08-01T06:00	16973	93	-49.9	-82.5	292	7
2023-08-01T06:00	17001	92	-50.0	-82.6	293	6
2023-08-01T06:00	17022	92	-50.0	-82.6	292	6
2023-08-01T06:00	17048	92	-50.0	-82.6	289	5
2023-08-01T06:00	17071	91	-50.0	-82.6	284	5
2023-08-01T06:00	17094	91	-50.2	-82.8	278	5
2023-08-01T06:00	17119	91	-50.4	-82.9	271	5
2023-08-01T06:00	17145	90	-50.6	-82.4	265	6
2023-08-01T06:00	17164	90	-50.7	-82.5	260	6
2023-08-01T06:00	17189	90	-50.8	-82.6	255	7
2023-08-01T06:00	17210	89	-50.9	-82.7	252	7
2023-08-01T06:00	17236	89	-50.9	-82.7	250	8
2023-08-01T06:00	17259	89	-50.9	-82.7	250	8
2023-08-01T06:00	17281	88	-50.9	-82.7	251	8
2023-08-01T06:00	17307	88	-50.8	-83.2	253	8
2023-08-01T06:00	17328	88	-50.8	-83.2	257	8
2023-08-01T06:00	17351	88	-50.7	-83.1	260	8
2023-08-01T06:00	17371	87	-50.5	-83.0	263	8
2023-08-01T06:00	17393	87	-50.3	-82.8	266	7
2023-08-01T06:00	17420	87	-50.2	-82.8	267	7
2023-08-01T06:00	17445	86	-49.9	-83.2	267	6
2023-08-01T06:00	17468	86	-49.7	-83.1	267	6
2023-08-01T06:00	17492	86	-49.7	-83.1	267	5
2023-08-01T06:00	17515	85	-49.4	-82.9	266	4
2023-08-01T06:00	17539	85	-49.1	-82.7	264	4
2023-08-01T06:00	17563	85	-49.0	-82.6	260	4
2023-08-01T06:00	17590	84	-48.9	-82.5	254	4
2023-08-01T06:00	17611	84	-49.0	-82.6	246	4
2023-08-01T06:00	17635	84	-49.1	-82.0	238	4
2023-08-01T06:00	17660	83	-49.3	-82.1	230	4
2023-08-01T06:00	17685	83	-49.6	-82.3	224	4
2023-08-01T06:00	17713	83	-49.8	-82.5	219	5
2023-08-01T06:00	17738	83	-49.9	-82.5	216	5
2023-08-01T06:00	17759	82	-50.1	-82.7	214	6
2023-08-01T06:00	17783	82	-50.2	-82.8	213	6
2023-08-01T06:00	17809	82	-50.3	-82.8	213	6
2023-08-01T06:00	17834	81	-50.5	-83.0	212	6
2023-08-01T06:00	17858	81	-50.5	-83.0	212	6
2023-08-01T06:00	17885	81	-50.4	-82.9	214	6
2023-08-01T06:00	17909	80	-50.3	-82.8	217	6
2023-08-01T06:00	17934	80	-50.5	-83.0	222	5
2023-08-01T06:00	17957	80	-50.7	-83.1	229	5
2023-08-01T06:00	17985	79	-50.8	-83.2	236	5
2023-08-01T06:00	18009	79	-50.8	-83.2	243	5
2023-08-01T06:00	18035	79	-50.8	-83.2	248	5
2023-08-01T06:00	18061	79	-50.7	-83.1	250	4
2023-08-01T06:00	18084	78	-50.8	-83.2	249	4
2023-08-01T06:00	18110	78	-51.0	-83.3	243	3
2023-08-01T06:00	18134	78	-50.8	-83.2	232	3
2023-08-01T06:00	18159	77	-50.7	-83.1	219	3
2023-08-01T06:00	18184	77	-50.8	-83.2	210	3
2023-08-01T06:00	18211	77	-50.8	-83.2	206	4
2023-08-01T06:00	18237	76	-50.8	-83.2	205	4
2023-08-01T06:00	18263	76	-51.0	-83.3	206	4
2023-08-01T06:00	18290	76	-51.1	-83.4	209	5
2023-08-01T06:00	18312	76	-51.1	-83.4	212	5
2023-08-01T06:00	18339	75	-51.1	-83.4	216	5
2023-08-01T06:00	18365	75	-51.2	-83.5	220	4
2023-08-01T06:00	18390	75	-51.4	-83.6	225	4
2023-08-01T06:00	18418	74	-51.4	-83.6	229	4
2023-08-01T06:00	18442	74	-51.5	-83.7	232	4
2023-08-01T06:00	18468	74	-51.6	-83.8	234	3
2023-08-01T06:00	18494	73	-51.5	-83.7	233	3
2023-08-01T06:00	18517	73	-51.4	-83.6	232	3
2023-08-01T06:00	18543	73	-51.2	-83.5	229	3
2023-08-01T06:00	18568	73	-51.3	-83.6	227	3
2023-08-01T06:00	18593	72	-51.3	-83.6	226	3
2023-08-01T06:00	18619	72	-51.4	-83.6	225	4
2023-08-01T06:00	18644	72	-51.4	-83.6	226	4
2023-08-01T06:00	18668	72	-51.6	-83.8	229	5
2023-08-01T06:00	18692	71	-51.5	-83.7	233	5
2023-08-01T06:00	18717	71	-51.6	-83.8	240	5
2023-08-01T06:00	18741	71	-51.4	-83.6	248	5
2023-08-01T06:00	18768	70	-51.3	-83.6	257	5
2023-08-01T06:00	18790	70	-51.1	-83.4	267	5
2023-08-01T06:00	18816	70	-50.9	-84.0	277	6
2023-08-01T06:00	18838	70	-50.7	-83.8	286	5
2023-08-01T06:00	18862	69	-50.5	-83.7	295	5
2023-08-01T06:00	18884	69	-50.1	-83.4	304	5
2023-08-01T06:00	18912	69	-49.7	-83.1	312	4
2023-08-01T06:00	18935	69	-49.5	-82.9	321	4
2023-08-01T06:00	18963	68	-49.4	-82.9	330	3
2023-08-01T06:00	18987	68	-49.5	-82.9	337	2
2023-08-01T06:00	19010	68	-49.6	-83.0	341	2
2023-08-01T06:00	19036	68	-49.7	-83.1	339	1
2023-08-01T06:00	19060	67	-49.9	-82.5	296	0
2023-08-01T06:00	19085	67	-50.0	-82.6	200	1
2023-08-01T06:00	19110	67	-50.2	-82.8	191	1
2023-08-01T06:00	19135	67	-50.3	-82.8	191	2
2023-08-01T06:00	19155	66	-50.3	-82.8	192	2
2023-08-01T06:00	19181	66	-50.3	-82.8	195	3
2023-08-01T06:00	19204	66	-50.4	-82.9	198	3
2023-08-01T06:00	19228	66	-50.6	-83.1	200	3
2023-08-01T06:00	19251	65	-50.7	-83.1	202	4
2023-08-01T06:00	19279	65	-50.8	-83.2	204	4
2023-08-01T06:00	19305	65	-50.9	-83.3	205	4
2023-08-01T06:00	19329	65	-50.9	-83.3	206	3
2023-08-01T06:00	19353	64	-51.0	-83.3	206	3
2023-08-01T06:00	19378	64	-51.0	-83.3	205	3
2023-08-01T06:00	19397	64	-51.0	-83.3	203	3
2023-08-01T06:00	19427	64	-50.9	-83.3	201	3
2023-08-01T06:00	19453	63	-50.5	-83.7	202	3
2023-08-01T06:00	19478	63	-50.1	-83.4	205	3
2023-08-01T06:00	19502	63	-50.2	-83.5	213	2
2023-08-01T06:00	19528	63	-50.3	-83.5	226	2
2023-08-01T06:00	19553	62	-50.2	-83.5	244	2
2023-08-01T06:00	19574	62	-50.0	-83.3	266	2
2023-08-01T06:00	19600	62	-50.0	-83.3	284	2
2023-08-01T06:00	19629	62	-50.0	-83.3	298	3
2023-08-01T06:00	19652	61	-50.0	-83.3	308	3
2023-08-01T06:00	19678	61	-50.0	-83.3	317	3
2023-08-01T06:00	19706	61	-50.0	-83.3	328	4
2023-08-01T06:00	19726	61	-50.1	-83.4	341	3
2023-08-01T06:00	19756	61	-50.2	-83.5	356	3
2023-08-01T06:00	19779	60	-50.1	-83.4	13	3
2023-08-01T06:00	19809	60	-49.9	-83.2	29	3
2023-08-01T06:00	19830	60	-49.6	-83.0	45	3
2023-08-01T06:00	19854	60	-49.6	-83.0	60	3
2023-08-01T06:00	19881	59	-49.7	-83.1	74	3
2023-08-01T06:00	19908	59	-49.8	-83.2	87	3
2023-08-01T06:00	19936	59	-49.8	-83.2	98	3
2023-08-01T06:00	19960	59	-49.9	-83.2	109	3
2023-08-01T06:00	19985	58	-50.0	-83.3	119	3
2023-08-01T06:00	20009	58	-50.0	-83.3	129	3
2023-08-01T06:00	20037	58	-50.1	-83.4	137	4
2023-08-01T06:00	20061	58	-50.0	-83.3	146	4
2023-08-01T06:00	20087	58	-49.8	-83.2	156	3
2023-08-01T06:00	20114	57	-49.7	-83.1	165	3
2023-08-01T06:00	20135	57	-49.7	-83.1	175	3
2023-08-01T06:00	20167	57	-49.6	-83.0	183	3
2023-08-01T06:00	20191	57	-49.5	-82.9	188	3
2023-08-01T06:00	20217	56	-49.5	-82.9	188	3
2023-08-01T06:00	20242	56	-49.7	-83.1	180	2
2023-08-01T06:00	20266	56	-49.8	-83.2	159	2
2023-08-01T06:00	20294	56	-49.5	-82.9	128	2
2023-08-01T06:00	20322	56	-49.3	-82.8	107	2
2023-08-01T06:00	20344	55	-49.3	-82.8	97	3
2023-08-01T06:00	20373	55	-49.5	-82.9	92	4
2023-08-01T06:00	20397	55	-49.5	-82.9	88	4
2023-08-01T06:00	20423	55	-49.5	-82.9	87	4
2023-08-01T06:00	20449	54	-49.6	-83.0	86	5
2023-08-01T06:00	20479	54	-49.7	-83.1	86	5
2023-08-01T06:00	20499	54	-49.7	-83.1	87	6
2023-08-01T06:00	20529	54	-49.8	-83.2	89	6
2023-08-01T06:00	20552	54	-49.8	-83.2	92	6
2023-08-01T06:00	20578	53	-49.9	-83.2	95	6
2023-08-01T06:00	20609	53	-49.9	-83.2	97	5
2023-08-01T06:00	20631	53	-50.1	-83.4	99	5
2023-08-01T06:00	20659	53	-50.3	-83.5	101	4
2023-08-01T06:00	20687	53	-50.4	-83.6	102	4
2023-08-01T06:00	20712	52	-50.4	-83.6	103	4
2023-08-01T06:00	20741	52	-50.5	-83.7	102	3
2023-08-01T06:00	20766	52	-50.5	-83.7	101	3
2023-08-01T06:00	20786	52	-50.5	-83.7	97	3
2023-08-01T06:00	20818	51	-50.5	-83.7	94	4
2023-08-01T06:00	20844	51	-50.3	-83.5	93	4
2023-08-01T06:00	20870	51	-50.3	-83.5	93	5
2023-08-01T06:00	20897	51	-50.4	-83.6	95	5
2023-08-01T06:00	20924	51	-50.5	-83.7	97	6
2023-08-01T06:00	20949	50	-50.6	-83.7	100	6
2023-08-01T06:00	20979	50	-50.7	-83.1	104	6
2023-08-01T06:00	21005	50	-50.8	-83.2	108	7
2023-08-01T06:00	21030	50	-51.0	-83.3	112	7
2023-08-01T06:00	21053	50	-51.2	-83.5	117	7
2023-08-01T06:00	21084	49	-51.3	-83.6	123	7
2023-08-01T06:00	21111	49	-51.5	-83.7	130	7
2023-08-01T06:00	21137	49	-51.7	-83.9	136	7
2023-08-01T06:00	21161	49	-51.7	-83.9	141	7
2023-08-01T06:00	21191	49	-51.7	-83.9	144	6
2023-08-01T06:00	21215	48	-51.6	-83.8	146	6
2023-08-01T06:00	21244	48	-51.4	-83.6	146	5
2023-08-01T06:00	21264	48	-51.2	-84.2	143	5
2023-08-01T06:00	21294	48	-51.3	-84.3	139	4
2023-08-01T06:00	21320	48	-51.3	-84.3	130	3
2023-08-01T06:00	21342	47	-51.3	-84.3	117	3
2023-08-01T06:00	21371	47	-51.2	-84.2	99	3
2023-08-01T06:00	21397	47	-51.1	-84.1	82	3
2023-08-01T06:00	21424	47	-51.0	-84.0	72	4
2023-08-01T06:00	21450	47	-50.8	-83.9	68	4
2023-08-01T06:00	21474	47	-50.6	-83.7	70	5
2023-08-01T06:00	21499	46	-50.6	-83.7	74	5
2023-08-01T06:00	21528	46	-50.5	-83.7	80	6
2023-08-01T06:00	21554	46	-50.4	-83.6	86	6
2023-08-01T06:00	21578	46	-50.5	-83.7	92	6
2023-08-01T06:00	21601	46	-50.5	-83.7	98	6
2023-08-01T06:00	21628	45	-50.5	-83.7	104	6
2023-08-01T06:00	21654	45	-50.5	-83.7	110	6
2023-08-01T06:00	21678	45	-50.4	-83.6	118	6
2023-08-01T06:00	21710	45	-50.4	-83.6	126	6
2023-08-01T06:00	21734	45	-50.4	-83.6	133	6
2023-08-01T06:00	21755	45	-50.4	-83.6	141	6
2023-08-01T06:00	21782	44	-50.4	-83.6	147	5
2023-08-01T06:00	21814	44	-50.4	-83.6	153	5
2023-08-01T06:00	21841	44	-50.4	-83.6	158	5
2023-08-01T06:00	21864	44	-50.5	-83.7	161	5
2023-08-01T06:00	21894	44	-50.6	-83.7	162	5
2023-08-01T06:00	21917	43	-50.6	-83.7	160	5
2023-08-01T06:00	21950	43	-50.4	-83.6	155	4
2023-08-01T06:00	21975	43	-50.3	-83.5	149	4
2023-08-01T06:00	22003	43	-50.3	-83.5	143	5
2023-08-01T06:00	22030	43	-50.4	-83.6	139	5
2023-08-01T06:00	22058	43	-50.4	-83.6	139	5
2023-08-01T06:00	22085	42	-50.2	-84.2	142	6
2023-08-01T06:00	22109	42	-50.1	-84.2	148	6
2023-08-01T06:00	22135	42	-49.9	-84.0	154	6
2023-08-01T06:00	22166	42	-50.0	-84.1	160	6
2023-08-01T06:00	22195	42	-50.0	-84.1	166	5
2023-08-01T06:00	22222	42	-50.1	-84.2	171	5
2023-08-01T06:00	22250	41	-50.0	-84.1	175	4
2023-08-01T06:00	22274	41	-49.9	-84.0	180	3
2023-08-01T06:00	22302	41	-49.9	-84.0	186	2
2023-08-01T06:00	22325	41	-49.8	-84.0	191	1
2023-08-01T06:00	22352	41	-49.6	-83.8	189	1
2023-08-01T06:00	22384	40	-49.7	-83.9	114	0
2023-08-01T06:00	22413	40	-49.7	-83.9	83	1
2023-08-01T06:00	22435	40	-49.6	-83.8	86	2
2023-08-01T06:00	22470	40	-49.5	-83.7	93	3
2023-08-01T06:00	22489	40	-49.4	-83.7	100	4
2023-08-01T06:00	22515	40	-49.3	-83.6	108	4
2023-08-01T06:00	22548	39	-49.2	-83.5	115	5
2023-08-01T06:00	22570	39	-49.2	-83.5	121	5
2023-08-01T06:00	22597	39	-49.3	-83.6	125	5
2023-08-01T06:00	22629	39	-49.3	-83.6	126	5
2023-08-01T06:00	22648	39	-49.3	-83.6	126	5
2023-08-01T06:00	22679	39	-49.3	-83.6	123	5
2023-08-01T06:00	22707	39	-49.3	-83.6	119	4
2023-08-01T06:00	22732	38	-49.3	-83.6	114	4
2023-08-01T06:00	22762	38	-49.3	-83.6	110	4
2023-08-01T06:00	22787	38	-49.5	-83.7	105	4
2023-08-01T06:00	22813	38	-49.6	-83.8	101	4
2023-08-01T06:00	22839	38	-49.7	-83.9	99	4
2023-08-01T06:00	22870	38	-49.6	-83.8	97	5
2023-08-01T06:00	22895	37	-49.5	-83.7	98	5
2023-08-01T06:00	22921	37	-49.5	-83.7	100	5
2023-08-01T06:00	22948	37	-49.5	-83.7	103	6
2023-08-01T06:00	22970	37	-49.6	-83.8	106	6
2023-08-01T06:00	22999	37	-49.6	-83.0	110	7
2023-08-01T06:00	23025	37	-49.8	-83.2	113	7
2023-08-01T06:00	23046	37	-50.1	-83.4	116	7
2023-08-01T06:00	23077	36	-50.2	-83.5	118	8
2023-08-01T06:00	23101	36	-50.2	-83.5	119	8
2023-08-01T06:00	23124	36	-50.2	-83.5	120	8
2023-08-01T06:00	23156	36	-50.1	-83.4	121	7
2023-08-01T06:00	23182	36	-50.1	-83.4	122	7
2023-08-01T06:00	23203	36	-50.0	-83.3	123	6
2023-08-01T06:00	23236	36	-50.0	-84.1	125	5
2023-08-01T06:00	23259	35	-50.0	-84.1	126	5
2023-08-01T06:00	23289	35	-50.0	-84.1	127	5
2023-08-01T06:00	23316	35	-50.0	-84.1	125	5
2023-08-01T06:00	23345	35	-49.9	-84.0	122	5
2023-08-01T06:00	23369	35	-49.9	-84.0	119	6
2023-08-01T06:00	23392	35	-49.9	-84.0	117	6
2023-08-01T06:00	23427	35	-49.8	-84.0	117	7
2023-08-01T06:00	23445	34	-49.8	-84.0	118	7
2023-08-01T06:00	23470	34	-49.8	-84.0	121	7
2023-08-01T06:00	23504	34	-49.9	-84.0	125	7
2023-08-01T06:00	23528	34	-49.8	-84.0	129	7
2023-08-01T06:00	23556	34	-49.7	-83.9	134	6
2023-08-01T06:00	23583	34	-49.6	-83.8	140	6
2023-08-01T06:00	23613	34	-49.5	-83.7	146	6
2023-08-01T06:00	23638	33	-49.5	-83.7	151	5
2023-08-01T06:00	23665	33	-49.5	-83.7	155	5
2023-08-01T06:00	23692	33	-49.6	-83.8	156	4
2023-08-01T06:00	23718	33	-49.5	-83.7	154	4
2023-08-01T06:00	23754	33	-49.5	-83.7	147	3
2023-08-01T06:00	23776	33	-49.4	-83.7	135	3
2023-08-01T06:00	23803	33	-49.4	-83.7	122	3
2023-08-01T06:00	23829	32	-49.3	-83.6	111	4
2023-08-01T06:00	23856	32	-49.2	-83.5	105	4
2023-08-01T06:00	23882	32	-49.2	-83.5	102	5
2023-08-01T06:00	23913	32	-49.1	-83.4	102	5
2023-08-01T06:00	23942	32	-49.0	-83.4	102	6
2023-08-01T06:00	23972	32	-49.0	-83.4	104	5
2023-08-01T06:00	23996	32	-49.0	-83.4	106	5
2023-08-01T06:00	24022	32	-49.0	-83.4	107	5
2023-08-01T06:00	24050	31	-49.1	-83.4	107	4
2023-08-01T06:00	24079	31	-49.1	-83.4	105	4
2023-08-01T06:00	24108	31	-49.2	-83.5	101	4
2023-08-01T06:00	24133	31	-49.2	-83.5	97	4
2023-08-01T06:00	24158	31	-49.2	-83.5	94	4
2023-08-01T06:00	24186	31	-49.2	-83.5	93	4
2023-08-01T06:00	24217	31	-49.2	-83.5	94	4
2023-08-01T06:00	24245	30	-49.2	-83.5	96	4
2023-08-01T06:00	24270	30	-49.2	-83.5	97	5
2023-08-01T06:00	24296	30	-49.2	-83.5	96	5
2023-08-01T06:00	24322	30	-49.2	-83.5	94	5
2023-08-01T06:00	24348	30	-49.1	-83.4	92	6
2023-08-01T06:00	24370	30	-48.8	-83.2	90	6
2023-08-01T06:00	24403	30	-48.5	-83.9	90	7
2023-08-01T06:00	24429	30	-48.4	-83.8	92	7
2023-08-01T06:00	24455	30	-48.5	-83.9	95	7
2023-08-01T06:00	24483	29	-48.5	-83.9	98	7
2023-08-01T06:00	24511	29	-48.5	-83.0	100	7
2023-08-01T06:00	24537	29	-48.5	-83.0	100	7
2023-08-01T06:00	24573	29	-48.5	-83.0	98	6
2023-08-01T06:00	24598	29	-48.4	-82.9	93	6
2023-08-01T06:00	24621	29	-48.3	-83.8	86	5
2023-08-01T06:00	24654	29	-48.2	-83.7	78	5
2023-08-01T06:00	24677	29	-48.2	-83.7	71	5
2023-08-01T06:00	24709	28	-48.2	-83.7	65	5
2023-08-01T06:00	24742	28	-48.0	-83.6	62	5
2023-08-01T06:00	24768	28	-48.0	-83.6	60	6
2023-08-01T06:00	24791	28	-48.0	-83.6	59	6
2023-08-01T06:00	24831	28	-47.9	-83.5	57	6
2023-08-01T06:00	24855	28	-47.9	-83.5	54	6
2023-08-01T06:00	24886	28	-48.0	-83.6	51	7
2023-08-01T06:00	24915	28	-47.9	-83.5	49	7
2023-08-01T06:00	24938	27	-47.9	-83.5	49	7
2023-08-01T06:00	24977	27	-47.8	-83.4	51	8
2023-08-01T06:00	25003	27	-47.8	-83.4	56	8
2023-08-01T06:00	25030	27	-47.7	-83.4	62	8
2023-08-01T06:00	25057	27	-47.8	-83.4	69	8
2023-08-01T06:00	25091	27	-47.9	-83.5	76	8
2023-08-01T06:00	25114	27	-48.0	-83.6	82	8
2023-08-01T06:00	25152	27	-48.0	-83.6	88	8
2023-08-01T06:00	25174	26	-48.1	-83.6	93	8
2023-08-01T06:00	25208	26	-48.1	-83.6	97	9
2023-08-01T06:00	25237	26	-48.1	-83.6	101	9
2023-08-01T06:00	25266	26	-48.1	-83.6	102	8
2023-08-01T06:00	25296	26	-48.0	-83.6	103	8
2023-08-01T06:00	25330	26	-47.9	-83.5	102	8
2023-08-01T06:00	25361	26	-47.9	-83.5	100	8
2023-08-01T06:00	25392	26	-48.0	-83.6	98	8
2023-08-01T06:00	25420	26	-48.0	-83.6	95	7
2023-08-01T06:00	25445	25	-47.9	-83.5	93	7
2023-08-01T06:00	25479	25	-48.0	-83.6	92	8
2023-08-01T06:00	25507	25	-48.0	-83.6	92	8
2023-08-01T06:00	25538	25	-48.0	-83.6	93	8
2023-08-01T06:00	25561	25	-48.0	-83.6	94	9
2023-08-01T06:00	25590	25	-47.9	-83.5	95	9
2023-08-01T06:00	25628	25	-47.9	-83.5	97	10
2023-08-01T06:00	25655	25	-47.9	-83.5	98	10
2023-08-01T06:00	25680	25	-47.9	-83.5	98	10
2023-08-01T06:00	25715	24	-47.9	-83.5	98	10
2023-08-01T06:00	25745	24	-47.9	-83.5	96	10
2023-08-01T06:00	25764	24	-47.9	-83.5	93	9
2023-08-01T06:00	25794	24	-47.8	-83.4	90	9
2023-08-01T06:00	25830	24	-47.6	-83.3	86	9
2023-08-01T06:00	25855	24	-47.6	-83.3	81	8
2023-08-01T06:00	25878	24	-47.5	-83.2	77	8
2023-08-01T06:00	25910	24	-47.4	-83.1	73	9
2023-08-01T06:00	25933	24	-47.3	-83.1	72	9
2023-08-01T06:00	25972	23	-47.1	-82.9	72	9
2023-08-01T06:00	25999	23	-47.0	-82.9	74	9
2023-08-01T06:00	26020	23	-47.0	-82.9	76	9
2023-08-01T06:00	26049	23	-46.9	-82.8	79	9
2023-08-01T06:00	26087	23	-46.9	-82.8	83	10
2023-08-01T06:00	26110	23	-47.1	-82.9	86	10
2023-08-01T06:00	26140	23	-47.2	-83.0	89	10
2023-08-01T06:00	26176	23	-47.2	-83.0	92	10
2023-08-01T06:00	26197	23	-47.3	-83.1	94	11
2023-08-01T06:00	26230	23	-47.2	-83.0	96	11
2023-08-01T06:00	26258	22	-47.2	-83.0	96	11
2023-08-01T06:00	26288	22	-47.1	-82.9	96	11
2023-08-01T06:00	26310	22	-46.8	-82.7	96	10
2023-08-01T06:00	26340	22	-46.8	-82.7	95	10
2023-08-01T06:00	26369	22	-46.7	-82.6	96	9
2023-08-01T06:00	26391	22	-46.8	-82.7	97	9
2023-08-01T06:00	26431	22	-46.9	-82.8	99	9
2023-08-01T06:00	26462	22	-46.8	-82.7	101	9
2023-08-01T06:00	26482	22	-46.6	-82.6	104	8
2023-08-01T06:00	26521	22	-46.5	-82.5	106	8
2023-08-01T06:00	26538	22	-46.4	-83.5	108	8
2023-08-01T06:00	26568	21	-46.4	-83.5	109	8
2023-08-01T06:00	26604	21	-46.2	-83.4	108	8
2023-08-01T06:00	26630	21	-46.0	-83.2	107	8
2023-08-01T06:00	26665	21	-45.9	-83.2	105	8
2023-08-01T06:00	26690	21	-45.8	-83.1	103	8
2023-08-01T06:00	26725	21	-45.8	-83.1	101	8
2023-08-01T06:00	26755	21	-45.9	-83.2	100	8
2023-08-01T06:00	26785	21	-45.9	-83.2	101	8
2023-08-01T06:00	26809	21	-45.8	-83.1	103	8
2023-08-01T06:00	26842	21	-45.8	-83.1	105	8
2023-08-01T06:00	26872	20	-45.8	-83.1	106	9
2023-08-01T06:00	26900	20	-45.8	-83.1	104	9
2023-08-01T06:00	26930	20	-45.7	-83.0	102	9
2023-08-01T06:00	26961	20	-45.5	-82.9	98	10
2023-08-01T06:00	26980	20	-45.3	-82.7	95	10
2023-08-01T06:00	27016	20	-45.0	-82.5	93	11
2023-08-01T06:00	27043	20	-44.9	-82.5	92	11
2023-08-01T06:00	27073	20	-44.9	-82.5	93	11
2023-08-01T06:00	27104	20	-45.0	-82.5	95	11
2023-08-01T06:00	27137	20	-44.9	-82.5	98	11
2023-08-01T06:00	27163	20	-44.9	-82.5	100	10
2023-08-01T06:00	27198	20	-44.8	-82.4	102	10
2023-08-01T06:00	27222	19	-44.7	-82.3	102	10
2023-08-01T06:00	27250	19	-44.7	-82.3	101	10
2023-08-01T06:00	27283	19	-44.8	-82.4	99	10
2023-08-01T06:00	27313	19	-44.8	-82.4	97	10
2023-08-01T06:00	27342	19	-44.8	-82.4	95	10
2023-08-01T06:00	27372	19	-44.8	-82.4	94	11
2023-08-01T06:00	27395	19	-44.8	-82.4	93	11
2023-08-01T06:00	27421	19	-44.7	-82.3	93	12
2023-08-01T06:00	27447	19	-44.6	-82.2	93	12
2023-08-01T06:00	27487	19	-44.6	-82.2	95	11
2023-08-01T06:00	27509	19	-44.5	-82.2	96	11
2023-08-01T06:00	27535	19	-44.5	-82.2	97	10
2023-08-01T06:00	27578	18	-44.5	-82.2	97	9
2023-08-01T06:00	27600	18	-44.4	-82.1	97	8
2023-08-01T06:00	27636	18	-44.3	-82.0	96	7
2023-08-01T06:00	27654	18	-44.3	-82.0	93	7
2023-08-01T06:00	27690	18	-44.2	-82.0	89	6
2023-08-01T06:00	27714	18	-44.1	-81.9	85	6
2023-08-01T06:00	27738	18	-44.0	-81.8	81	6
2023-08-01T06:00	27767	18	-43.8	-81.7	77	7
2023-08-01T06:00	27814	18	-43.8	-81.7	75	8
2023-08-01T06:00	27838	18	-43.8	-81.7	73	8
2023-08-01T06:00	27862	18	-43.8	-81.7	72	8
2023-08-01T06:00	27900	18	-43.8	-81.7	73	9
2023-08-01T06:00	27917	18	-43.9	-81.8	75	9
2023-08-01T06:00	27952	17	-43.9	-81.8	79	9
2023-08-01T06:00	27995	17	-43.8	-81.7	84	9
2023-08-01T06:00	28008	17	-43.7	-81.6	88	9
2023-08-01T06:00	28047	17	-43.7	-81.6	91	10
2023-08-01T06:00	28088	17	-43.7	-81.6	93	10
2023-08-01T06:00	28123	17	-43.7	-81.6	94	10
2023-08-01T06:00	28156	17	-43.6	-81.5	94	10
2023-08-01T06:00	28179	17	-43.6	-81.5	94	9
2023-08-01T06:00	28209	17	-43.6	-81.5	92	9
2023-08-01T06:00	28235	17	-43.5	-81.5	89	8
2023-08-01T06:00	28274	17	-43.4	-81.4	86	8
2023-08-01T06:00	28296	17	-43.2	-81.3	82	8
2023-08-01T06:00	28331	16	-43.0	-81.1	79	8
2023-08-01T06:00	28362	16	-42.8	-81.0	77	8
2023-08-01T06:00	28404	16	-42.8	-81.0	78	8
2023-08-01T06:00	28424	16	-42.7	-80.9	79	9
2023-08-01T06:00	28457	16	-42.7	-80.9	81	9
2023-08-01T06:00	28493	16	-42.7	-80.9	82	10
2023-08-01T06:00	28521	16	-42.9	-81.1	84	10
2023-08-01T06:00	28551	16	-42.9	-81.1	87	10
2023-08-01T06:00	28592	16	-43.0	-81.1	90	10
2023-08-01T06:00	28610	16	-43.0	-81.1	95	10
2023-08-01T06:00	28645	16	-43.0	-81.1	100	10
2023-08-01T06:00	28678	16	-43.0	-81.1	105	10
2023-08-01T06:00	28702	16	-43.0	-81.1	110	10
2023-08-01T06:00	28738	16	-43.0	-81.1	114	10
2023-08-01T06:00	28771	15	-42.9	-81.1	116	10
2023-08-01T06:00	28791	15	-42.6	-80.8	117	10
2023-08-01T06:00	28823	15	-42.3	-80.6	116	9
2023-08-01T06:00	28855	15	-42.1	-80.5	113	8
2023-08-01T06:00	28893	15	-42.0	-80.4	108	8
2023-08-01T06:00	28916	15	-41.8	-80.3	102	7
2023-08-01T06:00	28940	15	-41.7	-80.2	96	7
2023-08-01T06:00	28980	15	-41.8	-80.3	92	7
2023-08-01T06:00	29007	15	-41.8	-80.3	90	7
2023-08-01T06:00	29035	15	-41.6	-80.1	89	7
2023-08-01T06:00	29062	15	-41.5	-80.1	89	7
2023-08-01T06:00	29094	15	-41.6	-80.1	89	7
2023-08-01T06:00	29112	15	-41.6	-80.1	88	7
2023-08-01T06:00	29151	15	-41.6	-80.1	85	7
2023-08-01T06:00	29184	15	-41.7	-80.2	84	8
2023-08-01T06:00	29217	14	-41.7	-80.2	84	8
2023-08-01T06:00	29242	14	-41.6	-80.1	86	8
2023-08-01T06:00	29279	14	-41.7	-80.2	90	9
2023-08-01T06:00	29301	14	-42.0	-80.4	94	10
2023-08-01T06:00	29344	14	-42.1	-80.5	98	10
2023-08-01T06:00	29367	14	-42.1	-80.5	101	11
2023-08-01T06:00	29394	14	-42.2	-80.6	102	11
2023-08-01T06:00	29416	14	-42.2	-80.6	102	11
2023-08-01T06:00	29466	14	-42.2	-80.6	101	11
2023-08-01T06:00	29488	14	-42.2	-80.6	99	11
2023-08-01T06:00	29524	14	-42.2	-80.6	96	11
2023-08-01T06:00	29553	14	-42.2	-80.6	93	11
2023-08-01T06:00	29578	14	-42.3	-80.6	91	10
2023-08-01T06:00	29611	14	-42.2	-80.6	91	10
2023-08-01T06:00	29656	14	-42.2	-80.6	91	10
2023-08-01T06:00	29677	14	-42.3	-80.6	93	10
2023-08-01T06:00	29708	13	-42.4	-80.7	94	11
2023-08-01T06:00	29749	13	-42.4	-80.7	95	11
2023-08-01T06:00	29774	13	-42.4	-80.7	94	11
2023-08-01T06:00	29809	13	-42.3	-80.6	91	11
2023-08-01T06:00	29836	13	-42.3	-80.6	88	11
2023-08-01T06:00	29877	13	-42.4	-80.7	86	11
2023-08-01T06:00	29916	13	-42.5	-80.8	83	11
2023-08-01T06:00	29945	13	-42.6	-80.8	82	11
2023-08-01T06:00	29959	13	-42.6	-80.8	81	11
2023-08-01T06:00	30017	13	-42.6	-80.8	81	11
2023-08-01T06:00	30038	13	-42.7	-80.9	81	11
2023-08-01T06:00	30074	13	-42.8	-81.0	82	11
2023-08-01T06:00	30111	13	-42.7	-80.9	82	11
2023-08-01T06:00	30129	13	-42.6	-80.8	83	11
2023-08-01T06:00	30167	13	-42.5	-80.8	83	11
2023-08-01T06:00	30208	13	-42.5	-80.8	84	11
2023-08-01T06:00	30224	12	-42.5	-80.8	84	10
2023-08-01T06:00	30266	12	-42.6	-80.8	84	10
2023-08-01T06:00	30293	12	-42.6	-80.8	84	10
2023-08-01T06:00	30334	12	-42.6	-80.8	85	10
2023-08-01T06:00	30360	12	-42.7	-80.9	87	9
2023-08-01T06:00	30385	12	-42.8	-81.0	89	9
2023-08-01T06:00	30410	12	-42.8	-81.0	91	9
2023-08-01T06:00	30449	12	-42.9	-81.1	93	9
2023-08-01T06:00	30483	12	-42.9	-81.1	95	9
2023-08-01T06:00	30514	12	-42.8	-81.0	95	9
2023-08-01T06:00	30546	12	-42.7	-80.9	96	9
2023-08-01T06:00	30569	12	-42.5	-80.8	97	10
2023-08-01T06:00	30605	12	-42.3	-80.6	98	9
2023-08-01T06:00	30636	12	-42.3	-80.6	100	9
2023-08-01T06:00	30661	12	-42.3	-80.6	102	9
2023-08-01T06:00	30699	12	-42.2	-80.6	104	9
2023-08-01T06:00	30727	12	-42.0	-80.4	104	10
2023-08-01T06:00	30761	12	-41.8	-80.3	103	10
2023-08-01T06:00	30778	11	-41.6	-80.1	100	9
2023-08-01T06:00	30820	11	-41.3	-79.9	95	9
2023-08-01T06:00	30842	11	-41.1	-79.8	89	9
2023-08-01T06:00	30875	11	-40.9	-79.7	82	9
2023-08-01T06:00	30905	11	-40.7	-79.5	77	10
2023-08-01T06:00	30932	11	-40.4	-79.3	74	11
2023-08-01T06:00	30963	11	-40.3	-79.2	74	12
2023-08-01T06:00	30992	11	-40.0	-79.0	75	13
2023-08-01T06:00	31035	11	-39.6	-78.8	78	14
2023-08-01T06:00	31056	11	-39.4	-78.6	81	14
2023-08-01T06:00	31101	11	-39.2	-78.5	84	15
2023-08-01T06:00	31114	11	-39.1	-78.4	87	15
2023-08-01T06:00	31146	11	-39.1	-78.4	90	16
2023-08-01T06:00	31176	11	-39.2	-78.5	94	16
2023-08-01T06:00	31219	11	-39.3	-78.5	97	16
2023-08-01T06:00	31243	11	-39.3	-78.5	100	17
2023-08-01T06:00	31273	11	-39.4	-78.6	104	17
2023-08-01T06:00	31294	11	-39.5	-78.7	106	17
2023-08-01T06:00	31334	11	-39.6	-78.8	108	17
2023-08-01T06:00	31349	11	-39.8	-78.9	109	16
2023-08-01T06:00	31399	11	-39.7	-78.8	108	16
2023-08-01T06:00	31421	10	-39.6	-78.8	106	16
2023-08-01T06:00	31465	10	-39.5	-78.7	104	15
2023-08-01T06:00	31484	10	-39.6	-78.8	102	15
2023-08-01T06:00	31508	10	-39.7	-78.8	99	14
2023-08-01T06:00	31542	10	-39.9	-79.0	97	14
2023-08-01T06:00	31585	10	-40.0	-79.0	96	14
2023-08-01T06:00	31616	10	-40.0	-79.0	96	13
2023-08-01T06:00	31645	10	-39.7	-78.8	97	13
2023-08-01T06:00	31678	10	-39.4	-78.6	100	13
2023-08-01T06:00	31696	10	-39.4	-78.6	103	13
2023-08-01T06:00	31744	10	-39.3	-78.5	107	13
2023-08-01T06:00	31771	10	-39.2	-78.5	111	14
2023-08-01T06:00	31780	10	-39.2	-78.5	116	14
2023-08-01T06:00	31825	10	-39.2	-78.5	119	15
2023-08-01T06:00	31860	10	-39.3	-78.5	123	15
2023-08-01T06:00	31881	10	-39.2	-78.5	125	16
2023-08-01T06:00	31929	10	-39.0	-78.3	127	16
2023-08-01T06:00	31950	10	-38.7	-78.1	127	15
2023-08-01T06:00	31992	10	-38.5	-78.0	126	15
2023-08-01T06:00	32009	10	-38.4	-77.9	124	14
2023-08-01T06:00	32034	10	-38.3	-77.9	121	13
2023-08-01T06:00	32056	10	-38.1	-77.7	116	13
2023-08-01T06:00	32102	9	-38.0	-77.6	112	12
2023-08-01T06:00	32132	9	-37.9	-77.6	107	12
2023-08-01T06:00	32170	9	-37.9	-77.6	102	12
2023-08-01T06:00	32202	9	-38.0	-77.6	98	12
2023-08-01T06:00	32231	9	-38.0	-77.6	94	13
2023-08-01T06:00	32266	9	-38.1	-77.7	91	13
2023-08-01T06:00	32281	9	-38.0	-77.6	90	14
2023-08-01T06:00	32316	9	-37.9	-77.6	89	15
2023-08-01T06:00	32344	9	-37.9	-77.6	90	16
2023-08-01T06:00	32377	9	-37.9	-77.6	91	17
2023-08-01T06:00	32407	9	-37.8	-77.5	92	18
2023-08-01T06:00	32452	9	-37.7	-77.4	94	18
2023-08-01T06:00	32466	9	-37.5	-77.3	96	17
2023-08-01T06:00	32515	9	-37.4	-77.2	97	17
2023-08-01T06:00	32531	9	-37.3	-77.2	99	16
2023-08-01T06:00	32573	9	-37.1	-77.0	101	16
2023-08-01T06:00	32597	9	-36.7	-76.7	103	16
2023-08-01T06:00	32630	9	-36.4	-76.5	104	16
2023-08-01T06:00	32657	9	-36.2	-76.4	106	15
2023-08-01T06:00	32664	9	-36.2	-76.4	108	15
2023-08-01T06:00	32721	9	-36.1	-76.3	110	15
2023-08-01T06:00	32749	9	-36.0	-76.3	113	14
2023-08-01T06:00	32790	9	-35.9	-76.2	117	14
2023-08-01T06:00	32801	9	-35.9	-76.2	121	14
2023-08-01T06:00	32841	9	-35.9	-76.2	125	14
2023-08-01T06:00	32883	8	-36.1	-76.3	129	14
2023-08-01T06:00	32918	8	-36.3	-76.5	132	14
2023-08-01T06:00	32931	8	-36.4	-76.5	134	13
2023-08-01T06:00	32973	8	-36.2	-76.4	133	13
2023-08-01T06:00	33027	8	-35.8	-76.1	130	12
2023-08-01T06:00	33065	8	-35.1	-75.6	117	11
2023-08-01T06:00	33108	8	-34.9	-75.5	109	11
2023-08-01T06:00	33114	8	-34.9	-75.5	102	11
2023-08-01T06:00	33152	8	-34.9	-75.5	97	12
2023-08-01T06:00	33183	8	-34.8	-75.4	93	13
2023-08-01T06:00	33208	8	-34.8	-75.4	90	14
2023-08-01T06:00	33261	8	-34.9	-75.5	88	15
2023-08-01T06:00	33276	8	-34.9	-75.5	86	15
2023-08-01T06:00	33307	8	-35.0	-75.6	85	16
2023-08-01T06:00	33355	8	-35.0	-75.6	85	16
2023-08-01T06:00	33379	8	-34.9	-75.5	86	16
2023-08-01T06:00	33422	8	-34.9	-75.5	87	16
2023-08-01T06:00	33442	8	-34.9	-75.5	89	15
2023-08-01T06:00	33486	8	-35.0	-75.6	90	16
2023-08-01T06:00	33508	8	-35.1	-75.6	91	16
2023-08-01T06:00	33539	8	-35.1	-75.6	93	16
2023-08-01T06:00	33561	8	-35.0	-75.6	94	16
2023-08-01T06:00	33601	8	-34.8	-75.4	96	16
2023-08-01T06:00	33628	8	-34.6	-75.3	99	16
2023-08-01T06:00	33662	8	-34.4	-75.2	101	15
2023-08-01T06:00	33689	8	-34.4	-75.2	104	15
2023-08-01T06:00	33728	8	-34.4	-75.2	107	15
2023-08-01T06:00	33764	7	-34.5	-75.2	110	14
2023-08-01T06:00	33811	7	-34.6	-75.3	113	14
2023-08-01T06:00	33840	7	-34.7	-75.4	116	14
2023-08-01T06:00	33904	7	-34.6	-75.3	121	14
2023-08-01T06:00	33918	7	-34.4	-75.2	122	14
2023-08-01T06:00	33948	7	-34.3	-75.1	122	14
2023-08-01T06:00	33968	7	-34.3	-75.1	120	14
2023-08-01T06:00	34033	7	-34.1	-75.0	117	15
2023-08-01T06:00	34050	7	-33.9	-74.8	114	15
2023-08-01T06:00	34056	7	-33.5	-74.5	110	15
2023-08-01T06:00	34092	7	-33.2	-74.3	107	15
2023-08-01T06:00	34120	7	-33.0	-74.2	104	15
2023-08-01T06:00	34170	7	-32.9	-74.1	101	16
2023-08-01T06:00	34210	7	-32.8	-74.1	97	16
2023-08-01T06:00	34253	7	-32.8	-74.1	96	17
2023-08-01T06:00	34265	7	-32.7	-74.0	96	17
2023-08-01T06:00	34308	7	-32.5	-73.8	96	18
2023-08-01T06:00	34354	7	-32.3	-73.7	97	18
2023-08-01T06:00	34389	7	-32.1	-73.6	101	18
2023-08-01T06:00	34400	7	-32.1	-73.6	103	18
2023-08-01T06:00	34450	7	-32.2	-73.6	105	18
2023-08-01T06:00	34484	7	-32.3	-73.7	107	17
2023-08-01T06:00	34525	7	-32.2	-73.6	109	17
2023-08-01T06:00	34534	7	-32.0	-73.5	111	16
2023-08-01T06:00	34593	7	-31.9	-73.4	114	16
2023-08-01T06:00	34642	7	-31.8	-73.4	119	15
2023-08-01T06:00	34681	7	-31.7	-73.3	126	14
2023-08-01T06:00	34709	7	-31.5	-73.2	128	14
2023-08-01T06:00	34737	7	-31.4	-73.1	129	13
2023-08-01T06:00	34783	6	-31.2	-73.0	129	12
2023-08-01T06:00	34796	6	-31.0	-72.8	127	12
2023-08-01T06:00	34843	6	-30.8	-72.7	124	11
2023-08-01T06:00	34879	6	-30.6	-72.5	119	11
2023-08-01T06:00	34917	6	-30.0	-72.1	108	11
2023-08-01T06:00	34947	6	-29.6	-71.9	104	12
2023-08-01T06:00	34969	6	-29.3	-71.7	102	12
2023-08-01T06:00	34992	6	-29.1	-71.5	101	13
2023-08-01T06:00	35052	6	-28.8	-71.3	102	14
2023-08-01T06:00	35065	6	-28.6	-71.2	103	14
2023-08-01T06:00	35084	6	-28.5	-71.1	104	15
2023-08-01T06:00	35142	6	-28.4	-71.0	105	15
2023-08-01T06:00	35173	6	-28.3	-71.0	106	16
2023-08-01T06:00	35180	6	-28.3	-71.0	107	16
2023-08-01T06:00	35233	6	-28.4	-71.0	108	16
2023-08-01T06:00	35259	6	-28.4	-71.0	109	16
2023-08-01T06:00	35273	6	-28.5	-71.1	110	16
2023-08-01T06:00	35290	6	-28.4	-71.0	111	16
2023-08-01T06:00	35334	6	-28.4	-71.0	111	16
2023-08-01T06:00	35377	6	-28.4	-71.0	111	15
2023-08-01T12:00	112	984	18.8	15.7	240	5
2023-08-01T12:00	144	981	18.5	15.6	231	4
2023-08-01T12:00	173	977	18.2	15.3	233	5
2023-08-01T12:00	198	974	17.8	15.0	234	6
2023-08-01T12:00	227	971	17.6	15.1	234	7
2023-08-01T12:00	256	968	17.3	15.0	234	7
2023-08-01T12:00	292	964	16.9	14.7	234	8
2023-08-01T12:00	334	959	16.5	14.7	236	8
2023-08-01T12:00	369	956	16.2	14.6	237	9
2023-08-01T12:00	392	953	16.0	14.3	239	9
2023-08-01T12:00	421	949	15.7	14.1	240	9
2023-08-01T12:00	452	946	15.5	14.0	241	9
2023-08-01T12:00	480	943	15.2	13.9	241	10
2023-08-01T12:00	505	940	15.0	13.5	242	10
2023-08-01T12:00	531	937	15.0	12.8	243	11
2023-08-01T12:00	558	934	14.8	12.3	244	12
2023-08-01T12:00	581	932	14.7	12.0	245	13
2023-08-01T12:00	609	929	14.5	11.7	245	13
2023-08-01T12:00	637	926	14.3	11.3	245	14
2023-08-01T12:00	666	922	14.0	11.4	245	14
2023-08-01T12:00	690	920	13.8	11.4	245	14
2023-08-01T12:00	719	917	13.6	11.1	245	14
2023-08-01T12:00	743	914	13.4	11.0	245	14
2023-08-01T12:00	767	911	13.2	11.0	246	14
2023-08-01T12:00	795	908	12.9	11.0	246	15
2023-08-01T12:00	822	905	12.7	11.1	247	15
2023-08-01T12:00	850	903	12.5	11.1	247	15
2023-08-01T12:00	873	900	12.3	11.1	247	16
2023-08-01T12:00	897	897	12.1	11.0	248	16
2023-08-01T12:00	928	894	11.9	11.2	248	16
2023-08-01T12:00	959	891	11.7	10.8	249	16
2023-08-01T12:00	981	889	11.6	10.8	251	16
2023-08-01T12:00	1004	886	11.5	10.7	252	16
2023-08-01T12:00	1028	884	11.3	10.5	254	16
2023-08-01T12:00	1050	881	11.4	9.6	255	15
2023-08-01T12:00	1074	879	11.6	9.1	255	15
2023-08-01T12:00	1100	876	11.5	8.9	253	15
2023-08-01T12:00	1124	873	11.4	8.6	251	14
2023-08-01T12:00	1144	871	11.2	8.6	248	14
2023-08-01T12:00	1162	869	11.1	8.5	245	14
2023-08-01T12:00	1181	868	11.0	8.5	244	13
2023-08-01T12:00	1202	865	10.8	8.5	245	13
2023-08-01T12:00	1219	864	10.6	8.4	248	12
2023-08-01T12:00	1239	862	10.4	8.4	253	12
2023-08-01T12:00	1258	860	10.2	8.3	257	13
2023-08-01T12:00	1276	858	10.1	8.3	259	13
2023-08-01T12:00	1292	856	9.9	8.3	258	14
2023-08-01T12:00	1310	854	9.8	8.3	255	14
2023-08-01T12:00	1330	852	9.6	8.4	251	14
2023-08-01T12:00	1347	850	9.4	8.3	247	14
2023-08-01T12:00	1366	848	9.3	8.3	245	14
2023-08-01T12:00	1386	846	9.1	8.3	245	14
2023-08-01T12:00	1405	845	8.9	8.1	247	13
2023-08-01T12:00	1422	843	8.8	8.1	250	14
2023-08-01T12:00	1448	840	8.6	8.1	254	14
2023-08-01T12:00	1470	838	8.5	7.9	258	14
2023-08-01T12:00	1487	836	8.3	7.8	261	14
2023-08-01T12:00	1505	834	8.2	7.8	264	15
2023-08-01T12:00	1521	833	8.1	7.8	265	14
2023-08-01T12:00	1539	831	8.0	7.7	265	14
2023-08-01T12:00	1556	829	7.9	7.7	264	13
2023-08-01T12:00	1574	827	7.8	7.6	262	12
2023-08-01T12:00	1594	825	7.7	7.2	257	12
2023-08-01T12:00	1610	824	7.7	7.0	253	12
2023-08-01T12:00	1629	822	7.6	6.7	249	13
2023-08-01T12:00	1646	820	7.4	6.6	247	14
2023-08-01T12:00	1665	818	7.3	6.6	246	14
2023-08-01T12:00	1681	817	7.2	6.4	244	14
2023-08-01T12:00	1696	815	7.2	6.2	243	14
2023-08-01T12:00	1713	814	7.1	5.9	242	14
2023-08-01T12:00	1734	812	7.1	5.8	242	13
2023-08-01T12:00	1751	810	7.0	5.6	244	13
2023-08-01T12:00	1770	808	7.0	5.3	246	12
2023-08-01T12:00	1787	806	6.8	5.3	248	12
2023-08-01T12:00	1808	804	6.7	5.2	250	12
2023-08-01T12:00	1825	803	6.5	5.2	252	13
2023-08-01T12:00	1843	801	6.3	5.1	253	13
2023-08-01T12:00	1862	799	6.3	5.0	253	14
2023-08-01T12:00	1880	797	6.3	4.6	253	15
2023-08-01T12:00	1898	795	6.3	4.7	252	16
2023-08-01T12:00	1918	794	6.2	4.6	250	16
2023-08-01T12:00	1937	792	6.0	4.7	247	16
2023-08-01T12:00	1957	790	5.9	4.9	243	16
2023-08-01T12:00	1978	788	5.8	5.0	240	16
2023-08-01T12:00	1998	786	5.7	5.0	236	15
2023-08-01T12:00	2018	784	5.5	4.9	234	14
2023-08-01T12:00	2038	782	5.3	4.9	233	13
2023-08-01T12:00	2057	780	5.1	4.8	234	12
2023-08-01T12:00	2076	778	5.0	4.9	236	11
2023-08-01T12:00	2097	776	4.8	4.8	239	11
2023-08-01T12:00	2117	774	4.6	4.6	242	11
2023-08-01T12:00	2137	773	4.5	4.5	243	11
2023-08-01T12:00	2157	771	4.4	4.4	245	12
2023-08-01T12:00	2177	769	4.2	4.2	246	12
2023-08-01T12:00	2199	767	4.2	4.2	247	12
2023-08-01T12:00	2219	765	4.1	4.1	247	13
2023-08-01T12:00	2240	763	4.0	4.0	245	13
2023-08-01T12:00	2263	761	3.9	3.9	242	14
2023-08-01T12:00	2284	759	3.8	3.8	239	14
2023-08-01T12:00	2308	757	3.7	3.7	235	13
2023-08-01T12:00	2330	755	3.5	3.5	231	13
2023-08-01T12:00	2353	752	3.4	3.4	228	12
2023-08-01T12:00	2374	750	3.3	3.3	228	11
2023-08-01T12:00	2397	748	3.2	3.2	229	10
2023-08-01T12:00	2424	746	3.1	3.1	233	10
2023-08-01T12:00	2450	744	3.0	3.0	237	10
2023-08-01T12:00	2475	741	2.8	2.8	240	10
2023-08-01T12:00	2496	739	2.7	2.7	242	11
2023-08-01T12:00	2517	737	2.7	2.7	241	11
2023-08-01T12:00	2541	735	2.6	2.6	239	12
2023-08-01T12:00	2566	733	2.4	2.4	236	13
2023-08-01T12:00	2590	731	2.3	2.3	232	13
2023-08-01T12:00	2614	729	2.1	2.1	228	13
2023-08-01T12:00	2638	726	2.0	2.0	225	13
2023-08-01T12:00	2663	724	1.9	1.9	222	12
2023-08-01T12:00	2689	722	1.8	1.8	221	11
2023-08-01T12:00	2711	720	1.6	1.6	222	10
2023-08-01T12:00	2735	718	1.5	1.5	226	9
2023-08-01T12:00	2758	716	1.3	1.3	233	8
2023-08-01T12:00	2782	714	1.1	1.1	242	7
2023-08-01T12:00	2804	712	1.0	-0.4	249	7
2023-08-01T12:00	2827	710	2.1	-3.2	254	8
2023-08-01T12:00	2846	708	2.0		256	8
2023-08-01T12:00	2867	706	2.0	-3.1	256	8
2023-08-01T12:00	2889	704	1.9	-3.2	256	9
2023-08-01T12:00	2912	702	1.8	-3.3	255	9
2023-08-01T12:00	2932	700	1.7	-3.4	254	10
2023-08-01T12:00	2954	698	1.6	-3.6	253	10
2023-08-01T12:00	2978	696	1.4	-3.7	252	10
2023-08-01T12:00	2999	695	1.2	-3.7	252	10
2023-08-01T12:00	3020	693	1.1	-3.7	253	10
2023-08-01T12:00	3042	691	0.9	-4.0	254	10
2023-08-01T12:00	3064	689	0.8	-3.9	255	10
2023-08-01T12:00	3086	687	0.6	-4.0	257	10
2023-08-01T12:00	3108	685	0.4	-4.1	258	10
2023-08-01T12:00	3130	683	0.3	-4.2	260	11
2023-08-01T12:00	3152	682	0.1	-4.3	261	11
2023-08-01T12:00	3175	680	-0.1	-4.7	263	11
2023-08-01T12:00	3197	678	-0.3	-4.7	266	10
2023-08-01T12:00	3221	676	-0.3	-4.9	267	10
2023-08-01T12:00	3245	674	-0.5	-5.0	269	9
2023-08-01T12:00	3268	672	-0.7	-5.1	270	8
2023-08-01T12:00	3291	670	-0.9	-5.2	271	8
2023-08-01T12:00	3314	668	-1.1	-5.3	273	8
2023-08-01T12:00	3337	666	-1.2	-5.3	274	9
2023-08-01T12:00	3357	664	-1.3	-5.5	276	9
2023-08-01T12:00	3379	662	-1.5		276	10
2023-08-01T12:00	3400	661	-1.7	-5.5	276	10
2023-08-01T12:00	3419	659	-1.8	-5.5	275	11
2023-08-01T12:00	3442	657	-2.0	-5.6	272	11
2023-08-01T12:00	3463	656	-2.0	-5.8	268	11
2023-08-01T12:00	3481	654	-2.2	-6.1	264	10
2023-08-01T12:00	3501	652	-2.3	-6.4	259	10
2023-08-01T12:00	3520	651	-2.4	-6.4	256	9
2023-08-01T12:00	3540	649	-2.5	-6.8	254	9
2023-08-01T12:00	3558	648	-2.6	-7.1	254	8
2023-08-01T12:00	3578	646	-2.8	-7.3	256	7
2023-08-01T12:00	3596	645	-2.9	-7.4	258	7
2023-08-01T12:00	3616	643	-3.1	-7.4	259	7
2023-08-01T12:00	3633	641	-3.2	-7.6	256	7
2023-08-01T12:00	3655	640	-3.4	-7.6	252	8
2023-08-01T12:00	3673	638	-3.6	-7.9	248	9
2023-08-01T12:00	3693	637	-3.7	-8.1	245	10
2023-08-01T12:00	3711	635	-3.8	-8.1	243	11
2023-08-01T12:00	3729	634	-3.9	-8.1	241	11
2023-08-01T12:00	3750	632	-4.0	-8.0	240	12
2023-08-01T12:00	3769	631	-4.2	-8.0	239	12
2023-08-01T12:00	3789	629	-4.4	-7.9	237	12
2023-08-01T12:00	3806	628	-4.5	-7.6	235	12
2023-08-01T12:00	3825	626	-4.7	-7.5	233	12
2023-08-01T12:00	3844	625	-4.8	-6.8	232	12
2023-08-01T12:00	3860	623	-5.0	-6.8	232	12
2023-08-01T12:00	3877	622	-5.1	-6.7	232	11
2023-08-01T12:00	3894	621	-5.3	-6.6	234	11
2023-08-01T12:00	3912	619	-5.3	-5.7	237	11
2023-08-01T12:00	3932	618	-5.2	-5.8	241	11
2023-08-01T12:00	3951	616	-5.3	-6.2	246	12
2023-08-01T12:00	3973	614	-5.4	-6.7	249	13
2023-08-01T12:00	3996	613	-5.5	-7.6	251	14
2023-08-01T12:00	4018	611	-5.6	-7.6	251	16
2023-08-01T12:00	4042	609	-5.9	-7.9	250	17
2023-08-01T12:00	4065	607	-6.0	-8.4	248	18
2023-08-01T12:00	4086	606	-5.5	-10.2	246	19
2023-08-01T12:00	4101	605	-5.5	-9.9	245	19
2023-08-01T12:00	4121	603	-5.7	-10.0	245	19
2023-08-01T12:00	4151	601	-5.9	-10.5	244	18
2023-08-01T12:00	4178	599	-6.0	-10.7	243	18
2023-08-01T12:00	4201	597	-6.1	-11.1	243	19
2023-08-01T12:00	4218	596	-6.1	-11.3	241	19
2023-08-01T12:00	4238	594	-6.3	-11.4	240	19
2023-08-01T12:00	4258	593	-6.5	-11.6	239	19
2023-08-01T12:00	4279	591	-6.6	-11.6	239	19
2023-08-01T12:00	4299	590	-6.8	-11.7	241	19
2023-08-01T12:00	4318	588	-7.0	-11.8	244	19
2023-08-01T12:00	4347	586	-7.1	-12.2	248	20
2023-08-01T12:00	4379	584	-7.1	-12.6	251	21
2023-08-01T12:00	4402	582	-7.2	-13.6	252	22
2023-08-01T12:00	4424	580	-7.3	-13.9	253	23
2023-08-01T12:00	4446	579	-7.6	-13.7	253	23
2023-08-01T12:00	4459	577	-7.6	-13.8	253	23
2023-08-01T12:00	4474	576	-7.6	-14.6	254	22
2023-08-01T12:00	4490	575	-7.7	-14.7	255	22
2023-08-01T12:00	4509	574	-8.1	-14.5	256	22
2023-08-01T12:00	4532	572	-8.3	-14.8	255	22
2023-08-01T12:00	4552	571	-8.5	-14.8	254	22
2023-08-01T12:00	4568	569	-8.8	-14.7	253	22
2023-08-01T12:00	4585	568	-8.9	-14.6	251	23
2023-08-01T12:00	4603	567	-9.1	-14.6	249	23
2023-08-01T12:00	4620	566	-9.3	-14.8	248	23
2023-08-01T12:00	4633	565	-9.5	-14.2	247	23
2023-08-01T12:00	4649	563	-9.7	-14.3	247	23
2023-08-01T12:00	4665	562	-9.7	-14.3	247	23
2023-08-01T12:00	4685	561	-9.9	-14.4	248	23
2023-08-01T12:00	4701	560	-10.0	-14.5	248	23
2023-08-01T12:00	4722	558	-10.2	-14.5	248	23
2023-08-01T12:00	4743	557	-10.5	-14.8	248	24
2023-08-01T12:00	4763	555	-10.6	-15.0	248	24
2023-08-01T12:00	4784	554	-10.8	-14.8	249	23
2023-08-01T12:00	4803	552	-10.9	-14.6	249	23
2023-08-01T12:00	4827	551	-10.9	-14.2	249	22
2023-08-01T12:00	4848	549	-10.9	-14.0	250	21
2023-08-01T12:00	4871	548	-11.0	-14.0	250	20
2023-08-01T12:00	4894	546	-11.1	-14.0	251	19
2023-08-01T12:00	4914	544	-11.1	-13.9	251	19
2023-08-01T12:00	4936	543	-11.1	-13.9	252	18
2023-08-01T12:00	4957	541	-11.2	-13.8	253	18
2023-08-01T12:00	4979	540	-11.3	-13.8	253	18
2023-08-01T12:00	5001	538	-11.4	-13.8	252	18
2023-08-01T12:00	5021	537	-11.6	-13.8	250	18
2023-08-01T12:00	5043	535	-11.8	-13.9	248	17
2023-08-01T12:00	5068	534	-12.0	-14.0	246	17
2023-08-01T12:00	5090	532	-12.1	-14.1	244	17
2023-08-01T12:00	5112	531	-12.3	-14.3	242	16
2023-08-01T12:00	5133	529	-12.3	-14.2	242	16
2023-08-01T12:00	5154	528	-12.4	-14.2	242	16
2023-08-01T12:00	5175	526	-12.5	-14.4	242	15
2023-08-01T12:00	5197	525	-12.7	-14.4	242	15
2023-08-01T12:00	5219	523	-12.8	-14.5	241	16
2023-08-01T12:00	5241	522	-13.0	-14.6	241	16
2023-08-01T12:00	5262	520	-13.2	-14.7	241	16
2023-08-01T12:00	5285	519	-13.4		242	15
2023-08-01T12:00	5308	517	-13.5	-14.9	243	15
2023-08-01T12:00	5331	516	-13.7	-15.1	244	14
2023-08-01T12:00	5353	514	-13.9	-15.4	245	13
2023-08-01T12:00	5376	513	-14.1	-15.5	245	13
2023-08-01T12:00	5399	511	-14.2	-15.7	245	12
2023-08-01T12:00	5420	510	-14.3	-15.8	243	12
2023-08-01T12:00	5440	508	-14.5	-15.9	241	12
2023-08-01T12:00	5463	507	-14.6	-16.2	239	12
2023-08-01T12:00	5484	505	-14.7	-16.5	239	11
2023-08-01T12:00	5508	504	-14.9	-16.6	240	11
2023-08-01T12:00	5530	502	-15.1	-16.6	241	11
2023-08-01T12:00	5550	501	-15.4	-16.8	243	10
2023-08-01T12:00	5575	499	-15.5	-17.1	243	10
2023-08-01T12:00	5599	498	-15.7	-17.2	243	10
2023-08-01T12:00	5621	496	-15.9	-17.2	242	10
2023-08-01T12:00	5643	495	-16.1	-17.4	244	10
2023-08-01T12:00	5665	493	-16.4	-17.4	247	10
2023-08-01T12:00	5688	492	-16.6	-17.5	251	10
2023-08-01T12:00	5710	490	-16.7	-17.9	256	10
2023-08-01T12:00	5732	489	-16.9	-17.9	259	10
2023-08-01T12:00	5756	487	-17.1	-18.1	261	9
2023-08-01T12:00	5780	486	-17.3	-18.3	261	9
2023-08-01T12:00	5803	484	-17.5	-18.4	261	9
2023-08-01T12:00	5825	483	-17.7	-18.5	261	9
2023-08-01T12:00	5848	481	-17.9	-18.6	260	9
2023-08-01T12:00	5872	480	-18.1	-18.7	260	10
2023-08-01T12:00	5894	478	-18.2	-18.7	259	10
2023-08-01T12:00	5918	477	-18.3	-18.8	257	10
2023-08-01T12:00	5946	475	-18.5	-18.8	256	10
2023-08-01T12:00	5969	474	-18.7	-19.1	254	10
2023-08-01T12:00	5997	472	-18.9	-19.2	251	11
2023-08-01T12:00	6018	471	-19.0	-19.3	248	11
2023-08-01T12:00	6042	469	-19.2	-19.5	244	11
2023-08-01T12:00	6064	468	-19.4	-19.6	240	12
2023-08-01T12:00	6087	466	-19.5	-19.7	236	12
2023-08-01T12:00	6108	465	-19.7	-20.0	232	12
2023-08-01T12:00	6135	463	-19.8	-20.2	230	12
2023-08-01T12:00	6162	462	-20.0	-20.3	229	12
2023-08-01T12:00	6193	460	-20.2	-20.9	229	11
2023-08-01T12:00	6223	458	-20.3	-21.1	230	11
2023-08-01T12:00	6246	456	-20.3	-21.5	230	12
2023-08-01T12:00	6278	455	-20.3		229	13
2023-08-01T12:00	6300	453	-20.4	-21.8	227	14
2023-08-01T12:00	6321	452	-20.5	-21.7	226	16
2023-08-01T12:00	6346	450	-20.5	-21.8	225	17
2023-08-01T12:00	6372	449	-20.7	-21.9	223	18
2023-08-01T12:00	6396	447	-20.8	-21.9	222	19
2023-08-01T12:00	6422	446	-20.9	-22.0	220	19
2023-08-01T12:00	6445	444	-21.0	-22.1	217	20
2023-08-01T12:00	6479	442	-21.3	-22.3	214	19
2023-08-01T12:00	6501	441	-21.2	-22.5	212	19
2023-08-01T12:00	6523	440	-21.3	-22.6	209	19
2023-08-01T12:00	6543	438	-21.4	-22.6	208	19
2023-08-01T12:00	6566	437	-21.6	-23.0	207	19
2023-08-01T12:00	6587	436	-21.7	-23.2	208	19
2023-08-01T12:00	6609	434	-21.8	-23.2	209	19
2023-08-01T12:00	6629	433	-21.9	-23.4	210	19
2023-08-01T12:00	6650	432	-22.0	-23.4	212	20
2023-08-01T12:00	6670	431	-22.1	-23.6	214	21
2023-08-01T12:00	6705	429	-22.2	-23.7	215	22
2023-08-01T12:00	6734	427	-22.3	-24.1	217	23
2023-08-01T12:00	6756	426	-22.6	-24.0	217	24
2023-08-01T12:00	6783	424	-22.8	-24.3	217	25
2023-08-01T12:00	6804	423	-23.0	-24.6	217	26
2023-08-01T12:00	6827	422	-23.1	-24.8	217	26
2023-08-01T12:00	6848	421	-23.3	-24.9	218	26
2023-08-01T12:00	6876	419	-23.4	-25.2	218	25
2023-08-01T12:00	6895	418	-23.5	-25.3	218	25
2023-08-01T12:00	6919	417	-23.7	-25.6	217	25
2023-08-01T12:00	6946	415	-24.0	-26.0	215	25
2023-08-01T12:00	6976	413	-24.2	-26.3	215	24
2023-08-01T12:00	6998	412	-24.4	-26.5	215	24
2023-08-01T12:00	7029	410	-24.5	-26.6	216	24
2023-08-01T12:00	7058	409	-24.8	-26.9	218	23
2023-08-01T12:00	7077	408	-24.9	-27.2	220	23
2023-08-01T12:00	7101	406	-25.1	-27.5	220	23
2023-08-01T12:00	7123	405	-25.2	-27.6	220	23
2023-08-01T12:00	7145	404	-25.4	-27.8	220	23
2023-08-01T12:00	7166	403	-25.6	-28.2	219	23
2023-08-01T12:00	7189	401	-25.7	-28.4	219	23
2023-08-01T12:00	7212	400	-25.9	-28.4	220	24
2023-08-01T12:00	7233	399	-26.0	-28.8	220	24
2023-08-01T12:00	7254	398	-26.1	-29.1	219	25
2023-08-01T12:00	7280	396	-26.3	-29.1	219	25
2023-08-01T12:00	7306	395	-26.5	-29.5	217	25
2023-08-01T12:00	7331	394	-26.6	-29.7	216	25
2023-08-01T12:00	7349	393	-26.8	-29.8	215	26
2023-08-01T12:00	7371	391	-26.9	-30.1	215	25
2023-08-01T12:00	7394	390	-27.0	-30.1	215	25
2023-08-01T12:00	7416	389	-27.2	-30.2	215	25
2023-08-01T12:00	7436	388	-27.4	-30.5	214	25
2023-08-01T12:00	7458	387	-27.5	-30.5	214	25
2023-08-01T12:00	7484	385	-27.8	-30.6	214	25
2023-08-01T12:00	7506	384	-28.0	-30.7	213	25
2023-08-01T12:00	7534	383	-28.2	-31.1	213	26
2023-08-01T12:00	7553	382	-28.4	-31.3	213	26
2023-08-01T12:00	7580	380	-28.6	-31.3	213	26
2023-08-01T12:00	7604	379	-28.8	-31.6	213	26
2023-08-01T12:00	7625	378	-29.0	-31.8	213	26
2023-08-01T12:00	7649	376	-29.1	-31.9	213	27
2023-08-01T12:00	7679	375	-29.4	-32.1	214	27
2023-08-01T12:00	7699	374	-29.5	-32.5	214	27
2023-08-01T12:00	7719	373	-29.6	-32.4	215	27
2023-08-01T12:00	7742	372	-29.8	-32.5	216	27
2023-08-01T12:00	7763	371	-30.0	-32.7	216	28
2023-08-01T12:00	7784	369	-30.2	-32.9	216	28
2023-08-01T12:00	7804	368	-30.4	-32.9	216	28
2023-08-01T12:00	7830	367	-30.6	-33.1	216	28
2023-08-01T12:00	7849	366	-30.8	-33.3	216	28
2023-08-01T12:00	7873	365	-31.0	-33.4	216	27
2023-08-01T12:00	7897	364	-31.2	-33.6	215	27
2023-08-01T12:00	7921	362	-31.3	-33.8	214	27
2023-08-01T12:00	7947	361	-31.6	-34.0	214	27
2023-08-01T12:00	7971	360	-31.8	-34.2	214	27
2023-08-01T12:00	7993	359	-31.9	-34.5	214	27
2023-08-01T12:00	8013	358	-32.1	-34.4	215	27
2023-08-01T12:00	8036	357	-32.3	-34.9	215	27
2023-08-01T12:00	8057	355	-32.5	-35.2	216	28
2023-08-01T12:00	8085	354	-32.7	-35.2	216	28
2023-08-01T12:00	8105	353	-32.9	-35.4	216	29
2023-08-01T12:00	8127	352	-33.0	-35.5	216	28
2023-08-01T12:00	8147	351	-33.1	-35.6	216	28
2023-08-01T12:00	8171	350	-33.3	-35.8	216	28
2023-08-01T12:00	8198	348	-33.5	-36.2	216	28
2023-08-01T12:00	8220	347	-33.7	-36.7	216	28
2023-08-01T12:00	8242	346	-33.8	-37.0	217	28
2023-08-01T12:00	8264	345	-34.0	-37.0	217	29
2023-08-01T12:00	8284	344	-34.2	-37.3	217	29
2023-08-01T12:00	8311	343	-34.4	-37.3	217	30
2023-08-01T12:00	8332	342	-34.6	-37.4	217	30
2023-08-01T12:00	8353	341	-34.7	-37.4	216	30
2023-08-01T12:00	8377	340	-35.0	-38.0	216	31
2023-08-01T12:00	8397	339	-35.2	-38.2	216	31
2023-08-01T12:00	8419	338	-35.3	-38.3	216	30
2023-08-01T12:00	8442	336	-35.5	-38.3	216	30
2023-08-01T12:00	8466	335	-35.7	-38.3	217	30
2023-08-01T12:00	8493	334	-36.0	-38.8	218	30
2023-08-01T12:00	8519	333	-36.1	-39.2	219	30
2023-08-01T12:00	8538	332	-36.3	-39.6	220	30
2023-08-01T12:00	8561	331	-36.5	-40.1	220	30
2023-08-01T12:00	8591	329	-36.7	-40.5	220	30
2023-08-01T12:00	8613	328	-36.9	-40.4	219	30
2023-08-01T12:00	8634	327	-37.1	-40.7	219	30
2023-08-01T12:00	8655	326	-37.3	-40.9	219	30
2023-08-01T12:00	8677	325	-37.4	-40.7	219	31
2023-08-01T12:00	8696	324	-37.6	-40.8	219	31
2023-08-01T12:00	8721	323	-37.8	-40.7	219	31
2023-08-01T12:00	8745	322	-38.0	-41.3	218	32
2023-08-01T12:00	8767	321	-38.2	-41.9	218	32
2023-08-01T12:00	8786	320	-38.4	-42.2	218	32
2023-08-01T12:00	8806	319	-38.6	-42.2	218	32
2023-08-01T12:00	8829	318	-38.7	-42.8	218	32
2023-08-01T12:00	8849	317	-38.8	-42.9	219	32
2023-08-01T12:00	8867	316	-38.9	-42.7	219	32
2023-08-01T12:00	8893	315	-39.2	-42.6	219	32
2023-08-01T12:00	8921	314	-39.4	-42.7	219	32
2023-08-01T12:00	8940	313	-39.6	-42.8	219	32
2023-08-01T12:00	8962	312	-39.7	-42.6	219	32
2023-08-01T12:00	8986	311	-39.9	-42.8	218	33
2023-08-01T12:00	9008	310	-40.1	-42.7	218	33
2023-08-01T12:00	9028	309	-40.4	-42.9	218	33
2023-08-01T12:00	9051	308	-40.5	-43.4	218	33
2023-08-01T12:00	9073	307	-40.7	-43.9	219	33
2023-08-01T12:00	9096	306	-40.9	-44.1	219	33
2023-08-01T12:00	9120	305	-41.2	-44.5	220	33
2023-08-01T12:00	9143	304	-41.3	-44.8	220	33
2023-08-01T12:00	9167	303	-41.5	-44.9	220	33
2023-08-01T12:00	9186	302	-41.7	-45.1	220	32
2023-08-01T12:00	9208	301	-41.9	-45.4	220	32
2023-08-01T12:00	9228	300	-42.1	-45.7	219	32
2023-08-01T12:00	9247	299	-42.3	-45.8	219	32
2023-08-01T12:00	9266	298	-42.4	-46.1	219	33
2023-08-01T12:00	9287	297	-42.7	-46.5	219	33
2023-08-01T12:00	9309	296	-42.8	-47.1	220	33
2023-08-01T12:00	9332	295	-43.0	-47.5	220	33
2023-08-01T12:00	9356	294	-43.2	-47.5	220	33
2023-08-01T12:00	9378	294	-43.4	-47.6	220	33
2023-08-01T12:00	9398	293	-43.6	-48.1	220	34
2023-08-01T12:00	9418	292	-43.8	-48.3	220	34
2023-08-01T12:00	9438	291	-43.8	-48.3	220	34
2023-08-01T12:00	9458	290	-44.0	-48.5	221	34
2023-08-01T12:00	9478	289	-44.2	-48.8	221	34
2023-08-01T12:00	9499	288	-44.4	-48.8	220	33
2023-08-01T12:00	9521	287	-44.6	-49.1	220	33
2023-08-01T12:00	9540	286	-44.8	-49.5	220	33
2023-08-01T12:00	9563	285	-45.1	-49.9	220	33
2023-08-01T12:00	9585	285	-45.3	-50.3	220	33
2023-08-01T12:00	9603	284	-45.4	-50.3	220	33
2023-08-01T12:00	9622	283	-45.5	-50.2	220	33
2023-08-01T12:00	9643	282	-45.7	-50.3	220	33
2023-08-01T12:00	9663	281	-46.0	-50.6	220	33
2023-08-01T12:00	9682	280	-46.2	-50.6	220	33
2023-08-01T12:00	9701	280	-46.4	-50.9	220	33
2023-08-01T12:00	9723	279	-46.5	-51.3	219	33
2023-08-01T12:00	9744	278	-46.7	-51.6	219	33
2023-08-01T12:00	9762	277	-46.9	-51.5	219	33
2023-08-01T12:00	9784	276	-47.2	-51.6	219	33
2023-08-01T12:00	9806	275	-47.3	-52.0	220	33
2023-08-01T12:00	9826	274	-47.5	-52.6	220	33
2023-08-01T12:00	9848	273	-47.7	-52.7	220	33
2023-08-01T12:00	9870	273	-47.8	-52.9	221	34
2023-08-01T12:00	9893	272	-48.0	-53.5	221	34
2023-08-01T12:00	9916	271	-48.1	-53.6	220	35
2023-08-01T12:00	9943	270	-48.5	-53.7	220	35
2023-08-01T12:00	9972	268	-48.7	-53.2	219	35
2023-08-01T12:00	9992	268	-48.6	-53.0	218	35
2023-08-01T12:00	10018	266	-48.7	-53.1	217	35
2023-08-01T12:00	10043	265	-48.8	-52.8	216	35
2023-08-01T12:00	10067	265	-48.9	-52.4	215	34
2023-08-01T12:00	10088	264	-48.9	-53.0	215	33
2023-08-01T12:00	10114	263	-49.0	-53.5	214	32
2023-08-01T12:00	10138	262	-49.1	-53.7	214	32
2023-08-01T12:00	10161	261	-49.2	-54.7	213	31
2023-08-01T12:00	10183	260	-49.2	-56.7	213	31
2023-08-01T12:00	10205	259	-48.9	-61.2	212	30
2023-08-01T12:00	10229	258	-48.5	-64.1	211	30
2023-08-01T12:00	10249	257	-48.2	-63.7	210	30
2023-08-01T12:00	10271	256	-48.3	-63.8	209	30
2023-08-01T12:00	10296	255	-48.3	-63.4	208	30
2023-08-01T12:00	10321	254	-48.4	-63.4	207	30
2023-08-01T12:00	10347	253	-48.5	-63.7	205	30
2023-08-01T12:00	10374	252	-48.5	-63.8	204	30
2023-08-01T12:00	10399	251	-48.6	-63.9	203	30
2023-08-01T12:00	10422	251	-48.6	-64.1	201	30
2023-08-01T12:00	10443	250	-48.6	-64.4	200	31
2023-08-01T12:00	10468	249	-48.8	-64.4	200	31
2023-08-01T12:00	10492	248	-49.0	-64.3	199	31
2023-08-01T12:00	10515	247	-49.1	-64.4	199	31
2023-08-01T12:00	10537	246	-49.3	-64.5	198	32
2023-08-01T12:00	10556	245	-49.4	-64.5	198	32
2023-08-01T12:00	10578	245	-49.5	-64.6	198	32
2023-08-01T12:00	10599	244	-49.5	-64.5	198	32
2023-08-01T12:00	10620	243	-49.8	-64.6	199	32
2023-08-01T12:00	10649	242	-49.9	-64.7	199	32
2023-08-01T12:00	10679	241	-49.9	-64.9	200	31
2023-08-01T12:00	10707	240	-50.2	-65.6	201	31
2023-08-01T12:00	10729	239	-50.3		202	30
2023-08-01T12:00	10757	238	-50.6	-66.1	203	30
2023-08-01T12:00	10778	237	-50.7	-66.2	204	30
2023-08-01T12:00	10800	237	-50.6		204	30
2023-08-01T12:00	10822	236	-50.2	-67.6	205	31
2023-08-01T12:00	10842	235	-50.0	-67.9	205	31
2023-08-01T12:00	10866	234	-50.0	-67.9	206	31
2023-08-01T12:00	10888	233	-50.2	-68.1	207	30
2023-08-01T12:00	10911	233	-50.0	-68.6	208	30
2023-08-01T12:00	10931	232	-49.7	-68.8	209	30
2023-08-01T12:00	10952	231	-49.8	-68.8	210	30
2023-08-01T12:00	10972	230	-49.9	-68.6	210	30
2023-08-01T12:00	10994	230	-49.8	-68.3	211	30
2023-08-01T12:00	11016	229	-49.7	-68.7	212	30
2023-08-01T12:00	11036	228	-49.6	-69.3	213	29
2023-08-01T12:00	11062	227	-49.6	-68.5	214	29
2023-08-01T12:00	11084	227	-49.7	-67.5	215	29
2023-08-01T12:00	11101	226	-49.7	-67.3	215	29
2023-08-01T12:00	11122	225	-49.7	-67.9	215	29
2023-08-01T12:00	11142	224	-49.5	-68.2	215	28
2023-08-01T12:00	11161	224	-49.3	-68.6	214	28
2023-08-01T12:00	11180	223	-49.2	-69.2	214	28
2023-08-01T12:00	11200	222	-49.3	-69.5	213	27
2023-08-01T12:00	11223	222	-49.5	-69.2	213	27
2023-08-01T12:00	11248	221	-49.5	-69.0	213	26
2023-08-01T12:00	11265	220	-49.4	-69.4	213	26
2023-08-01T12:00	11286	220	-49.1	-70.4	213	26
2023-08-01T12:00	11306	219	-48.6	-70.8	212	26
2023-08-01T12:00	11325	218	-48.3	-69.8	212	26
2023-08-01T12:00	11347	218	-48.2	-68.9	212	26
2023-08-01T12:00	11367	217	-48.3	-68.5	212	26
2023-08-01T12:00	11388	216	-48.2	-68.3	213	26
2023-08-01T12:00	11408	216	-48.3	-67.4	213	26
2023-08-01T12:00	11429	215	-48.3	-66.6	214	26
2023-08-01T12:00	11449	214	-48.3	-67.6	215	26
2023-08-01T12:00	11470	214	-48.2	-70.2	215	26
2023-08-01T12:00	11492	213	-48.1	-72.4	215	26
2023-08-01T12:00	11511	212	-47.8	-73.3	215	26
2023-08-01T12:00	11531	212	-47.5	-73.9	216	26
2023-08-01T12:00	11552	211	-47.5	-74.4	216	26
2023-08-01T12:00	11573	210	-47.3	-74.3	217	26
2023-08-01T12:00	11596	210	-47.2	-74.2	217	26
2023-08-01T12:00	11617	209	-47.2	-74.5	218	26
2023-08-01T12:00	11638	208	-47.1	-74.4	218	26
2023-08-01T12:00	11658	208	-47.1	-74.4	218	26
2023-08-01T12:00	11678	207	-46.9	-74.5	218	26
2023-08-01T12:00	11700	206	-46.9	-74.8	219	26
2023-08-01T12:00	11722	206	-46.8	-75.3	219	26
2023-08-01T12:00	11741	205	-46.8	-75.6	220	25
2023-08-01T12:00	11763	204	-46.6	-75.5	221	25
2023-08-01T12:00	11781	204	-46.4	-75.3	222	25
2023-08-01T12:00	11802	203	-46.4	-75.3	223	25
2023-08-01T12:00	11824	202	-46.4	-75.7	224	24
2023-08-01T12:00	11847	202	-46.1	-75.8	226	24
2023-08-01T12:00	11869	201	-45.9	-76.1	227	24
2023-08-01T12:00	11891	200	-45.8	-76.0	228	24
2023-08-01T12:00	11910	200	-45.9	-76.1	229	23
2023-08-01T12:00	11939	199	-46.0	-75.7	230	23
2023-08-01T12:00	11962	198	-46.1	-75.8	230	23
2023-08-01T12:00	11983	198	-46.1	-75.5	231	22
2023-08-01T12:00	12005	197	-45.9	-75.3	231	22
2023-08-01T12:00	12027	196	-46.0	-75.4	231	22
2023-08-01T12:00	12049	196	-46.1	-75.5	231	22
2023-08-01T12:00	12070	195	-46.1	-75.5	231	22
2023-08-01T12:00	12091	194	-46.1	-75.5	231	21
2023-08-01T12:00	12111	194	-45.9	-75.7	231	21
2023-08-01T12:00	12132	193	-45.8	-75.6	231	21
2023-08-01T12:00	12155	193	-45.9	-75.7	231	22
2023-08-01T12:00	12176	192	-45.9	-75.7	231	22
2023-08-01T12:00	12200	191	-45.9	-75.7	231	22
2023-08-01T12:00	12223	191	-45.9	-75.7	231	22
2023-08-01T12:00	12248	190	-45.9	-76.1	231	22
2023-08-01T12:00	12271	189	-46.0	-76.1	231	22
2023-08-01T12:00	12289	189	-46.1	-75.8	231	22
2023-08-01T12:00	12310	188	-46.2	-75.9	231	22
2023-08-01T12:00	12334	187	-46.2	-75.5	231	21
2023-08-01T12:00	12359	187	-46.0	-75.7	230	21
2023-08-01T12:00	12384	186	-46.1	-76.2	230	20
2023-08-01T12:00	12405	186	-46.2	-76.3	229	20
2023-08-01T12:00	12427	185	-46.3	-76.4	228	19
2023-08-01T12:00	12448	184	-46.4	-76.4	228	20
2023-08-01T12:00	12472	184	-46.6	-76.6	227	20
2023-08-01T12:00	12497	183	-46.6	-76.6	227	20
2023-08-01T12:00	12518	182	-46.5	-76.5	226	20
2023-08-01T12:00	12541	182	-46.7	-76.7	226	21
2023-08-01T12:00	12566	181	-46.6	-76.6	224	21
2023-08-01T12:00	12589	180	-46.5		223	21
2023-08-01T12:00	12615	180	-46.3	-76.8	221	21
2023-08-01T12:00	12637	179	-46.4	-77.3	220	21
2023-08-01T12:00	12659	179	-46.2	-77.1	220	21
2023-08-01T12:00	12681	178	-46.0	-76.5	221	21
2023-08-01T12:00	12704	177	-45.9	-76.5	221	21
2023-08-01T12:00	12726	177	-45.6	-76.7	222	21
2023-08-01T12:00	12745	176	-45.6	-76.7	223	21
2023-08-01T12:00	12768	176	-45.3	-76.9	224	21
2023-08-01T12:00	12790	175	-45.2	-76.8	225	21
2023-08-01T12:00	12811	174	-45.3	-76.9	226	21
2023-08-01T12:00	12835	174	-45.3	-76.4	227	21
2023-08-01T12:00	12860	173	-45.6	-76.7	229	20
2023-08-01T12:00	12881	173	-45.8	-77.3	230	20
2023-08-01T12:00	12901	172	-45.8	-77.3	232	20
2023-08-01T12:00	12926	172	-45.8	-77.3	233	20
2023-08-01T12:00	12945	171	-45.6	-77.1	235	20
2023-08-01T12:00	12968	170	-45.5	-77.1	236	19
2023-08-01T12:00	12992	170	-45.5	-77.1	238	19
2023-08-01T12:00	13016	169	-45.3	-77.4	240	19
2023-08-01T12:00	13038	169	-45.2	-77.3	242	18
2023-08-01T12:00	13058	168	-45.0	-77.2	243	18
2023-08-01T12:00	13085	168	-45.0	-77.2	244	17
2023-08-01T12:00	13106	167	-45.2	-77.3	244	17
2023-08-01T12:00	13132	166	-45.3	-77.4	245	16
2023-08-01T12:00	13154	166	-45.2	-77.3	245	16
2023-08-01T12:00	13176	165	-45.2	-77.3	246	15
2023-08-01T12:00	13204	165	-45.4	-77.5	246	15
2023-08-01T12:00	13225	164	-45.4	-77.5	246	14
2023-08-01T12:00	13246	163	-45.4	-77.5	246	14
2023-08-01T12:00	13264	163	-45.5	-77.1	246	13
2023-08-01T12:00	13287	162	-45.6	-77.1	246	13
2023-08-01T12:00	13309	162	-45.8	-77.3	246	13
2023-08-01T12:00	13334	161	-45.9	-77.4	245	13
2023-08-01T12:00	13357	161	-45.7	-77.2	245	12
2023-08-01T12:00	13375	160	-45.5	-77.6	245	12
2023-08-01T12:00	13398	160	-45.6	-77.6	245	12
2023-08-01T12:00	13418	159	-45.7	-77.7	246	12
2023-08-01T12:00	13437	159	-45.6	-77.6	246	11
2023-08-01T12:00	13460	158	-45.6	-77.6	246	12
2023-08-01T12:00	13483	158	-45.7	-77.7	246	12
2023-08-01T12:00	13502	157	-45.8	-77.8	247	12
2023-08-01T12:00	13526	157	-45.9	-77.9	248	12
2023-08-01T12:00	13550	156	-46.1	-78.0	249	12
2023-08-01T12:00	13571	156	-46.4	-78.2	250	12
2023-08-01T12:00	13595	155	-46.4	-78.2	251	12
2023-08-01T12:00	13619	155	-46.4	-78.2	251	11
2023-08-01T12:00	13641	154	-46.2	-78.1	250	11
2023-08-01T12:00	13663	154	-46.1	-78.0	249	11
2023-08-01T12:00	13686	153	-46.1	-78.0	247	11
2023-08-01T12:00	13711	152	-46.2	-78.1	246	11
2023-08-01T12:00	13730	152	-46.3	-78.2	244	11
2023-08-01T12:00	13753	151	-46.4	-77.7	242	11
2023-08-01T12:00	13774	151	-46.5	-77.8	239	12
2023-08-01T12:00	13797	150	-46.6	-77.9	237	12
2023-08-01T12:00	13820	150	-46.7	-78.0	234	13
2023-08-01T12:00	13846	149	-46.9	-78.1	232	13
2023-08-01T12:00	13866	149	-47.0	-78.2	231	14
2023-08-01T12:00	13887	148	-46.9	-78.6	230	15
2023-08-01T12:00	13908	148	-47.1	-78.7	231	15
2023-08-01T12:00	13930	147	-47.0	-78.7	232	16
2023-08-01T12:00	13954	147	-46.9	-78.6	234	16
2023-08-01T12:00	13975	147	-46.7	-78.4	236	16
2023-08-01T12:00	13998	146	-46.7	-78.4	239	16
2023-08-01T12:00	14018	146	-46.7	-78.4	241	15
2023-08-01T12:00	14039	145	-46.4	-78.2	243	15
2023-08-01T12:00	14063	145	-46.4	-78.2	245	14
2023-08-01T12:00	14083	144	-46.5	-78.3	247	14
2023-08-01T12:00	14106	144	-46.7	-78.4	247	13
2023-08-01T12:00	14129	143	-46.8	-78.5	247	13
2023-08-01T12:00	14154	143	-46.9	-78.6	246	12
2023-08-01T12:00	14175	142	-46.9	-78.6	244	12
2023-08-01T12:00	14196	142	-47.0	-78.7	242	12
2023-08-01T12:00	14218	141	-47.2	-78.8	241	12
2023-08-01T12:00	14238	141	-47.3	-78.9	239	12
2023-08-01T12:00	14259	140	-47.4	-79.0	238	12
2023-08-01T12:00	14282	140	-47.6	-79.1	237	13
2023-08-01T12:00	14303	139	-47.7	-78.7	237	13
2023-08-01T12:00	14324	139	-47.7		237	14
2023-08-01T12:00	14346	139	-47.8	-79.3	237	15
2023-08-01T12:00	14369	138	-47.7		238	15
2023-08-01T12:00	14390	138	-47.4	-79.0	239	15
2023-08-01T12:00	14411	137	-47.2	-78.8	240	15
2023-08-01T12:00	14433	137	-47.2	-78.8	242	15
2023-08-01T12:00	14453	136	-47.0	-79.2	243	14
2023-08-01T12:00	14477	136	-46.8	-79.1	243	13
2023-08-01T12:00	14501	135	-46.8	-79.1	243	13
2023-08-01T12:00	14521	135	-46.8	-79.1	243	13
2023-08-01T12:00	14545	134	-46.9	-78.6	242	12
2023-08-01T12:00	14569	134	-46.9	-78.6	242	12
2023-08-01T12:00	14590	134	-47.0	-78.7	242	13
2023-08-01T12:00	14613	133	-47.1	-79.3	242	13
2023-08-01T12:00	14637	133	-47.1	-79.3	242	13
2023-08-01T12:00	14658	132	-47.1	-78.7	241	13
2023-08-01T12:00	14681	132	-47.2	-78.8	241	13
2023-08-01T12:00	14704	131	-47.3	-78.9	240	13
2023-08-01T12:00	14727	131	-47.3	-78.9	240	13
2023-08-01T12:00	14752	130	-47.4	-79.0	239	13
2023-08-01T12:00	14773	130	-47.6	-79.1	239	13
2023-08-01T12:00	14798	129	-47.7		238	13
2023-08-01T12:00	14821	129	-47.9	-79.3	239	13
2023-08-01T12:00	14842	129	-48.1	-79.5	239	14
2023-08-01T12:00	14862	128	-48.4	-79.2	240	14
2023-08-01T12:00	14885	128	-48.5	-79.3	241	14
2023-08-01T12:00	14908	127	-48.6	-79.4	242	15
2023-08-01T12:00	14931	127	-48.7	-79.4	243	15
2023-08-01T12:00	14956	126	-48.8	-79.5	244	15
2023-08-01T12:00	14979	126	-48.9	-79.6	245	15
2023-08-01T12:00	15000	125	-48.8	-79.5	246	15
2023-08-01T12:00	15025	125	-48.8	-79.5	248	15
2023-08-01T12:00	15048	125	-48.6	-79.9	249	15
2023-08-01T12:00	15075	124	-48.4	-79.7	251	15
2023-08-01T12:00	15103	124	-48.5	-79.8	253	14
2023-08-01T12:00	15123	123	-48.6	-79.9	255	14
2023-08-01T12:00	15149	123	-48.8	-80.0	255	14
2023-08-01T12:00	15170	122	-48.9	-80.1	255	13
2023-08-01T12:00	15196	122	-49.0	-80.2	254	13
2023-08-01T12:00	15224	121	-49.0	-79.7	253	13
2023-08-01T12:00	15245	121	-49.2	-79.8	252	12
2023-08-01T12:00	15268	120	-49.2	-79.8	252	12
2023-08-01T12:00	15287	120	-49.3	-79.9	251	11
2023-08-01T12:00	15316	120	-49.3	-79.9	250	11
2023-08-01T12:00	15343	119	-49.2	-79.8	249	10
2023-08-01T12:00	15362	119	-49.3	-79.9	247	10
2023-08-01T12:00	15386	118	-49.5	-80.0	246	10
2023-08-01T12:00	15413	118	-49.6	-80.1	244	10
2023-08-01T12:00	15435	117	-49.9	-79.9	241	10
2023-08-01T12:00	15458	117	-50.1	-80.0	239	10
2023-08-01T12:00	15481	117	-50.2	-80.1	238	11
2023-08-01T12:00	15507	116	-50.4	-80.3	237	11
2023-08-01T12:00	15528	116	-50.5	-80.3	237	12
2023-08-01T12:00	15553	115	-50.5	-80.3	239	12
2023-08-01T12:00	15577	115	-50.1	-80.5	240	12
2023-08-01T12:00	15600	114	-49.7	-80.2	243	11
2023-08-01T12:00	15624	114	-49.4	-80.0	246	11
2023-08-01T12:00	15647	114	-49.2	-80.3	249	10
2023-08-01T12:00	15670	113	-49.1	-80.2	250	10
2023-08-01T12:00	15695	113	-48.9	-80.1	251	9
2023-08-01T12:00	15726	112	-48.7	-79.9	250	8
2023-08-01T12:00	15748	112	-48.4	-80.2	248	8
2023-08-01T12:00	15770	112	-48.4	-80.2	246	8
2023-08-01T12:00	15792	111	-48.5	-79.8	246	8
2023-08-01T12:00	15819	111	-48.7	-79.9	247	8
2023-08-01T12:00	15838	110	-48.7	-79.9	250	8
2023-08-01T12:00	15862	110	-48.7	-79.9	253	8
2023-08-01T12:00	15884	110	-48.8	-80.0	256	8
2023-08-01T12:00	15910	109	-48.8	-80.0	257	8
2023-08-01T12:00	15936	109	-48.9	-80.1	258	8
2023-08-01T12:00	15958	108	-49.1	-80.2	256	9
2023-08-01T12:00	15982	108	-49.1	-80.2	254	9
2023-08-01T12:00	16008	108	-49.2	-80.3	252	9
2023-08-01T12:00	16031	107	-49.2	-80.3	251	9
2023-08-01T12:00	16053	107	-49.3	-80.4	250	10
2023-08-01T12:00	16073	106	-49.3	-80.4	249	10
2023-08-01T12:00	16101	106	-49.3	-80.4	249	10
2023-08-01T12:00	16126	106	-49.3	-80.4	248	11
2023-08-01T12:00	16148	105	-49.1	-80.8	248	11
2023-08-01T12:00	16170	105	-49.1	-80.8	248	11
2023-08-01T12:00	16196	105	-49.2	-80.8	248	12
2023-08-01T12:00	16217	104	-49.2	-80.8	249	12
2023-08-01T12:00	16239	104	-49.0	-80.7	250	12
2023-08-01T12:00	16264	103	-48.9	-80.6	252	11
2023-08-01T12:00	16286	103	-48.9	-80.6	253	11
2023-08-01T12:00	16309	103	-48.9	-80.6	254	10
2023-08-01T12:00	16332	102	-48.9	-80.6	255	10
2023-08-01T12:00	16355	102	-49.0	-80.7	255	9
2023-08-01T12:00	16377	102	-49.1	-80.8	255	9
2023-08-01T12:00	16399	101	-49.2	-80.8	255	9
2023-08-01T12:00	16424	101	-49.2	-80.8	256	8
2023-08-01T12:00	16450	101	-49.0	-80.7	259	8
2023-08-01T12:00	16475	100	-48.8	-80.5	261	7
2023-08-01T12:00	16497	100	-48.8	-80.5	263	7
2023-08-01T12:00	16516	100	-48.8	-80.5	262	6
2023-08-01T12:00	16541	99	-48.9	-80.6	259	6
2023-08-01T12:00	16562	99	-48.9	-80.6	253	6
2023-08-01T12:00	16590	98	-48.9	-80.6	246	6
2023-08-01T12:00	16607	98	-49.0	-80.7	240	6
2023-08-01T12:00	16628	98	-49.1	-80.8	237	6
2023-08-01T12:00	16650	98	-49.2	-80.8	237	6
2023-08-01T12:00	16670	97	-49.3	-80.9	239	6
2023-08-01T12:00	16692	97	-49.3	-80.9	241	5
2023-08-01T12:00	16713	97	-49.2	-80.8	244	5
2023-08-01T12:00	16736	96	-49.2	-80.8	245	5
2023-08-01T12:00	16762	96	-49.1	-80.8	244	4
2023-08-01T12:00	16779	96	-48.9	-80.6	238	4
2023-08-01T12:00	16807	95	-48.8	-80.5	230	4
2023-08-01T12:00	16832	95	-48.9	-80.6	222	4
2023-08-01T12:00	16858	95	-48.9	-80.6	216	4
2023-08-01T12:00	16879	94	-48.9	-80.6	212	4
2023-08-01T12:00	16902	94	-49.0	-80.7	211	5
2023-08-01T12:00	16924	94	-49.2	-80.8	211	5
2023-08-01T12:00	16947	93	-49.2	-80.3	211	5
2023-08-01T12:00	16969	93	-49.3	-80.4	210	5
2023-08-01T12:00	16994	93	-49.4	-80.5	209	6
2023-08-01T12:00	17017	92	-49.5	-80.5	207	6
2023-08-01T12:00	17045	92	-49.6	-80.6	206	7
2023-08-01T12:00	17069	92	-49.8	-80.8	205	7
2023-08-01T12:00	17093	91	-50.2	-81.0	205	7
2023-08-01T12:00	17118	91	-50.3	-81.1	207	8
2023-08-01T12:00	17136	91	-50.3	-81.1	210	7
2023-08-01T12:00	17167	90	-50.1	-81.0	215	7
2023-08-01T12:00	17189	90	-49.9	-80.8	220	7
2023-08-01T12:00	17215	90	-49.8	-80.8	226	7
2023-08-01T12:00	17238	89	-49.6	-80.6	231	7
2023-08-01T12:00	17260	89	-49.5	-80.5	235	6
2023-08-01T12:00	17285	89	-49.4	-81.0	239	6
2023-08-01T12:00	17308	88	-49.4	-81.0	242	6
2023-08-01T12:00	17332	88	-49.4	-81.0	244	6
2023-08-01T12:00	17356	88	-49.4	-81.0	247	6
2023-08-01T12:00	17381	87	-49.5	-81.1	248	6
2023-08-01T12:00	17404	87	-49.5	-81.1	249	6
2023-08-01T12:00	17428	87	-49.6	-81.1	247	6
2023-08-01T12:00	17451	86	-49.7	-81.2	245	6
2023-08-01T12:00	17476	86	-49.8	-81.3	242	7
2023-08-01T12:00	17499	86	-49.8	-81.3	239	7
2023-08-01T12:00	17520	85	-50.0	-81.4	236	6
2023-08-01T12:00	17546	85	-49.8	-81.3	233	6
2023-08-01T12:00	17569	85	-49.4	-81.0	231	6
2023-08-01T12:00	17592	84	-49.4	-81.0	229	6
2023-08-01T12:00	17617	84	-49.3	-80.9	227	6
2023-08-01T12:00	17639	84	-49.3	-80.9	225	6
2023-08-01T12:00	17663	84	-49.2	-80.8	223	6
2023-08-01T12:00	17687	83	-49.1	-80.8	222	6
2023-08-01T12:00	17709	83	-49.2	-80.8	222	6
2023-08-01T12:00	17733	83	-49.3	-80.9	223	6
2023-08-01T12:00	17758	82	-49.5	-81.1	226	6
2023-08-01T12:00	17781	82	-49.6	-81.1	230	6
2023-08-01T12:00	17802	82	-49.5	-81.1	234	7
2023-08-01T12:00	17826	82	-49.5	-81.1	238	7
2023-08-01T12:00	17855	81	-49.5	-81.1	242	7
2023-08-01T12:00	17873	81	-49.5	-81.1	244	7
2023-08-01T12:00	17899	81	-49.4	-81.0	244	7
2023-08-01T12:00	17922	80	-49.5	-81.1	242	7
2023-08-01T12:00	17944	80	-49.7	-81.2	239	7
2023-08-01T12:00	17972	80	-49.8	-81.3	236	7
2023-08-01T12:00	17993	79	-49.7	-81.2	233	7
2023-08-01T12:00	18023	79	-49.6	-81.1	231	7
2023-08-01T12:00	18041	79	-49.7	-81.2	230	7
2023-08-01T12:00	18063	79	-49.7	-81.2	231	7
2023-08-01T12:00	18092	78	-49.7	-81.2	234	7
2023-08-01T12:00	18116	78	-49.7	-81.2	238	7
2023-08-01T12:00	18137	78	-49.8	-81.3	242	7
2023-08-01T12:00	18163	77	-49.9	-81.3	247	7
2023-08-01T12:00	18186	77	-50.1	-81.5	251	7
2023-08-01T12:00	18211	77	-50.1	-81.5	256	7
2023-08-01T12:00	18230	77	-50.2		259	7
2023-08-01T12:00	18261	76	-50.2		262	7
2023-08-01T12:00	18283	76	-50.3	-81.6	263	6
2023-08-01T12:00	18305	76	-50.3	-81.6	263	6
2023-08-01T12:00	18332	75	-50.0	-81.4	260	6
2023-08-01T12:00	18355	75	-49.9	-81.3	255	5
2023-08-01T12:00	18380	75	-49.8	-81.3	249	5
2023-08-01T12:00	18404	75	-49.7	-81.2	243	5
2023-08-01T12:00	18429	74	-49.8	-81.3	239	5
2023-08-01T12:00	18453	74	-49.9	-81.3	238	6
2023-08-01T12:00	18480	74	-49.9	-81.3	239	6
2023-08-01T12:00	18501	74	-50.0	-81.4	241	6
2023-08-01T12:00	18527	73	-49.8	-81.3	245	6
2023-08-01T12:00	18553	73	-49.7	-81.2	249	5
2023-08-01T12:00	18577	73	-49.6	-81.1	255	5
2023-08-01T12:00	18602	72	-49.5	-81.1	261	5
2023-08-01T12:00	18627	72	-49.6	-81.1	269	4
2023-08-01T12:00	18654	72	-49.6	-81.1	280	4
2023-08-01T12:00	18679	72	-49.8	-81.3	294	3
2023-08-01T12:00	18710	71	-49.8	-81.3	308	3
2023-08-01T12:00	18739	71	-49.6	-81.1	322	2
2023-08-01T12:00	18767	71	-49.5	-81.1	336	1
2023-08-01T12:00	18793	70	-49.6	-81.1	4	1
2023-08-01T12:00	18821	70	-49.7	-81.2	95	1
2023-08-01T12:00	18847	70	-49.9	-80.8	126	1
2023-08-01T12:00	18876	69	-50.0	-80.9	136	1
2023-08-01T12:00	18902	69	-50.2	-81.0	143	2
2023-08-01T12:00	18929	69	-50.4	-81.2	150	2
2023-08-01T12:00	18948	69	-50.6	-81.3	157	3
2023-08-01T12:00	18977	68	-50.7	-81.4	163	3
2023-08-01T12:00	19001	68	-50.9	-81.6	171	3
2023-08-01T12:00	19025	68	-51.1	-81.7	179	4
2023-08-01T12:00	19045	68	-51.3	-81.9	189	4
2023-08-01T12:00	19073	67	-51.5	-82.0	199	4
2023-08-01T12:00	19102	67	-51.5	-82.0	208	4
2023-08-01T12:00	19127	67	-51.5	-82.0	217	4
2023-08-01T12:00	19149	67	-51.4	-81.9	225	4
2023-08-01T12:00	19178	66	-51.4	-82.5	234	4
2023-08-01T12:00	19204	66	-51.4	-82.5	242	4
2023-08-01T12:00	19228	66	-51.3	-82.4	249	4
2023-08-01T12:00	19251	66	-51.2	-82.3	253	4
2023-08-01T12:00	19276	65	-50.9	-82.1	255	4
2023-08-01T12:00	19298	65	-50.6	-81.9	255	4
2023-08-01T12:00	19322	65	-50.3	-82.2	254	4
2023-08-01T12:00	19350	65	-50.2	-82.1	250	4
2023-08-01T12:00	19374	64	-50.0	-82.0	243	3
2023-08-01T12:00	19401	64	-49.8	-81.8	231	3
2023-08-01T12:00	19424	64	-49.7	-81.8	212	2
2023-08-01T12:00	19448	64	-49.3	-81.5	190	2
2023-08-01T12:00	19475	63	-49.0	-81.3	172	2
2023-08-01T12:00	19498	63	-48.8		162	3
2023-08-01T12:00	19521	63	-48.9	-81.2	155	3
2023-08-01T12:00	19541	63	-49.0	-81.3	151	3
2023-08-01T12:00	19566	62	-49.1	-81.3	147	4
2023-08-01T12:00	19596	62	-49.2	-80.8	145	4
2023-08-01T12:00	19621	62	-49.2	-80.8	145	4
2023-08-01T12:00	19646	62	-49.3	-80.9	146	4
2023-08-01T12:00	19666	62	-49.5	-81.1	149	5
2023-08-01T12:00	19696	61	-49.7	-81.2	153	4
2023-08-01T12:00	19721	61	-49.8	-81.3	160	4
2023-08-01T12:00	19747	61	-50.0	-81.4	168	4
2023-08-01T12:00	19776	61	-50.1	-81.5	178	4
2023-08-01T12:00	19803	60	-50.1	-81.5	188	4
2023-08-01T12:00	19829	60	-49.9	-81.9	198	3
2023-08-01T12:00	19859	60	-49.5	-81.6	209	3
2023-08-01T12:00	19880	60	-49.3	-81.5	220	3
2023-08-01T12:00	19903	59	-49.3	-80.9	230	3
2023-08-01T12:00	19933	59	-49.3	-80.9	240	3
2023-08-01T12:00	19955	59	-49.3	-80.9	249	3
2023-08-01T12:00	19980	59	-49.4	-81.0	256	3
2023-08-01T12:00	20008	58	-49.4	-81.0	262	3
2023-08-01T12:00	20030	58	-49.3	-80.9	269	3
2023-08-01T12:00	20057	58	-49.4	-81.0	277	3
2023-08-01T12:00	20080	58	-49.5	-81.1	288	2
2023-08-01T12:00	20113	58	-49.4	-81.0	303	2
2023-08-01T12:00	20136	57	-49.3	-81.5	319	2
2023-08-01T12:00	20160	57	-49.5	-81.6	338	2
2023-08-01T12:00	20184	57	-49.6	-81.7	1	2
2023-08-01T12:00	20213	57	-49.6	-81.7	29	2
2023-08-01T12:00	20236	56	-49.7	-81.8	57	2
2023-08-01T12:00	20260	56	-49.7	-81.8	80	2
2023-08-01T12:00	20288	56	-49.7	-81.8	98	3
2023-08-01T12:00	20310	56	-49.7	-81.8	112	3
2023-08-01T12:00	20339	56	-49.7	-81.8	125	4
2023-08-01T12:00	20365	55	-49.7	-81.8	137	4
2023-08-01T12:00	20392	55	-50.0	-81.4	146	5
2023-08-01T12:00	20419	55	-50.0	-81.4	154	5
2023-08-01T12:00	20444	55	-50.1	-81.5	161	5
2023-08-01T12:00	20469	54	-50.2		167	5
2023-08-01T12:00	20496	54	-50.4	-81.7	172	5
2023-08-01T12:00	20517	54	-50.5	-81.8	177	5
2023-08-01T12:00	20545	54	-50.6	-81.9	181	5
2023-08-01T12:00	20571	54	-50.8	-82.0	183	4
2023-08-01T12:00	20594	53	-50.8	-82.0	184	4
2023-08-01T12:00	20620	53	-50.8	-82.0	181	3
2023-08-01T12:00	20645	53	-50.8	-82.0	175	3
2023-08-01T12:00	20668	53	-50.9	-82.1	168	3
2023-08-01T12:00	20694	53	-51.0	-82.2	163	3
2023-08-01T12:00	20720	52	-50.9	-82.1	159	4
2023-08-01T12:00	20744	52	-50.8	-82.0	159	4
2023-08-01T12:00	20768	52	-50.9	-82.1	161	5
2023-08-01T12:00	20793	52	-50.9	-82.1	165	5
2023-08-01T12:00	20819	52	-50.9	-82.1	170	5
2023-08-01T12:00	20846	51	-51.0	-82.2	176	5
2023-08-01T12:00	20865	51	-51.1	-82.2	182	5
2023-08-01T12:00	20892	51	-51.2	-82.3	188	5
2023-08-01T12:00	20916	51	-51.1	-82.2	192	4
2023-08-01T12:00	20942	51	-50.8	-82.0	195	4
2023-08-01T12:00	20966	50	-50.3	-82.2	194	3
2023-08-01T12:00	20989	50	-50.1	-82.1	190	3
2023-08-01T12:00	21016	50	-50.0	-82.0	182	2
2023-08-01T12:00	21040	50	-50.1	-82.1	172	2
2023-08-01T12:00	21065	50	-50.0	-81.4	161	2
2023-08-01T12:00	21091	49	-50.0	-81.4	152	2
2023-08-01T12:00	21113	49	-50.0	-81.4	146	3
2023-08-01T12:00	21141	49	-50.1	-81.5	142	3
2023-08-01T12:00	21168	49	-50.3	-81.6	141	4
2023-08-01T12:00	21196	49	-50.3	-81.6	143	5
2023-08-01T12:00	21221	48	-50.3	-81.6	146	5
2023-08-01T12:00	21250	48	-50.4	-81.7	151	6
2023-08-01T12:00	21276	48	-50.4	-81.7	155	7
2023-08-01T12:00	21308	48	-50.5	-81.8	160	7
2023-08-01T12:00	21330	48	-50.7		164	7
2023-08-01T12:00	21360	47	-50.8	-82.0	168	8
2023-08-01T12:00	21383	47	-50.8	-82.0	172	8
2023-08-01T12:00	21411	47	-50.7		175	8
2023-08-01T12:00	21436	47	-50.8	-82.0	179	8
2023-08-01T12:00	21465	47	-50.9	-82.1	183	7
2023-08-01T12:00	21489	47	-51.1	-82.2	186	7
2023-08-01T12:00	21516	46	-51.3	-82.4	191	7
2023-08-01T12:00	21540	46	-51.2	-82.3	195	6
2023-08-01T12:00	21569	46	-51.2	-82.3	199	6
2023-08-01T12:00	21598	46	-51.3	-82.4	204	5
2023-08-01T12:00	21627	46	-51.4	-82.5	209	4
2023-08-01T12:00	21643	45	-51.4	-82.5	215	4
2023-08-01T12:00	21678	45	-51.2	-82.3	220	3
2023-08-01T12:00	21704	45	-51.1	-82.8	226	2
2023-08-01T12:00	21729	45	-51.0	-82.7	233	1
2023-08-01T12:00	21762	45	-50.9	-82.7	37	0
2023-08-01T12:00	21780	45	-50.8	-82.6	56	1
2023-08-01T12:00	21806	44	-50.7	-82.5	61	2
2023-08-01T12:00	21837	44	-50.6	-82.4	67	3
2023-08-01T12:00	21862	44	-50.4	-82.3	72	4
2023-08-01T12:00	21886	44	-50.0	-82.0	77	4
2023-08-01T12:00	21912	44	-49.6	-82.3	82	4
2023-08-01T12:00	21940	43	-49.6	-81.7	85	4
2023-08-01T12:00	21965	43	-49.7	-81.8	85	4
2023-08-01T12:00	21991	43	-49.8	-81.8	83	4
2023-08-01T12:00	22018	43	-49.7	-81.8	79	3
2023-08-01T12:00	22045	43	-49.6	-81.7	76	3
2023-08-01T12:00	22078	43	-49.7	-81.8	76	4
2023-08-01T12:00	22097	42	-49.5	-81.6	79	4
2023-08-01T12:00	22128	42	-49.3	-81.5	85	4
2023-08-01T12:00	22152	42	-49.1	-81.3	91	5
2023-08-01T12:00	22175	42	-48.9	-81.2	96	5
2023-08-01T12:00	22203	42	-49.0	-81.3	102	6
2023-08-01T12:00	22233	42	-49.2	-81.4	107	6
2023-08-01T12:00	22260	41	-49.3	-81.5	112	7
2023-08-01T12:00	22277	41	-49.4	-81.6	117	7
2023-08-01T12:00	22310	41	-49.4	-81.6	120	7
2023-08-01T12:00	22333	41	-49.5	-81.6	123	7
2023-08-01T12:00	22360	41	-49.6	-81.7	126	7
2023-08-01T12:00	22387	41	-49.5	-81.6	129	6
2023-08-01T12:00	22406	40	-49.5	-81.6	132	6
2023-08-01T12:00	22437	40	-49.6	-81.7	136	5
2023-08-01T12:00	22466	40	-49.6	-81.7	140	5
2023-08-01T12:00	22489	40	-49.5	-81.6	143	4
2023-08-01T12:00	22516	40	-49.4	-81.6	144	4
2023-08-01T12:00	22545	40	-49.5	-81.6	140	4
2023-08-01T12:00	22567	39	-49.7	-81.8	131	4
2023-08-01T12:00	22586	39	-49.8	-81.8	120	4
2023-08-01T12:00	22617	39	-49.8	-81.8	111	4
2023-08-01T12:00	22645	39	-49.5	-81.6	106	5
2023-08-01T12:00	22669	39	-49.3	-81.5	104	5
2023-08-01T12:00	22691	39	-49.2	-81.4	105	6
2023-08-01T12:00	22722	39	-49.1	-82.0	108	6
2023-08-01T12:00	22767	38	-49.0	-81.9	112	7
2023-08-01T12:00	22776	38	-49.0	-81.9	116	7
2023-08-01T12:00	22798	38	-48.9	-81.8	121	6
2023-08-01T12:00	22827	38	-49.0	-81.9	126	6
2023-08-01T12:00	22851	38	-49.0	-81.9	131	6
2023-08-01T12:00	22879	38	-49.0	-81.3	137	6
2023-08-01T12:00	22906	37	-49.1	-81.3	142	6
2023-08-01T12:00	22932	37	-49.3	-81.5	147	6
2023-08-01T12:00	22958	37	-49.2	-81.4	150	5
2023-08-01T12:00	22984	37	-49.3	-81.5	150	5
2023-08-01T12:00	23011	37	-49.3	-81.5	145	4
2023-08-01T12:00	23040	37	-49.2	-81.4	134	4
2023-08-01T12:00	23069	37	-49.0	-81.9	117	3
2023-08-01T12:00	23090	36	-48.9	-81.8	101	4
2023-08-01T12:00	23114	36	-48.8	-81.7	91	4
2023-08-01T12:00	23152	36	-48.7	-81.7	88	4
2023-08-01T12:00	23170	36	-48.7	-81.7	89	5
2023-08-01T12:00	23189	36	-48.8	-81.7	94	5
2023-08-01T12:00	23217	36	-48.8	-81.7	100	5
2023-08-01T12:00	23243	36	-48.8		105	5
2023-08-01T12:00	23270	35	-48.8		109	5
2023-08-01T12:00	23297	35	-48.9	-81.2	110	5
2023-08-01T12:00	23320	35	-48.9	-81.8	110	4
2023-08-01T12:00	23346	35	-48.8	-81.7	108	4
2023-08-01T12:00	23382	35	-48.7	-81.7	105	4
2023-08-01T12:00	23398	35	-48.6	-81.6	99	4
2023-08-01T12:00	23424	35	-48.7	-81.7	92	4
2023-08-01T12:00	23447	35	-48.7	-81.7	83	5
2023-08-01T12:00	23470	34	-48.5	-81.5	76	5
2023-08-01T12:00	23501	34	-48.4	-81.4	71	6
2023-08-01T12:00	23526	34	-48.3	-81.4	68	7
2023-08-01T12:00	23556	34	-48.3	-81.4	67	8
2023-08-01T12:00	23581	34	-48.5	-81.5	68	8
2023-08-01T12:00	23605	34	-48.6	-81.6	69	9
2023-08-01T12:00	23630	34	-48.7	-81.7	72	9
2023-08-01T12:00	23651	33	-48.6	-81.6	76	10
2023-08-01T12:00	23681	33	-48.5	-81.5	81	10
2023-08-01T12:00	23710	33	-48.5	-81.5	86	10
2023-08-01T12:00	23742	33	-48.7	-81.7	91	9
2023-08-01T12:00	23776	33	-48.7	-81.7	96	9
2023-08-01T12:00	23795	33	-48.7	-81.0	100	9
2023-08-01T12:00	23816	33	-48.9	-81.2	104	8
2023-08-01T12:00	23845	32	-48.9	-81.2	106	8
2023-08-01T12:00	23874	32	-48.9	-81.2	108	7
2023-08-01T12:00	23899	32	-48.9	-81.8	108	7
2023-08-01T12:00	23925	32	-48.9	-81.8	105	6
2023-08-01T12:00	23949	32	-48.9	-81.8	100	6
2023-08-01T12:00	23982	32	-48.9	-81.8	93	6
2023-08-01T12:00	24008	32	-48.9	-81.8	87	6
2023-08-01T12:00	24035	32	-48.9	-81.8	83	7
2023-08-01T12:00	24060	31	-48.9	-81.8	82	7
2023-08-01T12:00	24094	31	-48.9	-81.8	83	7
2023-08-01T12:00	24119	31	-48.9	-81.8	87	7
2023-08-01T12:00	24146	31	-48.9	-81.8	91	6
2023-08-01T12:00	24185	31	-49.0	-81.9	97	6
2023-08-01T12:00	24207	31	-49.0	-81.9	102	5
2023-08-01T12:00	24230	31	-49.0	-81.9	109	4
2023-08-01T12:00	24254	31	-48.8	-81.7	117	3
2023-08-01T12:00	24283	30	-48.7	-81.7	127	3
2023-08-01T12:00	24310	30	-48.8	-81.7	138	3
2023-08-01T12:00	24341	30	-48.9	-81.8	146	2
2023-08-01T12:00	24365	30	-48.8	-81.7	146	2
2023-08-01T12:00	24397	30	-48.7	-81.7	134	2
2023-08-01T12:00	24417	30	-48.6	-81.6	116	2
2023-08-01T12:00	24450	30	-48.5	-81.5	103	3
2023-08-01T12:00	24478	30	-48.4	-81.4	96	4
2023-08-01T12:00	24501	29	-48.3	-81.4	93	5
2023-08-01T12:00	24534	29	-48.2	-81.3	93	6
2023-08-01T12:00	24555	29	-48.2	-81.3	94	7
2023-08-01T12:00	24591	29	-48.3	-81.4	96	7
2023-08-01T12:00	24616	29	-48.4	-81.4	99	8
2023-08-01T12:00	24651	29	-48.4	-81.4	102	9
2023-08-01T12:00	24684	29	-48.4	-81.4	106	9
2023-08-01T12:00	24700	29	-48.5	-81.5	110	10
2023-08-01T12:00	24730	28	-48.4	-81.4	114	10
2023-08-01T12:00	24757	28	-48.3	-81.4	117	10
2023-08-01T12:00	24788	28	-48.4	-81.4	120	10
2023-08-01T12:00	24818	28	-48.5	-81.5	121	10
2023-08-01T12:00	24841	28	-48.5	-81.5	120	9
2023-08-01T12:00	24870	28	-48.5	-81.5	117	9
2023-08-01T12:00	24895	28	-48.5	-81.5	113	8
2023-08-01T12:00	24925	28	-48.4	-81.4	107	8
2023-08-01T12:00	24952	27	-48.3	-81.4	101	8
2023-08-01T12:00	24970	27	-48.2	-81.3	96	7
2023-08-01T12:00	25000	27	-48.1	-81.2	92	7
2023-08-01T12:00	25031	27	-48.1	-81.2	90	7
2023-08-01T12:00	25053	27	-48.1	-81.2	89	6
2023-08-01T12:00	25080	27	-48.0	-81.2	90	6
2023-08-01T12:00	25106	27	-48.0	-81.2	91	5
2023-08-01T12:00	25135	27	-48.0	-81.2	93	5
2023-08-01T12:00	25161	27	-48.0	-81.2	94	5
2023-08-01T12:00	25189	27	-48.0	-81.2	96	4
2023-08-01T12:00	25217	26	-48.0	-81.2	99	4
2023-08-01T12:00	25242	26	-48.0	-81.2	103	4
2023-08-01T12:00	25267	26	-48.0	-81.2	107	5
2023-08-01T12:00	25297	26	-47.9	-81.1	109	5
2023-08-01T12:00	25332	26	-48.0	-81.2	109	6
2023-08-01T12:00	25348	26	-47.9	-81.1	110	6
2023-08-01T12:00	25374	26	-47.9	-81.1	110	7
2023-08-01T12:00	25404	26	-47.9	-81.1	110	7
2023-08-01T12:00	25436	26	-47.9	-81.1	110	7
2023-08-01T12:00	25474	25	-48.0	-81.2	110	7
2023-08-01T12:00	25478	25	-47.9	-81.1	110	7
2023-08-01T12:00	25517	25	-47.9	-81.1	110	7
2023-08-01T12:00	25548	25	-47.7	-81.6	111	7
2023-08-01T12:00	25574	25	-47.4	-81.4	112	7
2023-08-01T12:00	25606	25	-47.4	-81.4	113	7
2023-08-01T12:00	25630	25	-47.3	-81.4	112	7
2023-08-01T12:00	25658	25	-47.1	-81.2	109	7
2023-08-01T12:00	25693	25	-47.0	-81.1	105	7
2023-08-01T12:00	25716	24	-46.9	-81.1	102	7
2023-08-01T12:00	25745	24	-46.9	-81.1	100	7
2023-08-01T12:00	25778	24	-46.8	-81.0	101	8
2023-08-01T12:00	25806	24	-46.6	-80.9	102	8
2023-08-01T12:00	25834	24	-46.5	-80.8	104	9
2023-08-01T12:00	25871	24	-46.5	-80.8	105	9
2023-08-01T12:00	25887	24	-46.4	-80.7	106	9
2023-08-01T12:00	25922	24	-46.4	-80.7	106	9
2023-08-01T12:00	25955	24	-46.3	-80.6	105	8
2023-08-01T12:00	25978	24	-46.3	-80.6	104	8
2023-08-01T12:00	26010	23	-46.2	-80.6	103	7
2023-08-01T12:00	26038	23	-46.2	-80.6	103	7
2023-08-01T12:00	26068	23	-46.2	-80.6	102	7
2023-08-01T12:00	26095	23	-46.2	-80.6	102	6
2023-08-01T12:00	26126	23	-46.2	-80.6	100	6
2023-08-01T12:00	26164	23	-46.1	-81.3	98	6
2023-08-01T12:00	26191	23	-46.0	-81.2	96	6
2023-08-01T12:00	26212	23	-45.9	-81.2	93	6
2023-08-01T12:00	26246	23	-45.8	-81.1	91	7
2023-08-01T12:00	26259	23	-45.8	-81.1	89	7
2023-08-01T12:00	26301	22	-45.8	-81.1	87	8
2023-08-01T12:00	26336	22	-45.9	-81.2	85	8
2023-08-01T12:00	26358	22	-45.9	-81.2	84	9
2023-08-01T12:00	26392	22	-45.9	-80.3	83	9
2023-08-01T12:00	26423	22	-46.0	-80.4	83	9
2023-08-01T12:00	26449	22	-46.0	-80.4	84	9
2023-08-01T12:00	26478	22	-46.0	-80.4	86	9
2023-08-01T12:00	26496	22	-46.0	-80.4	90	9
2023-08-01T12:00	26532	22	-45.8	-80.3	93	9
2023-08-01T12:00	26560	22	-45.8	-80.3	96	9
2023-08-01T12:00	26587	21	-45.8	-80.3	98	9
2023-08-01T12:00	26620	21	-45.7	-80.2	100	9
2023-08-01T12:00	26648	21	-45.7	-80.2	101	9
2023-08-01T12:00	26668	21	-45.8	-80.3	102	9
2023-08-01T12:00	26704	21	-45.9	-80.3	103	9
2023-08-01T12:00	26726	21	-46.0	-80.4	103	9
2023-08-01T12:00	26761	21	-46.0	-80.4	103	10
2023-08-01T12:00	26784	21	-46.0	-80.4	102	10
2023-08-01T12:00	26810	21	-46.0	-80.4	102	10
2023-08-01T12:00	26836	21	-46.0	-80.4	101	10
2023-08-01T12:00	26882	21	-46.0	-80.4	99	10
2023-08-01T12:00	26898	20	-46.1	-80.5	98	10
2023-08-01T12:00	26922	20	-46.1	-80.5	95	10
2023-08-01T12:00	26950	20	-46.1	-80.5	94	10
2023-08-01T12:00	26970	20	-46.2	-80.6	93	10
2023-08-01T12:00	27005	20	-46.3	-80.6	93	10
2023-08-01T12:00	27033	20	-46.3	-80.6	95	10
2023-08-01T12:00	27060	20	-46.4	-80.7	97	10
2023-08-01T12:00	27090	20	-46.5	-80.8	100	10
2023-08-01T12:00	27119	20	-46.6	-80.9	103	10
2023-08-01T12:00	27146	20	-46.6	-80.9	105	10
2023-08-01T12:00	27173	20	-46.5	-80.8	107	10
2023-08-01T12:00	27195	20	-46.4	-80.7	109	9
2023-08-01T12:00	27233	19	-46.4	-80.7	110	9
2023-08-01T12:00	27248	19	-46.2	-80.6	110	8
2023-08-01T12:00	27289	19	-46.1	-80.5	110	8
2023-08-01T12:00	27307	19	-46.1	-80.5	109	8
2023-08-01T12:00	27339	19	-46.1	-80.5	109	8
2023-08-01T12:00	27366	19	-46.0	-80.4	109	9
2023-08-01T12:00	27410	19	-46.0	-80.4	110	9
2023-08-01T12:00	27456	19	-45.7	-80.2	111	10
2023-08-01T12:00	27487	19	-45.7	-80.2	112	10
2023-08-01T12:00	27516	19	-45.7	-80.2	112	10
2023-08-01T12:00	27547	19	-45.7	-81.0	112	10
2023-08-01T12:00	27564	19	-45.5	-80.9	112	9
2023-08-01T12:00	27594	18	-45.4	-80.8	112	9
2023-08-01T12:00	27618	18	-45.5	-80.9	113	9
2023-08-01T12:00	27663	18	-45.5	-80.9	115	9
2023-08-01T12:00	27696	18	-45.4	-80.8	117	9
2023-08-01T12:00	27716	18	-45.3	-80.7	119	9
2023-08-01T12:00	27753	18	-45.3	-80.7	121	9
2023-08-01T12:00	27782	18	-45.3	-80.7	122	9
2023-08-01T12:00	27809	18	-45.1	-80.6	124	9
2023-08-01T12:00	27839	18	-45.0	-80.5	125	8
2023-08-01T12:00	27864	18	-44.8	-80.4	127	8
2023-08-01T12:00	27900	18	-44.7	-80.3	127	8
2023-08-01T12:00	27919	18	-44.5	-80.1	127	8
2023-08-01T12:00	27962	17	-44.3	-80.0	126	8
2023-08-01T12:00	27998	17	-44.2	-79.9	124	8
2023-08-01T12:00	28017	17	-44.3	-80.0	122	8
2023-08-01T12:00	28046	17	-44.5	-80.1	120	8
2023-08-01T12:00	28077	17	-44.5	-80.1	119	7
2023-08-01T12:00	28106	17	-44.4	-80.1	118	7
2023-08-01T12:00	28129	17	-44.4	-80.1	118	7
2023-08-01T12:00	28157	17	-44.4	-80.1	119	7
2023-08-01T12:00	28188	17	-44.4	-80.1	120	7
2023-08-01T12:00	28213	17	-44.3	-80.0	121	7
2023-08-01T12:00	28251	17	-44.3	-80.0	120	7
2023-08-01T12:00	28278	17	-44.1	-79.9	117	7
2023-08-01T12:00	28297	17	-44.0	-79.8	114	8
2023-08-01T12:00	28341	17	-43.9	-79.7	111	8
2023-08-01T12:00	28363	16	-43.9	-79.7	109	8
2023-08-01T12:00	28379	16	-43.9	-79.7	109	8
2023-08-01T12:00	28417	16	-43.9	-79.7	110	8
2023-08-01T12:00	28439	16	-43.8	-79.6	114	8
2023-08-01T12:00	28467	16	-43.8	-79.6	118	8
2023-08-01T12:00	28498	16	-43.8	-79.6	121	8
2023-08-01T12:00	28526	16	-43.7	-79.6	122	8
2023-08-01T12:00	28549	16	-43.6	-79.5	121	8
2023-08-01T12:00	28586	16	-43.4	-80.3	117	7
2023-08-01T12:00	28606	16	-43.2	-80.2	111	7
2023-08-01T12:00	28638	16	-43.1	-80.1	105	7
2023-08-01T12:00	28662	16	-43.0	-80.0	98	7
2023-08-01T12:00	28694	16	-42.9	-80.0	93	7
2023-08-01T12:00	28721	16	-42.8	-79.9	90	7
2023-08-01T12:00	28747	16	-42.7	-79.8	87	8
2023-08-01T12:00	28769	15	-42.6	-79.7	84	8
2023-08-01T12:00	28801	15	-42.5	-79.7	83	9
2023-08-01T12:00	28841	15	-42.5	-79.7	82	9
2023-08-01T12:00	28858	15	-42.5	-79.7	82	10
2023-08-01T12:00	28885	15	-42.5	-79.7	83	10
2023-08-01T12:00	28905	15	-42.4	-79.6	85	11
2023-08-01T12:00	28944	15	-42.3	-79.5	87	11
2023-08-01T12:00	28987	15	-42.2	-79.5	91	11
2023-08-01T12:00	28998	15	-42.1	-79.4	95	10
2023-08-01T12:00	29031	15	-42.0	-79.3	100	10
2023-08-01T12:00	29066	15	-42.1	-79.4	105	10
2023-08-01T12:00	29102	15	-42.2	-79.5	108	9
2023-08-01T12:00	29129	15	-42.2	-79.5	111	9
2023-08-01T12:00	29154	15	-41.9	-79.2	111	8
2023-08-01T12:00	29181	15	-41.7	-79.1	111	8
2023-08-01T12:00	29213	15	-41.6	-79.0	109	7
2023-08-01T12:00	29256	14	-41.5	-79.0	108	7
2023-08-01T12:00	29279	14	-41.3	-78.8	106	8
2023-08-01T12:00	29314	14	-41.1	-78.7	104	8
2023-08-01T12:00	29370	14	-40.9		103	9
2023-08-01T12:00	29377	14	-40.8	-78.5	103	10
2023-08-01T12:00	29400	14	-40.7	-78.4	102	11
2023-08-01T12:00	29433	14	-40.5	-78.3	103	12
2023-08-01T12:00	29465	14	-40.3	-78.1	104	13
2023-08-01T12:00	29501	14	-40.2	-79.2	105	13
2023-08-01T12:00	29527	14	-40.1	-78.0	107	14
2023-08-01T12:00	29557	14	-40.0	-77.9	109	14
2023-08-01T12:00	29597	14	-39.9	-77.8	111	14
2023-08-01T12:00	29604	14	-39.8	-77.8	112	14
2023-08-01T12:00	29641	14	-39.7	-77.7	113	13
2023-08-01T12:00	29685	14	-39.5	-77.6	114	13
2023-08-01T12:00	29701	14	-39.4	-78.6	115	13
2023-08-01T12:00	29727	13	-39.3	-78.5	114	13
2023-08-01T12:00	29760	13	-39.3	-78.5	114	12
2023-08-01T12:00	29801	13	-39.3	-78.5	113	12
2023-08-01T12:00	29826	13	-39.1	-78.4	112	12
2023-08-01T12:00	29856	13	-39.1	-78.4	112	11
2023-08-01T12:00	29871	13	-39.2	-78.5	110	11
2023-08-01T12:00	29918	13	-39.2	-78.5	109	10
2023-08-01T12:00	29952	13	-39.1	-78.4	106	10
2023-08-01T12:00	29988	13	-39.1	-78.4	103	10
2023-08-01T12:00	30007	13	-39.1	-78.4	100	10
2023-08-01T12:00	30031	13	-39.0	-78.3	97	10
2023-08-01T12:00	30058	13	-39.0	-78.3	96	10
2023-08-01T12:00	30080	13	-38.9	-78.3	95	10
2023-08-01T12:00	30126	13	-38.9	-78.3	96	10
2023-08-01T12:00	30179	13	-39.1	-78.4	98	9
2023-08-01T12:00	30197	13	-39.2	-78.5	101	9
2023-08-01T12:00	30209	13	-39.2	-78.5	105	9
2023-08-01T12:00	30225	13	-39.2	-78.5	108	9
2023-08-01T12:00	30253	12	-39.1	-78.4	109	9
2023-08-01T12:00	30284	12	-39.2	-78.5	109	9
2023-08-01T12:00	30325	12	-39.4	-77.5	108	9
2023-08-01T12:00	30347	12	-39.5	-77.6	106	9
2023-08-01T12:00	30400	12	-39.6	-77.6	105	10
2023-08-01T12:00	30401	12	-39.6	-77.6	105	10
2023-08-01T12:00	30433	12	-39.5	-77.6	105	11
2023-08-01T12:00	30458	12	-39.6	-78.8	105	11
2023-08-01T12:00	30504	12	-39.5	-78.7	106	11
2023-08-01T12:00	30511	12	-39.5	-78.7	108	11
2023-08-01T12:00	30537	12	-39.4	-78.6	110	11
2023-08-01T12:00	30580	12	-39.3	-78.5	112	11
2023-08-01T12:00	30597	12	-39.2	-78.5	115	11
2023-08-01T12:00	30624	12	-39.3	-78.5	117	11
2023-08-01T12:00	30658	12	-39.5	-78.7	119	11
2023-08-01T12:00	30691	12	-39.5	-78.7	119	11
2023-08-01T12:00	30741	12	-39.5	-78.7	119	12
2023-08-01T12:00	30774	12	-39.3	-78.5	119	13
2023-08-01T12:00	30796	12	-39.2	-78.5	120	13
2023-08-01T12:00	30831	11	-39.2	-78.5	120	13
2023-08-01T12:00	30852	11	-39.1	-78.4	121	12
2023-08-01T12:00	30883	11	-38.9	-78.3	122	11
2023-08-01T12:00	30923	11	-38.8	-78.2	123	10
2023-08-01T12:00	30938	11	-38.8	-78.2	124	9
2023-08-01T12:00	30962	11	-38.8	-78.2	126	8
2023-08-01T12:00	30999	11	-38.8	-78.2	129	7
2023-08-01T12:00	31037	11	-38.8	-78.2	131	7
2023-08-01T12:00	31062	11	-38.8	-78.2	134	6
2023-08-01T12:00	31106	11	-38.7	-78.1	133	5
2023-08-01T12:00	31141	11	-38.6	-78.1	130	5
2023-08-01T12:00	31149	11	-38.3	-77.9	124	5
2023-08-01T12:00	31168	11	-38.1	-77.7	118	6
2023-08-01T12:00	31210	11	-37.8	-77.5	113	6
2023-08-01T12:00	31244	11	-37.7	-77.4	109	7
2023-08-01T12:00	31277	11	-37.7	-77.4	107	8
2023-08-01T12:00	31312	11	-37.8	-77.5	106	9
2023-08-01T12:00	31320	11	-37.8	-77.5	105	10
2023-08-01T12:00	31362	11	-37.8	-77.5	106	11
2023-08-01T12:00	31380	11	-37.8	-77.5	106	11
2023-08-01T12:00	31404	11	-37.8	-77.5	107	12
2023-08-01T12:00	31434	11	-37.9	-77.6	108	11
2023-08-01T12:00	31468	10	-37.9	-77.6	108	11
2023-08-01T12:00	31496	10	-37.9	-77.6	108	10
2023-08-01T12:00	31527	10	-38.0	-77.6	108	9
2023-08-01T12:00	31546	10	-38.0	-77.6	107	7
2023-08-01T12:00	31592	10	-38.0	-77.6	105	6
2023-08-01T12:00	31632	10	-38.0	-77.6	101	6
2023-08-01T12:00	31648	10	-38.0	-77.6	94	5
2023-08-01T12:00	31688	10	-37.9	-77.6	86	4
2023-08-01T12:00	31704	10	-37.8	-77.5	78	4
2023-08-01T12:00	31731	10	-37.7	-77.4	73	4
2023-08-01T12:00	31744	10	-37.7	-77.4	72	4
2023-08-01T12:00	31804	10	-37.6	-77.4	74	5
2023-08-01T12:00	31829	10	-37.3	-77.2	79	5
2023-08-01T12:00	31852	10	-37.1	-77.0	86	6
2023-08-01T12:00	31871	10	-37.0	-77.0	92	6
2023-08-01T12:00	31900	10	-37.1	-77.0	98	7
2023-08-01T12:00	31920	10	-37.2	-77.1	103	8
2023-08-01T12:00	31959	10	-37.2	-77.1	107	8
2023-08-01T12:00	31986	10	-37.1	-77.0	109	9
2023-08-01T12:00	32022	10	-37.0	-77.0	111	9
2023-08-01T12:00	32041	10	-36.9	-76.9	111	9
2023-08-01T12:00	32064	10	-36.8	-76.8	110	9
2023-08-01T12:00	32095	10	-36.8	-76.8	108	9
2023-08-01T12:00	32127	10	-36.8	-76.8	104	8
2023-08-01T12:00	32149	9	-36.7	-76.7	100	8
2023-08-01T12:00	32199	9	-36.2	-76.4	94	9
2023-08-01T12:00	32216	9	-35.9	-76.2	93	9
2023-08-01T12:00	32231	9	-35.6	-76.0	91	10
2023-08-01T12:00	32311	9	-35.4	-75.8	89	10
2023-08-01T12:00	32355	9	-34.6	-75.3	82	10
2023-08-01T12:00	32396	9	-34.6	-75.3	80	10
2023-08-01T12:00	32411	9	-34.7	-75.4	77	10
2023-08-01T12:00	32445	9	-34.8	-75.4	74	10
2023-08-01T12:00	32473	9	-34.9	-75.5	71	11
2023-08-01T12:00	32486	9	-34.9	-75.5	68	11
2023-08-01T12:00	32520	9	-34.9	-75.5	66	12
2023-08-01T12:00	32556	9	-34.9	-75.5	66	12
2023-08-01T12:00	32591	9	-34.9	-75.5	67	13
2023-08-01T12:00	32601	9	-34.7	-75.4	70	14
2023-08-01T12:00	32604	9	-34.5	-75.2	74	14
2023-08-01T12:00	32652	9	-34.2	-75.0	78	15
2023-08-01T12:00	32678	9	-34.0	-74.9	82	15
2023-08-01T12:00	32731	9	-33.9	-74.8	86	15
2023-08-01T12:00	32745	9	-33.9	-74.8	90	16
2023-08-01T12:00	32772	9	-34.0	-74.9	94	16
2023-08-01T12:00	32791	9	-34.0	-74.9	97	17
2023-08-01T12:00	32825	9	-34.0	-74.9	100	17
2023-08-01T12:00	32864	9	-34.1	-75.0	103	17
2023-08-01T12:00	32872	9	-34.1	-75.0	104	18
2023-08-01T12:00	32908	9	-34.3	-75.1	106	18
2023-08-01T12:00	32935	8	-34.4	-75.2	106	18
2023-08-01T12:00	32970	8	-34.3	-75.1	106	17
2023-08-01T12:00	32993	8	-34.1	-75.0	106	17
2023-08-01T12:00	33018	8	-34.1	-75.0	106	17
2023-08-01T12:00	33059	8	-34.1	-75.0	106	16
2023-08-01T12:00	33079	8	-34.1	-75.0	106	16
2023-08-01T12:00	33183	8	-34.1	-75.0	106	15
2023-08-01T12:00	33185	8	-33.8	-74.7	105	14
2023-08-01T12:00	33218	8	-33.7	-74.7	104	14
2023-08-01T12:00	33257	8	-33.5	-74.5	103	14
2023-08-01T12:00	33278	8	-33.3	-74.4	100	14
2023-08-01T12:00	33304	8	-33.2	-74.3	97	13
2023-08-01T12:00	33330	8	-33.0	-74.2	94	12
2023-08-01T12:00	33340	8	-32.7	-74.0	91	12
2023-08-01T12:00	33390	8	-32.6	-73.9	88	12
2023-08-01T12:00	33428	8	-32.5	-73.8	86	12
2023-08-01T12:00	33436	8	-32.4	-73.8	85	11
2023-08-01T12:00	33491	8	-32.2	-73.6	83	11
2023-08-01T12:00	33506	8	-32.0	-73.5	81	11
2023-08-01T12:00	33557	8	-31.9	-73.4	78	10
2023-08-01T12:00	33570	8	-31.7	-73.3	77	10
2023-08-01T12:00	33589	8	-31.6	-73.2	76	10
2023-08-01T12:00	33632	8	-31.6	-73.2	76	10
2023-08-01T12:00	33687	8	-31.6	-73.2	79	10
2023-08-01T12:00	33701	8	-31.6	-73.2	80	11
2023-08-01T12:00	33737	8	-31.5	-73.2	82	11
2023-08-01T12:00	33765	8	-31.6	-73.2	84	11
2023-08-01T12:00	33801	7	-31.7	-73.3	85	11
2023-08-01T12:00	33806	7	-31.6	-73.2	88	12
2023-08-01T12:00	33866	7	-31.7	-73.3	90	12
2023-08-01T12:00	33894	7	-31.7	-73.3	93	11
2023-08-01T12:00	33931	7	-31.7	-73.3	96	11
2023-08-01T12:00	33947	7	-31.8	-73.4	98	11
2023-08-01T12:00	33985	7	-31.8	-73.4	100	11
2023-08-01T12:00	34021	7	-31.6	-73.2	101	11
2023-08-01T12:00	34041	7	-31.5	-73.2	101	11
2023-08-01T12:00	34068	7	-31.4	-73.1	101	11
2023-08-01T12:00	34103	7	-31.3	-73.0	100	12
2023-08-01T12:00	34141	7	-31.4	-73.1	98	12
2023-08-01T12:00	34151	7	-31.4	-73.1	96	13
2023-08-01T12:00	34182	7	-31.4	-73.1	94	13
2023-08-01T12:00	34217	7	-31.4	-73.1	92	13
2023-08-01T12:00	34252	7	-31.3	-73.0	90	13
2023-08-01T12:00	34291	7	-31.3	-73.0	88	13
2023-08-01T12:00	34310	7	-31.2	-73.0	85	13
2023-08-01T12:00	34349	7	-31.3	-73.0	83	13
2023-08-01T12:00	34361	7	-31.4	-73.1	80	13
2023-08-01T12:00	34393	7	-31.6	-73.2	78	13
2023-08-01T12:00	34479	7	-31.4	-73.1	73	14
2023-08-01T12:00	34516	7	-31.4	-73.1	72	14
2023-08-01T12:00	34570	7	-31.6	-73.2	72	14
2023-08-01T12:00	34619	7	-31.7	-73.3	72	14
2023-08-01T12:00	34652	7	-31.7	-73.3	72	14
2023-08-01T12:00	34678	7	-31.7	-73.3	73	14
2023-08-01T12:00	34708	7	-31.6	-73.2	75	14
2023-08-01T12:00	34739	7	-31.5	-73.2	77	14
2023-08-01T12:00	34750	7	-31.4	-73.1	80	14
2023-08-01T12:00	34776	7	-31.6	-73.2	83	14
2023-08-01T12:00	34816	7	-31.7	-73.3	86	15
2023-08-01T12:00	34852	6	-31.7	-73.3	89	15
2023-08-01T12:00	34857	6	-31.7	-73.3	91	15
2023-08-01T12:00	34905	6	-31.6	-73.2	93	15
2023-08-01T12:00	34914	6	-31.6	-73.2	94	16
2023-08-01T12:00	34950	6	-31.5	-73.2	95	16
2023-08-01T12:00	34992	6	-31.5	-73.2	95	16
2023-08-01T12:00	35002	6	-31.6	-73.2	95	16
2023-08-01T12:00	35031	6	-31.7	-73.3	94	16
2023-08-01T12:00	35070	6	-31.7	-73.3	94	15
2023-08-01T12:00	35089	6	-31.5	-73.2	93	15
2023-08-01T12:00	35112	6	-31.4	-73.1	94	14
2023-08-01T12:00	35155	6	-31.2	-73.0	94	14
2023-08-01T12:00	35166	6	-30.9	-72.8	95	14
2023-08-01T12:00	35232	6	-30.7	-72.6	95	14
2023-08-01T12:00	35251	6	-30.0	-72.1	90	15
2023-08-01T12:00	35270	6	-29.7	-71.9	87	15
2023-08-01T12:00	35293	6	-29.5	-71.8	84	16
2023-08-01T12:00	35332	6	-29.4	-71.7	81	16
2023-08-01T12:00	35358	6	-29.3	-71.7	79	17
2023-08-01T12:00	35402	6	-29.2	-71.6	77	18
2023-08-01T12:00	35415	6	-28.9	-71.4	75	18
2023-08-01T12:00	35438	6	-28.3	-71.0	76	19
2023-08-01T12:00	35448	6	-28.2	-70.9	79	19
2023-08-01T12:00	35487	6	-28.1	-70.8	81	18
2023-08-01T18:00	116	985	19.4	14.5	280	3
2023-08-01T18:00	142	982	19.5	13.9	279	4
2023-08-01T18:00	166	980	19.4	13.6	279	5
2023-08-01T18:00	183	978	19.2	13.5	280	6
2023-08-01T18:00	205	975	19.0	13.5	282	6
2023-08-01T18:00	225	973	18.8	13.5	284	7
2023-08-01T18:00	241	971	18.6	13.5	285	8
2023-08-01T18:00	254	970	18.5	13.6	285	8
2023-08-01T18:00	265	968	18.3	13.5	285	9
2023-08-01T18:00	276	967	18.2	13.5	284	9
2023-08-01T18:00	289	966	18.1	13.4	283	9
2023-08-01T18:00	302	964	17.9	13.5	282	9
2023-08-01T18:00	318	963	17.8	13.4	282	10
2023-08-01T18:00	332	961	17.7	13.3	282	10
2023-08-01T18:00	348	959	17.5	13.2	283	11
2023-08-01T18:00	365	957	17.3	13.2	284	11
2023-08-01T18:00	378	955	17.2	13.1	286	11
2023-08-01T18:00	401	953	17.0	13.1	288	11
2023-08-01T18:00	422	951	16.8	13.0	290	11
2023-08-01T18:00	448	948	16.5	12.9	291	10
2023-08-01T18:00	465	946	16.0	12.6	290	10
2023-08-01T18:00	486	944	15.9	12.7	289	10
2023-08-01T18:00	499	942	15.8	12.8	289	11
2023-08-01T18:00	519	940	15.6	12.7	289	11
2023-08-01T18:00	539	938	15.4	12.6	289	12
2023-08-01T18:00	561	935	15.4	12.2	289	11
2023-08-01T18:00	589	932	15.0	12.3	290	11
2023-08-01T18:00	612	930	14.9	11.9	290	10
2023-08-01T18:00	632	927	14.6	12.1	290	9
2023-08-01T18:00	657	925	14.4	11.8	291	9
2023-08-01T18:00	679	923	14.2	11.9	292	9
2023-08-01T18:00	701	920	14.0	11.9	294	9
2023-08-01T18:00	721	918	13.8	11.7	294	9
2023-08-01T18:00	746	915	13.6	11.8	293	9
2023-08-01T18:00	772	912	13.4	11.9	290	9
2023-08-01T18:00	801	909	13.1	12.0	287	9
2023-08-01T18:00	836	906	12.8	11.9	283	9
2023-08-01T18:00	867	902	12.5	11.7	280	9
2023-08-01T18:00	901	899	12.2	12.0	277	9
2023-08-01T18:00	931	895	12.0	12.0	275	9
2023-08-01T18:00	969	891	11.7	11.7	274	9
2023-08-01T18:00	1004	887	11.4	11.4	272	9
2023-08-01T18:00	1041	884	11.3	11.3	270	9
2023-08-01T18:00	1076	880	11.1	11.1	268	9
2023-08-01T18:00	1106	877	10.9	10.9	268	9
2023-08-01T18:00	1131	874	10.7	10.7	268	9
2023-08-01T18:00	1157	871	10.5	10.5	270	9
2023-08-01T18:00	1184	869	10.5	10.5	271	9
2023-08-01T18:00	1212	866	10.3	10.3	272	10
2023-08-01T18:00	1242	863	10.1	10.1	273	10
2023-08-01T18:00	1270	860	10.0	10.0	273	11
2023-08-01T18:00	1303	857	9.8	9.8	273	10
2023-08-01T18:00	1331	854	9.5	9.5	273	10
2023-08-01T18:00	1359	851	9.4	9.4	273	9
2023-08-01T18:00	1389	848	9.2	9.2	272	9
2023-08-01T18:00	1415	845	9.2	9.2	273	8
2023-08-01T18:00	1443	842	9.0	9.0	274	8
2023-08-01T18:00	1468	840	8.9	8.9	277	8
2023-08-01T18:00	1495	837	8.7	8.7	279	8
2023-08-01T18:00	1521	834	8.6	8.6	281	8
2023-08-01T18:00	1552	831	8.5	8.5	280	8
2023-08-01T18:00	1588	827	8.3	8.3	278	9
2023-08-01T18:00	1623	824	8.2	8.2	275	9
2023-08-01T18:00	1653	821	8.0	8.0	272	10
2023-08-01T18:00	1688	818	7.9	7.9	271	10
2023-08-01T18:00	1718	815	7.7	7.7	271	10
2023-08-01T18:00	1747	812	7.5	7.5	273	10
2023-08-01T18:00	1776	809	7.4	7.4	275	11
2023-08-01T18:00	1806	806	7.2	7.2	277	11
2023-08-01T18:00	1832	803	7.1	7.1	279	11
2023-08-01T18:00	1857	801	5.5	5.5	281	12
2023-08-01T18:00	1881	799	5.0	5.0	283	12
2023-08-01T18:00	1910	796	4.9	4.6	285	13
2023-08-01T18:00	1933	794	4.7	4.4	286	13
2023-08-01T18:00	1954	791	4.6	4.3	286	14
2023-08-01T18:00	1984	789	4.4	4.4	286	14
2023-08-01T18:00	2014	785	4.2	4.2	284	13
2023-08-01T18:00	2048	782	3.9	3.9	281	13
2023-08-01T18:00	2087	779	3.6	3.6	277	12
2023-08-01T18:00	2130	775	3.4	3.4	273	10
2023-08-01T18:00	2172	771	3.1	3.1	269	9
2023-08-01T18:00	2202	768	2.9	2.9	266	8
2023-08-01T18:00	2217	767	3.5	3.5	266	7
2023-08-01T18:00	2234	765	3.3	3.2	272	8
2023-08-01T18:00	2250	763	3.0	1.8	273	8
2023-08-01T18:00	2262	762	2.9	2.7	271	9
2023-08-01T18:00	2279	760	2.7	2.7	267	10
2023-08-01T18:00	2303	758	2.6	2.3	264	10
2023-08-01T18:00	2327	756	2.6	2.6	263	11
2023-08-01T18:00	2356	753	2.4	2.4	264	12
2023-08-01T18:00	2390	750	2.1	2.1	266	12
2023-08-01T18:00	2428	747	1.8	1.8	269	13
2023-08-01T18:00	2450	745	2.0	2.0	271	13
2023-08-01T18:00	2473	743	2.1	2.1	272	13
2023-08-01T18:00	2495	741	1.5	1.5	272	14
2023-08-01T18:00	2514	739	1.3	1.3	272	14
2023-08-01T18:00	2536	737	1.4	1.4	273	15
2023-08-01T18:00	2552	735	1.3	1.3	274	15
2023-08-01T18:00	2573	733	1.1	1.1	275	16
2023-08-01T18:00	2591	732	0.9	0.9	276	17
2023-08-01T18:00	2605	730	1.0	1.0	276	17
2023-08-01T18:00	2616	729	1.1	1.1	276	17
2023-08-01T18:00	2625	729	0.8	0.8	275	16
2023-08-01T18:00	2626	728	0.5	0.5	274	16
2023-08-01T18:00	2633	728	0.6	0.6	274	16
2023-08-01T18:00	2644	727	0.5	0.5	275	16
2023-08-01T18:00	2664	725	0.8	0.8	276	17
2023-08-01T18:00	2674	724	0.7	0.7	278	17
2023-08-01T18:00	2684	723	0.5	0.5	279	18
2023-08-01T18:00	2685	723	0.3	0.3	280	18
2023-08-01T18:00	2691	723	0.3	0.3	279	18
2023-08-01T18:00	2694	722	0.3	0.3	275	18
2023-08-01T18:00	2700	722	0.3	0.3	272	18
2023-08-01T18:00	2705	722	0.4	0.4	269	17
2023-08-01T18:00	2706	721	0.5	0.5	268	17
2023-08-01T18:00	2716	720	0.4	0.4	270	17
2023-08-01T18:00	2728	719	0.4	0.4	273	17
2023-08-01T18:00	2743	718	0.4	0.2	275	16
2023-08-01T18:00	2762	716	0.4		275	15
2023-08-01T18:00	2782	715	0.2	0.2	273	14
2023-08-01T18:00	2807	713	0.0	0.0	269	14
2023-08-01T18:00	2823	711	0.0	0.0	267	14
2023-08-01T18:00	2840	710	-0.1	-0.1	266	14
2023-08-01T18:00	2854	708	0.0	-0.1	266	14
2023-08-01T18:00	2873	706	-0.3	-0.4	268	15
2023-08-01T18:00	2894	705	-0.2	-0.3	269	15
2023-08-01T18:00	2908	703	-0.3	-0.4	270	15
2023-08-01T18:00	2924	702	-0.5	-0.5	269	15
2023-08-01T18:00	2949	700	-0.7	-0.7	269	15
2023-08-01T18:00	2967	698	-0.8	-0.8	269	15
2023-08-01T18:00	2984	697	-0.9	-0.9	270	14
2023-08-01T18:00	2994	696	-1.0	-1.0	271	14
2023-08-01T18:00	3000	695	-1.1	-1.1	272	13
2023-08-01T18:00	3011	695	-1.1	-1.1	271	14
2023-08-01T18:00	3015	694	-1.1	-1.1	270	14
2023-08-01T18:00	3028	693	-1.0	-1.0	268	15
2023-08-01T18:00	3039	692	-0.9	-0.9	266	15
2023-08-01T18:00	3047	691	-1.0	-1.0	265	16
2023-08-01T18:00	3061	690	-1.0	-1.0	266	15
2023-08-01T18:00	3072	689	-1.1	-1.1	267	15
2023-08-01T18:00	3083	688	-1.3	-1.3	268	14
2023-08-01T18:00	3099	687	-1.3	-1.3	269	14
2023-08-01T18:00	3112	686	-1.3	-1.3	268	13
2023-08-01T18:00	3128	684	-1.3	-1.3	267	13
2023-08-01T18:00	3142	683	-1.4	-1.4	265	12
2023-08-01T18:00	3163	681	-1.5	-1.5	261	12
2023-08-01T18:00	3176	680	-1.6	-1.6	258	13
2023-08-01T18:00	3196	678	-1.7	-1.7	254	13
2023-08-01T18:00	3220	676	-1.8	-1.8	252	13
2023-08-01T18:00	3244	675	-1.9	-1.9	251	14
2023-08-01T18:00	3259	673	-2.0	-2.0	250	13
2023-08-01T18:00	3278	671	-2.0	-2.0	249	13
2023-08-01T18:00	3299	670	-2.0	-2.0	248	13
2023-08-01T18:00	3324	668	-2.0	-2.0	248	12
2023-08-01T18:00	3346	666	-2.2	-2.2	249	12
2023-08-01T18:00	3367	664	-2.3	-2.3	253	12
2023-08-01T18:00	3390	662	-2.5	-2.5	256	13
2023-08-01T18:00	3417	660	-2.5	-2.5	259	13
2023-08-01T18:00	3440	658	-2.6	-2.6	260	12
2023-08-01T18:00	3466	656	-2.8	-2.8	258	12
2023-08-01T18:00	3489	654	-2.8	-2.8	256	12
2023-08-01T18:00	3509	652	-2.9	-2.9	253	12
2023-08-01T18:00	3530	651	-3.3	-3.3	249	12
2023-08-01T18:00	3556	649	-3.2	-3.2	246	12
2023-08-01T18:00	3577	647	-3.3	-3.3	243	12
2023-08-01T18:00	3599	645	-3.3	-3.3	243	12
2023-08-01T18:00	3621	643	-3.4	-3.4	244	12
2023-08-01T18:00	3645	641	-3.5	-3.5	247	12
2023-08-01T18:00	3675	639	-3.7	-3.7	251	12
2023-08-01T18:00	3707	636	-3.9	-3.9	254	13
2023-08-01T18:00	3737	634	-4.0	-4.0	256	14
2023-08-01T18:00	3773	631	-4.1	-4.1	258	14
2023-08-01T18:00	3805	628	-4.5	-4.5	260	14
2023-08-01T18:00	3830	626	-6.0	-6.6	261	14
2023-08-01T18:00	3848	625	-6.4	-7.0	263	14
2023-08-01T18:00	3864	624	-6.2	-6.6	263	14
2023-08-01T18:00	3887	622	-6.5	-6.5	263	14
2023-08-01T18:00	3912	620	-6.7	-7.7	263	14
2023-08-01T18:00	3935	618	-6.9	-7.6	263	14
2023-08-01T18:00	3961	616	-6.8	-6.8	263	14
2023-08-01T18:00	3986	614	-5.8	-5.8	262	14
2023-08-01T18:00	4012	612	-6.3	-6.3	262	14
2023-08-01T18:00	4037	610	-6.8	-6.8	260	14
2023-08-01T18:00	4059	608	-7.1	-7.1	259	14
2023-08-01T18:00	4088	606	-7.1	-7.3	259	13
2023-08-01T18:00	4114	604	-7.1	-7.3	258	12
2023-08-01T18:00	4139	602	-7.2	-7.3	257	10
2023-08-01T18:00	4160	600	-7.5	-7.6	255	9
2023-08-01T18:00	4199	598	-7.6	-7.8	252	9
2023-08-01T18:00	4221	596	-7.6	-7.8	249	9
2023-08-01T18:00	4241	594	-7.7	-8.0	246	9
2023-08-01T18:00	4263	593	-7.9	-8.1	244	10
2023-08-01T18:00	4286	591	-7.9	-8.0	243	11
2023-08-01T18:00	4312	589	-8.7	-9.1	242	11
2023-08-01T18:00	4331	587	-8.1	-8.4	242	11
2023-08-01T18:00	4355	586	-8.9	-9.3	243	11
2023-08-01T18:00	4372	584	-8.5	-8.7	244	11
2023-08-01T18:00	4395	583	-8.1	-8.3	245	11
2023-08-01T18:00	4422	581	-8.9	-9.0	246	11
2023-08-01T18:00	4450	579	-9.6	-10.3	247	11
2023-08-01T18:00	4471	577	-9.0	-9.6	247	11
2023-08-01T18:00	4499	575	-9.7	-11.1	246	12
2023-08-01T18:00	4525	573	-11.5	-14.1	246	12
2023-08-01T18:00	4553	571	-11.7	-14.4	245	13
2023-08-01T18:00	4579	569	-12.0	-15.0	244	13
2023-08-01T18:00	4601	567	-12.2	-15.2	243	13
2023-08-01T18:00	4628	565	-12.4	-16.0	242	13
2023-08-01T18:00	4654	563	-12.8	-16.8	242	13
2023-08-01T18:00	4679	561	-12.9	-16.7	243	13
2023-08-01T18:00	4706	560	-13.1	-17.1	244	13
2023-08-01T18:00	4730	558	-13.2	-16.9	245	13
2023-08-01T18:00	4754	556	-13.4	-17.2	246	13
2023-08-01T18:00	4779	554	-13.6	-17.4	247	14
2023-08-01T18:00	4800	553	-13.7	-17.9	248	13
2023-08-01T18:00	4821	551	-13.9	-18.5	248	13
2023-08-01T18:00	4845	549	-14.2	-19.3	248	12
2023-08-01T18:00	4872	547	-14.5	-20.4	248	12
2023-08-01T18:00	4900	545	-14.7	-21.0	249	11
2023-08-01T18:00	4927	543	-13.4	-14.2	250	11
2023-08-01T18:00	4953	542	-14.2	-17.7	252	12
2023-08-01T18:00	4978	540	-15.4	-23.0	254	12
2023-08-01T18:00	5003	538	-15.5	-22.4	255	12
2023-08-01T18:00	5025	536	-15.6	-22.5	256	12
2023-08-01T18:00	5053	535	-15.8	-22.5	256	11
2023-08-01T18:00	5075	533	-16.0	-22.7	255	12
2023-08-01T18:00	5097	531	-16.0	-22.4	255	12
2023-08-01T18:00	5120	530	-16.1	-22.1	255	12
2023-08-01T18:00	5147	528	-16.2	-22.4	254	12
2023-08-01T18:00	5174	526	-16.4	-22.4	253	13
2023-08-01T18:00	5202	524	-16.6	-22.7	252	13
2023-08-01T18:00	5223	522	-16.8	-23.4	249	13
2023-08-01T18:00	5246	521	-17.2	-25.2	247	13
2023-08-01T18:00	5266	519	-17.3	-25.6	245	13
2023-08-01T18:00	5292	518	-17.6	-26.2	243	12
2023-08-01T18:00	5310	516	-17.7	-26.2	243	12
2023-08-01T18:00	5329	515	-17.9	-25.9	243	11
2023-08-01T18:00	5348	514	-18.0	-26.0	244	11
2023-08-01T18:00	5366	513	-18.2	-26.3	244	11
2023-08-01T18:00	5390	511	-18.3	-27.0	244	11
2023-08-01T18:00	5417	509	-18.3	-26.4	242	11
2023-08-01T18:00	5441	507	-18.4	-26.4	240	11
2023-08-01T18:00	5465	506	-18.6	-25.8	238	11
2023-08-01T18:00	5485	505	-18.6	-25.8	236	11
2023-08-01T18:00	5504	503	-18.8	-25.6	234	11
2023-08-01T18:00	5526	502	-18.9	-25.8	233	11
2023-08-01T18:00	5546	500	-19.0	-25.9	233	11
2023-08-01T18:00	5569	499	-19.2	-25.9	234	11
2023-08-01T18:00	5589	497	-19.4	-27.1	234	11
2023-08-01T18:00	5610	496	-19.6	-27.8	235	10
2023-08-01T18:00	5633	495	-19.8	-28.4	236	10
2023-08-01T18:00	5656	493	-20.0	-28.3	236	10
2023-08-01T18:00	5680	492	-20.1	-28.5	236	10
2023-08-01T18:00	5698	490	-20.3	-28.6	237	10
2023-08-01T18:00	5712	489	-20.4	-28.5	237	10
2023-08-01T18:00	5728	488	-20.5	-28.2	237	9
2023-08-01T18:00	5746	487	-20.3	-27.0	237	9
2023-08-01T18:00	5769	486	-20.4		238	9
2023-08-01T18:00	5792	484	-20.5	-27.9	239	9
2023-08-01T18:00	5817	482	-20.7	-29.0	241	9
2023-08-01T18:00	5839	481	-20.9	-29.5	245	9
2023-08-01T18:00	5864	479	-21.1	-29.8	250	9
2023-08-01T18:00	5889	478	-21.4	-31.5	254	9
2023-08-01T18:00	5910	476	-21.4	-33.2	257	9
2023-08-01T18:00	5937	475	-21.4	-29.5	259	9
2023-08-01T18:00	5962	473	-21.2	-26.7	260	9
2023-08-01T18:00	5990	471	-21.2	-26.1	260	10
2023-08-01T18:00	6013	470	-21.6	-28.5	261	10
2023-08-01T18:00	6041	468	-21.8	-27.5	261	10
2023-08-01T18:00	6063	467	-21.9	-29.1	260	10
2023-08-01T18:00	6086	465	-22.0	-32.1	260	10
2023-08-01T18:00	6114	463	-22.3	-32.1	258	11
2023-08-01T18:00	6138	462	-22.5	-33.8	257	11
2023-08-01T18:00	6163	460	-22.7	-34.3	255	11
2023-08-01T18:00	6191	459	-22.8	-34.3	253	11
2023-08-01T18:00	6216	457	-23.0	-34.5	252	11
2023-08-01T18:00	6238	456	-23.3	-35.0	250	11
2023-08-01T18:00	6259	454	-23.4	-34.5	249	10
2023-08-01T18:00	6276	453	-23.6	-34.7	248	11
2023-08-01T18:00	6296	452	-23.7	-34.7	247	11
2023-08-01T18:00	6315	451	-24.0	-35.4	246	11
2023-08-01T18:00	6339	449	-24.2	-35.6	246	12
2023-08-01T18:00	6362	448	-24.3	-35.3	245	13
2023-08-01T18:00	6383	447	-24.6	-35.5	243	13
2023-08-01T18:00	6407	445	-24.7	-35.4	242	14
2023-08-01T18:00	6427	444	-24.9	-35.4	240	14
2023-08-01T18:00	6449	443	-25.1	-35.4	238	15
2023-08-01T18:00	6469	441	-25.1	-36.2	237	15
2023-08-01T18:00	6491	440	-25.1	-36.0	236	15
2023-08-01T18:00	6512	439	-25.3	-36.0	236	16
2023-08-01T18:00	6532	438	-25.5	-36.1	236	16
2023-08-01T18:00	6548	437	-25.6	-35.7	237	16
2023-08-01T18:00	6563	436	-25.8	-35.6	237	16
2023-08-01T18:00	6577	435	-25.8	-35.9	237	16
2023-08-01T18:00	6592	434	-26.0	-35.8	236	16
2023-08-01T18:00	6609	433	-26.1	-36.0	235	16
2023-08-01T18:00	6624	432	-26.2	-35.9	234	16
2023-08-01T18:00	6637	431	-26.3	-35.7	233	16
2023-08-01T18:00	6653	430	-26.4	-36.2	233	16
2023-08-01T18:00	6667	429	-26.5	-36.2	233	16
2023-08-01T18:00	6681	429	-26.5	-35.6	232	16
2023-08-01T18:00	6696	428	-26.5	-36.3	232	16
2023-08-01T18:00	6709	427	-26.6	-37.1	232	16
2023-08-01T18:00	6727	426	-26.8	-36.7	232	17
2023-08-01T18:00	6741	425	-26.9	-38.3	232	17
2023-08-01T18:00	6757	424	-26.8	-36.6	231	17
2023-08-01T18:00	6774	423	-26.9	-36.1	231	17
2023-08-01T18:00	6792	422	-27.0	-36.6	231	17
2023-08-01T18:00	6811	421	-27.1	-36.6	231	17
2023-08-01T18:00	6825	420	-27.3	-36.7	231	17
2023-08-01T18:00	6841	419	-27.4	-36.7	231	18
2023-08-01T18:00	6858	418	-27.5	-37.2	231	18
2023-08-01T18:00	6875	417	-27.6	-37.4	231	18
2023-08-01T18:00	6892	416	-27.8	-38.6	231	18
2023-08-01T18:00	6905	416	-27.9	-38.5	230	18
2023-08-01T18:00	6917	415	-28.0	-37.8	230	18
2023-08-01T18:00	6931	414	-28.1	-37.9	230	18
2023-08-01T18:00	6942	413	-28.2	-38.1	230	18
2023-08-01T18:00	6958	413	-28.3	-38.2	230	18
2023-08-01T18:00	6971	412	-28.5	-38.6	230	18
2023-08-01T18:00	6984	411	-28.6	-38.6	229	18
2023-08-01T18:00	6997	410	-28.7	-39.1	229	18
2023-08-01T18:00	7012	409	-28.8	-39.7	228	18
2023-08-01T18:00	7025	409	-28.9	-39.5	227	18
2023-08-01T18:00	7039	408	-29.0	-39.9	227	18
2023-08-01T18:00	7051	407	-29.1	-39.9	227	18
2023-08-01T18:00	7064	406	-29.3	-40.1	227	18
2023-08-01T18:00	7078	406	-29.3	-40.0	226	18
2023-08-01T18:00	7091	405	-29.4	-40.0	226	18
2023-08-01T18:00	7106	404	-29.6	-40.5	225	18
2023-08-01T18:00	7120	403	-29.6	-39.8	225	18
2023-08-01T18:00	7136	402	-29.7	-39.8	224	18
2023-08-01T18:00	7151	401	-29.9	-40.1	224	18
2023-08-01T18:00	7166	401	-30.0	-39.7	224	18
2023-08-01T18:00	7181	400	-30.1	-40.1	224	18
2023-08-01T18:00	7196	399	-30.2	-40.1	223	17
2023-08-01T18:00	7214	398	-30.4	-40.4	223	17
2023-08-01T18:00	7242	396	-30.7	-41.5	222	17
2023-08-01T18:00	7269	395	-30.9	-41.9	222	18
2023-08-01T18:00	7284	394	-31.0	-41.5	223	18
2023-08-01T18:00	7298	393	-31.2	-41.4	224	18
2023-08-01T18:00	7315	392	-31.3	-40.0	225	18
2023-08-01T18:00	7328	392	-31.4	-40.1	226	19
2023-08-01T18:00	7344	391	-31.6	-38.7	227	19
2023-08-01T18:00	7359	390	-31.6	-38.3	227	19
2023-08-01T18:00	7374	389	-31.7	-38.2	227	19
2023-08-01T18:00	7392	388	-31.8	-38.6	228	20
2023-08-01T18:00	7409	387	-31.9	-39.2	228	20
2023-08-01T18:00	7427	386	-32.1	-38.0	229	20
2023-08-01T18:00	7446	385	-32.2	-38.0	229	20
2023-08-01T18:00	7469	384	-32.4	-38.1	230	21
2023-08-01T18:00	7498	382	-32.7	-39.1	230	21
2023-08-01T18:00	7516	381	-32.8	-39.2	229	21
2023-08-01T18:00	7535	380	-33.0	-39.7	229	21
2023-08-01T18:00	7554	379	-33.1	-40.3	228	21
2023-08-01T18:00	7575	378	-33.3	-40.1	227	21
2023-08-01T18:00	7593	377	-33.5	-40.1	227	21
2023-08-01T18:00	7613	376	-33.6	-39.9	228	21
2023-08-01T18:00	7631	375	-33.8	-40.1	228	21
2023-08-01T18:00	7653	374	-34.0	-40.1	229	21
2023-08-01T18:00	7675	373	-34.2	-40.0	229	21
2023-08-01T18:00	7694	372	-34.4	-40.3	229	21
2023-08-01T18:00	7711	371	-34.5	-40.4	229	22
2023-08-01T18:00	7728	370	-34.7	-40.4	229	22
2023-08-01T18:00	7743	369	-34.8	-40.3	229	22
2023-08-01T18:00	7758	368	-34.9	-40.7	228	22
2023-08-01T18:00	7774	368	-35.1	-40.8	228	22
2023-08-01T18:00	7791	367	-35.2	-41.0	227	22
2023-08-01T18:00	7814	365	-35.4	-41.5	227	21
2023-08-01T18:00	7836	364	-35.6	-42.0	227	21
2023-08-01T18:00	7866	363	-35.8	-42.9	227	21
2023-08-01T18:00	7887	362	-36.0	-44.1	228	21
2023-08-01T18:00	7907	361	-36.2	-44.0	228	20
2023-08-01T18:00	7922	360	-36.3	-44.0	229	20
2023-08-01T18:00	7947	359	-36.5	-43.6	229	20
2023-08-01T18:00	7964	358	-36.6	-44.4	229	20
2023-08-01T18:00	7980	357	-36.8	-44.1	228	20
2023-08-01T18:00	7996	356	-37.0	-44.5	228	20
2023-08-01T18:00	8013	355	-37.1	-44.9	227	20
2023-08-01T18:00	8029	354	-37.3	-45.4	227	20
2023-08-01T18:00	8045	353	-37.4	-45.7	227	20
2023-08-01T18:00	8061	353	-37.6		227	20
2023-08-01T18:00	8078	352	-37.7	-45.8	226	19
2023-08-01T18:00	8096	351	-37.8	-45.9	226	19
2023-08-01T18:00	8116	350	-38.1	-46.2	225	19
2023-08-01T18:00	8135	349	-38.1	-47.1	224	20
2023-08-01T18:00	8160	348	-38.3	-47.6	224	20
2023-08-01T18:00	8182	346	-38.4	-48.1	223	20
2023-08-01T18:00	8204	345	-38.5	-48.2	223	21
2023-08-01T18:00	8226	344	-38.7	-48.2	223	21
2023-08-01T18:00	8247	343	-38.8	-48.5	223	21
2023-08-01T18:00	8269	342	-39.0	-48.9	223	22
2023-08-01T18:00	8292	341	-39.2	-48.9	222	22
2023-08-01T18:00	8314	340	-39.4	-48.8	221	22
2023-08-01T18:00	8342	339	-39.6	-49.0	220	23
2023-08-01T18:00	8368	337	-39.8	-49.0	218	23
2023-08-01T18:00	8389	336	-40.0	-49.0	217	23
2023-08-01T18:00	8410	335	-40.2	-49.4	217	24
2023-08-01T18:00	8431	334	-40.3	-49.2	216	24
2023-08-01T18:00	8448	333	-40.4	-49.3	216	24
2023-08-01T18:00	8468	332	-40.5	-49.3	216	23
2023-08-01T18:00	8489	331	-40.7	-49.4	216	23
2023-08-01T18:00	8508	330	-40.9	-49.5	216	24
2023-08-01T18:00	8528	329	-41.1	-49.8	216	24
2023-08-01T18:00	8547	328	-41.2	-49.7	216	24
2023-08-01T18:00	8567	328	-41.4	-49.9	217	24
2023-08-01T18:00	8582	327	-41.5	-50.2	217	24
2023-08-01T18:00	8601	326	-41.6	-50.5	217	24
2023-08-01T18:00	8619	325	-41.6	-50.7	216	24
2023-08-01T18:00	8638	324	-41.7	-51.0	216	24
2023-08-01T18:00	8655	323	-41.7	-51.7	216	24
2023-08-01T18:00	8677	322	-41.8	-51.8	215	23
2023-08-01T18:00	8694	321	-42.0	-52.4	215	23
2023-08-01T18:00	8713	321	-42.1	-52.6	215	23
2023-08-01T18:00	8733	320	-42.2	-53.2	214	23
2023-08-01T18:00	8752	319	-42.1	-53.5	214	23
2023-08-01T18:00	8772	318	-42.3	-53.1	214	23
2023-08-01T18:00	8792	317	-42.5	-52.9	214	24
2023-08-01T18:00	8811	316	-42.7	-53.1	214	24
2023-08-01T18:00	8830	315	-42.9	-53.1	214	24
2023-08-01T18:00	8849	314	-43.0	-53.3	214	25
2023-08-01T18:00	8869	313	-43.2	-53.4	214	25
2023-08-01T18:00	8889	312	-43.3	-53.0	214	25
2023-08-01T18:00	8906	311	-43.3	-52.0	213	26
2023-08-01T18:00	8927	311	-43.4	-51.5	213	26
2023-08-01T18:00	8948	310	-43.5	-51.6	213	26
2023-08-01T18:00	8968	309	-43.6	-51.4	212	26
2023-08-01T18:00	8988	308	-43.7	-50.7	212	27
2023-08-01T18:00	9006	307	-43.8	-50.2	212	27
2023-08-01T18:00	9024	306	-43.9	-50.0	212	27
2023-08-01T18:00	9043	305	-44.1	-50.0	212	27
2023-08-01T18:00	9064	304	-44.2	-50.2	212	27
2023-08-01T18:00	9084	303	-44.4	-50.5	212	28
2023-08-01T18:00	9103	302	-44.6	-50.7	211	28
2023-08-01T18:00	9122	302	-44.8	-50.7	211	28
2023-08-01T18:00	9141	301	-44.9	-50.9	211	29
2023-08-01T18:00	9160	300	-45.0	-51.2	211	29
2023-08-01T18:00	9176	299	-45.2	-51.1	211	30
2023-08-01T18:00	9195	298	-45.4	-51.4	212	31
2023-08-01T18:00	9210	298	-45.4	-52.3	212	32
2023-08-01T18:00	9227	297	-45.4	-53.0	212	33
2023-08-01T18:00	9245	296	-45.2	-54.2	212	33
2023-08-01T18:00	9268	295	-44.6	-54.9	212	34
2023-08-01T18:00	9287	294	-44.5	-54.6	211	35
2023-08-01T18:00	9304	294	-44.6	-54.0	211	36
2023-08-01T18:00	9319	293	-44.7	-53.6	211	36
2023-08-01T18:00	9333	292	-44.8	-53.2	210	37
2023-08-01T18:00	9346	292	-44.9		210	37
2023-08-01T18:00	9363	291	-44.9	-52.7	210	37
2023-08-01T18:00	9378	290	-44.8	-52.8	210	37
2023-08-01T18:00	9391	290	-44.8	-53.8	210	37
2023-08-01T18:00	9406	289	-44.7	-53.4	210	37
2023-08-01T18:00	9422	288	-44.6	-54.2	210	37
2023-08-01T18:00	9435	288	-44.6	-54.4	210	36
2023-08-01T18:00	9452	287	-44.6	-54.6	210	36
2023-08-01T18:00	9468	286	-44.7	-54.6	210	35
2023-08-01T18:00	9483	286	-44.9	-54.6	211	35
2023-08-01T18:00	9497	285	-44.9	-54.6	211	34
2023-08-01T18:00	9511	285	-44.7	-56.0	211	33
2023-08-01T18:00	9526	284	-44.6	-58.1	212	33
2023-08-01T18:00	9542	283	-44.3	-58.9	213	32
2023-08-01T18:00	9565	282	-44.2	-60.2	214	31
2023-08-01T18:00	9590	281	-43.9	-61.1	215	30
2023-08-01T18:00	9610	280	-43.9	-61.3	216	30
2023-08-01T18:00	9630	280	-43.6	-61.7	216	29
2023-08-01T18:00	9653	279	-43.6	-61.7	217	29
2023-08-01T18:00	9679	278	-43.6	-62.3	217	28
2023-08-01T18:00	9704	277	-43.6	-64.0	218	28
2023-08-01T18:00	9724	276	-43.8	-64.2	219	27
2023-08-01T18:00	9746	275	-44.0	-63.3	220	26
2023-08-01T18:00	9771	274	-44.1	-63.7	221	25
2023-08-01T18:00	9795	273	-44.3	-64.6	223	25
2023-08-01T18:00	9815	272	-44.1	-64.2	224	24
2023-08-01T18:00	9832	271	-44.0	-63.4	225	24
2023-08-01T18:00	9847	271	-43.7	-63.6	226	23
2023-08-01T18:00	9863	270	-43.6	-63.8	226	23
2023-08-01T18:00	9879	269	-43.6	-64.3	225	23
2023-08-01T18:00	9896	269	-43.7	-64.4	224	22
2023-08-01T18:00	9912	268	-43.7	-64.5	223	22
2023-08-01T18:00	9929	267	-43.7	-66.2	221	21
2023-08-01T18:00	9946	267	-43.8	-65.5	220	21
2023-08-01T18:00	9963	266	-43.9	-65.8	218	20
2023-08-01T18:00	9978	265	-43.9	-66.0	217	20
2023-08-01T18:00	9993	265	-43.7	-65.6	215	19
2023-08-01T18:00	10007	264	-43.5	-64.4	214	19
2023-08-01T18:00	10031	263	-43.5	-64.8	212	18
2023-08-01T18:00	10045	263	-43.6	-65.3	210	18
2023-08-01T18:00	10060	262	-43.6	-64.5	208	18
2023-08-01T18:00	10075	262	-43.5	-63.9	207	18
2023-08-01T18:00	10090	261	-43.4	-64.5	206	18
2023-08-01T18:00	10102	261	-43.3	-64.8	206	18
2023-08-01T18:00	10116	260	-43.3	-64.8	205	18
2023-08-01T18:00	10128	260	-43.3	-65.0	204	18
2023-08-01T18:00	10143	259	-43.3	-65.4	203	17
2023-08-01T18:00	10159	258	-43.0	-64.9	203	17
2023-08-01T18:00	10171	258	-43.0	-64.8	202	17
2023-08-01T18:00	10183	257	-43.0	-65.1	202	17
2023-08-01T18:00	10195	257	-43.0	-64.8	202	17
2023-08-01T18:00	10208	257	-43.0	-64.4	201	16
2023-08-01T18:00	10221	256	-43.0	-64.9	200	16
2023-08-01T18:00	10231	256	-43.0	-66.4	199	16
2023-08-01T18:00	10245	255	-43.0	-67.4	199	16
2023-08-01T18:00	10257	255	-42.9	-66.0	198	16
2023-08-01T18:00	10269	254	-42.8	-66.3	198	16
2023-08-01T18:00	10280	254	-42.9	-67.0	198	16
2023-08-01T18:00	10290	253	-42.9	-64.2	198	17
2023-08-01T18:00	10301	253	-42.8	-63.5	199	17
2023-08-01T18:00	10311	253	-42.7	-63.4	200	17
2023-08-01T18:00	10321	252	-42.7	-64.1	201	17
2023-08-01T18:00	10332	252	-42.6	-65.2	202	17
2023-08-01T18:00	10344	251	-42.6	-66.9	203	18
2023-08-01T18:00	10358	251	-42.4	-69.0	203	18
2023-08-01T18:00	10369	250	-42.2	-65.4	204	18
2023-08-01T18:00	10382	250	-42.0	-64.1	204	19
2023-08-01T18:00	10393	250	-42.0	-65.0	205	19
2023-08-01T18:00	10406	249	-42.1	-66.2	206	19
2023-08-01T18:00	10418	249	-42.1	-69.2	208	19
2023-08-01T18:00	10432	248	-42.0	-68.3	209	19
2023-08-01T18:00	10446	248	-41.7	-65.9	211	19
2023-08-01T18:00	10459	247	-41.7	-65.2	212	19
2023-08-01T18:00	10475	247	-41.6	-66.1	214	19
2023-08-01T18:00	10494	246	-41.5	-68.3	215	19
2023-08-01T18:00	10521	245	-41.0	-67.3	216	20
2023-08-01T18:00	10543	244	-40.9	-68.8	217	20
2023-08-01T18:00	10565	243	-41.0	-65.8	219	20
2023-08-01T18:00	10585	243	-41.0	-64.6	220	20
2023-08-01T18:00	10605	242	-40.9	-64.0	221	20
2023-08-01T18:00	10627	241	-41.0	-64.2	222	20
2023-08-01T18:00	10651	240	-41.2	-65.2	223	19
2023-08-01T18:00	10673	240	-41.4	-66.8	224	19
2023-08-01T18:00	10694	239	-41.6	-66.5	226	19
2023-08-01T18:00	10718	238	-41.7	-65.9	228	19
2023-08-01T18:00	10740	237	-41.8	-67.0	230	19
2023-08-01T18:00	10764	236	-41.7	-68.7	232	18
2023-08-01T18:00	10785	236	-41.6	-68.0	234	18
2023-08-01T18:00	10808	235	-41.4	-66.8	236	17
2023-08-01T18:00	10843	234	-41.5	-67.7	238	17
2023-08-01T18:00	10871	233	-41.5	-69.3	240	17
2023-08-01T18:00	10904	232	-41.7	-69.7	241	17
2023-08-01T18:00	10929	231	-41.9	-69.3	242	17
2023-08-01T18:00	10959	230	-42.1	-68.0	243	17
2023-08-01T18:00	10981	229	-42.3	-67.4	244	17
2023-08-01T18:00	11007	228	-42.6	-66.5	244	17
2023-08-01T18:00	11038	227	-42.9	-66.9	245	17
2023-08-01T18:00	11067	226	-43.2	-68.1	245	17
2023-08-01T18:00	11098	225	-43.5	-68.5	244	16
2023-08-01T18:00	11132	224	-43.8	-69.1	243	16
2023-08-01T18:00	11158	223	-43.9	-70.0	242	16
2023-08-01T18:00	11198	222	-44.2	-68.7	240	16
2023-08-01T18:00	11218	221	-44.2	-68.4	239	17
2023-08-01T18:00	11237	220	-44.4	-69.6	237	17
2023-08-01T18:00	11259	220	-44.6	-69.7	236	18
2023-08-01T18:00	11286	219	-44.8	-71.1	234	18
2023-08-01T18:00	11307	218	-44.6	-70.5	232	19
2023-08-01T18:00	11326	217	-44.7	-70.4	231	19
2023-08-01T18:00	11345	217	-44.7	-72.0	230	20
2023-08-01T18:00	11361	216	-44.5	-69.9	230	19
2023-08-01T18:00	11378	216	-44.3	-68.6	230	19
2023-08-01T18:00	11398	215	-44.2	-69.4	229	19
2023-08-01T18:00	11418	214	-44.0	-70.7	229	19
2023-08-01T18:00	11437	214	-43.9	-71.6	228	19
2023-08-01T18:00	11456	213	-44.0	-71.0	228	19
2023-08-01T18:00	11476	213	-43.9	-70.2	227	18
2023-08-01T18:00	11495	212	-44.0	-70.7	227	18
2023-08-01T18:00	11513	211	-44.1	-69.9	226	18
2023-08-01T18:00	11533	211	-44.2	-68.5	226	18
2023-08-01T18:00	11554	210	-44.1	-67.8	226	18
2023-08-01T18:00	11574	209	-44.0	-68.2	226	19
2023-08-01T18:00	11594	209	-43.9	-68.8	226	19
2023-08-01T18:00	11613	208	-43.8	-69.5	227	20
2023-08-01T18:00	11630	208	-43.6	-70.0	227	20
2023-08-01T18:00	11651	207	-43.4	-70.0	229	21
2023-08-01T18:00	11671	207	-43.3	-71.4	230	21
2023-08-01T18:00	11691	206	-42.9	-72.7	231	21
2023-08-01T18:00	11712	205	-42.3	-71.9	233	22
2023-08-01T18:00	11732	205	-42.4	-70.7	235	21
2023-08-01T18:00	11752	204	-42.3	-69.2	237	21
2023-08-01T18:00	11784	203	-41.9	-68.2	239	20
2023-08-01T18:00	11812	202	-40.8	-67.3	242	20
2023-08-01T18:00	11836	201	-40.9	-67.9	244	20
2023-08-01T18:00	11864	201	-40.8	-68.2	246	20
2023-08-01T18:00	11891	200	-40.9	-69.1	247	19
2023-08-01T18:00	11920	199	-41.3	-70.2	248	19
2023-08-01T18:00	11952	198	-41.3	-71.1	249	18
2023-08-01T18:00	11979	197	-41.1	-71.3	250	18
2023-08-01T18:00	12008	196	-41.1	-71.0	251	17
2023-08-01T18:00	12032	196	-41.3	-70.5	253	17
2023-08-01T18:00	12050	195	-41.3	-70.5	254	16
2023-08-01T18:00	12068	195	-41.3	-69.9	256	16
2023-08-01T18:00	12088	194	-41.4	-69.7	258	15
2023-08-01T18:00	12111	194	-41.6	-70.1	260	15
2023-08-01T18:00	12133	193	-41.7	-69.9	261	15
2023-08-01T18:00	12155	192	-41.8	-69.7	262	15
2023-08-01T18:00	12176	192	-41.9	-69.3	262	15
2023-08-01T18:00	12196	191	-42.0	-68.3	262	14
2023-08-01T18:00	12214	191	-42.1	-67.2	260	14
2023-08-01T18:00	12236	190	-42.2	-66.8	259	14
2023-08-01T18:00	12255	189	-42.3	-66.5	258	14
2023-08-01T18:00	12275	189	-42.5	-66.7	258	14
2023-08-01T18:00	12299	188	-42.7	-67.7	257	14
2023-08-01T18:00	12319	188	-42.9	-69.0	257	14
2023-08-01T18:00	12339	187	-43.0	-70.2	256	14
2023-08-01T18:00	12358	187	-43.1	-71.0	255	14
2023-08-01T18:00	12377	186	-43.1	-70.0	254	14
2023-08-01T18:00	12396	186	-43.3	-69.5	253	15
2023-08-01T18:00	12416	185	-43.5	-70.3	252	15
2023-08-01T18:00	12434	184	-43.6	-72.0	252	15
2023-08-01T18:00	12450	184	-43.8	-73.0	252	15
2023-08-01T18:00	12469	184	-43.9	-72.8	252	15
2023-08-01T18:00	12487	183	-44.0	-72.6	253	15
2023-08-01T18:00	12501	183	-44.1	-72.6	252	15
2023-08-01T18:00	12518	182	-44.0	-72.9	252	15
2023-08-01T18:00	12531	182	-43.7	-72.3	251	15
2023-08-01T18:00	12547	181	-43.2	-71.1	251	16
2023-08-01T18:00	12565	181	-43.2	-70.8	251	16
2023-08-01T18:00	12581	181	-43.3	-71.2	251	16
2023-08-01T18:00	12596	180	-43.3	-71.7	252	17
2023-08-01T18:00	12610	180	-43.2	-71.6	253	17
2023-08-01T18:00	12627	179	-43.0	-70.4	253	17
2023-08-01T18:00	12643	179	-42.8	-68.9	253	18
2023-08-01T18:00	12659	178	-42.9	-68.4	253	18
2023-08-01T18:00	12676	178	-42.6	-68.0	253	19
2023-08-01T18:00	12691	178	-42.4	-68.2	253	19
2023-08-01T18:00	12707	177	-42.5	-69.6	253	19
2023-08-01T18:00	12725	177	-42.6	-71.2	253	20
2023-08-01T18:00	12743	176	-42.8	-72.3	252	20
2023-08-01T18:00	12763	176	-42.9	-72.7	252	20
2023-08-01T18:00	12780	175	-43.0	-72.8	252	19
2023-08-01T18:00	12797	175	-43.1	-72.8	253	19
2023-08-01T18:00	12813	174	-43.2	-73.3	253	19
2023-08-01T18:00	12830	174	-42.9	-72.3	253	19
2023-08-01T18:00	12847	174	-42.9	-71.7	254	18
2023-08-01T18:00	12863	173	-42.9	-71.7	255	18
2023-08-01T18:00	12879	173	-42.8	-71.6	256	18
2023-08-01T18:00	12895	172	-42.9	-72.3	258	18
2023-08-01T18:00	12914	172	-42.7	-72.2	260	18
2023-08-01T18:00	12932	171	-42.5	-72.0	262	17
2023-08-01T18:00	12950	171	-42.4	-72.6	264	17
2023-08-01T18:00	12968	170	-42.1	-73.2	266	16
2023-08-01T18:00	12984	170	-41.8	-72.2	268	16
2023-08-01T18:00	13001	170	-41.7	-70.5	269	15
2023-08-01T18:00	13020	169	-41.8	-68.8	269	15
2023-08-01T18:00	13039	169	-41.8	-68.1	268	14
2023-08-01T18:00	13057	168	-41.9	-68.0	267	14
2023-08-01T18:00	13075	168	-42.0	-68.7	265	14
2023-08-01T18:00	13096	167	-42.2	-69.8	264	13
2023-08-01T18:00	13113	167	-42.3	-71.0	263	13
2023-08-01T18:00	13134	166	-42.5	-71.4	263	13
2023-08-01T18:00	13149	166	-42.6	-71.5	262	13
2023-08-01T18:00	13164	166	-42.6	-71.5	262	13
2023-08-01T18:00	13181	165	-42.6	-71.5	262	13
2023-08-01T18:00	13198	165	-42.6	-71.5	262	12
2023-08-01T18:00	13213	164	-42.7	-71.9	263	12
2023-08-01T18:00	13230	164	-42.9	-72.0	264	12
2023-08-01T18:00	13247	164	-43.0	-72.1	265	12
2023-08-01T18:00	13263	163	-43.1	-72.2	265	12
2023-08-01T18:00	13280	163	-43.2	-71.6	265	12
2023-08-01T18:00	13297	162	-43.3	-70.9	265	12
2023-08-01T18:00	13313	162	-43.5	-69.9	264	11
2023-08-01T18:00	13330	162	-43.6	-69.8	264	11
2023-08-01T18:00	13349	161	-43.8	-70.3	264	10
2023-08-01T18:00	13368	161	-43.8	-71.6	264	10
2023-08-01T18:00	13386	160	-43.8	-73.0	265	9
2023-08-01T18:00	13407	160	-43.9	-74.2	265	9
2023-08-01T18:00	13423	159	-43.9	-73.8	265	9
2023-08-01T18:00	13443	159	-43.9	-73.1	264	9
2023-08-01T18:00	13462	158	-44.0	-73.2	264	10
2023-08-01T18:00	13480	158	-44.2	-73.7	263	10
2023-08-01T18:00	13500	158	-44.2	-73.7	262	11
2023-08-01T18:00	13519	157	-44.4	-73.5	262	11
2023-08-01T18:00	13537	157	-44.4	-73.2	262	11
2023-08-01T18:00	13554	156	-44.5	-73.2	262	12
2023-08-01T18:00	13574	156	-44.5	-73.6	263	12
2023-08-01T18:00	13593	155	-44.7	-74.4	264	12
2023-08-01T18:00	13611	155	-44.7	-74.4	265	12
2023-08-01T18:00	13631	154	-44.6	-73.3	266	11
2023-08-01T18:00	13651	154	-44.6	-72.4	267	11
2023-08-01T18:00	13668	154	-44.5	-71.8	267	11
2023-08-01T18:00	13687	153	-44.5	-72.1	267	11
2023-08-01T18:00	13706	153	-44.6	-72.4	267	11
2023-08-01T18:00	13725	152	-44.7	-73.1	267	11
2023-08-01T18:00	13747	152	-44.8	-73.5	267	11
2023-08-01T18:00	13763	151	-44.9	-74.2	267	11
2023-08-01T18:00	13786	151	-45.0	-74.6	267	12
2023-08-01T18:00	13805	150	-45.0	-75.4	267	12
2023-08-01T18:00	13823	150	-45.1	-76.3	266	12
2023-08-01T18:00	13844	150	-45.2	-76.4	265	12
2023-08-01T18:00	13860	149	-45.1	-75.9	265	12
2023-08-01T18:00	13879	149	-45.2	-75.1	264	12
2023-08-01T18:00	13900	148	-45.2	-74.8	264	13
2023-08-01T18:00	13917	148	-45.3	-74.5	265	13
2023-08-01T18:00	13938	148	-45.4	-74.6	266	13
2023-08-01T18:00	13956	147	-45.5	-74.7	267	13
2023-08-01T18:00	13973	147	-45.5	-74.7	268	13
2023-08-01T18:00	13992	146	-45.5	-74.7	269	12
2023-08-01T18:00	14014	146	-45.4	-74.2	270	11
2023-08-01T18:00	14032	145	-45.2	-73.8	272	11
2023-08-01T18:00	14052	145	-45.1	-73.4	273	11
2023-08-01T18:00	14072	145	-45.2	-73.5	274	10
2023-08-01T18:00	14089	144	-45.2	-74.1	274	10
2023-08-01T18:00	14111	144	-45.0	-74.6	275	11
2023-08-01T18:00	14131	143	-45.0	-75.0	275	11
2023-08-01T18:00	14150	143	-45.2	-74.8	274	11
2023-08-01T18:00	14170	142	-45.4	-73.9	274	11
2023-08-01T18:00	14188	142	-45.5	-73.4	273	12
2023-08-01T18:00	14209	142	-45.6	-73.8	272	12
2023-08-01T18:00	14228	141	-45.7	-74.8	271	12
2023-08-01T18:00	14248	141	-45.8	-76.0	271	12
2023-08-01T18:00	14268	140	-45.8	-76.4	270	12
2023-08-01T18:00	14289	140	-45.7	-75.9	270	12
2023-08-01T18:00	14306	140	-45.6	-75.8	270	11
2023-08-01T18:00	14327	139	-45.7	-75.9	269	11
2023-08-01T18:00	14348	139	-45.8	-76.0	268	11
2023-08-01T18:00	14367	138	-45.9	-75.3	267	11
2023-08-01T18:00	14385	138	-46.0	-75.4	265	11
2023-08-01T18:00	14403	138	-46.1	-75.1	264	11
2023-08-01T18:00	14424	137	-46.2	-74.5	263	11
2023-08-01T18:00	14443	137	-46.2	-74.5	263	11
2023-08-01T18:00	14463	136	-46.3	-75.3	263	10
2023-08-01T18:00	14481	136	-46.2	-75.9	263	10
2023-08-01T18:00	14501	136	-46.3	-76.4	263	10
2023-08-01T18:00	14522	135	-46.3	-76.4	263	10
2023-08-01T18:00	14543	135	-46.4	-75.7	262	10
2023-08-01T18:00	14563	134	-46.5	-75.1	261	9
2023-08-01T18:00	14581	134	-46.5	-73.9	259	9
2023-08-01T18:00	14601	134	-46.5	-72.9	258	9
2023-08-01T18:00	14622	133	-46.6	-72.3	258	9
2023-08-01T18:00	14640	133	-46.6	-72.5	259	9
2023-08-01T18:00	14662	132	-46.8	-73.4	261	9
2023-08-01T18:00	14681	132	-46.9	-74.2	264	9
2023-08-01T18:00	14700	132	-46.9	-75.1	266	10
2023-08-01T18:00	14722	131	-46.8	-74.7	268	10
2023-08-01T18:00	14740	131	-46.8	-74.1	270	10
2023-08-01T18:00	14759	130	-47.0	-73.8	270	9
2023-08-01T18:00	14781	130	-47.2	-73.5	270	9
2023-08-01T18:00	14802	130	-47.3	-73.8	269	9
2023-08-01T18:00	14820	129	-47.3	-74.5	268	9
2023-08-01T18:00	14840	129	-47.2	-75.0	267	8
2023-08-01T18:00	14860	128	-47.3	-75.1	266	8
2023-08-01T18:00	14881	128	-47.5	-75.5	266	8
2023-08-01T18:00	14902	128	-47.7	-76.3	265	8
2023-08-01T18:00	14922	127	-47.8	-76.7	265	8
2023-08-01T18:00	14941	127	-47.9	-76.8	264	9
2023-08-01T18:00	14962	126	-48.0	-75.9	265	9
2023-08-01T18:00	14984	126	-48.1	-74.9	265	9
2023-08-01T18:00	14998	126	-47.9	-74.7	265	10
2023-08-01T18:00	15020	125	-47.6		265	10
2023-08-01T18:00	15036	125	-47.6	-75.6	265	10
2023-08-01T18:00	15055	125	-47.5	-75.5	264	10
2023-08-01T18:00	15075	124	-47.6		262	10
2023-08-01T18:00	15094	124	-47.8	-73.9	260	10
2023-08-01T18:00	15111	124	-47.9	-73.1	258	10
2023-08-01T18:00	15131	123	-47.9	-73.1	257	10
2023-08-01T18:00	15151	123	-47.9	-74.5	258	11
2023-08-01T18:00	15169	123	-48.0	-76.6	259	11
2023-08-01T18:00	15187	122	-48.0	-78.9	262	11
2023-08-01T18:00	15207	122	-47.9	-79.3	264	12
2023-08-01T18:00	15223	122	-47.8	-78.8	265	12
2023-08-01T18:00	15242	121	-47.8	-77.9	266	12
2023-08-01T18:00	15263	121	-47.8	-77.9	267	12
2023-08-01T18:00	15282	120	-47.8	-77.9	267	12
2023-08-01T18:00	15304	120	-47.8	-78.8	268	12
2023-08-01T18:00	15321	120	-47.5	-78.5	268	12
2023-08-01T18:00	15340	119	-47.3	-77.9	270	12
2023-08-01T18:00	15359	119	-47.2	-77.0	271	12
2023-08-01T18:00	15381	119	-47.0	-76.5	273	12
2023-08-01T18:00	15401	118	-47.0	-76.9	275	12
2023-08-01T18:00	15421	118	-46.9	-78.1	276	12
2023-08-01T18:00	15441	118	-47.1	-79.3	277	12
2023-08-01T18:00	15460	117	-47.1	-79.9	278	13
2023-08-01T18:00	15480	117	-47.3	-79.4	279	13
2023-08-01T18:00	15501	117	-47.4	-79.0	279	13
2023-08-01T18:00	15520	116	-47.6	-79.1	279	12
2023-08-01T18:00	15541	116	-47.7		278	12
2023-08-01T18:00	15561	115	-47.7		277	12
2023-08-01T18:00	15580	115	-47.9	-79.9	277	11
2023-08-01T18:00	15600	115	-48.1	-79.5	276	11
2023-08-01T18:00	15619	114	-48.2	-79.6	276	11
2023-08-01T18:00	15639	114	-48.4	-79.2	277	11
2023-08-01T18:00	15659	114	-48.5	-78.8	277	11
2023-08-01T18:00	15680	113	-48.6	-78.5	279	11
2023-08-01T18:00	15699	113	-48.6	-77.4	280	11
2023-08-01T18:00	15719	113	-48.5	-76.3	281	12
2023-08-01T18:00	15739	112	-48.7	-75.6	283	12
2023-08-01T18:00	15759	112	-48.7	-75.4	285	12
2023-08-01T18:00	15780	112	-48.9	-75.5	286	12
2023-08-01T18:00	15797	111	-49.1	-75.9	288	13
2023-08-01T18:00	15817	111	-49.2	-76.3	288	13
2023-08-01T18:00	15837	111	-49.4	-77.3	288	13
2023-08-01T18:00	15857	110	-49.5	-78.4	287	13
2023-08-01T18:00	15878	110	-49.6	-80.1	286	13
2023-08-01T18:00	15897	110	-49.6	-81.1	284	13
2023-08-01T18:00	15917	109	-49.6	-81.1	283	13
2023-08-01T18:00	15937	109	-49.7	-80.7	281	12
2023-08-01T18:00	15958	109	-49.8	-80.3	279	12
2023-08-01T18:00	15975	108	-50.0	-80.0	278	13
2023-08-01T18:00	15996	108	-50.2	-79.3	276	13
2023-08-01T18:00	16016	108	-50.4	-79.1	276	13
2023-08-01T18:00	16037	107	-50.5	-78.8	276	13
2023-08-01T18:00	16054	107	-50.5	-79.2	277	13
2023-08-01T18:00	16074	107	-50.5	-79.9	278	13
2023-08-01T18:00	16094	106	-50.2	-80.1	280	12
2023-08-01T18:00	16112	106	-50.1	-80.5	282	12
2023-08-01T18:00	16131	106	-50.1	-81.0	285	12
2023-08-01T18:00	16152	106	-50.1	-80.0	286	12
2023-08-01T18:00	16171	105	-50.0		288	11
2023-08-01T18:00	16187	105	-50.0	-77.8	290	11
2023-08-01T18:00	16211	105	-50.1	-77.0	291	11
2023-08-01T18:00	16229	104	-50.2	-76.5	292	10
2023-08-01T18:00	16253	104	-50.3	-76.6	293	10
2023-08-01T18:00	16272	104	-50.4	-77.2	292	9
2023-08-01T18:00	16291	103	-50.4	-78.1	290	9
2023-08-01T18:00	16313	103	-50.4	-79.1	287	9
2023-08-01T18:00	16331	103	-50.3	-80.2	284	9
2023-08-01T18:00	16352	102	-50.4	-81.2	280	9
2023-08-01T18:00	16375	102	-50.5	-80.8	276	8
2023-08-01T18:00	16397	102	-50.7	-80.1	271	8
2023-08-01T18:00	16416	101	-50.8	-78.4	265	8
2023-08-01T18:00	16440	101	-51.0	-77.4	259	8
2023-08-01T18:00	16456	101	-51.0	-76.9	254	9
2023-08-01T18:00	16481	100	-50.9	-77.1	251	9
2023-08-01T18:00	16503	100	-50.5	-77.6	249	9
2023-08-01T18:00	16524	100	-50.3	-78.0	249	10
2023-08-01T18:00	16545	99	-50.2	-78.6	250	10
2023-08-01T18:00	16566	99	-50.2	-78.9	251	10
2023-08-01T18:00	16587	99	-50.1	-78.9	254	10
2023-08-01T18:00	16608	98	-50.1	-79.2	256	9
2023-08-01T18:00	16626	98	-50.1	-80.0	259	9
2023-08-01T18:00	16648	98	-50.0	-80.4	261	9
2023-08-01T18:00	16669	97	-49.9	-80.3	263	9
2023-08-01T18:00	16690	97	-49.9	-79.9	264	9
2023-08-01T18:00	16709	97	-49.8	-79.4	264	9
2023-08-01T18:00	16732	97	-50.0	-78.8	264	9
2023-08-01T18:00	16752	96	-50.0	-78.4	263	9
2023-08-01T18:00	16773	96	-50.0	-78.1	262	9
2023-08-01T18:00	16794	96	-50.0	-78.4	261	9
2023-08-01T18:00	16814	95	-49.9	-79.1	261	9
2023-08-01T18:00	16835	95	-49.9	-79.9	261	9
2023-08-01T18:00	16854	95	-49.9	-79.9	262	9
2023-08-01T18:00	16876	94	-49.7	-79.3	263	9
2023-08-01T18:00	16892	94	-49.8	-78.6	265	9
2023-08-01T18:00	16916	94	-49.9	-78.7	267	9
2023-08-01T18:00	16935	94	-49.8	-79.0	270	9
2023-08-01T18:00	16954	93	-49.8	-79.8	272	9
2023-08-01T18:00	16977	93	-49.8	-80.3	273	9
2023-08-01T18:00	16996	93	-49.8	-80.3	272	8
2023-08-01T18:00	17016	92	-49.7	-80.2	271	8
2023-08-01T18:00	17035	92	-49.5	-79.6	270	8
2023-08-01T18:00	17053	92	-49.4	-79.1	269	8
2023-08-01T18:00	17076	92	-49.3	-79.0	269	8
2023-08-01T18:00	17094	91	-49.1	-79.3	271	7
2023-08-01T18:00	17112	91	-48.9	-79.6	273	7
2023-08-01T18:00	17131	91	-48.8	-80.0	275	8
2023-08-01T18:00	17151	91	-48.9	-80.6	276	8
2023-08-01T18:00	17172	90	-48.9	-80.6	277	8
2023-08-01T18:00	17190	90	-48.8	-80.5	278	9
2023-08-01T18:00	17210	90	-48.7	-79.9	279	9
2023-08-01T18:00	17230	89	-48.8	-79.5	279	9
2023-08-01T18:00	17249	89	-49.0	-79.2	279	9
2023-08-01T18:00	17269	89	-49.1	-79.3	278	9
2023-08-01T18:00	17288	89	-49.2	-79.4	276	9
2023-08-01T18:00	17306	88	-49.2	-80.3	274	9
2023-08-01T18:00	17326	88	-49.1	-80.8	273	9
2023-08-01T18:00	17343	88	-49.1	-81.3	271	8
2023-08-01T18:00	17362	88	-49.2	-81.4	269	8
2023-08-01T18:00	17385	87	-49.4	-81.6	267	7
2023-08-01T18:00	17404	87	-49.6	-81.7	265	7
2023-08-01T18:00	17422	87	-49.7	-81.8	262	7
2023-08-01T18:00	17441	87	-49.9	-81.9	259	7
2023-08-01T18:00	17462	86	-50.0	-82.0	257	7
2023-08-01T18:00	17480	86	-50.1	-82.1	255	7
2023-08-01T18:00	17498	86	-50.0	-82.0	253	7
2023-08-01T18:00	17519	86	-50.1	-82.1	251	7
2023-08-01T18:00	17536	85	-50.2	-82.1	250	8
2023-08-01T18:00	17559	85	-50.4	-82.3	249	8
2023-08-01T18:00	17578	85	-50.5		249	9
2023-08-01T18:00	17596	85	-50.4	-82.3	249	9
2023-08-01T18:00	17617	84	-50.3	-82.2	250	10
2023-08-01T18:00	17636	84	-50.1	-82.7	252	10
2023-08-01T18:00	17656	84	-49.8	-82.5	254	9
2023-08-01T18:00	17676	84	-49.7	-83.1	257	9
2023-08-01T18:00	17698	83	-49.3	-82.8	260	8
2023-08-01T18:00	17719	83	-49.2	-82.7	263	8
2023-08-01T18:00	17741	83	-49.2	-82.7	265	7
2023-08-01T18:00	17760	83	-49.3	-82.8	267	7
2023-08-01T18:00	17782	82	-49.4	-82.9	269	6
2023-08-01T18:00	17802	82	-49.6	-83.0	270	6
2023-08-01T18:00	17826	82	-49.7	-83.9	273	5
2023-08-01T18:00	17843	81	-49.8	-84.0	276	4
2023-08-01T18:00	17862	81	-49.8	-84.0	281	4
2023-08-01T18:00	17881	81	-49.9	-84.0	287	4
2023-08-01T18:00	17899	81	-49.9	-83.2	293	3
2023-08-01T18:00	17922	80	-49.9	-83.2	299	3
2023-08-01T18:00	17942	80	-49.7	-82.4	303	3
2023-08-01T18:00	17967	80	-49.3	-82.1	305	3
2023-08-01T18:00	17989	80	-49.2	-82.0	305	3
2023-08-01T18:00	18009	79	-49.4	-82.2	304	2
2023-08-01T18:00	18032	79	-49.5	-82.3	301	2
2023-08-01T18:00	18056	79	-49.7	-81.8	296	2
2023-08-01T18:00	18078	79	-49.8	-81.8	289	2
2023-08-01T18:00	18100	78	-50.0	-82.0	282	2
2023-08-01T18:00	18124	78	-50.2		273	2
2023-08-01T18:00	18146	78	-50.3	-81.6	265	2
2023-08-01T18:00	18169	78	-50.4	-81.7	259	2
2023-08-01T18:00	18190	77	-50.6	-81.9	256	3
2023-08-01T18:00	18211	77	-50.8	-82.0	256	3
2023-08-01T18:00	18231	77	-50.9	-82.1	258	4
2023-08-01T18:00	18252	77	-51.0	-82.2	260	4
2023-08-01T18:00	18278	76	-50.9	-82.1	263	4
2023-08-01T18:00	18298	76	-50.7	-81.4	266	5
2023-08-01T18:00	18317	76	-50.5	-81.8	268	5
2023-08-01T18:00	18340	76	-50.5	-81.8	268	5
2023-08-01T18:00	18362	75	-50.6	-82.4	268	5
2023-08-01T18:00	18382	75	-50.8	-83.2	266	5
2023-08-01T18:00	18405	75	-50.6	-83.7	263	5
2023-08-01T18:00	18424	75	-50.4	-83.6	259	5
2023-08-01T18:00	18445	74	-50.3	-84.3	256	5
2023-08-01T18:00	18466	74	-50.2	-84.2	255	5
2023-08-01T18:00	18486	74	-50.2	-85.1	255	5
2023-08-01T18:00	18509	74	-50.2	-85.1	257	5
2023-08-01T18:00	18531	73	-50.2	-85.1	260	5
2023-08-01T18:00	18548	73	-49.9	-84.9	265	5
2023-08-01T18:00	18569	73	-49.9	-84.9	269	5
2023-08-01T18:00	18591	73	-49.8	-84.0	273	5
2023-08-01T18:00	18609	72	-49.9	-84.0	275	5
2023-08-01T18:00	18630	72	-49.8	-83.2	275	4
2023-08-01T18:00	18654	72	-49.7	-82.4	273	4
2023-08-01T18:00	18675	72	-49.4	-82.2	269	3
2023-08-01T18:00	18695	72	-49.2	-81.4	262	3
2023-08-01T18:00	18715	71	-49.3	-81.5	256	3
2023-08-01T18:00	18736	71	-49.4	-82.2	250	3
2023-08-01T18:00	18758	71	-49.6	-83.0	246	3
2023-08-01T18:00	18780	71	-49.7	-83.1	241	4
2023-08-01T18:00	18802	70	-49.9	-83.2	236	4
2023-08-01T18:00	18822	70	-50.1	-82.7	231	4
2023-08-01T18:00	18845	70	-50.3	-82.2	227	5
2023-08-01T18:00	18865	70	-50.4	-81.2	225	5
2023-08-01T18:00	18886	69	-50.5	-80.8	224	6
2023-08-01T18:00	18912	69	-50.6	-80.9	225	6
2023-08-01T18:00	18930	69	-50.3	-80.6	227	5
2023-08-01T18:00	18952	69	-50.2	-81.0	229	5
2023-08-01T18:00	18977	69	-49.9	-80.8	229	4
2023-08-01T18:00	19000	68	-49.6	-81.1	227	3
2023-08-01T18:00	19020	68	-49.3	-80.9	220	3
2023-08-01T18:00	19041	68	-49.1	-81.3	211	3
2023-08-01T18:00	19060	68	-49.0	-81.9	203	3
2023-08-01T18:00	19083	67	-49.1	-82.7	198	3
2023-08-01T18:00	19102	67	-49.2	-82.7	193	4
2023-08-01T18:00	19121	67	-49.3	-82.8	190	4
2023-08-01T18:00	19142	67	-49.4	-82.9	186	4
2023-08-01T18:00	19161	67	-49.4	-83.7	182	4
2023-08-01T18:00	19181	66	-49.5	-83.7	179	4
2023-08-01T18:00	19204	66	-49.6	-83.8	177	3
2023-08-01T18:00	19222	66	-49.8	-83.2	174	3
2023-08-01T18:00	19243	66	-49.9	-83.2	172	3
2023-08-01T18:00	19263	66	-50.1	-83.4	170	3
2023-08-01T18:00	19287	65	-50.2	-83.5	167	3
2023-08-01T18:00	19304	65	-50.3	-83.5	164	3
2023-08-01T18:00	19327	65	-50.4	-83.6	160	3
2023-08-01T18:00	19344	65	-50.6	-83.7	154	3
2023-08-01T18:00	19365	65	-50.7	-83.8	147	3
2023-08-01T18:00	19387	64	-50.5	-83.0	141	3
2023-08-01T18:00	19410	64	-50.6	-83.1	137	2
2023-08-01T18:00	19428	64	-50.3	-82.8	138	2
2023-08-01T18:00	19450	64	-50.1	-83.4	143	2
2023-08-01T18:00	19471	64	-50.0	-83.3	153	2
2023-08-01T18:00	19491	63	-50.1	-84.2	167	2
2023-08-01T18:00	19516	63	-50.2	-84.2	182	2
2023-08-01T18:00	19536	63	-50.2	-84.2	197	2
2023-08-01T18:00	19556	63	-50.1	-83.4	212	2
2023-08-01T18:00	19580	62	-50.0	-82.6	224	2
2023-08-01T18:00	19600	62	-50.0	-80.9	234	3
2023-08-01T18:00	19621	62	-50.1	-79.6	242	3
2023-08-01T18:00	19642	62	-50.3	-78.7	248	4
2023-08-01T18:00	19664	62	-50.4	-78.4	253	4
2023-08-01T18:00	19688	61	-50.5	-78.8	256	5
2023-08-01T18:00	19710	61	-50.6	-79.2	259	5
2023-08-01T18:00	19733	61	-50.7	-80.5	262	5
2023-08-01T18:00	19755	61	-50.8	-81.5	265	5
2023-08-01T18:00	19780	61	-50.6	-83.1	268	5
2023-08-01T18:00	19801	60	-50.2	-83.5	271	5
2023-08-01T18:00	19823	60	-50.1	-84.2	273	4
2023-08-01T18:00	19846	60	-49.9	-84.9	275	4
2023-08-01T18:00	19869	60	-49.7	-83.9	277	3
2023-08-01T18:00	19891	60	-49.6	-83.8	278	2
2023-08-01T18:00	19913	59	-49.3	-82.8	281	1
2023-08-01T18:00	19938	59	-49.4	-82.9	290	1
2023-08-01T18:00	19960	59	-49.5	-82.9	346	0
2023-08-01T18:00	19976	59	-49.6	-83.0	57	1
2023-08-01T18:00	19998	59	-49.7	-83.9	69	1
2023-08-01T18:00	20020	58	-49.9	-84.0	74	2
2023-08-01T18:00	20043	58	-49.9	-84.0	77	2
2023-08-01T18:00	20064	58	-49.9	-84.0	81	3
2023-08-01T18:00	20082	58	-50.0	-84.1	85	3
2023-08-01T18:00	20103	58	-50.0	-84.1	89	3
2023-08-01T18:00	20122	58	-50.1	-84.2	93	3
2023-08-01T18:00	20140	57	-50.1	-85.1	96	4
2023-08-01T18:00	20161	57	-50.2	-85.1	100	4
2023-08-01T18:00	20181	57	-50.2	-85.1	104	4
2023-08-01T18:00	20199	57	-50.4	-85.3	110	4
2023-08-01T18:00	20218	57	-50.5	-85.3	117	3
2023-08-01T18:00	20241	56	-50.5	-85.3	126	3
2023-08-01T18:00	20259	56	-50.4	-85.3	136	3
2023-08-01T18:00	20279	56	-50.4	-85.3	146	3
2023-08-01T18:00	20297	56	-50.4	-84.4	155	3
2023-08-01T18:00	20314	56	-50.4	-82.9	164	3
2023-08-01T18:00	20337	56	-50.4	-81.7	172	2
2023-08-01T18:00	20355	55	-50.4	-80.7	182	1
2023-08-01T18:00	20368	55	-50.2	-80.1	204	1
2023-08-01T18:00	20391	55	-50.1	-80.5	289	1
2023-08-01T18:00	20411	55	-49.9	-81.3	324	1
2023-08-01T18:00	20429	55	-49.9	-82.5	333	1
2023-08-01T18:00	20457	55	-49.8	-84.0	337	1
2023-08-01T18:00	20471	54	-49.7	-83.9	342	1
2023-08-01T18:00	20491	54	-49.6	-84.7	346	1
2023-08-01T18:00	20516	54	-49.3	-84.5	298	0
2023-08-01T18:00	20535	54	-49.3	-84.5	197	1
2023-08-01T18:00	20556	54	-49.4	-84.6	207	1
2023-08-01T18:00	20572	54	-49.5	-84.6	219	2
2023-08-01T18:00	20596	53	-49.6	-84.7	231	2
2023-08-01T18:00	20619	53	-49.5	-83.7	242	2
2023-08-01T18:00	20639	53	-49.4	-82.9	253	3
2023-08-01T18:00	20655	53	-49.4	-82.9	263	3
2023-08-01T18:00	20678	53	-49.4	-82.9	273	3
2023-08-01T18:00	20702	53	-49.4	-82.9	285	2
2023-08-01T18:00	20722	52	-49.3	-83.6	299	2
2023-08-01T18:00	20749	52	-49.0	-84.3	317	2
2023-08-01T18:00	20772	52	-48.8	-84.1	338	2
2023-08-01T18:00	20794	52	-48.8	-85.2	1	2
2023-08-01T18:00	20811	52	-48.9	-84.2	21	2
2023-08-01T18:00	20840	52	-49.0	-84.3	39	2
2023-08-01T18:00	20863	51	-49.1	-84.3	54	2
2023-08-01T18:00	20884	51	-49.2	-84.4	66	2
2023-08-01T18:00	20905	51	-49.4	-84.6	78	2
2023-08-01T18:00	20932	51	-49.5	-84.6	90	2
2023-08-01T18:00	20955	51	-49.6	-84.7	102	3
2023-08-01T18:00	20982	50	-49.7	-84.8	114	3
2023-08-01T18:00	21006	50	-49.6	-84.7	125	3
2023-08-01T18:00	21029	50	-49.7	-84.8	135	3
2023-08-01T18:00	21055	50	-50.0	-85.0	144	3
2023-08-01T18:00	21079	50	-50.0	-84.1	152	4
2023-08-01T18:00	21106	49	-50.0	-84.1	159	3
2023-08-01T18:00	21128	49	-50.1	-84.2	167	3
2023-08-01T18:00	21150	49	-50.2	-84.2	175	3
2023-08-01T18:00	21178	49	-50.1	-84.2	184	2
2023-08-01T18:00	21197	49	-50.2	-84.2	195	2
2023-08-01T18:00	21225	49	-50.1	-83.4	218	1
2023-08-01T18:00	21251	48	-49.9	-83.2	295	1
2023-08-01T18:00	21273	48	-49.9	-82.5	343	1
2023-08-01T18:00	21298	48	-49.8	-81.8	359	2
2023-08-01T18:00	21319	48	-49.7	-82.4	11	2
2023-08-01T18:00	21345	48	-49.7	-83.1	22	2
2023-08-01T18:00	21365	48	-49.6	-83.8	35	3
2023-08-01T18:00	21390	47	-49.6	-84.7	48	3
2023-08-01T18:00	21412	47	-49.5	-84.6	59	4
2023-08-01T18:00	21434	47	-49.3	-84.5	69	4
2023-08-01T18:00	21458	47	-49.3	-84.5	77	4
2023-08-01T18:00	21485	47	-49.4	-84.6	85	5
2023-08-01T18:00	21504	47	-49.5	-84.6	92	5
2023-08-01T18:00	21526	46	-49.6	-84.7	98	5
2023-08-01T18:00	21552	46	-49.6	-84.7	105	5
2023-08-01T18:00	21577	46	-49.7	-84.8	110	6
2023-08-01T18:00	21598	46	-49.8	-84.8	116	6
2023-08-01T18:00	21621	46	-50.0	-85.0	120	6
2023-08-01T18:00	21642	46	-50.1	-85.1	125	7
2023-08-01T18:00	21664	45	-50.2	-85.1	128	7
2023-08-01T18:00	21686	45	-50.4	-85.3	132	8
2023-08-01T18:00	21710	45	-50.4	-85.3	136	8
2023-08-01T18:00	21731	45	-50.4	-85.3	139	8
2023-08-01T18:00	21755	45	-50.5	-84.5	143	9
2023-08-01T18:00	21773	45	-50.5	-84.5	147	9
2023-08-01T18:00	21796	45	-50.6	-83.7	151	9
2023-08-01T18:00	21818	44	-50.8	-83.2	156	9
2023-08-01T18:00	21841	44	-50.7	-83.1	160	8
2023-08-01T18:00	21864	44	-50.6	-83.1	165	8
2023-08-01T18:00	21884	44	-50.5	-83.7	168	8
2023-08-01T18:00	21910	44	-50.4	-84.4	172	7
2023-08-01T18:00	21931	44	-50.4	-84.4	175	7
2023-08-01T18:00	21949	43	-50.5	-85.3	178	6
2023-08-01T18:00	21973	43	-50.6	-85.4	181	6
2023-08-01T18:00	21995	43	-50.6	-85.4	183	6
2023-08-01T18:00	22013	43	-50.6	-84.5	184	6
2023-08-01T18:00	22043	43	-50.6	-84.5	184	5
2023-08-01T18:00	22063	43	-50.7	-84.6	182	5
2023-08-01T18:00	22088	43	-50.8	-84.7	180	5
2023-08-01T18:00	22110	42	-50.8	-84.7	179	5
2023-08-01T18:00	22133	42	-50.8	-83.9	179	5
2023-08-01T18:00	22160	42	-50.9	-84.0	181	5
2023-08-01T18:00	22178	42	-51.0	-83.3	185	5
2023-08-01T18:00	22206	42	-51.0	-83.3	190	5
2023-08-01T18:00	22229	42	-50.9	-83.3	197	5
2023-08-01T18:00	22255	42	-50.9	-84.0	203	5
2023-08-01T18:00	22279	41	-50.9	-84.0	209	4
2023-08-01T18:00	22303	41	-50.8	-84.7	216	4
2023-08-01T18:00	22326	41	-50.8	-84.7	223	3
2023-08-01T18:00	22348	41	-50.9	-85.6	231	3
2023-08-01T18:00	22376	41	-50.8	-85.6	240	2
2023-08-01T18:00	22401	41	-50.8	-85.6	251	2
2023-08-01T18:00	22421	40	-50.8	-85.6	264	2
2023-08-01T18:00	22448	40	-50.7	-85.5	279	1
2023-08-01T18:00	22474	40	-50.8	-86.6	299	1
2023-08-01T18:00	22498	40	-50.7	-85.5	327	1
2023-08-01T18:00	22522	40	-50.8	-85.6	5	1
2023-08-01T18:00	22553	40	-50.8	-84.7	41	1
2023-08-01T18:00	22572	40	-50.6	-84.5	66	1
2023-08-01T18:00	22599	39	-50.5	-84.5	86	2
2023-08-01T18:00	22621	39	-50.5	-84.5	104	2
2023-08-01T18:00	22641	39	-50.5	-84.5	120	2
2023-08-01T18:00	22670	39	-50.6	-85.4	134	2
2023-08-01T18:00	22688	39	-50.7	-85.5	146	3
2023-08-01T18:00	22715	39	-50.7	-86.5	157	3
2023-08-01T18:00	22739	39	-50.8	-86.6	165	3
2023-08-01T18:00	22762	38	-50.8	-86.6	173	3
2023-08-01T18:00	22784	38	-50.9	-86.7	181	3
2023-08-01T18:00	22812	38	-51.0	-85.7	188	3
2023-08-01T18:00	22831	38	-51.0	-85.7	199	2
2023-08-01T18:00	22851	38	-51.0	-86.7	214	2
2023-08-01T18:00	22875	38	-50.9	-86.7	241	1
2023-08-01T18:00	22894	38	-50.7	-86.5	280	1
2023-08-01T18:00	22915	37	-50.5	-86.4	312	2
2023-08-01T18:00	22939	37	-50.5	-86.4	331	2
2023-08-01T18:00	22962	37	-50.5	-86.4	344	3
2023-08-01T18:00	22986	37	-50.3	-86.2	356	3
2023-08-01T18:00	23002	37	-50.3	-85.2	7	4
2023-08-01T18:00	23026	37	-50.3	-85.2	19	4
2023-08-01T18:00	23042	37	-50.2	-85.1	31	5
2023-08-01T18:00	23066	37	-50.0	-85.0	42	5
2023-08-01T18:00	23090	37	-50.0	-86.0	51	5
2023-08-01T18:00	23106	36	-49.9	-86.0	59	6
2023-08-01T18:00	23125	36	-49.8	-85.9	65	6
2023-08-01T18:00	23150	36	-49.8	-85.9	72	6
2023-08-01T18:00	23169	36	-49.9	-86.0	77	5
2023-08-01T18:00	23194	36	-49.9	-86.0	81	5
2023-08-01T18:00	23213	36	-49.8	-85.9	83	5
2023-08-01T18:00	23234	36	-49.8	-85.9	84	4
2023-08-01T18:00	23255	36	-49.9	-86.0	83	3
2023-08-01T18:00	23272	35	-49.9	-86.0	79	3
2023-08-01T18:00	23295	35	-49.9	-86.0	75	2
2023-08-01T18:00	23319	35	-49.8	-85.9	73	2
2023-08-01T18:00	23335	35	-49.8	-85.9	75	3
2023-08-01T18:00	23359	35	-49.7	-84.8	81	3
2023-08-01T18:00	23386	35	-49.7	-83.9	89	3
2023-08-01T18:00	23403	35	-49.6	-83.0	98	4
2023-08-01T18:00	23430	35	-49.3	-82.1	106	5
2023-08-01T18:00	23457	35	-49.3	-82.1	113	5
2023-08-01T18:00	23479	34	-49.4	-82.2	119	6
2023-08-01T18:00	23498	34	-49.5	-82.3	123	6
2023-08-01T18:00	23533	34	-49.6	-83.0	127	6
2023-08-01T18:00	23557	34	-49.5	-83.7	130	6
2023-08-01T18:00	23579	34	-49.2	-84.4	134	5
2023-08-01T18:00	23606	34	-49.0	-85.3	137	5
2023-08-01T18:00	23627	34	-49.0	-85.3	140	5
2023-08-01T18:00	23655	33	-49.0	-85.3	143	4
2023-08-01T18:00	23686	33	-49.1	-85.4	146	4
2023-08-01T18:00	23713	33	-49.1	-85.4	148	4
2023-08-01T18:00	23743	33	-49.1	-85.4	150	3
2023-08-01T18:00	23773	33	-49.1	-85.4	150	3
2023-08-01T18:00	23793	33	-49.1	-85.4	145	2
2023-08-01T18:00	23829	33	-49.1	-85.4	133	2
2023-08-01T18:00	23851	32	-49.2	-85.5	116	3
2023-08-01T18:00	23883	32	-49.1	-85.4	105	3
2023-08-01T18:00	23914	32	-48.9	-85.3	101	5
2023-08-01T18:00	23944	32	-48.7	-85.1	101	6
2023-08-01T18:00	23977	32	-48.5	-85.0	102	7
2023-08-01T18:00	24004	32	-48.4	-84.9	105	7
2023-08-01T18:00	24032	32	-48.4	-84.9	106	8
2023-08-01T18:00	24062	31	-48.4	-84.9	107	8
2023-08-01T18:00	24090	31	-48.3	-84.8	108	9
2023-08-01T18:00	24117	31	-48.0	-84.6	107	9
2023-08-01T18:00	24147	31	-47.8	-84.5	106	9
2023-08-01T18:00	24179	31	-47.9	-84.6	105	10
2023-08-01T18:00	24207	31	-48.1	-84.7	105	11
2023-08-01T18:00	24232	31	-48.3	-84.8	105	12
2023-08-01T18:00	24269	31	-48.4	-84.9	105	12
2023-08-01T18:00	24297	30	-48.5	-85.0	106	12
2023-08-01T18:00	24314	30	-48.6	-85.0	107	12
2023-08-01T18:00	24346	30	-48.7	-85.1	108	12
2023-08-01T18:00	24377	30	-48.8	-85.2	110	12
2023-08-01T18:00	24398	30	-49.0	-85.3	111	11
2023-08-01T18:00	24427	30	-49.2	-85.5	113	11
2023-08-01T18:00	24449	30	-49.3	-85.5	115	10
2023-08-01T18:00	24471	30	-49.3	-85.5	116	10
2023-08-01T18:00	24496	29	-49.3	-85.5	117	10
2023-08-01T18:00	24520	29	-49.4	-85.6	119	10
2023-08-01T18:00	24538	29	-49.4	-85.6	120	9
2023-08-01T18:00	24558	29	-49.5	-85.7	122	9
2023-08-01T18:00	24584	29	-49.5	-85.7	124	9
2023-08-01T18:00	24600	29	-49.5	-85.7	127	8
2023-08-01T18:00	24636	29	-49.4	-85.6	130	8
2023-08-01T18:00	24653	29	-49.2	-85.5	133	7
2023-08-01T18:00	24676	29	-49.0	-85.3	135	7
2023-08-01T18:00	24697	29	-48.9	-85.3	136	6
2023-08-01T18:00	24720	28	-48.8	-85.2	136	6
2023-08-01T18:00	24740	28	-48.7	-85.1	135	6
2023-08-01T18:00	24762	28	-48.7	-85.1	132	6
2023-08-01T18:00	24782	28	-48.7	-85.1	127	6
2023-08-01T18:00	24812	28	-48.6	-85.0	121	7
2023-08-01T18:00	24828	28	-48.4	-84.9	115	8
2023-08-01T18:00	24857	28	-48.3	-84.8	111	9
2023-08-01T18:00	24879	28	-48.3	-84.8	108	10
2023-08-01T18:00	24897	28	-48.3	-84.8	106	10
2023-08-01T18:00	24921	28	-48.2	-84.8	105	11
2023-08-01T18:00	24946	28	-48.1	-84.7	105	11
2023-08-01T18:00	24972	27	-48.1	-84.7	106	11
2023-08-01T18:00	24989	27	-48.1	-84.7	106	11
2023-08-01T18:00	25013	27	-48.1	-84.7	107	11
2023-08-01T18:00	25037	27	-47.9	-84.6	107	10
2023-08-01T18:00	25071	27	-47.7	-84.4	107	10
2023-08-01T18:00	25090	27	-47.5	-84.3	106	9
2023-08-01T18:00	25118	27	-47.3	-84.1	105	9
2023-08-01T18:00	25147	27	-47.2	-84.1	105	9
2023-08-01T18:00	25173	27	-47.1	-84.0	105	9
2023-08-01T18:00	25200	26	-47.0	-83.9	106	9
2023-08-01T18:00	25227	26	-46.9	-83.9	108	9
2023-08-01T18:00	25257	26	-46.9	-83.9	111	9
2023-08-01T18:00	25290	26	-46.9	-83.9	115	8
2023-08-01T18:00	25311	26	-46.9	-83.9	119	8
2023-08-01T18:00	25337	26	-46.8	-83.8	122	8
2023-08-01T18:00	25365	26	-46.8	-83.8	125	8
2023-08-01T18:00	25392	26	-46.8	-83.8	126	7
2023-08-01T18:00	25426	26	-46.9	-83.9	127	7
2023-08-01T18:00	25453	25	-46.9	-83.9	127	6
2023-08-01T18:00	25477	25	-46.9	-83.9	125	6
2023-08-01T18:00	25505	25	-46.9	-83.9	123	6
2023-08-01T18:00	25536	25	-46.9	-83.9	121	6
2023-08-01T18:00	25566	25	-46.7	-83.7	120	7
2023-08-01T18:00	25596	25	-46.6	-83.6	122	7
2023-08-01T18:00	25619	25	-46.5	-83.6	125	8
2023-08-01T18:00	25646	25	-46.6	-83.6	127	8
2023-08-01T18:00	25674	25	-46.7	-83.7	129	8
2023-08-01T18:00	25705	25	-46.7	-83.7	129	8
2023-08-01T18:00	25728	24	-46.7	-83.7	127	8
2023-08-01T18:00	25758	24	-46.6	-83.6	124	8
2023-08-01T18:00	25781	24	-46.6	-83.6	121	8
2023-08-01T18:00	25821	24	-46.5	-83.6	119	7
2023-08-01T18:00	25836	24	-46.5	-83.6	119	7
2023-08-01T18:00	25855	24	-46.4	-83.5	119	7
2023-08-01T18:00	25880	24	-46.5	-83.6	120	6
2023-08-01T18:00	25907	24	-46.6	-83.6	121	6
2023-08-01T18:00	25926	24	-46.7	-83.7	121	6
2023-08-01T18:00	25947	24	-46.7	-83.7	122	6
2023-08-01T18:00	25974	24	-46.5	-83.6	121	5
2023-08-01T18:00	25995	23	-46.3	-83.4	120	5
2023-08-01T18:00	26017	23	-46.2	-83.4	117	5
2023-08-01T18:00	26043	23	-46.2	-83.4	113	5
2023-08-01T18:00	26064	23	-46.0	-83.2	108	5
2023-08-01T18:00	26084	23	-45.8	-83.1	104	5
2023-08-01T18:00	26111	23	-45.7	-83.0	100	6
2023-08-01T18:00	26129	23	-45.6	-82.9	97	6
2023-08-01T18:00	26154	23	-45.7	-83.0	95	7
2023-08-01T18:00	26174	23	-45.6	-82.9	95	7
2023-08-01T18:00	26194	23	-45.4	-82.8	94	8
2023-08-01T18:00	26222	23	-45.4	-82.8	95	8
2023-08-01T18:00	26237	23	-45.6	-82.9	96	8
2023-08-01T18:00	26267	23	-45.6	-82.9	97	8
2023-08-01T18:00	26289	22	-45.6	-82.9	99	8
2023-08-01T18:00	26313	22	-45.7	-83.0	102	8
2023-08-01T18:00	26336	22	-45.7	-83.0	105	7
2023-08-01T18:00	26358	22	-45.7	-83.0	107	7
2023-08-01T18:00	26385	22	-45.8	-83.1	110	7
2023-08-01T18:00	26405	22	-45.8	-83.1	111	7
2023-08-01T18:00	26434	22	-45.8	-83.1	112	7
2023-08-01T18:00	26463	22	-45.6	-82.9	112	6
2023-08-01T18:00	26489	22	-45.3	-82.7	112	7
2023-08-01T18:00	26511	22	-45.1	-82.6	112	7
2023-08-01T18:00	26542	22	-44.9	-82.5	113	7
2023-08-01T18:00	26574	22	-44.9	-82.5	114	7
2023-08-01T18:00	26604	21	-44.8	-82.4	116	8
2023-08-01T18:00	26627	21	-44.8	-82.4	118	8
2023-08-01T18:00	26649	21	-44.8	-82.4	120	9
2023-08-01T18:00	26691	21	-44.9	-82.5	123	9
2023-08-01T18:00	26719	21	-45.1	-82.6	125	9
2023-08-01T18:00	26750	21	-45.2	-82.7	127	9
2023-08-01T18:00	26778	21	-45.4	-82.8	129	8
2023-08-01T18:00	26812	21	-45.5	-82.9	130	8
2023-08-01T18:00	26846	21	-45.5	-82.9	132	7
2023-08-01T18:00	26891	21	-45.6	-82.9	134	7
2023-08-01T18:00	26913	20	-45.6	-82.9	136	6
2023-08-01T18:00	26948	20	-45.6	-82.9	140	6
2023-08-01T18:00	26981	20	-45.6	-82.9	144	5
2023-08-01T18:00	27006	20	-45.8	-83.1	149	5
2023-08-01T18:00	27047	20	-45.8	-83.1	153	5
2023-08-01T18:00	27087	20	-45.9	-83.2	154	4
2023-08-01T18:00	27112	20	-45.8	-83.1	152	4
2023-08-01T18:00	27140	20	-45.7	-83.0	147	3
2023-08-01T18:00	27182	20	-45.6	-82.9	140	3
2023-08-01T18:00	27215	20	-45.8	-83.1	133	2
2023-08-01T18:00	27244	19	-45.9	-83.2	128	2
2023-08-01T18:00	27278	19	-46.0	-83.2	130	1
2023-08-01T18:00	27298	19	-46.0	-83.2	140	1
2023-08-01T18:00	27334	19	-46.0	-83.2	151	1
2023-08-01T18:00	27364	19	-46.0	-83.2	131	0
2023-08-01T18:00	27407	19	-45.9	-83.2	58	1
2023-08-01T18:00	27425	19	-45.8	-83.1	38	1
2023-08-01T18:00	27455	19	-45.8	-83.1	33	2
2023-08-01T18:00	27480	19	-45.7	-83.0	31	3
2023-08-01T18:00	27524	19	-45.6	-82.9	31	4
2023-08-01T18:00	27547	19	-45.5	-82.9	32	5
2023-08-01T18:00	27584	19	-45.5	-82.9	34	5
2023-08-01T18:00	27609	18	-45.6	-82.9	38	6
2023-08-01T18:00	27629	18	-45.4	-82.8	43	6
2023-08-01T18:00	27659	18	-45.5	-82.9	47	6
2023-08-01T18:00	27674	18	-45.6	-82.9	51	6
2023-08-01T18:00	27710	18	-45.8	-83.1	55	7
2023-08-01T18:00	27736	18	-45.8	-83.1	57	7
2023-08-01T18:00	27765	18	-45.8	-83.1	59	8
2023-08-01T18:00	27774	18	-45.9	-83.2	62	8
2023-08-01T18:00	27816	18	-45.9	-83.2	65	8
2023-08-01T18:00	27841	18	-45.9	-83.2	67	8
2023-08-01T18:00	27864	18	-45.9	-83.2	70	8
2023-08-01T18:00	27880	18	-45.9	-83.2	71	8
2023-08-01T18:00	27905	18	-45.8	-83.1	72	8
2023-08-01T18:00	27936	18	-45.7	-83.0	72	8
2023-08-01T18:00	27953	18	-45.7	-83.0	72	8
2023-08-01T18:00	27984	17	-45.7	-83.0	73	8
2023-08-01T18:00	28004	17	-45.6	-82.9	76	8
2023-08-01T18:00	28026	17	-45.5	-82.9	80	8
2023-08-01T18:00	28046	17	-45.4	-82.8	84	8
2023-08-01T18:00	28077	17	-45.4	-82.8	87	8
2023-08-01T18:00	28098	17	-45.3	-82.7	89	8
2023-08-01T18:00	28129	17	-45.3	-82.7	89	8
2023-08-01T18:00	28148	17	-45.3	-82.7	87	8
2023-08-01T18:00	28176	17	-45.3	-82.7	84	9
2023-08-01T18:00	28194	17	-45.4	-82.8	80	9
2023-08-01T18:00	28218	17	-45.3	-82.7	76	9
2023-08-01T18:00	28242	17	-45.0	-82.5	72	9
2023-08-01T18:00	28274	17	-44.8	-82.4	69	9
2023-08-01T18:00	28294	17	-44.7	-82.3	67	9
2023-08-01T18:00	28327	17	-44.5	-82.2	65	9
2023-08-01T18:00	28352	17	-44.3	-82.0	63	9
2023-08-01T18:00	28385	16	-44.1	-81.9	60	8
2023-08-01T18:00	28409	16	-44.1	-81.9	57	8
2023-08-01T18:00	28442	16	-44.1	-81.9	53	8
2023-08-01T18:00	28462	16	-44.1	-81.9	50	8
2023-08-01T18:00	28491	16	-44.1	-81.9	48	9
2023-08-01T18:00	28517	16	-44.0	-81.8	47	10
2023-08-01T18:00	28551	16	-43.9	-81.8	46	10
2023-08-01T18:00	28579	16	-43.9	-81.8	46	11
2023-08-01T18:00	28610	16	-43.8	-81.7	47	11
2023-08-01T18:00	28635	16	-43.8	-81.7	49	11
2023-08-01T18:00	28662	16	-43.8	-81.7	51	11
2023-08-01T18:00	28677	16	-44.0	-81.8	53	12
2023-08-01T18:00	28703	16	-44.1	-81.9	56	12
2023-08-01T18:00	28751	16	-44.2	-82.0	59	12
2023-08-01T18:00	28784	16	-44.2	-82.0	62	12
2023-08-01T18:00	28810	15	-44.3	-82.0	65	12
2023-08-01T18:00	28844	15	-44.4	-82.1	69	12
2023-08-01T18:00	28870	15	-44.5	-82.2	73	12
2023-08-01T18:00	28903	15	-44.5	-82.2	77	12
2023-08-01T18:00	28927	15	-44.6	-82.2	80	12
2023-08-01T18:00	28946	15	-44.7	-82.3	83	12
2023-08-01T18:00	28990	15	-44.7	-82.3	84	11
2023-08-01T18:00	29018	15	-44.6	-82.2	85	11
2023-08-01T18:00	29049	15	-44.5	-82.2	84	10
2023-08-01T18:00	29084	15	-44.5	-82.2	83	10
2023-08-01T18:00	29110	15	-44.4	-82.1	81	9
2023-08-01T18:00	29133	15	-44.4	-82.1	79	9
2023-08-01T18:00	29156	15	-44.2	-82.0	77	8
2023-08-01T18:00	29187	15	-44.0	-81.8	75	8
2023-08-01T18:00	29222	15	-44.0	-81.8	74	8
2023-08-01T18:00	29249	14	-43.9	-81.8	74	8
2023-08-01T18:00	29280	14	-43.9	-81.8	73	9
2023-08-01T18:00	29306	14	-43.8	-81.7	73	9
2023-08-01T18:00	29341	14	-43.8	-81.7	74	9
2023-08-01T18:00	29363	14	-43.9	-81.8	75	9
2023-08-01T18:00	29384	14	-43.9	-81.8	77	9
2023-08-01T18:00	29410	14	-43.9	-81.8	79	8
2023-08-01T18:00	29438	14	-43.9	-81.8	81	8
2023-08-01T18:00	29462	14	-43.9	-81.8	82	8
2023-08-01T18:00	29490	14	-43.6	-81.5	82	7
2023-08-01T18:00	29512	14	-43.4	-81.4	83	7
2023-08-01T18:00	29539	14	-43.2	-81.3	83	6
2023-08-01T18:00	29563	14	-43.2	-81.3	84	5
2023-08-01T18:00	29598	14	-43.1	-81.2	86	5
2023-08-01T18:00	29628	14	-43.1	-81.2	89	4
2023-08-01T18:00	29649	14	-43.2	-81.3	94	3
2023-08-01T18:00	29672	14	-43.3	-81.3	99	3
2023-08-01T18:00	29701	14	-43.4	-81.4	101	3
2023-08-01T18:00	29729	13	-43.3	-81.3	97	3
2023-08-01T18:00	29754	13	-43.1	-81.2	86	3
2023-08-01T18:00	29776	13	-42.9	-81.1	74	3
2023-08-01T18:00	29821	13	-42.8	-81.0	64	4
2023-08-01T18:00	29834	13	-42.7	-80.9	57	5
2023-08-01T18:00	29854	13	-42.6	-80.8	53	6
2023-08-01T18:00	29878	13	-42.2	-80.6	49	7
2023-08-01T18:00	29910	13	-42.1	-80.5	47	8
2023-08-01T18:00	29939	13	-42.1	-80.5	46	9
2023-08-01T18:00	29954	13	-42.0	-80.4	46	9
2023-08-01T18:00	29978	13	-41.8	-80.3	48	9
2023-08-01T18:00	30008	13	-41.7	-80.2	50	9
2023-08-01T18:00	30039	13	-41.6	-80.1	52	10
2023-08-01T18:00	30055	13	-41.7	-80.2	54	10
2023-08-01T18:00	30090	13	-41.7	-80.2	55	10
2023-08-01T18:00	30115	13	-41.8	-80.3	55	10
2023-08-01T18:00	30151	13	-41.8	-80.3	55	10
2023-08-01T18:00	30175	13	-41.8	-80.3	54	11
2023-08-01T18:00	30210	13	-41.8	-80.3	54	11
2023-08-01T18:00	30238	12	-41.8	-80.3	55	11
2023-08-01T18:00	30266	12	-41.9	-80.4	56	11
2023-08-01T18:00	30288	12	-42.0	-80.4	59	11
2023-08-01T18:00	30301	12	-41.9	-80.4	63	11
2023-08-01T18:00	30344	12	-41.9	-80.4	68	11
2023-08-01T18:00	30370	12	-42.0	-80.4	73	11
2023-08-01T18:00	30401	12	-42.0	-80.4	78	12
2023-08-01T18:00	30433	12	-42.0	-80.4	83	12
2023-08-01T18:00	30457	12	-42.0	-80.4	87	13
2023-08-01T18:00	30476	12	-42.1	-80.5	91	13
2023-08-01T18:00	30496	12	-42.1	-80.5	93	13
2023-08-01T18:00	30531	12	-42.1	-80.5	94	13
2023-08-01T18:00	30558	12	-41.8	-80.3	94	13
2023-08-01T18:00	30587	12	-41.2	-79.9	92	13
2023-08-01T18:00	30619	12	-40.9	-79.7	90	12
2023-08-01T18:00	30656	12	-40.7	-79.5	89	11
2023-08-01T18:00	30670	12	-40.7	-79.5	88	10
2023-08-01T18:00	30715	12	-40.6	-79.5	87	10
2023-08-01T18:00	30731	12	-40.5	-79.4	88	9
2023-08-01T18:00	30765	12	-40.3	-79.2	88	9
2023-08-01T18:00	30778	12	-40.2	-79.2	87	9
2023-08-01T18:00	30822	11	-40.0	-79.0	85	9
2023-08-01T18:00	30833	11	-39.7	-78.8	83	9
2023-08-01T18:00	30872	11	-39.5	-78.7	80	10
2023-08-01T18:00	30892	11	-39.5	-78.7	78	10
2023-08-01T18:00	30922	11	-39.2	-78.5	76	11
2023-08-01T18:00	30943	11	-39.1	-78.4	76	11
2023-08-01T18:00	30981	11	-39.0	-78.3	76	12
2023-08-01T18:00	31000	11	-38.9	-78.3	77	12
2023-08-01T18:00	31026	11	-38.8	-78.2	77	13
2023-08-01T18:00	31052	11	-38.8	-78.2	78	13
2023-08-01T18:00	31076	11	-38.6	-78.1	78	13
2023-08-01T18:00	31113	11	-38.5	-78.0	78	13
2023-08-01T18:00	31134	11	-38.4	-77.9	78	13
2023-08-01T18:00	31149	11	-38.2	-77.8	79	12
2023-08-01T18:00	31180	11	-38.1	-77.7	80	12
2023-08-01T18:00	31198	11	-38.0	-77.6	82	12
2023-08-01T18:00	31216	11	-37.8	-77.5	85	12
2023-08-01T18:00	31247	11	-37.4	-77.2	89	12
2023-08-01T18:00	31256	11	-37.1	-77.0	93	12
2023-08-01T18:00	31291	11	-37.1	-77.0	96	12
2023-08-01T18:00	31317	11	-37.0	-77.0	97	12
2023-08-01T18:00	31364	11	-36.8	-76.8	97	13
2023-08-01T18:00	31384	11	-36.7	-76.7	96	13
2023-08-01T18:00	31402	11	-36.5	-76.6	93	13
2023-08-01T18:00	31434	10	-36.3	-76.5	91	13
2023-08-01T18:00	31464	10	-36.2	-76.4	88	13
2023-08-01T18:00	31500	10	-36.2	-76.4	86	13
2023-08-01T18:00	31511	10	-36.4	-76.5	84	13
2023-08-01T18:00	31538	10	-36.4	-76.5	82	13
2023-08-01T18:00	31575	10	-36.4	-76.5	80	13
2023-08-01T18:00	31605	10	-36.3	-76.5	78	13
2023-08-01T18:00	31618	10	-36.2	-76.4	76	13
2023-08-01T18:00	31671	10	-36.1	-76.3	74	13
2023-08-01T18:00	31703	10	-36.1	-76.3	73	13
2023-08-01T18:00	31726	10	-35.9	-76.2	72	13
2023-08-01T18:00	31752	10	-36.0	-76.3	73	13
2023-08-01T18:00	31788	10	-35.9	-76.2	75	13
2023-08-01T18:00	31826	10	-35.9	-76.2	76	13
2023-08-01T18:00	31838	10	-35.9	-76.2	77	13
2023-08-01T18:00	31885	10	-35.9	-76.2	77	13
2023-08-01T18:00	31903	10	-36.0	-76.3	75	13
2023-08-01T18:00	31943	10	-35.8	-76.1	74	14
2023-08-01T18:00	31979	10	-35.6	-76.0	72	14
2023-08-01T18:00	32020	10	-35.5	-75.9	72	14
2023-08-01T18:00	32051	10	-35.5	-75.9	71	15
2023-08-01T18:00	32077	10	-35.5	-75.9	71	15
2023-08-01T18:00	32104	10	-35.6	-76.0	72	16
2023-08-01T18:00	32145	9	-35.6	-76.0	72	17
2023-08-01T18:00	32190	9	-35.7	-76.1	73	17
2023-08-01T18:00	32203	9	-35.8	-76.1	74	18
2023-08-01T18:00	32223	9	-35.9	-76.2	75	18
2023-08-01T18:00	32242	9	-36.0	-76.3	77	19
2023-08-01T18:00	32280	9	-35.9	-76.2	79	19
2023-08-01T18:00	32334	9	-35.8	-76.1	82	18
2023-08-01T18:00	32364	9	-35.8	-76.1	84	18
2023-08-01T18:00	32390	9	-35.6	-76.0	87	18
2023-08-01T18:00	32418	9	-35.5	-75.9	89	17
2023-08-01T18:00	32441	9	-35.5	-75.9	91	16
2023-08-01T18:00	32475	9	-35.6	-76.0	93	16
2023-08-01T18:00	32521	9	-35.8	-76.1	94	15
2023-08-01T18:00	32567	9	-35.9	-76.2	95	14
2023-08-01T18:00	32598	9	-36.0	-76.3	96	13
2023-08-01T18:00	32622	9	-36.2	-76.4	96	12
2023-08-01T18:00	32656	9	-36.3	-76.5	96	12
2023-08-01T18:00	32673	9	-36.2	-76.4	94	11
2023-08-01T18:00	32731	9	-36.2	-76.4	92	10
2023-08-01T18:00	32757	9	-36.3	-76.5	90	10
2023-08-01T18:00	32791	9	-36.2	-76.4	86	9
2023-08-01T18:00	32840	9	-36.0	-76.3	82	9
2023-08-01T18:00	32862	9	-35.9	-76.2	78	9
2023-08-01T18:00	32881	9	-35.7	-76.1	73	10
2023-08-01T18:00	32902	8	-35.6	-76.0	70	10
2023-08-01T18:00	32933	8	-35.6	-76.0	67	11
2023-08-01T18:00	32959	8	-35.4	-75.8	65	12
2023-08-01T18:00	32994	8	-35.2	-75.7	64	12
2023-08-01T18:00	33023	8	-35.2	-75.7	63	13
2023-08-01T18:00	33026	8	-35.1	-75.6	63	13
2023-08-01T18:00	33070	8	-35.1	-75.6	64	13
2023-08-01T18:00	33085	8	-35.0	-75.6	65	13
2023-08-01T18:00	33121	8	-34.9	-75.5	67	13
2023-08-01T18:00	33123	8	-34.8	-75.4	69	13
2023-08-01T18:00	33158	8	-34.8	-75.4	72	12
2023-08-01T18:00	33211	8	-34.8	-75.4	75	12
2023-08-01T18:00	33235	8	-34.8	-75.4	79	12
2023-08-01T18:00	33257	8	-34.8	-75.4	84	13
2023-08-01T18:00	33297	8	-34.9	-75.5	85	13
2023-08-01T18:00	33325	8	-34.9	-75.5	85	13
2023-08-01T18:00	33346	8	-34.9	-75.5	85	14
2023-08-01T18:00	33375	8	-34.8	-75.4	85	14
2023-08-01T18:00	33382	8	-34.7	-75.4	85	15
2023-08-01T18:00	33433	8	-34.6	-75.3	84	15
2023-08-01T18:00	33465	8	-34.5	-75.2	84	15
2023-08-01T18:00	33479	8	-34.5	-75.2	85	16
2023-08-01T18:00	33504	8	-34.5	-75.2	86	16
2023-08-01T18:00	33542	8	-34.5	-75.2	88	15
2023-08-01T18:00	33551	8	-34.4	-75.2	90	15
2023-08-01T18:00	33580	8	-34.5	-75.2	91	15
2023-08-01T18:00	33636	8	-34.4	-75.2	91	15
2023-08-01T18:00	33657	8	-34.4	-75.2	90	16
2023-08-01T18:00	33680	8	-34.3	-75.1	88	16
2023-08-01T18:00	33710	8	-34.2	-75.0	87	16
2023-08-01T18:00	33725	8	-34.1	-75.0	87	16
2023-08-01T18:00	33793	8	-34.0	-74.9	87	15
2023-08-01T18:00	33801	7	-33.8	-74.7	87	14
2023-08-01T18:00	33842	7	-33.6	-74.6	87	14
2023-08-01T18:00	33884	7	-33.7	-74.7	86	13
2023-08-01T18:00	33913	7	-33.6	-74.6	85	13
2023-08-01T18:00	33929	7	-33.7	-74.7	84	12
2023-08-01T18:00	33974	7	-33.8	-74.7	83	11
2023-08-01T18:00	33992	7	-33.9	-74.8	84	11
2023-08-01T18:00	34041	7	-34.2	-75.0	86	11
2023-08-01T18:00	34069	7	-34.2	-75.0	88	11
2023-08-01T18:00	34097	7	-34.0	-74.9	91	11
2023-08-01T18:00	34125	7	-34.0	-74.9	93	11
2023-08-01T18:00	34167	7	-34.0	-74.9	95	12
2023-08-01T18:00	34211	7	-34.2	-75.0	96	12
2023-08-01T18:00	34217	7	-34.2	-75.0	97	13
2023-08-01T18:00	34266	7	-34.4	-75.2	98	13
2023-08-01T18:00	34282	7	-34.4	-75.2	99	14
2023-08-01T18:00	34315	7	-34.5	-75.2	100	14
2023-08-01T18:00	34349	7	-34.4	-75.2	102	14
2023-08-01T18:00	34373	7	-33.9	-74.8	104	13
2023-08-01T18:00	34412	7	-33.8	-74.7	106	13
2023-08-01T18:00	34442	7	-33.7	-74.7	109	13
2023-08-01T18:00	34476	7	-33.7	-74.7	111	12
2023-08-01T18:00	34500	7	-33.7	-74.7	113	12
2023-08-01T18:00	34526	7	-33.5	-74.5	115	11
2023-08-01T18:00	34555	7	-33.2	-74.3	117	10
2023-08-01T18:00	34590	7	-33.2	-74.3	118	10
2023-08-01T18:00	34599	7	-33.1	-74.3	118	10
2023-08-01T18:00	34642	7	-33.0	-74.2	115	9
2023-08-01T18:00	34679	7	-32.7	-74.0	112	9
2023-08-01T18:00	34693	7	-32.4	-73.8	110	9
2023-08-01T18:00	34715	7	-31.9	-73.4	109	8
2023-08-01T18:00	34724	7	-31.5	-73.2	111	8
2023-08-01T18:00	34759	7	-31.4	-73.1	112	9
2023-08-02T00:00	114	989	14.4	12.4	242	4
2023-08-02T00:00	141	986	15.0	11.9	244	5
2023-08-02T00:00	169	983	15.6	11.7	243	7
2023-08-02T00:00	196	980	15.8	11.5	244	9
2023-08-02T00:00	219	977	15.7	11.4	246	10
2023-08-02T00:00	250	973	15.5	11.2	249	12
2023-08-02T00:00	274	970	16.2	10.7	252	13
2023-08-02T00:00	300	967	16.1	10.5	255	14
2023-08-02T00:00	331	964	16.0	10.4	257	15
2023-08-02T00:00	359	961	15.8	10.3	259	15
2023-08-02T00:00	383	958	15.7	10.3	262	16
2023-08-02T00:00	408	955	15.5	10.3	264	16
2023-08-02T00:00	434	953	15.3	10.4	266	17
2023-08-02T00:00	457	950	15.2	10.5	267	17
2023-08-02T00:00	482	947	14.9	10.3	268	17
2023-08-02T00:00	501	945	14.8	10.3	268	17
2023-08-02T00:00	521	943	14.7	10.4	268	17
2023-08-02T00:00	544	940	14.5	10.3	267	17
2023-08-02T00:00	570	937	14.3	10.1	266	16
2023-08-02T00:00	595	934	14.1		266	16
2023-08-02T00:00	626	931	13.9	10.0	265	16
2023-08-02T00:00	654	928	13.6	9.8	264	16
2023-08-02T00:00	683	925	13.4	10.0	263	16
2023-08-02T00:00	706	922	13.2	9.9	263	16
2023-08-02T00:00	735	919	13.0	9.5	263	16
2023-08-02T00:00	760	916	12.9	9.4	263	16
2023-08-02T00:00	782	914	12.7	9.4	263	15
2023-08-02T00:00	808	911	12.4	9.2	262	15
2023-08-02T00:00	835	908	12.2	9.1	261	15
2023-08-02T00:00	854	906	12.0	9.0	262	15
2023-08-02T00:00	876	904	11.9	9.0	263	15
2023-08-02T00:00	902	901	11.6	8.6	264	15
2023-08-02T00:00	927	898	11.4	8.6	266	15
2023-08-02T00:00	952	896	11.2	8.5	268	15
2023-08-02T00:00	977	893	11.0	8.4	269	15
2023-08-02T00:00	999	891	10.8	8.3	269	15
2023-08-02T00:00	1023	888	10.5	8.0	269	14
2023-08-02T00:00	1046	886	10.3	7.8	269	14
2023-08-02T00:00	1071	883	10.2	7.7	269	14
2023-08-02T00:00	1099	880	9.9	7.6	269	14
2023-08-02T00:00	1125	877	9.7	7.9	268	14
2023-08-02T00:00	1153	875	9.4	7.6	268	14
2023-08-02T00:00	1179	872	9.2	7.6	267	13
2023-08-02T00:00	1202	869	9.0	7.6	265	13
2023-08-02T00:00	1224	867	8.8	7.6	264	13
2023-08-02T00:00	1255	864	8.5	7.3	264	13
2023-08-02T00:00	1280	861	8.4	7.4	265	13
2023-08-02T00:00	1310	858	8.1	7.2	266	13
2023-08-02T00:00	1332	855	8.0	7.1	267	12
2023-08-02T00:00	1361	853	7.8	6.7	268	12
2023-08-02T00:00	1387	850	7.6	6.8	269	12
2023-08-02T00:00	1423	846	7.4	6.3	268	12
2023-08-02T00:00	1449	843	7.4	5.7	267	12
2023-08-02T00:00	1477	841	7.2	5.4	266	12
2023-08-02T00:00	1503	838	7.0		265	13
2023-08-02T00:00	1529	835	6.8	5.2	265	13
2023-08-02T00:00	1551	833	6.6	5.3	265	13
2023-08-02T00:00	1575	831	6.4	5.4	266	13
2023-08-02T00:00	1599	828	6.3	4.7	265	13
2023-08-02T00:00	1627	826	6.2	4.3	265	13
2023-08-02T00:00	1651	823	6.2	3.7	265	13
2023-08-02T00:00	1676	821	6.0	3.2	266	13
2023-08-02T00:00	1701	818	5.9	2.5	266	13
2023-08-02T00:00	1722	816	5.8	2.5	267	14
2023-08-02T00:00	1748	813	5.6	2.4	267	14
2023-08-02T00:00	1775	811	5.4	3.0	267	14
2023-08-02T00:00	1803	808	5.3	2.8	267	15
2023-08-02T00:00	1828	805	5.1	2.7	266	15
2023-08-02T00:00	1856	803	5.0	2.4	265	14
2023-08-02T00:00	1880	800	4.9	2.5	264	14
2023-08-02T00:00	1905	798	4.7	2.5	264	14
2023-08-02T00:00	1931	796	4.5	2.4	263	13
2023-08-02T00:00	1952	793	4.3	2.4	262	13
2023-08-02T00:00	1973	791	4.2	2.4	261	13
2023-08-02T00:00	1996	789	3.9	2.3	260	12
2023-08-02T00:00	2022	787	3.7	2.2	259	12
2023-08-02T00:00	2042	785	3.7	1.8	259	11
2023-08-02T00:00	2062	783	3.7	1.7	258	10
2023-08-02T00:00	2079	781	3.8	1.2	259	10
2023-08-02T00:00	2101	779	3.7	1.0	260	10
2023-08-02T00:00	2119	777	3.6	0.9	260	11
2023-08-02T00:00	2140	775	3.5	0.8	259	11
2023-08-02T00:00	2161	773	3.4	0.7	257	12
2023-08-02T00:00	2180	771	3.3	0.5	255	12
2023-08-02T00:00	2198	770	3.2	0.6	253	11
2023-08-02T00:00	2219	768	3.1	0.4	253	11
2023-08-02T00:00	2244	765	2.8	0.3	254	11
2023-08-02T00:00	2271	763	2.7	-0.1	256	11
2023-08-02T00:00	2293	761	2.6	0.1	257	11
2023-08-02T00:00	2313	759	2.5	-0.4	258	11
2023-08-02T00:00	2338	756	2.3	-0.8	259	12
2023-08-02T00:00	2369	754	2.1	-0.9	259	12
2023-08-02T00:00	2397	751	1.9	-1.1	259	12
2023-08-02T00:00	2427	748	1.8	-1.2	260	12
2023-08-02T00:00	2459	745	1.6	-1.2	260	11
2023-08-02T00:00	2488	743	1.4	-1.4	260	11
2023-08-02T00:00	2511	740	1.2	-1.5	259	11
2023-08-02T00:00	2534	738	1.0	-1.5	259	11
2023-08-02T00:00	2559	736	0.8	-1.5	258	11
2023-08-02T00:00	2588	733	0.5	-1.5	258	11
2023-08-02T00:00	2613	731	0.3	-1.5	258	12
2023-08-02T00:00	2636	729	0.3	-2.0	258	12
2023-08-02T00:00	2666	726	0.1	-1.2	258	12
2023-08-02T00:00	2696	724	0.2	-1.7	258	12
2023-08-02T00:00	2724	721	0.1	-1.9	258	12
2023-08-02T00:00	2753	719	-0.2	-2.0	258	12
2023-08-02T00:00	2777	716	-0.4	-1.9	258	13
2023-08-02T00:00	2805	714	-0.5	-2.1	258	13
2023-08-02T00:00	2834	711	-0.6	-2.6	259	13
2023-08-02T00:00	2857	709	-0.7	-2.6	260	13
2023-08-02T00:00	2879	707	-0.9	-2.8	261	13
2023-08-02T00:00	2900	705	-0.9	-2.9	261	13
2023-08-02T00:00	2932	703	-1.0	-3.1	260	14
2023-08-02T00:00	2955	701	-1.2	-3.1	259	14
2023-08-02T00:00	2976	699	-1.3	-3.5	258	15
2023-08-02T00:00	3004	696	-1.5	-3.7	256	15
2023-08-02T00:00	3029	694	-1.7	-3.7	255	14
2023-08-02T00:00	3055	692	-1.9	-3.5	255	14
2023-08-02T00:00	3075	690	-2.0	-3.8	255	14
2023-08-02T00:00	3105	687	-2.0	-4.5	256	13
2023-08-02T00:00	3138	685	-2.1	-6.4	257	13
2023-08-02T00:00	3162	683	-2.3	-6.6	258	13
2023-08-02T00:00	3187	681	-2.4	-8.2	258	13
2023-08-02T00:00	3209	678	-2.5	-8.4	259	13
2023-08-02T00:00	3232	677	-2.8	-8.6	260	13
2023-08-02T00:00	3254	675	-2.9	-8.7	262	13
2023-08-02T00:00	3275	673	-3.0	-8.5	262	13
2023-08-02T00:00	3299	671	-2.9	-9.3	261	13
2023-08-02T00:00	3327	668	-3.0	-8.3	258	13
2023-08-02T00:00	3360	666	-3.0	-10.3	255	13
2023-08-02T00:00	3387	664	-3.3	-9.9	253	14
2023-08-02T00:00	3411	661	-3.4	-10.3	252	14
2023-08-02T00:00	3446	659	-3.6	-10.6	252	14
2023-08-02T00:00	3481	656	-3.9	-10.5	253	14
2023-08-02T00:00	3514	653	-4.2	-10.6	254	14
2023-08-02T00:00	3545	650	-4.4	-10.5	254	13
2023-08-02T00:00	3574	648	-4.7	-10.7	254	12
2023-08-02T00:00	3597	646	-4.9	-10.8	255	12
2023-08-02T00:00	3623	644	-4.8	-11.0	257	11
2023-08-02T00:00	3650	642	-4.9	-10.4	260	11
2023-08-02T00:00	3673	640	-5.0	-10.0	263	11
2023-08-02T00:00	3701	638	-5.2	-8.1	265	11
2023-08-02T00:00	3728	635	-5.4	-8.0	266	11
2023-08-02T00:00	3755	633	-5.6	-8.4	266	11
2023-08-02T00:00	3782	631	-5.9	-8.4	267	12
2023-08-02T00:00	3809	629	-6.2	-8.5	268	12
2023-08-02T00:00	3835	627	-6.4	-8.7	269	13
2023-08-02T00:00	3865	624	-6.7	-9.1	270	13
2023-08-02T00:00	3890	622	-6.8	-9.8	271	14
2023-08-02T00:00	3912	621	-6.7	-11.1	271	14
2023-08-02T00:00	3934	619	-6.7		271	14
2023-08-02T00:00	3961	617	-6.8	-11.7	269	14
2023-08-02T00:00	3983	615	-7.0	-10.4	268	14
2023-08-02T00:00	4015	612	-7.3	-10.1	266	14
2023-08-02T00:00	4045	610	-7.5	-9.3	265	14
2023-08-02T00:00	4064	609	-7.5	-10.2	264	14
2023-08-02T00:00	4092	607	-7.7	-8.8	264	14
2023-08-02T00:00	4118	605	-7.9	-9.1	264	14
2023-08-02T00:00	4137	603	-8.0	-9.2	264	14
2023-08-02T00:00	4164	601	-8.0	-10.0	265	14
2023-08-02T00:00	4189	599	-7.9	-10.7	266	13
2023-08-02T00:00	4221	597	-8.2	-11.0	266	13
2023-08-02T00:00	4239	595	-8.1	-11.4	267	12
2023-08-02T00:00	4258	594	-8.1	-11.9	265	12
2023-08-02T00:00	4282	592	-8.2	-11.8	263	12
2023-08-02T00:00	4305	590	-8.4	-11.7	259	12
2023-08-02T00:00	4325	589	-8.6	-11.5	255	12
2023-08-02T00:00	4343	587	-8.6	-11.4	252	12
2023-08-02T00:00	4363	586	-8.5	-11.7	251	12
2023-08-02T00:00	4391	584	-8.7	-12.5	251	12
2023-08-02T00:00	4420	581	-8.8	-13.4	252	12
2023-08-02T00:00	4448	579	-9.0	-13.7	253	12
2023-08-02T00:00	4468	578	-9.1	-14.1	252	13
2023-08-02T00:00	4489	576	-9.3	-14.1	251	13
2023-08-02T00:00	4515	574	-9.5	-14.1	249	13
2023-08-02T00:00	4536	572	-9.7	-13.8	248	13
2023-08-02T00:00	4571	570	-10.0	-14.3	247	13
2023-08-02T00:00	4593	569	-10.1	-15.0	247	13
2023-08-02T00:00	4612	567	-10.3	-14.8	249	13
2023-08-02T00:00	4637	565	-10.5	-15.3	250	13
2023-08-02T00:00	4664	563	-10.8	-15.4	251	13
2023-08-02T00:00	4700	561	-11.1	-15.4	251	13
2023-08-02T00:00	4719	559	-11.3	-15.9	251	13
2023-08-02T00:00	4740	558	-11.4	-16.0	252	13
2023-08-02T00:00	4765	556	-11.5	-15.7	253	12
2023-08-02T00:00	4785	554	-11.7	-15.9	256	12
2023-08-02T00:00	4811	553	-12.0	-16.0	259	12
2023-08-02T00:00	4837	551	-12.0	-19.2	262	12
2023-08-02T00:00	4863	549	-11.7	-23.5	264	13
2023-08-02T00:00	4884	547	-11.8	-23.4	264	13
2023-08-02T00:00	4910	545	-12.0	-23.4	264	13
2023-08-02T00:00	4940	544	-12.1	-23.0	263	12
2023-08-02T00:00	4964	542	-12.3	-22.9	263	12
2023-08-02T00:00	4995	540	-12.6	-22.8	264	12
2023-08-02T00:00	5013	538	-12.7	-22.1	265	12
2023-08-02T00:00	5039	536	-12.9	-21.9	267	13
2023-08-02T00:00	5067	535	-13.2	-21.9	269	13
2023-08-02T00:00	5091	533	-13.4	-21.6	270	14
2023-08-02T00:00	5106	532	-13.4	-21.1	269	15
2023-08-02T00:00	5123	531	-13.5	-21.7	268	15
2023-08-02T00:00	5141	529	-13.6	-22.3	267	15
2023-08-02T00:00	5168	527	-13.8	-21.7	266	15
2023-08-02T00:00	5195	526	-14.1	-21.7	266	15
2023-08-02T00:00	5218	524	-14.3	-21.5	267	14
2023-08-02T00:00	5242	522	-14.5	-21.1	268	14
2023-08-02T00:00	5266	521	-14.7	-20.9	269	14
2023-08-02T00:00	5287	519	-14.9	-20.9	269	14
2023-08-02T00:00	5303	518	-15.0	-21.1	268	14
2023-08-02T00:00	5322	517	-15.1	-21.1	267	14
2023-08-02T00:00	5360	514	-15.4	-21.8	265	14
2023-08-02T00:00	5382	513	-15.5	-21.9	264	14
2023-08-02T00:00	5404	511	-15.7		263	14
2023-08-02T00:00	5433	509	-15.9	-21.8	264	13
2023-08-02T00:00	5455	508	-16.1	-22.0	265	13
2023-08-02T00:00	5468	507	-16.1	-23.3	266	13
2023-08-02T00:00	5478	506	-16.0	-29.1	267	13
2023-08-02T00:00	5501	505	-15.9	-31.4	267	13
2023-08-02T00:00	5517	504	-16.0	-31.0	266	14
2023-08-02T00:00	5539	502	-16.2	-30.5	265	14
2023-08-02T00:00	5564	501	-16.4	-29.3	264	15
2023-08-02T00:00	5584	499	-16.6	-29.6	264	15
2023-08-02T00:00	5607	498	-16.8	-29.5	263	15
2023-08-02T00:00	5631	496	-17.0	-29.6	264	15
2023-08-02T00:00	5664	494	-17.3	-29.5	264	15
2023-08-02T00:00	5684	493	-17.5	-29.8	265	14
2023-08-02T00:00	5698	491	-17.6	-29.7	267	14
2023-08-02T00:00	5719	490	-17.8	-29.8	270	15
2023-08-02T00:00	5743	488	-18.0	-30.2	272	15
2023-08-02T00:00	5778	486	-18.1	-29.2	274	15
2023-08-02T00:00	5802	485	-18.2	-31.5	275	15
2023-08-02T00:00	5823	483	-18.4	-31.7	275	15
2023-08-02T00:00	5851	482	-18.6	-31.9	275	15
2023-08-02T00:00	5872	480	-18.8	-32.2	276	15
2023-08-02T00:00	5895	479	-19.0	-32.3	276	14
2023-08-02T00:00	5917	477	-19.2	-32.3	277	14
2023-08-02T00:00	5932	476	-19.3	-32.3	277	14
2023-08-02T00:00	5949	475	-19.4	-32.2	276	14
2023-08-02T00:00	5965	474	-19.5	-31.8	275	15
2023-08-02T00:00	5981	473	-19.7	-32.0	274	15
2023-08-02T00:00	5999	472	-19.8	-32.4	273	15
2023-08-02T00:00	6015	471	-19.9	-30.8	273	15
2023-08-02T00:00	6040	470	-20.0	-30.7	272	15
2023-08-02T00:00	6063	468	-20.3	-30.9	272	15
2023-08-02T00:00	6091	466	-20.5	-31.1	271	14
2023-08-02T00:00	6109	465	-20.7	-31.1	270	14
2023-08-02T00:00	6126	464	-20.8	-31.7	269	14
2023-08-02T00:00	6145	463	-20.8	-32.9	270	14
2023-08-02T00:00	6167	461	-20.7	-33.9	271	14
2023-08-02T00:00	6197	460	-20.9	-34.1	271	14
2023-08-02T00:00	6225	458	-21.1	-34.0	272	15
2023-08-02T00:00	6253	456	-21.4	-34.0	272	15
2023-08-02T00:00	6274	455	-21.6	-34.5	272	14
2023-08-02T00:00	6292	454	-21.7	-34.5	271	14
2023-08-02T00:00	6323	452	-21.8	-34.5	270	13
2023-08-02T00:00	6356	450	-22.0	-35.1	270	13
2023-08-02T00:00	6375	449	-22.2	-35.1	270	13
2023-08-02T00:00	6393	448	-22.4	-35.2	271	13
2023-08-02T00:00	6414	446	-22.6	-35.2	272	14
2023-08-02T00:00	6435	445	-22.8	-35.3	273	14
2023-08-02T00:00	6457	444	-23.0	-35.4	273	14
2023-08-02T00:00	6487	442	-23.2	-35.3	274	15
2023-08-02T00:00	6521	440	-23.6	-35.6	273	15
2023-08-02T00:00	6552	438	-23.9	-35.7	273	15
2023-08-02T00:00	6586	436	-24.1	-34.5	274	15
2023-08-02T00:00	6606	435	-24.3	-34.8	274	15
2023-08-02T00:00	6623	434	-24.4	-36.9	275	16
2023-08-02T00:00	6642	433	-24.5	-38.3	277	16
2023-08-02T00:00	6663	431	-24.7	-38.9	279	16
2023-08-02T00:00	6689	430	-24.9	-38.7	281	16
2023-08-02T00:00	6732	427	-25.2	-38.3	283	17
2023-08-02T00:00	6763	426	-25.4	-34.2	284	17
2023-08-02T00:00	6783	424	-25.6	-34.2	284	17
2023-08-02T00:00	6810	423	-25.9	-32.5	282	17
2023-08-02T00:00	6844	421	-26.2	-33.1	281	17
2023-08-02T00:00	6879	419	-26.5	-33.2	279	17
2023-08-02T00:00	6912	417	-26.8	-33.3	279	18
2023-08-02T00:00	6933	416	-27.1	-33.4	279	17
2023-08-02T00:00	6956	414	-27.3	-33.5	279	17
2023-08-02T00:00	6978	413	-27.5	-33.3	279	17
2023-08-02T00:00	6999	412	-27.7	-33.5	278	16
2023-08-02T00:00	7021	411	-27.9	-33.5	278	16
2023-08-02T00:00	7043	409	-28.2	-33.7	277	17
2023-08-02T00:00	7069	408	-28.4	-33.8	277	17
2023-08-02T00:00	7099	406	-28.7	-33.8	277	17
2023-08-02T00:00	7134	404	-28.7	-39.0	278	17
2023-08-02T00:00	7163	403	-28.6	-44.8	279	18
2023-08-02T00:00	7182	401	-28.7	-44.0	280	18
2023-08-02T00:00	7206	400	-28.9	-44.2	280	18
2023-08-02T00:00	7229	399	-29.1	-44.3	281	18
2023-08-02T00:00	7254	397	-29.4	-44.7	281	18
2023-08-02T00:00	7286	396	-29.6	-45.1	281	19
2023-08-02T00:00	7319	394	-29.8	-45.5	281	19
2023-08-02T00:00	7350	392	-30.1	-44.8	281	19
2023-08-02T00:00	7383	390	-30.4	-42.8	281	19
2023-08-02T00:00	7415	388	-30.7	-42.7	281	19
2023-08-02T00:00	7447	387	-31.0	-42.9	281	19
2023-08-02T00:00	7483	385	-31.3	-42.9	280	19
2023-08-02T00:00	7508	383	-31.6	-43.0	280	19
2023-08-02T00:00	7527	382	-31.7	-42.9	280	19
2023-08-02T00:00	7549	381	-31.9	-42.9	280	19
2023-08-02T00:00	7570	380	-32.2	-42.9	280	19
2023-08-02T00:00	7590	379	-32.3	-43.1	280	20
2023-08-02T00:00	7618	377	-32.6	-43.9	280	20
2023-08-02T00:00	7650	376	-32.8	-45.0	279	20
2023-08-02T00:00	7679	374	-33.1	-44.9	279	20
2023-08-02T00:00	7706	373	-33.3	-44.6	280	20
2023-08-02T00:00	7736	371	-33.5	-42.7	281	19
2023-08-02T00:00	7766	370	-33.8	-42.7	283	19
2023-08-02T00:00	7793	368	-34.1	-42.9	284	19
2023-08-02T00:00	7837	366	-34.5	-43.3	285	19
2023-08-02T00:00	7858	365	-34.7	-43.2	286	19
2023-08-02T00:00	7878	364	-34.9	-43.7	285	19
2023-08-02T00:00	7897	363	-35.1	-43.8	285	19
2023-08-02T00:00	7919	362	-35.3	-43.9	285	19
2023-08-02T00:00	7940	361	-35.4	-44.4	285	20
2023-08-02T00:00	7957	360	-35.6	-45.0	285	20
2023-08-02T00:00	7977	359	-35.6	-47.6	286	20
2023-08-02T00:00	7998	358	-35.7	-48.5	286	20
2023-08-02T00:00	8019	356	-35.9	-48.9	287	21
2023-08-02T00:00	8037	355	-35.9	-50.9	287	21
2023-08-02T00:00	8057	355	-35.9	-53.8	287	21
2023-08-02T00:00	8074	354	-36.0	-53.7	287	22
2023-08-02T00:00	8099	352	-36.1	-52.9	286	22
2023-08-02T00:00	8126	351	-36.3	-52.5	285	23
2023-08-02T00:00	8161	349	-36.5	-50.5	284	23
2023-08-02T00:00	8184	348	-36.6	-51.2	284	24
2023-08-02T00:00	8202	347	-36.7	-51.6	283	24
2023-08-02T00:00	8220	346	-36.8	-51.7	284	24
2023-08-02T00:00	8238	345	-37.0	-51.5	285	23
2023-08-02T00:00	8258	344	-37.1	-51.4	286	23
2023-08-02T00:00	8278	343	-37.3	-51.5	287	24
2023-08-02T00:00	8299	342	-37.5	-51.4	287	24
2023-08-02T00:00	8316	341	-37.6	-51.1	288	24
2023-08-02T00:00	8341	340	-37.7	-51.1	288	24
2023-08-02T00:00	8360	339	-37.9	-51.3	288	24
2023-08-02T00:00	8379	338	-38.0	-51.7	289	24
2023-08-02T00:00	8397	337	-38.1	-52.0	289	24
2023-08-02T00:00	8417	336	-38.2	-52.0	289	25
2023-08-02T00:00	8440	335	-38.4	-52.1	289	25
2023-08-02T00:00	8463	334	-38.6	-52.2	289	25
2023-08-02T00:00	8490	333	-38.8	-51.9	290	25
2023-08-02T00:00	8515	332	-38.9	-52.0	290	25
2023-08-02T00:00	8544	330	-39.1	-52.5	291	25
2023-08-02T00:00	8571	329	-39.3	-52.7	291	25
2023-08-02T00:00	8600	328	-39.6	-52.6	292	25
2023-08-02T00:00	8627	326	-39.8	-52.3	292	26
2023-08-02T00:00	8656	325	-40.0	-52.7	292	26
2023-08-02T00:00	8683	324	-40.2	-53.7	292	25
2023-08-02T00:00	8707	323	-40.4	-53.1	292	25
2023-08-02T00:00	8726	322	-40.6	-52.9	292	25
2023-08-02T00:00	8746	321	-40.8	-53.0	292	25
2023-08-02T00:00	8766	320	-40.9	-54.1	293	25
2023-08-02T00:00	8785	319	-41.0	-55.2	293	25
2023-08-02T00:00	8804	318	-41.1	-54.7	293	25
2023-08-02T00:00	8824	317	-41.3	-53.6	292	25
2023-08-02T00:00	8845	316	-41.4	-54.1	292	25
2023-08-02T00:00	8865	315	-41.5	-54.3	293	25
2023-08-02T00:00	8883	314	-41.7	-54.7	293	24
2023-08-02T00:00	8904	313	-41.8	-55.2	293	24
2023-08-02T00:00	8924	312	-41.9	-56.6	294	24
2023-08-02T00:00	8944	311	-42.0	-57.1	294	24
2023-08-02T00:00	8967	310	-42.1	-57.2	294	24
2023-08-02T00:00	8991	309	-42.1	-57.5	294	23
2023-08-02T00:00	9011	308	-42.2	-57.5	295	23
2023-08-02T00:00	9035	307	-42.3	-57.2	295	23
2023-08-02T00:00	9060	306	-42.4	-57.7	295	23
2023-08-02T00:00	9083	305	-42.5	-57.8	295	23
2023-08-02T00:00	9105	304	-42.6	-57.6	294	23
2023-08-02T00:00	9127	303	-42.6	-57.1	294	22
2023-08-02T00:00	9146	302	-42.7	-56.7	294	22
2023-08-02T00:00	9167	301	-42.9	-56.7	295	22
2023-08-02T00:00	9185	301	-43.0	-56.5	295	22
2023-08-02T00:00	9205	300	-43.2	-56.1	296	22
2023-08-02T00:00	9226	299	-43.4	-56.2	296	22
2023-08-02T00:00	9245	298	-43.5	-56.3	297	22
2023-08-02T00:00	9267	297	-43.7	-56.2	296	22
2023-08-02T00:00	9287	296	-43.8	-56.0	296	22
2023-08-02T00:00	9308	295	-43.9	-56.1	295	22
2023-08-02T00:00	9327	294	-44.0	-56.2	295	22
2023-08-02T00:00	9347	293	-44.2	-56.6	294	22
2023-08-02T00:00	9366	293	-44.3	-56.9	294	22
2023-08-02T00:00	9387	292	-44.4	-56.9	294	22
2023-08-02T00:00	9406	291	-44.6	-56.9	294	22
2023-08-02T00:00	9426	290	-44.7	-57.0	294	22
2023-08-02T00:00	9442	289	-44.8	-57.2	294	21
2023-08-02T00:00	9462	288	-44.9	-56.8	295	21
2023-08-02T00:00	9484	288	-45.0	-56.2	295	21
2023-08-02T00:00	9503	287	-45.1	-56.6	295	21
2023-08-02T00:00	9522	286	-45.2	-57.2	295	21
2023-08-02T00:00	9539	285	-45.4	-57.7	294	21
2023-08-02T00:00	9558	284	-45.4	-57.4	294	21
2023-08-02T00:00	9577	283	-45.6	-56.9	294	21
2023-08-02T00:00	9596	283	-45.7	-57.2	294	21
2023-08-02T00:00	9616	282	-45.8	-57.6	293	21
2023-08-02T00:00	9638	281	-45.9	-57.7	293	21
2023-08-02T00:00	9656	280	-46.1	-57.6	293	21
2023-08-02T00:00	9676	279	-46.1	-57.6	293	21
2023-08-02T00:00	9693	279	-46.2	-57.6	293	21
2023-08-02T00:00	9713	278	-46.3	-57.8	292	21
2023-08-02T00:00	9733	277	-46.3	-58.2	292	21
2023-08-02T00:00	9753	276	-46.3	-58.7	291	21
2023-08-02T00:00	9774	275	-46.2	-59.2	291	21
2023-08-02T00:00	9792	274	-46.3	-59.3	291	21
2023-08-02T00:00	9812	274	-46.4	-58.9	291	21
2023-08-02T00:00	9833	273	-46.6	-58.7	291	21
2023-08-02T00:00	9852	272	-46.7	-58.6	291	21
2023-08-02T00:00	9873	271	-46.9	-59.0	291	21
2023-08-02T00:00	9893	270	-47.0	-59.3	290	20
2023-08-02T00:00	9913	270	-47.0	-59.7	290	20
2023-08-02T00:00	9931	269	-46.9	-60.5	290	20
2023-08-02T00:00	9950	268	-46.5	-62.3	289	21
2023-08-02T00:00	9970	267	-46.4	-63.4	289	21
2023-08-02T00:00	9991	266	-46.3	-63.0	289	21
2023-08-02T00:00	10011	266	-46.2	-63.1	289	21
2023-08-02T00:00	10029	265	-45.9	-64.0	289	21
2023-08-02T00:00	10050	264	-45.6	-64.8	289	21
2023-08-02T00:00	10070	263	-45.7	-64.6	289	22
2023-08-02T00:00	10088	263	-45.9	-64.4	290	22
2023-08-02T00:00	10109	262	-45.9	-64.5	290	21
2023-08-02T00:00	10128	261	-45.7	-64.9	290	21
2023-08-02T00:00	10146	260	-45.2	-65.2	290	21
2023-08-02T00:00	10166	259	-45.2	-65.3	291	21
2023-08-02T00:00	10184	259	-45.1	-65.2	291	20
2023-08-02T00:00	10203	258	-45.0	-65.0	293	20
2023-08-02T00:00	10224	257	-45.1	-65.0	294	20
2023-08-02T00:00	10245	256	-44.8	-65.6	296	20
2023-08-02T00:00	10266	256	-44.3	-66.6	298	20
2023-08-02T00:00	10284	255	-44.1	-67.1	299	19
2023-08-02T00:00	10306	254	-44.1	-67.4	301	19
2023-08-02T00:00	10328	253	-44.2	-67.9	301	18
2023-08-02T00:00	10349	252	-44.0	-68.9	301	17
2023-08-02T00:00	10370	252	-43.5	-69.9	301	17
2023-08-02T00:00	10391	251	-43.5	-70.1	300	17
2023-08-02T00:00	10414	250	-43.7	-70.0	298	17
2023-08-02T00:00	10435	249	-43.8	-70.1	296	17
2023-08-02T00:00	10461	248	-44.0	-70.3	294	17
2023-08-02T00:00	10484	247	-43.9	-70.4	292	17
2023-08-02T00:00	10502	247	-44.0	-71.0	291	17
2023-08-02T00:00	10523	246	-44.1	-70.8	290	16
2023-08-02T00:00	10542	245	-43.8	-71.0	289	16
2023-08-02T00:00	10563	245	-43.6	-71.7	288	16
2023-08-02T00:00	10583	244	-43.5	-71.6	287	16
2023-08-02T00:00	10607	243	-43.4	-71.0	285	16
2023-08-02T00:00	10626	242	-43.4	-70.5	285	16
2023-08-02T00:00	10648	242	-43.5	-70.3	285	17
2023-08-02T00:00	10668	241	-43.4	-70.5	285	17
2023-08-02T00:00	10687	240	-43.4	-70.5	285	17
2023-08-02T00:00	10708	239	-43.2	-70.3	285	17
2023-08-02T00:00	10729	239	-43.1	-70.8	285	17
2023-08-02T00:00	10750	238	-43.1	-71.3	284	17
2023-08-02T00:00	10769	237	-42.9	-71.7	283	17
2023-08-02T00:00	10791	236	-42.8	-72.3	282	17
2023-08-02T00:00	10825	235	-42.5	-72.7	281	16
2023-08-02T00:00	10853	234	-42.1	-73.2	280	16
2023-08-02T00:00	10879	233	-42.2	-73.3	280	15
2023-08-02T00:00	10900	233	-42.3	-72.9	281	14
2023-08-02T00:00	10921	232	-42.3	-72.9	281	14
2023-08-02T00:00	10946	231	-42.3	-72.6	282	14
2023-08-02T00:00	10966	230	-42.4	-72.6	282	14
2023-08-02T00:00	10989	230	-42.6	-72.8	281	15
2023-08-02T00:00	11010	229	-42.6	-72.8	280	15
2023-08-02T00:00	11030	228	-42.7	-73.2	278	16
2023-08-02T00:00	11054	227	-42.7	-73.2	277	16
2023-08-02T00:00	11076	227	-42.8	-73.3	277	17
2023-08-02T00:00	11098	226	-42.9	-73.4	277	18
2023-08-02T00:00	11120	225	-43.0	-73.5	278	18
2023-08-02T00:00	11144	224	-43.1	-73.9	280	18
2023-08-02T00:00	11170	224	-42.9	-73.8	282	19
2023-08-02T00:00	11194	223	-42.9	-74.2	284	19
2023-08-02T00:00	11218	222	-43.0	-74.3	285	19
2023-08-02T00:00	11239	221	-43.1	-74.4	286	19
2023-08-02T00:00	11264	220	-43.2	-74.4	286	20
2023-08-02T00:00	11286	220	-43.1	-74.8	286	20
2023-08-02T00:00	11309	219	-43.1	-74.8	286	20
2023-08-02T00:00	11333	218	-43.3	-75.0	286	20
2023-08-02T00:00	11353	217	-43.3	-75.0	287	20
2023-08-02T00:00	11375	217	-43.3	-75.0	288	20
2023-08-02T00:00	11396	216	-43.3	-75.0	290	20
2023-08-02T00:00	11416	215	-43.2	-75.4	291	20
2023-08-02T00:00	11433	215	-43.2	-75.4	292	20
2023-08-02T00:00	11454	214	-43.3	-75.4	292	20
2023-08-02T00:00	11475	214	-43.3	-75.4	292	21
2023-08-02T00:00	11495	213	-43.3	-75.9	292	21
2023-08-02T00:00	11513	212	-43.2	-75.9	291	21
2023-08-02T00:00	11536	212	-43.2	-75.9	290	21
2023-08-02T00:00	11554	211	-43.4	-76.0	290	21
2023-08-02T00:00	11573	210	-43.5	-76.1	289	21
2023-08-02T00:00	11595	210	-43.4	-76.0	290	21
2023-08-02T00:00	11612	209	-43.3	-75.9	290	20
2023-08-02T00:00	11629	209	-43.2	-76.4	291	20
2023-08-02T00:00	11649	208	-43.1	-76.3	291	20
2023-08-02T00:00	11670	208	-43.1	-76.3	291	20
2023-08-02T00:00	11687	207	-43.2	-76.4	291	20
2023-08-02T00:00	11706	206	-43.2	-76.4	289	20
2023-08-02T00:00	11726	206	-43.1	-76.3	288	20
2023-08-02T00:00	11744	205	-42.9	-76.8	286	20
2023-08-02T00:00	11760	205	-42.5	-76.5	285	20
2023-08-02T00:00	11779	204	-42.2	-76.9	283	20
2023-08-02T00:00	11797	204	-42.1	-76.9	283	20
2023-08-02T00:00	11815	203	-41.8	-76.7	283	19
2023-08-02T00:00	11835	202	-42.0	-76.8	283	19
2023-08-02T00:00	11854	202	-42.0	-76.8	283	19
2023-08-02T00:00	11875	201	-41.9	-76.7	283	18
2023-08-02T00:00	11893	201	-42.0	-76.8	283	18
2023-08-02T00:00	11912	200	-41.9	-76.7	282	18
2023-08-02T00:00	11931	200	-41.7	-76.6	281	18
2023-08-02T00:00	11948	199	-41.7	-76.6	281	18
2023-08-02T00:00	11971	198	-41.7	-76.6	281	18
2023-08-02T00:00	11990	198	-41.8	-76.7	282	18
2023-08-02T00:00	12009	197	-41.8	-76.7	283	18
2023-08-02T00:00	12029	197	-41.9	-77.5	283	17
2023-08-02T00:00	12047	196	-41.9	-77.5	284	17
2023-08-02T00:00	12067	196	-41.8	-77.4	284	18
2023-08-02T00:00	12086	195	-41.8	-77.4	284	18
2023-08-02T00:00	12104	195	-41.8	-77.4	284	18
2023-08-02T00:00	12124	194	-42.0	-77.5	284	19
2023-08-02T00:00	12144	193	-42.0	-77.5	284	19
2023-08-02T00:00	12162	193	-41.9	-77.5	284	19
2023-08-02T00:00	12182	192	-42.1	-77.6	284	19
2023-08-02T00:00	12204	192	-42.2	-77.7	284	20
2023-08-02T00:00	12223	191	-42.3	-77.8	284	19
2023-08-02T00:00	12243	191	-42.4	-77.8	284	19
2023-08-02T00:00	12264	190	-42.4	-77.8	284	19
2023-08-02T00:00	12286	189	-42.6	-78.0	284	19
2023-08-02T00:00	12305	189	-42.8	-78.1	283	18
2023-08-02T00:00	12325	188	-42.9	-78.2	283	18
2023-08-02T00:00	12345	188	-43.1	-78.3	282	18
2023-08-02T00:00	12364	187	-43.2	-78.4	281	18
2023-08-02T00:00	12386	187	-43.2	-78.4	280	17
2023-08-02T00:00	12408	186	-43.1	-78.3	279	17
2023-08-02T00:00	12427	185	-43.2	-78.4	279	17
2023-08-02T00:00	12450	185	-43.4	-78.5	278	16
2023-08-02T00:00	12470	184	-43.4	-78.5	277	16
2023-08-02T00:00	12488	184	-43.5	-78.6	276	16
2023-08-02T00:00	12511	183	-43.6	-78.7	277	17
2023-08-02T00:00	12532	183	-43.7	-78.8	277	17
2023-08-02T00:00	12554	182	-43.7	-78.8	278	17
2023-08-02T00:00	12575	181	-43.8	-78.8	279	17
2023-08-02T00:00	12598	181	-43.8	-78.8	279	17
2023-08-02T00:00	12619	180	-44.0	-79.0	279	17
2023-08-02T00:00	12638	180	-44.0	-79.0	278	17
2023-08-02T00:00	12659	179	-44.1	-79.0	276	17
2023-08-02T00:00	12682	179	-44.2	-79.1	275	17
2023-08-02T00:00	12703	178	-44.1	-79.0	275	17
2023-08-02T00:00	12722	177	-44.1	-79.0	275	16
2023-08-02T00:00	12745	177	-44.2	-79.1	277	16
2023-08-02T00:00	12767	176	-44.2	-79.1	278	16
2023-08-02T00:00	12786	176	-44.1	-79.0	279	16
2023-08-02T00:00	12808	175	-43.9	-78.9	280	16
2023-08-02T00:00	12830	175	-43.9	-78.9	280	16
2023-08-02T00:00	12852	174	-43.8	-78.8	280	16
2023-08-02T00:00	12875	174	-43.8	-78.8	279	16
2023-08-02T00:00	12895	173	-43.9	-78.9	278	16
2023-08-02T00:00	12915	172	-43.9	-78.9	277	16
2023-08-02T00:00	12939	172	-43.6	-79.5	276	16
2023-08-02T00:00	12962	171	-43.7	-79.6	276	15
2023-08-02T00:00	12983	171	-43.7	-79.6	275	15
2023-08-02T00:00	13006	170	-43.6	-79.5	275	15
2023-08-02T00:00	13027	170	-43.6	-79.5	275	15
2023-08-02T00:00	13045	169	-43.7	-79.6	276	15
2023-08-02T00:00	13070	169	-43.8	-79.6	276	16
2023-08-02T00:00	13091	168	-43.8	-79.6	276	16
2023-08-02T00:00	13112	168	-43.8	-79.6	277	16
2023-08-02T00:00	13135	167	-43.9	-78.9	278	16
2023-08-02T00:00	13157	166	-44.1	-79.0	278	16
2023-08-02T00:00	13182	166	-44.2	-79.1	279	17
2023-08-02T00:00	13203	165	-44.3	-79.2	279	17
2023-08-02T00:00	13224	165	-44.4	-79.3	279	17
2023-08-02T00:00	13248	164	-44.5	-79.3	279	17
2023-08-02T00:00	13273	164	-44.5	-79.3	279	16
2023-08-02T00:00	13295	163	-44.6	-79.4	279	16
2023-08-02T00:00	13317	162	-44.6	-79.4	278	16
2023-08-02T00:00	13341	162	-44.6	-79.4	277	16
2023-08-02T00:00	13365	161	-44.6	-79.4	276	16
2023-08-02T00:00	13388	161	-44.7	-79.5	275	16
2023-08-02T00:00	13411	160	-44.5	-79.3	274	16
2023-08-02T00:00	13435	160	-44.5	-79.3	273	16
2023-08-02T00:00	13459	159	-44.6	-79.4	274	17
2023-08-02T00:00	13483	159	-44.3	-79.2	274	17
2023-08-02T00:00	13505	158	-44.5	-79.3	274	17
2023-08-02T00:00	13527	157	-44.6	-79.4	274	17
2023-08-02T00:00	13550	157	-44.7	-79.5	274	17
2023-08-02T00:00	13575	156	-44.8	-79.6	274	17
2023-08-02T00:00	13597	156	-44.9	-79.6	275	17
2023-08-02T00:00	13620	155	-45.1	-79.8	276	17
2023-08-02T00:00	13643	155	-45.2	-79.8	277	17
2023-08-02T00:00	13671	154	-45.4	-80.0	278	17
2023-08-02T00:00	13688	154	-45.5	-79.3	279	17
2023-08-02T00:00	13710	153	-45.5	-79.3	279	16
2023-08-02T00:00	13732	153	-45.5	-80.1	279	16
2023-08-02T00:00	13753	152	-45.4	-80.0	279	15
2023-08-02T00:00	13779	152	-45.3	-79.9	279	15
2023-08-02T00:00	13800	151	-45.2	-79.8	279	14
2023-08-02T00:00	13821	151	-45.3	-79.9	278	14
2023-08-02T00:00	13847	150	-45.3	-79.9	276	13
2023-08-02T00:00	13868	150	-45.3	-79.9	275	13
2023-08-02T00:00	13890	149	-45.4	-80.0	273	13
2023-08-02T00:00	13911	149	-45.5	-80.1	272	13
2023-08-02T00:00	13936	148	-45.7	-80.2	272	13
2023-08-02T00:00	13960	148	-45.8	-80.3	273	12
2023-08-02T00:00	13981	147	-45.9	-80.3	274	12
2023-08-02T00:00	14004	147	-46.1	-79.8	276	12
2023-08-02T00:00	14027	146	-46.3	-79.9	277	12
2023-08-02T00:00	14052	146	-46.4	-80.0	278	12
2023-08-02T00:00	14072	145	-46.6	-80.1	278	12
2023-08-02T00:00	14099	145	-46.7	-80.2	277	12
2023-08-02T00:00	14118	144	-46.9	-80.4	277	12
2023-08-02T00:00	14139	144	-46.8	-80.3	276	13
2023-08-02T00:00	14162	143	-46.8	-80.3	275	13
2023-08-02T00:00	14184	143	-47.0	-80.4	274	13
2023-08-02T00:00	14207	142	-47.1	-80.5	273	13
2023-08-02T00:00	14230	142	-47.3	-80.6	272	13
2023-08-02T00:00	14251	141	-47.3	-80.6	271	13
2023-08-02T00:00	14273	141	-47.4	-80.7	271	14
2023-08-02T00:00	14297	140	-47.6	-80.9	271	14
2023-08-02T00:00	14320	140	-47.7	-80.9	271	14
2023-08-02T00:00	14343	139	-47.8	-81.0	271	15
2023-08-02T00:00	14364	139	-47.9	-81.1	270	15
2023-08-02T00:00	14387	138	-47.9	-81.1	269	15
2023-08-02T00:00	14408	138	-47.8	-81.0	267	15
2023-08-02T00:00	14430	137	-47.9	-81.1	265	15
2023-08-02T00:00	14452	137	-48.0	-81.2	262	15
2023-08-02T00:00	14474	137	-48.1	-81.2	261	15
2023-08-02T00:00	14493	136	-48.0	-81.2	260	15
2023-08-02T00:00	14513	136	-48.2	-81.3	260	15
2023-08-02T00:00	14532	135	-48.2	-81.3	261	15
2023-08-02T00:00	14558	135	-47.8	-81.7	262	15
2023-08-02T00:00	14577	134	-47.6	-81.6	264	16
2023-08-02T00:00	14602	134	-47.5	-81.5	266	16
2023-08-02T00:00	14624	133	-47.2	-81.3	267	16
2023-08-02T00:00	14644	133	-47.1	-81.2	268	16
2023-08-02T00:00	14666	133	-47.3	-81.4	269	16
2023-08-02T00:00	14685	132	-47.4	-81.4	271	16
2023-08-02T00:00	14707	132	-47.3	-81.4	271	16
2023-08-02T00:00	14730	131	-47.4	-81.4	272	16
2023-08-02T00:00	14752	131	-47.2	-81.3	272	16
2023-08-02T00:00	14775	130	-47.2	-81.3	273	16
2023-08-02T00:00	14797	130	-47.2	-81.3	273	15
2023-08-02T00:00	14816	130	-47.2	-81.3	273	15
2023-08-02T00:00	14839	129	-47.2	-81.3	274	15
2023-08-02T00:00	14860	129	-47.1	-81.2	275	15
2023-08-02T00:00	14879	128	-47.0	-81.1	276	15
2023-08-02T00:00	14902	128	-47.1	-81.2	277	14
2023-08-02T00:00	14923	128	-47.2	-81.3	279	14
2023-08-02T00:00	14942	127	-47.3	-81.4	280	14
2023-08-02T00:00	14964	127	-47.4	-81.4	281	14
2023-08-02T00:00	14985	126	-47.2	-81.3	282	13
2023-08-02T00:00	15007	126	-47.2	-82.1	283	13
2023-08-02T00:00	15030	126	-47.1	-82.0	284	13
2023-08-02T00:00	15053	125	-47.1	-82.0	285	13
2023-08-02T00:00	15071	125	-47.2	-81.3	286	13
2023-08-02T00:00	15096	124	-47.4	-81.4	286	13
2023-08-02T00:00	15115	124	-47.6	-81.6	285	12
2023-08-02T00:00	15142	123	-47.8	-81.7	284	12
2023-08-02T00:00	15163	123	-47.6	-81.6	283	12
2023-08-02T00:00	15187	123	-47.6	-81.6	280	11
2023-08-02T00:00	15208	122	-47.7	-81.6	278	11
2023-08-02T00:00	15231	122	-47.8	-81.7	275	11
2023-08-02T00:00	15254	121	-48.0	-81.9	272	11
2023-08-02T00:00	15277	121	-48.2	-82.0	269	11
2023-08-02T00:00	15299	121	-48.3	-82.1	267	11
2023-08-02T00:00	15321	120	-48.4	-82.2	266	11
2023-08-02T00:00	15343	120	-48.3	-82.1	266	12
2023-08-02T00:00	15364	119	-48.3	-82.1	266	12
2023-08-02T00:00	15386	119	-48.4	-82.2	267	12
2023-08-02T00:00	15409	119	-48.3	-82.1	267	12
2023-08-02T00:00	15432	118	-48.1	-81.9	268	11
2023-08-02T00:00	15453	118	-47.9	-81.8	268	11
2023-08-02T00:00	15478	117	-48.0	-81.9	269	11
2023-08-02T00:00	15502	117	-48.2	-82.0	272	10
2023-08-02T00:00	15525	116	-48.3	-82.1	275	10
2023-08-02T00:00	15550	116	-48.5	-81.5	279	9
2023-08-02T00:00	15579	115	-48.7	-81.7	281	9
2023-08-02T00:00	15606	115	-48.9	-81.8	283	8
2023-08-02T00:00	15629	115	-48.9	-81.8	284	8
2023-08-02T00:00	15656	114	-49.1	-82.0	284	7
2023-08-02T00:00	15680	114	-49.2	-82.0	283	7
2023-08-02T00:00	15704	113	-49.3	-82.1	281	6
2023-08-02T00:00	15733	113	-49.5	-82.3	278	6
2023-08-02T00:00	15757	112	-49.6	-82.3	274	6
2023-08-02T00:00	15780	112	-49.6	-82.3	270	5
2023-08-02T00:00	15808	112	-49.5	-82.3	266	5
2023-08-02T00:00	15832	111	-49.7	-82.4	262	6
2023-08-02T00:00	15858	111	-49.9	-82.5	259	6
2023-08-02T00:00	15881	110	-50.0	-82.6	256	6
2023-08-02T00:00	15907	110	-50.1	-82.7	254	7
2023-08-02T00:00	15931	109	-50.0	-83.3	253	7
2023-08-02T00:00	15953	109	-49.8	-83.2	252	7
2023-08-02T00:00	15979	109	-49.5	-82.9	251	7
2023-08-02T00:00	16004	108	-49.3	-82.8	251	7
2023-08-02T00:00	16027	108	-49.2	-83.5	250	6
2023-08-02T00:00	16052	107	-49.1	-83.4	250	6
2023-08-02T00:00	16075	107	-49.1	-82.7	251	6
2023-08-02T00:00	16101	107	-49.3	-82.8	253	7
2023-08-02T00:00	16125	106	-49.4	-82.9	255	7
2023-08-02T00:00	16147	106	-49.4	-82.9	257	8
2023-08-02T00:00	16170	106	-49.5	-82.9	259	9
2023-08-02T00:00	16197	105	-49.6	-83.0	261	9
2023-08-02T00:00	16220	105	-49.7	-83.1	261	10
2023-08-02T00:00	16244	104	-49.9	-83.2	262	10
2023-08-02T00:00	16267	104	-50.0	-83.3	261	10
2023-08-02T00:00	16291	104	-50.0	-83.3	260	10
2023-08-02T00:00	16311	103	-49.9	-83.2	259	10
2023-08-02T00:00	16336	103	-49.9	-83.2	257	10
2023-08-02T00:00	16358	103	-50.0	-83.3	254	10
2023-08-02T00:00	16381	102	-50.2	-83.5	253	10
2023-08-02T00:00	16405	102	-50.3	-83.5	251	10
2023-08-02T00:00	16425	101	-50.5	-83.7	251	10
2023-08-02T00:00	16446	101	-50.6	-83.7	251	10
2023-08-02T00:00	16471	101	-50.6	-83.7	251	11
2023-08-02T00:00	16491	100	-50.6	-83.7	252	11
2023-08-02T00:00	16514	100	-50.6	-83.7	253	11
2023-08-02T00:00	16536	100	-50.8	-83.9	255	11
2023-08-02T00:00	16563	99	-50.9	-84.0	257	12
2023-08-02T00:00	16581	99	-51.1	-83.4	259	12
2023-08-02T00:00	16606	99	-51.2	-83.5	262	12
2023-08-02T00:00	16628	98	-51.4	-83.6	265	12
2023-08-02T00:00	16648	98	-51.6	-83.8	267	11
2023-08-02T00:00	16672	98	-51.6	-83.8	270	11
2023-08-02T00:00	16691	97	-51.3	-83.6	273	11
2023-08-02T00:00	16710	97	-51.4	-84.3	276	12
2023-08-02T00:00	16738	97	-51.4	-84.3	279	12
2023-08-02T00:00	16758	96	-51.3	-84.3	281	12
2023-08-02T00:00	16780	96	-51.4	-83.6	283	12
2023-08-02T00:00	16806	96	-51.5	-83.7	284	11
2023-08-02T00:00	16824	95	-51.5	-83.7	284	11
2023-08-02T00:00	16847	95	-51.6	-83.8	283	11
2023-08-02T00:00	16867	95	-51.4	-83.6	282	11
2023-08-02T00:00	16890	94	-51.5	-83.7	279	11
2023-08-02T00:00	16913	94	-51.6	-83.8	277	11
2023-08-02T00:00	16933	94	-51.7	-83.9	274	11
2023-08-02T00:00	16956	94	-51.7	-83.9	273	11
2023-08-02T00:00	16978	93	-51.7	-83.9	272	11
2023-08-02T00:00	16998	93	-51.5	-83.7	272	11
2023-08-02T00:00	17019	93	-51.5	-84.4	273	11
2023-08-02T00:00	17044	92	-51.6	-84.5	274	11
2023-08-02T00:00	17066	92	-51.4	-84.3	275	11
2023-08-02T00:00	17088	92	-51.2	-84.2	276	11
2023-08-02T00:00	17115	91	-51.2	-84.2	277	11
2023-08-02T00:00	17132	91	-51.0	-84.0	277	11
2023-08-02T00:00	17155	91	-51.0	-84.0	277	10
2023-08-02T00:00	17174	90	-50.9	-84.0	276	10
2023-08-02T00:00	17199	90	-51.0	-84.0	275	10
2023-08-02T00:00	17219	90	-51.1	-84.1	275	10
2023-08-02T00:00	17244	89	-51.0	-84.0	274	10
2023-08-02T00:00	17266	89	-51.0	-84.0	274	10
2023-08-02T00:00	17288	89	-50.9	-84.0	274	10
2023-08-02T00:00	17313	89	-50.8	-83.9	274	10
2023-08-02T00:00	17334	88	-50.3	-83.5	273	10
2023-08-02T00:00	17359	88	-50.4	-84.4	273	10
2023-08-02T00:00	17382	88	-50.3	-84.3	273	10
2023-08-02T00:00	17403	87	-50.1	-84.2	273	10
2023-08-02T00:00	17424	87	-50.1	-84.2	273	10
2023-08-02T00:00	17449	87	-50.2	-84.2	272	10
2023-08-02T00:00	17471	86	-50.2	-84.2	271	10
2023-08-02T00:00	17493	86	-50.1	-84.2	271	10
2023-08-02T00:00	17517	86	-49.9	-84.0	271	10
2023-08-02T00:00	17541	85	-49.9	-84.0	272	11
2023-08-02T00:00	17566	85	-50.1	-84.2	273	11
2023-08-02T00:00	17584	85	-50.2	-84.2	275	11
2023-08-02T00:00	17605	85	-50.1	-84.2	276	11
2023-08-02T00:00	17631	84	-50.0	-84.1	278	11
2023-08-02T00:00	17655	84	-49.9	-84.0	280	11
2023-08-02T00:00	17676	84	-49.8	-84.0	281	10
2023-08-02T00:00	17700	83	-49.8	-84.0	282	10
2023-08-02T00:00	17722	83	-49.8	-84.0	283	9
2023-08-02T00:00	17746	83	-49.9	-84.0	282	8
2023-08-02T00:00	17768	83	-49.7	-83.9	281	8
2023-08-02T00:00	17792	82	-49.6	-83.8	277	7
2023-08-02T00:00	17817	82	-49.7	-83.9	273	6
2023-08-02T00:00	17839	82	-49.7	-83.9	267	6
2023-08-02T00:00	17861	81	-49.5	-83.7	260	6
2023-08-02T00:00	17885	81	-49.7	-83.9	254	6
2023-08-02T00:00	17910	81	-49.8	-84.0	249	6
2023-08-02T00:00	17936	81	-49.9	-83.2	243	6
2023-08-02T00:00	17960	80	-49.9	-83.2	238	6
2023-08-02T00:00	17985	80	-49.9	-83.2	233	6
2023-08-02T00:00	18008	80	-50.1	-83.4	230	7
2023-08-02T00:00	18037	79	-50.2	-83.5	228	7
2023-08-02T00:00	18059	79	-50.3	-83.5	227	8
2023-08-02T00:00	18081	79	-50.4	-83.6	227	8
2023-08-02T00:00	18109	78	-50.4	-83.6	227	8
2023-08-02T00:00	18135	78	-50.6	-83.7	228	8
2023-08-02T00:00	18159	78	-50.7	-83.8	229	8
2023-08-02T00:00	18182	78	-50.7	-83.8	230	7
2023-08-02T00:00	18207	77	-51.0	-84.0	232	7
2023-08-02T00:00	18230	77	-51.2	-84.2	236	7
2023-08-02T00:00	18255	77	-51.4	-84.3	239	7
2023-08-02T00:00	18278	76	-51.6	-84.5	243	7
2023-08-02T00:00	18300	76	-51.6	-84.5	246	7
2023-08-02T00:00	18326	76	-51.6	-84.5	248	7
2023-08-02T00:00	18350	76	-51.7	-84.5	250	7
2023-08-02T00:00	18375	75	-51.9	-84.7	253	7
2023-08-02T00:00	18395	75	-52.0	-84.8	256	6
2023-08-02T00:00	18421	75	-51.9	-84.7	259	6
2023-08-02T00:00	18444	74	-51.9	-84.7	263	5
2023-08-02T00:00	18467	74	-51.9	-84.7	265	5
2023-08-02T00:00	18495	74	-52.0	-84.8	264	4
2023-08-02T00:00	18520	74	-52.1	-84.8	259	4
2023-08-02T00:00	18548	73	-52.0	-84.8	249	4
2023-08-02T00:00	18574	73	-52.1	-84.8	238	4
2023-08-02T00:00	18598	73	-52.2	-84.9	229	4
2023-08-02T00:00	18623	72	-52.1	-84.8	223	5
2023-08-02T00:00	18649	72	-52.2	-84.9	219	5
2023-08-02T00:00	18671	72	-52.2	-84.9	218	5
2023-08-02T00:00	18696	72	-52.4	-85.1	217	6
2023-08-02T00:00	18722	71	-52.4	-85.1	217	6
2023-08-02T00:00	18747	71	-52.4	-85.1	217	6
2023-08-02T00:00	18771	71	-52.0	-84.8	217	6
2023-08-02T00:00	18796	71	-51.7	-84.5	217	6
2023-08-02T00:00	18818	70	-51.7	-84.5	218	6
2023-08-02T00:00	18843	70	-51.8	-84.6	219	6
2023-08-02T00:00	18867	70	-51.9	-84.7	220	6
2023-08-02T00:00	18892	69	-52.1	-84.8	222	6
2023-08-02T00:00	18917	69	-52.2	-84.9	223	6
2023-08-02T00:00	18943	69	-52.1	-84.8	225	6
2023-08-02T00:00	18966	69	-52.1	-84.8	227	6
2023-08-02T00:00	18993	68	-52.3	-85.0	230	6
2023-08-02T00:00	19018	68	-52.5	-85.1	234	6
2023-08-02T00:00	19045	68	-52.6	-85.2	239	6
2023-08-02T00:00	19067	68	-52.3	-85.0	245	6
2023-08-02T00:00	19095	67	-52.4	-85.1	252	6
2023-08-02T00:00	19117	67	-52.2	-84.9	258	6
2023-08-02T00:00	19141	67	-52.2	-84.9	264	6
2023-08-02T00:00	19165	67	-52.2	-84.9	270	6
2023-08-02T00:00	19188	66	-52.2	-84.9	275	5
2023-08-02T00:00	19215	66	-52.0	-84.8	280	4
2023-08-02T00:00	19238	66	-51.9	-84.7	282	4
2023-08-02T00:00	19264	66	-51.4	-85.1	282	3
2023-08-02T00:00	19283	65	-51.3	-85.0	278	3
2023-08-02T00:00	19315	65	-51.2	-85.0	272	3
2023-08-02T00:00	19339	65	-51.3	-85.0	267	3
2023-08-02T00:00	19365	65	-51.5	-84.4	265	4
2023-08-02T00:00	19386	64	-51.6	-84.5	264	4
2023-08-02T00:00	19415	64	-51.6	-84.5	263	4
2023-08-02T00:00	19438	64	-51.5	-84.4	261	3
2023-08-02T00:00	19462	64	-51.5	-84.4	258	3
2023-08-02T00:00	19485	63	-51.2	-85.0	254	3
2023-08-02T00:00	19509	63	-51.2	-85.0	250	3
2023-08-02T00:00	19531	63	-51.2	-85.0	245	3
2023-08-02T00:00	19558	63	-51.0	-84.8	241	3
2023-08-02T00:00	19583	62	-50.8	-84.7	237	3
2023-08-02T00:00	19609	62	-50.8	-84.7	233	3
2023-08-02T00:00	19630	62	-50.7	-84.6	230	2
2023-08-02T00:00	19654	62	-50.7	-84.6	231	2
2023-08-02T00:00	19679	62	-50.8	-84.7	244	1
2023-08-02T00:00	19703	61	-50.8	-84.7	309	1
2023-08-02T00:00	19727	61	-50.8	-84.7	358	1
2023-08-02T00:00	19750	61	-50.8	-84.7	11	2
2023-08-02T00:00	19777	61	-50.7	-84.6	18	2
2023-08-02T00:00	19802	60	-50.7	-84.6	24	2
2023-08-02T00:00	19822	60	-50.6	-84.5	30	2
2023-08-02T00:00	19848	60	-50.7	-84.6	37	2
2023-08-02T00:00	19869	60	-50.7	-84.6	45	2
2023-08-02T00:00	19897	60	-50.7	-84.6	51	2
2023-08-02T00:00	19920	59	-50.9	-84.0	54	2
2023-08-02T00:00	19941	59	-51.1	-84.1	53	2
2023-08-02T00:00	19966	59	-51.3	-84.3	50	2
2023-08-02T00:00	19989	59	-51.4	-84.3	43	1
2023-08-02T00:00	20016	58	-51.4	-84.3	35	1
2023-08-02T00:00	20036	58	-51.4	-84.3	19	1
2023-08-02T00:00	20061	58	-51.5	-84.4	336	1
2023-08-02T00:00	20087	58	-51.7	-84.5	276	1
2023-08-02T00:00	20110	58	-51.7	-84.5	254	2
2023-08-02T00:00	20127	57	-51.7	-84.5	246	2
2023-08-02T00:00	20156	57	-51.8	-84.6	242	3
2023-08-02T00:00	20175	57	-51.6	-84.5	241	4
2023-08-02T00:00	20199	57	-51.5	-84.4	241	4
2023-08-02T00:00	20221	57	-51.1	-84.9	244	4
2023-08-02T00:00	20243	56	-50.9	-84.7	248	4
2023-08-02T00:00	20268	56	-51.0	-84.8	253	4
2023-08-02T00:00	20293	56	-51.0	-84.8	260	4
2023-08-02T00:00	20315	56	-51.0	-84.8	266	4
2023-08-02T00:00	20337	56	-51.0	-84.8	272	3
2023-08-02T00:00	20364	55	-50.9	-84.7	277	3
2023-08-02T00:00	20379	55	-50.8	-84.7	279	3
2023-08-02T00:00	20407	55	-50.8	-84.7	278	2
2023-08-02T00:00	20432	55	-50.7	-84.6	275	2
2023-08-02T00:00	20451	55	-50.7	-84.6	270	1
2023-08-02T00:00	20482	54	-50.7	-84.6	267	1
2023-08-02T00:00	20503	54	-50.7	-84.6	272	1
2023-08-02T00:00	20527	54	-50.7	-84.6	292	1
2023-08-02T00:00	20551	54	-50.5	-84.5	321	1
2023-08-02T00:00	20576	54	-50.6	-84.5	339	1
2023-08-02T00:00	20605	53	-50.7	-84.6	348	1
2023-08-02T00:00	20626	53	-50.8	-84.7	356	1
2023-08-02T00:00	20651	53	-50.8	-84.7	8	1
2023-08-02T00:00	20673	53	-50.7	-84.6	26	1
2023-08-02T00:00	20701	53	-50.6	-84.5	49	1
2023-08-02T00:00	20722	52	-50.4	-84.4	67	2
2023-08-02T00:00	20751	52	-50.6	-84.5	80	2
2023-08-02T00:00	20774	52	-50.8	-84.7	90	2
2023-08-02T00:00	20799	52	-50.7	-84.6	97	3
2023-08-02T00:00	20823	52	-50.8	-84.7	103	3
2023-08-02T00:00	20850	51	-50.8	-84.7	107	3
2023-08-02T00:00	20872	51	-51.0	-84.8	110	3
2023-08-02T00:00	20893	51	-51.2	-85.0	114	2
2023-08-02T00:00	20924	51	-50.8	-84.7	124	1
2023-08-02T00:00	20949	51	-50.6	-84.5	170	1
2023-08-02T00:00	20975	50	-50.3	-84.3	243	1
2023-08-02T00:00	21005	50	-50.3	-84.3	261	1
2023-08-02T00:00	21030	50	-50.2	-84.2	270	2
2023-08-02T00:00	21052	50	-50.1	-84.2	280	1
2023-08-02T00:00	21076	50	-49.8	-84.0	297	1
2023-08-02T00:00	21102	49	-49.7	-83.9	16	0
2023-08-02T00:00	21127	49	-49.8	-84.0	71	1
2023-08-02T00:00	21159	49	-49.9	-84.0	85	2
2023-08-02T00:00	21182	49	-50.0	-84.1	93	3
2023-08-02T00:00	21208	49	-50.1	-84.2	100	3
2023-08-02T00:00	21229	48	-50.1	-84.2	107	3
2023-08-02T00:00	21257	48	-50.2	-84.2	116	4
2023-08-02T00:00	21284	48	-50.3	-84.3	126	4
2023-08-02T00:00	21311	48	-50.4	-84.4	139	4
2023-08-02T00:00	21334	48	-50.5	-84.5	152	4
2023-08-02T00:00	21354	48	-50.6	-84.5	165	4
2023-08-02T00:00	21377	47	-50.8	-84.7	177	4
2023-08-02T00:00	21405	47	-50.9	-84.7	188	4
2023-08-02T00:00	21427	47	-50.9	-84.7	198	4
2023-08-02T00:00	21454	47	-51.0	-84.8	207	5
2023-08-02T00:00	21473	47	-50.8	-84.7	216	5
2023-08-02T00:00	21501	47	-50.8	-84.7	225	5
2023-08-02T00:00	21521	46	-50.5	-84.5	233	5
2023-08-02T00:00	21550	46	-50.4	-84.4	241	5
2023-08-02T00:00	21569	46	-50.4	-84.4	248	5
2023-08-02T00:00	21592	46	-50.3	-84.3	255	5
2023-08-02T00:00	21618	46	-50.4	-84.4	261	6
2023-08-02T00:00	21641	46	-50.4	-84.4	268	6
2023-08-02T00:00	21666	45	-50.3	-84.3	276	6
2023-08-02T00:00	21690	45	-50.1	-85.1	284	5
2023-08-02T00:00	21712	45	-49.9	-84.9	294	5
2023-08-02T00:00	21739	45	-49.6	-84.7	305	4
2023-08-02T00:00	21764	45	-49.4	-84.6	317	4
2023-08-02T00:00	21789	45	-49.4	-84.6	329	4
2023-08-02T00:00	21811	44	-49.5	-84.6	341	3
2023-08-02T00:00	21831	44	-49.4	-84.6	350	3
2023-08-02T00:00	21859	44	-49.4	-84.6	357	3
2023-08-02T00:00	21882	44	-49.3	-84.5	2	2
2023-08-02T00:00	21904	44	-49.1	-84.3	4	2
2023-08-02T00:00	21927	44	-49.1	-84.3	4	2
2023-08-02T00:00	21953	43	-49.2	-84.4	5	2
2023-08-02T00:00	21976	43	-49.3	-84.5	8	2
2023-08-02T00:00	22000	43	-49.4	-84.6	16	2
2023-08-02T00:00	22025	43	-49.6	-84.7	25	2
2023-08-02T00:00	22048	43	-49.6	-84.7	35	3
2023-08-02T00:00	22071	43	-49.4	-84.6	44	3
2023-08-02T00:00	22093	42	-49.4	-84.6	52	4
2023-08-02T00:00	22118	42	-49.5	-84.6	60	5
2023-08-02T00:00	22142	42	-49.6	-84.7	68	5
2023-08-02T00:00	22165	42	-49.6	-84.7	77	5
2023-08-02T00:00	22194	42	-49.7	-84.8	85	6
2023-08-02T00:00	22211	42	-49.5	-84.6	91	6
2023-08-02T00:00	22240	42	-49.4	-84.6	96	7
2023-08-02T00:00	22260	41	-49.4	-84.6	101	7
2023-08-02T00:00	22288	41	-49.5	-84.6	105	7
2023-08-02T00:00	22311	41	-49.7	-84.8	110	7
2023-08-02T00:00	22339	41	-49.7	-84.8	114	7
2023-08-02T00:00	22358	41	-49.8	-84.8	119	7
2023-08-02T00:00	22385	41	-49.9	-84.9	123	6
2023-08-02T00:00	22412	40	-50.0	-85.0	126	5
2023-08-02T00:00	22438	40	-50.0	-85.0	128	5
2023-08-02T00:00	22463	40	-49.9	-84.9	128	4
2023-08-02T00:00	22488	40	-49.9	-84.9	124	3
2023-08-02T00:00	22516	40	-49.7	-84.8	115	3
2023-08-02T00:00	22537	40	-49.7	-84.8	103	3
2023-08-02T00:00	22566	40	-49.7	-84.8	93	3
2023-08-02T00:00	22592	39	-49.5	-84.6	87	3
2023-08-02T00:00	22622	39	-49.4	-84.6	85	4
2023-08-02T00:00	22637	39	-49.4	-84.6	84	4
2023-08-02T00:00	22666	39	-49.3	-84.5	84	5
2023-08-02T00:00	22696	39	-49.4	-84.6	84	6
2023-08-02T00:00	22722	39	-49.5	-84.6	85	6
2023-08-02T00:00	22744	38	-49.7	-84.8	87	7
2023-08-02T00:00	22775	38	-49.7	-84.8	90	8
2023-08-02T00:00	22794	38	-49.9	-84.9	94	8
2023-08-02T00:00	22828	38	-50.0	-85.0	98	8
2023-08-02T00:00	22859	38	-50.1	-85.1	102	8
2023-08-02T00:00	22886	38	-49.9	-84.9	107	7
2023-08-02T00:00	22912	38	-49.9	-84.9	113	7
2023-08-02T00:00	22939	37	-50.0	-85.0	119	6
2023-08-02T00:00	22971	37	-50.0	-85.0	125	6
2023-08-02T00:00	22998	37	-50.0	-85.0	130	6
2023-08-02T00:00	23026	37	-50.1	-85.1	135	5
2023-08-02T00:00	23052	37	-50.2	-85.1	137	5
2023-08-02T00:00	23080	37	-50.2	-85.1	138	5
2023-08-02T00:00	23106	36	-50.1	-85.1	135	5
2023-08-02T00:00	23135	36	-50.1	-85.1	131	4
2023-08-02T00:00	23161	36	-50.0	-85.0	126	5
2023-08-02T00:00	23185	36	-49.9	-84.9	123	5
2023-08-02T00:00	23222	36	-49.8	-84.8	121	5
2023-08-02T00:00	23245	36	-49.8	-84.8	122	5
2023-08-02T00:00	23276	35	-50.1	-85.1	123	6
2023-08-02T00:00	23305	35	-50.0	-85.0	125	6
2023-08-02T00:00	23333	35	-50.1	-85.1	125	6
2023-08-02T00:00	23361	35	-50.1	-85.1	125	5
2023-08-02T00:00	23386	35	-50.2	-85.1	123	5
2023-08-02T00:00	23414	35	-50.2	-85.1	119	5
2023-08-02T00:00	23446	35	-50.3	-85.2	116	4
2023-08-02T00:00	23472	34	-50.3	-85.2	111	4
2023-08-02T00:00	23502	34	-50.2	-85.1	106	4
2023-08-02T00:00	23531	34	-50.4	-85.3	100	4
2023-08-02T00:00	23559	34	-50.4	-85.3	94	4
2023-08-02T00:00	23584	34	-50.4	-85.3	89	4
2023-08-02T00:00	23605	34	-50.4	-85.3	85	4
2023-08-02T00:00	23635	34	-50.3	-85.2	82	4
2023-08-02T00:00	23663	33	-50.3	-85.2	80	4
2023-08-02T00:00	23690	33	-50.3	-85.2	77	4
2023-08-02T00:00	23723	33	-50.4	-85.3	75	4
2023-08-02T00:00	23746	33	-50.5	-85.3	73	4
2023-08-02T00:00	23771	33	-50.6	-85.4	73	5
2023-08-02T00:00	23797	33	-50.5	-85.3	75	5
2023-08-02T00:00	23827	33	-50.5	-85.3	78	6
2023-08-02T00:00	23850	32	-50.5	-85.3	81	6
2023-08-02T00:00	23875	32	-50.5	-85.3	84	7
2023-08-02T00:00	23906	32	-50.6	-85.4	88	7
2023-08-02T00:00	23929	32	-50.7	-85.5	92	7
2023-08-02T00:00	23957	32	-50.6	-85.4	96	7
2023-08-02T00:00	23981	32	-50.6	-85.4	100	7
2023-08-02T00:00	24014	32	-50.8	-85.6	105	7
2023-08-02T00:00	24038	32	-50.8	-85.6	110	7
2023-08-02T00:00	24065	31	-50.9	-85.6	115	7
2023-08-02T00:00	24090	31	-50.9	-85.6	119	6
2023-08-02T00:00	24120	31	-50.9	-85.6	124	6
2023-08-02T00:00	24143	31	-50.9	-85.6	129	5
2023-08-02T00:00	24165	31	-51.0	-85.7	134	5
2023-08-02T00:00	24197	31	-50.9	-85.6	140	4
2023-08-02T00:00	24221	31	-50.8	-85.6	144	4
2023-08-02T00:00	24253	31	-50.8	-85.6	148	3
2023-08-02T00:00	24271	30	-50.8	-85.6	150	2
2023-08-02T00:00	24302	30	-50.8	-85.6	144	2
2023-08-02T00:00	24325	30	-50.6	-85.4	126	1
2023-08-02T00:00	24345	30	-50.4	-85.3	102	2
2023-08-02T00:00	24379	30	-50.4	-85.3	89	2
2023-08-02T00:00	24405	30	-50.4	-85.3	85	3
2023-08-02T00:00	24437	30	-50.5	-85.3	84	3
2023-08-02T00:00	24457	30	-50.5	-85.3	86	4
2023-08-02T00:00	24475	29	-50.5	-85.3	88	4
2023-08-02T00:00	24503	29	-50.5	-85.3	90	5
2023-08-02T00:00	24544	29	-50.3	-85.2	90	5
2023-08-02T00:00	24567	29	-50.2	-85.1	89	5
2023-08-02T00:00	24591	29	-50.1	-85.1	84	5
2023-08-02T00:00	24612	29	-49.9	-84.9	79	5
2023-08-02T00:00	24642	29	-49.7	-85.8	73	6
2023-08-02T00:00	24670	29	-49.7	-85.8	69	6
2023-08-02T00:00	24690	29	-49.6	-85.8	67	6
2023-08-02T00:00	24722	28	-49.6	-84.7	67	6
2023-08-02T00:00	24748	28	-49.6	-84.7	68	7
2023-08-02T00:00	24768	28	-49.7	-84.8	70	7
2023-08-02T00:00	24794	28	-49.8	-84.8	73	7
2023-08-02T00:00	24829	28	-49.8	-84.8	77	7
2023-08-02T00:00	24843	28	-49.9	-84.9	81	7
2023-08-02T00:00	24875	28	-49.9	-84.9	86	7
2023-08-02T00:00	24905	28	-49.8	-84.8	93	6
2023-08-02T00:00	24923	28	-49.9	-84.9	100	6
2023-08-02T00:00	24956	27	-50.0	-85.0	108	6
2023-08-02T00:00	24983	27	-49.9	-84.9	116	7
2023-08-02T00:00	25009	27	-49.7	-84.8	122	7
2023-08-02T00:00	25043	27	-49.6	-84.7	127	7
2023-08-02T00:00	25063	27	-49.5	-85.7	130	6
2023-08-02T00:00	25091	27	-49.5	-85.7	132	6
2023-08-02T00:00	25120	27	-49.2	-85.5	132	5
2023-08-02T00:00	25141	27	-48.8	-85.2	133	5
2023-08-02T00:00	25171	27	-48.4	-84.9	133	4
2023-08-02T00:00	25197	26	-48.2	-84.8	133	4
2023-08-02T00:00	25227	26	-48.2	-84.8	132	3
2023-08-02T00:00	25249	26	-48.1	-84.7	126	3
2023-08-02T00:00	25278	26	-48.1	-84.7	114	2
2023-08-02T00:00	25293	26	-48.1	-84.7	99	2
2023-08-02T00:00	25327	26	-48.1	-84.7	85	3
2023-08-02T00:00	25360	26	-48.1	-84.7	75	3
2023-08-02T00:00	25381	26	-48.1	-84.7	68	4
2023-08-02T00:00	25412	26	-48.0	-84.6	65	5
2023-08-02T00:00	25441	25	-48.0	-84.6	63	6
2023-08-02T00:00	25467	25	-48.0	-84.6	64	6
2023-08-02T00:00	25492	25	-48.1	-84.7	65	7
2023-08-02T00:00	25514	25	-48.2	-84.8	67	7
2023-08-02T00:00	25546	25	-48.2	-84.8	68	7
2023-08-02T00:00	25570	25	-48.3	-84.8	69	7
2023-08-02T00:00	25602	25	-48.3	-84.8	69	7
2023-08-02T00:00	25627	25	-48.2	-84.8	69	6
2023-08-02T00:00	25661	25	-48.2	-84.8	69	6
2023-08-02T00:00	25688	25	-48.1	-84.7	69	6
2023-08-02T00:00	25709	24	-48.1	-84.7	69	6
2023-08-02T00:00	25742	24	-47.9	-84.6	70	6
2023-08-02T00:00	25760	24	-47.7	-84.4	71	7
2023-08-02T00:00	25795	24	-47.6	-84.3	72	7
2023-08-02T00:00	25826	24	-47.4	-84.2	73	8
2023-08-02T00:00	25855	24	-47.4	-84.2	74	9
2023-08-02T00:00	25876	24	-47.4	-84.2	74	9
2023-08-02T00:00	25902	24	-47.4	-84.2	74	10
2023-08-02T00:00	25933	24	-47.4	-84.2	74	11
2023-08-02T00:00	25966	24	-47.5	-84.3	74	11
2023-08-02T00:00	25993	23	-47.4	-84.2	74	11
2023-08-02T00:00	26027	23	-47.3	-84.1	74	11
2023-08-02T00:00	26049	23	-47.3	-84.1	76	11
2023-08-02T00:00	26076	23	-47.2	-84.1	79	10
2023-08-02T00:00	26100	23	-47.3	-84.1	83	10
2023-08-02T00:00	26157	23	-47.2	-84.1	89	10
2023-08-02T00:00	26182	23	-47.2	-84.1	99	10
2023-08-02T00:00	26217	23	-47.2	-84.1	102	10
2023-08-02T00:00	26239	23	-47.2	-84.1	104	10
2023-08-02T00:00	26261	23	-47.2	-84.1	104	10
2023-08-02T00:00	26282	22	-47.1	-84.0	102	9
2023-08-02T00:00	26326	22	-47.0	-83.9	98	9
2023-08-02T00:00	26346	22	-46.7	-83.7	93	9
2023-08-02T00:00	26368	22	-46.5	-83.6	91	9
2023-08-02T00:00	26396	22	-46.5	-83.6	90	9
2023-08-02T00:00	26419	22	-46.3	-83.4	92	9
2023-08-02T00:00	26448	22	-46.2	-83.4	95	9
2023-08-02T00:00	26478	22	-46.1	-83.3	99	9
2023-08-02T00:00	26499	22	-46.1	-83.3	100	9
2023-08-02T00:00	26529	22	-46.1	-83.3	100	9
2023-08-02T00:00	26550	22	-46.0	-83.2	98	8
2023-08-02T00:00	26576	21	-45.7	-83.0	94	8
2023-08-02T00:00	26607	21	-45.5	-82.9	90	8
2023-08-02T00:00	26639	21	-45.4	-82.8	85	8
2023-08-02T00:00	26663	21	-45.4	-82.8	80	8
2023-08-02T00:00	26681	21	-45.5	-82.9	76	9
2023-08-02T00:00	26711	21	-45.5	-82.9	72	9
2023-08-02T00:00	26736	21	-45.5	-82.9	69	10
2023-08-02T00:00	26774	21	-45.3	-82.7	67	11
2023-08-02T00:00	26791	21	-45.2	-82.7	67	11
2023-08-02T00:00	26820	21	-45.4	-82.8	67	12
2023-08-02T00:00	26844	21	-45.4	-82.8	69	12
2023-08-02T00:00	26872	21	-45.4	-82.8	72	12
2023-08-02T00:00	26895	20	-45.3	-82.7	76	12
2023-08-02T00:00	26930	20	-45.2	-82.7	80	12
2023-08-02T00:00	26945	20	-45.3	-82.7	85	12
2023-08-02T00:00	26974	20	-45.4	-82.8	90	13
2023-08-02T00:00	26998	20	-45.4	-82.8	95	13
2023-08-02T00:00	27027	20	-45.5	-82.9	99	13
2023-08-02T00:00	27048	20	-45.6	-82.9	101	13
2023-08-02T00:00	27075	20	-45.7	-83.0	102	13
2023-08-02T00:00	27103	20	-45.8	-83.1	102	13
2023-08-02T00:00	27121	20	-45.7	-83.0	100	13
2023-08-02T00:00	27162	20	-45.6	-82.9	98	12
2023-08-02T00:00	27191	20	-45.4	-82.8	96	12
2023-08-02T00:00	27207	20	-45.3	-82.7	96	12
2023-08-02T00:00	27237	19	-45.3	-82.7	96	12
2023-08-02T00:00	27260	19	-45.4	-82.8	97	13
2023-08-02T00:00	27293	19	-45.4	-82.8	99	13
2023-08-02T00:00	27316	19	-45.6	-82.9	102	13
2023-08-02T00:00	27345	19	-45.7	-83.0	104	13
2023-08-02T00:00	27378	19	-45.8	-83.1	106	13
2023-08-02T00:00	27392	19	-45.8	-83.1	109	13
2023-08-02T00:00	27420	19	-45.8	-83.1	110	13
2023-08-02T00:00	27444	19	-45.8	-83.1	111	12
2023-08-02T00:00	27482	19	-45.8	-83.1	111	12
2023-08-02T00:00	27497	19	-45.6	-82.9	111	11
2023-08-02T00:00	27522	19	-45.5	-82.9	111	11
2023-08-02T00:00	27546	19	-45.5	-82.9	110	10
2023-08-02T00:00	27591	18	-45.4	-82.8	109	10
2023-08-02T00:00	27609	18	-45.3	-82.7	107	9
2023-08-02T00:00	27650	18	-45.2	-82.7	104	9
2023-08-02T00:00	27661	18	-45.0	-82.5	101	9
2023-08-02T00:00	27689	18	-44.9	-82.5	99	10
2023-08-02T00:00	27718	18	-44.8	-82.4	98	10
2023-08-02T00:00	27745	18	-45.0	-82.5	99	11
2023-08-02T00:00	27788	18	-45.0	-82.5	100	11
2023-08-02T00:00	27807	18	-44.9	-82.5	101	12
2023-08-02T00:00	27843	18	-44.7	-82.3	103	12
2023-08-02T00:00	27859	18	-44.6	-82.2	104	11
2023-08-02T00:00	27898	18	-44.6	-82.2	105	11
2023-08-02T00:00	27917	18	-44.4	-82.1	106	11
2023-08-02T00:00	27950	17	-44.4	-82.1	107	10
2023-08-02T00:00	27984	17	-44.5	-82.2	109	10
2023-08-02T00:00	28007	17	-44.5	-82.2	110	11
2023-08-02T00:00	28036	17	-44.5	-82.2	111	11
2023-08-02T00:00	28072	17	-44.4	-82.1	111	12
2023-08-02T00:00	28092	17	-44.4	-82.1	113	13
2023-08-02T00:00	28121	17	-44.5	-82.2	114	13
2023-08-02T00:00	28151	17	-44.5	-82.2	115	13
2023-08-02T00:00	28186	17	-44.5	-82.2	116	14
2023-08-02T00:00	28214	17	-44.4	-82.1	117	13
2023-08-02T00:00	28242	17	-44.1	-81.9	118	13
2023-08-02T00:00	28275	17	-44.0	-81.8	120	12
2023-08-02T00:00	28310	17	-44.0	-81.8	121	12
2023-08-02T00:00	28329	17	-44.1	-81.9	123	11
2023-08-02T00:00	28346	16	-44.0	-81.8	125	11
2023-08-02T00:00	28392	16	-44.1	-81.9	126	10
2023-08-02T00:00	28429	16	-44.2	-82.0	127	10
2023-08-02T00:00	28445	16	-44.4	-82.1	128	10
2023-08-02T00:00	28472	16	-44.4	-82.1	128	10
2023-08-02T00:00	28498	16	-44.3	-82.0	128	10
2023-08-02T00:00	28559	16	-44.1	-81.9	128	10
2023-08-02T00:00	28566	16	-44.0	-81.8	128	10
2023-08-02T00:00	28592	16	-44.0	-81.8	128	11
2023-08-02T00:00	28627	16	-43.9	-81.8	128	11
2023-08-02T00:00	28648	16	-43.7	-81.6	128	10
2023-08-02T00:00	28688	16	-43.7	-81.6	128	10
2023-08-02T00:00	28713	16	-43.6	-81.5	127	9
2023-08-02T00:00	28751	16	-43.4	-81.4	125	8
2023-08-02T00:00	28774	15	-43.2	-81.3	121	8
2023-08-02T00:00	28793	15	-42.9	-81.1	116	7
2023-08-02T00:00	28821	15	-42.5	-80.8	111	7
2023-08-02T00:00	28853	15	-42.4	-80.7	106	7
2023-08-02T00:00	28884	15	-42.3	-80.6	102	7
2023-08-02T00:00	28910	15	-42.3	-80.6	100	7
2023-08-02T00:00	28932	15	-42.2	-80.6	98	7
2023-08-02T00:00	28952	15	-42.1	-80.5	97	7
2023-08-02T00:00	29000	15	-42.2	-80.6	97	8
2023-08-02T00:00	29012	15	-42.2	-80.6	96	8
2023-08-02T00:00	29037	15	-42.2	-80.6	96	9
2023-08-02T00:00	29077	15	-42.1	-80.5	95	9
2023-08-02T00:00	29086	15	-42.0	-80.4	95	9
2023-08-02T00:00	29127	15	-42.0	-80.4	96	9
2023-08-02T00:00	29139	15	-42.0	-80.4	98	9
2023-08-02T00:00	29189	15	-42.0	-80.4	101	9
2023-08-02T00:00	29231	14	-42.2	-80.6	102	8
2023-08-02T00:00	29272	14	-42.2	-80.6	103	8
2023-08-02T00:00	29293	14	-42.0	-80.4	99	9
2023-08-02T00:00	29333	14	-42.0	-80.4	95	9
2023-08-02T00:00	29359	14	-41.9	-80.4	92	10
2023-08-02T00:00	29383	14	-42.0	-80.4	89	11
2023-08-02T00:00	29414	14	-42.1	-80.5	87	12
2023-08-02T00:00	29435	14	-42.0	-80.4	85	13
2023-08-02T00:00	29466	14	-42.0	-80.4	84	13
2023-08-02T00:00	29488	14	-42.0	-80.4	84	14
2023-08-02T00:00	29524	14	-41.9	-80.4	84	14
2023-08-02T00:00	29548	14	-41.9	-80.4	85	14
2023-08-02T00:00	29574	14	-41.9	-80.4	87	14
2023-08-02T00:00	29612	14	-41.9	-80.4	89	14
2023-08-02T00:00	29635	14	-42.0	-80.4	91	14
2023-08-02T00:00	29674	14	-41.9	-80.4	93	13
2023-08-02T00:00	29695	14	-41.8	-80.3	96	12
2023-08-02T00:00	29717	13	-41.9	-80.4	98	12
2023-08-02T00:00	29754	13	-42.0	-80.4	100	11
2023-08-02T00:00	29779	13	-42.0	-80.4	101	11
2023-08-02T00:00	29804	13	-42.1	-80.5	102	10
2023-08-02T00:00	29829	13	-42.0	-80.4	102	10
2023-08-02T00:00	29900	13	-41.9	-80.4	102	10
2023-08-02T00:00	29908	13	-41.2	-79.9	100	9
2023-08-02T00:00	29949	13	-41.1	-79.8	100	9
2023-08-02T00:00	29963	13	-40.9	-79.7	101	8
2023-08-02T00:00	29992	13	-40.7	-79.5	101	7
2023-08-02T00:00	30024	13	-40.6	-79.5	100	6
2023-08-02T00:00	30069	13	-40.4	-79.3	97	5
2023-08-02T00:00	30075	13	-40.2	-79.2	88	4
2023-08-02T00:00	30112	13	-39.8	-78.9	74	4
2023-08-02T00:00	30131	13	-39.7	-78.8	63	4
2023-08-02T00:00	30173	13	-39.4	-78.6	58	5
2023-08-02T00:00	30192	13	-39.2	-78.5	58	6
2023-08-02T00:00	30209	13	-38.6	-78.1	62	7
2023-08-02T00:00	30251	12	-38.5	-78.0	66	8
2023-08-02T00:00	30262	12	-38.5	-78.0	70	9
2023-08-02T00:00	30292	12	-38.7	-78.1	74	10
2023-08-02T00:00	30326	12	-38.9	-78.3	77	11
2023-08-02T00:00	30352	12	-39.1	-78.4	78	12
2023-08-02T00:00	30379	12	-39.1	-78.4	80	12
2023-08-02T00:00	30402	12	-39.1	-78.4	80	13
2023-08-02T00:00	30429	12	-39.0	-78.3	81	14
2023-08-02T00:00	30469	12	-38.9	-78.3	82	14
2023-08-02T00:00	30492	12	-38.8	-78.2	84	15
2023-08-02T00:00	30507	12	-38.8	-78.2	86	15
2023-08-02T00:00	30558	12	-38.8	-78.2	88	15
2023-08-02T00:00	30578	12	-38.9	-78.3	91	15
2023-08-02T00:00	30599	12	-38.9	-78.3	93	15
2023-08-02T00:00	30618	12	-38.9	-78.3	96	14
2023-08-02T00:00	30656	12	-38.8	-78.2	98	14
2023-08-02T00:00	30688	12	-38.6	-78.1	100	13
2023-08-02T00:00	30717	12	-38.4	-77.9	102	13
2023-08-02T00:00	30722	12	-38.4	-77.9	104	13
2023-08-02T00:00	30756	12	-38.3	-77.9	106	12
2023-08-02T00:00	30795	12	-38.1	-77.7	107	11
2023-08-02T00:00	30830	11	-38.2	-77.8	107	11
2023-08-02T00:00	30852	11	-38.2	-77.8	106	10
2023-08-02T00:00	30887	11	-38.2	-77.8	105	9
2023-08-02T00:00	30914	11	-38.3	-77.9	103	9
2023-08-02T00:00	30924	11	-38.3	-77.9	101	9
2023-08-02T00:00	30961	11	-38.2	-77.8	98	10
2023-08-02T00:00	30997	11	-38.0	-77.6	96	10
2023-08-02T00:00	31035	11	-38.0	-77.6	94	11
2023-08-02T00:00	31040	11	-38.0	-77.6	92	11
2023-08-02T00:00	31098	11	-37.9	-77.6	90	11
2023-08-02T00:00	31116	11	-37.9	-77.6	89	11
2023-08-02T00:00	31152	11	-37.9	-77.6	88	11
2023-08-02T00:00	31175	11	-37.9	-77.6	88	10
2023-08-02T00:00	31194	11	-37.8	-77.5	88	10
2023-08-02T00:00	31237	11	-37.7	-77.4	88	9
2023-08-02T00:00	31259	11	-37.7	-77.4	88	9
2023-08-02T00:00	31291	11	-37.7	-77.4	88	9
2023-08-02T00:00	31323	11	-37.6	-77.4	87	9
2023-08-02T00:00	31369	11	-37.6	-77.4	86	9
2023-08-02T00:00	31384	11	-37.6	-77.4	86	10
2023-08-02T00:00	31437	10	-37.6	-77.4	85	10
2023-08-02T00:00	31463	10	-37.6	-77.4	85	10
2023-08-02T00:00	31497	10	-37.5	-77.3	86	10
2023-08-02T00:00	31525	10	-37.5	-77.3	86	10
2023-08-02T00:00	31559	10	-37.5	-77.3	87	10
2023-08-02T00:00	31597	10	-37.7	-77.4	88	10
2023-08-02T00:00	31616	10	-37.9	-77.6	88	10
2023-08-02T00:00	31660	10	-37.9	-77.6	88	10
2023-08-02T00:00	31680	10	-38.0	-77.6	88	9
2023-08-02T00:00	31716	10	-38.1	-77.7	89	9
2023-08-02T00:00	31768	10	-38.1	-77.7	90	8
2023-08-02T00:00	31780	10	-38.2	-77.8	92	8
2023-08-02T00:00	31838	10	-38.4	-77.9	95	7
2023-08-02T00:00	31848	10	-38.5	-78.0	98	7
2023-08-02T00:00	31877	10	-38.4	-77.9	102	7
2023-08-02T00:00	31918	10	-38.1	-77.7	104	8
2023-08-02T00:00	31941	10	-38.1	-77.7	103	8
2023-08-02T00:00	31982	10	-38.1	-77.7	102	9
2023-08-02T00:00	32009	10	-38.0	-77.6	99	9
2023-08-02T00:00	32046	10	-37.9	-77.6	97	9
2023-08-02T00:00	32085	10	-38.0	-77.6	94	10
2023-08-02T00:00	32110	10	-38.0	-77.6	92	9
2023-08-02T00:00	32145	9	-38.0	-77.6	90	9
2023-08-02T00:00	32167	9	-37.9	-77.6	87	9
2023-08-02T00:00	32211	9	-37.9	-77.6	84	8
2023-08-02T00:00	32238	9	-37.8	-77.5	81	8
2023-08-02T00:00	32245	9	-37.6	-77.4	78	7
2023-08-02T00:00	32276	9	-37.5	-77.3	75	7
2023-08-02T00:00	32327	9	-37.4	-77.2	72	7
2023-08-02T00:00	32350	9	-37.4	-77.2	70	7
2023-08-02T00:00	32395	9	-37.4	-77.2	68	7
2023-08-02T00:00	32415	9	-37.3	-77.2	69	7
2023-08-02T00:00	32440	9	-37.1	-77.0	70	7
2023-08-02T00:00	32483	9	-37.0	-77.0	72	8
2023-08-02T00:00	32488	9	-37.0	-77.0	74	8
2023-08-02T00:00	32530	9	-37.0	-77.0	75	8
2023-08-02T00:00	32558	9	-37.0	-77.0	74	8
2023-08-02T00:00	32563	9	-37.0	-77.0	74	8
2023-08-02T00:00	32616	9	-37.0	-77.0	74	8
2023-08-02T00:00	32628	9	-37.0	-77.0	75	8
2023-08-02T00:00	32651	9	-37.0	-77.0	76	8
2023-08-02T00:00	32677	9	-37.1	-77.0	78	8
2023-08-02T00:00	32698	9	-37.1	-77.0	80	8
2023-08-02T00:00	32735	9	-37.1	-77.0	82	8
2023-08-02T00:00	32767	9	-37.1	-77.0	85	8
2023-08-02T00:00	32797	9	-37.1	-77.0	87	9
2023-08-02T00:00	32818	9	-37.0	-77.0	90	9
2023-08-02T00:00	32843	9	-36.8	-76.8	92	9
2023-08-02T00:00	32860	9	-36.6	-76.7	94	10
2023-08-02T00:00	32889	9	-36.5	-76.6	96	11
2023-08-02T00:00	32910	8	-36.5	-76.6	97	11
2023-08-02T06:00	113	989	14.2	13.3	231	4
2023-08-02T06:00	145	986	14.1	12.6	228	4
2023-08-02T06:00	171	983	13.9	12.3	227	6
2023-08-02T06:00	198	980	13.8	12.2	227	7
2023-08-02T06:00	223	977	14.0	12.0	229	9
2023-08-02T06:00	247	974	14.1	11.7	232	10
2023-08-02T06:00	269	971	14.2	11.9	235	11
2023-08-02T06:00	290	969	14.4	11.5	239	12
2023-08-02T06:00	316	966	14.5	11.4	244	12
2023-08-02T06:00	340	963	14.5	11.3	249	13
2023-08-02T06:00	369	960	14.4	11.0	254	13
2023-08-02T06:00	400	957	14.3	10.7	258	12
2023-08-02T06:00	428	953	14.4	9.9	261	12
2023-08-02T06:00	458	950	14.4	9.5	263	12
2023-08-02T06:00	483	947	14.3	9.3	263	11
2023-08-02T06:00	504	945	14.1	9.3	263	11
2023-08-02T06:00	526	942	13.9	9.3	262	12
2023-08-02T06:00	547	940	13.7	9.3	262	12
2023-08-02T06:00	569	938	13.4	9.1	262	12
2023-08-02T06:00	595	935	13.2	9.1	263	12
2023-08-02T06:00	617	932	13.0	9.2	263	13
2023-08-02T06:00	638	930	12.8	9.1	263	13
2023-08-02T06:00	659	928	12.6	9.0	262	13
2023-08-02T06:00	677	925	12.4	9.1	261	13
2023-08-02T06:00	702	923	12.2	8.9	260	13
2023-08-02T06:00	720	921	12.0	9.0	260	13
2023-08-02T06:00	736	919	11.8	8.9	261	13
2023-08-02T06:00	753	917	11.7	8.9	263	13
2023-08-02T06:00	773	915	11.5	8.8	265	13
2023-08-02T06:00	793	913	11.3	8.7	266	13
2023-08-02T06:00	816	910	11.1	8.7	267	12
2023-08-02T06:00	836	908	11.0	8.7	267	12
2023-08-02T06:00	855	906	10.8	8.6	266	12
2023-08-02T06:00	878	904	10.6	8.4	266	12
2023-08-02T06:00	907	901	10.3	8.4	266	12
2023-08-02T06:00	936	898	10.1	8.4	266	12
2023-08-02T06:00	956	895	9.9	8.3	267	12
2023-08-02T06:00	974	893	9.7	8.0	268	12
2023-08-02T06:00	1000	891	9.6	7.7	268	13
2023-08-02T06:00	1020	888	9.5	7.7	268	13
2023-08-02T06:00	1040	886	9.4	7.5	267	13
2023-08-02T06:00	1062	884	9.3	7.4	266	13
2023-08-02T06:00	1086	881	9.1	7.1	264	14
2023-08-02T06:00	1110	879	9.0	6.9	262	14
2023-08-02T06:00	1135	876	8.9	6.6	261	14
2023-08-02T06:00	1156	874	8.8	6.4	260	14
2023-08-02T06:00	1177	872	8.7	6.3	259	14
2023-08-02T06:00	1200	869	8.5	5.9	259	14
2023-08-02T06:00	1223	867	8.4	5.8	258	14
2023-08-02T06:00	1245	865	8.3	5.6	257	14
2023-08-02T06:00	1265	862	8.1	5.7	254	14
2023-08-02T06:00	1287	860	7.9	5.6	252	15
2023-08-02T06:00	1307	858	7.8	5.6	250	15
2023-08-02T06:00	1327	856	7.5	5.5	248	15
2023-08-02T06:00	1346	854	7.4	5.4	248	15
2023-08-02T06:00	1364	852	7.3	5.1	247	15
2023-08-02T06:00	1385	850	7.4	5.0	247	14
2023-08-02T06:00	1410	847	7.3	4.5	247	14
2023-08-02T06:00	1433	845	7.1	4.4	246	14
2023-08-02T06:00	1455	843	7.0	4.4	244	13
2023-08-02T06:00	1477	841	6.8	4.3	243	13
2023-08-02T06:00	1499	838	6.6	4.0	243	13
2023-08-02T06:00	1525	836	6.4	4.1	243	13
2023-08-02T06:00	1548	833	6.2	3.9	243	13
2023-08-02T06:00	1571	831	6.0		244	14
2023-08-02T06:00	1592	829	5.8	4.0	245	14
2023-08-02T06:00	1611	827	5.7	3.9	245	14
2023-08-02T06:00	1635	824	5.5	3.8	246	14
2023-08-02T06:00	1662	822	5.2	3.8	247	14
2023-08-02T06:00	1686	819	5.0	3.8	247	14
2023-08-02T06:00	1709	817	4.8	3.8	248	14
2023-08-02T06:00	1737	814	4.6	3.6	248	14
2023-08-02T06:00	1764	812	4.4	3.3	248	13
2023-08-02T06:00	1789	809	4.3	3.3	248	13
2023-08-02T06:00	1813	807	4.0	3.0	249	13
2023-08-02T06:00	1838	804	3.8	2.9	249	13
2023-08-02T06:00	1863	802	3.6	3.0	251	13
2023-08-02T06:00	1886	799	3.4	2.9	251	13
2023-08-02T06:00	1912	797	3.2	2.8	252	13
2023-08-02T06:00	1936	795	3.0	2.6	252	13
2023-08-02T06:00	1959	793	2.8	2.7	252	12
2023-08-02T06:00	1978	790	2.6	2.6	253	12
2023-08-02T06:00	1999	788	2.5	2.1	254	12
2023-08-02T06:00	2029	786	2.3	2.0	256	12
2023-08-02T06:00	2057	783	2.1	1.9	257	12
2023-08-02T06:00	2085	780	1.8	1.8	259	13
2023-08-02T06:00	2106	778	1.6	1.6	260	13
2023-08-02T06:00	2129	776	1.6	1.6	261	13
2023-08-02T06:00	2152	774	1.4	1.4	262	12
2023-08-02T06:00	2177	771	1.2	1.2	263	11
2023-08-02T06:00	2200	769	1.2	0.8	264	10
2023-08-02T06:00	2225	767	1.4	0.1	265	10
2023-08-02T06:00	2249	765	1.5	-0.1	267	10
2023-08-02T06:00	2268	763	1.5	-0.3	269	10
2023-08-02T06:00	2291	760	1.4	-0.4	271	10
2023-08-02T06:00	2313	758	1.2	-0.6	273	10
2023-08-02T06:00	2331	757	1.1	-0.7	275	10
2023-08-02T06:00	2353	755	1.0	-0.7	277	11
2023-08-02T06:00	2375	753	0.8	-0.7	277	11
2023-08-02T06:00	2400	750	0.7	-0.9	277	12
2023-08-02T06:00	2420	748	0.6	-0.8	276	12
2023-08-02T06:00	2441	746	0.5	-0.8	275	13
2023-08-02T06:00	2461	745	0.3	-1.0	273	13
2023-08-02T06:00	2484	742	0.2	-1.3	271	13
2023-08-02T06:00	2504	740	0.0	-1.3	269	13
2023-08-02T06:00	2528	738	-0.2	-1.4	266	12
2023-08-02T06:00	2554	736	-0.5	-1.5	263	12
2023-08-02T06:00	2579	734	-0.5	-1.9	260	12
2023-08-02T06:00	2605	731	-0.4	-2.8	258	12
2023-08-02T06:00	2632	729	-0.5	-3.6	256	12
2023-08-02T06:00	2660	726	-0.5	-4.7	255	12
2023-08-02T06:00	2685	724	-0.6	-5.5	254	12
2023-08-02T06:00	2712	722	-0.5	-5.8	253	12
2023-08-02T06:00	2738	719	-0.7	-5.7	251	12
2023-08-02T06:00	2762	717	-0.9	-5.9	249	12
2023-08-02T06:00	2785	715	-1.1	-6.0	247	11
2023-08-02T06:00	2812	713	-1.3	-6.3	244	11
2023-08-02T06:00	2840	710	-1.4	-6.3	243	11
2023-08-02T06:00	2867	708	-1.4	-6.3	244	10
2023-08-02T06:00	2890	706	-1.4	-7.0	246	10
2023-08-02T06:00	2916	703	-1.5	-7.6	248	11
2023-08-02T06:00	2942	701	-1.5	-7.7	250	11
2023-08-02T06:00	2961	699	-1.6	-7.7	250	11
2023-08-02T06:00	2985	697	-1.8	-7.5	249	11
2023-08-02T06:00	3011	695	-2.0	-6.2	247	11
2023-08-02T06:00	3033	693	-2.0	-4.0	245	11
2023-08-02T06:00	3061	691	-2.2	-4.1	244	11
2023-08-02T06:00	3082	689	-2.3	-3.9	245	11
2023-08-02T06:00	3108	687	-2.5	-4.1	247	12
2023-08-02T06:00	3133	684	-2.7	-4.3	249	12
2023-08-02T06:00	3155	682	-2.9	-4.2	250	13
2023-08-02T06:00	3176	681	-2.9	-4.4	251	13
2023-08-02T06:00	3194	679	-2.8	-5.2	252	13
2023-08-02T06:00	3222	677	-2.4	-6.0	252	13
2023-08-02T06:00	3249	675	-2.2	-6.3	252	13
2023-08-02T06:00	3272	673	-2.3	-6.6	252	13
2023-08-02T06:00	3291	671	-2.3	-6.8	253	13
2023-08-02T06:00	3312	669	-2.2	-6.8	253	13
2023-08-02T06:00	3333	667	-2.0	-6.7	253	13
2023-08-02T06:00	3358	665	-2.0	-6.7	254	13
2023-08-02T06:00	3384	663	-2.1	-6.9	255	13
2023-08-02T06:00	3408	661	-2.2	-6.9	256	13
2023-08-02T06:00	3433	659	-2.4	-7.1	258	13
2023-08-02T06:00	3462	657	-2.6	-7.7	260	13
2023-08-02T06:00	3488	655	-2.7	-8.1	261	13
2023-08-02T06:00	3515	652	-2.8	-8.7	262	13
2023-08-02T06:00	3539	650	-2.7	-9.4	262	13
2023-08-02T06:00	3566	648	-2.7	-9.5	261	13
2023-08-02T06:00	3599	645	-2.9	-9.3	260	13
2023-08-02T06:00	3623	643	-3.0	-8.7	259	13
2023-08-02T06:00	3643	642	-3.0	-8.8	259	13
2023-08-02T06:00	3678	639	-3.0	-9.5	261	13
2023-08-02T06:00	3701	637	-3.0	-9.9	263	12
2023-08-02T06:00	3727	635	-3.2	-9.2	266	12
2023-08-02T06:00	3756	633	-3.3	-9.4	269	12
2023-08-02T06:00	3794	630	-3.6	-9.8	272	12
2023-08-02T06:00	3820	628	-3.8	-9.9	273	12
2023-08-02T06:00	3844	626	-3.8	-10.2	274	12
2023-08-02T06:00	3865	624	-4.0	-10.6	275	12
2023-08-02T06:00	3885	622	-3.9	-12.0	275	12
2023-08-02T06:00	3908	621	-3.8	-12.6	276	13
2023-08-02T06:00	3935	619	-4.0	-12.9	277	13
2023-08-02T06:00	3956	617	-4.1	-13.0	276	12
2023-08-02T06:00	3977	615	-4.3	-13.1	274	12
2023-08-02T06:00	4001	613	-4.5	-12.6	272	12
2023-08-02T06:00	4029	611	-4.6	-12.5	270	11
2023-08-02T06:00	4053	609	-4.7	-14.1	269	11
2023-08-02T06:00	4080	607	-4.7	-15.9	269	11
2023-08-02T06:00	4104	605	-4.7	-16.9	269	11
2023-08-02T06:00	4127	604	-4.8	-17.2	269	11
2023-08-02T06:00	4158	601	-4.7	-26.8	269	11
2023-08-02T06:00	4187	599	-4.8	-27.5	268	11
2023-08-02T06:00	4207	598	-4.8	-30.3	268	12
2023-08-02T06:00	4230	596	-4.9	-29.6	268	12
2023-08-02T06:00	4254	594	-5.2	-16.0	268	11
2023-08-02T06:00	4282	592	-5.5	-15.8	268	11
2023-08-02T06:00	4307	590	-5.7	-15.6	269	11
2023-08-02T06:00	4337	588	-5.9	-18.0	272	10
2023-08-02T06:00	4360	586	-6.0	-19.9	275	10
2023-08-02T06:00	4381	584	-6.2	-22.4	278	10
2023-08-02T06:00	4409	582	-6.3	-25.5	280	10
2023-08-02T06:00	4430	581	-6.5	-21.7	280	10
2023-08-02T06:00	4449	579	-6.8	-17.4	280	11
2023-08-02T06:00	4480	577	-7.1	-17.3	279	11
2023-08-02T06:00	4506	575	-7.3	-17.5	278	11
2023-08-02T06:00	4528	573	-7.5	-18.9	279	10
2023-08-02T06:00	4554	572	-7.7	-19.1	281	10
2023-08-02T06:00	4583	569	-8.0	-19.1	283	11
2023-08-02T06:00	4612	567	-8.2	-18.8	284	11
2023-08-02T06:00	4631	566	-8.4	-18.5	285	11
2023-08-02T06:00	4651	565	-8.6	-18.9	284	11
2023-08-02T06:00	4670	563	-8.8	-19.4	283	11
2023-08-02T06:00	4691	562	-8.9	-19.8	282	11
2023-08-02T06:00	4716	560	-9.1	-19.9	281	12
2023-08-02T06:00	4740	558	-9.4	-19.7	280	12
2023-08-02T06:00	4768	556	-9.6	-19.6	279	13
2023-08-02T06:00	4794	554	-9.8	-19.9	279	13
2023-08-02T06:00	4819	552	-10.0	-21.1	279	13
2023-08-02T06:00	4839	551	-10.0	-25.0	280	13
2023-08-02T06:00	4869	549	-10.0	-25.6	282	13
2023-08-02T06:00	4888	547	-10.1	-23.1	284	13
2023-08-02T06:00	4912	546	-10.3	-24.7	286	13
2023-08-02T06:00	4939	544	-10.4	-23.6	286	13
2023-08-02T06:00	4964	542	-10.6	-26.4	285	14
2023-08-02T06:00	4988	540	-10.5	-33.4	285	14
2023-08-02T06:00	5011	539	-10.4	-37.5	284	15
2023-08-02T06:00	5030	537	-10.3		284	15
2023-08-02T06:00	5048	536	-10.4	-26.3	284	15
2023-08-02T06:00	5071	535	-10.6	-22.5	284	15
2023-08-02T06:00	5090	533	-10.6	-24.8	284	15
2023-08-02T06:00	5108	532	-10.7	-24.3	284	15
2023-08-02T06:00	5127	531	-10.8	-22.4	283	14
2023-08-02T06:00	5146	529	-10.9	-22.1	283	14
2023-08-02T06:00	5171	528	-11.1	-21.3	283	14
2023-08-02T06:00	5197	526	-11.4	-21.0	282	14
2023-08-02T06:00	5224	524	-11.6	-20.9	282	14
2023-08-02T06:00	5256	522	-11.9	-21.1	282	14
2023-08-02T06:00	5284	520	-12.2	-21.0	281	14
2023-08-02T06:00	5306	518	-12.4	-21.1	281	14
2023-08-02T06:00	5335	516	-12.6	-21.3	280	15
2023-08-02T06:00	5362	515	-12.8	-21.3	279	15
2023-08-02T06:00	5381	513	-13.0	-21.4	279	15
2023-08-02T06:00	5398	512	-13.2	-21.8	279	15
2023-08-02T06:00	5419	511	-13.3	-22.4	280	16
2023-08-02T06:00	5443	509	-13.4	-23.2	281	16
2023-08-02T06:00	5473	507	-13.6	-23.4	282	16
2023-08-02T06:00	5502	505	-13.8	-24.1	283	16
2023-08-02T06:00	5521	504	-13.9	-24.4	283	15
2023-08-02T06:00	5548	502	-14.1	-24.6	283	15
2023-08-02T06:00	5570	501	-14.3	-24.9	282	15
2023-08-02T06:00	5593	499	-14.5	-25.1	281	15
2023-08-02T06:00	5621	497	-14.8	-25.2	281	14
2023-08-02T06:00	5646	496	-15.0	-25.2	281	14
2023-08-02T06:00	5673	494	-15.3	-25.3	281	14
2023-08-02T06:00	5704	492	-15.6	-25.5	280	14
2023-08-02T06:00	5726	490	-15.8	-25.7	279	15
2023-08-02T06:00	5749	489	-16.0	-25.8	278	15
2023-08-02T06:00	5770	488	-16.1	-25.7	277	15
2023-08-02T06:00	5790	486	-16.4	-25.7	276	15
2023-08-02T06:00	5816	485	-16.6	-25.8	276	15
2023-08-02T06:00	5848	483	-16.9	-25.9	276	15
2023-08-02T06:00	5880	481	-17.2	-26.0	275	16
2023-08-02T06:00	5910	479	-17.4	-26.2	275	16
2023-08-02T06:00	5933	477	-17.7	-26.3	275	17
2023-08-02T06:00	5956	476	-17.9		275	17
2023-08-02T06:00	5987	474	-18.2	-26.7	276	17
2023-08-02T06:00	6012	472	-18.4	-27.2	276	18
2023-08-02T06:00	6037	471	-18.6	-27.4	277	17
2023-08-02T06:00	6064	469	-18.8	-28.1	278	17
2023-08-02T06:00	6090	467	-19.0	-28.3	280	17
2023-08-02T06:00	6119	465	-19.2	-28.5	281	17
2023-08-02T06:00	6151	463	-19.5	-28.9	281	17
2023-08-02T06:00	6183	462	-19.8	-29.1	282	17
2023-08-02T06:00	6211	460	-20.1	-29.5	282	17
2023-08-02T06:00	6233	458	-20.3	-29.6	282	17
2023-08-02T06:00	6261	457	-20.6	-29.8	282	17
2023-08-02T06:00	6292	455	-20.8	-30.0	282	17
2023-08-02T06:00	6319	453	-21.0	-30.7	282	16
2023-08-02T06:00	6345	451	-21.1	-32.5	283	16
2023-08-02T06:00	6379	450	-21.3	-32.4	283	16
2023-08-02T06:00	6403	448	-21.5	-32.0	283	16
2023-08-02T06:00	6426	446	-21.7	-32.6	283	16
2023-08-02T06:00	6455	445	-21.9	-32.9	282	15
2023-08-02T06:00	6484	443	-22.1	-33.1	282	16
2023-08-02T06:00	6513	441	-22.3	-33.4	281	16
2023-08-02T06:00	6543	439	-22.5	-34.7	280	16
2023-08-02T06:00	6576	438	-22.5	-36.3	279	17
2023-08-02T06:00	6608	436	-22.7	-36.6	279	17
2023-08-02T06:00	6636	434	-22.8	-37.5	279	18
2023-08-02T06:00	6665	432	-23.0	-38.4	280	18
2023-08-02T06:00	6698	430	-22.9	-40.5	281	18
2023-08-02T06:00	6729	428	-23.0	-41.2	282	18
2023-08-02T06:00	6760	427	-22.9	-44.3	282	18
2023-08-02T06:00	6795	425	-22.9	-45.5	282	18
2023-08-02T06:00	6823	423	-23.0	-44.9	281	18
2023-08-02T06:00	6852	421	-23.2	-44.4	281	18
2023-08-02T06:00	6883	420	-23.4	-44.8	281	18
2023-08-02T06:00	6913	418	-23.6	-44.5	281	19
2023-08-02T06:00	6947	416	-23.8	-44.4	282	19
2023-08-02T06:00	6976	414	-24.1	-44.5	283	19
2023-08-02T06:00	6995	413	-24.3	-44.8	283	19
2023-08-02T06:00	7018	412	-24.5	-45.3	283	19
2023-08-02T06:00	7046	410	-24.8	-45.6	283	19
2023-08-02T06:00	7079	408	-25.0	-45.8	283	19
2023-08-02T06:00	7107	407	-25.3	-46.3	283	19
2023-08-02T06:00	7136	405	-25.5	-46.2	284	20
2023-08-02T06:00	7162	404	-25.8	-46.4	284	20
2023-08-02T06:00	7194	402	-26.0	-46.1	284	20
2023-08-02T06:00	7213	401	-26.2	-46.1	284	20
2023-08-02T06:00	7235	400	-26.4	-46.3	284	20
2023-08-02T06:00	7259	398	-26.6	-46.4	284	20
2023-08-02T06:00	7287	397	-26.8	-46.5	284	20
2023-08-02T06:00	7313	395	-27.1	-46.8	284	20
2023-08-02T06:00	7344	394	-27.4	-47.0	285	21
2023-08-02T06:00	7370	392	-27.6	-47.0	285	21
2023-08-02T06:00	7397	391	-27.9	-47.2	285	21
2023-08-02T06:00	7429	389	-28.1	-47.3	284	21
2023-08-02T06:00	7462	387	-28.4	-48.0	284	21
2023-08-02T06:00	7492	386	-28.6	-48.0	283	21
2023-08-02T06:00	7517	384	-28.9	-48.3	283	21
2023-08-02T06:00	7546	383	-29.1	-48.7	283	21
2023-08-02T06:00	7577	381	-29.3	-48.8	284	21
2023-08-02T06:00	7605	380	-29.5	-49.2	284	21
2023-08-02T06:00	7634	378	-29.8	-49.7	285	21
2023-08-02T06:00	7664	377	-30.0	-49.8	286	22
2023-08-02T06:00	7694	375	-30.2	-49.4	287	22
2023-08-02T06:00	7727	373	-30.4	-49.3	288	22
2023-08-02T06:00	7760	371	-30.7	-48.9	289	23
2023-08-02T06:00	7789	370	-30.7	-49.8	289	24
2023-08-02T06:00	7816	368	-30.9	-49.9	290	25
2023-08-02T06:00	7849	367	-30.9	-50.1	290	26
2023-08-02T06:00	7875	366	-31.1	-50.2	290	27
2023-08-02T06:00	7895	364	-31.0	-50.7	290	27
2023-08-02T06:00	7913	364	-31.2	-50.7	290	28
2023-08-02T06:00	7931	363	-31.2	-50.7	290	28
2023-08-02T06:00	7951	362	-31.2	-50.8	291	27
2023-08-02T06:00	7970	361	-31.3	-50.6	291	27
2023-08-02T06:00	7991	360	-31.5	-50.6	291	27
2023-08-02T06:00	8010	359	-31.7	-51.0	291	28
2023-08-02T06:00	8030	358	-31.7	-50.9	291	28
2023-08-02T06:00	8051	357	-31.9	-51.3	291	28
2023-08-02T06:00	8073	355	-32.0	-51.6	291	29
2023-08-02T06:00	8098	354	-32.1	-51.3	292	29
2023-08-02T06:00	8119	353	-32.0	-51.1	292	30
2023-08-02T06:00	8143	352	-32.0	-50.9	293	31
2023-08-02T06:00	8167	351	-32.0	-50.4	293	32
2023-08-02T06:00	8194	349	-32.0	-50.2	294	32
2023-08-02T06:00	8216	348	-32.0	-49.0	294	33
2023-08-02T06:00	8238	347	-32.2	-48.7	295	33
2023-08-02T06:00	8263	346	-32.3	-47.5	295	33
2023-08-02T06:00	8288	345	-32.6	-47.6	294	33
2023-08-02T06:00	8316	343	-32.8	-47.2	294	33
2023-08-02T06:00	8343	342	-33.0	-47.2	294	33
2023-08-02T06:00	8373	341	-33.3	-47.1	295	33
2023-08-02T06:00	8397	339	-33.6	-46.5	295	33
2023-08-02T06:00	8423	338	-33.8	-46.8	294	33
2023-08-02T06:00	8451	337	-34.1	-46.7	294	33
2023-08-02T06:00	8479	335	-34.4	-46.4	293	34
2023-08-02T06:00	8507	334	-34.6	-46.4	293	34
2023-08-02T06:00	8531	333	-34.8	-46.4	292	34
2023-08-02T06:00	8563	332	-35.1	-46.3	292	35
2023-08-02T06:00	8584	330	-35.4	-46.3	292	35
2023-08-02T06:00	8607	329	-35.6	-46.0	292	35
2023-08-02T06:00	8629	328	-35.8	-45.4	292	35
2023-08-02T06:00	8650	327	-35.9		292	35
2023-08-02T06:00	8671	326	-36.1	-41.2	293	34
2023-08-02T06:00	8697	325	-36.3	-41.5	293	34
2023-08-02T06:00	8723	324	-36.6	-41.8	294	34
2023-08-02T06:00	8751	323	-36.8	-41.5	295	34
2023-08-02T06:00	8779	321	-37.0	-41.5	296	34
2023-08-02T06:00	8808	320	-37.1	-42.2	297	34
2023-08-02T06:00	8837	319	-37.2	-42.5	298	34
2023-08-02T06:00	8865	317	-37.2	-43.5	298	34
2023-08-02T06:00	8887	316	-37.4	-43.3	298	34
2023-08-02T06:00	8911	315	-37.6	-43.3	298	34
2023-08-02T06:00	8932	314	-37.8	-43.6	298	34
2023-08-02T06:00	8952	313	-38.0	-43.6	298	34
2023-08-02T06:00	8974	312	-38.2	-43.4	298	34
2023-08-02T06:00	8996	311	-38.4	-43.6	297	34
2023-08-02T06:00	9016	310	-38.6	-43.7	297	35
2023-08-02T06:00	9043	309	-38.9	-43.8	296	36
2023-08-02T06:00	9079	308	-39.0	-47.7	296	37
2023-08-02T06:00	9102	307	-38.9	-51.7	295	37
2023-08-02T06:00	9124	306	-38.7	-56.5	295	38
2023-08-02T06:00	9143	305	-38.9	-56.0	295	38
2023-08-02T06:00	9160	304	-39.0	-57.5	295	39
2023-08-02T06:00	9180	303	-38.9	-59.9	295	39
2023-08-02T06:00	9204	302	-39.1	-59.1	294	40
2023-08-02T06:00	9223	301	-39.3	-59.0	294	40
2023-08-02T06:00	9245	300	-39.4	-59.2	294	41
2023-08-02T06:00	9263	299	-39.4	-59.3	293	41
2023-08-02T06:00	9282	299	-39.3	-59.9	293	42
2023-08-02T06:00	9301	298	-39.4	-60.0	293	42
2023-08-02T06:00	9321	297	-39.4	-60.1	293	42
2023-08-02T06:00	9339	296	-39.5	-60.2	292	42
2023-08-02T06:00	9360	295	-39.6	-60.1	292	43
2023-08-02T06:00	9380	294	-39.6	-60.2	291	43
2023-08-02T06:00	9398	294	-39.6	-60.3	291	43
2023-08-02T06:00	9418	293	-39.7	-60.4	290	42
2023-08-02T06:00	9438	292	-39.7	-60.5	290	42
2023-08-02T06:00	9456	291	-39.6	-60.7	290	42
2023-08-02T06:00	9475	290	-39.5	-61.2	291	41
2023-08-02T06:00	9495	290	-39.2	-61.1	291	41
2023-08-02T06:00	9515	289	-39.3	-61.3	291	40
2023-08-02T06:00	9538	288	-39.5	-61.4	292	40
2023-08-02T06:00	9559	287	-39.7	-61.5	292	40
2023-08-02T06:00	9580	286	-39.8	-61.4	292	39
2023-08-02T06:00	9606	285	-40.0	-61.6	292	39
2023-08-02T06:00	9630	284	-40.1	-61.8	292	39
2023-08-02T06:00	9660	283	-40.3	-61.8	293	39
2023-08-02T06:00	9685	282	-40.3	-61.9	293	38
2023-08-02T06:00	9704	281	-40.5	-62.1	293	38
2023-08-02T06:00	9725	280	-40.6	-62.1	294	38
2023-08-02T06:00	9746	279	-40.7	-62.3	294	38
2023-08-02T06:00	9770	278	-40.7	-62.5	295	38
2023-08-02T06:00	9791	277	-40.7	-62.7	295	38
2023-08-02T06:00	9814	276	-40.6	-62.9	296	39
2023-08-02T06:00	9836	275	-40.7	-62.9	297	39
2023-08-02T06:00	9858	274	-40.8	-63.0	297	40
2023-08-02T06:00	9879	274	-40.9	-63.1	298	40
2023-08-02T06:00	9901	273	-41.0	-63.2	298	41
2023-08-02T06:00	9927	272	-41.2	-63.3	299	41
2023-08-02T06:00	9953	271	-41.3	-63.4	299	42
2023-08-02T06:00	9979	270	-41.5	-63.8	300	42
2023-08-02T06:00	10007	269	-41.5	-64.0	300	43
2023-08-02T06:00	10037	267	-41.6	-64.2	300	44
2023-08-02T06:00	10069	266	-41.8	-64.1	301	44
2023-08-02T06:00	10102	265	-42.1	-64.3	301	45
2023-08-02T06:00	10131	264	-42.2	-64.4	300	46
2023-08-02T06:00	10156	263	-42.4	-64.7	300	47
2023-08-02T06:00	10186	262	-42.4	-64.9	300	47
2023-08-02T06:00	10212	261	-42.5	-65.1	299	47
2023-08-02T06:00	10236	260	-42.6	-65.6	299	47
2023-08-02T06:00	10262	259	-42.5	-65.8	299	47
2023-08-02T06:00	10286	258	-42.5	-66.0	299	47
2023-08-02T06:00	10310	257	-42.7	-66.0	299	47
2023-08-02T06:00	10333	256	-42.9	-66.0	300	48
2023-08-02T06:00	10357	255	-43.1	-66.0	300	48
2023-08-02T06:00	10380	254	-43.4	-66.1	300	48
2023-08-02T06:00	10401	253	-43.6	-66.3	300	48
2023-08-02T06:00	10424	252	-43.6	-66.4	300	47
2023-08-02T06:00	10448	252	-43.6	-66.6	300	47
2023-08-02T06:00	10471	251	-43.7	-66.8	300	47
2023-08-02T06:00	10492	250	-43.9	-66.9	300	47
2023-08-02T06:00	10514	249	-44.0	-67.0	300	48
2023-08-02T06:00	10536	248	-44.0	-67.2	300	48
2023-08-02T06:00	10556	248	-44.1	-67.1	300	47
2023-08-02T06:00	10577	247	-44.3	-67.3	300	47
2023-08-02T06:00	10601	246	-44.5	-67.3	300	47
2023-08-02T06:00	10624	245	-44.1	-67.4	300	47
2023-08-02T06:00	10647	244	-44.0	-67.8	301	47
2023-08-02T06:00	10669	243	-44.2	-67.8	301	46
2023-08-02T06:00	10691	243	-44.4	-67.8	301	46
2023-08-02T06:00	10713	242	-44.7	-68.0	301	45
2023-08-02T06:00	10734	241	-44.7	-68.2	302	44
2023-08-02T06:00	10754	240	-44.5	-68.3	302	44
2023-08-02T06:00	10774	240	-44.3	-68.6	302	43
2023-08-02T06:00	10794	239	-44.3	-68.8	302	42
2023-08-02T06:00	10813	238	-44.1	-69.0	302	42
2023-08-02T06:00	10832	238	-44.2	-69.2	302	41
2023-08-02T06:00	10852	237	-44.3	-69.5	302	41
2023-08-02T06:00	10872	236	-44.3	-69.7	302	40
2023-08-02T06:00	10890	236	-44.3	-69.7	301	40
2023-08-02T06:00	10908	235	-44.3	-69.9	301	39
2023-08-02T06:00	10927	234	-44.3	-69.9	301	39
2023-08-02T06:00	10945	234	-44.3	-70.1	301	39
2023-08-02T06:00	10966	233	-44.3	-70.1	301	38
2023-08-02T06:00	10983	232	-44.2	-70.0	301	38
2023-08-02T06:00	11004	232	-44.3	-70.1	301	38
2023-08-02T06:00	11022	231	-44.3	-70.3	302	38
2023-08-02T06:00	11040	230	-44.4	-70.4	302	38
2023-08-02T06:00	11058	230	-44.5	-70.5	302	38
2023-08-02T06:00	11077	229	-44.6	-70.5	301	38
2023-08-02T06:00	11096	228	-44.6	-70.5	301	39
2023-08-02T06:00	11114	228	-44.7	-70.6	301	39
2023-08-02T06:00	11133	227	-44.6	-70.8	300	40
2023-08-02T06:00	11153	226	-44.5	-70.7	300	40
2023-08-02T06:00	11173	226	-44.7	-70.8	301	41
2023-08-02T06:00	11194	225	-44.8	-70.9	301	41
2023-08-02T06:00	11213	224	-44.6	-71.0	300	41
2023-08-02T06:00	11232	224	-44.6	-71.2	300	41
2023-08-02T06:00	11251	223	-44.6	-71.2	300	41
2023-08-02T06:00	11269	223	-44.6	-71.4	299	41
2023-08-02T06:00	11290	222	-44.1	-71.3	298	41
2023-08-02T06:00	11307	221	-44.1	-71.5	298	41
2023-08-02T06:00	11329	221	-43.9	-71.6	297	41
2023-08-02T06:00	11350	220	-44.0	-71.7	297	41
2023-08-02T06:00	11370	219	-43.9	-71.6	297	41
2023-08-02T06:00	11390	219	-44.0	-71.7	297	41
2023-08-02T06:00	11412	218	-44.2	-71.9	297	41
2023-08-02T06:00	11432	217	-44.3	-71.9	296	41
2023-08-02T06:00	11450	217	-44.4	-72.0	296	41
2023-08-02T06:00	11469	216	-44.4	-72.0	295	42
2023-08-02T06:00	11490	215	-44.4	-72.0	295	42
2023-08-02T06:00	11509	215	-44.4	-72.3	296	42
2023-08-02T06:00	11527	214	-44.4	-72.6	296	43
2023-08-02T06:00	11548	213	-43.9	-72.8	297	43
2023-08-02T06:00	11570	213	-43.1	-72.8	298	43
2023-08-02T06:00	11589	212	-43.1	-73.2	299	43
2023-08-02T06:00	11608	212	-43.1	-73.2	300	43
2023-08-02T06:00	11627	211	-43.1	-73.2	301	42
2023-08-02T06:00	11646	210	-43.1	-73.2	302	42
2023-08-02T06:00	11665	210	-43.2	-73.3	303	42
2023-08-02T06:00	11683	209	-43.4	-73.4	303	43
2023-08-02T06:00	11703	209	-43.4	-73.4	304	43
2023-08-02T06:00	11725	208	-43.4	-73.8	304	43
2023-08-02T06:00	11744	207	-43.4	-73.8	304	44
2023-08-02T06:00	11763	207	-43.4	-74.2	304	44
2023-08-02T06:00	11786	206	-43.4	-74.2	304	44
2023-08-02T06:00	11808	205	-43.4	-74.6	304	45
2023-08-02T06:00	11829	205	-43.4	-74.6	304	45
2023-08-02T06:00	11852	204	-43.4	-74.6	304	45
2023-08-02T06:00	11873	203	-43.4	-74.6	304	46
2023-08-02T06:00	11894	203	-43.6	-74.7	304	46
2023-08-02T06:00	11916	202	-43.7	-75.3	304	46
2023-08-02T06:00	11939	201	-43.7	-75.3	304	46
2023-08-02T06:00	11960	201	-43.8	-75.3	304	46
2023-08-02T06:00	11981	200	-43.9	-75.4	304	46
2023-08-02T06:00	12002	200	-43.9	-75.4	304	45
2023-08-02T06:00	12023	199	-44.0	-75.5	304	45
2023-08-02T06:00	12046	198	-44.1	-75.5	304	45
2023-08-02T06:00	12066	198	-44.2	-75.6	304	45
2023-08-02T06:00	12090	197	-44.3	-76.2	305	45
2023-08-02T06:00	12110	196	-44.5	-76.3	305	45
2023-08-02T06:00	12130	196	-44.6	-76.4	305	44
2023-08-02T06:00	12153	195	-44.7	-76.5	305	44
2023-08-02T06:00	12173	194	-44.8	-76.5	305	44
2023-08-02T06:00	12195	194	-45.0	-76.7	305	44
2023-08-02T06:00	12217	193	-45.2	-76.8	305	44
2023-08-02T06:00	12239	193	-45.3	-76.4	305	44
2023-08-02T06:00	12262	192	-45.5	-76.6	305	44
2023-08-02T06:00	12286	191	-45.6	-76.7	305	44
2023-08-02T06:00	12308	191	-45.8	-76.8	305	43
2023-08-02T06:00	12332	190	-45.9	-76.9	304	43
2023-08-02T06:00	12355	189	-46.1	-77.0	304	43
2023-08-02T06:00	12380	189	-46.2	-77.1	304	42
2023-08-02T06:00	12407	188	-46.2	-77.1	304	42
2023-08-02T06:00	12434	187	-46.4	-77.3	304	41
2023-08-02T06:00	12458	186	-46.6	-77.0	304	41
2023-08-02T06:00	12487	186	-46.9	-77.2	304	40
2023-08-02T06:00	12510	185	-47.1	-77.4	305	39
2023-08-02T06:00	12532	184	-47.2	-77.4	305	39
2023-08-02T06:00	12550	184	-47.2	-77.4	305	38
2023-08-02T06:00	12572	183	-47.2	-77.4	305	38
2023-08-02T06:00	12593	183	-47.4	-77.6	305	38
2023-08-02T06:00	12613	182	-47.4	-77.6	305	37
2023-08-02T06:00	12633	181	-47.5	-77.7	304	37
2023-08-02T06:00	12654	181	-47.6	-77.7	304	37
2023-08-02T06:00	12674	180	-47.8	-77.9	303	36
2023-08-02T06:00	12695	180	-47.9	-78.0	303	36
2023-08-02T06:00	12714	179	-48.0	-78.0	302	35
2023-08-02T06:00	12735	179	-48.0	-78.0	302	35
2023-08-02T06:00	12756	178	-48.1	-78.1	302	34
2023-08-02T06:00	12778	178	-47.6	-78.2	301	33
2023-08-02T06:00	12794	177	-47.3	-77.9	301	33
2023-08-02T06:00	12815	177	-47.4	-78.0	300	33
2023-08-02T06:00	12836	176	-47.4	-78.0	300	32
2023-08-02T06:00	12857	175	-47.4	-78.0	299	32
2023-08-02T06:00	12877	175	-47.6	-78.2	299	32
2023-08-02T06:00	12898	174	-47.7	-78.2	299	31
2023-08-02T06:00	12919	174	-47.8	-78.3	298	31
2023-08-02T06:00	12938	173	-48.0	-78.5	298	31
2023-08-02T06:00	12959	173	-47.9	-78.8	298	31
2023-08-02T06:00	12979	172	-48.0	-78.9	298	32
2023-08-02T06:00	12998	172	-48.0	-78.9	299	32
2023-08-02T06:00	13018	171	-48.1	-79.0	299	32
2023-08-02T06:00	13038	171	-48.2	-79.1	300	31
2023-08-02T06:00	13059	170	-48.3	-79.1	301	31
2023-08-02T06:00	13080	170	-48.3	-79.1	301	31
2023-08-02T06:00	13102	169	-48.3	-79.1	301	30
2023-08-02T06:00	13122	169	-48.1	-79.0	301	30
2023-08-02T06:00	13143	168	-48.2	-79.1	301	30
2023-08-02T06:00	13165	167	-48.3	-79.1	300	30
2023-08-02T06:00	13186	167	-48.4	-79.2	300	30
2023-08-02T06:00	13207	166	-48.5	-79.3	299	31
2023-08-02T06:00	13232	166	-48.6	-79.4	298	31
2023-08-02T06:00	13254	165	-48.6	-79.4	297	31
2023-08-02T06:00	13275	165	-48.5	-79.8	296	31
2023-08-02T06:00	13297	164	-48.5	-79.8	296	31
2023-08-02T06:00	13318	164	-48.5	-79.8	296	31
2023-08-02T06:00	13340	163	-48.6	-79.9	296	31
2023-08-02T06:00	13363	162	-48.7	-79.9	296	31
2023-08-02T06:00	13386	162	-48.7	-79.9	296	31
2023-08-02T06:00	13409	161	-48.6	-79.9	297	31
2023-08-02T06:00	13430	161	-48.7	-79.9	298	31
2023-08-02T06:00	13453	160	-48.8	-80.0	299	31
2023-08-02T06:00	13474	160	-49.0	-80.2	299	31
2023-08-02T06:00	13498	159	-49.0	-80.2	300	30
2023-08-02T06:00	13520	159	-49.0	-80.2	301	30
2023-08-02T06:00	13543	158	-49.0	-80.2	301	30
2023-08-02T06:00	13562	158	-49.0	-80.2	301	29
2023-08-02T06:00	13586	157	-49.0	-80.2	302	29
2023-08-02T06:00	13614	156	-49.1	-80.2	302	28
2023-08-02T06:00	13637	156	-49.1	-80.8	302	28
2023-08-02T06:00	13661	155	-49.2	-80.3	302	27
2023-08-02T06:00	13683	155	-49.2	-80.3	302	27
2023-08-02T06:00	13706	154	-49.3	-80.4	303	26
2023-08-02T06:00	13730	154	-49.4	-80.5	303	26
2023-08-02T06:00	13754	153	-49.5	-80.5	303	25
2023-08-02T06:00	13778	153	-49.6	-80.6	304	25
2023-08-02T06:00	13802	152	-49.7	-80.7	304	25
2023-08-02T06:00	13825	151	-49.7	-80.7	303	24
2023-08-02T06:00	13848	151	-49.9	-80.8	303	24
2023-08-02T06:00	13870	150	-49.9	-80.8	303	24
2023-08-02T06:00	13891	150	-50.0	-80.9	302	24
2023-08-02T06:00	13914	149	-50.1	-81.0	302	24
2023-08-02T06:00	13937	149	-50.1	-81.0	302	24
2023-08-02T06:00	13959	148	-50.1	-81.0	301	24
2023-08-02T06:00	13981	148	-50.0	-80.9	301	24
2023-08-02T06:00	14005	147	-50.1	-81.0	301	23
2023-08-02T06:00	14027	147	-50.2	-81.0	301	23
2023-08-02T06:00	14050	146	-50.2	-81.0	301	23
2023-08-02T06:00	14071	146	-50.2	-81.0	301	22
2023-08-02T06:00	14094	145	-50.4	-81.2	301	22
2023-08-02T06:00	14116	145	-50.5	-81.3	300	21
2023-08-02T06:00	14137	144	-50.4	-81.2	300	21
2023-08-02T06:00	14159	144	-50.3	-81.1	300	21
2023-08-02T06:00	14179	143	-50.2	-81.0	299	21
2023-08-02T06:00	14201	143	-50.2	-81.0	299	21
2023-08-02T06:00	14223	142	-50.2	-81.0	299	21
2023-08-02T06:00	14246	142	-50.3	-81.1	299	22
2023-08-02T06:00	14267	142	-50.4	-81.2	299	22
2023-08-02T06:00	14287	141	-50.4	-81.2	299	21
2023-08-02T06:00	14310	141	-50.5	-81.3	298	21
2023-08-02T06:00	14332	140	-50.4	-81.2	298	21
2023-08-02T06:00	14353	140	-50.5	-81.3	297	21
2023-08-02T06:00	14373	139	-50.7	-81.4	296	21
2023-08-02T06:00	14394	139	-50.7	-81.4	296	21
2023-08-02T06:00	14413	138	-50.7	-81.4	295	21
2023-08-02T06:00	14435	138	-50.7	-81.4	295	21
2023-08-02T06:00	14455	137	-50.5	-81.3	295	21
2023-08-02T06:00	14476	137	-50.6	-81.3	296	21
2023-08-02T06:00	14495	137	-50.5	-81.8	296	21
2023-08-02T06:00	14514	136	-50.3	-81.6	296	21
2023-08-02T06:00	14534	136	-50.1	-81.5	295	21
2023-08-02T06:00	14555	135	-50.0	-81.4	295	21
2023-08-02T06:00	14575	135	-49.9	-81.3	294	21
2023-08-02T06:00	14596	135	-50.1	-81.5	293	21
2023-08-02T06:00	14614	134	-50.2		292	21
2023-08-02T06:00	14636	134	-50.1	-81.5	291	21
2023-08-02T06:00	14656	133	-50.0	-81.4	290	21
2023-08-02T06:00	14674	133	-49.9	-81.9	290	21
2023-08-02T06:00	14693	133	-49.9	-81.9	290	20
2023-08-02T06:00	14714	132	-49.7	-81.8	290	20
2023-08-02T06:00	14732	132	-49.7	-81.8	290	20
2023-08-02T06:00	14752	131	-49.6	-81.7	290	20
2023-08-02T06:00	14772	131	-49.7	-81.8	291	20
2023-08-02T06:00	14792	131	-49.8	-81.8	292	20
2023-08-02T06:00	14812	130	-49.9	-81.3	292	20
2023-08-02T06:00	14832	130	-50.1	-81.5	293	20
2023-08-02T06:00	14854	129	-50.3	-81.6	294	19
2023-08-02T06:00	14875	129	-50.3	-81.6	295	18
2023-08-02T06:00	14896	129	-50.2		296	18
2023-08-02T06:00	14917	128	-50.3	-81.6	296	17
2023-08-02T06:00	14938	128	-50.2		296	17
2023-08-02T06:00	14961	127	-50.1	-82.1	297	17
2023-08-02T06:00	14982	127	-50.1	-82.1	297	16
2023-08-02T06:00	15001	126	-50.2	-82.1	297	16
2023-08-02T06:00	15023	126	-50.4	-81.7	297	16
2023-08-02T06:00	15045	126	-50.4	-81.7	297	16
2023-08-02T06:00	15066	125	-50.5	-81.8	297	16
2023-08-02T06:00	15088	125	-50.5	-81.8	296	16
2023-08-02T06:00	15111	124	-50.5	-81.8	295	15
2023-08-02T06:00	15132	124	-50.5	-81.8	294	15
2023-08-02T06:00	15153	124	-50.5		293	15
2023-08-02T06:00	15177	123	-50.4	-82.3	292	15
2023-08-02T06:00	15198	123	-50.5	-81.8	291	15
2023-08-02T06:00	15222	122	-50.6	-81.9	291	15
2023-08-02T06:00	15244	122	-50.7		291	15
2023-08-02T06:00	15265	121	-50.8	-82.0	291	15
2023-08-02T06:00	15288	121	-50.8	-82.0	291	15
2023-08-02T06:00	15312	121	-50.8	-82.0	291	15
2023-08-02T06:00	15335	120	-50.9	-82.1	290	15
2023-08-02T06:00	15357	120	-51.1	-82.2	290	15
2023-08-02T06:00	15380	119	-51.2	-82.3	290	15
2023-08-02T06:00	15404	119	-51.4	-82.5	291	15
2023-08-02T06:00	15426	118	-51.4	-82.5	291	15
2023-08-02T06:00	15448	118	-51.4	-82.5	291	15
2023-08-02T06:00	15473	118	-51.4	-82.5	291	15
2023-08-02T06:00	15495	117	-51.4	-82.5	291	15
2023-08-02T06:00	15519	117	-51.5	-82.5	291	15
2023-08-02T06:00	15543	116	-51.5	-82.5	291	15
2023-08-02T06:00	15566	116	-51.6	-82.1	290	14
2023-08-02T06:00	15589	116	-51.6	-82.1	289	14
2023-08-02T06:00	15612	115	-51.8	-82.2	288	14
2023-08-02T06:00	15636	115	-51.8	-82.8	287	14
2023-08-02T06:00	15660	114	-51.9	-82.8	286	14
2023-08-02T06:00	15682	114	-52.0	-82.9	286	14
2023-08-02T06:00	15704	114	-51.9	-82.8	287	14
2023-08-02T06:00	15726	113	-51.9	-82.8	289	14
2023-08-02T06:00	15748	113	-51.9	-82.8	291	14
2023-08-02T06:00	15772	112	-52.0	-82.9	292	14
2023-08-02T06:00	15795	112	-52.1	-83.0	293	14
2023-08-02T06:00	15818	112	-52.3	-83.1	292	14
2023-08-02T06:00	15842	111	-52.4	-83.2	291	14
2023-08-02T06:00	15860	111	-52.4	-83.2	290	14
2023-08-02T06:00	15882	110	-52.3	-83.1	288	14
2023-08-02T06:00	15904	110	-52.2	-83.1	287	14
2023-08-02T06:00	15926	110	-52.2	-83.1	286	14
2023-08-02T06:00	15950	109	-52.4	-83.2	285	14
2023-08-02T06:00	15971	109	-52.5	-82.8	284	14
2023-08-02T06:00	15993	109	-52.7	-82.9	283	14
2023-08-02T06:00	16017	108	-52.6	-82.8	282	14
2023-08-02T06:00	16039	108	-52.4	-82.7	280	14
2023-08-02T06:00	16057	107	-52.4	-82.7	279	14
2023-08-02T06:00	16079	107	-52.5	-82.8	279	14
2023-08-02T06:00	16101	107	-52.6	-82.8	279	15
2023-08-02T06:00	16123	106	-52.7	-82.9	280	15
2023-08-02T06:00	16141	106	-52.7	-82.9	281	14
2023-08-02T06:00	16165	106	-52.8	-83.5	283	14
2023-08-02T06:00	16185	105	-52.6	-83.3	285	14
2023-08-02T06:00	16206	105	-52.4	-83.2	288	14
2023-08-02T06:00	16228	105	-52.3	-83.1	291	14
2023-08-02T06:00	16250	104	-52.2	-83.1	293	14
2023-08-02T06:00	16268	104	-52.0	-83.5	294	14
2023-08-02T06:00	16289	104	-52.0	-83.5	294	14
2023-08-02T06:00	16310	103	-52.1	-83.0	294	14
2023-08-02T06:00	16332	103	-52.0	-82.9	293	14
2023-08-02T06:00	16353	103	-52.0	-82.9	292	14
2023-08-02T06:00	16374	102	-52.1	-83.0	292	14
2023-08-02T06:00	16395	102	-52.0	-82.9	291	14
2023-08-02T06:00	16416	102	-52.1	-83.0	291	14
2023-08-02T06:00	16437	101	-52.1	-83.0	291	14
2023-08-02T06:00	16460	101	-52.2	-83.1	291	14
2023-08-02T06:00	16482	101	-52.3	-83.1	290	13
2023-08-02T06:00	16503	100	-52.0	-82.9	288	13
2023-08-02T06:00	16527	100	-52.0	-82.9	286	13
2023-08-02T06:00	16549	100	-52.0	-82.9	284	12
2023-08-02T06:00	16570	99	-52.0	-83.5	281	12
2023-08-02T06:00	16589	99	-51.9	-83.4	277	11
2023-08-02T06:00	16609	99	-51.9	-83.4	274	11
2023-08-02T06:00	16632	98	-52.0	-83.5	271	11
2023-08-02T06:00	16655	98	-52.0	-83.5	269	11
2023-08-02T06:00	16676	98	-52.1	-83.5	268	11
2023-08-02T06:00	16699	97	-52.1	-83.5	268	12
2023-08-02T06:00	16722	97	-51.8	-83.3	270	12
2023-08-02T06:00	16742	97	-51.7	-83.2	271	12
2023-08-02T06:00	16763	96	-51.7	-83.2	273	12
2023-08-02T06:00	16785	96	-51.7	-83.2	274	12
2023-08-02T06:00	16808	96	-51.5	-83.1	275	11
2023-08-02T06:00	16829	95	-51.3	-82.9	276	11
2023-08-02T06:00	16853	95	-51.2	-82.9	277	11
2023-08-02T06:00	16876	95	-51.0	-82.7	278	11
2023-08-02T06:00	16896	94	-50.9	-83.3	279	11
2023-08-02T06:00	16922	94	-51.0	-82.7	279	11
2023-08-02T06:00	16943	94	-50.9	-82.7	278	10
2023-08-02T06:00	16967	93	-51.0	-82.7	276	10
2023-08-02T06:00	16990	93	-51.2	-82.9	274	10
2023-08-02T06:00	17013	93	-51.2	-82.9	272	9
2023-08-02T06:00	17035	92	-51.2	-82.9	271	9
2023-08-02T06:00	17057	92	-51.3	-82.9	272	9
2023-08-02T06:00	17079	92	-51.4	-83.0	274	9
2023-08-02T06:00	17105	91	-51.4	-83.0	276	9
2023-08-02T06:00	17128	91	-51.4	-83.0	280	8
2023-08-02T06:00	17150	91	-51.5	-83.1	283	8
2023-08-02T06:00	17173	90	-51.5	-83.1	287	8
2023-08-02T06:00	17196	90	-51.6	-83.2	290	8
2023-08-02T06:00	17218	90	-51.8	-82.8	293	7
2023-08-02T06:00	17241	90	-52.0	-82.9	295	7
2023-08-02T06:00	17264	89	-52.1	-83.0	295	7
2023-08-02T06:00	17289	89	-52.2	-83.1	294	7
2023-08-02T06:00	17312	89	-52.2	-83.1	292	6
2023-08-02T06:00	17334	88	-52.2	-83.1	288	6
2023-08-02T06:00	17356	88	-52.3	-83.1	285	6
2023-08-02T06:00	17379	88	-52.4	-83.2	282	6
2023-08-02T06:00	17400	87	-52.3	-83.1	279	6
2023-08-02T06:00	17423	87	-52.3	-83.1	276	7
2023-08-02T06:00	17449	87	-52.4	-83.2	273	7
2023-08-02T06:00	17472	86	-52.4	-83.2	270	7
2023-08-02T06:00	17496	86	-52.4	-83.2	266	7
2023-08-02T06:00	17518	86	-52.5	-83.3	262	8
2023-08-02T06:00	17544	85	-52.5	-83.8	256	7
2023-08-02T06:00	17567	85	-52.5	-83.8	250	7
2023-08-02T06:00	17593	85	-52.5	-83.8	244	7
2023-08-02T06:00	17619	84	-52.5	-83.8	240	7
2023-08-02T06:00	17643	84	-52.4	-83.8	238	7
2023-08-02T06:00	17670	84	-52.3	-83.7	239	7
2023-08-02T06:00	17695	83	-52.6	-83.9	242	7
2023-08-02T06:00	17723	83	-52.7	-84.0	247	7
2023-08-02T06:00	17752	83	-52.9	-84.1	252	6
2023-08-02T06:00	17776	82	-52.7	-84.0	257	5
2023-08-02T06:00	17801	82	-52.5	-83.8	260	5
2023-08-02T06:00	17821	82	-52.8	-84.1	260	4
2023-08-02T06:00	17844	82	-52.7	-84.0	256	4
2023-08-02T06:00	17867	81	-52.4	-83.8	249	4
2023-08-02T06:00	17889	81	-52.4	-83.8	243	4
2023-08-02T06:00	17907	81	-52.3	-83.7	238	4
2023-08-02T06:00	17930	80	-52.4	-83.8	234	5
2023-08-02T06:00	17953	80	-52.5	-83.8	231	5
2023-08-02T06:00	17976	80	-52.5	-83.8	230	5
2023-08-02T06:00	17999	80	-52.7	-84.0	230	5
2023-08-02T06:00	18021	79	-52.7	-83.4	232	5
2023-08-02T06:00	18046	79	-52.8	-83.5	236	5
2023-08-02T06:00	18067	79	-53.0	-83.6	242	5
2023-08-02T06:00	18093	78	-53.0	-83.6	246	5
2023-08-02T06:00	18118	78	-53.1	-83.7	250	6
2023-08-02T06:00	18138	78	-53.2	-83.8	252	6
2023-08-02T06:00	18165	78	-53.3	-83.9	253	6
2023-08-02T06:00	18185	77	-53.2	-83.8	255	6
2023-08-02T06:00	18209	77	-53.0	-84.2	256	7
2023-08-02T06:00	18231	77	-52.9	-84.1	257	7
2023-08-02T06:00	18256	77	-52.9	-84.1	257	7
2023-08-02T06:00	18280	76	-52.8	-84.1	257	8
2023-08-02T06:00	18304	76	-52.6	-83.9	256	8
2023-08-02T06:00	18329	76	-52.3	-83.7	255	8
2023-08-02T06:00	18351	75	-52.1	-83.5	253	8
2023-08-02T06:00	18373	75	-52.2	-83.6	253	9
2023-08-02T06:00	18402	75	-52.4	-83.8	252	9
2023-08-02T06:00	18426	75	-52.6	-83.9	252	8
2023-08-02T06:00	18450	74	-52.5	-83.8	252	8
2023-08-02T06:00	18471	74	-52.6	-83.9	252	8
2023-08-02T06:00	18499	74	-52.4	-83.8	252	7
2023-08-02T06:00	18524	73	-52.4	-83.8	253	7
2023-08-02T06:00	18546	73	-52.3	-83.7	254	7
2023-08-02T06:00	18572	73	-52.1	-83.5	255	8
2023-08-02T06:00	18597	73	-52.2	-83.6	257	8
2023-08-02T06:00	18624	72	-52.3	-83.7	258	9
2023-08-02T06:00	18645	72	-52.5	-83.8	260	9
2023-08-02T06:00	18668	72	-52.6	-83.9	261	10
2023-08-02T06:00	18692	72	-52.5	-83.8	262	10
2023-08-02T06:00	18715	71	-52.1	-83.5	264	10
2023-08-02T06:00	18739	71	-51.7	-83.9	266	10
2023-08-02T06:00	18763	71	-51.6	-83.8	269	10
2023-08-02T06:00	18788	70	-51.5	-83.7	272	10
2023-08-02T06:00	18816	70	-51.4	-83.6	276	9
2023-08-02T06:00	18840	70	-51.3	-83.6	281	9
2023-08-02T06:00	18866	70	-51.1	-83.4	285	8
2023-08-02T06:00	18891	69	-51.0	-83.3	289	8
2023-08-02T06:00	18918	69	-51.0	-83.3	293	7
2023-08-02T06:00	18942	69	-50.9	-83.3	296	7
2023-08-02T06:00	18970	69	-51.0	-83.3	301	6
2023-08-02T06:00	18996	68	-51.1	-83.4	307	6
2023-08-02T06:00	19028	68	-51.5	-83.1	313	5
2023-08-02T06:00	19054	68	-51.7	-83.2	319	5
2023-08-02T06:00	19084	67	-51.6	-83.2	325	4
2023-08-02T06:00	19109	67	-51.7	-83.2	331	3
2023-08-02T06:00	19138	67	-51.9	-83.4	337	3
2023-08-02T06:00	19164	67	-51.9	-83.4	344	2
2023-08-02T06:00	19194	66	-51.8	-83.3	352	1
2023-08-02T06:00	19222	66	-51.8	-83.3	7	1
2023-08-02T06:00	19248	66	-52.0	-83.5	61	0
2023-08-02T06:00	19275	65	-52.3	-83.7	149	1
2023-08-02T06:00	19298	65	-52.4	-83.8	169	1
2023-08-02T06:00	19327	65	-52.6	-83.9	180	2
2023-08-02T06:00	19350	65	-52.8	-83.5	190	2
2023-08-02T06:00	19377	64	-53.0	-83.6	199	2
2023-08-02T06:00	19402	64	-53.1	-83.7	207	2
2023-08-02T06:00	19422	64	-53.1	-83.7	216	2
2023-08-02T06:00	19448	64	-53.2	-83.8	224	2
2023-08-02T06:00	19473	63	-53.3	-84.4	233	2
2023-08-02T06:00	19495	63	-53.2	-84.4	242	2
2023-08-02T06:00	19522	63	-53.1	-84.3	253	1
2023-08-02T06:00	19544	63	-53.0	-84.2	264	1
2023-08-02T06:00	19567	62	-53.0	-84.2	272	1
2023-08-02T06:00	19595	62	-53.2	-84.4	275	1
2023-08-02T06:00	19622	62	-53.2	-84.4	275	1
2023-08-02T06:00	19643	62	-53.0	-84.2	277	1
2023-08-02T06:00	19667	62	-52.8	-84.1	279	2
2023-08-02T06:00	19691	61	-52.7	-84.0	281	2
2023-08-02T06:00	19716	61	-52.6	-83.9	281	2
2023-08-02T06:00	19741	61	-52.4	-84.4	279	2
2023-08-02T06:00	19765	61	-52.3	-84.3	273	2
2023-08-02T06:00	19790	60	-52.3	-84.3	263	2
2023-08-02T06:00	19813	60	-52.2	-84.2	250	2
2023-08-02T06:00	19836	60	-52.3	-83.7	238	2
2023-08-02T06:00	19861	60	-52.4	-83.8	226	2
2023-08-02T06:00	19885	59	-52.6	-83.9	213	2
2023-08-02T06:00	19908	59	-52.7	-84.0	198	2
2023-08-02T06:00	19934	59	-52.5	-84.4	183	2
2023-08-02T06:00	19957	59	-52.0	-84.1	173	2
2023-08-02T06:00	19983	59	-51.5	-83.7	167	2
2023-08-02T06:00	20005	58	-51.5	-83.7	163	2
2023-08-02T06:00	20031	58	-51.7	-83.9	157	1
2023-08-02T06:00	20053	58	-51.7	-83.9	143	1
2023-08-02T06:00	20076	58	-51.6	-83.8	112	1
2023-08-02T06:00	20100	58	-51.6	-83.8	75	1
2023-08-02T06:00	20122	57	-51.6	-83.8	55	1
2023-08-02T06:00	20146	57	-51.5	-83.7	49	2
2023-08-02T06:00	20170	57	-51.5	-83.7	50	2
2023-08-02T06:00	20197	57	-51.5	-83.7	56	3
2023-08-02T06:00	20218	57	-51.4	-83.6	64	3
2023-08-02T06:00	20241	56	-51.2	-83.5	72	3
2023-08-02T06:00	20268	56	-51.1	-83.4	80	3
2023-08-02T06:00	20291	56	-50.9	-83.3	86	3
2023-08-02T06:00	20312	56	-50.8	-83.2	92	3
2023-08-02T06:00	20336	55	-50.8	-83.2	99	2
2023-08-02T06:00	20364	55	-50.9	-83.3	108	2
2023-08-02T06:00	20385	55	-51.0	-83.3	120	1
2023-08-02T06:00	20413	55	-51.2	-83.5	130	1
2023-08-02T06:00	20435	55	-51.3	-83.6	136	1
2023-08-02T06:00	20462	54	-51.4	-83.6	133	1
2023-08-02T06:00	20489	54	-51.6	-83.8	124	1
2023-08-02T06:00	20509	54	-51.6	-83.8	112	1
2023-08-02T06:00	20536	54	-51.6	-83.8	103	1
2023-08-02T06:00	20564	54	-51.6	-83.8	102	1
2023-08-02T06:00	20588	53	-51.5	-83.7	112	1
2023-08-02T06:00	20612	53	-51.3	-83.6	131	1
2023-08-02T06:00	20636	53	-51.1	-83.4	152	1
2023-08-02T06:00	20663	53	-51.0	-83.3	165	2
2023-08-02T06:00	20686	53	-51.0	-83.3	167	2
2023-08-02T06:00	20711	52	-51.1	-83.4	164	2
2023-08-02T06:00	20735	52	-51.0	-83.3	158	3
2023-08-02T06:00	20757	52	-50.7	-83.8	153	3
2023-08-02T06:00	20782	52	-50.5	-83.7	150	4
2023-08-02T06:00	20811	52	-50.6	-83.1	150	4
2023-08-02T06:00	20831	51	-50.7	-83.1	151	5
2023-08-02T06:00	20858	51	-50.8	-83.2	153	5
2023-08-02T06:00	20882	51	-50.9	-83.3	154	4
2023-08-02T06:00	20907	51	-50.9	-83.3	155	4
2023-08-02T06:00	20929	51	-50.9	-83.3	154	4
2023-08-02T06:00	20956	50	-50.8	-83.2	152	4
2023-08-02T06:00	20977	50	-50.7	-83.1	149	3
2023-08-02T06:00	20998	50	-50.7	-83.1	147	3
2023-08-02T06:00	21020	50	-50.6	-83.1	145	3
2023-08-02T06:00	21041	50	-50.7	-83.1	144	3
2023-08-02T06:00	21071	50	-50.8	-83.2	145	3
2023-08-02T06:00	21092	49	-50.8	-83.2	147	2
2023-08-02T06:00	21118	49	-50.9	-83.3	152	2
2023-08-02T06:00	21137	49	-50.9	-83.3	162	2
2023-08-02T06:00	21164	49	-50.9	-83.3	183	1
2023-08-02T06:00	21190	49	-50.9	-83.3	214	1
2023-08-02T06:00	21215	48	-50.8	-83.2	243	1
2023-08-02T06:00	21243	48	-50.8	-83.2	263	1
2023-08-02T06:00	21267	48	-50.8	-83.9	284	1
2023-08-02T06:00	21291	48	-50.6	-83.7	306	1
2023-08-02T06:00	21318	48	-50.3	-83.5	338	1
2023-08-02T06:00	21343	48	-50.0	-83.3	18	1
2023-08-02T06:00	21365	47	-49.9	-83.2	46	2
2023-08-02T06:00	21392	47	-50.1	-83.4	61	2
2023-08-02T06:00	21416	47	-50.1	-83.4	72	3
2023-08-02T06:00	21444	47	-50.1	-83.4	80	4
2023-08-02T06:00	21467	47	-50.2	-82.8	85	4
2023-08-02T06:00	21496	46	-50.3	-82.8	88	5
2023-08-02T06:00	21521	46	-50.5	-83.0	91	6
2023-08-02T06:00	21543	46	-50.7	-83.1	92	6
2023-08-02T06:00	21573	46	-50.7	-83.1	92	7
2023-08-02T06:00	21596	46	-50.8	-83.2	93	7
2023-08-02T06:00	21620	46	-50.9	-83.3	94	7
2023-08-02T06:00	21645	45	-50.9	-83.3	97	8
2023-08-02T06:00	21676	45	-50.8	-83.2	101	8
2023-08-02T06:00	21698	45	-50.8	-83.2	105	8
2023-08-02T06:00	21722	45	-50.9	-83.3	109	8
2023-08-02T06:00	21752	45	-51.0	-83.3	113	8
2023-08-02T06:00	21780	44	-51.1	-83.4	117	8
2023-08-02T06:00	21807	44	-51.2	-83.5	121	8
2023-08-02T06:00	21831	44	-51.4	-83.6	124	8
2023-08-02T06:00	21859	44	-51.5	-83.7	127	7
2023-08-02T06:00	21883	44	-51.5	-83.7	129	7
2023-08-02T06:00	21909	44	-51.5	-83.7	131	6
2023-08-02T06:00	21936	43	-51.6	-83.8	131	5
2023-08-02T06:00	21965	43	-51.7	-83.9	130	5
2023-08-02T06:00	21988	43	-51.7	-83.9	129	5
2023-08-02T06:00	22014	43	-51.6	-83.8	129	5
2023-08-02T06:00	22042	43	-51.6	-83.8	130	5
2023-08-02T06:00	22068	43	-51.6	-83.8	133	5
2023-08-02T06:00	22094	42	-51.7	-83.9	137	5
2023-08-02T06:00	22120	42	-51.6	-83.8	143	4
2023-08-02T06:00	22150	42	-51.7	-83.9	151	4
2023-08-02T06:00	22176	42	-51.8	-83.9	160	4
2023-08-02T06:00	22205	42	-51.7	-83.9	169	4
2023-08-02T06:00	22229	41	-51.6	-83.8	176	3
2023-08-02T06:00	22256	41	-51.5	-83.7	180	3
2023-08-02T06:00	22281	41	-51.5	-83.7	182	3
2023-08-02T06:00	22306	41	-51.4	-84.3	180	2
2023-08-02T06:00	22338	41	-51.3	-84.3	177	2
2023-08-02T06:00	22361	41	-51.2	-84.2	170	2
2023-08-02T06:00	22390	40	-51.0	-84.0	159	2
2023-08-02T06:00	22415	40	-50.9	-84.0	147	2
2023-08-02T06:00	22441	40	-51.0	-84.0	138	2
2023-08-02T06:00	22467	40	-50.9	-84.0	134	3
2023-08-02T06:00	22493	40	-50.9	-84.0	133	3
2023-08-02T06:00	22520	40	-50.8	-83.9	135	3
2023-08-02T06:00	22541	40	-50.8	-83.9	139	4
2023-08-02T06:00	22572	39	-50.9	-84.0	144	4
2023-08-02T06:00	22600	39	-50.9	-83.3	148	5
2023-08-02T06:00	22627	39	-51.0	-83.3	152	6
2023-08-02T06:00	22653	39	-51.1	-83.4	155	6
2023-08-02T06:00	22678	39	-51.3	-83.6	158	6
2023-08-02T06:00	22709	39	-51.3	-83.6	160	6
2023-08-02T06:00	22734	38	-51.4	-83.6	163	6
2023-08-02T06:00	22758	38	-51.3	-83.6	167	6
2023-08-02T06:00	22783	38	-51.3	-83.6	171	5
2023-08-02T06:00	22809	38	-51.2	-84.2	176	4
2023-08-02T06:00	22832	38	-51.1	-84.1	181	3
2023-08-02T06:00	22864	38	-51.0	-84.0	184	2
2023-08-02T06:00	22890	37	-50.9	-84.0	181	1
2023-08-02T06:00	22918	37	-50.7	-83.8	145	1
2023-08-02T06:00	22942	37	-50.7	-83.8	63	1
2023-08-02T06:00	22972	37	-50.5	-83.7	54	2
2023-08-02T06:00	22997	37	-50.4	-83.6	57	2
2023-08-02T06:00	23025	37	-50.3	-83.5	63	3
2023-08-02T06:00	23056	37	-50.2	-83.5	69	3
2023-08-02T06:00	23080	36	-50.1	-83.4	74	3
2023-08-02T06:00	23106	36	-50.1	-83.4	77	3
2023-08-02T06:00	23129	36	-50.0	-83.3	80	4
2023-08-02T06:00	23158	36	-49.9	-83.2	82	4
2023-08-02T06:00	23189	36	-49.7	-83.1	86	4
2023-08-02T06:00	23213	36	-49.6	-83.0	91	5
2023-08-02T06:00	23237	36	-49.8	-83.2	97	5
2023-08-02T06:00	23269	35	-49.8	-83.2	103	6
2023-08-02T06:00	23299	35	-49.8	-83.2	108	6
2023-08-02T06:00	23322	35	-49.8	-83.2	112	6
2023-08-02T06:00	23349	35	-49.7	-83.1	115	6
2023-08-02T06:00	23379	35	-49.6	-83.0	117	6
2023-08-02T06:00	23403	35	-49.6	-83.0	117	6
2023-08-02T06:00	23432	35	-49.6	-83.0	116	5
2023-08-02T06:00	23457	34	-49.6	-83.0	114	5
2023-08-02T06:00	23479	34	-49.6	-83.0	113	5
2023-08-02T06:00	23513	34	-49.5	-82.9	112	5
2023-08-02T06:00	23538	34	-49.4	-82.9	112	6
2023-08-02T06:00	23562	34	-49.4	-82.9	112	6
2023-08-02T06:00	23590	34	-49.5	-82.9	111	6
2023-08-02T06:00	23618	34	-49.5	-82.9	109	7
2023-08-02T06:00	23646	33	-49.6	-83.0	107	7
2023-08-02T06:00	23673	33	-49.7	-83.1	105	6
2023-08-02T06:00	23701	33	-49.8	-83.2	101	6
2023-08-02T06:00	23725	33	-49.9	-83.2	96	6
2023-08-02T06:00	23756	33	-49.9	-83.2	89	6
2023-08-02T06:00	23786	33	-49.8	-83.2	81	6
2023-08-02T06:00	23811	33	-49.6	-83.0	74	6
2023-08-02T06:00	23838	32	-49.6	-83.0	68	6
2023-08-02T06:00	23859	32	-49.6	-83.0	66	7
2023-08-02T06:00	23892	32	-49.5	-82.9	65	7
2023-08-02T06:00	23922	32	-49.5	-82.9	66	8
2023-08-02T06:00	23947	32	-49.6	-83.0	67	8
2023-08-02T06:00	23976	32	-49.6	-83.0	68	9
2023-08-02T06:00	24001	32	-49.7	-83.1	69	9
2023-08-02T06:00	24035	31	-49.7	-83.1	70	10
2023-08-02T06:00	24056	31	-49.7	-83.1	72	10
2023-08-02T06:00	24088	31	-49.5	-82.9	74	11
2023-08-02T06:00	24109	31	-49.3	-82.8	76	11
2023-08-02T06:00	24136	31	-49.4	-82.9	79	11
2023-08-02T06:00	24164	31	-49.5	-82.9	81	11
2023-08-02T06:00	24194	31	-49.6	-83.0	84	11
2023-08-02T06:00	24218	31	-49.9	-83.2	88	11
2023-08-02T06:00	24248	30	-50.0	-83.3	91	11
2023-08-02T06:00	24280	30	-50.1	-83.4	95	11
2023-08-02T06:00	24303	30	-50.2	-83.5	100	10
2023-08-02T06:00	24330	30	-50.3	-83.5	103	10
2023-08-02T06:00	24358	30	-50.3	-83.5	106	10
2023-08-02T06:00	24385	30	-50.5	-83.7	108	10
2023-08-02T06:00	24414	30	-50.5	-83.7	110	9
2023-08-02T06:00	24441	30	-50.4	-83.6	111	9
2023-08-02T06:00	24469	29	-50.3	-83.5	112	9
2023-08-02T06:00	24501	29	-50.2	-83.5	113	8
2023-08-02T06:00	24527	29	-50.1	-83.4	114	8
2023-08-02T06:00	24551	29	-50.2	-83.5	115	8
2023-08-02T06:00	24579	29	-50.2	-83.5	116	7
2023-08-02T06:00	24603	29	-50.2	-83.5	116	7
2023-08-02T06:00	24631	29	-50.2	-83.5	115	7
2023-08-02T06:00	24665	29	-50.0	-83.3	115	7
2023-08-02T06:00	24692	28	-50.0	-83.3	113	7
2023-08-02T06:00	24715	28	-49.9	-83.2	110	6
2023-08-02T06:00	24741	28	-49.8	-84.0	105	6
2023-08-02T06:00	24772	28	-49.7	-83.9	101	6
2023-08-02T06:00	24799	28	-49.7	-83.9	96	6
2023-08-02T06:00	24830	28	-49.8	-84.0	92	6
2023-08-02T06:00	24858	28	-49.8	-84.0	89	7
2023-08-02T06:00	24888	28	-49.7	-83.9	86	7
2023-08-02T06:00	24916	28	-49.6	-83.8	83	7
2023-08-02T06:00	24945	27	-49.5	-83.7	80	7
2023-08-02T06:00	24968	27	-49.2	-83.5	79	7
2023-08-02T06:00	25001	27	-49.1	-83.4	79	7
2023-08-02T06:00	25031	27	-49.0	-83.4	81	7
2023-08-02T06:00	25061	27	-48.9	-83.3	85	8
2023-08-02T06:00	25090	27	-48.9	-83.3	88	9
2023-08-02T06:00	25118	27	-48.8	-83.2	92	9
2023-08-02T06:00	25140	27	-48.7	-83.2	94	10
2023-08-02T06:00	25171	26	-48.7	-83.2	96	10
2023-08-02T06:00	25199	26	-48.7	-83.2	98	10
2023-08-02T06:00	25230	26	-48.6	-83.1	100	10
2023-08-02T06:00	25256	26	-48.6	-83.1	102	10
2023-08-02T06:00	25278	26	-48.6	-83.1	104	9
2023-08-02T06:00	25314	26	-48.5	-83.0	107	8
2023-08-02T06:00	25337	26	-48.5	-83.0	109	8
2023-08-02T06:00	25365	26	-48.5	-83.0	110	7
2023-08-02T06:00	25392	26	-48.6	-83.1	110	7
2023-08-02T06:00	25415	25	-48.5	-83.0	109	7
2023-08-02T06:00	25447	25	-48.4	-82.9	108	7
2023-08-02T06:00	25474	25	-48.3	-82.9	107	7
2023-08-02T06:00	25501	25	-48.2	-82.8	107	8
2023-08-02T06:00	25532	25	-48.2	-82.8	108	8
2023-08-02T06:00	25555	25	-48.1	-82.7	108	9
2023-08-02T06:00	25579	25	-48.0	-82.7	109	10
2023-08-02T06:00	25613	25	-48.0	-82.7	110	10
2023-08-02T06:00	25635	25	-47.9	-82.6	111	11
2023-08-02T06:00	25662	25	-47.9	-82.6	113	11
2023-08-02T06:00	25688	24	-47.8	-82.5	116	10
2023-08-02T06:00	25714	24	-47.8	-82.5	120	10
2023-08-02T06:00	25739	24	-47.7	-83.4	124	9
2023-08-02T06:00	25771	24	-47.5	-83.2	128	9
2023-08-02T06:00	25795	24	-47.5	-83.2	131	8
2023-08-02T06:00	25823	24	-47.5	-83.2	133	8
2023-08-02T06:00	25843	24	-47.5	-83.2	133	7
2023-08-02T06:00	25873	24	-47.4	-83.1	131	7
2023-08-02T06:00	25900	24	-47.2	-83.0	128	6
2023-08-02T06:00	25920	24	-46.9	-82.8	124	5
2023-08-02T06:00	25950	24	-46.7	-82.6	120	4
2023-08-02T06:00	25977	23	-46.5	-82.5	114	4
2023-08-02T06:00	26001	23	-46.4	-82.4	109	4
2023-08-02T06:00	26030	23	-46.3	-82.4	106	4
2023-08-02T06:00	26062	23	-46.2	-82.3	105	4
2023-08-02T06:00	26079	23	-46.3	-82.4	106	4
2023-08-02T06:00	26112	23	-46.3	-82.4	107	5
2023-08-02T06:00	26130	23	-46.3	-82.4	108	6
2023-08-02T06:00	26161	23	-46.3	-82.4	108	6
2023-08-02T06:00	26189	23	-46.3	-82.4	109	7
2023-08-02T06:00	26219	23	-46.2	-82.3	111	7
2023-08-02T06:00	26245	22	-46.1	-82.2	113	8
2023-08-02T06:00	26276	22	-46.1	-82.2	116	8
2023-08-02T06:00	26301	22	-46.1	-82.2	119	8
2023-08-02T06:00	26326	22	-45.9	-82.1	122	8
2023-08-02T06:00	26355	22	-45.8	-82.0	124	8
2023-08-02T06:00	26382	22	-45.8	-82.0	125	9
2023-08-02T06:00	26411	22	-45.9	-82.1	124	9
2023-08-02T06:00	26437	22	-45.9	-82.1	121	9
2023-08-02T06:00	26465	22	-45.8	-82.0	118	9
2023-08-02T06:00	26495	22	-45.7	-81.9	115	9
2023-08-02T06:00	26518	22	-45.6	-81.9	113	9
2023-08-02T06:00	26551	21	-45.5	-81.8	112	9
2023-08-02T06:00	26574	21	-45.4	-81.7	113	8
2023-08-02T06:00	26603	21	-45.3	-81.6	114	8
2023-08-02T06:00	26639	21	-45.3	-81.6	115	7
2023-08-02T06:00	26666	21	-45.2	-81.6	118	7
2023-08-02T06:00	26698	21	-45.2	-81.6	121	6
2023-08-02T06:00	26721	21	-45.2	-81.6	124	6
2023-08-02T06:00	26751	21	-45.2	-81.6	127	6
2023-08-02T06:00	26774	21	-45.2	-81.6	128	6
2023-08-02T06:00	26809	21	-45.3	-81.6	127	6
2023-08-02T06:00	26842	21	-45.2	-81.6	125	6
2023-08-02T06:00	26861	21	-45.2	-81.6	122	6
2023-08-02T06:00	26899	20	-45.2	-81.6	119	7
2023-08-02T06:00	26920	20	-45.1	-81.5	116	7
2023-08-02T06:00	26956	20	-45.1	-81.5	114	7
2023-08-02T06:00	26975	20	-44.9	-82.5	113	7
2023-08-02T06:00	27002	20	-44.8	-82.4	111	7
2023-08-02T06:00	27034	20	-44.8	-82.4	111	7
2023-08-02T06:00	27059	20	-44.7	-82.3	111	7
2023-08-02T06:00	27090	20	-44.7	-82.3	112	7
2023-08-02T06:00	27119	20	-44.7	-82.3	113	7
2023-08-02T06:00	27146	20	-44.7	-82.3	114	7
2023-08-02T06:00	27176	20	-44.7	-82.3	114	6
2023-08-02T06:00	27203	19	-44.7	-82.3	114	6
2023-08-02T06:00	27231	19	-44.7	-82.3	114	6
2023-08-02T06:00	27264	19	-44.7	-82.3	113	5
2023-08-02T06:00	27291	19	-44.7	-82.3	112	5
2023-08-02T06:00	27320	19	-44.7	-82.3	112	6
2023-08-02T06:00	27348	19	-44.8	-81.3	111	6
2023-08-02T06:00	27379	19	-44.9	-81.4	110	7
2023-08-02T06:00	27402	19	-45.0	-81.4	109	7
2023-08-02T06:00	27436	19	-45.0	-81.4	108	7
2023-08-02T06:00	27466	19	-45.1	-81.5	108	7
2023-08-02T06:00	27491	19	-45.0	-81.4	108	7
2023-08-02T06:00	27519	19	-45.0	-82.5	109	6
2023-08-02T06:00	27553	19	-44.9	-82.5	109	5
2023-08-02T06:00	27584	18	-44.8	-82.4	108	5
2023-08-02T06:00	27608	18	-44.8	-82.4	105	4
2023-08-02T06:00	27638	18	-44.9	-82.5	100	4
2023-08-02T06:00	27677	18	-45.0	-82.5	93	4
2023-08-02T06:00	27700	18	-45.0	-82.5	87	4
2023-08-02T06:00	27726	18	-44.9	-82.5	83	5
2023-08-02T06:00	27764	18	-44.8	-82.4	82	6
2023-08-02T06:00	27787	18	-44.6	-82.2	81	7
2023-08-02T06:00	27821	18	-44.5	-82.2	81	7
2023-08-02T06:00	27847	18	-44.5	-82.2	81	8
2023-08-02T06:00	27884	18	-44.5	-82.2	79	7
2023-08-02T06:00	27908	18	-44.4	-82.1	77	7
2023-08-02T06:00	27940	17	-44.3	-82.0	73	6
2023-08-02T06:00	27976	17	-44.3	-82.0	67	5
2023-08-02T06:00	27999	17	-44.4	-82.1	59	5
2023-08-02T06:00	28032	17	-44.4	-82.1	51	5
2023-08-02T06:00	28064	17	-44.3	-82.0	45	5
2023-08-02T06:00	28084	17	-44.1	-81.9	42	6
2023-08-02T06:00	28118	17	-43.9	-81.8	41	6
2023-08-02T06:00	28156	17	-43.8	-81.7	42	7
2023-08-02T06:00	28184	17	-43.6	-81.5	43	8
2023-08-02T06:00	28206	17	-43.5	-81.5	45	9
2023-08-02T06:00	28241	17	-43.5	-81.5	47	9
2023-08-02T06:00	28273	17	-43.5	-81.5	49	10
2023-08-02T06:00	28307	17	-43.5	-81.5	51	10
2023-08-02T06:00	28337	16	-43.6	-81.5	53	11
2023-08-02T06:00	28368	16	-43.6	-81.5	55	11
2023-08-02T06:00	28399	16	-43.6	-81.5	56	11
2023-08-02T06:00	28423	16	-43.6	-81.5	58	11
2023-08-02T06:00	28458	16	-43.7	-81.6	60	11
2023-08-02T06:00	28488	16	-43.8	-81.7	62	11
2023-08-02T06:00	28521	16	-44.0	-81.8	63	10
2023-08-02T06:00	28555	16	-44.0	-81.8	63	10
2023-08-02T06:00	28580	16	-44.1	-81.9	62	10
2023-08-02T06:00	28616	16	-44.2	-82.0	60	10
2023-08-02T06:00	28639	16	-44.3	-82.0	59	10
2023-08-02T06:00	28669	16	-44.3	-82.0	59	10
2023-08-02T06:00	28698	16	-44.3	-82.0	60	11
2023-08-02T06:00	28722	16	-44.3	-82.0	63	11
2023-08-02T06:00	28753	15	-44.4	-82.1	66	11
2023-08-02T06:00	28783	15	-44.5	-82.2	70	12
2023-08-02T06:00	28809	15	-44.6	-82.2	74	12
2023-08-02T06:00	28841	15	-44.7	-82.3	78	12
2023-08-02T06:00	28869	15	-44.8	-82.4	81	12
2023-08-02T06:00	28900	15	-44.9	-82.5	84	12
2023-08-02T06:00	28914	15	-45.0	-82.5	86	12
2023-08-02T06:00	28945	15	-45.1	-82.6	88	12
2023-08-02T06:00	28979	15	-45.1	-82.6	89	12
2023-08-02T06:00	29008	15	-45.0	-82.5	89	12
2023-08-02T06:00	29040	15	-45.0	-82.5	89	11
2023-08-02T06:00	29063	15	-44.9	-82.5	90	11
2023-08-02T06:00	29103	15	-44.8	-82.4	90	11
2023-08-02T06:00	29126	15	-44.6	-82.2	90	11
2023-08-02T06:00	29150	15	-44.4	-82.1	90	11
2023-08-02T06:00	29179	15	-44.3	-82.0	89	11
2023-08-02T06:00	29212	14	-44.2	-82.0	87	11
2023-08-02T06:00	29235	14	-44.1	-81.9	85	12
2023-08-02T06:00	29257	14	-44.0	-81.8	83	12
2023-08-02T06:00	29280	14	-43.9	-81.8	82	12
2023-08-02T06:00	29319	14	-43.9	-81.8	82	12
2023-08-02T06:00	29342	14	-43.8	-81.7	84	13
2023-08-02T06:00	29371	14	-43.7	-81.6	86	13
2023-08-02T06:00	29401	14	-43.6	-81.5	90	13
2023-08-02T06:00	29433	14	-43.6	-81.5	93	13
2023-08-02T06:00	29451	14	-43.5	-81.5	96	13
2023-08-02T06:00	29484	14	-43.4	-81.4	99	13
2023-08-02T06:00	29513	14	-43.4	-81.4	102	13
2023-08-02T06:00	29539	14	-43.5	-81.5	105	13
2023-08-02T06:00	29570	14	-43.6	-81.5	108	13
2023-08-02T06:00	29593	14	-43.7	-81.6	110	12
2023-08-02T06:00	29630	14	-43.7	-81.6	112	12
2023-08-02T06:00	29660	14	-43.8	-81.7	113	11
2023-08-02T06:00	29690	13	-43.9	-81.8	112	10
2023-08-02T06:00	29719	13	-44.0	-81.8	110	10
2023-08-02T06:00	29745	13	-44.1	-81.9	105	9
2023-08-02T06:00	29774	13	-44.1	-81.9	99	9
2023-08-02T06:00	29805	13	-44.2	-82.0	93	9
2023-08-02T06:00	29831	13	-44.2	-82.0	87	9
2023-08-02T06:00	29860	13	-44.1	-81.9	83	10
2023-08-02T06:00	29888	13	-44.0	-81.8	81	10
2023-08-02T06:00	29918	13	-43.9	-81.8	81	10
2023-08-02T06:00	29952	13	-43.8	-81.7	82	11
2023-08-02T06:00	29977	13	-43.8	-81.7	84	11
2023-08-02T06:00	30011	13	-43.8	-81.7	86	11
2023-08-02T06:00	30034	13	-43.9	-81.8	87	11
2023-08-02T06:00	30071	13	-44.1	-81.9	88	11
2023-08-02T06:00	30100	13	-44.2	-82.0	87	12
2023-08-02T06:00	30126	13	-44.1	-81.9	87	13
2023-08-02T06:00	30152	13	-44.0	-81.8	86	13
2023-08-02T06:00	30182	13	-44.0	-81.8	86	14
2023-08-02T06:00	30214	12	-43.9	-81.8	87	14
2023-08-02T06:00	30235	12	-43.6	-81.5	89	13
2023-08-02T06:00	30276	12	-43.3	-81.3	92	13
2023-08-02T06:00	30296	12	-43.2	-81.3	96	13
2023-08-02T06:00	30328	12	-43.1	-81.2	101	13
2023-08-02T06:00	30354	12	-43.1	-81.2	105	12
2023-08-02T06:00	30382	12	-42.9	-81.1	108	12
2023-08-02T06:00	30419	12	-42.9	-81.1	111	12
2023-08-02T06:00	30438	12	-42.8	-81.0	114	11
2023-08-02T06:00	30476	12	-42.7	-80.9	116	11
2023-08-02T06:00	30504	12	-42.6	-80.8	117	10
2023-08-02T06:00	30533	12	-42.4	-80.7	117	9
2023-08-02T06:00	30567	12	-42.2	-80.6	118	9
2023-08-02T06:00	30600	12	-42.2	-80.6	117	8
2023-08-02T06:00	30623	12	-42.1	-80.5	115	7
2023-08-02T06:00	30650	12	-41.9	-80.4	111	7
2023-08-02T06:00	30670	12	-41.7	-80.2	105	7
2023-08-02T06:00	30710	12	-41.4	-80.0	97	7
2023-08-02T06:00	30733	12	-41.2	-79.9	90	7
2023-08-02T06:00	30769	11	-41.0	-79.7	84	8
2023-08-02T06:00	30799	11	-40.8	-79.6	82	8
2023-08-02T06:00	30831	11	-40.7	-79.5	81	9
2023-08-02T06:00	30851	11	-40.5	-79.4	82	10
2023-08-02T06:00	30890	11	-40.4	-79.3	84	10
2023-08-02T06:00	30924	11	-40.2	-79.2	86	11
2023-08-02T06:00	30950	11	-40.1	-79.1	88	11
2023-08-02T06:00	30978	11	-39.9	-79.0	89	11
2023-08-02T06:00	31017	11	-39.8	-78.9	90	11
2023-08-02T06:00	31051	11	-39.7	-78.8	90	11
2023-08-02T06:00	31077	11	-39.6	-78.8	89	11
2023-08-02T06:00	31101	11	-39.5	-78.7	87	11
2023-08-02T06:00	31147	11	-39.4	-78.6	86	11
2023-08-02T06:00	31175	11	-39.3	-78.5	86	11
2023-08-02T06:00	31213	11	-39.3	-78.5	85	11
2023-08-02T06:00	31222	11	-39.2	-78.5	85	11
2023-08-02T06:00	31263	11	-39.1	-78.4	85	11
2023-08-02T06:00	31281	11	-39.0	-78.3	84	11
2023-08-02T06:00	31340	11	-38.9	-78.3	84	11
2023-08-02T06:00	31357	11	-38.8	-78.2	84	11
2023-08-02T06:00	31393	10	-38.7	-78.1	84	12
2023-08-02T06:00	31435	10	-38.6	-78.1	85	12
2023-08-02T06:00	31450	10	-38.4	-77.9	87	12
2023-08-02T06:00	31488	10	-38.3	-77.9	88	13
2023-08-02T06:00	31524	10	-38.1	-77.7	89	13
2023-08-02T06:00	31548	10	-38.0	-77.6	89	14
2023-08-02T06:00	31570	10	-38.1	-77.7	88	14
2023-08-02T06:00	31606	10	-38.1	-77.7	88	14
2023-08-02T06:00	31654	10	-38.0	-77.6	87	14
2023-08-02T06:00	31697	10	-38.0	-77.6	86	14
2023-08-02T06:00	31710	10	-38.1	-77.7	86	13
2023-08-02T06:00	31732	10	-38.2	-77.8	87	13
2023-08-02T06:00	31787	10	-38.3	-77.9	88	13
2023-08-02T06:00	31813	10	-38.4	-77.9	89	13
2023-08-02T06:00	31845	10	-38.3	-77.9	90	13
2023-08-02T06:00	31856	10	-38.1	-77.7	90	13
2023-08-02T06:00	31906	10	-38.0	-77.6	91	14
2023-08-02T06:00	31938	10	-37.8	-77.5	92	14
2023-08-02T06:00	31979	10	-37.6	-77.4	93	15
2023-08-02T06:00	31997	10	-37.5	-77.3	93	15
2023-08-02T06:00	32036	10	-37.3	-77.2	94	15
2023-08-02T06:00	32056	10	-37.0	-77.0	96	15
2023-08-02T06:00	32102	9	-36.7	-76.7	97	14
2023-08-02T06:00	32115	9	-36.7	-76.7	99	14
2023-08-02T06:00	32152	9	-36.8	-76.8	100	13
2023-08-02T06:00	32195	9	-36.9	-76.9	102	13
2023-08-02T06:00	32210	9	-36.9	-76.9	103	12
2023-08-02T06:00	32263	9	-36.9	-76.9	104	12
2023-08-02T06:00	32279	9	-37.0	-77.0	105	12
2023-08-02T06:00	32308	9	-37.0	-77.0	106	12
2023-08-02T06:00	32350	9	-37.0	-77.0	106	12
2023-08-02T06:00	32394	9	-37.0	-77.0	106	12
2023-08-02T06:00	32399	9	-36.9	-76.9	106	13
2023-08-02T06:00	32454	9	-36.8	-76.8	106	12
2023-08-02T06:00	32467	9	-36.5	-76.6	105	12
2023-08-02T06:00	32508	9	-36.3	-76.5	103	12
2023-08-02T06:00	32512	9	-36.2	-76.4	102	11
2023-08-02T06:00	32568	9	-36.3	-76.5	99	11
2023-08-02T06:00	32597	9	-36.4	-76.5	97	11
2023-08-02T06:00	32634	9	-36.5	-76.6	95	12
2023-08-02T06:00	32663	9	-36.5	-76.6	93	12
2023-08-02T06:00	32696	9	-36.5	-76.6	91	13
2023-08-02T06:00	32716	9	-36.5	-76.6	89	13
2023-08-02T06:00	32769	9	-36.4	-76.5	88	14
2023-08-02T06:00	32790	9	-36.3	-76.5	89	14
2023-08-02T06:00	32814	9	-36.2	-76.4	89	14
2023-08-02T06:00	32857	8	-36.1	-76.3	91	14
2023-08-02T06:00	32893	8	-36.1	-76.3	92	15
2023-08-02T06:00	32910	8	-36.0	-76.3	93	15
2023-08-02T06:00	32953	8	-36.0	-76.3	93	15
2023-08-02T06:00	32970	8	-36.1	-76.3	92	15
2023-08-02T06:00	32992	8	-36.0	-76.3	91	15
2023-08-02T06:00	33056	8	-35.8	-76.1	89	15
2023-08-02T06:00	33092	8	-35.6	-76.0	88	14
2023-08-02T06:00	33149	8	-35.4	-75.8	90	13
2023-08-02T12:00	-999					
2023-08-02T12:00	134	985	20.5	12.5	205	4
2023-08-02T12:00	159	982	20.2	12.4	202	6
2023-08-02T12:00	181	980	19.8	12.1	201	7
2023-08-02T12:00	204	977	19.6	12.1	199	8
2023-08-02T12:00	228	974	19.4	11.9	199	8
2023-08-02T12:00	253	971	19.1	12.0	199	9
2023-08-02T12:00	276	969	18.9	11.8	200	9
2023-08-02T12:00	296	967	18.6	11.6	202	9
2023-08-02T12:00	321	964	18.4	11.6	203	8
2023-08-02T12:00	346	961	18.1	11.3	204	8
2023-08-02T12:00	369	959	17.9	11.4	202	8
2023-08-02T12:00	389	956	17.8	11.5	199	7
2023-08-02T12:00	416	953	17.5	11.5	194	7
2023-08-02T12:00	449	950	17.2	11.3	190	7
2023-08-02T12:00	477	946	17.0	11.2	189	7
2023-08-02T12:00	507	943	16.6	11.4	193	8
2023-08-02T12:00	534	940	16.3	11.3	198	8
2023-08-02T12:00	564	937	16.1	11.3	203	8
2023-08-02T12:00	590	934	15.8	11.2	206	8
2023-08-02T12:00	615	931	15.6	11.3	207	8
2023-08-02T12:00	648	928	15.2	11.2	208	8
2023-08-02T12:00	672	925	15.1	11.1	210	8
2023-08-02T12:00	702	922	14.8	11.1	212	8
2023-08-02T12:00	724	919	14.5	11.0	215	8
2023-08-02T12:00	746	917	14.3	11.0	216	8
2023-08-02T12:00	769	914	14.2	11.1	215	7
2023-08-02T12:00	788	912	13.9	11.0	212	7
2023-08-02T12:00	811	910	13.7	10.9	211	7
2023-08-02T12:00	835	907	13.5	10.9	212	8
2023-08-02T12:00	869	904	13.2	10.7	215	8
2023-08-02T12:00	903	900	12.9	10.4	218	9
2023-08-02T12:00	933	897	12.6	10.6	221	10
2023-08-02T12:00	958	894	12.3	10.7	224	10
2023-08-02T12:00	983	891	12.1	10.6	226	11
2023-08-02T12:00	1012	889	11.8	10.6	229	11
2023-08-02T12:00	1035	886	11.5	10.5	231	12
2023-08-02T12:00	1061	883	11.3	10.4	233	12
2023-08-02T12:00	1087	881	11.1	9.6	234	11
2023-08-02T12:00	1109	878	11.0	9.3	233	10
2023-08-02T12:00	1129	876	10.9	9.4	231	10
2023-08-02T12:00	1149	874	10.7	9.7	230	10
2023-08-02T12:00	1162	872	10.5	9.9	230	11
2023-08-02T12:00	1185	870	10.5	8.9	230	12
2023-08-02T12:00	1205	868	10.6	8.1	231	12
2023-08-02T12:00	1228	866	10.2	8.8	232	13
2023-08-02T12:00	1261	863	10.4	7.8	232	13
2023-08-02T12:00	1282	860	9.8	9.0	233	13
2023-08-02T12:00	1308	858	9.4	8.9	232	13
2023-08-02T12:00	1331	855	9.7	7.7	230	12
2023-08-02T12:00	1354	853	9.4	7.7	227	12
2023-08-02T12:00	1373	851	9.2	7.6	224	12
2023-08-02T12:00	1395	848	9.1	7.6	222	11
2023-08-02T12:00	1422	846	8.8	7.5	222	12
2023-08-02T12:00	1444	843	8.6	7.4	224	12
2023-08-02T12:00	1476	841	8.3	7.3	228	13
2023-08-02T12:00	1497	838	8.1	7.1	230	14
2023-08-02T12:00	1521	836	8.0	7.0	232	14
2023-08-02T12:00	1546	833	7.8	7.1	232	13
2023-08-02T12:00	1571	831	7.6	6.9	230	13
2023-08-02T12:00	1599	828	7.3	6.7	227	12
2023-08-02T12:00	1624	825	7.1	6.9	226	11
2023-08-02T12:00	1648	823	6.9	6.9	226	11
2023-08-02T12:00	1672	821	6.7	6.7	228	11
2023-08-02T12:00	1701	818	6.6	6.6	231	11
2023-08-02T12:00	1729	815	6.4	6.4	235	11
2023-08-02T12:00	1753	813	6.3	6.3	240	11
2023-08-02T12:00	1771	811	6.2	6.2	244	11
2023-08-02T12:00	1797	808	6.0	6.0	248	11
2023-08-02T12:00	1815	806	5.9	5.9	250	12
2023-08-02T12:00	1830	805	5.7	5.7	251	12
2023-08-02T12:00	1847	803	5.5	5.2	251	13
2023-08-02T12:00	1879	800	5.4	5.1	249	14
2023-08-02T12:00	1901	798	5.2	4.5	248	14
2023-08-02T12:00	1926	796	5.1	4.1	246	14
2023-08-02T12:00	1948	794	5.1	4.0	245	14
2023-08-02T12:00	1967	792	5.0	4.1	244	14
2023-08-02T12:00	1988	790	4.9	3.0	243	13
2023-08-02T12:00	2005	788	4.9	3.0	243	13
2023-08-02T12:00	2024	786	5.0	2.5	243	13
2023-08-02T12:00	2046	784	5.1	2.3	244	13
2023-08-02T12:00	2066	782	5.1	2.2	243	13
2023-08-02T12:00	2086	780	5.0	2.1	242	14
2023-08-02T12:00	2107	778	4.9	2.1	240	15
2023-08-02T12:00	2130	776	4.8	1.7	237	16
2023-08-02T12:00	2152	774	4.6	1.5	236	17
2023-08-02T12:00	2173	772	4.6	0.8	236	17
2023-08-02T12:00	2195	770	4.4	0.5	237	18
2023-08-02T12:00	2215	768	4.2	0.6	239	18
2023-08-02T12:00	2234	766	4.0	0.6	240	19
2023-08-02T12:00	2254	764	3.9	0.8	241	18
2023-08-02T12:00	2282	762	3.7	0.7	240	18
2023-08-02T12:00	2307	759	3.4	0.4	239	18
2023-08-02T12:00	2328	757	3.2	0.4	237	18
2023-08-02T12:00	2347	756	3.1	0.5	235	18
2023-08-02T12:00	2364	754	2.9	0.4	234	18
2023-08-02T12:00	2382	752	2.8	0.2	233	18
2023-08-02T12:00	2401	751	2.7	0.1	232	17
2023-08-02T12:00	2419	749	2.5	-0.1	232	17
2023-08-02T12:00	2437	747	2.4	-0.3	234	17
2023-08-02T12:00	2455	746	2.3	-0.3	236	17
2023-08-02T12:00	2472	744	2.1	-0.3	238	17
2023-08-02T12:00	2491	742	2.0	-0.3	240	17
2023-08-02T12:00	2509	741	1.9	-0.4	240	17
2023-08-02T12:00	2525	739	1.7	-0.4	239	17
2023-08-02T12:00	2545	737	1.8	-0.6	237	17
2023-08-02T12:00	2564	736	1.8	-0.7	236	16
2023-08-02T12:00	2582	734	1.7	-0.5	235	15
2023-08-02T12:00	2599	732	1.5	-0.6	235	14
2023-08-02T12:00	2619	730	1.4	-0.5	237	14
2023-08-02T12:00	2642	728	1.3	-0.3	238	14
2023-08-02T12:00	2673	726	1.3	-0.7	238	15
2023-08-02T12:00	2690	724	1.1	-0.5	238	15
2023-08-02T12:00	2714	722	1.0	-0.3	237	15
2023-08-02T12:00	2734	720	0.8	-0.6	237	15
2023-08-02T12:00	2755	718	0.7	-0.9	237	15
2023-08-02T12:00	2775	717	0.6	-0.6	239	14
2023-08-02T12:00	2795	715	0.5	-0.8	241	14
2023-08-02T12:00	2819	713	0.4	-1.0	243	13
2023-08-02T12:00	2840	711	0.2	-1.4	244	13
2023-08-02T12:00	2862	709	0.1	-1.7	245	13
2023-08-02T12:00	2882	707	-0.1	-1.7	245	13
2023-08-02T12:00	2901	705	-0.2	-1.6	244	13
2023-08-02T12:00	2924	703	-0.4	-2.0	243	13
2023-08-02T12:00	2956	701	-0.7	-2.2	241	13
2023-08-02T12:00	2991	698	-0.9	-2.2	239	12
2023-08-02T12:00	3015	695	-0.8	-3.7	237	12
2023-08-02T12:00	3040	693	-0.5	-5.7	235	13
2023-08-02T12:00	3056	692	0.5	-12.0	234	13
2023-08-02T12:00	3081	690	1.4	-13.3	232	13
2023-08-02T12:00	3103	688	1.5	-11.1	231	14
2023-08-02T12:00	3123	686	1.3	-9.6	231	14
2023-08-02T12:00	3150	684	1.1	-9.8	232	14
2023-08-02T12:00	3167	682	1.0	-10.2	234	14
2023-08-02T12:00	3187	681	0.9	-10.2	236	14
2023-08-02T12:00	3207	679	0.7	-10.5	238	14
2023-08-02T12:00	3224	678	0.6	-10.5	240	14
2023-08-02T12:00	3243	676	0.5	-10.9	240	14
2023-08-02T12:00	3270	674	0.4	-11.5	240	14
2023-08-02T12:00	3289	672	0.3	-11.4	240	13
2023-08-02T12:00	3309	670	0.3	-9.4	240	13
2023-08-02T12:00	3327	669	0.3	-8.9	241	12
2023-08-02T12:00	3349	667	0.3	-9.8	242	12
2023-08-02T12:00	3367	666	0.3	-9.7	241	11
2023-08-02T12:00	3388	664	0.2	-9.6	240	11
2023-08-02T12:00	3408	662	0.1	-9.6	240	11
2023-08-02T12:00	3432	660	0.0	-9.8	240	12
2023-08-02T12:00	3444	659	-0.1	-10.2	241	12
2023-08-02T12:00	3467	657	-0.1	-10.5	242	12
2023-08-02T12:00	3487	656	-0.2	-11.1	243	12
2023-08-02T12:00	3510	654	-0.2	-11.4	243	12
2023-08-02T12:00	3532	652	-0.2	-11.3	242	12
2023-08-02T12:00	3554	650	-0.2	-11.7	242	12
2023-08-02T12:00	3580	648	-0.2	-12.3	243	12
2023-08-02T12:00	3597	647	-0.2	-13.0	245	12
2023-08-02T12:00	3620	645	-0.3	-13.1	246	13
2023-08-02T12:00	3639	643	-0.5	-13.1	248	14
2023-08-02T12:00	3664	641	-0.5	-12.6	248	14
2023-08-02T12:00	3687	640	-0.6	-13.9	247	15
2023-08-02T12:00	3707	638	-0.7	-14.0	246	15
2023-08-02T12:00	3727	636	-0.8	-13.9	244	15
2023-08-02T12:00	3751	634	-0.8	-14.4	243	14
2023-08-02T12:00	3770	633	-1.0	-15.0	242	14
2023-08-02T12:00	3796	631	-1.3	-15.3	241	14
2023-08-02T12:00	3817	629	-1.5	-15.4	241	13
2023-08-02T12:00	3840	627	-1.7	-15.5	241	13
2023-08-02T12:00	3860	626	-1.9	-15.4	241	12
2023-08-02T12:00	3885	624	-2.1	-14.7	242	12
2023-08-02T12:00	3906	622	-2.2	-13.5	243	12
2023-08-02T12:00	3929	620	-2.2	-14.5	244	12
2023-08-02T12:00	3957	618	-2.3	-14.7	245	12
2023-08-02T12:00	3973	617	-2.5	-14.8	244	12
2023-08-02T12:00	4003	615	-2.6		243	12
2023-08-02T12:00	4018	613	-2.8	-15.1	241	12
2023-08-02T12:00	4043	612	-2.9	-15.0	239	12
2023-08-02T12:00	4063	610	-3.0	-14.9	238	12
2023-08-02T12:00	4082	608	-3.1	-15.0	239	13
2023-08-02T12:00	4107	607	-3.3	-15.4	241	13
2023-08-02T12:00	4132	605	-3.5	-15.7	244	14
2023-08-02T12:00	4150	603	-3.8	-15.6	246	14
2023-08-02T12:00	4171	602	-3.9	-15.4	246	14
2023-08-02T12:00	4193	600	-3.8	-16.2	246	14
2023-08-02T12:00	4212	599	-3.8	-18.7	245	13
2023-08-02T12:00	4231	597	-3.7	-19.3	244	13
2023-08-02T12:00	4252	595	-3.8	-19.4	243	13
2023-08-02T12:00	4279	594	-3.9	-18.5	241	13
2023-08-02T12:00	4298	592	-4.1	-18.5	239	13
2023-08-02T12:00	4320	590	-4.2	-18.1	236	13
2023-08-02T12:00	4343	589	-4.4	-18.1	234	13
2023-08-02T12:00	4366	587	-4.6	-18.2	233	13
2023-08-02T12:00	4393	585	-4.8	-17.9	234	12
2023-08-02T12:00	4410	583	-5.0	-17.9	235	12
2023-08-02T12:00	4440	582	-5.1	-18.3	235	12
2023-08-02T12:00	4464	580	-5.3	-18.7	235	12
2023-08-02T12:00	4484	578	-5.4	-19.5	235	12
2023-08-02T12:00	4507	577	-5.3	-20.2	235	12
2023-08-02T12:00	4530	575	-5.6	-20.6	236	13
2023-08-02T12:00	4547	574	-5.7	-21.2	237	13
2023-08-02T12:00	4567	572	-5.8	-21.3	238	13
2023-08-02T12:00	4587	571	-6.0	-21.7	239	13
2023-08-02T12:00	4610	569	-6.1	-21.8	240	13
2023-08-02T12:00	4631	568	-6.4	-22.0	240	13
2023-08-02T12:00	4652	566	-6.4	-22.0	240	13
2023-08-02T12:00	4679	564	-6.7	-22.3	238	14
2023-08-02T12:00	4702	562	-6.8	-22.5	237	14
2023-08-02T12:00	4729	561	-7.0	-22.7	235	14
2023-08-02T12:00	4747	559	-7.2	-23.2	235	14
2023-08-02T12:00	4769	557	-7.2	-23.4	235	15
2023-08-02T12:00	4794	556	-7.4	-23.5	234	15
2023-08-02T12:00	4816	554	-7.6	-23.6	234	15
2023-08-02T12:00	4835	553	-7.9	-23.8	233	15
2023-08-02T12:00	4862	551	-8.0	-24.0	231	15
2023-08-02T12:00	4884	549	-8.2	-24.2	231	15
2023-08-02T12:00	4908	548	-8.3	-24.8	231	15
2023-08-02T12:00	4933	546	-8.5	-25.5	231	14
2023-08-02T12:00	4953	544	-8.7	-25.9	232	14
2023-08-02T12:00	4981	543	-8.8	-27.1	233	14
2023-08-02T12:00	5006	541	-9.0		233	14
2023-08-02T12:00	5028	539	-9.1	-27.7	232	14
2023-08-02T12:00	5051	537	-9.1	-28.7	231	14
2023-08-02T12:00	5087	535	-9.2	-29.8	229	14
2023-08-02T12:00	5114	533	-9.5	-29.8	227	14
2023-08-02T12:00	5132	532	-9.7	-29.8	226	14
2023-08-02T12:00	5156	530	-9.9	-30.1	227	14
2023-08-02T12:00	5181	529	-10.0	-30.2	230	14
2023-08-02T12:00	5213	527	-10.3	-30.3	234	14
2023-08-02T12:00	5241	524	-10.3	-32.0	238	14
2023-08-02T12:00	5280	522	-10.4	-33.8	241	14
2023-08-02T12:00	5300	521	-10.5	-34.1	244	14
2023-08-02T12:00	5324	519	-10.6	-34.5	244	14
2023-08-02T12:00	5345	517	-10.6	-35.5	243	14
2023-08-02T12:00	5373	516	-10.8	-35.6	241	14
2023-08-02T12:00	5396	514	-10.9	-35.3	239	14
2023-08-02T12:00	5418	513	-11.0	-35.2	238	14
2023-08-02T12:00	5437	511	-11.2	-35.1	238	14
2023-08-02T12:00	5458	510	-11.2	-35.1	238	14
2023-08-02T12:00	5477	509	-11.4	-34.9	239	14
2023-08-02T12:00	5500	507	-11.6	-34.8	240	14
2023-08-02T12:00	5519	506	-11.8	-34.7	242	14
2023-08-02T12:00	5536	505	-12.0	-34.2	244	14
2023-08-02T12:00	5562	503	-12.1	-33.3	245	14
2023-08-02T12:00	5580	502	-12.4	-32.9	247	14
2023-08-02T12:00	5601	500	-12.5	-33.3	248	14
2023-08-02T12:00	5623	499	-12.6	-35.1	248	14
2023-08-02T12:00	5646	498	-12.7	-35.8	249	14
2023-08-02T12:00	5669	496	-12.9	-36.1	251	14
2023-08-02T12:00	5696	494	-13.1	-36.3	252	14
2023-08-02T12:00	5713	493	-13.2	-36.2	254	14
2023-08-02T12:00	5735	492	-13.3	-36.3	256	14
2023-08-02T12:00	5763	490	-13.5	-37.2	258	14
2023-08-02T12:00	5783	489	-13.4	-38.4	260	14
2023-08-02T12:00	5807	487	-13.4	-36.7	262	15
2023-08-02T12:00	5829	486	-13.7	-32.6	262	16
2023-08-02T12:00	5848	485	-13.6	-26.9	262	16
2023-08-02T12:00	5864	483	-13.6	-21.0	262	16
2023-08-02T12:00	5885	482	-13.8	-18.9	261	16
2023-08-02T12:00	5908	481	-13.9	-17.7	261	17
2023-08-02T12:00	5927	479	-14.1	-16.3	261	17
2023-08-02T12:00	5951	478	-14.3	-16.1	261	17
2023-08-02T12:00	5968	477	-14.5	-16.3	261	18
2023-08-02T12:00	5990	476	-14.5	-16.3	262	18
2023-08-02T12:00	6007	474	-14.7	-16.4	263	18
2023-08-02T12:00	6026	473	-14.8	-16.6	264	19
2023-08-02T12:00	6053	472	-15.1	-16.8	265	20
2023-08-02T12:00	6075	470	-15.3	-17.0	265	20
2023-08-02T12:00	6093	469	-15.4	-17.0	265	21
2023-08-02T12:00	6114	468	-15.4	-17.4	265	21
2023-08-02T12:00	6143	466	-15.6	-17.8	264	20
2023-08-02T12:00	6167	465	-15.8	-17.6	264	20
2023-08-02T12:00	6187	463	-16.0	-17.6	264	20
2023-08-02T12:00	6208	462	-16.2	-17.7	264	20
2023-08-02T12:00	6224	461	-16.3	-18.0	263	20
2023-08-02T12:00	6245	460	-16.4	-19.0	263	20
2023-08-02T12:00	6270	458	-16.7	-19.2	262	20
2023-08-02T12:00	6291	457	-16.8	-19.3	261	20
2023-08-02T12:00	6311	456	-17.0	-19.7	262	20
2023-08-02T12:00	6332	454	-17.1	-20.5	262	20
2023-08-02T12:00	6352	453	-17.1	-21.8	263	20
2023-08-02T12:00	6375	452	-17.2	-22.4	264	20
2023-08-02T12:00	6405	450	-17.3	-23.1	264	20
2023-08-02T12:00	6429	448	-17.5	-22.3	263	21
2023-08-02T12:00	6456	447	-17.5	-24.4	262	21
2023-08-02T12:00	6480	446	-17.6	-24.9	262	21
2023-08-02T12:00	6503	444	-17.6	-26.3	262	22
2023-08-02T12:00	6523	443	-17.6	-28.3	263	22
2023-08-02T12:00	6543	442	-17.7	-28.9	264	22
2023-08-02T12:00	6564	441	-18.0	-28.9	264	22
2023-08-02T12:00	6589	439	-18.1	-29.6	265	22
2023-08-02T12:00	6617	438	-18.4	-30.6	266	22
2023-08-02T12:00	6634	436	-18.6	-30.3	267	22
2023-08-02T12:00	6662	435	-18.7	-29.5	269	22
2023-08-02T12:00	6685	433	-18.9	-28.9	270	21
2023-08-02T12:00	6721	431	-19.1	-26.2	271	21
2023-08-02T12:00	6748	430	-19.2	-28.3	271	21
2023-08-02T12:00	6766	429	-19.4	-28.0	271	21
2023-08-02T12:00	6784	428	-19.6	-28.0	271	21
2023-08-02T12:00	6802	427	-19.8	-28.1	271	22
2023-08-02T12:00	6821	426	-19.9	-27.9	272	22
2023-08-02T12:00	6844	424	-20.1	-26.6	272	22
2023-08-02T12:00	6863	423	-20.2	-26.5	272	22
2023-08-02T12:00	6882	422	-20.3	-26.2	271	22
2023-08-02T12:00	6902	421	-20.4	-26.8	271	22
2023-08-02T12:00	6920	420	-20.4	-26.8	271	22
2023-08-02T12:00	6942	419	-20.5	-26.0	271	23
2023-08-02T12:00	6961	418	-20.6	-25.5	272	23
2023-08-02T12:00	6979	417	-20.6	-25.7	273	23
2023-08-02T12:00	7003	415	-20.7	-25.8	273	24
2023-08-02T12:00	7024	414	-20.8	-25.5	274	24
2023-08-02T12:00	7039	413	-20.9	-25.5	274	24
2023-08-02T12:00	7058	412	-20.9	-25.3	273	24
2023-08-02T12:00	7084	411	-21.0	-25.2	273	25
2023-08-02T12:00	7114	409	-21.2	-25.5	272	25
2023-08-02T12:00	7133	408	-21.4	-25.4	271	26
2023-08-02T12:00	7153	407	-21.5	-25.6	271	26
2023-08-02T12:00	7170	406	-21.5	-25.5	271	27
2023-08-02T12:00	7188	405	-21.6	-25.5	272	27
2023-08-02T12:00	7207	404	-21.7	-25.7	272	28
2023-08-02T12:00	7225	403	-21.9	-25.8	272	28
2023-08-02T12:00	7241	402	-22.1	-25.7	272	29
2023-08-02T12:00	7257	401	-22.2	-25.8	272	29
2023-08-02T12:00	7274	400	-22.3	-26.1	271	29
2023-08-02T12:00	7296	399	-22.4	-26.2	270	29
2023-08-02T12:00	7319	398	-22.6	-26.2	270	29
2023-08-02T12:00	7337	397	-22.8	-26.2	270	29
2023-08-02T12:00	7356	396	-23.0	-26.4	269	29
2023-08-02T12:00	7379	395	-23.1	-26.3	270	29
2023-08-02T12:00	7405	393	-23.3	-26.5	270	28
2023-08-02T12:00	7434	392	-23.6	-26.7	270	28
2023-08-02T12:00	7452	391	-23.7	-26.8	269	28
2023-08-02T12:00	7482	389	-24.0	-27.0	269	28
2023-08-02T12:00	7502	388	-24.1	-27.3	269	28
2023-08-02T12:00	7528	387	-24.3	-27.3	269	29
2023-08-02T12:00	7547	386	-24.5	-27.5	269	29
2023-08-02T12:00	7569	384	-24.6	-27.9	270	29
2023-08-02T12:00	7593	383	-24.8	-28.1	271	29
2023-08-02T12:00	7614	382	-24.9	-28.0	272	28
2023-08-02T12:00	7642	381	-25.2	-28.2	272	28
2023-08-02T12:00	7665	379	-25.5	-28.5	272	28
2023-08-02T12:00	7683	378	-25.6	-28.5	272	28
2023-08-02T12:00	7703	377	-25.8	-28.9	272	28
2023-08-02T12:00	7732	376	-26.0	-28.9	272	28
2023-08-02T12:00	7750	375	-26.1	-29.7	273	29
2023-08-02T12:00	7772	374	-26.2	-29.6	273	30
2023-08-02T12:00	7798	373	-26.3	-29.7	273	30
2023-08-02T12:00	7819	371	-26.6	-30.0	273	31
2023-08-02T12:00	7838	370	-26.7	-30.5	272	31
2023-08-02T12:00	7860	369	-26.7	-30.5	271	31
2023-08-02T12:00	7879	368	-26.9	-30.4	271	31
2023-08-02T12:00	7903	367	-27.0	-30.9	270	31
2023-08-02T12:00	7925	366	-27.2	-31.2	270	31
2023-08-02T12:00	7945	365	-27.4	-31.3	270	31
2023-08-02T12:00	7970	364	-27.5	-31.4	270	32
2023-08-02T12:00	7989	363	-27.7	-31.4	270	32
2023-08-02T12:00	8008	362	-27.9	-31.5	271	32
2023-08-02T12:00	8033	361	-28.1	-31.6	272	32
2023-08-02T12:00	8053	360	-28.3	-31.7	273	33
2023-08-02T12:00	8072	359	-28.5	-31.9	274	33
2023-08-02T12:00	8093	358	-28.6	-32.1	274	33
2023-08-02T12:00	8114	357	-28.8	-32.0	274	33
2023-08-02T12:00	8136	355	-28.9	-32.3	274	33
2023-08-02T12:00	8165	354	-29.1	-32.6	274	33
2023-08-02T12:00	8184	353	-29.3	-32.7	274	32
2023-08-02T12:00	8208	352	-29.5	-33.0	274	32
2023-08-02T12:00	8235	351	-29.6	-33.4	274	32
2023-08-02T12:00	8261	349	-29.9	-33.4	274	32
2023-08-02T12:00	8283	348	-30.1	-33.5	274	32
2023-08-02T12:00	8306	347	-30.3	-33.5	274	31
2023-08-02T12:00	8326	346	-30.4	-33.5	274	31
2023-08-02T12:00	8343	345	-30.5	-33.5	275	31
2023-08-02T12:00	8368	344	-30.8	-33.6	275	30
2023-08-02T12:00	8388	343	-31.1	-34.1	275	31
2023-08-02T12:00	8414	342	-31.3	-34.0	275	31
2023-08-02T12:00	8434	341	-31.5	-34.3	276	31
2023-08-02T12:00	8453	340	-31.6	-34.6	276	32
2023-08-02T12:00	8475	339	-31.8	-34.7	276	32
2023-08-02T12:00	8497	338	-32.1	-35.0	277	33
2023-08-02T12:00	8520	337	-32.1	-35.6	277	33
2023-08-02T12:00	8537	336	-32.3	-35.3	276	33
2023-08-02T12:00	8557	335	-32.3	-35.5	276	33
2023-08-02T12:00	8574	334	-32.4	-35.9	275	33
2023-08-02T12:00	8595	333	-32.6	-35.9	275	33
2023-08-02T12:00	8615	332	-32.8	-36.1	275	33
2023-08-02T12:00	8634	331	-33.0	-36.4	276	34
2023-08-02T12:00	8666	330	-33.2	-36.4	276	35
2023-08-02T12:00	8681	329	-33.5	-36.7	275	35
2023-08-02T12:00	8698	328	-33.5	-37.0	275	36
2023-08-02T12:00	8715	328	-33.5	-37.1	275	36
2023-08-02T12:00	8733	327	-33.6	-37.3	275	35
2023-08-02T12:00	8752	326	-33.9	-37.4	275	35
2023-08-02T12:00	8767	325	-34.0	-37.4	275	35
2023-08-02T12:00	8785	324	-34.2	-37.5	276	34
2023-08-02T12:00	8805	323	-34.3	-37.7	276	34
2023-08-02T12:00	8828	322	-34.5	-38.0	276	35
2023-08-02T12:00	8846	321	-34.6	-38.3	276	35
2023-08-02T12:00	8868	320	-34.8	-38.4	275	36
2023-08-02T12:00	8891	319	-35.1	-38.4	275	37
2023-08-02T12:00	8916	318	-35.2	-38.9	274	37
2023-08-02T12:00	8939	317	-35.3	-39.6	274	37
2023-08-02T12:00	8956	316	-35.4	-39.7	275	37
2023-08-02T12:00	8976	316	-35.6	-40.0	275	37
2023-08-02T12:00	8998	315	-35.7	-40.5	276	37
2023-08-02T12:00	9013	314	-35.9	-40.7	277	37
2023-08-02T12:00	9034	313	-36.0	-40.9	277	37
2023-08-02T12:00	9058	312	-36.2	-41.3	277	38
2023-08-02T12:00	9078	311	-36.4	-41.8	278	39
2023-08-02T12:00	9096	310	-36.5	-42.7	278	39
2023-08-02T12:00	9115	309	-36.6	-42.6	279	39
2023-08-02T12:00	9135	308	-36.8	-42.6	279	40
2023-08-02T12:00	9157	308	-37.0	-42.9	279	40
2023-08-02T12:00	9170	307	-37.2	-42.9	279	40
2023-08-02T12:00	9193	306	-37.3	-43.2	278	40
2023-08-02T12:00	9213	305	-37.5	-43.8	277	40
2023-08-02T12:00	9236	304	-37.6	-44.8	277	40
2023-08-02T12:00	9255	303	-37.8	-44.5	276	41
2023-08-02T12:00	9277	302	-38.0	-45.1	276	42
2023-08-02T12:00	9298	301	-38.1	-45.6	276	43
2023-08-02T12:00	9330	300	-38.4	-45.6	276	43
2023-08-02T12:00	9348	299	-38.5	-45.6	277	43
2023-08-02T12:00	9373	298	-38.6	-46.4	277	43
2023-08-02T12:00	9390	297	-38.7	-46.6	277	43
2023-08-02T12:00	9410	296	-38.9	-46.2	277	44
2023-08-02T12:00	9428	296	-39.0	-45.6	277	44
2023-08-02T12:00	9448	295	-39.1	-44.5	277	44
2023-08-02T12:00	9467	294	-39.2	-44.9	277	44
2023-08-02T12:00	9488	293	-39.3	-46.3	276	45
2023-08-02T12:00	9507	292	-39.4	-47.4	276	45
2023-08-02T12:00	9529	291	-39.5	-47.0	276	46
2023-08-02T12:00	9551	290	-39.4	-48.3	276	46
2023-08-02T12:00	9573	289	-39.3	-50.0	276	47
2023-08-02T12:00	9596	288	-39.1	-52.3	276	47
2023-08-02T12:00	9618	287	-38.9	-54.2	276	48
2023-08-02T12:00	9637	287	-38.9	-55.9	276	48
2023-08-02T12:00	9661	286	-39.0	-58.8	276	48
2023-08-02T12:00	9682	285	-38.9	-58.7	277	49
2023-08-02T12:00	9704	284	-38.7	-58.8	277	49
2023-08-02T12:00	9728	283	-38.6	-57.6	278	49
2023-08-02T12:00	9748	282	-38.6		278	49
2023-08-02T12:00	9769	281	-38.6		279	50
2023-08-02T12:00	9793	280	-38.8	-57.2	279	50
2023-08-02T12:00	9814	279	-39.0		280	51
2023-08-02T12:00	9835	278	-39.1	-58.4	280	51
2023-08-02T12:00	9857	278	-39.2	-58.8	280	52
2023-08-02T12:00	9877	277	-39.2	-58.8	280	52
2023-08-02T12:00	9899	276	-39.2	-58.8	280	53
2023-08-02T12:00	9919	275	-39.2	-58.8	280	53
2023-08-02T12:00	9940	274	-39.3	-58.4	280	54
2023-08-02T12:00	9963	273	-39.4	-57.8	280	54
2023-08-02T12:00	9985	273	-39.7	-57.0	280	54
2023-08-02T12:00	10008	272	-39.8	-56.3	280	55
2023-08-02T12:00	10030	271	-39.9	-55.1	280	55
2023-08-02T12:00	10049	270	-40.0	-53.8	280	56
2023-08-02T12:00	10070	269	-40.2	-53.9	280	56
2023-08-02T12:00	10091	268	-40.4	-54.0	280	56
2023-08-02T12:00	10109	268	-40.5	-54.4	280	57
2023-08-02T12:00	10128	267	-40.5	-54.7	280	57
2023-08-02T12:00	10149	266	-40.7	-55.3	281	57
2023-08-02T12:00	10169	265	-40.8	-55.8	281	57
2023-08-02T12:00	10190	264	-40.9	-55.7	281	57
2023-08-02T12:00	10211	264	-41.0	-55.2	281	57
2023-08-02T12:00	10233	263	-41.3	-55.0	281	57
2023-08-02T12:00	10252	262	-41.5	-54.9	282	57
2023-08-02T12:00	10271	261	-41.6	-53.9	282	57
2023-08-02T12:00	10290	260	-41.7	-53.5	281	57
2023-08-02T12:00	10315	260	-41.8	-54.4	281	57
2023-08-02T12:00	10334	259	-41.8	-56.0	281	57
2023-08-02T12:00	10355	258	-41.8	-57.8	281	57
2023-08-02T12:00	10376	257	-41.9	-58.9	281	57
2023-08-02T12:00	10394	257	-41.8	-57.4	281	57
2023-08-02T12:00	10414	256	-41.9	-56.1	281	58
2023-08-02T12:00	10433	255	-42.0	-54.3	281	58
2023-08-02T12:00	10453	254	-42.1	-54.5	281	58
2023-08-02T12:00	10474	254	-42.2	-55.2	282	57
2023-08-02T12:00	10495	253	-42.4	-55.2	282	57
2023-08-02T12:00	10513	252	-42.4	-55.5	282	57
2023-08-02T12:00	10535	251	-42.4	-55.9	282	57
2023-08-02T12:00	10555	251	-42.5	-56.2	282	56
2023-08-02T12:00	10573	250	-42.5	-56.5	282	56
2023-08-02T12:00	10594	249	-42.5	-57.5	282	56
2023-08-02T12:00	10612	248	-42.5	-57.9	283	56
2023-08-02T12:00	10630	248	-42.6	-57.5	283	56
2023-08-02T12:00	10650	247	-42.7	-57.4	283	56
2023-08-02T12:00	10672	246	-42.7	-58.3	284	56
2023-08-02T12:00	10693	245	-42.8	-58.8	284	56
2023-08-02T12:00	10714	245	-42.8	-58.8	284	56
2023-08-02T12:00	10734	244	-42.7	-59.1	285	56
2023-08-02T12:00	10753	243	-42.6	-59.5	285	55
2023-08-02T12:00	10772	243	-42.6	-60.4	286	55
2023-08-02T12:00	10788	242	-42.5	-60.8	286	54
2023-08-02T12:00	10809	241	-42.6	-61.2	286	53
2023-08-02T12:00	10829	241	-42.5	-62.2	287	53
2023-08-02T12:00	10850	240	-42.2	-63.9	287	52
2023-08-02T12:00	10875	239	-42.0	-64.9	287	51
2023-08-02T12:00	10891	238	-42.0	-65.1	287	51
2023-08-02T12:00	10914	238	-41.9		288	50
2023-08-02T12:00	10931	237	-41.6	-66.5	288	50
2023-08-02T12:00	10949	236	-41.4	-67.6	287	49
2023-08-02T12:00	10966	236	-41.3	-68.2	287	49
2023-08-02T12:00	10985	235	-41.3	-68.4	288	49
2023-08-02T12:00	11009	234	-41.3	-68.4	288	49
2023-08-02T12:00	11026	234	-41.4	-68.7	288	49
2023-08-02T12:00	11045	233	-41.4	-68.9	288	50
2023-08-02T12:00	11064	232	-41.1	-68.7	287	50
2023-08-02T12:00	11083	232	-41.0	-68.4	287	50
2023-08-02T12:00	11101	231	-41.1	-68.2	287	50
2023-08-02T12:00	11123	230	-41.1	-68.2	287	50
2023-08-02T12:00	11143	230	-41.1	-68.5	287	49
2023-08-02T12:00	11164	229	-41.3	-68.4	287	49
2023-08-02T12:00	11182	228	-41.5	-68.5	287	48
2023-08-02T12:00	11202	228	-41.5	-68.8	287	48
2023-08-02T12:00	11223	227	-41.5	-68.8	287	48
2023-08-02T12:00	11247	226	-41.7	-68.9	286	47
2023-08-02T12:00	11265	226	-41.9	-69.3	286	47
2023-08-02T12:00	11287	225	-41.9	-69.6	286	47
2023-08-02T12:00	11307	224	-41.9	-69.8	286	46
2023-08-02T12:00	11327	224	-42.0	-70.2	286	46
2023-08-02T12:00	11348	223	-42.1	-70.5	286	46
2023-08-02T12:00	11369	222	-42.1	-70.8	286	46
2023-08-02T12:00	11393	221	-42.2	-70.9	286	46
2023-08-02T12:00	11410	221	-42.4	-71.0	286	45
2023-08-02T12:00	11431	220	-42.4	-71.0	286	45
2023-08-02T12:00	11453	219	-42.4	-71.0	286	44
2023-08-02T12:00	11475	219	-42.2	-71.2	287	44
2023-08-02T12:00	11502	218	-42.2	-71.8	287	43
2023-08-02T12:00	11521	217	-42.1	-72.1	287	43
2023-08-02T12:00	11541	217	-42.0	-72.0	287	43
2023-08-02T12:00	11562	216	-41.9	-72.3	287	42
2023-08-02T12:00	11583	215	-42.0	-72.7	287	42
2023-08-02T12:00	11606	215	-42.0	-73.1	288	41
2023-08-02T12:00	11626	214	-42.1	-73.2	288	41
2023-08-02T12:00	11644	213	-42.0	-73.5	288	41
2023-08-02T12:00	11667	213	-42.0	-73.5	288	40
2023-08-02T12:00	11688	212	-42.1	-73.6	288	40
2023-08-02T12:00	11710	211	-42.2	-73.7	288	40
2023-08-02T12:00	11734	211	-42.4	-73.8	289	40
2023-08-02T12:00	11754	210	-42.6	-74.0	289	39
2023-08-02T12:00	11778	209	-42.7	-74.1	289	39
2023-08-02T12:00	11800	208	-42.9	-74.2	289	38
2023-08-02T12:00	11824	208	-43.1	-74.4	289	38
2023-08-02T12:00	11849	207	-43.2	-74.4	288	38
2023-08-02T12:00	11873	206	-43.3	-74.5	288	37
2023-08-02T12:00	11895	205	-43.5	-74.7	288	37
2023-08-02T12:00	11919	205	-43.7	-74.8	287	37
2023-08-02T12:00	11944	204	-43.8	-74.9	287	36
2023-08-02T12:00	11966	203	-44.1	-74.7	286	36
2023-08-02T12:00	11989	203	-44.2	-75.2	286	35
2023-08-02T12:00	12009	202	-44.1	-75.1	285	35
2023-08-02T12:00	12030	201	-44.0	-75.0	285	35
2023-08-02T12:00	12052	201	-44.0	-75.0	284	35
2023-08-02T12:00	12077	200	-44.1	-75.1	283	35
2023-08-02T12:00	12101	199	-44.3	-75.3	283	35
2023-08-02T12:00	12122	199	-44.5	-75.4	282	35
2023-08-02T12:00	12144	198	-44.3	-75.3	282	36
2023-08-02T12:00	12165	197	-44.4	-75.3	281	36
2023-08-02T12:00	12189	197	-44.6	-75.5	281	36
2023-08-02T12:00	12208	196	-44.7	-76.0	281	37
2023-08-02T12:00	12229	196	-44.8	-76.1	281	37
2023-08-02T12:00	12253	195	-44.8	-76.1	280	37
2023-08-02T12:00	12274	194	-45.1	-75.9	280	37
2023-08-02T12:00	12296	194	-45.3	-76.0	280	37
2023-08-02T12:00	12318	193	-45.4	-76.1	280	38
2023-08-02T12:00	12342	192	-45.6	-76.2	280	38
2023-08-02T12:00	12361	192	-45.9	-76.5	280	38
2023-08-02T12:00	12381	191	-46.0	-76.5	281	37
2023-08-02T12:00	12403	190	-46.2	-76.3	282	36
2023-08-02T12:00	12434	190	-46.4	-76.4	283	35
2023-08-02T12:00	12458	189	-46.8		284	35
2023-08-02T12:00	12484	188	-46.7	-76.7	286	34
2023-08-02T12:00	12509	187	-46.5	-76.5	287	33
2023-08-02T12:00	12541	187	-46.8		288	33
2023-08-02T12:00	12564	186	-46.9	-76.8	288	33
2023-08-02T12:00	12581	185	-47.1	-77.0	288	33
2023-08-02T12:00	12608	185	-47.0	-76.9	288	33
2023-08-02T12:00	12636	184	-47.0	-76.9	287	33
2023-08-02T12:00	12657	183	-47.2	-77.0	287	32
2023-08-02T12:00	12678	183	-47.4	-77.2	287	32
2023-08-02T12:00	12700	182	-47.6	-77.3	287	31
2023-08-02T12:00	12722	182	-47.7	-77.4	287	31
2023-08-02T12:00	12747	181	-47.8	-77.5	288	31
2023-08-02T12:00	12768	180	-48.1	-77.3	287	30
2023-08-02T12:00	12788	180	-48.3	-77.5	287	30
2023-08-02T12:00	12810	179	-48.5	-77.6	287	30
2023-08-02T12:00	12830	179	-48.6	-77.7	287	29
2023-08-02T12:00	12852	178	-48.8	-77.5	286	29
2023-08-02T12:00	12871	177	-49.0	-77.7	286	29
2023-08-02T12:00	12892	177	-49.1	-77.7	286	29
2023-08-02T12:00	12916	176	-49.2	-77.8	286	29
2023-08-02T12:00	12937	176	-49.5	-78.0	286	28
2023-08-02T12:00	12959	175	-49.8	-77.9	286	28
2023-08-02T12:00	12984	174	-49.8	-77.9	285	28
2023-08-02T12:00	13004	174	-50.0	-78.1	285	28
2023-08-02T12:00	13029	173	-50.1	-78.2	284	28
2023-08-02T12:00	13052	173	-50.3	-78.3	284	28
2023-08-02T12:00	13076	172	-50.4	-78.4	283	28
2023-08-02T12:00	13101	171	-50.6	-78.5	283	28
2023-08-02T12:00	13126	171	-50.8	-78.4	282	28
2023-08-02T12:00	13148	170	-50.9	-78.5	281	28
2023-08-02T12:00	13171	169	-51.0		280	28
2023-08-02T12:00	13195	169	-51.1	-78.9	279	28
2023-08-02T12:00	13217	168	-51.1	-78.9	278	28
2023-08-02T12:00	13241	168	-51.3	-78.8	277	28
2023-08-02T12:00	13262	167	-51.4	-78.8	277	29
2023-08-02T12:00	13284	167	-51.4	-78.8	276	29
2023-08-02T12:00	13308	166	-51.6	-79.3	276	29
2023-08-02T12:00	13333	165	-51.5	-79.6	275	29
2023-08-02T12:00	13355	165	-51.2	-79.7	275	29
2023-08-02T12:00	13380	164	-51.2	-79.7	275	29
2023-08-02T12:00	13405	164	-51.3	-80.1	274	29
2023-08-02T12:00	13428	163	-51.3	-80.1	274	30
2023-08-02T12:00	13452	162	-51.3	-80.1	274	30
2023-08-02T12:00	13475	162	-51.5	-80.3	274	30
2023-08-02T12:00	13495	161	-51.6	-80.0	273	30
2023-08-02T12:00	13518	161	-51.7	-80.1	273	31
2023-08-02T12:00	13543	160	-51.8	-80.1	272	31
2023-08-02T12:00	13566	159	-51.6	-80.4	271	31
2023-08-02T12:00	13595	159	-51.6	-80.0	270	31
2023-08-02T12:00	13619	158	-51.9	-80.2	269	32
2023-08-02T12:00	13640	158	-51.8	-80.1	269	32
2023-08-02T12:00	13665	157	-51.7	-80.1	268	32
2023-08-02T12:00	13685	157	-51.8	-80.1	267	32
2023-08-02T12:00	13705	156	-51.7	-80.1	266	32
2023-08-02T12:00	13727	156	-51.5	-79.9	265	33
2023-08-02T12:00	13748	155	-51.6	-80.0	265	33
2023-08-02T12:00	13772	155	-51.7	-80.1	265	33
2023-08-02T12:00	13796	154	-51.8	-79.8	265	33
2023-08-02T12:00	13819	153	-52.0	-80.0	265	33
2023-08-02T12:00	13843	153	-52.3	-80.2	266	33
2023-08-02T12:00	13872	152	-52.5	-80.0	267	33
2023-08-02T12:00	13897	152	-52.7	-80.2	268	33
2023-08-02T12:00	13921	151	-52.8	-80.2	269	33
2023-08-02T12:00	13943	150	-52.7	-79.8	270	33
2023-08-02T12:00	13967	150	-52.6	-79.8	272	33
2023-08-02T12:00	13987	149	-52.7	-79.8	273	33
2023-08-02T12:00	14018	149	-52.8	-79.9	274	32
2023-08-02T12:00	14040	148	-53.0	-80.1	276	31
2023-08-02T12:00	14062	148	-52.9	-80.0	277	30
2023-08-02T12:00	14083	147	-52.8	-79.9	278	30
2023-08-02T12:00	14105	147	-52.6	-79.8	279	29
2023-08-02T12:00	14124	146	-52.5	-79.7	280	28
2023-08-02T12:00	14144	146	-52.6	-80.1	280	28
2023-08-02T12:00	14165	145	-52.5	-80.0	280	27
2023-08-02T12:00	14184	145	-52.5	-80.0	280	27
2023-08-02T12:00	14206	144	-52.6	-79.8	279	27
2023-08-02T12:00	14228	144	-52.8	-79.9	279	26
2023-08-02T12:00	14253	143	-53.0	-80.1	278	26
2023-08-02T12:00	14273	143	-53.1	-79.9	278	26
2023-08-02T12:00	14294	143	-53.2	-79.9	277	25
2023-08-02T12:00	14313	142	-53.5	-79.9	276	25
2023-08-02T12:00	14333	142	-53.7	-80.0	276	24
2023-08-02T12:00	14350	141	-53.7	-80.0	275	24
2023-08-02T12:00	14368	141	-53.8	-80.1	274	24
2023-08-02T12:00	14389	140	-53.9	-79.9	273	24
2023-08-02T12:00	14411	140	-53.9	-79.9	272	24
2023-08-02T12:00	14430	140	-54.1	-79.8	271	24
2023-08-02T12:00	14453	139	-54.4	-80.1	269	24
2023-08-02T12:00	14476	139	-54.4	-80.1	268	24
2023-08-02T12:00	14496	138	-54.5	-79.9	267	25
2023-08-02T12:00	14519	138	-54.4	-79.8	266	25
2023-08-02T12:00	14546	137	-54.4	-79.6	265	25
2023-08-02T12:00	14568	137	-54.4	-79.6	264	25
2023-08-02T12:00	14591	136	-54.4	-79.6	264	25
2023-08-02T12:00	14615	136	-54.3	-79.5	264	25
2023-08-02T12:00	14637	135	-54.5	-79.6	265	26
2023-08-02T12:00	14665	134	-54.6	-79.7	267	26
2023-08-02T12:00	14690	134	-54.5	-79.9	268	27
2023-08-02T12:00	14714	133	-54.3	-79.7	269	27
2023-08-02T12:00	14735	133	-54.5	-79.9	271	28
2023-08-02T12:00	14752	133	-54.4	-80.1	272	28
2023-08-02T12:00	14774	132	-54.3		273	29
2023-08-02T12:00	14795	132	-54.4	-80.3	275	29
2023-08-02T12:00	14819	131	-54.4	-80.6	276	29
2023-08-02T12:00	14840	131	-54.4	-80.6	278	29
2023-08-02T12:00	14865	130	-54.5	-80.9	279	29
2023-08-02T12:00	14886	130	-54.4	-80.9	281	29
2023-08-02T12:00	14908	129	-54.3	-80.8	282	28
2023-08-02T12:00	14933	129	-54.3	-81.1	284	27
2023-08-02T12:00	14956	129	-54.3	-81.1	285	27
2023-08-02T12:00	14982	128	-54.4	-81.2	286	26
2023-08-02T12:00	15009	128	-54.4	-81.2	288	25
2023-08-02T12:00	15032	127	-54.4	-81.5	289	24
2023-08-02T12:00	15057	126	-54.2	-81.3	289	23
2023-08-02T12:00	15082	126	-54.0	-81.5	289	23
2023-08-02T12:00	15108	126	-54.0	-81.5	289	22
2023-08-02T12:00	15132	125	-54.1	-81.9	288	21
2023-08-02T12:00	15156	125	-54.0	-81.8	287	20
2023-08-02T12:00	15180	124	-54.2	-82.0	285	19
2023-08-02T12:00	15206	124	-54.4	-82.1	283	19
2023-08-02T12:00	15226	123	-54.3	-82.1	281	18
2023-08-02T12:00	15250	123	-54.5	-82.2	279	18
2023-08-02T12:00	15276	122	-54.4	-82.5	277	18
2023-08-02T12:00	15301	122	-54.2	-82.3	276	18
2023-08-02T12:00	15326	121	-54.3	-82.4	275	18
2023-08-02T12:00	15352	121	-54.4	-82.5	275	18
2023-08-02T12:00	15375	120	-54.5	-82.6	276	19
2023-08-02T12:00	15398	120	-54.5	-82.6	277	19
2023-08-02T12:00	15423	119	-54.4	-82.9	279	19
2023-08-02T12:00	15449	119	-54.4	-82.9	281	18
2023-08-02T12:00	15473	119	-54.5	-82.9	281	18
2023-08-02T12:00	15500	118	-54.5	-82.9	281	18
2023-08-02T12:00	15526	118	-54.4	-82.9	280	17
2023-08-02T12:00	15553	117	-54.4	-82.9	278	17
2023-08-02T12:00	15580	117	-54.4	-82.9	275	17
2023-08-02T12:00	15607	116	-54.5	-82.9	274	17
2023-08-02T12:00	15632	116	-54.7	-82.7	273	18
2023-08-02T12:00	15656	115	-54.7	-82.7	273	18
2023-08-02T12:00	15676	115	-54.9	-82.9	274	18
2023-08-02T12:00	15700	114	-55.0	-82.9	276	18
2023-08-02T12:00	15731	114	-55.0	-82.9	278	17
2023-08-02T12:00	15753	113	-55.0	-82.9	281	17
2023-08-02T12:00	15779	113	-54.7	-82.7	283	16
2023-08-02T12:00	15807	113	-54.6	-82.6	285	15
2023-08-02T12:00	15827	112	-54.5	-82.9	286	14
2023-08-02T12:00	15855	112	-54.3	-82.8	286	14
2023-08-02T12:00	15878	111	-54.0	-82.6	285	13
2023-08-02T12:00	15903	111	-54.1	-82.6	284	12
2023-08-02T12:00	15929	110	-54.0	-82.6	282	12
2023-08-02T12:00	15952	110	-53.9	-82.9	280	11
2023-08-02T12:00	15976	110	-54.1	-83.1	278	11
2023-08-02T12:00	16003	109	-54.2	-83.1	276	10
2023-08-02T12:00	16026	109	-54.0	-83.4	275	10
2023-08-02T12:00	16047	108	-53.8	-83.3	273	10
2023-08-02T12:00	16073	108	-53.7	-83.2	271	11
2023-08-02T12:00	16096	108	-53.7	-83.2	269	11
2023-08-02T12:00	16119	107	-54.0	-83.4	266	11
2023-08-02T12:00	16142	107	-54.0	-83.4	263	12
2023-08-02T12:00	16169	106	-53.9	-83.3	261	12
2023-08-02T12:00	16193	106	-53.9	-83.3	258	13
2023-08-02T12:00	16216	106	-53.9	-83.3	257	13
2023-08-02T12:00	16237	105	-54.0	-83.4	256	13
2023-08-02T12:00	16260	105	-54.0	-83.4	257	12
2023-08-02T12:00	16285	104	-54.1	-83.5	259	12
2023-08-02T12:00	16307	104	-54.1	-83.5	261	12
2023-08-02T12:00	16333	104	-54.1	-83.5	262	11
2023-08-02T12:00	16356	103	-54.1	-83.5	263	11
2023-08-02T12:00	16380	103	-54.1	-83.5	262	11
2023-08-02T12:00	16405	103	-54.1	-83.5	260	11
2023-08-02T12:00	16429	102	-54.0	-83.4	258	11
2023-08-02T12:00	16449	102	-54.0	-83.4	256	11
2023-08-02T12:00	16474	101	-54.1	-83.5	254	11
2023-08-02T12:00	16500	101	-54.1	-83.5	252	11
2023-08-02T12:00	16524	101	-54.1	-84.0	249	10
2023-08-02T12:00	16548	100	-54.0	-83.9	246	10
2023-08-02T12:00	16568	100	-53.9	-83.8	244	11
2023-08-02T12:00	16592	100	-53.9	-83.8	243	11
2023-08-02T12:00	16617	99	-54.0	-83.9	242	12
2023-08-02T12:00	16642	99	-53.8	-83.7	242	12
2023-08-02T12:00	16664	98	-53.9	-83.8	242	12
2023-08-02T12:00	16683	98	-53.7	-83.7	243	12
2023-08-02T12:00	16705	98	-53.5	-83.5	244	11
2023-08-02T12:00	16732	97	-53.4	-83.4	245	11
2023-08-02T12:00	16753	97	-53.4	-83.4	246	10
2023-08-02T12:00	16777	97	-53.2	-83.8	247	10
2023-08-02T12:00	16798	96	-53.1	-83.7	248	10
2023-08-02T12:00	16820	96	-53.0	-83.6	249	10
2023-08-02T12:00	16842	96	-52.9	-83.6	250	11
2023-08-02T12:00	16868	95	-53.1	-83.7	251	10
2023-08-02T12:00	16889	95	-52.9	-83.6	252	10
2023-08-02T12:00	16911	95	-52.6	-83.3	251	9
2023-08-02T12:00	16934	94	-52.2	-83.1	249	8
2023-08-02T12:00	16959	94	-52.2	-83.1	246	7
2023-08-02T12:00	16984	94	-52.3	-83.1	242	7
2023-08-02T12:00	17010	93	-52.3	-83.1	239	7
2023-08-02T12:00	17033	93	-52.2	-83.1	237	7
2023-08-02T12:00	17059	93	-52.2	-83.1	236	7
2023-08-02T12:00	17086	92	-52.4	-83.2	234	7
2023-08-02T12:00	17111	92	-52.5	-82.8	233	7
2023-08-02T12:00	17137	92	-52.7	-82.9	232	7
2023-08-02T12:00	17163	91	-53.0	-83.1	231	7
2023-08-02T12:00	17191	91	-53.1	-83.2	231	8
2023-08-02T12:00	17218	90	-53.4	-83.4	232	8
2023-08-02T12:00	17244	90	-53.6	-83.1	233	9
2023-08-02T12:00	17268	90	-54.0	-83.4	235	10
2023-08-02T12:00	17294	89	-54.2	-83.6	238	10
2023-08-02T12:00	17319	89	-54.1	-83.5	240	10
2023-08-02T12:00	17348	89	-54.0	-83.9	242	11
2023-08-02T12:00	17371	88	-53.9	-83.8	244	11
2023-08-02T12:00	17399	88	-53.7	-83.7	245	11
2023-08-02T12:00	17426	87	-53.4	-83.9	244	10
2023-08-02T12:00	17451	87	-53.4	-83.9	243	10
2023-08-02T12:00	17479	87	-53.3	-83.9	243	10
2023-08-02T12:00	17499	86	-53.1	-83.7	243	10
2023-08-02T12:00	17529	86	-53.0	-83.6	244	10
2023-08-02T12:00	17553	86	-52.9	-83.6	246	10
2023-08-02T12:00	17577	85	-53.0	-83.6	249	10
2023-08-02T12:00	17599	85	-53.2	-83.8	251	10
2023-08-02T12:00	17625	85	-53.3		253	10
2023-08-02T12:00	17653	84	-53.4	-83.4	253	9
2023-08-02T12:00	17675	84	-53.5	-83.5	251	9
2023-08-02T12:00	17700	84	-53.6	-83.6	249	9
2023-08-02T12:00	17724	84	-53.6	-83.6	247	9
2023-08-02T12:00	17752	83	-53.6	-83.6	245	10
2023-08-02T12:00	17774	83	-53.6	-83.6	244	10
2023-08-02T12:00	17798	83	-53.9	-83.8	245	10
2023-08-02T12:00	17825	82	-54.1	-84.0	247	10
2023-08-02T12:00	17845	82	-54.2	-84.0	249	10
2023-08-02T12:00	17863	82	-54.4	-84.2	250	10
2023-08-02T12:00	17884	81	-54.4	-84.2	252	10
2023-08-02T12:00	17900	81	-54.3	-84.1	253	10
2023-08-02T12:00	17926	81	-54.2	-84.0	254	10
2023-08-02T12:00	17948	81	-54.3	-84.1	255	10
2023-08-02T12:00	17968	80	-54.1	-84.0	256	10
2023-08-02T12:00	17989	80	-53.8	-84.2	258	10
2023-08-02T12:00	18011	80	-53.6	-84.1	261	10
2023-08-02T12:00	18037	80	-53.5	-84.0	263	9
2023-08-02T12:00	18059	79	-53.6	-84.1	266	9
2023-08-02T12:00	18082	79	-53.6	-84.1	269	8
2023-08-02T12:00	18105	79	-53.5	-84.0	272	8
2023-08-02T12:00	18129	78	-53.6	-84.1	274	7
2023-08-02T12:00	18151	78	-53.7	-84.2	276	6
2023-08-02T12:00	18173	78	-53.6	-84.1	276	5
2023-08-02T12:00	18195	78	-53.6	-84.1	274	5
2023-08-02T12:00	18219	77	-53.6	-84.1	272	4
2023-08-02T12:00	18241	77	-53.8	-83.7	271	3
2023-08-02T12:00	18264	77	-53.9	-83.8	272	3
2023-08-02T12:00	18292	76	-53.8	-83.7	275	3
2023-08-02T12:00	18317	76	-53.9	-83.8	278	3
2023-08-02T12:00	18345	76	-54.1	-84.0	279	4
2023-08-02T12:00	18371	76	-54.3	-84.1	277	5
2023-08-02T12:00	18399	75	-54.3	-84.1	275	6
2023-08-02T12:00	18417	75	-54.5	-84.3	273	7
2023-08-02T12:00	18447	75	-54.6	-84.3	272	8
2023-08-02T12:00	18469	74	-54.7	-84.4	271	9
2023-08-02T12:00	18496	74	-54.7	-84.4	272	9
2023-08-02T12:00	18522	74	-54.5	-84.8	273	9
2023-08-02T12:00	18547	73	-53.9	-84.3	273	8
2023-08-02T12:00	18569	73	-53.4	-83.9	273	8
2023-08-02T12:00	18600	73	-53.2	-84.4	271	7
2023-08-02T12:00	18622	73	-53.1	-84.3	267	6
2023-08-02T12:00	18646	72	-53.2	-84.4	262	5
2023-08-02T12:00	18669	72	-53.2	-84.4	257	5
2023-08-02T12:00	18696	72	-52.9	-84.1	252	5
2023-08-02T12:00	18718	72	-52.5	-83.8	250	4
2023-08-02T12:00	18742	71	-52.5	-83.8	247	4
2023-08-02T12:00	18770	71	-52.6	-83.9	243	4
2023-08-02T12:00	18794	71	-52.5	-83.8	234	3
2023-08-02T12:00	18816	70	-52.4	-83.8	215	3
2023-08-02T12:00	18844	70	-52.4	-83.8	193	3
2023-08-02T12:00	18869	70	-52.4	-83.8	178	4
2023-08-02T12:00	18893	70	-52.0	-83.5	171	5
2023-08-02T12:00	18923	69	-51.5	-83.1	169	5
2023-08-02T12:00	18951	69	-51.4	-83.0	169	6
2023-08-02T12:00	18975	69	-51.6	-83.2	170	7
2023-08-02T12:00	19005	68	-51.7	-83.2	171	7
2023-08-02T12:00	19028	68	-51.8	-83.3	172	7
2023-08-02T12:00	19049	68	-52.0	-83.5	174	8
2023-08-02T12:00	19078	68	-52.2	-83.1	177	8
2023-08-02T12:00	19103	67	-52.4	-83.2	181	8
2023-08-02T12:00	19130	67	-52.5	-83.3	184	8
2023-08-02T12:00	19152	67	-52.6	-83.3	189	9
2023-08-02T12:00	19179	67	-52.8	-83.5	193	9
2023-08-02T12:00	19204	66	-53.0	-83.6	198	9
2023-08-02T12:00	19228	66	-53.0	-83.6	203	9
2023-08-02T12:00	19255	66	-53.0	-83.6	209	9
2023-08-02T12:00	19276	66	-53.0	-84.2	213	9
2023-08-02T12:00	19303	65	-52.6	-83.9	216	9
2023-08-02T12:00	19330	65	-52.3	-83.7	218	8
2023-08-02T12:00	19352	65	-52.0	-83.5	218	8
2023-08-02T12:00	19376	65	-51.8	-83.9	217	8
2023-08-02T12:00	19398	64	-51.6	-83.8	214	7
2023-08-02T12:00	19423	64	-51.5	-83.7	211	7
2023-08-02T12:00	19450	64	-51.4	-83.6	208	7
2023-08-02T12:00	19466	64	-51.3	-83.6	204	6
2023-08-02T12:00	19495	63	-50.9	-83.3	201	6
2023-08-02T12:00	19520	63	-50.5	-83.0	198	6
2023-08-02T12:00	19546	63	-50.4	-82.9	197	5
2023-08-02T12:00	19570	63	-50.5	-83.0	196	5
2023-08-02T12:00	19598	62	-50.6	-83.1	196	5
2023-08-02T12:00	19622	62	-50.7	-83.1	197	5
2023-08-02T12:00	19648	62	-50.7	-83.1	200	5
2023-08-02T12:00	19669	62	-50.7	-83.1	203	5
2023-08-02T12:00	19693	62	-50.7	-83.1	208	5
2023-08-02T12:00	19724	61	-50.9	-83.3	214	5
2023-08-02T12:00	19747	61	-50.9	-83.3	218	5
2023-08-02T12:00	19774	61	-50.9	-83.3	221	5
2023-08-02T12:00	19796	61	-50.8	-83.2	223	5
2023-08-02T12:00	19825	60	-50.7	-83.1	225	5
2023-08-02T12:00	19851	60	-50.6	-83.1	228	5
2023-08-02T12:00	19878	60	-50.6	-83.1	233	4
2023-08-02T12:00	19901	60	-50.7	-83.1	239	4
2023-08-02T12:00	19928	59	-50.8	-83.2	244	4
2023-08-02T12:00	19953	59	-50.9	-83.3	246	4
2023-08-02T12:00	19980	59	-50.9	-83.3	245	4
2023-08-02T12:00	20004	59	-51.0	-83.3	242	5
2023-08-02T12:00	20027	58	-51.1	-82.8	238	5
2023-08-02T12:00	20055	58	-51.2	-82.9	234	5
2023-08-02T12:00	20083	58	-51.2	-82.9	229	5
2023-08-02T12:00	20107	58	-51.3	-82.9	226	5
2023-08-02T12:00	20134	58	-51.4	-83.0	223	5
2023-08-02T12:00	20160	57	-51.5	-83.1	220	6
2023-08-02T12:00	20184	57	-51.6	-83.2	218	6
2023-08-02T12:00	20216	57	-51.8	-83.3	216	6
2023-08-02T12:00	20239	57	-52.0	-83.5	214	6
2023-08-02T12:00	20266	56	-52.1	-83.5	212	6
2023-08-02T12:00	20291	56	-52.2	-83.6	210	6
2023-08-02T12:00	20319	56	-52.1	-83.5	209	6
2023-08-02T12:00	20346	56	-52.2	-83.6	208	5
2023-08-02T12:00	20373	55	-52.3	-83.7	207	5
2023-08-02T12:00	20395	55	-52.0	-84.1	206	4
2023-08-02T12:00	20424	55	-51.7	-83.9	202	4
2023-08-02T12:00	20449	55	-51.4	-83.6	198	4
2023-08-02T12:00	20477	55	-51.3	-83.6	194	4
2023-08-02T12:00	20498	54	-51.3	-83.6	191	4
2023-08-02T12:00	20526	54	-51.4	-83.6	188	5
2023-08-02T12:00	20554	54	-51.4	-83.6	185	5
2023-08-02T12:00	20581	54	-51.4	-83.6	183	5
2023-08-02T12:00	20608	53	-51.4	-83.6	180	4
2023-08-02T12:00	20635	53	-51.5	-83.7	176	4
2023-08-02T12:00	20657	53	-51.5	-83.7	170	4
2023-08-02T12:00	20686	53	-51.5	-83.7	160	3
2023-08-02T12:00	20710	53	-51.4	-83.6	149	3
2023-08-02T12:00	20737	52	-51.5	-83.7	138	3
2023-08-02T12:00	20759	52	-51.4	-83.6	132	3
2023-08-02T12:00	20790	52	-51.3	-83.6	131	2
2023-08-02T12:00	20814	52	-51.4	-83.6	133	2
2023-08-02T12:00	20841	52	-51.4	-83.6	137	2
2023-08-02T12:00	20864	51	-51.6	-83.2	145	2
2023-08-02T12:00	20892	51	-51.8	-83.3	162	1
2023-08-02T12:00	20916	51	-51.9	-83.4	201	1
2023-08-02T12:00	20942	51	-51.9	-83.4	246	1
2023-08-02T12:00	20969	51	-52.0	-83.5	269	1
2023-08-02T12:00	20998	50	-52.0	-83.5	282	1
2023-08-02T12:00	21022	50	-51.9	-84.0	291	1
2023-08-02T12:00	21050	50	-51.8	-83.9	300	1
2023-08-02T12:00	21079	50	-51.7	-83.9	314	1
2023-08-02T12:00	21106	50	-51.7	-83.9	351	0
2023-08-02T12:00	21133	49	-51.7	-83.9	62	1
2023-08-02T12:00	21157	49	-51.7	-83.9	86	1
2023-08-02T12:00	21182	49	-51.8	-83.9	93	2
2023-08-02T12:00	21211	49	-51.9	-84.0	96	2
2023-08-02T12:00	21239	49	-51.8	-83.9	99	3
2023-08-02T12:00	21264	48	-51.6	-83.8	103	3
2023-08-02T12:00	21290	48	-51.7	-83.2	107	3
2023-08-02T12:00	21315	48	-51.8	-83.3	113	3
2023-08-02T12:00	21348	48	-52.1	-83.5	118	3
2023-08-02T12:00	21372	48	-52.3	-83.7	123	3
2023-08-02T12:00	21400	47	-52.5	-83.8	126	4
2023-08-02T12:00	21427	47	-52.5	-83.8	127	4
2023-08-02T12:00	21451	47	-52.5	-83.8	129	4
2023-08-02T12:00	21479	47	-52.6	-83.9	130	4
2023-08-02T12:00	21504	47	-52.5	-84.4	133	5
2023-08-02T12:00	21532	46	-52.4	-84.4	137	5
2023-08-02T12:00	21557	46	-52.1	-84.2	141	5
2023-08-02T12:00	21582	46	-52.1	-84.2	147	5
2023-08-02T12:00	21612	46	-52.1	-84.2	153	5
2023-08-02T12:00	21637	46	-52.0	-84.1	160	4
2023-08-02T12:00	21665	45	-51.7	-83.9	170	4
2023-08-02T12:00	21692	45	-51.7	-83.9	182	4
2023-08-02T12:00	21721	45	-51.8	-83.9	195	4
2023-08-02T12:00	21748	45	-51.8	-83.9	206	3
2023-08-02T12:00	21768	45	-51.7	-83.9	214	3
2023-08-02T12:00	21797	45	-51.8	-84.6	216	3
2023-08-02T12:00	21821	44	-51.7	-84.5	212	2
2023-08-02T12:00	21853	44	-51.3	-84.3	199	2
2023-08-02T12:00	21877	44	-51.1	-84.1	181	1
2023-08-02T12:00	21902	44	-51.0	-84.0	172	1
2023-08-02T12:00	21923	44	-51.0	-84.0	171	1
2023-08-02T12:00	21951	43	-50.9	-84.0	173	1
2023-08-02T12:00	21986	43	-50.7	-83.8	169	1
2023-08-02T12:00	22011	43	-50.5	-83.7	139	1
2023-08-02T12:00	22036	43	-50.3	-83.5	96	1
2023-08-02T12:00	22063	43	-50.3	-83.5	83	2
2023-08-02T12:00	22090	43	-50.2	-83.5	82	2
2023-08-02T12:00	22116	42	-50.0	-83.3	85	3
2023-08-02T12:00	22143	42	-50.0	-83.3	91	4
2023-08-02T12:00	22169	42	-50.0	-83.3	96	4
2023-08-02T12:00	22192	42	-49.9	-83.2	101	5
2023-08-02T12:00	22221	42	-49.8	-83.2	105	5
2023-08-02T12:00	22246	42	-49.5	-82.9	108	6
2023-08-02T12:00	22279	41	-49.4	-82.9	109	6
2023-08-02T12:00	22300	41	-49.4	-82.9	109	5
2023-08-02T12:00	22325	41	-49.5	-82.9	107	5
2023-08-02T12:00	22352	41	-49.4	-82.9	105	4
2023-08-02T12:00	22384	41	-49.3	-82.8	101	4
2023-08-02T12:00	22414	41	-49.5	-82.9	95	3
2023-08-02T12:00	22440	40	-49.7	-83.1	82	2
2023-08-02T12:00	22468	40	-49.7	-83.1	60	1
2023-08-02T12:00	22494	40	-49.8	-83.2	33	1
2023-08-02T12:00	22518	40	-49.9	-83.2	20	2
2023-08-02T12:00	22546	40	-49.8	-83.2	22	2
2023-08-02T12:00	22568	40	-49.7	-83.1	34	2
2023-08-02T12:00	22599	39	-49.6	-83.0	48	3
2023-08-02T12:00	22627	39	-49.6	-83.0	60	3
2023-08-02T12:00	22656	39	-49.5	-82.9	69	4
2023-08-02T12:00	22683	39	-49.4	-82.9	75	5
2023-08-02T12:00	22711	39	-49.5	-82.9	80	6
2023-08-02T12:00	22738	39	-49.7	-83.1	83	6
2023-08-02T12:00	22767	38	-49.8	-83.2	86	7
2023-08-02T12:00	22794	38	-50.2	-83.5	89	8
2023-08-02T12:00	22822	38	-50.3	-82.8	91	9
2023-08-02T12:00	22849	38	-50.3	-82.8	95	9
2023-08-02T12:00	22876	38	-50.5	-83.0	98	10
2023-08-02T12:00	22911	38	-50.7	-83.1	102	10
2023-08-02T12:00	22936	37	-50.8	-83.2	106	11
2023-08-02T12:00	22963	37	-50.9	-83.3	110	11
2023-08-02T12:00	22990	37	-50.8	-83.2	113	12
2023-08-02T12:00	23017	37	-50.8	-83.2	117	12
2023-08-02T12:00	23039	37	-50.9	-83.3	119	12
2023-08-02T12:00	23076	37	-51.0	-83.3	121	11
2023-08-02T12:00	23096	36	-51.0	-84.0	122	11
2023-08-02T12:00	23127	36	-50.8	-83.9	123	10
2023-08-02T12:00	23151	36	-50.7	-83.8	124	9
2023-08-02T12:00	23176	36	-50.7	-83.8	125	8
2023-08-02T12:00	23207	36	-50.5	-83.7	125	7
2023-08-02T12:00	23231	36	-50.4	-83.6	125	7
2023-08-02T12:00	23261	36	-50.4	-83.6	123	6
2023-08-02T12:00	23291	35	-50.3	-83.5	121	5
2023-08-02T12:00	23316	35	-50.2	-83.5	119	4
2023-08-02T12:00	23345	35	-50.2	-83.5	117	4
2023-08-02T12:00	23372	35	-50.3	-83.5	115	4
2023-08-02T12:00	23394	35	-50.4	-83.6	111	4
2023-08-02T12:00	23427	35	-50.5	-83.7	107	4
2023-08-02T12:00	23452	35	-50.4	-83.6	105	4
2023-08-02T12:00	23481	34	-50.2	-83.5	105	4
2023-08-02T12:00	23512	34	-50.1	-83.4	106	5
2023-08-02T12:00	23545	34	-50.1	-83.4	108	6
2023-08-02T12:00	23566	34	-50.1	-83.4	110	6
2023-08-02T12:00	23594	34	-50.2	-83.5	112	7
2023-08-02T12:00	23623	34	-50.3	-83.5	114	7
2023-08-02T12:00	23654	34	-50.3	-83.5	117	8
2023-08-02T12:00	23684	33	-50.3	-83.5	121	8
2023-08-02T12:00	23703	33	-50.4	-83.6	126	9
2023-08-02T12:00	23741	33	-50.6	-83.7	130	9
2023-08-02T12:00	23765	33	-50.6	-83.7	133	10
2023-08-02T12:00	23791	33	-50.7	-83.8	137	10
2023-08-02T12:00	23816	33	-50.8	-83.9	139	11
2023-08-02T12:00	23841	33	-50.8	-83.9	142	11
2023-08-02T12:00	23873	32	-50.9	-84.0	145	11
2023-08-02T12:00	23894	32	-51.0	-84.0	147	10
2023-08-02T12:00	23925	32	-50.9	-84.0	150	10
2023-08-02T12:00	23955	32	-50.9	-84.0	153	10
2023-08-02T12:00	23982	32	-51.0	-84.0	156	9
2023-08-02T12:00	24007	32	-50.9	-84.0	160	9
2023-08-02T12:00	24035	32	-50.6	-83.7	163	9
2023-08-02T12:00	24062	31	-50.5	-83.7	166	8
2023-08-02T12:00	24089	31	-50.4	-83.6	169	8
2023-08-02T12:00	24117	31	-50.3	-83.5	170	7
2023-08-02T12:00	24147	31	-50.1	-84.2	169	6
2023-08-02T12:00	24172	31	-50.0	-84.1	166	5
2023-08-02T12:00	24201	31	-49.8	-84.0	160	4
2023-08-02T12:00	24234	31	-49.7	-83.9	151	4
2023-08-02T12:00	24265	31	-49.6	-83.8	141	3
2023-08-02T12:00	24290	30	-49.5	-83.7	134	4
2023-08-02T12:00	24311	30	-49.4	-83.7	131	4
2023-08-02T12:00	24339	30	-49.4	-83.7	132	5
2023-08-02T12:00	24366	30	-49.3	-83.6	134	5
2023-08-02T12:00	24396	30	-49.2	-83.5	137	5
2023-08-02T12:00	24426	30	-49.3	-83.6	139	5
2023-08-02T12:00	24450	30	-49.3	-83.6	140	5
2023-08-02T12:00	24485	30	-49.2	-83.5	140	4
2023-08-02T12:00	24509	29	-49.0	-83.4	138	4
2023-08-02T12:00	24543	29	-49.0	-83.4	135	4
2023-08-02T12:00	24570	29	-48.9	-83.3	132	4
2023-08-02T12:00	24602	29	-48.7	-83.2	131	4
2023-08-02T12:00	24629	29	-48.7	-83.2	131	5
2023-08-02T12:00	24654	29	-48.7	-83.2	132	6
2023-08-02T12:00	24684	29	-48.8	-83.2	133	7
2023-08-02T12:00	24714	28	-48.8	-83.2	135	7
2023-08-02T12:00	24739	28	-48.7	-83.2	137	8
2023-08-02T12:00	24771	28	-48.8	-83.2	139	8
2023-08-02T12:00	24789	28	-48.9	-83.3	141	9
2023-08-02T12:00	24824	28	-48.7	-83.2	144	9
2023-08-02T12:00	24853	28	-48.6	-83.1	146	9
2023-08-02T12:00	24884	28	-48.6	-83.1	149	9
2023-08-02T12:00	24913	28	-48.7	-83.2	152	8
2023-08-02T12:00	24944	28	-48.8	-83.2	156	8
2023-08-02T12:00	24975	27	-48.7	-83.2	159	7
2023-08-02T12:00	25006	27	-48.7	-83.2	162	7
2023-08-02T12:00	25035	27	-48.7	-83.2	163	6
2023-08-02T12:00	25058	27	-48.5	-83.0	162	6
2023-08-02T12:00	25096	27	-48.4	-82.9	160	6
2023-08-02T12:00	25113	27	-48.2	-82.8	158	7
2023-08-02T12:00	25145	27	-48.2	-82.8	155	7
2023-08-02T12:00	25179	27	-48.2	-82.8	152	6
2023-08-02T12:00	25203	26	-48.2	-82.8	147	6
2023-08-02T12:00	25238	26	-48.2	-82.8	142	5
2023-08-02T12:00	25267	26	-48.1	-82.7	136	4
2023-08-02T12:00	25297	26	-48.0	-82.7	129	3
2023-08-02T12:00	25323	26	-48.0	-82.7	124	3
2023-08-02T12:00	25350	26	-48.0	-82.7	123	3
2023-08-02T12:00	25378	26	-48.0	-82.7	127	3
2023-08-02T12:00	25408	26	-47.9	-82.6	133	3
2023-08-02T12:00	25435	26	-48.0	-82.7	138	3
2023-08-02T12:00	25467	25	-48.2	-82.8	140	4
2023-08-02T12:00	25495	25	-48.3	-82.9	140	4
2023-08-02T12:00	25526	25	-48.3	-82.9	136	4
2023-08-02T12:00	25556	25	-48.2	-82.8	129	4
2023-08-02T12:00	25584	25	-48.1	-82.7	117	3
2023-08-02T12:00	25626	25	-48.0	-82.7	103	3
2023-08-02T12:00	25643	25	-47.8	-83.4	89	4
2023-08-02T12:00	25671	25	-47.7	-83.4	79	4
2023-08-02T12:00	25696	25	-47.7	-83.4	71	4
2023-08-02T12:00	25724	24	-47.6	-83.3	65	5
2023-08-02T12:00	25753	24	-47.6	-83.3	59	5
2023-08-02T12:00	25788	24	-47.6	-82.4	55	6
2023-08-02T12:00	25812	24	-47.7	-82.4	52	6
2023-08-02T12:00	25841	24	-47.7	-82.4	51	6
2023-08-02T12:00	25872	24	-47.8	-82.5	52	7
2023-08-02T12:00	25906	24	-47.7	-82.4	56	7
2023-08-02T12:00	25926	24	-47.6	-82.4	62	7
2023-08-02T12:00	25961	24	-47.5	-82.3	68	8
2023-08-02T12:00	25993	24	-47.5	-83.2	75	8
2023-08-02T12:00	26013	23	-47.7	-83.4	81	8
2023-08-02T12:00	26034	23	-47.7	-83.4	88	9
2023-08-02T12:00	26073	23	-47.6	-82.4	94	9
2023-08-02T12:00	26100	23	-47.6	-82.4	100	9
2023-08-02T12:00	26129	23	-47.7	-82.4	105	9
2023-08-02T12:00	26153	23	-47.9	-82.6	108	9
2023-08-02T12:00	26186	23	-47.9	-82.6	110	8
2023-08-02T12:00	26212	23	-47.8	-82.5	109	8
2023-08-02T12:00	26247	23	-47.8	-83.4	107	7
2023-08-02T12:00	26262	23	-47.6	-83.3	105	7
2023-08-02T12:00	26289	22	-47.3	-83.1	102	7
2023-08-02T12:00	26320	22	-47.1	-82.9	99	6
2023-08-02T12:00	26344	22	-46.9	-82.8	98	6
2023-08-02T12:00	26384	22	-46.8	-82.7	97	6
2023-08-02T12:00	26406	22	-46.6	-82.6	97	7
2023-08-02T12:00	26443	22	-46.5	-82.5	98	7
2023-08-02T12:00	26463	22	-46.4	-82.4	101	7
2023-08-02T12:00	26483	22	-46.4	-82.4	105	7
2023-08-02T12:00	26509	22	-46.4	-82.4	110	7
2023-08-02T12:00	26537	22	-46.2	-82.3	114	7
2023-08-02T12:00	26566	22	-46.2	-82.3	117	7
2023-08-02T12:00	26592	21	-46.3	-82.4	116	7
2023-08-02T12:00	26615	21	-46.2	-82.3	113	7
2023-08-02T12:00	26660	21	-46.0	-82.1	108	8
2023-08-02T12:00	26676	21	-45.6	-81.9	102	8
2023-08-02T12:00	26702	21	-45.3	-82.7	98	9
2023-08-02T12:00	26736	21	-45.3	-82.7	96	9
2023-08-02T12:00	26767	21	-45.4	-82.8	94	10
2023-08-02T12:00	26801	21	-45.4	-81.7	95	10
2023-08-02T12:00	26824	21	-45.4	-81.7	96	10
2023-08-02T12:00	26847	21	-45.3	-82.7	98	10
2023-08-02T12:00	26874	21	-45.2	-82.7	100	9
2023-08-02T12:00	26901	20	-45.0	-82.5	102	9
2023-08-02T12:00	26944	20	-44.8	-82.4	103	8
2023-08-02T12:00	26968	20	-44.8	-82.4	104	7
2023-08-02T12:00	27002	20	-44.8	-82.4	104	7
2023-08-02T12:00	27025	20	-44.8	-82.4	104	6
2023-08-02T12:00	27060	20	-44.8	-82.4	103	6
2023-08-02T12:00	27083	20	-44.8	-82.4	101	6
2023-08-02T12:00	27118	20	-44.7	-82.3	99	6
2023-08-02T12:00	27150	20	-44.7	-82.3	96	6
2023-08-02T12:00	27168	20	-44.7	-82.3	94	6
2023-08-02T12:00	27214	20	-44.8	-82.4	92	6
2023-08-02T12:00	27241	19	-44.8	-82.4	91	7
2023-08-02T12:00	27276	19	-44.7	-82.3	91	7
2023-08-02T12:00	27301	19	-44.7	-82.3	92	7
2023-08-02T12:00	27322	19	-44.7	-82.3	93	8
2023-08-02T12:00	27358	19	-44.7	-82.3	94	8
2023-08-02T12:00	27391	19	-44.7	-82.3	96	8
2023-08-02T12:00	27420	19	-44.7	-82.3	98	9
2023-08-02T12:00	27450	19	-44.7	-82.3	99	9
2023-08-02T12:00	27480	19	-44.8	-82.4	100	9
2023-08-02T12:00	27512	19	-44.9	-82.5	99	9
2023-08-02T12:00	27543	19	-45.0	-81.4	98	10
2023-08-02T12:00	27571	19	-45.1	-81.5	98	10
2023-08-02T12:00	27606	18	-45.1	-81.5	98	11
2023-08-02T12:00	27642	18	-45.2	-81.6	99	11
2023-08-02T12:00	27668	18	-45.3	-81.6	101	12
2023-08-02T12:00	27694	18	-45.3	-81.6	103	12
2023-08-02T12:00	27725	18	-45.3	-82.7	106	12
2023-08-02T12:00	27754	18	-45.2	-82.7	108	12
2023-08-02T12:00	27790	18	-45.2	-82.7	110	12
2023-08-02T12:00	27824	18	-45.3	-82.7	111	12
2023-08-02T12:00	27854	18	-45.3	-82.7	111	12
2023-08-02T12:00	27878	18	-45.3	-82.7	112	11
2023-08-02T12:00	27899	18	-45.3	-82.7	112	11
2023-08-02T12:00	27930	18	-45.4	-82.8	111	11
2023-08-02T12:00	27961	17	-45.3	-82.7	110	12
2023-08-02T12:00	27991	17	-45.3	-82.7	109	12
2023-08-02T12:00	28016	17	-45.2	-82.7	108	12
2023-08-02T12:00	28048	17	-45.2	-82.7	108	13
2023-08-02T12:00	28082	17	-45.1	-82.6	109	13
2023-08-02T12:00	28111	17	-45.1	-82.6	111	13
2023-08-02T12:00	28138	17	-45.1	-82.6	113	12
2023-08-02T12:00	28161	17	-45.0	-82.5	116	12
2023-08-02T12:00	28189	17	-44.9	-82.5	119	12
2023-08-02T12:00	28223	17	-44.8	-82.4	123	12
2023-08-02T12:00	28256	17	-44.9	-82.5	125	12
2023-08-02T12:00	28278	17	-44.9	-82.5	127	12
2023-08-02T12:00	28318	17	-45.0	-82.5	128	12
2023-08-02T12:00	28349	17	-45.0	-82.5	129	12
2023-08-02T12:00	28369	16	-45.0	-82.5	129	11
2023-08-02T12:00	28404	16	-44.9	-82.5	131	11
2023-08-02T12:00	28417	16	-44.7	-82.3	132	10
2023-08-02T12:00	28456	16	-44.6	-82.2	133	10
2023-08-02T12:00	28477	16	-44.6	-82.2	133	9
2023-08-02T12:00	28524	16	-44.4	-82.1	131	8
2023-08-02T12:00	28551	16	-44.2	-82.0	129	8
2023-08-02T12:00	28574	16	-43.9	-81.8	129	7
2023-08-02T12:00	28606	16	-43.6	-81.5	131	7
2023-08-02T12:00	28650	16	-43.4	-81.4	135	6
2023-08-02T12:00	28662	16	-43.3	-81.3	138	6
2023-08-02T12:00	28687	16	-43.2	-81.3	140	6
2023-08-02T12:00	28721	16	-43.1	-81.2	139	6
2023-08-02T12:00	28757	16	-43.0	-81.1	135	6
2023-08-02T12:00	28794	15	-42.9	-81.1	129	6
2023-08-02T12:00	28813	15	-42.9	-81.1	123	6
2023-08-02T12:00	28853	15	-42.9	-81.1	118	6
2023-08-02T12:00	28887	15	-43.0	-81.1	114	7
2023-08-02T12:00	28904	15	-43.0	-81.1	113	7
2023-08-02T12:00	28936	15	-43.0	-81.1	113	7
2023-08-02T12:00	28958	15	-43.1	-81.2	114	6
2023-08-02T12:00	29002	15	-43.2	-81.3	115	6
2023-08-02T12:00	29023	15	-43.3	-81.3	115	6
2023-08-02T12:00	29050	15	-43.5	-81.5	115	5
2023-08-02T12:00	29095	15	-43.7	-81.6	116	5
2023-08-02T12:00	29120	15	-43.7	-81.6	117	5
2023-08-02T12:00	29157	15	-43.7	-81.6	119	5
2023-08-02T12:00	29191	15	-43.7	-81.6	120	5
2023-08-02T12:00	29218	15	-43.7	-81.6	121	4
2023-08-02T12:00	29253	14	-43.8	-81.7	119	4
2023-08-02T12:00	29278	14	-43.8	-81.7	114	4
2023-08-02T12:00	29319	14	-43.7	-81.6	107	4
2023-08-02T12:00	29346	14	-43.7	-81.6	99	4
2023-08-02T12:00	29368	14	-43.6	-81.5	93	5
2023-08-02T12:00	29404	14	-43.4	-81.4	89	5
2023-08-02T12:00	29422	14	-43.2	-81.3	86	6
2023-08-02T12:00	29465	14	-43.1	-81.2	83	6
2023-08-02T12:00	29489	14	-43.0	-81.1	82	6
2023-08-02T12:00	29519	14	-43.0	-81.1	82	6
2023-08-02T12:00	29540	14	-43.0	-81.1	84	7
2023-08-02T12:00	29583	14	-43.1	-81.2	87	7
2023-08-02T12:00	29611	14	-43.1	-81.2	90	8
2023-08-02T12:00	29638	14	-43.1	-81.2	94	8
2023-08-02T12:00	29665	14	-43.0	-81.1	97	8
2023-08-02T12:00	29698	14	-43.0	-81.1	98	9
2023-08-02T12:00	29733	13	-42.9	-81.1	100	8
2023-08-02T12:00	29753	13	-42.8	-81.0	100	8
2023-08-02T12:00	29796	13	-42.6	-80.8	101	8
2023-08-02T12:00	29807	13	-42.4	-80.7	103	9
2023-08-02T12:00	29831	13	-42.3	-80.6	106	9
2023-08-02T12:00	29857	13	-42.1	-80.5	109	9
2023-08-02T12:00	29882	13	-42.1	-80.5	112	8
2023-08-02T12:00	29921	13	-42.0	-80.4	116	8
2023-08-02T12:00	29949	13	-41.9	-80.4	118	7
2023-08-02T12:00	29986	13	-41.8	-80.3	119	6
2023-08-02T12:00	29999	13	-41.8	-80.3	117	6
2023-08-02T12:00	30045	13	-41.8	-80.3	112	5
2023-08-02T12:00	30054	13	-41.7	-80.2	103	5
2023-08-02T12:00	30080	13	-41.5	-80.1	93	5
2023-08-02T12:00	30116	13	-41.2	-79.9	83	5
2023-08-02T12:00	30138	13	-40.9	-79.7	74	5
2023-08-02T12:00	30154	13	-40.8	-79.6	66	5
2023-08-02T12:00	30179	13	-40.8	-79.6	60	5
2023-08-02T12:00	30212	13	-40.7	-79.5	57	5
2023-08-02T12:00	30247	12	-40.7	-79.5	55	6
2023-08-02T12:00	30283	12	-40.7	-79.5	55	6
2023-08-02T12:00	30308	12	-40.7	-79.5	55	7
2023-08-02T12:00	30336	12	-40.7	-79.5	55	8
2023-08-02T12:00	30369	12	-40.7	-79.5	56	9
2023-08-02T12:00	30374	12	-40.6	-79.5	58	10
2023-08-02T12:00	30417	12	-40.5	-79.4	61	10
2023-08-02T12:00	30445	12	-40.4	-79.3	64	11
2023-08-02T12:00	30476	12	-40.2	-79.2	67	11
2023-08-02T12:00	30500	12	-40.2	-79.2	71	11
2023-08-02T12:00	30529	12	-40.3	-79.2	76	11
2023-08-02T12:00	30580	12	-40.4	-79.3	82	11
2023-08-02T12:00	30601	12	-40.4	-79.3	88	11
2023-08-02T12:00	30623	12	-40.3	-79.2	95	11
2023-08-02T12:00	30667	12	-40.3	-79.2	101	11
2023-08-02T12:00	30674	12	-40.2	-79.2	107	11
2023-08-02T12:00	30712	12	-40.2	-79.2	112	11
2023-08-02T12:00	30736	12	-40.1	-79.1	115	10
2023-08-02T12:00	30785	12	-39.9	-79.0	116	10
2023-08-02T12:00	30816	11	-39.6	-78.8	115	9
2023-08-02T12:00	30833	11	-39.3	-78.5	113	8
2023-08-02T12:00	30868	11	-39.1	-78.4	108	7
2023-08-02T12:00	30893	11	-39.1	-78.4	102	7
2023-08-02T12:00	30924	11	-39.0	-78.3	96	6
2023-08-02T12:00	30957	11	-39.0	-78.3	89	6
2023-08-02T12:00	30984	11	-39.0	-78.3	83	7
2023-08-02T12:00	31027	11	-38.8	-78.2	78	7
2023-08-02T12:00	31051	11	-38.6	-78.1	75	8
2023-08-02T12:00	31080	11	-38.5	-78.0	74	8
2023-08-02T12:00	31108	11	-38.4	-77.9	75	9
2023-08-02T12:00	31140	11	-38.2	-77.8	77	9
2023-08-02T12:00	31150	11	-38.2	-77.8	81	9
2023-08-02T12:00	31178	11	-38.4	-77.9	85	9
2023-08-02T12:00	31210	11	-38.6	-78.1	89	9
2023-08-02T12:00	31246	11	-38.7	-78.1	94	9
2023-08-02T12:00	31260	11	-38.8	-78.2	98	9
2023-08-02T12:00	31316	11	-38.8	-78.2	100	9
2023-08-02T12:00	31347	11	-38.7	-78.1	100	10
2023-08-02T12:00	31374	11	-38.2	-77.8	95	10
2023-08-02T12:00	31424	11	-38.0	-77.6	90	10
2023-08-02T12:00	31439	10	-37.8	-77.5	86	11
2023-08-02T12:00	31463	10	-37.7	-77.4	82	11
2023-08-02T12:00	31499	10	-37.7	-77.4	80	11
2023-08-02T12:00	31524	10	-37.7	-77.4	79	11
2023-08-02T12:00	31568	10	-37.7	-77.4	79	10
2023-08-02T12:00	31582	10	-37.7	-77.4	80	10
2023-08-02T12:00	31630	10	-37.6	-77.4	82	9
2023-08-02T12:00	31634	10	-37.6	-77.4	84	8
2023-08-02T12:00	31660	10	-37.7	-77.4	87	8
2023-08-02T12:00	31710	10	-37.8	-77.5	90	7
2023-08-02T12:00	31726	10	-37.8	-77.5	92	7
2023-08-02T12:00	31740	10	-37.8	-77.5	93	6
2023-08-02T12:00	31771	10	-37.8	-77.5	91	6
2023-08-02T12:00	31797	10	-37.8	-77.5	86	5
2023-08-02T12:00	31858	10	-37.7	-77.4	79	5
2023-08-02T12:00	31900	10	-37.4	-77.2	65	6
2023-08-02T12:00	31925	10	-37.3	-77.2	60	6
2023-08-02T12:00	31945	10	-37.3	-77.2	57	7
2023-08-02T12:00	32002	10	-37.2	-77.1	56	7
2023-08-02T12:00	32029	10	-37.1	-77.0	57	8
2023-08-02T12:00	32041	10	-36.9	-76.9	58	9
2023-08-02T12:00	32093	10	-36.8	-76.8	59	9
2023-08-02T12:00	32103	10	-36.8	-76.8	61	9
2023-08-02T12:00	32130	9	-36.8	-76.8	63	9
2023-08-02T12:00	32180	9	-36.7	-76.7	65	9
2023-08-02T12:00	32214	9	-36.6	-76.7	67	9
2023-08-02T12:00	32250	9	-36.5	-76.6	70	10
2023-08-02T12:00	32280	9	-36.5	-76.6	72	11
2023-08-02T12:00	32303	9	-36.5	-76.6	74	11
2023-08-02T12:00	32328	9	-36.5	-76.6	76	12
2023-08-02T12:00	32393	9	-36.6	-76.7	78	12
2023-08-02T12:00	32450	9	-36.8	-76.8	82	13
2023-08-02T12:00	32462	9	-36.9	-76.9	84	13
2023-08-02T12:00	32495	9	-37.0	-77.0	86	14
2023-08-02T12:00	32551	9	-37.1	-77.0	88	14
2023-08-02T12:00	32600	9	-37.2	-77.1	91	15
2023-08-02T12:00	32617	9	-37.2	-77.1	93	15
2023-08-02T12:00	32645	9	-37.2	-77.1	96	15
2023-08-02T12:00	32677	9	-37.3	-77.2	99	15
2023-08-02T12:00	32698	9	-37.3	-77.2	103	14
2023-08-02T12:00	32741	9	-37.1	-77.0	106	14
2023-08-02T12:00	32774	9	-37.0	-77.0	109	13
2023-08-02T12:00	32801	9	-37.0	-77.0	112	12
2023-08-02T18:00	112	983	20.0	13.5	190	4
2023-08-02T18:00	139	980	20.0	13.0	179	6
2023-08-02T18:00	166	977	19.7	12.9	179	8
2023-08-02T18:00	192	974	19.5	12.9	179	9
2023-08-02T18:00	218	971	19.3	12.8	180	10
2023-08-02T18:00	242	968	19.0	12.7	182	10
2023-08-02T18:00	269	965	18.7	12.7	184	10
2023-08-02T18:00	298	962	18.5	12.7	186	11
2023-08-02T18:00	327	959	18.2	12.6	187	11
2023-08-02T18:00	354	956	17.9	12.4	188	11
2023-08-02T18:00	379	953	17.7	12.5	188	11
2023-08-02T18:00	406	950	17.4	12.4	188	12
2023-08-02T18:00	429	947	17.2	12.4	186	12
2023-08-02T18:00	453	945	17.0	12.4	185	12
2023-08-02T18:00	473	942	16.7	12.3	184	12
2023-08-02T18:00	496	940	16.5	12.3	183	12
2023-08-02T18:00	525	937	16.2	12.2	182	12
2023-08-02T18:00	552	934	16.0	12.2	182	13
2023-08-02T18:00	574	931	15.7	12.0	182	13
2023-08-02T18:00	594	929	15.5	12.1	183	13
2023-08-02T18:00	610	927	15.4	12.1	183	14
2023-08-02T18:00	632	925	15.1	12.1	183	14
2023-08-02T18:00	651	923	15.0	12.1	183	14
2023-08-02T18:00	669	921	14.8	11.9	183	14
2023-08-02T18:00	686	919	14.6	11.9	183	14
2023-08-02T18:00	706	917	14.4	11.9	183	14
2023-08-02T18:00	723	915	14.2	11.9	183	14
2023-08-02T18:00	742	913	14.1	11.9	184	14
2023-08-02T18:00	761	911	13.9	11.8	184	14
2023-08-02T18:00	779	909	13.7	11.7	185	14
2023-08-02T18:00	806	906	13.5	11.7	185	14
2023-08-02T18:00	831	904	13.2	11.6	185	14
2023-08-02T18:00	860	901	13.0	11.7	184	14
2023-08-02T18:00	888	897	12.7	11.7	184	14
2023-08-02T18:00	920	894	12.4	11.5	184	14
2023-08-02T18:00	952	891	12.1	11.4	186	14
2023-08-02T18:00	986	887	11.9	11.4	188	14
2023-08-02T18:00	1019	884	11.6	11.3	190	15
2023-08-02T18:00	1048	881	11.4	11.2	191	15
2023-08-02T18:00	1074	878	11.1	11.1	193	16
2023-08-02T18:00	1100	875	10.9	10.9	195	16
2023-08-02T18:00	1125	872	10.8	10.8	197	16
2023-08-02T18:00	1149	870	10.7	10.7	199	15
2023-08-02T18:00	1174	867	10.7	10.7	202	15
2023-08-02T18:00	1199	865	10.7	10.7	205	15
2023-08-02T18:00	1224	862	10.6	10.6	207	15
2023-08-02T18:00	1246	860	10.5	10.5	209	15
2023-08-02T18:00	1274	857	10.4	10.4	211	15
2023-08-02T18:00	1301	854	10.4	10.4	212	15
2023-08-02T18:00	1325	852	10.3	10.3	214	15
2023-08-02T18:00	1351	849	10.3	10.3	216	14
2023-08-02T18:00	1376	847	10.2	10.2	217	14
2023-08-02T18:00	1402	844	10.1	10.1	217	14
2023-08-02T18:00	1428	841	10.0	10.0	218	14
2023-08-02T18:00	1456	839	9.8	9.8	217	14
2023-08-02T18:00	1483	836	9.8	9.8	216	14
2023-08-02T18:00	1511	833	9.7	9.7	215	14
2023-08-02T18:00	1538	830	9.6	9.6	214	14
2023-08-02T18:00	1562	828	9.5	9.5	212	14
2023-08-02T18:00	1589	825	9.5	9.4	211	14
2023-08-02T18:00	1616	823	9.3	9.3	210	14
2023-08-02T18:00	1642	820	9.1	9.1	210	14
2023-08-02T18:00	1668	818	9.0	9.0	209	14
2023-08-02T18:00	1693	815	8.9	8.9	208	14
2023-08-02T18:00	1719	812	8.8	8.8	206	14
2023-08-02T18:00	1747	810	8.6	8.6	205	14
2023-08-02T18:00	1772	807	8.5	8.5	204	14
2023-08-02T18:00	1799	805	8.3	8.3	203	14
2023-08-02T18:00	1824	802	8.2	8.2	203	14
2023-08-02T18:00	1851	800	8.2	8.2	203	15
2023-08-02T18:00	1878	797	8.1	8.1	204	15
2023-08-02T18:00	1902	795	8.0	8.0	204	15
2023-08-02T18:00	1930	792	7.9	7.9	204	15
2023-08-02T18:00	1959	789	7.8	7.8	204	15
2023-08-02T18:00	1985	787	7.7	7.7	204	15
2023-08-02T18:00	2012	784	7.5	7.5	204	15
2023-08-02T18:00	2038	782	7.4	7.4	205	15
2023-08-02T18:00	2066	779	7.3	7.3	205	15
2023-08-02T18:00	2092	777	7.2	7.2	206	15
2023-08-02T18:00	2118	774	7.1	7.1	207	15
2023-08-02T18:00	2144	772	7.0	7.0	208	16
2023-08-02T18:00	2173	769	6.8	6.8	209	16
2023-08-02T18:00	2201	766	6.7	6.7	210	16
2023-08-02T18:00	2228	764	6.7	6.7	211	16
2023-08-02T18:00	2257	761	6.7	6.6	211	16
2023-08-02T18:00	2282	759	6.7	6.7	212	16
2023-08-02T18:00	2307	757	6.5	6.5	212	16
2023-08-02T18:00	2334	754	6.5	6.4	212	17
2023-08-02T18:00	2361	752	6.4	6.3	213	17
2023-08-02T18:00	2387	749	6.2	6.2	214	17
2023-08-02T18:00	2411	747	6.2	6.0	215	18
2023-08-02T18:00	2440	745	6.1	5.6	216	18
2023-08-02T18:00	2468	742	6.4	3.3	217	19
2023-08-02T18:00	2489	740	7.7	1.0	219	19
2023-08-02T18:00	2517	738	7.9	0.7	219	20
2023-08-02T18:00	2542	735	7.9	0.5	220	20
2023-08-02T18:00	2573	733	7.9	0.2	220	20
2023-08-02T18:00	2599	730	7.7	0.0	220	20
2023-08-02T18:00	2626	728	7.6	-0.1	221	20
2023-08-02T18:00	2649	726	7.5	-0.1	221	20
2023-08-02T18:00	2678	723	7.3	-0.2	223	20
2023-08-02T18:00	2706	721	7.2	-0.6	224	19
2023-08-02T18:00	2732	719	7.1	-0.9	226	19
2023-08-02T18:00	2760	716	6.9	-1.1	227	19
2023-08-02T18:00	2788	714	6.8	-1.3	228	19
2023-08-02T18:00	2816	711	6.7	-1.4	229	19
2023-08-02T18:00	2840	709	6.5	-1.4	229	19
2023-08-02T18:00	2867	707	6.2	-1.5	230	19
2023-08-02T18:00	2897	704	5.9	-1.6	231	19
2023-08-02T18:00	2926	702	5.7	-1.7	231	19
2023-08-02T18:00	2951	700	5.5	-1.6	232	19
2023-08-02T18:00	2977	697	5.5	-1.6	233	19
2023-08-02T18:00	3003	695	5.4	-1.6	234	19
2023-08-02T18:00	3032	693	5.2	-1.6	236	19
2023-08-02T18:00	3058	690	5.0	-1.7	237	19
2023-08-02T18:00	3089	688	4.8	-2.0	238	19
2023-08-02T18:00	3114	686	4.6	-2.0	239	19
2023-08-02T18:00	3143	684	4.3	-2.2	239	19
2023-08-02T18:00	3170	681	4.2	-2.4	239	19
2023-08-02T18:00	3199	679	3.9	-2.4	239	20
2023-08-02T18:00	3224	677	3.7	-2.4	238	20
2023-08-02T18:00	3252	674	3.4	-2.5	238	19
2023-08-02T18:00	3278	672	3.2	-2.5	237	19
2023-08-02T18:00	3305	670	2.9	-2.4	237	19
2023-08-02T18:00	3332	668	2.7	-2.3	237	19
2023-08-02T18:00	3362	665	2.5	-2.4	237	19
2023-08-02T18:00	3388	663	2.3	-2.9	238	19
2023-08-02T18:00	3417	661	2.0	-3.1	238	19
2023-08-02T18:00	3444	658	1.8	-3.0	238	19
2023-08-02T18:00	3473	656	1.5	-2.9	239	19
2023-08-02T18:00	3499	654	1.3	-2.8	240	18
2023-08-02T18:00	3525	652	1.1	-2.9	241	18
2023-08-02T18:00	3552	650	0.9	-2.9	242	18
2023-08-02T18:00	3580	647	0.7	-2.5	243	18
2023-08-02T18:00	3608	645	0.7	-1.8	245	18
2023-08-02T18:00	3636	643	0.6	-1.3	246	18
2023-08-02T18:00	3666	641	0.3	-1.3	247	18
2023-08-02T18:00	3694	638	0.2	-1.7	247	18
2023-08-02T18:00	3722	636	-0.1	-1.9	248	18
2023-08-02T18:00	3750	634	-0.2	-2.1	248	17
2023-08-02T18:00	3780	632	-0.5		249	17
2023-08-02T18:00	3807	629	-0.8	-2.1	250	17
2023-08-02T18:00	3834	627	-0.9	-1.8	250	17
2023-08-02T18:00	3864	625	-0.8	-3.2	251	17
2023-08-02T18:00	3889	623	-0.8	-3.3	251	17
2023-08-02T18:00	3918	621	-1.0	-3.7	251	17
2023-08-02T18:00	3944	619	-1.2	-4.0	251	17
2023-08-02T18:00	3971	617	-1.4	-4.8	251	17
2023-08-02T18:00	4000	614	-1.5	-5.3	252	17
2023-08-02T18:00	4031	612	-1.7	-5.5	252	17
2023-08-02T18:00	4060	610	-1.9	-5.8	252	17
2023-08-02T18:00	4087	608	-2.1	-6.1	252	17
2023-08-02T18:00	4116	605	-2.2	-7.0	253	17
2023-08-02T18:00	4143	603	-2.0	-8.6	254	17
2023-08-02T18:00	4177	601	-2.1	-9.7	255	17
2023-08-02T18:00	4206	599	-2.3	-10.2	256	18
2023-08-02T18:00	4238	596	-2.5	-10.5	257	18
2023-08-02T18:00	4269	594	-2.9	-10.7	257	19
2023-08-02T18:00	4298	592	-3.0	-11.3	258	20
2023-08-02T18:00	4330	589	-3.1	-12.4	258	20
2023-08-02T18:00	4360	587	-3.2	-14.5	259	21
2023-08-02T18:00	4392	585	-2.7	-21.1	259	21
2023-08-02T18:00	4423	583	-2.9	-22.5	258	22
2023-08-02T18:00	4451	580	-3.1	-23.7	258	22
2023-08-02T18:00	4482	578	-3.4	-24.2	257	22
2023-08-02T18:00	4513	576	-3.6	-25.1	257	23
2023-08-02T18:00	4544	574	-3.9	-25.2	257	23
2023-08-02T18:00	4572	572	-4.2	-25.8	257	23
2023-08-02T18:00	4600	570	-4.5	-26.0	257	24
2023-08-02T18:00	4631	567	-4.7	-26.4	257	24
2023-08-02T18:00	4659	565	-5.0	-26.7	257	24
2023-08-02T18:00	4690	563	-5.2	-27.8	257	24
2023-08-02T18:00	4722	561	-5.5	-28.0	257	25
2023-08-02T18:00	4747	559	-5.7	-28.3	257	25
2023-08-02T18:00	4777	557	-5.9	-28.5	257	26
2023-08-02T18:00	4809	555	-6.2	-28.5	257	26
2023-08-02T18:00	4834	553	-6.4	-28.5	257	26
2023-08-02T18:00	4864	551	-6.7	-28.4	257	27
2023-08-02T18:00	4892	549	-7.0	-28.3	258	27
2023-08-02T18:00	4929	546	-7.2	-27.9	258	28
2023-08-02T18:00	4961	544	-7.4	-28.1	259	28
2023-08-02T18:00	4988	542	-7.6	-28.3	260	29
2023-08-02T18:00	5019	540	-7.9	-28.0	261	29
2023-08-02T18:00	5049	538	-8.3	-28.1	261	29
2023-08-02T18:00	5080	536	-8.6	-28.1	261	30
2023-08-02T18:00	5113	533	-8.9	-28.3	260	30
2023-08-02T18:00	5145	531	-9.1	-28.7	259	30
2023-08-02T18:00	5179	529	-9.1	-29.8	258	30
2023-08-02T18:00	5214	527	-9.4	-29.8	257	31
2023-08-02T18:00	5244	524	-9.5	-30.0	256	31
2023-08-02T18:00	5272	522	-9.8	-30.0	256	31
2023-08-02T18:00	5309	520	-10.0	-29.8	255	31
2023-08-02T18:00	5340	518	-10.3	-28.4	254	31
2023-08-02T18:00	5376	516	-10.6	-27.7	254	31
2023-08-02T18:00	5406	513	-10.8	-27.6	254	31
2023-08-02T18:00	5435	512	-11.0	-28.5	253	31
2023-08-02T18:00	5466	510	-11.3	-28.7	253	32
2023-08-02T18:00	5496	507	-11.6	-28.7	252	32
2023-08-02T18:00	5527	505	-11.9	-28.8	251	32
2023-08-02T18:00	5552	504	-12.1	-28.7	250	33
2023-08-02T18:00	5584	502	-12.3	-28.0	249	33
2023-08-02T18:00	5614	500	-12.5	-28.4	248	33
2023-08-02T18:00	5640	498	-12.7	-29.6	247	33
2023-08-02T18:00	5668	496	-12.9	-28.0	246	33
2023-08-02T18:00	5695	494	-13.0	-28.4	245	33
2023-08-02T18:00	5722	493	-13.2	-28.0	244	33
2023-08-02T18:00	5746	491	-13.3	-28.5	243	33
2023-08-02T18:00	5775	489	-13.4	-29.4	242	33
2023-08-02T18:00	5807	487	-13.5	-30.6	240	34
2023-08-02T18:00	5837	485	-13.6	-33.8	239	34
2023-08-02T18:00	5867	483	-13.7	-32.9	238	34
2023-08-02T18:00	5896	482	-13.9	-30.6	237	35
2023-08-02T18:00	5923	480	-14.1	-27.7	236	35
2023-08-02T18:00	5949	478	-14.2	-25.1	236	35
2023-08-02T18:00	5977	476	-14.4	-18.9	235	35
2023-08-02T18:00	6007	475	-14.6	-17.4	234	34
2023-08-02T18:00	6037	473	-14.9	-16.0	233	34
2023-08-02T18:00	6069	471	-14.9	-14.9	232	34
2023-08-02T18:00	6102	469	-14.9	-14.9	232	34
2023-08-02T18:00	6133	467	-15.1	-15.1	231	34
2023-08-02T18:00	6166	465	-15.3	-15.3	231	34
2023-08-02T18:00	6200	463	-15.6	-15.7	231	34
2023-08-02T18:00	6233	461	-15.7	-15.9	230	34
2023-08-02T18:00	6265	459	-15.9	-15.9	229	33
2023-08-02T18:00	6295	457	-16.1	-16.1	229	33
2023-08-02T18:00	6325	455	-16.1	-16.1	228	33
2023-08-02T18:00	6355	453	-16.1	-16.1	228	33
2023-08-02T18:00	6384	451	-16.3	-16.3	227	33
2023-08-02T18:00	6416	450	-16.6	-16.6	227	33
2023-08-02T18:00	6447	448	-16.8	-16.8	226	33
2023-08-02T18:00	6478	446	-17.0	-17.0	226	32
2023-08-02T18:00	6507	444	-17.3	-17.3	225	33
2023-08-02T18:00	6539	442	-17.5	-17.5	225	33
2023-08-02T18:00	6570	440	-17.8	-17.8	225	33
2023-08-02T18:00	6603	438	-18.1	-18.1	225	33
2023-08-02T18:00	6634	437	-18.3	-18.9	225	33
2023-08-02T18:00	6660	435	-18.4	-19.4	226	34
2023-08-02T18:00	6689	434	-18.8	-21.9	227	34
2023-08-02T18:00	6712	432	-19.0	-22.7	227	34
2023-08-02T18:00	6739	430	-19.2	-22.7	228	34
2023-08-02T18:00	6769	429	-19.5	-23.3	228	34
2023-08-02T18:00	6800	427	-19.7	-27.2	228	35
2023-08-02T18:00	6826	426	-19.7	-31.2	228	35
2023-08-02T18:00	6855	424	-19.8	-30.9	229	35
2023-08-02T18:00	6888	422	-19.9	-31.1	229	35
2023-08-02T18:00	6917	420	-20.1	-30.7	229	34
2023-08-02T18:00	6943	419	-20.1	-39.4	229	34
2023-08-02T18:00	6971	417	-20.1	-49.1	228	33
2023-08-02T18:00	7005	415	-20.2	-46.9	228	33
2023-08-02T18:00	7038	414	-20.4	-47.6	228	33
2023-08-02T18:00	7067	412	-20.5	-48.0	228	32
2023-08-02T18:00	7092	410	-20.8	-48.3	228	32
2023-08-02T18:00	7117	409	-21.1	-48.3	228	32
2023-08-02T18:00	7148	407	-21.4	-49.4	228	32
2023-08-02T18:00	7177	406	-21.5	-45.1	228	32
2023-08-02T18:00	7210	404	-21.5	-39.5	229	32
2023-08-02T18:00	7240	402	-21.7	-39.6	230	31
2023-08-02T18:00	7273	401	-22.0	-39.2	230	31
2023-08-02T18:00	7302	399	-22.3	-39.4	231	31
2023-08-02T18:00	7333	397	-22.5	-41.2	231	31
2023-08-02T18:00	7362	396	-22.8	-41.9	231	31
2023-08-02T18:00	7391	394	-23.0	-42.5	232	31
2023-08-02T18:00	7420	393	-23.3	-43.0	232	31
2023-08-02T18:00	7446	391	-23.4	-45.9	233	30
2023-08-02T18:00	7475	390	-23.7	-45.7	234	30
2023-08-02T18:00	7507	388	-24.0	-46.0	235	30
2023-08-02T18:00	7537	386	-24.2	-48.3	237	30
2023-08-02T18:00	7568	385	-24.4	-50.4	238	30
2023-08-02T18:00	7604	383	-24.7	-50.8	240	31
2023-08-02T18:00	7633	381	-24.9	-50.9	241	32
2023-08-02T18:00	7661	380	-24.9	-51.7	242	32
2023-08-02T18:00	7695	378	-25.0	-51.0	243	33
2023-08-02T18:00	7726	376	-25.2	-51.0	244	34
2023-08-02T18:00	7754	375	-25.4	-50.0	244	35
2023-08-02T18:00	7780	374	-25.6	-48.7	244	35
2023-08-02T18:00	7806	372	-25.8	-48.4	244	35
2023-08-02T18:00	7835	371	-26.1	-46.6	245	35
2023-08-02T18:00	7861	369	-26.3	-46.3	245	35
2023-08-02T18:00	7891	368	-26.5	-45.4	245	35
2023-08-02T18:00	7917	367	-26.8	-44.0	246	36
2023-08-02T18:00	7944	365	-27.1	-42.7	247	36
2023-08-02T18:00	7975	364	-27.3	-42.2	247	37
2023-08-02T18:00	8006	362	-27.6	-42.3	248	37
2023-08-02T18:00	8036	361	-27.9	-42.1	249	38
2023-08-02T18:00	8067	359	-28.1	-40.6	249	38
2023-08-02T18:00	8094	358	-28.2	-39.0	250	39
2023-08-02T18:00	8122	356	-28.1	-39.2	250	39
2023-08-02T18:00	8149	355	-28.3	-42.1	251	39
2023-08-02T18:00	8177	354	-28.5	-42.8	251	39
2023-08-02T18:00	8212	352	-28.9	-43.5	252	39
2023-08-02T18:00	8249	350	-29.1	-47.3	252	40
2023-08-02T18:00	8282	348	-29.3	-53.8	253	40
2023-08-02T18:00	8319	347	-29.5	-56.5	254	41
2023-08-02T18:00	8348	345	-29.7	-56.2	254	42
2023-08-02T18:00	8381	344	-30.0	-56.2	255	43
2023-08-02T18:00	8415	342	-30.3	-56.1	255	44
2023-08-02T18:00	8447	340	-30.5	-56.2	255	45
2023-08-02T18:00	8485	339	-30.8	-56.2	255	46
2023-08-02T18:00	8521	337	-31.1	-56.3	255	47
2023-08-02T18:00	8552	335	-31.2	-56.1	255	48
2023-08-02T18:00	8583	334	-31.3	-55.9	255	49
2023-08-02T18:00	8616	333	-31.5	-56.0	255	49
2023-08-02T18:00	8643	331	-31.7	-55.6	254	50
2023-08-02T18:00	8668	330	-31.7	-55.1	254	50
2023-08-02T18:00	8693	329	-31.9	-55.0	253	50
2023-08-02T18:00	8720	328	-32.1	-55.0	253	51
2023-08-02T18:00	8747	326	-32.3	-54.9	253	51
2023-08-02T18:00	8777	325	-32.6	-54.3	253	52
2023-08-02T18:00	8806	324	-32.8	-53.3	252	52
2023-08-02T18:00	8833	322	-32.9	-52.2	252	53
2023-08-02T18:00	8859	321	-33.1	-52.0	252	53
2023-08-02T18:00	8882	320	-33.2	-51.5	252	54
2023-08-02T18:00	8906	319	-33.3	-50.0	252	54
2023-08-02T18:00	8929	318	-33.4	-49.6	252	54
2023-08-02T18:00	8953	317	-33.6	-46.3	252	54
2023-08-02T18:00	8975	316	-33.7	-46.0	252	54
2023-08-02T18:00	9000	315	-33.7		252	54
2023-08-02T18:00	9025	314	-33.8	-46.5	251	53
2023-08-02T18:00	9050	313	-33.8	-49.3	251	53
2023-08-02T18:00	9073	312	-33.7	-56.4	251	52
2023-08-02T18:00	9097	311	-33.8	-56.5	251	52
2023-08-02T18:00	9120	309	-33.9	-55.4	251	51
2023-08-02T18:00	9145	308	-34.1	-54.8	251	51
2023-08-02T18:00	9168	307	-34.1	-54.7	251	51
2023-08-02T18:00	9193	306	-34.2	-54.6	251	51
2023-08-02T18:00	9218	305	-34.4	-55.0	252	52
2023-08-02T18:00	9247	304	-34.4	-55.5	252	53
2023-08-02T18:00	9276	303	-34.4	-55.4	253	53
2023-08-02T18:00	9303	302	-34.5	-55.3	253	54
2023-08-02T18:00	9324	301	-34.1	-54.2	253	54
2023-08-02T18:00	9348	300	-34.2	-54.0	254	54
2023-08-02T18:00	9370	299	-34.2	-53.4	254	55
2023-08-02T18:00	9398	297	-34.2		254	55
2023-08-02T18:00	9428	296	-34.3	-51.2	254	56
2023-08-02T18:00	9454	295	-34.2	-49.5	254	56
2023-08-02T18:00	9482	294	-34.5	-48.0	254	56
2023-08-02T18:00	9514	293	-34.7	-47.1	254	57
2023-08-02T18:00	9537	291	-34.9	-47.3	254	57
2023-08-02T18:00	9567	290	-35.2	-47.0	254	57
2023-08-02T18:00	9592	289	-35.4	-46.3	254	57
2023-08-02T18:00	9618	288	-35.7	-46.0	255	57
2023-08-02T18:00	9646	287	-36.0	-45.7	255	58
2023-08-02T18:00	9671	286	-36.2	-45.6	255	58
2023-08-02T18:00	9696	285	-36.4	-45.7	255	58
2023-08-02T18:00	9721	284	-36.6	-45.6	255	58
2023-08-02T18:00	9745	283	-36.9	-45.5	255	58
2023-08-02T18:00	9775	282	-37.2	-46.0	256	58
2023-08-02T18:00	9802	281	-37.4	-46.5	256	58
2023-08-02T18:00	9828	280	-37.6	-46.1	256	58
2023-08-02T18:00	9856	278	-37.9	-46.4	256	58
2023-08-02T18:00	9878	277	-38.0	-46.8	256	58
2023-08-02T18:00	9905	277	-38.2	-47.2	256	57
2023-08-02T18:00	9925	276	-38.3	-47.5	257	57
2023-08-02T18:00	9949	275	-38.5	-47.4	257	57
2023-08-02T18:00	9974	274	-38.7	-47.5	257	57
2023-08-02T18:00	9997	273	-38.9	-48.6	257	57
2023-08-02T18:00	10019	272	-38.9	-49.2	258	57
2023-08-02T18:00	10042	271	-39.0	-49.3	258	57
2023-08-02T18:00	10063	270	-39.1	-50.1	258	57
2023-08-02T18:00	10084	269	-39.2	-51.6	258	57
2023-08-02T18:00	10107	268	-39.1	-54.8	258	56
2023-08-02T18:00	10128	268	-39.0	-57.3	258	56
2023-08-02T18:00	10150	267	-39.0	-57.8	258	56
2023-08-02T18:00	10171	266	-39.0	-57.0	258	56
2023-08-02T18:00	10194	265	-39.1	-57.0	258	56
2023-08-02T18:00	10214	264	-39.3	-57.3	258	56
2023-08-02T18:00	10236	263	-39.4	-57.3	258	56
2023-08-02T18:00	10257	263	-39.4	-57.4	258	56
2023-08-02T18:00	10280	262	-39.5	-57.7	258	56
2023-08-02T18:00	10304	261	-39.5	-57.9	258	56
2023-08-02T18:00	10323	260	-39.6	-58.3	258	56
2023-08-02T18:00	10347	259	-39.8	-58.7	259	56
2023-08-02T18:00	10372	258	-40.0	-58.7	259	56
2023-08-02T18:00	10396	257	-40.1	-58.4	259	56
2023-08-02T18:00	10420	256	-40.2	-59.0	258	55
2023-08-02T18:00	10445	256	-40.3	-59.1	258	55
2023-08-02T18:00	10470	255	-40.4	-59.4	258	55
2023-08-02T18:00	10494	254	-40.4	-60.4	258	54
2023-08-02T18:00	10518	253	-40.4	-61.5	258	54
2023-08-02T18:00	10539	252	-40.3	-62.4	258	54
2023-08-02T18:00	10562	251	-40.4	-62.6	258	54
2023-08-02T18:00	10581	250	-40.4	-62.3	258	53
2023-08-02T18:00	10603	250	-40.2	-62.5	259	53
2023-08-02T18:00	10625	249	-39.9	-63.4	259	53
2023-08-02T18:00	10648	248	-40.0	-63.9	260	53
2023-08-02T18:00	10673	247	-40.1	-64.5	260	52
2023-08-02T18:00	10697	246	-40.1	-64.9	261	52
2023-08-02T18:00	10720	245	-40.3	-64.9	261	53
2023-08-02T18:00	10744	245	-40.4	-64.6	261	53
2023-08-02T18:00	10766	244	-40.5	-64.2	261	53
2023-08-02T18:00	10787	243	-40.6	-63.7	261	53
2023-08-02T18:00	10809	242	-40.7	-63.5	261	53
2023-08-02T18:00	10832	241	-40.9	-63.6	261	53
2023-08-02T18:00	10854	241	-41.0	-63.8	261	53
2023-08-02T18:00	10875	240	-41.0	-64.3	262	52
2023-08-02T18:00	10897	239	-41.0	-64.6	262	52
2023-08-02T18:00	10919	238	-41.0	-64.5	262	52
2023-08-02T18:00	10942	238	-41.0	-64.2	262	51
2023-08-02T18:00	10963	237	-41.1	-64.0	262	51
2023-08-02T18:00	10984	236	-41.2	-64.2	262	51
2023-08-02T18:00	11006	235	-41.3	-64.4	262	51
2023-08-02T18:00	11027	235	-41.4	-64.9	262	50
2023-08-02T18:00	11050	234	-41.6	-65.2	262	50
2023-08-02T18:00	11072	233	-41.7	-65.3	262	49
2023-08-02T18:00	11095	232	-41.7	-65.7	262	49
2023-08-02T18:00	11115	232	-41.8	-66.6	262	48
2023-08-02T18:00	11135	231	-41.9	-67.8	262	48
2023-08-02T18:00	11157	230	-41.7	-68.5	262	48
2023-08-02T18:00	11179	229	-41.8	-67.9	263	47
2023-08-02T18:00	11199	229	-41.9	-67.4	263	47
2023-08-02T18:00	11221	228	-41.9	-67.2	263	47
2023-08-02T18:00	11241	227	-42.0	-67.3	263	47
2023-08-02T18:00	11263	227	-42.1	-67.8	263	46
2023-08-02T18:00	11284	226	-42.1	-67.8	263	46
2023-08-02T18:00	11307	225	-42.3	-67.7	263	46
2023-08-02T18:00	11327	224	-42.5	-67.7	263	46
2023-08-02T18:00	11350	224	-42.6	-67.8	263	46
2023-08-02T18:00	11367	223	-42.7	-67.5	263	46
2023-08-02T18:00	11391	222	-42.8	-67.4	263	46
2023-08-02T18:00	11410	222	-42.9	-67.7	262	45
2023-08-02T18:00	11431	221	-43.0	-68.7	262	45
2023-08-02T18:00	11452	220	-43.0	-69.3	262	45
2023-08-02T18:00	11473	220	-42.9	-70.3	262	45
2023-08-02T18:00	11496	219	-43.0	-71.5	262	44
2023-08-02T18:00	11516	218	-43.1	-71.9	261	44
2023-08-02T18:00	11537	218	-43.1	-71.6	261	44
2023-08-02T18:00	11559	217	-43.2	-70.3	260	44
2023-08-02T18:00	11580	216	-43.3	-69.3	260	44
2023-08-02T18:00	11600	215	-43.5	-69.3	260	44
2023-08-02T18:00	11622	215	-43.5	-69.7	260	44
2023-08-02T18:00	11645	214	-43.7	-70.0	260	44
2023-08-02T18:00	11665	213	-43.8	-70.3	259	44
2023-08-02T18:00	11687	213	-43.9	-70.6	259	43
2023-08-02T18:00	11708	212	-44.0	-71.2	259	43
2023-08-02T18:00	11731	211	-44.1	-71.8	259	43
2023-08-02T18:00	11754	211	-44.1	-72.6	259	43
2023-08-02T18:00	11775	210	-44.2	-73.0	259	43
2023-08-02T18:00	11797	209	-44.4	-72.9	258	43
2023-08-02T18:00	11821	209	-44.5	-72.9	258	43
2023-08-02T18:00	11843	208	-44.5	-73.2	258	43
2023-08-02T18:00	11867	207	-44.6	-73.6	257	43
2023-08-02T18:00	11889	206	-44.6	-74.3	257	43
2023-08-02T18:00	11910	206	-44.8	-75.2	257	43
2023-08-02T18:00	11935	205	-45.0	-75.4	257	43
2023-08-02T18:00	11959	204	-45.1	-75.9	257	43
2023-08-02T18:00	11982	204	-45.3	-76.0	257	43
2023-08-02T18:00	12006	203	-45.5	-76.2	257	43
2023-08-02T18:00	12031	202	-45.5	-76.2	258	43
2023-08-02T18:00	12055	201	-45.7	-76.3	258	43
2023-08-02T18:00	12082	200	-45.9	-76.5	258	43
2023-08-02T18:00	12109	200	-46.0	-76.5	258	43
2023-08-02T18:00	12137	199	-46.1	-76.6	259	43
2023-08-02T18:00	12164	198	-46.2	-76.7	259	43
2023-08-02T18:00	12193	197	-46.3	-76.8	260	43
2023-08-02T18:00	12223	196	-46.4	-76.8	260	43
2023-08-02T18:00	12252	195	-46.7	-77.1	261	42
2023-08-02T18:00	12284	195	-46.9	-76.8	261	42
2023-08-02T18:00	12315	194	-47.0	-76.9	261	41
2023-08-02T18:00	12346	193	-47.0	-77.3	262	40
2023-08-02T18:00	12379	192	-46.9	-77.6	262	39
2023-08-02T18:00	12414	191	-46.8	-78.0	262	38
2023-08-02T18:00	12442	190	-46.9	-78.1	263	38
2023-08-02T18:00	12474	189	-47.0	-78.2	263	37
2023-08-02T18:00	12508	188	-47.2	-78.3	263	36
2023-08-02T18:00	12539	187	-47.2	-78.3	263	36
2023-08-02T18:00	12570	186	-47.2	-78.3	263	35
2023-08-02T18:00	12598	185	-47.3	-78.4	263	35
2023-08-02T18:00	12633	185	-47.6	-78.6	263	34
2023-08-02T18:00	12664	184	-47.7	-78.7	264	34
2023-08-02T18:00	12699	183	-47.3	-78.4	263	33
2023-08-02T18:00	12733	182	-47.4	-79.0	262	32
2023-08-02T18:00	12779	181	-47.0	-78.7	261	31
2023-08-02T18:00	12819	179	-46.7	-79.0	260	30
2023-08-02T18:00	12860	178	-46.9	-78.6	259	30
2023-08-02T18:00	12906	177	-47.3	-78.9	259	29
2023-08-02T18:00	12946	176	-47.7		259	29
2023-08-02T18:00	12990	175	-48.0	-78.9	259	28
2023-08-02T18:00	13024	174	-48.4	-79.2	259	28
2023-08-02T18:00	13054	173	-48.7	-79.4	258	26
2023-08-02T18:00	13080	172	-48.8	-79.5	256	25
2023-08-02T18:00	13109	172	-48.6	-79.4	254	25
2023-08-02T18:00	13135	171	-48.5	-79.3	252	24
2023-08-02T18:00	13172	170	-48.7	-79.0	250	24
2023-08-02T18:00	13210	169	-49.1	-79.3	248	23
2023-08-02T18:00	13238	168	-49.3	-79.4	245	23
2023-08-02T18:00	13261	168	-49.6	-79.7	243	23
2023-08-02T18:00	13282	167	-49.8	-79.4	241	24
2023-08-02T18:00	13315	166	-50.1	-79.6	239	24
2023-08-02T18:00	13343	166	-50.3	-79.4	238	25
2023-08-02T18:00	13367	165	-50.5	-79.5	237	25
2023-08-02T18:00	13392	164	-50.6	-79.6	237	26
2023-08-02T18:00	13417	164	-50.8	-79.4	236	26
2023-08-02T18:00	13449	163	-51.0	-79.5	236	27
2023-08-02T18:00	13481	162	-51.2	-79.3	235	28
2023-08-02T18:00	13511	161	-50.9	-78.5	235	29
2023-08-02T18:00	13538	161	-51.1	-78.3	235	30
2023-08-02T18:00	13565	160	-51.4	-78.3	235	30
2023-08-02T18:00	13590	159	-51.5	-78.1	236	31
2023-08-02T18:00	13617	159	-51.7	-78.0	236	31
2023-08-02T18:00	13644	158	-51.9	-78.1	236	32
2023-08-02T18:00	13670	158	-51.9	-77.9	237	32
2023-08-02T18:00	13692	157	-52.1	-78.0	237	32
2023-08-02T18:00	13718	156	-52.3	-77.9	238	33
2023-08-02T18:00	13741	156	-52.5	-78.1	238	33
2023-08-02T18:00	13767	155	-52.6	-78.2	239	33
2023-08-02T18:00	13790	155	-52.7	-78.2	240	33
2023-08-02T18:00	13814	154	-52.8	-78.3	241	33
2023-08-02T18:00	13838	153	-53.0	-78.5	242	32
2023-08-02T18:00	13865	153	-53.1	-78.6	243	32
2023-08-02T18:00	13891	152	-53.1	-78.6	244	32
2023-08-02T18:00	13917	152	-53.2	-78.6	244	31
2023-08-02T18:00	13939	151	-53.2	-78.6	245	30
2023-08-02T18:00	13962	151	-53.2	-78.6	246	30
2023-08-02T18:00	13984	150	-53.3	-78.7	247	29
2023-08-02T18:00	14006	150	-53.3	-78.7	248	28
2023-08-02T18:00	14028	149	-53.3	-78.7	249	28
2023-08-02T18:00	14049	149	-53.3	-79.2	250	28
2023-08-02T18:00	14072	148	-53.3	-79.7	250	28
2023-08-02T18:00	14094	148	-52.8	-80.2	251	28
2023-08-02T18:00	14114	147	-52.2	-80.5	252	28
2023-08-02T18:00	14136	147	-52.2	-80.8	253	29
2023-08-02T18:00	14158	146	-52.3	-80.9	254	29
2023-08-02T18:00	14182	146	-52.4	-81.0	255	29
2023-08-02T18:00	14203	145	-52.6	-81.1	256	29
2023-08-02T18:00	14224	145	-52.7	-80.8	257	29
2023-08-02T18:00	14251	144	-52.8	-80.9	258	30
2023-08-02T18:00	14274	143	-52.9	-81.0	258	30
2023-08-02T18:00	14292	143	-52.9	-81.0	258	30
2023-08-02T18:00	14315	143	-53.0	-81.1	259	31
2023-08-02T18:00	14335	142	-53.1	-81.1	259	31
2023-08-02T18:00	14357	142	-53.2	-81.2	260	31
2023-08-02T18:00	14377	141	-53.3	-81.3	261	31
2023-08-02T18:00	14397	141	-53.4	-81.4	262	30
2023-08-02T18:00	14428	140	-53.5	-81.4	263	30
2023-08-02T18:00	14458	139	-53.2	-81.2	264	29
2023-08-02T18:00	14486	139	-53.2	-81.2	265	28
2023-08-02T18:00	14512	138	-53.3	-81.3	266	27
2023-08-02T18:00	14534	138	-53.4	-81.4	267	26
2023-08-02T18:00	14555	137	-53.6	-81.5	269	25
2023-08-02T18:00	14580	137	-53.7	-81.6	270	25
2023-08-02T18:00	14600	136	-53.7	-81.3	271	24
2023-08-02T18:00	14626	136	-53.6	-81.2	271	23
2023-08-02T18:00	14655	135	-53.4	-81.0	272	23
2023-08-02T18:00	14685	135	-53.4	-81.0	272	22
2023-08-02T18:00	14713	134	-53.6	-80.9	272	21
2023-08-02T18:00	14737	134	-53.9	-81.1	273	20
2023-08-02T18:00	14759	133	-54.0	-80.9	273	20
2023-08-02T18:00	14782	133	-54.1	-80.9	273	19
2023-08-02T18:00	14808	132	-54.3	-80.8	272	19
2023-08-02T18:00	14827	132	-54.5	-80.7	271	19
2023-08-02T18:00	14849	131	-54.7	-80.6	270	19
2023-08-02T18:00	14871	131	-54.8	-80.6	269	18
2023-08-02T18:00	14893	130	-55.0	-80.5	267	18
2023-08-02T18:00	14915	130	-55.2	-80.4	265	18
2023-08-02T18:00	14940	129	-55.4	-80.4	264	18
2023-08-02T18:00	14963	129	-55.4	-80.1	262	18
2023-08-02T18:00	14985	128	-55.4	-80.4	261	18
2023-08-02T18:00	15007	128	-55.4	-80.4	260	18
2023-08-02T18:00	15030	128	-55.5	-80.9	259	18
2023-08-02T18:00	15055	127	-55.5	-81.2	258	18
2023-08-02T18:00	15077	127	-55.4	-81.6	257	18
2023-08-02T18:00	15100	126	-55.3	-81.9	257	18
2023-08-02T18:00	15125	126	-55.2	-81.8	256	17
2023-08-02T18:00	15148	125	-55.2	-81.8	255	17
2023-08-02T18:00	15172	125	-55.1	-81.7	254	17
2023-08-02T18:00	15194	124	-55.2	-81.5	253	17
2023-08-02T18:00	15218	124	-55.3	-81.3	252	16
2023-08-02T18:00	15242	123	-55.3	-81.0	250	16
2023-08-02T18:00	15268	123	-55.4	-81.1	249	16
2023-08-02T18:00	15291	122	-55.6	-81.0	248	16
2023-08-02T18:00	15315	122	-55.6	-80.8	247	16
2023-08-02T18:00	15339	121	-55.8	-80.9	246	16
2023-08-02T18:00	15364	121	-55.9	-80.7	246	17
2023-08-02T18:00	15389	121	-55.9	-81.0	245	17
2023-08-02T18:00	15412	120	-55.9	-81.0	244	18
2023-08-02T18:00	15438	120	-56.0	-81.3	243	18
2023-08-02T18:00	15464	119	-56.1	-81.6	242	19
2023-08-02T18:00	15486	119	-56.0	-81.8	241	19
2023-08-02T18:00	15508	118	-56.1	-81.9	240	20
2023-08-02T18:00	15530	118	-56.1	-82.2	240	20
2023-08-02T18:00	15556	117	-56.2	-82.3	240	21
2023-08-02T18:00	15577	117	-56.3	-82.3	241	21
2023-08-02T18:00	15599	117	-56.5	-82.5	242	22
2023-08-02T18:00	15623	116	-56.6	-82.6	243	22
2023-08-02T18:00	15645	116	-56.5	-82.5	245	23
2023-08-02T18:00	15668	115	-56.5	-82.8	247	23
2023-08-02T18:00	15688	115	-56.5	-82.8	249	23
2023-08-02T18:00	15709	115	-56.4	-83.0	251	23
2023-08-02T18:00	15730	114	-56.3	-82.9	252	23
2023-08-02T18:00	15750	114	-56.0	-83.0	253	22
2023-08-02T18:00	15771	113	-55.7	-82.8	253	22
2023-08-02T18:00	15797	113	-55.7	-83.1	253	21
2023-08-02T18:00	15819	113	-55.4	-82.9	253	20
2023-08-02T18:00	15842	112	-55.3	-83.2	252	20
2023-08-02T18:00	15863	112	-55.1	-83.4	251	19
2023-08-02T18:00	15886	112	-54.8	-83.2	250	19
2023-08-02T18:00	15904	111	-54.9	-83.3	250	18
2023-08-02T18:00	15929	111	-54.9	-83.3	250	18
2023-08-02T18:00	15950	110	-54.8	-83.2	251	18
2023-08-02T18:00	15974	110	-55.0		252	17
2023-08-02T18:00	15995	110	-55.1	-83.4	252	17
2023-08-02T18:00	16015	109	-55.1	-83.4	252	17
2023-08-02T18:00	16039	109	-55.0	-83.7	251	16
2023-08-02T18:00	16060	108	-54.9	-83.7	249	16
2023-08-02T18:00	16082	108	-55.0	-83.7	247	16
2023-08-02T18:00	16105	108	-55.0	-83.7	245	16
2023-08-02T18:00	16125	107	-54.8	-84.0	243	16
2023-08-02T18:00	16147	107	-54.7	-83.9	241	17
2023-08-02T18:00	16170	107	-54.4	-83.7	239	18
2023-08-02T18:00	16192	106	-54.5	-84.3	238	19
2023-08-02T18:00	16212	106	-54.6	-83.9	238	20
2023-08-02T18:00	16234	106	-54.7	-83.9	238	20
2023-08-02T18:00	16254	105	-54.8	-84.0	238	21
2023-08-02T18:00	16277	105	-55.0	-84.2	238	21
2023-08-02T18:00	16297	105	-55.1	-84.2	239	21
2023-08-02T18:00	16321	104	-55.2	-84.3	240	21
2023-08-02T18:00	16343	104	-55.2	-84.3	241	21
2023-08-02T18:00	16365	103	-55.2	-84.3	243	20
2023-08-02T18:00	16388	103	-55.1	-84.2	245	20
2023-08-02T18:00	16410	103	-54.7	-84.4	248	19
2023-08-02T18:00	16430	102	-54.5	-84.3	250	19
2023-08-02T18:00	16452	102	-54.5	-84.3	252	19
2023-08-02T18:00	16474	102	-54.5	-84.3	254	19
2023-08-02T18:00	16496	101	-54.4	-84.2	255	19
2023-08-02T18:00	16520	101	-54.4	-84.2	257	19
2023-08-02T18:00	16541	101	-54.4	-84.7	258	19
2023-08-02T18:00	16562	100	-54.4	-84.7	258	18
2023-08-02T18:00	16589	100	-54.4	-84.7	259	18
2023-08-02T18:00	16610	100	-54.2	-84.5	259	17
2023-08-02T18:00	16631	99	-53.9	-84.9	258	17
2023-08-02T18:00	16658	99	-53.8	-84.8	256	17
2023-08-02T18:00	16681	98	-53.9	-84.9	255	16
2023-08-02T18:00	16703	98	-54.1	-85.0	253	16
2023-08-02T18:00	16728	98	-54.2	-84.5	251	17
2023-08-02T18:00	16753	97	-54.5	-84.8	250	17
2023-08-02T18:00	16778	97	-54.7	-84.9	249	17
2023-08-02T18:00	16804	97	-54.6	-84.8	248	17
2023-08-02T18:00	16826	96	-54.5	-84.8	248	17
2023-08-02T18:00	16851	96	-54.4	-85.2	248	17
2023-08-02T18:00	16874	96	-54.5	-85.3	249	17
2023-08-02T18:00	16899	95	-54.6	-85.4	250	17
2023-08-02T18:00	16926	95	-54.4	-85.2	251	17
2023-08-02T18:00	16947	94	-54.3	-85.2	252	17
2023-08-02T18:00	16972	94	-54.1	-85.0	252	16
2023-08-02T18:00	16996	94	-53.9	-85.5	251	16
2023-08-02T18:00	17020	93	-53.9	-85.5	251	16
2023-08-02T18:00	17043	93	-54.0	-85.5	250	16
2023-08-02T18:00	17066	93	-54.2	-85.1	250	16
2023-08-02T18:00	17089	92	-54.3	-85.2	251	16
2023-08-02T18:00	17112	92	-54.4	-85.2	252	16
2023-08-02T18:00	17136	92	-54.1	-85.0	254	16
2023-08-02T18:00	17161	91	-54.1	-85.0	255	16
2023-08-02T18:00	17184	91	-54.1	-85.0	257	15
2023-08-02T18:00	17209	91	-54.0	-85.5	259	15
2023-08-02T18:00	17231	90	-54.0	-85.5	261	15
2023-08-02T18:00	17255	90	-53.8	-85.4	263	15
2023-08-02T18:00	17277	90	-53.6	-85.3	265	14
2023-08-02T18:00	17305	89	-53.5	-85.2	267	13
2023-08-02T18:00	17327	89	-53.3	-85.0	270	13
2023-08-02T18:00	17353	89	-53.2	-85.0	272	12
2023-08-02T18:00	17375	88	-53.2	-85.0	273	11
2023-08-02T18:00	17397	88	-53.2	-85.0	273	10
2023-08-02T18:00	17423	88	-53.4	-85.1	272	9
2023-08-02T18:00	17447	87	-53.1	-84.9	270	9
2023-08-02T18:00	17468	87	-53.1	-84.9	268	8
2023-08-02T18:00	17490	87	-53.2	-85.0	267	8
2023-08-02T18:00	17512	87	-53.3	-85.0	266	8
2023-08-02T18:00	17532	86	-53.1	-84.9	265	7
2023-08-02T18:00	17558	86	-52.9	-84.7	262	6
2023-08-02T18:00	17578	86	-52.9	-84.7	259	6
2023-08-02T18:00	17602	85	-53.0	-84.8	253	5
2023-08-02T18:00	17624	85	-52.8	-84.7	247	5
2023-08-02T18:00	17644	85	-52.9	-84.7	239	5
2023-08-02T18:00	17670	84	-53.1	-84.9	232	6
2023-08-02T18:00	17691	84	-53.1	-84.9	226	6
2023-08-02T18:00	17713	84	-53.0	-84.8	221	7
2023-08-02T18:00	17736	84	-52.9	-85.4	219	8
2023-08-02T18:00	17760	83	-52.7	-85.3	219	9
2023-08-02T18:00	17782	83	-52.6	-85.2	220	10
2023-08-02T18:00	17806	83	-52.6	-85.2	222	10
2023-08-02T18:00	17828	82	-52.7	-85.3	225	10
2023-08-02T18:00	17852	82	-52.8	-84.7	229	10
2023-08-02T18:00	17876	82	-52.9	-84.7	232	10
2023-08-02T18:00	17895	81	-52.8	-85.3	235	10
2023-08-02T18:00	17921	81	-52.7	-85.3	238	10
2023-08-02T18:00	17947	81	-52.3	-85.0	240	9
2023-08-02T18:00	17972	81	-52.0	-84.8	242	8
2023-08-02T18:00	17993	80	-52.0	-84.8	244	7
2023-08-02T18:00	18020	80	-51.9	-85.5	244	7
2023-08-02T18:00	18041	80	-51.7	-84.5	244	6
2023-08-02T18:00	18065	79	-51.7	-84.5	242	6
2023-08-02T18:00	18088	79	-51.6	-84.5	240	6
2023-08-02T18:00	18112	79	-51.6	-84.5	238	7
2023-08-02T18:00	18136	79	-51.7	-84.5	237	7
2023-08-02T18:00	18158	78	-51.8	-84.6	236	8
2023-08-02T18:00	18184	78	-51.9	-84.7	237	9
2023-08-02T18:00	18205	78	-51.9	-84.7	238	9
2023-08-02T18:00	18229	77	-52.0	-84.8	238	10
2023-08-02T18:00	18252	77	-52.0	-84.8	239	11
2023-08-02T18:00	18275	77	-51.8	-84.6	239	11
2023-08-02T18:00	18294	77	-51.6	-84.5	238	10
2023-08-02T18:00	18321	76	-51.6	-84.5	238	9
2023-08-02T18:00	18345	76	-51.6	-84.5	236	9
2023-08-02T18:00	18365	76	-51.5	-85.2	234	8
2023-08-02T18:00	18390	76	-51.4	-85.1	232	7
2023-08-02T18:00	18414	75	-51.4	-84.3	229	6
2023-08-02T18:00	18436	75	-51.5	-84.4	224	5
2023-08-02T18:00	18461	75	-51.4	-84.3	219	5
2023-08-02T18:00	18488	74	-51.5	-84.4	213	5
2023-08-02T18:00	18516	74	-51.6	-84.5	207	5
2023-08-02T18:00	18536	74	-51.7	-84.5	203	5
2023-08-02T18:00	18562	74	-51.9	-84.7	201	5
2023-08-02T18:00	18584	73	-52.0	-84.8	198	6
2023-08-02T18:00	18609	73	-52.2	-84.9	197	6
2023-08-02T18:00	18632	73	-52.4	-84.4	195	6
2023-08-02T18:00	18655	72	-52.6	-84.5	195	7
2023-08-02T18:00	18678	72	-52.8	-84.7	196	7
2023-08-02T18:00	18705	72	-53.0	-84.8	197	8
2023-08-02T18:00	18727	72	-53.2	-85.0	199	8
2023-08-02T18:00	18755	71	-53.3	-85.0	201	8
2023-08-02T18:00	18780	71	-53.6	-85.3	203	9
2023-08-02T18:00	18805	71	-53.8	-85.4	206	9
2023-08-02T18:00	18825	71	-53.9	-85.5	210	10
2023-08-02T18:00	18847	70	-54.0	-85.5	213	10
2023-08-02T18:00	18871	70	-54.1	-85.6	217	10
2023-08-02T18:00	18895	70	-54.1	-85.6	219	10
2023-08-02T18:00	18921	70	-54.2	-85.7	222	10
2023-08-02T18:00	18946	69	-54.2	-85.7	223	10
2023-08-02T18:00	18968	69	-53.8	-86.1	223	10
2023-08-02T18:00	18994	69	-53.3	-85.7	224	10
2023-08-02T18:00	19017	69	-53.2	-85.6	225	10
2023-08-02T18:00	19040	68	-53.0	-85.5	226	10
2023-08-02T18:00	19062	68	-52.7	-85.3	228	11
2023-08-02T18:00	19091	68	-52.6	-85.2	230	11
2023-08-02T18:00	19115	68	-52.7	-85.3	233	11
2023-08-02T18:00	19136	67	-52.8	-85.3	235	12
2023-08-02T18:00	19163	67	-52.8	-85.3	238	12
2023-08-02T18:00	19185	67	-52.8	-85.3	241	11
2023-08-02T18:00	19210	67	-52.9	-85.4	244	11
2023-08-02T18:00	19237	66	-52.6	-85.2	247	10
2023-08-02T18:00	19259	66	-52.5	-85.1	250	10
2023-08-02T18:00	19285	66	-52.5	-85.1	253	9
2023-08-02T18:00	19312	65	-52.4	-85.1	256	8
2023-08-02T18:00	19332	65	-52.4	-85.8	260	7
2023-08-02T18:00	19357	65	-52.3	-85.8	263	7
2023-08-02T18:00	19382	65	-51.9	-85.5	267	6
2023-08-02T18:00	19400	65	-51.6	-85.2	270	6
2023-08-02T18:00	19428	64	-51.5	-85.2	275	5
2023-08-02T18:00	19452	64	-51.4	-85.1	280	5
2023-08-02T18:00	19476	64	-51.5	-85.2	285	5
2023-08-02T18:00	19500	64	-51.5	-85.2	289	5
2023-08-02T18:00	19525	63	-51.5	-85.2	292	5
2023-08-02T18:00	19548	63	-51.6	-85.2	294	5
2023-08-02T18:00	19574	63	-51.6	-85.2	294	5
2023-08-02T18:00	19598	63	-51.7	-85.3	293	4
2023-08-02T18:00	19622	62	-51.7	-85.3	289	4
2023-08-02T18:00	19648	62	-51.5	-85.2	281	3
2023-08-02T18:00	19672	62	-51.5	-85.2	268	2
2023-08-02T18:00	19697	62	-51.4	-85.1	252	2
2023-08-02T18:00	19721	61	-51.6	-84.5	238	2
2023-08-02T18:00	19746	61	-51.8	-84.6	229	2
2023-08-02T18:00	19769	61	-52.1	-84.8	226	3
2023-08-02T18:00	19789	61	-52.3	-85.0	226	3
2023-08-02T18:00	19821	61	-52.3	-85.0	228	3
2023-08-02T18:00	19840	60	-52.4	-85.1	230	3
2023-08-02T18:00	19865	60	-52.4	-85.1	232	3
2023-08-02T18:00	19892	60	-52.6	-85.2	233	3
2023-08-02T18:00	19915	60	-52.6	-85.2	230	3
2023-08-02T18:00	19941	59	-52.7	-85.3	223	3
2023-08-02T18:00	19963	59	-52.6	-85.2	212	3
2023-08-02T18:00	19991	59	-52.6	-85.2	200	3
2023-08-02T18:00	20016	59	-52.5	-85.1	191	4
2023-08-02T18:00	20040	59	-52.4	-85.1	185	4
2023-08-02T18:00	20064	58	-52.5	-85.1	183	4
2023-08-02T18:00	20090	58	-52.6		184	4
2023-08-02T18:00	20116	58	-52.3	-85.8	189	4
2023-08-02T18:00	20139	58	-52.1	-85.6	196	4
2023-08-02T18:00	20165	57	-51.9	-85.5	205	4
2023-08-02T18:00	20187	57	-51.8	-85.4	215	4
2023-08-02T18:00	20218	57	-51.5	-85.2	224	4
2023-08-02T18:00	20239	57	-51.3	-85.0	232	4
2023-08-02T18:00	20265	57	-51.2	-85.0	240	4
2023-08-02T18:00	20288	56	-51.1	-84.9	246	4
2023-08-02T18:00	20313	56	-51.1	-84.9	250	4
2023-08-02T18:00	20336	56	-51.1	-84.9	251	4
2023-08-02T18:00	20364	56	-51.2	-85.0	247	3
2023-08-02T18:00	20389	55	-51.1	-84.9	239	3
2023-08-02T18:00	20415	55	-51.0	-84.8	226	3
2023-08-02T18:00	20441	55	-51.2	-85.0	214	3
2023-08-02T18:00	20471	55	-51.3	-85.0	204	4
2023-08-02T18:00	20494	55	-51.5	-85.2	198	4
2023-08-02T18:00	20522	54	-51.6	-85.2	194	4
2023-08-02T18:00	20543	54	-51.8	-85.4	192	4
2023-08-02T18:00	20569	54	-51.8	-85.4	193	4
2023-08-02T18:00	20590	54	-51.7	-85.3	196	3
2023-08-02T18:00	20620	54	-51.6	-85.2	199	3
2023-08-02T18:00	20644	53	-51.5	-85.2	200	4
2023-08-02T18:00	20670	53	-51.6	-85.2	200	4
2023-08-02T18:00	20697	53	-51.8	-85.4	197	4
2023-08-02T18:00	20720	53	-51.9	-85.5	192	4
2023-08-02T18:00	20745	52	-51.8	-85.4	184	4
2023-08-02T18:00	20771	52	-51.7	-85.3	175	5
2023-08-02T18:00	20791	52	-51.6	-85.2	165	5
2023-08-02T18:00	20816	52	-51.2	-85.0	155	5
2023-08-02T18:00	20839	52	-50.9	-84.7	149	5
2023-08-02T18:00	20865	52	-50.8	-85.6	146	6
2023-08-02T18:00	20893	51	-50.8	-84.7	146	6
2023-08-02T18:00	20915	51	-50.9	-84.7	148	7
2023-08-02T18:00	20945	51	-50.9	-84.7	152	7
2023-08-02T18:00	20968	51	-50.9	-84.7	157	7
2023-08-02T18:00	20991	51	-50.9	-84.7	162	7
2023-08-02T18:00	21016	50	-51.1	-84.9	167	7
2023-08-02T18:00	21043	50	-51.2	-85.0	171	7
2023-08-02T18:00	21065	50	-51.3	-85.0	174	7
2023-08-02T18:00	21089	50	-51.4	-85.1	178	6
2023-08-02T18:00	21113	50	-51.4	-85.1	181	6
2023-08-02T18:00	21139	49	-51.3	-85.0	185	5
2023-08-02T18:00	21165	49	-51.3	-85.0	187	5
2023-08-02T18:00	21190	49	-51.2	-85.0	188	5
2023-08-02T18:00	21212	49	-51.1	-84.9	187	5
2023-08-02T18:00	21233	49	-50.9	-84.7	186	6
2023-08-02T18:00	21260	48	-50.7	-84.6	185	6
2023-08-02T18:00	21286	48	-50.9	-84.7	185	7
2023-08-02T18:00	21310	48	-51.0	-84.8	187	8
2023-08-02T18:00	21336	48	-51.2	-85.0	189	8
2023-08-02T18:00	21362	48	-51.3	-85.0	193	8
2023-08-02T18:00	21383	48	-51.4	-85.1	196	8
2023-08-02T18:00	21411	47	-51.4	-85.1	200	8
2023-08-02T18:00	21431	47	-51.2	-85.0	204	7
2023-08-02T18:00	21457	47	-51.1	-84.9	208	7
2023-08-02T18:00	21480	47	-51.2	-85.0	211	6
2023-08-02T18:00	21506	47	-51.3	-85.0	215	6
2023-08-02T18:00	21529	47	-51.4	-85.1	219	5
2023-08-02T18:00	21554	46	-51.5	-85.2	222	4
2023-08-02T18:00	21576	46	-51.4	-85.1	225	3
2023-08-02T18:00	21608	46	-51.4	-85.1	226	2
2023-08-02T18:00	21633	46	-51.3	-85.0	227	1
2023-08-02T18:00	21655	46	-51.3	-85.0	224	0
2023-08-02T18:00	21682	45	-51.2	-85.0	53	1
2023-08-02T18:00	21707	45	-51.1	-85.8	53	2
2023-08-02T18:00	21729	45	-51.0	-85.7	56	2
2023-08-02T18:00	21756	45	-51.1	-85.8	61	3
2023-08-02T18:00	21781	45	-50.9	-85.6	68	3
2023-08-02T18:00	21805	45	-50.8	-85.6	77	3
2023-08-02T18:00	21827	44	-50.7	-85.5	87	3
2023-08-02T18:00	21856	44	-50.8	-85.6	98	3
2023-08-02T18:00	21880	44	-51.0	-84.8	110	3
2023-08-02T18:00	21904	44	-51.1	-84.9	120	3
2023-08-02T18:00	21930	44	-51.3	-85.0	126	3
2023-08-02T18:00	21957	44	-51.4	-85.1	129	3
2023-08-02T18:00	21981	43	-51.4	-85.1	129	3
2023-08-02T18:00	22009	43	-51.4	-85.1	126	3
2023-08-02T18:00	22032	43	-51.4	-85.1	124	3
2023-08-02T18:00	22061	43	-51.5	-85.2	122	3
2023-08-02T18:00	22082	43	-51.6	-85.2	120	4
2023-08-02T18:00	22107	43	-51.6	-85.2	119	4
2023-08-02T18:00	22134	42	-51.7	-85.3	118	4
2023-08-02T18:00	22161	42	-51.7	-85.3	116	5
2023-08-02T18:00	22184	42	-51.7	-85.3	116	5
2023-08-02T18:00	22216	42	-51.8	-85.4	117	5
2023-08-02T18:00	22243	42	-51.8	-85.4	120	4
2023-08-02T18:00	22266	42	-51.9	-85.5	127	4
2023-08-02T18:00	22292	41	-51.9	-85.5	140	3
2023-08-02T18:00	22317	41	-51.9	-85.5	159	3
2023-08-02T18:00	22348	41	-52.1	-85.6	179	3
2023-08-02T18:00	22375	41	-52.1	-85.6	194	3
2023-08-02T18:00	22397	41	-52.2	-85.7	201	3
2023-08-02T18:00	22424	41	-52.3	-85.8	200	3
2023-08-02T18:00	22449	40	-52.1	-85.6	191	2
2023-08-02T18:00	22476	40	-51.7	-86.2	171	2
2023-08-02T18:00	22504	40	-51.3	-85.9	147	2
2023-08-02T18:00	22529	40	-51.1	-85.8	133	3
2023-08-02T18:00	22556	40	-51.1	-85.8	127	4
2023-08-02T18:00	22580	40	-51.2	-85.8	125	5
2023-08-02T18:00	22603	39	-51.3	-85.9	126	6
2023-08-02T18:00	22631	39	-51.4	-86.0	128	7
2023-08-02T18:00	22656	39	-51.3	-85.9	131	7
2023-08-02T18:00	22685	39	-51.1	-85.8	134	7
2023-08-02T18:00	22712	39	-51.1	-85.8	138	8
2023-08-02T18:00	22732	39	-51.1	-85.8	142	8
2023-08-02T18:00	22762	38	-51.1	-85.8	147	7
2023-08-02T18:00	22786	38	-51.2	-85.8	153	7
2023-08-02T18:00	22814	38	-51.2	-85.0	159	7
2023-08-02T18:00	22837	38	-51.3	-85.0	166	6
2023-08-02T18:00	22866	38	-51.2	-85.0	174	6
2023-08-02T18:00	22896	38	-51.3	-85.0	180	6
2023-08-02T18:00	22922	38	-51.3	-85.0	185	6
2023-08-02T18:00	22946	37	-51.4	-85.1	189	6
2023-08-02T18:00	22972	37	-51.3	-85.9	191	6
2023-08-02T18:00	22998	37	-51.3	-85.9	192	5
2023-08-02T18:00	23025	37	-51.4	-86.0	192	5
2023-08-02T18:00	23054	37	-51.3	-85.9	190	4
2023-08-02T18:00	23078	37	-51.2	-85.8	186	4
2023-08-02T18:00	23110	37	-51.0	-85.7	179	3
2023-08-02T18:00	23130	36	-50.8	-85.6	171	3
2023-08-02T18:00	23155	36	-50.6	-85.4	164	3
2023-08-02T18:00	23180	36	-50.5	-85.3	156	3
2023-08-02T18:00	23208	36	-50.3	-85.2	147	2
2023-08-02T18:00	23234	36	-50.3	-85.2	135	2
2023-08-02T18:00	23262	36	-50.2	-85.1	125	3
2023-08-02T18:00	23291	35	-50.0	-85.0	119	3
2023-08-02T18:00	23316	35	-49.9	-84.9	118	3
2023-08-02T18:00	23341	35	-49.9	-84.9	120	4
2023-08-02T18:00	23363	35	-49.8	-84.8	124	4
2023-08-02T18:00	23390	35	-49.7	-84.8	129	4
2023-08-02T18:00	23417	35	-49.7	-84.8	135	4
2023-08-02T18:00	23440	35	-49.8	-84.8	141	4
2023-08-02T18:00	23471	35	-49.8	-84.8	149	4
2023-08-02T18:00	23499	34	-49.8	-84.8	158	4
2023-08-02T18:00	23521	34	-49.9	-84.9	171	3
2023-08-02T18:00	23546	34	-49.9	-84.9	189	3
2023-08-02T18:00	23572	34	-49.7	-84.8	210	2
2023-08-02T18:00	23598	34	-49.6	-84.7	229	2
2023-08-02T18:00	23625	34	-49.5	-85.7	244	2
2023-08-02T18:00	23648	34	-49.4	-85.6	257	2
2023-08-02T18:00	23677	33	-49.3	-85.5	273	2
2023-08-02T18:00	23700	33	-49.2	-85.5	295	2
2023-08-02T18:00	23731	33	-49.0	-85.3	323	1
2023-08-02T18:00	23758	33	-48.9	-85.3	353	1
2023-08-02T18:00	23779	33	-48.8	-85.2	17	2
2023-08-02T18:00	23804	33	-48.7	-85.1	33	2
2023-08-02T18:00	23833	33	-48.9	-85.3	42	3
2023-08-02T18:00	23866	33	-49.0	-85.3	47	4
2023-08-02T18:00	23887	32	-49.2	-85.5	50	4
2023-08-02T18:00	23914	32	-49.3	-84.5	51	5
2023-08-02T18:00	23944	32	-49.3	-84.5	52	6
2023-08-02T18:00	23965	32	-49.2	-84.4	53	6
2023-08-02T18:00	23995	32	-49.2	-84.4	53	6
2023-08-02T18:00	24020	32	-49.3	-85.5	55	7
2023-08-02T18:00	24041	32	-49.2	-85.5	58	7
2023-08-02T18:00	24070	32	-49.1	-85.4	62	7
2023-08-02T18:00	24098	31	-49.0	-85.3	67	7
2023-08-02T18:00	24127	31	-49.1	-84.3	72	7
2023-08-02T18:00	24151	31	-49.2	-84.4	77	7
2023-08-02T18:00	24183	31	-49.3	-84.5	83	8
2023-08-02T18:00	24209	31	-49.5	-84.6	88	7
2023-08-02T18:00	24236	31	-49.5	-84.6	94	7
2023-08-02T18:00	24268	31	-49.5	-84.6	98	7
2023-08-02T18:00	24288	30	-49.6	-84.7	100	7
2023-08-02T18:00	24316	30	-49.6	-84.7	100	7
2023-08-02T18:00	24345	30	-49.6	-84.7	99	7
2023-08-02T18:00	24366	30	-49.5	-84.6	96	7
2023-08-02T18:00	24399	30	-49.5	-84.6	93	7
2023-08-02T18:00	24430	30	-49.5	-84.6	91	7
2023-08-02T18:00	24458	30	-49.5	-85.7	92	7
2023-08-02T18:00	24481	30	-49.5	-85.7	95	7
2023-08-02T18:00	24511	29	-49.5	-85.7	100	7
2023-08-02T18:00	24538	29	-49.4	-85.6	106	7
2023-08-02T18:00	24569	29	-49.4	-85.6	112	7
2023-08-02T18:00	24589	29	-49.4	-85.6	116	7
2023-08-02T18:00	24616	29	-49.4	-85.6	117	7
2023-08-02T18:00	24650	29	-49.4	-85.6	117	6
2023-08-02T18:00	24672	29	-49.3	-85.5	115	6
2023-08-02T18:00	24701	29	-49.2	-85.5	110	5
2023-08-02T18:00	24729	29	-49.0	-85.3	102	4
2023-08-02T18:00	24754	28	-49.1	-85.4	90	3
2023-08-02T18:00	24780	28	-48.9	-85.3	75	3
2023-08-02T18:00	24808	28	-48.7	-85.1	63	3
2023-08-02T18:00	24833	28	-48.5	-85.0	57	4
2023-08-02T18:00	24869	28	-48.4	-84.9	56	5
2023-08-02T18:00	24893	28	-48.4	-84.9	57	5
2023-08-02T18:00	24915	28	-48.4	-84.9	60	6
2023-08-02T18:00	24941	28	-48.4	-84.9	63	7
2023-08-02T18:00	24971	27	-48.4	-84.9	67	7
2023-08-02T18:00	24997	27	-48.5	-85.0	71	8
2023-08-02T18:00	25022	27	-48.6	-85.0	74	8
2023-08-02T18:00	25046	27	-48.7	-85.1	76	8
2023-08-02T18:00	25075	27	-48.7	-85.1	75	8
2023-08-02T18:00	25103	27	-48.7	-85.1	74	7
2023-08-02T18:00	25131	27	-48.5	-85.0	71	7
2023-08-02T18:00	25152	27	-48.5	-85.0	68	7
2023-08-02T18:00	25188	27	-48.6	-85.0	68	7
2023-08-02T18:00	25202	27	-48.6	-85.0	70	7
2023-08-02T18:00	25236	26	-48.5	-85.0	74	8
2023-08-02T18:00	25255	26	-48.4	-84.9	77	8
2023-08-02T18:00	25283	26	-48.5	-85.0	79	9
2023-08-02T18:00	25318	26	-48.4	-84.9	80	10
2023-08-02T18:00	25337	26	-48.4	-84.9	80	10
2023-08-02T18:00	25366	26	-48.4	-84.9	79	10
2023-08-02T18:00	25389	26	-48.3	-84.8	78	10
2023-08-02T18:00	25423	26	-48.3	-84.8	78	10
2023-08-02T18:00	25444	26	-48.3	-84.8	79	9
2023-08-02T18:00	25475	25	-48.2	-84.8	81	9
2023-08-02T18:00	25504	25	-48.1	-84.7	84	9
2023-08-02T18:00	25524	25	-48.2	-84.8	88	9
2023-08-02T18:00	25553	25	-48.3	-84.8	93	9
2023-08-02T18:00	25577	25	-48.3	-84.8	98	9
2023-08-02T18:00	25610	25	-48.5	-85.0	104	10
2023-08-02T18:00	25635	25	-48.5	-85.0	108	10
2023-08-02T18:00	25659	25	-48.3	-84.8	113	10
2023-08-02T18:00	25694	25	-48.3	-84.8	117	11
2023-08-02T18:00	25718	25	-48.3	-84.8	120	11
2023-08-02T18:00	25747	24	-48.3	-84.8	123	11
2023-08-02T18:00	25778	24	-48.1	-84.7	126	10
2023-08-02T18:00	25795	24	-47.9	-84.6	127	10
2023-08-02T18:00	25835	24	-47.8	-84.5	127	9
2023-08-02T18:00	25861	24	-47.7	-84.4	127	9
2023-08-02T18:00	25890	24	-47.7	-84.4	126	8
2023-08-02T18:00	25919	24	-47.6	-84.3	123	7
2023-08-02T18:00	25949	24	-47.6	-84.3	120	7
2023-08-02T18:00	25979	24	-47.6	-84.3	115	6
2023-08-02T18:00	25995	23	-47.7	-84.4	108	6
2023-08-02T18:00	26040	23	-47.7	-84.4	100	5
2023-08-02T18:00	26065	23	-47.6	-84.3	95	6
2023-08-02T18:00	26094	23	-47.4	-84.2	91	6
2023-08-02T18:00	26117	23	-47.4	-84.2	91	7
2023-08-02T18:00	26153	23	-47.3	-84.1	91	7
2023-08-02T18:00	26179	23	-47.4	-84.2	92	8
2023-08-02T18:00	26214	23	-47.5	-84.3	92	8
2023-08-02T18:00	26239	23	-47.5	-84.3	94	8
2023-08-02T18:00	26265	23	-47.4	-84.2	96	8
2023-08-02T18:00	26295	22	-47.2	-84.1	97	7
2023-08-02T18:00	26323	22	-47.2	-84.1	99	7
2023-08-02T18:00	26356	22	-47.2	-84.1	101	7
2023-08-02T18:00	26381	22	-47.2	-84.1	103	7
2023-08-02T18:00	26414	22	-47.1	-84.0	107	6
2023-08-02T18:00	26444	22	-47.0	-83.9	111	6
2023-08-02T18:00	26468	22	-46.9	-83.9	117	6
2023-08-02T18:00	26499	22	-46.9	-83.9	122	5
2023-08-02T18:00	26526	22	-47.0	-83.9	126	5
2023-08-02T18:00	26560	22	-47.1	-84.0	129	5
2023-08-02T18:00	26586	22	-47.2	-84.1	130	4
2023-08-02T18:00	26619	21	-47.2	-84.1	130	4
2023-08-02T18:00	26641	21	-47.3	-84.1	129	4
2023-08-02T18:00	26668	21	-47.4	-84.2	127	4
2023-08-02T18:00	26698	21	-47.5	-84.3	123	3
2023-08-02T18:00	26722	21	-47.4	-84.2	118	3
2023-08-02T18:00	26759	21	-47.3	-84.1	114	4
2023-08-02T18:00	26793	21	-47.0	-83.9	112	4
2023-08-02T18:00	26818	21	-47.1	-84.0	112	5
2023-08-02T18:00	26845	21	-47.1	-84.0	112	5
2023-08-02T18:00	26878	21	-47.2	-84.1	113	6
2023-08-02T18:00	26897	21	-47.3	-84.1	114	7
2023-08-02T18:00	26931	20	-47.5	-84.3	116	7
2023-08-02T18:00	26952	20	-47.6	-84.3	117	7
2023-08-02T18:00	26985	20	-47.5	-84.3	118	8
2023-08-02T18:00	27015	20	-47.4	-84.2	119	8
2023-08-02T18:00	27042	20	-47.3	-84.1	119	7
2023-08-02T18:00	27067	20	-47.2	-84.1	116	7
2023-08-02T18:00	27104	20	-46.9	-83.9	113	7
2023-08-02T18:00	27131	20	-46.6	-83.6	109	7
2023-08-02T18:00	27163	20	-46.4	-83.5	108	7
2023-08-02T18:00	27187	20	-46.3	-83.4	109	7
2023-08-02T18:00	27214	20	-46.2	-83.4	112	8
2023-08-02T18:00	27238	19	-46.2	-83.4	117	8
2023-08-02T18:00	27278	19	-46.2	-83.4	121	8
2023-08-02T18:00	27306	19	-46.1	-83.3	125	8
2023-08-02T18:00	27339	19	-46.0	-83.2	128	8
2023-08-02T18:00	27371	19	-45.9	-83.2	130	8
2023-08-02T18:00	27397	19	-45.9	-83.2	131	7
2023-08-02T18:00	27429	19	-45.8	-83.1	131	7
2023-08-02T18:00	27451	19	-45.8	-83.1	131	6
2023-08-02T18:00	27479	19	-45.7	-83.0	130	6
2023-08-02T18:00	27504	19	-45.6	-82.9	130	6
2023-08-02T18:00	27547	19	-45.6	-82.9	131	5
2023-08-02T18:00	27565	19	-45.6	-82.9	131	5
2023-08-02T18:00	27597	18	-45.6	-82.9	131	4
2023-08-02T18:00	27637	18	-45.6	-82.9	127	4
2023-08-02T18:00	27668	18	-45.6	-82.9	119	4
2023-08-02T18:00	27699	18	-45.4	-82.8	107	4
2023-08-02T18:00	27726	18	-45.2	-82.7	94	4
2023-08-02T18:00	27756	18	-45.0	-82.5	86	5
2023-08-02T18:00	27788	18	-44.9	-82.5	82	5
2023-08-02T18:00	27816	18	-44.9	-82.5	81	5
2023-08-02T18:00	27843	18	-44.8	-82.4	83	5
2023-08-02T18:00	27869	18	-44.6	-82.2	86	5
2023-08-02T18:00	27906	18	-44.6	-82.2	90	5
2023-08-02T18:00	27931	18	-44.7	-82.3	94	5
2023-08-02T18:00	27966	17	-44.6	-82.2	95	5
2023-08-02T18:00	27997	17	-44.6	-82.2	93	5
2023-08-02T18:00	28031	17	-44.6	-82.2	89	5
2023-08-02T18:00	28060	17	-44.7	-82.3	83	5
2023-08-02T18:00	28082	17	-44.7	-82.3	77	5
2023-08-02T18:00	28104	17	-44.7	-82.3	72	5
2023-08-02T18:00	28136	17	-44.8	-82.4	70	5
2023-08-02T18:00	28168	17	-44.8	-82.4	70	5
2023-08-02T18:00	28197	17	-44.8	-82.4	70	5
2023-08-02T18:00	28221	17	-44.8	-82.4	70	5
2023-08-02T18:00	28258	17	-44.8	-82.4	68	5
2023-08-02T18:00	28288	17	-44.7	-82.3	63	5
2023-08-02T18:00	28305	17	-44.6	-82.2	58	5
2023-08-02T18:00	28350	17	-44.6	-82.2	54	6
2023-08-02T18:00	28375	16	-44.5	-82.2	51	6
2023-08-02T18:00	28388	16	-44.3	-82.0	50	7
2023-08-02T18:00	28416	16	-44.3	-82.0	52	7
2023-08-02T18:00	28447	16	-44.4	-82.1	56	8
2023-08-02T18:00	28466	16	-44.4	-82.1	62	8
2023-08-02T18:00	28500	16	-44.5	-82.2	67	9
2023-08-02T18:00	28529	16	-44.5	-82.2	72	9
2023-08-02T18:00	28557	16	-44.6	-82.2	77	10
2023-08-02T18:00	28589	16	-44.6	-82.2	80	10
2023-08-02T18:00	28617	16	-44.5	-82.2	82	11
2023-08-02T18:00	28636	16	-44.4	-82.1	83	11
2023-08-02T18:00	28662	16	-44.1	-81.9	84	12
2023-08-02T18:00	28689	16	-44.0	-81.8	85	12
2023-08-02T18:00	28724	16	-44.0	-81.8	86	11
2023-08-02T18:00	28752	16	-44.0	-81.8	87	11
2023-08-02T18:00	28787	15	-44.1	-81.9	87	11
2023-08-02T18:00	28804	15	-44.1	-81.9	86	11
2023-08-02T18:00	28845	15	-44.1	-81.9	84	10
2023-08-02T18:00	28868	15	-44.0	-81.8	82	11
2023-08-02T18:00	28887	15	-43.8	-81.7	81	11
2023-08-02T18:00	28922	15	-43.6	-81.5	81	11
2023-08-02T18:00	28953	15	-43.4	-81.4	80	11
2023-08-02T18:00	28983	15	-43.3	-81.3	79	12
2023-08-02T18:00	29015	15	-43.3	-81.3	78	12
2023-08-02T18:00	29039	15	-43.2	-81.3	77	12
2023-08-02T18:00	29065	15	-43.1	-81.2	75	13
2023-08-02T18:00	29105	15	-43.0	-81.1	75	13
2023-08-02T18:00	29124	15	-42.9	-81.1	76	13
2023-08-02T18:00	29164	15	-42.9	-81.1	78	13
2023-08-02T18:00	29186	15	-43.0	-81.1	81	13
2023-08-02T18:00	29230	15	-43.1	-81.2	85	13
2023-08-02T18:00	29256	14	-43.1	-81.2	89	13
2023-08-02T18:00	29293	14	-43.2	-81.3	92	13
2023-08-02T18:00	29319	14	-43.2	-81.3	94	12
2023-08-02T18:00	29345	14	-43.1	-81.2	96	12
2023-08-02T18:00	29390	14	-42.9	-81.1	97	12
2023-08-02T18:00	29415	14	-42.9	-81.1	98	12
2023-08-02T18:00	29440	14	-42.9	-81.1	97	12
2023-08-02T18:00	29485	14	-42.9	-81.1	95	12
2023-08-02T18:00	29514	14	-42.9	-81.1	93	12
2023-08-02T18:00	29542	14	-42.8	-81.0	90	13
2023-08-02T18:00	29571	14	-42.8	-81.0	87	13
2023-08-02T18:00	29606	14	-42.7	-80.9	83	13
2023-08-02T18:00	29642	14	-42.6	-80.8	80	14
2023-08-02T18:00	29667	14	-42.3	-80.6	77	14
2023-08-02T18:00	29693	14	-42.3	-80.6	74	14
2023-08-02T18:00	29732	13	-42.3	-80.6	73	14
2023-08-02T18:00	29754	13	-42.3	-80.6	72	14
2023-08-02T18:00	29784	13	-42.3	-80.6	72	14
2023-08-02T18:00	29817	13	-42.1	-80.5	73	15
2023-08-02T18:00	29846	13	-42.2	-80.6	74	16
2023-08-02T18:00	29872	13	-42.4	-80.7	76	16
2023-08-02T18:00	29908	13	-42.5	-80.8	77	17
2023-08-02T18:00	29930	13	-42.6	-80.8	79	17
2023-08-02T18:00	29973	13	-42.7	-80.9	81	17
2023-08-02T18:00	29984	13	-42.7	-80.9	83	18
2023-08-02T18:00	30020	13	-42.7	-80.9	85	18
2023-08-02T18:00	30053	13	-42.8	-81.0	87	18
2023-08-02T18:00	30082	13	-42.7	-80.9	89	18
2023-08-02T18:00	30113	13	-42.7	-80.9	90	17
2023-08-02T18:00	30137	13	-42.8	-81.0	92	17
2023-08-02T18:00	30169	13	-42.9	-81.1	94	16
2023-08-02T18:00	30195	13	-42.9	-81.1	97	16
2023-08-02T18:00	30235	13	-42.8	-81.0	100	15
2023-08-02T18:00	30257	12	-42.6	-80.8	103	15
2023-08-02T18:00	30286	12	-42.5	-80.8	106	15
2023-08-02T18:00	30321	12	-42.5	-80.8	108	15
2023-08-02T18:00	30334	12	-42.3	-80.6	110	15
2023-08-02T18:00	30373	12	-42.1	-80.5	111	15
2023-08-02T18:00	30419	12	-42.1	-80.5	111	14
2023-08-02T18:00	30428	12	-42.1	-80.5	112	13
2023-08-02T18:00	30474	12	-41.9	-80.4	112	13
2023-08-02T18:00	30510	12	-41.8	-80.3	112	12
2023-08-02T18:00	30547	12	-41.7	-80.2	112	11
2023-08-02T18:00	30568	12	-41.5	-80.1	112	11
2023-08-02T18:00	30597	12	-41.3	-79.9	111	10
2023-08-02T18:00	30635	12	-41.2	-79.9	111	10
2023-08-02T18:00	30652	12	-41.1	-79.8	111	9
2023-08-02T18:00	30703	12	-41.3	-79.9	109	9
2023-08-02T18:00	30732	12	-41.4	-80.0	108	9
2023-08-02T18:00	30770	12	-41.3	-79.9	105	9
2023-08-02T18:00	30796	12	-41.1	-79.8	103	9
2023-08-02T18:00	30827	11	-41.0	-79.7	100	10
2023-08-02T18:00	30848	11	-40.9	-79.7	99	10
2023-08-02T18:00	30893	11	-40.8	-79.6	98	10
2023-08-02T18:00	30913	11	-40.7	-79.5	99	10
2023-08-02T18:00	30963	11	-40.6	-79.5	100	10
2023-08-02T18:00	30981	11	-40.6	-79.5	102	10
2023-08-02T18:00	31009	11	-40.5	-79.4	104	10
2023-08-02T18:00	31047	11	-40.4	-79.3	105	9
2023-08-02T18:00	31072	11	-40.4	-79.3	106	9
2023-08-02T18:00	31118	11	-40.2	-79.2	106	9
2023-08-02T18:00	31143	11	-40.1	-79.1	105	9
2023-08-02T18:00	31182	11	-40.1	-79.1	104	8
2023-08-02T18:00	31206	11	-40.1	-79.1	102	8
2023-08-02T18:00	31244	11	-40.0	-79.0	100	8
2023-08-02T18:00	31283	11	-39.9	-79.0	99	8
2023-08-02T18:00	31316	11	-39.7	-78.8	98	8
2023-08-02T18:00	31347	11	-39.3	-78.5	97	9
2023-08-02T18:00	31355	11	-39.1	-78.4	97	9
2023-08-02T18:00	31396	11	-38.9	-78.3	96	10
2023-08-02T18:00	31438	10	-38.7	-78.1	95	10
2023-08-02T18:00	31455	10	-38.6	-78.1	94	11
2023-08-02T18:00	31505	10	-38.6	-78.1	95	11
2023-08-02T18:00	31518	10	-38.6	-78.1	96	11
2023-08-02T18:00	31558	10	-38.7	-78.1	97	11
2023-08-02T18:00	31579	10	-38.7	-78.1	100	11
2023-08-02T18:00	31609	10	-38.7	-78.1	102	11
2023-08-02T18:00	31631	10	-38.7	-78.1	104	11
2023-08-02T18:00	31669	10	-38.8	-78.2	105	11
2023-08-02T18:00	31707	10	-38.8	-78.2	104	11
2023-08-02T18:00	31728	10	-38.8	-78.2	103	10
2023-08-02T18:00	31763	10	-38.7	-78.1	100	10
2023-08-02T18:00	31783	10	-38.6	-78.1	98	9
2023-08-02T18:00	31816	10	-38.6	-78.1	98	9
2023-08-02T18:00	31842	10	-38.5	-78.0	100	9
2023-08-02T18:00	31871	10	-38.4	-77.9	104	9
2023-08-02T18:00	31898	10	-38.4	-77.9	108	9
2023-08-02T18:00	31929	10	-38.4	-77.9	112	9
2023-08-02T18:00	31951	10	-38.4	-77.9	115	9
2023-08-02T18:00	31974	10	-38.4	-77.9	116	9
2023-08-02T18:00	32019	10	-38.3	-77.9	116	9
2023-08-02T18:00	32031	10	-38.1	-77.7	117	9
2023-08-02T18:00	32057	10	-38.1	-77.7	118	9
2023-08-02T18:00	32078	10	-37.9	-77.6	119	8
2023-08-02T18:00	32120	9	-37.7	-77.4	121	7
2023-08-02T18:00	32147	9	-37.4	-77.2	123	7
2023-08-02T18:00	32166	9	-37.3	-77.2	125	6
2023-08-02T18:00	32184	9	-37.2	-77.1	124	5
2023-08-02T18:00	32239	9	-37.2	-77.1	122	5
2023-08-02T18:00	32281	9	-37.0	-77.0	115	4
2023-08-02T18:00	32327	9	-36.6	-76.7	90	4
2023-08-02T18:00	32343	9	-36.4	-76.5	77	4
2023-08-02T18:00	32362	9	-36.3	-76.5	67	4
2023-08-02T18:00	32396	9	-36.1	-76.3	59	5
2023-08-02T18:00	32439	9	-36.0	-76.3	54	6
2023-08-02T18:00	32478	9	-36.0	-76.3	49	7
2023-08-02T18:00	32499	9	-36.0	-76.3	46	8
2023-08-02T18:00	32528	9	-36.0	-76.3	44	8
2023-08-02T18:00	32547	9	-35.9	-76.2	45	9
2023-08-02T18:00	32579	9	-35.9	-76.2	49	9
2023-08-02T18:00	32607	9	-35.8	-76.1	55	9
2023-08-02T18:00	32649	9	-35.6	-76.0	63	9
2023-08-02T18:00	32697	9	-35.5	-75.9	71	9
2023-08-02T18:00	32732	9	-35.5	-75.9	78	10
2023-08-02T18:00	32758	9	-35.4	-75.8	82	10
2023-08-02T18:00	32789	9	-35.3	-75.8	84	10
2023-08-02T18:00	32823	9	-35.3	-75.8	84	10
2023-08-02T18:00	32837	9	-35.4	-75.8	85	10
2023-08-02T18:00	32898	8	-35.5	-75.9	86	9
2023-08-02T18:00	32924	8	-35.7	-76.1	88	9
2023-08-02T18:00	32958	8	-35.8	-76.1	91	10
2023-08-02T18:00	32993	8	-35.8	-76.1	94	10
2023-08-02T18:00	33021	8	-35.8	-76.1	95	10
2023-08-02T18:00	33057	8	-35.9	-76.2	95	10
2023-08-02T18:00	33098	8	-36.0	-76.3	92	10
2023-08-02T18:00	33151	8	-36.0	-76.3	88	10
2023-08-02T18:00	33152	8	-35.9	-76.2	84	10
2023-08-02T18:00	33191	8	-35.8	-76.1	79	11
2023-08-02T18:00	33239	8	-35.7	-76.1	75	11
2023-08-02T18:00	33256	8	-35.7	-76.1	72	12
2023-08-02T18:00	33283	8	-35.7	-76.1	70	12
2023-08-02T18:00	33328	8	-35.8	-76.1	70	13
2023-08-02T18:00	33379	8	-35.7	-76.1	70	14
2023-08-02T18:00	33381	8	-35.6	-76.0	71	15
2023-08-02T18:00	33411	8	-35.6	-76.0	72	15
2023-08-02T18:00	33451	8	-35.5	-75.9	73	15
2023-08-03T00:00	112	982	17.6	15.2	220	4
2023-08-03T00:00	141	979	17.7	15.4	207	5
2023-08-03T00:00	171	975	17.4	15.2	209	6
2023-08-03T00:00	198	972	17.6	15.1	211	8
2023-08-03T00:00	220	969	17.3	15.1	214	9
2023-08-03T00:00	248	966	17.3	15.1	217	10
2023-08-03T00:00	279	963	17.2	15.0	219	11
2023-08-03T00:00	302	960	17.1	15.1	221	11
2023-08-03T00:00	330	957	17.1	15.1	222	12
2023-08-03T00:00	354	954	17.3	15.2	224	13
2023-08-03T00:00	384	951	17.1	15.2	226	14
2023-08-03T00:00	408	948	16.8	15.1	228	15
2023-08-03T00:00	434	946	16.6	15.0	231	16
2023-08-03T00:00	464	943	16.5	14.9	233	17
2023-08-03T00:00	484	940	16.6	14.8	235	18
2023-08-03T00:00	510	937	16.5	14.8	236	19
2023-08-03T00:00	535	934	16.7	14.6	238	19
2023-08-03T00:00	558	932	16.6	14.6	239	19
2023-08-03T00:00	583	929	16.4	14.4	241	19
2023-08-03T00:00	608	927	16.2	14.2	243	19
2023-08-03T00:00	633	924	16.1	13.6	245	19
2023-08-03T00:00	661	921	16.0	13.3	246	19
2023-08-03T00:00	684	918	15.9	13.0	246	19
2023-08-03T00:00	710	915	15.6	13.0	246	19
2023-08-03T00:00	736	913	15.4	13.0	246	19
2023-08-03T00:00	761	910	15.2	12.5	246	18
2023-08-03T00:00	789	907	15.0	12.2	246	18
2023-08-03T00:00	813	904	14.9	11.8	246	17
2023-08-03T00:00	839	902	14.7	11.7	246	17
2023-08-03T00:00	864	899	14.6	11.2	246	16
2023-08-03T00:00	889	896	14.3	11.6	246	16
2023-08-03T00:00	915	894	14.4	10.9	247	15
2023-08-03T00:00	940	891	14.1	10.9	247	15
2023-08-03T00:00	970	888	13.8	10.8	248	15
2023-08-03T00:00	994	885	13.6	10.8	248	16
2023-08-03T00:00	1020	882	13.4		249	16
2023-08-03T00:00	1049	880	13.2	10.6	250	16
2023-08-03T00:00	1073	877	12.9	10.4	251	15
2023-08-03T00:00	1097	874	12.8	10.2	253	15
2023-08-03T00:00	1128	871	12.6	10.0	255	15
2023-08-03T00:00	1159	868	12.4	9.8	257	14
2023-08-03T00:00	1186	865	12.3	9.0	258	14
2023-08-03T00:00	1211	863	12.5	7.9	260	13
2023-08-03T00:00	1231	861	12.4	7.4	262	13
2023-08-03T00:00	1254	858	12.2	7.3	265	13
2023-08-03T00:00	1277	856	12.0	7.2	266	12
2023-08-03T00:00	1297	854	11.9	7.1	266	13
2023-08-03T00:00	1319	852	11.7	6.8	265	13
2023-08-03T00:00	1341	849	11.6	6.7	262	13
2023-08-03T00:00	1368	847	11.6	7.1	259	13
2023-08-03T00:00	1396	844	11.4	8.6	256	13
2023-08-03T00:00	1426	841	11.1	9.0	254	14
2023-08-03T00:00	1449	839	10.9	9.4	253	14
2023-08-03T00:00	1474	836	10.7	9.2	251	15
2023-08-03T00:00	1500	834	10.4	8.8	250	15
2023-08-03T00:00	1525	831	10.2	9.2	248	15
2023-08-03T00:00	1548	829	10.1	9.5	245	15
2023-08-03T00:00	1570	826	9.9	9.4	243	15
2023-08-03T00:00	1595	824	9.8	9.4	240	15
2023-08-03T00:00	1613	822	9.7	9.3	238	15
2023-08-03T00:00	1634	820	9.7	9.5	236	16
2023-08-03T00:00	1663	817	9.5	9.4	235	16
2023-08-03T00:00	1690	815	9.6	9.0	235	16
2023-08-03T00:00	1721	812	9.5	8.8	235	16
2023-08-03T00:00	1741	810	9.3	8.8	236	16
2023-08-03T00:00	1759	808	9.3	8.7	236	16
2023-08-03T00:00	1784	806	9.1	8.5	237	16
2023-08-03T00:00	1806	803	8.9	8.3	236	16
2023-08-03T00:00	1831	801	8.7	8.1	236	16
2023-08-03T00:00	1854	799	8.6	8.1	235	16
2023-08-03T00:00	1877	796	8.4	7.9	235	16
2023-08-03T00:00	1912	794	8.4	7.5	235	16
2023-08-03T00:00	1935	791	8.3	7.2	236	16
2023-08-03T00:00	1955	789	8.2	7.1	237	16
2023-08-03T00:00	1977	787	8.0	7.0	238	16
2023-08-03T00:00	1998	785	7.9	6.6	238	16
2023-08-03T00:00	2015	783	8.1	6.1	237	16
2023-08-03T00:00	2035	781	8.1	5.8	236	16
2023-08-03T00:00	2059	779	8.0	5.6	234	16
2023-08-03T00:00	2085	777	8.2	4.1	233	16
2023-08-03T00:00	2106	775	8.0	3.8	233	17
2023-08-03T00:00	2126	773	8.1	3.1	232	16
2023-08-03T00:00	2147	771	7.9	3.1	231	16
2023-08-03T00:00	2165	769	7.9	2.9	230	16
2023-08-03T00:00	2187	767	7.8	2.1	229	15
2023-08-03T00:00	2212	765	7.7	1.9	227	15
2023-08-03T00:00	2235	763	7.5	1.9	226	15
2023-08-03T00:00	2255	761	7.5	0.7	225	15
2023-08-03T00:00	2280	759	7.5	0.3	224	14
2023-08-03T00:00	2305	756	7.3	0.1	224	14
2023-08-03T00:00	2326	754	7.1	0.1	224	15
2023-08-03T00:00	2350	752	6.9	0.0	225	15
2023-08-03T00:00	2377	750	6.6	0.1	225	15
2023-08-03T00:00	2399	748	6.4	0.1	226	16
2023-08-03T00:00	2421	746	6.2	0.3	227	17
2023-08-03T00:00	2446	743	6.0	0.4	228	17
2023-08-03T00:00	2478	741	5.7	0.2	229	18
2023-08-03T00:00	2501	739	5.4	1.0	230	18
2023-08-03T00:00	2527	736	5.2	1.3	231	18
2023-08-03T00:00	2550	734	5.0	1.1	232	18
2023-08-03T00:00	2575	732	4.7	0.8	234	18
2023-08-03T00:00	2598	730	4.6	0.9	235	18
2023-08-03T00:00	2625	727	4.5	0.4	237	18
2023-08-03T00:00	2648	725	4.3	0.3	238	18
2023-08-03T00:00	2670	723	4.1	0.0	239	18
2023-08-03T00:00	2695	721	3.9	-0.2	239	18
2023-08-03T00:00	2723	719	3.7	-0.2	239	19
2023-08-03T00:00	2753	716	3.4	-0.5	240	19
2023-08-03T00:00	2781	714	3.3	-0.7	240	19
2023-08-03T00:00	2805	711	3.1	-0.9	241	20
2023-08-03T00:00	2832	709	2.9	-1.3	241	20
2023-08-03T00:00	2853	707	2.7	-1.3	241	20
2023-08-03T00:00	2877	705	2.5	-1.3	241	20
2023-08-03T00:00	2907	703	2.3	-1.4	241	20
2023-08-03T00:00	2932	700	2.0	-1.5	241	20
2023-08-03T00:00	2958	698	1.8	-1.6	242	20
2023-08-03T00:00	2991	695	1.7	-2.1	243	20
2023-08-03T00:00	3018	693	1.4	-2.3	244	21
2023-08-03T00:00	3038	691	1.3	-2.4	244	21
2023-08-03T00:00	3063	689	1.3	-3.1	243	21
2023-08-03T00:00	3090	687	1.1	-3.2	242	20
2023-08-03T00:00	3112	685	0.8	-3.2	240	20
2023-08-03T00:00	3139	683	0.6	-3.3	239	20
2023-08-03T00:00	3164	681	0.4	-3.7	237	20
2023-08-03T00:00	3183	679	0.5	-4.0	236	20
2023-08-03T00:00	3207	677	0.3	-4.1	235	20
2023-08-03T00:00	3229	675	0.2	-4.6	234	20
2023-08-03T00:00	3253	673	0.1	-5.2	233	21
2023-08-03T00:00	3281	671	0.1	-5.8	233	21
2023-08-03T00:00	3302	669	-0.1	-5.8	233	22
2023-08-03T00:00	3323	667	-0.2	-6.1	234	22
2023-08-03T00:00	3352	665	-0.3	-6.6	235	22
2023-08-03T00:00	3378	663	-0.4	-7.4	236	21
2023-08-03T00:00	3402	661	-0.3	-8.7	237	21
2023-08-03T00:00	3431	658	-0.5	-9.0	238	21
2023-08-03T00:00	3464	655	-0.8	-9.3	239	21
2023-08-03T00:00	3499	653	-1.1	-9.5	240	21
2023-08-03T00:00	3525	650	-1.5	-8.9	239	21
2023-08-03T00:00	3550	648	-1.7	-8.9	238	22
2023-08-03T00:00	3575	646	-1.9	-9.4	238	22
2023-08-03T00:00	3606	644	-1.7	-11.4	238	23
2023-08-03T00:00	3631	642	-1.9	-11.5	238	23
2023-08-03T00:00	3658	640	-2.0	-12.9	239	24
2023-08-03T00:00	3688	637	-2.0	-14.5	240	24
2023-08-03T00:00	3719	635	-1.7	-16.6	241	25
2023-08-03T00:00	3748	632	-1.6	-18.0	241	25
2023-08-03T00:00	3784	630	-1.9	-18.2	240	25
2023-08-03T00:00	3814	627	-2.2	-18.2	240	26
2023-08-03T00:00	3844	625	-2.5	-18.5	239	26
2023-08-03T00:00	3877	622	-2.7	-19.3	239	26
2023-08-03T00:00	3902	620	-2.9	-19.4	238	27
2023-08-03T00:00	3929	618	-3.0	-20.2	238	27
2023-08-03T00:00	3957	616	-3.2	-20.0	238	27
2023-08-03T00:00	3988	614	-3.4	-19.8	238	28
2023-08-03T00:00	4011	612	-3.6	-19.9	238	28
2023-08-03T00:00	4032	610	-3.8	-20.1	237	29
2023-08-03T00:00	4063	608	-3.9	-20.2	237	29
2023-08-03T00:00	4090	606	-4.0	-20.9	236	29
2023-08-03T00:00	4115	604	-4.1	-22.1	235	29
2023-08-03T00:00	4144	602	-4.3		234	29
2023-08-03T00:00	4168	600	-4.4	-24.0	234	29
2023-08-03T00:00	4203	597	-4.3	-25.0	234	29
2023-08-03T00:00	4230	595	-4.3	-27.4	234	29
2023-08-03T00:00	4250	593	-4.2	-28.4	234	30
2023-08-03T00:00	4275	592	-4.3	-29.9	234	30
2023-08-03T00:00	4300	590	-4.3	-31.7	233	31
2023-08-03T00:00	4319	588	-4.4	-32.4	233	31
2023-08-03T00:00	4347	586	-4.6	-32.5	232	30
2023-08-03T00:00	4369	585	-4.8	-32.7	232	30
2023-08-03T00:00	4395	583	-4.9	-32.9	232	30
2023-08-03T00:00	4418	581	-5.1	-32.9	231	29
2023-08-03T00:00	4440	579	-5.3	-33.1	231	29
2023-08-03T00:00	4473	577	-5.6	-33.3	231	30
2023-08-03T00:00	4501	575	-5.8	-33.5	231	30
2023-08-03T00:00	4527	573	-6.0	-33.8	232	30
2023-08-03T00:00	4549	571	-6.1	-34.0	232	30
2023-08-03T00:00	4581	569	-6.3	-34.3	231	30
2023-08-03T00:00	4598	568	-6.4	-34.5	231	29
2023-08-03T00:00	4633	565	-6.6	-34.8	231	29
2023-08-03T00:00	4660	563	-6.8	-35.1	231	29
2023-08-03T00:00	4689	561	-7.0	-35.6	231	29
2023-08-03T00:00	4708	560	-7.1	-35.7	232	30
2023-08-03T00:00	4734	558	-7.3	-35.8	232	30
2023-08-03T00:00	4763	556	-7.6	-35.9	232	30
2023-08-03T00:00	4793	554	-7.9	-36.0	233	30
2023-08-03T00:00	4812	552	-8.1	-36.0	234	30
2023-08-03T00:00	4837	551	-8.2	-36.4	235	30
2023-08-03T00:00	4861	549	-8.4	-36.7	236	29
2023-08-03T00:00	4882	547	-8.5	-37.2	236	30
2023-08-03T00:00	4911	545	-8.7	-37.5	236	30
2023-08-03T00:00	4942	543	-9.0	-37.8	236	31
2023-08-03T00:00	4974	541	-9.2	-37.9	237	32
2023-08-03T00:00	5001	539	-9.5	-38.2	238	32
2023-08-03T00:00	5023	537	-9.7	-38.2	239	32
2023-08-03T00:00	5056	535	-9.9	-38.3	240	32
2023-08-03T00:00	5077	534	-10.1	-38.5	241	32
2023-08-03T00:00	5096	532	-10.3	-38.7	242	32
2023-08-03T00:00	5115	531	-10.4	-38.7	242	32
2023-08-03T00:00	5137	530	-10.6	-39.1	242	32
2023-08-03T00:00	5164	528	-10.7	-39.4	243	32
2023-08-03T00:00	5194	526	-10.9	-40.3	243	32
2023-08-03T00:00	5229	524	-11.0	-41.0	243	32
2023-08-03T00:00	5250	522	-11.0	-42.0	243	31
2023-08-03T00:00	5267	521	-11.1	-42.3	243	31
2023-08-03T00:00	5287	519	-11.2	-42.4	243	31
2023-08-03T00:00	5306	518	-11.4	-42.9	242	32
2023-08-03T00:00	5327	517	-11.3	-44.5	241	32
2023-08-03T00:00	5354	515	-11.4	-45.4	240	32
2023-08-03T00:00	5387	513	-11.5	-46.7	240	32
2023-08-03T00:00	5409	511	-11.6	-47.1	239	33
2023-08-03T00:00	5431	510	-11.7	-46.8	240	33
2023-08-03T00:00	5458	508	-12.0	-47.0	240	33
2023-08-03T00:00	5492	506	-12.2	-47.2	240	34
2023-08-03T00:00	5517	504	-12.3	-47.9	241	34
2023-08-03T00:00	5533	503	-12.4	-48.0	241	35
2023-08-03T00:00	5551	502	-12.6	-47.8	241	35
2023-08-03T00:00	5579	500	-12.7	-47.6	241	35
2023-08-03T00:00	5606	498	-13.0	-47.2	241	35
2023-08-03T00:00	5628	497	-13.2	-47.0	242	35
2023-08-03T00:00	5665	495	-13.5	-46.4	242	35
2023-08-03T00:00	5686	493	-13.7	-46.1	243	35
2023-08-03T00:00	5702	492	-13.8	-46.2	243	35
2023-08-03T00:00	5717	491	-13.9	-46.0	243	35
2023-08-03T00:00	5735	490	-14.1	-45.9	243	35
2023-08-03T00:00	5751	489	-14.2	-46.0	242	36
2023-08-03T00:00	5765	488	-14.3	-45.6	242	36
2023-08-03T00:00	5791	486	-14.5	-45.8	242	37
2023-08-03T00:00	5814	485	-14.7	-45.7	242	37
2023-08-03T00:00	5846	483	-14.8	-44.6	241	38
2023-08-03T00:00	5872	481	-15.0	-44.4	240	38
2023-08-03T00:00	5901	479	-15.3	-44.6	240	39
2023-08-03T00:00	5926	478	-15.4	-44.0	240	39
2023-08-03T00:00	5944	476	-15.5	-43.7	240	40
2023-08-03T00:00	5970	475	-15.6	-43.7	240	40
2023-08-03T00:00	5996	473	-15.7	-43.7	240	41
2023-08-03T00:00	6016	472	-15.8	-43.8	238	41
2023-08-03T00:00	6044	470	-15.9	-43.7	237	42
2023-08-03T00:00	6065	469	-16.1	-43.9	235	43
2023-08-03T00:00	6081	468	-16.0	-44.1	234	43
2023-08-03T00:00	6110	466	-16.2	-44.3	233	44
2023-08-03T00:00	6136	464	-16.3	-44.9	232	44
2023-08-03T00:00	6156	463	-16.2	-45.0	232	44
2023-08-03T00:00	6172	462	-16.2	-44.8	231	43
2023-08-03T00:00	6188	461	-16.3	-45.0	231	43
2023-08-03T00:00	6211	460	-16.4	-45.3	230	43
2023-08-03T00:00	6242	458	-16.6	-46.0	229	43
2023-08-03T00:00	6263	457	-16.6	-46.4	228	44
2023-08-03T00:00	6280	456	-16.8	-46.3	228	44
2023-08-03T00:00	6299	455	-16.9	-46.4	228	44
2023-08-03T00:00	6318	453	-17.1	-46.4	229	45
2023-08-03T00:00	6340	452	-17.3	-46.5	229	45
2023-08-03T00:00	6361	451	-17.5	-46.7	230	45
2023-08-03T00:00	6390	449	-17.8	-46.9	230	45
2023-08-03T00:00	6422	447	-18.1	-47.0	230	45
2023-08-03T00:00	6455	445	-18.3	-47.3	229	45
2023-08-03T00:00	6482	444	-18.4	-47.4	229	45
2023-08-03T00:00	6501	442	-18.6	-47.6	228	46
2023-08-03T00:00	6522	441	-18.7	-48.0	228	46
2023-08-03T00:00	6544	440	-18.7	-48.4	228	46
2023-08-03T00:00	6576	438	-18.8	-48.9	227	46
2023-08-03T00:00	6609	436	-19.1	-48.9	227	46
2023-08-03T00:00	6630	435	-19.2	-49.0	227	46
2023-08-03T00:00	6651	433	-19.4	-49.1	227	46
2023-08-03T00:00	6680	432	-19.6	-49.1	227	46
2023-08-03T00:00	6712	430	-19.7	-49.4	226	46
2023-08-03T00:00	6744	428	-20.0	-49.6	225	45
2023-08-03T00:00	6771	426	-19.8	-50.1	225	45
2023-08-03T00:00	6812	424	-20.1	-50.5	224	45
2023-08-03T00:00	6839	423	-20.3	-50.9	223	45
2023-08-03T00:00	6857	422	-20.4	-51.2	223	44
2023-08-03T00:00	6881	420	-20.6	-51.4	222	44
2023-08-03T00:00	6906	419	-20.8	-51.5	222	44
2023-08-03T00:00	6928	417	-20.9	-51.9	222	43
2023-08-03T00:00	6964	416	-21.1	-52.5	222	43
2023-08-03T00:00	6986	414	-21.0	-52.7	222	42
2023-08-03T00:00	7013	413	-21.1	-52.8	222	42
2023-08-03T00:00	7043	411	-21.3	-52.7	223	42
2023-08-03T00:00	7072	410	-21.6	-52.9	223	42
2023-08-03T00:00	7098	408	-21.8	-52.8	223	42
2023-08-03T00:00	7126	407	-22.1	-53.0	223	42
2023-08-03T00:00	7160	405	-22.4	-53.0	224	42
2023-08-03T00:00	7198	403	-22.8	-53.3	225	42
2023-08-03T00:00	7230	401	-23.1	-53.3	226	41
2023-08-03T00:00	7258	399	-23.3	-53.3	228	41
2023-08-03T00:00	7285	398	-23.5	-53.2	230	41
2023-08-03T00:00	7319	396	-23.5	-53.2	231	40
2023-08-03T00:00	7340	395	-23.6	-53.3	232	40
2023-08-03T00:00	7368	393	-23.8	-53.2	233	41
2023-08-03T00:00	7394	392	-23.9	-53.3	234	41
2023-08-03T00:00	7423	390	-24.1	-53.4	234	41
2023-08-03T00:00	7456	389	-24.2	-53.3	235	41
2023-08-03T00:00	7476	388	-24.4	-53.3	235	42
2023-08-03T00:00	7496	387	-24.6	-53.4	235	42
2023-08-03T00:00	7516	385	-24.7	-53.5	236	42
2023-08-03T00:00	7536	384	-24.8	-53.6	236	42
2023-08-03T00:00	7556	383	-24.9	-53.6	236	42
2023-08-03T00:00	7578	382	-25.0	-53.5	236	43
2023-08-03T00:00	7602	381	-25.1	-53.4	237	43
2023-08-03T00:00	7628	380	-25.3	-53.4	237	44
2023-08-03T00:00	7652	378	-25.4	-53.5	237	44
2023-08-03T00:00	7675	377	-25.4	-53.5	237	45
2023-08-03T00:00	7707	376	-25.5	-53.5	237	46
2023-08-03T00:00	7732	374	-25.6	-53.8	236	46
2023-08-03T00:00	7761	373	-25.6	-53.6	235	47
2023-08-03T00:00	7779	372	-25.6	-53.4	235	48
2023-08-03T00:00	7803	370	-25.8	-53.4	234	48
2023-08-03T00:00	7834	369	-25.9	-53.3	234	49
2023-08-03T00:00	7864	367	-25.9	-53.3	234	50
2023-08-03T00:00	7895	366	-25.9	-52.8	234	50
2023-08-03T00:00	7924	364	-26.0	-51.8	235	51
2023-08-03T00:00	7950	363	-26.0	-50.7	235	51
2023-08-03T00:00	7979	362	-26.2	-50.6	235	52
2023-08-03T00:00	8007	360	-26.3	-50.6	235	52
2023-08-03T00:00	8034	359	-26.5	-50.6	235	52
2023-08-03T00:00	8060	358	-26.7	-50.8	235	52
2023-08-03T00:00	8087	356	-26.9	-50.8	235	52
2023-08-03T00:00	8114	355	-27.0	-51.3	235	52
2023-08-03T00:00	8141	354	-27.1	-50.9	236	53
2023-08-03T00:00	8172	352	-27.2	-51.4	236	53
2023-08-03T00:00	8205	350	-27.4	-51.5	236	53
2023-08-03T00:00	8234	349	-27.6	-51.8	236	54
2023-08-03T00:00	8260	348	-27.8	-51.6	236	54
2023-08-03T00:00	8283	347	-27.9	-51.3	236	54
2023-08-03T00:00	8309	345	-28.1	-51.1	236	54
2023-08-03T00:00	8336	344	-28.3	-50.8	236	55
2023-08-03T00:00	8369	343	-28.4	-50.3	236	56
2023-08-03T00:00	8392	341	-28.4	-49.5	237	57
2023-08-03T00:00	8421	340	-28.6	-49.3	238	58
2023-08-03T00:00	8450	339	-28.8	-49.5	238	59
2023-08-03T00:00	8474	338	-28.8	-48.8	239	59
2023-08-03T00:00	8500	336	-28.9	-46.1	240	60
2023-08-03T00:00	8519	335	-29.1	-44.5	240	59
2023-08-03T00:00	8544	334	-29.3	-44.1	239	59
2023-08-03T00:00	8576	333	-29.6	-44.3	239	59
2023-08-03T00:00	8606	331	-29.9	-44.2	239	59
2023-08-03T00:00	8632	330	-30.2	-44.2	239	59
2023-08-03T00:00	8657	329	-30.4	-43.9	239	59
2023-08-03T00:00	8682	328	-30.6	-43.5	239	58
2023-08-03T00:00	8710	327	-30.9	-44.5	239	58
2023-08-03T00:00	8738	325	-31.0	-46.4	239	58
2023-08-03T00:00	8760	324	-31.1	-48.4	239	58
2023-08-03T00:00	8786	323	-31.3	-49.2	239	58
2023-08-03T00:00	8813	322	-31.5	-49.4	239	58
2023-08-03T00:00	8838	321	-31.7	-49.1	239	58
2023-08-03T00:00	8862	320	-32.0	-49.1	239	58
2023-08-03T00:00	8886	318	-32.0	-51.2	239	57
2023-08-03T00:00	8912	317	-32.1	-51.7	239	57
2023-08-03T00:00	8948	316	-32.4	-51.3	239	57
2023-08-03T00:00	8979	314	-32.7	-51.7	239	57
2023-08-03T00:00	9009	313	-32.7	-53.1	239	57
2023-08-03T00:00	9032	312	-32.8	-53.3	239	56
2023-08-03T00:00	9053	311	-32.9	-54.5	239	56
2023-08-03T00:00	9073	310	-32.9	-55.2	239	56
2023-08-03T00:00	9090	309	-33.1	-55.8	239	55
2023-08-03T00:00	9110	309	-33.1	-56.4	239	55
2023-08-03T00:00	9131	308	-33.1	-57.5	239	55
2023-08-03T00:00	9153	307	-33.2	-57.7	239	55
2023-08-03T00:00	9174	306	-33.4	-57.9	239	55
2023-08-03T00:00	9193	305	-33.5	-58.1	239	55
2023-08-03T00:00	9213	304	-33.7	-58.6	239	55
2023-08-03T00:00	9234	303	-33.8	-58.9	239	55
2023-08-03T00:00	9252	302	-34.0	-59.1	239	55
2023-08-03T00:00	9272	302	-34.1	-58.6	239	55
2023-08-03T00:00	9291	301	-34.3	-58.8	239	55
2023-08-03T00:00	9310	300	-34.4	-59.1	239	55
2023-08-03T00:00	9331	299	-34.5	-59.4	239	56
2023-08-03T00:00	9350	298	-34.6	-59.3	239	56
2023-08-03T00:00	9369	297	-34.7		238	56
2023-08-03T00:00	9391	296	-34.8	-59.0	238	55
2023-08-03T00:00	9414	295	-34.9	-58.7	238	55
2023-08-03T00:00	9436	294	-35.0	-59.6	237	55
2023-08-03T00:00	9463	293	-35.1	-61.0	237	55
2023-08-03T00:00	9487	292	-35.2	-61.9	237	55
2023-08-03T00:00	9511	291	-35.2	-62.5	237	56
2023-08-03T00:00	9533	290	-34.8	-62.0	237	56
2023-08-03T00:00	9553	290	-34.9	-61.0	238	56
2023-08-03T00:00	9575	289	-35.0	-60.4	238	56
2023-08-03T00:00	9597	288	-35.1	-59.4	237	56
2023-08-03T00:00	9621	287	-35.2	-58.2	237	56
2023-08-03T00:00	9643	286	-34.9	-61.1	236	55
2023-08-03T00:00	9668	285	-34.9	-61.9	236	55
2023-08-03T00:00	9696	284	-35.0	-62.0	235	55
2023-08-03T00:00	9721	283	-35.0	-63.2	235	54
2023-08-03T00:00	9748	282	-35.1	-64.3	235	54
2023-08-03T00:00	9778	280	-34.9	-64.7	235	54
2023-08-03T00:00	9801	279	-35.0	-64.8	235	54
2023-08-03T00:00	9825	279	-35.1	-64.9	236	54
2023-08-03T00:00	9846	278	-35.2	-64.9	236	54
2023-08-03T00:00	9870	277	-35.2	-64.9	236	54
2023-08-03T00:00	9888	276	-35.1	-65.1	236	54
2023-08-03T00:00	9909	275	-34.9	-64.7	236	54
2023-08-03T00:00	9928	274	-34.9	-65.0	236	54
2023-08-03T00:00	9948	274	-34.9	-65.3	236	54
2023-08-03T00:00	9967	273	-35.0	-65.4	236	54
2023-08-03T00:00	9989	272	-35.1	-65.8	236	54
2023-08-03T00:00	10008	271	-35.2	-65.8	236	54
2023-08-03T00:00	10030	271	-35.3	-65.9	236	54
2023-08-03T00:00	10048	270	-35.4	-66.0	237	55
2023-08-03T00:00	10066	269	-35.5	-66.1	237	55
2023-08-03T00:00	10086	268	-35.6	-65.5	237	55
2023-08-03T00:00	10104	268	-35.7	-65.6	237	56
2023-08-03T00:00	10121	267	-35.9	-64.9	237	56
2023-08-03T00:00	10140	266	-36.0	-64.5	238	56
2023-08-03T00:00	10158	265	-36.1	-64.6	238	56
2023-08-03T00:00	10177	265	-36.3	-64.0	238	56
2023-08-03T00:00	10196	264	-36.3	-64.0	239	55
2023-08-03T00:00	10215	263	-36.2	-65.2	239	55
2023-08-03T00:00	10234	263	-36.3	-65.2	239	55
2023-08-03T00:00	10253	262	-36.4	-64.8	239	55
2023-08-03T00:00	10272	261	-36.3	-64.0	240	56
2023-08-03T00:00	10292	260	-36.3	-63.2	240	56
2023-08-03T00:00	10311	260	-36.5	-63.2	240	56
2023-08-03T00:00	10328	259	-36.6	-63.0	240	56
2023-08-03T00:00	10346	258	-36.8	-63.0	240	56
2023-08-03T00:00	10364	258	-36.9	-62.9	240	56
2023-08-03T00:00	10382	257	-37.1	-62.5	240	56
2023-08-03T00:00	10400	256	-37.2	-61.8	240	55
2023-08-03T00:00	10417	256	-37.2	-61.4	240	55
2023-08-03T00:00	10437	255	-37.3	-61.8	240	55
2023-08-03T00:00	10454	254	-37.4	-62.1	240	55
2023-08-03T00:00	10472	254	-37.5	-62.4	240	54
2023-08-03T00:00	10489	253	-37.7	-62.4	240	54
2023-08-03T00:00	10507	252	-37.8	-62.6	240	54
2023-08-03T00:00	10525	252	-37.9	-63.5	240	53
2023-08-03T00:00	10543	251	-38.0	-64.7	240	53
2023-08-03T00:00	10561	251	-37.9	-65.3	240	52
2023-08-03T00:00	10579	250	-38.0	-65.4	240	52
2023-08-03T00:00	10597	249	-38.1	-65.4	240	52
2023-08-03T00:00	10614	249	-38.1	-65.4	239	52
2023-08-03T00:00	10634	248	-38.1	-65.2	239	52
2023-08-03T00:00	10655	247	-38.2	-65.3	239	52
2023-08-03T00:00	10674	246	-38.3	-65.4	239	53
2023-08-03T00:00	10693	246	-38.4	-65.2	238	53
2023-08-03T00:00	10714	245	-38.4	-65.0	238	53
2023-08-03T00:00	10734	244	-38.5	-64.9	238	53
2023-08-03T00:00	10755	244	-38.6	-64.8	238	53
2023-08-03T00:00	10775	243	-38.7	-64.7	238	53
2023-08-03T00:00	10795	242	-38.6	-65.0	239	53
2023-08-03T00:00	10817	241	-38.7	-65.3	239	53
2023-08-03T00:00	10837	241	-38.9	-65.4	240	53
2023-08-03T00:00	10857	240	-39.0	-65.7	240	53
2023-08-03T00:00	10877	239	-39.1	-66.0	240	52
2023-08-03T00:00	10897	239	-39.2	-66.5	241	52
2023-08-03T00:00	10917	238	-39.3	-66.6	241	52
2023-08-03T00:00	10938	237	-39.4	-66.7	241	52
2023-08-03T00:00	10961	236	-39.5	-66.8	241	52
2023-08-03T00:00	10981	236	-39.7	-66.9	242	51
2023-08-03T00:00	11002	235	-39.8	-67.0	242	51
2023-08-03T00:00	11024	234	-39.9	-67.3	243	51
2023-08-03T00:00	11048	233	-40.1	-67.9	244	51
2023-08-03T00:00	11068	233	-40.1	-68.2	244	51
2023-08-03T00:00	11090	232	-40.1	-68.4	245	51
2023-08-03T00:00	11112	231	-40.2	-69.1	245	50
2023-08-03T00:00	11137	230	-40.3	-69.1	245	50
2023-08-03T00:00	11159	230	-40.4	-69.2	245	49
2023-08-03T00:00	11182	229	-40.5	-69.3	245	48
2023-08-03T00:00	11204	228	-40.6	-69.1	245	47
2023-08-03T00:00	11226	227	-40.7	-68.9	245	47
2023-08-03T00:00	11247	227	-40.7	-68.6	245	46
2023-08-03T00:00	11269	226	-40.8	-68.7	245	46
2023-08-03T00:00	11292	225	-40.9	-69.1	246	46
2023-08-03T00:00	11315	224	-41.0	-69.1	246	46
2023-08-03T00:00	11337	224	-41.1	-69.2	247	46
2023-08-03T00:00	11357	223	-41.2	-69.3	247	46
2023-08-03T00:00	11378	222	-41.4	-69.4	247	46
2023-08-03T00:00	11399	222	-41.4	-69.7	248	45
2023-08-03T00:00	11421	221	-41.5	-70.1	248	45
2023-08-03T00:00	11443	220	-41.6	-70.1	248	45
2023-08-03T00:00	11464	219	-41.7	-70.5	249	45
2023-08-03T00:00	11486	219	-41.9	-70.9	249	45
2023-08-03T00:00	11509	218	-42.0	-70.7	249	44
2023-08-03T00:00	11530	217	-42.2	-70.9	249	44
2023-08-03T00:00	11553	217	-42.4	-71.3	249	44
2023-08-03T00:00	11575	216	-42.5	-71.4	249	44
2023-08-03T00:00	11595	215	-42.6	-71.8	249	44
2023-08-03T00:00	11618	215	-42.8	-71.9	248	44
2023-08-03T00:00	11638	214	-43.0	-72.1	248	43
2023-08-03T00:00	11660	213	-43.0	-72.8	247	43
2023-08-03T00:00	11683	212	-43.2	-72.9	247	43
2023-08-03T00:00	11705	212	-43.0	-72.4	246	43
2023-08-03T00:00	11725	211	-42.9	-71.7	246	43
2023-08-03T00:00	11744	211	-43.1	-71.9	245	43
2023-08-03T00:00	11766	210	-43.2	-71.9	245	42
2023-08-03T00:00	11789	209	-43.2	-71.9	244	42
2023-08-03T00:00	11810	209	-43.3	-72.0	243	42
2023-08-03T00:00	11832	208	-43.5	-72.2	242	42
2023-08-03T00:00	11856	207	-43.7	-72.6	242	42
2023-08-03T00:00	11879	206	-43.8	-72.7	241	42
2023-08-03T00:00	11902	206	-44.0	-73.2	241	42
2023-08-03T00:00	11922	205	-44.1	-73.6	241	43
2023-08-03T00:00	11943	204	-44.2	-74.0	241	43
2023-08-03T00:00	11963	204	-44.2	-74.4	241	43
2023-08-03T00:00	11983	203	-44.3	-74.8	241	43
2023-08-03T00:00	12003	203	-44.5	-75.0	241	43
2023-08-03T00:00	12020	202	-44.6	-75.1	241	43
2023-08-03T00:00	12041	201	-44.7	-75.1	242	43
2023-08-03T00:00	12061	201	-44.7	-75.6	242	43
2023-08-03T00:00	12079	200	-44.8	-75.6	242	43
2023-08-03T00:00	12100	200	-45.0	-75.8	242	43
2023-08-03T00:00	12117	199	-45.1	-75.9	243	43
2023-08-03T00:00	12138	199	-45.2	-75.9	243	43
2023-08-03T00:00	12159	198	-45.3	-76.0	243	43
2023-08-03T00:00	12179	197	-45.5	-76.2	243	43
2023-08-03T00:00	12198	197	-45.6	-76.2	243	43
2023-08-03T00:00	12216	196	-45.6	-76.2	243	42
2023-08-03T00:00	12237	196	-45.5	-76.2	242	42
2023-08-03T00:00	12254	195	-45.6	-76.2	242	42
2023-08-03T00:00	12274	195	-45.7	-76.3	242	42
2023-08-03T00:00	12293	194	-45.8	-76.4	242	42
2023-08-03T00:00	12311	193	-45.8	-76.4	242	42
2023-08-03T00:00	12326	193	-46.0	-76.5	242	42
2023-08-03T00:00	12346	192	-46.0	-76.5	242	43
2023-08-03T00:00	12363	192	-46.1	-76.6	243	43
2023-08-03T00:00	12379	191	-46.0	-76.5	243	43
2023-08-03T00:00	12396	191	-45.9	-76.1	244	43
2023-08-03T00:00	12414	190	-45.9	-76.1	245	43
2023-08-03T00:00	12431	190	-45.8	-76.0	245	43
2023-08-03T00:00	12450	189	-45.9	-76.5	246	43
2023-08-03T00:00	12469	189	-45.8	-76.4	246	42
2023-08-03T00:00	12487	188	-45.6	-76.7	247	42
2023-08-03T00:00	12505	188	-45.6	-76.7	248	41
2023-08-03T00:00	12524	187	-45.6	-77.1	248	41
2023-08-03T00:00	12543	187	-45.6	-77.1	249	41
2023-08-03T00:00	12561	186	-45.6	-77.1	249	41
2023-08-03T00:00	12579	186	-45.8	-77.3	249	40
2023-08-03T00:00	12600	185	-45.8	-77.3	250	40
2023-08-03T00:00	12617	185	-46.0	-77.4	250	40
2023-08-03T00:00	12634	184	-46.1	-77.5	250	39
2023-08-03T00:00	12652	184	-46.2	-77.6	250	39
2023-08-03T00:00	12669	183	-46.4	-77.3	250	39
2023-08-03T00:00	12687	183	-46.5	-77.3	250	39
2023-08-03T00:00	12705	182	-46.6	-77.4	250	38
2023-08-03T00:00	12722	182	-46.7	-77.5	249	38
2023-08-03T00:00	12741	181	-46.8	-77.6	249	38
2023-08-03T00:00	12760	181	-46.9	-77.6	249	38
2023-08-03T00:00	12776	180	-47.1	-77.8	249	38
2023-08-03T00:00	12795	180	-47.2	-77.9	249	38
2023-08-03T00:00	12815	179	-47.3	-77.9	249	38
2023-08-03T00:00	12831	179	-47.5	-78.1	248	37
2023-08-03T00:00	12849	178	-47.6	-77.7	248	37
2023-08-03T00:00	12868	178	-47.8	-77.9	248	37
2023-08-03T00:00	12889	177	-48.0	-78.5	247	37
2023-08-03T00:00	12909	177	-48.1		247	36
2023-08-03T00:00	12927	176	-48.2	-78.2	246	36
2023-08-03T00:00	12945	176	-48.2	-78.2	245	35
2023-08-03T00:00	12962	175	-48.3	-78.7	245	35
2023-08-03T00:00	12981	175	-48.3	-78.7	244	35
2023-08-03T00:00	13005	174	-48.2	-79.1	243	34
2023-08-03T00:00	13023	174	-48.2	-79.1	243	33
2023-08-03T00:00	13042	173	-48.2	-79.1	242	33
2023-08-03T00:00	13065	173	-48.2	-79.6	242	33
2023-08-03T00:00	13082	172	-48.2	-79.6	241	32
2023-08-03T00:00	13100	172	-48.3	-79.6	241	32
2023-08-03T00:00	13119	171	-48.5	-79.3	240	32
2023-08-03T00:00	13139	171	-48.6	-79.4	240	32
2023-08-03T00:00	13157	170	-48.8	-79.5	239	32
2023-08-03T00:00	13177	170	-49.0	-79.7	238	32
2023-08-03T00:00	13195	169	-49.0	-79.7	237	32
2023-08-03T00:00	13217	169	-49.0	-80.2	236	32
2023-08-03T00:00	13241	168	-49.2	-80.3	236	33
2023-08-03T00:00	13260	168	-49.3	-80.4	235	33
2023-08-03T00:00	13287	167	-49.4	-80.5	234	33
2023-08-03T00:00	13307	166	-49.6	-80.1	234	34
2023-08-03T00:00	13326	166	-49.8	-80.3	233	34
2023-08-03T00:00	13348	165	-49.9	-80.3	233	34
2023-08-03T00:00	13366	165	-50.1	-80.5	233	34
2023-08-03T00:00	13382	164	-50.2	-80.6	233	33
2023-08-03T00:00	13402	164	-50.2	-80.6	233	33
2023-08-03T00:00	13422	164	-50.3	-80.6	234	33
2023-08-03T00:00	13439	163	-50.3	-80.6	235	33
2023-08-03T00:00	13461	163	-50.4	-80.7	235	32
2023-08-03T00:00	13481	162	-50.5	-80.8	236	32
2023-08-03T00:00	13503	161	-50.7	-80.9	237	32
2023-08-03T00:00	13522	161	-50.8	-81.0	238	32
2023-08-03T00:00	13543	160	-50.9	-80.6	238	32
2023-08-03T00:00	13564	160	-51.0	-80.7	239	31
2023-08-03T00:00	13585	159	-51.2	-80.9	240	31
2023-08-03T00:00	13607	159	-51.3	-80.9	242	30
2023-08-03T00:00	13630	158	-51.4	-81.0	243	30
2023-08-03T00:00	13655	158	-51.4	-81.0	244	29
2023-08-03T00:00	13671	157	-51.5	-80.7	244	29
2023-08-03T00:00	13692	157	-51.4	-80.6	245	28
2023-08-03T00:00	13712	156	-51.4	-80.6	245	28
2023-08-03T00:00	13733	156	-51.4	-80.6	245	28
2023-08-03T00:00	13752	155	-51.4	-80.6	246	28
2023-08-03T00:00	13775	155	-51.4	-80.2	246	27
2023-08-03T00:00	13793	154	-51.4	-80.2	247	27
2023-08-03T00:00	13814	154	-51.5	-80.3	247	27
2023-08-03T00:00	13836	153	-51.6	-80.0	247	27
2023-08-03T00:00	13856	153	-51.7	-80.1	247	27
2023-08-03T00:00	13878	152	-51.7	-80.1	247	26
2023-08-03T00:00	13899	152	-51.8	-80.1	246	26
2023-08-03T00:00	13920	151	-51.9	-80.2	246	26
2023-08-03T00:00	13942	151	-52.0	-80.0	246	26
2023-08-03T00:00	13965	150	-52.1	-80.0	245	26
2023-08-03T00:00	13987	150	-52.3	-79.9	245	26
2023-08-03T00:00	14008	149	-52.5	-80.0	245	26
2023-08-03T00:00	14029	149	-52.7	-80.2	245	26
2023-08-03T00:00	14052	148	-52.8	-79.9	245	27
2023-08-03T00:00	14076	148	-52.9	-80.0	245	27
2023-08-03T00:00	14099	147	-53.1	-80.2	245	28
2023-08-03T00:00	14122	147	-52.7	-79.8	245	28
2023-08-03T00:00	14145	146	-52.7	-79.6	246	29
2023-08-03T00:00	14169	146	-52.8	-79.6	246	30
2023-08-03T00:00	14188	145	-52.7	-79.6	247	30
2023-08-03T00:00	14209	145	-52.9	-79.7	247	31
2023-08-03T00:00	14232	144	-52.9	-79.7	247	32
2023-08-03T00:00	14255	144	-53.0	-79.8	248	32
2023-08-03T00:00	14276	143	-53.0	-79.8	248	33
2023-08-03T00:00	14298	143	-52.9	-80.0	249	33
2023-08-03T00:00	14319	142	-52.8	-79.9	249	33
2023-08-03T00:00	14342	142	-52.7	-80.2	250	33
2023-08-03T00:00	14362	141	-52.8	-80.2	250	32
2023-08-03T00:00	14384	141	-52.9	-80.3	251	32
2023-08-03T00:00	14406	140	-52.7	-80.5	251	31
2023-08-03T00:00	14428	140	-52.6	-80.4	251	30
2023-08-03T00:00	14449	140	-52.4	-80.6	252	29
2023-08-03T00:00	14471	139	-52.0	-80.7	252	29
2023-08-03T00:00	14492	139	-52.1	-80.7	252	28
2023-08-03T00:00	14510	138	-51.7	-80.4	253	28
2023-08-03T00:00	14533	138	-51.4	-80.6	253	28
2023-08-03T00:00	14553	137	-51.5	-80.7	253	29
2023-08-03T00:00	14576	137	-51.6	-80.8	254	29
2023-08-03T00:00	14597	136	-51.7	-80.8	255	29
2023-08-03T00:00	14620	136	-51.8	-80.9	256	30
2023-08-03T00:00	14641	135	-51.8	-80.9	256	30
2023-08-03T00:00	14662	135	-51.6	-80.8	257	30
2023-08-03T00:00	14682	135	-51.5	-81.1	257	30
2023-08-03T00:00	14700	134	-51.4	-81.0	257	30
2023-08-03T00:00	14719	134	-51.4	-81.0	257	29
2023-08-03T00:00	14742	133	-51.2	-80.9	256	29
2023-08-03T00:00	14763	133	-51.2	-80.9	255	28
2023-08-03T00:00	14787	132	-51.2	-80.9	254	27
2023-08-03T00:00	14812	132	-51.2	-80.9	253	27
2023-08-03T00:00	14832	132	-51.3	-80.9	253	26
2023-08-03T00:00	14854	131	-51.3	-80.9	252	26
2023-08-03T00:00	14877	131	-51.5	-81.1	250	26
2023-08-03T00:00	14899	130	-51.7	-81.2	249	26
2023-08-03T00:00	14923	130	-51.8	-81.3	247	25
2023-08-03T00:00	14946	129	-51.9	-81.4	245	25
2023-08-03T00:00	14969	129	-51.8	-81.3	243	25
2023-08-03T00:00	14998	128	-51.9	-81.4	242	24
2023-08-03T00:00	15019	128	-52.1	-81.1	240	24
2023-08-03T00:00	15046	127	-52.2	-81.2	238	24
2023-08-03T00:00	15072	127	-52.4	-81.4	237	24
2023-08-03T00:00	15091	126	-52.6	-81.5	235	24
2023-08-03T00:00	15115	126	-52.6	-81.5	234	25
2023-08-03T00:00	15137	125	-52.7	-81.6	232	25
2023-08-03T00:00	15163	125	-52.7	-81.6	231	26
2023-08-03T00:00	15187	125	-52.8	-81.7	229	26
2023-08-03T00:00	15213	124	-52.8	-81.7	228	27
2023-08-03T00:00	15236	124	-53.0	-81.8	227	27
2023-08-03T00:00	15259	123	-53.1	-81.9	226	28
2023-08-03T00:00	15283	123	-53.2	-82.0	226	28
2023-08-03T00:00	15305	122	-53.3	-82.0	226	28
2023-08-03T00:00	15327	122	-53.3	-82.0	226	28
2023-08-03T00:00	15350	121	-53.2	-82.0	227	28
2023-08-03T00:00	15373	121	-53.4	-82.1	228	28
2023-08-03T00:00	15396	121	-53.5	-82.2	229	28
2023-08-03T00:00	15416	120	-53.5	-82.6	231	27
2023-08-03T00:00	15441	120	-53.1	-82.3	232	27
2023-08-03T00:00	15467	119	-52.7	-82.4	234	26
2023-08-03T00:00	15494	119	-52.1	-82.0	236	25
2023-08-03T00:00	15525	118	-52.2	-82.5	238	24
2023-08-03T00:00	15564	117	-52.3	-82.6	240	24
2023-08-03T00:00	15592	117	-52.3	-82.1	243	23
2023-08-03T00:00	15627	116	-52.5	-82.3	246	23
2023-08-03T00:00	15661	116	-52.6	-82.4	249	23
2023-08-03T00:00	15678	115	-52.6	-82.4	251	22
2023-08-03T00:00	15700	115	-52.6	-82.4	253	22
2023-08-03T00:00	15721	115	-52.7	-82.4	255	21
2023-08-03T00:00	15742	114	-52.7	-82.4	257	21
2023-08-03T00:00	15764	114	-52.6	-82.4	258	20
2023-08-03T00:00	15786	113	-52.6	-82.8	258	19
2023-08-03T00:00	15812	113	-52.5	-82.8	258	17
2023-08-03T00:00	15836	113	-52.2	-82.5	258	16
2023-08-03T00:00	15866	112	-51.5	-82.5	257	15
2023-08-03T00:00	15891	112	-51.5	-82.5	255	14
2023-08-03T00:00	15914	111	-51.4	-82.5	253	13
2023-08-03T00:00	15946	111	-51.5	-82.5	251	12
2023-08-03T00:00	15976	110	-51.6	-82.6	249	11
2023-08-03T00:00	16006	110	-51.9	-82.8	247	11
2023-08-03T00:00	16035	109	-52.2	-82.5	244	11
2023-08-03T00:00	16058	109	-52.4	-82.7	241	11
2023-08-03T00:00	16082	108	-52.6	-82.8	239	11
2023-08-03T00:00	16109	108	-52.7	-82.9	237	11
2023-08-03T00:00	16131	108	-52.8	-83.0	235	11
2023-08-03T00:00	16153	107	-53.0	-83.1	233	11
2023-08-03T00:00	16179	107	-53.2	-83.3	232	11
2023-08-03T00:00	16207	106	-53.4	-83.0	230	11
2023-08-03T00:00	16231	106	-53.6	-83.1	227	11
2023-08-03T00:00	16252	106	-53.7	-83.2	225	12
2023-08-03T00:00	16276	105	-54.0	-83.4	223	12
2023-08-03T00:00	16303	105	-54.2	-83.6	221	12
2023-08-03T00:00	16327	104	-54.3	-83.6	221	13
2023-08-03T00:00	16353	104	-54.4	-83.7	221	14
2023-08-03T00:00	16374	104	-54.5	-83.8	222	14
2023-08-03T00:00	16396	103	-54.4	-83.7	224	15
2023-08-03T00:00	16422	103	-54.3	-83.6	225	15
2023-08-03T00:00	16448	102	-54.4	-83.7	227	16
2023-08-03T00:00	16474	102	-54.6	-83.9	229	17
2023-08-03T00:00	16505	101	-54.7	-83.9	231	17
2023-08-03T00:00	16535	101	-54.9	-84.1	234	18
2023-08-03T00:00	16559	101	-54.8	-84.0	236	19
2023-08-03T00:00	16580	100	-54.8	-84.5	238	20
2023-08-03T00:00	16600	100	-54.7	-84.4	240	20
2023-08-03T00:00	16624	100	-54.5	-84.3	242	21
2023-08-03T00:00	16643	99	-54.1	-84.5	244	22
2023-08-03T00:00	16666	99	-53.7	-84.2	246	22
2023-08-03T00:00	16687	99	-53.0	-84.2	248	22
2023-08-03T00:00	16711	98	-53.1	-84.3	250	22
2023-08-03T00:00	16730	98	-53.0	-84.2	252	22
2023-08-03T00:00	16754	98	-53.0	-84.2	254	22
2023-08-03T00:00	16772	97	-52.9	-84.1	255	22
2023-08-03T00:00	16795	97	-52.6	-83.9	256	21
2023-08-03T00:00	16818	97	-52.3	-83.7	257	21
2023-08-03T00:00	16842	96	-52.4	-83.8	257	20
2023-08-03T00:00	16868	96	-52.4	-83.8	257	19
2023-08-03T00:00	16894	96	-52.5	-83.8	257	18
2023-08-03T00:00	16916	95	-52.6	-83.9	256	17
2023-08-03T00:00	16940	95	-52.7	-84.0	255	16
2023-08-03T00:00	16966	94	-52.7	-84.0	253	15
2023-08-03T00:00	16991	94	-52.7	-84.0	251	14
2023-08-03T00:00	17017	94	-52.9	-84.1	249	14
2023-08-03T00:00	17038	93	-53.1	-83.7	247	14
2023-08-03T00:00	17063	93	-53.1	-83.7	245	14
2023-08-03T00:00	17087	93	-53.2	-83.8	245	14
2023-08-03T00:00	17113	92	-53.4	-83.9	245	14
2023-08-03T00:00	17136	92	-53.6	-84.1	246	14
2023-08-03T00:00	17157	92	-53.7	-84.2	248	14
2023-08-03T00:00	17183	91	-53.4	-84.5	250	14
2023-08-03T00:00	17205	91	-53.3	-84.4	252	15
2023-08-03T00:00	17231	91	-53.4	-84.5	253	15
2023-08-03T00:00	17254	90	-53.4	-84.5	255	15
2023-08-03T00:00	17272	90	-53.4	-84.5	257	15
2023-08-03T00:00	17299	90	-53.5	-84.6	258	14
2023-08-03T00:00	17324	89	-53.4	-84.5	260	14
2023-08-03T00:00	17348	89	-53.5	-84.6	261	14
2023-08-03T00:00	17375	89	-53.6	-84.6	261	13
2023-08-03T00:00	17399	88	-53.6	-84.6	261	12
2023-08-03T00:00	17419	88	-53.5	-84.6	260	12
2023-08-03T00:00	17448	88	-53.1	-84.3	258	11
2023-08-03T00:00	17471	87	-53.3	-84.4	255	11
2023-08-03T00:00	17499	87	-53.5	-84.6	252	10
2023-08-03T00:00	17521	87	-53.6	-84.6	250	9
2023-08-03T00:00	17543	86	-53.7	-84.7	248	8
2023-08-03T00:00	17565	86	-53.7	-84.7	246	8
2023-08-03T00:00	17588	86	-53.5	-84.6	244	7
2023-08-03T00:00	17614	85	-53.5	-84.6	241	7
2023-08-03T00:00	17634	85	-53.5	-84.6	239	7
2023-08-03T00:00	17657	85	-53.6	-84.6	237	7
2023-08-03T00:00	17680	85	-53.8	-84.8	236	8
2023-08-03T00:00	17704	84	-53.8	-84.8	235	8
2023-08-03T00:00	17727	84	-53.9	-84.9	234	9
2023-08-03T00:00	17747	84	-54.0	-84.9	232	9
2023-08-03T00:00	17769	83	-53.9	-84.9	230	9
2023-08-03T00:00	17792	83	-53.9	-84.9	226	9
2023-08-03T00:00	17814	83	-54.0	-84.9	222	9
2023-08-03T00:00	17839	83	-53.8	-84.8	217	9
2023-08-03T00:00	17858	82	-53.7	-84.7	214	9
2023-08-03T00:00	17879	82	-53.8	-84.8	213	9
2023-08-03T00:00	17902	82	-53.8	-84.8	212	10
2023-08-03T00:00	17927	81	-53.9	-84.3	212	10
2023-08-03T00:00	17949	81	-54.1	-84.5	212	11
2023-08-03T00:00	17976	81	-54.3	-84.6	211	11
2023-08-03T00:00	17998	80	-54.5	-84.8	210	11
2023-08-03T00:00	18024	80	-54.7	-84.9	209	12
2023-08-03T00:00	18038	80	-54.8	-84.5	209	12
2023-08-03T00:00	18066	80	-55.0	-84.6	209	12
2023-08-03T00:00	18090	79	-55.2	-84.8	210	12
2023-08-03T00:00	18112	79	-55.4	-84.9	212	12
2023-08-03T00:00	18138	79	-55.3	-84.9	215	12
2023-08-03T00:00	18159	78	-55.3	-84.9	217	12
2023-08-03T00:00	18181	78	-55.4	-85.4	218	12
2023-08-03T00:00	18205	78	-55.3	-85.4	219	12
2023-08-03T00:00	18226	78	-54.9	-85.1	220	13
2023-08-03T00:00	18252	77	-54.4	-85.2	220	13
2023-08-03T00:00	18273	77	-54.6	-85.4	221	14
2023-08-03T00:00	18297	77	-54.7	-84.9	222	14
2023-08-03T00:00	18320	77	-54.8	-85.0	222	14
2023-08-03T00:00	18346	76	-54.8	-85.0	223	15
2023-08-03T00:00	18368	76	-54.9	-85.1	224	15
2023-08-03T00:00	18387	76	-54.9	-85.1	225	16
2023-08-03T00:00	18411	75	-55.1	-85.2	226	16
2023-08-03T00:00	18434	75	-55.2	-85.3	227	16
2023-08-03T00:00	18459	75	-55.3	-85.4	229	16
2023-08-03T00:00	18484	75	-55.4	-85.4	232	16
2023-08-03T00:00	18503	74	-55.5	-85.5	235	15
2023-08-03T00:00	18528	74	-55.5	-85.5	238	15
2023-08-03T00:00	18549	74	-55.2	-85.3	241	14
2023-08-03T00:00	18572	74	-55.0	-85.7	244	14
2023-08-03T00:00	18597	73	-54.5	-85.3	247	14
2023-08-03T00:00	18616	73	-54.3	-85.2	249	13
2023-08-03T00:00	18642	73	-54.4	-85.8	251	12
2023-08-03T00:00	18670	72	-54.2	-85.7	253	12
2023-08-03T00:00	18690	72	-53.7	-85.3	253	11
2023-08-03T00:00	18710	72	-53.3	-85.0	253	10
2023-08-03T00:00	18736	72	-53.5	-85.2	252	9
2023-08-03T00:00	18756	71	-53.7	-85.3	251	9
2023-08-03T00:00	18778	71	-53.5	-85.2	250	8
2023-08-03T00:00	18806	71	-53.4	-85.1	249	8
2023-08-03T00:00	18827	71	-53.4	-85.1	248	7
2023-08-03T00:00	18852	70	-53.3	-85.0	246	6
2023-08-03T00:00	18871	70	-53.2	-85.0	244	6
2023-08-03T00:00	18895	70	-53.2	-85.0	243	5
2023-08-03T00:00	18919	70	-53.2	-85.0	241	4
2023-08-03T00:00	18944	69	-53.4	-85.1	238	3
2023-08-03T00:00	18965	69	-53.2	-84.4	235	2
2023-08-03T00:00	18990	69	-53.4	-84.5	230	2
2023-08-03T00:00	19014	69	-53.5	-84.6	227	2
2023-08-03T00:00	19037	68	-53.6	-84.6	227	2
2023-08-03T00:00	19061	68	-53.7	-84.7	231	2
2023-08-03T00:00	19088	68	-53.5	-84.6	237	3
2023-08-03T00:00	19111	68	-53.5	-84.6	243	3
2023-08-03T00:00	19131	67	-53.6	-85.3	249	3
2023-08-03T00:00	19156	67	-53.2	-85.0	254	4
2023-08-03T00:00	19180	67	-52.7	-84.6	256	4
2023-08-03T00:00	19204	67	-52.4	-85.1	254	4
2023-08-03T00:00	19228	66	-52.3	-85.0	248	3
2023-08-03T00:00	19248	66	-52.3	-85.0	238	3
2023-08-03T00:00	19271	66	-51.7	-84.5	223	3
2023-08-03T00:00	19293	66	-51.3	-84.3	208	3
2023-08-03T00:00	19316	66	-51.3	-84.3	194	3
2023-08-03T00:00	19343	65	-51.5	-84.4	183	4
2023-08-03T00:00	19370	65	-51.6	-83.8	175	5
2023-08-03T00:00	19394	65	-51.8	-83.9	169	5
2023-08-03T00:00	19420	65	-51.8	-83.9	165	6
2023-08-03T00:00	19443	64	-52.0	-84.1	164	7
2023-08-03T00:00	19465	64	-52.2	-84.2	164	7
2023-08-03T00:00	19488	64	-52.2	-84.2	166	8
2023-08-03T00:00	19512	64	-52.4	-84.4	168	8
2023-08-03T00:00	19533	63	-52.4	-84.4	170	8
2023-08-03T00:00	19557	63	-52.2	-84.2	172	8
2023-08-03T00:00	19581	63	-52.0	-84.1	173	8
2023-08-03T00:00	19603	63	-52.1	-84.2	174	7
2023-08-03T00:00	19627	62	-52.0	-84.8	175	7
2023-08-03T00:00	19646	62	-51.7	-84.5	175	6
2023-08-03T00:00	19676	62	-51.4	-84.3	177	6
2023-08-03T00:00	19699	62	-50.9	-84.0	179	6
2023-08-03T00:00	19721	62	-50.8	-83.9	181	6
2023-08-03T00:00	19745	61	-50.8	-83.9	184	6
2023-08-03T00:00	19769	61	-50.7	-83.8	188	7
2023-08-03T00:00	19796	61	-50.8	-83.9	192	7
2023-08-03T00:00	19817	61	-50.9	-84.0	196	7
2023-08-03T00:00	19837	60	-51.1	-84.1	200	7
2023-08-03T00:00	19863	60	-51.2	-84.2	204	7
2023-08-03T00:00	19887	60	-51.3	-84.3	206	7
2023-08-03T00:00	19910	60	-51.4	-84.3	206	7
2023-08-03T00:00	19937	60	-51.4	-84.3	206	8
2023-08-03T00:00	19959	59	-51.2	-84.2	205	8
2023-08-03T00:00	19987	59	-51.2	-84.2	204	8
2023-08-03T00:00	20013	59	-51.2	-84.2	204	8
2023-08-03T00:00	20039	59	-51.3	-84.3	206	8
2023-08-03T00:00	20061	58	-51.3	-84.3	207	8
2023-08-03T00:00	20087	58	-51.3	-84.3	208	7
2023-08-03T00:00	20111	58	-51.2	-84.2	208	7
2023-08-03T00:00	20133	58	-51.1	-84.1	207	6
2023-08-03T00:00	20156	58	-50.9	-84.0	204	6
2023-08-03T00:00	20179	57	-51.1	-84.1	200	5
2023-08-03T00:00	20201	57	-51.0	-84.0	194	5
2023-08-03T00:00	20227	57	-51.1	-84.1	188	5
2023-08-03T00:00	20250	57	-51.1	-84.1	180	5
2023-08-03T00:00	20279	57	-51.2	-84.2	173	5
2023-08-03T00:00	20302	56	-51.2	-84.2	168	5
2023-08-03T00:00	20326	56	-51.3	-84.3	165	5
2023-08-03T00:00	20352	56	-51.3	-84.3	164	5
2023-08-03T00:00	20373	56	-51.4	-84.3	167	5
2023-08-03T00:00	20404	55	-51.6	-84.5	172	5
2023-08-03T00:00	20422	55	-51.4	-84.3	180	5
2023-08-03T00:00	20448	55	-51.5	-84.4	188	5
2023-08-03T00:00	20472	55	-51.5	-84.4	194	4
2023-08-03T00:00	20493	55	-51.5	-84.4	197	4
2023-08-03T00:00	20520	54	-51.4	-84.3	196	4
2023-08-03T00:00	20545	54	-51.1	-84.1	191	4
2023-08-03T00:00	20569	54	-51.1	-84.1	185	4
2023-08-03T00:00	20593	54	-51.1	-84.1	180	4
2023-08-03T00:00	20616	54	-50.9	-84.0	177	3
2023-08-03T00:00	20638	53	-51.0	-84.0	179	3
2023-08-03T00:00	20665	53	-50.9	-84.0	183	3
2023-08-03T00:00	20689	53	-51.0	-84.0	189	3
2023-08-03T00:00	20713	53	-50.8	-83.9	194	3
2023-08-03T00:00	20740	53	-50.8	-83.9	198	3
2023-08-03T00:00	20766	52	-50.8	-83.9	200	3
2023-08-03T00:00	20788	52	-50.8	-83.9	199	3
2023-08-03T00:00	20809	52	-50.7	-83.8	198	4
2023-08-03T00:00	20836	52	-50.7	-83.8	196	4
2023-08-03T00:00	20858	52	-50.9	-84.0	195	5
2023-08-03T00:00	20887	51	-51.1	-84.1	195	5
2023-08-03T00:00	20909	51	-51.2	-84.2	196	6
2023-08-03T00:00	20933	51	-51.2	-84.2	197	6
2023-08-03T00:00	20957	51	-51.3	-84.3	200	6
2023-08-03T00:00	20980	51	-51.2	-84.2	202	6
2023-08-03T00:00	21003	51	-51.1	-84.1	205	6
2023-08-03T00:00	21029	50	-51.1	-84.1	206	5
2023-08-03T00:00	21053	50	-51.1	-84.1	207	5
2023-08-03T00:00	21079	50	-51.2	-84.2	204	4
2023-08-03T00:00	21103	50	-51.3	-84.3	198	4
2023-08-03T00:00	21127	50	-51.3	-84.3	189	4
2023-08-03T00:00	21154	49	-51.4	-84.3	181	4
2023-08-03T00:00	21173	49	-51.3	-84.3	176	5
2023-08-03T00:00	21200	49	-51.3	-84.3	173	5
2023-08-03T00:00	21229	49	-51.5	-84.4	170	5
2023-08-03T00:00	21253	49	-51.7	-84.5	167	5
2023-08-03T00:00	21274	48	-51.7	-84.5	164	5
2023-08-03T00:00	21301	48	-51.5	-84.4	157	4
2023-08-03T00:00	21327	48	-51.4	-84.3	148	3
2023-08-03T00:00	21352	48	-51.4	-84.3	136	3
2023-08-03T00:00	21379	48	-51.4	-84.3	123	3
2023-08-03T00:00	21403	48	-51.5	-84.4	111	3
2023-08-03T00:00	21428	47	-51.6	-84.5	105	3
2023-08-03T00:00	21454	47	-51.5	-84.4	105	3
2023-08-03T00:00	21479	47	-51.3	-84.3	108	4
2023-08-03T00:00	21506	47	-51.3	-84.3	114	4
2023-08-03T00:00	21531	47	-51.3	-84.3	121	5
2023-08-03T00:00	21553	46	-51.4	-84.3	127	5
2023-08-03T00:00	21576	46	-51.4	-84.3	133	6
2023-08-03T00:00	21604	46	-51.4	-84.3	138	6
2023-08-03T00:00	21626	46	-51.5	-84.4	144	7
2023-08-03T00:00	21651	46	-51.6	-84.5	149	7
2023-08-03T00:00	21679	46	-51.7	-84.5	155	7
2023-08-03T00:00	21707	45	-51.8	-84.6	160	7
2023-08-03T00:00	21728	45	-51.9	-84.7	164	7
2023-08-03T00:00	21753	45	-52.0	-84.8	167	7
2023-08-03T00:00	21782	45	-52.1	-84.8	169	7
2023-08-03T00:00	21804	45	-51.9	-84.7	168	7
2023-08-03T00:00	21830	45	-51.6	-84.5	167	6
2023-08-03T00:00	21851	44	-51.5	-84.4	166	6
2023-08-03T00:00	21878	44	-51.4	-85.1	163	5
2023-08-03T00:00	21904	44	-51.4	-85.1	161	5
2023-08-03T00:00	21928	44	-51.3	-85.0	159	5
2023-08-03T00:00	21955	44	-51.3	-85.0	157	5
2023-08-03T00:00	21973	44	-51.2	-84.2	154	5
2023-08-03T00:00	22002	43	-51.3	-84.3	152	6
2023-08-03T00:00	22027	43	-51.3	-84.3	149	6
2023-08-03T00:00	22051	43	-51.2	-84.2	146	6
2023-08-03T00:00	22075	43	-51.2	-84.2	143	6
2023-08-03T00:00	22103	43	-51.3	-84.3	141	6
2023-08-03T00:00	22123	43	-51.2	-84.2	139	7
2023-08-03T00:00	22150	42	-51.2	-84.2	138	7
2023-08-03T00:00	22173	42	-51.2	-84.2	138	6
2023-08-03T00:00	22195	42	-51.1	-84.9	138	6
2023-08-03T00:00	22214	42	-51.1	-84.9	138	6
2023-08-03T00:00	22243	42	-51.1	-84.9	137	6
2023-08-03T00:00	22268	42	-50.8	-84.7	137	6
2023-08-03T00:00	22292	41	-50.6	-84.5	139	6
2023-08-03T00:00	22321	41	-50.3	-84.3	144	6
2023-08-03T00:00	22340	41	-50.3	-84.3	150	6
2023-08-03T00:00	22364	41	-50.3	-84.3	157	6
2023-08-03T00:00	22389	41	-50.5	-84.5	165	6
2023-08-03T00:00	22415	41	-50.6	-84.5	171	6
2023-08-03T00:00	22439	41	-50.7	-83.8	177	6
2023-08-03T00:00	22464	40	-50.9	-84.0	182	6
2023-08-03T00:00	22492	40	-50.9	-84.0	186	6
2023-08-03T00:00	22513	40	-50.8	-83.9	189	6
2023-08-03T00:00	22538	40	-50.9	-84.0	192	5
2023-08-03T00:00	22565	40	-51.0	-84.0	194	4
2023-08-03T00:00	22590	40	-50.9	-84.7	197	3
2023-08-03T00:00	22619	39	-50.9	-84.7	200	2
2023-08-03T00:00	22639	39	-50.8	-84.7	202	1
2023-08-03T00:00	22670	39	-50.5	-84.5	190	1
2023-08-03T00:00	22694	39	-50.5	-84.5	78	1
2023-08-03T00:00	22718	39	-50.3	-84.3	64	1
2023-08-03T00:00	22741	39	-50.4	-84.4	65	2
2023-08-03T00:00	22770	39	-50.4	-84.4	67	3
2023-08-03T00:00	22793	38	-50.4	-84.4	68	4
2023-08-03T00:00	22818	38	-50.3	-84.3	70	5
2023-08-03T00:00	22843	38	-50.3	-84.3	72	6
2023-08-03T00:00	22869	38	-50.2	-84.2	75	6
2023-08-03T00:00	22895	38	-50.0	-84.1	78	7
2023-08-03T00:00	22916	38	-49.9	-84.0	81	7
2023-08-03T00:00	22941	38	-49.9	-84.0	85	7
2023-08-03T00:00	22970	37	-50.0	-84.1	88	8
2023-08-03T00:00	22992	37	-50.1	-84.2	91	8
2023-08-03T00:00	23023	37	-50.1	-84.2	93	8
2023-08-03T00:00	23043	37	-50.2	-84.2	96	7
2023-08-03T00:00	23071	37	-50.2	-84.2	100	7
2023-08-03T00:00	23093	37	-50.3	-84.3	104	7
2023-08-03T00:00	23122	37	-50.3	-84.3	109	8
2023-08-03T00:00	23151	36	-50.1	-84.2	112	8
2023-08-03T00:00	23168	36	-50.2	-84.2	116	8
2023-08-03T00:00	23197	36	-50.2	-84.2	119	8
2023-08-03T00:00	23221	36	-50.2	-84.2	122	8
2023-08-03T00:00	23249	36	-50.3	-84.3	126	8
2023-08-03T00:00	23272	36	-50.1	-84.2	131	7
2023-08-03T00:00	23300	36	-50.0	-84.1	135	7
2023-08-03T00:00	23317	35	-50.0	-84.1	139	6
2023-08-03T00:00	23349	35	-50.1	-84.2	143	6
2023-08-03T00:00	23379	35	-50.2	-84.2	145	6
2023-08-03T00:00	23398	35	-50.3	-84.3	147	5
2023-08-03T00:00	23428	35	-50.4	-84.4	146	5
2023-08-03T00:00	23452	35	-50.5	-84.5	143	5
2023-08-03T00:00	23477	35	-50.6	-84.5	138	4
2023-08-03T00:00	23497	34	-50.6	-84.5	131	4
2023-08-03T00:00	23527	34	-50.6	-84.5	124	5
2023-08-03T00:00	23549	34	-50.6	-84.5	118	5
2023-08-03T00:00	23576	34	-50.7	-84.6	113	5
2023-08-03T00:00	23598	34	-50.7	-84.6	110	6
2023-08-03T00:00	23619	34	-50.8	-83.9	108	7
2023-08-03T00:00	23648	34	-50.9	-84.0	108	7
2023-08-03T00:00	23674	34	-51.1	-84.1	108	8
2023-08-03T00:00	23699	33	-51.1	-84.1	109	8
2023-08-03T00:00	23722	33	-51.1	-84.1	111	9
2023-08-03T00:00	23749	33	-51.1	-84.1	113	10
2023-08-03T00:00	23772	33	-51.2	-84.2	116	10
2023-08-03T00:00	23800	33	-51.3	-84.3	118	11
2023-08-03T00:00	23826	33	-51.5	-84.4	121	12
2023-08-03T00:00	23852	33	-51.5	-84.4	124	12
2023-08-03T00:00	23881	33	-51.7	-84.5	127	12
2023-08-03T00:00	23902	32	-51.7	-84.5	130	13
2023-08-03T00:00	23930	32	-51.6	-84.5	133	12
2023-08-03T00:00	23953	32	-51.5	-84.4	135	12
2023-08-03T00:00	23988	32	-51.5	-84.4	137	11
2023-08-03T00:00	24011	32	-51.4	-85.1	138	11
2023-08-03T00:00	24034	32	-51.4	-85.1	140	10
2023-08-03T00:00	24061	32	-51.5	-85.2	142	9
2023-08-03T00:00	24094	31	-51.5	-85.2	144	9
2023-08-03T00:00	24111	31	-51.4	-85.1	147	9
2023-08-03T00:00	24143	31	-51.2	-85.0	150	9
2023-08-03T00:00	24167	31	-51.1	-84.9	152	9
2023-08-03T00:00	24197	31	-51.2	-85.0	154	8
2023-08-03T00:00	24220	31	-51.0	-84.8	155	7
2023-08-03T00:00	24249	31	-50.7	-84.6	157	6
2023-08-03T00:00	24274	31	-50.4	-85.3	157	5
2023-08-03T00:00	24305	30	-50.2	-85.1	158	5
2023-08-03T00:00	24329	30	-49.8	-84.8	159	5
2023-08-03T00:00	24355	30	-49.6	-84.7	159	4
2023-08-03T00:00	24382	30	-49.6	-84.7	160	4
2023-08-03T00:00	24406	30	-49.5	-84.6	161	4
2023-08-03T00:00	24434	30	-49.4	-84.6	160	4
2023-08-03T00:00	24467	30	-49.4	-84.6	158	3
2023-08-03T00:00	24487	30	-49.3	-84.5	153	3
2023-08-03T00:00	24517	29	-49.4	-84.6	145	2
2023-08-03T00:00	24539	29	-49.4	-83.7	139	2
2023-08-03T00:00	24566	29	-49.5	-83.7	135	2
2023-08-03T00:00	24598	29	-49.4	-83.7	137	2
2023-08-03T00:00	24619	29	-49.4	-83.7	141	2
2023-08-03T00:00	24651	29	-49.3	-83.6	143	3
2023-08-03T00:00	24676	29	-49.2	-83.5	143	4
2023-08-03T00:00	24699	29	-49.3	-83.6	141	4
2023-08-03T00:00	24731	29	-49.3	-83.6	137	5
2023-08-03T00:00	24751	28	-49.3	-83.6	134	6
2023-08-03T00:00	24780	28	-49.3	-83.6	130	6
2023-08-03T00:00	24808	28	-49.4	-83.7	128	7
2023-08-03T00:00	24832	28	-49.5	-83.7	127	7
2023-08-03T00:00	24860	28	-49.6	-83.8	127	8
2023-08-03T00:00	24881	28	-49.7	-83.9	129	8
2023-08-03T00:00	24905	28	-49.7	-83.9	132	8
2023-08-03T00:00	24933	28	-49.8	-84.0	136	8
2023-08-03T00:00	24957	28	-49.8	-84.0	140	8
2023-08-03T00:00	24990	27	-49.9	-84.0	144	8
2023-08-03T00:00	25007	27	-49.8	-84.0	147	8
2023-08-03T00:00	25036	27	-49.9	-84.0	150	8
2023-08-03T00:00	25061	27	-49.9	-84.0	152	7
2023-08-03T00:00	25085	27	-49.8	-84.0	153	7
2023-08-03T00:00	25106	27	-49.8	-84.0	153	6
2023-08-03T00:00	25133	27	-49.7	-84.8	154	6
2023-08-03T00:00	25165	27	-49.5	-84.6	154	6
2023-08-03T00:00	25187	27	-49.4	-84.6	154	6
2023-08-03T00:00	25210	27	-49.4	-84.6	155	6
2023-08-03T00:00	25232	26	-49.4	-84.6	157	5
2023-08-03T00:00	25262	26	-49.4	-84.6	159	5
2023-08-03T00:00	25280	26	-49.3	-84.5	161	4
2023-08-03T00:00	25307	26	-49.2	-84.4	162	3
2023-08-03T00:00	25332	26	-49.0	-84.3	162	3
2023-08-03T00:00	25353	26	-48.9	-84.2	160	2
2023-08-03T00:00	25376	26	-48.7	-84.1	159	2
2023-08-03T00:00	25405	26	-48.3	-83.8	165	1
2023-08-03T00:00	25428	26	-48.0	-83.6	182	1
2023-08-03T00:00	25453	26	-47.8	-84.5	200	1
2023-08-03T00:00	25483	25	-47.7	-84.4	210	1
2023-08-03T00:00	25513	25	-47.5	-84.3	213	1
2023-08-03T00:00	25534	25	-47.5	-84.3	215	1
2023-08-03T00:00	25552	25	-47.5	-84.3	220	1
2023-08-03T00:00	25586	25	-47.4	-84.2	241	0
2023-08-03T00:00	25618	25	-47.3	-84.1	359	1
2023-08-03T00:00	25644	25	-47.2	-83.0	21	1
2023-08-03T00:00	25670	25	-47.1	-82.9	29	2
2023-08-03T00:00	25698	25	-47.2	-83.0	36	3
2023-08-03T00:00	25716	25	-47.3	-83.1	42	3
2023-08-03T00:00	25752	24	-47.3	-83.1	48	3
2023-08-03T00:00	25773	24	-47.2	-83.0	54	3
2023-08-03T00:00	25810	24	-47.3	-83.1	61	4
2023-08-03T00:00	25827	24	-47.3	-83.1	66	4
2023-08-03T00:00	25858	24	-47.2	-83.0	72	4
2023-08-03T00:00	25883	24	-47.1	-82.9	78	4
2023-08-03T00:00	25922	24	-47.0	-83.9	84	4
2023-08-03T00:00	25940	24	-47.0	-83.9	91	4
2023-08-03T00:00	25970	24	-47.0	-83.9	97	4
2023-08-03T00:00	25999	24	-47.0	-82.9	104	4
2023-08-03T00:00	26021	23	-47.2	-83.0	109	4
2023-08-03T00:00	26048	23	-47.3	-83.1	113	4
2023-08-03T00:00	26079	23	-47.2	-83.0	114	4
2023-08-03T00:00	26117	23	-47.2	-83.0	111	5
2023-08-03T00:00	26139	23	-47.1	-84.0	104	5
2023-08-03T00:00	26162	23	-47.0	-83.9	97	5
2023-08-03T00:00	26193	23	-46.8	-83.8	90	6
2023-08-03T00:00	26223	23	-46.6	-83.6	85	7
2023-08-03T00:00	26251	23	-46.6	-83.6	83	7
2023-08-03T00:00	26281	23	-46.6	-83.6	82	8
2023-08-03T00:00	26308	22	-46.6	-83.6	84	8
2023-08-03T00:00	26333	22	-46.6	-83.6	86	8
2023-08-03T00:00	26361	22	-46.5	-83.6	90	7
2023-08-03T00:00	26389	22	-46.5	-83.6	93	7
2023-08-03T00:00	26417	22	-46.5	-83.6	94	7
2023-08-03T00:00	26442	22	-46.5	-83.6	94	7
2023-08-03T00:00	26476	22	-46.4	-83.5	94	7
2023-08-03T00:00	26498	22	-46.3	-83.4	92	7
2023-08-03T00:00	26526	22	-46.2	-83.4	91	7
2023-08-03T00:00	26548	22	-46.3	-83.4	89	7
2023-08-03T00:00	26587	22	-46.3	-83.4	88	7
2023-08-03T00:00	26605	21	-46.3	-83.4	87	7
2023-08-03T00:00	26625	21	-46.3	-83.4	86	7
2023-08-03T00:00	26659	21	-46.3	-83.4	85	7
2023-08-03T00:00	26691	21	-46.3	-83.4	85	6
2023-08-03T00:00	26706	21	-46.3	-83.4	86	6
2023-08-03T00:00	26741	21	-46.1	-83.3	87	6
2023-08-03T00:00	26765	21	-46.0	-83.2	88	6
2023-08-03T00:00	26785	21	-45.9	-83.2	90	5
2023-08-03T00:00	26824	21	-45.9	-83.2	90	5
2023-08-03T00:00	26847	21	-45.8	-83.1	90	5
2023-08-03T00:00	26873	21	-45.9	-83.2	89	5
2023-08-03T00:00	26891	21	-45.9	-83.2	89	5
2023-08-03T00:00	26928	20	-45.9	-83.2	89	5
2023-08-03T00:00	26947	20	-45.8	-83.1	90	5
2023-08-03T00:00	26979	20	-45.8	-83.1	93	5
2023-08-03T00:00	27004	20	-45.8	-83.1	99	4
2023-08-03T00:00	27024	20	-45.7	-83.0	106	4
2023-08-03T00:00	27050	20	-45.7	-83.0	112	4
2023-08-03T00:00	27079	20	-45.6	-82.9	114	4
2023-08-03T00:00	27121	20	-45.5	-82.9	111	4
2023-08-03T00:00	27139	20	-45.5	-82.9	103	4
2023-08-03T00:00	27166	20	-45.3	-82.7	90	4
2023-08-03T00:00	27194	20	-45.3	-82.7	78	4
2023-08-03T00:00	27220	20	-45.3	-82.7	68	5
2023-08-03T00:00	27246	20	-45.3	-82.7	62	5
2023-08-03T00:00	27269	19	-45.3	-82.7	59	6
2023-08-03T00:00	27303	19	-45.4	-82.8	59	6
2023-08-03T00:00	27330	19	-45.4	-82.8	59	6
2023-08-03T00:00	27357	19	-45.5	-82.9	61	7
2023-08-03T00:00	27387	19	-45.6	-82.9	64	8
2023-08-03T00:00	27417	19	-45.6	-82.9	66	8
2023-08-03T00:00	27434	19	-45.5	-82.9	69	9
2023-08-03T00:00	27471	19	-45.7	-83.0	73	9
2023-08-03T00:00	27507	19	-45.8	-83.1	76	10
2023-08-03T00:00	27540	19	-45.9	-83.2	80	10
2023-08-03T00:00	27569	19	-45.9	-83.2	84	10
2023-08-03T00:00	27591	19	-45.9	-83.2	87	10
2023-08-03T00:00	27622	18	-46.0	-83.2	90	10
2023-08-03T00:00	27658	18	-46.1	-83.3	92	9
2023-08-03T00:00	27677	18	-46.3	-83.4	94	9
2023-08-03T00:00	27707	18	-46.4	-83.5	96	8
2023-08-03T00:00	27738	18	-46.4	-83.5	97	8
2023-08-03T00:00	27769	18	-46.4	-83.5	97	7
2023-08-03T00:00	27799	18	-46.4	-83.5	97	7
2023-08-03T00:00	27820	18	-46.4	-83.5	94	7
2023-08-03T00:00	27857	18	-46.5	-83.6	91	7
2023-08-03T00:00	27882	18	-46.4	-83.5	89	8
2023-08-03T00:00	27910	18	-46.2	-83.4	87	8
2023-08-03T00:00	27937	18	-46.2	-83.4	86	9
2023-08-03T00:00	27972	18	-46.2	-83.4	86	10
2023-08-03T00:00	27998	17	-46.1	-83.3	86	10
2023-08-03T00:00	28026	17	-45.9	-83.2	87	10
2023-08-03T00:00	28057	17	-45.9	-83.2	88	10
2023-08-03T00:00	28092	17	-45.7	-83.0	88	10
2023-08-03T00:00	28123	17	-45.7	-83.0	88	9
2023-08-03T00:00	28146	17	-45.7	-83.0	87	9
2023-08-03T00:00	28171	17	-45.6	-82.9	85	9
2023-08-03T00:00	28193	17	-45.6	-82.9	83	9
2023-08-03T00:00	28217	17	-45.6	-82.9	82	9
2023-08-03T00:00	28242	17	-45.7	-83.0	83	9
2023-08-03T00:00	28284	17	-45.6	-82.9	84	9
2023-08-03T00:00	28301	17	-45.7	-83.0	87	10
2023-08-03T00:00	28335	17	-45.8	-83.1	90	10
2023-08-03T00:00	28352	17	-45.8	-83.1	93	10
2023-08-03T00:00	28383	16	-46.0	-83.2	96	10
2023-08-03T00:00	28402	16	-46.0	-83.2	98	10
2023-08-03T00:00	28429	16	-45.9	-83.2	100	9
2023-08-03T00:00	28456	16	-45.9	-83.2	102	9
2023-08-03T00:00	28491	16	-46.0	-83.2	104	8
2023-08-03T00:00	28508	16	-46.1	-83.3	105	8
2023-08-03T00:00	28533	16	-46.2	-83.4	106	8
2023-08-03T00:00	28555	16	-46.2	-83.4	107	8
2023-08-03T00:00	28590	16	-45.8	-83.1	110	7
2023-08-03T00:00	28605	16	-45.6	-82.9	113	7
2023-08-03T00:00	28642	16	-45.3	-82.7	117	7
2023-08-03T00:00	28669	16	-45.1	-82.6	120	7
2023-08-03T00:00	28689	16	-45.0	-82.5	121	7
2023-08-03T00:00	28720	16	-44.6	-82.2	121	6
2023-08-03T00:00	28740	16	-44.3	-82.0	119	6
2023-08-03T00:00	28769	16	-44.2	-82.0	117	6
2023-08-03T00:00	28781	15	-44.0	-81.8	115	6
2023-08-03T00:00	28824	15	-44.1	-81.9	114	6
2023-08-03T00:00	28843	15	-44.1	-81.9	113	6
2023-08-03T00:00	28864	15	-44.1	-81.9	113	7
2023-08-03T00:00	28892	15	-44.2	-82.0	114	7
2023-08-03T00:00	28923	15	-44.2	-82.0	116	8
2023-08-03T00:00	28948	15	-44.1	-81.9	119	8
2023-08-03T00:00	28964	15	-44.0	-81.8	122	8
2023-08-03T00:00	28999	15	-43.9	-81.8	125	8
2023-08-03T00:00	29028	15	-43.6	-81.5	127	8
2023-08-03T00:00	29048	15	-43.4	-81.4	127	7
2023-08-03T00:00	29081	15	-43.1	-81.2	125	7
2023-08-03T00:00	29106	15	-43.0	-81.1	123	6
2023-08-03T00:00	29141	15	-43.1	-81.2	120	6
2023-08-03T00:00	29161	15	-43.3	-81.3	116	6
2023-08-03T00:00	29189	15	-43.4	-81.4	113	6
2023-08-03T00:00	29220	15	-43.4	-81.4	110	6
2023-08-03T00:00	29245	14	-43.4	-81.4	106	7
2023-08-03T00:00	29292	14	-43.5	-81.5	103	7
2023-08-03T00:00	29315	14	-43.5	-81.5	99	7
2023-08-03T00:00	29342	14	-43.5	-81.5	95	7
2023-08-03T00:00	29366	14	-43.6	-81.5	90	7
2023-08-03T00:00	29400	14	-43.6	-81.5	86	7
2023-08-03T00:00	29423	14	-43.7	-81.6	83	8
2023-08-03T00:00	29461	14	-43.8	-81.7	82	8
2023-08-03T00:00	29479	14	-43.9	-81.8	84	8
2023-08-03T00:00	29515	14	-44.0	-81.8	87	9
2023-08-03T00:00	29552	14	-44.0	-81.8	91	9
2023-08-03T00:00	29568	14	-44.1	-81.9	95	9
2023-08-03T00:00	29597	14	-44.0	-81.8	99	9
2023-08-03T00:00	29635	14	-44.1	-81.9	104	9
2023-08-03T00:00	29653	14	-44.2	-82.0	108	10
2023-08-03T00:00	29670	14	-44.3	-82.0	113	10
2023-08-03T00:00	29708	14	-44.4	-82.1	117	10
2023-08-03T00:00	29741	13	-44.6	-82.2	121	10
2023-08-03T00:00	29765	13	-44.7	-82.3	123	11
2023-08-03T00:00	29791	13	-44.8	-82.4	125	12
2023-08-03T00:00	29828	13	-44.8	-82.4	126	12
2023-08-03T00:00	29858	13	-44.8	-82.4	126	12
2023-08-03T00:00	29884	13	-44.9	-82.5	127	12
2023-08-03T00:00	29895	13	-44.7	-82.3	127	11
2023-08-03T00:00	29930	13	-44.5	-82.2	127	10
2023-08-03T00:00	29956	13	-44.4	-82.1	127	10
2023-08-03T00:00	29991	13	-44.2	-82.0	127	9
2023-08-03T00:00	30000	13	-44.2	-82.0	127	8
2023-08-03T00:00	30041	13	-44.2	-82.0	126	7
2023-08-03T00:00	30055	13	-44.1	-81.9	125	6
2023-08-03T00:00	30097	13	-44.0	-81.8	124	5
2023-08-03T00:00	30116	13	-44.0	-81.8	123	4
2023-08-03T00:00	30142	13	-43.9	-81.8	119	3
2023-08-03T00:00	30164	13	-43.9	-81.8	108	3
2023-08-03T00:00	30183	13	-43.9	-81.8	90	3
2023-08-03T00:00	30219	13	-43.7	-81.6	71	3
2023-08-03T00:00	30240	12	-43.3	-81.3	60	4
2023-08-03T00:00	30258	12	-42.6	-80.8	55	5
2023-08-03T00:00	30292	12	-42.5	-80.8	54	5
2023-08-03T00:00	30307	12	-42.6	-80.8	54	6
2023-08-03T00:00	30324	12	-42.5	-80.8	54	6
2023-08-03T00:00	30364	12	-42.4	-80.7	54	6
2023-08-03T00:00	30399	12	-42.3	-80.6	54	7
2023-08-03T00:00	30406	12	-42.3	-80.6	55	7
2023-08-03T00:00	30439	12	-42.2	-80.6	56	7
2023-08-03T00:00	30455	12	-42.3	-80.6	57	8
2023-08-03T00:00	30475	12	-42.2	-80.6	59	9
2023-08-03T00:00	30509	12	-42.0	-80.4	60	10
2023-08-03T00:00	30532	12	-41.9	-80.4	61	10
2023-08-03T00:00	30554	12	-41.8	-80.3	62	11
2023-08-03T00:00	30589	12	-41.8	-80.3	62	12
2023-08-03T00:00	30611	12	-41.9	-80.4	63	12
2023-08-03T00:00	30629	12	-41.9	-80.4	63	13
2023-08-03T00:00	30661	12	-41.8	-80.3	63	13
2023-08-03T00:00	30676	12	-41.6	-80.1	64	13
2023-08-03T00:00	30709	12	-41.0	-79.7	65	13
2023-08-03T00:00	30729	12	-40.9	-79.7	65	12
2023-08-03T00:00	30768	12	-40.8	-79.6	66	12
2023-08-03T00:00	30784	12	-40.7	-79.5	67	11
2023-08-03T00:00	30814	11	-40.6	-79.5	69	11
2023-08-03T00:00	30828	11	-40.6	-79.5	71	11
2023-08-03T00:00	30862	11	-40.6	-79.5	74	11
2023-08-03T00:00	30883	11	-40.4	-79.3	76	12
2023-08-03T00:00	30909	11	-40.3	-79.2	78	12
2023-08-03T00:00	30941	11	-40.4	-79.3	79	12
2023-08-03T00:00	30965	11	-40.4	-79.3	80	13
2023-08-03T00:00	31006	11	-40.4	-79.3	82	13
2023-08-03T00:00	31023	11	-40.2	-79.2	82	13
2023-08-03T00:00	31049	11	-40.1	-79.1	84	13
2023-08-03T00:00	31083	11	-40.1	-79.1	85	12
2023-08-03T00:00	31108	11	-40.1	-79.1	86	12
2023-08-03T00:00	31130	11	-40.0	-79.0	87	12
2023-08-03T00:00	31156	11	-40.1	-79.1	88	12
2023-08-03T00:00	31181	11	-40.1	-79.1	89	12
2023-08-03T00:00	31212	11	-39.9	-79.0	90	12
2023-08-03T00:00	31228	11	-39.8	-78.9	91	12
2023-08-03T00:00	31255	11	-39.6	-78.8	92	12
2023-08-03T00:00	31279	11	-39.5	-78.7	92	12
2023-08-03T00:00	31298	11	-39.4	-78.6	93	12
2023-08-03T00:00	31330	11	-39.4	-78.6	93	12
2023-08-03T00:00	31351	11	-39.4	-78.6	94	12
2023-08-03T00:00	31386	11	-39.3	-78.5	95	12
2023-08-03T00:00	31412	11	-39.3	-78.5	96	11
2023-08-03T00:00	31445	10	-39.3	-78.5	97	11
2023-08-03T00:00	31464	10	-39.3	-78.5	97	11
2023-08-03T00:00	31483	10	-39.4	-78.6	96	10
2023-08-03T00:00	31508	10	-39.3	-78.5	94	10
2023-08-03T00:00	31536	10	-39.1	-78.4	91	10
2023-08-03T00:00	31579	10	-39.0	-78.3	87	11
2023-08-03T00:00	31592	10	-38.8	-78.2	83	11
2023-08-03T00:00	31612	10	-38.6	-78.1	80	12
2023-08-03T00:00	31645	10	-38.4	-77.9	77	12
2023-08-03T00:00	31655	10	-38.1	-77.7	74	13
2023-08-03T00:00	31685	10	-38.1	-77.7	72	13
2023-08-03T00:00	31709	10	-37.9	-77.6	71	14
2023-08-03T00:00	31749	10	-37.8	-77.5	70	14
2023-08-03T00:00	31769	10	-37.8	-77.5	71	14
2023-08-03T00:00	31783	10	-37.7	-77.4	73	15
2023-08-03T00:00	31821	10	-37.7	-77.4	75	15
2023-08-03T00:00	31847	10	-37.7	-77.4	77	15
2023-08-03T00:00	31872	10	-37.7	-77.4	79	15
2023-08-03T00:00	31889	10	-37.7	-77.4	81	14
2023-08-03T00:00	31913	10	-37.7	-77.4	82	14
2023-08-03T00:00	31947	10	-37.7	-77.4	83	14
2023-08-03T00:00	31983	10	-37.7	-77.4	84	13
2023-08-03T00:00	32017	10	-37.8	-77.5	85	13
2023-08-03T00:00	32056	10	-38.0	-77.6	86	13
2023-08-03T00:00	32077	10	-37.9	-77.6	87	13
2023-08-03T00:00	32125	10	-37.9	-77.6	88	14
2023-08-03T00:00	32127	9	-37.6	-77.4	88	14
2023-08-03T00:00	32171	9	-37.6	-77.4	89	14
2023-08-03T00:00	32203	9	-37.6	-77.4	89	14
2023-08-03T00:00	32221	9	-37.7	-77.4	90	15
2023-08-03T00:00	32253	9	-37.8	-77.5	90	15
2023-08-03T00:00	32276	9	-37.9	-77.6	91	15
2023-08-03T00:00	32313	9	-37.9	-77.6	92	15
2023-08-03T00:00	32337	9	-37.9	-77.6	94	15
2023-08-03T00:00	32363	9	-38.0	-77.6	97	16
2023-08-03T00:00	32396	9	-38.0	-77.6	99	16
2023-08-03T00:00	32424	9	-38.0	-77.6	102	16
2023-08-03T00:00	32455	9	-38.1	-77.7	103	16
2023-08-03T00:00	32501	9	-38.2	-77.8	105	16
2023-08-03T00:00	32507	9	-38.1	-77.7	106	16
2023-08-03T00:00	32522	9	-38.0	-77.6	107	16
2023-08-03T00:00	32578	9	-38.0	-77.6	108	15
2023-08-03T00:00	32588	9	-37.9	-77.6	110	14
2023-08-03T00:00	32609	9	-37.9	-77.6	112	14
2023-08-03T00:00	32650	9	-37.9	-77.6	115	14
2023-08-03T00:00	32694	9	-38.0	-77.6	118	13
2023-08-03T00:00	32714	9	-38.0	-77.6	120	13
2023-08-03T00:00	32746	9	-37.8	-77.5	122	13
2023-08-03T00:00	32762	9	-37.9	-77.6	124	12
2023-08-03T00:00	32807	9	-38.0	-77.6	125	11
2023-08-03T00:00	32844	9	-37.9	-77.6	123	9
2023-08-03T00:00	32869	9	-37.9	-77.6	121	9
2023-08-03T00:00	32890	8	-37.9	-77.6	117	8
2023-08-03T00:00	32929	8	-37.9	-77.6	113	7
2023-08-03T00:00	32937	8	-37.7	-77.4	107	7
2023-08-03T00:00	32988	8	-37.5	-77.3	102	7
2023-08-03T00:00	33007	8	-37.4	-77.2	96	7
2023-08-03T00:00	33022	8	-37.3	-77.2	91	7
2023-08-03T00:00	33044	8	-37.2	-77.1	86	7
2023-08-03T00:00	33079	8	-37.1	-77.0	83	8
2023-08-03T00:00	33095	8	-37.0	-77.0	81	8
2023-08-03T00:00	33136	8	-36.6	-76.7	81	9
2023-08-03T00:00	33145	8	-36.4	-76.5	82	9
2023-08-03T00:00	33174	8	-36.4	-76.5	84	9
2023-08-03T00:00	33182	8	-36.3	-76.5	87	9
2023-08-03T00:00	33216	8	-36.2	-76.4	89	9
2023-08-03T00:00	33263	8	-36.3	-76.5	92	9
2023-08-03T00:00	33270	8	-36.2	-76.4	95	9
2023-08-03T00:00	33290	8	-36.2	-76.4	97	9
2023-08-03T00:00	33315	8	-36.2	-76.4	99	9
2023-08-03T00:00	33349	8	-36.3	-76.5	100	9
2023-08-03T00:00	33365	8	-36.4	-76.5	100	9
2023-08-03T00:00	33378	8	-36.4	-76.5	100	9
2023-08-03T00:00	33415	8	-36.4	-76.5	99	8
2023-08-03T00:00	33449	8	-36.4	-76.5	97	8
2023-08-03T00:00	33464	8	-36.5	-76.6	90	7
2023-08-03T00:00	33485	8	-36.4	-76.5	86	6
2023-08-03T00:00	33501	8	-36.3	-76.5	80	6
2023-08-03T00:00	33549	8	-36.2	-76.4	74	6
2023-08-03T00:00	33579	8	-36.1	-76.3	68	6
2023-08-03T00:00	33589	8	-36.0	-76.3	62	6
2023-08-03T00:00	33628	8	-35.9	-76.2	58	7
2023-08-03T00:00	33666	8	-35.5	-75.9	53	8
2023-08-03T00:00	33685	8	-35.3	-75.8	52	9
2023-08-03T00:00	33701	8	-35.1	-75.6	53	10
2023-08-03T00:00	33728	8	-35.0	-75.6	55	11
2023-08-03T00:00	33738	8	-34.9	-75.5	56	12
2023-08-03T00:00	33781	7	-34.7	-75.4	58	13
2023-08-03T00:00	33790	7	-34.6	-75.3	59	14
2023-08-03T00:00	33819	7	-34.4	-75.2	60	14
2023-08-03T00:00	33847	7	-34.3	-75.1	61	15
2023-08-03T00:00	33880	7	-34.3	-75.1	63	16
2023-08-03T00:00	33912	7	-34.3	-75.1	66	17
2023-08-03T00:00	33923	7	-34.4	-75.2	68	17
2023-08-03T00:00	33940	7	-34.4	-75.2	70	17
2023-08-03T00:00	33982	7	-34.4	-75.2	72	18
2023-08-03T00:00	33995	7	-34.3	-75.1	73	18
2023-08-03T00:00	34030	7	-34.2	-75.0	74	17
2023-08-03T00:00	34043	7	-34.1	-75.0	74	17
2023-08-03T00:00	34059	7	-33.9	-74.8	73	17
2023-08-03T00:00	34078	7	-33.9	-74.8	72	16
2023-08-03T00:00	34113	7	-33.9	-74.8	71	15
2023-08-03T00:00	34122	7	-33.9	-74.8	70	14
2023-08-03T00:00	34146	7	-34.0	-74.9	69	13
2023-08-03T00:00	34190	7	-34.1	-75.0	68	13
2023-08-03T00:00	34194	7	-34.2	-75.0	66	12
2023-08-03T00:00	34237	7	-34.2	-75.0	65	11
2023-08-03T00:00	34245	7	-34.3	-75.1	65	11
2023-08-03T00:00	34269	7	-34.3	-75.1	65	11
2023-08-03T00:00	34284	7	-34.2	-75.0	65	12
2023-08-03T00:00	34313	7	-33.9	-74.8	66	12
2023-08-03T00:00	34356	7	-33.8	-74.7	66	13
2023-08-03T00:00	34393	7	-33.8	-74.7	67	13
2023-08-03T00:00	34403	7	-33.8	-74.7	68	14
2023-08-03T00:00	34435	7	-33.8	-74.7	68	14
2023-08-03T06:00	112	984	17.1	14.0	210	4
2023-08-03T06:00	134	981	17.8	13.4	205	4
2023-08-03T06:00	156	979	17.7	13.3	205	6
2023-08-03T06:00	182	976	17.5	13.2	207	8
2023-08-03T06:00	205	973	17.4	13.0	209	9
2023-08-03T06:00	236	970	17.4	12.7	212	11
2023-08-03T06:00	261	967	17.1	12.8	214	12
2023-08-03T06:00	286	964	16.9	12.8	216	12
2023-08-03T06:00	308	962	17.0	12.5	219	13
2023-08-03T06:00	332	959	17.0	12.1	222	14
2023-08-03T06:00	353	957	17.1	12.0	225	15
2023-08-03T06:00	376	954	16.9	11.9	229	16
2023-08-03T06:00	398	952	16.6	11.9	232	16
2023-08-03T06:00	421	949	16.7	11.7	235	17
2023-08-03T06:00	450	946	16.3	11.7	236	17
2023-08-03T06:00	480	942	16.2	11.4	236	18
2023-08-03T06:00	507	939	16.1	11.3	236	18
2023-08-03T06:00	531	937	15.9	11.2	237	19
2023-08-03T06:00	553	934	15.9	11.0	237	20
2023-08-03T06:00	577	932	15.8	10.8	238	21
2023-08-03T06:00	605	929	15.5	10.7	239	21
2023-08-03T06:00	630	926	15.4	10.6	240	22
2023-08-03T06:00	649	924	15.2	10.5	241	22
2023-08-03T06:00	671	922	15.2	10.4	241	22
2023-08-03T06:00	693	919	15.1	10.3	241	22
2023-08-03T06:00	717	917	14.9	10.1	241	21
2023-08-03T06:00	740	914	14.7	10.1	242	21
2023-08-03T06:00	763	911	14.4	9.9	242	21
2023-08-03T06:00	790	909	14.2	9.9	243	20
2023-08-03T06:00	815	906	14.0	9.7	244	21
2023-08-03T06:00	843	903	13.8	9.7	246	21
2023-08-03T06:00	869	900	13.6	9.6	247	22
2023-08-03T06:00	893	898	13.4	9.6	248	22
2023-08-03T06:00	914	895	13.2	9.4	249	23
2023-08-03T06:00	935	893	13.1	9.1	250	23
2023-08-03T06:00	960	890	12.9	9.2	250	23
2023-08-03T06:00	989	888	12.7	9.0	250	23
2023-08-03T06:00	1013	885	12.6	8.7	250	22
2023-08-03T06:00	1039	882	12.4	8.8	249	22
2023-08-03T06:00	1063	880	12.2	8.6	249	21
2023-08-03T06:00	1091	877	12.0	8.6	249	21
2023-08-03T06:00	1117	874	11.8	8.4	249	21
2023-08-03T06:00	1139	872	11.7	8.4	249	20
2023-08-03T06:00	1165	869	11.6	8.1	250	21
2023-08-03T06:00	1189	867	11.4	7.9	252	21
2023-08-03T06:00	1209	864	11.2	8.0	254	21
2023-08-03T06:00	1230	862	11.1	8.0	255	21
2023-08-03T06:00	1252	860	10.9	8.0	256	20
2023-08-03T06:00	1277	857	10.7	7.9	257	20
2023-08-03T06:00	1298	855	10.4	7.8	258	19
2023-08-03T06:00	1326	853	10.2	7.6	258	19
2023-08-03T06:00	1348	850	10.1	7.7	258	19
2023-08-03T06:00	1369	848	9.9	7.6	257	19
2023-08-03T06:00	1392	846	9.7	7.4	256	19
2023-08-03T06:00	1421	843	9.5	7.3	254	18
2023-08-03T06:00	1445	840	9.3	7.4	252	18
2023-08-03T06:00	1474	837	9.0	7.2	250	17
2023-08-03T06:00	1503	835	8.8	7.0	249	16
2023-08-03T06:00	1526	832	8.6	6.9	249	16
2023-08-03T06:00	1550	830	8.4	6.9	249	16
2023-08-03T06:00	1576	827	8.2	6.7	250	15
2023-08-03T06:00	1599	825	8.1	6.6	252	15
2023-08-03T06:00	1624	822	7.9	6.6	254	15
2023-08-03T06:00	1651	820	7.7	6.3	256	15
2023-08-03T06:00	1674	817	7.6	6.0	256	15
2023-08-03T06:00	1698	815	7.5	5.9	256	15
2023-08-03T06:00	1717	813	7.4	6.0	255	15
2023-08-03T06:00	1743	810	7.2	5.8	253	15
2023-08-03T06:00	1774	808	7.0	5.7	252	15
2023-08-03T06:00	1796	805	6.7	5.5	252	14
2023-08-03T06:00	1820	803	6.5	5.5	252	14
2023-08-03T06:00	1842	801	6.3	5.5	253	15
2023-08-03T06:00	1862	799	6.1	5.1	254	15
2023-08-03T06:00	1884	797	6.0	5.1	254	15
2023-08-03T06:00	1913	794	5.7	5.0	254	15
2023-08-03T06:00	1938	792	5.5	4.9	253	15
2023-08-03T06:00	1964	789	5.3	5.0	251	15
2023-08-03T06:00	1986	787	5.1	4.9	249	15
2023-08-03T06:00	2010	785	4.9	4.8	247	15
2023-08-03T06:00	2030	783	4.7	4.7	245	15
2023-08-03T06:00	2056	780	4.5	4.5	244	15
2023-08-03T06:00	2080	778	4.4	4.4	244	15
2023-08-03T06:00	2109	775	4.2	4.2	244	14
2023-08-03T06:00	2132	773	4.1	4.1	245	14
2023-08-03T06:00	2153	771	3.9	3.9	246	14
2023-08-03T06:00	2177	769	3.8	3.8	246	15
2023-08-03T06:00	2200	766	3.6	3.6	246	15
2023-08-03T06:00	2235	763	3.4	3.4	246	15
2023-08-03T06:00	2261	761	3.2	3.2	245	15
2023-08-03T06:00	2279	759	3.1	3.1	243	15
2023-08-03T06:00	2302	757	3.0	3.0	241	15
2023-08-03T06:00	2325	755	2.9	2.9	238	15
2023-08-03T06:00	2349	753	2.7	2.7	237	15
2023-08-03T06:00	2372	751	2.5	2.5	236	15
2023-08-03T06:00	2395	748	2.4	2.4	236	15
2023-08-03T06:00	2419	746	2.2	2.2	237	15
2023-08-03T06:00	2439	744	2.1	2.1	238	15
2023-08-03T06:00	2467	742	1.8	1.8	238	16
2023-08-03T06:00	2485	740	1.7	1.7	239	16
2023-08-03T06:00	2511	738	1.6	1.4	239	17
2023-08-03T06:00	2533	736	1.5	1.3	239	17
2023-08-03T06:00	2558	733	1.3	1.1	240	18
2023-08-03T06:00	2584	731	1.1	0.7	241	18
2023-08-03T06:00	2610	729	0.9	0.0	242	18
2023-08-03T06:00	2632	727	0.8	-0.6	243	18
2023-08-03T06:00	2655	725	0.6	-1.2	243	18
2023-08-03T06:00	2679	722	0.6	-1.4	244	18
2023-08-03T06:00	2699	721	0.5	-1.6	244	18
2023-08-03T06:00	2718	719	0.5	-1.6	245	17
2023-08-03T06:00	2742	717	0.4	-1.7	246	17
2023-08-03T06:00	2768	715	0.3	-1.8	247	18
2023-08-03T06:00	2792	713	0.1	-1.8	248	18
2023-08-03T06:00	2813	711	-0.1	-1.9	249	19
2023-08-03T06:00	2833	709	-0.2	-1.9	248	19
2023-08-03T06:00	2854	707	-0.4	-2.0	247	20
2023-08-03T06:00	2880	705	-0.6	-2.0	245	20
2023-08-03T06:00	2907	702	-0.8	-2.1	243	21
2023-08-03T06:00	2926	700	-1.0	-2.1	243	21
2023-08-03T06:00	2951	698	-1.3	-2.3	243	22
2023-08-03T06:00	2984	696	-1.5	-2.4	243	22
2023-08-03T06:00	3004	694	-1.6	-2.4	244	22
2023-08-03T06:00	3029	692	-1.8	-2.5	245	22
2023-08-03T06:00	3048	690	-1.9	-2.5	246	22
2023-08-03T06:00	3073	688	-2.0	-2.5	247	22
2023-08-03T06:00	3100	686	-2.1	-2.9	247	22
2023-08-03T06:00	3122	684	-2.2	-3.1	247	22
2023-08-03T06:00	3143	682	-2.4	-3.3	247	22
2023-08-03T06:00	3164	680	-2.4	-3.5	246	22
2023-08-03T06:00	3186	678	-2.5	-3.5	245	22
2023-08-03T06:00	3209	676	-2.7	-3.8	244	22
2023-08-03T06:00	3233	674	-2.7	-4.3	243	22
2023-08-03T06:00	3249	673	-2.8	-4.3	243	23
2023-08-03T06:00	3272	671	-2.8	-4.1	243	24
2023-08-03T06:00	3300	669	-2.5	-4.9	244	24
2023-08-03T06:00	3319	667	-2.3	-5.1	244	25
2023-08-03T06:00	3342	665	-2.2	-5.7	244	26
2023-08-03T06:00	3370	663	-2.4	-5.7	243	26
2023-08-03T06:00	3394	661	-2.5	-8.2	243	26
2023-08-03T06:00	3414	659	-2.3	-11.4	243	26
2023-08-03T06:00	3434	657	-2.4	-12.1	243	26
2023-08-03T06:00	3458	655	-2.5	-12.8	243	26
2023-08-03T06:00	3486	653	-2.8	-11.2	243	25
2023-08-03T06:00	3506	651	-3.0	-9.9	243	25
2023-08-03T06:00	3527	649	-3.2	-9.3	244	25
2023-08-03T06:00	3555	647	-3.4	-9.4	244	25
2023-08-03T06:00	3572	646	-3.5	-9.2	244	25
2023-08-03T06:00	3591	644	-3.5	-9.5	244	25
2023-08-03T06:00	3615	642	-3.7	-10.6	245	25
2023-08-03T06:00	3636	641	-3.6	-14.9	246	26
2023-08-03T06:00	3665	639	-3.8	-14.8	247	26
2023-08-03T06:00	3681	637	-3.9	-12.2	247	26
2023-08-03T06:00	3715	634	-4.2	-11.8	248	26
2023-08-03T06:00	3744	632	-4.4	-11.4	248	26
2023-08-03T06:00	3766	630	-4.5	-11.5	247	26
2023-08-03T06:00	3793	628	-4.7	-12.4	246	26
2023-08-03T06:00	3811	627	-4.8	-13.2	245	26
2023-08-03T06:00	3829	625	-4.9	-12.4	244	27
2023-08-03T06:00	3857	623	-5.1	-12.5	244	27
2023-08-03T06:00	3879	621	-5.2	-13.1	244	27
2023-08-03T06:00	3904	619	-5.2	-14.7	243	27
2023-08-03T06:00	3923	618	-5.2	-16.6	243	27
2023-08-03T06:00	3948	616	-5.4	-17.4	242	26
2023-08-03T06:00	3972	614	-5.5	-17.8	241	26
2023-08-03T06:00	3993	612	-5.5	-18.6	240	25
2023-08-03T06:00	4015	610	-5.4	-18.8	240	25
2023-08-03T06:00	4039	609	-5.4	-19.9	240	25
2023-08-03T06:00	4067	607	-5.5	-21.4	240	25
2023-08-03T06:00	4086	605	-5.5	-22.4	241	25
2023-08-03T06:00	4110	603	-5.7	-24.0	242	25
2023-08-03T06:00	4137	601	-5.9	-23.9	242	25
2023-08-03T06:00	4157	600	-6.1	-24.0	243	25
2023-08-03T06:00	4175	598	-6.3	-24.0	243	25
2023-08-03T06:00	4194	597	-6.4	-24.3	244	24
2023-08-03T06:00	4219	595	-6.6	-24.8	244	24
2023-08-03T06:00	4242	593	-6.8	-23.7	243	24
2023-08-03T06:00	4272	591	-7.0	-24.1	243	24
2023-08-03T06:00	4298	589	-7.2	-25.1	243	24
2023-08-03T06:00	4324	587	-7.4	-24.9	242	24
2023-08-03T06:00	4342	585	-7.6	-25.0	241	24
2023-08-03T06:00	4360	584	-7.8	-25.2	240	24
2023-08-03T06:00	4385	582	-8.0	-25.6	239	24
2023-08-03T06:00	4411	580	-8.2	-25.5	239	24
2023-08-03T06:00	4436	578	-8.4	-25.1	239	24
2023-08-03T06:00	4464	576	-8.6	-24.4	239	23
2023-08-03T06:00	4494	574	-8.9	-23.9	239	23
2023-08-03T06:00	4528	572	-9.2	-24.2	240	23
2023-08-03T06:00	4546	570	-9.3	-24.1	241	23
2023-08-03T06:00	4565	569	-9.5	-23.9	241	23
2023-08-03T06:00	4586	567	-9.6	-22.6	242	23
2023-08-03T06:00	4611	565	-9.8	-22.9	242	23
2023-08-03T06:00	4639	563	-10.1	-23.4	244	23
2023-08-03T06:00	4669	561	-10.4	-23.7	246	24
2023-08-03T06:00	4691	560	-10.6	-24.0	247	24
2023-08-03T06:00	4714	558	-10.7	-25.4	249	24
2023-08-03T06:00	4741	556	-10.8	-25.9	249	24
2023-08-03T06:00	4766	554	-11.0	-26.2	249	24
2023-08-03T06:00	4795	552	-11.2	-26.5	249	24
2023-08-03T06:00	4817	551	-11.3	-27.6	249	24
2023-08-03T06:00	4839	549	-11.3	-27.3	250	23
2023-08-03T06:00	4867	547	-11.3	-30.6	250	22
2023-08-03T06:00	4886	546	-11.2	-32.3	250	21
2023-08-03T06:00	4909	544	-11.2	-33.9	249	21
2023-08-03T06:00	4934	542	-11.4	-33.8	248	20
2023-08-03T06:00	4962	540	-11.5	-34.1	246	20
2023-08-03T06:00	4983	539	-11.7	-34.5	245	20
2023-08-03T06:00	5009	537	-11.7	-35.7	244	19
2023-08-03T06:00	5030	535	-11.8	-36.2	243	19
2023-08-03T06:00	5058	534	-12.0	-36.5	242	19
2023-08-03T06:00	5075	532	-12.1	-36.9	242	19
2023-08-03T06:00	5095	531	-12.2	-36.9	241	19
2023-08-03T06:00	5115	530	-12.4	-36.9	241	19
2023-08-03T06:00	5135	528	-12.6	-37.0	241	19
2023-08-03T06:00	5157	527	-12.8	-37.1	240	19
2023-08-03T06:00	5179	525	-13.0	-36.8	240	19
2023-08-03T06:00	5209	523	-13.2	-37.1	240	19
2023-08-03T06:00	5234	521	-13.4	-37.7	239	19
2023-08-03T06:00	5256	520	-13.6	-38.1	239	20
2023-08-03T06:00	5276	518	-13.7	-38.2	239	20
2023-08-03T06:00	5302	517	-13.9	-38.8	238	21
2023-08-03T06:00	5325	515	-14.0	-39.0	238	21
2023-08-03T06:00	5344	514	-14.1	-40.2	238	22
2023-08-03T06:00	5365	512	-14.0	-41.3	238	22
2023-08-03T06:00	5384	511	-14.2	-40.7	238	22
2023-08-03T06:00	5406	510	-14.3	-40.9	239	23
2023-08-03T06:00	5425	508	-14.4	-42.1	239	23
2023-08-03T06:00	5446	507	-14.5	-42.5	239	23
2023-08-03T06:00	5466	506	-14.6	-42.7	239	23
2023-08-03T06:00	5488	504	-14.7	-42.8	239	24
2023-08-03T06:00	5509	503	-14.8	-42.9	239	24
2023-08-03T06:00	5534	501	-15.0	-42.9	239	24
2023-08-03T06:00	5569	499	-15.3	-40.0	239	24
2023-08-03T06:00	5597	497	-15.5	-35.0	239	24
2023-08-03T06:00	5619	496	-15.6	-32.3	239	24
2023-08-03T06:00	5640	494	-15.8	-32.1	239	24
2023-08-03T06:00	5663	493	-16.1	-31.8	239	24
2023-08-03T06:00	5688	491	-16.3	-30.5	238	24
2023-08-03T06:00	5708	490	-16.5	-30.2	237	24
2023-08-03T06:00	5731	488	-16.7	-30.2	237	24
2023-08-03T06:00	5755	487	-17.0	-29.5	236	24
2023-08-03T06:00	5779	485	-17.2	-29.7	235	23
2023-08-03T06:00	5807	483	-17.5	-28.8	235	23
2023-08-03T06:00	5832	482	-17.7	-26.4	235	24
2023-08-03T06:00	5858	480	-17.9	-26.5	235	24
2023-08-03T06:00	5876	479	-18.0	-26.7	236	25
2023-08-03T06:00	5897	477	-18.2	-26.8	237	25
2023-08-03T06:00	5930	476	-18.4	-26.3	237	25
2023-08-03T06:00	5950	474	-18.6	-28.8	238	26
2023-08-03T06:00	5970	473	-18.6	-36.4	238	26
2023-08-03T06:00	5989	472	-18.7	-26.9	238	26
2023-08-03T06:00	6015	470	-18.9	-24.6	237	26
2023-08-03T06:00	6039	468	-19.1	-25.7	237	26
2023-08-03T06:00	6059	467	-19.2	-26.9	238	26
2023-08-03T06:00	6085	466	-19.4	-27.6	238	25
2023-08-03T06:00	6106	464	-19.6	-28.2	238	25
2023-08-03T06:00	6135	462	-19.8	-30.9	237	25
2023-08-03T06:00	6161	461	-19.9	-31.0	237	25
2023-08-03T06:00	6191	459	-20.2	-30.8	236	25
2023-08-03T06:00	6215	457	-20.4	-26.8	236	25
2023-08-03T06:00	6238	456	-20.6	-27.3	236	25
2023-08-03T06:00	6255	455	-20.8	-25.5	236	26
2023-08-03T06:00	6275	454	-21.0	-24.8	237	26
2023-08-03T06:00	6298	452	-21.2	-25.1	236	26
2023-08-03T06:00	6319	451	-21.2	-26.1	236	26
2023-08-03T06:00	6338	450	-21.3	-27.9	236	27
2023-08-03T06:00	6361	449	-21.3	-28.4	236	27
2023-08-03T06:00	6383	447	-21.3	-26.8	236	27
2023-08-03T06:00	6405	446	-21.4	-27.3	236	27
2023-08-03T06:00	6429	444	-21.6	-28.1	236	27
2023-08-03T06:00	6452	443	-21.7	-28.7	236	27
2023-08-03T06:00	6473	442	-21.8	-28.7	236	26
2023-08-03T06:00	6495	440	-22.0	-28.7	237	27
2023-08-03T06:00	6519	439	-22.0	-29.5	237	27
2023-08-03T06:00	6543	438	-22.2	-30.0	237	27
2023-08-03T06:00	6570	436	-22.3	-30.4	237	27
2023-08-03T06:00	6596	434	-22.5	-30.6	237	27
2023-08-03T06:00	6627	433	-22.7	-31.2	237	27
2023-08-03T06:00	6645	432	-22.8	-30.9	238	27
2023-08-03T06:00	6666	430	-22.9	-30.9	238	27
2023-08-03T06:00	6688	429	-23.0	-31.8	238	27
2023-08-03T06:00	6712	428	-23.2	-33.1	239	27
2023-08-03T06:00	6741	426	-23.4	-33.5	239	27
2023-08-03T06:00	6777	424	-23.7	-34.3	239	26
2023-08-03T06:00	6812	422	-24.0	-35.5	239	26
2023-08-03T06:00	6836	420	-24.2	-35.7	239	25
2023-08-03T06:00	6863	419	-24.4	-36.0	239	25
2023-08-03T06:00	6886	418	-24.6	-36.3	239	25
2023-08-03T06:00	6908	416	-24.8	-38.1	239	25
2023-08-03T06:00	6933	415	-25.0	-38.4	239	25
2023-08-03T06:00	6960	413	-25.2	-38.4	238	25
2023-08-03T06:00	6992	412	-25.5	-38.5	238	25
2023-08-03T06:00	7018	410	-25.8	-38.7	238	25
2023-08-03T06:00	7050	408	-26.1	-38.6	238	25
2023-08-03T06:00	7082	407	-26.3	-38.3	237	26
2023-08-03T06:00	7102	405	-26.5	-38.3	236	26
2023-08-03T06:00	7127	404	-26.8	-38.1	235	25
2023-08-03T06:00	7154	402	-27.0	-38.7	235	25
2023-08-03T06:00	7192	400	-27.2	-40.0	234	25
2023-08-03T06:00	7213	399	-27.3	-42.3	233	25
2023-08-03T06:00	7235	398	-27.5	-41.6	234	25
2023-08-03T06:00	7259	397	-27.7	-41.1	234	25
2023-08-03T06:00	7285	395	-28.0	-39.8	234	25
2023-08-03T06:00	7316	393	-28.2	-39.6	235	25
2023-08-03T06:00	7341	392	-28.5	-39.9	236	25
2023-08-03T06:00	7373	390	-28.7	-39.6	236	25
2023-08-03T06:00	7402	389	-29.0	-39.9	236	25
2023-08-03T06:00	7434	387	-29.2	-40.2	236	25
2023-08-03T06:00	7456	386	-29.4	-40.4	235	25
2023-08-03T06:00	7482	384	-29.5	-40.4	233	25
2023-08-03T06:00	7508	383	-29.8	-40.7	232	25
2023-08-03T06:00	7537	381	-30.0	-40.6	231	25
2023-08-03T06:00	7568	380	-30.3	-40.8	231	26
2023-08-03T06:00	7592	378	-30.5	-40.8	231	26
2023-08-03T06:00	7623	377	-30.7	-40.5	231	26
2023-08-03T06:00	7660	375	-30.9	-41.8	232	26
2023-08-03T06:00	7692	373	-31.1	-42.3	232	26
2023-08-03T06:00	7724	371	-31.4	-42.7	231	27
2023-08-03T06:00	7757	370	-31.7	-43.0	231	27
2023-08-03T06:00	7786	368	-31.9	-43.6	230	27
2023-08-03T06:00	7822	366	-32.1	-44.1	230	28
2023-08-03T06:00	7857	365	-32.4	-44.3	230	28
2023-08-03T06:00	7889	363	-32.7	-44.8	230	29
2023-08-03T06:00	7915	362	-32.9	-45.5	230	29
2023-08-03T06:00	7944	360	-33.1	-45.8	230	30
2023-08-03T06:00	7974	359	-33.2	-46.9	230	30
2023-08-03T06:00	8007	357	-33.2	-48.1	230	31
2023-08-03T06:00	8034	355	-33.3	-49.5	230	32
2023-08-03T06:00	8066	354	-33.5	-50.8	230	32
2023-08-03T06:00	8098	352	-33.7	-51.7	229	33
2023-08-03T06:00	8125	351	-33.7	-52.9	229	33
2023-08-03T06:00	8146	350	-33.8	-53.6	229	34
2023-08-03T06:00	8177	348	-34.0	-53.7	229	35
2023-08-03T06:00	8207	347	-34.1	-54.2	229	35
2023-08-03T06:00	8234	345	-34.3	-54.6	229	35
2023-08-03T06:00	8263	344	-34.4	-54.0	230	35
2023-08-03T06:00	8288	343	-34.5	-54.5	230	36
2023-08-03T06:00	8313	342	-34.5	-54.8	230	36
2023-08-03T06:00	8335	341	-34.5	-54.9	231	36
2023-08-03T06:00	8360	339	-34.6	-53.7	231	36
2023-08-03T06:00	8386	338	-34.7	-53.8	232	37
2023-08-03T06:00	8408	337	-34.8	-54.3	232	37
2023-08-03T06:00	8432	336	-34.8	-54.8	233	37
2023-08-03T06:00	8460	335	-35.0	-54.7	233	38
2023-08-03T06:00	8492	333	-35.1	-55.0	233	39
2023-08-03T06:00	8514	332	-35.0	-56.3	233	40
2023-08-03T06:00	8543	331	-34.9	-57.7	233	41
2023-08-03T06:00	8563	330	-35.0	-58.2	233	42
2023-08-03T06:00	8580	329	-35.1	-58.1	233	43
2023-08-03T06:00	8600	328	-35.1	-58.7	233	44
2023-08-03T06:00	8622	327	-35.0	-59.1	234	45
2023-08-03T06:00	8642	326	-34.9	-59.2	234	46
2023-08-03T06:00	8669	325	-34.6	-60.1	234	47
2023-08-03T06:00	8686	324	-34.4	-60.2	235	48
2023-08-03T06:00	8707	323	-34.2	-60.4	235	49
2023-08-03T06:00	8729	322	-34.2	-60.4	236	50
2023-08-03T06:00	8754	321	-34.3	-60.5	236	50
2023-08-03T06:00	8776	320	-34.4	-60.4	235	51
2023-08-03T06:00	8804	319	-34.4	-60.6	234	51
2023-08-03T06:00	8820	318	-34.3	-60.7	234	51
2023-08-03T06:00	8840	317	-34.0	-60.8	233	51
2023-08-03T06:00	8857	316	-34.0	-60.6	233	51
2023-08-03T06:00	8876	315	-34.0	-60.8	233	51
2023-08-03T06:00	8895	314	-33.6	-61.1	232	51
2023-08-03T06:00	8914	313	-33.7	-61.1	232	51
2023-08-03T06:00	8933	313	-33.7	-61.1	232	51
2023-08-03T06:00	8954	312	-33.7	-61.1	232	50
2023-08-03T06:00	8975	311	-33.7	-61.4	231	50
2023-08-03T06:00	8995	310	-33.6	-61.5	231	50
2023-08-03T06:00	9019	309	-33.6	-61.7	231	50
2023-08-03T06:00	9039	308	-33.6	-61.7	231	50
2023-08-03T06:00	9058	307	-33.6	-61.7	232	50
2023-08-03T06:00	9079	306	-33.6	-61.7	232	50
2023-08-03T06:00	9100	305	-33.6	-61.9	233	50
2023-08-03T06:00	9120	304	-33.6	-61.9	233	51
2023-08-03T06:00	9140	304	-33.6	-61.9	233	51
2023-08-03T06:00	9157	303	-33.5	-62.1	234	52
2023-08-03T06:00	9179	302	-33.5	-62.1	234	52
2023-08-03T06:00	9200	301	-33.4	-62.0	234	52
2023-08-03T06:00	9225	300	-33.5	-61.9	234	53
2023-08-03T06:00	9253	299	-33.5	-61.9	234	53
2023-08-03T06:00	9279	298	-33.3	-61.9	234	54
2023-08-03T06:00	9302	297	-33.3	-61.9	234	54
2023-08-03T06:00	9326	296	-33.3	-62.2	233	54
2023-08-03T06:00	9351	295	-33.4	-62.2	233	55
2023-08-03T06:00	9375	294	-33.6	-62.2	233	55
2023-08-03T06:00	9401	292	-33.8	-62.3	233	55
2023-08-03T06:00	9426	291	-34.1	-62.5	233	55
2023-08-03T06:00	9448	290	-34.2	-62.6	232	56
2023-08-03T06:00	9471	290	-34.4	-63.0	232	56
2023-08-03T06:00	9494	289	-34.3	-63.2	232	56
2023-08-03T06:00	9516	288	-34.4	-63.5	231	56
2023-08-03T06:00	9539	287	-34.5	-63.6	231	56
2023-08-03T06:00	9560	286	-34.6	-63.9	231	56
2023-08-03T06:00	9583	285	-34.7	-64.0	231	56
2023-08-03T06:00	9607	284	-34.8	-63.8	232	55
2023-08-03T06:00	9627	283	-35.0	-64.0	232	55
2023-08-03T06:00	9654	282	-35.0	-64.2	232	55
2023-08-03T06:00	9678	281	-35.2	-64.4	232	55
2023-08-03T06:00	9701	280	-35.2	-64.4	233	55
2023-08-03T06:00	9724	279	-35.4	-64.5	233	55
2023-08-03T06:00	9746	278	-35.5	-64.6	233	55
2023-08-03T06:00	9769	277	-35.5	-64.9	233	55
2023-08-03T06:00	9791	277	-35.6	-65.0	233	55
2023-08-03T06:00	9813	276	-35.8	-65.1	233	56
2023-08-03T06:00	9836	275	-35.9	-65.2	233	56
2023-08-03T06:00	9859	274	-35.9	-65.2	233	56
2023-08-03T06:00	9885	273	-35.9	-65.2	232	56
2023-08-03T06:00	9906	272	-35.9	-65.5	232	56
2023-08-03T06:00	9930	271	-36.0	-65.5	232	57
2023-08-03T06:00	9954	270	-35.9	-65.8	232	57
2023-08-03T06:00	9978	269	-35.9	-65.8	232	57
2023-08-03T06:00	10001	268	-35.8	-66.3	232	56
2023-08-03T06:00	10022	267	-35.7	-66.5	232	56
2023-08-03T06:00	10044	267	-35.8	-66.6	233	55
2023-08-03T06:00	10065	266	-35.9	-66.7	233	55
2023-08-03T06:00	10087	265	-35.9	-66.7	233	54
2023-08-03T06:00	10110	264	-35.7	-66.9	233	54
2023-08-03T06:00	10133	263	-35.7	-66.9	233	54
2023-08-03T06:00	10154	262	-35.5	-67.1	233	54
2023-08-03T06:00	10176	262	-35.6	-67.2	233	54
2023-08-03T06:00	10199	261	-35.4	-67.4	234	55
2023-08-03T06:00	10222	260	-35.3	-67.7	234	55
2023-08-03T06:00	10247	259	-35.3	-67.7	234	55
2023-08-03T06:00	10270	258	-35.1	-68.0	234	55
2023-08-03T06:00	10295	257	-34.6	-68.5	234	55
2023-08-03T06:00	10317	256	-34.2	-68.2	234	55
2023-08-03T06:00	10340	256	-34.2	-68.7	234	56
2023-08-03T06:00	10364	255	-34.1	-68.6	234	56
2023-08-03T06:00	10391	254	-33.9	-68.5	234	56
2023-08-03T06:00	10416	253	-34.0	-68.6	233	57
2023-08-03T06:00	10439	252	-34.2	-68.7	233	57
2023-08-03T06:00	10464	251	-34.3	-68.8	233	57
2023-08-03T06:00	10490	250	-34.4	-68.9	233	57
2023-08-03T06:00	10513	249	-34.6	-69.0	232	57
2023-08-03T06:00	10539	248	-34.7	-69.1	232	57
2023-08-03T06:00	10563	248	-34.8	-69.2	232	57
2023-08-03T06:00	10589	247	-34.8	-69.2	232	57
2023-08-03T06:00	10614	246	-34.9	-69.2	232	57
2023-08-03T06:00	10638	245	-35.1	-69.4	232	56
2023-08-03T06:00	10663	244	-35.2	-69.4	232	56
2023-08-03T06:00	10686	243	-35.4	-69.6	232	56
2023-08-03T06:00	10711	242	-35.5	-69.7	232	56
2023-08-03T06:00	10737	241	-35.5	-70.2	232	56
2023-08-03T06:00	10762	241	-35.7	-70.4	232	56
2023-08-03T06:00	10788	240	-35.8	-70.4	232	57
2023-08-03T06:00	10808	239	-35.9	-70.0	233	57
2023-08-03T06:00	10837	238	-36.1	-70.1	233	57
2023-08-03T06:00	10860	237	-36.2	-69.7	233	57
2023-08-03T06:00	10884	236	-36.3	-70.3	233	57
2023-08-03T06:00	10909	236	-36.4	-70.9	233	57
2023-08-03T06:00	10934	235	-36.6	-70.5	233	56
2023-08-03T06:00	10956	234	-36.7	-70.6	234	56
2023-08-03T06:00	10979	233	-36.9	-70.7	234	56
2023-08-03T06:00	11002	232	-37.0	-70.3	234	56
2023-08-03T06:00	11027	232	-37.0	-69.8	234	56
2023-08-03T06:00	11048	231	-37.0	-70.3	234	56
2023-08-03T06:00	11072	230	-37.1		235	56
2023-08-03T06:00	11097	229	-37.2	-70.4	235	55
2023-08-03T06:00	11122	228	-37.2	-70.4	235	55
2023-08-03T06:00	11147	228	-37.4	-70.6	236	55
2023-08-03T06:00	11170	227	-37.7	-70.8	236	54
2023-08-03T06:00	11193	226	-37.9	-70.9	237	54
2023-08-03T06:00	11217	225	-38.1		237	54
2023-08-03T06:00	11240	225	-38.3	-71.2	237	54
2023-08-03T06:00	11262	224	-38.2	-71.2	237	53
2023-08-03T06:00	11285	223	-38.2	-71.2	237	53
2023-08-03T06:00	11309	222	-38.3	-71.7	237	53
2023-08-03T06:00	11332	222	-38.3	-71.7	236	52
2023-08-03T06:00	11354	221	-38.3	-72.3	236	52
2023-08-03T06:00	11378	220	-38.4	-72.9	236	52
2023-08-03T06:00	11401	219	-38.4	-72.9	236	51
2023-08-03T06:00	11423	219	-38.5	-73.6	237	51
2023-08-03T06:00	11449	218	-38.5	-73.6	237	51
2023-08-03T06:00	11475	217	-38.7	-73.7	238	51
2023-08-03T06:00	11498	216	-38.8	-73.8	238	51
2023-08-03T06:00	11522	215	-39.0	-74.0	238	51
2023-08-03T06:00	11547	215	-39.1	-74.0	238	51
2023-08-03T06:00	11570	214	-39.3	-74.2	237	51
2023-08-03T06:00	11595	213	-39.5	-74.3	237	51
2023-08-03T06:00	11618	212	-39.7	-74.5	236	51
2023-08-03T06:00	11640	212	-39.9	-74.6	236	51
2023-08-03T06:00	11667	211	-40.1	-74.1	236	51
2023-08-03T06:00	11687	210	-40.3	-74.3	236	51
2023-08-03T06:00	11710	210	-40.5	-74.4	236	51
2023-08-03T06:00	11737	209	-40.7	-75.2	236	50
2023-08-03T06:00	11762	208	-40.7	-75.2	237	50
2023-08-03T06:00	11785	207	-40.9	-75.3	237	50
2023-08-03T06:00	11809	207	-41.1	-75.5	238	50
2023-08-03T06:00	11833	206	-41.2	-75.6	238	50
2023-08-03T06:00	11853	205	-41.3	-75.6	238	49
2023-08-03T06:00	11876	205	-41.5	-75.8	239	49
2023-08-03T06:00	11900	204	-41.7	-75.9	239	49
2023-08-03T06:00	11923	203	-41.9	-75.5	239	49
2023-08-03T06:00	11947	202	-42.0	-76.1	239	48
2023-08-03T06:00	11970	202	-42.1	-76.2	239	48
2023-08-03T06:00	11994	201	-42.3	-76.4	240	48
2023-08-03T06:00	12018	200	-42.5	-75.9	240	48
2023-08-03T06:00	12039	200	-42.6	-76.0	240	48
2023-08-03T06:00	12060	199	-42.7	-76.0	240	48
2023-08-03T06:00	12082	198	-42.9	-76.2	240	48
2023-08-03T06:00	12107	198	-43.1	-76.3	240	48
2023-08-03T06:00	12128	197	-43.2	-77.0	241	48
2023-08-03T06:00	12153	196	-43.3	-77.1	241	47
2023-08-03T06:00	12174	196	-43.5	-77.2	242	47
2023-08-03T06:00	12198	195	-43.4	-77.2	242	46
2023-08-03T06:00	12221	194	-43.4	-77.2	242	46
2023-08-03T06:00	12245	194	-43.5	-77.2	242	45
2023-08-03T06:00	12268	193	-43.6	-77.3	242	45
2023-08-03T06:00	12292	192	-43.7	-77.4	241	44
2023-08-03T06:00	12319	192	-43.9	-77.5	241	44
2023-08-03T06:00	12342	191	-44.0	-77.6	240	44
2023-08-03T06:00	12366	190	-44.1	-77.7	240	44
2023-08-03T06:00	12388	190	-44.2	-77.7	239	43
2023-08-03T06:00	12411	189	-44.3	-77.8	239	43
2023-08-03T06:00	12434	188	-44.5	-78.0	238	42
2023-08-03T06:00	12458	188	-44.6	-78.0	238	42
2023-08-03T06:00	12480	187	-44.5	-78.0	237	41
2023-08-03T06:00	12504	186	-44.4	-77.9	237	41
2023-08-03T06:00	12525	186	-44.4	-77.9	236	40
2023-08-03T06:00	12547	185	-44.4	-77.9	236	40
2023-08-03T06:00	12572	184	-44.6	-78.0	235	39
2023-08-03T06:00	12598	184	-44.7	-78.1	234	39
2023-08-03T06:00	12626	183	-44.8	-78.2	233	38
2023-08-03T06:00	12651	182	-44.9	-77.7	232	38
2023-08-03T06:00	12675	182	-45.0	-77.7	230	38
2023-08-03T06:00	12697	181	-45.1	-77.8	229	38
2023-08-03T06:00	12722	180	-45.2	-77.9	229	38
2023-08-03T06:00	12746	180	-45.2	-77.9	228	38
2023-08-03T06:00	12768	179	-45.3	-78.0	227	38
2023-08-03T06:00	12790	179	-45.3	-78.0	227	38
2023-08-03T06:00	12814	178	-45.5	-77.6	226	38
2023-08-03T06:00	12836	177	-45.6	-77.6	226	38
2023-08-03T06:00	12856	177	-45.7	-77.7	226	38
2023-08-03T06:00	12878	176	-45.9	-77.9	227	38
2023-08-03T06:00	12899	176	-46.0	-77.9	227	39
2023-08-03T06:00	12924	175	-45.8	-78.3	228	38
2023-08-03T06:00	12944	174	-45.7	-78.8	228	38
2023-08-03T06:00	12966	174	-45.5	-79.3	228	38
2023-08-03T06:00	12989	173	-45.5	-79.3	229	38
2023-08-03T06:00	13012	173	-45.2	-79.1	229	38
2023-08-03T06:00	13032	172	-45.3	-79.2	229	38
2023-08-03T06:00	13057	172	-45.4	-79.3	230	38
2023-08-03T06:00	13081	171	-45.4	-79.3	230	38
2023-08-03T06:00	13105	170	-45.4	-79.3	230	38
2023-08-03T06:00	13127	170	-45.6		230	39
2023-08-03T06:00	13153	169	-45.7	-79.5	230	39
2023-08-03T06:00	13179	168	-45.8	-79.6	230	39
2023-08-03T06:00	13203	168	-45.9	-79.6	230	40
2023-08-03T06:00	13233	167	-46.1	-79.8	230	40
2023-08-03T06:00	13262	166	-46.2	-79.2	229	40
2023-08-03T06:00	13289	166	-46.6	-79.5	229	40
2023-08-03T06:00	13318	165	-46.8	-79.6	228	40
2023-08-03T06:00	13345	164	-47.1	-79.9	228	40
2023-08-03T06:00	13374	164	-47.3	-80.0	228	41
2023-08-03T06:00	13401	163	-47.5	-79.6	228	41
2023-08-03T06:00	13426	162	-47.7	-79.7	228	41
2023-08-03T06:00	13450	162	-47.7	-79.7	228	41
2023-08-03T06:00	13474	161	-47.6	-79.6	228	40
2023-08-03T06:00	13496	161	-47.7	-79.7	229	40
2023-08-03T06:00	13522	160	-47.6	-79.6	230	40
2023-08-03T06:00	13544	159	-47.7	-79.7	230	39
2023-08-03T06:00	13566	159	-47.7	-79.7	231	39
2023-08-03T06:00	13589	158	-47.7	-79.7	232	38
2023-08-03T06:00	13611	158	-47.7		232	38
2023-08-03T06:00	13632	157	-47.7		233	38
2023-08-03T06:00	13656	157	-47.7		234	37
2023-08-03T06:00	13676	156	-47.8	-79.3	234	37
2023-08-03T06:00	13699	156	-47.9	-79.3	235	37
2023-08-03T06:00	13718	155	-48.0	-79.4	235	36
2023-08-03T06:00	13740	155	-48.1	-79.5	236	36
2023-08-03T06:00	13758	154	-48.2	-79.6	236	36
2023-08-03T06:00	13782	154	-48.2	-79.6	236	35
2023-08-03T06:00	13801	153	-48.2	-79.6	236	35
2023-08-03T06:00	13820	153	-48.2	-79.6	236	34
2023-08-03T06:00	13840	152	-48.1	-79.5	236	34
2023-08-03T06:00	13861	152	-48.1	-79.0	237	33
2023-08-03T06:00	13884	151	-48.1	-79.5	238	32
2023-08-03T06:00	13913	151	-47.9	-79.3	239	32
2023-08-03T06:00	13940	150	-47.7		241	31
2023-08-03T06:00	13965	150	-47.2	-79.4	243	31
2023-08-03T06:00	13993	149	-47.3	-79.4	245	31
2023-08-03T06:00	14027	148	-47.4	-79.0	246	31
2023-08-03T06:00	14057	147	-47.6	-79.1	247	31
2023-08-03T06:00	14078	147	-47.6	-79.1	248	30
2023-08-03T06:00	14101	147	-47.5	-79.0	248	30
2023-08-03T06:00	14120	146	-47.6	-79.1	248	29
2023-08-03T06:00	14142	146	-47.7		248	29
2023-08-03T06:00	14161	145	-47.9	-79.3	248	28
2023-08-03T06:00	14181	145	-48.0	-79.4	248	28
2023-08-03T06:00	14201	144	-48.0	-79.4	248	27
2023-08-03T06:00	14224	144	-48.2	-79.6	248	27
2023-08-03T06:00	14249	143	-48.3	-79.6	248	26
2023-08-03T06:00	14276	143	-48.3	-79.6	247	25
2023-08-03T06:00	14297	142	-48.4	-79.2	247	25
2023-08-03T06:00	14324	142	-48.6	-79.4	246	24
2023-08-03T06:00	14348	141	-48.7	-79.4	246	24
2023-08-03T06:00	14370	141	-48.9	-79.6	246	23
2023-08-03T06:00	14395	140	-49.0	-79.7	245	23
2023-08-03T06:00	14413	140	-49.1	-79.7	244	22
2023-08-03T06:00	14436	139	-49.2	-79.8	244	22
2023-08-03T06:00	14458	139	-49.3	-79.9	243	22
2023-08-03T06:00	14480	138	-49.4	-80.0	242	22
2023-08-03T06:00	14503	138	-49.6	-80.1	241	22
2023-08-03T06:00	14523	137	-49.8	-80.3	241	22
2023-08-03T06:00	14548	137	-49.9	-79.9	240	23
2023-08-03T06:00	14569	136	-50.0	-80.0	240	23
2023-08-03T06:00	14591	136	-50.2	-80.1	240	23
2023-08-03T06:00	14613	136	-50.3	-80.2	241	23
2023-08-03T06:00	14635	135	-50.5	-80.3	241	24
2023-08-03T06:00	14660	135	-50.7	-80.5	241	24
2023-08-03T06:00	14684	134	-50.9	-80.2	242	24
2023-08-03T06:00	14706	134	-51.0	-80.3	243	24
2023-08-03T06:00	14730	133	-51.1	-80.4	244	25
2023-08-03T06:00	14751	133	-51.3	-80.5	245	25
2023-08-03T06:00	14775	132	-51.4	-80.6	246	26
2023-08-03T06:00	14801	132	-51.4	-80.6	246	26
2023-08-03T06:00	14822	131	-51.5	-80.7	247	27
2023-08-03T06:00	14847	131	-51.5	-80.7	247	27
2023-08-03T06:00	14867	130	-51.6	-80.4	247	26
2023-08-03T06:00	14892	130	-51.7	-80.8	247	26
2023-08-03T06:00	14914	129	-51.9	-81.0	246	26
2023-08-03T06:00	14935	129	-51.8	-80.9	246	25
2023-08-03T06:00	14958	128	-51.9	-81.0	246	25
2023-08-03T06:00	14981	128	-51.8	-80.9	246	24
2023-08-03T06:00	15004	128	-51.7	-81.2	245	23
2023-08-03T06:00	15025	127	-51.6	-81.2	245	23
2023-08-03T06:00	15048	127	-51.5	-81.5	244	22
2023-08-03T06:00	15070	126	-51.1	-81.7	243	21
2023-08-03T06:00	15094	126	-51.2	-81.8	242	21
2023-08-03T06:00	15114	125	-50.9	-81.6	242	21
2023-08-03T06:00	15136	125	-50.8	-81.5	242	20
2023-08-03T06:00	15157	125	-51.0	-81.6	242	20
2023-08-03T06:00	15178	124	-51.1	-81.7	242	19
2023-08-03T06:00	15200	124	-51.1	-82.2	242	19
2023-08-03T06:00	15225	123	-50.6	-81.9	242	18
2023-08-03T06:00	15248	123	-50.4	-81.7	242	18
2023-08-03T06:00	15273	122	-50.5		241	17
2023-08-03T06:00	15294	122	-50.6	-81.9	239	17
2023-08-03T06:00	15318	122	-50.8	-82.0	238	17
2023-08-03T06:00	15341	121	-50.9	-82.1	236	17
2023-08-03T06:00	15366	121	-51.0	-82.2	235	17
2023-08-03T06:00	15391	120	-51.2	-82.3	234	17
2023-08-03T06:00	15417	120	-51.3	-82.4	233	18
2023-08-03T06:00	15441	119	-51.5	-82.5	232	18
2023-08-03T06:00	15464	119	-51.7	-82.7	231	18
2023-08-03T06:00	15490	118	-51.8	-82.2	230	18
2023-08-03T06:00	15514	118	-52.0	-82.4	229	18
2023-08-03T06:00	15537	118	-52.3	-82.6	228	18
2023-08-03T06:00	15561	117	-52.4	-82.7	226	18
2023-08-03T06:00	15584	117	-52.6	-82.8	224	18
2023-08-03T06:00	15607	116	-52.9	-83.1	223	18
2023-08-03T06:00	15633	116	-53.0	-82.7	221	19
2023-08-03T06:00	15658	115	-53.0	-82.7	219	19
2023-08-03T06:00	15682	115	-53.0	-82.7	218	19
2023-08-03T06:00	15709	114	-53.1	-82.7	217	20
2023-08-03T06:00	15739	114	-53.3	-82.9	216	20
2023-08-03T06:00	15760	114	-53.5	-83.0	215	20
2023-08-03T06:00	15784	113	-53.8	-82.8	215	20
2023-08-03T06:00	15809	113	-54.0	-83.0	215	20
2023-08-03T06:00	15835	112	-54.2	-83.1	216	20
2023-08-03T06:00	15856	112	-54.4	-83.3	216	21
2023-08-03T06:00	15883	111	-54.6	-83.0	217	21
2023-08-03T06:00	15907	111	-54.7	-83.5	218	22
2023-08-03T06:00	15932	111	-54.6	-83.4	218	22
2023-08-03T06:00	15954	110	-54.7	-83.5	219	22
2023-08-03T06:00	15977	110	-54.8	-83.6	220	23
2023-08-03T06:00	16004	109	-55.0	-83.7	221	23
2023-08-03T06:00	16027	109	-55.1	-83.4	222	23
2023-08-03T06:00	16048	109	-55.2	-83.9	222	23
2023-08-03T06:00	16073	108	-55.3	-84.0	223	23
2023-08-03T06:00	16099	108	-55.2	-83.9	223	23
2023-08-03T06:00	16122	107	-55.1	-84.2	223	23
2023-08-03T06:00	16146	107	-55.2	-84.3	223	23
2023-08-03T06:00	16168	107	-55.0	-84.6	223	22
2023-08-03T06:00	16191	106	-54.7	-84.4	223	22
2023-08-03T06:00	16213	106	-54.0	-84.4	224	22
2023-08-03T06:00	16233	105	-53.6	-84.1	224	21
2023-08-03T06:00	16258	105	-53.6	-84.6	225	21
2023-08-03T06:00	16282	105	-53.8	-84.8	225	21
2023-08-03T06:00	16304	104	-53.7	-84.2	226	21
2023-08-03T06:00	16327	104	-53.5	-84.0	227	21
2023-08-03T06:00	16354	104	-53.7	-84.2	228	21
2023-08-03T06:00	16378	103	-53.9	-84.3	230	21
2023-08-03T06:00	16402	103	-54.1	-84.5	232	21
2023-08-03T06:00	16421	102	-54.3	-84.6	234	21
2023-08-03T06:00	16446	102	-54.4	-84.7	236	21
2023-08-03T06:00	16469	102	-54.4	-84.7	238	22
2023-08-03T06:00	16495	101	-54.4	-84.7	239	21
2023-08-03T06:00	16517	101	-54.3	-84.6	241	21
2023-08-03T06:00	16546	100	-54.1	-84.5	241	21
2023-08-03T06:00	16568	100	-54.0	-84.4	242	20
2023-08-03T06:00	16590	100	-54.0	-84.9	242	19
2023-08-03T06:00	16612	99	-54.1	-85.0	242	19
2023-08-03T06:00	16640	99	-54.0	-84.9	242	18
2023-08-03T06:00	16663	99	-53.4	-84.5	241	17
2023-08-03T06:00	16687	98	-53.1	-84.3	241	17
2023-08-03T06:00	16711	98	-52.9	-84.7	242	16
2023-08-03T06:00	16732	98	-53.0	-84.8	242	16
2023-08-03T06:00	16754	97	-52.8	-84.7	244	15
2023-08-03T06:00	16776	97	-52.6	-84.5	244	15
2023-08-03T06:00	16799	97	-52.6	-84.5	245	15
2023-08-03T06:00	16823	96	-52.7	-84.0	244	14
2023-08-03T06:00	16849	96	-52.9	-84.1	243	14
2023-08-03T06:00	16872	95	-52.9	-84.1	241	14
2023-08-03T06:00	16896	95	-52.9	-84.1	239	14
2023-08-03T06:00	16918	95	-52.9	-84.1	237	14
2023-08-03T06:00	16941	94	-53.0	-84.2	235	14
2023-08-03T06:00	16966	94	-52.9	-84.1	232	14
2023-08-03T06:00	16990	94	-52.9	-84.7	230	15
2023-08-03T06:00	17015	93	-52.7	-84.6	228	15
2023-08-03T06:00	17035	93	-52.3	-84.3	226	15
2023-08-03T06:00	17058	93	-52.2	-84.2	225	15
2023-08-03T06:00	17081	92	-51.9	-84.7	224	15
2023-08-03T06:00	17106	92	-51.6	-84.5	223	14
2023-08-03T06:00	17133	92	-51.3	-84.3	222	14
2023-08-03T06:00	17157	91	-51.2	-84.2	220	14
2023-08-03T06:00	17185	91	-51.1	-84.1	217	14
2023-08-03T06:00	17211	91	-50.9	-84.0	214	14
2023-08-03T06:00	17241	90	-50.9	-84.0	211	14
2023-08-03T06:00	17270	90	-51.0	-84.0	208	15
2023-08-03T06:00	17299	89	-51.3	-84.3	206	15
2023-08-03T06:00	17327	89	-51.5	-83.7	203	15
2023-08-03T06:00	17352	89	-51.6	-83.8	201	15
2023-08-03T06:00	17377	88	-51.8	-83.9	199	15
2023-08-03T06:00	17408	88	-52.1	-84.2	198	16
2023-08-03T06:00	17429	88	-52.2	-83.6	197	16
2023-08-03T06:00	17452	87	-52.6	-83.9	196	16
2023-08-03T06:00	17481	87	-52.7	-84.0	195	16
2023-08-03T06:00	17507	87	-53.0	-84.2	195	17
2023-08-03T06:00	17537	86	-53.3	-84.4	195	17
2023-08-03T06:00	17562	86	-53.4	-84.5	195	18
2023-08-03T06:00	17587	86	-53.7	-84.2	196	18
2023-08-03T06:00	17614	85	-53.9	-84.3	197	18
2023-08-03T06:00	17634	85	-54.0	-84.9	199	18
2023-08-03T06:00	17662	85	-54.1	-85.0	201	18
2023-08-03T06:00	17688	84	-53.5	-84.6	204	18
2023-08-03T06:00	17715	84	-53.1	-84.9	206	18
2023-08-03T06:00	17739	84	-53.0	-84.8	207	18
2023-08-03T06:00	17765	83	-52.9	-84.7	208	17
2023-08-03T06:00	17786	83	-52.7	-84.6	208	17
2023-08-03T06:00	17810	83	-52.5	-84.4	208	17
2023-08-03T06:00	17835	82	-52.6	-84.5	208	17
2023-08-03T06:00	17863	82	-52.8	-84.7	209	17
2023-08-03T06:00	17885	82	-53.0	-84.8	209	17
2023-08-03T06:00	17907	81	-53.0	-84.8	210	17
2023-08-03T06:00	17932	81	-52.8	-84.7	211	17
2023-08-03T06:00	17956	81	-52.7	-84.6	212	17
2023-08-03T06:00	17980	80	-52.6	-84.5	212	17
2023-08-03T06:00	18003	80	-52.8	-84.7	212	16
2023-08-03T06:00	18025	80	-53.0	-84.8	213	16
2023-08-03T06:00	18050	80	-52.8	-84.7	213	15
2023-08-03T06:00	18072	79	-52.6	-84.5	213	14
2023-08-03T06:00	18095	79	-52.6	-84.5	213	13
2023-08-03T06:00	18119	79	-52.6	-84.5	213	13
2023-08-03T06:00	18142	78	-52.3	-84.3	213	12
2023-08-03T06:00	18162	78	-52.2	-84.2	214	12
2023-08-03T06:00	18188	78	-52.2	-84.2	216	11
2023-08-03T06:00	18210	78	-52.3	-84.3	218	11
2023-08-03T06:00	18237	77	-52.3	-84.3	220	11
2023-08-03T06:00	18259	77	-52.1	-84.2	222	11
2023-08-03T06:00	18282	77	-52.0	-84.8	224	11
2023-08-03T06:00	18304	77	-51.9	-84.7	225	11
2023-08-03T06:00	18327	76	-51.7	-84.5	225	11
2023-08-03T06:00	18350	76	-51.5	-84.4	225	11
2023-08-03T06:00	18374	76	-51.6	-84.5	223	11
2023-08-03T06:00	18396	75	-51.8	-84.6	222	11
2023-08-03T06:00	18419	75	-52.0	-84.1	220	11
2023-08-03T06:00	18442	75	-52.1	-84.2	218	11
2023-08-03T06:00	18466	75	-52.3	-84.3	216	11
2023-08-03T06:00	18493	74	-52.5	-84.4	215	11
2023-08-03T06:00	18514	74	-52.6	-84.5	214	10
2023-08-03T06:00	18539	74	-52.7	-84.6	213	10
2023-08-03T06:00	18561	74	-52.7	-84.6	213	10
2023-08-03T06:00	18589	73	-52.8	-84.7	213	9
2023-08-03T06:00	18612	73	-53.0	-84.8	212	9
2023-08-03T06:00	18635	73	-53.2	-85.0	211	9
2023-08-03T06:00	18661	72	-53.3	-84.4	210	9
2023-08-03T06:00	18686	72	-53.4	-84.5	209	9
2023-08-03T06:00	18708	72	-53.4	-84.5	207	9
2023-08-03T06:00	18738	72	-53.6	-84.6	206	9
2023-08-03T06:00	18763	71	-53.8	-84.8	206	9
2023-08-03T06:00	18790	71	-54.1	-85.0	206	9
2023-08-03T06:00	18815	71	-54.3	-84.6	205	9
2023-08-03T06:00	18840	70	-54.5	-84.8	205	9
2023-08-03T06:00	18862	70	-54.7	-84.9	205	9
2023-08-03T06:00	18886	70	-54.9	-85.1	206	9
2023-08-03T06:00	18910	70	-55.1	-85.2	206	9
2023-08-03T06:00	18936	69	-55.2	-85.3	207	9
2023-08-03T06:00	18964	69	-55.4	-85.4	208	9
2023-08-03T06:00	18985	69	-55.6	-85.6	209	10
2023-08-03T06:00	19016	68	-55.8	-85.2	209	10
2023-08-03T06:00	19044	68	-56.0		210	11
2023-08-03T06:00	19066	68	-56.1	-85.5	210	11
2023-08-03T06:00	19092	68	-56.2	-85.5	210	11
2023-08-03T06:00	19119	67	-56.4	-85.7	210	12
2023-08-03T06:00	19144	67	-56.5	-85.8	210	12
2023-08-03T06:00	19169	67	-56.8	-86.0	211	12
2023-08-03T06:00	19196	67	-57.0	-86.1	213	12
2023-08-03T06:00	19224	66	-57.3	-86.4	214	12
2023-08-03T06:00	19249	66	-57.4	-86.4	217	12
2023-08-03T06:00	19273	66	-57.3	-86.4	219	11
2023-08-03T06:00	19297	66	-57.1	-86.7	221	11
2023-08-03T06:00	19322	65	-56.6	-86.3	223	10
2023-08-03T06:00	19346	65	-56.5	-86.8	226	10
2023-08-03T06:00	19369	65	-56.1	-86.5	228	9
2023-08-03T06:00	19396	65	-55.6	-86.7	231	9
2023-08-03T06:00	19420	64	-55.0	-86.3	234	9
2023-08-03T06:00	19443	64	-54.5	-85.9	236	9
2023-08-03T06:00	19470	64	-54.4	-85.8	238	9
2023-08-03T06:00	19494	64	-54.3	-85.8	238	9
2023-08-03T06:00	19517	63	-54.2	-85.7	237	9
2023-08-03T06:00	19547	63	-54.2	-85.7	236	9
2023-08-03T06:00	19575	63	-54.2	-85.7	236	8
2023-08-03T06:00	19605	62	-54.2	-86.4	235	8
2023-08-03T06:00	19637	62	-53.7	-86.0	236	7
2023-08-03T06:00	19669	62	-52.1	-85.6	236	5
2023-08-03T06:00	19694	62	-51.3	-85.0	234	4
2023-08-03T06:00	19730	61	-51.0	-84.8	227	3
2023-08-03T06:00	19757	61	-51.2	-85.0	207	2
2023-08-03T06:00	19783	61	-51.4	-85.1	168	1
2023-08-03T06:00	19804	61	-51.5	-84.4	139	1
2023-08-03T06:00	19826	60	-51.5	-84.4	129	2
2023-08-03T06:00	19850	60	-51.7	-84.5	126	2
2023-08-03T06:00	19875	60	-51.9	-84.7	123	3
2023-08-03T06:00	19898	60	-52.1	-84.8	121	3
2023-08-03T06:00	19923	59	-52.2	-84.2	119	3
2023-08-03T06:00	19948	59	-52.3	-84.3	117	3
2023-08-03T06:00	19972	59	-52.4	-84.4	117	4
2023-08-03T06:00	19998	59	-52.2	-84.9	119	4
2023-08-03T06:00	20021	59	-52.1	-84.8	122	4
2023-08-03T06:00	20047	58	-52.2	-84.9	126	4
2023-08-03T06:00	20067	58	-52.3	-85.0	131	4
2023-08-03T06:00	20094	58	-52.4	-85.1	137	5
2023-08-03T06:00	20119	58	-52.3	-85.0	143	5
2023-08-03T06:00	20141	57	-52.0	-84.8	151	5
2023-08-03T06:00	20169	57	-51.8	-84.6	159	5
2023-08-03T06:00	20192	57	-51.8	-84.6	166	5
2023-08-03T06:00	20219	57	-51.9	-84.7	172	6
2023-08-03T06:00	20243	57	-52.1	-84.8	176	6
2023-08-03T06:00	20268	56	-52.0	-84.8	177	6
2023-08-03T06:00	20292	56	-51.9	-84.7	176	6
2023-08-03T06:00	20320	56	-51.9	-84.7	173	6
2023-08-03T06:00	20343	56	-51.8	-84.6	169	7
2023-08-03T06:00	20366	56	-51.9	-84.7	165	7
2023-08-03T06:00	20395	55	-52.0	-84.8	161	7
2023-08-03T06:00	20415	55	-51.9	-84.7	160	8
2023-08-03T06:00	20443	55	-51.8	-84.6	160	8
2023-08-03T06:00	20466	55	-51.7	-84.5	161	8
2023-08-03T06:00	20493	54	-51.2	-84.2	162	9
2023-08-03T06:00	20512	54	-51.1	-84.1	163	9
2023-08-03T06:00	20535	54	-51.2	-84.2	162	9
2023-08-03T06:00	20566	54	-51.4	-84.3	161	8
2023-08-03T06:00	20586	54	-51.4	-84.3	159	8
2023-08-03T06:00	20607	53	-51.3	-84.3	156	8
2023-08-03T06:00	20631	53	-51.2	-84.2	154	8
2023-08-03T06:00	20659	53	-51.2	-84.2	153	8
2023-08-03T06:00	20683	53	-51.2	-84.2	153	8
2023-08-03T06:00	20708	53	-51.1	-84.1	155	8
2023-08-03T06:00	20730	52	-50.9	-84.0	157	8
2023-08-03T06:00	20755	52	-50.9	-84.0	159	8
2023-08-03T06:00	20779	52	-51.0	-84.0	162	8
2023-08-03T06:00	20807	52	-51.1	-84.1	164	7
2023-08-03T06:00	20831	52	-51.2	-84.2	165	7
2023-08-03T06:00	20856	52	-51.2	-84.2	164	7
2023-08-03T06:00	20879	51	-51.2	-84.2	161	7
2023-08-03T06:00	20907	51	-51.3	-84.3	157	7
2023-08-03T06:00	20926	51	-51.5	-84.4	154	8
2023-08-03T06:00	20957	51	-51.4	-84.3	153	8
2023-08-03T06:00	20985	50	-51.4	-84.3	153	8
2023-08-03T06:00	21007	50	-51.3	-84.3	156	8
2023-08-03T06:00	21033	50	-51.4	-84.3	160	9
2023-08-03T06:00	21061	50	-51.5	-84.4	164	8
2023-08-03T06:00	21086	50	-51.7	-84.5	169	8
2023-08-03T06:00	21110	50	-51.9	-84.7	174	8
2023-08-03T06:00	21132	49	-52.1	-84.8	178	8
2023-08-03T06:00	21163	49	-52.1	-84.8	181	7
2023-08-03T06:00	21190	49	-52.0	-84.8	182	7
2023-08-03T06:00	21212	49	-51.9	-84.7	181	6
2023-08-03T06:00	21237	49	-51.7	-84.5	177	6
2023-08-03T06:00	21267	48	-51.7	-84.5	171	6
2023-08-03T06:00	21288	48	-51.6	-84.5	166	6
2023-08-03T06:00	21316	48	-51.6	-84.5	164	6
2023-08-03T06:00	21340	48	-51.5	-84.4	165	7
2023-08-03T06:00	21363	48	-51.5	-84.4	168	7
2023-08-03T06:00	21392	47	-51.5	-84.4	174	6
2023-08-03T06:00	21417	47	-51.5	-84.4	182	6
2023-08-03T06:00	21439	47	-51.2	-85.0	190	6
2023-08-03T06:00	21473	47	-50.8	-84.7	196	6
2023-08-03T06:00	21491	47	-50.6	-84.5	200	5
2023-08-03T06:00	21513	47	-50.5	-84.5	203	5
2023-08-03T06:00	21547	46	-50.6	-84.5	203	4
2023-08-03T06:00	21564	46	-50.6	-84.5	200	4
2023-08-03T06:00	21591	46	-50.6	-84.5	195	3
2023-08-03T06:00	21620	46	-50.7	-84.6	187	3
2023-08-03T06:00	21641	46	-50.7	-84.6	175	3
2023-08-03T06:00	21667	45	-50.7	-84.6	164	3
2023-08-03T06:00	21699	45	-50.6	-84.5	155	3
2023-08-03T06:00	21717	45	-50.6	-84.5	151	4
2023-08-03T06:00	21744	45	-50.6	-84.5	152	4
2023-08-03T06:00	21769	45	-50.5	-84.5	156	4
2023-08-03T06:00	21799	45	-50.6	-84.5	163	4
2023-08-03T06:00	21824	44	-50.6	-84.5	171	5
2023-08-03T06:00	21855	44	-50.7	-84.6	180	5
2023-08-03T06:00	21874	44	-50.7	-84.6	187	5
2023-08-03T06:00	21902	44	-50.8	-84.7	193	5
2023-08-03T06:00	21923	44	-50.9	-84.7	196	5
2023-08-03T06:00	21954	44	-50.8	-84.7	198	5
2023-08-03T06:00	21974	43	-50.7	-84.6	198	5
2023-08-03T06:00	22007	43	-50.4	-84.4	197	5
2023-08-03T06:00	22026	43	-50.1	-84.2	196	4
2023-08-03T06:00	22053	43	-50.0	-84.1	197	4
2023-08-03T06:00	22078	43	-50.1	-84.2	198	4
2023-08-03T06:00	22105	42	-50.3	-84.3	201	4
2023-08-03T06:00	22133	42	-50.5	-84.5	205	3
2023-08-03T06:00	22162	42	-50.7	-84.6	208	3
2023-08-03T06:00	22189	42	-50.8	-84.7	208	2
2023-08-03T06:00	22215	42	-50.7	-84.6	203	2
2023-08-03T06:00	22240	42	-50.7	-84.6	188	1
2023-08-03T06:00	22264	41	-50.6	-84.5	152	1
2023-08-03T06:00	22294	41	-50.5	-84.5	115	1
2023-08-03T06:00	22320	41	-50.6	-84.5	96	2
2023-08-03T06:00	22348	41	-50.5	-84.5	88	2
2023-08-03T06:00	22372	41	-50.4	-84.4	84	3
2023-08-03T06:00	22399	41	-50.3	-84.3	84	4
2023-08-03T06:00	22431	40	-50.3	-84.3	85	4
2023-08-03T06:00	22454	40	-50.4	-84.4	88	4
2023-08-03T06:00	22481	40	-50.4	-84.4	91	5
2023-08-03T06:00	22506	40	-50.4	-84.4	96	5
2023-08-03T06:00	22538	40	-50.4	-84.4	101	6
2023-08-03T06:00	22563	40	-50.5	-84.5	105	6
2023-08-03T06:00	22596	39	-50.6	-83.7	109	7
2023-08-03T06:00	22620	39	-50.7	-83.8	113	7
2023-08-03T06:00	22642	39	-50.8	-83.9	116	7
2023-08-03T06:00	22669	39	-51.0	-84.0	120	7
2023-08-03T06:00	22699	39	-51.1	-84.1	125	7
2023-08-03T06:00	22726	39	-51.3	-84.3	130	7
2023-08-03T06:00	22752	38	-51.3	-84.3	136	7
2023-08-03T06:00	22781	38	-51.2	-84.2	141	8
2023-08-03T06:00	22811	38	-51.2	-84.2	145	8
2023-08-03T06:00	22838	38	-51.3	-84.3	149	8
2023-08-03T06:00	22863	38	-51.3	-84.3	151	8
2023-08-03T06:00	22896	38	-51.4	-84.3	154	8
2023-08-03T06:00	22915	38	-51.4	-84.3	156	7
2023-08-03T06:00	22951	37	-51.5	-84.4	159	7
2023-08-03T06:00	22973	37	-51.6	-84.5	161	6
2023-08-03T06:00	23001	37	-51.6	-84.5	164	5
2023-08-03T06:00	23022	37	-51.6	-84.5	167	5
2023-08-03T06:00	23048	37	-51.6	-84.5	168	4
2023-08-03T06:00	23087	37	-51.6	-84.5	168	4
2023-08-03T06:00	23108	36	-51.5	-85.2	166	3
2023-08-03T06:00	23138	36	-51.4	-85.1	163	3
2023-08-03T06:00	23172	36	-51.3	-85.0	158	2
2023-08-03T06:00	23201	36	-51.2	-85.0	150	2
2023-08-03T06:00	23223	36	-51.0	-84.8	135	2
2023-08-03T06:00	23250	36	-50.9	-84.7	107	1
2023-08-03T06:00	23276	35	-50.9	-84.7	85	2
2023-08-03T06:00	23309	35	-51.1	-84.9	78	2
2023-08-03T06:00	23336	35	-51.1	-84.9	80	3
2023-08-03T06:00	23363	35	-51.1	-84.9	84	4
2023-08-03T06:00	23393	35	-51.1	-84.9	91	5
2023-08-03T06:00	23416	35	-51.1	-84.9	99	5
2023-08-03T06:00	23445	35	-51.1	-84.9	107	5
2023-08-03T06:00	23473	34	-51.1	-84.9	116	6
2023-08-03T06:00	23502	34	-51.1	-84.9	125	6
2023-08-03T06:00	23529	34	-51.2	-85.0	133	6
2023-08-03T06:00	23555	34	-51.2	-85.0	140	6
2023-08-03T06:00	23586	34	-51.3	-85.0	145	6
2023-08-03T06:00	23614	34	-51.3	-85.0	150	6
2023-08-03T06:00	23638	34	-51.3	-85.0	155	6
2023-08-03T06:00	23666	33	-51.4	-85.1	159	6
2023-08-03T06:00	23692	33	-51.4	-85.1	164	5
2023-08-03T06:00	23724	33	-51.3	-85.0	167	5
2023-08-03T06:00	23754	33	-51.3	-85.0	168	4
2023-08-03T06:00	23781	33	-51.4	-85.1	167	4
2023-08-03T06:00	23798	33	-51.3	-85.0	162	3
2023-08-03T06:00	23834	33	-51.1	-84.9	155	2
2023-08-03T06:00	23865	32	-50.9	-84.7	149	2
2023-08-03T06:00	23888	32	-50.6	-84.5	146	1
2023-08-03T06:00	23918	32	-50.4	-84.4	152	1
2023-08-03T06:00	23951	32	-50.4	-84.4	171	0
2023-08-03T06:00	23975	32	-50.4	-84.4	35	0
2023-08-03T06:00	24003	32	-50.5	-84.5	48	0
2023-08-03T06:00	24026	32	-50.4	-84.4	60	1
2023-08-03T06:00	24057	31	-50.3	-84.3	68	2
2023-08-03T06:00	24083	31	-50.2	-84.2	74	2
2023-08-03T06:00	24111	31	-50.3	-84.3	78	3
2023-08-03T06:00	24140	31	-50.4	-84.4	82	4
2023-08-03T06:00	24167	31	-50.5	-84.5	85	4
2023-08-03T06:00	24197	31	-50.6	-84.5	87	5
2023-08-03T06:00	24223	31	-50.7	-84.6	89	5
2023-08-03T06:00	24254	31	-50.8	-84.7	90	5
2023-08-03T06:00	24276	30	-50.8	-84.7	90	5
2023-08-03T06:00	24304	30	-50.8	-84.7	90	5
2023-08-03T06:00	24329	30	-50.9	-84.7	90	5
2023-08-03T06:00	24357	30	-50.9	-84.7	91	4
2023-08-03T06:00	24383	30	-51.0	-84.8	92	4
2023-08-03T06:00	24405	30	-51.0	-84.8	94	4
2023-08-03T06:00	24434	30	-51.1	-84.9	96	4
2023-08-03T06:00	24460	30	-51.2	-85.0	97	5
2023-08-03T06:00	24485	29	-51.3	-85.0	98	5
2023-08-03T06:00	24509	29	-51.3	-85.0	99	5
2023-08-03T06:00	24539	29	-51.3	-85.0	100	5
2023-08-03T06:00	24569	29	-51.2	-85.0	101	5
2023-08-03T06:00	24596	29	-51.1	-84.9	102	5
2023-08-03T06:00	24621	29	-50.9	-84.7	101	5
2023-08-03T06:00	24647	29	-50.8	-84.7	98	5
2023-08-03T06:00	24673	29	-50.6	-84.5	94	5
2023-08-03T06:00	24706	29	-50.5	-84.5	90	5
2023-08-03T06:00	24732	28	-50.4	-84.4	86	4
2023-08-03T06:00	24755	28	-50.4	-84.4	82	4
2023-08-03T06:00	24784	28	-50.4	-84.4	79	5
2023-08-03T06:00	24815	28	-50.3	-85.2	77	5
2023-08-03T06:00	24844	28	-50.1	-85.1	74	5
2023-08-03T06:00	24879	28	-49.9	-84.9	72	6
2023-08-03T06:00	24898	28	-49.6	-84.7	70	6
2023-08-03T06:00	24928	28	-49.3	-84.5	69	6
2023-08-03T06:00	24961	27	-49.3	-84.5	69	7
2023-08-03T06:00	24986	27	-49.1	-84.3	70	7
2023-08-03T06:00	25018	27	-48.9	-84.2	71	7
2023-08-03T06:00	25044	27	-49.0	-84.3	72	7
2023-08-03T06:00	25083	27	-49.2	-84.4	75	7
2023-08-03T06:00	25106	27	-49.3	-84.5	78	7
2023-08-03T06:00	25136	27	-49.3	-84.5	81	8
2023-08-03T06:00	25166	27	-49.4	-84.6	84	8
2023-08-03T06:00	25193	26	-49.5	-84.6	87	9
2023-08-03T06:00	25226	26	-49.5	-84.6	89	9
2023-08-03T06:00	25259	26	-49.4	-84.6	90	10
2023-08-03T06:00	25282	26	-49.3	-84.5	91	10
2023-08-03T06:00	25312	26	-49.3	-84.5	91	10
2023-08-03T06:00	25351	26	-49.3	-84.5	91	11
2023-08-03T06:00	25389	26	-49.3	-84.5	92	11
2023-08-03T06:00	25417	26	-49.2	-84.4	93	11
2023-08-03T06:00	25443	25	-49.1	-84.3	93	11
2023-08-03T06:00	25481	25	-49.0	-84.3	94	11
2023-08-03T06:00	25509	25	-49.1	-84.3	94	11
2023-08-03T06:00	25538	25	-49.3	-84.5	94	11
2023-08-03T06:00	25567	25	-49.3	-84.5	94	11
2023-08-03T06:00	25600	25	-49.3	-84.5	94	11
2023-08-03T06:00	25635	25	-49.3	-84.5	95	11
2023-08-03T06:00	25657	25	-49.2	-84.4	96	10
2023-08-03T06:00	25690	25	-49.2	-84.4	97	10
2023-08-03T06:00	25721	24	-49.2	-84.4	99	10
2023-08-03T06:00	25749	24	-49.0	-84.3	101	10
2023-08-03T06:00	25780	24	-48.9	-84.2	104	10
2023-08-03T06:00	25813	24	-48.8	-84.1	106	9
2023-08-03T06:00	25841	24	-48.8	-84.1	109	9
2023-08-03T06:00	25869	24	-48.8	-84.1	111	8
2023-08-03T06:00	25895	24	-48.8	-84.1	112	7
2023-08-03T06:00	25933	24	-48.8	-84.1	112	6
2023-08-03T06:00	25964	24	-48.8	-84.1	111	6
2023-08-03T06:00	25993	23	-48.8	-84.1	108	6
2023-08-03T06:00	26014	23	-48.9	-84.2	103	5
2023-08-03T06:00	26048	23	-48.8	-84.1	98	6
2023-08-03T06:00	26072	23	-48.6		92	6
2023-08-03T06:00	26101	23	-48.7	-84.1	87	6
2023-08-03T06:00	26126	23	-48.9	-84.2	84	7
2023-08-03T06:00	26152	23	-49.0	-84.3	84	7
2023-08-03T06:00	26186	23	-48.9	-84.2	85	7
2023-08-03T06:00	26216	23	-48.7	-84.1	89	7
2023-08-03T06:00	26234	23	-48.6		95	7
2023-08-03T06:00	26269	22	-48.6		100	7
2023-08-03T06:00	26290	22	-48.6		105	6
2023-08-03T06:00	26317	22	-48.6		108	6
2023-08-03T06:00	26349	22	-48.4	-83.8	110	5
2023-08-03T06:00	26373	22	-48.1	-84.7	110	5
2023-08-03T06:00	26402	22	-47.9	-84.6	108	4
2023-08-03T06:00	26424	22	-47.7	-84.4	104	4
2023-08-03T06:00	26451	22	-47.5	-84.3	98	3
2023-08-03T06:00	26473	22	-47.5	-84.3	91	3
2023-08-03T06:00	26506	22	-47.4	-84.2	84	4
2023-08-03T06:00	26531	22	-47.2	-84.1	79	4
2023-08-03T06:00	26565	22	-47.1	-84.0	76	4
2023-08-03T06:00	26586	21	-46.9	-83.9	74	4
2023-08-03T06:00	26616	21	-46.8	-83.8	73	5
2023-08-03T06:00	26643	21	-46.8	-83.8	73	5
2023-08-03T06:00	26665	21	-46.8	-83.8	73	6
2023-08-03T06:00	26705	21	-46.8	-83.8	74	6
2023-08-03T06:00	26723	21	-46.8	-83.8	75	7
2023-08-03T06:00	26757	21	-46.8	-83.8	76	7
2023-08-03T06:00	26779	21	-46.8	-83.8	77	8
2023-08-03T06:00	26814	21	-46.7	-83.7	79	8
2023-08-03T06:00	26838	21	-46.6	-83.6	82	9
2023-08-03T06:00	26871	21	-46.6	-83.6	86	9
2023-08-03T06:00	26897	20	-46.7	-83.7	89	9
2023-08-03T06:00	26928	20	-46.9	-83.9	93	9
2023-08-03T06:00	26942	20	-47.0	-83.9	96	9
2023-08-03T06:00	26991	20	-46.9	-83.9	97	9
2023-08-03T06:00	27012	20	-46.8	-83.8	98	8
2023-08-03T06:00	27048	20	-46.7	-83.7	97	8
2023-08-03T06:00	27069	20	-46.5	-83.6	94	8
2023-08-03T06:00	27111	20	-46.4	-83.5	92	7
2023-08-03T06:00	27138	20	-46.4	-83.5	90	7
2023-08-03T06:00	27156	20	-46.4	-83.5	91	7
2023-08-03T06:00	27192	20	-46.4	-83.5	94	7
2023-08-03T06:00	27217	19	-46.3	-83.4	100	7
2023-08-03T06:00	27259	19	-46.2	-83.4	107	7
2023-08-03T06:00	27270	19	-46.2	-83.4	113	7
2023-08-03T06:00	27315	19	-46.1	-83.3	116	8
2023-08-03T06:00	27340	19	-46.0	-83.2	116	8
2023-08-03T06:00	27374	19	-45.8	-83.1	114	8
2023-08-03T06:00	27411	19	-45.7	-83.0	110	7
2023-08-03T06:00	27433	19	-45.5	-82.9	106	7
2023-08-03T06:00	27455	19	-45.4	-82.8	105	7
2023-08-03T06:00	27501	19	-45.5	-82.9	106	7
2023-08-03T06:00	27525	19	-45.5	-82.9	109	7
2023-08-03T06:00	27558	19	-45.3	-82.7	114	8
2023-08-03T06:00	27589	18	-45.4	-82.8	119	8
2023-08-03T06:00	27609	18	-45.5	-82.9	124	9
2023-08-03T06:00	27643	18	-45.7	-83.0	128	9
2023-08-03T06:00	27664	18	-45.7	-83.0	131	10
2023-08-03T06:00	27703	18	-45.7	-83.0	134	10
2023-08-03T06:00	27721	18	-45.7	-83.0	136	9
2023-08-03T06:00	27754	18	-45.7	-83.0	137	9
2023-08-03T06:00	27784	18	-45.7	-83.0	137	8
2023-08-03T06:00	27816	18	-45.6	-82.9	137	7
2023-08-03T06:00	27849	18	-45.6	-82.9	135	6
2023-08-03T06:00	27881	18	-45.6	-82.9	130	5
2023-08-03T06:00	27906	18	-45.4	-82.8	121	4
2023-08-03T06:00	27939	17	-45.3	-82.7	107	4
2023-08-03T06:00	27981	17	-45.3	-82.7	90	3
2023-08-03T06:00	28001	17	-45.2	-82.7	78	4
2023-08-03T06:00	28029	17	-45.0	-82.5	71	4
2023-08-03T06:00	28062	17	-44.6	-82.2	69	5
2023-08-03T06:00	28083	17	-44.2	-82.0	70	6
2023-08-03T06:00	28110	17	-44.1	-81.9	73	6
2023-08-03T06:00	28147	17	-44.0	-81.8	76	7
2023-08-03T06:00	28179	17	-44.0	-81.8	80	7
2023-08-03T06:00	28207	17	-44.0	-81.8	83	7
2023-08-03T06:00	28246	17	-44.1	-81.9	86	7
2023-08-03T06:00	28273	17	-44.2	-82.0	89	7
2023-08-03T06:00	28301	17	-44.3	-82.0	90	8
2023-08-03T06:00	28326	16	-44.4	-82.1	91	8
2023-08-03T06:00	28359	16	-44.4	-82.1	92	8
2023-08-03T06:00	28393	16	-44.4	-82.1	92	9
2023-08-03T06:00	28417	16	-44.5	-82.2	92	9
2023-08-03T06:00	28449	16	-44.5	-82.2	92	10
2023-08-03T06:00	28485	16	-44.5	-82.2	92	10
2023-08-03T06:00	28505	16	-44.5	-82.2	92	10
2023-08-03T06:00	28545	16	-44.4	-82.1	92	10
2023-08-03T06:00	28570	16	-44.4	-82.1	91	10
2023-08-03T06:00	28594	16	-44.4	-82.1	90	10
2023-08-03T06:00	28627	16	-44.4	-82.1	89	11
2023-08-03T06:00	28656	16	-44.4	-82.1	88	11
2023-08-03T06:00	28697	16	-44.5	-82.2	88	10
2023-08-03T06:00	28719	16	-44.4	-82.1	88	10
2023-08-03T06:00	28748	15	-44.4	-82.1	88	9
2023-08-03T06:00	28768	15	-44.4	-82.1	89	9
2023-08-03T06:00	28799	15	-44.5	-82.2	89	8
2023-08-03T06:00	28828	15	-44.5	-82.2	90	8
2023-08-03T06:00	28860	15	-44.6	-82.2	90	7
2023-08-03T06:00	28892	15	-44.7	-82.3	89	8
2023-08-03T06:00	28918	15	-44.7	-82.3	88	8
2023-08-03T06:00	28935	15	-44.6	-82.2	87	9
2023-08-03T06:00	28978	15	-44.5	-82.2	86	10
2023-08-03T06:00	29001	15	-44.3	-82.0	86	11
2023-08-03T06:00	29030	15	-44.1	-81.9	86	11
2023-08-03T06:00	29053	15	-43.8	-81.7	86	12
2023-08-03T06:00	29086	15	-43.6	-81.5	87	11
2023-08-03T06:00	29122	15	-43.4	-81.4	88	11
2023-08-03T06:00	29139	15	-43.4	-81.4	89	11
2023-08-03T06:00	29168	15	-43.4	-81.4	90	10
2023-08-03T06:00	29177	15	-43.3	-81.3	91	10
2023-08-03T06:00	29218	14	-43.2	-81.3	91	10
2023-08-03T06:00	29238	14	-43.2	-81.3	91	10
2023-08-03T06:00	29261	14	-43.2	-81.3	90	10
2023-08-03T06:00	29310	14	-43.1	-81.2	88	10
2023-08-03T06:00	29328	14	-43.1	-81.2	85	10
2023-08-03T06:00	29362	14	-43.1	-81.2	83	10
2023-08-03T06:00	29372	14	-43.1	-81.2	81	11
2023-08-03T06:00	29409	14	-43.0	-81.1	79	11
2023-08-03T06:00	29429	14	-42.8	-81.0	77	11
2023-08-03T06:00	29465	14	-42.8	-81.0	76	11
2023-08-03T06:00	29501	14	-42.9	-81.1	74	11
2023-08-03T06:00	29527	14	-42.8	-81.0	73	11
2023-08-03T06:00	29549	14	-42.7	-80.9	73	12
2023-08-03T06:00	29587	14	-42.7	-80.9	74	13
2023-08-03T06:00	29609	14	-42.7	-80.9	76	13
2023-08-03T06:00	29639	14	-42.8	-81.0	77	14
2023-08-03T06:00	29660	14	-42.9	-81.1	79	14
2023-08-03T06:00	29689	13	-42.9	-81.1	81	15
2023-08-03T06:00	29739	13	-42.9	-81.1	82	15
2023-08-03T06:00	29755	13	-42.8	-81.0	84	16
2023-08-03T06:00	29782	13	-42.8	-81.0	86	16
2023-08-03T06:00	29819	13	-42.6	-80.8	88	16
2023-08-03T06:00	29851	13	-42.5	-80.8	90	16
2023-08-03T06:00	29889	13	-42.5	-80.8	92	16
2023-08-03T06:00	29906	13	-42.5	-80.8	95	16
2023-08-03T06:00	29933	13	-42.6	-80.8	97	16
2023-08-03T06:00	29976	13	-42.7	-80.9	100	15
2023-08-03T06:00	30001	13	-42.9	-81.1	103	15
2023-08-03T06:00	30036	13	-43.0	-81.1	105	14
2023-08-03T06:00	30058	13	-43.1	-81.2	107	14
2023-08-03T06:00	30104	13	-43.1	-81.2	108	13
2023-08-03T06:00	30133	13	-43.2	-81.3	107	13
2023-08-03T06:00	30151	13	-43.1	-81.2	104	12
2023-08-03T06:00	30194	13	-42.9	-81.1	102	12
2023-08-03T06:00	30229	12	-42.8	-81.0	99	12
2023-08-03T06:00	30281	12	-42.8	-81.0	98	12
2023-08-03T06:00	30294	12	-42.8	-81.0	99	12
2023-08-03T06:00	30341	12	-42.7	-80.9	100	12
2023-08-03T06:00	30378	12	-42.6	-80.8	103	12
2023-08-03T06:00	30409	12	-42.4	-80.7	106	12
2023-08-03T06:00	30436	12	-42.2	-80.6	109	12
2023-08-03T06:00	30469	12	-42.2	-80.6	112	12
2023-08-03T06:00	30491	12	-42.3	-80.6	113	12
2023-08-03T06:00	30535	12	-42.4	-80.7	114	12
2023-08-03T06:00	30556	12	-42.4	-80.7	114	12
2023-08-03T06:00	30597	12	-42.4	-80.7	113	12
2023-08-03T06:00	30640	12	-42.3	-80.6	111	12
2023-08-03T06:00	30674	12	-42.3	-80.6	109	11
2023-08-03T06:00	30703	12	-42.2	-80.6	107	11
2023-08-03T06:00	30748	12	-42.0	-80.4	106	10
2023-08-03T06:00	30775	11	-41.9	-80.4	105	10
2023-08-03T06:00	30808	11	-41.8	-80.3	105	9
2023-08-03T06:00	30829	11	-41.7	-80.2	106	9
2023-08-03T06:00	30873	11	-41.8	-80.3	109	8
2023-08-03T06:00	30902	11	-41.8	-80.3	112	8
2023-08-03T06:00	30939	11	-41.8	-80.3	115	8
2023-08-03T06:00	30958	11	-41.7	-80.2	117	7
2023-08-03T06:00	30986	11	-41.5	-80.1	116	7
2023-08-03T06:00	31021	11	-41.3	-79.9	113	7
2023-08-03T06:00	31073	11	-41.2	-79.9	108	7
2023-08-03T06:00	31095	11	-41.1	-79.8	102	7
2023-08-03T06:00	31113	11	-41.0	-79.7	95	7
2023-08-03T06:00	31167	11	-40.9	-79.7	87	7
2023-08-03T06:00	31182	11	-40.9	-79.7	81	7
2023-08-03T06:00	31197	11	-40.9	-79.7	76	8
2023-08-03T06:00	31244	11	-40.7	-79.5	73	8
2023-08-03T06:00	31271	11	-40.6	-79.5	71	9
2023-08-03T06:00	31291	11	-40.5	-79.4	72	9
2023-08-03T06:00	31334	11	-40.4	-79.3	75	9
2023-08-03T06:00	31358	11	-40.3	-79.2	79	9
2023-08-03T06:00	31388	11	-40.1	-79.1	84	9
2023-08-03T06:00	31420	10	-40.1	-79.1	90	10
2023-08-03T06:00	31444	10	-40.2	-79.2	95	10
2023-08-03T06:00	31466	10	-40.2	-79.2	98	10
2023-08-03T06:00	31521	10	-40.1	-79.1	99	11
2023-08-03T06:00	31530	10	-40.0	-79.0	100	12
2023-08-03T06:00	31559	10	-39.9	-79.0	100	12
2023-08-03T06:00	31567	10	-39.9	-79.0	100	13
2023-08-03T06:00	31616	10	-39.9	-79.0	101	13
2023-08-03T06:00	31630	10	-39.8	-78.9	101	13
2023-08-03T06:00	31667	10	-39.8	-78.9	102	13
2023-08-03T06:00	31705	10	-39.9	-79.0	103	12
2023-08-03T06:00	31725	10	-39.9	-79.0	103	12
2023-08-03T06:00	31760	10	-40.0	-79.0	103	11
2023-08-03T06:00	31789	10	-40.1	-79.1	102	11
2023-08-03T06:00	31797	10	-40.1	-79.1	101	11
2023-08-03T06:00	31833	10	-40.0	-79.0	100	12
2023-08-03T06:00	31867	10	-39.9	-79.0	100	12
2023-08-03T06:00	31898	10	-39.8	-78.9	100	12
2023-08-03T06:00	31928	10	-39.6	-78.8	101	12
2023-08-03T06:00	31957	10	-39.4	-78.6	102	11
2023-08-03T06:00	31982	10	-39.3	-78.5	103	11
2023-08-03T06:00	32020	10	-39.1	-78.4	105	10
2023-08-03T06:00	32040	10	-39.0	-78.3	108	10
2023-08-03T06:00	32081	9	-38.9	-78.3	111	9
2023-08-03T06:00	32111	9	-38.8	-78.2	114	9
2023-08-03T06:00	32133	9	-38.7	-78.1	117	9
2023-08-03T06:00	32161	9	-38.6	-78.1	119	9
2023-08-03T06:00	32189	9	-38.5	-78.0	119	9
2023-08-03T06:00	32217	9	-38.4	-77.9	118	9
2023-08-03T06:00	32260	9	-38.4	-77.9	116	10
2023-08-03T06:00	32270	9	-38.5	-78.0	114	10
2023-08-03T06:00	32315	9	-38.5	-78.0	112	10
2023-08-03T06:00	32334	9	-38.5	-78.0	109	10
2023-08-03T06:00	32370	9	-38.4	-77.9	107	10
2023-08-03T06:00	32405	9	-38.4	-77.9	104	10
2023-08-03T06:00	32423	9	-38.4	-77.9	101	10
2023-08-03T06:00	32467	9	-38.3	-77.9	98	10
2023-08-03T06:00	32482	9	-38.3	-77.9	94	10
2023-08-03T06:00	32511	9	-38.3	-77.9	90	9
2023-08-03T06:00	32549	9	-38.4	-77.9	86	9
2023-08-03T06:00	32586	9	-38.5	-78.0	82	9
2023-08-03T06:00	32607	9	-38.6	-78.1	78	8
2023-08-03T06:00	32644	9	-38.7	-78.1	75	8
2023-08-03T06:00	32674	9	-38.6	-78.1	73	8
2023-08-03T06:00	32720	9	-38.5	-78.0	72	9
2023-08-03T06:00	32739	9	-38.5	-78.0	73	9
2023-08-03T06:00	32772	9	-38.6	-78.1	75	10
2023-08-03T06:00	32791	9	-38.6	-78.1	77	10
2023-08-03T06:00	32821	9	-38.6	-78.1	79	11
2023-08-03T06:00	32853	8	-38.5	-78.0	80	12
2023-08-03T06:00	32892	8	-38.4	-77.9	82	13
2023-08-03T06:00	32907	8	-38.3	-77.9	83	14
2023-08-03T06:00	32930	8	-38.3	-77.9	85	14
2023-08-03T06:00	32952	8	-38.3	-77.9	87	14
2023-08-03T06:00	33002	8	-38.4	-77.9	89	14
2023-08-03T06:00	33033	8	-38.4	-77.9	92	14
2023-08-03T06:00	33049	8	-38.4	-77.9	95	14
2023-08-03T06:00	33076	8	-38.4	-77.9	97	13
2023-08-03T06:00	33129	8	-38.4	-77.9	98	13
2023-08-03T06:00	33158	8	-38.3	-77.9	98	13
2023-08-03T06:00	33175	8	-38.2	-77.8	97	13
2023-08-03T06:00	33218	8	-38.1	-77.7	96	14
2023-08-03T06:00	33253	8	-38.1	-77.7	95	14
2023-08-03T06:00	33259	8	-37.9	-77.6	95	15
2023-08-03T06:00	33299	8	-37.9	-77.6	95	16
2023-08-03T06:00	33325	8	-37.9	-77.6	95	17
2023-08-03T06:00	33379	8	-37.8	-77.5	96	18
2023-08-03T06:00	33388	8	-37.8	-77.5	96	18
2023-08-03T06:00	33423	8	-37.8	-77.5	97	19
2023-08-03T06:00	33441	8	-37.8	-77.5	98	19
2023-08-03T06:00	33483	8	-37.9	-77.6	99	19
2023-08-03T06:00	33529	8	-37.8	-77.5	101	18
2023-08-03T06:00	33546	8	-37.8	-77.5	102	18
2023-08-03T06:00	33578	8	-37.8	-77.5	104	17
2023-08-03T06:00	33600	8	-37.9	-77.6	105	16
2023-08-03T06:00	33638	8	-38.0	-77.6	107	15
2023-08-03T06:00	33676	8	-38.1	-77.7	108	14
2023-08-03T06:00	33706	8	-38.1	-77.7	110	14
2023-08-03T06:00	33749	7	-38.1	-77.7	111	13
2023-08-03T06:00	33776	7	-38.1	-77.7	111	13
2023-08-03T06:00	33799	7	-38.0	-77.6	111	13
2023-08-03T06:00	33856	7	-37.9	-77.6	110	13
2023-08-03T06:00	33879	7	-37.8	-77.5	108	14
2023-08-03T06:00	33894	7	-37.7	-77.4	106	14
2023-08-03T06:00	33927	7	-37.6	-77.4	104	15
2023-08-03T06:00	33943	7	-37.5	-77.3	102	16
2023-08-03T06:00	33983	7	-37.4	-77.2	101	16
2023-08-03T06:00	34021	7	-37.3	-77.2	100	17
2023-08-03T06:00	34051	7	-37.1	-77.0	101	17
2023-08-03T06:00	34099	7	-37.0	-77.0	102	18
2023-08-03T06:00	34116	7	-36.9	-76.9	105	18
2023-08-03T06:00	34137	7	-36.9	-76.9	107	18
2023-08-03T06:00	34174	7	-37.0	-77.0	110	19
2023-08-03T06:00	34216	7	-37.2	-77.1	112	19
2023-08-03T06:00	34256	7	-37.3	-77.2	113	19
2023-08-03T06:00	34310	7	-37.3	-77.2	114	19
2023-08-03T06:00	34332	7	-37.3	-77.2	113	18
2023-08-03T06:00	34386	7	-37.3	-77.2	111	18
2023-08-03T06:00	34403	7	-37.1	-77.0	108	17
2023-08-03T06:00	34464	7	-36.7	-76.7	104	16
2023-08-03T06:00	34470	7	-36.6	-76.7	104	16
2023-08-03T06:00	34517	7	-36.3	-76.5	104	15
2023-08-03T06:00	34549	7	-36.1	-76.3	105	15
2023-08-03T06:00	34572	7	-35.9	-76.2	107	14
2023-08-03T06:00	34612	7	-35.9	-76.2	110	14
2023-08-03T06:00	34625	7	-35.9	-76.2	113	14
2023-08-03T06:00	34679	7	-35.8	-76.1	114	14
2023-08-03T06:00	34712	7	-35.8	-76.1	115	14
2023-08-03T06:00	34743	6	-35.7	-76.1	114	14
2023-08-03T06:00	34772	6	-35.4	-75.8	111	14
2023-08-03T06:00	34784	6	-35.2	-75.7	108	14
2023-08-03T06:00	34828	6	-35.2	-75.7	104	14
2023-08-03T06:00	34853	6	-35.2	-75.7	100	14
2023-08-03T06:00	34876	6	-35.2	-75.7	96	14
2023-08-03T06:00	34938	6	-35.2	-75.7	92	14
2023-08-03T06:00	34976	6	-35.2	-75.7	89	14
2023-08-03T06:00	34990	6	-34.9	-75.5	84	16
2023-08-03T06:00	35042	6	-34.8	-75.4	84	16
2023-08-03T06:00	35091	6	-34.7	-75.4	85	17
2023-08-03T06:00	35108	6	-34.7	-75.4	86	17
2023-08-03T06:00	35148	6	-34.7	-75.4	88	17
2023-08-03T06:00	35169	6	-34.6	-75.3	91	16
2023-08-03T06:00	35201	6	-34.5	-75.2	93	16
2023-08-03T06:00	35277	6	-34.5	-75.2	96	16
2023-08-03T06:00	35280	6	-34.6	-75.3	98	16
2023-08-03T06:00	35325	6	-34.7	-75.4	100	16
2023-08-03T06:00	35340	6	-34.8	-75.4	101	16
2023-08-03T06:00	35399	6	-34.9	-75.5	103	17
2023-08-03T06:00	35420	6	-34.9	-75.5	104	17
2023-08-03T06:00	35435	6	-34.9	-75.5	106	17
2023-08-03T06:00	35462	6	-34.8	-75.4	108	17
2023-08-03T06:00	35489	6	-34.7	-75.4	110	18
2023-08-03T06:00	35523	6	-34.5	-75.2	112	18
2023-08-03T06:00	35533	6	-34.5	-75.2	113	19
2023-08-03T06:00	35611	6	-34.5	-75.2	113	19
2023-08-03T06:00	35616	6	-34.5	-75.2	113	18
2023-08-03T06:00	35636	6	-34.4	-75.2	112	18
2023-08-03T06:00	35661	6	-34.1	-75.0	110	17
2023-08-03T06:00	35708	6	-33.8	-74.7	108	17
2023-08-03T06:00	35747	6	-33.7	-74.7	106	16
2023-08-03T12:00	-999					
2023-08-03T12:00	141	982	21.8	12.7	201	4
2023-08-03T12:00	171	979	21.3	12.3	203	6
2023-08-03T12:00	205	975	20.8	12.1	205	8
2023-08-03T12:00	233	972	20.7	12.0	208	9
2023-08-03T12:00	269	968	20.2	11.9	212	9
2023-08-03T12:00	307	964	20.1	12.0	214	10
2023-08-03T12:00	344	959	19.7	11.9	217	10
2023-08-03T12:00	378	955	19.2	11.8	218	10
2023-08-03T12:00	418	951	18.9	11.8	220	10
2023-08-03T12:00	462	947	18.4	11.6	220	10
2023-08-03T12:00	498	942	18.0	11.6	221	10
2023-08-03T12:00	545	937	17.6	11.5	221	10
2023-08-03T12:00	592	932	17.2	11.4	221	10
2023-08-03T12:00	636	927	16.7	11.3	221	10
2023-08-03T12:00	683	922	16.3	11.3	221	10
2023-08-03T12:00	733	917	15.8	11.1	220	10
2023-08-03T12:00	768	913	15.1	10.1	220	10
2023-08-03T12:00	813	908	14.9	10.5	219	11
2023-08-03T12:00	865	903	14.2	10.3	219	11
2023-08-03T12:00	920	897	13.8	10.5	220	11
2023-08-03T12:00	975	891	13.0	10.0	222	11
2023-08-03T12:00	1028	885	12.6	10.0	225	11
2023-08-03T12:00	1076	880	12.1	10.0	227	12
2023-08-03T12:00	1118	876	11.7	9.7	229	12
2023-08-03T12:00	1154	872	11.3	9.2	230	13
2023-08-03T12:00	1191	868	10.9	9.3	230	14
2023-08-03T12:00	1221	865	10.6	9.1	230	15
2023-08-03T12:00	1255	862	10.3	8.9	229	15
2023-08-03T12:00	1284	859	10.0	8.9	229	15
2023-08-03T12:00	1318	855	9.7	8.7	229	16
2023-08-03T12:00	1358	851	9.3	8.7	229	16
2023-08-03T12:00	1400	847	8.9	8.6	231	17
2023-08-03T12:00	1436	843	8.6	8.6	233	17
2023-08-03T12:00	1474	839	8.3	8.3	235	18
2023-08-03T12:00	1502	837	8.2	8.2	236	19
2023-08-03T12:00	1530	834	8.0	8.0	237	20
2023-08-03T12:00	1558	831	7.8	7.8	237	20
2023-08-03T12:00	1585	828	7.6	7.6	237	20
2023-08-03T12:00	1611	825	7.5	7.5	236	20
2023-08-03T12:00	1641	823	7.3	7.3	237	21
2023-08-03T12:00	1668	820	7.2	7.2	237	21
2023-08-03T12:00	1691	818	6.7	6.5	238	21
2023-08-03T12:00	1708	816	6.4	5.5	239	22
2023-08-03T12:00	1725	814	6.3	5.5	240	22
2023-08-03T12:00	1745	812	6.3	5.1	240	22
2023-08-03T12:00	1773	810	6.1	4.9	241	21
2023-08-03T12:00	1792	807	6.1	4.9	241	21
2023-08-03T12:00	1814	805	6.0	4.7	241	21
2023-08-03T12:00	1835	803	6.0	4.7	241	21
2023-08-03T12:00	1854	802	6.0	4.3	242	21
2023-08-03T12:00	1872	800	6.2	3.9	243	21
2023-08-03T12:00	1889	798	6.2	3.8	244	22
2023-08-03T12:00	1902	797	6.2	3.8	244	22
2023-08-03T12:00	1918	795	6.2	3.6	245	21
2023-08-03T12:00	1939	793	6.1	3.4	246	21
2023-08-03T12:00	1958	791	6.0	3.1	247	20
2023-08-03T12:00	1973	790	5.9	3.2	247	19
2023-08-03T12:00	1994	788	5.7	3.1	248	19
2023-08-03T12:00	2014	786	5.7	3.1	248	18
2023-08-03T12:00	2039	784	5.8	2.6	249	18
2023-08-03T12:00	2062	781	5.7	2.4	248	18
2023-08-03T12:00	2082	779	5.7	1.7	248	18
2023-08-03T12:00	2105	777	5.5	1.5	248	18
2023-08-03T12:00	2124	775	5.4	1.6	248	18
2023-08-03T12:00	2148	773	5.2	1.5	249	18
2023-08-03T12:00	2172	771	4.9	1.5	249	18
2023-08-03T12:00	2197	769	4.7	1.4	250	18
2023-08-03T12:00	2221	766	4.5	1.5	250	18
2023-08-03T12:00	2243	764	4.3	1.4	250	18
2023-08-03T12:00	2264	762	4.1	1.3	250	18
2023-08-03T12:00	2289	760	3.8	1.2	250	18
2023-08-03T12:00	2309	758	3.6	1.0	251	18
2023-08-03T12:00	2328	756	3.6	0.8	250	18
2023-08-03T12:00	2354	754	3.4	0.8	250	18
2023-08-03T12:00	2385	751	3.1	0.8	249	18
2023-08-03T12:00	2410	749	2.8	0.7	248	19
2023-08-03T12:00	2433	747	2.8	0.3	247	20
2023-08-03T12:00	2451	745	2.8	0.1	246	21
2023-08-03T12:00	2481	742	2.5	0.2	246	22
2023-08-03T12:00	2499	740	2.5	0.1	245	22
2023-08-03T12:00	2524	738	2.2	-0.2	245	23
2023-08-03T12:00	2549	736	2.1	-1.5	245	23
2023-08-03T12:00	2576	734	1.9	-1.3	245	23
2023-08-03T12:00	2597	732	1.7	-1.0	245	22
2023-08-03T12:00	2618	730	1.5	-1.0	245	22
2023-08-03T12:00	2641	728	1.3	-0.9	245	21
2023-08-03T12:00	2665	726	1.1	-0.8	244	21
2023-08-03T12:00	2688	723	0.9	-0.8	243	22
2023-08-03T12:00	2708	722	0.7	-1.0	242	22
2023-08-03T12:00	2728	720	0.8	-0.7	242	22
2023-08-03T12:00	2755	717	0.7	-1.3	243	22
2023-08-03T12:00	2786	715	0.5	-1.7	244	22
2023-08-03T12:00	2811	712	0.3	-1.8	246	22
2023-08-03T12:00	2833	710	0.2	-1.9	247	21
2023-08-03T12:00	2861	708	0.1	-2.1	248	21
2023-08-03T12:00	2896	705	-0.2	-2.3	248	21
2023-08-03T12:00	2922	703	-0.4	-2.4	248	20
2023-08-03T12:00	2951	700	-0.6	-2.6	248	20
2023-08-03T12:00	2976	698	-0.8	-2.5	247	20
2023-08-03T12:00	3004	695	-0.9		247	20
2023-08-03T12:00	3030	693	-1.2	-2.7	246	20
2023-08-03T12:00	3060	691	-1.2	-3.8	246	19
2023-08-03T12:00	3085	688	-0.9	-6.0	246	19
2023-08-03T12:00	3117	686	-0.9	-4.9	245	19
2023-08-03T12:00	3141	684	-0.7	-6.7	243	19
2023-08-03T12:00	3167	681	-0.8	-7.4	242	19
2023-08-03T12:00	3196	679	-1.0	-7.8	241	19
2023-08-03T12:00	3215	677	-1.0	-8.0	240	18
2023-08-03T12:00	3240	675	-0.9	-9.9	240	18
2023-08-03T12:00	3262	673	-0.9	-10.4	240	18
2023-08-03T12:00	3291	671	-1.0	-11.3	239	18
2023-08-03T12:00	3319	669	-1.4	-9.1	239	18
2023-08-03T12:00	3343	666	-1.7	-7.3	238	19
2023-08-03T12:00	3366	665	-1.9	-7.9	237	19
2023-08-03T12:00	3389	663	-2.1	-8.2	237	19
2023-08-03T12:00	3412	661	-2.2	-8.3	238	19
2023-08-03T12:00	3436	659	-2.4	-8.8	240	18
2023-08-03T12:00	3459	657	-2.5	-8.8	241	18
2023-08-03T12:00	3489	654	-2.7	-9.8	242	18
2023-08-03T12:00	3510	653	-2.9	-9.7	242	18
2023-08-03T12:00	3536	651	-3.1	-9.7	242	18
2023-08-03T12:00	3561	648	-3.3	-9.7	241	18
2023-08-03T12:00	3598	646	-3.7	-10.0	241	18
2023-08-03T12:00	3627	643	-3.9	-10.5	240	18
2023-08-03T12:00	3651	641	-4.1	-11.0	240	18
2023-08-03T12:00	3671	639	-4.3	-11.0	239	17
2023-08-03T12:00	3699	637	-4.6	-10.8	238	17
2023-08-03T12:00	3723	635	-4.6	-10.7	239	17
2023-08-03T12:00	3744	634	-4.8	-10.8	240	17
2023-08-03T12:00	3769	631	-4.9	-11.0	241	17
2023-08-03T12:00	3802	629	-5.0	-10.7	242	17
2023-08-03T12:00	3830	627	-5.2	-10.9	241	18
2023-08-03T12:00	3857	625	-5.4	-10.5	240	18
2023-08-03T12:00	3890	622	-5.7	-10.6	239	19
2023-08-03T12:00	3916	620	-5.9	-10.2	239	20
2023-08-03T12:00	3949	617	-6.1		239	20
2023-08-03T12:00	3973	615	-6.3	-10.2	241	19
2023-08-03T12:00	3995	614	-6.5	-10.3	243	19
2023-08-03T12:00	4012	612	-6.5	-10.7	245	19
2023-08-03T12:00	4034	611	-6.6	-11.1	246	19
2023-08-03T12:00	4056	609	-6.8	-11.3	246	19
2023-08-03T12:00	4090	606	-7.1	-11.8	245	20
2023-08-03T12:00	4118	604	-7.3	-13.1	244	20
2023-08-03T12:00	4141	602	-7.4	-13.3	243	20
2023-08-03T12:00	4165	601	-7.6	-12.7	242	21
2023-08-03T12:00	4188	599	-7.6	-13.6	242	21
2023-08-03T12:00	4211	597	-7.7	-14.5	242	21
2023-08-03T12:00	4237	595	-7.8	-14.6	242	22
2023-08-03T12:00	4259	593	-7.8	-14.9	242	22
2023-08-03T12:00	4279	592	-7.9	-13.9	243	22
2023-08-03T12:00	4299	590	-8.0	-13.5	243	22
2023-08-03T12:00	4318	589	-8.2	-13.2	242	22
2023-08-03T12:00	4334	587	-8.4	-12.8	241	23
2023-08-03T12:00	4353	586	-8.5	-11.9	240	23
2023-08-03T12:00	4375	585	-8.7	-11.8	238	23
2023-08-03T12:00	4396	583	-8.8	-12.0	237	24
2023-08-03T12:00	4416	581	-9.0	-12.2	236	24
2023-08-03T12:00	4434	580	-9.1	-12.0	236	23
2023-08-03T12:00	4463	578	-9.3	-12.2	236	23
2023-08-03T12:00	4486	576	-9.4	-12.4	236	23
2023-08-03T12:00	4510	574	-9.6	-12.6	236	23
2023-08-03T12:00	4530	573	-9.8	-12.7	236	24
2023-08-03T12:00	4552	571	-10.0	-12.9	236	24
2023-08-03T12:00	4569	570	-10.2	-12.9	236	24
2023-08-03T12:00	4600	568	-10.4	-12.8	237	24
2023-08-03T12:00	4622	566	-10.6	-12.9	237	23
2023-08-03T12:00	4638	565	-10.8	-13.0	238	23
2023-08-03T12:00	4664	563	-11.0	-13.0	237	23
2023-08-03T12:00	4681	562	-11.2	-13.1	237	23
2023-08-03T12:00	4708	560	-11.4	-13.2	237	23
2023-08-03T12:00	4731	558	-11.6	-13.7	237	23
2023-08-03T12:00	4755	556	-11.8	-14.0	238	23
2023-08-03T12:00	4776	555	-12.0	-15.1	238	23
2023-08-03T12:00	4796	553	-12.2	-15.1	239	23
2023-08-03T12:00	4823	551	-12.4	-17.0	240	23
2023-08-03T12:00	4853	549	-12.6	-16.7	241	23
2023-08-03T12:00	4870	548	-12.7	-15.5	241	23
2023-08-03T12:00	4897	546	-12.9	-15.8	242	24
2023-08-03T12:00	4921	544	-13.1	-15.9	242	24
2023-08-03T12:00	4945	543	-13.3	-15.9	241	25
2023-08-03T12:00	4962	541	-13.4	-16.2	240	25
2023-08-03T12:00	4989	540	-13.6	-16.5	239	25
2023-08-03T12:00	5005	538	-13.7	-16.5	239	24
2023-08-03T12:00	5025	537	-13.8	-19.0	238	24
2023-08-03T12:00	5047	535	-13.9	-20.9	237	24
2023-08-03T12:00	5075	533	-14.0	-23.8	236	24
2023-08-03T12:00	5104	532	-14.1	-26.9	236	23
2023-08-03T12:00	5124	530	-14.3	-26.5	236	23
2023-08-03T12:00	5142	529	-14.3	-27.2	235	22
2023-08-03T12:00	5170	527	-14.6	-25.6	235	23
2023-08-03T12:00	5199	525	-14.7	-25.4	234	23
2023-08-03T12:00	5216	524	-14.8	-25.5	233	23
2023-08-03T12:00	5238	522	-15.0	-25.5	233	23
2023-08-03T12:00	5272	520	-15.1	-25.6	232	23
2023-08-03T12:00	5296	518	-15.1	-26.5	232	23
2023-08-03T12:00	5322	516	-15.2	-29.5	233	24
2023-08-03T12:00	5348	514	-15.3	-32.1	235	24
2023-08-03T12:00	5375	513	-15.3	-33.5	236	25
2023-08-03T12:00	5401	511	-15.6	-33.8	237	26
2023-08-03T12:00	5424	510	-15.7	-34.0	237	26
2023-08-03T12:00	5441	508	-15.7	-33.5	237	27
2023-08-03T12:00	5467	507	-15.9	-33.3	235	27
2023-08-03T12:00	5490	505	-16.1	-32.0	234	27
2023-08-03T12:00	5510	504	-16.2	-31.3	232	27
2023-08-03T12:00	5533	502	-16.4	-30.1	231	27
2023-08-03T12:00	5562	500	-16.7	-29.3	231	27
2023-08-03T12:00	5583	499	-16.8	-28.9	232	26
2023-08-03T12:00	5611	497	-17.0	-28.8	233	26
2023-08-03T12:00	5636	495	-17.1	-28.0	234	26
2023-08-03T12:00	5668	493	-17.3	-27.8	234	26
2023-08-03T12:00	5696	491	-17.6	-27.7	234	27
2023-08-03T12:00	5728	489	-17.8	-27.4	234	26
2023-08-03T12:00	5749	488	-18.0	-27.5	233	26
2023-08-03T12:00	5771	486	-18.1	-28.7	234	26
2023-08-03T12:00	5800	484	-18.3	-29.7	235	25
2023-08-03T12:00	5829	482	-18.6	-30.8	238	25
2023-08-03T12:00	5866	480	-18.7	-35.2	240	25
2023-08-03T12:00	5898	478	-18.8	-33.6	242	25
2023-08-03T12:00	5920	477	-19.0	-32.1	243	25
2023-08-03T12:00	5942	475	-19.0	-35.4	244	25
2023-08-03T12:00	5972	473	-19.1	-40.8	244	26
2023-08-03T12:00	6004	471	-19.1	-41.3	243	26
2023-08-03T12:00	6034	469	-19.4	-38.4	243	26
2023-08-03T12:00	6065	468	-19.6	-36.5	243	26
2023-08-03T12:00	6094	466	-19.8	-32.7	244	26
2023-08-03T12:00	6126	464	-20.1	-32.9	245	25
2023-08-03T12:00	6156	462	-20.4	-31.2	245	25
2023-08-03T12:00	6185	460	-20.6	-30.7	245	24
2023-08-03T12:00	6209	459	-20.8	-29.5	245	25
2023-08-03T12:00	6234	457	-21.0	-29.3	245	25
2023-08-03T12:00	6254	456	-21.3	-29.5	245	26
2023-08-03T12:00	6277	454	-21.4	-28.8	245	27
2023-08-03T12:00	6298	453	-21.6	-28.3	245	27
2023-08-03T12:00	6321	452	-21.8	-28.4	246	27
2023-08-03T12:00	6344	450	-22.0	-28.7	246	27
2023-08-03T12:00	6374	448	-22.3	-28.9	246	27
2023-08-03T12:00	6406	446	-22.5	-29.0	245	27
2023-08-03T12:00	6437	445	-22.8	-29.2	244	27
2023-08-03T12:00	6471	443	-22.9	-29.9	243	27
2023-08-03T12:00	6494	441	-23.1	-30.2	242	27
2023-08-03T12:00	6521	439	-23.1	-30.5	241	27
2023-08-03T12:00	6553	438	-23.3	-31.6	241	27
2023-08-03T12:00	6586	436	-23.4	-34.3	241	27
2023-08-03T12:00	6616	434	-23.6	-37.5	241	27
2023-08-03T12:00	6647	432	-23.8	-39.0	240	28
2023-08-03T12:00	6676	430	-24.0	-42.5	240	28
2023-08-03T12:00	6707	428	-24.2	-44.7	239	28
2023-08-03T12:00	6739	427	-24.3	-45.0	238	28
2023-08-03T12:00	6771	425	-24.6	-43.5	238	27
2023-08-03T12:00	6801	423	-24.8	-43.4	238	26
2023-08-03T12:00	6822	422	-25.0	-45.1	238	26
2023-08-03T12:00	6842	420	-25.1	-42.0	238	26
2023-08-03T12:00	6872	419	-25.4	-39.2	238	26
2023-08-03T12:00	6899	417	-25.7	-39.3	238	27
2023-08-03T12:00	6927	416	-25.9	-38.8	238	27
2023-08-03T12:00	6953	414	-26.2	-37.9	239	27
2023-08-03T12:00	6987	412	-26.4	-36.8	240	28
2023-08-03T12:00	7023	410	-26.7	-36.9	241	28
2023-08-03T12:00	7047	409	-26.9	-36.9	242	28
2023-08-03T12:00	7075	407	-27.1	-37.4	242	28
2023-08-03T12:00	7107	406	-27.3	-38.7	242	27
2023-08-03T12:00	7126	404	-27.3	-40.3	242	27
2023-08-03T12:00	7145	403	-27.4	-39.8	243	27
2023-08-03T12:00	7164	402	-27.5	-41.6	243	27
2023-08-03T12:00	7184	401	-27.7	-41.8	243	27
2023-08-03T12:00	7206	400	-27.9	-43.6	242	27
2023-08-03T12:00	7239	398	-28.1	-44.5	241	27
2023-08-03T12:00	7267	397	-28.0	-45.6	241	27
2023-08-03T12:00	7295	395	-28.0	-46.6	241	28
2023-08-03T12:00	7326	393	-28.2	-46.2	241	28
2023-08-03T12:00	7360	392	-28.5	-46.6	242	29
2023-08-03T12:00	7382	390	-28.7	-46.9	243	29
2023-08-03T12:00	7398	389	-28.9	-47.0	243	28
2023-08-03T12:00	7417	388	-29.0	-46.9	244	28
2023-08-03T12:00	7443	387	-29.3	-46.9	244	28
2023-08-03T12:00	7474	385	-29.6	-47.2	244	28
2023-08-03T12:00	7504	384	-29.8	-47.4	244	28
2023-08-03T12:00	7538	382	-30.1	-47.6	245	27
2023-08-03T12:00	7573	380	-30.4	-48.2	246	27
2023-08-03T12:00	7590	379	-30.5	-48.3	247	26
2023-08-03T12:00	7616	378	-30.7	-48.3	248	26
2023-08-03T12:00	7646	376	-30.9	-48.1	247	26
2023-08-03T12:00	7673	375	-31.1	-48.1	247	25
2023-08-03T12:00	7703	373	-31.2	-46.5	246	25
2023-08-03T12:00	7737	371	-31.3	-49.9	246	26
2023-08-03T12:00	7767	370	-31.4	-50.7	246	26
2023-08-03T12:00	7797	368	-31.6	-49.8	246	26
2023-08-03T12:00	7828	366	-31.9	-48.6	247	26
2023-08-03T12:00	7864	365	-32.2	-46.8	248	26
2023-08-03T12:00	7898	363	-32.4	-45.4	249	26
2023-08-03T12:00	7933	361	-32.7	-44.5	250	25
2023-08-03T12:00	7965	359	-33.1	-44.2	251	25
2023-08-03T12:00	7993	358	-33.3	-43.8	251	25
2023-08-03T12:00	8023	356	-33.6	-43.8	250	24
2023-08-03T12:00	8054	355	-33.9	-43.8	249	24
2023-08-03T12:00	8090	353	-34.2	-43.8	249	24
2023-08-03T12:00	8125	351	-34.5	-44.6	248	25
2023-08-03T12:00	8149	350	-34.6	-46.1	248	26
2023-08-03T12:00	8178	348	-34.8	-47.6	247	27
2023-08-03T12:00	8221	347	-34.9	-50.1	247	29
2023-08-03T12:00	8238	346	-35.0	-50.6	247	31
2023-08-03T12:00	8259	345	-35.0	-51.9	247	32
2023-08-03T12:00	8285	343	-35.1	-53.2	248	33
2023-08-03T12:00	8320	342	-35.1	-55.3	248	33
2023-08-03T12:00	8337	341	-35.2	-55.9	248	33
2023-08-03T12:00	8356	340	-35.3	-55.9	247	33
2023-08-03T12:00	8375	339	-35.4	-56.1	247	33
2023-08-03T12:00	8395	338	-35.5	-56.5	246	33
2023-08-03T12:00	8416	337	-35.6	-57.1	246	34
2023-08-03T12:00	8435	336	-35.7	-57.5	245	34
2023-08-03T12:00	8454	335	-35.8	-57.7	245	34
2023-08-03T12:00	8474	334	-35.9	-57.7	245	35
2023-08-03T12:00	8491	333	-35.9	-57.9	244	35
2023-08-03T12:00	8512	332	-35.9	-58.0	244	36
2023-08-03T12:00	8531	331	-36.1	-58.1	244	37
2023-08-03T12:00	8572	330	-35.9	-58.4	244	37
2023-08-03T12:00	8597	328	-35.4	-59.0	244	38
2023-08-03T12:00	8614	327	-35.2	-59.2	244	38
2023-08-03T12:00	8633	327	-35.1	-59.3	244	37
2023-08-03T12:00	8650	326	-35.2	-59.5	243	37
2023-08-03T12:00	8670	325	-35.4	-59.5	243	37
2023-08-03T12:00	8688	324	-35.3	-59.6	242	38
2023-08-03T12:00	8710	323	-35.2	-59.9	241	38
2023-08-03T12:00	8733	322	-35.0	-60.2	240	39
2023-08-03T12:00	8757	321	-34.8	-60.5	239	40
2023-08-03T12:00	8789	319	-34.8	-60.7	238	41
2023-08-03T12:00	8817	318	-34.5		238	42
2023-08-03T12:00	8842	317	-34.6	-60.7	238	42
2023-08-03T12:00	8868	316	-34.7	-60.6	238	43
2023-08-03T12:00	8890	315	-34.7	-60.3	239	43
2023-08-03T12:00	8922	313	-34.5	-60.5	239	43
2023-08-03T12:00	8953	312	-34.2	-61.3	240	43
2023-08-03T12:00	8981	311	-33.7	-62.7	240	43
2023-08-03T12:00	9012	309	-33.5	-63.1	241	43
2023-08-03T12:00	9036	308	-33.4	-63.8	241	43
2023-08-03T12:00	9061	307	-33.4	-64.5	241	44
2023-08-03T12:00	9086	306	-33.4	-65.1	241	44
2023-08-03T12:00	9116	305	-33.3	-66.2	241	45
2023-08-03T12:00	9136	304	-33.3	-66.6	240	45
2023-08-03T12:00	9159	303	-33.2	-66.5	239	46
2023-08-03T12:00	9179	302	-33.1	-66.5	239	46
2023-08-03T12:00	9200	301	-33.0	-66.0	239	46
2023-08-03T12:00	9221	300	-33.1	-65.3	239	46
2023-08-03T12:00	9241	299	-33.0	-64.5	239	46
2023-08-03T12:00	9263	298	-32.8	-64.0	239	46
2023-08-03T12:00	9285	298	-32.8	-63.7	239	47
2023-08-03T12:00	9307	297	-32.8	-63.1	239	47
2023-08-03T12:00	9331	296	-32.6	-63.2	239	47
2023-08-03T12:00	9358	294	-32.3	-64.0	238	48
2023-08-03T12:00	9390	293	-31.9	-64.8	238	49
2023-08-03T12:00	9426	292	-32.0	-65.7	237	49
2023-08-03T12:00	9448	291	-31.7	-65.9	237	50
2023-08-03T12:00	9470	290	-31.5	-66.2	237	50
2023-08-03T12:00	9497	289	-31.1	-66.4	237	50
2023-08-03T12:00	9527	288	-31.1	-66.4	238	50
2023-08-03T12:00	9554	286	-30.9	-66.9	239	51
2023-08-03T12:00	9581	285	-30.8	-66.8	240	51
2023-08-03T12:00	9607	284	-30.8	-66.8	241	52
2023-08-03T12:00	9636	283	-30.7	-66.7	241	53
2023-08-03T12:00	9672	282	-30.7	-66.7	241	54
2023-08-03T12:00	9704	280	-30.8	-66.8	241	54
2023-08-03T12:00	9735	279	-31.1	-67.0	241	55
2023-08-03T12:00	9766	278	-31.3	-66.6	241	56
2023-08-03T12:00	9795	277	-31.5	-66.7	241	56
2023-08-03T12:00	9819	276	-31.5	-66.2	240	56
2023-08-03T12:00	9850	275	-31.5	-66.2	240	56
2023-08-03T12:00	9883	273	-31.7	-65.9	240	57
2023-08-03T12:00	9914	272	-31.7	-66.4	240	57
2023-08-03T12:00	9944	271	-31.8	-66.0	240	57
2023-08-03T12:00	9971	270	-32.0	-65.7	240	56
2023-08-03T12:00	10000	269	-32.1	-65.7	241	56
2023-08-03T12:00	10027	268	-32.3	-65.9	241	56
2023-08-03T12:00	10055	267	-32.4	-66.0	241	55
2023-08-03T12:00	10080	266	-32.5	-66.5	241	55
2023-08-03T12:00	10106	265	-32.6	-66.6	242	54
2023-08-03T12:00	10131	264	-32.7	-66.6	242	54
2023-08-03T12:00	10149	263	-32.8	-66.7	243	53
2023-08-03T12:00	10171	263	-32.9	-66.8	243	53
2023-08-03T12:00	10192	262	-33.0	-67.3	243	52
2023-08-03T12:00	10212	261	-33.1	-67.4	243	52
2023-08-03T12:00	10233	260	-33.2	-67.5	243	51
2023-08-03T12:00	10251	259	-33.2	-67.5	243	51
2023-08-03T12:00	10272	259	-33.3	-67.1	243	51
2023-08-03T12:00	10292	258	-33.4	-67.1	242	50
2023-08-03T12:00	10310	257	-33.6	-67.3	242	50
2023-08-03T12:00	10328	257	-33.7	-67.8	242	50
2023-08-03T12:00	10345	256	-33.7	-68.3	241	50
2023-08-03T12:00	10362	255	-33.6	-68.8	241	49
2023-08-03T12:00	10384	255	-33.6	-68.8	241	49
2023-08-03T12:00	10401	254	-33.7	-68.9	241	49
2023-08-03T12:00	10418	253	-33.7	-68.9	241	49
2023-08-03T12:00	10437	253	-33.8	-69.0	241	50
2023-08-03T12:00	10455	252	-33.8	-69.0	240	50
2023-08-03T12:00	10473	251	-33.8	-69.0	240	50
2023-08-03T12:00	10493	251	-33.9	-69.0	239	50
2023-08-03T12:00	10508	250	-33.8	-69.6	238	50
2023-08-03T12:00	10532	249	-33.8	-69.6	238	50
2023-08-03T12:00	10561	248	-33.9	-69.0	237	50
2023-08-03T12:00	10586	247	-33.7	-68.9	236	51
2023-08-03T12:00	10604	247	-33.8	-69.0	236	51
2023-08-03T12:00	10626	246	-33.9	-68.5	235	51
2023-08-03T12:00	10651	245	-34.0	-68.6	234	52
2023-08-03T12:00	10670	244	-34.1	-68.6	234	52
2023-08-03T12:00	10688	244	-34.3	-68.8	233	52
2023-08-03T12:00	10710	243	-34.5	-68.4	233	52
2023-08-03T12:00	10726	242	-34.5	-68.0	233	53
2023-08-03T12:00	10744	242	-34.7	-68.1	233	53
2023-08-03T12:00	10762	241	-34.8	-67.7	233	53
2023-08-03T12:00	10781	241	-34.9	-67.4	233	54
2023-08-03T12:00	10803	240	-35.0	-67.1	233	54
2023-08-03T12:00	10824	239	-35.0	-66.7	233	54
2023-08-03T12:00	10842	238	-35.2	-66.9	233	55
2023-08-03T12:00	10862	238	-35.3	-66.9	233	55
2023-08-03T12:00	10880	237	-35.4	-66.6	233	55
2023-08-03T12:00	10901	237	-35.5	-66.7	234	55
2023-08-03T12:00	10918	236	-35.6	-66.8	234	55
2023-08-03T12:00	10936	235	-35.8	-66.9	234	55
2023-08-03T12:00	10954	235	-35.9	-67.0	234	55
2023-08-03T12:00	10974	234	-36.1	-66.8	234	55
2023-08-03T12:00	10993	233	-36.2	-66.9	234	55
2023-08-03T12:00	11014	233	-36.4	-67.1	235	55
2023-08-03T12:00	11033	232	-36.6	-67.2	235	55
2023-08-03T12:00	11053	231	-36.7	-67.3	235	55
2023-08-03T12:00	11072	231	-36.9	-67.4	235	55
2023-08-03T12:00	11095	230	-37.1	-67.6	236	55
2023-08-03T12:00	11115	229	-37.3	-67.7	236	54
2023-08-03T12:00	11139	229	-37.5	-67.6	236	54
2023-08-03T12:00	11162	228	-37.6	-67.7	236	54
2023-08-03T12:00	11184	227	-37.8	-67.8	237	53
2023-08-03T12:00	11205	226	-37.9	-67.9	237	53
2023-08-03T12:00	11229	226	-38.1	-68.4	238	53
2023-08-03T12:00	11251	225	-38.2	-68.4	238	53
2023-08-03T12:00	11274	224	-38.3	-68.5	239	52
2023-08-03T12:00	11298	223	-38.3	-68.5	239	52
2023-08-03T12:00	11320	223	-38.5	-68.7	239	52
2023-08-03T12:00	11347	222	-38.7	-68.8	239	52
2023-08-03T12:00	11371	221	-38.9	-69.0	239	51
2023-08-03T12:00	11397	220	-39.1	-69.1	240	51
2023-08-03T12:00	11425	219	-39.3	-69.0	240	51
2023-08-03T12:00	11454	218	-39.6	-69.2	241	51
2023-08-03T12:00	11490	217	-39.9	-69.4	241	51
2023-08-03T12:00	11522	216	-40.0	-69.5	241	51
2023-08-03T12:00	11548	215	-40.2	-70.0	242	50
2023-08-03T12:00	11573	214	-40.3	-70.0	242	49
2023-08-03T12:00	11598	214	-40.4	-70.1	242	49
2023-08-03T12:00	11624	213	-40.6	-70.6	243	48
2023-08-03T12:00	11652	212	-40.7	-70.7	243	47
2023-08-03T12:00	11681	211	-40.8	-70.7	244	47
2023-08-03T12:00	11709	210	-41.0	-70.9	244	46
2023-08-03T12:00	11735	209	-41.2	-71.0	244	46
2023-08-03T12:00	11763	209	-41.2	-71.0	244	45
2023-08-03T12:00	11788	208	-41.1	-71.3	244	44
2023-08-03T12:00	11814	207	-41.1	-71.3	244	43
2023-08-03T12:00	11839	206	-41.2	-71.4	243	43
2023-08-03T12:00	11861	206	-41.2	-71.4	243	42
2023-08-03T12:00	11884	205	-41.4	-71.5	243	41
2023-08-03T12:00	11909	204	-41.5	-71.6	242	41
2023-08-03T12:00	11930	204	-41.5	-72.0	242	41
2023-08-03T12:00	11952	203	-41.7	-72.1	241	41
2023-08-03T12:00	11974	202	-41.8	-72.2	241	41
2023-08-03T12:00	11997	202	-41.9	-72.3	240	41
2023-08-03T12:00	12020	201	-42.0	-72.3	239	40
2023-08-03T12:00	12040	200	-42.1	-72.4	238	40
2023-08-03T12:00	12062	200	-42.4	-72.6	238	40
2023-08-03T12:00	12080	199	-42.5	-72.7	237	40
2023-08-03T12:00	12103	198	-42.7	-72.9	236	40
2023-08-03T12:00	12126	198	-42.8	-73.3	236	40
2023-08-03T12:00	12149	197	-42.8	-73.7	236	40
2023-08-03T12:00	12171	196	-42.9	-74.2	236	41
2023-08-03T12:00	12193	196	-43.0	-74.3	236	41
2023-08-03T12:00	12215	195	-43.0	-74.3	236	41
2023-08-03T12:00	12237	194	-43.1	-73.9	236	42
2023-08-03T12:00	12258	194	-43.2	-74.0	236	42
2023-08-03T12:00	12280	193	-43.4	-74.2	237	42
2023-08-03T12:00	12304	193	-43.6	-73.9	237	42
2023-08-03T12:00	12328	192	-43.7	-74.0	238	42
2023-08-03T12:00	12352	191	-43.9	-74.2	239	42
2023-08-03T12:00	12374	191	-44.0	-74.2	240	42
2023-08-03T12:00	12399	190	-44.0	-74.2	241	42
2023-08-03T12:00	12423	189	-44.1	-74.7	241	41
2023-08-03T12:00	12447	189	-44.1	-74.7	242	41
2023-08-03T12:00	12469	188	-43.9	-75.0	242	40
2023-08-03T12:00	12492	187	-44.0	-75.0	242	39
2023-08-03T12:00	12517	187	-44.1	-75.1	241	39
2023-08-03T12:00	12549	186	-44.2	-75.2	240	38
2023-08-03T12:00	12582	185	-44.1	-75.5	239	38
2023-08-03T12:00	12614	184	-44.3	-75.7	237	37
2023-08-03T12:00	12641	183	-44.3	-75.7	236	37
2023-08-03T12:00	12678	182	-44.4	-76.2	235	36
2023-08-03T12:00	12708	181	-44.3	-76.2	235	35
2023-08-03T12:00	12735	181	-44.3	-76.7	234	35
2023-08-03T12:00	12761	180	-44.4	-76.7	234	34
2023-08-03T12:00	12784	179	-44.3	-77.2	234	34
2023-08-03T12:00	12805	179	-44.2	-77.1	234	34
2023-08-03T12:00	12830	178	-44.2	-77.7	234	34
2023-08-03T12:00	12850	177	-44.2	-77.7	234	34
2023-08-03T12:00	12872	177	-44.4	-77.9	235	34
2023-08-03T12:00	12895	176	-44.6	-78.0	235	34
2023-08-03T12:00	12917	176	-44.8	-78.2	235	34
2023-08-03T12:00	12936	175	-45.0	-78.3	235	34
2023-08-03T12:00	12961	175	-45.1	-78.4	235	34
2023-08-03T12:00	12982	174	-45.2	-78.5	235	34
2023-08-03T12:00	13004	173	-45.4	-78.6	235	34
2023-08-03T12:00	13028	173	-45.4	-78.6	235	34
2023-08-03T12:00	13049	172	-45.5	-78.7	234	34
2023-08-03T12:00	13071	172	-45.7	-78.8	234	34
2023-08-03T12:00	13093	171	-45.8	-78.9	234	34
2023-08-03T12:00	13114	171	-46.0	-79.1	234	34
2023-08-03T12:00	13139	170	-46.1	-79.1	234	34
2023-08-03T12:00	13161	169	-46.2	-79.2	234	33
2023-08-03T12:00	13185	169	-46.4	-79.3	235	33
2023-08-03T12:00	13206	168	-46.6	-79.5	235	33
2023-08-03T12:00	13226	168	-46.7	-79.0	235	33
2023-08-03T12:00	13248	167	-46.9	-79.1	236	33
2023-08-03T12:00	13270	167	-47.0	-79.2	236	33
2023-08-03T12:00	13293	166	-47.1	-79.3	236	33
2023-08-03T12:00	13314	166	-47.2	-79.4	236	33
2023-08-03T12:00	13335	165	-47.3	-79.4	235	33
2023-08-03T12:00	13359	164	-47.4	-79.5	234	32
2023-08-03T12:00	13382	164	-47.4	-80.1	233	32
2023-08-03T12:00	13406	163	-47.3	-80.0	231	32
2023-08-03T12:00	13427	163	-47.3	-80.0	230	32
2023-08-03T12:00	13449	162	-47.4	-80.1	229	33
2023-08-03T12:00	13473	162	-47.5	-80.2	228	33
2023-08-03T12:00	13491	161	-47.6	-80.2	227	33
2023-08-03T12:00	13516	161	-47.5	-80.2	226	33
2023-08-03T12:00	13535	160	-47.5	-80.2	226	34
2023-08-03T12:00	13558	160	-47.6	-80.2	225	34
2023-08-03T12:00	13581	159	-47.8	-80.4	224	34
2023-08-03T12:00	13608	158	-47.8	-80.4	223	34
2023-08-03T12:00	13633	158	-48.0	-80.5	222	34
2023-08-03T12:00	13659	157	-48.1	-80.6	222	35
2023-08-03T12:00	13684	157	-48.1	-80.6	221	35
2023-08-03T12:00	13707	156	-48.3	-80.7	221	35
2023-08-03T12:00	13727	155	-48.5	-80.9	221	35
2023-08-03T12:00	13757	155	-48.7	-81.0	221	35
2023-08-03T12:00	13779	154	-49.0	-81.3	222	35
2023-08-03T12:00	13804	154	-49.2	-80.8	223	35
2023-08-03T12:00	13834	153	-49.4	-81.0	224	35
2023-08-03T12:00	13864	152	-49.5	-81.1	225	35
2023-08-03T12:00	13897	152	-49.7	-81.2	227	36
2023-08-03T12:00	13929	151	-49.8	-81.3	229	37
2023-08-03T12:00	13965	150	-50.0	-81.4	231	38
2023-08-03T12:00	13993	149	-50.0	-80.9	233	38
2023-08-03T12:00	14027	149	-50.0	-80.9	235	38
2023-08-03T12:00	14047	148	-50.1	-81.0	236	38
2023-08-03T12:00	14070	148	-50.0	-80.9	237	37
2023-08-03T12:00	14092	147	-49.8	-80.8	237	36
2023-08-03T12:00	14114	147	-49.7	-80.7	238	35
2023-08-03T12:00	14138	146	-49.5	-80.5	239	34
2023-08-03T12:00	14159	146	-49.5	-80.5	240	34
2023-08-03T12:00	14179	145	-49.5	-80.5	241	33
2023-08-03T12:00	14198	145	-49.6	-80.6	242	33
2023-08-03T12:00	14219	144	-49.7	-80.7	242	32
2023-08-03T12:00	14239	144	-49.8	-80.8	241	31
2023-08-03T12:00	14260	143	-49.9	-80.8	241	31
2023-08-03T12:00	14278	143	-50.0	-81.4	240	30
2023-08-03T12:00	14298	143	-49.9	-81.3	239	29
2023-08-03T12:00	14318	142	-49.6	-81.1	239	29
2023-08-03T12:00	14336	142	-49.5	-81.6	239	28
2023-08-03T12:00	14359	141	-49.6	-81.7	239	28
2023-08-03T12:00	14378	141	-49.6	-81.7	240	28
2023-08-03T12:00	14401	140	-49.6	-81.7	240	27
2023-08-03T12:00	14423	140	-49.3	-81.5	240	27
2023-08-03T12:00	14448	139	-49.3	-82.1	239	26
2023-08-03T12:00	14475	139	-49.0	-81.9	238	25
2023-08-03T12:00	14500	138	-48.7	-81.7	236	25
2023-08-03T12:00	14522	138	-48.5	-81.5	233	25
2023-08-03T12:00	14546	137	-48.5	-81.5	231	25
2023-08-03T12:00	14574	137	-48.6	-81.6	230	25
2023-08-03T12:00	14595	136	-48.7	-81.7	229	25
2023-08-03T12:00	14621	136	-48.7	-81.7	229	26
2023-08-03T12:00	14642	135	-48.6	-81.6	228	26
2023-08-03T12:00	14664	135	-48.6	-81.6	229	26
2023-08-03T12:00	14686	134	-48.8		229	26
2023-08-03T12:00	14709	134	-48.9	-81.2	229	26
2023-08-03T12:00	14728	133	-49.0	-81.3	230	26
2023-08-03T12:00	14750	133	-49.1	-81.3	230	26
2023-08-03T12:00	14770	133	-49.2	-81.4	230	26
2023-08-03T12:00	14793	132	-49.3	-81.5	231	26
2023-08-03T12:00	14813	132	-49.5	-81.1	231	26
2023-08-03T12:00	14835	131	-49.7	-81.2	232	25
2023-08-03T12:00	14857	131	-49.7	-81.2	233	25
2023-08-03T12:00	14878	130	-49.8	-81.3	233	25
2023-08-03T12:00	14901	130	-49.9	-81.3	234	25
2023-08-03T12:00	14923	130	-50.0	-81.4	234	25
2023-08-03T12:00	14945	129	-50.0	-82.0	233	24
2023-08-03T12:00	14969	129	-49.9	-81.9	232	24
2023-08-03T12:00	14992	128	-49.8	-81.8	231	24
2023-08-03T12:00	15015	128	-49.6	-81.7	229	23
2023-08-03T12:00	15045	127	-49.8	-81.8	228	23
2023-08-03T12:00	15073	127	-49.9	-81.9	226	23
2023-08-03T12:00	15096	126	-49.9	-81.9	224	23
2023-08-03T12:00	15121	126	-49.9	-81.9	222	23
2023-08-03T12:00	15156	125	-50.1	-81.5	221	23
2023-08-03T12:00	15196	124	-50.4	-81.7	220	23
2023-08-03T12:00	15232	124	-50.8	-82.0	219	23
2023-08-03T12:00	15267	123	-51.1	-82.2	218	22
2023-08-03T12:00	15293	122	-51.4	-81.9	217	22
2023-08-03T12:00	15322	122	-51.8	-82.2	217	22
2023-08-03T12:00	15356	121	-52.0	-81.9	216	22
2023-08-03T12:00	15389	121	-52.3	-82.1	215	22
2023-08-03T12:00	15419	120	-52.6	-82.4	215	22
2023-08-03T12:00	15446	120	-52.8	-82.5	215	22
2023-08-03T12:00	15472	119	-53.0	-82.7	215	23
2023-08-03T12:00	15496	119	-53.2	-82.8	216	23
2023-08-03T12:00	15523	118	-53.4	-83.0	216	23
2023-08-03T12:00	15547	118	-53.5	-82.6	217	23
2023-08-03T12:00	15571	117	-53.7	-82.8	217	23
2023-08-03T12:00	15595	117	-53.9	-82.9	218	24
2023-08-03T12:00	15622	116	-54.1	-83.1	218	24
2023-08-03T12:00	15643	116	-54.3	-83.2	218	24
2023-08-03T12:00	15667	116	-54.5	-82.9	218	24
2023-08-03T12:00	15691	115	-54.7	-83.1	218	24
2023-08-03T12:00	15711	115	-54.8	-83.6	218	23
2023-08-03T12:00	15736	114	-55.0	-83.7	218	23
2023-08-03T12:00	15760	114	-54.8	-83.6	218	23
2023-08-03T12:00	15780	114	-54.2	-83.6	219	24
2023-08-03T12:00	15804	113	-54.1	-84.0	221	24
2023-08-03T12:00	15820	113	-54.2	-84.0	223	25
2023-08-03T12:00	15848	112	-54.0	-83.9	225	25
2023-08-03T12:00	15872	112	-53.9	-83.8	227	26
2023-08-03T12:00	15895	111	-53.9	-84.3	230	26
2023-08-03T12:00	15913	111	-54.0	-84.4	232	26
2023-08-03T12:00	15931	111	-53.8	-84.2	234	26
2023-08-03T12:00	15957	110	-53.4	-84.5	235	25
2023-08-03T12:00	15976	110	-52.0	-84.1	236	23
2023-08-03T12:00	16000	110	-51.0	-84.0	236	22
2023-08-03T12:00	16025	109	-50.5	-84.5	236	20
2023-08-03T12:00	16046	109	-50.2	-84.2	235	19
2023-08-03T12:00	16071	109	-49.9	-84.0	235	17
2023-08-03T12:00	16096	108	-49.6	-83.8	235	16
2023-08-03T12:00	16122	108	-49.6	-83.8	234	16
2023-08-03T12:00	16144	107	-49.7	-83.9	233	15
2023-08-03T12:00	16166	107	-49.6	-83.8	232	14
2023-08-03T12:00	16192	106	-49.7	-83.9	231	14
2023-08-03T12:00	16222	106	-49.8	-84.0	229	13
2023-08-03T12:00	16249	106	-50.0	-84.1	227	13
2023-08-03T12:00	16279	105	-49.9	-84.0	226	13
2023-08-03T12:00	16305	105	-50.0	-83.3	224	13
2023-08-03T12:00	16336	104	-50.3	-83.5	223	12
2023-08-03T12:00	16366	104	-50.5	-83.7	222	12
2023-08-03T12:00	16392	103	-50.8	-83.9	221	12
2023-08-03T12:00	16417	103	-51.0	-84.0	220	12
2023-08-03T12:00	16444	102	-51.2	-84.2	218	12
2023-08-03T12:00	16469	102	-51.5	-83.7	216	12
2023-08-03T12:00	16492	102	-51.7	-83.9	215	13
2023-08-03T12:00	16513	101	-52.0	-84.1	214	13
2023-08-03T12:00	16538	101	-52.1	-84.2	214	13
2023-08-03T12:00	16564	101	-52.3	-84.3	216	14
2023-08-03T12:00	16587	100	-52.5	-84.4	217	14
2023-08-03T12:00	16612	100	-52.8	-84.7	219	15
2023-08-03T12:00	16639	99	-52.9	-84.7	220	15
2023-08-03T12:00	16665	99	-53.1	-84.9	221	16
2023-08-03T12:00	16684	99	-53.2	-84.4	221	16
2023-08-03T12:00	16710	98	-53.3	-84.4	222	17
2023-08-03T12:00	16730	98	-53.5	-84.6	222	17
2023-08-03T12:00	16752	98	-53.6	-84.6	223	18
2023-08-03T12:00	16775	97	-53.8	-85.4	225	19
2023-08-03T12:00	16794	97	-53.8	-85.4	226	20
2023-08-03T12:00	16818	97	-53.6	-85.3	228	20
2023-08-03T12:00	16840	96	-53.4	-85.1	229	21
2023-08-03T12:00	16861	96	-53.3	-85.0	230	21
2023-08-03T12:00	16880	96	-53.3	-85.0	230	21
2023-08-03T12:00	16901	95	-53.5	-85.2	230	21
2023-08-03T12:00	16921	95	-53.6	-85.3	231	21
2023-08-03T12:00	16942	95	-53.8	-85.4	231	22
2023-08-03T12:00	16963	95	-53.9	-85.5	232	22
2023-08-03T12:00	16983	94	-54.0	-84.9	232	22
2023-08-03T12:00	17003	94	-54.2	-85.1	232	23
2023-08-03T12:00	17028	94	-54.4	-85.2	233	23
2023-08-03T12:00	17049	93	-54.6	-85.4	233	24
2023-08-03T12:00	17067	93	-54.7	-85.5	233	25
2023-08-03T12:00	17091	93	-54.7	-85.5	233	25
2023-08-03T12:00	17112	92	-54.8	-85.5	233	26
2023-08-03T12:00	17135	92	-54.9	-85.6	232	26
2023-08-03T12:00	17157	92	-55.0	-85.7	232	26
2023-08-03T12:00	17179	91	-54.8	-85.5	233	25
2023-08-03T12:00	17200	91	-54.6	-86.0	233	25
2023-08-03T12:00	17223	91	-54.4	-85.8	234	24
2023-08-03T12:00	17245	90	-54.1	-86.3	234	23
2023-08-03T12:00	17269	90	-53.6		235	22
2023-08-03T12:00	17288	90	-53.2	-85.6	235	22
2023-08-03T12:00	17309	90	-53.1	-85.6	235	21
2023-08-03T12:00	17332	89	-53.2	-85.6	235	20
2023-08-03T12:00	17353	89	-53.2	-85.6	236	20
2023-08-03T12:00	17371	89	-52.9	-85.4	236	19
2023-08-03T12:00	17396	88	-52.7	-85.3	236	18
2023-08-03T12:00	17418	88	-52.5	-85.9	237	17
2023-08-03T12:00	17442	88	-52.3	-85.8	237	16
2023-08-03T12:00	17463	87	-52.1	-85.6	237	15
2023-08-03T12:00	17485	87	-51.9	-85.5	237	15
2023-08-03T12:00	17509	87	-51.7	-85.3	236	14
2023-08-03T12:00	17530	87	-51.8	-85.4	234	14
2023-08-03T12:00	17558	86	-51.8	-85.4	232	13
2023-08-03T12:00	17583	86	-51.9	-85.5	229	13
2023-08-03T12:00	17604	86	-52.0	-84.8	227	13
2023-08-03T12:00	17630	85	-52.2	-84.9	225	13
2023-08-03T12:00	17653	85	-52.4	-85.1	224	13
2023-08-03T12:00	17674	85	-52.6	-85.2	222	13
2023-08-03T12:00	17696	84	-52.7	-85.3	221	13
2023-08-03T12:00	17722	84	-53.0	-85.5	220	13
2023-08-03T12:00	17750	84	-53.2	-85.6	219	13
2023-08-03T12:00	17769	83	-53.4	-85.1	219	13
2023-08-03T12:00	17794	83	-53.4	-85.1	219	13
2023-08-03T12:00	17819	83	-53.4	-85.1	221	12
2023-08-03T12:00	17839	83	-53.4	-85.1	223	12
2023-08-03T12:00	17864	82	-53.6	-85.3	225	12
2023-08-03T12:00	17889	82	-53.8	-85.4	227	12
2023-08-03T12:00	17910	82	-54.0	-85.5	228	11
2023-08-03T12:00	17933	81	-54.1	-85.6	227	11
2023-08-03T12:00	17954	81	-54.3	-85.8	226	11
2023-08-03T12:00	17978	81	-54.3	-85.8	224	10
2023-08-03T12:00	18001	80	-53.9	-85.5	222	10
2023-08-03T12:00	18026	80	-53.9	-85.5	221	11
2023-08-03T12:00	18050	80	-54.1	-85.6	219	11
2023-08-03T12:00	18073	80	-54.3	-85.8	217	11
2023-08-03T12:00	18100	79	-54.5	-85.9	216	11
2023-08-03T12:00	18119	79	-54.7	-86.1	214	11
2023-08-03T12:00	18141	79	-54.8	-86.1	212	11
2023-08-03T12:00	18162	78	-54.2	-86.4	210	11
2023-08-03T12:00	18190	78	-53.5	-85.9	207	11
2023-08-03T12:00	18211	78	-53.3	-85.7	206	11
2023-08-03T12:00	18234	78	-53.3	-85.7	204	11
2023-08-03T12:00	18254	77	-53.4	-85.8	204	12
2023-08-03T12:00	18280	77	-53.6		204	13
2023-08-03T12:00	18303	77	-53.8	-86.1	206	13
2023-08-03T12:00	18327	76	-53.7	-86.0	207	13
2023-08-03T12:00	18349	76	-53.8	-86.1	209	13
2023-08-03T12:00	18373	76	-53.9	-86.2	211	13
2023-08-03T12:00	18395	76	-53.8	-86.1	212	12
2023-08-03T12:00	18420	75	-52.9	-86.2	213	12
2023-08-03T12:00	18444	75	-52.4	-85.8	214	11
2023-08-03T12:00	18460	75	-52.3	-85.8	215	10
2023-08-03T12:00	18489	75	-52.3	-85.8	215	9
2023-08-03T12:00	18511	74	-52.1	-86.5	214	9
2023-08-03T12:00	18535	74	-51.7	-86.2	211	8
2023-08-03T12:00	18556	74	-51.5	-86.1	207	7
2023-08-03T12:00	18579	74	-51.3	-85.9	201	7
2023-08-03T12:00	18601	73	-50.7	-85.5	195	7
2023-08-03T12:00	18622	73	-50.0	-85.0	190	7
2023-08-03T12:00	18649	73	-49.9	-84.9	186	7
2023-08-03T12:00	18669	73	-50.1	-85.1	183	7
2023-08-03T12:00	18692	72	-50.2	-85.1	181	7
2023-08-03T12:00	18717	72	-50.4	-85.3	180	8
2023-08-03T12:00	18738	72	-50.5	-85.3	179	8
2023-08-03T12:00	18762	72	-50.7	-85.5	179	8
2023-08-03T12:00	18785	71	-50.7	-84.6	181	9
2023-08-03T12:00	18807	71	-50.9	-84.7	182	9
2023-08-03T12:00	18828	71	-51.0	-84.8	184	9
2023-08-03T12:00	18851	71	-51.1	-84.9	186	9
2023-08-03T12:00	18873	70	-51.2	-85.0	186	9
2023-08-03T12:00	18895	70	-51.3	-85.0	186	10
2023-08-03T12:00	18916	70	-51.4	-85.1	187	10
2023-08-03T12:00	18935	70	-51.5	-85.2	187	10
2023-08-03T12:00	18961	69	-51.4	-85.1	187	10
2023-08-03T12:00	18984	69	-51.1	-84.9	188	10
2023-08-03T12:00	19001	69	-51.1	-84.9	188	10
2023-08-03T12:00	19024	69	-51.3	-85.0	187	10
2023-08-03T12:00	19051	68	-51.5	-85.2	187	9
2023-08-03T12:00	19072	68	-51.7	-85.3	186	9
2023-08-03T12:00	19095	68	-51.8	-85.4	185	9
2023-08-03T12:00	19114	68	-51.9	-85.5	184	9
2023-08-03T12:00	19140	67	-52.1	-85.6	183	10
2023-08-03T12:00	19162	67	-52.2	-85.7	183	10
2023-08-03T12:00	19191	67	-52.4	-85.8	183	10
2023-08-03T12:00	19214	67	-52.6	-85.2	184	11
2023-08-03T12:00	19239	66	-52.7	-85.3	186	11
2023-08-03T12:00	19262	66	-52.9	-85.4	187	11
2023-08-03T12:00	19286	66	-53.1	-85.6	189	11
2023-08-03T12:00	19311	66	-53.1	-85.6	191	11
2023-08-03T12:00	19335	65	-53.1	-85.6	193	11
2023-08-03T12:00	19360	65	-53.2	-85.6	194	10
2023-08-03T12:00	19386	65	-53.4	-85.8	194	10
2023-08-03T12:00	19413	65	-53.5	-85.9	193	10
2023-08-03T12:00	19436	64	-53.7	-86.0	192	9
2023-08-03T12:00	19464	64	-53.7	-86.0	191	9
2023-08-03T12:00	19485	64	-53.7	-86.0	191	9
2023-08-03T12:00	19515	64	-53.8	-86.1	190	8
2023-08-03T12:00	19539	63	-54.0	-86.2	190	8
2023-08-03T12:00	19559	63	-54.3	-85.8	189	8
2023-08-03T12:00	19588	63	-54.5	-85.9	189	8
2023-08-03T12:00	19611	63	-54.7	-86.1	188	7
2023-08-03T12:00	19635	62	-54.9	-86.2	187	7
2023-08-03T12:00	19665	62	-55.1	-86.4	186	7
2023-08-03T12:00	19692	62	-55.3	-86.5	185	6
2023-08-03T12:00	19717	62	-55.4	-86.6	184	6
2023-08-03T12:00	19743	61	-55.5	-86.7	182	5
2023-08-03T12:00	19763	61	-55.5	-86.7	179	5
2023-08-03T12:00	19783	61	-55.4	-86.6	176	6
2023-08-03T12:00	19809	61	-55.2	-87.1	173	6
2023-08-03T12:00	19837	61	-55.1	-87.0	171	7
2023-08-03T12:00	19860	60	-54.7	-86.7	170	8
2023-08-03T12:00	19885	60	-54.3	-86.4	170	9
2023-08-03T12:00	19911	60	-54.1	-86.3	171	10
2023-08-03T12:00	19933	60	-54.2	-86.4	172	11
2023-08-03T12:00	19956	59	-54.3	-86.4	175	11
2023-08-03T12:00	19983	59	-54.1	-86.3	177	11
2023-08-03T12:00	20003	59	-53.8	-86.1	180	11
2023-08-03T12:00	20026	59	-53.7	-86.0	183	11
2023-08-03T12:00	20051	59	-53.7	-86.8	185	11
2023-08-03T12:00	20073	58	-53.8	-86.8	187	10
2023-08-03T12:00	20098	58	-53.8	-86.8	188	10
2023-08-03T12:00	20119	58	-53.4	-86.5	188	9
2023-08-03T12:00	20143	58	-52.7	-86.0	187	8
2023-08-03T12:00	20167	58	-52.4	-86.7	185	7
2023-08-03T12:00	20186	57	-52.4	-86.7	181	7
2023-08-03T12:00	20213	57	-52.3	-86.6	176	7
2023-08-03T12:00	20233	57	-52.3	-85.8	172	7
2023-08-03T12:00	20254	57	-52.3	-85.8	168	7
2023-08-03T12:00	20280	57	-52.4	-85.8	166	8
2023-08-03T12:00	20301	56	-52.5	-85.9	165	8
2023-08-03T12:00	20324	56	-52.6		166	8
2023-08-03T12:00	20352	56	-52.8	-86.1	168	9
2023-08-03T12:00	20373	56	-52.7	-86.0	171	9
2023-08-03T12:00	20400	55	-52.7	-86.0	174	9
2023-08-03T12:00	20426	55	-52.8	-86.1	178	9
2023-08-03T12:00	20448	55	-52.8	-86.1	181	10
2023-08-03T12:00	20478	55	-52.9	-86.2	185	10
2023-08-03T12:00	20500	55	-53.0	-86.3	188	10
2023-08-03T12:00	20526	54	-53.2	-86.4	192	10
2023-08-03T12:00	20557	54	-53.1	-86.3	195	10
2023-08-03T12:00	20581	54	-53.0	-86.3	198	9
2023-08-03T12:00	20605	54	-52.8	-86.1	201	9
2023-08-03T12:00	20627	54	-52.7	-86.0	204	8
2023-08-03T12:00	20658	53	-52.9	-86.2	206	7
2023-08-03T12:00	20688	53	-52.9	-86.2	209	7
2023-08-03T12:00	20703	53	-52.8	-86.1	212	6
2023-08-03T12:00	20732	53	-52.7	-86.0	215	5
2023-08-03T12:00	20757	52	-52.7	-86.0	218	4
2023-08-03T12:00	20778	52	-52.7	-86.0	221	4
2023-08-03T12:00	20809	52	-52.7	-86.0	222	3
2023-08-03T12:00	20831	52	-52.7	-86.0	218	2
2023-08-03T12:00	20858	52	-52.6		205	2
2023-08-03T12:00	20889	51	-52.4	-85.8	183	2
2023-08-03T12:00	20912	51	-52.4	-85.8	162	2
2023-08-03T12:00	20941	51	-52.6		151	2
2023-08-03T12:00	20966	51	-52.6		145	3
2023-08-03T12:00	20990	51	-52.5	-85.9	143	3
2023-08-03T12:00	21017	50	-52.5	-85.9	141	2
2023-08-03T12:00	21045	50	-52.4	-85.8	135	2
2023-08-03T12:00	21067	50	-52.4	-86.7	125	2
2023-08-03T12:00	21095	50	-52.3	-86.6	114	2
2023-08-03T12:00	21115	50	-52.0	-86.4	110	3
2023-08-03T12:00	21140	49	-51.4	-86.0	111	3
2023-08-03T12:00	21166	49	-51.1	-85.8	116	4
2023-08-03T12:00	21193	49	-51.0	-85.7	123	4
2023-08-03T12:00	21219	49	-51.0	-85.7	130	4
2023-08-03T12:00	21248	49	-51.1	-85.8	138	4
2023-08-03T12:00	21270	48	-51.0	-85.7	148	3
2023-08-03T12:00	21293	48	-51.0	-85.7	158	3
2023-08-03T12:00	21321	48	-51.0	-85.7	168	3
2023-08-03T12:00	21344	48	-51.1	-85.8	178	2
2023-08-03T12:00	21374	48	-51.2	-85.8	185	2
2023-08-03T12:00	21399	48	-51.2	-85.8	185	1
2023-08-03T12:00	21428	47	-51.2	-85.8	158	1
2023-08-03T12:00	21451	47	-51.0	-85.7	82	1
2023-08-03T12:00	21478	47	-51.0	-85.7	67	2
2023-08-03T12:00	21499	47	-51.1	-85.8	68	2
2023-08-03T12:00	21522	47	-51.1	-85.8	73	3
2023-08-03T12:00	21547	46	-51.1	-85.8	79	3
2023-08-03T12:00	21571	46	-51.1	-85.8	87	4
2023-08-03T12:00	21595	46	-51.1	-85.8	96	4
2023-08-03T12:00	21621	46	-51.1	-85.8	106	4
2023-08-03T12:00	21642	46	-51.1	-85.8	116	4
2023-08-03T12:00	21671	46	-51.1	-85.8	126	4
2023-08-03T12:00	21694	45	-50.9	-85.6	134	4
2023-08-03T12:00	21711	45	-50.7	-85.5	140	4
2023-08-03T12:00	21735	45	-50.6	-86.5	143	5
2023-08-03T12:00	21759	45	-50.4	-86.3	143	5
2023-08-03T12:00	21786	45	-49.9	-86.0	141	5
2023-08-03T12:00	21803	45	-49.6	-85.8	137	5
2023-08-03T12:00	21831	44	-49.4	-85.6	132	5
2023-08-03T12:00	21854	44	-49.2	-85.5	127	6
2023-08-03T12:00	21877	44	-49.1	-85.4	124	7
2023-08-03T12:00	21898	44	-49.0	-85.3	122	7
2023-08-03T12:00	21932	44	-49.0	-85.3	121	8
2023-08-03T12:00	21954	44	-49.1	-85.4	121	9
2023-08-03T12:00	21983	43	-49.2	-85.5	121	10
2023-08-03T12:00	22002	43	-49.3	-85.5	121	10
2023-08-03T12:00	22028	43	-49.4	-85.6	122	11
2023-08-03T12:00	22050	43	-49.5	-85.7	123	11
2023-08-03T12:00	22069	43	-49.5	-84.6	124	11
2023-08-03T12:00	22098	43	-49.5	-84.6	126	11
2023-08-03T12:00	22125	43	-49.6	-84.7	129	12
2023-08-03T12:00	22155	42	-49.7	-84.8	131	12
2023-08-03T12:00	22171	42	-49.8	-84.8	133	12
2023-08-03T12:00	22196	42	-49.9	-84.9	136	12
2023-08-03T12:00	22226	42	-50.0	-85.0	138	12
2023-08-03T12:00	22248	42	-49.9	-84.9	140	12
2023-08-03T12:00	22274	42	-49.7	-85.8	143	12
2023-08-03T12:00	22299	41	-49.3	-85.5	145	11
2023-08-03T12:00	22321	41	-49.1	-85.4	148	11
2023-08-03T12:00	22347	41	-49.1	-85.4	151	10
2023-08-03T12:00	22380	41	-49.2	-85.5	155	10
2023-08-03T12:00	22403	41	-49.2	-85.5	158	9
2023-08-03T12:00	22428	41	-49.3	-85.5	162	9
2023-08-03T12:00	22455	40	-49.3	-85.5	165	8
2023-08-03T12:00	22484	40	-49.4	-85.6	168	8
2023-08-03T12:00	22516	40	-49.5	-85.7	170	7
2023-08-03T12:00	22544	40	-49.6	-85.8	172	7
2023-08-03T12:00	22569	40	-49.7	-85.8	171	6
2023-08-03T12:00	22599	40	-49.7	-85.8	168	5
2023-08-03T12:00	22627	39	-49.5	-85.7	161	5
2023-08-03T12:00	22649	39	-49.4	-85.6	152	5
2023-08-03T12:00	22682	39	-49.3	-85.5	143	5
2023-08-03T12:00	22708	39	-49.2	-85.5	136	6
2023-08-03T12:00	22737	39	-49.2	-85.5	133	6
2023-08-03T12:00	22763	39	-49.2	-85.5	131	7
2023-08-03T12:00	22788	38	-49.2	-85.5	131	8
2023-08-03T12:00	22814	38	-49.3	-85.5	133	9
2023-08-03T12:00	22844	38	-49.3	-85.5	134	10
2023-08-03T12:00	22871	38	-49.2	-85.5	136	10
2023-08-03T12:00	22900	38	-49.1	-85.4	138	11
2023-08-03T12:00	22921	38	-49.0	-85.3	140	11
2023-08-03T12:00	22950	38	-49.0	-85.3	143	12
2023-08-03T12:00	22976	37	-49.2	-85.5	147	12
2023-08-03T12:00	23005	37	-49.3	-85.5	151	12
2023-08-03T12:00	23029	37	-49.3	-85.5	155	12
2023-08-03T12:00	23064	37	-49.3	-85.5	159	12
2023-08-03T12:00	23078	37	-49.4	-85.6	162	12
2023-08-03T12:00	23106	37	-49.4	-85.6	164	12
2023-08-03T12:00	23123	37	-49.4	-85.6	166	11
2023-08-03T12:00	23151	36	-49.4	-85.6	167	11
2023-08-03T12:00	23173	36	-49.5	-85.7	168	10
2023-08-03T12:00	23206	36	-49.5	-85.7	169	10
2023-08-03T12:00	23228	36	-49.5	-85.7	171	10
2023-08-03T12:00	23251	36	-49.4	-85.6	173	9
2023-08-03T12:00	23275	36	-49.4	-85.6	176	9
2023-08-03T12:00	23306	36	-49.4	-85.6	179	8
2023-08-03T12:00	23321	35	-49.4	-85.6	181	8
2023-08-03T12:00	23349	35	-49.3	-85.5	182	7
2023-08-03T12:00	23364	35	-49.1	-85.4	182	6
2023-08-03T12:00	23389	35	-49.0	-85.3	180	6
2023-08-03T12:00	23414	35	-49.0	-85.3	176	5
2023-08-03T12:00	23435	35	-49.1	-85.4	170	5
2023-08-03T12:00	23468	35	-49.2	-85.5	159	4
2023-08-03T12:00	23495	35	-49.2	-85.5	147	4
2023-08-03T12:00	23518	34	-49.3	-85.5	133	4
2023-08-03T12:00	23542	34	-49.4	-85.6	121	4
2023-08-03T12:00	23565	34	-49.4	-85.6	113	5
2023-08-03T12:00	23590	34	-49.5	-85.7	111	6
2023-08-03T12:00	23623	34	-49.6	-85.8	111	6
2023-08-03T12:00	23646	34	-49.6	-85.8	113	7
2023-08-03T12:00	23674	34	-49.6	-85.8	116	8
2023-08-03T12:00	23696	33	-49.7	-85.8	119	8
2023-08-03T12:00	23725	33	-49.7	-85.8	121	9
2023-08-03T12:00	23755	33	-49.7	-85.8	121	9
2023-08-03T12:00	23780	33	-49.6	-85.8	122	9
2023-08-03T12:00	23805	33	-49.6	-85.8	122	10
2023-08-03T12:00	23831	33	-49.6	-85.8	122	10
2023-08-03T12:00	23856	33	-49.6	-85.8	122	10
2023-08-03T12:00	23890	33	-49.6	-85.8	122	9
2023-08-03T12:00	23915	32	-49.6	-85.8	122	9
2023-08-03T12:00	23949	32	-49.6	-85.8	123	9
2023-08-03T12:00	23968	32	-49.6	-85.8	125	8
2023-08-03T12:00	24005	32	-49.7	-85.8	128	8
2023-08-03T12:00	24033	32	-49.8	-85.9	131	7
2023-08-03T12:00	24064	32	-49.9	-86.0	136	7
2023-08-03T12:00	24088	32	-49.9	-86.0	141	7
2023-08-03T12:00	24113	31	-50.0	-86.0	145	7
2023-08-03T12:00	24136	31	-50.0	-86.0	148	7
2023-08-03T12:00	24179	31	-50.1	-86.1	149	7
2023-08-03T12:00	24208	31	-50.0	-86.0	148	6
2023-08-03T12:00	24230	31	-50.0	-86.0	146	6
2023-08-03T12:00	24267	31	-49.9	-86.0	143	6
2023-08-03T12:00	24284	31	-49.9	-86.0	139	6
2023-08-03T12:00	24315	30	-49.9	-86.0	135	6
2023-08-03T12:00	24346	30	-49.9	-86.0	132	6
2023-08-03T12:00	24383	30	-50.0	-86.0	132	7
2023-08-03T12:00	24409	30	-50.1	-86.1	133	7
2023-08-03T12:00	24430	30	-50.2	-86.2	135	8
2023-08-03T12:00	24470	30	-50.2	-86.2	138	8
2023-08-03T12:00	24498	30	-50.2	-86.2	140	8
2023-08-03T12:00	24523	30	-50.1	-86.1	141	8
2023-08-03T12:00	24557	29	-50.1	-86.1	141	8
2023-08-03T12:00	24582	29	-50.2	-86.2	140	8
2023-08-03T12:00	24611	29	-50.2	-86.2	137	8
2023-08-03T12:00	24640	29	-50.1	-86.1	133	8
2023-08-03T12:00	24672	29	-50.2	-86.2	130	8
2023-08-03T12:00	24699	29	-50.2	-86.2	128	8
2023-08-03T12:00	24724	29	-50.2	-86.2	128	8
2023-08-03T12:00	24759	28	-50.2	-86.2	129	8
2023-08-03T12:00	24780	28	-50.3	-86.2	131	8
2023-08-03T12:00	24822	28	-50.3	-86.2	134	8
2023-08-03T12:00	24843	28	-50.3	-86.2	136	8
2023-08-03T12:00	24872	28	-50.3	-86.2	138	8
2023-08-03T12:00	24895	28	-50.4	-86.3	140	8
2023-08-03T12:00	24933	28	-50.5	-86.4	141	8
2023-08-03T12:00	24961	28	-50.5	-86.4	143	8
2023-08-03T12:00	24988	27	-50.5	-86.4	144	8
2023-08-03T12:00	25015	27	-50.4	-86.3	145	8
2023-08-03T12:00	25042	27	-50.5	-86.4	147	8
2023-08-03T12:00	25074	27	-50.6	-85.4	148	8
2023-08-03T12:00	25104	27	-50.7	-85.5	149	7
2023-08-03T12:00	25135	27	-50.7	-85.5	151	7
2023-08-03T12:00	25164	27	-50.7	-85.5	153	7
2023-08-03T12:00	25196	27	-50.7	-85.5	156	7
2023-08-03T12:00	25232	27	-50.6	-85.4	159	7
2023-08-03T12:00	25252	26	-50.7	-86.5	160	8
2023-08-03T12:00	25285	26	-50.8	-86.6	160	8
2023-08-03T12:00	25303	26	-50.6	-86.5	161	8
2023-08-03T12:00	25339	26	-50.6	-86.5	161	8
2023-08-03T12:00	25372	26	-50.5	-86.4	162	8
2023-08-03T12:00	25398	26	-50.5	-86.4	164	7
2023-08-03T12:00	25426	26	-50.4	-86.3	167	7
2023-08-03T12:00	25450	26	-50.3	-86.2	170	6
2023-08-03T12:00	25475	25	-50.2	-86.2	172	6
2023-08-03T12:00	25502	25	-50.1	-86.1	174	6
2023-08-03T12:00	25543	25	-50.0	-86.0	175	5
2023-08-03T12:00	25559	25	-50.0	-86.0	174	5
2023-08-03T12:00	25590	25	-50.1	-86.1	171	5
2023-08-03T12:00	25621	25	-50.1	-86.1	167	4
2023-08-03T12:00	25646	25	-50.0	-86.0	164	4
2023-08-03T12:00	25674	25	-50.0	-86.0	163	4
2023-08-03T12:00	25708	25	-50.0	-86.0	165	3
2023-08-03T12:00	25735	25	-49.9	-86.0	170	3
2023-08-03T12:00	25762	24	-49.8	-85.9	179	2
2023-08-03T12:00	25782	24	-49.6	-85.8	195	1
2023-08-03T12:00	25812	24	-49.5	-85.7	285	0
2023-08-03T12:00	25832	24	-49.3	-85.5	10	1
2023-08-03T12:00	25869	24	-48.9	-85.3	24	2
2023-08-03T12:00	25893	24	-48.7	-85.1	32	3
2023-08-03T12:00	25918	24	-48.7	-85.1	40	4
2023-08-03T12:00	25944	24	-48.7	-85.1	47	4
2023-08-03T12:00	25976	24	-48.5	-85.0	55	5
2023-08-03T12:00	25988	24	-48.4	-84.9	62	5
2023-08-03T12:00	26018	23	-48.2	-84.8	70	6
2023-08-03T12:00	26053	23	-48.2	-84.8	77	6
2023-08-03T12:00	26066	23	-48.3	-84.8	83	7
2023-08-03T12:00	26093	23	-48.4	-84.9	88	7
2023-08-03T12:00	26124	23	-48.4	-84.9	92	8
2023-08-03T12:00	26143	23	-48.4	-84.9	94	9
2023-08-03T12:00	26168	23	-48.2	-84.8	96	9
2023-08-03T12:00	26192	23	-48.0	-84.6	98	9
2023-08-03T12:00	26221	23	-47.9	-84.6	99	9
2023-08-03T12:00	26247	23	-47.7	-84.4	100	9
2023-08-03T12:00	26274	23	-47.5	-84.3	99	9
2023-08-03T12:00	26304	22	-47.4	-84.2	98	9
2023-08-03T12:00	26316	22	-47.4	-84.2	95	10
2023-08-03T12:00	26352	22	-47.4	-84.2	92	10
2023-08-03T12:00	26377	22	-47.4	-84.2	90	11
2023-08-03T12:00	26401	22	-47.4	-84.2	88	11
2023-08-03T12:00	26439	22	-47.4	-84.2	88	11
2023-08-03T12:00	26462	22	-47.5	-84.3	89	12
2023-08-03T12:00	26490	22	-47.5	-84.3	91	12
2023-08-03T12:00	26515	22	-47.5	-84.3	95	11
2023-08-03T12:00	26542	22	-47.6	-84.3	99	11
2023-08-03T12:00	26571	22	-47.6	-84.3	103	11
2023-08-03T12:00	26594	22	-47.8	-84.5	107	11
2023-08-03T12:00	26620	21	-47.9	-84.6	110	10
2023-08-03T12:00	26649	21	-47.9	-84.6	112	10
2023-08-03T12:00	26675	21	-47.8	-84.5	113	10
2023-08-03T12:00	26702	21	-47.6	-84.3	113	10
2023-08-03T12:00	26723	21	-47.5	-84.3	113	10
2023-08-03T12:00	26771	21	-47.3	-84.1	113	9
2023-08-03T12:00	26780	21	-47.1	-84.0	113	9
2023-08-03T12:00	26822	21	-46.8	-83.8	112	9
2023-08-03T12:00	26834	21	-46.7	-83.7	111	9
2023-08-03T12:00	26878	21	-46.7	-83.7	111	8
2023-08-03T12:00	26899	21	-46.7	-83.7	109	8
2023-08-03T12:00	26935	20	-46.7	-83.7	109	8
2023-08-03T12:00	26960	20	-46.6	-83.6	108	8
2023-08-03T12:00	26998	20	-46.7	-83.7	108	8
2023-08-03T12:00	27024	20	-46.8	-83.8	108	8
2023-08-03T12:00	27053	20	-46.8	-83.8	109	8
2023-08-03T12:00	27089	20	-46.7	-83.7	109	9
2023-08-03T12:00	27114	20	-46.7	-83.7	108	9
2023-08-03T12:00	27141	20	-46.7	-83.7	107	9
2023-08-03T12:00	27166	20	-46.7	-83.7	106	9
2023-08-03T12:00	27197	20	-46.8	-83.8	106	9
2023-08-03T12:00	27235	20	-46.9	-83.9	106	9
2023-08-03T12:00	27262	19	-46.9	-83.9	107	8
2023-08-03T12:00	27290	19	-46.8	-83.8	109	7
2023-08-03T12:00	27319	19	-46.7	-83.7	112	7
2023-08-03T12:00	27352	19	-46.7	-83.7	114	6
2023-08-03T12:00	27372	19	-46.7	-83.7	113	5
2023-08-03T12:00	27406	19	-46.7	-83.7	109	5
2023-08-03T12:00	27433	19	-46.6	-83.6	103	5
2023-08-03T12:00	27466	19	-46.5	-83.6	97	5
2023-08-03T12:00	27488	19	-46.5	-83.6	93	5
2023-08-03T12:00	27512	19	-46.3	-83.4	91	5
2023-08-03T12:00	27553	19	-46.2	-83.4	91	5
2023-08-03T12:00	27579	19	-46.1	-83.3	92	5
2023-08-03T12:00	27614	18	-46.0	-83.2	93	5
2023-08-03T12:00	27650	18	-45.8	-83.1	92	4
2023-08-03T12:00	27660	18	-45.6	-82.9	89	5
2023-08-03T12:00	27695	18	-45.5	-82.9	85	5
2023-08-03T12:00	27724	18	-45.5	-82.9	83	6
2023-08-03T12:00	27768	18	-45.4	-82.8	81	7
2023-08-03T12:00	27780	18	-45.5	-82.9	80	7
2023-08-03T12:00	27810	18	-45.5	-82.9	81	8
2023-08-03T12:00	27833	18	-45.5	-82.9	82	8
2023-08-03T12:00	27869	18	-45.6	-82.9	84	9
2023-08-03T12:00	27900	18	-45.7	-83.0	87	9
2023-08-03T12:00	27924	18	-45.8	-83.1	91	9
2023-08-03T12:00	27956	18	-45.9	-83.2	96	10
2023-08-03T12:00	27993	17	-46.0	-83.2	102	10
2023-08-03T12:00	28019	17	-46.1	-83.3	108	10
2023-08-03T12:00	28038	17	-46.2	-83.4	112	10
2023-08-03T12:00	28082	17	-46.2	-83.4	115	11
2023-08-03T12:00	28111	17	-46.1	-83.3	116	10
2023-08-03T12:00	28134	17	-45.9	-83.2	115	10
2023-08-03T12:00	28156	17	-45.9	-83.2	113	9
2023-08-03T12:00	28187	17	-45.8	-83.1	110	9
2023-08-03T12:00	28214	17	-45.7	-83.0	107	8
2023-08-03T12:00	28237	17	-45.7	-83.0	104	8
2023-08-03T12:00	28271	17	-45.6	-82.9	101	7
2023-08-03T12:00	28286	17	-45.6	-82.9	99	7
2023-08-03T12:00	28331	17	-45.7	-83.0	98	7
2023-08-03T12:00	28352	17	-45.7	-83.0	97	6
2023-08-03T12:00	28374	16	-45.6	-82.9	97	6
2023-08-03T12:00	28403	16	-45.6	-82.9	100	7
2023-08-03T12:00	28427	16	-45.5	-82.9	104	7
2023-08-03T12:00	28461	16	-45.4	-82.8	108	7
2023-08-03T12:00	28498	16	-45.4	-82.8	111	8
2023-08-03T12:00	28508	16	-45.5	-82.9	113	8
2023-08-03T12:00	28544	16	-45.5	-82.9	114	9
2023-08-03T12:00	28565	16	-45.4	-82.8	114	8
2023-08-03T12:00	28596	16	-45.3	-82.7	114	8
2023-08-03T12:00	28636	16	-45.2	-82.7	114	8
2023-08-03T12:00	28656	16	-45.2	-82.7	114	8
2023-08-03T12:00	28677	16	-45.2	-82.7	113	8
2023-08-03T12:00	28712	16	-45.2	-82.7	111	8
2023-08-03T12:00	28736	16	-45.2	-82.7	110	9
2023-08-03T12:00	28770	16	-45.2	-82.7	109	9
2023-08-03T12:00	28794	15	-45.2	-82.7	108	9
2023-08-03T12:00	28814	15	-45.2	-82.7	107	9
2023-08-03T12:00	28849	15	-45.1	-82.6	106	9
2023-08-03T12:00	28883	15	-45.0	-82.5	105	9
2023-08-03T12:00	28913	15	-44.9	-82.5	103	8
2023-08-03T12:00	28936	15	-44.8	-82.4	100	8
2023-08-03T12:00	28961	15	-44.7	-82.3	97	7
2023-08-03T12:00	28995	15	-44.7	-82.3	93	7
2023-08-03T12:00	29010	15	-44.7	-82.3	89	6
2023-08-03T12:00	29054	15	-44.6	-82.2	85	6
2023-08-03T12:00	29079	15	-44.6	-82.2	80	5
2023-08-03T12:00	29110	15	-44.6	-82.2	75	5
2023-08-03T12:00	29139	15	-44.6	-82.2	70	5
2023-08-03T12:00	29175	15	-44.6	-82.2	67	6
2023-08-03T12:00	29209	15	-44.5	-82.2	65	6
2023-08-03T12:00	29233	14	-44.5	-82.2	65	6
2023-08-03T12:00	29267	14	-44.5	-82.2	66	7
2023-08-03T12:00	29303	14	-44.5	-82.2	68	7
2023-08-03T12:00	29317	14	-44.6	-82.2	71	7
2023-08-03T12:00	29352	14	-44.7	-82.3	75	7
2023-08-03T12:00	29376	14	-44.8	-82.4	79	8
2023-08-03T12:00	29417	14	-44.8	-82.4	84	8
2023-08-03T12:00	29439	14	-44.8	-82.4	90	8
2023-08-03T12:00	29468	14	-44.7	-82.3	96	8
2023-08-03T12:00	29496	14	-44.6	-82.2	101	8
2023-08-03T12:00	29535	14	-44.8	-82.4	106	8
2023-08-03T12:00	29548	14	-44.9	-82.5	109	9
2023-08-03T12:00	29604	14	-44.9	-82.5	111	9
2023-08-03T12:00	29630	14	-44.9	-82.5	112	9
2023-08-03T12:00	29658	14	-44.8	-82.4	113	10
2023-08-03T12:00	29677	14	-44.6	-82.2	115	10
2023-08-03T12:00	29718	13	-44.4	-82.1	116	9
2023-08-03T12:00	29744	13	-44.1	-81.9	116	9
2023-08-03T12:00	29786	13	-43.8	-81.7	115	8
2023-08-03T12:00	29799	13	-43.5	-81.5	111	7
2023-08-03T12:00	29831	13	-43.2	-81.3	104	6
2023-08-03T12:00	29850	13	-43.1	-81.2	94	5
2023-08-03T12:00	29887	13	-42.9	-81.1	84	5
2023-08-03T12:00	29916	13	-42.8	-81.0	76	6
2023-08-03T12:00	29957	13	-42.6	-80.8	72	6
2023-08-03T12:00	29984	13	-42.4	-80.7	73	7
2023-08-03T12:00	30009	13	-42.2	-80.6	76	7
2023-08-03T12:00	30047	13	-42.0	-80.4	80	8
2023-08-03T12:00	30055	13	-41.8	-80.3	85	8
2023-08-03T12:00	30093	13	-41.8	-80.3	88	8
2023-08-03T12:00	30110	13	-41.8	-80.3	90	8
2023-08-03T12:00	30134	13	-41.8	-80.3	90	8
2023-08-03T12:00	30163	13	-41.6	-80.1	87	8
2023-08-03T12:00	30186	13	-41.5	-80.1	84	8
2023-08-03T12:00	30219	13	-41.3	-79.9	80	8
2023-08-03T12:00	30226	13	-41.1	-79.8	78	8
2023-08-03T12:00	30269	12	-40.8	-79.6	76	8
2023-08-03T12:00	30278	12	-40.6	-79.5	76	7
2023-08-03T12:00	30313	12	-40.4	-79.3	76	7
2023-08-03T12:00	30347	12	-40.3	-79.2	75	7
2023-08-03T12:00	30375	12	-40.1	-79.1	74	7
2023-08-03T12:00	30388	12	-39.9	-79.0	72	7
2023-08-03T12:00	30411	12	-39.7	-78.8	69	7
2023-08-03T12:00	30433	12	-39.5	-78.7	66	8
2023-08-03T12:00	30465	12	-39.3	-78.5	64	9
2023-08-03T12:00	30470	12	-39.1	-78.4	62	9
2023-08-03T12:00	30527	12	-38.9	-78.3	61	10
2023-08-03T12:00	30531	12	-38.8	-78.2	59	10
2023-08-03T12:00	30578	12	-38.7	-78.1	59	10
2023-08-03T12:00	30591	12	-38.5	-78.0	59	10
2023-08-03T12:00	30612	12	-38.4	-77.9	61	11
2023-08-03T12:00	30632	12	-38.4	-77.9	64	11
2023-08-03T12:00	30680	12	-38.3	-77.9	67	12
2023-08-03T12:00	30713	12	-38.3	-77.9	71	12
2023-08-03T12:00	30755	12	-38.3	-77.9	74	13
2023-08-03T12:00	30760	12	-38.3	-77.9	77	13
2023-08-03T12:00	30803	12	-38.3	-77.9	79	13
2023-08-03T12:00	30828	11	-38.3	-77.9	81	14
2023-08-03T12:00	30863	11	-38.4	-77.9	83	13
2023-08-03T12:00	30888	11	-38.5	-78.0	85	13
2023-08-03T12:00	30918	11	-38.4	-77.9	88	13
2023-08-03T12:00	30959	11	-38.2	-77.8	90	12
2023-08-03T12:00	30984	11	-38.1	-77.7	93	12
2023-08-03T12:00	31019	11	-38.0	-77.6	97	11
2023-08-03T12:00	31059	11	-37.9	-77.6	100	11
2023-08-03T12:00	31079	11	-38.0	-77.6	104	10
2023-08-03T12:00	31107	11	-38.0	-77.6	107	10
2023-08-03T12:00	31151	11	-38.1	-77.7	109	10
2023-08-03T12:00	31164	11	-38.2	-77.8	111	10
2023-08-03T12:00	31197	11	-38.3	-77.9	111	9
2023-08-03T12:00	31231	11	-38.4	-77.9	110	9
2023-08-03T12:00	31284	11	-38.4	-77.9	109	9
2023-08-03T12:00	31334	11	-38.4	-77.9	103	10
2023-08-03T12:00	31363	11	-38.4	-77.9	100	10
2023-08-03T12:00	31392	11	-38.4	-77.9	98	10
2023-08-03T12:00	31403	11	-38.3	-77.9	95	10
2023-08-03T12:00	31448	10	-38.1	-77.7	94	10
2023-08-03T12:00	31484	10	-38.0	-77.6	94	10
2023-08-03T12:00	31505	10	-37.9	-77.6	94	10
2023-08-03T12:00	31526	10	-37.8	-77.5	95	10
2023-08-03T12:00	31570	10	-37.7	-77.4	95	10
2023-08-03T12:00	31604	10	-37.7	-77.4	96	10
2023-08-03T12:00	31655	10	-38.1	-77.7	99	10
2023-08-03T12:00	31670	10	-38.2	-77.8	100	9
2023-08-03T12:00	31702	10	-38.2	-77.8	100	9
2023-08-03T12:00	31733	10	-38.1	-77.7	99	9
2023-08-03T12:00	31765	10	-38.0	-77.6	97	9
2023-08-03T12:00	31783	10	-38.0	-77.6	94	9
2023-08-03T12:00	31821	10	-37.9	-77.6	91	10
2023-08-03T12:00	31845	10	-37.9	-77.6	87	10
2023-08-03T12:00	31864	10	-37.9	-77.6	84	11
2023-08-03T12:00	31902	10	-37.8	-77.5	82	11
2023-08-03T12:00	31918	10	-37.7	-77.4	80	12
2023-08-03T12:00	31925	10	-37.5	-77.3	79	12
2023-08-03T12:00	31946	10	-37.3	-77.2	78	12
2023-08-03T12:00	32006	10	-37.1	-77.0	76	12
2023-08-03T12:00	32034	10	-36.9	-76.9	75	12
2023-08-03T12:00	32068	10	-36.7	-76.7	74	13
2023-08-03T12:00	32070	10	-36.6	-76.7	75	13
2023-08-03T12:00	32100	10	-36.4	-76.5	76	14
2023-08-03T12:00	32132	9	-36.2	-76.4	78	14
2023-08-03T12:00	32167	9	-36.0	-76.3	81	14
2023-08-03T12:00	32171	9	-35.8	-76.1	84	14
2023-08-03T12:00	32217	9	-35.7	-76.1	88	14
2023-08-03T12:00	32233	9	-35.7	-76.1	91	14
2023-08-03T12:00	32268	9	-35.9	-76.2	94	14
2023-08-03T12:00	32309	9	-36.1	-76.3	98	14
2023-08-03T12:00	32312	9	-36.3	-76.5	101	14
2023-08-03T12:00	32339	9	-36.4	-76.5	104	14
2023-08-03T12:00	32363	9	-36.6	-76.7	106	14
2023-08-03T12:00	32405	9	-36.7	-76.7	108	14
2023-08-03T12:00	32451	9	-36.8	-76.8	108	14
2023-08-03T12:00	32482	9	-36.8	-76.8	107	14
2023-08-03T12:00	32514	9	-36.7	-76.7	105	14
2023-08-03T12:00	32549	9	-36.7	-76.7	103	14
2023-08-03T12:00	32568	9	-36.7	-76.7	100	13
2023-08-03T12:00	32595	9	-36.8	-76.8	97	13
2023-08-03T12:00	32643	9	-36.8	-76.8	94	13
2023-08-03T12:00	32665	9	-36.8	-76.8	90	13
2023-08-03T12:00	32691	9	-36.9	-76.9	88	12
2023-08-03T12:00	32744	9	-36.9	-76.9	87	12
2023-08-03T12:00	32746	9	-36.9	-76.9	87	12
2023-08-03T12:00	32783	9	-36.7	-76.7	89	11
2023-08-03T12:00	32833	9	-36.5	-76.6	93	11
2023-08-03T12:00	32853	9	-36.3	-76.5	96	10
2023-08-03T12:00	32885	9	-36.3	-76.5	100	9
2023-08-03T12:00	32908	8	-36.4	-76.5	104	9
2023-08-03T12:00	32958	8	-36.4	-76.5	107	8
2023-08-03T12:00	32973	8	-36.4	-76.5	110	8
2023-08-03T12:00	32980	8	-36.4	-76.5	111	8
2023-08-03T12:00	33055	8	-36.4	-76.5	111	7
2023-08-03T12:00	33058	8	-36.4	-76.5	108	7
2023-08-03T12:00	33090	8	-36.3	-76.5	106	7
2023-08-03T12:00	33101	8	-36.2	-76.4	104	7
2023-08-03T12:00	33162	8	-36.1	-76.3	103	8
2023-08-03T12:00	33192	8	-36.0	-76.3	102	8
2023-08-03T12:00	33210	8	-35.9	-76.2	102	8
2023-08-03T12:00	33244	8	-35.8	-76.1	101	8
2023-08-03T12:00	33266	8	-35.7	-76.1	99	9
2023-08-03T12:00	33278	8	-35.7	-76.1	97	9
2023-08-03T12:00	33318	8	-35.7	-76.1	97	9
2023-08-03T12:00	33362	8	-35.8	-76.1	98	9
2023-08-03T12:00	33396	8	-35.8	-76.1	100	9
2023-08-03T12:00	33405	8	-35.8	-76.1	102	9
2023-08-03T12:00	33435	8	-35.8	-76.1	105	9
2023-08-03T12:00	33455	8	-35.7	-76.1	107	9
2023-08-03T12:00	33491	8	-35.6	-76.0	110	8
2023-08-03T12:00	33544	8	-35.3	-75.8	114	8
2023-08-03T12:00	33575	8	-35.0	-75.6	121	8
2023-08-03T12:00	33599	8	-35.0	-75.6	123	8
2023-08-03T12:00	33655	8	-35.0	-75.6	122	7
2023-08-03T12:00	33694	8	-34.8	-75.4	106	5
2023-08-03T12:00	33732	8	-34.7	-75.4	93	5
2023-08-03T12:00	33752	8	-34.4	-75.2	62	5
2023-08-03T12:00	33777	7	-34.1	-75.0	50	6
2023-08-03T12:00	33814	7	-33.9	-74.8	40	6
2023-08-03T12:00	33833	7	-33.8	-74.7	35	7
2023-08-03T12:00	33844	7	-33.7	-74.7	33	7
2023-08-03T12:00	33866	7	-33.7	-74.7	34	7
2023-08-03T12:00	33895	7	-33.7	-74.7	37	7
2023-08-03T12:00	33924	7	-33.8	-74.7	41	7
2023-08-03T12:00	33938	7	-33.9	-74.8	45	6
2023-08-03T12:00	34000	7	-33.9	-74.8	49	6
2023-08-03T12:00	34001	7	-33.9	-74.8	52	6
2023-08-03T12:00	34007	7	-33.9	-74.8	54	6
2023-08-03T12:00	34061	7	-33.8	-74.7	55	6
2023-08-03T12:00	34104	7	-33.8	-74.7	56	7
2023-08-03T12:00	34110	7	-33.7	-74.7	57	7
2023-08-03T12:00	34119	7	-33.7	-74.7	59	8
2023-08-03T12:00	34180	7	-33.8	-74.7	61	8
2023-08-03T12:00	34219	7	-33.9	-74.8	65	9
2023-08-03T12:00	34236	7	-34.0	-74.9	67	10
2023-08-03T12:00	34271	7	-34.0	-74.9	69	10
2023-08-03T12:00	34300	7	-34.1	-75.0	69	11
2023-08-03T12:00	34306	7	-34.1	-75.0	70	12
2023-08-03T12:00	34354	7	-34.0	-74.9	69	12
2023-08-03T12:00	34364	7	-34.0	-74.9	68	13
2023-08-03T12:00	34387	7	-34.0	-74.9	66	13
2023-08-03T12:00	34414	7	-34.0	-74.9	65	13
2023-08-03T12:00	34491	7	-34.1	-75.0	63	13
2023-08-03T12:00	34495	7	-34.2	-75.0	62	14
2023-08-03T12:00	34561	7	-34.2	-75.0	62	14
2023-08-03T12:00	34627	7	-34.2	-75.0	65	13
2023-08-03T12:00	34650	7	-34.2	-75.0	67	13
2023-08-03T12:00	34654	7	-34.1	-75.0	69	13
2023-08-03T12:00	34677	7	-34.1	-75.0	70	13
2023-08-03T12:00	34715	7	-34.0	-74.9	71	13
2023-08-03T18:00	112	988	21.7	11.1	230	6
2023-08-03T18:00	132	986	21.8	11.5	218	6
2023-08-03T18:00	156	983	21.6	11.4	217	8
2023-08-03T18:00	182	980	21.4	11.2	217	10
2023-08-03T18:00	206	978	21.1	11.0	218	12
2023-08-03T18:00	228	975	20.9	11.2	220	13
2023-08-03T18:00	248	973	20.7	11.1	222	14
2023-08-03T18:00	269	971	20.5	11.1	224	15
2023-08-03T18:00	292	968	20.3	11.1	227	15
2023-08-03T18:00	322	965	20.0	11.0	229	15
2023-08-03T18:00	351	961	19.7	11.0	232	14
2023-08-03T18:00	386	957	19.4	10.9	235	14
2023-08-03T18:00	424	953	19.0	10.8	237	14
2023-08-03T18:00	455	950	18.7	10.8	240	14
2023-08-03T18:00	485	946	18.4	10.9	242	14
2023-08-03T18:00	522	943	18.1	10.7	243	14
2023-08-03T18:00	553	939	17.7	10.6	245	15
2023-08-03T18:00	582	936	17.5	10.7	245	15
2023-08-03T18:00	611	933	17.2	10.6	246	16
2023-08-03T18:00	634	930	17.0	10.5	246	16
2023-08-03T18:00	655	928	16.8	10.5	247	17
2023-08-03T18:00	674	926	16.5	10.6	246	17
2023-08-03T18:00	694	923	16.3	10.5	246	17
2023-08-03T18:00	715	921	16.1	10.5	245	17
2023-08-03T18:00	737	919	15.9	10.4	244	17
2023-08-03T18:00	757	917	15.6	10.4	244	17
2023-08-03T18:00	781	914	15.5	10.2	243	17
2023-08-03T18:00	803	912	15.2	10.1	241	17
2023-08-03T18:00	831	909	15.0	10.0	240	17
2023-08-03T18:00	858	906	14.8	10.1	238	18
2023-08-03T18:00	885	903	14.5	10.1	236	18
2023-08-03T18:00	909	900	14.3	9.9	235	18
2023-08-03T18:00	939	897	14.0	9.8	236	19
2023-08-03T18:00	971	894	13.7	9.8	237	19
2023-08-03T18:00	1003	891	13.4	9.8	238	19
2023-08-03T18:00	1032	888	13.1	9.7	240	20
2023-08-03T18:00	1058	885	12.9	9.5	241	20
2023-08-03T18:00	1091	881	12.7	9.4	241	20
2023-08-03T18:00	1122	878	12.4	9.3	241	21
2023-08-03T18:00	1155	875	12.2	9.1	241	21
2023-08-03T18:00	1182	872	11.9	9.1	241	21
2023-08-03T18:00	1213	868	11.6	9.0	241	21
2023-08-03T18:00	1243	865	11.3	9.0	241	21
2023-08-03T18:00	1273	862	11.0	8.9	241	21
2023-08-03T18:00	1301	859	10.7	8.8	241	21
2023-08-03T18:00	1333	856	10.4	8.7	241	21
2023-08-03T18:00	1361	853	10.2	8.7	241	21
2023-08-03T18:00	1394	850	10.0	8.5	242	21
2023-08-03T18:00	1425	847	9.8	8.2	242	21
2023-08-03T18:00	1457	843	9.7	8.1	243	20
2023-08-03T18:00	1491	840	9.4	8.1	244	20
2023-08-03T18:00	1524	837	9.1	7.8	246	20
2023-08-03T18:00	1557	833	8.9	7.7	247	20
2023-08-03T18:00	1592	830	8.8	7.4	248	20
2023-08-03T18:00	1620	827	8.7	7.0	249	20
2023-08-03T18:00	1647	824	8.5	6.9	250	20
2023-08-03T18:00	1677	822	8.2	7.0	251	20
2023-08-03T18:00	1706	819	7.9	6.9	252	20
2023-08-03T18:00	1735	816	7.6	6.7	252	20
2023-08-03T18:00	1766	813	7.4	6.7	252	20
2023-08-03T18:00	1790	810	7.2	6.7	252	20
2023-08-03T18:00	1818	808	7.0	6.5	252	20
2023-08-03T18:00	1844	805	6.8	6.4	252	20
2023-08-03T18:00	1867	803	6.6	6.4	252	20
2023-08-03T18:00	1892	800	6.3	6.1	252	20
2023-08-03T18:00	1919	798	6.1	6.0	252	19
2023-08-03T18:00	1946	795	6.0	6.0	253	19
2023-08-03T18:00	1976	792	5.8	5.8	253	19
2023-08-03T18:00	2007	789	5.6	5.6	253	18
2023-08-03T18:00	2031	787	5.5	5.3	254	18
2023-08-03T18:00	2062	784	5.4	5.0	254	18
2023-08-03T18:00	2090	781	5.3	4.8	254	19
2023-08-03T18:00	2115	779	5.0	4.8	254	19
2023-08-03T18:00	2139	776	4.8	4.6	254	19
2023-08-03T18:00	2163	774	4.9	3.9	254	20
2023-08-03T18:00	2186	772	4.9	3.5	254	20
2023-08-03T18:00	2212	770	4.8	3.4	254	20
2023-08-03T18:00	2235	767	4.7	3.4	255	20
2023-08-03T18:00	2262	765	4.5	3.2	256	20
2023-08-03T18:00	2284	763	4.4	3.2	256	20
2023-08-03T18:00	2305	761	4.2	2.9	256	20
2023-08-03T18:00	2327	759	4.0	2.9	256	20
2023-08-03T18:00	2353	757	3.8	2.8	256	20
2023-08-03T18:00	2372	755	3.6	2.7	255	20
2023-08-03T18:00	2397	752	3.4	2.7	255	20
2023-08-03T18:00	2420	750	3.2	2.7	256	20
2023-08-03T18:00	2445	748	3.0	2.7	257	20
2023-08-03T18:00	2472	746	2.8	2.5	258	20
2023-08-03T18:00	2493	743	2.7	2.5	259	20
2023-08-03T18:00	2517	741	2.4	2.4	259	21
2023-08-03T18:00	2540	739	2.2	2.2	259	21
2023-08-03T18:00	2568	737	2.2	1.9	258	21
2023-08-03T18:00	2594	734	2.0	1.9	258	21
2023-08-03T18:00	2619	732	1.7	1.7	257	21
2023-08-03T18:00	2644	730	1.6	1.6	256	21
2023-08-03T18:00	2673	727	1.4	1.4	255	20
2023-08-03T18:00	2699	725	1.2	1.2	254	20
2023-08-03T18:00	2724	723	1.1	1.1	253	20
2023-08-03T18:00	2743	721	1.0	1.0	253	20
2023-08-03T18:00	2767	719	0.9	0.9	253	20
2023-08-03T18:00	2790	717	0.8	0.8	253	20
2023-08-03T18:00	2808	715	0.7	0.7	254	21
2023-08-03T18:00	2829	713	0.6	0.6	254	21
2023-08-03T18:00	2853	711	0.4	0.4	254	21
2023-08-03T18:00	2874	709	0.3	0.3	254	21
2023-08-03T18:00	2898	707	0.1	0.1	253	20
2023-08-03T18:00	2919	705	0.0	0.0	253	20
2023-08-03T18:00	2950	703	-0.2	-0.2	253	20
2023-08-03T18:00	2974	700	-0.3	-0.3	253	20
2023-08-03T18:00	2999	698	-0.6	-0.6	252	19
2023-08-03T18:00	3029	696	-0.8	-0.8	252	19
2023-08-03T18:00	3053	694	-0.9	-0.9	251	19
2023-08-03T18:00	3080	691	-1.0	-1.0	251	19
2023-08-03T18:00	3106	689	-1.2	-1.2	251	19
2023-08-03T18:00	3131	687	-1.3	-1.3	250	19
2023-08-03T18:00	3160	684	-1.3	-1.3	250	19
2023-08-03T18:00	3183	682	-1.5	-1.5	249	19
2023-08-03T18:00	3210	680	-1.6	-1.6	248	19
2023-08-03T18:00	3240	678	-1.8	-1.8	247	19
2023-08-03T18:00	3262	675	-2.0	-2.0	247	19
2023-08-03T18:00	3292	673	-1.9	-1.9	247	20
2023-08-03T18:00	3320	671	-2.3	-4.0	248	20
2023-08-03T18:00	3346	668	-2.0	-7.3	248	20
2023-08-03T18:00	3372	666	-2.2	-7.3	248	20
2023-08-03T18:00	3399	664	-2.3	-7.3	248	20
2023-08-03T18:00	3420	662	-2.4	-7.4	248	20
2023-08-03T18:00	3444	660	-2.5	-7.5	247	20
2023-08-03T18:00	3469	658	-2.6	-7.4	247	20
2023-08-03T18:00	3495	656	-2.8	-7.5	247	20
2023-08-03T18:00	3521	654	-2.9	-7.5	247	20
2023-08-03T18:00	3546	652	-3.1	-7.6	248	21
2023-08-03T18:00	3569	650	-3.2	-7.7	249	21
2023-08-03T18:00	3594	648	-3.3	-7.7	250	21
2023-08-03T18:00	3618	646	-3.5	-7.8	250	21
2023-08-03T18:00	3643	644	-3.7	-8.0	251	21
2023-08-03T18:00	3665	642	-3.8	-8.0	252	21
2023-08-03T18:00	3688	640	-4.0	-8.0	252	21
2023-08-03T18:00	3710	638	-4.2	-8.2	252	21
2023-08-03T18:00	3737	636	-4.4	-8.2	252	21
2023-08-03T18:00	3760	634	-4.6	-8.3	252	21
2023-08-03T18:00	3785	632	-4.8	-8.4	251	21
2023-08-03T18:00	3813	630	-5.0	-8.5	251	22
2023-08-03T18:00	3839	628	-5.2	-8.6	251	22
2023-08-03T18:00	3867	626	-5.4	-8.6	252	22
2023-08-03T18:00	3893	624	-5.7	-8.8	252	22
2023-08-03T18:00	3919	622	-5.8	-8.7	253	22
2023-08-03T18:00	3947	619	-6.1	-8.9	254	22
2023-08-03T18:00	3976	617	-6.3	-9.0	255	22
2023-08-03T18:00	4002	615	-6.5	-9.0	256	22
2023-08-03T18:00	4031	613	-6.8	-9.2	256	23
2023-08-03T18:00	4055	611	-6.9	-9.2	257	23
2023-08-03T18:00	4080	609	-7.0	-9.1	256	23
2023-08-03T18:00	4107	607	-7.2	-9.2	256	24
2023-08-03T18:00	4132	605	-7.4	-9.4	255	24
2023-08-03T18:00	4155	603	-7.6	-9.5	255	24
2023-08-03T18:00	4177	601	-7.8	-9.5	254	24
2023-08-03T18:00	4210	599	-8.0	-9.7	254	24
2023-08-03T18:00	4228	598	-8.0	-10.0	254	24
2023-08-03T18:00	4248	596	-8.0	-9.9	254	24
2023-08-03T18:00	4267	595	-8.2	-9.9	254	25
2023-08-03T18:00	4293	593	-8.4	-10.1	253	25
2023-08-03T18:00	4310	591	-8.6	-10.2	253	25
2023-08-03T18:00	4329	590	-8.7	-10.1	253	25
2023-08-03T18:00	4346	589	-8.8	-10.1	252	25
2023-08-03T18:00	4368	587	-9.0	-10.3	252	25
2023-08-03T18:00	4384	586	-9.1	-10.6	252	26
2023-08-03T18:00	4403	584	-9.2	-10.7	252	26
2023-08-03T18:00	4426	583	-9.4	-10.9	252	26
2023-08-03T18:00	4448	581	-9.5	-10.9	252	26
2023-08-03T18:00	4470	579	-9.6	-10.9	252	25
2023-08-03T18:00	4486	578	-9.6	-11.0	251	25
2023-08-03T18:00	4506	577	-9.6	-11.3	251	24
2023-08-03T18:00	4518	575	-9.5	-12.0	251	23
2023-08-03T18:00	4537	574	-9.6	-12.2	251	23
2023-08-03T18:00	4552	573	-9.7	-12.3	251	22
2023-08-03T18:00	4567	572	-9.7	-12.6	252	22
2023-08-03T18:00	4583	571	-9.8	-12.7	253	21
2023-08-03T18:00	4604	569	-9.8	-13.2	254	21
2023-08-03T18:00	4625	568	-9.7	-13.9	255	20
2023-08-03T18:00	4642	566	-9.7	-13.9	257	20
2023-08-03T18:00	4664	565	-9.6	-15.3	257	20
2023-08-03T18:00	4683	564	-9.5	-16.0	258	20
2023-08-03T18:00	4696	563	-9.5	-16.4	258	20
2023-08-03T18:00	4710	562	-9.5	-17.4	259	19
2023-08-03T18:00	4726	560	-9.3	-19.5	260	19
2023-08-03T18:00	4744	559	-9.1	-18.4	261	19
2023-08-03T18:00	4764	558	-9.3	-18.8	261	19
2023-08-03T18:00	4785	556	-9.4	-18.2	260	19
2023-08-03T18:00	4802	555	-9.5	-15.6	260	20
2023-08-03T18:00	4826	553	-9.6	-14.6	259	20
2023-08-03T18:00	4846	552	-9.7	-14.6	258	21
2023-08-03T18:00	4865	550	-9.7		258	21
2023-08-03T18:00	4882	549	-9.7	-15.7	257	21
2023-08-03T18:00	4903	548	-9.8	-16.1	258	21
2023-08-03T18:00	4924	546	-9.9	-15.5	258	21
2023-08-03T18:00	4950	544	-10.0	-16.1	257	21
2023-08-03T18:00	4971	543	-10.1	-16.5	257	21
2023-08-03T18:00	4986	542	-10.2	-16.5	256	20
2023-08-03T18:00	5007	540	-10.4	-16.7	255	20
2023-08-03T18:00	5030	539	-10.5	-16.5	253	20
2023-08-03T18:00	5054	537	-10.7	-16.6	253	20
2023-08-03T18:00	5072	536	-10.9	-16.5	253	20
2023-08-03T18:00	5096	534	-11.1	-16.5	254	20
2023-08-03T18:00	5122	532	-11.3	-16.5	256	20
2023-08-03T18:00	5155	530	-11.6	-16.6	258	20
2023-08-03T18:00	5174	529	-11.8	-16.7	260	20
2023-08-03T18:00	5192	527	-11.9	-17.0	261	20
2023-08-03T18:00	5211	526	-11.9	-18.4	261	20
2023-08-03T18:00	5233	525	-11.8	-25.8	261	19
2023-08-03T18:00	5257	523	-11.9	-23.2	260	19
2023-08-03T18:00	5282	521	-12.1	-21.0	260	19
2023-08-03T18:00	5306	520	-12.3	-19.0	259	19
2023-08-03T18:00	5326	518	-12.5	-18.9	259	19
2023-08-03T18:00	5348	517	-12.6	-18.8	259	20
2023-08-03T18:00	5370	515	-12.7	-19.1	259	20
2023-08-03T18:00	5392	514	-12.9	-19.1	259	20
2023-08-03T18:00	5415	512	-13.1	-19.2	258	20
2023-08-03T18:00	5441	511	-13.3	-19.3	258	20
2023-08-03T18:00	5466	509	-13.6	-19.6	257	20
2023-08-03T18:00	5485	508	-13.7	-19.5	256	20
2023-08-03T18:00	5504	506	-13.8	-20.0	255	21
2023-08-03T18:00	5523	505	-13.9	-21.1	254	21
2023-08-03T18:00	5545	504	-13.9	-20.3	253	21
2023-08-03T18:00	5564	502	-13.9	-20.8	252	21
2023-08-03T18:00	5584	501	-14.0	-21.8	252	21
2023-08-03T18:00	5603	500	-14.1	-22.2	252	21
2023-08-03T18:00	5623	498	-14.2	-21.9	252	21
2023-08-03T18:00	5645	497	-14.3	-21.2	252	21
2023-08-03T18:00	5668	496	-14.5	-21.3	252	21
2023-08-03T18:00	5688	494	-14.6	-21.4	252	21
2023-08-03T18:00	5710	493	-14.8	-21.4	252	21
2023-08-03T18:00	5735	491	-15.0	-21.5	253	21
2023-08-03T18:00	5758	490	-15.1	-21.8	253	21
2023-08-03T18:00	5779	488	-15.3	-21.9	253	21
2023-08-03T18:00	5800	487	-15.5	-22.0	254	21
2023-08-03T18:00	5820	486	-15.6	-22.0	254	21
2023-08-03T18:00	5842	484	-15.8	-22.1	254	21
2023-08-03T18:00	5864	483	-16.0	-22.3	254	21
2023-08-03T18:00	5887	481	-16.1	-22.6	253	21
2023-08-03T18:00	5909	480	-16.2	-22.7	253	21
2023-08-03T18:00	5930	479	-16.4	-22.9	253	21
2023-08-03T18:00	5953	477	-16.6	-22.9	253	21
2023-08-03T18:00	5976	476	-16.8	-22.9	254	21
2023-08-03T18:00	6001	474	-17.0	-23.0	254	21
2023-08-03T18:00	6025	473	-17.1	-23.0	254	21
2023-08-03T18:00	6049	471	-17.3	-23.1	254	21
2023-08-03T18:00	6072	470	-17.5	-23.2	253	21
2023-08-03T18:00	6097	468	-17.7	-23.2	253	21
2023-08-03T18:00	6118	467	-17.9	-23.3	252	21
2023-08-03T18:00	6139	465	-18.0	-23.8	252	20
2023-08-03T18:00	6160	464	-18.2	-23.9	251	20
2023-08-03T18:00	6181	463	-18.3	-24.0	250	20
2023-08-03T18:00	6203	461	-18.4	-24.3	250	20
2023-08-03T18:00	6223	460	-18.5	-24.8	250	20
2023-08-03T18:00	6244	459	-18.7	-24.9	249	20
2023-08-03T18:00	6267	458	-18.8	-25.5	249	20
2023-08-03T18:00	6286	456	-19.0		249	20
2023-08-03T18:00	6306	455	-19.1	-25.7	249	20
2023-08-03T18:00	6328	454	-19.3	-25.7	249	20
2023-08-03T18:00	6348	453	-19.4	-25.8	249	20
2023-08-03T18:00	6368	451	-19.6	-25.9	248	20
2023-08-03T18:00	6389	450	-19.7	-26.1	248	21
2023-08-03T18:00	6412	449	-19.8	-26.7	247	21
2023-08-03T18:00	6433	447	-19.9	-27.4	247	21
2023-08-03T18:00	6456	446	-20.0	-27.5	247	21
2023-08-03T18:00	6476	445	-20.2	-27.7	246	21
2023-08-03T18:00	6497	444	-20.3	-28.2	246	21
2023-08-03T18:00	6516	442	-20.5	-28.1	246	21
2023-08-03T18:00	6536	441	-20.7	-28.2	246	21
2023-08-03T18:00	6558	440	-20.9	-28.2	246	21
2023-08-03T18:00	6577	439	-21.1	-29.0	246	21
2023-08-03T18:00	6596	438	-21.3	-30.3	245	21
2023-08-03T18:00	6616	437	-21.4	-30.4	245	21
2023-08-03T18:00	6635	435	-21.5	-29.0	245	21
2023-08-03T18:00	6653	434	-21.6	-29.1	244	21
2023-08-03T18:00	6671	433	-21.8	-29.4	244	21
2023-08-03T18:00	6690	432	-21.9	-29.9	244	21
2023-08-03T18:00	6708	431	-22.0	-29.7	244	21
2023-08-03T18:00	6726	430	-22.2	-29.7	244	21
2023-08-03T18:00	6746	429	-22.3	-29.7	244	21
2023-08-03T18:00	6763	428	-22.5	-29.9	244	21
2023-08-03T18:00	6781	427	-22.6	-29.9	244	21
2023-08-03T18:00	6799	426	-22.8	-30.1	244	21
2023-08-03T18:00	6818	425	-22.9	-30.4	243	21
2023-08-03T18:00	6835	424	-23.1	-30.6	243	21
2023-08-03T18:00	6852	423	-23.2	-30.8	243	21
2023-08-03T18:00	6870	422	-23.4	-30.8	243	21
2023-08-03T18:00	6888	421	-23.5	-30.9	243	21
2023-08-03T18:00	6905	420	-23.7	-31.1	243	21
2023-08-03T18:00	6924	419	-23.9	-31.2	243	21
2023-08-03T18:00	6940	418	-24.0	-31.2	243	21
2023-08-03T18:00	6960	417	-24.2	-31.3	242	21
2023-08-03T18:00	6977	416	-24.3	-31.4	242	21
2023-08-03T18:00	6994	415	-24.5	-31.5	242	21
2023-08-03T18:00	7011	414	-24.6	-31.6	242	21
2023-08-03T18:00	7028	413	-24.8	-31.7	242	21
2023-08-03T18:00	7046	412	-24.9	-31.7	242	21
2023-08-03T18:00	7064	411	-25.1	-31.8	241	21
2023-08-03T18:00	7079	410	-25.2	-31.9	241	21
2023-08-03T18:00	7097	409	-25.4	-32.0	241	21
2023-08-03T18:00	7116	408	-25.6	-32.2	241	21
2023-08-03T18:00	7130	407	-25.7	-32.3	241	21
2023-08-03T18:00	7148	406	-25.9	-32.3	241	21
2023-08-03T18:00	7166	405	-26.1	-32.4	241	21
2023-08-03T18:00	7185	404	-26.2	-32.4	241	21
2023-08-03T18:00	7201	403	-26.4	-32.5	241	21
2023-08-03T18:00	7218	402	-26.6	-32.7	241	21
2023-08-03T18:00	7234	401	-26.7	-32.6	241	21
2023-08-03T18:00	7251	400	-26.9	-32.7	241	21
2023-08-03T18:00	7268	399	-27.0	-32.8	241	21
2023-08-03T18:00	7285	398	-27.2	-33.0	241	21
2023-08-03T18:00	7303	397	-27.3	-33.2	241	21
2023-08-03T18:00	7317	396	-27.4	-33.9	241	21
2023-08-03T18:00	7336	395	-27.4	-34.2	242	21
2023-08-03T18:00	7353	394	-27.5	-34.5	242	21
2023-08-03T18:00	7371	394	-27.7	-34.9	242	21
2023-08-03T18:00	7387	393	-27.7	-35.5	242	21
2023-08-03T18:00	7405	392	-27.8	-35.6	241	21
2023-08-03T18:00	7424	391	-28.0	-35.6	241	21
2023-08-03T18:00	7439	390	-28.2	-35.6	241	21
2023-08-03T18:00	7455	389	-28.3	-35.6	241	21
2023-08-03T18:00	7475	388	-28.5	-35.7	241	22
2023-08-03T18:00	7493	387	-28.6	-35.8	240	22
2023-08-03T18:00	7509	386	-28.8	-35.9	241	22
2023-08-03T18:00	7527	385	-28.9	-35.9	241	22
2023-08-03T18:00	7544	384	-29.1	-36.0	241	22
2023-08-03T18:00	7564	383	-29.3	-36.1	240	22
2023-08-03T18:00	7581	382	-29.4	-36.3	240	22
2023-08-03T18:00	7598	381	-29.6	-36.5	240	22
2023-08-03T18:00	7616	380	-29.7	-36.6	240	22
2023-08-03T18:00	7635	379	-29.8	-37.3	240	22
2023-08-03T18:00	7651	378	-29.9	-37.7	240	22
2023-08-03T18:00	7670	377	-30.0	-37.7	240	22
2023-08-03T18:00	7687	377	-30.2	-38.2	240	22
2023-08-03T18:00	7705	376	-30.3	-38.3	240	22
2023-08-03T18:00	7722	375	-30.5	-38.4	239	22
2023-08-03T18:00	7742	374	-30.6	-38.5	239	22
2023-08-03T18:00	7761	373	-30.8	-38.7	239	22
2023-08-03T18:00	7778	372	-30.9	-38.9	239	22
2023-08-03T18:00	7796	371	-31.1	-39.1	239	22
2023-08-03T18:00	7817	370	-31.2	-39.0	239	22
2023-08-03T18:00	7835	369	-31.4	-39.2	239	22
2023-08-03T18:00	7856	368	-31.6	-39.4	239	22
2023-08-03T18:00	7876	367	-31.8	-39.6	239	22
2023-08-03T18:00	7896	366	-31.9	-40.1	240	22
2023-08-03T18:00	7916	365	-32.1	-40.4	240	22
2023-08-03T18:00	7936	364	-32.2	-40.5	241	22
2023-08-03T18:00	7956	363	-32.4	-40.7	241	22
2023-08-03T18:00	7976	361	-32.6	-40.5	241	22
2023-08-03T18:00	7995	360	-32.7	-40.1	242	22
2023-08-03T18:00	8016	359	-32.9	-40.7	243	22
2023-08-03T18:00	8035	358	-33.1	-41.6	243	22
2023-08-03T18:00	8054	357	-33.2	-41.7	244	22
2023-08-03T18:00	8075	356	-33.4	-41.8	244	22
2023-08-03T18:00	8093	355	-33.5	-42.6	244	22
2023-08-03T18:00	8114	354	-33.6	-42.7	245	22
2023-08-03T18:00	8135	353	-33.8	-42.7	245	22
2023-08-03T18:00	8155	352	-34.0	-42.7	245	22
2023-08-03T18:00	8174	351	-34.2	-42.9	245	22
2023-08-03T18:00	8194	350	-34.3	-43.0	245	22
2023-08-03T18:00	8212	349	-34.5	-43.3	245	22
2023-08-03T18:00	8233	348	-34.7	-43.6	244	22
2023-08-03T18:00	8253	347	-34.9		244	21
2023-08-03T18:00	8274	346	-35.0	-44.7	244	21
2023-08-03T18:00	8295	345	-35.2	-45.1	244	21
2023-08-03T18:00	8316	344	-35.4	-45.4	244	21
2023-08-03T18:00	8339	343	-35.6	-45.7	244	21
2023-08-03T18:00	8360	342	-35.8	-46.1	244	21
2023-08-03T18:00	8379	341	-35.9	-46.2	245	22
2023-08-03T18:00	8401	340	-36.1	-46.1	245	22
2023-08-03T18:00	8421	339	-36.3	-45.9	246	22
2023-08-03T18:00	8441	338	-36.5	-46.0	246	21
2023-08-03T18:00	8463	337	-36.6	-46.3	246	21
2023-08-03T18:00	8483	336	-36.8	-46.4	245	21
2023-08-03T18:00	8505	335	-36.9	-47.2	245	21
2023-08-03T18:00	8527	334	-37.0	-47.8	244	21
2023-08-03T18:00	8549	333	-37.1	-48.9	244	21
2023-08-03T18:00	8572	332	-37.2	-50.8	244	21
2023-08-03T18:00	8593	331	-37.1	-54.9	244	21
2023-08-03T18:00	8614	330	-37.0	-54.5	243	21
2023-08-03T18:00	8635	329	-37.1	-53.6	243	21
2023-08-03T18:00	8657	328	-37.3	-53.2	243	21
2023-08-03T18:00	8679	327	-37.4	-53.3	242	21
2023-08-03T18:00	8701	326	-37.5		242	21
2023-08-03T18:00	8722	325	-37.7	-53.5	241	21
2023-08-03T18:00	8744	324	-37.8	-53.4	241	21
2023-08-03T18:00	8764	323	-38.0	-53.7	240	21
2023-08-03T18:00	8785	322	-38.1	-54.7	239	21
2023-08-03T18:00	8806	321	-38.3	-54.9	239	22
2023-08-03T18:00	8827	320	-38.5	-54.8	239	22
2023-08-03T18:00	8849	319	-38.7	-54.7	238	22
2023-08-03T18:00	8868	318	-38.8	-54.5	239	22
2023-08-03T18:00	8890	317	-39.0	-54.5	239	22
2023-08-03T18:00	8913	316	-39.3	-54.2	240	22
2023-08-03T18:00	8935	315	-39.5	-54.2	240	22
2023-08-03T18:00	8955	314	-39.6	-54.4	240	23
2023-08-03T18:00	8975	313	-39.8	-54.1	241	23
2023-08-03T18:00	8998	312	-40.0	-53.6	241	23
2023-08-03T18:00	9018	311	-40.2	-53.7	241	23
2023-08-03T18:00	9037	310	-40.3	-53.6	242	23
2023-08-03T18:00	9059	309	-40.5	-53.3	242	24
2023-08-03T18:00	9079	308	-40.7	-53.0	243	24
2023-08-03T18:00	9100	307	-40.9	-52.8	244	24
2023-08-03T18:00	9119	306	-41.1	-52.9	244	24
2023-08-03T18:00	9138	306	-41.2	-52.8	245	24
2023-08-03T18:00	9159	305	-41.4	-52.8	245	24
2023-08-03T18:00	9179	304	-41.5	-53.0	246	24
2023-08-03T18:00	9197	303	-41.6	-53.2	246	24
2023-08-03T18:00	9218	302	-41.7	-53.5	246	24
2023-08-03T18:00	9240	301	-41.7	-53.9	245	24
2023-08-03T18:00	9260	300	-41.7	-54.5	245	24
2023-08-03T18:00	9279	299	-41.7	-54.9	244	25
2023-08-03T18:00	9298	298	-41.7	-55.4	244	25
2023-08-03T18:00	9318	298	-41.5	-55.9	243	26
2023-08-03T18:00	9338	297	-41.7	-56.1	243	26
2023-08-03T18:00	9356	296	-41.8	-56.6	242	27
2023-08-03T18:00	9375	295	-41.8	-57.8	242	28
2023-08-03T18:00	9394	294	-41.8	-58.8	241	28
2023-08-03T18:00	9413	293	-41.8	-59.8	241	29
2023-08-03T18:00	9432	293	-41.6	-60.5	240	29
2023-08-03T18:00	9452	292	-41.4	-60.4	239	30
2023-08-03T18:00	9473	291	-41.4	-60.5	239	30
2023-08-03T18:00	9490	290	-41.1	-60.9	238	31
2023-08-03T18:00	9510	289	-41.1	-61.0	238	31
2023-08-03T18:00	9529	288	-41.2	-61.3	238	32
2023-08-03T18:00	9548	288	-41.3	-61.5	238	32
2023-08-03T18:00	9568	287	-41.1	-61.8	238	33
2023-08-03T18:00	9587	286	-41.1	-62.1	238	33
2023-08-03T18:00	9606	285	-40.9	-62.4	238	34
2023-08-03T18:00	9625	284	-40.9	-62.4	237	35
2023-08-03T18:00	9646	283	-41.0	-62.6	237	36
2023-08-03T18:00	9668	283	-41.0	-62.7	237	37
2023-08-03T18:00	9691	282	-41.2	-62.8	237	38
2023-08-03T18:00	9710	281	-41.3	-62.9	236	38
2023-08-03T18:00	9732	280	-41.3	-63.1	236	39
2023-08-03T18:00	9750	279	-40.8	-63.5	236	40
2023-08-03T18:00	9770	278	-40.0	-64.1	236	40
2023-08-03T18:00	9790	278	-39.6	-64.4	236	41
2023-08-03T18:00	9810	277	-39.1	-65.0	237	41
2023-08-03T18:00	9828	276	-38.9	-65.4	237	41
2023-08-03T18:00	9849	275	-38.7	-65.9	237	42
2023-08-03T18:00	9868	274	-38.4	-66.6	238	42
2023-08-03T18:00	9887	274	-37.8	-66.4	238	42
2023-08-03T18:00	9909	273	-37.6	-66.5	238	43
2023-08-03T18:00	9931	272	-37.4	-66.6	238	43
2023-08-03T18:00	9952	271	-37.2	-67.0	238	43
2023-08-03T18:00	9973	270	-37.2	-67.4	238	44
2023-08-03T18:00	9996	269	-37.0	-67.5	238	44
2023-08-03T18:00	10018	269	-36.9	-67.1	238	45
2023-08-03T18:00	10045	268	-36.9	-67.1	238	46
2023-08-03T18:00	10070	267	-36.9	-67.4	238	47
2023-08-03T18:00	10095	266	-36.8	-67.4	237	48
2023-08-03T18:00	10119	265	-36.8	-67.4	237	49
2023-08-03T18:00	10145	264	-36.6	-67.2	237	49
2023-08-03T18:00	10171	263	-36.7	-67.0	237	50
2023-08-03T18:00	10192	262	-36.7	-66.7	237	51
2023-08-03T18:00	10219	261	-36.7	-66.1	236	51
2023-08-03T18:00	10242	260	-36.8	-65.9	236	51
2023-08-03T18:00	10266	259	-36.8	-65.1	236	51
2023-08-03T18:00	10286	258	-36.8	-64.9	235	50
2023-08-03T18:00	10313	257	-37.0	-65.0	235	49
2023-08-03T18:00	10341	256	-37.1	-65.6	235	49
2023-08-03T18:00	10367	255	-37.3	-66.3	235	48
2023-08-03T18:00	10388	255	-37.3	-66.5	235	47
2023-08-03T18:00	10409	254	-37.4	-66.6	234	47
2023-08-03T18:00	10430	253	-37.5	-66.7	234	46
2023-08-03T18:00	10451	252	-37.5	-67.0	234	46
2023-08-03T18:00	10474	251	-37.6	-67.4	233	46
2023-08-03T18:00	10493	251	-37.6	-67.7	233	45
2023-08-03T18:00	10515	250	-37.4	-67.8	233	45
2023-08-03T18:00	10533	249	-37.2	-68.0	232	45
2023-08-03T18:00	10555	248	-37.2	-68.0	232	45
2023-08-03T18:00	10576	248	-37.2	-67.7	231	45
2023-08-03T18:00	10596	247	-37.3	-67.7	231	45
2023-08-03T18:00	10615	246	-37.1	-67.9	231	45
2023-08-03T18:00	10634	246	-36.8	-67.4	230	46
2023-08-03T18:00	10653	245	-36.8	-67.4	230	46
2023-08-03T18:00	10673	244	-36.8	-67.7	230	46
2023-08-03T18:00	10691	244	-36.9	-67.8	229	46
2023-08-03T18:00	10712	243	-36.5	-67.8	229	47
2023-08-03T18:00	10733	242	-36.3	-68.1	229	47
2023-08-03T18:00	10755	241	-36.1	-67.5	230	48
2023-08-03T18:00	10777	241	-36.1	-67.5	230	48
2023-08-03T18:00	10800	240	-36.2	-67.6	230	48
2023-08-03T18:00	10821	239	-36.3	-67.3	230	48
2023-08-03T18:00	10841	238	-36.5	-67.5	230	48
2023-08-03T18:00	10859	238	-36.6	-67.2	230	49
2023-08-03T18:00	10879	237	-36.8	-67.4	231	49
2023-08-03T18:00	10900	236	-37.0	-67.5	231	49
2023-08-03T18:00	10920	236	-37.2	-67.7	232	49
2023-08-03T18:00	10940	235	-37.2	-67.4	232	49
2023-08-03T18:00	10960	234	-37.2	-67.4	233	49
2023-08-03T18:00	10983	234	-37.3	-67.4	234	49
2023-08-03T18:00	11002	233	-37.3	-67.4	235	49
2023-08-03T18:00	11024	232	-37.4	-67.5	235	50
2023-08-03T18:00	11043	231	-37.5	-67.9	236	50
2023-08-03T18:00	11064	231	-37.6	-68.0	236	49
2023-08-03T18:00	11086	230	-37.6	-68.0	237	49
2023-08-03T18:00	11107	229	-37.8	-68.1	237	49
2023-08-03T18:00	11126	229	-37.9	-67.9	238	49
2023-08-03T18:00	11149	228	-38.0	-68.3	238	49
2023-08-03T18:00	11172	227	-38.1	-68.4	239	49
2023-08-03T18:00	11191	227	-38.3	-68.5	239	49
2023-08-03T18:00	11212	226	-38.4	-68.6	240	49
2023-08-03T18:00	11234	225	-38.5	-68.7	240	49
2023-08-03T18:00	11255	224	-38.7	-68.8	240	49
2023-08-03T18:00	11279	224	-38.8	-68.9	241	48
2023-08-03T18:00	11299	223	-38.9	-69.0	241	48
2023-08-03T18:00	11320	222	-39.1	-69.1	242	47
2023-08-03T18:00	11341	222	-39.2	-69.2	242	47
2023-08-03T18:00	11364	221	-39.4	-69.3	243	47
2023-08-03T18:00	11387	220	-39.6	-69.5	243	46
2023-08-03T18:00	11412	219	-39.7	-69.3	244	45
2023-08-03T18:00	11436	219	-39.8	-69.7	244	45
2023-08-03T18:00	11460	218	-39.9	-69.7	245	44
2023-08-03T18:00	11487	217	-40.0	-69.8	246	42
2023-08-03T18:00	11512	216	-39.9	-70.4	246	41
2023-08-03T18:00	11537	215	-39.6	-70.2	247	41
2023-08-03T18:00	11558	215	-39.6	-70.5	247	40
2023-08-03T18:00	11581	214	-39.6	-70.5	247	39
2023-08-03T18:00	11606	213	-39.5	-70.8	247	38
2023-08-03T18:00	11630	213	-39.6	-70.9	247	38
2023-08-03T18:00	11654	212	-39.8	-71.1	247	37
2023-08-03T18:00	11677	211	-39.9	-71.1	246	37
2023-08-03T18:00	11702	210	-40.1	-70.9	246	37
2023-08-03T18:00	11728	210	-40.3	-71.1	246	36
2023-08-03T18:00	11752	209	-40.4	-71.5	246	36
2023-08-03T18:00	11777	208	-40.7	-71.7	246	35
2023-08-03T18:00	11803	207	-40.8	-71.4	246	35
2023-08-03T18:00	11828	206	-41.0	-72.0	246	34
2023-08-03T18:00	11852	206	-41.1	-72.0	245	34
2023-08-03T18:00	11878	205	-41.3	-72.2	244	34
2023-08-03T18:00	11905	204	-41.4		244	33
2023-08-03T18:00	11932	203	-41.6	-72.0	243	33
2023-08-03T18:00	11957	203	-41.8	-71.8	242	33
2023-08-03T18:00	11986	202	-41.8	-70.9	242	32
2023-08-03T18:00	12014	201	-41.9	-70.4	241	32
2023-08-03T18:00	12039	200	-42.1	-70.5	241	32
2023-08-03T18:00	12065	199	-42.2	-70.6	240	32
2023-08-03T18:00	12090	199	-42.3	-71.0	240	32
2023-08-03T18:00	12114	198	-42.5	-71.4	240	32
2023-08-03T18:00	12139	197	-42.6	-71.8	240	32
2023-08-03T18:00	12165	196	-42.8	-71.9	240	32
2023-08-03T18:00	12190	196	-43.0	-72.4	239	32
2023-08-03T18:00	12212	195	-43.2	-72.9	239	32
2023-08-03T18:00	12236	194	-43.3	-73.3	238	31
2023-08-03T18:00	12262	194	-43.4	-73.8	237	31
2023-08-03T18:00	12284	193	-43.5	-73.5	236	31
2023-08-03T18:00	12306	192	-43.7	-73.6	235	31
2023-08-03T18:00	12330	192	-43.8	-73.4	234	31
2023-08-03T18:00	12353	191	-44.0	-73.2	234	31
2023-08-03T18:00	12375	190	-44.1	-72.9	234	32
2023-08-03T18:00	12396	190	-44.1	-72.9	234	32
2023-08-03T18:00	12420	189	-44.2	-73.0	234	32
2023-08-03T18:00	12442	189	-44.2	-73.0	234	33
2023-08-03T18:00	12464	188	-44.3	-73.1	234	33
2023-08-03T18:00	12486	187	-44.4	-73.2	235	33
2023-08-03T18:00	12508	187	-44.5	-73.2	235	33
2023-08-03T18:00	12528	186	-44.6	-73.3	235	33
2023-08-03T18:00	12551	185	-44.8	-73.5	234	32
2023-08-03T18:00	12572	185	-44.7	-73.7	233	32
2023-08-03T18:00	12597	184	-44.5	-74.2	232	31
2023-08-03T18:00	12621	184	-44.5	-74.2	231	31
2023-08-03T18:00	12644	183	-44.6	-74.3	230	31
2023-08-03T18:00	12669	182	-44.7	-74.4	229	31
2023-08-03T18:00	12694	182	-44.9	-74.5	228	32
2023-08-03T18:00	12718	181	-44.7	-74.8	227	32
2023-08-03T18:00	12743	180	-44.7	-75.1	226	33
2023-08-03T18:00	12769	180	-44.6	-75.1	225	33
2023-08-03T18:00	12791	179	-44.6	-75.1	225	33
2023-08-03T18:00	12813	178	-44.8	-74.8	224	33
2023-08-03T18:00	12836	178	-45.0	-75.0	224	34
2023-08-03T18:00	12861	177	-45.2	-75.1	223	34
2023-08-03T18:00	12885	176	-45.3	-75.2	223	35
2023-08-03T18:00	12911	176	-45.6	-75.4	224	35
2023-08-03T18:00	12938	175	-45.7	-75.2	225	36
2023-08-03T18:00	12966	174	-45.7	-74.8	226	36
2023-08-03T18:00	12998	173	-45.7	-74.5	227	36
2023-08-03T18:00	13029	173	-45.7	-74.2	228	36
2023-08-03T18:00	13054	172	-45.6	-74.1	229	36
2023-08-03T18:00	13080	171	-45.7	-73.9	230	35
2023-08-03T18:00	13106	171	-45.8	-73.6	231	34
2023-08-03T18:00	13133	170	-46.0	-73.8	231	34
2023-08-03T18:00	13163	169	-46.2	-73.7	231	33
2023-08-03T18:00	13195	168	-46.4	-73.8	232	32
2023-08-03T18:00	13221	168	-46.6	-74.3	233	32
2023-08-03T18:00	13241	167	-46.6	-74.3	233	31
2023-08-03T18:00	13268	167	-46.7	-74.6	233	31
2023-08-03T18:00	13295	166	-46.8	-74.7	233	31
2023-08-03T18:00	13322	165	-46.5	-74.5	233	30
2023-08-03T18:00	13348	165	-46.7	-74.6	232	30
2023-08-03T18:00	13373	164	-46.7	-74.6	231	29
2023-08-03T18:00	13402	163	-46.5	-74.5	231	29
2023-08-03T18:00	13427	163	-46.2	-74.5	231	28
2023-08-03T18:00	13452	162	-46.2	-74.5	231	27
2023-08-03T18:00	13479	161	-46.5	-75.1	231	27
2023-08-03T18:00	13506	161	-46.8	-75.6	232	27
2023-08-03T18:00	13532	160	-46.7	-75.6	232	27
2023-08-03T18:00	13560	159	-46.6	-75.8	232	27
2023-08-03T18:00	13586	159	-46.6	-75.8	232	27
2023-08-03T18:00	13613	158	-46.8	-75.6	233	27
2023-08-03T18:00	13639	158	-47.0	-75.8	234	27
2023-08-03T18:00	13665	157	-46.9	-75.7	235	27
2023-08-03T18:00	13698	156	-46.8	-76.0	235	27
2023-08-03T18:00	13724	155	-46.9	-76.1	236	27
2023-08-03T18:00	13754	155	-46.7	-76.3	236	27
2023-08-03T18:00	13785	154	-46.5	-76.1	235	27
2023-08-03T18:00	13817	153	-46.8	-76.3	234	26
2023-08-03T18:00	13846	153	-46.9	-76.4	233	26
2023-08-03T18:00	13879	152	-47.2	-76.3	232	25
2023-08-03T18:00	13912	151	-47.4	-76.4	231	25
2023-08-03T18:00	13937	151	-47.6	-76.6	231	25
2023-08-03T18:00	13960	150	-47.7	-76.7	230	25
2023-08-03T18:00	13987	149	-47.9	-76.8	229	25
2023-08-03T18:00	14013	149	-48.0	-76.9	228	25
2023-08-03T18:00	14040	148	-48.2	-77.1	226	25
2023-08-03T18:00	14066	148	-48.3	-76.8	224	25
2023-08-03T18:00	14098	147	-48.4	-76.9	222	25
2023-08-03T18:00	14126	146	-48.5	-76.9	221	25
2023-08-03T18:00	14155	146	-48.6	-77.0	219	25
2023-08-03T18:00	14183	145	-48.5	-76.9	218	25
2023-08-03T18:00	14208	144	-48.7	-77.1	216	25
2023-08-03T18:00	14236	144	-48.7	-77.1	215	26
2023-08-03T18:00	14262	143	-48.5	-76.9	215	27
2023-08-03T18:00	14290	143	-48.0	-76.9	214	27
2023-08-03T18:00	14318	142	-47.9	-77.2	214	28
2023-08-03T18:00	14345	142	-47.9	-77.2	214	29
2023-08-03T18:00	14370	141	-48.0	-77.3	214	29
2023-08-03T18:00	14395	140	-48.1	-77.3	214	29
2023-08-03T18:00	14423	140	-48.3	-77.5	214	29
2023-08-03T18:00	14451	139	-48.5	-77.6	214	30
2023-08-03T18:00	14475	139	-48.7	-77.8	214	30
2023-08-03T18:00	14502	138	-48.8	-77.5	215	30
2023-08-03T18:00	14527	138	-49.0	-77.7	216	30
2023-08-03T18:00	14554	137	-49.2	-77.8	217	31
2023-08-03T18:00	14584	136	-49.4	-78.0	218	31
2023-08-03T18:00	14616	136	-49.7	-78.2	219	31
2023-08-03T18:00	14649	135	-50.0	-78.1	221	32
2023-08-03T18:00	14678	135	-50.2	-78.2	222	32
2023-08-03T18:00	14707	134	-50.4	-78.4	223	33
2023-08-03T18:00	14735	133	-50.5	-78.8	224	33
2023-08-03T18:00	14766	133	-50.2	-78.6	225	34
2023-08-03T18:00	14795	132	-50.1	-78.9	226	34
2023-08-03T18:00	14824	132	-50.1	-78.9	227	34
2023-08-03T18:00	14849	131	-50.3	-79.0	228	33
2023-08-03T18:00	14878	130	-50.5	-78.8	229	33
2023-08-03T18:00	14902	130	-50.7	-79.0	229	33
2023-08-03T18:00	14925	130	-50.8	-79.0	230	32
2023-08-03T18:00	14949	129	-51.0	-78.9	230	32
2023-08-03T18:00	14978	128	-51.2	-79.0	230	31
2023-08-03T18:00	15006	128	-51.4	-79.2	230	31
2023-08-03T18:00	15032	127	-51.5	-79.2	230	31
2023-08-03T18:00	15056	127	-51.7	-79.1	230	31
2023-08-03T18:00	15078	127	-51.9	-79.2	230	31
2023-08-03T18:00	15102	126	-52.1	-79.4	231	31
2023-08-03T18:00	15124	126	-52.3	-79.5	231	30
2023-08-03T18:00	15149	125	-52.5	-79.4	232	30
2023-08-03T18:00	15172	125	-52.7	-79.6	232	30
2023-08-03T18:00	15196	124	-52.8	-79.6	233	29
2023-08-03T18:00	15220	124	-52.9	-80.0	233	28
2023-08-03T18:00	15247	123	-52.8	-79.9	232	27
2023-08-03T18:00	15273	123	-52.7	-79.8	232	27
2023-08-03T18:00	15297	122	-52.5	-79.7	230	26
2023-08-03T18:00	15327	122	-52.6	-79.8	229	25
2023-08-03T18:00	15355	121	-52.8	-79.9	228	25
2023-08-03T18:00	15379	121	-52.8	-79.9	228	24
2023-08-03T18:00	15402	120	-52.8	-79.9	228	23
2023-08-03T18:00	15425	120	-52.9	-80.0	228	23
2023-08-03T18:00	15448	119	-52.8	-79.9	229	23
2023-08-03T18:00	15475	119	-52.7	-80.2	229	22
2023-08-03T18:00	15502	118	-52.8	-80.2	229	22
2023-08-03T18:00	15528	118	-52.6	-80.1	229	23
2023-08-03T18:00	15554	118	-52.8	-80.6	228	23
2023-08-03T18:00	15580	117	-52.9	-80.6	227	23
2023-08-03T18:00	15608	117	-52.8	-80.6	225	23
2023-08-03T18:00	15632	116	-52.8	-80.6	224	23
2023-08-03T18:00	15653	116	-52.9	-80.6	223	23
2023-08-03T18:00	15677	115	-53.0	-80.7	222	23
2023-08-03T18:00	15703	115	-53.2	-80.9	222	23
2023-08-03T18:00	15729	114	-53.2	-80.9	222	23
2023-08-03T18:00	15759	114	-53.4	-81.0	222	23
2023-08-03T18:00	15783	113	-53.6	-81.2	222	23
2023-08-03T18:00	15809	113	-53.6	-81.2	222	23
2023-08-03T18:00	15839	112	-53.9	-81.4	223	23
2023-08-03T18:00	15861	112	-54.0	-81.2	223	23
2023-08-03T18:00	15882	112	-54.1	-81.2	223	23
2023-08-03T18:00	15903	111	-54.0	-81.5	222	23
2023-08-03T18:00	15926	111	-53.9	-81.4	222	23
2023-08-03T18:00	15948	111	-53.9	-81.4	222	23
2023-08-03T18:00	15970	110	-54.0	-81.5	223	22
2023-08-03T18:00	15990	110	-54.0	-81.8	223	22
2023-08-03T18:00	16011	109	-53.8	-81.7	223	21
2023-08-03T18:00	16032	109	-52.9	-81.4	223	20
2023-08-03T18:00	16059	109	-52.6	-81.5	223	19
2023-08-03T18:00	16092	108	-52.1	-81.1	223	18
2023-08-03T18:00	16117	108	-52.1	-81.1	222	18
2023-08-03T18:00	16142	107	-52.1	-81.1	222	17
2023-08-03T18:00	16170	107	-52.2	-81.2	221	16
2023-08-03T18:00	16196	106	-52.3	-81.3	220	16
2023-08-03T18:00	16220	106	-52.3	-80.9	218	15
2023-08-03T18:00	16247	106	-52.3	-80.9	218	15
2023-08-03T18:00	16269	105	-52.4	-81.0	217	15
2023-08-03T18:00	16296	105	-52.6	-81.1	218	15
2023-08-03T18:00	16321	104	-52.6	-81.1	219	15
2023-08-03T18:00	16346	104	-52.6	-81.1	220	14
2023-08-03T18:00	16369	104	-52.7	-81.2	221	14
2023-08-03T18:00	16399	103	-53.0	-81.1	222	14
2023-08-03T18:00	16423	103	-53.1	-81.1	223	14
2023-08-03T18:00	16446	102	-53.3	-81.3	224	13
2023-08-03T18:00	16474	102	-53.4	-81.4	224	14
2023-08-03T18:00	16495	102	-53.6	-81.5	225	14
2023-08-03T18:00	16517	101	-53.8	-81.7	226	14
2023-08-03T18:00	16540	101	-53.9	-81.4	227	14
2023-08-03T18:00	16562	100	-54.0	-81.5	228	14
2023-08-03T18:00	16586	100	-54.1	-81.9	228	15
2023-08-03T18:00	16609	100	-54.2	-82.0	228	15
2023-08-03T18:00	16632	99	-54.2	-82.0	226	16
2023-08-03T18:00	16654	99	-54.2	-82.0	225	16
2023-08-03T18:00	16688	99	-54.2	-82.0	223	17
2023-08-03T18:00	16713	98	-53.8	-82.0	221	18
2023-08-03T18:00	16742	98	-53.7	-82.0	220	18
2023-08-03T18:00	16769	97	-53.9	-82.1	220	19
2023-08-03T18:00	16795	97	-54.1	-81.9	219	19
2023-08-03T18:00	16826	96	-54.3	-82.1	219	19
2023-08-03T18:00	16851	96	-54.4	-82.1	219	18
2023-08-03T18:00	16871	96	-54.5	-82.2	218	18
2023-08-03T18:00	16895	95	-54.5	-82.2	218	17
2023-08-03T18:00	16918	95	-54.6	-82.3	218	17
2023-08-03T18:00	16941	95	-54.6	-82.3	218	17
2023-08-03T18:00	16964	94	-54.6	-82.3	218	16
2023-08-03T18:00	16989	94	-54.6	-82.3	217	16
2023-08-03T18:00	17014	94	-54.7	-82.4	217	16
2023-08-03T18:00	17038	93	-54.9	-82.5	216	15
2023-08-03T18:00	17064	93	-55.0	-82.6	216	15
2023-08-03T18:00	17086	93	-55.2	-82.7	216	14
2023-08-03T18:00	17113	92	-55.2	-82.7	215	13
2023-08-03T18:00	17134	92	-55.0	-82.6	214	13
2023-08-03T18:00	17158	92	-54.8	-82.8	214	12
2023-08-03T18:00	17180	91	-54.7	-82.7	214	12
2023-08-03T18:00	17205	91	-54.7	-82.7	215	12
2023-08-03T18:00	17224	91	-54.9	-82.9	217	12
2023-08-03T18:00	17248	90	-55.0	-82.6	219	12
2023-08-03T18:00	17269	90	-55.2	-82.7	219	12
2023-08-03T18:00	17293	90	-55.3	-82.8	218	12
2023-08-03T18:00	17319	89	-55.2	-83.1	215	11
2023-08-03T18:00	17342	89	-54.7	-83.1	211	11
2023-08-03T18:00	17362	89	-54.7	-83.5	207	11
2023-08-03T18:00	17383	88	-54.2	-83.6	204	10
2023-08-03T18:00	17409	88	-52.0	-82.4	203	10
2023-08-03T18:00	17433	88	-51.1	-82.2	202	10
2023-08-03T18:00	17461	87	-51.3	-82.4	203	10
2023-08-03T18:00	17489	87	-51.5	-82.0	203	10
2023-08-03T18:00	17516	87	-51.7	-82.2	202	10
2023-08-03T18:00	17536	86	-51.8	-81.8	202	10
2023-08-03T18:00	17556	86	-51.9	-81.8	202	11
2023-08-03T18:00	17584	86	-52.0	-81.5	202	11
2023-08-03T18:00	17604	85	-52.2	-81.6	203	11
2023-08-03T18:00	17628	85	-52.4	-81.8	204	11
2023-08-03T18:00	17653	85	-52.6	-81.9	205	11
2023-08-03T18:00	17677	84	-52.8	-82.1	207	11
2023-08-03T18:00	17698	84	-53.0	-81.8	209	11
2023-08-03T18:00	17720	84	-53.1	-81.9	210	11
2023-08-03T18:00	17743	84	-53.3	-82.0	211	12
2023-08-03T18:00	17763	83	-53.4	-82.1	211	12
2023-08-03T18:00	17784	83	-53.5	-82.2	211	12
2023-08-03T18:00	17804	83	-53.7	-82.3	211	12
2023-08-03T18:00	17824	83	-53.9	-82.5	211	12
2023-08-03T18:00	17846	82	-54.0	-82.2	212	13
2023-08-03T18:00	17868	82	-54.2	-82.7	213	13
2023-08-03T18:00	17890	82	-54.3	-82.8	214	14
2023-08-03T18:00	17913	81	-54.2	-82.7	214	14
2023-08-03T18:00	17932	81	-54.0	-83.0	214	15
2023-08-03T18:00	17952	81	-53.6	-82.7	214	15
2023-08-03T18:00	17972	81	-53.4	-83.0	214	15
2023-08-03T18:00	17993	80	-53.3	-82.9	213	15
2023-08-03T18:00	18015	80	-52.7	-82.9	212	15
2023-08-03T18:00	18037	80	-52.3	-82.6	211	15
2023-08-03T18:00	18060	80	-52.1	-82.5	210	15
2023-08-03T18:00	18083	79	-51.7	-82.7	210	14
2023-08-03T18:00	18102	79	-50.8	-82.0	209	13
2023-08-03T18:00	18125	79	-50.6	-81.9	208	12
2023-08-03T18:00	18147	79	-50.6	-81.9	208	11
2023-08-03T18:00	18169	78	-50.6	-81.9	208	11
2023-08-03T18:00	18190	78	-50.7	-81.4	208	10
2023-08-03T18:00	18212	78	-50.7	-81.4	208	10
2023-08-03T18:00	18232	78	-50.6	-81.3	208	10
2023-08-03T18:00	18256	77	-50.5	-81.3	208	10
2023-08-03T18:00	18274	77	-50.6	-81.3	208	10
2023-08-03T18:00	18299	77	-50.7	-81.4	208	10
2023-08-03T18:00	18320	76	-50.9	-81.6	208	10
2023-08-03T18:00	18343	76	-51.1	-81.2	209	10
2023-08-03T18:00	18369	76	-51.3	-81.4	210	11
2023-08-03T18:00	18391	76	-51.5	-81.5	210	11
2023-08-03T18:00	18413	75	-51.7	-81.7	211	11
2023-08-03T18:00	18434	75	-51.8	-81.8	211	11
2023-08-03T18:00	18459	75	-51.9	-81.8	210	11
2023-08-03T18:00	18479	75	-51.8	-81.8	208	11
2023-08-03T18:00	18502	74	-51.8	-81.8	206	12
2023-08-03T18:00	18524	74	-51.8	-81.8	203	12
2023-08-03T18:00	18544	74	-51.7	-82.2	199	11
2023-08-03T18:00	18565	74	-51.6	-82.1	195	11
2023-08-03T18:00	18590	73	-51.3	-81.9	192	12
2023-08-03T18:00	18613	73	-50.9	-81.6	189	12
2023-08-03T18:00	18637	73	-50.4	-81.7	186	12
2023-08-03T18:00	18656	73	-50.3	-81.6	184	12
2023-08-03T18:00	18681	72	-50.5	-81.3	182	12
2023-08-03T18:00	18702	72	-50.6	-81.3	181	12
2023-08-03T18:00	18724	72	-50.8	-81.5	179	12
2023-08-03T18:00	18745	72	-50.9	-81.1	178	12
2023-08-03T18:00	18767	71	-51.1	-81.2	178	12
2023-08-03T18:00	18789	71	-51.3	-81.4	177	12
2023-08-03T18:00	18811	71	-51.5	-81.5	176	12
2023-08-03T18:00	18833	71	-51.7	-81.7	176	12
2023-08-03T18:00	18859	70	-51.8	-81.3	176	13
2023-08-03T18:00	18879	70	-52.1	-81.5	176	13
2023-08-03T18:00	18900	70	-52.3	-81.7	177	13
2023-08-03T18:00	18922	70	-52.4	-81.8	178	13
2023-08-03T18:00	18944	69	-52.6	-81.9	179	13
2023-08-03T18:00	18966	69	-52.7	-82.0	180	13
2023-08-03T18:00	18986	69	-52.9	-82.1	181	13
2023-08-03T18:00	19008	69	-53.0	-82.2	181	13
2023-08-03T18:00	19027	69	-53.2	-82.0	181	13
2023-08-03T18:00	19049	68	-53.4	-82.1	181	13
2023-08-03T18:00	19070	68	-53.6	-82.3	181	13
2023-08-03T18:00	19092	68	-53.8	-82.4	181	13
2023-08-03T18:00	19113	68	-53.9	-82.5	182	13
2023-08-03T18:00	19136	67	-54.1	-82.6	183	13
2023-08-03T18:00	19156	67	-54.3	-82.8	184	13
2023-08-03T18:00	19177	67	-54.4	-82.9	186	13
2023-08-03T18:00	19199	67	-54.6	-83.0	187	12
2023-08-03T18:00	19221	67	-54.7	-82.7	188	12
2023-08-03T18:00	19242	66	-54.8	-82.8	189	12
2023-08-03T18:00	19262	66	-55.0	-82.9	189	12
2023-08-03T18:00	19285	66	-55.1	-83.0	190	13
2023-08-03T18:00	19305	66	-55.2	-83.5	192	13
2023-08-03T18:00	19326	65	-55.3	-83.6	193	14
2023-08-03T18:00	19346	65	-55.1	-83.4	196	14
2023-08-03T18:00	19370	65	-54.7	-83.5	198	14
2023-08-03T18:00	19394	65	-54.4	-83.3	200	14
2023-08-03T18:00	19416	65	-54.1	-83.5	201	14
2023-08-03T18:00	19436	64	-53.6	-83.1	202	14
2023-08-03T18:00	19459	64	-53.4	-83.0	203	13
2023-08-03T18:00	19480	64	-53.4	-83.0	203	12
2023-08-03T18:00	19502	64	-53.3	-82.9	204	12
2023-08-03T18:00	19524	63	-53.0	-82.7	204	11
2023-08-03T18:00	19548	63	-52.8	-82.5	204	10
2023-08-03T18:00	19569	63	-52.7	-82.4	203	10
2023-08-03T18:00	19592	63	-52.6	-82.4	201	10
2023-08-03T18:00	19615	63	-52.4	-82.2	197	10
2023-08-03T18:00	19636	62	-52.1	-82.0	193	10
2023-08-03T18:00	19656	62	-52.2	-82.1	188	10
2023-08-03T18:00	19681	62	-52.3	-82.1	185	11
2023-08-03T18:00	19701	62	-52.2	-82.1	181	11
2023-08-03T18:00	19724	62	-52.1	-82.5	180	11
2023-08-03T18:00	19745	61	-51.6	-82.1	179	11
2023-08-03T18:00	19764	61	-51.4	-81.9	180	11
2023-08-03T18:00	19789	61	-51.5	-82.0	182	11
2023-08-03T18:00	19810	61	-51.6	-82.1	184	12
2023-08-03T18:00	19829	61	-51.8	-81.8	186	12
2023-08-03T18:00	19850	60	-51.9	-81.8	188	12
2023-08-03T18:00	19874	60	-51.9	-81.8	190	12
2023-08-03T18:00	19897	60	-51.9	-81.8	191	12
2023-08-03T18:00	19918	60	-51.9	-82.3	193	12
2023-08-03T18:00	19940	60	-51.6	-82.1	196	12
2023-08-03T18:00	19963	59	-51.5	-82.0	198	12
2023-08-03T18:00	19983	59	-51.2	-81.8	200	12
2023-08-03T18:00	20008	59	-50.9	-82.1	202	11
2023-08-03T18:00	20025	59	-50.6	-81.9	204	11
2023-08-03T18:00	20050	59	-50.4	-81.7	205	11
2023-08-03T18:00	20069	58	-50.3	-81.6	207	10
2023-08-03T18:00	20094	58	-50.4	-81.2	208	10
2023-08-03T18:00	20115	58	-50.5	-81.3	210	10
2023-08-03T18:00	20136	58	-50.6	-81.3	212	10
2023-08-03T18:00	20161	58	-50.8	-81.5	215	10
2023-08-03T18:00	20185	57	-50.9	-81.6	219	9
2023-08-03T18:00	20205	57	-50.9	-81.6	224	8
2023-08-03T18:00	20226	57	-50.7	-81.4	230	7
2023-08-03T18:00	20254	57	-50.6	-81.3	237	6
2023-08-03T18:00	20277	57	-50.3	-81.1	243	5
2023-08-03T18:00	20298	56	-50.2	-81.0	247	4
2023-08-03T18:00	20312	56	-50.2		248	3
2023-08-03T18:00	20337	56	-49.9	-81.3	245	3
2023-08-03T18:00	20358	56	-49.9	-80.8	239	3
2023-08-03T18:00	20384	56	-50.0	-80.9	230	3
2023-08-03T18:00	20400	55	-50.1	-81.0	219	3
2023-08-03T18:00	20425	55	-50.2	-81.0	208	3
2023-08-03T18:00	20442	55	-50.3	-81.1	198	3
2023-08-03T18:00	20463	55	-50.4	-81.2	190	4
2023-08-03T18:00	20489	55	-50.4	-81.2	185	4
2023-08-03T18:00	20506	55	-50.4	-81.2	182	4
2023-08-03T18:00	20529	54	-50.5	-81.3	178	5
2023-08-03T18:00	20552	54	-50.7	-80.9	174	5
2023-08-03T18:00	20574	54	-50.8	-81.0	169	5
2023-08-03T18:00	20591	54	-51.0	-81.2	163	5
2023-08-03T18:00	20614	54	-51.1	-81.2	158	5
2023-08-03T18:00	20636	53	-51.3	-81.4	153	6
2023-08-03T18:00	20659	53	-51.5	-81.5	151	6
2023-08-03T18:00	20681	53	-51.6	-81.6	149	7
2023-08-03T18:00	20704	53	-51.7	-81.7	148	7
2023-08-03T18:00	20728	53	-51.7	-81.7	148	8
2023-08-03T18:00	20745	53	-51.8	-81.8	148	9
2023-08-03T18:00	20766	52	-51.9	-81.8	149	9
2023-08-03T18:00	20791	52	-52.0	-81.5	151	10
2023-08-03T18:00	20808	52	-52.2	-81.6	153	10
2023-08-03T18:00	20835	52	-52.2	-81.6	156	10
2023-08-03T18:00	20853	52	-51.8	-81.3	159	10
2023-08-03T18:00	20870	52	-51.4	-81.5	162	9
2023-08-03T18:00	20891	51	-51.5	-81.5	165	9
2023-08-03T18:00	20912	51	-51.6	-81.6	168	8
2023-08-03T18:00	20931	51	-51.5	-81.5	171	8
2023-08-03T18:00	20953	51	-51.6	-81.6	173	7
2023-08-03T18:00	20976	51	-51.6	-81.6	175	7
2023-08-03T18:00	20995	51	-51.6	-81.6	176	6
2023-08-03T18:00	21018	50	-51.6	-81.6	176	6
2023-08-03T18:00	21042	50	-51.7	-81.7	175	6
2023-08-03T18:00	21059	50	-51.6	-81.6	174	6
2023-08-03T18:00	21082	50	-51.4	-81.5	172	6
2023-08-03T18:00	21103	50	-51.1	-81.2	171	6
2023-08-03T18:00	21123	50	-51.3	-81.4	170	6
2023-08-03T18:00	21148	49	-51.4	-81.5	169	7
2023-08-03T18:00	21163	49	-51.6	-81.6	169	7
2023-08-03T18:00	21189	49	-51.8	-81.8	169	7
2023-08-03T18:00	21210	49	-51.9	-81.8	169	8
2023-08-03T18:00	21226	49	-52.0	-81.9	171	8
2023-08-03T18:00	21254	49	-52.1	-82.0	172	9
2023-08-03T18:00	21272	48	-52.1	-82.0	174	9
2023-08-03T18:00	21293	48	-52.1	-82.0	176	9
2023-08-03T18:00	21316	48	-52.2	-82.1	177	9
2023-08-03T18:00	21339	48	-52.2	-82.1	178	9
2023-08-03T18:00	21363	48	-52.0	-81.9	180	9
2023-08-03T18:00	21381	48	-52.0	-82.4	181	8
2023-08-03T18:00	21406	48	-51.9	-82.3	182	8
2023-08-03T18:00	21429	47	-51.9	-82.3	184	7
2023-08-03T18:00	21450	47	-51.8	-82.2	186	7
2023-08-03T18:00	21471	47	-51.9	-82.3	188	6
2023-08-03T18:00	21496	47	-52.0	-81.9	190	6
2023-08-03T18:00	21519	47	-52.1	-82.0	192	6
2023-08-03T18:00	21544	47	-52.2	-82.1	193	6
2023-08-03T18:00	21565	46	-52.4	-82.2	192	5
2023-08-03T18:00	21587	46	-52.6	-82.4	190	5
2023-08-03T18:00	21613	46	-52.6	-82.4	186	5
2023-08-03T18:00	21637	46	-52.6	-82.4	182	4
2023-08-03T18:00	21655	46	-52.4	-82.2	179	4
2023-08-03T18:00	21680	46	-52.4	-82.2	177	4
2023-08-03T18:00	21705	45	-52.5	-82.3	174	4
2023-08-03T18:00	21725	45	-52.5	-82.3	170	3
2023-08-03T18:00	21747	45	-52.5	-82.8	167	3
2023-08-03T18:00	21773	45	-52.5	-82.8	164	4
2023-08-03T18:00	21795	45	-52.3	-82.6	163	4
2023-08-03T18:00	21821	45	-51.9	-82.3	163	4
2023-08-03T18:00	21838	44	-51.6	-82.1	163	5
2023-08-03T18:00	21865	44	-51.5	-82.0	163	5
2023-08-03T18:00	21889	44	-51.5	-82.0	162	6
2023-08-03T18:00	21911	44	-51.7	-82.2	161	6
2023-08-03T18:00	21933	44	-51.8	-82.2	159	6
2023-08-03T18:00	21956	44	-51.9	-82.3	159	6
2023-08-03T18:00	21977	43	-51.7	-82.2	159	6
2023-08-03T18:00	22004	43	-51.7	-82.2	161	6
2023-08-03T18:00	22027	43	-51.6	-82.1	163	6
2023-08-03T18:00	22048	43	-51.7	-82.2	165	6
2023-08-03T18:00	22075	43	-51.8	-82.2	165	6
2023-08-03T18:00	22094	43	-51.9	-82.3	165	6
2023-08-03T18:00	22120	43	-52.0	-82.4	163	6
2023-08-03T18:00	22144	42	-51.9	-82.3	161	5
2023-08-03T18:00	22170	42	-51.7	-82.2	159	5
2023-08-03T18:00	22187	42	-51.4	-82.5	157	5
2023-08-03T18:00	22211	42	-51.2	-82.3	157	5
2023-08-03T18:00	22236	42	-50.9	-82.1	159	5
2023-08-03T18:00	22260	42	-50.7		162	5
2023-08-03T18:00	22278	42	-50.5	-81.8	166	5
2023-08-03T18:00	22301	41	-50.4	-81.7	170	5
2023-08-03T18:00	22325	41	-50.3	-81.6	174	4
2023-08-03T18:00	22344	41	-50.4	-81.7	176	4
2023-08-03T18:00	22373	41	-50.4	-81.7	175	4
2023-08-03T18:00	22390	41	-50.4	-81.7	171	3
2023-08-03T18:00	22418	41	-50.4	-81.7	162	3
2023-08-03T18:00	22442	41	-50.2		149	2
2023-08-03T18:00	22461	40	-50.1	-81.5	131	2
2023-08-03T18:00	22486	40	-50.2		114	2
2023-08-03T18:00	22509	40	-50.3	-81.6	100	3
2023-08-03T18:00	22535	40	-50.4	-81.7	92	3
2023-08-03T18:00	22557	40	-50.5	-81.3	88	4
2023-08-03T18:00	22586	40	-50.5	-81.3	88	5
2023-08-03T18:00	22608	40	-50.6	-81.9	90	5
2023-08-03T18:00	22627	39	-50.6	-81.9	93	6
2023-08-03T18:00	22650	39	-50.5	-81.8	96	6
2023-08-03T18:00	22673	39	-50.3	-81.6	101	6
2023-08-03T18:00	22699	39	-50.1	-81.5	106	6
2023-08-03T18:00	22721	39	-50.0	-81.4	112	6
2023-08-03T18:00	22745	39	-50.2		119	5
2023-08-03T18:00	22767	39	-50.3	-81.6	126	5
2023-08-03T18:00	22794	38	-50.4	-81.2	133	5
2023-08-03T18:00	22810	38	-50.5	-81.3	141	5
2023-08-03T18:00	22834	38	-50.7	-81.4	149	5
2023-08-03T18:00	22859	38	-50.9	-81.6	157	5
2023-08-03T18:00	22884	38	-51.0	-81.6	165	5
2023-08-03T18:00	22906	38	-51.1	-81.7	173	5
2023-08-03T18:00	22931	38	-51.3	-81.9	181	5
2023-08-03T18:00	22949	37	-51.3	-81.9	188	4
2023-08-03T18:00	22976	37	-51.3	-81.9	195	4
2023-08-03T18:00	22998	37	-51.2	-81.8	203	3
2023-08-03T18:00	23019	37	-51.0	-81.6	213	2
2023-08-03T18:00	23046	37	-50.6	-81.9	227	2
2023-08-03T18:00	23061	37	-50.4	-81.7	249	1
2023-08-03T18:00	23091	37	-50.2		278	1
2023-08-03T18:00	23113	37	-50.1	-81.5	305	1
2023-08-03T18:00	23138	36	-50.2		329	2
2023-08-03T18:00	23161	36	-50.3	-81.6	348	2
2023-08-03T18:00	23186	36	-50.4	-81.7	3	3
2023-08-03T18:00	23212	36	-50.5	-81.3	15	3
2023-08-03T18:00	23235	36	-50.4	-81.7	24	4
2023-08-03T18:00	23258	36	-50.1	-81.5	32	5
2023-08-03T18:00	23280	36	-50.0	-81.4	39	5
2023-08-03T18:00	23308	35	-50.0	-81.4	46	6
2023-08-03T18:00	23331	35	-50.0	-81.4	52	6
2023-08-03T18:00	23361	35	-50.1	-81.5	58	6
2023-08-03T18:00	23382	35	-50.2		65	6
2023-08-03T18:00	23404	35	-50.3	-81.6	72	6
2023-08-03T18:00	23432	35	-50.2		80	6
2023-08-03T18:00	23456	35	-50.3	-81.6	87	7
2023-08-03T18:00	23481	35	-50.3	-81.6	94	7
2023-08-03T18:00	23508	34	-50.3	-81.6	101	7
2023-08-03T18:00	23533	34	-50.3	-81.6	108	8
2023-08-03T18:00	23552	34	-50.4	-81.7	115	8
2023-08-03T18:00	23581	34	-50.4	-81.7	121	8
2023-08-03T18:00	23607	34	-50.4	-81.7	127	8
2023-08-03T18:00	23631	34	-50.4	-81.7	133	8
2023-08-03T18:00	23652	34	-50.3	-81.6	138	8
2023-08-03T18:00	23685	34	-50.2		144	7
2023-08-03T18:00	23706	33	-50.1	-81.5	149	7
2023-08-03T18:00	23730	33	-50.0	-81.4	155	7
2023-08-03T18:00	23762	33	-50.0	-81.4	160	7
2023-08-03T18:00	23781	33	-50.2		164	7
2023-08-03T18:00	23809	33	-50.3	-81.6	167	7
2023-08-03T18:00	23835	33	-50.4	-81.7	168	6
2023-08-03T18:00	23859	33	-50.4	-81.7	168	6
2023-08-03T18:00	23887	32	-50.2		166	5
2023-08-03T18:00	23907	32	-50.0	-81.4	162	5
2023-08-03T18:00	23935	32	-49.8	-81.3	157	4
2023-08-03T18:00	23959	32	-49.5	-81.6	150	4
2023-08-03T18:00	23984	32	-49.5	-81.6	142	4
2023-08-03T18:00	24014	32	-49.5	-81.6	133	4
2023-08-03T18:00	24040	32	-49.3	-81.5	125	4
2023-08-03T18:00	24068	32	-49.1	-81.3	119	4
2023-08-03T18:00	24094	31	-49.0	-81.3	116	4
2023-08-03T18:00	24121	31	-49.0	-81.3	114	4
2023-08-03T18:00	24145	31	-49.0	-81.3	114	4
2023-08-03T18:00	24172	31	-48.9	-81.2	114	5
2023-08-03T18:00	24199	31	-48.8		114	5
2023-08-03T18:00	24225	31	-48.8		114	5
2023-08-03T18:00	24246	31	-48.8		113	5
2023-08-03T18:00	24271	31	-48.8		112	5
2023-08-03T18:00	24303	30	-48.9	-81.2	110	5
2023-08-03T18:00	24329	30	-48.9	-81.2	107	5
2023-08-03T18:00	24358	30	-48.8		104	4
2023-08-03T18:00	24380	30	-48.7	-81.0	102	4
2023-08-03T18:00	24402	30	-48.7	-81.0	100	4
2023-08-03T18:00	24431	30	-48.7	-81.0	99	4
2023-08-03T18:00	24461	30	-48.7	-81.0	100	3
2023-08-03T18:00	24484	30	-48.7	-81.0	103	3
2023-08-03T18:00	24510	30	-48.7	-81.0	108	3
2023-08-03T18:00	24540	29	-48.8	-80.5	114	3
2023-08-03T18:00	24558	29	-48.9	-80.6	121	3
2023-08-03T18:00	24589	29	-49.1	-80.8	127	3
2023-08-03T18:00	24604	29	-49.2	-80.8	133	4
2023-08-03T18:00	24647	29	-49.1	-80.8	136	4
2023-08-03T18:00	24673	29	-49.0	-80.7	138	4
2023-08-03T18:00	24695	29	-49.1	-80.8	138	4
2023-08-03T18:00	24715	29	-49.1	-81.3	135	4
2023-08-03T18:00	24745	28	-49.0	-81.3	130	3
2023-08-03T18:00	24772	28	-49.0	-81.3	119	3
2023-08-03T18:00	24798	28	-49.0	-81.3	104	3
2023-08-03T18:00	24820	28	-49.0	-81.3	90	4
2023-08-03T18:00	24846	28	-48.9	-81.2	81	4
2023-08-03T18:00	24875	28	-48.8		77	5
2023-08-03T18:00	24896	28	-48.8		76	6
2023-08-03T18:00	24926	28	-48.8		76	7
2023-08-03T18:00	24950	28	-48.7	-81.0	77	8
2023-08-03T18:00	24976	27	-48.5	-80.9	77	8
2023-08-03T18:00	25005	27	-48.6	-81.0	77	8
2023-08-03T18:00	25027	27	-48.7	-81.0	76	8
2023-08-03T18:00	25054	27	-48.8		75	7
2023-08-03T18:00	25084	27	-48.8		73	7
2023-08-03T18:00	25108	27	-48.8		71	6
2023-08-03T18:00	25133	27	-48.8		68	5
2023-08-03T18:00	25159	27	-48.8		67	5
2023-08-03T18:00	25184	27	-48.6	-81.0	67	5
2023-08-03T18:00	25209	27	-48.5	-80.9	70	5
2023-08-03T18:00	25237	26	-48.4	-80.8	74	6
2023-08-03T18:00	25259	26	-48.4	-80.8	77	7
2023-08-03T18:00	25289	26	-48.4	-80.8	80	7
2023-08-03T18:00	25306	26	-48.5	-80.9	83	8
2023-08-03T18:00	25338	26	-48.5	-80.9	86	8
2023-08-03T18:00	25363	26	-48.6	-81.0	88	9
2023-08-03T18:00	25386	26	-48.5	-80.9	89	9
2023-08-03T18:00	25410	26	-48.3	-80.7	90	9
2023-08-03T18:00	25433	26	-48.1	-80.6	91	10
2023-08-03T18:00	25456	26	-48.0	-80.5	91	10
2023-08-03T18:00	25492	25	-47.9	-80.4	92	11
2023-08-03T18:00	25519	25	-47.7	-80.3	94	11
2023-08-03T18:00	25541	25	-47.6	-80.2	95	12
2023-08-03T18:00	25567	25	-47.6	-80.2	98	12
2023-08-03T18:00	25589	25	-47.6	-80.2	100	12
2023-08-03T18:00	25618	25	-47.7	-80.3	103	12
2023-08-03T18:00	25644	25	-47.8	-80.4	106	11
2023-08-03T18:00	25671	25	-47.8	-80.4	110	11
2023-08-03T18:00	25694	25	-47.8	-80.4	113	11
2023-08-03T18:00	25727	25	-47.8	-80.4	117	11
2023-08-03T18:00	25763	24	-47.9	-80.4	121	11
2023-08-03T18:00	25776	24	-48.0	-80.5	124	11
2023-08-03T18:00	25812	24	-48.2	-80.7	127	11
2023-08-03T18:00	25837	24	-48.4	-80.8	130	11
2023-08-03T18:00	25862	24	-48.4	-80.8	133	10
2023-08-03T18:00	25898	24	-48.6	-81.0	136	10
2023-08-03T18:00	25928	24	-48.5	-80.9	139	9
2023-08-03T18:00	25951	24	-48.3	-80.7	141	9
2023-08-03T18:00	25973	24	-48.3	-80.7	143	8
2023-08-03T18:00	26013	24	-48.4	-80.8	144	7
2023-08-03T18:00	26042	23	-48.4	-80.8	145	6
2023-08-03T18:00	26063	23	-48.5	-80.9	145	5
2023-08-03T18:00	26093	23	-48.5	-80.9	142	4
2023-08-03T18:00	26114	23	-48.3	-80.7	135	4
2023-08-03T18:00	26150	23	-48.0	-81.2	127	4
2023-08-03T18:00	26178	23	-47.7	-80.9	119	4
2023-08-03T18:00	26199	23	-47.3	-80.6	112	4
2023-08-03T18:00	26228	23	-47.2	-80.6	108	4
2023-08-03T18:00	26257	23	-47.2	-80.6	105	4
2023-08-03T18:00	26284	23	-47.3	-80.6	102	4
2023-08-03T18:00	26316	22	-47.2	-80.6	99	4
2023-08-03T18:00	26349	22	-47.2	-80.6	95	4
2023-08-03T18:00	26374	22	-47.1	-80.5	91	4
2023-08-03T18:00	26407	22	-47.1	-80.5	87	4
2023-08-03T18:00	26429	22	-47.1	-80.5	83	4
2023-08-03T18:00	26457	22	-47.0	-80.4	79	4
2023-08-03T18:00	26493	22	-47.1	-80.5	78	4
2023-08-03T18:00	26511	22	-47.2	-80.6	79	4
2023-08-03T18:00	26541	22	-47.3	-80.0	82	4
2023-08-03T18:00	26568	22	-47.4	-80.1	86	4
2023-08-03T18:00	26604	22	-47.6	-80.2	92	4
2023-08-03T18:00	26630	21	-47.6	-80.2	98	4
2023-08-03T18:00	26651	21	-47.7	-80.3	104	4
2023-08-03T18:00	26679	21	-47.8	-80.4	108	4
2023-08-03T18:00	26708	21	-47.7	-80.3	111	4
2023-08-03T18:00	26734	21	-47.6	-80.2	111	4
2023-08-03T18:00	26765	21	-47.6	-80.9	109	3
2023-08-03T18:00	26793	21	-47.6	-80.9	103	3
2023-08-03T18:00	26819	21	-47.5	-80.8	96	3
2023-08-03T18:00	26842	21	-47.3	-80.6	87	4
2023-08-03T18:00	26868	21	-47.2	-80.6	79	4
2023-08-03T18:00	26897	21	-47.0	-80.4	74	4
2023-08-03T18:00	26923	20	-47.0	-80.4	71	5
2023-08-03T18:00	26952	20	-47.0	-80.4	69	5
2023-08-03T18:00	26972	20	-46.9	-80.4	68	6
2023-08-03T18:00	27000	20	-46.9	-80.4	67	6
2023-08-03T18:00	27031	20	-46.8	-80.3	68	6
2023-08-03T18:00	27057	20	-46.7	-80.2	70	6
2023-08-03T18:00	27087	20	-46.6	-80.1	73	6
2023-08-03T18:00	27115	20	-46.3	-79.9	77	6
2023-08-03T18:00	27140	20	-46.2	-79.8	79	6
2023-08-03T18:00	27164	20	-46.1	-80.5	80	6
2023-08-03T18:00	27187	20	-46.1	-80.5	79	7
2023-08-03T18:00	27222	20	-45.9	-80.3	77	7
2023-08-03T18:00	27246	20	-45.6	-80.1	77	7
2023-08-03T18:00	27269	19	-45.3	-79.9	77	7
2023-08-03T18:00	27299	19	-45.0	-79.7	80	8
2023-08-03T18:00	27330	19	-44.9	-79.6	82	8
2023-08-03T18:00	27353	19	-45.0	-79.7	85	8
2023-08-03T18:00	27384	19	-45.0	-79.7	87	8
2023-08-03T18:00	27400	19	-45.0	-79.7	88	8
2023-08-03T18:00	27441	19	-45.1	-79.8	88	8
2023-08-03T18:00	27470	19	-45.0	-79.7	87	8
2023-08-03T18:00	27489	19	-44.8	-79.6	87	8
2023-08-03T18:00	27516	19	-44.6	-79.4	87	8
2023-08-03T18:00	27553	19	-44.5	-79.3	89	8
2023-08-03T18:00	27580	19	-44.3	-79.2	91	7
2023-08-03T18:00	27606	18	-44.2	-79.1	92	7
2023-08-03T18:00	27632	18	-44.2	-79.1	94	6
2023-08-03T18:00	27674	18	-44.2	-79.1	94	5
2023-08-03T18:00	27686	18	-44.2	-79.1	91	4
2023-08-03T18:00	27722	18	-44.1	-79.0	84	4
2023-08-03T18:00	27758	18	-44.0	-79.0	71	3
2023-08-03T18:00	27773	18	-43.8	-78.8	55	3
2023-08-03T18:00	27803	18	-43.6	-78.7	41	3
2023-08-03T18:00	27831	18	-43.5	-78.6	34	4
2023-08-03T18:00	27862	18	-43.3	-78.5	32	4
2023-08-03T18:00	27884	18	-43.3	-78.5	35	5
2023-08-03T18:00	27916	18	-43.3	-78.5	39	5
2023-08-03T18:00	27943	18	-43.2	-78.4	43	6
2023-08-03T18:00	27978	18	-43.2	-78.4	46	7
2023-08-03T18:00	28006	17	-43.3	-78.5	48	7
2023-08-03T18:00	28023	17	-43.2	-78.4	48	8
2023-08-03T18:00	28064	17	-43.2	-78.4	48	8
2023-08-03T18:00	28094	17	-43.3	-78.5	47	9
2023-08-03T18:00	28125	17	-43.4	-78.5	46	9
2023-08-03T18:00	28150	17	-43.4	-78.5	45	10
2023-08-03T18:00	28174	17	-43.4	-78.5	44	10
2023-08-03T18:00	28198	17	-43.5	-78.6	43	10
2023-08-03T18:00	28239	17	-43.6	-78.7	42	10
2023-08-03T18:00	28268	17	-43.7	-78.8	41	10
2023-08-03T18:00	28299	17	-43.7	-78.8	41	10
2023-08-03T18:00	28326	17	-43.7	-78.8	40	10
2023-08-03T18:00	28344	17	-43.8	-78.8	41	11
2023-08-03T18:00	28384	16	-43.7	-78.8	42	11
2023-08-03T18:00	28405	16	-43.6	-78.7	45	11
2023-08-03T18:00	28432	16	-43.7	-78.8	47	11
2023-08-03T18:00	28472	16	-43.8	-78.8	50	11
2023-08-03T18:00	28498	16	-43.9	-78.9	52	11
2023-08-03T18:00	28520	16	-44.1	-79.0	54	11
2023-08-03T18:00	28547	16	-44.3	-79.2	56	10
2023-08-03T18:00	28585	16	-44.4	-79.3	57	10
2023-08-03T18:00	28615	16	-44.4	-79.3	58	10
2023-08-03T18:00	28636	16	-44.6	-79.4	60	10
2023-08-03T18:00	28663	16	-44.7	-79.5	61	9
2023-08-03T18:00	28688	16	-44.8	-79.6	63	9
2023-08-03T18:00	28714	16	-44.8	-79.6	65	9
2023-08-03T18:00	28746	16	-44.7	-79.5	67	9
2023-08-03T18:00	28772	16	-44.7	-79.5	69	9
2023-08-03T18:00	28802	15	-44.7	-79.5	72	8
2023-08-03T18:00	28822	15	-44.6	-79.4	74	8
2023-08-03T18:00	28860	15	-44.7	-79.5	76	8
2023-08-03T18:00	28880	15	-44.8	-79.6	78	8
2023-08-03T18:00	28920	15	-44.8	-79.6	78	8
2023-08-03T18:00	28928	15	-44.9	-79.6	79	9
2023-08-03T18:00	28955	15	-45.0	-79.7	79	9
2023-08-03T18:00	28998	15	-45.1	-79.8	79	9
2023-08-03T18:00	29013	15	-45.2	-79.8	80	10
2023-08-03T18:00	29055	15	-45.1	-79.8	81	10
2023-08-03T18:00	29076	15	-45.0	-79.7	81	10
2023-08-03T18:00	29096	15	-45.0	-79.7	81	10
2023-08-03T18:00	29137	15	-44.9	-79.6	80	10
2023-08-03T18:00	29162	15	-44.9	-79.6	80	10
2023-08-03T18:00	29177	15	-44.8	-79.6	80	10
2023-08-03T18:00	29210	15	-44.8	-79.6	80	10
2023-08-03T18:00	29243	15	-44.7	-79.5	81	10
2023-08-03T18:00	29270	14	-44.6	-79.4	81	11
2023-08-03T18:00	29301	14	-44.5	-79.3	81	11
2023-08-03T18:00	29318	14	-44.6	-79.4	81	11
2023-08-03T18:00	29353	14	-44.6	-79.4	82	11
2023-08-03T18:00	29387	14	-44.7	-79.5	82	10
2023-08-03T18:00	29406	14	-44.8	-79.6	82	10
2023-08-03T18:00	29439	14	-44.9	-79.6	83	10
2023-08-03T18:00	29462	14	-44.9	-79.6	82	9
2023-08-03T18:00	29492	14	-44.9	-79.6	82	9
2023-08-03T18:00	29521	14	-44.9	-79.6	80	8
2023-08-03T18:00	29545	14	-44.9	-79.6	78	8
2023-08-03T18:00	29589	14	-44.8	-79.6	75	8
2023-08-03T18:00	29616	14	-44.8	-79.6	70	8
2023-08-03T18:00	29635	14	-44.7	-79.5	65	8
2023-08-03T18:00	29669	14	-44.5	-79.3	59	8
2023-08-03T18:00	29702	14	-44.3	-79.2	55	8
2023-08-03T18:00	29742	13	-44.3	-79.2	52	8
2023-08-03T18:00	29770	13	-44.3	-80.0	52	9
2023-08-03T18:00	29795	13	-44.0	-79.8	53	9
2023-08-03T18:00	29827	13	-43.6	-79.5	56	9
2023-08-03T18:00	29850	13	-43.5	-79.4	60	9
2023-08-03T18:00	29873	13	-43.7	-79.6	63	10
2023-08-03T18:00	29916	13	-43.8	-79.6	68	10
2023-08-03T18:00	29939	13	-43.7	-79.6	72	10
2023-08-03T18:00	29970	13	-43.7	-79.6	77	11
2023-08-03T18:00	29997	13	-43.5	-79.4	81	11
2023-08-03T18:00	30031	13	-43.4	-79.4	84	12
2023-08-03T18:00	30054	13	-43.5	-79.4	85	12
2023-08-03T18:00	30074	13	-43.4	-79.4	86	13
2023-08-03T18:00	30123	13	-43.3	-79.3	86	13
2023-08-03T18:00	30141	13	-43.4	-79.4	85	13
2023-08-03T18:00	30165	13	-43.4	-79.4	84	14
2023-08-03T18:00	30202	13	-43.3	-79.3	82	14
2023-08-03T18:00	30221	13	-43.2	-79.2	80	14
2023-08-03T18:00	30260	12	-43.1		78	14
2023-08-03T18:00	30286	12	-43.1		77	14
2023-08-03T18:00	30322	12	-43.2	-79.2	77	14
2023-08-03T18:00	30349	12	-43.3	-79.3	78	14
2023-08-03T18:00	30362	12	-43.3	-78.5	80	14
2023-08-03T18:00	30405	12	-43.1	-78.3	83	14
2023-08-03T18:00	30429	12	-43.3	-78.5	86	14
2023-08-03T18:00	30462	12	-43.4	-78.5	89	14
2023-08-03T18:00	30484	12	-43.7	-78.8	92	14
2023-08-03T18:00	30496	12	-43.7	-78.8	95	14
2023-08-03T18:00	30536	12	-43.6	-78.7	97	14
2023-08-03T18:00	30561	12	-43.6	-78.7	99	13
2023-08-03T18:00	30591	12	-43.5	-78.6	101	13
2023-08-03T18:00	30628	12	-43.4	-79.4	102	13
2023-08-03T18:00	30647	12	-43.2	-79.2	103	13
2023-08-03T18:00	30673	12	-43.1		102	12
2023-08-03T18:00	30705	12	-43.1		102	12
2023-08-03T18:00	30744	12	-43.0	-79.1	102	12
2023-08-03T18:00	30769	12	-42.9	-79.0	102	11
2023-08-03T18:00	30779	12	-42.9	-79.0	101	11
2023-08-03T18:00	30812	11	-42.7	-78.9	101	11
2023-08-03T18:00	30855	11	-42.6	-78.8	99	10
2023-08-03T18:00	30868	11	-42.4	-78.7	98	10
2023-08-03T18:00	30903	11	-42.2	-78.5	95	10
2023-08-03T18:00	30931	11	-41.9	-78.3	93	10
2023-08-03T18:00	30980	11	-41.8	-78.2	92	10
2023-08-03T18:00	31006	11	-41.8	-79.2	91	10
2023-08-03T18:00	31025	11	-41.5	-79.0	89	10
2023-08-03T18:00	31060	11	-41.1	-78.7	88	10
2023-08-03T18:00	31076	11	-41.0	-78.6	86	11
2023-08-03T18:00	31103	11	-40.7	-78.4	83	11
2023-08-03T18:00	31122	11	-40.5	-78.3	81	11
2023-08-03T18:00	31180	11	-40.4	-78.2	79	11
2023-08-03T18:00	31199	11	-40.1	-78.0	78	12
2023-08-03T18:00	31228	11	-39.9	-77.8	78	12
2023-08-03T18:00	31253	11	-39.5	-77.6	79	12
2023-08-03T18:00	31290	11	-39.3	-77.4	81	12
2023-08-03T18:00	31318	11	-39.4	-77.5	83	12
2023-08-03T18:00	31357	11	-39.6	-77.6	84	11
2023-08-03T18:00	31369	11	-39.8	-77.8	85	11
2023-08-03T18:00	31404	11	-40.1	-78.0	84	11
2023-08-03T18:00	31436	10	-40.4	-77.2	84	11
2023-08-03T18:00	31464	10	-40.4	-77.2	84	11
2023-08-03T18:00	31493	10	-40.2	-78.0	85	11
2023-08-03T18:00	31530	10	-40.1	-78.0	86	11
2023-08-03T18:00	31562	10	-39.9	-77.8	86	11
2023-08-03T18:00	31587	10	-39.8	-77.8	86	12
2023-08-03T18:00	31631	10	-39.5	-77.6	86	12
2023-08-03T18:00	31660	10	-39.5	-77.6	87	12
2023-08-03T18:00	31679	10	-39.1	-77.3	90	12
2023-08-03T18:00	31710	10	-38.7	-77.0	93	12
2023-08-03T18:00	31743	10	-38.7	-77.0	97	12
2023-08-03T18:00	31774	10	-38.8	-77.1	101	12
2023-08-03T18:00	31811	10	-39.0	-77.2	103	12
2023-08-03T18:00	31827	10	-39.1	-77.3	103	12
2023-08-03T18:00	31860	10	-39.1	-77.3	103	11
2023-08-03T18:00	31891	10	-39.0	-77.2	101	11
2023-08-03T18:00	31921	10	-38.9	-77.1	100	11
2023-08-03T18:00	31947	10	-38.8	-77.1	99	10
2023-08-03T18:00	31988	10	-38.7	-77.0	98	10
2023-08-03T18:00	32012	10	-38.7	-77.0	97	10
2023-08-03T18:00	32044	10	-38.6	-76.9	96	10
2023-08-03T18:00	32080	10	-38.5	-76.9	95	10
2023-08-03T18:00	32103	10	-38.3	-76.7	96	10
2023-08-03T18:00	32130	9	-38.3	-76.7	98	10
2023-08-03T18:00	32159	9	-38.2	-76.6	101	10
2023-08-03T18:00	32182	9	-38.2	-76.6	105	10
2023-08-03T18:00	32227	9	-38.2	-76.6	108	10
2023-08-03T18:00	32244	9	-38.3	-76.7	110	10
2023-08-03T18:00	32270	9	-38.4	-76.8	110	10
2023-08-03T18:00	32301	9	-38.4	-76.8	108	10
2023-08-03T18:00	32337	9	-38.3	-76.7	104	10
2023-08-03T18:00	32338	9	-38.0	-76.5	100	9
2023-08-03T18:00	32378	9	-37.7	-76.3	97	9
2023-08-03T18:00	32413	9	-37.7	-77.4	95	10
2023-08-03T18:00	32453	9	-37.6	-77.4	96	10
2023-08-03T18:00	32471	9	-37.6	-77.4	98	10
2023-08-03T18:00	32492	9	-37.5	-77.3	101	10
2023-08-03T18:00	32528	9	-37.4	-77.2	102	10
2023-08-03T18:00	32569	9	-37.4	-77.2	102	10
2023-08-03T18:00	32593	9	-37.3	-77.2	100	11
2023-08-03T18:00	32604	9	-36.9	-76.9	98	11
2023-08-03T18:00	32633	9	-36.6	-76.7	95	12
2023-08-03T18:00	32667	9	-36.3	-76.5	92	12
2023-08-03T18:00	32680	9	-36.1	-76.3	90	12
2023-08-03T18:00	32720	9	-36.0	-76.3	90	12
2023-08-03T18:00	32756	9	-35.7	-76.1	90	13
2023-08-03T18:00	32761	9	-35.5	-75.9	91	13
2023-08-03T18:00	32815	9	-35.4	-75.8	92	13
2023-08-03T18:00	32835	9	-35.4	-75.8	94	13
2023-08-03T18:00	32848	9	-35.5	-75.9	96	13
2023-08-03T18:00	32875	8	-35.6	-76.0	97	13
2023-08-03T18:00	32932	8	-35.6	-76.0	99	12
2023-08-03T18:00	32936	8	-35.6	-76.0	101	12
2023-08-03T18:00	32976	8	-35.6	-76.0	102	11
2023-08-03T18:00	32993	8	-35.7	-76.1	102	11
2023-08-03T18:00	33036	8	-35.7	-76.1	102	10
2023-08-03T18:00	33066	8	-35.7	-76.1	102	10
2023-08-03T18:00	33087	8	-35.6	-76.0	101	10
2023-08-03T18:00	33129	8	-35.5	-75.9	98	10
2023-08-03T18:00	33138	8	-35.4	-75.8	95	10
2023-08-03T18:00	33179	8	-35.3	-75.8	91	11
2023-08-03T18:00	33212	8	-34.9	-75.5	87	12
2023-08-03T18:00	33260	8	-34.5	-75.2	84	13
2023-08-03T18:00	33272	8	-34.5	-75.2	82	15
2023-08-03T18:00	33302	8	-34.5	-75.2	80	16
2023-08-03T18:00	33353	8	-34.4	-75.2	80	17
2023-08-03T18:00	33356	8	-34.5	-75.2	80	17
2023-08-03T18:00	33412	8	-34.5	-75.2	81	18
2023-08-03T18:00	33449	8	-34.4	-75.2	82	17
2023-08-03T18:00	33473	8	-34.4	-75.2	84	17
2023-08-03T18:00	33488	8	-34.5	-75.2	87	16
2023-08-03T18:00	33520	8	-34.5	-75.2	89	15
2023-08-03T18:00	33570	8	-34.6	-75.3	93	15
2023-08-03T18:00	33585	8	-34.6	-75.3	96	14
2023-08-03T18:00	33631	8	-34.7	-75.4	98	14
2023-08-03T18:00	33659	8	-34.7	-75.4	100	14
2023-08-03T18:00	33699	8	-34.7	-75.4	101	14
2023-08-03T18:00	33733	8	-34.7	-75.4	100	14
2023-08-03T18:00	33765	8	-34.6	-75.3	100	15
2023-08-03T18:00	33803	7	-34.5	-75.2	100	16
2023-08-03T18:00	33814	7	-34.5	-75.2	100	17
2023-08-03T18:00	33857	7	-34.6	-75.3	100	17
2023-08-03T18:00	33918	7	-34.7	-75.4	101	17
2023-08-03T18:00	33932	7	-34.9	-75.5	102	17
2023-08-03T18:00	33963	7	-35.1	-75.6	103	17
2023-08-03T18:00	33998	7	-35.1	-75.6	104	16
2023-08-03T18:00	34006	7	-34.9	-75.5	105	16
2023-08-03T18:00	34048	7	-34.8	-75.4	105	15
2023-08-03T18:00	34084	7	-34.8	-75.4	104	15
2023-08-03T18:00	34101	7	-34.7	-75.4	104	15
2023-08-03T18:00	34139	7	-34.4	-75.2	104	16
2023-08-03T18:00	34172	7	-34.3	-75.1	104	16
2023-08-03T18:00	34187	7	-34.3	-75.1	104	16
2023-08-03T18:00	34224	7	-34.3	-75.1	105	16
2023-08-03T18:00	34262	7	-34.1	-75.0	107	15
2023-08-03T18:00	34276	7	-34.0	-74.9	109	15
2023-08-03T18:00	34287	7	-34.0	-74.9	112	14
2023-08-03T18:00	34310	7	-33.9	-74.8	114	14
2023-08-03T18:00	34348	7	-33.7	-74.7	116	13
2023-08-03T18:00	34382	7	-33.6	-74.6	117	13
2023-08-03T18:00	34426	7	-33.3	-74.4	117	12
2023-08-03T18:00	34438	7	-33.1	-74.3	116	12
2023-08-03T18:00	34472	7	-33.0	-74.2	114	12
2023-08-03T18:00	34496	7	-33.0	-74.2	111	11
2023-08-03T18:00	34548	7	-32.8	-74.1	102	11
2023-08-03T18:00	34577	7	-32.8	-74.1	97	10
2023-08-03T18:00	34581	7	-32.7	-74.0	92	10
2023-08-03T18:00	34632	7	-32.5	-73.8	89	11
2023-08-03T18:00	34644	7	-32.3	-73.7	86	11
2023-08-03T18:00	34685	7	-32.1	-73.6	84	11
2023-08-03T18:00	34689	7	-32.1	-73.6	83	11
2023-08-03T18:00	34732	7	-32.2	-73.6	82	11
2023-08-03T18:00	34780	7	-32.3	-73.7	80	11
2023-08-03T18:00	34822	6	-32.4	-73.8	78	11
2023-08-03T18:00	34836	6	-32.4	-73.8	79	11
2023-08-03T18:00	34872	6	-32.4	-73.8	80	11
2023-08-03T18:00	34906	6	-32.3	-73.7	82	12
2023-08-03T18:00	34912	6	-32.2	-73.6	84	12
2023-08-03T18:00	34959	6	-32.3	-73.7	87	12
2023-08-03T18:00	34965	6	-32.3	-73.7	91	12
2023-08-03T18:00	35022	6	-32.2	-73.6	94	13
2023-08-03T18:00	35060	6	-32.2	-73.6	97	13
2023-08-03T18:00	35069	6	-32.2	-73.6	99	13
2023-08-03T18:00	35097	6	-32.3	-73.7	102	14
2023-08-03T18:00	35147	6	-32.4	-73.8	104	14
2023-08-03T18:00	35180	6	-32.6	-73.9	107	14
2023-08-03T18:00	35201	6	-32.6	-73.9	109	14
2023-08-03T18:00	35277	6	-32.6	-73.9	110	14
2023-08-03T18:00	35284	6	-32.6	-73.9	111	13
2023-08-03T18:00	35321	6	-32.6	-73.9	110	12
2023-08-03T18:00	35325	6	-32.4	-73.8	108	11
2023-08-03T18:00	35376	6	-32.2	-73.6	106	10
2023-08-03T18:00	35414	6	-32.0	-73.5	104	9
2023-08-03T18:00	35419	6	-32.0	-73.5	102	9
2023-08-03T18:00	35447	6	-31.9	-73.4	102	8
2023-08-04T00:00	113	992	16.6	13.9	222	4
2023-08-04T00:00	145	988	16.8	13.4	222	6
2023-08-04T00:00	170	985	17.3	13.0	223	8
2023-08-04T00:00	195	982	18.0	12.7	225	10
2023-08-04T00:00	224	979	18.0	12.7	227	11
2023-08-04T00:00	250	976	18.0	12.7	230	12
2023-08-04T00:00	279	973	17.8	12.5	233	12
2023-08-04T00:00	305	970	17.7	12.6	236	12
2023-08-04T00:00	329	967	17.5	12.5	238	13
2023-08-04T00:00	353	964	17.3	12.6	239	13
2023-08-04T00:00	381	961	17.0	12.4	241	13
2023-08-04T00:00	408	958	16.8	12.4	243	13
2023-08-04T00:00	434	955	16.5	12.3	246	13
2023-08-04T00:00	459	953	16.3	12.2	248	13
2023-08-04T00:00	479	950	16.2	12.4	250	14
2023-08-04T00:00	506	947	15.9	12.3	252	14
2023-08-04T00:00	536	944	15.7	12.1	254	15
2023-08-04T00:00	561	941	15.7	12.0	256	15
2023-08-04T00:00	585	939	15.6	12.0	257	16
2023-08-04T00:00	614	935	15.3	11.9	258	16
2023-08-04T00:00	644	932	15.1	11.6	259	16
2023-08-04T00:00	674	929	14.8	11.5	260	16
2023-08-04T00:00	700	926	14.6	11.6	261	15
2023-08-04T00:00	726	923	14.4	11.6	262	15
2023-08-04T00:00	749	920	14.2	11.4	262	14
2023-08-04T00:00	774	918	14.0	11.2	263	14
2023-08-04T00:00	803	915	13.8	11.1	263	13
2023-08-04T00:00	831	912	13.6	10.9	263	13
2023-08-04T00:00	855	909	13.5	11.0	263	13
2023-08-04T00:00	879	906	13.3	10.8	263	13
2023-08-04T00:00	906	904	13.1	10.8	264	13
2023-08-04T00:00	935	900	12.8	10.8	265	13
2023-08-04T00:00	965	897	12.5	10.6	266	13
2023-08-04T00:00	991	894	12.3	10.6	267	13
2023-08-04T00:00	1018	892	12.0	10.5	268	13
2023-08-04T00:00	1042	889	11.9	10.5	269	13
2023-08-04T00:00	1067	886	11.6	10.3	269	13
2023-08-04T00:00	1098	883	11.5	10.1	269	13
2023-08-04T00:00	1125	880	11.4	9.8	269	13
2023-08-04T00:00	1152	878	11.2	9.7	269	12
2023-08-04T00:00	1180	875	11.0	9.5	268	12
2023-08-04T00:00	1204	872	10.8	9.6	267	12
2023-08-04T00:00	1228	870	10.6	9.5	266	12
2023-08-04T00:00	1254	867	10.3	9.3	265	12
2023-08-04T00:00	1281	864	10.1	9.2	265	12
2023-08-04T00:00	1307	861	10.0	9.0	265	12
2023-08-04T00:00	1337	858	9.8	8.7	266	12
2023-08-04T00:00	1365	855	9.7	8.5	266	12
2023-08-04T00:00	1395	852	9.5	8.4	266	12
2023-08-04T00:00	1426	849	9.4	8.0	265	12
2023-08-04T00:00	1455	846	9.3	7.4	265	12
2023-08-04T00:00	1482	843	9.2	7.4	263	12
2023-08-04T00:00	1517	840	8.9	7.3	262	12
2023-08-04T00:00	1546	837	8.8	7.0	260	12
2023-08-04T00:00	1578	834	8.6	6.7	259	12
2023-08-04T00:00	1604	831	8.4	6.8	258	12
2023-08-04T00:00	1633	828	8.1	6.7	258	13
2023-08-04T00:00	1664	825	7.8	6.6	257	13
2023-08-04T00:00	1698	822	7.5	6.4	258	13
2023-08-04T00:00	1734	818	7.3	6.5	258	12
2023-08-04T00:00	1759	815	7.1	6.4	258	12
2023-08-04T00:00	1790	813	6.9	6.1	258	12
2023-08-04T00:00	1817	810	6.8	5.8	259	11
2023-08-04T00:00	1843	807	6.6	5.4	259	11
2023-08-04T00:00	1872	804	6.5	5.5	259	11
2023-08-04T00:00	1905	801	6.3	5.1	258	12
2023-08-04T00:00	1932	799	6.1	5.0	257	12
2023-08-04T00:00	1963	796	5.9	4.9	256	12
2023-08-04T00:00	1989	793	5.6	4.9	256	12
2023-08-04T00:00	2020	790	5.5	4.8	255	12
2023-08-04T00:00	2045	788	5.4	4.6	254	12
2023-08-04T00:00	2074	785	5.3	4.1	254	12
2023-08-04T00:00	2104	782	5.2	3.9	253	12
2023-08-04T00:00	2130	779	5.1	3.7	253	12
2023-08-04T00:00	2164	776	4.9	3.4	253	12
2023-08-04T00:00	2193	774	4.7	3.1	254	12
2023-08-04T00:00	2218	771	4.6	3.1	256	12
2023-08-04T00:00	2241	769	4.5	2.8	257	12
2023-08-04T00:00	2268	766	4.3		259	12
2023-08-04T00:00	2296	764	4.2	2.2	259	12
2023-08-04T00:00	2321	762	4.1	2.0	260	13
2023-08-04T00:00	2347	759	3.9	1.9	260	13
2023-08-04T00:00	2376	756	3.6	1.9	260	12
2023-08-04T00:00	2409	753	3.3	1.7	258	12
2023-08-04T00:00	2438	751	3.2	1.0	256	12
2023-08-04T00:00	2465	748	3.1	0.9	252	12
2023-08-04T00:00	2492	746	2.9	0.7	249	12
2023-08-04T00:00	2515	744	2.7	0.8	246	12
2023-08-04T00:00	2534	742	2.7	0.8	245	13
2023-08-04T00:00	2556	740	2.7	0.6	245	13
2023-08-04T00:00	2586	737	2.5	0.1	247	13
2023-08-04T00:00	2617	734	2.4	-0.2	249	13
2023-08-04T00:00	2646	732	2.2	-0.3	251	13
2023-08-04T00:00	2673	729	2.2	-0.8	252	13
2023-08-04T00:00	2701	727	2.2	-1.1	252	13
2023-08-04T00:00	2727	724	2.0	-1.4	251	14
2023-08-04T00:00	2755	722	1.8	-1.4	251	14
2023-08-04T00:00	2780	720	1.5	-1.4	251	14
2023-08-04T00:00	2807	717	1.3	-1.4	250	14
2023-08-04T00:00	2836	715	1.1	-1.8	250	14
2023-08-04T00:00	2862	712	1.2	-3.9	250	14
2023-08-04T00:00	2893	710	1.1	-3.5	249	14
2023-08-04T00:00	2920	707	1.0	-3.0	248	13
2023-08-04T00:00	2946	705	0.8	-2.8	247	13
2023-08-04T00:00	2973	703	0.7	-2.6	247	13
2023-08-04T00:00	3002	700	0.5	-2.8	247	14
2023-08-04T00:00	3028	698	0.4	-3.1	246	14
2023-08-04T00:00	3061	695	0.2	-3.1	246	14
2023-08-04T00:00	3088	693	0.0	-3.5	246	14
2023-08-04T00:00	3114	690	-0.1	-3.4	246	14
2023-08-04T00:00	3139	688	-0.3	-3.4	246	14
2023-08-04T00:00	3161	686	-0.5	-3.4	247	14
2023-08-04T00:00	3185	684	-0.7	-3.6	249	13
2023-08-04T00:00	3216	682	-0.8	-4.0	251	13
2023-08-04T00:00	3243	679	-0.8	-5.3	254	13
2023-08-04T00:00	3266	677	-0.8	-8.2	256	12
2023-08-04T00:00	3290	675	-0.5	-9.6	257	13
2023-08-04T00:00	3314	673	-0.6	-8.2	256	13
2023-08-04T00:00	3341	671	-0.6	-8.4	256	13
2023-08-04T00:00	3371	669	-0.5	-8.9	255	14
2023-08-04T00:00	3399	666	-0.6	-9.7	254	14
2023-08-04T00:00	3423	664	-0.8	-9.9	253	14
2023-08-04T00:00	3454	662	-1.0	-9.8	253	14
2023-08-04T00:00	3487	659	-1.3	-10.1	252	15
2023-08-04T00:00	3516	657	-1.5	-10.4	251	15
2023-08-04T00:00	3541	654	-1.7	-10.2	250	15
2023-08-04T00:00	3564	653	-1.9	-9.6	250	16
2023-08-04T00:00	3587	650	-2.0		250	16
2023-08-04T00:00	3626	648	-2.1	-8.4	251	16
2023-08-04T00:00	3655	645	-2.3	-8.3	252	16
2023-08-04T00:00	3682	643	-2.5	-8.0	253	16
2023-08-04T00:00	3712	640	-2.7	-8.8	254	16
2023-08-04T00:00	3743	638	-2.8	-9.1	254	16
2023-08-04T00:00	3774	636	-2.9	-10.4	254	17
2023-08-04T00:00	3802	633	-2.9	-12.7	253	17
2023-08-04T00:00	3828	631	-3.2	-9.5	253	17
2023-08-04T00:00	3854	629	-3.4	-8.9	252	17
2023-08-04T00:00	3879	627	-3.6	-8.3	252	17
2023-08-04T00:00	3910	625	-3.6	-9.1	251	17
2023-08-04T00:00	3939	622	-3.9	-9.5	252	17
2023-08-04T00:00	3965	620	-4.1	-10.5	253	16
2023-08-04T00:00	3992	618	-4.2	-11.6	253	16
2023-08-04T00:00	4012	617	-4.3	-12.1	253	16
2023-08-04T00:00	4038	614	-4.4	-14.7	252	16
2023-08-04T00:00	4072	612	-4.3	-17.5	251	16
2023-08-04T00:00	4097	610	-4.4	-19.7	251	16
2023-08-04T00:00	4123	608	-4.3	-16.8	252	16
2023-08-04T00:00	4148	606	-4.4	-24.1	253	17
2023-08-04T00:00	4170	604	-4.6	-24.7	254	17
2023-08-04T00:00	4196	602	-4.8	-24.7	254	17
2023-08-04T00:00	4229	600	-4.9	-23.0	253	16
2023-08-04T00:00	4261	597	-5.2	-22.7	252	16
2023-08-04T00:00	4290	595	-5.5	-22.4	251	16
2023-08-04T00:00	4319	593	-5.7	-21.8	251	16
2023-08-04T00:00	4349	591	-6.0	-19.6	251	16
2023-08-04T00:00	4373	589	-6.2	-17.1	251	16
2023-08-04T00:00	4399	587	-6.5	-12.0	250	17
2023-08-04T00:00	4424	585	-6.6	-12.3	249	17
2023-08-04T00:00	4452	583	-6.8	-14.4	248	17
2023-08-04T00:00	4483	581	-7.0	-14.2	247	16
2023-08-04T00:00	4525	578	-7.4	-13.8	246	16
2023-08-04T00:00	4547	576	-7.5	-14.4	247	16
2023-08-04T00:00	4581	573	-7.6	-14.1	249	16
2023-08-04T00:00	4619	571	-7.8	-14.2	250	16
2023-08-04T00:00	4644	569	-8.0	-14.5	251	17
2023-08-04T00:00	4667	567	-8.2	-14.5	251	18
2023-08-04T00:00	4694	565	-8.4	-15.2	250	18
2023-08-04T00:00	4723	563	-8.6	-15.4	249	18
2023-08-04T00:00	4752	561	-8.8	-15.2	248	18
2023-08-04T00:00	4783	559	-9.0		248	17
2023-08-04T00:00	4814	557	-9.2	-16.2	248	17
2023-08-04T00:00	4846	554	-9.5	-15.6	248	16
2023-08-04T00:00	4867	553	-9.7	-15.9	247	16
2023-08-04T00:00	4890	551	-9.9	-15.9	247	17
2023-08-04T00:00	4917	549	-10.0	-16.1	246	17
2023-08-04T00:00	4949	547	-10.3	-16.8	246	18
2023-08-04T00:00	4981	545	-10.6	-16.9	247	19
2023-08-04T00:00	5014	542	-10.9	-17.1	248	19
2023-08-04T00:00	5037	541	-11.1	-17.8	249	19
2023-08-04T00:00	5064	539	-11.3	-18.1	249	20
2023-08-04T00:00	5094	537	-11.5	-19.6	249	20
2023-08-04T00:00	5123	535	-11.7	-17.2	249	20
2023-08-04T00:00	5148	533	-11.9	-17.2	249	20
2023-08-04T00:00	5171	531	-12.0	-17.4	248	20
2023-08-04T00:00	5193	530	-12.2	-17.4	247	20
2023-08-04T00:00	5221	528	-12.4	-17.5	246	20
2023-08-04T00:00	5241	526	-12.6	-17.0	245	19
2023-08-04T00:00	5268	525	-12.8	-17.0	243	18
2023-08-04T00:00	5293	523	-13.0	-17.4	242	18
2023-08-04T00:00	5311	521	-13.2	-17.6	242	18
2023-08-04T00:00	5342	520	-13.5	-17.8	242	18
2023-08-04T00:00	5367	518	-13.6	-18.1	243	18
2023-08-04T00:00	5403	516	-13.5	-20.1	243	18
2023-08-04T00:00	5424	514	-13.7	-20.6	244	18
2023-08-04T00:00	5449	512	-13.8	-20.9	245	19
2023-08-04T00:00	5472	511	-13.9	-21.7	247	19
2023-08-04T00:00	5508	508	-14.1		249	19
2023-08-04T00:00	5534	507	-14.3	-20.9	250	19
2023-08-04T00:00	5553	505	-14.5	-21.1	250	19
2023-08-04T00:00	5574	504	-14.6	-21.1	250	19
2023-08-04T00:00	5597	502	-14.9	-21.2	249	19
2023-08-04T00:00	5622	501	-15.1	-20.5	247	19
2023-08-04T00:00	5647	499	-15.3	-20.6	246	19
2023-08-04T00:00	5675	497	-15.6	-20.0	245	19
2023-08-04T00:00	5707	495	-15.9	-19.6	244	19
2023-08-04T00:00	5722	494	-16.0	-19.7	244	19
2023-08-04T00:00	5744	493	-16.2	-20.1	245	19
2023-08-04T00:00	5768	491	-16.4	-20.3	246	19
2023-08-04T00:00	5797	489	-16.7	-20.6	248	18
2023-08-04T00:00	5821	488	-16.9	-20.5	248	18
2023-08-04T00:00	5844	486	-17.1	-20.6	248	17
2023-08-04T00:00	5876	484	-17.4	-20.6	246	17
2023-08-04T00:00	5903	482	-17.6	-20.6	244	17
2023-08-04T00:00	5927	481	-17.7	-20.9	242	18
2023-08-04T00:00	5959	479	-17.9	-21.6	240	18
2023-08-04T00:00	5993	477	-18.2	-21.9	238	19
2023-08-04T00:00	6015	475	-18.3	-22.0	237	19
2023-08-04T00:00	6034	474	-18.3	-22.6	236	19
2023-08-04T00:00	6052	473	-18.4	-22.8	235	19
2023-08-04T00:00	6080	471	-18.7	-23.1	235	18
2023-08-04T00:00	6100	470	-18.7	-23.4	235	17
2023-08-04T00:00	6124	468	-18.9	-23.6	236	17
2023-08-04T00:00	6144	467	-19.1	-23.6	238	17
2023-08-04T00:00	6176	465	-19.4		241	17
2023-08-04T00:00	6202	463	-19.6	-23.8	243	17
2023-08-04T00:00	6221	462	-19.8	-23.9	245	17
2023-08-04T00:00	6243	461	-19.9	-24.4	246	16
2023-08-04T00:00	6265	459	-20.1	-24.3	245	16
2023-08-04T00:00	6289	458	-20.3	-24.5	244	16
2023-08-04T00:00	6324	456	-20.6	-24.5	244	17
2023-08-04T00:00	6352	454	-20.8	-24.9	244	17
2023-08-04T00:00	6373	453	-21.1	-24.8	246	17
2023-08-04T00:00	6406	451	-21.3	-25.0	247	17
2023-08-04T00:00	6435	449	-21.6	-25.2	248	17
2023-08-04T00:00	6452	448	-21.7	-25.3	247	17
2023-08-04T00:00	6473	447	-21.8	-25.7	245	17
2023-08-04T00:00	6498	445	-22.0	-25.9	242	17
2023-08-04T00:00	6518	444	-22.2	-26.0	239	17
2023-08-04T00:00	6547	442	-22.4	-26.2	236	17
2023-08-04T00:00	6575	441	-22.7	-26.3	233	17
2023-08-04T00:00	6599	439	-22.8	-26.7	231	18
2023-08-04T00:00	6627	437	-22.9	-29.0	230	18
2023-08-04T00:00	6656	436	-23.1	-29.4	229	18
2023-08-04T00:00	6674	435	-23.2	-29.8	229	19
2023-08-04T00:00	6696	433	-23.2	-28.6	229	19
2023-08-04T00:00	6720	432	-23.4	-28.3	230	19
2023-08-04T00:00	6749	430	-23.5	-29.0	230	18
2023-08-04T00:00	6778	428	-23.6	-31.4	229	18
2023-08-04T00:00	6811	427	-23.8	-31.7	228	18
2023-08-04T00:00	6841	425	-24.1	-32.0	228	18
2023-08-04T00:00	6874	423	-24.3	-31.4	228	18
2023-08-04T00:00	6904	421	-24.6	-31.2	229	18
2023-08-04T00:00	6926	420	-24.8	-31.2	230	18
2023-08-04T00:00	6951	418	-25.0	-31.2	232	18
2023-08-04T00:00	6986	417	-25.3	-31.3	233	17
2023-08-04T00:00	7009	415	-25.5	-33.0	233	17
2023-08-04T00:00	7034	414	-25.5	-34.2	234	17
2023-08-04T00:00	7061	412	-25.7	-33.2	233	16
2023-08-04T00:00	7097	410	-26.0	-34.4	233	16
2023-08-04T00:00	7136	408	-26.3	-34.9	233	15
2023-08-04T00:00	7156	407	-26.4	-34.8	234	15
2023-08-04T00:00	7177	405	-26.6	-34.8	235	15
2023-08-04T00:00	7205	404	-26.7	-35.5	238	15
2023-08-04T00:00	7237	402	-27.0	-36.1	241	15
2023-08-04T00:00	7273	400	-27.2	-36.7	243	15
2023-08-04T00:00	7298	399	-27.3	-36.4	244	15
2023-08-04T00:00	7330	397	-27.6	-36.4	244	15
2023-08-04T00:00	7363	395	-27.9	-36.3	243	15
2023-08-04T00:00	7395	394	-28.2	-36.4	242	15
2023-08-04T00:00	7425	392	-28.5	-36.5	241	16
2023-08-04T00:00	7445	391	-28.7	-36.5	241	16
2023-08-04T00:00	7469	389	-28.9	-36.4	242	16
2023-08-04T00:00	7498	388	-29.2	-36.7	243	16
2023-08-04T00:00	7531	386	-29.5	-37.4	243	17
2023-08-04T00:00	7563	384	-29.8	-37.5	243	17
2023-08-04T00:00	7590	383	-30.0	-38.4	242	17
2023-08-04T00:00	7627	381	-30.4	-37.8	241	17
2023-08-04T00:00	7656	379	-30.7	-38.8	239	18
2023-08-04T00:00	7674	378	-30.8	-39.6	237	18
2023-08-04T00:00	7693	377	-31.0	-39.6	237	18
2023-08-04T00:00	7716	376	-31.2	-40.1	237	18
2023-08-04T00:00	7736	375	-31.3	-40.7	237	18
2023-08-04T00:00	7758	374	-31.5	-41.5	238	18
2023-08-04T00:00	7786	372	-31.7	-41.6	240	18
2023-08-04T00:00	7819	371	-31.9	-41.9	240	19
2023-08-04T00:00	7853	369	-32.2	-42.5	240	19
2023-08-04T00:00	7876	368	-32.4	-43.3	240	19
2023-08-04T00:00	7900	366	-32.6	-44.1	239	19
2023-08-04T00:00	7925	365	-32.7	-44.6	237	18
2023-08-04T00:00	7957	364	-32.9	-45.3	236	18
2023-08-04T00:00	7984	362	-33.1	-45.8	234	17
2023-08-04T00:00	8020	360	-33.3	-46.1	233	17
2023-08-04T00:00	8049	359	-33.5	-46.3	232	17
2023-08-04T00:00	8073	358	-33.7	-46.4	232	17
2023-08-04T00:00	8091	357	-33.9	-46.6	233	17
2023-08-04T00:00	8113	356	-34.1	-46.6	235	17
2023-08-04T00:00	8134	354	-34.3	-46.6	235	17
2023-08-04T00:00	8161	353	-34.5	-46.7	236	16
2023-08-04T00:00	8197	351	-34.8	-46.8	237	16
2023-08-04T00:00	8229	350	-35.1	-46.9	238	16
2023-08-04T00:00	8263	348	-35.3	-47.6	239	16
2023-08-04T00:00	8288	347	-35.5	-48.0	239	17
2023-08-04T00:00	8310	346	-35.7	-48.0	237	17
2023-08-04T00:00	8336	344	-35.9	-48.4	236	17
2023-08-04T00:00	8367	343	-36.1	-49.6	234	18
2023-08-04T00:00	8391	342	-36.2	-50.2	232	19
2023-08-04T00:00	8414	340	-36.4	-51.1	231	19
2023-08-04T00:00	8445	339	-36.6	-52.4	230	20
2023-08-04T00:00	8477	338	-36.7	-54.1	230	21
2023-08-04T00:00	8495	337	-36.7	-54.7	230	21
2023-08-04T00:00	8514	336	-36.7	-54.5	230	21
2023-08-04T00:00	8537	334	-36.9	-54.5	232	21
2023-08-04T00:00	8563	333	-36.9	-55.2	233	22
2023-08-04T00:00	8592	332	-37.1	-55.7	235	22
2023-08-04T00:00	8629	330	-37.2	-56.4	235	23
2023-08-04T00:00	8661	329	-37.3	-56.8	235	23
2023-08-04T00:00	8686	327	-37.3	-57.2	234	24
2023-08-04T00:00	8708	326	-37.3	-57.4	234	24
2023-08-04T00:00	8730	325	-37.5	-57.4	234	24
2023-08-04T00:00	8750	324	-37.6	-57.5	234	24
2023-08-04T00:00	8772	323	-37.8	-57.7	233	25
2023-08-04T00:00	8803	322	-38.0	-57.8	233	25
2023-08-04T00:00	8835	320	-38.2	-58.3	234	26
2023-08-04T00:00	8861	319	-38.3	-58.5	234	27
2023-08-04T00:00	8885	318	-38.4	-58.7	235	27
2023-08-04T00:00	8903	317	-38.6	-58.8	235	28
2023-08-04T00:00	8923	316	-38.6	-58.8	236	28
2023-08-04T00:00	8943	315	-38.7	-58.8	236	28
2023-08-04T00:00	8966	314	-38.8	-58.8	235	28
2023-08-04T00:00	8990	313	-39.0	-58.9	235	29
2023-08-04T00:00	9012	312	-39.1	-59.1	234	29
2023-08-04T00:00	9041	311	-39.1	-59.1	233	30
2023-08-04T00:00	9083	309	-39.3	-59.3	233	30
2023-08-04T00:00	9117	308	-39.6	-59.4	232	31
2023-08-04T00:00	9136	307	-39.6	-59.5	232	32
2023-08-04T00:00	9167	305	-39.6	-60.0	233	33
2023-08-04T00:00	9203	304	-39.1	-61.2	234	35
2023-08-04T00:00	9232	302	-39.3	-61.7	235	36
2023-08-04T00:00	9266	301	-39.3	-61.9	236	37
2023-08-04T00:00	9290	300	-39.2	-62.5	236	39
2023-08-04T00:00	9333	298	-39.1	-62.8	236	40
2023-08-04T00:00	9354	297	-39.2	-62.9	236	41
2023-08-04T00:00	9385	296	-39.2	-62.7	235	42
2023-08-04T00:00	9416	294	-39.4	-62.8	234	43
2023-08-04T00:00	9447	293	-39.7	-62.9	233	43
2023-08-04T00:00	9473	292	-40.0	-63.0	232	44
2023-08-04T00:00	9504	291	-39.9		231	45
2023-08-04T00:00	9520	290	-39.6	-62.9	231	45
2023-08-04T00:00	9538	289	-39.3	-63.2	231	46
2023-08-04T00:00	9553	288	-39.1	-63.4	231	46
2023-08-04T00:00	9569	288	-38.9	-63.5	231	46
2023-08-04T00:00	9586	287	-38.6	-63.6	231	46
2023-08-04T00:00	9602	286	-38.6	-63.7	232	46
2023-08-04T00:00	9617	286	-38.6	-63.9	232	45
2023-08-04T00:00	9633	285	-38.4	-63.9	232	45
2023-08-04T00:00	9648	285	-38.3	-64.0	232	45
2023-08-04T00:00	9664	284	-38.1	-64.2	232	45
2023-08-04T00:00	9679	283	-38.1	-64.6	233	45
2023-08-04T00:00	9699	282	-38.2	-64.7	233	46
2023-08-04T00:00	9717	282	-38.2	-64.7	233	47
2023-08-04T00:00	9745	281	-37.8	-64.6	232	48
2023-08-04T00:00	9777	279	-37.9	-64.5	232	49
2023-08-04T00:00	9791	279	-38.0	-64.3	232	49
2023-08-04T00:00	9810	278	-38.1	-64.0	232	49
2023-08-04T00:00	9832	277	-38.2	-63.9	232	48
2023-08-04T00:00	9853	276	-38.2	-63.8	231	48
2023-08-04T00:00	9871	275	-38.3	-64.0	231	47
2023-08-04T00:00	9891	275	-38.5	-64.2	231	46
2023-08-04T00:00	9907	274	-38.6	-64.4	231	46
2023-08-04T00:00	9928	273	-38.7	-64.7	231	46
2023-08-04T00:00	9950	272	-38.8	-65.2	230	46
2023-08-04T00:00	9970	271	-38.9	-65.2	230	46
2023-08-04T00:00	9990	271	-38.9	-65.2	229	45
2023-08-04T00:00	10012	270	-38.8	-65.0	229	45
2023-08-04T00:00	10033	269	-38.8	-65.2	230	45
2023-08-04T00:00	10054	268	-38.8	-65.4	230	44
2023-08-04T00:00	10073	267	-38.3	-65.0	231	44
2023-08-04T00:00	10093	267	-38.2	-64.9	231	44
2023-08-04T00:00	10115	266	-38.2	-64.9	232	44
2023-08-04T00:00	10135	265	-38.2	-64.9	232	45
2023-08-04T00:00	10157	264	-38.1	-64.8	232	45
2023-08-04T00:00	10176	263	-38.2	-64.7	233	45
2023-08-04T00:00	10198	263	-38.2	-64.7	233	46
2023-08-04T00:00	10224	262	-38.2	-64.7	233	46
2023-08-04T00:00	10247	261	-38.3	-64.8	234	46
2023-08-04T00:00	10274	260	-37.8	-65.0	234	46
2023-08-04T00:00	10299	259	-37.8	-65.4	234	46
2023-08-04T00:00	10328	258	-37.6	-65.7	234	45
2023-08-04T00:00	10355	257	-37.6	-66.2	233	45
2023-08-04T00:00	10380	256	-37.3	-66.5	233	44
2023-08-04T00:00	10404	255	-37.2	-66.8	232	44
2023-08-04T00:00	10427	254	-37.1	-67.3	231	43
2023-08-04T00:00	10455	253	-37.1	-67.3	230	42
2023-08-04T00:00	10480	252	-36.9	-67.8	230	41
2023-08-04T00:00	10507	251	-36.8	-68.1	229	41
2023-08-04T00:00	10532	250	-36.6	-68.3	228	40
2023-08-04T00:00	10563	249	-36.6	-68.3	228	41
2023-08-04T00:00	10593	248	-36.6	-68.7	227	41
2023-08-04T00:00	10616	247	-36.6	-68.7	227	41
2023-08-04T00:00	10641	246	-36.4	-68.9	227	42
2023-08-04T00:00	10662	246	-36.5	-69.0	228	42
2023-08-04T00:00	10682	245	-36.6	-69.1	228	43
2023-08-04T00:00	10705	244	-36.8	-69.2	228	43
2023-08-04T00:00	10727	243	-36.8	-69.2	228	43
2023-08-04T00:00	10748	243	-36.8	-69.2	228	43
2023-08-04T00:00	10772	242	-36.9	-69.3	228	43
2023-08-04T00:00	10794	241	-37.0	-69.4	228	44
2023-08-04T00:00	10816	240	-37.0	-69.4	227	44
2023-08-04T00:00	10839	239	-37.2	-69.5	227	43
2023-08-04T00:00	10860	239	-37.4	-69.7	226	43
2023-08-04T00:00	10882	238	-37.5	-69.8	226	43
2023-08-04T00:00	10905	237	-37.7	-69.9	225	43
2023-08-04T00:00	10932	236	-37.9	-70.0	224	44
2023-08-04T00:00	10962	235	-38.0	-70.1	223	44
2023-08-04T00:00	10991	234	-38.3	-70.3	223	44
2023-08-04T00:00	11016	233	-38.4	-70.4	222	44
2023-08-04T00:00	11037	233	-38.4	-70.4	222	44
2023-08-04T00:00	11064	232	-38.6	-70.2	221	44
2023-08-04T00:00	11097	231	-38.9	-70.4	221	45
2023-08-04T00:00	11127	230	-39.1	-70.5	221	45
2023-08-04T00:00	11159	229	-39.4	-70.4	221	45
2023-08-04T00:00	11177	228	-39.6	-70.5	221	45
2023-08-04T00:00	11195	227	-39.7	-70.2	222	46
2023-08-04T00:00	11214	227	-39.8	-70.3	222	46
2023-08-04T00:00	11235	226	-39.9	-70.4	222	46
2023-08-04T00:00	11254	225	-40.1	-70.2	222	47
2023-08-04T00:00	11274	225	-40.2	-70.3	222	47
2023-08-04T00:00	11291	224	-40.3	-70.4	223	47
2023-08-04T00:00	11312	223	-40.4	-70.4	223	47
2023-08-04T00:00	11331	223	-40.6	-70.6	223	47
2023-08-04T00:00	11348	222	-40.7	-70.3	223	47
2023-08-04T00:00	11369	222	-40.9		224	47
2023-08-04T00:00	11388	221	-41.0	-70.6	224	47
2023-08-04T00:00	11409	220	-41.2	-70.7	225	47
2023-08-04T00:00	11428	220	-41.3	-70.8	225	47
2023-08-04T00:00	11447	219	-41.4	-70.6	226	47
2023-08-04T00:00	11467	218	-41.6	-70.7	226	47
2023-08-04T00:00	11487	218	-41.7	-70.8	227	47
2023-08-04T00:00	11506	217	-41.9	-70.6	227	47
2023-08-04T00:00	11526	216	-42.0	-70.7	228	47
2023-08-04T00:00	11545	216	-42.1	-70.8	229	47
2023-08-04T00:00	11566	215	-42.2	-70.6	229	47
2023-08-04T00:00	11588	215	-42.3	-70.7	230	48
2023-08-04T00:00	11609	214	-42.4	-70.7	230	48
2023-08-04T00:00	11630	213	-42.5	-70.8	231	48
2023-08-04T00:00	11653	212	-42.5	-70.8	232	48
2023-08-04T00:00	11673	212	-42.6	-70.9	233	48
2023-08-04T00:00	11695	211	-42.7	-71.0	233	48
2023-08-04T00:00	11715	210	-42.8	-71.1	234	48
2023-08-04T00:00	11749	210	-42.9	-71.1	235	47
2023-08-04T00:00	11772	209	-42.8	-71.3	236	46
2023-08-04T00:00	11795	208	-42.9	-71.7	237	45
2023-08-04T00:00	11817	207	-42.8	-71.6	237	44
2023-08-04T00:00	11847	206	-42.7	-71.9	238	43
2023-08-04T00:00	11879	206	-42.5	-72.4	239	41
2023-08-04T00:00	11914	204	-42.6	-72.4	240	40
2023-08-04T00:00	11943	204	-42.5	-72.7	241	39
2023-08-04T00:00	11970	203	-42.7	-72.9	241	37
2023-08-04T00:00	12001	202	-42.9	-73.0	242	37
2023-08-04T00:00	12029	201	-43.1	-73.2	242	36
2023-08-04T00:00	12075	200	-43.3	-73.7	243	36
2023-08-04T00:00	12110	199	-43.6	-73.9	243	35
2023-08-04T00:00	12154	197	-44.0	-74.2	242	35
2023-08-04T00:00	12196	196	-43.9	-74.2	242	33
2023-08-04T00:00	12218	195	-44.1	-74.7	242	32
2023-08-04T00:00	12257	194	-43.7	-74.4	242	31
2023-08-04T00:00	12293	193	-43.9	-75.0	242	29
2023-08-04T00:00	12322	192	-43.9	-75.0	241	28
2023-08-04T00:00	12363	191	-44.1	-75.1	240	28
2023-08-04T00:00	12399	190	-44.1	-75.1	239	27
2023-08-04T00:00	12437	189	-44.3	-74.8	236	27
2023-08-04T00:00	12465	188	-44.4	-74.9	234	27
2023-08-04T00:00	12489	188	-44.5	-75.0	231	26
2023-08-04T00:00	12519	187	-44.7	-75.1	229	26
2023-08-04T00:00	12545	186	-44.9	-74.9	227	25
2023-08-04T00:00	12584	185	-45.1	-75.1	226	25
2023-08-04T00:00	12610	184	-45.3	-75.2	226	25
2023-08-04T00:00	12648	183	-45.5	-75.4	225	25
2023-08-04T00:00	12688	182	-45.9	-75.3	225	25
2023-08-04T00:00	12721	181	-46.2	-75.2	224	25
2023-08-04T00:00	12753	180	-46.5	-75.4	222	25
2023-08-04T00:00	12776	180	-46.7	-75.6	221	26
2023-08-04T00:00	12800	179	-47.0	-75.5	220	27
2023-08-04T00:00	12827	178	-47.2	-75.6	220	28
2023-08-04T00:00	12853	178	-47.4	-75.5	220	28
2023-08-04T00:00	12878	177	-47.6	-75.6	220	28
2023-08-04T00:00	12906	176	-47.9	-75.6	221	28
2023-08-04T00:00	12940	175	-48.2	-75.8	221	28
2023-08-04T00:00	12973	175	-48.5	-75.7	220	29
2023-08-04T00:00	12997	174	-48.7	-75.9	220	29
2023-08-04T00:00	13025	173	-49.0	-75.9	219	30
2023-08-04T00:00	13048	172	-49.2	-75.7	218	30
2023-08-04T00:00	13072	172	-49.4	-75.9	218	31
2023-08-04T00:00	13094	171	-49.6	-75.8	218	31
2023-08-04T00:00	13118	171	-49.8	-76.0	218	32
2023-08-04T00:00	13142	170	-50.0	-75.9	218	32
2023-08-04T00:00	13164	169	-50.1	-76.0	218	32
2023-08-04T00:00	13187	169	-50.3	-76.1	218	32
2023-08-04T00:00	13208	168	-50.5	-76.0	218	32
2023-08-04T00:00	13232	168	-50.7	-76.2	218	32
2023-08-04T00:00	13254	167	-50.9	-76.1	218	33
2023-08-04T00:00	13278	167	-51.1	-76.3	218	34
2023-08-04T00:00	13304	166	-51.2	-76.6	219	34
2023-08-04T00:00	13332	165	-51.2	-76.8	219	35
2023-08-04T00:00	13356	165	-51.0	-76.9	220	36
2023-08-04T00:00	13379	164	-50.8	-77.5	220	37
2023-08-04T00:00	13402	163	-50.1	-78.2	221	37
2023-08-04T00:00	13426	163	-49.6	-78.5	221	37
2023-08-04T00:00	13449	162	-49.6	-78.8	222	37
2023-08-04T00:00	13476	162	-49.2	-78.9	223	37
2023-08-04T00:00	13498	161	-49.0	-78.8	224	37
2023-08-04T00:00	13519	160	-49.1	-78.9	225	36
2023-08-04T00:00	13542	160	-49.1	-78.9	226	36
2023-08-04T00:00	13565	159	-49.2	-78.9	227	36
2023-08-04T00:00	13589	159	-49.0	-78.8	228	35
2023-08-04T00:00	13614	158	-49.0	-78.8	229	35
2023-08-04T00:00	13642	158	-49.0	-78.8	230	34
2023-08-04T00:00	13667	157	-49.2	-78.9	231	34
2023-08-04T00:00	13690	156	-49.4	-79.1	231	33
2023-08-04T00:00	13707	156	-49.5	-78.8	232	33
2023-08-04T00:00	13730	155	-49.7	-78.9	232	33
2023-08-04T00:00	13749	155	-49.8	-79.0	232	32
2023-08-04T00:00	13770	154	-49.9	-79.1	233	32
2023-08-04T00:00	13790	154	-50.0		234	31
2023-08-04T00:00	13809	153	-50.1	-79.2	234	31
2023-08-04T00:00	13829	153	-50.1	-79.2	235	31
2023-08-04T00:00	13851	153	-50.2	-79.3	236	30
2023-08-04T00:00	13872	152	-50.1	-79.2	236	30
2023-08-04T00:00	13888	152	-50.0		236	29
2023-08-04T00:00	13911	151	-49.4	-79.1	235	29
2023-08-04T00:00	13928	151	-49.2	-78.9	234	29
2023-08-04T00:00	13943	150	-49.1	-78.9	234	29
2023-08-04T00:00	13963	150	-49.2	-78.9	233	29
2023-08-04T00:00	13982	150	-49.2	-78.9	233	29
2023-08-04T00:00	14000	149	-49.4	-79.1	232	29
2023-08-04T00:00	14017	149	-49.3	-79.4	232	30
2023-08-04T00:00	14035	148	-49.2	-79.4	232	30
2023-08-04T00:00	14051	148	-49.3	-79.4	231	30
2023-08-04T00:00	14073	147	-49.4	-79.5	231	29
2023-08-04T00:00	14092	147	-49.4	-79.5	230	29
2023-08-04T00:00	14112	147	-49.4	-79.5	229	29
2023-08-04T00:00	14135	146	-49.3	-79.9	229	28
2023-08-04T00:00	14156	146	-49.4	-79.5	228	28
2023-08-04T00:00	14177	145	-49.6	-79.7	227	28
2023-08-04T00:00	14198	145	-49.7	-79.7	226	28
2023-08-04T00:00	14219	144	-49.9	-79.9	225	28
2023-08-04T00:00	14240	144	-50.1	-80.0	224	28
2023-08-04T00:00	14259	143	-50.2	-80.1	223	27
2023-08-04T00:00	14279	143	-50.3	-80.2	223	27
2023-08-04T00:00	14300	142	-50.3	-80.2	223	27
2023-08-04T00:00	14319	142	-50.4	-80.3	224	27
2023-08-04T00:00	14340	142	-50.5	-80.3	224	27
2023-08-04T00:00	14360	141	-50.5	-79.9	225	27
2023-08-04T00:00	14381	141	-50.7	-80.1	226	28
2023-08-04T00:00	14402	140	-50.8	-80.1	227	28
2023-08-04T00:00	14426	140	-50.8	-80.1	227	28
2023-08-04T00:00	14448	139	-50.9	-80.2	228	29
2023-08-04T00:00	14469	139	-51.1	-80.4	229	29
2023-08-04T00:00	14496	138	-51.3	-80.5	229	29
2023-08-04T00:00	14519	138	-51.4	-80.6	230	30
2023-08-04T00:00	14541	137	-51.5	-80.7	230	29
2023-08-04T00:00	14564	137	-51.2	-80.5	230	29
2023-08-04T00:00	14587	136	-51.2	-80.5	230	28
2023-08-04T00:00	14610	136	-51.3	-80.9	230	27
2023-08-04T00:00	14629	135	-51.4	-81.0	229	27
2023-08-04T00:00	14654	135	-51.3	-80.9	229	26
2023-08-04T00:00	14678	134	-51.0	-80.7	229	26
2023-08-04T00:00	14701	134	-50.7	-80.9	229	25
2023-08-04T00:00	14725	133	-50.4	-80.7	229	25
2023-08-04T00:00	14746	133	-50.5	-80.8	230	25
2023-08-04T00:00	14768	133	-50.4	-80.7	230	25
2023-08-04T00:00	14794	132	-50.6	-80.9	229	24
2023-08-04T00:00	14818	132	-50.8	-80.6	229	24
2023-08-04T00:00	14840	131	-51.0	-80.7	229	24
2023-08-04T00:00	14862	131	-51.1	-80.8	228	24
2023-08-04T00:00	14887	130	-51.1	-80.8	228	24
2023-08-04T00:00	14909	130	-51.3	-80.9	227	24
2023-08-04T00:00	14933	129	-51.3	-80.9	226	24
2023-08-04T00:00	14957	129	-51.3	-80.9	226	24
2023-08-04T00:00	14979	128	-51.5	-81.1	226	23
2023-08-04T00:00	15001	128	-51.6	-81.2	227	23
2023-08-04T00:00	15025	127	-51.8	-81.3	227	23
2023-08-04T00:00	15049	127	-52.0	-81.1	227	22
2023-08-04T00:00	15072	127	-52.2	-81.2	228	22
2023-08-04T00:00	15094	126	-52.4	-81.4	228	22
2023-08-04T00:00	15113	126	-52.5	-81.4	228	21
2023-08-04T00:00	15138	125	-52.6	-81.5	228	21
2023-08-04T00:00	15160	125	-52.4	-81.4	228	21
2023-08-04T00:00	15182	124	-52.5	-81.4	228	21
2023-08-04T00:00	15202	124	-52.4	-81.8	227	21
2023-08-04T00:00	15227	123	-52.5	-81.8	227	21
2023-08-04T00:00	15250	123	-52.1	-82.0	226	21
2023-08-04T00:00	15273	123	-51.8	-81.8	225	20
2023-08-04T00:00	15292	122	-51.6	-81.6	224	20
2023-08-04T00:00	15316	122	-51.4	-81.5	223	20
2023-08-04T00:00	15338	121	-51.5	-82.0	221	20
2023-08-04T00:00	15359	121	-51.5	-82.0	220	20
2023-08-04T00:00	15381	121	-51.6	-82.1	219	20
2023-08-04T00:00	15403	120	-51.6	-82.1	218	21
2023-08-04T00:00	15426	120	-51.5	-82.0	216	21
2023-08-04T00:00	15446	119	-51.4	-81.9	215	21
2023-08-04T00:00	15470	119	-51.6	-82.1	213	22
2023-08-04T00:00	15491	119	-51.5	-82.0	211	22
2023-08-04T00:00	15514	118	-51.5	-82.0	210	23
2023-08-04T00:00	15540	118	-51.4	-81.9	210	23
2023-08-04T00:00	15563	117	-51.5	-82.0	210	24
2023-08-04T00:00	15584	117	-51.7	-82.2	210	24
2023-08-04T00:00	15607	116	-51.8	-81.8	211	24
2023-08-04T00:00	15628	116	-51.9	-81.8	211	24
2023-08-04T00:00	15649	116	-52.1	-82.0	212	24
2023-08-04T00:00	15671	115	-52.3	-82.1	213	24
2023-08-04T00:00	15695	115	-52.4	-82.2	214	24
2023-08-04T00:00	15716	115	-52.3	-82.1	215	24
2023-08-04T00:00	15735	114	-52.2	-82.1	215	24
2023-08-04T00:00	15760	114	-52.3	-82.6	216	24
2023-08-04T00:00	15783	113	-52.2	-82.5	217	24
2023-08-04T00:00	15805	113	-52.2	-82.5	218	24
2023-08-04T00:00	15826	113	-52.2	-82.5	218	24
2023-08-04T00:00	15849	112	-52.2	-82.5	219	23
2023-08-04T00:00	15876	112	-52.2	-83.1	220	23
2023-08-04T00:00	15901	111	-51.6	-82.6	221	22
2023-08-04T00:00	15929	111	-51.1	-82.2	223	21
2023-08-04T00:00	15956	110	-51.1	-82.2	224	21
2023-08-04T00:00	15983	110	-51.2	-82.3	225	20
2023-08-04T00:00	16006	110	-51.4	-82.5	226	20
2023-08-04T00:00	16031	109	-51.5	-82.5	227	21
2023-08-04T00:00	16052	109	-51.5	-82.5	227	21
2023-08-04T00:00	16077	108	-51.5	-82.5	227	21
2023-08-04T00:00	16102	108	-51.7	-82.7	227	21
2023-08-04T00:00	16126	107	-51.9	-82.3	227	21
2023-08-04T00:00	16154	107	-52.0	-82.9	228	20
2023-08-04T00:00	16181	107	-52.0	-82.9	229	20
2023-08-04T00:00	16208	106	-51.6	-82.6	230	19
2023-08-04T00:00	16233	106	-51.4	-82.5	231	19
2023-08-04T00:00	16257	105	-51.5	-82.5	232	18
2023-08-04T00:00	16283	105	-51.6	-82.6	233	18
2023-08-04T00:00	16307	105	-51.8	-82.8	234	18
2023-08-04T00:00	16332	104	-52.0	-82.9	235	18
2023-08-04T00:00	16357	104	-52.1	-83.0	236	17
2023-08-04T00:00	16383	103	-52.3	-83.1	236	17
2023-08-04T00:00	16410	103	-52.4	-83.2	237	16
2023-08-04T00:00	16437	102	-52.7	-83.4	236	16
2023-08-04T00:00	16461	102	-52.8	-83.5	235	15
2023-08-04T00:00	16487	102	-52.7	-83.4	233	15
2023-08-04T00:00	16509	101	-52.2	-83.1	231	15
2023-08-04T00:00	16534	101	-52.2	-83.1	229	14
2023-08-04T00:00	16560	101	-52.2	-83.1	228	14
2023-08-04T00:00	16582	100	-52.3	-83.1	227	14
2023-08-04T00:00	16607	100	-52.5	-83.3	226	13
2023-08-04T00:00	16632	99	-52.6	-83.3	225	13
2023-08-04T00:00	16655	99	-52.8	-83.5	225	13
2023-08-04T00:00	16680	99	-52.8	-83.5	225	13
2023-08-04T00:00	16703	98	-53.0	-83.6	225	13
2023-08-04T00:00	16725	98	-53.1	-83.7	225	12
2023-08-04T00:00	16747	98	-52.9	-83.6	224	13
2023-08-04T00:00	16770	97	-53.1	-83.2	224	13
2023-08-04T00:00	16794	97	-53.3		223	13
2023-08-04T00:00	16818	97	-53.5	-83.5	222	13
2023-08-04T00:00	16841	96	-53.6	-83.6	221	13
2023-08-04T00:00	16864	96	-53.5	-84.0	219	13
2023-08-04T00:00	16889	96	-53.3	-83.9	217	12
2023-08-04T00:00	16911	95	-53.3	-83.9	215	12
2023-08-04T00:00	16936	95	-53.3	-83.9	212	12
2023-08-04T00:00	16957	95	-53.3	-83.9	209	12
2023-08-04T00:00	16978	94	-53.0	-83.6	206	12
2023-08-04T00:00	17005	94	-53.1	-83.7	203	12
2023-08-04T00:00	17030	93	-53.3	-83.9	199	12
2023-08-04T00:00	17054	93	-52.8	-83.5	196	13
2023-08-04T00:00	17073	93	-52.6	-83.3	195	13
2023-08-04T00:00	17094	93	-52.7	-83.4	193	14
2023-08-04T00:00	17112	92	-52.8	-83.5	192	15
2023-08-04T00:00	17134	92	-52.8	-83.5	191	15
2023-08-04T00:00	17158	92	-53.0	-83.6	191	16
2023-08-04T00:00	17178	91	-53.1	-83.7	190	17
2023-08-04T00:00	17196	91	-53.2	-83.8	190	17
2023-08-04T00:00	17218	91	-53.4	-83.9	191	17
2023-08-04T00:00	17241	90	-53.4	-83.9	192	17
2023-08-04T00:00	17261	90	-53.3	-83.9	193	17
2023-08-04T00:00	17281	90	-53.3	-83.9	195	17
2023-08-04T00:00	17300	90	-53.4	-83.9	196	17
2023-08-04T00:00	17319	89	-53.5	-84.0	198	17
2023-08-04T00:00	17343	89	-53.6	-84.1	199	17
2023-08-04T00:00	17365	89	-53.6	-84.1	200	17
2023-08-04T00:00	17389	88	-53.7	-84.2	201	17
2023-08-04T00:00	17411	88	-53.8	-84.2	202	17
2023-08-04T00:00	17432	88	-53.8	-83.7	203	17
2023-08-04T00:00	17461	87	-53.9	-83.8	204	18
2023-08-04T00:00	17484	87	-54.0	-83.9	205	18
2023-08-04T00:00	17508	87	-54.1	-84.0	205	18
2023-08-04T00:00	17529	86	-54.3	-84.6	205	18
2023-08-04T00:00	17554	86	-54.2	-84.5	205	17
2023-08-04T00:00	17576	86	-53.7	-84.2	204	17
2023-08-04T00:00	17599	86	-53.7	-84.2	204	16
2023-08-04T00:00	17624	85	-53.8	-84.2	204	15
2023-08-04T00:00	17649	85	-53.8	-84.2	205	14
2023-08-04T00:00	17675	85	-53.6	-84.6	205	14
2023-08-04T00:00	17695	84	-53.5	-84.6	205	13
2023-08-04T00:00	17723	84	-53.5	-84.6	206	13
2023-08-04T00:00	17749	84	-53.2	-84.4	206	13
2023-08-04T00:00	17775	83	-52.6	-83.9	206	12
2023-08-04T00:00	17799	83	-52.6	-83.9	206	12
2023-08-04T00:00	17827	83	-52.6	-83.9	205	12
2023-08-04T00:00	17855	82	-52.4	-83.8	205	12
2023-08-04T00:00	17881	82	-52.4	-83.8	205	12
2023-08-04T00:00	17907	82	-52.6	-83.9	205	12
2023-08-04T00:00	17932	81	-52.8	-84.1	205	12
2023-08-04T00:00	17955	81	-53.0	-83.6	206	12
2023-08-04T00:00	17981	81	-53.2	-83.8	207	11
2023-08-04T00:00	18007	80	-53.4	-83.9	208	11
2023-08-04T00:00	18031	80	-53.6	-84.1	210	11
2023-08-04T00:00	18057	80	-53.8	-84.2	212	12
2023-08-04T00:00	18083	79	-54.0	-84.4	214	12
2023-08-04T00:00	18106	79	-54.0	-84.4	216	12
2023-08-04T00:00	18130	79	-53.9	-84.3	218	12
2023-08-04T00:00	18154	78	-53.5	-84.0	219	12
2023-08-04T00:00	18179	78	-53.4	-83.9	221	12
2023-08-04T00:00	18203	78	-53.5	-84.0	222	12
2023-08-04T00:00	18228	78	-53.7	-84.2	224	12
2023-08-04T00:00	18250	77	-53.9	-84.3	226	12
2023-08-04T00:00	18276	77	-53.9	-84.3	228	13
2023-08-04T00:00	18298	77	-53.8	-84.8	231	13
2023-08-04T00:00	18321	76	-53.5	-84.6	232	14
2023-08-04T00:00	18347	76	-53.3	-84.4	234	14
2023-08-04T00:00	18371	76	-53.3	-84.4	235	14
2023-08-04T00:00	18393	76	-53.2	-84.4	236	14
2023-08-04T00:00	18420	75	-53.3	-84.4	237	14
2023-08-04T00:00	18444	75	-53.3	-84.4	237	15
2023-08-04T00:00	18471	75	-53.3	-84.4	237	15
2023-08-04T00:00	18495	74	-53.4	-84.5	236	15
2023-08-04T00:00	18519	74	-53.5	-84.6	235	14
2023-08-04T00:00	18542	74	-53.7	-84.7	233	13
2023-08-04T00:00	18568	74	-53.2	-84.4	232	13
2023-08-04T00:00	18596	73	-52.4	-84.4	231	12
2023-08-04T00:00	18617	73	-52.2	-84.2	231	11
2023-08-04T00:00	18643	73	-51.9	-84.7	233	11
2023-08-04T00:00	18667	72	-50.9	-84.0	235	10
2023-08-04T00:00	18689	72	-50.5	-83.7	237	10
2023-08-04T00:00	18715	72	-50.6	-83.7	239	10
2023-08-04T00:00	18740	72	-50.7	-83.8	241	10
2023-08-04T00:00	18767	71	-50.9	-83.3	243	10
2023-08-04T00:00	18792	71	-51.1	-83.4	245	10
2023-08-04T00:00	18819	71	-51.2	-83.5	246	10
2023-08-04T00:00	18843	71	-51.4	-83.6	249	10
2023-08-04T00:00	18867	70	-51.6	-83.2	250	10
2023-08-04T00:00	18892	70	-51.8	-83.3	252	10
2023-08-04T00:00	18920	70	-52.0	-83.5	252	10
2023-08-04T00:00	18944	69	-52.2	-83.6	251	9
2023-08-04T00:00	18967	69	-52.3	-84.3	249	9
2023-08-04T00:00	18994	69	-51.5	-83.7	245	8
2023-08-04T00:00	19016	69	-51.1	-83.4	240	7
2023-08-04T00:00	19041	68	-51.0	-83.3	233	6
2023-08-04T00:00	19069	68	-50.9	-83.3	226	6
2023-08-04T00:00	19092	68	-51.0	-83.3	219	5
2023-08-04T00:00	19117	68	-51.1	-83.4	212	5
2023-08-04T00:00	19140	67	-51.0	-83.3	205	5
2023-08-04T00:00	19170	67	-51.1	-83.4	200	5
2023-08-04T00:00	19190	67	-51.3	-83.6	195	5
2023-08-04T00:00	19214	67	-51.4	-83.6	193	5
2023-08-04T00:00	19242	66	-51.5	-83.7	192	6
2023-08-04T00:00	19261	66	-51.7	-83.9	192	6
2023-08-04T00:00	19291	66	-51.8	-83.9	192	6
2023-08-04T00:00	19312	66	-51.8	-83.9	192	7
2023-08-04T00:00	19335	65	-51.8	-83.9	191	8
2023-08-04T00:00	19355	65	-51.9	-84.0	188	8
2023-08-04T00:00	19376	65	-52.0	-84.1	185	9
2023-08-04T00:00	19401	65	-52.0	-84.1	182	9
2023-08-04T00:00	19418	65	-51.9	-84.0	180	10
2023-08-04T00:00	19443	64	-52.0	-83.5	178	10
2023-08-04T00:00	19466	64	-52.2	-83.6	177	10
2023-08-04T00:00	19487	64	-52.3	-83.7	177	11
2023-08-04T00:00	19512	64	-52.4	-83.8	176	11
2023-08-04T00:00	19533	63	-52.6	-83.9	176	11
2023-08-04T00:00	19555	63	-52.8	-84.1	176	12
2023-08-04T00:00	19577	63	-52.9	-84.1	177	12
2023-08-04T00:00	19601	63	-52.9	-84.1	177	12
2023-08-04T00:00	19624	63	-52.9	-84.1	179	12
2023-08-04T00:00	19648	62	-52.9	-84.7	181	12
2023-08-04T00:00	19671	62	-52.4	-84.4	183	11
2023-08-04T00:00	19696	62	-51.6	-83.8	186	10
2023-08-04T00:00	19718	62	-51.5	-83.7	189	10
2023-08-04T00:00	19744	61	-51.6	-83.8	191	9
2023-08-04T00:00	19764	61	-51.9	-84.0	193	8
2023-08-04T00:00	19791	61	-51.8	-83.9	194	8
2023-08-04T00:00	19818	61	-51.6	-83.8	194	7
2023-08-04T00:00	19837	61	-51.7	-83.9	193	6
2023-08-04T00:00	19861	60	-51.8	-83.9	192	5
2023-08-04T00:00	19885	60	-51.9	-84.0	191	5
2023-08-04T00:00	19908	60	-52.0	-84.1	190	4
2023-08-04T00:00	19928	60	-51.9	-84.0	188	3
2023-08-04T00:00	19955	59	-52.0	-84.1	184	3
2023-08-04T00:00	19979	59	-51.9	-84.0	177	3
2023-08-04T00:00	19998	59	-51.7	-83.9	168	3
2023-08-04T00:00	20023	59	-51.4	-83.6	161	3
2023-08-04T00:00	20046	59	-51.4	-83.6	158	3
2023-08-04T00:00	20070	58	-51.5	-83.7	156	3
2023-08-04T00:00	20094	58	-51.6	-83.8	157	3
2023-08-04T00:00	20117	58	-51.4	-83.6	159	3
2023-08-04T00:00	20140	58	-51.5	-83.7	161	3
2023-08-04T00:00	20166	58	-51.5	-83.7	162	3
2023-08-04T00:00	20190	57	-51.5	-83.7	161	3
2023-08-04T00:00	20210	57	-51.3	-83.6	156	4
2023-08-04T00:00	20239	57	-51.3	-83.6	149	4
2023-08-04T00:00	20262	57	-51.3	-84.3	144	4
2023-08-04T00:00	20294	56	-51.0	-84.0	143	5
2023-08-04T00:00	20316	56	-51.0	-84.0	144	6
2023-08-04T00:00	20341	56	-51.1	-84.1	149	6
2023-08-04T00:00	20367	56	-51.1	-84.1	155	6
2023-08-04T00:00	20391	56	-51.0	-84.0	160	7
2023-08-04T00:00	20419	55	-50.6	-83.7	165	7
2023-08-04T00:00	20442	55	-50.6	-83.7	168	7
2023-08-04T00:00	20466	55	-50.7	-83.1	170	7
2023-08-04T00:00	20495	55	-51.0	-83.3	173	7
2023-08-04T00:00	20521	54	-51.2	-83.5	176	7
2023-08-04T00:00	20552	54	-51.4	-83.6	180	7
2023-08-04T00:00	20576	54	-51.6	-83.8	185	7
2023-08-04T00:00	20602	54	-51.4	-83.6	190	7
2023-08-04T00:00	20630	54	-51.2	-83.5	193	7
2023-08-04T00:00	20654	53	-50.8	-83.9	195	6
2023-08-04T00:00	20683	53	-50.8	-83.9	194	6
2023-08-04T00:00	20708	53	-50.5	-83.7	190	5
2023-08-04T00:00	20737	53	-50.1	-83.4	183	5
2023-08-04T00:00	20759	53	-50.2	-83.5	175	5
2023-08-04T00:00	20784	52	-49.9	-83.2	168	5
2023-08-04T00:00	20809	52	-49.7	-83.1	163	5
2023-08-04T00:00	20836	52	-49.7	-83.1	163	6
2023-08-04T00:00	20865	52	-49.7	-83.1	165	6
2023-08-04T00:00	20890	51	-49.5	-83.7	169	6
2023-08-04T00:00	20915	51	-49.1	-83.4	175	6
2023-08-04T00:00	20943	51	-49.2	-83.5	181	6
2023-08-04T00:00	20969	51	-49.2	-82.7	184	6
2023-08-04T00:00	20997	51	-49.2	-82.7	184	6
2023-08-04T00:00	21017	50	-49.2	-82.7	182	6
2023-08-04T00:00	21050	50	-49.2	-82.7	178	6
2023-08-04T00:00	21070	50	-49.3	-82.8	174	6
2023-08-04T00:00	21101	50	-49.5	-82.9	170	6
2023-08-04T00:00	21122	50	-49.6	-83.0	167	5
2023-08-04T00:00	21153	49	-49.5	-82.9	163	5
2023-08-04T00:00	21178	49	-49.4	-82.9	158	4
2023-08-04T00:00	21205	49	-49.4	-82.9	151	4
2023-08-04T00:00	21230	49	-49.5	-82.9	142	4
2023-08-04T00:00	21254	49	-49.4	-82.9	132	4
2023-08-04T00:00	21287	48	-49.5	-82.9	122	4
2023-08-04T00:00	21313	48	-49.7	-83.1	114	4
2023-08-04T00:00	21340	48	-49.9	-83.2	108	4
2023-08-04T00:00	21364	48	-50.0	-83.3	103	4
2023-08-04T00:00	21387	48	-50.0	-83.3	101	4
2023-08-04T00:00	21411	48	-50.0	-83.3	102	4
2023-08-04T00:00	21441	47	-50.2	-83.5	106	4
2023-08-04T00:00	21468	47	-50.4	-82.9	113	4
2023-08-04T00:00	21492	47	-50.7	-83.1	119	4
2023-08-04T00:00	21518	47	-50.9	-83.3	126	5
2023-08-04T00:00	21545	47	-50.9	-83.3	131	5
2023-08-04T00:00	21569	46	-51.0	-83.3	135	5
2023-08-04T00:00	21592	46	-51.3	-83.6	140	6
2023-08-04T00:00	21618	46	-51.5	-83.7	144	6
2023-08-04T00:00	21650	46	-51.7	-83.9	148	7
2023-08-04T00:00	21673	46	-51.8	-83.9	152	7
2023-08-04T00:00	21698	46	-51.9	-84.0	155	7
2023-08-04T00:00	21724	45	-51.9	-84.0	158	7
2023-08-04T00:00	21745	45	-51.6	-84.5	160	7
2023-08-04T00:00	21774	45	-51.1	-84.1	160	7
2023-08-04T00:00	21801	45	-51.0	-84.0	159	6
2023-08-04T00:00	21825	45	-51.1	-84.1	157	7
2023-08-04T00:00	21852	44	-50.8	-83.9	154	7
2023-08-04T00:00	21874	44	-50.4	-83.6	152	7
2023-08-04T00:00	21903	44	-50.3	-83.5	149	7
2023-08-04T00:00	21927	44	-50.1	-83.4	148	7
2023-08-04T00:00	21950	44	-50.2	-83.5	146	8
2023-08-04T00:00	21978	44	-50.3	-83.5	145	8
2023-08-04T00:00	21999	43	-50.3	-83.5	143	8
2023-08-04T00:00	22028	43	-50.4	-83.6	141	9
2023-08-04T00:00	22053	43	-50.5	-83.7	139	9
2023-08-04T00:00	22078	43	-50.6	-83.7	137	9
2023-08-04T00:00	22102	43	-50.7	-83.8	137	9
2023-08-04T00:00	22128	43	-50.8	-83.9	138	9
2023-08-04T00:00	22150	42	-50.9	-84.0	140	8
2023-08-04T00:00	22175	42	-50.8	-83.9	143	8
2023-08-04T00:00	22199	42	-50.8	-83.9	147	7
2023-08-04T00:00	22226	42	-50.8	-83.9	151	7
2023-08-04T00:00	22249	42	-50.8	-83.9	154	6
2023-08-04T00:00	22272	42	-50.9	-84.0	156	6
2023-08-04T00:00	22303	41	-50.8	-83.9	155	6
2023-08-04T00:00	22321	41	-50.7	-83.8	152	5
2023-08-04T00:00	22350	41	-50.7	-83.8	148	5
2023-08-04T00:00	22373	41	-50.7	-83.8	145	6
2023-08-04T00:00	22397	41	-50.8	-83.9	142	6
2023-08-04T00:00	22422	41	-50.8	-83.9	141	7
2023-08-04T00:00	22452	41	-50.9	-84.0	141	7
2023-08-04T00:00	22478	40	-51.1	-84.1	142	8
2023-08-04T00:00	22509	40	-51.3	-84.3	142	9
2023-08-04T00:00	22533	40	-51.4	-84.3	142	9
2023-08-04T00:00	22559	40	-51.3	-84.3	141	9
2023-08-04T00:00	22589	40	-51.3	-84.3	141	9
2023-08-04T00:00	22612	40	-51.1	-84.1	139	8
2023-08-04T00:00	22642	39	-51.0	-84.0	138	8
2023-08-04T00:00	22678	39	-51.0	-84.0	135	7
2023-08-04T00:00	22699	39	-51.1	-84.1	131	6
2023-08-04T00:00	22735	39	-51.1	-84.1	126	6
2023-08-04T00:00	22764	39	-51.0	-84.0	121	6
2023-08-04T00:00	22790	38	-50.8	-83.9	115	6
2023-08-04T00:00	22821	38	-50.9	-84.0	109	6
2023-08-04T00:00	22844	38	-51.0	-84.0	102	6
2023-08-04T00:00	22877	38	-51.1	-84.1	97	6
2023-08-04T00:00	22904	38	-51.1	-84.1	92	6
2023-08-04T00:00	22929	38	-51.1	-84.1	88	7
2023-08-04T00:00	22960	37	-51.1	-84.1	87	7
2023-08-04T00:00	22990	37	-51.2	-84.2	87	8
2023-08-04T00:00	23018	37	-51.4	-84.3	89	8
2023-08-04T00:00	23044	37	-51.3	-84.3	92	8
2023-08-04T00:00	23074	37	-51.3	-84.3	97	9
2023-08-04T00:00	23102	37	-51.4	-84.3	102	9
2023-08-04T00:00	23132	37	-51.3	-84.3	107	9
2023-08-04T00:00	23158	36	-51.3	-84.3	112	8
2023-08-04T00:00	23192	36	-51.5	-84.4	117	9
2023-08-04T00:00	23214	36	-51.6	-83.8	122	9
2023-08-04T00:00	23242	36	-51.7	-83.9	127	9
2023-08-04T00:00	23273	36	-51.9	-84.0	131	9
2023-08-04T00:00	23297	36	-52.0	-84.1	136	9
2023-08-04T00:00	23323	35	-52.2	-84.2	141	9
2023-08-04T00:00	23350	35	-52.2	-84.2	146	10
2023-08-04T00:00	23377	35	-52.3	-84.3	150	11
2023-08-04T00:00	23403	35	-52.4	-84.4	154	11
2023-08-04T00:00	23430	35	-52.5	-84.4	157	11
2023-08-04T00:00	23452	35	-52.5	-84.4	160	11
2023-08-04T00:00	23481	35	-52.5	-85.1	162	10
2023-08-04T00:00	23497	34	-52.2	-84.9	164	9
2023-08-04T00:00	23526	34	-51.5	-84.4	165	8
2023-08-04T00:00	23549	34	-51.3	-84.3	165	8
2023-08-04T00:00	23570	34	-51.4	-84.3	164	7
2023-08-04T00:00	23602	34	-51.6	-84.5	163	6
2023-08-04T00:00	23620	34	-51.7	-84.5	161	5
2023-08-04T00:00	23648	34	-51.6	-84.5	158	5
2023-08-04T00:00	23679	34	-51.5	-84.4	154	4
2023-08-04T00:00	23705	33	-51.2	-84.2	149	4
2023-08-04T00:00	23730	33	-50.9	-84.0	141	4
2023-08-04T00:00	23757	33	-50.8	-83.9	131	3
2023-08-04T00:00	23777	33	-50.9	-84.0	119	4
2023-08-04T00:00	23803	33	-51.0	-84.0	107	4
2023-08-04T00:00	23835	33	-51.1	-84.1	98	4
2023-08-04T00:00	23857	33	-51.1	-84.1	92	5
2023-08-04T00:00	23887	33	-50.7	-84.6	90	5
2023-08-04T00:00	23916	32	-50.7	-84.6	89	6
2023-08-04T00:00	23942	32	-50.4	-84.4	90	6
2023-08-04T00:00	23962	32	-50.4	-84.4	92	6
2023-08-04T00:00	23989	32	-50.4	-84.4	93	6
2023-08-04T00:00	24014	32	-50.4	-84.4	94	6
2023-08-04T00:00	24041	32	-50.5	-83.7	95	6
2023-08-04T00:00	24071	32	-50.6	-83.7	95	6
2023-08-04T00:00	24094	31	-50.7	-83.8	95	6
2023-08-04T00:00	24129	31	-50.8	-83.9	96	6
2023-08-04T00:00	24163	31	-50.9	-84.0	97	7
2023-08-04T00:00	24183	31	-51.0	-84.0	99	7
2023-08-04T00:00	24205	31	-51.0	-84.0	101	7
2023-08-04T00:00	24237	31	-51.0	-84.0	105	7
2023-08-04T00:00	24261	31	-51.1	-84.1	109	7
2023-08-04T00:00	24295	31	-51.2	-84.2	113	7
2023-08-04T00:00	24318	30	-51.2	-84.2	116	6
2023-08-04T00:00	24342	30	-51.2	-84.2	120	6
2023-08-04T00:00	24372	30	-51.0	-84.0	122	6
2023-08-04T00:00	24395	30	-50.8	-83.9	123	6
2023-08-04T00:00	24418	30	-50.8	-84.7	122	6
2023-08-04T00:00	24455	30	-50.7	-84.6	121	6
2023-08-04T00:00	24480	30	-50.6	-84.5	119	6
2023-08-04T00:00	24511	30	-50.6	-84.5	117	6
2023-08-04T00:00	24535	29	-50.4	-84.4	115	6
2023-08-04T00:00	24566	29	-50.5	-84.5	114	6
2023-08-04T00:00	24594	29	-50.5	-84.5	111	6
2023-08-04T00:00	24623	29	-50.5	-84.5	109	6
2023-08-04T00:00	24653	29	-50.6	-83.7	107	6
2023-08-04T00:00	24678	29	-50.6	-83.7	106	6
2023-08-04T00:00	24707	29	-50.6	-83.7	106	6
2023-08-04T00:00	24729	29	-50.7	-83.8	106	6
2023-08-04T00:00	24763	28	-50.8	-83.9	105	6
2023-08-04T00:00	24790	28	-50.8	-83.9	101	6
2023-08-04T00:00	24819	28	-50.9	-84.0	96	6
2023-08-04T00:00	24852	28	-50.7	-83.8	91	7
2023-08-04T00:00	24875	28	-50.7	-83.8	88	7
2023-08-04T00:00	24904	28	-50.8	-83.9	88	8
2023-08-04T00:00	24932	28	-50.8	-83.9	90	8
2023-08-04T00:00	24960	28	-50.6	-83.7	94	9
2023-08-04T00:00	24980	27	-50.6	-84.5	99	9
2023-08-04T00:00	25019	27	-50.5	-83.7	104	9
2023-08-04T00:00	25046	27	-50.6	-83.7	109	9
2023-08-04T00:00	25070	27	-50.7	-83.8	114	10
2023-08-04T00:00	25097	27	-50.8	-83.9	118	10
2023-08-04T00:00	25128	27	-50.9	-84.0	121	10
2023-08-04T00:00	25152	27	-50.7	-83.8	123	10
2023-08-04T00:00	25182	27	-50.9	-84.0	124	10
2023-08-04T00:00	25216	27	-50.9	-84.7	123	10
2023-08-04T00:00	25247	26	-50.7	-84.6	122	9
2023-08-04T00:00	25270	26	-50.5	-84.5	122	9
2023-08-04T00:00	25307	26	-50.2	-84.2	122	8
2023-08-04T00:00	25333	26	-50.0	-84.1	123	8
2023-08-04T00:00	25357	26	-49.9	-84.0	125	7
2023-08-04T00:00	25383	26	-49.5	-83.7	127	7
2023-08-04T00:00	25419	26	-49.6	-83.8	130	7
2023-08-04T00:00	25448	26	-49.6	-83.8	132	6
2023-08-04T00:00	25474	25	-49.4	-83.7	134	6
2023-08-04T00:00	25510	25	-49.2	-83.5	136	5
2023-08-04T00:00	25541	25	-49.0	-84.3	135	5
2023-08-04T00:00	25565	25	-49.0	-84.3	132	4
2023-08-04T00:00	25604	25	-48.8	-84.1	126	4
2023-08-04T00:00	25628	25	-48.5	-83.9	117	3
2023-08-04T00:00	25656	25	-48.3	-83.8	104	3
2023-08-04T00:00	25685	25	-48.2	-83.7	87	3
2023-08-04T00:00	25709	25	-48.2	-83.7	69	3
2023-08-04T00:00	25737	24	-48.2	-83.7	54	3
2023-08-04T00:00	25776	24	-48.2	-83.7	45	4
2023-08-04T00:00	25803	24	-48.1	-83.6	41	4
2023-08-04T00:00	25826	24	-48.1	-83.6	41	5
2023-08-04T00:00	25852	24	-48.0	-83.6	44	5
2023-08-04T00:00	25885	24	-48.1	-83.6	48	6
2023-08-04T00:00	25904	24	-48.2	-82.8	52	7
2023-08-04T00:00	25933	24	-48.3	-82.9	55	8
2023-08-04T00:00	25960	24	-48.3	-82.9	58	9
2023-08-04T00:00	25986	24	-48.3	-82.9	60	9
2023-08-04T00:00	26014	23	-48.2	-82.8	63	10
2023-08-04T00:00	26035	23	-48.3	-82.9	65	11
2023-08-04T00:00	26068	23	-48.3	-82.9	69	11
2023-08-04T00:00	26099	23	-48.4	-82.9	72	11
2023-08-04T00:00	26130	23	-48.4	-82.9	76	11
2023-08-04T00:00	26157	23	-48.5	-83.0	80	11
2023-08-04T00:00	26185	23	-48.4	-82.9	84	10
2023-08-04T00:00	26200	23	-48.5	-83.0	87	10
2023-08-04T00:00	26231	23	-48.5	-83.0	90	9
2023-08-04T00:00	26260	23	-48.1	-83.6	93	9
2023-08-04T00:00	26288	23	-47.9	-83.5	95	9
2023-08-04T00:00	26315	22	-47.8	-83.4	96	8
2023-08-04T00:00	26344	22	-47.7	-83.4	96	8
2023-08-04T00:00	26366	22	-47.7	-83.4	97	8
2023-08-04T00:00	26398	22	-47.5	-83.2	98	8
2023-08-04T00:00	26427	22	-47.3	-83.1	98	8
2023-08-04T00:00	26453	22	-47.3	-83.1	99	9
2023-08-04T00:00	26479	22	-47.3	-83.1	99	9
2023-08-04T00:00	26507	22	-47.2	-83.0	99	9
2023-08-04T00:00	26521	22	-47.0	-82.9	99	9
2023-08-04T00:00	26558	22	-46.9	-82.8	99	9
2023-08-04T00:00	26581	22	-46.7	-82.6	98	9
2023-08-04T00:00	26609	21	-46.6	-82.6	97	9
2023-08-04T00:00	26647	21	-46.5	-82.5	96	10
2023-08-04T00:00	26676	21	-46.3	-82.4	95	10
2023-08-04T00:00	26695	21	-46.2	-82.3	94	11
2023-08-04T00:00	26734	21	-46.3	-82.4	94	12
2023-08-04T00:00	26763	21	-46.4	-82.4	94	13
2023-08-04T00:00	26789	21	-46.4	-82.4	95	13
2023-08-04T00:00	26815	21	-46.4	-82.4	97	13
2023-08-04T00:00	26840	21	-46.5	-82.5	100	13
2023-08-04T00:00	26875	21	-46.6	-82.6	103	13
2023-08-04T00:00	26901	21	-46.5	-82.5	106	13
2023-08-04T00:00	26938	20	-46.6	-82.6	109	13
2023-08-04T00:00	26960	20	-46.5	-82.5	111	13
2023-08-04T00:00	26996	20	-46.5	-82.5	114	13
2023-08-04T00:00	27020	20	-46.4	-82.4	117	12
2023-08-04T00:00	27055	20	-46.3	-82.4	121	12
2023-08-04T00:00	27092	20	-46.4	-82.4	125	11
2023-08-04T00:00	27119	20	-46.5	-82.5	129	11
2023-08-04T00:00	27142	20	-46.7	-82.6	133	11
2023-08-04T00:00	27176	20	-46.9	-82.8	136	11
2023-08-04T00:00	27209	20	-47.1	-82.9	139	11
2023-08-04T00:00	27251	19	-47.4	-83.1	140	11
2023-08-04T00:00	27278	19	-47.5	-83.2	140	11
2023-08-04T00:00	27307	19	-47.5	-83.2	138	11
2023-08-04T00:00	27345	19	-47.6	-83.3	134	11
2023-08-04T00:00	27375	19	-47.7	-83.4	130	10
2023-08-04T00:00	27406	19	-47.8	-83.4	126	10
2023-08-04T00:00	27430	19	-47.9	-83.5	122	10
2023-08-04T00:00	27464	19	-47.9	-83.5	119	10
2023-08-04T00:00	27499	19	-48.0	-83.6	118	10
2023-08-04T00:00	27529	19	-47.9	-83.5	118	10
2023-08-04T00:00	27559	19	-47.6	-83.3	119	10
2023-08-04T00:00	27583	19	-47.5	-83.2	121	9
2023-08-04T00:00	27617	18	-47.5	-83.2	124	9
2023-08-04T00:00	27646	18	-47.5	-83.2	126	8
2023-08-04T00:00	27680	18	-47.5	-83.2	126	8
2023-08-04T00:00	27709	18	-47.6	-83.3	124	7
2023-08-04T00:00	27728	18	-47.6	-83.3	120	7
2023-08-04T00:00	27767	18	-47.6	-83.3	114	7
2023-08-04T00:00	27783	18	-47.5	-83.2	108	7
2023-08-04T00:00	27819	18	-47.5	-83.2	103	7
2023-08-04T00:00	27837	18	-47.5	-83.2	100	7
2023-08-04T00:00	27868	18	-47.3	-83.1	98	7
2023-08-04T00:00	27898	18	-47.1	-82.9	98	8
2023-08-04T00:00	27927	18	-47.0	-82.9	98	8
2023-08-04T00:00	27947	18	-46.9	-82.8	99	8
2023-08-04T00:00	27977	17	-46.8	-82.7	100	8
2023-08-04T00:00	28007	17	-46.9	-82.8	100	8
2023-08-04T00:00	28039	17	-46.9	-82.8	101	9
2023-08-04T00:00	28064	17	-46.9	-82.8	102	9
2023-08-04T00:00	28089	17	-46.9	-82.8	103	10
2023-08-04T00:00	28126	17	-47.0	-82.9	104	10
2023-08-04T00:00	28153	17	-47.1	-82.9	105	10
2023-08-04T00:00	28176	17	-47.1	-82.9	107	10
2023-08-04T00:00	28212	17	-47.1	-82.9	109	10
2023-08-04T00:00	28239	17	-47.0	-82.9	111	10
2023-08-04T00:00	28263	17	-47.0	-82.9	113	10
2023-08-04T00:00	28291	17	-47.0	-82.9	115	10
2023-08-04T00:00	28336	17	-46.9	-82.8	118	10
2023-08-04T00:00	28355	16	-46.8	-82.7	120	9
2023-08-04T00:00	28379	16	-46.6	-82.6	122	9
2023-08-04T00:00	28401	16	-46.5	-82.5	123	9
2023-08-04T00:00	28433	16	-46.3	-82.4	124	9
2023-08-04T00:00	28459	16	-46.2	-83.4	123	9
2023-08-04T00:00	28503	16	-46.2	-83.4	122	9
2023-08-04T00:00	28523	16	-46.4	-83.5	121	9
2023-08-04T00:00	28554	16	-46.3	-83.4	120	9
2023-08-04T00:00	28587	16	-46.2	-83.4	120	8
2023-08-04T00:00	28618	16	-46.2	-83.4	121	8
2023-08-04T00:00	28647	16	-46.2	-83.4	122	7
2023-08-04T00:00	28676	16	-46.1	-83.3	123	6
2023-08-04T00:00	28704	16	-46.0	-83.2	121	6
2023-08-04T00:00	28730	16	-45.8	-83.1	117	6
2023-08-04T00:00	28764	16	-45.6	-82.9	110	5
2023-08-04T00:00	28784	15	-45.5	-82.9	102	5
2023-08-04T00:00	28817	15	-45.4	-82.8	95	5
2023-08-04T00:00	28852	15	-45.1	-82.6	91	6
2023-08-04T00:00	28884	15	-45.0	-82.5	89	6
2023-08-04T00:00	28916	15	-44.9	-82.5	89	6
2023-08-04T00:00	28941	15	-44.8	-82.4	91	7
2023-08-04T00:00	28975	15	-44.8	-82.4	94	7
2023-08-04T00:00	29000	15	-44.7	-82.3	96	8
2023-08-04T00:00	29031	15	-44.7	-82.3	97	8
2023-08-04T00:00	29061	15	-44.7	-82.3	97	9
2023-08-04T00:00	29092	15	-44.5	-82.2	96	9
2023-08-04T00:00	29099	15	-44.5	-82.2	94	9
2023-08-04T00:00	29139	15	-44.5	-82.2	93	9
2023-08-04T00:00	29173	15	-44.6	-82.2	93	10
2023-08-04T00:00	29213	15	-44.7	-82.3	93	10
2023-08-04T00:00	29224	14	-44.7	-82.3	95	10
2023-08-04T00:00	29257	14	-44.6	-82.2	97	11
2023-08-04T00:00	29299	14	-44.7	-82.3	99	11
2023-08-04T00:00	29318	14	-44.8	-82.4	100	11
2023-08-04T00:00	29336	14	-44.7	-82.3	100	11
2023-08-04T00:00	29376	14	-44.7	-82.3	99	11
2023-08-04T00:00	29405	14	-44.6	-82.2	98	12
2023-08-04T00:00	29430	14	-44.3	-82.0	96	12
2023-08-04T00:00	29465	14	-44.2	-82.0	94	12
2023-08-04T00:00	29502	14	-44.1	-81.9	94	13
2023-08-04T00:00	29526	14	-44.1	-81.9	94	13
2023-08-04T00:00	29548	14	-44.1	-81.9	96	13
2023-08-04T00:00	29588	14	-44.3	-82.0	98	12
2023-08-04T00:00	29604	14	-44.2	-82.0	101	12
2023-08-04T00:00	29647	14	-44.3	-82.0	103	11
2023-08-04T00:00	29665	14	-44.2	-82.0	105	11
2023-08-04T00:00	29699	13	-44.1	-81.9	106	10
2023-08-04T00:00	29727	13	-44.0	-81.8	104	10
2023-08-04T00:00	29752	13	-43.9	-81.8	102	10
2023-08-04T00:00	29791	13	-43.6	-81.5	98	9
2023-08-04T00:00	29801	13	-43.4	-81.4	94	9
2023-08-04T00:00	29844	13	-43.2	-81.3	90	8
2023-08-04T00:00	29868	13	-43.2	-81.3	86	8
2023-08-04T00:00	29914	13	-42.8	-81.0	82	7
2023-08-04T00:00	29940	13	-42.8	-81.0	79	7
2023-08-04T00:00	29962	13	-43.0	-81.1	75	6
2023-08-04T00:00	29996	13	-43.0	-81.1	72	6
2023-08-04T00:00	30018	13	-42.8	-81.0	69	6
2023-08-04T00:00	30034	13	-42.6	-80.8	67	6
2023-08-04T00:00	30082	13	-42.3	-80.6	66	5
2023-08-04T00:00	30107	13	-42.0	-80.4	68	5
2023-08-04T00:00	30139	13	-41.6	-80.1	69	5
2023-08-04T00:00	30168	13	-41.4	-80.0	68	5
2023-08-04T00:00	30196	13	-41.4	-80.0	65	5
2023-08-04T00:00	30223	12	-41.3	-79.9	59	6
2023-08-04T00:00	30261	12	-41.3	-79.9	51	6
2023-08-04T00:00	30293	12	-41.3	-79.9	43	7
2023-08-04T00:00	30317	12	-41.3	-79.9	36	8
2023-08-04T00:00	30361	12	-41.0	-79.7	31	8
2023-08-04T00:00	30393	12	-40.7	-79.5	28	9
2023-08-04T00:00	30411	12	-40.6	-79.5	26	10
2023-08-04T00:00	30438	12	-40.5	-79.4	26	11
2023-08-04T00:00	30481	12	-40.4	-79.3	28	11
2023-08-04T00:00	30512	12	-40.3	-79.2	31	11
2023-08-04T00:00	30539	12	-40.2	-79.2	35	11
2023-08-04T00:00	30549	12	-40.2	-79.2	40	11
2023-08-04T00:00	30597	12	-40.3	-79.2	45	11
2023-08-04T00:00	30625	12	-40.4	-79.3	50	12
2023-08-04T00:00	30662	12	-40.6	-79.5	54	12
2023-08-04T00:00	30675	12	-40.7	-79.5	58	12
2023-08-04T00:00	30728	12	-40.7	-79.5	61	12
2023-08-04T00:00	30746	12	-40.8	-79.6	63	12
2023-08-04T00:00	30779	12	-40.8	-79.6	65	11
2023-08-04T00:00	30796	11	-40.7	-79.5	67	11
2023-08-04T00:00	30844	11	-40.6	-79.5	70	11
2023-08-04T00:00	30868	11	-40.5	-79.4	72	11
2023-08-04T00:00	30885	11	-40.4	-79.3	75	11
2023-08-04T00:00	30915	11	-40.2	-79.2	77	10
2023-08-04T00:00	30971	11	-40.2	-79.2	79	10
2023-08-04T00:00	31004	11	-40.2	-79.2	80	9
2023-08-04T00:00	31023	11	-40.1	-79.1	81	9
2023-08-04T00:00	31046	11	-40.0	-79.0	80	8
2023-08-04T00:00	31084	11	-40.1	-79.1	78	8
2023-08-04T00:00	31100	11	-40.2	-79.2	74	7
2023-08-04T00:00	31115	11	-40.2	-79.2	70	7
2023-08-04T00:00	31168	11	-40.3	-79.2	66	7
2023-08-04T00:00	31185	11	-40.2	-79.2	63	7
2023-08-04T00:00	31228	11	-40.2	-79.2	61	7
2023-08-04T00:00	31252	11	-40.1	-79.1	61	7
2023-08-04T00:00	31269	11	-40.0	-79.0	63	8
2023-08-04T00:00	31294	11	-39.9	-79.0	65	8
2023-08-04T00:00	31328	11	-39.8	-78.9	67	9
2023-08-04T00:00	31354	11	-39.5	-78.7	70	10
2023-08-04T00:00	31370	11	-39.4	-78.6	72	11
2023-08-04T00:00	31406	11	-39.3	-78.5	73	11
2023-08-04T00:00	31415	10	-39.2	-78.5	74	11
2023-08-04T00:00	31461	10	-39.1	-78.4	75	11
2023-08-04T00:00	31486	10	-39.0	-78.3	75	10
2023-08-04T00:00	31527	10	-39.0	-78.3	75	10
2023-08-04T00:00	31587	10	-39.0	-78.3	72	8
2023-08-04T00:00	31592	10	-39.1	-78.4	71	8
2023-08-04T00:00	31613	10	-39.4	-78.6	69	8
2023-08-04T00:00	31647	10	-39.3	-78.5	68	8
2023-08-04T00:00	31663	10	-39.2	-78.5	67	8
2023-08-04T00:00	31705	10	-39.2	-78.5	65	8
2023-08-04T00:00	31738	10	-39.2	-78.5	64	9
2023-08-04T00:00	31768	10	-39.1	-78.4	63	9
2023-08-04T00:00	31776	10	-39.1	-78.4	62	9
2023-08-04T00:00	31815	10	-39.0	-78.3	63	9
2023-08-04T00:00	31837	10	-39.0	-78.3	66	10
2023-08-04T00:00	31872	10	-38.9	-78.3	68	10
2023-08-04T00:00	31904	10	-38.7	-78.1	71	10
2023-08-04T00:00	31922	10	-38.6	-78.1	72	10
2023-08-04T00:00	31963	10	-38.4	-77.9	71	11
2023-08-04T00:00	31989	10	-38.1	-77.7	69	10
2023-08-04T00:00	32015	10	-38.0	-77.6	65	10
2023-08-04T00:00	32057	10	-37.8	-77.5	61	10
2023-08-04T00:00	32089	10	-37.7	-77.4	58	10
2023-08-04T00:00	32106	9	-37.6	-77.4	57	11
2023-08-04T00:00	32140	9	-37.7	-77.4	58	11
2023-08-04T00:00	32187	9	-37.6	-77.4	61	11
2023-08-04T00:00	32210	9	-37.5	-77.3	66	11
2023-08-04T00:00	32239	9	-37.8	-77.5	71	11
2023-08-04T00:00	32256	9	-37.9	-77.6	76	11
2023-08-04T00:00	32306	9	-38.1	-77.7	81	11
2023-08-04T00:00	32330	9	-38.1	-77.7	85	11
2023-08-04T00:00	32341	9	-38.3	-77.9	88	11
2023-08-04T00:00	32393	9	-38.4	-77.9	89	11
2023-08-04T00:00	32409	9	-38.4	-77.9	90	11
2023-08-04T00:00	32456	9	-38.3	-77.9	90	11
2023-08-04T00:00	32529	9	-38.0	-77.6	86	10
2023-08-04T00:00	32557	9	-37.9	-77.6	84	9
2023-08-04T00:00	32594	9	-38.0	-77.6	82	9
2023-08-04T00:00	32642	9	-38.1	-77.7	82	9
2023-08-04T00:00	32694	9	-38.1	-77.7	82	9
2023-08-04T00:00	32713	9	-38.1	-77.7	84	9
2023-08-04T00:00	32732	9	-38.1	-77.7	86	9
2023-08-04T00:00	32771	9	-38.0	-77.6	88	9
2023-08-04T00:00	32796	9	-37.9	-77.6	90	9
2023-08-04T00:00	32831	9	-37.8	-77.5	93	9
2023-08-04T00:00	32862	9	-37.9	-77.6	95	9
2023-08-04T00:00	32876	8	-37.9	-77.6	95	9
2023-08-04T00:00	32910	8	-37.9	-77.6	94	9
2023-08-04T00:00	32957	8	-37.7	-77.4	92	9
2023-08-04T00:00	32980	8	-37.6	-77.4	90	9
2023-08-04T00:00	33009	8	-37.5	-77.3	88	10
2023-08-04T00:00	33054	8	-37.5	-77.3	87	10
2023-08-04T00:00	33067	8	-37.4	-77.2	87	10
2023-08-04T00:00	33087	8	-37.3	-77.2	87	10
2023-08-04T00:00	33143	8	-37.3	-77.2	88	10
2023-08-04T00:00	33160	8	-37.3	-77.2	89	10
2023-08-04T00:00	33186	8	-37.4	-77.2	91	10
2023-08-04T00:00	33215	8	-37.3	-77.2	92	10
2023-08-04T00:00	33233	8	-37.4	-77.2	95	10
2023-08-04T00:00	33297	8	-37.4	-77.2	97	10
2023-08-04T00:00	33336	8	-37.6	-77.4	104	10
2023-08-04T00:00	33380	8	-37.6	-77.4	107	10
2023-08-04T00:00	33402	8	-37.6	-77.4	109	10
2023-08-04T00:00	33429	8	-37.5	-77.3	112	9
2023-08-04T00:00	33439	8	-37.4	-77.2	114	9
2023-08-04T00:00	33483	8	-37.3	-77.2	116	9
2023-08-04T06:00	112	995	16.8	14.5	260	4
2023-08-04T06:00	139	992	16.7	14.4	281	3
2023-08-04T06:00	161	989	16.5	14.1	272	3
2023-08-04T06:00	189	986	16.2	14.0	267	4
2023-08-04T06:00	220	983	16.0	14.0	263	4
2023-08-04T06:00	252	979	15.6	13.8	262	4
2023-08-04T06:00	278	976	15.4	13.8	264	5
2023-08-04T06:00	307	973	15.1	13.8	267	5
2023-08-04T06:00	337	969	14.9	13.7	271	6
2023-08-04T06:00	364	966	14.6	13.7	273	6
2023-08-04T06:00	399	962	14.3	13.6	273	7
2023-08-04T06:00	429	959	14.0	13.6	273	8
2023-08-04T06:00	462	955	13.7	13.5	272	9
2023-08-04T06:00	488	952	13.4	13.3	272	9
2023-08-04T06:00	512	949	13.2	13.2	272	10
2023-08-04T06:00	541	946	13.0	13.0	273	10
2023-08-04T06:00	569	943	12.8	12.8	275	10
2023-08-04T06:00	596	940	12.6	12.6	276	10
2023-08-04T06:00	621	937	12.5	12.0	277	10
2023-08-04T06:00	648	934	12.5	11.9	277	9
2023-08-04T06:00	675	931	12.4	11.7	276	9
2023-08-04T06:00	699	929	12.2	11.5	275	9
2023-08-04T06:00	726	926	12.2	11.2	276	9
2023-08-04T06:00	750	923	12.2	10.6	277	9
2023-08-04T06:00	772	920	12.1	10.6	277	9
2023-08-04T06:00	797	918	12.0	10.6	278	9
2023-08-04T06:00	822	915	11.8	10.6	278	9
2023-08-04T06:00	847	912	11.6	10.6	278	9
2023-08-04T06:00	871	910	11.3	10.5	278	9
2023-08-04T06:00	892	907	11.2	10.5	278	9
2023-08-04T06:00	912	905	11.0	10.4	278	9
2023-08-04T06:00	935	903	10.9	10.4	277	9
2023-08-04T06:00	962	900	10.9	9.5	276	9
2023-08-04T06:00	986	897	10.7	9.5	275	9
2023-08-04T06:00	1005	895	10.5	9.3	274	8
2023-08-04T06:00	1033	893	10.3	9.3	273	8
2023-08-04T06:00	1057	890	10.1	9.3	273	8
2023-08-04T06:00	1077	888	9.8	9.2	273	8
2023-08-04T06:00	1101	885	9.5	9.1	274	9
2023-08-04T06:00	1123	883	9.4	9.1	274	9
2023-08-04T06:00	1141	881	9.2	9.1	275	9
2023-08-04T06:00	1163	878	8.9	8.9	277	10
2023-08-04T06:00	1191	876	8.9	8.8	279	10
2023-08-04T06:00	1217	873	8.7	8.7	281	10
2023-08-04T06:00	1248	870	9.1	8.5	281	10
2023-08-04T06:00	1272	867	9.2	8.2	280	10
2023-08-04T06:00	1299	864	9.2	7.9	279	10
2023-08-04T06:00	1327	861	9.3	7.7	276	10
2023-08-04T06:00	1352	859	9.1	7.5	274	9
2023-08-04T06:00	1379	856	8.9	7.3	273	9
2023-08-04T06:00	1409	853	8.9	7.0	271	9
2023-08-04T06:00	1439	850	8.7	7.0	270	9
2023-08-04T06:00	1464	847	8.5	6.8	269	10
2023-08-04T06:00	1490	845	8.3	6.6	267	10
2023-08-04T06:00	1517	842	8.2	6.5	265	10
2023-08-04T06:00	1546	839	8.1	6.3	264	10
2023-08-04T06:00	1573	836	8.0	6.4	262	11
2023-08-04T06:00	1593	834	7.9	6.1	261	11
2023-08-04T06:00	1617	832	7.8	5.9	261	11
2023-08-04T06:00	1641	829	7.7	5.7	261	11
2023-08-04T06:00	1662	827	7.5	5.6	261	10
2023-08-04T06:00	1687	825	7.4	5.6	261	10
2023-08-04T06:00	1712	822	7.2	5.3	262	10
2023-08-04T06:00	1737	820	7.3	5.1	263	10
2023-08-04T06:00	1762	817	7.1	5.0	264	10
2023-08-04T06:00	1788	815	6.9	4.9	264	10
2023-08-04T06:00	1813	812	6.7		264	10
2023-08-04T06:00	1834	810	6.6	4.3	263	10
2023-08-04T06:00	1862	807	6.7	3.5	262	10
2023-08-04T06:00	1889	805	6.8	2.7	263	9
2023-08-04T06:00	1915	802	6.6	2.4	265	9
2023-08-04T06:00	1942	800	6.4	2.1	270	10
2023-08-04T06:00	1964	797	6.2	1.8	275	10
2023-08-04T06:00	1985	795	6.1	1.5	279	10
2023-08-04T06:00	2011	793	5.9	0.8	282	10
2023-08-04T06:00	2038	790	5.8	0.0	282	10
2023-08-04T06:00	2065	788	5.7	0.4	280	10
2023-08-04T06:00	2091	785	5.5	1.7	278	10
2023-08-04T06:00	2117	783	5.3	2.5	276	10
2023-08-04T06:00	2142	780	5.1	2.7	275	11
2023-08-04T06:00	2166	778	4.9	2.6	274	11
2023-08-04T06:00	2191	775	4.7	2.5	274	11
2023-08-04T06:00	2217	773	4.6	2.1	273	10
2023-08-04T06:00	2244	771	4.4	2.0	272	10
2023-08-04T06:00	2268	768	4.2	2.3	271	10
2023-08-04T06:00	2294	766	4.0	2.3	269	10
2023-08-04T06:00	2319	763	3.9	2.3	267	9
2023-08-04T06:00	2349	761	3.7	2.5	265	9
2023-08-04T06:00	2378	758	3.5	2.5	263	9
2023-08-04T06:00	2407	755	3.2	2.5	261	9
2023-08-04T06:00	2432	753	3.1	2.4	259	8
2023-08-04T06:00	2461	750	2.9	2.3	256	8
2023-08-04T06:00	2488	748	2.8	2.1	252	8
2023-08-04T06:00	2511	746	2.8	1.8	249	8
2023-08-04T06:00	2536	743	2.6	1.7	246	9
2023-08-04T06:00	2563	741	2.5	1.5	243	9
2023-08-04T06:00	2585	739	2.3	1.2	242	9
2023-08-04T06:00	2607	737	2.2	1.1	243	10
2023-08-04T06:00	2633	734	2.0	1.4	246	10
2023-08-04T06:00	2659	732	1.9	1.3	249	10
2023-08-04T06:00	2681	730	1.9	0.7	252	10
2023-08-04T06:00	2707	728	1.8	0.3	255	11
2023-08-04T06:00	2729	726	1.7	0.3	257	11
2023-08-04T06:00	2755	723	1.6	-0.3	258	11
2023-08-04T06:00	2781	721	1.6	-0.4	259	11
2023-08-04T06:00	2805	719	1.4	-0.5	260	10
2023-08-04T06:00	2833	717	1.2	-0.5	261	10
2023-08-04T06:00	2853	715	1.0	-0.7	262	10
2023-08-04T06:00	2878	713	0.9	-0.8	263	10
2023-08-04T06:00	2899	710	0.8	-1.0	264	10
2023-08-04T06:00	2925	708	0.6	-1.2	265	11
2023-08-04T06:00	2950	706	0.4	-1.2	266	11
2023-08-04T06:00	2974	704	0.3	-1.2	266	12
2023-08-04T06:00	3004	702	0.2	-1.6	266	12
2023-08-04T06:00	3026	699	0.1	-1.7	266	13
2023-08-04T06:00	3051	697	-0.2	-1.8	265	13
2023-08-04T06:00	3071	696	-0.4	-1.9	264	13
2023-08-04T06:00	3094	693	-0.5	-2.1	262	12
2023-08-04T06:00	3122	691	-0.6	-2.2	261	12
2023-08-04T06:00	3143	689	-0.8	-2.3	261	12
2023-08-04T06:00	3177	686	-0.9	-2.4	261	11
2023-08-04T06:00	3207	684	-1.1	-2.6	261	11
2023-08-04T06:00	3231	682	-1.1	-2.9	261	11
2023-08-04T06:00	3254	680	-1.1	-3.8	261	11
2023-08-04T06:00	3280	677	-1.1	-3.8	261	11
2023-08-04T06:00	3310	675	-1.4	-3.9	261	11
2023-08-04T06:00	3335	673	-1.6	-3.9	261	11
2023-08-04T06:00	3353	671	-1.7	-4.0	261	11
2023-08-04T06:00	3374	670	-1.8	-3.8	262	11
2023-08-04T06:00	3400	668	-2.0	-3.9	262	11
2023-08-04T06:00	3421	666	-2.1	-4.1	262	11
2023-08-04T06:00	3448	663	-2.2	-4.8	263	11
2023-08-04T06:00	3473	661	-2.2	-5.0	264	11
2023-08-04T06:00	3502	659	-2.3	-5.2	266	10
2023-08-04T06:00	3519	657	-2.4	-5.5	269	10
2023-08-04T06:00	3546	655	-2.6	-5.5	270	10
2023-08-04T06:00	3572	653	-2.8	-5.4	271	10
2023-08-04T06:00	3595	651	-3.0	-5.8	270	9
2023-08-04T06:00	3615	649	-3.2	-5.7	268	9
2023-08-04T06:00	3646	647	-3.4	-5.8	265	9
2023-08-04T06:00	3668	645	-3.5	-5.9	260	9
2023-08-04T06:00	3692	643	-3.6	-6.0	257	9
2023-08-04T06:00	3712	642	-3.7	-6.5	254	9
2023-08-04T06:00	3742	639	-3.9	-6.9	253	9
2023-08-04T06:00	3763	638	-4.0	-7.0	253	9
2023-08-04T06:00	3787	636	-4.2	-7.2	254	9
2023-08-04T06:00	3814	633	-4.4	-7.0	255	9
2023-08-04T06:00	3846	631	-4.6	-7.4	256	9
2023-08-04T06:00	3869	629	-4.8	-7.5	256	8
2023-08-04T06:00	3895	627	-5.0	-7.7	255	8
2023-08-04T06:00	3913	626	-5.2	-8.0	254	8
2023-08-04T06:00	3938	623	-5.3	-8.0	253	8
2023-08-04T06:00	3970	621	-5.5	-8.2	251	8
2023-08-04T06:00	3992	619	-5.6	-8.7	250	8
2023-08-04T06:00	4013	618	-5.7	-8.9	250	8
2023-08-04T06:00	4040	616	-5.8	-9.1	251	9
2023-08-04T06:00	4062	614	-6.0	-9.2	252	9
2023-08-04T06:00	4085	612	-6.1	-9.4	254	9
2023-08-04T06:00	4110	610	-6.3	-9.8	256	9
2023-08-04T06:00	4133	608	-6.5	-9.7	257	9
2023-08-04T06:00	4160	606	-6.7	-9.9	257	9
2023-08-04T06:00	4181	605	-6.8	-10.0	256	9
2023-08-04T06:00	4204	603	-7.0	-10.0	255	10
2023-08-04T06:00	4230	601	-7.1	-10.0	254	10
2023-08-04T06:00	4255	599	-7.3	-9.7	253	10
2023-08-04T06:00	4279	597	-7.6	-9.7	252	11
2023-08-04T06:00	4296	596	-7.7		250	11
2023-08-04T06:00	4319	594	-7.8	-9.9	247	10
2023-08-04T06:00	4348	592	-7.8	-11.1	244	10
2023-08-04T06:00	4375	590	-8.0	-11.4	242	10
2023-08-04T06:00	4398	588	-8.2	-11.6	240	10
2023-08-04T06:00	4422	586	-8.3	-11.6	239	9
2023-08-04T06:00	4445	584	-8.5	-11.2	239	9
2023-08-04T06:00	4475	582	-8.5	-12.1	239	9
2023-08-04T06:00	4506	580	-8.6	-12.6	240	10
2023-08-04T06:00	4528	578	-8.6	-13.0	241	10
2023-08-04T06:00	4548	577	-8.6	-13.4	243	10
2023-08-04T06:00	4574	575	-8.5	-13.5	244	10
2023-08-04T06:00	4605	572	-8.8	-13.7	245	11
2023-08-04T06:00	4632	571	-9.0	-13.2	245	11
2023-08-04T06:00	4654	569	-9.1	-12.8	244	11
2023-08-04T06:00	4674	567	-9.2	-12.7	242	11
2023-08-04T06:00	4696	566	-9.4	-13.1	240	11
2023-08-04T06:00	4717	564	-9.6	-13.1	239	12
2023-08-04T06:00	4746	562	-9.8	-13.2	239	12
2023-08-04T06:00	4779	560	-10.0	-13.8	238	12
2023-08-04T06:00	4800	558	-10.2	-13.9	237	11
2023-08-04T06:00	4823	556	-10.4	-13.9	235	11
2023-08-04T06:00	4853	554	-10.5	-14.2	232	11
2023-08-04T06:00	4879	552	-10.6	-14.2	230	11
2023-08-04T06:00	4909	550	-10.9	-14.2	228	11
2023-08-04T06:00	4940	548	-11.2	-14.3	226	11
2023-08-04T06:00	4969	546	-11.4	-14.3	225	12
2023-08-04T06:00	4989	545	-11.6	-14.5	225	12
2023-08-04T06:00	5013	543	-11.7	-14.8	226	12
2023-08-04T06:00	5043	541	-11.9	-15.1	227	12
2023-08-04T06:00	5064	539	-12.1	-15.3	229	11
2023-08-04T06:00	5094	537	-12.3	-15.6	230	11
2023-08-04T06:00	5123	535	-12.5	-15.6	231	11
2023-08-04T06:00	5150	533	-12.8	-15.8	230	11
2023-08-04T06:00	5175	531	-13.1	-15.8	228	11
2023-08-04T06:00	5204	530	-13.3	-16.5	226	11
2023-08-04T06:00	5227	528	-13.4	-17.8	224	11
2023-08-04T06:00	5256	526	-13.6	-18.5	223	12
2023-08-04T06:00	5283	524	-13.8	-19.0	222	12
2023-08-04T06:00	5310	522	-14.1	-19.3	220	12
2023-08-04T06:00	5336	520	-14.3	-18.9	219	13
2023-08-04T06:00	5362	519	-14.5	-18.0	217	13
2023-08-04T06:00	5383	517	-14.7	-17.5	216	13
2023-08-04T06:00	5406	516	-14.8	-17.4	216	13
2023-08-04T06:00	5434	514	-15.1	-17.7	215	13
2023-08-04T06:00	5464	512	-15.3	-18.4	216	14
2023-08-04T06:00	5492	510	-15.5		216	14
2023-08-04T06:00	5512	508	-15.6	-20.4	216	14
2023-08-04T06:00	5540	507	-15.9	-21.6	216	14
2023-08-04T06:00	5566	505	-16.1	-22.1	217	14
2023-08-04T06:00	5588	503	-16.3	-22.3	218	14
2023-08-04T06:00	5614	501	-16.5	-21.9	219	13
2023-08-04T06:00	5648	500	-16.8	-22.1	219	13
2023-08-04T06:00	5665	498	-16.8	-22.9	219	13
2023-08-04T06:00	5690	497	-17.0	-23.2	219	13
2023-08-04T06:00	5716	495	-17.2	-23.9	219	14
2023-08-04T06:00	5742	493	-17.3	-25.8	220	14
2023-08-04T06:00	5769	491	-17.3	-28.9	222	15
2023-08-04T06:00	5793	490	-17.4	-33.2	223	15
2023-08-04T06:00	5822	488	-17.3	-35.8	224	16
2023-08-04T06:00	5846	486	-17.5	-38.7	224	16
2023-08-04T06:00	5874	484	-17.7	-40.0	223	16
2023-08-04T06:00	5898	483	-17.8	-42.0	223	17
2023-08-04T06:00	5920	481	-17.7		223	17
2023-08-04T06:00	5947	480	-17.7	-46.7	223	18
2023-08-04T06:00	5973	478	-17.7	-46.8	223	18
2023-08-04T06:00	5995	477	-17.9	-46.5	224	19
2023-08-04T06:00	6023	475	-18.1	-46.3	226	19
2023-08-04T06:00	6056	473	-18.3	-44.5	226	19
2023-08-04T06:00	6076	472	-18.4	-43.8	226	19
2023-08-04T06:00	6100	470	-18.6	-43.2	225	20
2023-08-04T06:00	6132	468	-18.9	-42.8	223	20
2023-08-04T06:00	6160	466	-18.9	-43.5	222	20
2023-08-04T06:00	6179	465	-18.9	-44.1	221	20
2023-08-04T06:00	6201	464	-19.0	-43.0	220	20
2023-08-04T06:00	6223	462	-19.2	-42.7	220	20
2023-08-04T06:00	6245	461	-19.4	-42.6	221	20
2023-08-04T06:00	6271	459	-19.6	-42.4	222	19
2023-08-04T06:00	6302	458	-19.8	-44.8	222	19
2023-08-04T06:00	6331	456	-20.0	-46.1	222	19
2023-08-04T06:00	6365	454	-20.2	-46.7	223	19
2023-08-04T06:00	6397	452	-20.5	-47.4	223	20
2023-08-04T06:00	6419	450	-20.6	-47.9	224	21
2023-08-04T06:00	6448	449	-20.8	-48.4	226	22
2023-08-04T06:00	6480	447	-20.9	-48.7	227	23
2023-08-04T06:00	6510	445	-20.9	-48.3	228	25
2023-08-04T06:00	6536	443	-21.1	-48.2	229	25
2023-08-04T06:00	6580	441	-21.5	-48.0	229	26
2023-08-04T06:00	6610	439	-21.6	-46.8	228	26
2023-08-04T06:00	6639	437	-21.9	-46.6	228	27
2023-08-04T06:00	6672	435	-22.2	-46.8	228	27
2023-08-04T06:00	6707	433	-22.5	-46.8	228	27
2023-08-04T06:00	6735	431	-22.8	-46.7	228	28
2023-08-04T06:00	6761	430	-23.0	-46.5	229	28
2023-08-04T06:00	6789	428	-23.3	-46.6	229	29
2023-08-04T06:00	6821	426	-23.4	-45.3	229	29
2023-08-04T06:00	6848	425	-23.7	-45.7	229	30
2023-08-04T06:00	6879	423	-24.0	-45.8	228	31
2023-08-04T06:00	6902	422	-24.1	-45.4	228	31
2023-08-04T06:00	6929	420	-24.3	-45.3	227	32
2023-08-04T06:00	6949	419	-24.5	-45.1	226	32
2023-08-04T06:00	6983	417	-24.8	-45.2	226	32
2023-08-04T06:00	7013	415	-25.1	-45.1	226	33
2023-08-04T06:00	7043	414	-25.2	-44.5	227	33
2023-08-04T06:00	7071	412	-25.5	-44.6	227	33
2023-08-04T06:00	7097	410	-25.8	-44.8	228	33
2023-08-04T06:00	7120	409	-26.0	-44.6	228	34
2023-08-04T06:00	7149	408	-26.3	-43.9	227	34
2023-08-04T06:00	7169	406	-26.5	-43.6	227	34
2023-08-04T06:00	7199	405	-26.7	-43.9	227	34
2023-08-04T06:00	7223	403	-27.0	-43.8	226	34
2023-08-04T06:00	7252	402	-27.2	-44.3	226	35
2023-08-04T06:00	7279	400	-27.5	-43.8	226	35
2023-08-04T06:00	7309	399	-27.8	-42.4	226	35
2023-08-04T06:00	7335	397	-28.0	-39.3	226	35
2023-08-04T06:00	7364	396	-28.2	-32.2	225	35
2023-08-04T06:00	7392	394	-28.5	-33.2	224	35
2023-08-04T06:00	7416	393	-28.8	-33.1	224	34
2023-08-04T06:00	7445	391	-28.9	-32.6	224	34
2023-08-04T06:00	7474	390	-29.2	-32.7	223	34
2023-08-04T06:00	7503	388	-29.4	-33.0	223	34
2023-08-04T06:00	7529	386	-29.6	-32.9	223	34
2023-08-04T06:00	7562	385	-29.9	-33.0	223	33
2023-08-04T06:00	7587	383	-30.1	-33.0	222	33
2023-08-04T06:00	7613	382	-30.3	-33.3	222	33
2023-08-04T06:00	7640	381	-30.6	-33.3	222	32
2023-08-04T06:00	7667	379	-30.8	-33.4	222	32
2023-08-04T06:00	7699	377	-31.1	-33.5	222	32
2023-08-04T06:00	7731	376	-31.4	-33.7	222	32
2023-08-04T06:00	7764	374	-31.7	-33.8	222	32
2023-08-04T06:00	7795	372	-32.0	-33.8	222	32
2023-08-04T06:00	7818	371	-32.2	-34.1	222	33
2023-08-04T06:00	7842	370	-32.3	-34.6	223	33
2023-08-04T06:00	7862	369	-32.4	-34.6	223	33
2023-08-04T06:00	7894	367	-32.7	-34.9	223	33
2023-08-04T06:00	7919	366	-32.8	-35.6	224	33
2023-08-04T06:00	7946	364	-33.1	-35.7	224	33
2023-08-04T06:00	7972	363	-33.3	-35.8	224	33
2023-08-04T06:00	7993	362	-33.6	-35.7	223	33
2023-08-04T06:00	8021	361	-33.8	-36.4	223	32
2023-08-04T06:00	8051	359	-34.0	-37.5	223	33
2023-08-04T06:00	8076	358	-34.2	-37.4	223	33
2023-08-04T06:00	8099	357	-34.4	-37.1	223	33
2023-08-04T06:00	8130	355	-34.7	-37.2	223	33
2023-08-04T06:00	8158	354	-35.0	-37.7	223	33
2023-08-04T06:00	8182	352	-35.2	-38.7	223	33
2023-08-04T06:00	8207	351	-35.4	-39.0	223	34
2023-08-04T06:00	8228	350	-35.6	-39.4	223	34
2023-08-04T06:00	8249	349	-35.8	-40.1	222	34
2023-08-04T06:00	8276	348	-36.1	-40.6	222	34
2023-08-04T06:00	8304	346	-36.3	-40.9	222	34
2023-08-04T06:00	8328	345	-36.5	-41.6	222	34
2023-08-04T06:00	8359	344	-36.8	-42.3	222	34
2023-08-04T06:00	8383	342	-37.0	-42.1	223	34
2023-08-04T06:00	8400	341	-37.1	-43.0	223	34
2023-08-04T06:00	8421	340	-37.3	-44.3	223	34
2023-08-04T06:00	8441	339	-37.5	-44.1	224	34
2023-08-04T06:00	8461	338	-37.6	-45.1	224	34
2023-08-04T06:00	8483	337	-37.8	-45.5	224	35
2023-08-04T06:00	8506	336	-37.9	-46.1	225	35
2023-08-04T06:00	8530	335	-38.0	-48.1	225	35
2023-08-04T06:00	8554	334	-38.0	-50.7	226	34
2023-08-04T06:00	8582	333	-37.8	-59.1	227	34
2023-08-04T06:00	8612	331	-37.5	-58.6	227	34
2023-08-04T06:00	8637	330	-37.6	-57.7	227	33
2023-08-04T06:00	8663	329	-37.8	-57.6	227	33
2023-08-04T06:00	8687	327	-37.9	-57.5	227	33
2023-08-04T06:00	8718	326	-37.9	-57.7	226	33
2023-08-04T06:00	8740	325	-37.9	-57.8	226	33
2023-08-04T06:00	8763	324	-38.1	-57.9	226	33
2023-08-04T06:00	8788	323	-38.3	-57.8	226	33
2023-08-04T06:00	8811	322	-38.4	-57.8	226	33
2023-08-04T06:00	8833	321	-38.6	-57.9	225	33
2023-08-04T06:00	8858	319	-38.8	-58.1	225	33
2023-08-04T06:00	8888	318	-38.9	-58.1	225	34
2023-08-04T06:00	8915	317	-39.0	-58.3	225	34
2023-08-04T06:00	8939	316	-39.1	-58.2	225	35
2023-08-04T06:00	8965	315	-39.2	-58.5	225	35
2023-08-04T06:00	8992	313	-39.3	-58.8	225	36
2023-08-04T06:00	9022	312	-39.3	-59.3	225	37
2023-08-04T06:00	9048	311	-38.9	-59.4	226	38
2023-08-04T06:00	9079	309	-39.1	-59.0	226	39
2023-08-04T06:00	9109	308	-39.2	-58.4	227	40
2023-08-04T06:00	9130	307	-39.3	-57.8	227	40
2023-08-04T06:00	9158	306	-39.4	-57.3	228	41
2023-08-04T06:00	9182	305	-39.6	-56.5	228	41
2023-08-04T06:00	9208	304	-39.8	-56.2	228	42
2023-08-04T06:00	9238	302	-40.1	-56.0	228	42
2023-08-04T06:00	9262	301	-40.3	-54.9	228	42
2023-08-04T06:00	9290	300	-40.6	-54.4	227	41
2023-08-04T06:00	9310	299	-40.7	-54.0	227	41
2023-08-04T06:00	9332	298	-40.8	-54.2	227	40
2023-08-04T06:00	9360	297	-40.8	-56.2	226	39
2023-08-04T06:00	9382	296	-40.8	-58.1	226	39
2023-08-04T06:00	9408	295	-40.5	-60.4	225	38
2023-08-04T06:00	9432	294	-40.2	-61.2	223	37
2023-08-04T06:00	9452	293	-40.1	-61.0	222	37
2023-08-04T06:00	9472	292	-40.3	-61.1	220	37
2023-08-04T06:00	9502	291	-40.3	-61.4	218	38
2023-08-04T06:00	9529	290	-40.3		217	39
2023-08-04T06:00	9557	288	-40.4	-61.7	217	39
2023-08-04T06:00	9578	288	-40.5	-62.0	217	40
2023-08-04T06:00	9599	287	-40.4	-62.3	218	40
2023-08-04T06:00	9620	286	-40.5	-62.2	219	41
2023-08-04T06:00	9641	285	-40.6	-62.3	219	41
2023-08-04T06:00	9662	284	-40.7	-62.7	219	41
2023-08-04T06:00	9681	283	-40.7	-62.8	220	41
2023-08-04T06:00	9702	282	-40.9	-63.1	220	42
2023-08-04T06:00	9723	281	-40.9	-63.1	220	42
2023-08-04T06:00	9745	281	-41.0	-63.2	220	43
2023-08-04T06:00	9765	280	-41.1	-63.3	220	43
2023-08-04T06:00	9788	279	-41.1	-63.5	220	43
2023-08-04T06:00	9809	278	-40.8	-63.8	220	43
2023-08-04T06:00	9831	277	-40.8	-64.2	220	43
2023-08-04T06:00	9852	276	-40.9	-64.2	219	43
2023-08-04T06:00	9873	275	-41.0	-64.5	219	43
2023-08-04T06:00	9896	274	-41.0	-64.6	219	44
2023-08-04T06:00	9917	274	-40.9	-64.8	218	44
2023-08-04T06:00	9941	273	-40.8	-65.0	218	44
2023-08-04T06:00	9962	272	-40.6	-64.9	218	44
2023-08-04T06:00	9983	271	-40.6	-64.9	218	44
2023-08-04T06:00	10005	270	-40.5	-64.9	217	45
2023-08-04T06:00	10025	269	-40.4	-64.9	217	45
2023-08-04T06:00	10048	268	-40.4	-65.0	216	45
2023-08-04T06:00	10071	267	-40.5	-65.1	216	45
2023-08-04T06:00	10092	267	-40.6	-65.0	216	46
2023-08-04T06:00	10113	266	-40.6	-65.0	215	46
2023-08-04T06:00	10134	265	-40.8	-65.2	215	46
2023-08-04T06:00	10156	264	-40.9	-65.1	215	46
2023-08-04T06:00	10177	263	-41.0	-65.3	215	46
2023-08-04T06:00	10198	262	-41.1	-65.4	214	45
2023-08-04T06:00	10220	262	-41.2	-65.7	214	45
2023-08-04T06:00	10244	261	-41.4		214	45
2023-08-04T06:00	10266	260	-41.5	-65.9	214	45
2023-08-04T06:00	10293	259	-41.6	-66.3	213	46
2023-08-04T06:00	10316	258	-41.6	-66.3	213	46
2023-08-04T06:00	10338	257	-41.5	-66.1	213	47
2023-08-04T06:00	10361	256	-41.5	-65.7	213	48
2023-08-04T06:00	10382	255	-41.6	-65.7	214	49
2023-08-04T06:00	10403	255	-41.7	-65.3	214	50
2023-08-04T06:00	10423	254	-41.6	-64.8	214	50
2023-08-04T06:00	10453	253	-41.6	-64.3	214	51
2023-08-04T06:00	10482	252	-41.4	-63.9	213	52
2023-08-04T06:00	10504	251	-41.5	-64.1	213	52
2023-08-04T06:00	10525	250	-41.6	-64.2	213	52
2023-08-04T06:00	10544	249	-41.8	-64.3	213	52
2023-08-04T06:00	10563	249	-41.8	-64.3	213	52
2023-08-04T06:00	10584	248	-41.8	-64.3	213	52
2023-08-04T06:00	10605	247	-41.9	-64.4	214	52
2023-08-04T06:00	10626	246	-42.0	-64.5	214	52
2023-08-04T06:00	10645	246	-42.1	-64.4	214	52
2023-08-04T06:00	10666	245	-42.1	-64.4	215	51
2023-08-04T06:00	10684	244	-42.1	-64.3	215	51
2023-08-04T06:00	10704	244	-42.2	-64.4	216	50
2023-08-04T06:00	10723	243	-42.3	-64.4	216	50
2023-08-04T06:00	10744	242	-42.4	-64.8	216	49
2023-08-04T06:00	10766	241	-42.4	-65.5	217	48
2023-08-04T06:00	10792	240	-42.1	-65.8	217	48
2023-08-04T06:00	10818	240	-42.2	-66.2	218	48
2023-08-04T06:00	10842	239	-42.4	-66.6	218	48
2023-08-04T06:00	10866	238	-42.5	-67.4	219	48
2023-08-04T06:00	10893	237	-42.6	-67.3	219	48
2023-08-04T06:00	10919	236	-42.4	-65.7	218	48
2023-08-04T06:00	10942	235	-42.5	-64.8	218	49
2023-08-04T06:00	10968	234	-42.7	-64.5	218	49
2023-08-04T06:00	10987	234	-42.9	-64.1	217	49
2023-08-04T06:00	11005	233	-43.0	-63.7	217	48
2023-08-04T06:00	11024	232	-42.9	-63.8	216	48
2023-08-04T06:00	11047	232	-42.7	-64.5	215	48
2023-08-04T06:00	11067	231	-42.4	-65.3	214	47
2023-08-04T06:00	11096	230	-41.9	-66.2	214	47
2023-08-04T06:00	11119	229	-41.7	-66.7	214	47
2023-08-04T06:00	11141	228	-41.8	-66.6	213	47
2023-08-04T06:00	11159	228	-41.9	-66.5	213	47
2023-08-04T06:00	11183	227	-42.1	-66.5	213	47
2023-08-04T06:00	11204	226	-42.3	-66.5	213	47
2023-08-04T06:00	11225	226	-42.5	-66.7	213	47
2023-08-04T06:00	11246	225	-42.7	-66.7	213	48
2023-08-04T06:00	11268	224	-42.9	-66.7	213	48
2023-08-04T06:00	11290	223	-43.1	-66.9	213	48
2023-08-04T06:00	11312	223	-43.3	-66.9	213	48
2023-08-04T06:00	11335	222	-43.6	-67.0	213	48
2023-08-04T06:00	11356	221	-43.8	-67.1	213	48
2023-08-04T06:00	11379	220	-44.0	-67.2	213	48
2023-08-04T06:00	11402	220	-44.2	-67.3	213	48
2023-08-04T06:00	11425	219	-44.4	-67.5	212	49
2023-08-04T06:00	11448	218	-44.5	-68.0	212	49
2023-08-04T06:00	11471	217	-44.1	-69.0	212	50
2023-08-04T06:00	11495	217	-43.2	-70.1	212	50
2023-08-04T06:00	11518	216	-42.7	-70.7	213	50
2023-08-04T06:00	11540	215	-42.6	-70.9	213	50
2023-08-04T06:00	11562	214	-42.7	-71.0	213	50
2023-08-04T06:00	11584	214	-42.9	-70.9	213	50
2023-08-04T06:00	11610	213	-43.0	-70.9	214	50
2023-08-04T06:00	11632	212	-43.2	-71.1	214	50
2023-08-04T06:00	11655	212	-43.3	-71.2	215	50
2023-08-04T06:00	11678	211	-43.4	-71.2	216	50
2023-08-04T06:00	11701	210	-43.5	-71.3	216	50
2023-08-04T06:00	11723	209	-43.6	-71.4	217	50
2023-08-04T06:00	11746	209	-43.7	-71.8	217	50
2023-08-04T06:00	11768	208	-43.7	-71.8	218	51
2023-08-04T06:00	11790	207	-43.8	-71.8	218	51
2023-08-04T06:00	11813	207	-43.9	-71.9	218	51
2023-08-04T06:00	11835	206	-44.1	-71.8	219	51
2023-08-04T06:00	11858	205	-44.3	-71.9	219	51
2023-08-04T06:00	11881	205	-44.5	-72.1	219	51
2023-08-04T06:00	11904	204	-44.7	-72.3	219	51
2023-08-04T06:00	11927	203	-44.8	-72.3	220	51
2023-08-04T06:00	11948	203	-45.0	-72.5	220	51
2023-08-04T06:00	11970	202	-45.2	-72.4	220	51
2023-08-04T06:00	11990	201	-45.4	-72.5	221	51
2023-08-04T06:00	12012	201	-45.5	-72.6	221	51
2023-08-04T06:00	12035	200	-45.7	-72.5	221	51
2023-08-04T06:00	12054	199	-45.8	-72.6	222	51
2023-08-04T06:00	12074	199	-46.0	-72.8	222	51
2023-08-04T06:00	12096	198	-46.1	-72.6	223	50
2023-08-04T06:00	12121	197	-46.3	-73.0	223	50
2023-08-04T06:00	12146	197	-46.2	-73.2	224	49
2023-08-04T06:00	12166	196	-46.1	-73.3	225	49
2023-08-04T06:00	12189	195	-46.0	-73.5	226	48
2023-08-04T06:00	12213	195	-46.2	-74.0	226	47
2023-08-04T06:00	12234	194	-46.1	-74.2	227	47
2023-08-04T06:00	12257	193	-46.2	-74.2	227	46
2023-08-04T06:00	12283	193	-46.2	-74.5	228	45
2023-08-04T06:00	12311	192	-46.2	-74.9	228	44
2023-08-04T06:00	12339	191	-46.1	-75.1	229	42
2023-08-04T06:00	12369	190	-46.4	-75.3	229	41
2023-08-04T06:00	12406	189	-46.5	-75.4	228	40
2023-08-04T06:00	12433	188	-46.5	-75.4	228	38
2023-08-04T06:00	12461	187	-46.6	-75.5	227	37
2023-08-04T06:00	12498	186	-46.7	-75.6	226	36
2023-08-04T06:00	12527	186	-46.7	-75.9	225	35
2023-08-04T06:00	12549	185	-46.5	-75.8	225	35
2023-08-04T06:00	12571	184	-46.7	-75.9	224	34
2023-08-04T06:00	12590	184	-46.7	-75.9	223	34
2023-08-04T06:00	12612	183	-46.8	-76.3	222	34
2023-08-04T06:00	12632	183	-46.8	-76.3	221	34
2023-08-04T06:00	12655	182	-46.9	-76.1	221	34
2023-08-04T06:00	12675	182	-47.0	-76.1	220	33
2023-08-04T06:00	12696	181	-47.2	-76.3	219	33
2023-08-04T06:00	12714	180	-47.3	-76.0	219	33
2023-08-04T06:00	12737	180	-47.4	-76.1	218	34
2023-08-04T06:00	12758	179	-47.6	-76.3	218	34
2023-08-04T06:00	12781	179	-47.7	-76.3	217	34
2023-08-04T06:00	12805	178	-47.9	-76.5	216	34
2023-08-04T06:00	12827	177	-48.0	-76.2	215	34
2023-08-04T06:00	12850	177	-48.2	-76.4	214	34
2023-08-04T06:00	12872	176	-48.4	-76.2	213	34
2023-08-04T06:00	12893	176	-48.5	-76.3	213	34
2023-08-04T06:00	12915	175	-48.7	-76.5	212	34
2023-08-04T06:00	12937	174	-48.8	-76.2	212	34
2023-08-04T06:00	12959	174	-49.0	-76.4	211	34
2023-08-04T06:00	12979	173	-49.1	-76.2	211	34
2023-08-04T06:00	13001	173	-49.3	-76.4	211	34
2023-08-04T06:00	13023	172	-49.5	-76.2	211	35
2023-08-04T06:00	13047	172	-49.7	-76.4	211	35
2023-08-04T06:00	13068	171	-49.7	-76.4	212	36
2023-08-04T06:00	13089	170	-49.4	-76.2	212	37
2023-08-04T06:00	13114	170	-49.2	-76.3	213	38
2023-08-04T06:00	13135	169	-48.9	-76.3	214	38
2023-08-04T06:00	13156	169	-48.9	-76.6	215	39
2023-08-04T06:00	13177	168	-48.9	-76.6	217	39
2023-08-04T06:00	13204	167	-49.0	-77.0	218	38
2023-08-04T06:00	13243	167	-48.6	-76.7	220	38
2023-08-04T06:00	13282	166	-48.4	-76.9	222	37
2023-08-04T06:00	13311	165	-48.6	-77.0	225	37
2023-08-04T06:00	13344	164	-48.6	-77.0	227	36
2023-08-04T06:00	13376	163	-48.6	-77.4	229	36
2023-08-04T06:00	13412	162	-48.7	-77.4	231	35
2023-08-04T06:00	13443	162	-48.6	-77.4	232	34
2023-08-04T06:00	13470	161	-48.7	-77.4	233	34
2023-08-04T06:00	13494	160	-48.8	-77.5	234	33
2023-08-04T06:00	13520	160	-48.6	-77.4	234	32
2023-08-04T06:00	13546	159	-48.7	-77.4	235	32
2023-08-04T06:00	13573	158	-48.7	-77.4	235	31
2023-08-04T06:00	13597	158	-48.8	-77.5	236	30
2023-08-04T06:00	13622	157	-48.8	-77.9	237	29
2023-08-04T06:00	13648	157	-48.8	-77.9	237	28
2023-08-04T06:00	13675	156	-48.8	-77.9	238	27
2023-08-04T06:00	13704	155	-48.8	-77.9	238	26
2023-08-04T06:00	13738	154	-48.9	-77.9	239	26
2023-08-04T06:00	13767	154	-48.9	-77.9	239	25
2023-08-04T06:00	13788	153	-49.0	-78.0	239	24
2023-08-04T06:00	13811	153	-49.1	-78.1	239	23
2023-08-04T06:00	13835	152	-49.1	-78.1	239	22
2023-08-04T06:00	13862	152	-49.2	-78.2	238	22
2023-08-04T06:00	13886	151	-49.3	-78.2	237	21
2023-08-04T06:00	13911	150	-49.4	-78.3	236	20
2023-08-04T06:00	13941	150	-49.5	-78.4	235	19
2023-08-04T06:00	13966	149	-49.5	-78.4	233	18
2023-08-04T06:00	13996	148	-49.6	-78.5	230	18
2023-08-04T06:00	14022	148	-49.8	-78.6	228	17
2023-08-04T06:00	14050	147	-49.9	-78.7	225	17
2023-08-04T06:00	14075	147	-49.9	-78.7	223	17
2023-08-04T06:00	14097	146	-50.0	-78.8	221	18
2023-08-04T06:00	14122	146	-50.0	-78.8	220	18
2023-08-04T06:00	14144	145	-49.9	-78.7	218	18
2023-08-04T06:00	14166	145	-49.9	-78.7	217	18
2023-08-04T06:00	14189	144	-49.9	-78.3	215	18
2023-08-04T06:00	14212	144	-50.0	-78.4	214	18
2023-08-04T06:00	14236	143	-50.1	-78.5	212	19
2023-08-04T06:00	14258	143	-50.2	-78.6	211	19
2023-08-04T06:00	14284	142	-50.4	-78.4	210	19
2023-08-04T06:00	14303	142	-50.5	-78.5	209	19
2023-08-04T06:00	14325	141	-50.6	-78.5	209	20
2023-08-04T06:00	14350	141	-50.6	-78.5	209	20
2023-08-04T06:00	14369	140	-50.7	-79.0	209	21
2023-08-04T06:00	14392	140	-50.6	-78.9	208	21
2023-08-04T06:00	14415	139	-50.8	-79.0	208	22
2023-08-04T06:00	14435	139	-50.9	-79.1	207	22
2023-08-04T06:00	14458	138	-51.0	-79.2	207	23
2023-08-04T06:00	14480	138	-51.1	-79.3	206	23
2023-08-04T06:00	14501	137	-51.3	-79.4	206	24
2023-08-04T06:00	14523	137	-51.4	-79.5	206	24
2023-08-04T06:00	14542	137	-51.6	-79.6	206	25
2023-08-04T06:00	14565	136	-51.7	-79.7	206	26
2023-08-04T06:00	14583	136	-51.5	-79.9	206	26
2023-08-04T06:00	14602	135	-51.2	-80.1	205	27
2023-08-04T06:00	14624	135	-50.8	-79.8	205	27
2023-08-04T06:00	14642	134	-50.6	-80.0	205	27
2023-08-04T06:00	14663	134	-50.3	-79.8	206	27
2023-08-04T06:00	14684	134	-49.8	-79.4	206	27
2023-08-04T06:00	14705	133	-49.8	-79.4	207	27
2023-08-04T06:00	14726	133	-49.9	-79.5	208	27
2023-08-04T06:00	14748	132	-50.1	-79.6	210	27
2023-08-04T06:00	14766	132	-50.2	-79.7	211	26
2023-08-04T06:00	14787	132	-49.9	-79.5	212	26
2023-08-04T06:00	14805	131	-49.7	-79.3	212	26
2023-08-04T06:00	14826	131	-49.8	-79.4	213	26
2023-08-04T06:00	14843	130	-49.9	-79.5	214	26
2023-08-04T06:00	14867	130	-50.1	-79.6	215	26
2023-08-04T06:00	14890	129	-50.1	-79.6	216	26
2023-08-04T06:00	14908	129	-50.2	-79.7	216	26
2023-08-04T06:00	14928	129	-50.3	-79.8	217	25
2023-08-04T06:00	14946	128	-50.1	-79.6	217	25
2023-08-04T06:00	14970	128	-50.2	-79.7	217	25
2023-08-04T06:00	14990	127	-50.3	-80.2	217	24
2023-08-04T06:00	15015	127	-50.2	-80.1	217	23
2023-08-04T06:00	15038	127	-49.8	-80.3	216	23
2023-08-04T06:00	15059	126	-49.6	-80.1	215	22
2023-08-04T06:00	15083	126	-49.8	-80.3	214	22
2023-08-04T06:00	15105	125	-50.0	-80.0	213	22
2023-08-04T06:00	15126	125	-50.2	-80.1	213	22
2023-08-04T06:00	15147	124	-50.3	-80.2	212	21
2023-08-04T06:00	15170	124	-50.4	-80.3	212	21
2023-08-04T06:00	15194	124	-50.6	-80.4	212	21
2023-08-04T06:00	15216	123	-50.7	-80.5	212	20
2023-08-04T06:00	15238	123	-50.8	-80.6	212	20
2023-08-04T06:00	15260	122	-50.9	-80.6	212	20
2023-08-04T06:00	15285	122	-51.0	-80.7	212	20
2023-08-04T06:00	15307	121	-51.1	-80.8	213	19
2023-08-04T06:00	15333	121	-51.1	-80.8	213	19
2023-08-04T06:00	15354	121	-51.0	-80.7	214	19
2023-08-04T06:00	15375	120	-50.8	-80.6	214	19
2023-08-04T06:00	15400	120	-50.8	-80.6	215	19
2023-08-04T06:00	15420	119	-51.0	-80.7	217	19
2023-08-04T06:00	15445	119	-50.9	-80.6	218	19
2023-08-04T06:00	15469	118	-51.0	-80.7	220	18
2023-08-04T06:00	15489	118	-51.1	-80.8	221	18
2023-08-04T06:00	15512	118	-51.3	-80.9	222	17
2023-08-04T06:00	15532	117	-51.2	-80.9	222	17
2023-08-04T06:00	15555	117	-51.1	-80.8	222	17
2023-08-04T06:00	15577	117	-51.2	-81.3	221	17
2023-08-04T06:00	15598	116	-51.3	-81.4	220	17
2023-08-04T06:00	15619	116	-51.2	-81.3	219	17
2023-08-04T06:00	15640	115	-51.2	-81.3	218	17
2023-08-04T06:00	15665	115	-51.2	-81.3	218	18
2023-08-04T06:00	15689	115	-50.5	-80.8	217	18
2023-08-04T06:00	15715	114	-50.5	-80.8	217	18
2023-08-04T06:00	15737	114	-50.6	-80.9	218	18
2023-08-04T06:00	15763	113	-50.8	-81.0	218	18
2023-08-04T06:00	15788	113	-51.0	-81.2	219	19
2023-08-04T06:00	15812	112	-51.2	-80.9	219	19
2023-08-04T06:00	15837	112	-51.4	-81.0	220	19
2023-08-04T06:00	15858	112	-51.7	-81.2	220	19
2023-08-04T06:00	15880	111	-51.9	-81.4	220	19
2023-08-04T06:00	15907	111	-52.1	-81.1	221	19
2023-08-04T06:00	15929	110	-52.3	-81.3	221	19
2023-08-04T06:00	15955	110	-52.5	-81.4	221	19
2023-08-04T06:00	15979	110	-52.8	-81.7	222	20
2023-08-04T06:00	16005	109	-53.0	-81.8	223	20
2023-08-04T06:00	16027	109	-53.2	-82.0	223	20
2023-08-04T06:00	16050	108	-53.4	-82.1	224	20
2023-08-04T06:00	16072	108	-53.6	-82.3	224	20
2023-08-04T06:00	16094	108	-53.7	-82.3	225	20
2023-08-04T06:00	16120	107	-53.6	-82.3	225	19
2023-08-04T06:00	16140	107	-53.6	-82.3	226	19
2023-08-04T06:00	16164	106	-53.7	-82.3	227	18
2023-08-04T06:00	16189	106	-53.7	-82.3	228	18
2023-08-04T06:00	16210	106	-53.7	-82.3	230	17
2023-08-04T06:00	16233	105	-53.7	-82.3	232	17
2023-08-04T06:00	16255	105	-53.5	-82.2	233	17
2023-08-04T06:00	16279	105	-53.5	-82.2	235	17
2023-08-04T06:00	16303	104	-53.6	-82.3	236	16
2023-08-04T06:00	16325	104	-53.7	-82.3	237	16
2023-08-04T06:00	16347	103	-53.7	-82.3	238	15
2023-08-04T06:00	16368	103	-53.7	-82.3	238	15
2023-08-04T06:00	16391	103	-53.6	-82.3	238	14
2023-08-04T06:00	16413	102	-53.5	-82.6	237	14
2023-08-04T06:00	16438	102	-53.7	-82.8	235	13
2023-08-04T06:00	16461	102	-53.4	-83.0	233	12
2023-08-04T06:00	16483	101	-52.6	-82.4	230	12
2023-08-04T06:00	16510	101	-52.4	-82.2	228	11
2023-08-04T06:00	16534	100	-52.5	-82.3	225	11
2023-08-04T06:00	16560	100	-52.6	-82.4	221	10
2023-08-04T06:00	16587	100	-52.7	-82.4	218	10
2023-08-04T06:00	16609	99	-52.9	-82.1	214	10
2023-08-04T06:00	16636	99	-52.9	-82.1	210	10
2023-08-04T06:00	16663	98	-52.9	-82.1	206	10
2023-08-04T06:00	16686	98	-53.0	-82.2	202	10
2023-08-04T06:00	16712	98	-53.0	-82.2	199	10
2023-08-04T06:00	16736	97	-53.1	-82.3	196	10
2023-08-04T06:00	16760	97	-53.2	-82.4	194	10
2023-08-04T06:00	16783	97	-53.3	-82.5	193	11
2023-08-04T06:00	16808	96	-53.4	-82.5	192	11
2023-08-04T06:00	16831	96	-53.6	-82.3	192	11
2023-08-04T06:00	16855	96	-53.7	-82.3	192	12
2023-08-04T06:00	16880	95	-53.9	-82.5	193	12
2023-08-04T06:00	16903	95	-54.1	-82.6	194	12
2023-08-04T06:00	16927	95	-54.2	-82.7	195	12
2023-08-04T06:00	16951	94	-54.1	-82.6	196	12
2023-08-04T06:00	16974	94	-53.9	-82.5	196	12
2023-08-04T06:00	16995	94	-53.9	-82.5	197	12
2023-08-04T06:00	17018	93	-54.0	-82.6	198	12
2023-08-04T06:00	17041	93	-54.1	-82.6	199	12
2023-08-04T06:00	17066	92	-54.2	-82.7	200	11
2023-08-04T06:00	17089	92	-54.3	-82.8	202	11
2023-08-04T06:00	17112	92	-54.4	-82.9	203	11
2023-08-04T06:00	17134	91	-54.4	-82.9	204	10
2023-08-04T06:00	17155	91	-54.4	-82.9	205	10
2023-08-04T06:00	17180	91	-54.4	-82.9	205	10
2023-08-04T06:00	17205	91	-54.4	-83.3	204	10
2023-08-04T06:00	17224	90	-54.3	-83.2	204	10
2023-08-04T06:00	17250	90	-54.4	-83.3	204	10
2023-08-04T06:00	17274	90	-54.4	-83.3	204	10
2023-08-04T06:00	17296	89	-54.4	-83.3	204	10
2023-08-04T06:00	17319	89	-54.4	-83.3	204	10
2023-08-04T06:00	17340	89	-54.4	-83.3	204	10
2023-08-04T06:00	17362	88	-54.3	-83.2	203	10
2023-08-04T06:00	17389	88	-54.0	-83.4	202	10
2023-08-04T06:00	17411	88	-53.5	-83.0	200	10
2023-08-04T06:00	17432	87	-52.9	-83.1	198	10
2023-08-04T06:00	17454	87	-52.4	-82.7	195	10
2023-08-04T06:00	17481	87	-52.1	-83.0	192	10
2023-08-04T06:00	17501	86	-52.0	-82.9	189	10
2023-08-04T06:00	17524	86	-52.0	-82.9	186	10
2023-08-04T06:00	17549	86	-51.9	-82.8	184	10
2023-08-04T06:00	17567	86	-51.5	-82.5	183	10
2023-08-04T06:00	17593	85	-50.6	-82.4	183	9
2023-08-04T06:00	17616	85	-49.8	-81.8	182	9
2023-08-04T06:00	17639	85	-49.7	-81.8	182	9
2023-08-04T06:00	17663	84	-49.7	-81.8	181	9
2023-08-04T06:00	17683	84	-49.7	-81.2	181	9
2023-08-04T06:00	17707	84	-49.8	-81.3	182	9
2023-08-04T06:00	17732	83	-49.9	-81.3	182	9
2023-08-04T06:00	17750	83	-49.9	-81.3	183	9
2023-08-04T06:00	17773	83	-50.0	-81.4	184	9
2023-08-04T06:00	17794	83	-50.0	-81.4	184	9
2023-08-04T06:00	17817	82	-50.0	-81.4	184	9
2023-08-04T06:00	17838	82	-49.9	-81.3	184	8
2023-08-04T06:00	17862	82	-49.9	-81.3	183	8
2023-08-04T06:00	17882	82	-50.0	-81.4	181	8
2023-08-04T06:00	17908	81	-50.1	-81.5	179	7
2023-08-04T06:00	17932	81	-50.2		176	7
2023-08-04T06:00	17954	81	-50.2		173	7
2023-08-04T06:00	17976	80	-50.3	-81.1	171	6
2023-08-04T06:00	18003	80	-50.5	-81.3	169	6
2023-08-04T06:00	18021	80	-50.6	-81.3	168	6
2023-08-04T06:00	18045	80	-50.8	-81.5	168	7
2023-08-04T06:00	18072	79	-51.0	-81.6	167	7
2023-08-04T06:00	18095	79	-51.1	-81.7	167	7
2023-08-04T06:00	18117	79	-51.3	-81.9	165	7
2023-08-04T06:00	18140	78	-51.5	-81.5	164	8
2023-08-04T06:00	18163	78	-51.7	-81.7	162	8
2023-08-04T06:00	18189	78	-51.9	-81.8	161	8
2023-08-04T06:00	18214	77	-52.0	-81.9	161	8
2023-08-04T06:00	18234	77	-52.1	-82.0	162	9
2023-08-04T06:00	18260	77	-52.3	-82.1	162	9
2023-08-04T06:00	18287	77	-52.5	-82.3	163	9
2023-08-04T06:00	18309	76	-52.7	-82.4	163	9
2023-08-04T06:00	18332	76	-52.9	-82.6	164	9
2023-08-04T06:00	18359	76	-53.1	-82.3	165	9
2023-08-04T06:00	18386	75	-53.3	-82.5	166	9
2023-08-04T06:00	18408	75	-53.5	-82.6	168	9
2023-08-04T06:00	18433	75	-53.7	-82.8	170	9
2023-08-04T06:00	18460	75	-53.8	-82.8	170	9
2023-08-04T06:00	18486	74	-53.8	-82.8	170	8
2023-08-04T06:00	18512	74	-53.7	-83.2	170	8
2023-08-04T06:00	18538	74	-53.7	-83.2	170	7
2023-08-04T06:00	18561	73	-53.6	-83.1	171	7
2023-08-04T06:00	18585	73	-53.3		173	7
2023-08-04T06:00	18610	73	-52.6	-82.8	175	7
2023-08-04T06:00	18633	73	-52.3	-83.1	177	8
2023-08-04T06:00	18661	72	-52.3	-83.1	177	8
2023-08-04T06:00	18684	72	-52.0	-82.9	178	9
2023-08-04T06:00	18708	72	-51.9	-82.8	178	9
2023-08-04T06:00	18733	71	-51.9	-82.3	180	9
2023-08-04T06:00	18759	71	-52.0	-82.4	182	9
2023-08-04T06:00	18782	71	-52.2	-82.5	184	9
2023-08-04T06:00	18806	71	-52.3	-82.6	188	9
2023-08-04T06:00	18833	70	-52.6	-82.4	191	9
2023-08-04T06:00	18858	70	-52.8	-82.5	195	9
2023-08-04T06:00	18882	70	-52.7	-82.4	198	9
2023-08-04T06:00	18907	70	-52.6	-82.4	201	9
2023-08-04T06:00	18929	69	-52.8	-82.5	203	9
2023-08-04T06:00	18954	69	-52.8	-82.5	204	9
2023-08-04T06:00	18976	69	-53.0	-83.1	203	9
2023-08-04T06:00	19002	69	-53.0	-83.1	201	9
2023-08-04T06:00	19024	68	-52.6	-82.8	198	9
2023-08-04T06:00	19047	68	-52.0	-82.4	195	9
2023-08-04T06:00	19073	68	-52.1	-82.5	192	9
2023-08-04T06:00	19098	68	-52.2	-82.5	189	10
2023-08-04T06:00	19127	67	-52.4	-82.7	186	10
2023-08-04T06:00	19150	67	-52.5	-82.8	185	11
2023-08-04T06:00	19177	67	-52.6	-82.8	184	11
2023-08-04T06:00	19196	67	-52.8	-83.0	185	11
2023-08-04T06:00	19228	66	-52.6	-82.8	186	11
2023-08-04T06:00	19252	66	-52.5	-82.8	189	11
2023-08-04T06:00	19274	66	-52.1	-83.0	193	10
2023-08-04T06:00	19299	65	-51.6	-82.6	197	10
2023-08-04T06:00	19325	65	-51.5	-82.5	201	9
2023-08-04T06:00	19350	65	-51.5	-83.1	204	9
2023-08-04T06:00	19372	65	-51.0	-82.7	204	8
2023-08-04T06:00	19398	64	-50.3	-82.2	203	9
2023-08-04T06:00	19429	64	-50.4	-82.3	199	9
2023-08-04T06:00	19455	64	-50.6	-82.4	196	10
2023-08-04T06:00	19480	64	-50.6	-81.9	194	11
2023-08-04T06:00	19501	63	-50.6	-81.9	194	11
2023-08-04T06:00	19523	63	-50.4	-81.7	194	11
2023-08-04T06:00	19549	63	-50.3	-81.6	195	11
2023-08-04T06:00	19575	63	-50.3	-82.2	197	11
2023-08-04T06:00	19600	63	-50.3	-82.2	197	11
2023-08-04T06:00	19621	62	-50.2	-82.1	196	11
2023-08-04T06:00	19646	62	-50.0	-82.0	194	10
2023-08-04T06:00	19669	62	-49.6	-81.7	192	10
2023-08-04T06:00	19693	62	-49.6	-81.7	190	10
2023-08-04T06:00	19720	61	-49.8	-81.8	188	10
2023-08-04T06:00	19748	61	-49.9	-81.3	187	11
2023-08-04T06:00	19768	61	-50.0	-81.4	185	11
2023-08-04T06:00	19795	61	-50.2		182	11
2023-08-04T06:00	19820	60	-50.4	-81.7	179	11
2023-08-04T06:00	19848	60	-50.5	-81.8	177	11
2023-08-04T06:00	19876	60	-50.7	-81.4	175	11
2023-08-04T06:00	19901	60	-50.9	-81.6	174	12
2023-08-04T06:00	19930	59	-51.1	-81.7	174	12
2023-08-04T06:00	19951	59	-51.3	-81.9	174	12
2023-08-04T06:00	19982	59	-51.5	-82.0	173	12
2023-08-04T06:00	20009	59	-51.7	-82.2	173	12
2023-08-04T06:00	20033	59	-51.9	-82.3	173	12
2023-08-04T06:00	20057	58	-52.0	-82.4	173	12
2023-08-04T06:00	20083	58	-52.2	-82.5	174	12
2023-08-04T06:00	20108	58	-52.3	-82.6	176	12
2023-08-04T06:00	20132	58	-52.3	-82.6	179	12
2023-08-04T06:00	20163	57	-52.3	-82.6	182	11
2023-08-04T06:00	20192	57	-52.3	-82.6	185	11
2023-08-04T06:00	20214	57	-52.3	-82.6	188	11
2023-08-04T06:00	20240	57	-52.4	-82.7	191	10
2023-08-04T06:00	20265	56	-52.3	-82.6	194	9
2023-08-04T06:00	20294	56	-52.3	-83.1	198	8
2023-08-04T06:00	20318	56	-52.0	-82.9	201	7
2023-08-04T06:00	20353	56	-51.6	-82.6	205	7
2023-08-04T06:00	20373	56	-51.6	-82.6	209	6
2023-08-04T06:00	20405	55	-51.7	-82.7	212	5
2023-08-04T06:00	20429	55	-51.7	-82.7	214	4
2023-08-04T06:00	20459	55	-51.9	-82.3	216	4
2023-08-04T06:00	20488	55	-51.9	-82.3	218	3
2023-08-04T06:00	20512	54	-52.0	-82.4	220	3
2023-08-04T06:00	20542	54	-52.2	-82.5	219	2
2023-08-04T06:00	20566	54	-52.4	-82.7	213	2
2023-08-04T06:00	20595	54	-52.6	-82.4	200	2
2023-08-04T06:00	20620	53	-52.8	-82.5	179	2
2023-08-04T06:00	20645	53	-53.0	-82.7	158	2
2023-08-04T06:00	20677	53	-53.2	-83.3	146	3
2023-08-04T06:00	20701	53	-53.0	-83.1	141	4
2023-08-04T06:00	20729	53	-52.5	-82.8	140	5
2023-08-04T06:00	20752	52	-52.3	-83.1	142	6
2023-08-04T06:00	20779	52	-52.2	-83.1	144	7
2023-08-04T06:00	20804	52	-51.9	-82.8	148	7
2023-08-04T06:00	20838	52	-51.7	-82.7	151	8
2023-08-04T06:00	20865	51	-51.8	-82.8	154	8
2023-08-04T06:00	20888	51	-51.9	-82.8	157	8
2023-08-04T06:00	20915	51	-52.2	-82.5	160	9
2023-08-04T06:00	20939	51	-52.4	-82.7	163	9
2023-08-04T06:00	20969	51	-52.6	-82.8	166	9
2023-08-04T06:00	20993	50	-52.8	-83.0	169	9
2023-08-04T06:00	21020	50	-52.8	-83.0	171	9
2023-08-04T06:00	21049	50	-52.5	-82.8	173	9
2023-08-04T06:00	21070	50	-52.3	-82.6	173	9
2023-08-04T06:00	21096	50	-52.3	-82.6	173	8
2023-08-04T06:00	21123	49	-52.4	-82.7	173	7
2023-08-04T06:00	21152	49	-52.5	-82.8	172	7
2023-08-04T06:00	21176	49	-52.7	-82.9	172	6
2023-08-04T06:00	21205	49	-52.7	-82.9	172	5
2023-08-04T06:00	21227	49	-52.6	-82.8	173	5
2023-08-04T06:00	21250	48	-52.6	-83.3	172	5
2023-08-04T06:00	21279	48	-52.6	-83.3	171	4
2023-08-04T06:00	21307	48	-52.2	-83.1	168	5
2023-08-04T06:00	21328	48	-51.9	-82.8	166	5
2023-08-04T06:00	21355	48	-52.0	-82.9	164	6
2023-08-04T06:00	21383	48	-52.1	-83.0	163	7
2023-08-04T06:00	21406	47	-52.2	-83.1	163	7
2023-08-04T06:00	21430	47	-52.3	-83.1	163	8
2023-08-04T06:00	21456	47	-52.2	-83.1	163	8
2023-08-04T06:00	21484	47	-52.0	-82.9	162	8
2023-08-04T06:00	21507	47	-52.0	-82.9	161	8
2023-08-04T06:00	21532	46	-51.9	-82.8	160	8
2023-08-04T06:00	21557	46	-51.6	-82.6	158	8
2023-08-04T06:00	21581	46	-51.4	-83.0	158	8
2023-08-04T06:00	21608	46	-51.4	-83.0	160	8
2023-08-04T06:00	21623	46	-51.3	-82.4	162	9
2023-08-04T06:00	21654	46	-51.3	-82.4	164	9
2023-08-04T06:00	21679	45	-51.5	-82.5	167	9
2023-08-04T06:00	21699	45	-51.7	-82.7	170	9
2023-08-04T06:00	21728	45	-51.9	-82.8	173	9
2023-08-04T06:00	21749	45	-52.0	-82.4	176	9
2023-08-04T06:00	21772	45	-52.2	-82.5	179	9
2023-08-04T06:00	21797	45	-52.4	-82.7	182	10
2023-08-04T06:00	21820	44	-52.5	-82.8	185	10
2023-08-04T06:00	21845	44	-52.6	-82.8	188	9
2023-08-04T06:00	21873	44	-52.5	-83.3	191	9
2023-08-04T06:00	21897	44	-52.3	-83.1	194	8
2023-08-04T06:00	21925	44	-52.1	-83.0	197	7
2023-08-04T06:00	21949	44	-52.1	-83.0	199	6
2023-08-04T06:00	21969	43	-52.0	-82.9	200	6
2023-08-04T06:00	21994	43	-51.9	-82.8	197	5
2023-08-04T06:00	22023	43	-51.8	-82.8	190	4
2023-08-04T06:00	22049	43	-51.6	-83.2	179	4
2023-08-04T06:00	22072	43	-51.5	-83.1	165	4
2023-08-04T06:00	22100	43	-51.5	-83.1	153	5
2023-08-04T06:00	22125	42	-51.2	-82.9	144	5
2023-08-04T06:00	22153	42	-51.1	-82.8	137	6
2023-08-04T06:00	22181	42	-51.2	-82.9	133	6
2023-08-04T06:00	22204	42	-51.3	-82.9	132	7
2023-08-04T06:00	22225	42	-51.3	-82.9	132	7
2023-08-04T06:00	22259	42	-50.9	-82.7	133	6
2023-08-04T06:00	22282	41	-50.7	-82.5	138	6
2023-08-04T06:00	22305	41	-50.7	-82.5	144	5
2023-08-04T06:00	22335	41	-50.7	-82.5	154	4
2023-08-04T06:00	22359	41	-50.8	-82.6	165	4
2023-08-04T06:00	22394	41	-50.8	-82.6	173	4
2023-08-04T06:00	22416	41	-50.8	-82.6	176	5
2023-08-04T06:00	22445	40	-50.7	-82.5	175	5
2023-08-04T06:00	22473	40	-50.4	-82.3	170	6
2023-08-04T06:00	22501	40	-50.4	-82.3	164	6
2023-08-04T06:00	22524	40	-50.3	-82.2	158	7
2023-08-04T06:00	22555	40	-50.3	-82.2	152	7
2023-08-04T06:00	22582	40	-50.1	-82.1	149	7
2023-08-04T06:00	22607	39	-50.1	-82.1	149	8
2023-08-04T06:00	22635	39	-50.0	-82.0	150	8
2023-08-04T06:00	22661	39	-49.6	-81.7	154	8
2023-08-04T06:00	22692	39	-49.6	-81.7	158	8
2023-08-04T06:00	22714	39	-49.6	-81.7	163	8
2023-08-04T06:00	22741	39	-49.6	-81.7	167	8
2023-08-04T06:00	22778	38	-49.7	-81.8	171	7
2023-08-04T06:00	22805	38	-49.8	-81.8	175	7
2023-08-04T06:00	22824	38	-49.9	-81.9	179	6
2023-08-04T06:00	22849	38	-49.9	-81.9	182	5
2023-08-04T06:00	22874	38	-49.9	-81.9	187	4
2023-08-04T06:00	22899	38	-49.8	-81.8	192	3
2023-08-04T06:00	22935	37	-49.7	-81.8	202	2
2023-08-04T06:00	22954	37	-49.6	-81.7	241	1
2023-08-04T06:00	22981	37	-49.5	-81.6	325	1
2023-08-04T06:00	23006	37	-49.5	-81.6	344	2
2023-08-04T06:00	23037	37	-49.5	-81.6	349	2
2023-08-04T06:00	23061	37	-49.5	-81.6	353	3
2023-08-04T06:00	23087	37	-49.6	-81.7	357	3
2023-08-04T06:00	23109	36	-49.6	-81.7	3	3
2023-08-04T06:00	23137	36	-49.7	-81.8	14	3
2023-08-04T06:00	23161	36	-49.6	-81.7	27	3
2023-08-04T06:00	23186	36	-49.5	-81.6	41	4
2023-08-04T06:00	23218	36	-49.5	-81.6	51	4
2023-08-04T06:00	23244	36	-49.5	-81.6	59	5
2023-08-04T06:00	23266	36	-49.3	-81.5	64	6
2023-08-04T06:00	23292	35	-49.3	-81.5	69	7
2023-08-04T06:00	23322	35	-49.4	-81.6	73	7
2023-08-04T06:00	23348	35	-49.6	-81.7	77	7
2023-08-04T06:00	23373	35	-49.7	-81.8	80	8
2023-08-04T06:00	23405	35	-49.8	-81.8	84	8
2023-08-04T06:00	23425	35	-49.8	-81.8	86	9
2023-08-04T06:00	23463	35	-49.9	-81.9	87	9
2023-08-04T06:00	23481	34	-50.1	-82.1	87	9
2023-08-04T06:00	23514	34	-50.2	-82.1	86	9
2023-08-04T06:00	23537	34	-50.1	-82.1	85	9
2023-08-04T06:00	23568	34	-50.2	-82.1	85	8
2023-08-04T06:00	23594	34	-50.3	-82.2	86	8
2023-08-04T06:00	23623	34	-50.3	-82.2	88	8
2023-08-04T06:00	23645	34	-50.4	-82.3	92	8
2023-08-04T06:00	23682	33	-50.5		96	8
2023-08-04T06:00	23701	33	-50.5		100	7
2023-08-04T06:00	23733	33	-50.5		105	7
2023-08-04T06:00	23765	33	-50.6	-82.4	109	7
2023-08-04T06:00	23789	33	-50.7	-82.5	113	7
2023-08-04T06:00	23818	33	-50.8	-82.0	116	6
2023-08-04T06:00	23851	33	-50.8	-82.0	118	6
2023-08-04T06:00	23880	32	-50.9	-82.7	120	6
2023-08-04T06:00	23902	32	-51.0	-82.7	122	5
2023-08-04T06:00	23930	32	-51.0	-82.7	124	5
2023-08-04T06:00	23955	32	-50.9	-82.7	126	5
2023-08-04T06:00	23988	32	-50.6	-82.4	127	5
2023-08-04T06:00	24010	32	-50.5		129	5
2023-08-04T06:00	24051	32	-50.5		128	5
2023-08-04T06:00	24073	31	-50.4	-82.3	127	5
2023-08-04T06:00	24103	31	-50.2	-82.8	124	5
2023-08-04T06:00	24130	31	-49.9	-82.5	121	5
2023-08-04T06:00	24157	31	-49.8	-82.5	118	5
2023-08-04T06:00	24182	31	-49.8	-81.8	116	5
2023-08-04T06:00	24216	31	-49.9	-81.9	115	5
2023-08-04T06:00	24240	31	-50.1	-82.1	113	5
2023-08-04T06:00	24265	31	-50.2	-82.1	111	6
2023-08-04T06:00	24292	30	-50.1	-82.1	109	6
2023-08-04T06:00	24322	30	-50.2	-82.1	105	6
2023-08-04T06:00	24351	30	-50.3	-82.2	102	6
2023-08-04T06:00	24379	30	-50.4	-82.3	98	6
2023-08-04T06:00	24415	30	-50.4	-82.3	95	6
2023-08-04T06:00	24438	30	-50.2	-82.1	93	6
2023-08-04T06:00	24456	30	-50.1	-82.7	93	6
2023-08-04T06:00	24486	30	-49.8	-82.5	95	7
2023-08-04T06:00	24515	29	-49.6	-82.3	97	7
2023-08-04T06:00	24548	29	-49.5	-82.3	100	8
2023-08-04T06:00	24576	29	-49.5	-82.3	102	8
2023-08-04T06:00	24608	29	-49.6	-82.3	104	9
2023-08-04T06:00	24633	29	-49.8	-81.8	106	9
2023-08-04T06:00	24662	29	-49.9	-81.9	108	9
2023-08-04T06:00	24691	29	-49.8	-81.8	110	9
2023-08-04T06:00	24722	29	-49.7	-81.8	111	8
2023-08-04T06:00	24743	28	-49.7	-81.8	112	8
2023-08-04T06:00	24775	28	-49.8	-81.8	112	7
2023-08-04T06:00	24798	28	-49.7	-82.4	111	7
2023-08-04T06:00	24822	28	-49.6	-82.3	110	6
2023-08-04T06:00	24847	28	-49.5	-82.3	109	6
2023-08-04T06:00	24881	28	-49.5	-82.3	109	6
2023-08-04T06:00	24910	28	-49.4	-82.2	109	6
2023-08-04T06:00	24936	28	-49.4	-82.2	111	6
2023-08-04T06:00	24952	27	-49.3	-82.1	112	6
2023-08-04T06:00	24983	27	-49.3	-82.1	113	6
2023-08-04T06:00	25008	27	-49.2	-82.0	112	5
2023-08-04T06:00	25034	27	-49.0	-81.9	110	5
2023-08-04T06:00	25070	27	-48.8	-81.7	106	5
2023-08-04T06:00	25094	27	-48.6	-81.6	102	5
2023-08-04T06:00	25116	27	-48.3	-81.4	99	5
2023-08-04T06:00	25146	27	-48.2	-81.3	95	5
2023-08-04T06:00	25170	27	-48.2	-81.3	92	5
2023-08-04T06:00	25203	26	-48.3	-81.4	88	5
2023-08-04T06:00	25230	26	-48.3	-81.4	84	5
2023-08-04T06:00	25258	26	-48.2	-81.3	80	6
2023-08-04T06:00	25291	26	-48.1	-81.2	77	6
2023-08-04T06:00	25315	26	-48.2	-81.3	77	6
2023-08-04T06:00	25342	26	-48.3	-81.4	78	7
2023-08-04T06:00	25377	26	-48.4	-81.4	81	7
2023-08-04T06:00	25399	26	-48.4	-81.4	86	7
2023-08-04T06:00	25436	26	-48.4	-81.4	91	8
2023-08-04T06:00	25458	25	-48.5	-81.5	95	8
2023-08-04T06:00	25489	25	-48.6	-81.6	99	9
2023-08-04T06:00	25520	25	-48.7	-81.7	103	9
2023-08-04T06:00	25544	25	-48.8	-81.7	106	9
2023-08-04T06:00	25575	25	-48.7	-81.7	109	10
2023-08-04T06:00	25613	25	-48.8	-81.7	112	10
2023-08-04T06:00	25634	25	-48.9	-81.8	115	10
2023-08-04T06:00	25656	25	-48.8	-81.7	118	9
2023-08-04T06:00	25694	25	-48.8	-81.7	122	9
2023-08-04T06:00	25726	24	-48.7	-81.7	126	8
2023-08-04T06:00	25761	24	-48.6	-81.6	130	8
2023-08-04T06:00	25785	24	-48.5	-81.5	135	7
2023-08-04T06:00	25813	24	-48.5	-81.5	140	6
2023-08-04T06:00	25851	24	-48.6	-81.6	145	6
2023-08-04T06:00	25876	24	-48.7	-81.7	148	5
2023-08-04T06:00	25905	24	-48.6	-81.6	149	4
2023-08-04T06:00	25939	24	-48.3	-81.4	147	4
2023-08-04T06:00	25972	24	-48.0	-81.9	139	4
2023-08-04T06:00	25997	23	-47.8	-81.7	128	3
2023-08-04T06:00	26023	23	-47.7	-81.6	115	4
2023-08-04T06:00	26056	23	-47.6	-81.6	104	4
2023-08-04T06:00	26088	23	-47.5	-81.5	95	4
2023-08-04T06:00	26113	23	-47.3	-81.4	90	5
2023-08-04T06:00	26138	23	-47.3	-81.4	87	5
2023-08-04T06:00	26174	23	-47.4	-81.4	88	5
2023-08-04T06:00	26211	23	-47.4	-81.4	90	5
2023-08-04T06:00	26232	23	-47.4	-81.4	95	5
2023-08-04T06:00	26262	23	-47.5	-80.8	101	5
2023-08-04T06:00	26286	22	-47.7	-80.9	108	5
2023-08-04T06:00	26312	22	-47.8	-81.0	115	5
2023-08-04T06:00	26351	22	-47.9	-81.1	121	5
2023-08-04T06:00	26382	22	-47.9	-81.1	125	5
2023-08-04T06:00	26412	22	-47.9	-81.1	127	5
2023-08-04T06:00	26441	22	-47.9	-81.1	126	6
2023-08-04T06:00	26464	22	-47.8	-81.7	124	6
2023-08-04T06:00	26491	22	-47.8	-81.7	121	6
2023-08-04T06:00	26521	22	-47.7	-81.6	118	6
2023-08-04T06:00	26552	22	-47.7	-81.6	115	6
2023-08-04T06:00	26591	21	-47.7	-81.6	113	6
2023-08-04T06:00	26613	21	-47.5	-81.5	111	6
2023-08-04T06:00	26639	21	-47.4	-81.4	109	6
2023-08-04T06:00	26677	21	-47.4	-81.4	107	5
2023-08-04T06:00	26699	21	-47.3	-81.4	103	5
2023-08-04T06:00	26726	21	-47.3	-81.4	97	4
2023-08-04T06:00	26758	21	-47.2	-81.3	87	4
2023-08-04T06:00	26796	21	-47.0	-81.1	77	4
2023-08-04T06:00	26805	21	-46.8	-81.0	67	4
2023-08-04T06:00	26846	21	-46.8	-81.0	59	5
2023-08-04T06:00	26865	21	-46.8	-81.0	52	5
2023-08-04T06:00	26891	20	-46.6	-80.9	47	6
2023-08-04T06:00	26919	20	-46.3	-80.6	43	7
2023-08-04T06:00	26961	20	-46.3	-80.6	39	8
2023-08-04T06:00	26971	20	-46.3	-80.6	37	8
2023-08-04T06:00	27007	20	-46.2	-80.6	36	8
2023-08-04T06:00	27039	20	-46.1	-80.5	37	8
2023-08-04T06:00	27064	20	-46.0	-80.4	38	8
2023-08-04T06:00	27109	20	-46.0	-80.4	41	8
2023-08-04T06:00	27129	20	-46.2	-80.6	45	8
2023-08-04T06:00	27156	20	-46.3	-80.6	49	7
2023-08-04T06:00	27184	20	-46.3	-80.6	54	7
2023-08-04T06:00	27219	20	-46.1	-80.5	58	7
2023-08-04T06:00	27242	19	-45.8	-80.3	63	7
2023-08-04T06:00	27282	19	-45.7	-80.2	67	7
2023-08-04T06:00	27314	19	-45.7	-80.2	73	7
2023-08-04T06:00	27342	19	-45.8	-80.3	79	7
2023-08-04T06:00	27376	19	-45.8	-80.3	85	8
2023-08-04T06:00	27406	19	-45.9	-80.3	89	8
2023-08-04T06:00	27427	19	-46.1	-80.5	92	8
2023-08-04T06:00	27469	19	-46.2	-80.6	93	8
2023-08-04T06:00	27484	19	-46.2	-80.6	92	7
2023-08-04T06:00	27524	19	-46.2	-80.6	90	7
2023-08-04T06:00	27565	19	-46.1	-80.5	87	7
2023-08-04T06:00	27580	18	-46.2	-80.6	84	7
2023-08-04T06:00	27613	18	-46.2	-80.6	81	7
2023-08-04T06:00	27653	18	-46.1	-80.5	77	7
2023-08-04T06:00	27669	18	-46.1	-80.5	75	7
2023-08-04T06:00	27703	18	-46.1	-80.5	74	7
2023-08-04T06:00	27735	18	-46.1	-80.5	75	7
2023-08-04T06:00	27770	18	-46.2	-80.6	77	7
2023-08-04T06:00	27800	18	-46.2	-80.6	81	6
2023-08-04T06:00	27821	18	-46.3	-80.6	85	6
2023-08-04T06:00	27869	18	-46.4	-80.7	88	6
2023-08-04T06:00	27896	18	-46.6	-80.9	88	6
2023-08-04T06:00	27915	18	-46.7	-80.9	85	6
2023-08-04T06:00	27962	17	-46.5	-80.8	80	7
2023-08-04T06:00	27971	17	-46.3	-80.6	76	7
2023-08-04T06:00	28022	17	-46.2	-80.6	72	8
2023-08-04T06:00	28055	17	-46.0	-81.2	70	9
2023-08-04T06:00	28075	17	-45.8	-81.1	68	10
2023-08-04T06:00	28113	17	-45.6	-80.9	68	10
2023-08-04T06:00	28140	17	-45.4	-80.8	68	11
2023-08-04T06:00	28176	17	-45.3	-80.7	69	11
2023-08-04T06:00	28200	17	-45.3	-80.7	70	11
2023-08-04T06:00	28233	17	-45.3	-80.7	72	10
2023-08-04T06:00	28268	17	-45.3	-80.7	75	10
2023-08-04T06:00	28299	17	-45.3	-80.7	78	10
2023-08-04T06:00	28336	17	-45.2	-80.7	81	10
2023-08-04T06:00	28349	16	-45.2	-80.7	83	10
2023-08-04T06:00	28391	16	-45.1	-80.6	84	10
2023-08-04T06:00	28399	16	-45.1	-80.6	84	10
2023-08-04T06:00	28441	16	-45.0	-80.5	83	10
2023-08-04T06:00	28471	16	-45.0	-80.5	81	10
2023-08-04T06:00	28504	16	-45.0	-80.5	79	11
2023-08-04T06:00	28538	16	-45.0	-80.5	78	11
2023-08-04T06:00	28570	16	-45.0	-80.5	77	12
2023-08-04T06:00	28591	16	-45.0	-80.5	77	12
2023-08-04T06:00	28626	16	-45.0	-80.5	77	12
2023-08-04T06:00	28651	16	-45.0	-80.5	78	13
2023-08-04T06:00	28678	16	-45.1	-80.6	80	13
2023-08-04T06:00	28708	16	-45.3	-80.7	82	13
2023-08-04T06:00	28751	16	-45.4	-80.8	84	13
2023-08-04T06:00	28767	15	-45.5	-80.9	88	13
2023-08-04T06:00	28804	15	-45.4	-80.8	91	13
2023-08-04T06:00	28836	15	-45.3	-80.7	96	12
2023-08-04T06:00	28871	15	-45.2	-80.7	100	12
2023-08-04T06:00	28905	15	-45.1	-80.6	105	12
2023-08-04T06:00	28919	15	-45.0	-80.5	109	11
2023-08-04T06:00	28943	15	-44.7	-80.3	113	11
2023-08-04T06:00	28982	15	-44.6	-80.2	115	10
2023-08-04T06:00	29011	15	-44.5	-80.1	118	10
2023-08-04T06:00	29033	15	-44.6	-80.2	119	9
2023-08-04T06:00	29076	15	-44.7	-80.3	120	9
2023-08-04T06:00	29095	15	-44.8	-80.4	120	9
2023-08-04T06:00	29135	15	-44.7	-80.3	117	8
2023-08-04T06:00	29170	15	-44.5	-80.1	112	8
2023-08-04T06:00	29203	15	-44.3	-80.0	107	8
2023-08-04T06:00	29221	14	-44.2	-79.9	103	8
2023-08-04T06:00	29241	14	-44.1	-79.9	101	8
2023-08-04T06:00	29291	14	-44.0	-79.8	100	8
2023-08-04T06:00	29320	14	-43.9	-79.7	102	8
2023-08-04T06:00	29360	14	-43.9	-79.7	103	8
2023-08-04T06:00	29379	14	-44.0	-79.8	103	8
2023-08-04T06:00	29427	14	-43.9	-79.7	102	7
2023-08-04T06:00	29445	14	-43.8	-79.6	99	7
2023-08-04T06:00	29490	14	-43.7	-79.6	96	7
2023-08-04T06:00	29508	14	-43.7	-79.6	92	8
2023-08-04T06:00	29552	14	-43.9	-79.7	89	8
2023-08-04T06:00	29586	14	-44.1	-79.9	86	9
2023-08-04T06:00	29615	14	-44.1	-79.9	85	9
2023-08-04T06:00	29626	14	-44.2	-79.9	85	10
2023-08-04T06:00	29682	14	-44.4	-80.1	86	11
2023-08-04T06:00	29693	13	-44.4	-80.1	88	11
2023-08-04T06:00	29734	13	-44.3	-80.0	90	12
2023-08-04T06:00	29767	13	-44.3	-80.0	93	12
2023-08-04T06:00	29789	13	-44.2	-79.9	95	13
2023-08-04T06:00	29833	13	-44.2	-79.9	96	13
2023-08-04T06:00	29849	13	-44.1	-79.9	96	13
2023-08-04T06:00	29896	13	-44.2	-79.9	96	14
2023-08-04T06:00	29924	13	-44.3	-80.0	95	14
2023-08-04T06:00	29955	13	-44.3	-80.0	94	14
2023-08-04T06:00	30000	13	-44.3	-80.0	94	15
2023-08-04T06:00	30019	13	-44.3	-80.0	93	15
2023-08-04T06:00	30055	13	-44.3	-80.0	92	15
2023-08-04T06:00	30085	13	-44.3	-80.0	91	15
2023-08-04T06:00	30133	13	-44.2	-79.9	90	15
2023-08-04T06:00	30151	13	-44.2	-79.9	88	15
2023-08-04T06:00	30180	13	-44.1	-79.9	86	15
2023-08-04T06:00	30206	12	-44.2	-79.9	85	15
2023-08-04T06:00	30241	12	-44.3	-80.0	85	15
2023-08-04T06:00	30274	12	-44.3	-80.0	86	15
2023-08-04T06:00	30309	12	-44.4	-80.1	87	15
2023-08-04T06:00	30336	12	-44.4	-80.1	89	15
2023-08-04T06:00	30374	12	-44.5	-80.1	91	15
2023-08-04T06:00	30407	12	-44.4	-80.1	94	14
2023-08-04T06:00	30440	12	-44.3	-80.0	97	14
2023-08-04T06:00	30450	12	-44.3	-80.0	101	14
2023-08-04T06:00	30511	12	-44.3	-80.0	104	13
2023-08-04T06:00	30527	12	-44.2	-80.9	107	13
2023-08-04T06:00	30559	12	-44.1	-80.8	108	12
2023-08-04T06:00	30597	12	-43.7	-80.5	109	11
2023-08-04T06:00	30598	12	-43.3	-80.2	108	10
2023-08-04T06:00	30638	12	-42.9	-80.0	107	10
2023-08-04T06:00	30676	12	-42.8	-79.9	105	9
2023-08-04T06:00	30713	12	-42.7	-79.8	103	9
2023-08-04T06:00	30735	12	-42.6	-79.7	99	8
2023-08-04T06:00	30772	11	-42.5	-79.7	96	8
2023-08-04T06:00	30797	11	-42.5	-79.7	92	8
2023-08-04T06:00	30832	11	-42.6	-79.7	88	8
2023-08-04T06:00	30868	11	-42.7	-79.8	85	8
2023-08-04T06:00	30883	11	-42.8	-79.9	83	8
2023-08-04T06:00	30902	11	-42.7	-79.8	83	9
2023-08-04T06:00	30956	11	-42.6	-79.7	82	10
2023-08-04T06:00	30975	11	-42.5	-79.7	82	11
2023-08-04T06:00	31015	11	-42.5	-79.7	82	12
2023-08-04T06:00	31040	11	-42.5	-79.7	82	12
2023-08-04T06:00	31061	11	-42.6	-79.7	82	13
2023-08-04T06:00	31095	11	-42.6	-79.7	82	13
2023-08-04T06:00	31140	11	-42.6	-79.7	84	14
2023-08-04T06:00	31150	11	-42.5	-79.7	86	14
2023-08-04T06:00	31205	11	-42.5	-79.7	89	14
2023-08-04T06:00	31228	11	-42.6	-79.7	92	14
2023-08-04T06:00	31253	11	-42.6	-79.7	96	13
2023-08-04T06:00	31309	11	-42.6	-79.7	99	13
2023-08-04T06:00	31312	11	-42.6	-79.7	101	12
2023-08-04T06:00	31341	11	-42.6	-79.7	102	11
2023-08-04T06:00	31373	11	-42.6	-79.7	101	10
2023-08-04T06:00	31409	10	-42.5	-79.7	98	9
2023-08-04T06:00	31434	10	-42.4	-79.6	94	9
2023-08-04T06:00	31454	10	-42.3	-79.5	89	8
2023-08-04T06:00	31497	10	-42.2	-79.5	85	8
2023-08-04T06:00	31537	10	-42.2	-79.5	84	9
2023-08-04T06:00	31552	10	-42.1	-79.4	84	9
2023-08-04T06:00	31589	10	-41.9	-79.2	87	9
2023-08-04T06:00	31618	10	-41.7	-79.1	90	10
2023-08-04T06:00	31645	10	-41.7	-79.1	92	11
2023-08-04T06:00	31689	10	-41.5	-79.0	95	11
2023-08-04T06:00	31709	10	-41.3	-78.8	96	11
2023-08-04T06:00	31756	10	-41.1	-78.7	96	11
2023-08-04T06:00	31786	10	-41.1	-79.8	96	11
2023-08-04T06:00	31813	10	-41.0	-79.7	93	10
2023-08-04T06:00	31831	10	-40.8	-79.6	89	10
2023-08-04T06:00	31902	10	-40.7	-79.5	84	10
2023-08-04T06:00	31909	10	-40.6	-79.5	79	10
2023-08-04T06:00	31955	10	-40.4	-79.3	74	10
2023-08-04T06:00	31990	10	-40.1	-79.1	72	10
2023-08-04T06:00	32004	10	-39.9	-79.0	72	10
2023-08-04T06:00	32032	10	-39.7	-78.8	74	11
2023-08-04T06:00	32060	9	-39.6	-78.8	76	11
2023-08-04T06:00	32112	9	-39.5	-78.7	78	11
2023-08-04T06:00	32149	9	-39.3	-78.5	79	11
2023-08-04T06:00	32179	9	-39.2	-78.5	79	11
2023-08-04T06:00	32201	9	-39.1	-78.4	79	11
2023-08-04T06:00	32227	9	-39.0	-78.3	79	12
2023-08-04T06:00	32256	9	-38.9	-78.3	81	12
2023-08-04T06:00	32283	9	-38.7	-78.1	83	12
2023-08-04T06:00	32349	9	-38.7	-78.1	86	12
2023-08-04T06:00	32369	9	-38.8	-78.2	89	12
2023-08-04T06:00	32382	9	-38.8	-78.2	92	13
2023-08-04T06:00	32429	9	-38.5	-78.0	94	13
2023-08-04T06:00	32458	9	-38.1	-77.7	96	13
2023-08-04T06:00	32496	9	-38.0	-77.6	97	14
2023-08-04T06:00	32548	9	-38.0	-77.6	98	14
2023-08-04T06:00	32554	9	-38.2	-77.8	97	13
2023-08-04T06:00	32594	9	-38.3	-77.9	95	13
2023-08-04T06:00	32629	9	-38.4	-77.9	93	13
2023-08-04T06:00	32669	9	-38.4	-77.9	90	12
2023-08-04T06:00	32681	9	-38.4	-77.9	89	12
2023-08-04T06:00	32724	9	-38.3	-77.9	89	11
2023-08-04T06:00	32756	9	-38.2	-77.8	89	11
2023-08-04T06:00	32795	9	-38.0	-77.6	91	10
2023-08-04T06:00	32812	9	-38.0	-77.6	93	10
2023-08-04T06:00	32830	8	-37.9	-77.6	94	10
2023-08-04T06:00	32892	8	-37.8	-77.5	95	10
2023-08-04T06:00	32906	8	-37.7	-77.4	95	10
2023-08-04T06:00	32949	8	-37.6	-77.4	94	10
2023-08-04T06:00	32980	8	-37.5	-77.3	92	11
2023-08-04T06:00	32988	8	-37.5	-77.3	91	11
2023-08-04T06:00	33066	8	-37.5	-77.3	89	11
2023-08-04T06:00	33091	8	-37.6	-77.4	87	11
2023-08-04T06:00	33092	8	-37.6	-77.4	86	12
2023-08-04T06:00	33155	8	-37.5	-77.3	84	12
2023-08-04T06:00	33171	8	-37.5	-77.3	81	13
2023-08-04T06:00	33187	8	-37.5	-77.3	79	14
2023-08-04T06:00	33235	8	-37.6	-77.4	76	15
2023-08-04T06:00	33259	8	-37.6	-77.4	74	16
2023-08-04T06:00	33314	8	-37.6	-77.4	72	17
2023-08-04T06:00	33348	8	-37.6	-77.4	72	19
2023-08-04T06:00	33364	8	-37.6	-77.4	72	20
2023-08-04T06:00	33387	8	-37.6	-77.4	73	21
2023-08-04T06:00	33439	8	-37.6	-77.4	74	22
2023-08-04T06:00	33476	8	-37.6	-77.4	75	22
2023-08-04T06:00	33488	8	-37.6	-77.4	77	22
2023-08-04T06:00	33529	8	-37.7	-77.4	78	22
2023-08-04T06:00	33584	8	-37.6	-77.4	80	22
2023-08-04T06:00	33622	8	-37.5	-77.3	82	22
2023-08-04T06:00	33691	8	-37.5	-77.3	86	21
2023-08-04T06:00	33701	7	-37.5	-77.3	87	21
2023-08-04T06:00	33734	7	-37.5	-77.3	89	20
2023-08-04T06:00	33750	7	-37.4	-77.2	90	21
2023-08-04T06:00	33812	7	-37.4	-77.2	91	21
2023-08-04T06:00	33834	7	-37.3	-77.2	92	21
2023-08-04T06:00	33865	7	-37.3	-77.2	93	21
2023-08-04T06:00	33911	7	-37.4	-77.2	93	20
2023-08-04T06:00	33937	7	-37.3	-77.2	93	20
2023-08-04T06:00	33976	7	-37.2	-77.1	94	19
2023-08-04T06:00	34007	7	-37.1	-77.0	94	19
2023-08-04T06:00	34022	7	-36.9	-76.9	95	19
2023-08-04T06:00	34078	7	-36.8	-76.8	96	18
2023-08-04T06:00	34088	7	-36.8	-76.8	97	18
2023-08-04T06:00	34137	7	-36.8	-76.8	98	18
2023-08-04T06:00	34158	7	-36.8	-76.8	99	18
2023-08-04T06:00	34202	7	-36.8	-76.8	99	17
2023-08-04T06:00	34221	7	-36.7	-76.7	98	16
2023-08-04T06:00	34291	7	-36.5	-76.6	96	16
2023-08-04T06:00	34296	7	-36.2	-76.4	94	16
2023-08-04T12:00	112	998	20.0	12.8	260	2
2023-08-04T12:00	139	995	19.6	12.8	300	2
2023-08-04T12:00	169	992	19.1	12.4	290	2
2023-08-04T12:00	199	988	18.8	12.1	279	3
2023-08-04T12:00	236	984	18.4	12.1	269	4
2023-08-04T12:00	270	980	17.9	11.7	261	4
2023-08-04T12:00	294	977	17.7	12.0	257	5
2023-08-04T12:00	323	974	17.4	11.9	253	6
2023-08-04T12:00	355	970	17.1	11.8	250	6
2023-08-04T12:00	389	967	16.8	11.7	249	5
2023-08-04T12:00	419	963	16.6	11.7	249	5
2023-08-04T12:00	453	959	16.2	11.6	252	5
2023-08-04T12:00	479	956	15.9	11.5	258	5
2023-08-04T12:00	503	954	15.5	11.3	265	4
2023-08-04T12:00	527	951	15.3	11.4	269	4
2023-08-04T12:00	554	948	15.0	11.3	271	4
2023-08-04T12:00	591	944	14.8	11.3	270	4
2023-08-04T12:00	627	940	14.4	11.2	268	4
2023-08-04T12:00	657	937	14.1	11.2	266	4
2023-08-04T12:00	688	933	13.8	11.1	266	4
2023-08-04T12:00	715	930	13.5	10.9	268	4
2023-08-04T12:00	745	927	13.2	10.7	270	4
2023-08-04T12:00	778	923	12.9	10.7	271	5
2023-08-04T12:00	816	919	12.5	10.8	273	5
2023-08-04T12:00	847	916	12.2	10.7	274	5
2023-08-04T12:00	873	913	12.0	10.7	277	6
2023-08-04T12:00	900	910	12.0	10.1	280	6
2023-08-04T12:00	924	907	11.8	9.8	283	6
2023-08-04T12:00	948	905	11.6	9.7	287	6
2023-08-04T12:00	972	902	11.4	9.8	288	6
2023-08-04T12:00	992	900	11.3	9.4	289	6
2023-08-04T12:00	1016	897	11.1	9.3	288	6
2023-08-04T12:00	1043	895	10.8	9.2	287	6
2023-08-04T12:00	1066	892	10.6	9.2	285	6
2023-08-04T12:00	1090	889	10.4	9.0	283	6
2023-08-04T12:00	1119	887	10.1	8.7	280	6
2023-08-04T12:00	1142	884	9.9	8.7	277	6
2023-08-04T12:00	1163	882	9.7	8.6	274	6
2023-08-04T12:00	1185	879	9.7	8.1	272	6
2023-08-04T12:00	1208	877	9.6	8.0	272	6
2023-08-04T12:00	1229	875	9.5	8.0	274	6
2023-08-04T12:00	1255	872	9.4	7.9	276	6
2023-08-04T12:00	1277	870	9.2	7.8	278	6
2023-08-04T12:00	1302	867	9.1	7.8	279	6
2023-08-04T12:00	1329	864	8.9	7.7	278	6
2023-08-04T12:00	1352	862	8.9	7.6	276	6
2023-08-04T12:00	1376	859	8.7	7.7	272	6
2023-08-04T12:00	1404	857	8.5	7.5	267	6
2023-08-04T12:00	1425	854	8.4	7.4	264	6
2023-08-04T12:00	1445	852	8.3	7.6	262	7
2023-08-04T12:00	1466	850	8.1	7.4	261	7
2023-08-04T12:00	1490	848	8.0	7.0	260	8
2023-08-04T12:00	1514	845	7.9	7.0	259	8
2023-08-04T12:00	1534	843	7.8	6.8	256	8
2023-08-04T12:00	1552	841	7.6	7.0	253	8
2023-08-04T12:00	1576	839	7.4	6.9	249	8
2023-08-04T12:00	1600	836	7.2	6.8	248	8
2023-08-04T12:00	1618	834	7.1	6.3	248	8
2023-08-04T12:00	1647	832	7.1	6.0	249	8
2023-08-04T12:00	1668	829	6.9	6.0	250	9
2023-08-04T12:00	1691	827	6.9	5.8	251	9
2023-08-04T12:00	1712	825	6.8	5.6	252	9
2023-08-04T12:00	1734	823	6.5	5.7	252	9
2023-08-04T12:00	1757	821	6.2	5.7	251	8
2023-08-04T12:00	1777	819	6.2	5.3	250	8
2023-08-04T12:00	1799	816	5.9	5.4	250	8
2023-08-04T12:00	1821	814	5.7	5.1	250	8
2023-08-04T12:00	1846	812	5.5	5.4	252	9
2023-08-04T12:00	1872	809	5.3	5.3	255	9
2023-08-04T12:00	1891	807	5.1	5.1	258	9
2023-08-04T12:00	1908	805	5.1	5.1	260	9
2023-08-04T12:00	1936	803	4.9	4.9	261	9
2023-08-04T12:00	1965	800	4.7	4.7	262	8
2023-08-04T12:00	1992	797	4.6	4.6	261	8
2023-08-04T12:00	2017	795	4.5	4.5	258	7
2023-08-04T12:00	2045	792	4.4	4.4	256	7
2023-08-04T12:00	2067	790	4.1	4.1	255	8
2023-08-04T12:00	2088	788	3.9	3.9	254	8
2023-08-04T12:00	2113	786	3.8	3.8	254	8
2023-08-04T12:00	2136	783	3.7	3.7	254	9
2023-08-04T12:00	2153	782	3.6	3.6	254	9
2023-08-04T12:00	2169	780	3.5	3.4	253	9
2023-08-04T12:00	2182	779	3.9	1.8	252	9
2023-08-04T12:00	2204	777	3.8	1.8	251	9
2023-08-04T12:00	2229	775	4.2	0.8	251	9
2023-08-04T12:00	2252	772	4.2	0.5	250	9
2023-08-04T12:00	2268	771	4.3	0.5	249	9
2023-08-04T12:00	2286	769	4.4	0.4	247	9
2023-08-04T12:00	2316	766	4.4	0.1	245	8
2023-08-04T12:00	2338	764	4.3	-0.1	244	8
2023-08-04T12:00	2356	762	4.3	-0.2	245	8
2023-08-04T12:00	2378	760	4.1	-0.3	248	8
2023-08-04T12:00	2401	758	4.0	-0.3	252	8
2023-08-04T12:00	2424	756	3.8	-0.4	255	8
2023-08-04T12:00	2449	754	3.6	-0.8	257	8
2023-08-04T12:00	2470	752	3.5	-0.7	258	8
2023-08-04T12:00	2497	750	3.2	-1.0	258	8
2023-08-04T12:00	2519	747	3.0	-1.1	258	8
2023-08-04T12:00	2539	746	2.8	-1.1	259	8
2023-08-04T12:00	2560	744	2.7	-1.2	258	8
2023-08-04T12:00	2582	742	2.5	-1.2	257	7
2023-08-04T12:00	2606	740	2.5	-1.1	254	7
2023-08-04T12:00	2627	737	2.3	-1.2	250	8
2023-08-04T12:00	2649	735	2.3	-0.9	246	8
2023-08-04T12:00	2671	733	2.2	-1.1	241	8
2023-08-04T12:00	2690	732	2.0	-1.1	238	8
2023-08-04T12:00	2721	729	1.7		236	7
2023-08-04T12:00	2747	727	1.5	-1.1	237	7
2023-08-04T12:00	2764	725	1.4	-1.2	239	7
2023-08-04T12:00	2791	723	1.4	-1.2	243	7
2023-08-04T12:00	2823	720	1.2	-1.4	245	7
2023-08-04T12:00	2842	718	1.1		246	7
2023-08-04T12:00	2867	716	1.0	-1.6	245	7
2023-08-04T12:00	2891	714	0.9	-1.5	244	6
2023-08-04T12:00	2913	712	0.8	-1.6	243	6
2023-08-04T12:00	2938	710	0.5	-1.7	243	6
2023-08-04T12:00	2960	708	0.3	-1.6	243	7
2023-08-04T12:00	2987	705	0.1	-1.8	243	7
2023-08-04T12:00	3020	703	-0.2	-1.9	243	8
2023-08-04T12:00	3043	700	-0.3	-1.8	242	9
2023-08-04T12:00	3070	698	-0.6	-2.0	241	9
2023-08-04T12:00	3092	696	-0.8	-2.0	240	9
2023-08-04T12:00	3120	694	-1.0	-2.0	240	9
2023-08-04T12:00	3140	692	-1.2	-2.1	240	9
2023-08-04T12:00	3172	689	-1.5	-2.2	242	9
2023-08-04T12:00	3209	686	-1.9	-2.4	243	9
2023-08-04T12:00	3236	684	-1.9	-2.7	245	9
2023-08-04T12:00	3261	681	-1.9	-3.0	246	10
2023-08-04T12:00	3287	679	-1.4	-3.8	246	9
2023-08-04T12:00	3305	678	-1.2	-3.9	244	9
2023-08-04T12:00	3326	676	-1.3	-4.0	241	9
2023-08-04T12:00	3355	674	-1.5	-4.1	238	9
2023-08-04T12:00	3380	671	-1.7	-4.2	236	8
2023-08-04T12:00	3406	669	-1.9	-4.3	236	8
2023-08-04T12:00	3425	668	-2.1	-4.4	236	8
2023-08-04T12:00	3446	666	-2.3	-4.4	237	9
2023-08-04T12:00	3469	664	-2.4	-4.4	237	9
2023-08-04T12:00	3490	662	-2.6	-4.5	236	9
2023-08-04T12:00	3522	660	-2.9	-4.5	234	9
2023-08-04T12:00	3548	657	-3.1	-4.7	232	9
2023-08-04T12:00	3570	655	-3.3	-4.8	228	9
2023-08-04T12:00	3610	652	-3.6	-5.0	224	10
2023-08-04T12:00	3632	650	-3.5	-5.4	221	10
2023-08-04T12:00	3657	648	-3.6	-5.5	219	11
2023-08-04T12:00	3679	647	-3.7	-5.8	219	11
2023-08-04T12:00	3696	645	-3.8	-5.9	220	11
2023-08-04T12:00	3715	643	-3.9	-5.8	222	12
2023-08-04T12:00	3745	641	-4.2	-5.9	224	12
2023-08-04T12:00	3762	640	-4.4	-6.0	226	12
2023-08-04T12:00	3791	638	-4.7	-6.1	227	13
2023-08-04T12:00	3814	636	-4.9	-6.1	228	13
2023-08-04T12:00	3833	634	-5.1	-6.2	227	12
2023-08-04T12:00	3853	632	-5.3	-6.2	226	12
2023-08-04T12:00	3880	630	-5.5	-6.2	226	12
2023-08-04T12:00	3906	628	-5.8	-6.4	226	11
2023-08-04T12:00	3926	627	-5.9	-6.4	226	11
2023-08-04T12:00	3942	625	-6.1	-6.6	227	11
2023-08-04T12:00	3963	624	-6.2	-6.8	229	10
2023-08-04T12:00	3995	621	-6.4		230	10
2023-08-04T12:00	4021	619	-6.4	-7.6	231	10
2023-08-04T12:00	4035	618	-6.3	-7.8	230	10
2023-08-04T12:00	4056	616	-6.5	-7.9	228	10
2023-08-04T12:00	4074	615	-6.7	-7.9	225	10
2023-08-04T12:00	4104	613	-7.0	-8.1	222	10
2023-08-04T12:00	4126	611	-7.1	-8.3	219	9
2023-08-04T12:00	4156	609	-7.3	-8.6	217	9
2023-08-04T12:00	4173	607	-7.4	-8.7	217	9
2023-08-04T12:00	4195	605	-7.5	-8.8	219	8
2023-08-04T12:00	4224	603	-7.8	-9.0	222	8
2023-08-04T12:00	4248	601	-8.0	-9.2	225	9
2023-08-04T12:00	4265	600	-8.1	-9.2	227	9
2023-08-04T12:00	4287	598	-8.3	-9.4	227	9
2023-08-04T12:00	4314	596	-8.6	-9.6	227	9
2023-08-04T12:00	4349	594	-8.8	-9.8	226	9
2023-08-04T12:00	4367	592	-9.0	-9.9	226	9
2023-08-04T12:00	4383	591	-9.1	-9.8	225	10
2023-08-04T12:00	4399	589	-9.3	-10.1	225	10
2023-08-04T12:00	4429	587	-9.3	-10.9	224	10
2023-08-04T12:00	4451	586	-9.3	-11.2	224	10
2023-08-04T12:00	4473	584	-9.4	-11.3	224	10
2023-08-04T12:00	4489	583	-9.6	-11.6	223	11
2023-08-04T12:00	4515	581	-9.7	-12.5	223	11
2023-08-04T12:00	4535	579	-9.9	-13.0	221	11
2023-08-04T12:00	4561	577	-9.9	-15.4	220	11
2023-08-04T12:00	4585	576	-10.0	-14.7	220	12
2023-08-04T12:00	4605	574	-10.2	-13.6	221	12
2023-08-04T12:00	4633	572	-10.4	-12.8	222	12
2023-08-04T12:00	4656	571	-10.4	-13.7	224	12
2023-08-04T12:00	4672	569	-10.5	-14.2	227	12
2023-08-04T12:00	4691	568	-10.6	-15.2	229	12
2023-08-04T12:00	4715	566	-10.7	-16.1	230	12
2023-08-04T12:00	4741	564	-10.9	-14.7	231	11
2023-08-04T12:00	4765	562	-11.2	-13.9	231	11
2023-08-04T12:00	4794	560	-11.3	-13.9	232	10
2023-08-04T12:00	4818	559	-11.5	-14.4	233	10
2023-08-04T12:00	4835	557	-11.6	-14.9	234	10
2023-08-04T12:00	4863	555	-11.8	-14.7	236	10
2023-08-04T12:00	4887	554	-11.9	-14.7	237	10
2023-08-04T12:00	4902	552	-12.1	-14.7	237	10
2023-08-04T12:00	4919	551	-12.1	-14.9	236	10
2023-08-04T12:00	4938	550	-12.3	-15.1	235	10
2023-08-04T12:00	4957	548	-12.4	-15.1	235	10
2023-08-04T12:00	4977	547	-12.6	-15.1	235	10
2023-08-04T12:00	5003	545	-12.8	-15.1	235	10
2023-08-04T12:00	5029	543	-13.0	-15.2	236	11
2023-08-04T12:00	5050	542	-13.2	-15.2	236	11
2023-08-04T12:00	5079	540	-13.4	-15.2	236	11
2023-08-04T12:00	5108	538	-13.5	-15.8	235	11
2023-08-04T12:00	5129	536	-13.7	-16.1	234	11
2023-08-04T12:00	5149	535	-13.7	-17.2	231	11
2023-08-04T12:00	5169	533	-13.7	-17.7	229	11
2023-08-04T12:00	5190	532	-13.9	-18.0	226	10
2023-08-04T12:00	5217	530	-14.1	-18.3	223	10
2023-08-04T12:00	5248	528	-14.4	-18.7	221	10
2023-08-04T12:00	5273	526	-14.6	-18.8	220	9
2023-08-04T12:00	5286	525	-14.7	-18.3	219	9
2023-08-04T12:00	5305	524	-14.9	-18.6	220	9
2023-08-04T12:00	5321	523	-15.0	-18.4	222	9
2023-08-04T12:00	5339	522	-15.2	-18.6	222	9
2023-08-04T12:00	5355	520	-15.3	-18.8	222	9
2023-08-04T12:00	5377	519	-15.5	-18.9	221	9
2023-08-04T12:00	5396	518	-15.6	-18.8	218	9
2023-08-04T12:00	5419	516	-15.8	-18.6	216	8
2023-08-04T12:00	5452	514	-15.9	-20.7	214	8
2023-08-04T12:00	5469	513	-16.0	-20.5	214	8
2023-08-04T12:00	5486	512	-16.1	-21.5	215	8
2023-08-04T12:00	5503	510	-16.2	-20.7	218	9
2023-08-04T12:00	5519	509	-16.3	-23.4	220	9
2023-08-04T12:00	5531	508	-16.4	-23.3	222	9
2023-08-04T12:00	5546	507	-16.5	-25.4	224	10
2023-08-04T12:00	5562	506	-16.4	-30.8	224	10
2023-08-04T12:00	5584	505	-16.5	-31.0	225	10
2023-08-04T12:00	5607	503	-16.6	-32.1	225	10
2023-08-04T12:00	5634	501	-16.8	-34.3	225	9
2023-08-04T12:00	5669	499	-17.1	-32.2	225	9
2023-08-04T12:00	5702	497	-17.4	-34.5	226	9
2023-08-04T12:00	5723	496	-17.5	-33.0	227	9
2023-08-04T12:00	5739	494	-17.6	-32.7	229	10
2023-08-04T12:00	5761	493	-17.8	-32.3	231	10
2023-08-04T12:00	5781	492	-18.0	-31.8	235	10
2023-08-04T12:00	5805	490	-18.2	-31.0	238	10
2023-08-04T12:00	5833	488	-18.5	-30.9	240	11
2023-08-04T12:00	5865	486	-18.7	-33.4	240	11
2023-08-04T12:00	5887	485	-18.9	-32.4	239	11
2023-08-04T12:00	5903	484	-19.1	-32.4	237	11
2023-08-04T12:00	5919	483	-19.1	-33.6	234	12
2023-08-04T12:00	5935	482	-19.2	-33.7	232	11
2023-08-04T12:00	5951	481	-19.4	-33.7	231	11
2023-08-04T12:00	5973	479	-19.6		232	11
2023-08-04T12:00	6001	477	-19.8		233	11
2023-08-04T12:00	6028	476	-20.0	-33.3	233	11
2023-08-04T12:00	6051	474	-20.2	-33.3	232	11
2023-08-04T12:00	6074	473	-20.4	-33.3	229	11
2023-08-04T12:00	6104	471	-20.6	-33.4	225	11
2023-08-04T12:00	6130	469	-20.8	-33.7	221	11
2023-08-04T12:00	6158	467	-20.9	-33.6	219	11
2023-08-04T12:00	6187	466	-21.1	-33.4	217	11
2023-08-04T12:00	6219	464	-21.4	-33.0	216	11
2023-08-04T12:00	6239	462	-21.5		217	12
2023-08-04T12:00	6258	461	-21.6	-33.2	219	13
2023-08-04T12:00	6283	460	-21.8	-33.1	222	13
2023-08-04T12:00	6312	458	-22.0	-33.7	224	14
2023-08-04T12:00	6333	456	-22.0	-34.0	227	15
2023-08-04T12:00	6356	455	-21.9	-34.8	228	15
2023-08-04T12:00	6376	454	-22.0	-34.7	228	15
2023-08-04T12:00	6397	453	-22.1	-34.8	228	15
2023-08-04T12:00	6415	451	-22.3	-35.0	228	15
2023-08-04T12:00	6433	450	-22.4	-34.6	228	15
2023-08-04T12:00	6459	449	-22.5	-34.5	228	15
2023-08-04T12:00	6486	447	-22.7	-34.8	230	15
2023-08-04T12:00	6514	445	-22.8	-35.0	232	15
2023-08-04T12:00	6532	444	-23.0	-35.0	233	15
2023-08-04T12:00	6557	443	-23.2	-35.4	234	16
2023-08-04T12:00	6574	442	-23.3	-36.0	235	16
2023-08-04T12:00	6589	441	-23.4	-36.3	234	17
2023-08-04T12:00	6609	440	-23.6	-36.9	234	17
2023-08-04T12:00	6634	438	-23.7	-37.6	234	18
2023-08-04T12:00	6659	437	-23.9	-38.0	234	18
2023-08-04T12:00	6682	435	-24.1	-38.6	235	18
2023-08-04T12:00	6714	433	-24.3	-39.3	236	18
2023-08-04T12:00	6735	432	-24.4	-39.7	236	18
2023-08-04T12:00	6752	431	-24.5	-39.9	236	18
2023-08-04T12:00	6773	430	-24.7	-40.1	235	19
2023-08-04T12:00	6793	429	-24.8	-40.9	234	19
2023-08-04T12:00	6819	427	-25.0	-41.5	232	19
2023-08-04T12:00	6846	426	-25.2	-41.7	231	20
2023-08-04T12:00	6867	424	-25.4	-42.2	229	21
2023-08-04T12:00	6886	423	-25.5		229	21
2023-08-04T12:00	6913	422	-25.6	-43.9	228	22
2023-08-04T12:00	6933	421	-25.7	-44.6	228	23
2023-08-04T12:00	6948	420	-25.7	-46.0	228	23
2023-08-04T12:00	6965	419	-25.8	-46.1	228	24
2023-08-04T12:00	6981	418	-25.9	-46.4	227	24
2023-08-04T12:00	6998	417	-26.0	-47.4	227	24
2023-08-04T12:00	7013	416	-26.0	-48.3	227	25
2023-08-04T12:00	7033	415	-26.1		226	26
2023-08-04T12:00	7062	413	-26.0	-50.3	225	26
2023-08-04T12:00	7092	411	-26.0	-51.5	223	27
2023-08-04T12:00	7114	410	-26.0	-51.9	222	28
2023-08-04T12:00	7134	409	-26.1	-52.3	222	28
2023-08-04T12:00	7159	408	-26.2	-52.4	221	29
2023-08-04T12:00	7181	406	-26.5	-52.5	221	29
2023-08-04T12:00	7203	405	-26.7	-52.7	221	30
2023-08-04T12:00	7223	404	-26.9	-52.7	220	30
2023-08-04T12:00	7238	403	-27.0	-52.7	221	29
2023-08-04T12:00	7257	402	-27.2	-52.8	221	29
2023-08-04T12:00	7282	401	-27.3	-52.7	222	29
2023-08-04T12:00	7302	399	-27.5	-52.9	223	29
2023-08-04T12:00	7326	398	-27.7	-53.0	223	30
2023-08-04T12:00	7351	397	-27.8	-53.4	223	30
2023-08-04T12:00	7383	395	-28.0	-53.6	223	30
2023-08-04T12:00	7411	393	-28.2	-53.7	223	30
2023-08-04T12:00	7441	392	-28.4	-54.0	224	30
2023-08-04T12:00	7473	390	-28.6	-54.2	223	30
2023-08-04T12:00	7501	389	-28.8	-54.2	223	29
2023-08-04T12:00	7529	387	-29.1	-54.3	222	29
2023-08-04T12:00	7556	386	-29.3	-54.5	220	29
2023-08-04T12:00	7584	384	-29.6	-54.6	219	29
2023-08-04T12:00	7610	383	-29.7	-54.8	218	30
2023-08-04T12:00	7636	381	-29.9	-54.9	218	30
2023-08-04T12:00	7661	380	-29.8	-55.0	219	30
2023-08-04T12:00	7689	379	-29.8	-55.3	219	31
2023-08-04T12:00	7718	377	-29.7	-55.4	220	31
2023-08-04T12:00	7748	375	-29.8	-55.7	221	31
2023-08-04T12:00	7776	374	-29.8	-55.9	221	31
2023-08-04T12:00	7802	373	-29.9	-55.8	222	31
2023-08-04T12:00	7829	371	-30.1	-56.0	222	31
2023-08-04T12:00	7859	370	-30.3	-56.1	222	31
2023-08-04T12:00	7889	368	-30.4	-56.2	222	31
2023-08-04T12:00	7914	367	-30.6	-56.2	223	32
2023-08-04T12:00	7942	365	-30.8	-56.2	224	32
2023-08-04T12:00	7969	364	-31.0	-56.4	224	33
2023-08-04T12:00	7998	362	-31.1	-56.5	224	34
2023-08-04T12:00	8036	361	-31.3	-56.5	224	34
2023-08-04T12:00	8064	359	-31.4	-56.7	224	35
2023-08-04T12:00	8092	358	-31.6	-56.7	224	36
2023-08-04T12:00	8114	356	-31.6	-56.6	224	37
2023-08-04T12:00	8138	355	-31.5	-56.2	223	38
2023-08-04T12:00	8167	354	-31.6	-56.0	224	38
2023-08-04T12:00	8203	352	-31.9	-56.3	224	39
2023-08-04T12:00	8231	351	-32.1	-56.2	224	40
2023-08-04T12:00	8259	349	-32.1	-55.7	223	41
2023-08-04T12:00	8291	348	-32.1	-55.3	223	42
2023-08-04T12:00	8330	346	-32.5	-55.6	223	43
2023-08-04T12:00	8358	344	-32.7	-55.6	223	44
2023-08-04T12:00	8392	343	-33.0	-55.6	223	46
2023-08-04T12:00	8428	341	-33.3	-55.3	224	47
2023-08-04T12:00	8468	339	-32.9	-54.0	224	48
2023-08-04T12:00	8495	338	-32.7	-53.4	224	49
2023-08-04T12:00	8523	336	-32.8	-53.5	224	50
2023-08-04T12:00	8553	335	-33.2	-53.6	224	50
2023-08-04T12:00	8583	334	-33.4	-52.8	224	51
2023-08-04T12:00	8614	332	-33.6	-52.8	224	52
2023-08-04T12:00	8640	331	-33.9	-52.7	224	53
2023-08-04T12:00	8672	329	-34.1	-52.4	224	54
2023-08-04T12:00	8697	328	-34.3	-50.2	224	55
2023-08-04T12:00	8721	327	-34.5	-50.3	224	55
2023-08-04T12:00	8749	326	-34.8	-50.0	224	56
2023-08-04T12:00	8775	325	-35.0	-49.4	224	56
2023-08-04T12:00	8800	323	-35.2	-48.4	224	56
2023-08-04T12:00	8827	322	-35.3	-45.0	223	56
2023-08-04T12:00	8862	321	-35.6	-45.4	223	56
2023-08-04T12:00	8884	319	-35.8	-45.4	222	56
2023-08-04T12:00	8915	318	-36.2	-45.3	221	55
2023-08-04T12:00	8950	317	-36.4	-44.7	221	55
2023-08-04T12:00	8973	315	-36.6	-43.6	220	54
2023-08-04T12:00	8996	314	-36.8	-43.0	220	54
2023-08-04T12:00	9022	313	-37.0	-42.7	220	54
2023-08-04T12:00	9045	312	-37.3	-43.3	220	55
2023-08-04T12:00	9070	311	-37.5	-43.5	219	56
2023-08-04T12:00	9102	310	-37.8	-43.4	218	57
2023-08-04T12:00	9133	308	-38.1	-43.4	218	57
2023-08-04T12:00	9155	307	-38.3	-43.4	217	58
2023-08-04T12:00	9175	306	-38.5	-43.4	217	58
2023-08-04T12:00	9203	305	-38.8	-43.3	217	57
2023-08-04T12:00	9233	304	-39.0	-43.3	218	57
2023-08-04T12:00	9261	303	-39.3	-43.6	218	56
2023-08-04T12:00	9281	301	-39.5	-43.6	217	56
2023-08-04T12:00	9316	300	-39.8	-43.7	217	56
2023-08-04T12:00	9341	299	-40.0	-43.8	217	55
2023-08-04T12:00	9373	298	-40.3	-43.8	217	55
2023-08-04T12:00	9401	296	-40.6	-44.4	217	55
2023-08-04T12:00	9424	295	-40.8	-44.6	217	55
2023-08-04T12:00	9445	294	-41.0	-44.9	217	55
2023-08-04T12:00	9467	293	-41.2	-45.1	217	56
2023-08-04T12:00	9493	292	-41.4	-45.7	217	56
2023-08-04T12:00	9515	291	-41.5	-46.5	217	57
2023-08-04T12:00	9537	290	-41.7	-46.6	217	57
2023-08-04T12:00	9558	290	-42.0	-46.7	217	56
2023-08-04T12:00	9579	289	-42.1	-46.5	217	56
2023-08-04T12:00	9600	288	-42.4	-46.9	217	56
2023-08-04T12:00	9622	287	-42.5	-47.5	217	56
2023-08-04T12:00	9646	286	-42.8	-47.7	217	56
2023-08-04T12:00	9669	285	-43.0	-48.1	217	56
2023-08-04T12:00	9693	284	-43.1	-48.3	217	56
2023-08-04T12:00	9720	283	-43.3	-48.1	217	56
2023-08-04T12:00	9747	282	-43.5	-48.0	217	56
2023-08-04T12:00	9773	280	-43.7	-48.2	217	56
2023-08-04T12:00	9802	279	-44.0	-48.5	218	56
2023-08-04T12:00	9829	278	-44.3	-48.7	218	56
2023-08-04T12:00	9858	277	-44.6	-48.9	218	56
2023-08-04T12:00	9885	276	-44.8	-49.2	218	56
2023-08-04T12:00	9914	275	-45.0	-49.5	219	56
2023-08-04T12:00	9937	274	-45.2	-49.5	219	55
2023-08-04T12:00	9958	273	-45.4	-50.0	219	55
2023-08-04T12:00	9977	272	-45.5	-51.1	220	55
2023-08-04T12:00	9996	271	-45.6	-52.0	220	54
2023-08-04T12:00	10025	270	-45.6	-53.2	221	54
2023-08-04T12:00	10051	269	-44.8	-53.9	222	54
2023-08-04T12:00	10071	268	-44.7	-54.1	223	53
2023-08-04T12:00	10090	268	-44.8	-54.2	223	53
2023-08-04T12:00	10108	267	-44.8	-54.8	223	53
2023-08-04T12:00	10127	266	-44.9	-55.2	224	53
2023-08-04T12:00	10145	265	-45.0	-55.9	224	53
2023-08-04T12:00	10165	265	-45.1	-57.0	224	52
2023-08-04T12:00	10186	264	-45.2	-57.7	224	52
2023-08-04T12:00	10203	263	-45.4	-57.9	224	52
2023-08-04T12:00	10223	262	-45.5	-58.1	223	52
2023-08-04T12:00	10242	261	-45.6	-58.9	223	52
2023-08-04T12:00	10265	261	-45.7	-60.0	222	51
2023-08-04T12:00	10300	259	-45.8	-60.9	222	51
2023-08-04T12:00	10322	258	-45.8	-61.4	221	51
2023-08-04T12:00	10347	257	-45.9	-62.1	220	51
2023-08-04T12:00	10367	257	-46.0	-62.8	219	51
2023-08-04T12:00	10390	256	-45.9	-63.3	218	51
2023-08-04T12:00	10415	255	-46.0	-63.8	217	51
2023-08-04T12:00	10441	254	-46.0	-64.3	217	51
2023-08-04T12:00	10464	253	-46.0	-64.6	216	52
2023-08-04T12:00	10489	252	-46.1	-64.8	216	52
2023-08-04T12:00	10511	251	-46.0	-65.2	215	53
2023-08-04T12:00	10532	250	-45.9	-66.2	215	53
2023-08-04T12:00	10561	249	-46.0	-66.7	215	53
2023-08-04T12:00	10582	248	-46.2	-67.0	214	53
2023-08-04T12:00	10600	248	-46.2	-67.6	214	52
2023-08-04T12:00	10620	247	-46.2	-67.9	214	52
2023-08-04T12:00	10641	246	-46.2	-67.9	214	52
2023-08-04T12:00	10659	246	-46.3	-67.9	215	51
2023-08-04T12:00	10674	245	-46.4	-68.0	216	51
2023-08-04T12:00	10695	244	-46.6	-68.0	217	50
2023-08-04T12:00	10722	243	-46.4	-68.0	217	50
2023-08-04T12:00	10745	242	-45.4	-68.0	218	49
2023-08-04T12:00	10771	241	-45.2	-68.4	219	48
2023-08-04T12:00	10803	240	-45.4		219	47
2023-08-04T12:00	10826	240	-45.4	-69.0	219	46
2023-08-04T12:00	10840	239	-45.2		219	46
2023-08-04T12:00	10855	238	-45.0	-69.9	218	46
2023-08-04T12:00	10873	238	-44.8	-70.1	218	47
2023-08-04T12:00	10895	237	-44.8	-70.3	218	48
2023-08-04T12:00	10929	236	-44.6	-69.9	217	49
2023-08-04T12:00	10952	235	-44.7	-69.6	217	49
2023-08-04T12:00	10974	234	-44.9	-69.6	217	50
2023-08-04T12:00	10996	233	-45.2	-69.7	217	50
2023-08-04T12:00	11021	233	-45.4	-69.7	217	50
2023-08-04T12:00	11039	232	-45.5	-69.6	217	50
2023-08-04T12:00	11057	231	-45.7	-69.6	217	50
2023-08-04T12:00	11075	231	-45.8	-69.5	216	50
2023-08-04T12:00	11093	230	-45.6	-69.3	215	51
2023-08-04T12:00	11117	229	-45.3	-69.1	215	51
2023-08-04T12:00	11148	228	-45.2	-68.9	214	51
2023-08-04T12:00	11178	227	-45.5	-68.8	213	51
2023-08-04T12:00	11205	226	-45.9	-68.8	213	51
2023-08-04T12:00	11227	226	-45.9	-68.6	213	51
2023-08-04T12:00	11246	225	-46.0	-68.5	214	51
2023-08-04T12:00	11269	224	-46.3	-68.4	215	51
2023-08-04T12:00	11293	223	-46.3	-67.3	216	51
2023-08-04T12:00	11316	223	-46.0	-66.2	216	50
2023-08-04T12:00	11334	222	-45.9	-66.1	217	49
2023-08-04T12:00	11353	221	-45.8	-66.3	218	49
2023-08-04T12:00	11372	221	-45.8	-66.7	218	48
2023-08-04T12:00	11392	220	-45.6	-67.0	219	47
2023-08-04T12:00	11410	219	-45.6	-67.5	219	47
2023-08-04T12:00	11427	219	-45.4		219	47
2023-08-04T12:00	11446	218	-44.9	-68.9	220	47
2023-08-04T12:00	11461	218	-44.8	-69.2	220	48
2023-08-04T12:00	11481	217	-44.7	-69.1	220	48
2023-08-04T12:00	11500	217	-44.6	-69.4	219	48
2023-08-04T12:00	11515	216	-44.6	-69.7	219	48
2023-08-04T12:00	11532	215	-44.6	-69.9	219	48
2023-08-04T12:00	11550	215	-44.4	-70.2	219	48
2023-08-04T12:00	11568	214	-44.4	-70.4	219	48
2023-08-04T12:00	11586	214	-44.5	-70.5	219	49
2023-08-04T12:00	11603	213	-44.5	-70.5	219	49
2023-08-04T12:00	11622	213	-44.6	-70.5	219	49
2023-08-04T12:00	11646	212	-44.7	-70.8	219	49
2023-08-04T12:00	11664	211	-44.7	-70.8	219	50
2023-08-04T12:00	11684	211	-44.7	-70.8	218	50
2023-08-04T12:00	11703	210	-44.7	-71.0	218	50
2023-08-04T12:00	11724	209	-44.8	-71.1	218	50
2023-08-04T12:00	11745	209	-44.9	-71.2	218	50
2023-08-04T12:00	11765	208	-44.9	-71.4	218	49
2023-08-04T12:00	11785	207	-45.0	-71.7	218	49
2023-08-04T12:00	11807	207	-45.1	-71.8	218	49
2023-08-04T12:00	11825	206	-45.2	-71.9	218	49
2023-08-04T12:00	11846	206	-45.4	-72.1	219	48
2023-08-04T12:00	11866	205	-45.5	-72.1	219	48
2023-08-04T12:00	11887	204	-45.6	-72.0	219	47
2023-08-04T12:00	11905	204	-45.8	-72.4	220	46
2023-08-04T12:00	11928	203	-45.8	-72.6	220	46
2023-08-04T12:00	11946	203	-45.7	-73.0	220	45
2023-08-04T12:00	11964	202	-45.5	-73.1	221	45
2023-08-04T12:00	11984	201	-45.4	-73.1	221	44
2023-08-04T12:00	12004	201	-45.5	-73.4	221	44
2023-08-04T12:00	12023	200	-45.7	-73.6	221	44
2023-08-04T12:00	12043	200	-45.8	-73.6	221	43
2023-08-04T12:00	12064	199	-45.7	-73.9	221	43
2023-08-04T12:00	12082	198	-45.6	-73.8	221	42
2023-08-04T12:00	12102	198	-45.8	-73.9	221	42
2023-08-04T12:00	12119	197	-45.9	-74.0	221	41
2023-08-04T12:00	12136	197	-46.0	-74.4	220	41
2023-08-04T12:00	12155	196	-45.9	-74.3	219	40
2023-08-04T12:00	12174	196	-45.9	-75.0	219	39
2023-08-04T12:00	12195	195	-45.6	-75.1	218	38
2023-08-04T12:00	12213	195	-45.5	-75.4	217	38
2023-08-04T12:00	12231	194	-45.3	-75.6	217	38
2023-08-04T12:00	12250	193	-45.1	-75.9	216	37
2023-08-04T12:00	12269	193	-44.8	-76.1	216	37
2023-08-04T12:00	12286	192	-44.4	-76.2	215	37
2023-08-04T12:00	12304	192	-44.4	-76.2	215	37
2023-08-04T12:00	12322	191	-44.4	-76.2	215	37
2023-08-04T12:00	12341	191	-44.5	-75.8	214	37
2023-08-04T12:00	12358	190	-44.6	-75.9	214	37
2023-08-04T12:00	12378	190	-44.5	-76.3	213	37
2023-08-04T12:00	12397	189	-44.2	-76.1	212	36
2023-08-04T12:00	12419	189	-43.7	-76.2	212	36
2023-08-04T12:00	12438	188	-43.5	-76.1	211	36
2023-08-04T12:00	12456	188	-43.6	-76.2	210	36
2023-08-04T12:00	12472	187	-43.7	-76.2	209	37
2023-08-04T12:00	12493	187	-43.8	-76.3	209	37
2023-08-04T12:00	12511	186	-43.8	-76.3	208	37
2023-08-04T12:00	12530	186	-43.9	-76.4	208	37
2023-08-04T12:00	12550	185	-44.0	-76.5	207	37
2023-08-04T12:00	12569	184	-44.2	-76.6	207	37
2023-08-04T12:00	12590	184	-44.3	-76.7	206	37
2023-08-04T12:00	12611	183	-44.5	-76.8	206	37
2023-08-04T12:00	12639	183	-44.7	-77.0	205	38
2023-08-04T12:00	12657	182	-44.8	-77.0	204	38
2023-08-04T12:00	12679	181	-44.9	-76.6	204	38
2023-08-04T12:00	12701	181	-45.1	-76.8	204	38
2023-08-04T12:00	12728	180	-45.2	-77.3	205	39
2023-08-04T12:00	12756	179	-44.9	-77.1	206	39
2023-08-04T12:00	12783	179	-44.7	-77.0	207	39
2023-08-04T12:00	12805	178	-44.8	-77.0	208	39
2023-08-04T12:00	12825	178	-44.9	-77.1	209	39
2023-08-04T12:00	12846	177	-45.0	-77.2	209	39
2023-08-04T12:00	12868	176	-45.2	-77.3	209	40
2023-08-04T12:00	12888	176	-45.4	-77.5	209	40
2023-08-04T12:00	12910	175	-45.5	-77.6	210	40
2023-08-04T12:00	12931	175	-45.7	-77.2	210	40
2023-08-04T12:00	12952	174	-45.8	-77.3	210	40
2023-08-04T12:00	12971	174	-46.0	-77.4	210	41
2023-08-04T12:00	12994	173	-46.2	-77.6	211	41
2023-08-04T12:00	13019	172	-46.4	-77.7	212	41
2023-08-04T12:00	13048	172	-46.7	-78.0	213	40
2023-08-04T12:00	13078	171	-46.7	-78.0	215	40
2023-08-04T12:00	13116	170	-46.5	-77.8	216	39
2023-08-04T12:00	13147	169	-46.7	-78.0	217	38
2023-08-04T12:00	13171	169	-46.7	-77.5	218	37
2023-08-04T12:00	13197	168	-46.7	-77.5	219	37
2023-08-04T12:00	13223	167	-46.9	-77.6	220	36
2023-08-04T12:00	13257	166	-47.0	-77.7	221	36
2023-08-04T12:00	13290	166	-47.1	-77.8	222	35
2023-08-04T12:00	13315	165	-47.1	-77.8	223	35
2023-08-04T12:00	13336	164	-47.2	-77.9	223	34
2023-08-04T12:00	13358	164	-47.2	-77.9	223	33
2023-08-04T12:00	13380	163	-47.3	-77.9	223	33
2023-08-04T12:00	13401	163	-47.4	-78.0	223	31
2023-08-04T12:00	13423	162	-47.4	-78.0	223	30
2023-08-04T12:00	13446	162	-47.6	-77.7	223	29
2023-08-04T12:00	13470	161	-47.7	-77.8	223	28
2023-08-04T12:00	13492	161	-47.6	-77.3	222	27
2023-08-04T12:00	13520	160	-47.6	-77.7	220	26
2023-08-04T12:00	13559	159	-47.6	-77.3	218	25
2023-08-04T12:00	13588	158	-47.7	-77.4	216	24
2023-08-04T12:00	13628	157	-48.0	-77.6	215	23
2023-08-04T12:00	13645	157	-48.1	-77.3	213	23
2023-08-04T12:00	13664	156	-48.1	-77.3	211	23
2023-08-04T12:00	13682	156	-47.9	-77.6	210	23
2023-08-04T12:00	13704	156	-47.8	-77.5	209	24
2023-08-04T12:00	13719	155	-47.8	-77.5	208	24
2023-08-04T12:00	13737	155	-47.8	-77.9	207	25
2023-08-04T12:00	13758	154	-47.7	-77.8	207	25
2023-08-04T12:00	13776	154	-47.6	-77.7	206	26
2023-08-04T12:00	13796	153	-47.6	-77.7	206	26
2023-08-04T12:00	13818	153	-47.6	-77.7	205	27
2023-08-04T12:00	13840	152	-47.6	-77.7	205	27
2023-08-04T12:00	13860	152	-47.7	-77.8	205	27
2023-08-04T12:00	13879	151	-47.8	-77.9	204	27
2023-08-04T12:00	13902	151	-48.0	-78.0	204	27
2023-08-04T12:00	13923	150	-48.2	-78.2	204	28
2023-08-04T12:00	13945	150	-48.3	-78.3	203	28
2023-08-04T12:00	13968	149	-48.5	-78.4	203	28
2023-08-04T12:00	13988	149	-48.7	-78.6	203	28
2023-08-04T12:00	14009	148	-48.9	-78.7	203	28
2023-08-04T12:00	14031	148	-49.1	-78.5	203	29
2023-08-04T12:00	14054	147	-49.2	-78.9	204	29
2023-08-04T12:00	14079	147	-49.4	-79.1	204	29
2023-08-04T12:00	14098	146	-49.5	-79.2	205	29
2023-08-04T12:00	14120	146	-49.6	-79.2	205	30
2023-08-04T12:00	14144	145	-49.7	-79.3	206	30
2023-08-04T12:00	14168	145	-49.7	-79.3	207	30
2023-08-04T12:00	14188	144	-49.8	-79.4	208	30
2023-08-04T12:00	14210	144	-49.9	-79.5	210	30
2023-08-04T12:00	14232	143	-49.9	-79.9	211	30
2023-08-04T12:00	14255	143	-50.0	-80.0	212	30
2023-08-04T12:00	14277	142	-50.1	-80.0	213	30
2023-08-04T12:00	14299	142	-50.2	-80.1	213	30
2023-08-04T12:00	14320	142	-50.2	-80.1	214	30
2023-08-04T12:00	14341	141	-50.0	-80.4	214	30
2023-08-04T12:00	14362	141	-49.9	-80.3	214	29
2023-08-04T12:00	14385	140	-50.0	-80.4	214	29
2023-08-04T12:00	14410	140	-50.0	-80.4	213	28
2023-08-04T12:00	14433	139	-49.9	-80.3	213	27
2023-08-04T12:00	14452	139	-49.7	-80.2	213	27
2023-08-04T12:00	14474	138	-49.6	-80.1	213	26
2023-08-04T12:00	14496	138	-49.6	-80.6	214	25
2023-08-04T12:00	14516	137	-49.6	-80.6	215	25
2023-08-04T12:00	14538	137	-49.2	-80.3	215	25
2023-08-04T12:00	14561	136	-49.1	-80.2	216	25
2023-08-04T12:00	14583	136	-49.2	-80.3	216	25
2023-08-04T12:00	14602	136	-49.3	-80.9	216	25
2023-08-04T12:00	14622	135	-49.3	-80.9	216	25
2023-08-04T12:00	14643	135	-49.4	-80.5	217	25
2023-08-04T12:00	14662	134	-49.5	-80.5	217	25
2023-08-04T12:00	14682	134	-49.6	-80.6	216	25
2023-08-04T12:00	14703	134	-49.7	-80.7	217	25
2023-08-04T12:00	14723	133	-49.9	-80.8	217	26
2023-08-04T12:00	14741	133	-50.1	-81.0	217	26
2023-08-04T12:00	14763	132	-50.2	-81.0	218	26
2023-08-04T12:00	14783	132	-50.3	-81.1	218	26
2023-08-04T12:00	14799	132	-50.4	-81.2	218	26
2023-08-04T12:00	14821	131	-50.4	-81.2	219	26
2023-08-04T12:00	14839	131	-50.4	-81.2	219	26
2023-08-04T12:00	14859	130	-50.5	-81.3	219	26
2023-08-04T12:00	14879	130	-50.6	-81.3	219	25
2023-08-04T12:00	14899	130	-50.6	-81.3	219	25
2023-08-04T12:00	14920	129	-50.7	-81.4	219	25
2023-08-04T12:00	14937	129	-50.8	-81.5	218	25
2023-08-04T12:00	14958	128	-51.0	-81.6	217	24
2023-08-04T12:00	14977	128	-51.1	-81.7	216	24
2023-08-04T12:00	14998	128	-51.2	-81.8	215	24
2023-08-04T12:00	15016	127	-51.2	-81.8	214	23
2023-08-04T12:00	15036	127	-51.2	-81.8	213	23
2023-08-04T12:00	15053	127	-51.2	-81.8	213	23
2023-08-04T12:00	15073	126	-51.2	-81.8	212	23
2023-08-04T12:00	15092	126	-51.3	-81.9	212	23
2023-08-04T12:00	15112	125	-51.3	-81.9	212	23
2023-08-04T12:00	15131	125	-51.4	-81.9	211	23
2023-08-04T12:00	15153	125	-51.5	-82.0	210	23
2023-08-04T12:00	15171	124	-51.5	-82.0	210	22
2023-08-04T12:00	15193	124	-51.6	-82.1	209	22
2023-08-04T12:00	15212	123	-51.7	-82.2	209	21
2023-08-04T12:00	15231	123	-51.8	-82.2	209	21
2023-08-04T12:00	15252	123	-51.7	-82.2	210	20
2023-08-04T12:00	15271	122	-51.7	-82.2	210	20
2023-08-04T12:00	15291	122	-51.6	-82.1	210	20
2023-08-04T12:00	15313	122	-51.5	-82.5	209	20
2023-08-04T12:00	15335	121	-51.4	-82.5	208	20
2023-08-04T12:00	15353	121	-51.5	-82.5	207	20
2023-08-04T12:00	15375	120	-51.5	-82.5	206	20
2023-08-04T12:00	15394	120	-51.5	-82.5	206	21
2023-08-04T12:00	15416	120	-51.3	-82.4	206	21
2023-08-04T12:00	15437	119	-51.3	-82.4	206	21
2023-08-04T12:00	15459	119	-51.4	-82.5	206	22
2023-08-04T12:00	15480	118	-51.5	-82.5	206	22
2023-08-04T12:00	15500	118	-51.5	-82.0	206	23
2023-08-04T12:00	15524	118	-51.5	-82.0	206	23
2023-08-04T12:00	15547	117	-51.6	-82.1	207	23
2023-08-04T12:00	15565	117	-51.7	-82.2	208	22
2023-08-04T12:00	15589	117	-51.7	-82.2	208	22
2023-08-04T12:00	15609	116	-51.6	-82.1	209	22
2023-08-04T12:00	15630	116	-51.5	-82.5	210	21
2023-08-04T12:00	15652	115	-51.3	-82.4	210	21
2023-08-04T12:00	15673	115	-51.3	-82.4	210	21
2023-08-04T12:00	15697	115	-51.4	-82.5	210	21
2023-08-04T12:00	15720	114	-51.6	-82.6	210	21
2023-08-04T12:00	15739	114	-51.7	-82.2	210	21
2023-08-04T12:00	15763	113	-51.9	-82.3	209	21
2023-08-04T12:00	15784	113	-52.1	-82.5	209	21
2023-08-04T12:00	15808	113	-52.3	-82.6	208	21
2023-08-04T12:00	15830	112	-52.4	-82.7	208	21
2023-08-04T12:00	15853	112	-52.6	-82.4	208	21
2023-08-04T12:00	15877	111	-52.8	-82.5	208	21
2023-08-04T12:00	15899	111	-53.0	-82.7	208	21
2023-08-04T12:00	15917	111	-53.1	-82.7	208	21
2023-08-04T12:00	15940	110	-53.3	-82.5	208	21
2023-08-04T12:00	15961	110	-53.5	-83.0	208	21
2023-08-04T12:00	15984	110	-53.6	-83.1	208	21
2023-08-04T12:00	16008	109	-53.7	-83.2	207	20
2023-08-04T12:00	16031	109	-53.6	-83.6	206	20
2023-08-04T12:00	16052	108	-53.6	-83.6	204	19
2023-08-04T12:00	16074	108	-53.5	-83.5	202	19
2023-08-04T12:00	16097	108	-53.4	-83.4	201	19
2023-08-04T12:00	16119	107	-53.5	-83.5	200	19
2023-08-04T12:00	16139	107	-53.7	-83.7	200	19
2023-08-04T12:00	16163	107	-53.5	-84.0	200	18
2023-08-04T12:00	16184	106	-53.2	-83.8	201	18
2023-08-04T12:00	16206	106	-53.0	-83.6	201	18
2023-08-04T12:00	16227	106	-52.9	-83.6	202	18
2023-08-04T12:00	16247	105	-52.9	-83.6	202	18
2023-08-04T12:00	16271	105	-52.9	-83.6	203	18
2023-08-04T12:00	16289	104	-53.0	-83.6	204	18
2023-08-04T12:00	16314	104	-53.2	-83.8	205	18
2023-08-04T12:00	16334	104	-53.3	-83.9	206	18
2023-08-04T12:00	16353	104	-53.4	-83.9	207	18
2023-08-04T12:00	16374	103	-53.5	-83.5	208	19
2023-08-04T12:00	16395	103	-53.6	-83.6	209	19
2023-08-04T12:00	16416	102	-53.7	-83.7	210	19
2023-08-04T12:00	16440	102	-53.7	-83.7	210	20
2023-08-04T12:00	16462	102	-53.9	-83.8	211	20
2023-08-04T12:00	16481	101	-53.9	-83.8	211	20
2023-08-04T12:00	16504	101	-53.9	-83.8	212	20
2023-08-04T12:00	16523	101	-54.0	-83.9	213	20
2023-08-04T12:00	16546	100	-54.2	-84.0	214	20
2023-08-04T12:00	16568	100	-54.2	-84.0	215	20
2023-08-04T12:00	16590	100	-54.1	-84.5	217	19
2023-08-04T12:00	16611	99	-54.0	-84.4	219	19
2023-08-04T12:00	16632	99	-53.8	-84.2	222	19
2023-08-04T12:00	16654	99	-53.6	-84.1	225	18
2023-08-04T12:00	16677	98	-53.2	-84.4	227	18
2023-08-04T12:00	16696	98	-52.8	-84.1	229	17
2023-08-04T12:00	16719	98	-52.3	-83.7	231	16
2023-08-04T12:00	16739	97	-52.1	-84.2	231	15
2023-08-04T12:00	16761	97	-52.0	-84.1	231	15
2023-08-04T12:00	16782	97	-52.0	-83.5	231	14
2023-08-04T12:00	16804	97	-52.1	-83.5	230	13
2023-08-04T12:00	16824	96	-52.2	-83.6	229	13
2023-08-04T12:00	16846	96	-52.3	-83.7	228	12
2023-08-04T12:00	16871	96	-52.5	-83.8	226	11
2023-08-04T12:00	16891	95	-52.7	-83.4	224	10
2023-08-04T12:00	16916	95	-52.7	-83.4	222	10
2023-08-04T12:00	16937	95	-52.8	-83.5	219	10
2023-08-04T12:00	16959	94	-52.9	-83.6	216	10
2023-08-04T12:00	16982	94	-52.9	-84.1	213	10
2023-08-04T12:00	17003	94	-52.8	-84.1	210	11
2023-08-04T12:00	17029	93	-52.8	-84.1	208	11
2023-08-04T12:00	17051	93	-53.0	-84.2	206	12
2023-08-04T12:00	17071	93	-53.1	-84.3	205	13
2023-08-04T12:00	17095	92	-52.9	-84.1	203	13
2023-08-04T12:00	17118	92	-52.8	-84.1	202	14
2023-08-04T12:00	17137	92	-52.9	-84.1	201	15
2023-08-04T12:00	17161	91	-52.9	-84.1	200	15
2023-08-04T12:00	17180	91	-52.9	-84.1	199	16
2023-08-04T12:00	17203	91	-52.8	-84.1	198	16
2023-08-04T12:00	17226	90	-52.6	-83.9	198	17
2023-08-04T12:00	17248	90	-52.5	-83.8	198	17
2023-08-04T12:00	17269	90	-52.4	-83.8	198	17
2023-08-04T12:00	17292	89	-52.5	-83.8	198	17
2023-08-04T12:00	17312	89	-52.7	-84.0	198	17
2023-08-04T12:00	17334	89	-52.9	-84.1	199	17
2023-08-04T12:00	17358	89	-53.0	-84.2	199	17
2023-08-04T12:00	17379	88	-53.2	-83.8	199	18
2023-08-04T12:00	17400	88	-53.3	-83.9	200	18
2023-08-04T12:00	17423	88	-53.4	-83.9	201	18
2023-08-04T12:00	17445	87	-53.5	-84.0	202	19
2023-08-04T12:00	17468	87	-53.6	-84.1	202	19
2023-08-04T12:00	17491	87	-53.6	-84.1	203	19
2023-08-04T12:00	17515	86	-53.8	-84.2	204	20
2023-08-04T12:00	17536	86	-53.9	-84.3	205	20
2023-08-04T12:00	17557	86	-54.0	-84.4	206	19
2023-08-04T12:00	17577	86	-53.6	-84.6	208	19
2023-08-04T12:00	17600	85	-53.1	-84.3	210	18
2023-08-04T12:00	17618	85	-52.8	-84.7	213	18
2023-08-04T12:00	17638	85	-52.3	-84.3	216	17
2023-08-04T12:00	17657	85	-51.9	-84.7	218	17
2023-08-04T12:00	17678	84	-51.3	-84.3	220	16
2023-08-04T12:00	17698	84	-51.1	-84.1	222	16
2023-08-04T12:00	17720	84	-51.1	-84.1	222	15
2023-08-04T12:00	17738	83	-51.1	-84.1	223	15
2023-08-04T12:00	17759	83	-51.0	-83.3	222	14
2023-08-04T12:00	17782	83	-51.0	-83.3	220	13
2023-08-04T12:00	17802	83	-50.8	-83.2	218	12
2023-08-04T12:00	17824	82	-50.8	-83.2	215	12
2023-08-04T12:00	17847	82	-50.9	-83.3	212	12
2023-08-04T12:00	17867	82	-50.9	-83.3	211	11
2023-08-04T12:00	17888	82	-50.9	-83.3	210	11
2023-08-04T12:00	17911	81	-51.0	-83.3	210	11
2023-08-04T12:00	17930	81	-51.1	-83.4	212	11
2023-08-04T12:00	17954	81	-51.3	-83.6	214	12
2023-08-04T12:00	17975	81	-51.3	-83.6	217	12
2023-08-04T12:00	17998	80	-51.3	-83.6	219	12
2023-08-04T12:00	18019	80	-51.3	-83.6	220	12
2023-08-04T12:00	18039	80	-51.2	-83.5	220	12
2023-08-04T12:00	18062	79	-51.1	-83.4	219	11
2023-08-04T12:00	18083	79	-51.2	-83.5	218	11
2023-08-04T12:00	18106	79	-51.1	-83.4	218	11
2023-08-04T12:00	18132	79	-50.7	-83.8	218	10
2023-08-04T12:00	18151	78	-50.4	-83.6	219	10
2023-08-04T12:00	18171	78	-50.4	-83.6	220	11
2023-08-04T12:00	18193	78	-50.4	-83.6	221	11
2023-08-04T12:00	18216	78	-50.6	-83.1	223	11
2023-08-04T12:00	18241	77	-50.8	-83.2	224	11
2023-08-04T12:00	18263	77	-51.0	-83.3	225	11
2023-08-04T12:00	18286	77	-51.2	-83.5	226	12
2023-08-04T12:00	18307	77	-51.3	-83.6	227	12
2023-08-04T12:00	18327	76	-51.5	-83.1	228	12
2023-08-04T12:00	18349	76	-51.7	-83.2	229	12
2023-08-04T12:00	18372	76	-51.8	-83.3	229	13
2023-08-04T12:00	18395	75	-52.0	-83.5	229	13
2023-08-04T12:00	18416	75	-52.1	-83.5	229	13
2023-08-04T12:00	18438	75	-52.1	-83.5	230	13
2023-08-04T12:00	18460	75	-52.1	-83.5	230	13
2023-08-04T12:00	18482	74	-52.1	-84.2	231	13
2023-08-04T12:00	18502	74	-52.1	-84.2	230	13
2023-08-04T12:00	18526	74	-52.0	-84.1	229	13
2023-08-04T12:00	18545	74	-51.9	-84.0	228	12
2023-08-04T12:00	18567	73	-51.7	-83.9	225	11
2023-08-04T12:00	18589	73	-51.7	-83.9	223	10
2023-08-04T12:00	18617	73	-51.5	-83.7	220	10
2023-08-04T12:00	18636	73	-51.4	-83.6	218	9
2023-08-04T12:00	18656	72	-51.5	-83.7	215	9
2023-08-04T12:00	18682	72	-51.5	-83.7	212	8
2023-08-04T12:00	18707	72	-51.6	-83.8	208	8
2023-08-04T12:00	18729	72	-51.7	-83.9	203	8
2023-08-04T12:00	18750	71	-51.8	-83.9	199	8
2023-08-04T12:00	18772	71	-52.0	-84.1	195	8
2023-08-04T12:00	18799	71	-52.2	-83.6	190	8
2023-08-04T12:00	18819	71	-52.3	-83.7	184	7
2023-08-04T12:00	18841	70	-52.3	-83.7	178	7
2023-08-04T12:00	18866	70	-52.3	-84.3	172	7
2023-08-04T12:00	18887	70	-52.3	-84.3	167	7
2023-08-04T12:00	18914	70	-52.3	-84.3	165	8
2023-08-04T12:00	18933	69	-52.3	-84.3	165	9
2023-08-04T12:00	18960	69	-52.0	-84.1	167	10
2023-08-04T12:00	18984	69	-51.4	-83.6	169	10
2023-08-04T12:00	19005	69	-51.2	-84.2	172	11
2023-08-04T12:00	19028	68	-51.3	-84.3	174	12
2023-08-04T12:00	19050	68	-51.3	-83.6	176	12
2023-08-04T12:00	19071	68	-51.4	-83.6	178	12
2023-08-04T12:00	19097	68	-51.4	-83.6	179	13
2023-08-04T12:00	19119	67	-51.5	-83.7	179	13
2023-08-04T12:00	19140	67	-51.7	-83.9	179	13
2023-08-04T12:00	19164	67	-51.8	-83.9	180	13
2023-08-04T12:00	19187	67	-51.9	-84.0	181	13
2023-08-04T12:00	19210	67	-52.1	-84.2	182	13
2023-08-04T12:00	19232	66	-52.2	-83.6	184	13
2023-08-04T12:00	19253	66	-52.3	-83.7	186	12
2023-08-04T12:00	19279	66	-52.4	-83.8	189	12
2023-08-04T12:00	19300	66	-52.4	-84.4	191	12
2023-08-04T12:00	19324	65	-52.4	-84.4	194	11
2023-08-04T12:00	19346	65	-52.2	-84.2	197	11
2023-08-04T12:00	19373	65	-51.9	-84.0	200	11
2023-08-04T12:00	19395	65	-51.7	-83.9	203	11
2023-08-04T12:00	19420	64	-51.7	-84.5	206	11
2023-08-04T12:00	19444	64	-51.5	-84.4	209	11
2023-08-04T12:00	19466	64	-51.4	-84.3	211	11
2023-08-04T12:00	19491	64	-51.3	-84.3	212	10
2023-08-04T12:00	19515	64	-51.0	-84.0	213	10
2023-08-04T12:00	19533	63	-50.7	-83.8	214	9
2023-08-04T12:00	19557	63	-50.8	-83.9	214	8
2023-08-04T12:00	19578	63	-50.8	-83.9	214	7
2023-08-04T12:00	19604	63	-50.9	-84.0	212	7
2023-08-04T12:00	19625	62	-50.9	-84.0	210	6
2023-08-04T12:00	19648	62	-50.6	-83.7	208	6
2023-08-04T12:00	19674	62	-50.5	-83.7	206	6
2023-08-04T12:00	19696	62	-50.6	-83.7	204	6
2023-08-04T12:00	19720	62	-50.7	-83.8	203	5
2023-08-04T12:00	19745	61	-50.8	-83.9	202	5
2023-08-04T12:00	19768	61	-50.9	-83.3	201	5
2023-08-04T12:00	19793	61	-51.1	-83.4	199	5
2023-08-04T12:00	19817	61	-51.3	-83.6	194	4
2023-08-04T12:00	19840	60	-51.4	-83.6	187	4
2023-08-04T12:00	19865	60	-51.5	-83.7	177	4
2023-08-04T12:00	19884	60	-51.4	-84.3	170	4
2023-08-04T12:00	19908	60	-51.1	-84.1	166	4
2023-08-04T12:00	19929	60	-50.7	-83.8	168	4
2023-08-04T12:00	19957	59	-50.2	-83.5	173	5
2023-08-04T12:00	19979	59	-50.0	-83.3	179	5
2023-08-04T12:00	19998	59	-50.0	-83.3	183	6
2023-08-04T12:00	20024	59	-50.0	-83.3	185	6
2023-08-04T12:00	20044	59	-50.1	-83.4	186	7
2023-08-04T12:00	20069	58	-50.2	-83.5	187	7
2023-08-04T12:00	20093	58	-50.4	-83.6	186	8
2023-08-04T12:00	20117	58	-50.5	-83.7	186	8
2023-08-04T12:00	20141	58	-50.7	-83.8	186	9
2023-08-04T12:00	20166	57	-50.9	-84.0	186	9
2023-08-04T12:00	20186	57	-51.0	-84.0	186	9
2023-08-04T12:00	20210	57	-50.7	-83.8	187	9
2023-08-04T12:00	20233	57	-50.5	-83.7	188	9
2023-08-04T12:00	20254	57	-50.4	-83.6	190	8
2023-08-04T12:00	20281	56	-50.3	-83.5	192	7
2023-08-04T12:00	20302	56	-50.0	-83.3	196	7
2023-08-04T12:00	20326	56	-49.8	-83.2	200	6
2023-08-04T12:00	20351	56	-49.8	-84.0	203	6
2023-08-04T12:00	20372	56	-49.8	-83.2	204	6
2023-08-04T12:00	20399	55	-49.8	-83.2	204	5
2023-08-04T12:00	20417	55	-49.8	-83.2	203	5
2023-08-04T12:00	20444	55	-49.9	-83.2	201	5
2023-08-04T12:00	20469	55	-50.0	-83.3	201	5
2023-08-04T12:00	20489	55	-50.0	-83.3	201	5
2023-08-04T12:00	20507	55	-49.8	-83.2	202	6
2023-08-04T12:00	20533	54	-49.7	-83.1	201	5
2023-08-04T12:00	20561	54	-49.7	-83.1	198	6
2023-08-04T12:00	20582	54	-49.7	-83.1	191	6
2023-08-04T12:00	20605	54	-49.6	-83.8	183	6
2023-08-04T12:00	20630	54	-49.4	-83.7	176	6
2023-08-04T12:00	20651	53	-49.3	-83.6	170	7
2023-08-04T12:00	20679	53	-49.2	-83.5	166	7
2023-08-04T12:00	20700	53	-49.2	-83.5	162	8
2023-08-04T12:00	20724	53	-49.3	-83.6	159	8
2023-08-04T12:00	20748	53	-49.4	-83.7	157	9
2023-08-04T12:00	20772	52	-49.4	-83.7	156	10
2023-08-04T12:00	20794	52	-49.3	-83.6	155	10
2023-08-04T12:00	20819	52	-49.0	-83.4	156	10
2023-08-04T12:00	20843	52	-48.8	-83.2	158	10
2023-08-04T12:00	20869	52	-48.7	-83.2	160	10
2023-08-04T12:00	20888	51	-48.6	-83.1	163	9
2023-08-04T12:00	20911	51	-48.5	-83.0	167	8
2023-08-04T12:00	20937	51	-48.5	-83.0	170	8
2023-08-04T12:00	20961	51	-48.5	-83.0	174	7
2023-08-04T12:00	20985	51	-48.6	-83.1	177	7
2023-08-04T12:00	21008	51	-48.6	-83.1	181	6
2023-08-04T12:00	21030	50	-48.7	-83.2	186	6
2023-08-04T12:00	21054	50	-48.8	-83.2	191	6
2023-08-04T12:00	21078	50	-48.8	-83.2	197	5
2023-08-04T12:00	21105	50	-48.8	-83.2	202	5
2023-08-04T12:00	21128	50	-48.6	-83.1	207	5
2023-08-04T12:00	21151	49	-48.4	-82.9	211	4
2023-08-04T12:00	21176	49	-48.5	-83.0	215	4
2023-08-04T12:00	21201	49	-48.6	-83.1	220	4
2023-08-04T12:00	21225	49	-48.7	-83.2	226	4
2023-08-04T12:00	21245	49	-48.8	-83.2	233	3
2023-08-04T12:00	21271	49	-48.9	-83.3	243	3
2023-08-04T12:00	21296	48	-49.0	-83.4	253	3
2023-08-04T12:00	21320	48	-49.1	-83.4	264	4
2023-08-04T12:00	21344	48	-49.2	-83.5	274	4
2023-08-04T12:00	21372	48	-49.3	-82.8	283	4
2023-08-04T12:00	21396	48	-49.4	-82.9	292	5
2023-08-04T12:00	21418	47	-49.5	-83.7	301	5
2023-08-04T12:00	21438	47	-49.5	-83.7	312	5
2023-08-04T12:00	21470	47	-49.4	-83.7	322	4
2023-08-04T12:00	21490	47	-49.2	-83.5	332	4
2023-08-04T12:00	21513	47	-49.0	-83.4	342	4
2023-08-04T12:00	21542	47	-48.9	-83.3	350	4
2023-08-04T12:00	21566	46	-49.0	-83.4	359	3
2023-08-04T12:00	21587	46	-49.1	-83.4	11	3
2023-08-04T12:00	21605	46	-49.2	-83.5	27	3
2023-08-04T12:00	21633	46	-49.4	-83.7	44	3
2023-08-04T12:00	21657	46	-49.6	-83.0	60	3
2023-08-04T12:00	21682	46	-49.7	-83.1	70	4
2023-08-04T12:00	21714	45	-49.7	-83.1	76	5
2023-08-04T12:00	21740	45	-49.7	-83.1	79	6
2023-08-04T12:00	21764	45	-49.8	-83.2	81	6
2023-08-04T12:00	21788	45	-49.9	-83.2	83	6
2023-08-04T12:00	21811	45	-50.1	-83.4	85	7
2023-08-04T12:00	21833	45	-50.4	-83.6	88	7
2023-08-04T12:00	21852	44	-50.6	-83.7	91	7
2023-08-04T12:00	21874	44	-50.7	-83.8	94	7
2023-08-04T12:00	21902	44	-50.9	-84.0	98	8
2023-08-04T12:00	21929	44	-51.1	-84.1	102	8
2023-08-04T12:00	21952	44	-51.3	-84.3	106	8
2023-08-04T12:00	21974	44	-51.3	-84.3	112	8
2023-08-04T12:00	22004	43	-51.1	-84.1	118	8
2023-08-04T12:00	22025	43	-51.1	-84.1	124	8
2023-08-04T12:00	22053	43	-51.1	-84.1	130	8
2023-08-04T12:00	22076	43	-51.2	-84.2	135	8
2023-08-04T12:00	22098	43	-51.3	-84.3	141	9
2023-08-04T12:00	22124	43	-51.3	-84.3	146	9
2023-08-04T12:00	22151	42	-51.4	-84.3	150	9
2023-08-04T12:00	22182	42	-51.6	-84.5	155	9
2023-08-04T12:00	22204	42	-51.8	-83.9	158	9
2023-08-04T12:00	22235	42	-51.9	-84.0	161	9
2023-08-04T12:00	22262	42	-52.0	-84.1	164	9
2023-08-04T12:00	22287	42	-51.9	-84.7	165	8
2023-08-04T12:00	22309	41	-51.8	-84.6	166	8
2023-08-04T12:00	22334	41	-51.8	-84.6	166	7
2023-08-04T12:00	22361	41	-51.7	-84.5	164	6
2023-08-04T12:00	22385	41	-51.7	-84.5	161	6
2023-08-04T12:00	22418	41	-51.8	-84.6	156	5
2023-08-04T12:00	22440	41	-51.9	-84.7	148	5
2023-08-04T12:00	22466	40	-52.0	-84.8	138	5
2023-08-04T12:00	22495	40	-52.1	-84.2	128	5
2023-08-04T12:00	22517	40	-52.1	-84.2	120	5
2023-08-04T12:00	22545	40	-52.1	-84.2	115	6
2023-08-04T12:00	22575	40	-52.1	-84.8	113	6
2023-08-04T12:00	22601	40	-52.2	-84.9	114	6
2023-08-04T12:00	22624	39	-52.1	-84.8	118	7
2023-08-04T12:00	22656	39	-51.9	-84.7	122	7
2023-08-04T12:00	22677	39	-51.9	-84.7	127	7
2023-08-04T12:00	22701	39	-52.0	-84.8	131	7
2023-08-04T12:00	22726	39	-52.1	-84.8	134	7
2023-08-04T12:00	22760	39	-52.2	-84.2	137	7
2023-08-04T12:00	22776	39	-52.4	-84.4	138	7
2023-08-04T12:00	22801	38	-52.4	-84.4	139	7
2023-08-04T12:00	22832	38	-52.4	-84.4	138	6
2023-08-04T12:00	22855	38	-52.3	-85.0	135	6
2023-08-04T12:00	22883	38	-52.2	-84.9	132	6
2023-08-04T12:00	22911	38	-52.1	-84.8	127	6
2023-08-04T12:00	22934	38	-52.1	-84.8	122	6
2023-08-04T12:00	22950	37	-52.1	-84.8	118	7
2023-08-04T12:00	22985	37	-52.2	-84.9	115	7
2023-08-04T12:00	23008	37	-52.2	-84.9	113	8
2023-08-04T12:00	23036	37	-52.0	-84.8	113	9
2023-08-04T12:00	23056	37	-51.6	-84.5	114	10
2023-08-04T12:00	23079	37	-51.5	-84.4	115	11
2023-08-04T12:00	23104	37	-51.4	-85.1	118	12
2023-08-04T12:00	23124	37	-51.2	-85.0	120	12
2023-08-04T12:00	23150	36	-51.2	-85.0	124	13
2023-08-04T12:00	23178	36	-51.2	-85.0	127	13
2023-08-04T12:00	23190	36	-51.2	-85.0	130	13
2023-08-04T12:00	23219	36	-51.1	-84.9	134	12
2023-08-04T12:00	23240	36	-51.0	-84.8	138	12
2023-08-04T12:00	23259	36	-50.9	-84.7	141	12
2023-08-04T12:00	23285	36	-50.9	-84.7	145	11
2023-08-04T12:00	23311	36	-50.8	-84.7	149	11
2023-08-04T12:00	23326	35	-50.8	-84.7	152	10
2023-08-04T12:00	23358	35	-50.8	-84.7	155	10
2023-08-04T12:00	23370	35	-50.8	-84.7	157	10
2023-08-04T12:00	23392	35	-50.8	-84.7	158	10
2023-08-04T12:00	23422	35	-50.7	-84.6	158	9
2023-08-04T12:00	23442	35	-50.4	-84.4	157	9
2023-08-04T12:00	23462	35	-50.3	-84.3	157	9
2023-08-04T12:00	23484	35	-50.1	-84.2	156	9
2023-08-04T12:00	23508	34	-49.9	-84.0	156	9
2023-08-04T12:00	23533	34	-49.8	-84.0	156	9
2023-08-04T12:00	23558	34	-49.7	-83.9	155	9
2023-08-04T12:00	23577	34	-49.7	-83.9	153	8
2023-08-04T12:00	23606	34	-49.7	-83.9	151	8
2023-08-04T12:00	23629	34	-49.6	-83.8	149	8
2023-08-04T12:00	23654	34	-49.5	-83.7	148	8
2023-08-04T12:00	23676	34	-49.4	-83.7	149	7
2023-08-04T12:00	23697	33	-49.3	-83.6	152	7
2023-08-04T12:00	23723	33	-49.3	-83.6	155	7
2023-08-04T12:00	23751	33	-49.4	-83.7	156	6
2023-08-04T12:00	23774	33	-49.3	-83.6	155	6
2023-08-04T12:00	23801	33	-49.2	-83.5	151	5
2023-08-04T12:00	23828	33	-49.0	-83.4	144	5
2023-08-04T12:00	23854	33	-48.9	-83.3	136	5
2023-08-04T12:00	23882	33	-48.9	-83.3	129	5
2023-08-04T12:00	23903	32	-48.9	-83.3	124	5
2023-08-04T12:00	23934	32	-48.9	-83.3	121	5
2023-08-04T12:00	23956	32	-49.0	-83.4	120	5
2023-08-04T12:00	23983	32	-49.0	-83.4	121	5
2023-08-04T12:00	24008	32	-49.0	-83.4	122	6
2023-08-04T12:00	24030	32	-49.0	-83.4	124	6
2023-08-04T12:00	24060	32	-49.1	-83.4	125	6
2023-08-04T12:00	24085	32	-49.1	-83.4	127	6
2023-08-04T12:00	24110	31	-49.1	-83.4	128	7
2023-08-04T12:00	24135	31	-49.1	-83.4	129	7
2023-08-04T12:00	24162	31	-49.0	-83.4	132	7
2023-08-04T12:00	24192	31	-49.0	-83.4	136	7
2023-08-04T12:00	24213	31	-48.9	-83.3	139	6
2023-08-04T12:00	24234	31	-49.0	-83.4	143	6
2023-08-04T12:00	24260	31	-48.9	-83.3	145	6
2023-08-04T12:00	24286	31	-48.7	-83.2	145	5
2023-08-04T12:00	24318	30	-48.7	-83.2	143	5
2023-08-04T12:00	24339	30	-48.7	-83.2	139	5
2023-08-04T12:00	24370	30	-48.8	-83.2	135	5
2023-08-04T12:00	24395	30	-48.8	-83.2	132	5
2023-08-04T12:00	24416	30	-48.9	-83.3	131	5
2023-08-04T12:00	24445	30	-49.0	-83.4	130	5
2023-08-04T12:00	24474	30	-49.1	-83.4	130	5
2023-08-04T12:00	24496	30	-49.1	-83.4	130	5
2023-08-04T12:00	24517	30	-49.2	-83.5	131	5
2023-08-04T12:00	24551	29	-49.2	-83.5	130	5
2023-08-04T12:00	24568	29	-49.3	-83.6	129	4
2023-08-04T12:00	24601	29	-49.4	-83.7	126	4
2023-08-04T12:00	24629	29	-49.5	-83.7	122	4
2023-08-04T12:00	24650	29	-49.5	-83.7	119	4
2023-08-04T12:00	24677	29	-49.5	-83.7	117	4
2023-08-04T12:00	24702	29	-49.4	-83.7	117	4
2023-08-04T12:00	24728	29	-49.4	-83.7	118	5
2023-08-04T12:00	24752	28	-49.4	-83.7	119	5
2023-08-04T12:00	24774	28	-49.5	-83.7	120	5
2023-08-04T12:00	24804	28	-49.6	-83.8	120	5
2023-08-04T12:00	24829	28	-49.7	-83.9	119	5
2023-08-04T12:00	24850	28	-49.7	-83.9	116	6
2023-08-04T12:00	24872	28	-49.7	-83.9	114	6
2023-08-04T12:00	24904	28	-49.7	-83.9	112	7
2023-08-04T12:00	24928	28	-49.8	-84.0	110	7
2023-08-04T12:00	24958	28	-49.7	-83.9	110	7
2023-08-04T12:00	24981	28	-49.7	-83.9	110	7
2023-08-04T12:00	25010	27	-49.6	-83.8	111	7
2023-08-04T12:00	25041	27	-49.5	-83.7	112	6
2023-08-04T12:00	25062	27	-49.4	-83.7	113	6
2023-08-04T12:00	25087	27	-49.4	-83.7	114	6
2023-08-04T12:00	25111	27	-49.4	-83.7	115	5
2023-08-04T12:00	25142	27	-49.4	-83.7	114	5
2023-08-04T12:00	25170	27	-49.3	-84.5	113	5
2023-08-04T12:00	25201	27	-49.2	-84.4	111	5
2023-08-04T12:00	25229	27	-49.1	-84.3	108	5
2023-08-04T12:00	25248	26	-49.0	-84.3	106	5
2023-08-04T12:00	25283	26	-49.1	-84.3	103	5
2023-08-04T12:00	25311	26	-49.1	-84.3	100	6
2023-08-04T12:00	25336	26	-49.1	-84.3	98	6
2023-08-04T12:00	25368	26	-49.1	-84.3	96	5
2023-08-04T12:00	25393	26	-49.0	-84.3	95	5
2023-08-04T12:00	25418	26	-49.0	-84.3	94	5
2023-08-04T12:00	25448	26	-49.0	-84.3	92	5
2023-08-04T12:00	25470	26	-49.1	-83.4	91	4
2023-08-04T12:00	25501	25	-49.2	-83.5	90	4
2023-08-04T12:00	25536	25	-49.2	-83.5	91	4
2023-08-04T12:00	25559	25	-49.2	-84.4	93	4
2023-08-04T12:00	25581	25	-49.1	-84.3	96	4
2023-08-04T12:00	25611	25	-49.0	-84.3	98	4
2023-08-04T12:00	25643	25	-48.9	-84.2	98	4
2023-08-04T12:00	25666	25	-48.7	-84.1	98	4
2023-08-04T12:00	25697	25	-48.7	-84.1	98	4
2023-08-04T12:00	25734	25	-48.7	-84.1	98	4
2023-08-04T12:00	25747	24	-48.7	-84.1	98	5
2023-08-04T12:00	25775	24	-48.7	-84.1	99	6
2023-08-04T12:00	25804	24	-48.6		99	7
2023-08-04T12:00	25832	24	-48.6		100	7
2023-08-04T12:00	25860	24	-48.8	-84.1	101	8
2023-08-04T12:00	25879	24	-48.9	-83.3	102	9
2023-08-04T12:00	25906	24	-49.1	-83.4	103	10
2023-08-04T12:00	25937	24	-49.2	-83.5	104	11
2023-08-04T12:00	25954	24	-49.3	-83.6	104	11
2023-08-04T12:00	25986	24	-49.3	-83.6	105	12
2023-08-04T12:00	26009	24	-49.3	-83.6	106	12
2023-08-04T12:00	26039	23	-49.3	-83.6	108	11
2023-08-04T12:00	26060	23	-49.3	-83.6	109	11
2023-08-04T12:00	26083	23	-49.3	-83.6	112	10
2023-08-04T12:00	26115	23	-49.4	-83.7	116	9
2023-08-04T12:00	26146	23	-49.4	-83.7	120	9
2023-08-04T12:00	26168	23	-49.4	-83.7	124	8
2023-08-04T12:00	26187	23	-49.4	-83.7	127	8
2023-08-04T12:00	26212	23	-49.4	-84.6	127	7
2023-08-04T12:00	26238	23	-49.4	-84.6	124	7
2023-08-04T12:00	26263	23	-49.2	-84.4	119	7
2023-08-04T12:00	26295	23	-49.0	-84.3	113	7
2023-08-04T12:00	26314	22	-48.8	-84.1	107	7
2023-08-04T12:00	26343	22	-48.6		101	7
2023-08-04T12:00	26359	22	-48.5	-83.9	96	7
2023-08-04T12:00	26392	22	-48.5	-83.9	92	7
2023-08-04T12:00	26421	22	-48.5	-83.9	89	7
2023-08-04T12:00	26451	22	-48.5	-83.9	88	7
2023-08-04T12:00	26472	22	-48.5	-83.9	89	7
2023-08-04T12:00	26495	22	-48.4	-83.8	93	7
2023-08-04T12:00	26521	22	-48.3	-83.8	99	7
2023-08-04T12:00	26549	22	-48.2	-83.7	104	7
2023-08-04T12:00	26563	22	-48.0	-83.6	107	7
2023-08-04T12:00	26594	22	-47.9	-83.5	109	8
2023-08-04T12:00	26627	21	-47.8	-83.4	109	8
2023-08-04T12:00	26668	21	-47.9	-83.5	110	8
2023-08-04T12:00	26681	21	-47.9	-83.5	110	9
2023-08-04T12:00	26716	21	-48.0	-83.6	110	9
2023-08-04T12:00	26741	21	-48.0	-83.6	109	9
2023-08-04T12:00	26768	21	-47.9	-83.5	108	9
2023-08-04T12:00	26803	21	-48.0	-83.6	107	10
2023-08-04T12:00	26814	21	-48.0	-83.6	106	10
2023-08-04T12:00	26849	21	-48.0	-83.6	106	10
2023-08-04T12:00	26879	21	-48.1	-83.6	106	10
2023-08-04T12:00	26900	21	-48.1	-83.6	107	10
2023-08-04T12:00	26939	20	-48.2	-83.7	108	10
2023-08-04T12:00	26958	20	-48.4	-83.8	110	10
2023-08-04T12:00	26996	20	-48.5	-83.9	112	10
2023-08-04T12:00	27023	20	-48.5	-83.9	115	10
2023-08-04T12:00	27057	20	-48.5	-83.9	118	10
2023-08-04T12:00	27078	20	-48.6		121	11
2023-08-04T12:00	27108	20	-48.6		124	11
2023-08-04T12:00	27131	20	-48.6		125	11
2023-08-04T12:00	27162	20	-48.5	-83.9	126	12
2023-08-04T12:00	27189	20	-48.5	-83.9	126	12
2023-08-04T12:00	27215	20	-48.5	-83.9	125	12
2023-08-04T12:00	27244	20	-48.4	-83.8	124	12
2023-08-04T12:00	27258	19	-48.3	-83.8	122	12
2023-08-04T12:00	27299	19	-48.3	-83.8	120	11
2023-08-04T12:00	27325	19	-48.2	-83.7	118	11
2023-08-04T12:00	27352	19	-48.1	-83.6	116	11
2023-08-04T12:00	27378	19	-48.0	-83.6	115	10
2023-08-04T12:00	27403	19	-47.8	-84.5	113	10
2023-08-04T12:00	27430	19	-47.7	-84.4	113	9
2023-08-04T12:00	27454	19	-47.6	-84.3	112	9
2023-08-04T12:00	27478	19	-47.5	-84.3	112	8
2023-08-04T12:00	27505	19	-47.4	-84.2	112	8
2023-08-04T12:00	27534	19	-47.4	-84.2	112	8
2023-08-04T12:00	27573	19	-47.3	-84.1	113	9
2023-08-04T12:00	27588	19	-47.2	-84.1	115	9
2023-08-04T12:00	27613	18	-47.2	-84.1	116	9
2023-08-04T12:00	27640	18	-47.2	-84.1	116	10
2023-08-04T12:00	27666	18	-47.1	-84.0	115	10
2023-08-04T12:00	27685	18	-47.0	-83.9	113	11
2023-08-04T12:00	27698	18	-46.9	-83.9	111	11
2023-08-04T12:00	27734	18	-46.9	-83.9	108	11
2023-08-04T12:00	27757	18	-46.9	-83.9	107	12
2023-08-04T12:00	27770	18	-46.8	-83.8	106	12
2023-08-04T12:00	27801	18	-46.7	-83.7	106	12
2023-08-04T12:00	27820	18	-46.7	-83.7	107	12
2023-08-04T12:00	27856	18	-46.8	-83.8	108	11
2023-08-04T12:00	27863	18	-46.7	-83.7	109	11
2023-08-04T12:00	27893	18	-46.8	-83.8	111	10
2023-08-04T12:00	27912	18	-46.8	-83.8	113	10
2023-08-04T12:00	27943	18	-46.7	-83.7	115	10
2023-08-04T12:00	27961	17	-46.6	-83.6	116	9
2023-08-04T12:00	27991	17	-46.5	-83.6	117	10
2023-08-04T12:00	28024	17	-46.5	-83.6	119	10
2023-08-04T12:00	28026	17	-46.6	-83.6	120	10
2023-08-04T12:00	28063	17	-46.6	-83.6	121	10
2023-08-04T12:00	28081	17	-46.7	-83.7	122	10
2023-08-04T12:00	28108	17	-46.8	-83.8	124	10
2023-08-04T12:00	28136	17	-46.8	-83.8	125	9
2023-08-04T12:00	28147	17	-46.9	-83.9	126	9
2023-08-04T12:00	28198	17	-46.9	-83.9	127	9
2023-08-04T12:00	28220	17	-46.9	-83.9	128	8
2023-08-04T12:00	28234	17	-46.9	-83.9	129	8
2023-08-04T12:00	28267	17	-46.9	-83.9	129	7
2023-08-04T12:00	28287	17	-46.7	-83.7	130	6
2023-08-04T12:00	28324	17	-46.4	-83.5	129	5
2023-08-04T12:00	28347	17	-46.1	-83.3	126	5
2023-08-04T12:00	28370	16	-45.9	-83.2	121	4
2023-08-04T12:00	28394	16	-45.8	-83.1	116	4
2023-08-04T12:00	28416	16	-45.7	-83.0	110	4
2023-08-04T12:00	28448	16	-45.7	-83.0	106	4
2023-08-04T12:00	28471	16	-45.7	-83.0	102	5
2023-08-04T12:00	28503	16	-45.7	-83.0	99	5
2023-08-04T12:00	28530	16	-45.6	-82.9	96	5
2023-08-04T12:00	28549	16	-45.5	-82.9	94	5
2023-08-04T12:00	28592	16	-45.4	-82.8	93	5
2023-08-04T12:00	28611	16	-45.3	-82.7	93	5
2023-08-04T12:00	28638	16	-45.3	-82.7	96	5
2023-08-04T12:00	28676	16	-45.4	-82.8	98	5
2023-08-04T12:00	28690	16	-45.4	-82.8	99	5
2023-08-04T12:00	28714	16	-45.4	-82.8	98	5
2023-08-04T12:00	28743	16	-45.2	-82.7	93	5
2023-08-04T12:00	28770	16	-45.0	-82.5	87	5
2023-08-04T12:00	28789	15	-44.8	-82.4	80	5
2023-08-04T12:00	28820	15	-44.7	-82.3	73	5
2023-08-04T12:00	28854	15	-44.7	-82.3	66	5
2023-08-04T12:00	28872	15	-44.8	-82.4	60	6
2023-08-04T12:00	28896	15	-44.9	-82.5	56	6
2023-08-04T12:00	28926	15	-44.9	-82.5	54	7
2023-08-04T12:00	28950	15	-44.8	-82.4	55	7
2023-08-04T12:00	28976	15	-44.6	-82.2	58	7
2023-08-04T12:00	29008	15	-44.5	-82.2	62	7
2023-08-04T12:00	29026	15	-44.6	-82.2	68	7
2023-08-04T12:00	29071	15	-44.7	-82.3	75	8
2023-08-04T12:00	29102	15	-44.7	-82.3	81	8
2023-08-04T12:00	29117	15	-44.8	-82.4	86	8
2023-08-04T12:00	29159	15	-44.7	-82.3	91	8
2023-08-04T12:00	29166	15	-44.7	-82.3	94	9
2023-08-04T12:00	29192	15	-44.8	-82.4	95	8
2023-08-04T12:00	29230	14	-44.8	-82.4	94	8
2023-08-04T12:00	29265	14	-44.8	-82.4	92	7
2023-08-04T12:00	29284	14	-44.7	-82.3	88	7
2023-08-04T12:00	29310	14	-44.7	-82.3	84	6
2023-08-04T12:00	29331	14	-44.7	-82.3	82	6
2023-08-04T12:00	29352	14	-44.7	-82.3	83	6
2023-08-04T12:00	29387	14	-44.6	-82.2	86	6
2023-08-04T12:00	29426	14	-44.6	-82.2	90	6
2023-08-04T12:00	29439	14	-44.7	-82.3	95	7
2023-08-04T12:00	29475	14	-44.7	-82.3	98	7
2023-08-04T12:00	29499	14	-44.6	-82.2	102	7
2023-08-04T12:00	29527	14	-44.5	-82.2	104	7
2023-08-04T12:00	29566	14	-44.3	-82.0	105	7
2023-08-04T12:00	29587	14	-44.2	-82.0	105	7
2023-08-04T12:00	29627	14	-44.1	-81.9	102	6
2023-08-04T12:00	29644	14	-44.1	-81.9	98	6
2023-08-04T12:00	29659	14	-44.0	-81.8	92	6
2023-08-04T12:00	29706	13	-43.9	-81.8	85	6
2023-08-04T12:00	29721	13	-43.8	-81.7	79	6
2023-08-04T12:00	29755	13	-43.7	-81.6	75	6
2023-08-04T12:00	29798	13	-43.6	-81.5	73	6
2023-08-04T12:00	29825	13	-43.5	-81.5	74	5
2023-08-04T12:00	29835	13	-43.4	-81.4	75	5
2023-08-04T12:00	29877	13	-43.3	-81.3	77	5
2023-08-04T12:00	29911	13	-43.1	-81.2	78	6
2023-08-04T12:00	29925	13	-42.9	-81.1	78	6
2023-08-04T12:00	29957	13	-42.7	-80.9	80	7
2023-08-04T12:00	29993	13	-42.7	-80.9	82	7
2023-08-04T12:00	30022	13	-42.7	-80.9	85	7
2023-08-04T12:00	30044	13	-42.7	-80.9	88	8
2023-08-04T12:00	30074	13	-42.6	-80.8	92	8
2023-08-04T12:00	30089	13	-42.5	-80.8	94	8
2023-08-04T12:00	30130	13	-42.5	-80.8	96	8
2023-08-04T12:00	30167	13	-42.5	-80.8	95	8
2023-08-04T12:00	30195	13	-42.5	-80.8	92	8
2023-08-04T12:00	30228	13	-42.4	-80.7	87	8
2023-08-04T12:00	30250	12	-42.4	-80.7	80	8
2023-08-04T12:00	30287	12	-42.3	-80.6	73	8
2023-08-04T12:00	30314	12	-42.2	-80.6	67	8
2023-08-04T12:00	30343	12	-42.2	-80.6	62	8
2023-08-04T12:00	30368	12	-42.2	-80.6	61	8
2023-08-04T12:00	30395	12	-42.1	-80.5	61	9
2023-08-04T12:00	30422	12	-42.0	-80.4	63	9
2023-08-04T12:00	30445	12	-42.0	-80.4	66	10
2023-08-04T12:00	30481	12	-42.1	-80.5	69	10
2023-08-04T12:00	30516	12	-42.1	-80.5	73	10
2023-08-04T12:00	30542	12	-42.2	-80.6	76	10
2023-08-04T12:00	30584	12	-42.3	-80.6	79	11
2023-08-04T12:00	30602	12	-42.3	-80.6	82	11
2023-08-04T12:00	30642	12	-42.3	-80.6	84	11
2023-08-04T12:00	30665	12	-42.2	-80.6	86	11
2023-08-04T12:00	30683	12	-42.2	-80.6	87	11
2023-08-04T12:00	30715	12	-42.2	-80.6	89	11
2023-08-04T12:00	30719	12	-42.2	-80.6	91	11
2023-08-04T12:00	30756	12	-42.2	-80.6	93	11
2023-08-04T12:00	30793	11	-42.3	-80.6	95	11
2023-08-04T12:00	30819	11	-42.3	-80.6	98	11
2023-08-04T12:00	30846	11	-42.2	-80.6	101	11
2023-08-04T12:00	30883	11	-42.2	-80.6	103	11
2023-08-04T12:00	30891	11	-42.2	-80.6	105	11
2023-08-04T12:00	30937	11	-42.2	-80.6	105	11
2023-08-04T12:00	30971	11	-42.1	-80.5	103	10
2023-08-04T12:00	30986	11	-42.0	-80.4	100	10
2023-08-04T12:00	31022	11	-41.8	-80.3	95	11
2023-08-04T12:00	31036	11	-41.6	-80.1	91	11
2023-08-04T12:00	31055	11	-41.4	-80.0	88	12
2023-08-04T12:00	31079	11	-41.2	-79.9	86	12
2023-08-04T12:00	31109	11	-40.9	-79.7	87	13
2023-08-04T12:00	31120	11	-40.7	-79.5	88	13
2023-08-04T12:00	31161	11	-40.6	-79.5	91	12
2023-08-04T12:00	31172	11	-40.5	-79.4	94	12
2023-08-04T12:00	31217	11	-40.4	-79.3	98	11
2023-08-04T12:00	31246	11	-40.3	-79.2	101	11
2023-08-04T12:00	31247	11	-40.3	-79.2	105	10
2023-08-04T12:00	31274	11	-40.3	-79.2	107	10
2023-08-04T12:00	31298	11	-40.3	-79.2	109	9
2023-08-04T12:00	31313	11	-40.3	-79.2	111	9
2023-08-04T12:00	31371	11	-40.4	-79.3	111	8
2023-08-04T12:00	31376	11	-40.3	-79.2	112	8
2023-08-04T12:00	31413	11	-40.2	-79.2	114	7
2023-08-04T12:00	31432	10	-40.1	-79.1	116	7
2023-08-04T12:00	31459	10	-40.0	-79.0	118	6
2023-08-04T12:00	31495	10	-39.9	-79.0	118	6
2023-08-04T12:00	31523	10	-39.8	-78.9	115	6
2023-08-04T12:00	31544	10	-39.8	-78.9	110	6
2023-08-04T12:00	31579	10	-39.7	-78.8	104	6
2023-08-04T12:00	31608	10	-39.6	-78.8	97	6
2023-08-04T12:00	31630	10	-39.5	-78.7	91	6
2023-08-04T12:00	31646	10	-39.5	-78.7	85	7
2023-08-04T12:00	31684	10	-39.5	-78.7	82	8
2023-08-04T12:00	31713	10	-39.5	-78.7	79	8
2023-08-04T12:00	31734	10	-39.5	-78.7	78	9
2023-08-04T12:00	31764	10	-39.4	-78.6	77	9
2023-08-04T12:00	31794	10	-39.3	-78.5	78	10
2023-08-04T12:00	31817	10	-39.2	-78.5	80	10
2023-08-04T12:00	31853	10	-39.1	-78.4	82	9
2023-08-04T12:00	31864	10	-39.1	-78.4	84	9
2023-08-04T12:00	31890	10	-39.1	-78.4	86	9
2023-08-04T12:00	31927	10	-39.1	-78.4	86	10
2023-08-04T12:00	31967	10	-39.0	-78.3	85	10
2023-08-04T12:00	31977	10	-38.8	-78.2	83	10
2023-08-04T12:00	32022	10	-38.7	-78.1	80	10
2023-08-04T12:00	32042	10	-38.6	-78.1	77	11
2023-08-04T12:00	32067	10	-38.6	-78.1	74	11
2023-08-04T12:00	32099	9	-38.6	-78.1	71	11
2023-08-04T12:00	32124	9	-38.5	-78.0	68	11
2023-08-04T12:00	32140	9	-38.4	-77.9	64	10
2023-08-04T18:00	115	999	21.1	12.4	278	2
2023-08-04T18:00	140	996	21.0	12.2	261	2
2023-08-04T18:00	169	993	20.8	11.3	259	3
2023-08-04T18:00	194	990	20.6	11.3	258	3
2023-08-04T18:00	217	987	20.4	11.4	259	3
2023-08-04T18:00	243	984	20.1	11.1	259	3
2023-08-04T18:00	268	981	19.9	11.2	260	3
2023-08-04T18:00	288	979	19.7	11.2	261	3
2023-08-04T18:00	312	976	19.5	11.3	263	3
2023-08-04T18:00	336	974	19.2	11.2	267	3
2023-08-04T18:00	361	971	19.0	11.3	270	3
2023-08-04T18:00	383	968	18.8	11.3	272	4
2023-08-04T18:00	410	965	18.5	11.1	274	4
2023-08-04T18:00	434	963	18.3	11.1	274	4
2023-08-04T18:00	457	960	18.1	10.9	274	4
2023-08-04T18:00	480	957	17.8	10.8	274	4
2023-08-04T18:00	503	955	17.6	10.8	274	3
2023-08-04T18:00	526	952	17.4	10.7	275	3
2023-08-04T18:00	549	950	17.2	10.6	279	3
2023-08-04T18:00	574	947	17.0	10.6	284	3
2023-08-04T18:00	597	945	16.8	10.5	289	3
2023-08-04T18:00	616	942	16.6	10.4	293	3
2023-08-04T18:00	638	940	16.4	10.4	295	3
2023-08-04T18:00	663	937	16.2	10.5	295	3
2023-08-04T18:00	685	935	15.9	10.3	294	3
2023-08-04T18:00	706	932	15.7	10.2	292	3
2023-08-04T18:00	732	930	15.5	10.2	292	3
2023-08-04T18:00	755	927	15.3	10.2	293	3
2023-08-04T18:00	778	925	15.1	10.2	297	3
2023-08-04T18:00	800	922	14.9	10.1	301	3
2023-08-04T18:00	825	919	14.7	10.0	305	4
2023-08-04T18:00	852	916	14.4	9.9	310	3
2023-08-04T18:00	876	914	14.2	9.8	314	3
2023-08-04T18:00	904	911	14.0	9.4	318	3
2023-08-04T18:00	932	908	13.7	9.3	321	3
2023-08-04T18:00	960	905	13.5	9.5	320	2
2023-08-04T18:00	990	902	13.2	9.4	315	2
2023-08-04T18:00	1018	899	12.9	9.2	306	2
2023-08-04T18:00	1042	896	12.7	9.3	298	2
2023-08-04T18:00	1068	893	12.5	9.3	294	2
2023-08-04T18:00	1095	891	12.3	9.2	292	2
2023-08-04T18:00	1119	888	12.1	9.1	293	3
2023-08-04T18:00	1142	885	11.9	9.1	293	3
2023-08-04T18:00	1171	882	11.7	8.9	293	3
2023-08-04T18:00	1199	880	11.4	8.8	292	2
2023-08-04T18:00	1223	877	11.1	8.8	290	2
2023-08-04T18:00	1251	874	10.9	8.7	288	2
2023-08-04T18:00	1278	871	10.6	8.5	285	3
2023-08-04T18:00	1301	869	10.4	8.6	284	3
2023-08-04T18:00	1331	866	10.1	8.4	283	3
2023-08-04T18:00	1358	863	9.9	8.3	284	3
2023-08-04T18:00	1387	860	9.7	8.2	285	3
2023-08-04T18:00	1412	857	9.4	8.1	286	3
2023-08-04T18:00	1436	855	9.2	8.3	288	3
2023-08-04T18:00	1461	852	8.9	8.2	288	3
2023-08-04T18:00	1482	850	8.7	7.9	286	3
2023-08-04T18:00	1511	847	8.6	7.6	282	3
2023-08-04T18:00	1533	845	8.4	7.6	276	3
2023-08-04T18:00	1558	842	8.4	7.1	269	3
2023-08-04T18:00	1586	840	8.2	7.0	263	3
2023-08-04T18:00	1611	837	8.0	6.8	259	4
2023-08-04T18:00	1637	834	7.8	6.7	256	4
2023-08-04T18:00	1666	832	7.7	6.5	254	4
2023-08-04T18:00	1687	829	7.5	6.5	253	5
2023-08-04T18:00	1711	827	7.3	6.4	253	5
2023-08-04T18:00	1735	825	7.2	6.3	255	5
2023-08-04T18:00	1758	822	7.0	6.2	256	5
2023-08-04T18:00	1782	820	6.7	6.0	257	6
2023-08-04T18:00	1808	817	6.5	5.9	256	6
2023-08-04T18:00	1837	814	6.4	5.4	254	6
2023-08-04T18:00	1864	812	6.2	5.3	252	6
2023-08-04T18:00	1891	809	6.3	4.6	250	7
2023-08-04T18:00	1912	807	6.3	4.6	249	7
2023-08-04T18:00	1939	804	6.6	3.6	249	7
2023-08-04T18:00	1965	802	6.4	3.5	249	7
2023-08-04T18:00	1993	799	6.2	3.4	249	7
2023-08-04T18:00	2017	797	6.0	3.2	248	7
2023-08-04T18:00	2041	794	5.8	3.2	247	7
2023-08-04T18:00	2066	792	5.6	3.1	244	8
2023-08-04T18:00	2094	789	5.5	2.8	241	8
2023-08-04T18:00	2123	787	5.3	2.4	239	8
2023-08-04T18:00	2145	784	5.4	1.5	237	9
2023-08-04T18:00	2171	782	5.2	1.6	235	9
2023-08-04T18:00	2195	779	4.9	1.5	235	9
2023-08-04T18:00	2220	777	4.8	1.4	235	9
2023-08-04T18:00	2249	774	4.4	1.3	236	9
2023-08-04T18:00	2276	772	4.3	1.2	238	9
2023-08-04T18:00	2307	769	4.0	1.1	240	9
2023-08-04T18:00	2333	766	3.7	1.0	241	9
2023-08-04T18:00	2360	764	3.5	1.0	242	9
2023-08-04T18:00	2386	761	3.3	0.8	241	9
2023-08-04T18:00	2413	759	3.0	0.7	240	9
2023-08-04T18:00	2434	757	2.9	0.6	238	9
2023-08-04T18:00	2460	755	2.6	0.6	236	9
2023-08-04T18:00	2478	753	2.4	0.4	234	9
2023-08-04T18:00	2508	750	2.2	0.2	233	10
2023-08-04T18:00	2531	748	2.0	0.2	231	10
2023-08-04T18:00	2557	745	1.8	0.0	230	11
2023-08-04T18:00	2583	743	1.7	-0.7	227	11
2023-08-04T18:00	2611	741	1.9	-0.5	225	11
2023-08-04T18:00	2633	739	1.8	-0.3	223	11
2023-08-04T18:00	2655	736	1.6	-0.2	221	11
2023-08-04T18:00	2685	734	1.8	-0.2	219	11
2023-08-04T18:00	2710	731	1.6	-0.2	219	11
2023-08-04T18:00	2735	729	1.5	-0.2	220	11
2023-08-04T18:00	2756	727	1.3	-0.1	222	11
2023-08-04T18:00	2786	725	1.2	-0.4	224	11
2023-08-04T18:00	2809	723	1.1	-0.4	225	11
2023-08-04T18:00	2833	720	1.2	-0.6	227	11
2023-08-04T18:00	2857	718	1.1	-1.1	230	11
2023-08-04T18:00	2880	716	1.1	-2.0	233	11
2023-08-04T18:00	2902	714	1.0	-1.9	235	10
2023-08-04T18:00	2928	712	0.9	-3.0	237	10
2023-08-04T18:00	2952	710	1.0	-3.8	237	10
2023-08-04T18:00	2972	708	1.0	-5.1	236	11
2023-08-04T18:00	2993	706	0.8	-5.8	235	11
2023-08-04T18:00	3021	704	0.6		234	10
2023-08-04T18:00	3045	702	0.4	-5.9	235	10
2023-08-04T18:00	3072	699	0.3	-6.9	238	10
2023-08-04T18:00	3098	697	0.1	-7.6	240	10
2023-08-04T18:00	3128	694	0.0	-8.1	241	10
2023-08-04T18:00	3156	692	-0.3	-8.4	241	10
2023-08-04T18:00	3180	690	-0.3	-8.7	240	10
2023-08-04T18:00	3209	688	-0.3	-9.2	238	10
2023-08-04T18:00	3232	685	0.0	-8.6	237	10
2023-08-04T18:00	3258	683	-0.1	-7.9	236	10
2023-08-04T18:00	3281	681	-0.3	-7.8	236	10
2023-08-04T18:00	3306	679	-0.5	-7.8	235	10
2023-08-04T18:00	3326	677	-0.7	-7.8	235	9
2023-08-04T18:00	3354	675	-0.9	-7.4	234	9
2023-08-04T18:00	3386	673	-1.2	-7.5	234	8
2023-08-04T18:00	3410	670	-1.3	-7.0	234	8
2023-08-04T18:00	3433	668	-1.5	-6.6	233	8
2023-08-04T18:00	3459	666	-1.7	-6.5	233	8
2023-08-04T18:00	3481	664	-1.8	-6.3	233	9
2023-08-04T18:00	3505	662	-2.0	-6.2	233	9
2023-08-04T18:00	3532	660	-2.3	-6.3	233	9
2023-08-04T18:00	3550	659	-2.5	-6.4	233	9
2023-08-04T18:00	3575	657	-2.6	-6.4	233	9
2023-08-04T18:00	3600	655	-2.8	-6.4	231	10
2023-08-04T18:00	3627	652	-3.0	-6.5	229	10
2023-08-04T18:00	3651	650	-3.1	-7.1	228	10
2023-08-04T18:00	3674	649	-3.2	-7.3	227	10
2023-08-04T18:00	3694	647	-3.3	-7.5	227	10
2023-08-04T18:00	3722	645	-3.4	-7.6	227	10
2023-08-04T18:00	3746	643	-3.5	-8.0	228	10
2023-08-04T18:00	3770	641	-3.7	-8.3	229	9
2023-08-04T18:00	3792	639	-3.8	-8.5	231	9
2023-08-04T18:00	3812	637	-3.8	-8.6	234	9
2023-08-04T18:00	3834	635	-3.9	-8.5	236	9
2023-08-04T18:00	3862	633	-4.1	-8.8	239	9
2023-08-04T18:00	3888	631	-4.4	-9.0	240	9
2023-08-04T18:00	3913	629	-4.6	-8.8	239	9
2023-08-04T18:00	3939	627	-4.8	-8.5	238	9
2023-08-04T18:00	3957	626	-5.0	-8.5	237	9
2023-08-04T18:00	3975	624	-5.2	-8.6	237	9
2023-08-04T18:00	3995	623	-5.4	-8.7	237	10
2023-08-04T18:00	4021	621	-5.6	-8.5	237	9
2023-08-04T18:00	4040	619	-5.7	-8.6	238	9
2023-08-04T18:00	4059	618	-5.9	-8.7	240	9
2023-08-04T18:00	4081	616	-6.0	-8.7	242	8
2023-08-04T18:00	4100	614	-6.2	-8.7	244	8
2023-08-04T18:00	4123	613	-6.3	-9.0	246	9
2023-08-04T18:00	4146	611	-6.4	-9.4	247	9
2023-08-04T18:00	4173	609	-6.4	-10.1	247	9
2023-08-04T18:00	4192	607	-6.3	-10.5	247	9
2023-08-04T18:00	4216	605	-6.5	-10.7	246	8
2023-08-04T18:00	4233	604	-6.6	-10.8	243	8
2023-08-04T18:00	4255	602	-6.8	-11.0	241	8
2023-08-04T18:00	4272	601	-6.9	-11.1	239	8
2023-08-04T18:00	4290	600	-7.1	-11.3	237	8
2023-08-04T18:00	4313	598	-7.1	-11.5	236	8
2023-08-04T18:00	4331	596	-7.2	-12.1	235	8
2023-08-04T18:00	4351	595	-7.0	-12.5	234	8
2023-08-04T18:00	4378	593	-6.9	-12.7	234	9
2023-08-04T18:00	4401	591	-7.1	-12.8	235	9
2023-08-04T18:00	4418	590	-7.3	-12.9	237	9
2023-08-04T18:00	4440	588	-7.4	-12.9	239	9
2023-08-04T18:00	4466	586	-7.7	-12.9	239	9
2023-08-04T18:00	4486	585	-7.8	-13.0	239	9
2023-08-04T18:00	4504	583	-7.9	-13.0	237	8
2023-08-04T18:00	4528	581	-8.1	-13.2	235	8
2023-08-04T18:00	4556	579	-8.3	-13.3	233	8
2023-08-04T18:00	4581	578	-8.5	-13.5	232	8
2023-08-04T18:00	4604	576	-8.7	-13.6	231	8
2023-08-04T18:00	4626	574	-8.9	-13.8	229	8
2023-08-04T18:00	4650	573	-9.0	-13.9	228	8
2023-08-04T18:00	4674	571	-9.2	-14.1	228	8
2023-08-04T18:00	4700	569	-9.3	-14.5	229	8
2023-08-04T18:00	4724	567	-9.5	-14.7	231	9
2023-08-04T18:00	4753	565	-9.6	-14.9	233	9
2023-08-04T18:00	4773	563	-9.8	-15.1	233	9
2023-08-04T18:00	4792	562	-9.9	-15.0	231	9
2023-08-04T18:00	4811	560	-10.1	-15.2	228	9
2023-08-04T18:00	4842	558	-10.4	-15.4	225	9
2023-08-04T18:00	4868	557	-10.6	-15.5	223	9
2023-08-04T18:00	4888	555	-10.7	-15.8	223	9
2023-08-04T18:00	4913	553	-10.9	-15.8	223	9
2023-08-04T18:00	4941	551	-11.2	-16.0	224	9
2023-08-04T18:00	4963	549	-11.4	-16.0	225	9
2023-08-04T18:00	4996	547	-11.6	-16.2	225	9
2023-08-04T18:00	5016	546	-11.8	-16.5	226	9
2023-08-04T18:00	5035	545	-11.9	-16.7	227	9
2023-08-04T18:00	5057	543	-12.1	-16.6	227	9
2023-08-04T18:00	5082	541	-12.3	-16.5	227	9
2023-08-04T18:00	5113	539	-12.5	-16.9	226	9
2023-08-04T18:00	5141	537	-12.6	-17.6	225	9
2023-08-04T18:00	5162	535	-12.8	-18.4	225	9
2023-08-04T18:00	5188	534	-12.7	-19.6	226	10
2023-08-04T18:00	5211	532	-12.8	-19.4	227	10
2023-08-04T18:00	5236	531	-12.8	-19.1	227	9
2023-08-04T18:00	5259	529	-13.0	-19.6	225	9
2023-08-04T18:00	5282	527	-13.2	-19.4	222	9
2023-08-04T18:00	5305	526	-13.4	-19.8	219	9
2023-08-04T18:00	5330	524	-13.6	-20.3	216	9
2023-08-04T18:00	5346	523	-13.8	-20.5	214	9
2023-08-04T18:00	5369	521	-14.0	-20.5	212	9
2023-08-04T18:00	5391	520	-14.1	-21.0	211	9
2023-08-04T18:00	5413	518	-14.2	-21.4	211	10
2023-08-04T18:00	5443	516	-14.4	-21.8	212	10
2023-08-04T18:00	5467	515	-14.6	-22.6	213	11
2023-08-04T18:00	5490	513	-14.7	-22.7	214	11
2023-08-04T18:00	5514	511	-15.0	-23.0	216	12
2023-08-04T18:00	5540	510	-15.1	-23.0	217	13
2023-08-04T18:00	5566	508	-15.2	-23.7	218	13
2023-08-04T18:00	5584	507	-15.4	-24.1	218	13
2023-08-04T18:00	5605	505	-15.6	-24.8	219	13
2023-08-04T18:00	5635	503	-15.9	-25.8	219	13
2023-08-04T18:00	5653	502	-16.0	-27.5	220	13
2023-08-04T18:00	5674	501	-16.1	-28.0	220	13
2023-08-04T18:00	5696	499	-16.3	-25.5	221	13
2023-08-04T18:00	5720	498	-16.5	-25.2	222	13
2023-08-04T18:00	5745	496	-16.7	-25.0	223	13
2023-08-04T18:00	5771	494	-16.9	-25.5	225	13
2023-08-04T18:00	5796	493	-17.1	-26.3	226	13
2023-08-04T18:00	5812	491	-17.2	-25.9	226	13
2023-08-04T18:00	5833	490	-17.3	-26.0	225	13
2023-08-04T18:00	5856	489	-17.5	-26.5	223	13
2023-08-04T18:00	5877	487	-17.7	-26.4	221	13
2023-08-04T18:00	5900	486	-17.9	-26.4	221	13
2023-08-04T18:00	5921	484	-18.1	-26.5	222	13
2023-08-04T18:00	5945	483	-18.3	-26.9	223	12
2023-08-04T18:00	5970	481	-18.4	-27.6	225	12
2023-08-04T18:00	5990	480	-18.5	-28.1	226	12
2023-08-04T18:00	6016	478	-18.7	-28.2	226	12
2023-08-04T18:00	6043	477	-18.9	-28.4	226	12
2023-08-04T18:00	6067	475	-19.2	-28.5	225	12
2023-08-04T18:00	6091	473	-19.4	-28.6	224	12
2023-08-04T18:00	6118	472	-19.6	-28.9	224	12
2023-08-04T18:00	6142	470	-19.8	-28.9	225	12
2023-08-04T18:00	6165	469	-20.1	-29.1	226	12
2023-08-04T18:00	6186	467	-20.2	-29.1	227	12
2023-08-04T18:00	6212	466	-20.4	-29.1	226	12
2023-08-04T18:00	6236	464	-20.6	-29.6	226	12
2023-08-04T18:00	6256	463	-20.7		225	12
2023-08-04T18:00	6275	462	-20.9	-30.8	224	12
2023-08-04T18:00	6294	461	-21.0	-30.8	224	11
2023-08-04T18:00	6313	459	-21.2	-31.0	223	11
2023-08-04T18:00	6335	458	-21.4	-31.2	223	11
2023-08-04T18:00	6354	457	-21.5	-31.6	223	11
2023-08-04T18:00	6382	455	-21.7	-32.3	223	11
2023-08-04T18:00	6409	454	-21.9	-32.5	223	11
2023-08-04T18:00	6429	452	-22.1	-33.0	223	11
2023-08-04T18:00	6451	451	-22.1	-34.1	223	12
2023-08-04T18:00	6473	450	-22.2	-34.5	223	12
2023-08-04T18:00	6502	448	-22.4	-35.0	223	12
2023-08-04T18:00	6525	446	-22.6	-35.7	224	12
2023-08-04T18:00	6557	445	-22.8	-36.5	225	12
2023-08-04T18:00	6584	443	-23.0	-36.5	226	11
2023-08-04T18:00	6603	442	-23.1	-36.4	227	11
2023-08-04T18:00	6622	441	-23.3	-36.4	228	12
2023-08-04T18:00	6641	439	-23.5	-36.3	228	12
2023-08-04T18:00	6662	438	-23.7	-36.3	228	12
2023-08-04T18:00	6680	437	-23.8	-37.0	229	12
2023-08-04T18:00	6701	436	-24.0	-37.9	230	12
2023-08-04T18:00	6718	435	-24.2	-37.8	231	12
2023-08-04T18:00	6739	434	-24.3	-37.5	232	12
2023-08-04T18:00	6759	432	-24.5	-37.7	232	12
2023-08-04T18:00	6782	431	-24.6	-38.0	233	12
2023-08-04T18:00	6813	429	-24.9	-38.1	233	12
2023-08-04T18:00	6845	427	-25.1	-38.4	233	12
2023-08-04T18:00	6871	426	-25.4	-38.4	234	13
2023-08-04T18:00	6892	424	-25.5	-38.0	234	13
2023-08-04T18:00	6925	423	-25.8	-38.1	235	14
2023-08-04T18:00	6948	421	-25.9	-38.4	235	15
2023-08-04T18:00	6972	420	-26.0	-39.2	234	15
2023-08-04T18:00	6997	418	-26.2	-39.1	234	16
2023-08-04T18:00	7018	417	-26.3	-40.4	232	17
2023-08-04T18:00	7044	416	-26.4	-41.7	231	18
2023-08-04T18:00	7067	414	-26.4	-42.7	231	19
2023-08-04T18:00	7089	413	-26.3	-43.5	230	20
2023-08-04T18:00	7118	412	-26.3	-43.2	230	21
2023-08-04T18:00	7140	410	-26.3	-42.4	229	22
2023-08-04T18:00	7168	409	-26.5	-41.9	229	23
2023-08-04T18:00	7191	407	-26.6	-41.4	228	24
2023-08-04T18:00	7214	406	-26.6	-40.1	227	25
2023-08-04T18:00	7235	405	-26.2	-38.7	226	27
2023-08-04T18:00	7260	403	-26.4	-39.1	225	28
2023-08-04T18:00	7285	402	-26.5	-39.1	225	29
2023-08-04T18:00	7307	401	-26.5	-39.1	225	30
2023-08-04T18:00	7334	399	-26.5	-38.9	225	31
2023-08-04T18:00	7361	398	-26.6	-38.9	225	33
2023-08-04T18:00	7389	396	-26.4	-38.8	224	34
2023-08-04T18:00	7414	395	-26.3	-38.3	223	34
2023-08-04T18:00	7438	394	-26.2	-36.5	223	35
2023-08-04T18:00	7466	392	-26.2	-34.0	222	35
2023-08-04T18:00	7488	391	-26.4	-33.9	221	34
2023-08-04T18:00	7511	390	-26.6	-33.3	221	34
2023-08-04T18:00	7541	388	-26.9	-33.1	221	34
2023-08-04T18:00	7569	387	-27.1	-33.1	221	34
2023-08-04T18:00	7590	385	-27.3	-33.1	222	34
2023-08-04T18:00	7614	384	-27.5	-33.3	222	34
2023-08-04T18:00	7643	383	-27.8	-33.5	222	34
2023-08-04T18:00	7668	381	-28.0	-33.4	223	34
2023-08-04T18:00	7693	380	-28.3	-33.7	223	34
2023-08-04T18:00	7720	379	-28.5	-34.2	223	34
2023-08-04T18:00	7752	377	-28.8	-34.2	222	34
2023-08-04T18:00	7785	375	-28.8	-33.3	222	34
2023-08-04T18:00	7818	374	-29.0	-33.4	221	34
2023-08-04T18:00	7835	372	-29.1	-33.1	220	34
2023-08-04T18:00	7857	371	-29.2	-33.2	219	34
2023-08-04T18:00	7879	370	-29.2	-33.1	219	33
2023-08-04T18:00	7900	369	-29.4	-33.3	219	33
2023-08-04T18:00	7922	368	-29.6	-33.4	219	34
2023-08-04T18:00	7945	367	-29.8	-33.5	219	34
2023-08-04T18:00	7965	366	-29.9	-33.5	220	34
2023-08-04T18:00	7989	365	-30.1	-33.5	220	35
2023-08-04T18:00	8011	363	-30.2	-33.6	221	35
2023-08-04T18:00	8035	362	-30.3	-33.8	221	36
2023-08-04T18:00	8059	361	-30.4	-34.2	222	36
2023-08-04T18:00	8084	360	-30.5	-34.2	222	37
2023-08-04T18:00	8116	358	-30.5	-34.7	222	37
2023-08-04T18:00	8142	357	-30.7	-34.8	222	38
2023-08-04T18:00	8174	355	-30.9	-34.9	222	39
2023-08-04T18:00	8200	354	-31.0	-35.1	222	39
2023-08-04T18:00	8225	353	-30.8	-35.1	222	40
2023-08-04T18:00	8255	351	-31.0	-35.0	221	40
2023-08-04T18:00	8282	350	-31.2	-35.1	220	41
2023-08-04T18:00	8307	349	-31.3	-35.2	219	41
2023-08-04T18:00	8335	347	-31.2	-35.2	218	41
2023-08-04T18:00	8361	346	-31.5	-35.1	218	42
2023-08-04T18:00	8389	345	-31.7	-35.3	217	42
2023-08-04T18:00	8413	343	-31.9	-35.5	217	43
2023-08-04T18:00	8435	342	-32.0	-35.8	217	43
2023-08-04T18:00	8456	341	-32.2	-35.7	218	44
2023-08-04T18:00	8476	340	-32.3	-36.0	218	44
2023-08-04T18:00	8500	339	-32.2	-36.0	219	44
2023-08-04T18:00	8528	338	-32.4	-36.3	219	45
2023-08-04T18:00	8555	337	-32.5	-36.6	218	45
2023-08-04T18:00	8575	336	-32.5	-36.8	218	46
2023-08-04T18:00	8599	334	-32.7	-36.8	218	46
2023-08-04T18:00	8627	333	-32.9	-36.9	218	47
2023-08-04T18:00	8653	332	-33.0	-37.2	218	47
2023-08-04T18:00	8677	331	-33.2	-37.4	218	48
2023-08-04T18:00	8702	330	-33.4	-37.6	219	48
2023-08-04T18:00	8729	328	-33.6	-37.8	218	48
2023-08-04T18:00	8758	327	-33.8	-38.0	218	49
2023-08-04T18:00	8781	326	-34.0	-37.9	217	49
2023-08-04T18:00	8807	325	-34.2	-38.0	217	49
2023-08-04T18:00	8833	324	-34.4	-38.4	216	49
2023-08-04T18:00	8859	322	-34.6	-38.5	216	50
2023-08-04T18:00	8888	321	-34.9	-38.7	216	50
2023-08-04T18:00	8912	320	-35.0	-38.6	215	50
2023-08-04T18:00	8941	318	-35.2	-39.0	215	50
2023-08-04T18:00	8973	317	-35.4	-39.3	215	51
2023-08-04T18:00	9004	316	-35.6	-39.4	214	51
2023-08-04T18:00	9024	315	-35.8	-39.6	214	51
2023-08-04T18:00	9049	314	-36.1	-39.7	214	51
2023-08-04T18:00	9074	312	-36.3	-39.8	213	50
2023-08-04T18:00	9100	311	-36.5	-40.0	213	50
2023-08-04T18:00	9130	310	-36.6	-40.1	212	51
2023-08-04T18:00	9154	309	-36.9	-40.3	212	51
2023-08-04T18:00	9184	308	-37.0	-40.2	211	51
2023-08-04T18:00	9206	307	-37.1	-40.3	211	52
2023-08-04T18:00	9226	306	-37.3	-40.3	211	52
2023-08-04T18:00	9248	305	-37.4	-40.4	211	52
2023-08-04T18:00	9268	304	-37.5	-40.9	211	52
2023-08-04T18:00	9288	303	-37.7	-41.1	210	52
2023-08-04T18:00	9308	302	-37.9	-41.2	210	52
2023-08-04T18:00	9332	301	-38.0	-41.3	210	52
2023-08-04T18:00	9352	300	-38.2	-41.3	210	52
2023-08-04T18:00	9373	299	-38.4	-41.6	210	52
2023-08-04T18:00	9393	298	-38.6	-42.0	210	52
2023-08-04T18:00	9412	298	-38.7	-42.1	210	52
2023-08-04T18:00	9432	297	-38.9	-42.2	210	52
2023-08-04T18:00	9456	296	-39.1	-42.6	211	52
2023-08-04T18:00	9478	295	-39.3	-42.9	211	52
2023-08-04T18:00	9499	294	-39.5	-42.9	211	52
2023-08-04T18:00	9520	293	-39.7	-42.9	211	52
2023-08-04T18:00	9540	292	-39.8	-43.3	211	52
2023-08-04T18:00	9563	291	-40.0	-43.2	211	52
2023-08-04T18:00	9584	290	-40.1	-43.1	211	52
2023-08-04T18:00	9606	289	-40.2	-42.9	211	52
2023-08-04T18:00	9632	288	-40.4	-43.0	211	51
2023-08-04T18:00	9661	287	-40.5	-42.8	211	51
2023-08-04T18:00	9688	286	-40.7	-43.0	211	51
2023-08-04T18:00	9716	285	-41.0	-43.6	212	51
2023-08-04T18:00	9747	283	-41.2	-44.5	212	50
2023-08-04T18:00	9770	282	-41.4	-44.5	212	50
2023-08-04T18:00	9793	281	-41.7	-44.5	212	50
2023-08-04T18:00	9815	280	-41.9	-44.8	212	50
2023-08-04T18:00	9837	280	-42.1	-45.3	212	50
2023-08-04T18:00	9861	279	-42.2	-45.9	213	50
2023-08-04T18:00	9883	278	-42.3	-47.1	213	50
2023-08-04T18:00	9904	277	-42.5	-47.2	213	50
2023-08-04T18:00	9924	276	-42.7	-47.0	213	50
2023-08-04T18:00	9949	275	-42.9	-47.4	213	50
2023-08-04T18:00	9977	274	-43.2	-48.0	213	51
2023-08-04T18:00	10005	273	-43.4	-48.3	214	51
2023-08-04T18:00	10030	272	-43.6	-49.7	214	51
2023-08-04T18:00	10051	271	-43.7	-51.1	214	51
2023-08-04T18:00	10075	270	-43.9	-51.2	214	52
2023-08-04T18:00	10095	269	-44.1	-51.2	214	52
2023-08-04T18:00	10117	268	-44.2	-51.4	214	52
2023-08-04T18:00	10138	267	-44.4	-51.8	214	52
2023-08-04T18:00	10157	267	-44.6	-52.5	214	52
2023-08-04T18:00	10181	266	-44.8	-52.9	214	52
2023-08-04T18:00	10202	265	-44.9	-52.9	214	52
2023-08-04T18:00	10225	264	-45.1	-53.1	214	51
2023-08-04T18:00	10242	263	-45.3	-53.1	214	51
2023-08-04T18:00	10269	262	-45.5	-53.1	214	51
2023-08-04T18:00	10296	261	-45.8	-53.2	213	51
2023-08-04T18:00	10320	260	-46.1	-53.2	213	52
2023-08-04T18:00	10351	259	-46.3	-53.2	213	52
2023-08-04T18:00	10381	258	-46.6	-53.4	213	52
2023-08-04T18:00	10409	257	-46.9	-53.5	213	52
2023-08-04T18:00	10437	256	-47.2	-53.4	214	52
2023-08-04T18:00	10466	255	-47.5	-53.4	214	52
2023-08-04T18:00	10493	253	-47.7	-53.4	214	52
2023-08-04T18:00	10518	253	-48.0	-53.7	215	52
2023-08-04T18:00	10542	252	-48.2	-53.9	215	52
2023-08-04T18:00	10568	251	-48.4	-53.8	216	51
2023-08-04T18:00	10592	250	-48.7	-53.8	216	51
2023-08-04T18:00	10616	249	-48.9	-54.1	216	50
2023-08-04T18:00	10648	248	-49.1	-55.0	216	50
2023-08-04T18:00	10680	246	-49.3	-56.0	216	50
2023-08-04T18:00	10717	245	-49.5	-56.3	215	51
2023-08-04T18:00	10745	244	-49.7	-56.2	215	51
2023-08-04T18:00	10764	243	-50.0	-56.1	214	51
2023-08-04T18:00	10782	243	-50.2	-55.9	214	51
2023-08-04T18:00	10801	242	-50.3	-55.8	213	51
2023-08-04T18:00	10819	241	-50.5	-55.8	213	51
2023-08-04T18:00	10838	240	-50.7	-55.8	214	50
2023-08-04T18:00	10859	240	-50.8	-55.9	214	50
2023-08-04T18:00	10880	239	-51.0	-56.1	214	50
2023-08-04T18:00	10906	238	-51.3	-56.5	215	50
2023-08-04T18:00	10927	237	-51.4	-57.0	215	50
2023-08-04T18:00	10944	237	-51.4	-57.5	215	50
2023-08-04T18:00	10964	236	-51.5	-57.8	216	49
2023-08-04T18:00	10984	235	-51.6	-58.1	216	49
2023-08-04T18:00	11005	234	-51.6	-58.6	216	49
2023-08-04T18:00	11024	234	-51.6	-59.1	215	48
2023-08-04T18:00	11047	233	-51.7	-59.8	215	48
2023-08-04T18:00	11066	232	-51.5	-60.9	215	49
2023-08-04T18:00	11087	231	-51.3	-62.8	215	49
2023-08-04T18:00	11107	231	-51.1	-65.0	215	49
2023-08-04T18:00	11126	230	-50.5	-66.7	216	50
2023-08-04T18:00	11146	229	-50.4	-67.5	216	50
2023-08-04T18:00	11165	229	-50.4	-66.9	215	50
2023-08-04T18:00	11186	228	-50.4	-66.5	215	50
2023-08-04T18:00	11206	227	-50.0	-66.6	216	50
2023-08-04T18:00	11225	227	-48.5	-66.4	216	50
2023-08-04T18:00	11245	226	-48.2	-66.9	217	49
2023-08-04T18:00	11266	225	-48.4	-67.2	218	49
2023-08-04T18:00	11288	224	-48.4	-67.4	219	48
2023-08-04T18:00	11312	224	-48.4	-68.2	220	47
2023-08-04T18:00	11333	223	-48.0	-69.4	221	46
2023-08-04T18:00	11360	222	-47.4	-71.0	222	45
2023-08-04T18:00	11382	221	-47.0	-72.0	223	45
2023-08-04T18:00	11407	220	-47.0	-72.4	223	44
2023-08-04T18:00	11431	220	-47.1	-72.3	223	44
2023-08-04T18:00	11455	219	-47.3	-72.5	223	44
2023-08-04T18:00	11481	218	-47.5	-72.8	223	43
2023-08-04T18:00	11505	217	-47.6	-72.9	223	43
2023-08-04T18:00	11533	216	-47.9	-73.3	223	42
2023-08-04T18:00	11562	215	-48.0	-73.6	223	42
2023-08-04T18:00	11589	214	-48.2	-74.0	223	41
2023-08-04T18:00	11614	214	-48.4	-74.4	222	41
2023-08-04T18:00	11638	213	-48.6	-74.6	222	40
2023-08-04T18:00	11665	212	-48.7	-74.9	221	40
2023-08-04T18:00	11690	211	-48.9	-75.3	220	39
2023-08-04T18:00	11717	210	-49.0	-75.3	219	39
2023-08-04T18:00	11741	210	-49.2	-75.7	219	39
2023-08-04T18:00	11765	209	-49.1	-75.9	218	38
2023-08-04T18:00	11790	208	-48.8	-76.2	217	38
2023-08-04T18:00	11816	207	-48.8	-76.2	217	38
2023-08-04T18:00	11839	206	-48.8	-76.5	217	37
2023-08-04T18:00	11866	206	-48.9	-76.6	217	37
2023-08-04T18:00	11890	205	-49.0	-76.7	217	37
2023-08-04T18:00	11914	204	-49.1	-76.8	218	36
2023-08-04T18:00	11938	203	-48.9	-76.9	218	36
2023-08-04T18:00	11962	203	-48.8	-77.2	218	36
2023-08-04T18:00	11983	202	-48.7	-77.1	219	36
2023-08-04T18:00	12008	201	-48.7	-77.1	219	36
2023-08-04T18:00	12032	200	-48.7	-77.1	218	36
2023-08-04T18:00	12055	200	-48.6	-77.0	218	36
2023-08-04T18:00	12080	199	-48.6	-77.0	217	36
2023-08-04T18:00	12101	198	-48.7	-77.1	217	36
2023-08-04T18:00	12125	198	-48.6	-77.0	216	36
2023-08-04T18:00	12148	197	-48.7	-77.1	216	35
2023-08-04T18:00	12171	196	-48.5	-77.3	216	35
2023-08-04T18:00	12194	196	-48.3	-77.5	215	34
2023-08-04T18:00	12217	195	-48.1	-77.7	215	34
2023-08-04T18:00	12240	194	-48.2	-77.8	214	33
2023-08-04T18:00	12263	194	-48.1	-78.1	214	33
2023-08-04T18:00	12285	193	-47.3	-77.5	213	32
2023-08-04T18:00	12309	192	-47.0	-77.3	212	32
2023-08-04T18:00	12332	192	-47.1	-77.4	211	32
2023-08-04T18:00	12354	191	-47.2	-77.4	210	32
2023-08-04T18:00	12378	190	-47.4	-77.6	210	32
2023-08-04T18:00	12400	190	-47.5	-77.3	209	33
2023-08-04T18:00	12425	189	-47.7	-77.4	208	33
2023-08-04T18:00	12449	188	-47.9	-77.6	208	33
2023-08-04T18:00	12471	188	-48.0	-77.6	208	34
2023-08-04T18:00	12492	187	-48.2	-77.8	208	34
2023-08-04T18:00	12513	186	-48.4	-77.9	208	34
2023-08-04T18:00	12535	186	-48.4	-78.3	208	34
2023-08-04T18:00	12555	185	-47.9	-78.4	208	34
2023-08-04T18:00	12576	185	-47.6	-78.2	209	34
2023-08-04T18:00	12595	184	-47.5	-78.5	209	34
2023-08-04T18:00	12616	183	-47.4	-78.5	210	34
2023-08-04T18:00	12636	183	-46.9	-78.6	210	34
2023-08-04T18:00	12659	182	-46.8	-78.5	209	34
2023-08-04T18:00	12681	182	-46.4	-78.8	208	34
2023-08-04T18:00	12702	181	-46.3	-78.7	208	35
2023-08-04T18:00	12724	180	-46.3	-78.7	208	35
2023-08-04T18:00	12746	180	-46.0	-78.5	208	36
2023-08-04T18:00	12768	179	-45.7	-78.2	208	36
2023-08-04T18:00	12790	179	-45.8	-77.8	209	36
2023-08-04T18:00	12812	178	-45.8	-77.8	210	37
2023-08-04T18:00	12831	178	-46.0	-77.9	210	37
2023-08-04T18:00	12854	177	-46.1	-78.0	210	37
2023-08-04T18:00	12873	176	-46.2	-78.1	211	38
2023-08-04T18:00	12896	176	-46.3	-78.2	211	38
2023-08-04T18:00	12916	175	-46.3	-77.7	211	38
2023-08-04T18:00	12938	175	-46.3	-77.7	212	38
2023-08-04T18:00	12960	174	-46.4	-77.7	212	38
2023-08-04T18:00	12977	174	-46.6	-77.9	213	37
2023-08-04T18:00	12998	173	-46.5	-77.8	213	37
2023-08-04T18:00	13019	173	-46.2	-78.1	214	37
2023-08-04T18:00	13040	172	-46.2	-78.1	214	36
2023-08-04T18:00	13062	172	-46.3	-78.2	215	36
2023-08-04T18:00	13084	171	-46.3	-78.2	215	35
2023-08-04T18:00	13106	170	-46.3	-78.2	215	35
2023-08-04T18:00	13127	170	-46.2	-78.1	215	34
2023-08-04T18:00	13149	169	-46.1	-78.0	214	34
2023-08-04T18:00	13171	169	-46.1	-78.0	214	33
2023-08-04T18:00	13194	168	-46.1	-78.5	213	32
2023-08-04T18:00	13217	168	-46.0	-78.5	213	31
2023-08-04T18:00	13240	167	-45.7	-78.2	213	31
2023-08-04T18:00	13261	166	-45.6	-78.2	212	30
2023-08-04T18:00	13284	166	-45.7	-78.2	212	30
2023-08-04T18:00	13305	165	-45.8	-78.3	213	30
2023-08-04T18:00	13327	165	-46.0	-78.5	213	29
2023-08-04T18:00	13348	164	-46.2	-78.6	213	29
2023-08-04T18:00	13368	164	-46.4	-78.2	213	29
2023-08-04T18:00	13392	163	-46.5	-78.3	212	29
2023-08-04T18:00	13414	163	-46.7	-78.4	212	29
2023-08-04T18:00	13433	162	-46.6	-78.4	211	29
2023-08-04T18:00	13456	162	-46.6	-78.4	210	29
2023-08-04T18:00	13477	161	-46.6	-78.4	209	29
2023-08-04T18:00	13497	161	-46.7	-78.4	208	29
2023-08-04T18:00	13519	160	-46.7	-78.4	208	29
2023-08-04T18:00	13543	160	-46.9	-78.6	207	29
2023-08-04T18:00	13568	159	-47.0	-78.7	207	29
2023-08-04T18:00	13592	158	-47.2	-78.8	207	28
2023-08-04T18:00	13613	158	-47.4	-79.0	206	28
2023-08-04T18:00	13642	157	-47.7		206	28
2023-08-04T18:00	13666	157	-47.9	-78.8	206	28
2023-08-04T18:00	13690	156	-48.1	-79.0	206	27
2023-08-04T18:00	13712	156	-48.3	-79.1	205	27
2023-08-04T18:00	13735	155	-48.5	-79.3	204	27
2023-08-04T18:00	13755	154	-48.6	-79.4	203	27
2023-08-04T18:00	13777	154	-48.6	-79.4	201	27
2023-08-04T18:00	13799	153	-48.6	-79.4	201	27
2023-08-04T18:00	13822	153	-48.6	-79.4	200	28
2023-08-04T18:00	13841	152	-48.7	-79.4	199	28
2023-08-04T18:00	13864	152	-48.8	-79.5	198	29
2023-08-04T18:00	13885	151	-48.9	-79.1	198	29
2023-08-04T18:00	13908	151	-49.0	-79.2	198	30
2023-08-04T18:00	13928	150	-49.1	-78.9	198	30
2023-08-04T18:00	13951	150	-49.3	-79.0	198	30
2023-08-04T18:00	13970	150	-49.5	-79.2	198	31
2023-08-04T18:00	13993	149	-49.7	-78.9	199	31
2023-08-04T18:00	14016	149	-49.8	-79.0	200	32
2023-08-04T18:00	14035	148	-50.0	-78.8	201	32
2023-08-04T18:00	14057	148	-50.1	-78.9	202	32
2023-08-04T18:00	14078	147	-50.2	-78.9	203	32
2023-08-04T18:00	14099	147	-50.3	-78.7	205	32
2023-08-04T18:00	14124	146	-50.3	-78.7	206	32
2023-08-04T18:00	14146	146	-50.0	-78.8	208	31
2023-08-04T18:00	14165	145	-49.5	-78.4	210	31
2023-08-04T18:00	14189	145	-49.4	-78.7	211	31
2023-08-04T18:00	14212	144	-49.3	-78.6	213	31
2023-08-04T18:00	14232	144	-49.4	-79.1	214	31
2023-08-04T18:00	14254	143	-49.4	-79.1	215	30
2023-08-04T18:00	14274	143	-49.4	-79.1	215	30
2023-08-04T18:00	14296	142	-49.2	-78.9	216	29
2023-08-04T18:00	14319	142	-49.0	-79.2	216	28
2023-08-04T18:00	14342	141	-49.1	-79.3	216	28
2023-08-04T18:00	14366	141	-49.1	-79.3	215	27
2023-08-04T18:00	14386	140	-49.1	-79.3	215	27
2023-08-04T18:00	14409	140	-49.2	-79.4	215	26
2023-08-04T18:00	14433	139	-49.2	-79.4	214	26
2023-08-04T18:00	14454	139	-49.1	-79.3	214	26
2023-08-04T18:00	14476	138	-49.1	-79.3	215	27
2023-08-04T18:00	14499	138	-48.7	-79.4	215	27
2023-08-04T18:00	14521	137	-48.7	-79.4	215	27
2023-08-04T18:00	14544	137	-48.7	-79.9	216	27
2023-08-04T18:00	14564	137	-48.5	-79.8	216	27
2023-08-04T18:00	14589	136	-48.4	-80.2	216	26
2023-08-04T18:00	14611	136	-48.3	-80.2	216	26
2023-08-04T18:00	14640	135	-48.4	-80.2	217	25
2023-08-04T18:00	14659	135	-48.5	-80.3	217	25
2023-08-04T18:00	14680	134	-48.5	-80.3	217	24
2023-08-04T18:00	14703	134	-48.2	-80.1	217	24
2023-08-04T18:00	14726	133	-48.1	-80.0	217	24
2023-08-04T18:00	14751	133	-48.3	-80.2	217	23
2023-08-04T18:00	14777	132	-48.5	-80.3	217	23
2023-08-04T18:00	14802	132	-48.7	-80.5	218	23
2023-08-04T18:00	14825	131	-48.9	-80.6	218	23
2023-08-04T18:00	14848	131	-49.1	-80.2	219	23
2023-08-04T18:00	14873	130	-49.4	-80.5	219	22
2023-08-04T18:00	14896	130	-49.6	-80.6	219	22
2023-08-04T18:00	14918	129	-49.8	-80.8	219	22
2023-08-04T18:00	14942	129	-50.0	-80.9	219	22
2023-08-04T18:00	14967	128	-50.3	-80.6	219	21
2023-08-04T18:00	14991	128	-50.5	-80.8	219	21
2023-08-04T18:00	15014	127	-50.7	-80.9	218	20
2023-08-04T18:00	15039	127	-50.9	-81.1	218	20
2023-08-04T18:00	15063	127	-51.0	-81.2	217	20
2023-08-04T18:00	15085	126	-51.2	-81.3	216	19
2023-08-04T18:00	15111	126	-51.3	-81.4	216	19
2023-08-04T18:00	15135	125	-51.5	-81.1	215	19
2023-08-04T18:00	15162	125	-51.7	-81.2	214	18
2023-08-04T18:00	15183	124	-51.9	-81.4	212	18
2023-08-04T18:00	15208	124	-52.1	-81.5	211	18
2023-08-04T18:00	15230	123	-52.3	-81.7	209	17
2023-08-04T18:00	15256	123	-52.4	-81.8	207	17
2023-08-04T18:00	15276	122	-52.6	-81.9	205	17
2023-08-04T18:00	15301	122	-52.7	-82.0	203	17
2023-08-04T18:00	15325	122	-52.7	-82.0	201	17
2023-08-04T18:00	15347	121	-52.7	-82.0	200	17
2023-08-04T18:00	15370	121	-52.7	-82.4	200	18
2023-08-04T18:00	15393	120	-52.7	-82.4	201	18
2023-08-04T18:00	15414	120	-52.7	-82.4	202	19
2023-08-04T18:00	15436	119	-52.7	-82.4	204	19
2023-08-04T18:00	15457	119	-52.6	-82.4	205	19
2023-08-04T18:00	15480	119	-52.7	-82.4	207	20
2023-08-04T18:00	15503	118	-52.8	-82.5	208	19
2023-08-04T18:00	15527	118	-52.7	-82.9	210	19
2023-08-04T18:00	15550	117	-52.6	-82.8	212	19
2023-08-04T18:00	15572	117	-52.2	-82.5	214	18
2023-08-04T18:00	15595	117	-51.6	-82.6	217	18
2023-08-04T18:00	15617	116	-51.5	-82.5	218	18
2023-08-04T18:00	15640	116	-51.3	-82.9	218	18
2023-08-04T18:00	15663	115	-51.1	-82.8	218	18
2023-08-04T18:00	15686	115	-51.0	-82.7	216	18
2023-08-04T18:00	15709	115	-51.0	-82.7	215	18
2023-08-04T18:00	15733	114	-50.9	-82.1	214	18
2023-08-04T18:00	15757	114	-51.0	-82.2	212	18
2023-08-04T18:00	15779	113	-51.2	-82.3	211	18
2023-08-04T18:00	15803	113	-51.4	-82.5	210	19
2023-08-04T18:00	15828	112	-51.6	-82.6	208	19
2023-08-04T18:00	15848	112	-51.8	-82.2	207	19
2023-08-04T18:00	15871	112	-52.0	-82.4	206	20
2023-08-04T18:00	15894	111	-52.1	-82.5	205	20
2023-08-04T18:00	15913	111	-52.1	-82.5	204	20
2023-08-04T18:00	15939	111	-52.0	-82.4	204	20
2023-08-04T18:00	15958	110	-52.1	-82.5	204	21
2023-08-04T18:00	15981	110	-52.0	-82.4	204	21
2023-08-04T18:00	16005	109	-52.1	-82.5	205	21
2023-08-04T18:00	16028	109	-52.2	-82.5	206	22
2023-08-04T18:00	16048	109	-52.4	-82.7	207	22
2023-08-04T18:00	16071	108	-52.5	-82.8	209	22
2023-08-04T18:00	16091	108	-52.6	-82.8	211	22
2023-08-04T18:00	16114	108	-52.6	-82.8	212	22
2023-08-04T18:00	16137	107	-52.7	-82.9	214	22
2023-08-04T18:00	16161	107	-52.7	-82.9	215	21
2023-08-04T18:00	16184	106	-52.7	-82.9	216	20
2023-08-04T18:00	16207	106	-52.5	-82.8	216	20
2023-08-04T18:00	16229	106	-52.5	-82.8	217	19
2023-08-04T18:00	16253	105	-52.6	-82.8	217	18
2023-08-04T18:00	16276	105	-52.7	-82.9	218	18
2023-08-04T18:00	16294	105	-52.9	-83.1	218	17
2023-08-04T18:00	16318	104	-52.9	-83.1	219	17
2023-08-04T18:00	16341	104	-52.9	-83.1	219	17
2023-08-04T18:00	16363	104	-53.0	-83.1	220	18
2023-08-04T18:00	16384	103	-53.1	-83.2	222	18
2023-08-04T18:00	16406	103	-52.9	-83.1	223	18
2023-08-04T18:00	16426	103	-52.9	-83.1	225	18
2023-08-04T18:00	16451	102	-52.9	-83.1	226	18
2023-08-04T18:00	16472	102	-53.0	-83.1	227	18
2023-08-04T18:00	16490	101	-53.1	-83.2	229	18
2023-08-04T18:00	16514	101	-53.3		230	17
2023-08-04T18:00	16538	101	-53.4	-83.4	231	17
2023-08-04T18:00	16561	100	-53.2	-83.3	231	17
2023-08-04T18:00	16582	100	-52.7	-83.4	232	16
2023-08-04T18:00	16603	100	-52.4	-83.8	233	16
2023-08-04T18:00	16629	99	-52.1	-83.5	234	16
2023-08-04T18:00	16651	99	-51.3	-82.9	235	16
2023-08-04T18:00	16676	99	-50.9	-83.3	236	16
2023-08-04T18:00	16698	98	-50.7	-83.1	237	15
2023-08-04T18:00	16722	98	-50.6	-83.1	239	15
2023-08-04T18:00	16746	98	-50.5	-83.0	240	14
2023-08-04T18:00	16771	97	-50.4	-82.9	240	13
2023-08-04T18:00	16798	97	-50.1	-82.7	239	12
2023-08-04T18:00	16823	96	-49.9	-82.5	237	11
2023-08-04T18:00	16845	96	-49.9	-82.5	234	11
2023-08-04T18:00	16875	96	-50.0	-82.6	230	10
2023-08-04T18:00	16902	95	-50.1	-82.7	227	10
2023-08-04T18:00	16925	95	-50.3	-82.8	223	10
2023-08-04T18:00	16954	95	-50.5		220	10
2023-08-04T18:00	16983	94	-50.8	-82.6	218	10
2023-08-04T18:00	17010	94	-50.9	-82.7	215	10
2023-08-04T18:00	17036	93	-51.0	-82.7	213	10
2023-08-04T18:00	17061	93	-51.1	-82.8	211	10
2023-08-04T18:00	17082	93	-51.1	-82.8	210	11
2023-08-04T18:00	17107	92	-51.2	-82.9	210	11
2023-08-04T18:00	17132	92	-51.4	-83.0	211	11
2023-08-04T18:00	17153	92	-51.6	-83.2	212	12
2023-08-04T18:00	17176	91	-51.7	-83.2	214	12
2023-08-04T18:00	17203	91	-51.9	-83.4	216	12
2023-08-04T18:00	17232	91	-52.1	-83.5	219	13
2023-08-04T18:00	17255	90	-52.0	-83.5	221	13
2023-08-04T18:00	17278	90	-52.2	-83.6	222	13
2023-08-04T18:00	17302	90	-52.1	-83.5	222	14
2023-08-04T18:00	17326	89	-51.8	-83.3	221	14
2023-08-04T18:00	17350	89	-51.9	-83.4	220	14
2023-08-04T18:00	17373	89	-51.9	-83.4	219	14
2023-08-04T18:00	17394	88	-51.8	-83.3	219	14
2023-08-04T18:00	17421	88	-51.8	-83.3	219	14
2023-08-04T18:00	17445	88	-51.8	-83.3	220	14
2023-08-04T18:00	17467	87	-51.8	-83.3	221	14
2023-08-04T18:00	17493	87	-52.0	-83.5	222	14
2023-08-04T18:00	17516	87	-52.1	-83.5	223	14
2023-08-04T18:00	17539	86	-52.2	-83.6	224	14
2023-08-04T18:00	17562	86	-52.4	-83.8	224	13
2023-08-04T18:00	17580	86	-52.5	-83.3	225	13
2023-08-04T18:00	17609	85	-52.7	-83.4	226	13
2023-08-04T18:00	17631	85	-52.9	-83.6	226	13
2023-08-04T18:00	17655	85	-53.1	-83.7	227	12
2023-08-04T18:00	17680	85	-53.0	-84.2	228	12
2023-08-04T18:00	17701	84	-52.9	-84.1	229	11
2023-08-04T18:00	17725	84	-52.7	-84.0	230	11
2023-08-04T18:00	17748	84	-52.5	-83.8	231	10
2023-08-04T18:00	17770	83	-52.6	-83.9	230	10
2023-08-04T18:00	17792	83	-52.7	-84.0	226	10
2023-08-04T18:00	17815	83	-52.7	-84.0	220	9
2023-08-04T18:00	17839	82	-52.6	-84.5	211	9
2023-08-04T18:00	17869	82	-52.1	-84.2	201	9
2023-08-04T18:00	17891	82	-50.8	-83.9	191	9
2023-08-04T18:00	17917	81	-50.2	-83.5	184	9
2023-08-04T18:00	17941	81	-50.1	-83.4	179	9
2023-08-04T18:00	17965	81	-50.1	-83.4	176	10
2023-08-04T18:00	17992	81	-50.3	-83.5	174	10
2023-08-04T18:00	18016	80	-50.5	-83.0	174	10
2023-08-04T18:00	18039	80	-50.7	-83.1	174	11
2023-08-04T18:00	18061	80	-50.8	-83.2	175	11
2023-08-04T18:00	18086	79	-50.8	-83.2	177	11
2023-08-04T18:00	18109	79	-50.7	-83.1	181	11
2023-08-04T18:00	18134	79	-50.7	-83.1	184	11
2023-08-04T18:00	18158	79	-50.8	-83.2	188	11
2023-08-04T18:00	18181	78	-50.9	-83.3	192	11
2023-08-04T18:00	18207	78	-51.0	-83.3	195	11
2023-08-04T18:00	18228	78	-51.1	-83.4	198	11
2023-08-04T18:00	18250	77	-51.3	-83.6	201	10
2023-08-04T18:00	18278	77	-51.4	-83.6	204	10
2023-08-04T18:00	18302	77	-51.5	-83.7	207	10
2023-08-04T18:00	18326	77	-51.6	-83.8	210	10
2023-08-04T18:00	18348	76	-51.7	-83.2	212	10
2023-08-04T18:00	18374	76	-51.9	-83.4	212	10
2023-08-04T18:00	18397	76	-52.0	-83.5	212	10
2023-08-04T18:00	18424	75	-52.2	-84.2	211	10
2023-08-04T18:00	18442	75	-52.0	-84.1	209	10
2023-08-04T18:00	18465	75	-51.2	-83.5	207	10
2023-08-04T18:00	18489	75	-51.0	-84.0	205	10
2023-08-04T18:00	18516	74	-50.8	-83.9	204	10
2023-08-04T18:00	18538	74	-50.7	-83.8	203	11
2023-08-04T18:00	18563	74	-50.8	-83.9	201	11
2023-08-04T18:00	18588	73	-50.7	-83.8	200	11
2023-08-04T18:00	18615	73	-50.8	-83.2	198	12
2023-08-04T18:00	18643	73	-51.0	-83.3	198	12
2023-08-04T18:00	18665	73	-51.2	-83.5	198	12
2023-08-04T18:00	18692	72	-51.4	-83.6	198	12
2023-08-04T18:00	18718	72	-51.6	-83.2	199	12
2023-08-04T18:00	18741	72	-51.9	-83.4	200	12
2023-08-04T18:00	18769	71	-52.1	-83.5	201	12
2023-08-04T18:00	18794	71	-52.3	-83.7	202	12
2023-08-04T18:00	18812	71	-52.5	-83.8	204	11
2023-08-04T18:00	18839	71	-52.7	-84.0	205	11
2023-08-04T18:00	18863	70	-52.6	-83.9	207	11
2023-08-04T18:00	18886	70	-52.4	-83.8	208	11
2023-08-04T18:00	18911	70	-52.5	-84.4	209	10
2023-08-04T18:00	18937	70	-52.4	-84.4	209	9
2023-08-04T18:00	18959	69	-52.4	-84.4	209	9
2023-08-04T18:00	18980	69	-52.3	-84.3	209	8
2023-08-04T18:00	19003	69	-52.3	-84.3	208	8
2023-08-04T18:00	19029	69	-52.2	-84.2	206	7
2023-08-04T18:00	19049	68	-52.2	-84.2	203	7
2023-08-04T18:00	19075	68	-52.2	-84.2	201	8
2023-08-04T18:00	19096	68	-52.4	-84.4	199	8
2023-08-04T18:00	19118	68	-52.5	-84.4	198	9
2023-08-04T18:00	19141	67	-52.6	-83.9	198	9
2023-08-04T18:00	19163	67	-52.8	-84.1	198	10
2023-08-04T18:00	19191	67	-52.9	-84.1	199	10
2023-08-04T18:00	19212	67	-53.0	-84.2	201	10
2023-08-04T18:00	19236	66	-52.8	-84.1	204	10
2023-08-04T18:00	19259	66	-52.6	-84.5	206	10
2023-08-04T18:00	19286	66	-52.5	-84.4	208	10
2023-08-04T18:00	19307	66	-52.1	-84.2	209	10
2023-08-04T18:00	19330	66	-51.9	-84.0	210	10
2023-08-04T18:00	19356	65	-52.0	-84.1	211	10
2023-08-04T18:00	19381	65	-52.3	-84.3	212	9
2023-08-04T18:00	19403	65	-52.4	-84.4	213	9
2023-08-04T18:00	19427	65	-52.6	-84.5	214	8
2023-08-04T18:00	19454	64	-52.6	-84.5	215	7
2023-08-04T18:00	19478	64	-52.3	-84.3	214	6
2023-08-04T18:00	19504	64	-51.9	-84.7	212	5
2023-08-04T18:00	19526	64	-51.5	-84.4	207	4
2023-08-04T18:00	19555	63	-51.4	-84.3	198	3
2023-08-04T18:00	19575	63	-51.2	-84.2	184	3
2023-08-04T18:00	19602	63	-50.9	-84.0	169	3
2023-08-04T18:00	19629	63	-50.5	-83.7	158	3
2023-08-04T18:00	19660	62	-50.5	-83.7	152	4
2023-08-04T18:00	19682	62	-50.7	-83.8	149	4
2023-08-04T18:00	19709	62	-50.8	-83.9	147	5
2023-08-04T18:00	19736	62	-51.0	-83.3	147	5
2023-08-04T18:00	19763	61	-51.2	-83.5	148	6
2023-08-04T18:00	19791	61	-51.5	-83.7	150	7
2023-08-04T18:00	19819	61	-51.7	-83.9	152	7
2023-08-04T18:00	19842	61	-51.9	-84.0	156	8
2023-08-04T18:00	19869	60	-52.1	-84.2	159	8
2023-08-04T18:00	19894	60	-51.9	-84.0	163	8
2023-08-04T18:00	19919	60	-51.7	-83.9	166	9
2023-08-04T18:00	19945	60	-51.6	-83.8	169	9
2023-08-04T18:00	19972	59	-51.4	-83.6	173	9
2023-08-04T18:00	19999	59	-51.5	-83.7	177	8
2023-08-04T18:00	20021	59	-51.7	-83.9	180	8
2023-08-04T18:00	20049	59	-51.8	-83.9	184	8
2023-08-04T18:00	20074	58	-51.7	-83.9	187	7
2023-08-04T18:00	20098	58	-51.7	-83.9	190	7
2023-08-04T18:00	20125	58	-51.7	-83.9	191	7
2023-08-04T18:00	20147	58	-51.7	-83.9	191	7
2023-08-04T18:00	20174	58	-51.6	-83.8	191	7
2023-08-04T18:00	20198	57	-51.6	-83.8	190	7
2023-08-04T18:00	20226	57	-51.7	-84.5	189	7
2023-08-04T18:00	20251	57	-51.6	-84.5	189	7
2023-08-04T18:00	20277	57	-51.6	-84.5	189	7
2023-08-04T18:00	20307	56	-51.4	-84.3	190	7
2023-08-04T18:00	20328	56	-51.1	-84.1	191	6
2023-08-04T18:00	20357	56	-50.8	-83.9	190	6
2023-08-04T18:00	20379	56	-50.8	-83.9	187	5
2023-08-04T18:00	20406	56	-50.8	-83.9	182	5
2023-08-04T18:00	20430	55	-51.0	-84.0	176	4
2023-08-04T18:00	20455	55	-51.1	-84.1	168	3
2023-08-04T18:00	20484	55	-51.1	-84.1	159	3
2023-08-04T18:00	20507	55	-50.8	-83.9	147	3
2023-08-04T18:00	20537	54	-50.8	-83.9	135	3
2023-08-04T18:00	20564	54	-51.0	-84.0	124	3
2023-08-04T18:00	20588	54	-51.1	-84.1	116	4
2023-08-04T18:00	20610	54	-50.9	-84.0	111	4
2023-08-04T18:00	20643	54	-51.0	-84.0	109	5
2023-08-04T18:00	20670	53	-51.2	-83.5	109	5
2023-08-04T18:00	20694	53	-51.4	-83.6	111	5
2023-08-04T18:00	20723	53	-51.6	-83.8	114	5
2023-08-04T18:00	20747	53	-51.9	-84.0	119	5
2023-08-04T18:00	20774	52	-52.0	-84.1	125	5
2023-08-04T18:00	20802	52	-52.1	-84.2	133	5
2023-08-04T18:00	20828	52	-52.1	-84.2	141	4
2023-08-04T18:00	20859	52	-52.2	-84.2	150	4
2023-08-04T18:00	20883	52	-52.4	-84.4	157	5
2023-08-04T18:00	20909	51	-52.6	-84.5	163	5
2023-08-04T18:00	20934	51	-52.8	-84.7	168	5
2023-08-04T18:00	20965	51	-52.8	-84.7	171	6
2023-08-04T18:00	20993	51	-52.7	-84.6	172	6
2023-08-04T18:00	21019	51	-52.4	-84.4	173	7
2023-08-04T18:00	21044	50	-52.3	-84.3	172	7
2023-08-04T18:00	21073	50	-52.4	-84.4	172	8
2023-08-04T18:00	21105	50	-52.5	-84.4	172	8
2023-08-04T18:00	21125	50	-52.6	-84.5	172	8
2023-08-04T18:00	21149	49	-52.8	-84.7	172	7
2023-08-04T18:00	21182	49	-52.7	-84.6	173	7
2023-08-04T18:00	21207	49	-52.6	-84.5	176	6
2023-08-04T18:00	21236	49	-52.5	-84.4	178	6
2023-08-04T18:00	21265	49	-52.6	-84.5	180	5
2023-08-04T18:00	21292	48	-52.7	-84.6	181	4
2023-08-04T18:00	21315	48	-52.5	-84.4	179	3
2023-08-04T18:00	21348	48	-52.5	-84.4	172	2
2023-08-04T18:00	21372	48	-52.4	-85.1	153	2
2023-08-04T18:00	21400	48	-52.4	-85.1	123	2
2023-08-04T18:00	21426	47	-52.3	-85.0	106	2
2023-08-04T18:00	21450	47	-52.1	-84.8	104	3
2023-08-04T18:00	21488	47	-52.0	-84.8	108	3
2023-08-04T18:00	21508	47	-52.0	-84.8	114	4
2023-08-04T18:00	21534	47	-51.8	-84.6	120	5
2023-08-04T18:00	21562	46	-51.6	-84.5	125	5
2023-08-04T18:00	21587	46	-51.6	-84.5	129	6
2023-08-04T18:00	21613	46	-51.7	-84.5	132	6
2023-08-04T18:00	21637	46	-51.9	-84.7	135	6
2023-08-04T18:00	21660	46	-52.0	-84.8	137	7
2023-08-04T18:00	21690	46	-51.9	-84.7	139	7
2023-08-04T18:00	21715	45	-51.9	-84.7	141	8
2023-08-04T18:00	21735	45	-51.9	-84.7	143	8
2023-08-04T18:00	21764	45	-51.9	-84.0	146	8
2023-08-04T18:00	21790	45	-52.0	-84.1	149	8
2023-08-04T18:00	21816	45	-52.2	-84.2	152	8
2023-08-04T18:00	21842	44	-52.4	-84.4	156	8
2023-08-04T18:00	21869	44	-52.6	-84.5	161	8
2023-08-04T18:00	21897	44	-52.9	-84.7	166	8
2023-08-04T18:00	21915	44	-52.9	-84.7	172	8
2023-08-04T18:00	21940	44	-52.7	-84.6	177	7
2023-08-04T18:00	21962	44	-52.5	-84.4	182	7
2023-08-04T18:00	21992	43	-52.5	-84.4	189	7
2023-08-04T18:00	22015	43	-52.5	-85.1	196	6
2023-08-04T18:00	22037	43	-52.5	-85.1	204	6
2023-08-04T18:00	22059	43	-52.4	-85.1	212	6
2023-08-04T18:00	22093	43	-52.4	-85.1	221	6
2023-08-04T18:00	22114	43	-52.4	-85.1	230	6
2023-08-04T18:00	22138	42	-52.5	-85.1	238	5
2023-08-04T18:00	22158	42	-52.4	-85.1	247	5
2023-08-04T18:00	22187	42	-52.2	-84.9	258	4
2023-08-04T18:00	22211	42	-52.0	-84.8	268	4
2023-08-04T18:00	22236	42	-51.9	-84.7	279	4
2023-08-04T18:00	22263	42	-51.9	-84.7	288	3
2023-08-04T18:00	22282	42	-51.9	-84.7	295	3
2023-08-04T18:00	22310	41	-51.9	-84.7	301	3
2023-08-04T18:00	22333	41	-52.0	-84.8	304	2
2023-08-04T18:00	22357	41	-52.1	-84.8	300	1
2023-08-04T18:00	22386	41	-52.0	-84.8	161	0
2023-08-04T18:00	22411	41	-51.9	-84.7	148	2
2023-08-04T18:00	22440	41	-51.9	-84.7	149	3
2023-08-04T18:00	22464	40	-52.0	-84.8	151	4
2023-08-04T18:00	22491	40	-52.0	-84.8	153	4
2023-08-04T18:00	22510	40	-52.2	-84.9	154	5
2023-08-04T18:00	22543	40	-52.3	-85.0	155	6
2023-08-04T18:00	22566	40	-52.3	-85.0	156	6
2023-08-04T18:00	22592	40	-52.2	-84.9	158	6
2023-08-04T18:00	22619	39	-51.9	-84.7	159	6
2023-08-04T18:00	22642	39	-51.7	-84.5	160	6
2023-08-04T18:00	22678	39	-51.4	-84.3	159	5
2023-08-04T18:00	22706	39	-51.2	-85.0	157	5
2023-08-04T18:00	22728	39	-51.2	-85.0	152	5
2023-08-04T18:00	22756	39	-51.0	-84.8	147	6
2023-08-04T18:00	22783	38	-50.9	-84.7	144	7
2023-08-04T18:00	22808	38	-50.9	-84.7	142	8
2023-08-04T18:00	22836	38	-50.8	-84.7	142	9
2023-08-04T18:00	22861	38	-50.7	-83.8	143	9
2023-08-04T18:00	22890	38	-50.7	-83.8	145	10
2023-08-04T18:00	22915	38	-50.8	-83.9	147	10
2023-08-04T18:00	22946	38	-50.9	-84.0	149	10
2023-08-04T18:00	22969	37	-50.9	-84.0	151	10
2023-08-04T18:00	22998	37	-50.9	-84.0	153	9
2023-08-04T18:00	23028	37	-50.8	-83.9	156	8
2023-08-04T18:00	23055	37	-50.8	-83.9	158	7
2023-08-04T18:00	23073	37	-50.6	-84.5	160	6
2023-08-04T18:00	23110	37	-50.5	-84.5	162	5
2023-08-04T18:00	23132	36	-50.4	-84.4	162	5
2023-08-04T18:00	23161	36	-50.4	-84.4	159	4
2023-08-04T18:00	23185	36	-50.4	-84.4	153	3
2023-08-04T18:00	23215	36	-50.2	-84.2	141	3
2023-08-04T18:00	23241	36	-50.1	-84.2	125	3
2023-08-04T18:00	23267	36	-50.0	-84.1	110	3
2023-08-04T18:00	23299	36	-49.9	-84.0	99	4
2023-08-04T18:00	23317	35	-49.9	-84.0	94	4
2023-08-04T18:00	23343	35	-49.9	-84.0	93	5
2023-08-04T18:00	23367	35	-49.7	-83.9	95	5
2023-08-04T18:00	23395	35	-49.7	-83.9	99	5
2023-08-04T18:00	23420	35	-49.8	-84.0	103	5
2023-08-04T18:00	23442	35	-49.9	-84.0	104	5
2023-08-04T18:00	23468	35	-50.1	-84.2	102	5
2023-08-04T18:00	23495	34	-50.1	-84.2	98	5
2023-08-04T18:00	23520	34	-50.1	-84.2	90	5
2023-08-04T18:00	23543	34	-50.1	-84.2	83	5
2023-08-04T18:00	23566	34	-50.1	-84.2	77	5
2023-08-04T18:00	23590	34	-50.1	-84.2	75	5
2023-08-04T18:00	23618	34	-50.2	-84.2	75	5
2023-08-04T18:00	23648	34	-50.2	-84.2	77	6
2023-08-04T18:00	23669	34	-50.1	-84.2	81	6
2023-08-04T18:00	23694	33	-50.1	-84.2	85	6
2023-08-04T18:00	23723	33	-50.0	-84.1	88	7
2023-08-04T18:00	23748	33	-50.1	-84.2	92	7
2023-08-04T18:00	23772	33	-50.2	-84.2	96	7
2023-08-04T18:00	23797	33	-50.1	-84.2	100	7
2023-08-04T18:00	23826	33	-50.1	-84.2	105	7
2023-08-04T18:00	23850	33	-50.0	-84.1	110	7
2023-08-04T18:00	23875	33	-50.1	-84.2	115	7
2023-08-04T18:00	23903	32	-50.2	-84.2	121	7
2023-08-04T18:00	23932	32	-50.4	-83.6	126	7
2023-08-04T18:00	23952	32	-50.6	-83.7	131	7
2023-08-04T18:00	23980	32	-50.7	-83.8	134	7
2023-08-04T18:00	24005	32	-50.9	-84.0	136	8
2023-08-04T18:00	24029	32	-51.0	-84.0	137	8
2023-08-04T18:00	24062	32	-50.9	-84.0	135	8
2023-08-04T18:00	24090	31	-50.7	-84.6	133	7
2023-08-04T18:00	24114	31	-50.6	-84.5	130	7
2023-08-04T18:00	24145	31	-50.4	-84.4	125	7
2023-08-04T18:00	24172	31	-50.1	-84.2	120	7
2023-08-04T18:00	24202	31	-49.9	-84.0	114	7
2023-08-04T18:00	24229	31	-49.9	-84.0	107	7
2023-08-04T18:00	24256	31	-49.9	-84.0	99	6
2023-08-04T18:00	24286	31	-49.9	-84.0	92	7
2023-08-04T18:00	24316	30	-49.9	-84.0	88	7
2023-08-04T18:00	24340	30	-49.8	-84.0	86	7
2023-08-04T18:00	24370	30	-49.8	-84.0	87	7
2023-08-04T18:00	24397	30	-49.8	-84.0	90	7
2023-08-04T18:00	24424	30	-49.7	-83.9	93	7
2023-08-04T18:00	24452	30	-49.7	-83.9	95	7
2023-08-04T18:00	24482	30	-49.7	-83.9	96	8
2023-08-04T18:00	24510	30	-49.6	-83.8	96	8
2023-08-04T18:00	24534	29	-49.4	-83.7	95	8
2023-08-04T18:00	24564	29	-49.2	-83.5	95	8
2023-08-04T18:00	24595	29	-49.2	-84.4	95	8
2023-08-04T18:00	24626	29	-49.0	-84.3	96	7
2023-08-04T18:00	24649	29	-48.6		100	7
2023-08-04T18:00	24685	29	-48.6		104	7
2023-08-04T18:00	24711	29	-48.8	-83.2	110	6
2023-08-04T18:00	24742	29	-49.0	-83.4	117	6
2023-08-04T18:00	24767	28	-49.2	-83.5	125	6
2023-08-04T18:00	24799	28	-49.4	-83.7	134	6
2023-08-04T18:00	24827	28	-49.6	-83.8	142	6
2023-08-04T18:00	24863	28	-49.8	-84.0	147	6
2023-08-04T18:00	24877	28	-50.0	-84.1	149	6
2023-08-04T18:00	24913	28	-50.0	-84.1	147	6
2023-08-04T18:00	24944	28	-49.7	-83.9	141	6
2023-08-04T18:00	24971	28	-49.5	-83.7	132	6
2023-08-04T18:00	25002	27	-49.3	-83.6	123	6
2023-08-04T18:00	25030	27	-49.2	-83.5	116	7
2023-08-04T18:00	25058	27	-49.2	-83.5	112	7
2023-08-04T18:00	25093	27	-49.2	-83.5	111	7
2023-08-04T18:00	25116	27	-49.4	-83.7	111	8
2023-08-04T18:00	25145	27	-49.4	-83.7	113	8
2023-08-04T18:00	25168	27	-49.4	-83.7	114	8
2023-08-04T18:00	25193	27	-49.5	-83.7	117	7
2023-08-04T18:00	25221	26	-49.4	-83.7	119	7
2023-08-04T18:00	25252	26	-49.2	-83.5	120	7
2023-08-04T18:00	25279	26	-49.0	-84.3	122	6
2023-08-04T18:00	25310	26	-48.8	-84.1	124	6
2023-08-04T18:00	25327	26	-48.7	-84.1	126	5
2023-08-04T18:00	25363	26	-48.5	-83.9	127	5
2023-08-04T18:00	25387	26	-48.6		126	5
2023-08-04T18:00	25423	26	-48.6		123	5
2023-08-04T18:00	25452	26	-48.5	-83.9	118	5
2023-08-04T18:00	25468	26	-48.4	-83.8	113	5
2023-08-04T18:00	25498	25	-48.2	-83.7	110	5
2023-08-04T18:00	25525	25	-48.1	-83.6	109	5
2023-08-04T18:00	25567	25	-47.9	-83.5	110	4
2023-08-04T18:00	25586	25	-47.7	-83.4	113	4
2023-08-04T18:00	25612	25	-47.4	-83.1	118	3
2023-08-04T18:00	25645	25	-47.2	-83.0	122	2
2023-08-04T18:00	25665	25	-47.0	-82.9	118	1
2023-08-04T18:00	25694	25	-46.8	-83.8	97	1
2023-08-04T18:00	25722	25	-46.5	-83.6	76	2
2023-08-04T18:00	25746	24	-46.3	-83.4	70	2
2023-08-04T18:00	25775	24	-46.2	-83.4	72	3
2023-08-04T18:00	25799	24	-46.0	-83.2	77	4
2023-08-04T18:00	25831	24	-45.8	-83.1	82	4
2023-08-04T18:00	25856	24	-45.7	-83.0	88	5
2023-08-04T18:00	25890	24	-45.6	-82.9	94	5
2023-08-04T18:00	25920	24	-45.6	-82.9	98	6
2023-08-04T18:00	25945	24	-45.6	-82.9	102	6
2023-08-04T18:00	25977	24	-45.5	-82.9	105	7
2023-08-04T18:00	26003	24	-45.6	-82.9	107	7
2023-08-04T18:00	26033	23	-45.7	-83.0	108	6
2023-08-04T18:00	26063	23	-45.7	-83.0	108	6
2023-08-04T18:00	26090	23	-45.7	-83.0	108	5
2023-08-04T18:00	26117	23	-45.7	-83.0	107	5
2023-08-04T18:00	26152	23	-45.8	-83.1	106	4
2023-08-04T18:00	26177	23	-45.7	-83.0	106	3
2023-08-04T18:00	26209	23	-45.6	-82.9	107	3
2023-08-04T18:00	26236	23	-45.7	-83.0	104	2
2023-08-04T18:00	26267	23	-45.8	-83.1	94	2
2023-08-04T18:00	26307	23	-45.9	-83.2	73	1
2023-08-04T18:00	26318	22	-45.8	-83.1	55	2
2023-08-04T18:00	26350	22	-45.8	-83.1	47	2
2023-08-04T18:00	26382	22	-45.9	-83.2	47	3
2023-08-04T18:00	26411	22	-46.0	-83.2	50	3
2023-08-04T18:00	26447	22	-46.0	-82.1	56	4
2023-08-04T18:00	26473	22	-46.0	-82.1	62	4
2023-08-04T18:00	26502	22	-46.0	-82.1	69	5
2023-08-04T18:00	26532	22	-46.1	-82.2	76	5
2023-08-04T18:00	26557	22	-46.2	-82.3	82	5
2023-08-04T18:00	26587	22	-46.3	-82.4	87	5
2023-08-04T18:00	26616	21	-46.3	-82.4	90	5
2023-08-04T18:00	26638	21	-46.4	-82.4	89	5
2023-08-04T18:00	26672	21	-46.5	-82.5	85	5
2023-08-04T18:00	26701	21	-46.5	-82.5	77	5
2023-08-04T18:00	26723	21	-46.6	-82.6	66	5
2023-08-04T18:00	26752	21	-46.6	-82.6	57	5
2023-08-04T18:00	26785	21	-46.6	-82.6	50	5
2023-08-04T18:00	26806	21	-46.7	-82.6	46	5
2023-08-04T18:00	26838	21	-46.7	-82.6	44	6
2023-08-04T18:00	26866	21	-46.6	-82.6	43	6
2023-08-04T18:00	26892	21	-46.6	-82.6	42	6
2023-08-04T18:00	26917	21	-46.7	-82.6	40	5
2023-08-04T18:00	26948	20	-46.6	-82.6	40	5
2023-08-04T18:00	26972	20	-46.5	-83.6	40	5
2023-08-04T18:00	26998	20	-46.4	-83.5	42	5
2023-08-04T18:00	27029	20	-46.3	-83.4	45	5
2023-08-04T18:00	27061	20	-46.3	-83.4	49	4
2023-08-04T18:00	27083	20	-46.3	-83.4	53	4
2023-08-04T18:00	27109	20	-46.3	-83.4	55	4
2023-08-04T18:00	27133	20	-46.3	-83.4	56	4
2023-08-04T18:00	27165	20	-46.3	-83.4	55	5
2023-08-04T18:00	27198	20	-46.3	-83.4	54	5
2023-08-04T18:00	27224	20	-46.3	-83.4	52	6
2023-08-04T18:00	27252	20	-46.3	-83.4	51	6
2023-08-04T18:00	27283	19	-46.3	-83.4	50	7
2023-08-04T18:00	27314	19	-46.4	-83.5	50	7
2023-08-04T18:00	27339	19	-46.4	-82.4	50	7
2023-08-04T18:00	27359	19	-46.4	-82.4	50	8
2023-08-04T18:00	27397	19	-46.6	-82.6	51	8
2023-08-04T18:00	27416	19	-46.7	-82.6	52	8
2023-08-04T18:00	27445	19	-46.7	-82.6	54	8
2023-08-04T18:00	27474	19	-46.8	-82.7	55	7
2023-08-04T18:00	27502	19	-46.8	-82.7	55	7
2023-08-04T18:00	27516	19	-46.9	-82.8	54	7
2023-08-04T18:00	27560	19	-46.8	-82.7	53	7
2023-08-04T18:00	27586	19	-46.7	-82.6	52	6
2023-08-04T18:00	27618	18	-46.8	-82.7	50	6
2023-08-04T18:00	27640	18	-46.9	-83.9	49	6
2023-08-04T18:00	27671	18	-46.8	-83.8	49	6
2023-08-04T18:00	27699	18	-46.7	-83.7	49	6
2023-08-04T18:00	27733	18	-46.6	-83.6	50	7
2023-08-04T18:00	27745	18	-46.6	-83.6	50	8
2023-08-04T18:00	27769	18	-46.5	-83.6	49	8
2023-08-04T18:00	27806	18	-46.2	-83.4	48	9
2023-08-04T18:00	27834	18	-45.9	-83.2	47	10
2023-08-04T18:00	27854	18	-45.8	-83.1	46	10
2023-08-04T18:00	27896	18	-45.8	-83.1	46	10
2023-08-04T18:00	27920	18	-45.7	-83.0	47	11
2023-08-04T18:00	27943	18	-45.4	-82.8	50	11
2023-08-04T18:00	27973	18	-45.1	-82.6	53	12
2023-08-04T18:00	28005	17	-45.1	-82.6	57	12
2023-08-04T18:00	28032	17	-45.2	-82.7	60	13
2023-08-04T18:00	28064	17	-45.2	-82.7	62	13
2023-08-04T18:00	28082	17	-45.2	-82.7	65	13
2023-08-04T18:00	28118	17	-45.3	-82.7	67	14
2023-08-04T18:00	28159	17	-45.4	-82.8	69	14
2023-08-04T18:00	28184	17	-45.6	-82.9	71	14
2023-08-04T18:00	28216	17	-45.6	-82.9	74	14
2023-08-04T18:00	28235	17	-45.4	-82.8	75	13
2023-08-04T18:00	28283	17	-45.4	-82.8	77	13
2023-08-04T18:00	28297	17	-45.5	-82.9	79	13
2023-08-04T18:00	28329	17	-45.6	-82.9	81	12
2023-08-04T18:00	28358	17	-45.6	-82.9	83	12
2023-08-04T18:00	28394	16	-45.7	-83.0	85	12
2023-08-04T18:00	28434	16	-45.6	-82.9	87	12
2023-08-04T18:00	28452	16	-45.6	-82.9	89	12
2023-08-04T18:00	28483	16	-45.6	-82.9	89	12
2023-08-04T18:00	28518	16	-45.6	-82.9	89	12
2023-08-04T18:00	28544	16	-45.5	-82.9	87	12
2023-08-04T18:00	28579	16	-45.5	-82.9	86	12
2023-08-04T18:00	28604	16	-45.4	-82.8	84	11
2023-08-04T18:00	28637	16	-45.4	-82.8	83	12
2023-08-04T18:00	28680	16	-45.4	-82.8	84	12
2023-08-04T18:00	28697	16	-45.5	-82.9	85	12
2023-08-04T18:00	28733	16	-45.4	-82.8	87	13
2023-08-04T18:00	28756	16	-45.2	-82.7	89	13
2023-08-04T18:00	28796	15	-45.0	-82.5	91	13
2023-08-04T18:00	28830	15	-44.9	-82.5	92	13
2023-08-04T18:00	28846	15	-44.7	-82.3	93	12
2023-08-04T18:00	28879	15	-44.6	-82.2	94	11
2023-08-04T18:00	28915	15	-44.5	-82.2	93	11
2023-08-04T18:00	28945	15	-44.4	-82.1	91	10
2023-08-04T18:00	28974	15	-44.3	-82.0	87	10
2023-08-04T18:00	28998	15	-44.1	-81.9	82	10
2023-08-04T18:00	29029	15	-43.8	-81.7	77	10
2023-08-04T18:00	29061	15	-43.6	-81.5	73	10
2023-08-04T18:00	29084	15	-43.5	-81.5	71	11
2023-08-04T18:00	29116	15	-43.3	-81.3	71	11
2023-08-04T18:00	29140	15	-43.3	-81.3	72	11
2023-08-04T18:00	29170	15	-43.4	-81.4	75	11
2023-08-04T18:00	29204	15	-43.5	-81.5	78	11
2023-08-04T18:00	29244	15	-43.6	-81.5	81	11
2023-08-04T18:00	29275	14	-43.7	-81.6	85	11
2023-08-04T18:00	29292	14	-43.7	-81.6	87	11
2023-08-04T18:00	29313	14	-43.7	-81.6	90	12
2023-08-04T18:00	29349	14	-43.6	-81.5	91	12
2023-08-04T18:00	29372	14	-43.4	-81.4	91	13
2023-08-04T18:00	29410	14	-43.1	-81.2	91	13
2023-08-04T18:00	29438	14	-43.0	-81.1	92	14
2023-08-04T18:00	29469	14	-42.9	-81.1	93	15
2023-08-04T18:00	29496	14	-42.8	-81.0	95	16
2023-08-04T18:00	29530	14	-42.8	-81.0	97	16
2023-08-04T18:00	29547	14	-42.7	-80.9	100	16
2023-08-04T18:00	29578	14	-42.5	-80.8	102	16
2023-08-04T18:00	29612	14	-42.4	-80.7	104	16
2023-08-04T18:00	29638	14	-42.5	-80.8	106	16
2023-08-04T18:00	29682	14	-42.6	-80.8	107	15
2023-08-04T18:00	29703	14	-42.6	-80.8	108	15
2023-08-04T18:00	29729	13	-42.7	-80.9	109	14
2023-08-04T18:00	29750	13	-42.8	-81.0	109	13
2023-08-04T18:00	29789	13	-42.8	-81.0	109	13
2023-08-04T18:00	29820	13	-42.7	-80.9	110	13
2023-08-04T18:00	29863	13	-42.6	-80.8	111	12
2023-08-04T18:00	29904	13	-42.4	-80.7	112	13
2023-08-04T18:00	29919	13	-42.3	-80.6	113	13
2023-08-04T18:00	29946	13	-42.3	-80.6	114	12
2023-08-04T18:00	29983	13	-42.2	-80.6	116	12
2023-08-04T18:00	30010	13	-42.1	-80.5	117	12
2023-08-04T18:00	30051	13	-42.1	-80.5	117	12
2023-08-04T18:00	30083	13	-42.1	-80.5	116	11
2023-08-04T18:00	30122	13	-42.2	-80.6	115	11
2023-08-04T18:00	30148	13	-42.3	-80.6	113	11
2023-08-04T18:00	30190	13	-42.3	-80.6	111	10
2023-08-04T18:00	30219	13	-42.3	-80.6	109	10
2023-08-04T18:00	30233	13	-42.2	-80.6	108	9
2023-08-04T18:00	30275	12	-42.2	-80.6	108	9
2023-08-04T18:00	30307	12	-42.1	-80.5	110	8
2023-08-04T18:00	30332	12	-42.0	-80.4	113	8
2023-08-04T18:00	30366	12	-41.8	-80.3	115	8
2023-08-04T18:00	30401	12	-41.8	-80.3	115	8
2023-08-04T18:00	30420	12	-41.8	-80.3	115	8
2023-08-04T18:00	30467	12	-41.9	-80.4	113	8
2023-08-04T18:00	30485	12	-41.9	-80.4	111	8
2023-08-04T18:00	30518	12	-41.8	-80.3	108	8
2023-08-04T18:00	30558	12	-41.8	-80.3	106	8
2023-08-04T18:00	30578	12	-41.8	-80.3	103	8
2023-08-04T18:00	30610	12	-41.8	-80.3	100	8
2023-08-04T18:00	30636	12	-41.8	-80.3	98	8
2023-08-04T18:00	30674	12	-41.6	-80.1	98	8
2023-08-04T18:00	30697	12	-41.5	-80.1	100	8
2023-08-04T18:00	30741	12	-41.4	-80.0	103	9
2023-08-04T18:00	30761	12	-41.2	-79.9	107	9
2023-08-04T18:00	30789	12	-41.1	-79.8	110	8
2023-08-04T18:00	30806	11	-41.1	-79.8	112	8
2023-08-04T18:00	30851	11	-41.0	-79.7	113	7
2023-08-04T18:00	30876	11	-41.0	-79.7	112	6
2023-08-04T18:00	30901	11	-41.0	-79.7	107	6
2023-08-04T18:00	30932	11	-40.8	-79.6	97	5
2023-08-04T18:00	30974	11	-40.6	-79.5	86	5
2023-08-04T18:00	30979	11	-40.3	-79.2	77	6
2023-08-04T18:00	31006	11	-40.1	-79.1	70	7
2023-08-04T18:00	31053	11	-39.9	-79.0	67	8
2023-08-04T18:00	31094	11	-39.9	-79.0	64	8
2023-08-04T18:00	31118	11	-40.0	-79.0	63	9
2023-08-04T18:00	31148	11	-39.9	-79.0	64	10
2023-08-04T18:00	31161	11	-39.8	-78.9	65	10
2023-08-04T18:00	31216	11	-39.9	-79.0	68	11
2023-08-04T18:00	31247	11	-39.9	-79.0	70	12
2023-08-04T18:00	31265	11	-39.8	-78.9	73	13
2023-08-04T18:00	31302	11	-39.9	-79.0	76	13
2023-08-04T18:00	31339	11	-40.0	-79.0	78	14
2023-08-04T18:00	31354	11	-40.0	-79.0	80	15
2023-08-04T18:00	31378	11	-40.0	-79.0	81	15
2023-08-04T18:00	31408	11	-40.1	-79.1	82	15
2023-08-04T18:00	31448	10	-40.1	-79.1	82	14
2023-08-04T18:00	31497	10	-39.9	-79.0	83	13
2023-08-04T18:00	31506	10	-39.8	-78.9	83	12
2023-08-04T18:00	31538	10	-39.9	-79.0	85	11
2023-08-04T18:00	31583	10	-39.9	-79.0	87	10
2023-08-04T18:00	31603	10	-39.8	-78.9	89	9
2023-08-04T18:00	31636	10	-39.8	-78.9	90	9
2023-08-04T18:00	31675	10	-39.8	-78.9	89	8
2023-08-04T18:00	31713	10	-39.7	-78.8	87	8
2023-08-04T18:00	31716	10	-39.6	-78.8	84	8
2023-08-04T18:00	31746	10	-39.5	-78.7	82	9
2023-08-04T18:00	31779	10	-39.3	-78.5	80	9
2023-08-04T18:00	31819	10	-39.0	-78.3	80	9
2023-08-04T18:00	31850	10	-39.0	-78.3	81	10
2023-08-04T18:00	31896	10	-38.9	-78.3	82	10
2023-08-04T18:00	31915	10	-38.8	-78.2	83	10
2023-08-04T18:00	31934	10	-38.6	-78.1	84	11
2023-08-04T18:00	31983	10	-38.4	-77.9	84	11
2023-08-04T18:00	32028	10	-38.4	-77.9	85	12
2023-08-04T18:00	32056	10	-38.4	-77.9	86	12
2023-08-04T18:00	32072	10	-38.6	-78.1	87	12
2023-08-04T18:00	32093	10	-38.6	-78.1	87	13
2023-08-04T18:00	32142	9	-38.7	-78.1	88	13
2023-08-04T18:00	32182	9	-38.8	-78.2	87	13
2023-08-04T18:00	32208	9	-38.8	-78.2	87	13
2023-08-04T18:00	32247	9	-38.7	-78.1	86	14
2023-08-04T18:00	32267	9	-38.8	-78.2	85	14
2023-08-04T18:00	32299	9	-38.8	-78.2	85	14
2023-08-04T18:00	32329	9	-38.7	-78.1	86	14
2023-08-04T18:00	32362	9	-38.6	-78.1	87	14
2023-08-04T18:00	32395	9	-38.5	-78.0	88	14
2023-08-04T18:00	32443	9	-38.5	-78.0	91	14
2023-08-04T18:00	32449	9	-38.6	-78.1	93	14
2023-08-04T18:00	32477	9	-38.8	-78.2	96	14
2023-08-04T18:00	32516	9	-38.9	-78.3	98	13
2023-08-04T18:00	32562	9	-39.1	-78.4	101	13
2023-08-04T18:00	32579	9	-39.3	-78.5	104	13
2023-08-04T18:00	32619	9	-39.5	-78.7	106	12
2023-08-04T18:00	32654	9	-39.5	-78.7	107	12
2023-08-04T18:00	32673	9	-39.3	-78.5	108	11
2023-08-04T18:00	32718	9	-39.1	-78.4	108	10
2023-08-04T18:00	32755	9	-39.0	-78.3	106	9
2023-08-04T18:00	32789	9	-38.9	-78.3	103	8
2023-08-04T18:00	32820	9	-38.8	-78.2	98	8
2023-08-04T18:00	32845	9	-38.7	-78.1	90	8
2023-08-04T18:00	32869	9	-38.5	-78.0	83	8
2023-08-04T18:00	32892	8	-38.1	-77.7	76	8
2023-08-04T18:00	32932	8	-37.7	-77.4	72	9
2023-08-04T18:00	32957	8	-37.4	-77.2	70	10
2023-08-04T18:00	32991	8	-37.3	-77.2	70	11
2023-08-04T18:00	33025	8	-37.1	-77.0	71	11
2023-08-04T18:00	33061	8	-37.0	-77.0	73	12
2023-08-04T18:00	33085	8	-36.9	-76.9	75	11
2023-08-04T18:00	33135	8	-36.8	-76.8	78	11
2023-08-04T18:00	33158	8	-36.8	-76.8	80	11
2023-08-04T18:00	33212	8	-36.9	-76.9	81	11
2023-08-04T18:00	33218	8	-36.9	-76.9	82	11
2023-08-04T18:00	33261	8	-36.9	-76.9	82	12
2023-08-04T18:00	33306	8	-36.8	-76.8	81	12
2023-08-04T18:00	33360	8	-36.7	-76.7	81	14
2023-08-04T18:00	33369	8	-36.4	-76.5	81	14
2023-08-04T18:00	33411	8	-36.1	-76.3	81	15
2023-08-04T18:00	33446	8	-35.9	-76.2	82	16
2023-08-04T18:00	33485	8	-35.7	-76.1	83	16
2023-08-04T18:00	33500	8	-35.5	-75.9	85	15
2023-08-05T00:00	112	1001	17.4	11.7	290	2
2023-08-05T00:00	141	998	19.1	10.9	308	3
2023-08-05T00:00	163	995	19.0	10.7	313	4
2023-08-05T00:00	190	992	18.9	10.6	318	4
2023-08-05T00:00	218	989	18.8	10.5	322	5
2023-08-05T00:00	245	986	18.8	10.5	326	5
2023-08-05T00:00	273	983	18.8	10.3	328	5
2023-08-05T00:00	299	980	18.6	10.3	328	6
2023-08-05T00:00	319	977	18.4	10.2	329	5
2023-08-05T00:00	346	974	18.3	10.3	328	5
2023-08-05T00:00	369	971	18.0	10.3	327	5
2023-08-05T00:00	396	969	17.9	10.3	325	4
2023-08-05T00:00	421	966	17.6	10.2	322	4
2023-08-05T00:00	443	963	17.5	9.9	318	4
2023-08-05T00:00	472	960	17.3	9.4	314	4
2023-08-05T00:00	500	957	17.0	8.9	310	4
2023-08-05T00:00	526	954	16.9	8.4	305	4
2023-08-05T00:00	553	951	16.7	8.4	301	4
2023-08-05T00:00	578	948	16.5	8.7	298	3
2023-08-05T00:00	606	945	16.2	8.7	296	3
2023-08-05T00:00	632	942	15.9	8.9	296	3
2023-08-05T00:00	658	939	15.7	9.1	296	3
2023-08-05T00:00	681	937	15.5	9.1	296	3
2023-08-05T00:00	707	934	15.2	9.1	295	3
2023-08-05T00:00	734	931	15.0	9.0	295	3
2023-08-05T00:00	755	929	14.8	9.0	295	3
2023-08-05T00:00	778	926	14.6	9.2	298	2
2023-08-05T00:00	804	923	14.4	9.5	305	2
2023-08-05T00:00	832	920	14.1	9.1	316	2
2023-08-05T00:00	852	918	14.0	8.9	325	1
2023-08-05T00:00	882	915	13.7	8.8	326	1
2023-08-05T00:00	913	912	13.4	8.9	315	1
2023-08-05T00:00	941	909	13.2	8.7	300	2
2023-08-05T00:00	969	906	12.9	8.6	285	2
2023-08-05T00:00	996	902	12.7	8.4	274	2
2023-08-05T00:00	1024	899	12.5	8.4	266	3
2023-08-05T00:00	1053	897	12.3	8.5	261	3
2023-08-05T00:00	1077	894	12.0	8.3	259	3
2023-08-05T00:00	1103	891	11.8	8.2	260	3
2023-08-05T00:00	1126	889	11.6	8.1	262	3
2023-08-05T00:00	1146	886	11.5	8.0	264	3
2023-08-05T00:00	1170	884	11.3	7.9	266	3
2023-08-05T00:00	1195	881	11.0	7.6	267	4
2023-08-05T00:00	1222	879	10.8	7.4	270	4
2023-08-05T00:00	1243	876	10.6	7.7	274	4
2023-08-05T00:00	1263	874	10.4	7.6	280	4
2023-08-05T00:00	1281	872	10.2	7.4	285	4
2023-08-05T00:00	1302	870	10.1	7.4	287	5
2023-08-05T00:00	1319	868	9.9	7.2	286	5
2023-08-05T00:00	1340	866	9.7	6.9	282	5
2023-08-05T00:00	1364	864	9.5	6.9	277	5
2023-08-05T00:00	1388	861	9.3	7.1	270	4
2023-08-05T00:00	1405	859	9.2	7.1	262	4
2023-08-05T00:00	1424	857	9.0	7.2	254	4
2023-08-05T00:00	1446	855	8.8	7.1	245	4
2023-08-05T00:00	1466	853	8.7	6.7	239	5
2023-08-05T00:00	1486	851	8.6	5.9	236	5
2023-08-05T00:00	1513	848	8.5	5.2	235	5
2023-08-05T00:00	1539	846	8.3	4.6	235	4
2023-08-05T00:00	1565	843	8.1	4.5	235	4
2023-08-05T00:00	1587	841	8.0	4.5	234	3
2023-08-05T00:00	1613	838	7.7	4.3	231	3
2023-08-05T00:00	1641	835	7.5	4.2	228	3
2023-08-05T00:00	1674	832	7.2	4.2	223	3
2023-08-05T00:00	1700	829	7.0	3.9	218	2
2023-08-05T00:00	1725	827	6.9	3.4	215	2
2023-08-05T00:00	1755	824	6.7	2.9	213	2
2023-08-05T00:00	1779	821	6.6	3.0	214	2
2023-08-05T00:00	1802	819	6.4	2.8	216	3
2023-08-05T00:00	1825	817	6.2	2.7	220	3
2023-08-05T00:00	1846	815	6.0	2.6	222	3
2023-08-05T00:00	1867	812	6.0	2.3	225	3
2023-08-05T00:00	1887	810	5.8	2.3	228	3
2023-08-05T00:00	1919	808	5.5	2.0	232	3
2023-08-05T00:00	1945	805	5.3	2.0	235	3
2023-08-05T00:00	1973	802	5.1	1.8	238	3
2023-08-05T00:00	1993	800	4.9	1.7	240	3
2023-08-05T00:00	2016	798	4.8	1.8	242	3
2023-08-05T00:00	2042	795	4.6	1.5	244	3
2023-08-05T00:00	2067	793	4.5	1.1	248	3
2023-08-05T00:00	2086	791	4.4	0.9	252	4
2023-08-05T00:00	2107	789	4.2	0.8	257	4
2023-08-05T00:00	2132	787	4.2	0.3	260	5
2023-08-05T00:00	2154	784	4.1	0.5	262	6
2023-08-05T00:00	2183	782	3.9	0.6	264	6
2023-08-05T00:00	2217	778	3.8	0.3	264	7
2023-08-05T00:00	2254	775	4.2	-2.2	263	7
2023-08-05T00:00	2284	772	4.3	-2.8	261	7
2023-08-05T00:00	2312	769	4.2	-3.1	259	7
2023-08-05T00:00	2341	767	4.1	-3.3	256	7
2023-08-05T00:00	2374	764	3.8	-2.4	254	7
2023-08-05T00:00	2399	761	3.5	-2.2	252	7
2023-08-05T00:00	2424	759	3.3	-2.2	252	6
2023-08-05T00:00	2447	757	3.1	-2.2	253	6
2023-08-05T00:00	2472	754	2.8	-2.5	255	6
2023-08-05T00:00	2494	752	2.7	-2.6	256	6
2023-08-05T00:00	2513	751	2.5	-2.7	255	6
2023-08-05T00:00	2534	749	2.4	-3.3	252	6
2023-08-05T00:00	2557	746	2.3	-3.3	248	6
2023-08-05T00:00	2581	744	2.1	-3.2	245	6
2023-08-05T00:00	2608	742	1.9	-3.4	245	6
2023-08-05T00:00	2632	740	1.7	-2.4	248	6
2023-08-05T00:00	2653	738	1.5	-1.9	251	6
2023-08-05T00:00	2684	735	1.3	-2.7	254	7
2023-08-05T00:00	2707	733	1.2	-3.7	255	7
2023-08-05T00:00	2733	730	1.1	-4.2	256	8
2023-08-05T00:00	2758	728	1.0	-4.4	256	8
2023-08-05T00:00	2787	726	0.9	-3.6	256	9
2023-08-05T00:00	2814	723	0.7	-3.6	254	9
2023-08-05T00:00	2842	721	0.5	-3.6	252	10
2023-08-05T00:00	2868	718	0.3	-3.5	251	10
2023-08-05T00:00	2896	716	0.1	-3.1	251	11
2023-08-05T00:00	2919	714	-0.1	-3.0	252	11
2023-08-05T00:00	2941	711	-0.3	-2.2	255	10
2023-08-05T00:00	2981	708	-0.4	-2.6	257	10
2023-08-05T00:00	3014	705	-0.5	-3.6	259	10
2023-08-05T00:00	3036	703	-0.5	-5.5	259	9
2023-08-05T00:00	3072	700	-0.1	-6.8	257	9
2023-08-05T00:00	3102	697	0.1	-9.8	255	8
2023-08-05T00:00	3132	695	0.2	-11.1	252	8
2023-08-05T00:00	3161	692	0.0	-11.2	249	7
2023-08-05T00:00	3190	690	-0.2	-11.6	246	6
2023-08-05T00:00	3214	688	-0.3	-11.8	244	6
2023-08-05T00:00	3236	686	-0.5	-12.4	243	6
2023-08-05T00:00	3259	684	-0.6	-10.4	244	7
2023-08-05T00:00	3284	682	-0.9	-8.7	247	7
2023-08-05T00:00	3314	679	-1.2	-8.5	250	7
2023-08-05T00:00	3339	677	-1.4	-8.5	253	7
2023-08-05T00:00	3361	675	-1.7	-8.7	255	7
2023-08-05T00:00	3386	673	-1.9	-7.6	256	6
2023-08-05T00:00	3413	671	-2.2	-6.9	255	6
2023-08-05T00:00	3445	668	-2.5	-7.2	252	6
2023-08-05T00:00	3470	666	-2.6	-7.9	250	6
2023-08-05T00:00	3496	664	-2.7	-7.9	250	6
2023-08-05T00:00	3521	662	-2.6	-7.4	252	6
2023-08-05T00:00	3543	660	-2.7	-7.6	255	6
2023-08-05T00:00	3565	658	-2.9	-7.7	258	6
2023-08-05T00:00	3589	656	-3.1	-7.7	258	6
2023-08-05T00:00	3613	654	-3.2	-7.5	255	6
2023-08-05T00:00	3635	652	-3.3	-7.0	251	6
2023-08-05T00:00	3657	650	-3.4	-6.8	247	6
2023-08-05T00:00	3685	648	-3.6	-6.7	244	6
2023-08-05T00:00	3711	646	-3.7	-6.8	243	6
2023-08-05T00:00	3731	644	-3.8	-7.0	242	6
2023-08-05T00:00	3751	643	-3.9	-7.4	243	6
2023-08-05T00:00	3774	641	-4.0	-7.5	244	6
2023-08-05T00:00	3798	639	-4.1	-7.8	245	7
2023-08-05T00:00	3816	637	-4.2	-8.0	244	7
2023-08-05T00:00	3846	635	-4.4	-8.2	242	7
2023-08-05T00:00	3874	633	-4.5	-8.4	239	7
2023-08-05T00:00	3893	631	-4.7	-8.6	236	6
2023-08-05T00:00	3912	630	-4.8	-8.7	234	6
2023-08-05T00:00	3936	628	-5.0	-8.7	233	6
2023-08-05T00:00	3969	625	-5.2	-9.0	232	7
2023-08-05T00:00	4003	623	-5.2	-8.7	231	7
2023-08-05T00:00	4036	620	-5.4	-8.8	230	8
2023-08-05T00:00	4057	618	-5.6	-9.1	230	8
2023-08-05T00:00	4080	617	-5.6	-9.7	231	8
2023-08-05T00:00	4099	615	-5.7	-9.6	231	8
2023-08-05T00:00	4126	613	-5.8	-10.0	232	8
2023-08-05T00:00	4145	611	-5.9	-10.1	232	8
2023-08-05T00:00	4164	610	-6.0	-10.3	232	8
2023-08-05T00:00	4192	608	-6.2	-10.2	231	9
2023-08-05T00:00	4222	605	-6.4	-10.1	228	9
2023-08-05T00:00	4250	603	-6.6	-10.3	225	9
2023-08-05T00:00	4281	601	-6.8	-10.4	221	9
2023-08-05T00:00	4305	599	-7.0	-10.6	217	9
2023-08-05T00:00	4327	597	-7.1	-11.0	215	9
2023-08-05T00:00	4351	595	-7.2	-11.1	215	9
2023-08-05T00:00	4391	593	-7.6	-11.3	216	9
2023-08-05T00:00	4411	591	-7.8	-11.2	217	9
2023-08-05T00:00	4439	589	-8.0	-11.1	219	9
2023-08-05T00:00	4460	587	-8.0	-11.4	219	9
2023-08-05T00:00	4487	585	-8.1	-11.6	219	9
2023-08-05T00:00	4517	583	-8.4	-11.8	217	9
2023-08-05T00:00	4539	581	-8.6	-11.9	216	9
2023-08-05T00:00	4561	580	-8.7	-12.2	215	8
2023-08-05T00:00	4586	578	-8.7		216	8
2023-08-05T00:00	4604	576	-8.8	-14.2	217	8
2023-08-05T00:00	4624	575	-8.9	-13.7	220	9
2023-08-05T00:00	4642	574	-9.0	-14.0	223	9
2023-08-05T00:00	4665	572	-9.2	-15.0	224	10
2023-08-05T00:00	4695	570	-9.4	-15.7	224	11
2023-08-05T00:00	4720	568	-9.5	-17.5	223	11
2023-08-05T00:00	4746	566	-9.7	-18.2	221	11
2023-08-05T00:00	4768	564	-9.9	-18.2	219	11
2023-08-05T00:00	4797	562	-10.1	-18.5	217	11
2023-08-05T00:00	4824	560	-10.0	-20.5	217	11
2023-08-05T00:00	4852	558	-10.1	-20.2	216	10
2023-08-05T00:00	4875	557	-10.3	-19.7	215	10
2023-08-05T00:00	4896	555	-10.5	-19.7	213	10
2023-08-05T00:00	4925	553	-10.6	-20.5	211	10
2023-08-05T00:00	4947	551	-10.8	-20.5	209	10
2023-08-05T00:00	4974	549	-11.0	-20.3	208	10
2023-08-05T00:00	5004	547	-11.2	-20.1	210	11
2023-08-05T00:00	5024	546	-11.4	-19.8	212	11
2023-08-05T00:00	5055	544	-11.7	-20.0	213	11
2023-08-05T00:00	5081	542	-11.9	-20.5	214	10
2023-08-05T00:00	5101	540	-12.0	-20.8	212	10
2023-08-05T00:00	5129	538	-12.2	-20.8	211	10
2023-08-05T00:00	5164	536	-12.4	-21.1	209	10
2023-08-05T00:00	5187	535	-12.4	-20.9	209	10
2023-08-05T00:00	5206	533	-12.6	-18.7	210	10
2023-08-05T00:00	5233	531	-12.5	-20.2	211	10
2023-08-05T00:00	5265	529	-12.6	-21.2	211	10
2023-08-05T00:00	5290	527	-12.7	-22.4	210	10
2023-08-05T00:00	5316	526	-12.9	-23.0	207	10
2023-08-05T00:00	5334	524	-13.1	-23.0	205	10
2023-08-05T00:00	5364	522	-13.3	-23.1	204	10
2023-08-05T00:00	5397	520	-13.5	-23.3	206	10
2023-08-05T00:00	5419	519	-13.7	-23.5	208	10
2023-08-05T00:00	5433	517	-13.9	-23.5	210	10
2023-08-05T00:00	5453	516	-14.0	-23.7	211	10
2023-08-05T00:00	5476	515	-14.1	-22.9	211	10
2023-08-05T00:00	5504	513	-14.3	-23.4	211	10
2023-08-05T00:00	5542	510	-14.6	-23.2	210	9
2023-08-05T00:00	5560	509	-14.8	-22.9	208	9
2023-08-05T00:00	5586	507	-14.7	-22.8	205	9
2023-08-05T00:00	5607	506	-14.9	-22.8	201	10
2023-08-05T00:00	5635	504	-15.1	-22.8	198	10
2023-08-05T00:00	5663	502	-15.4	-22.9	195	11
2023-08-05T00:00	5691	500	-15.6	-22.8	195	11
2023-08-05T00:00	5719	498	-15.8	-22.3	196	12
2023-08-05T00:00	5751	496	-16.0	-24.4	198	12
2023-08-05T00:00	5784	494	-16.2	-24.4	200	13
2023-08-05T00:00	5818	492	-16.4	-24.6	200	13
2023-08-05T00:00	5835	491	-16.6	-24.7	200	13
2023-08-05T00:00	5860	489	-16.9	-24.7	200	13
2023-08-05T00:00	5884	487	-17.1	-25.1	200	13
2023-08-05T00:00	5904	486	-17.1	-25.6	202	12
2023-08-05T00:00	5931	484	-17.3	-27.8	205	11
2023-08-05T00:00	5964	482	-17.5	-29.9	208	11
2023-08-05T00:00	5994	480	-17.7	-30.7	211	11
2023-08-05T00:00	6015	479	-17.9	-31.5	212	11
2023-08-05T00:00	6034	478	-18.0	-31.6	213	12
2023-08-05T00:00	6059	476	-18.2	-32.2	213	13
2023-08-05T00:00	6091	474	-18.4	-33.1	212	14
2023-08-05T00:00	6123	472	-18.6	-33.4	211	15
2023-08-05T00:00	6139	471	-18.7	-33.5	210	15
2023-08-05T00:00	6165	469	-18.9	-33.6	209	16
2023-08-05T00:00	6191	468	-19.1	-34.0	208	16
2023-08-05T00:00	6221	466	-19.3	-35.3	208	16
2023-08-05T00:00	6249	464	-19.5	-35.3	208	16
2023-08-05T00:00	6278	462	-19.8	-35.4	208	15
2023-08-05T00:00	6298	461	-19.9	-35.4	209	15
2023-08-05T00:00	6319	460	-20.1	-36.1	210	15
2023-08-05T00:00	6355	458	-20.3	-37.8	210	15
2023-08-05T00:00	6382	456	-20.2	-41.2	209	15
2023-08-05T00:00	6416	454	-20.3	-42.4	207	15
2023-08-05T00:00	6439	452	-20.4	-41.4	205	16
2023-08-05T00:00	6471	451	-20.7	-38.0	203	16
2023-08-05T00:00	6492	449	-20.7	-31.8	201	16
2023-08-05T00:00	6513	448	-20.8		201	16
2023-08-05T00:00	6537	446	-20.8	-31.0	200	17
2023-08-05T00:00	6572	445	-21.0	-31.1	200	17
2023-08-05T00:00	6595	443	-21.1	-30.0	200	18
2023-08-05T00:00	6616	442	-21.0	-28.8	201	19
2023-08-05T00:00	6638	440	-20.9	-28.5	202	19
2023-08-05T00:00	6670	438	-21.0	-28.6	203	18
2023-08-05T00:00	6705	437	-21.2	-28.5	205	18
2023-08-05T00:00	6732	435	-21.5	-28.5	206	18
2023-08-05T00:00	6752	434	-21.7	-28.7	208	18
2023-08-05T00:00	6773	432	-21.8		208	18
2023-08-05T00:00	6793	431	-22.0	-28.6	207	18
2023-08-05T00:00	6824	429	-22.3	-28.9	207	18
2023-08-05T00:00	6854	428	-22.4	-29.7	207	18
2023-08-05T00:00	6886	426	-22.5	-30.0	208	18
2023-08-05T00:00	6907	425	-22.7	-30.1	209	19
2023-08-05T00:00	6930	423	-22.9	-30.2	211	19
2023-08-05T00:00	6949	422	-23.0	-30.1	212	19
2023-08-05T00:00	6975	421	-23.2	-29.8	214	19
2023-08-05T00:00	7005	419	-23.4	-30.1	215	19
2023-08-05T00:00	7035	417	-23.7	-30.0	216	19
2023-08-05T00:00	7075	415	-24.0	-30.3	217	20
2023-08-05T00:00	7095	414	-24.2	-30.6	218	20
2023-08-05T00:00	7114	413	-24.3	-31.0	219	20
2023-08-05T00:00	7134	412	-24.5	-30.9	220	20
2023-08-05T00:00	7159	410	-24.6	-30.7	221	21
2023-08-05T00:00	7191	408	-24.8	-30.7	222	21
2023-08-05T00:00	7221	407	-25.0	-30.9	222	22
2023-08-05T00:00	7249	405	-25.1	-31.5	222	22
2023-08-05T00:00	7277	404	-25.3	-32.1	221	22
2023-08-05T00:00	7309	402	-25.5	-32.3	219	23
2023-08-05T00:00	7340	400	-25.7	-32.3	218	23
2023-08-05T00:00	7373	398	-25.8	-32.0	217	23
2023-08-05T00:00	7400	397	-25.9	-32.2	218	24
2023-08-05T00:00	7423	396	-25.9	-32.3	219	25
2023-08-05T00:00	7446	394	-26.0	-32.4	220	26
2023-08-05T00:00	7474	393	-26.2	-32.8	221	27
2023-08-05T00:00	7505	391	-26.2	-32.8	221	28
2023-08-05T00:00	7528	390	-26.2	-32.8	222	29
2023-08-05T00:00	7553	388	-26.3	-32.7	222	30
2023-08-05T00:00	7585	387	-26.4	-32.6	222	31
2023-08-05T00:00	7619	385	-26.5	-32.4	222	32
2023-08-05T00:00	7648	383	-26.6	-32.5	221	32
2023-08-05T00:00	7678	382	-26.6	-32.6	221	32
2023-08-05T00:00	7701	381	-26.5	-32.5	221	33
2023-08-05T00:00	7730	379	-26.6	-32.6	221	33
2023-08-05T00:00	7765	377	-26.8	-33.0	221	33
2023-08-05T00:00	7791	376	-26.9	-32.9	221	34
2023-08-05T00:00	7817	375	-27.2	-33.1	220	34
2023-08-05T00:00	7836	373	-27.3	-33.0	219	34
2023-08-05T00:00	7863	372	-27.5	-32.9	218	35
2023-08-05T00:00	7891	371	-27.6	-32.7	217	35
2023-08-05T00:00	7923	369	-27.9	-32.8	215	35
2023-08-05T00:00	7951	367	-28.1	-32.6	214	35
2023-08-05T00:00	7997	365	-28.5	-32.6	214	35
2023-08-05T00:00	8027	364	-28.8	-32.8	214	36
2023-08-05T00:00	8054	362	-29.1	-32.7	214	36
2023-08-05T00:00	8078	361	-29.3	-32.8	215	36
2023-08-05T00:00	8106	360	-29.6	-32.8	216	36
2023-08-05T00:00	8137	358	-29.8	-32.6	216	36
2023-08-05T00:00	8170	357	-30.1	-32.9	217	36
2023-08-05T00:00	8199	355	-30.3	-33.0	218	37
2023-08-05T00:00	8229	354	-30.5	-33.1	218	37
2023-08-05T00:00	8262	352	-30.8	-33.4	219	37
2023-08-05T00:00	8293	350	-31.0	-33.7	219	37
2023-08-05T00:00	8328	349	-31.2	-34.3	219	37
2023-08-05T00:00	8358	347	-31.5	-34.7	219	37
2023-08-05T00:00	8388	346	-31.7	-34.8	219	37
2023-08-05T00:00	8415	344	-31.9	-35.0	219	38
2023-08-05T00:00	8445	343	-32.1	-35.0	219	38
2023-08-05T00:00	8476	341	-32.3	-35.0	219	39
2023-08-05T00:00	8507	340	-32.6	-35.1	220	40
2023-08-05T00:00	8536	339	-32.8	-35.1	221	40
2023-08-05T00:00	8564	337	-33.0	-35.2	221	40
2023-08-05T00:00	8599	336	-33.3	-35.3	221	41
2023-08-05T00:00	8629	334	-33.3	-35.3	221	41
2023-08-05T00:00	8656	333	-33.5	-35.3	220	42
2023-08-05T00:00	8685	332	-33.8	-35.5	220	42
2023-08-05T00:00	8702	331	-33.8	-36.0	219	43
2023-08-05T00:00	8722	330	-33.9	-36.1	219	43
2023-08-05T00:00	8744	329	-33.9	-36.1	218	44
2023-08-05T00:00	8766	328	-34.0	-36.2	218	44
2023-08-05T00:00	8790	327	-34.1	-36.4	218	44
2023-08-05T00:00	8811	326	-34.2	-36.4	218	45
2023-08-05T00:00	8831	325	-34.3	-36.4	218	45
2023-08-05T00:00	8852	324	-34.5	-36.5	218	45
2023-08-05T00:00	8872	323	-34.6	-36.5	218	45
2023-08-05T00:00	8898	322	-34.9	-36.6	218	46
2023-08-05T00:00	8928	320	-35.1	-36.3	217	46
2023-08-05T00:00	8963	319	-35.4	-36.5	217	46
2023-08-05T00:00	8996	317	-35.7	-36.9	217	47
2023-08-05T00:00	9017	316	-35.9	-37.0	217	47
2023-08-05T00:00	9037	315	-36.0	-36.8	217	47
2023-08-05T00:00	9060	314	-36.2	-36.8	217	47
2023-08-05T00:00	9081	313	-36.4	-37.0	217	47
2023-08-05T00:00	9109	312	-36.5	-38.0	217	48
2023-08-05T00:00	9138	311	-36.7	-38.4	217	48
2023-08-05T00:00	9170	309	-36.8	-38.5	217	49
2023-08-05T00:00	9199	308	-37.0	-38.4	217	49
2023-08-05T00:00	9226	307	-37.2	-38.6	217	49
2023-08-05T00:00	9248	306	-37.2	-39.0	217	49
2023-08-05T00:00	9269	305	-37.4	-39.7	217	49
2023-08-05T00:00	9293	304	-37.4	-40.4	217	49
2023-08-05T00:00	9320	303	-37.6	-40.5	217	49
2023-08-05T00:00	9344	302	-37.7	-40.6	217	49
2023-08-05T00:00	9367	301	-37.9	-40.9	218	49
2023-08-05T00:00	9389	300	-38.1	-41.1	218	49
2023-08-05T00:00	9413	298	-38.3	-41.4	218	49
2023-08-05T00:00	9440	297	-38.4	-41.6	217	49
2023-08-05T00:00	9466	296	-38.5	-42.0	217	49
2023-08-05T00:00	9490	295	-38.7	-42.1	217	49
2023-08-05T00:00	9513	294	-38.9	-42.3	217	49
2023-08-05T00:00	9535	293	-39.1	-42.5	217	49
2023-08-05T00:00	9555	292	-39.3	-42.7	216	49
2023-08-05T00:00	9578	291	-39.4	-42.8	216	49
2023-08-05T00:00	9598	291	-39.6		216	49
2023-08-05T00:00	9618	290	-39.7	-43.8	216	50
2023-08-05T00:00	9640	289	-39.9	-43.9	216	50
2023-08-05T00:00	9663	288	-40.1	-44.1	216	50
2023-08-05T00:00	9685	287	-40.3	-44.2	216	50
2023-08-05T00:00	9707	286	-40.5	-44.2	216	50
2023-08-05T00:00	9730	285	-40.7	-44.3	216	50
2023-08-05T00:00	9754	284	-40.9	-44.4	216	50
2023-08-05T00:00	9782	283	-41.1	-45.2	215	50
2023-08-05T00:00	9811	282	-41.4	-46.0	215	50
2023-08-05T00:00	9839	280	-41.7	-45.7	215	50
2023-08-05T00:00	9861	280	-41.9	-45.7	215	50
2023-08-05T00:00	9884	279	-42.1	-46.4	215	50
2023-08-05T00:00	9904	278	-42.3	-47.3	215	50
2023-08-05T00:00	9925	277	-42.5	-47.5	215	51
2023-08-05T00:00	9943	276	-42.6	-47.4	215	51
2023-08-05T00:00	9965	275	-42.7	-47.8	214	51
2023-08-05T00:00	9988	274	-42.9	-49.1	214	51
2023-08-05T00:00	10009	273	-43.0	-49.6	214	51
2023-08-05T00:00	10031	273	-43.2	-49.5	214	51
2023-08-05T00:00	10052	272	-43.3	-49.4	214	51
2023-08-05T00:00	10076	271	-43.5	-49.4	214	51
2023-08-05T00:00	10103	270	-43.7	-49.3	214	51
2023-08-05T00:00	10128	269	-44.0	-49.5	214	51
2023-08-05T00:00	10151	268	-44.2	-49.6	214	51
2023-08-05T00:00	10171	267	-44.4	-49.5	214	51
2023-08-05T00:00	10191	266	-44.6	-49.6	214	51
2023-08-05T00:00	10212	265	-44.8	-49.6	214	51
2023-08-05T00:00	10235	264	-45.0	-49.8	214	52
2023-08-05T00:00	10264	263	-45.2	-50.2	213	52
2023-08-05T00:00	10292	262	-45.4	-50.7	213	52
2023-08-05T00:00	10319	261	-45.7	-51.2	213	52
2023-08-05T00:00	10341	260	-45.8	-52.1	213	52
2023-08-05T00:00	10362	259	-45.9	-52.5	213	51
2023-08-05T00:00	10386	258	-46.0	-52.1	213	51
2023-08-05T00:00	10417	257	-46.2	-52.0	213	51
2023-08-05T00:00	10449	256	-46.2	-52.0	212	51
2023-08-05T00:00	10479	255	-46.6	-52.2	212	52
2023-08-05T00:00	10510	254	-46.8	-52.1	211	53
2023-08-05T00:00	10542	253	-47.1	-52.2	211	53
2023-08-05T00:00	10569	251	-47.4	-52.3	211	54
2023-08-05T00:00	10598	250	-47.7	-52.2	211	54
2023-08-05T00:00	10624	249	-47.9	-52.2	210	53
2023-08-05T00:00	10657	248	-48.1	-52.1	210	53
2023-08-05T00:00	10704	246	-48.6	-52.3	209	53
2023-08-05T00:00	10738	245	-48.9	-52.6	209	53
2023-08-05T00:00	10767	244	-49.2	-52.5	209	53
2023-08-05T00:00	10798	243	-49.5	-52.5	210	54
2023-08-05T00:00	10820	242	-49.7	-52.6	210	54
2023-08-05T00:00	10844	241	-49.9	-52.7	210	54
2023-08-05T00:00	10874	240	-50.2	-53.2	209	53
2023-08-05T00:00	10906	239	-50.5	-53.5	209	53
2023-08-05T00:00	10929	238	-50.7	-53.8	208	53
2023-08-05T00:00	10952	237	-50.9	-54.2	208	53
2023-08-05T00:00	10978	236	-51.1	-54.6	207	53
2023-08-05T00:00	11004	235	-51.4	-55.0	207	53
2023-08-05T00:00	11030	234	-51.6	-55.5	207	53
2023-08-05T00:00	11054	233	-51.8	-55.9	207	53
2023-08-05T00:00	11081	233	-52.1	-56.1	207	53
2023-08-05T00:00	11108	232	-52.3	-56.2	207	53
2023-08-05T00:00	11137	231	-52.6	-56.5	207	53
2023-08-05T00:00	11166	230	-52.9	-56.7	208	53
2023-08-05T00:00	11193	229	-53.1	-56.9	209	54
2023-08-05T00:00	11222	227	-53.4	-57.2	210	54
2023-08-05T00:00	11259	226	-53.7	-57.5	210	54
2023-08-05T00:00	11284	225	-53.8	-57.7	211	53
2023-08-05T00:00	11312	224	-54.0	-58.0	211	53
2023-08-05T00:00	11344	223	-54.3	-58.3	211	53
2023-08-05T00:00	11363	223	-54.5	-58.4	211	53
2023-08-05T00:00	11388	222	-54.7	-58.7	211	54
2023-08-05T00:00	11410	221	-54.9	-58.9	211	54
2023-08-05T00:00	11436	220	-55.1	-59.0	211	55
2023-08-05T00:00	11456	219	-55.3	-59.3	211	55
2023-08-05T00:00	11477	219	-55.4	-59.5	212	56
2023-08-05T00:00	11500	218	-55.6	-59.6	212	56
2023-08-05T00:00	11522	217	-55.8	-59.5	213	56
2023-08-05T00:00	11546	216	-55.4	-59.0	214	56
2023-08-05T00:00	11570	215	-54.5	-58.7	215	56
2023-08-05T00:00	11599	214	-54.4	-59.8	216	56
2023-08-05T00:00	11634	213	-54.2	-61.1	217	55
2023-08-05T00:00	11661	212	-54.2	-62.3	218	54
2023-08-05T00:00	11690	211	-54.2	-63.0	219	53
2023-08-05T00:00	11719	210	-54.4	-63.3	220	51
2023-08-05T00:00	11748	210	-54.6	-63.3	220	49
2023-08-05T00:00	11776	209	-54.8	-63.5	221	47
2023-08-05T00:00	11812	208	-54.8	-64.0	220	45
2023-08-05T00:00	11842	206	-54.7	-65.3	220	42
2023-08-05T00:00	11872	206	-54.6	-67.8	220	40
2023-08-05T00:00	11899	205	-53.8	-71.2	221	39
2023-08-05T00:00	11921	204	-53.2	-75.0	222	37
2023-08-05T00:00	11960	203	-50.6	-76.6	224	36
2023-08-05T00:00	11985	202	-49.8	-77.6	225	34
2023-08-05T00:00	12018	201	-49.0	-77.0	225	34
2023-08-05T00:00	12042	200	-48.7	-76.2	225	33
2023-08-05T00:00	12072	199	-48.6	-75.8	224	32
2023-08-05T00:00	12096	199	-48.7	-75.9	223	31
2023-08-05T00:00	12124	198	-48.7	-75.9	222	30
2023-08-05T00:00	12143	197	-48.8	-76.0	222	29
2023-08-05T00:00	12162	197	-48.8	-76.2	223	28
2023-08-05T00:00	12187	196	-48.6	-76.7	223	27
2023-08-05T00:00	12210	195	-48.4	-77.2	222	26
2023-08-05T00:00	12232	194	-48.3	-77.5	221	26
2023-08-05T00:00	12263	194	-48.2	-77.4	220	25
2023-08-05T00:00	12283	193	-48.2	-77.4	218	25
2023-08-05T00:00	12305	192	-48.4	-77.6	216	25
2023-08-05T00:00	12326	192	-48.4	-77.9	213	25
2023-08-05T00:00	12348	191	-48.1	-77.7	212	25
2023-08-05T00:00	12369	191	-48.1	-77.7	210	25
2023-08-05T00:00	12389	190	-47.9	-78.0	208	25
2023-08-05T00:00	12410	189	-47.8	-77.9	207	25
2023-08-05T00:00	12433	189	-47.8	-77.9	206	25
2023-08-05T00:00	12451	188	-47.8	-77.9	206	25
2023-08-05T00:00	12472	188	-47.6	-78.2	205	26
2023-08-05T00:00	12491	187	-47.4	-78.0	205	26
2023-08-05T00:00	12511	186	-47.5	-78.1	204	26
2023-08-05T00:00	12532	186	-47.5	-78.1	203	26
2023-08-05T00:00	12553	185	-47.6	-78.2	203	26
2023-08-05T00:00	12574	185	-47.7	-78.2	202	27
2023-08-05T00:00	12595	184	-47.6	-78.2	200	27
2023-08-05T00:00	12617	184	-47.5	-78.1	199	27
2023-08-05T00:00	12637	183	-47.5	-78.1	198	27
2023-08-05T00:00	12659	182	-47.3	-77.9	197	28
2023-08-05T00:00	12679	182	-47.3	-77.9	196	28
2023-08-05T00:00	12700	181	-47.4	-77.6	195	28
2023-08-05T00:00	12722	181	-47.6	-77.7	194	28
2023-08-05T00:00	12743	180	-47.7	-77.8	193	28
2023-08-05T00:00	12764	179	-47.8	-77.9	193	29
2023-08-05T00:00	12786	179	-47.9	-78.0	193	29
2023-08-05T00:00	12806	178	-48.0	-78.5	193	30
2023-08-05T00:00	12828	178	-48.0	-78.5	194	30
2023-08-05T00:00	12848	177	-47.9	-78.4	194	31
2023-08-05T00:00	12871	177	-48.0	-78.5	195	31
2023-08-05T00:00	12892	176	-47.9	-78.4	195	31
2023-08-05T00:00	12913	175	-47.7	-78.2	196	31
2023-08-05T00:00	12935	175	-47.6	-78.2	197	32
2023-08-05T00:00	12955	174	-47.7	-78.2	198	32
2023-08-05T00:00	12977	174	-47.8	-78.8	199	32
2023-08-05T00:00	12996	173	-47.9	-78.8	200	32
2023-08-05T00:00	13020	173	-48.0	-78.9	200	32
2023-08-05T00:00	13042	172	-48.1	-79.0	201	32
2023-08-05T00:00	13061	172	-48.3	-78.7	202	32
2023-08-05T00:00	13082	171	-48.5	-78.8	203	32
2023-08-05T00:00	13102	170	-48.6	-78.9	203	32
2023-08-05T00:00	13124	170	-48.7	-79.0	204	31
2023-08-05T00:00	13143	169	-48.8	-79.1	205	31
2023-08-05T00:00	13164	169	-48.7	-79.0	206	31
2023-08-05T00:00	13185	168	-48.6	-78.9	207	30
2023-08-05T00:00	13208	168	-48.6	-79.4	207	30
2023-08-05T00:00	13232	167	-48.6	-79.4	208	30
2023-08-05T00:00	13250	167	-48.5	-79.3	209	29
2023-08-05T00:00	13270	166	-48.5	-79.3	209	29
2023-08-05T00:00	13290	166	-48.6	-79.4	210	29
2023-08-05T00:00	13311	165	-48.8	-79.5	211	29
2023-08-05T00:00	13332	165	-48.9	-79.6	212	29
2023-08-05T00:00	13354	164	-48.9	-79.6	212	29
2023-08-05T00:00	13375	164	-48.9	-79.6	213	28
2023-08-05T00:00	13396	163	-48.7	-79.4	213	28
2023-08-05T00:00	13417	163	-48.6	-79.4	213	28
2023-08-05T00:00	13438	162	-48.3	-79.1	212	28
2023-08-05T00:00	13460	161	-48.4	-79.2	212	28
2023-08-05T00:00	13480	161	-48.4	-79.2	212	28
2023-08-05T00:00	13503	160	-48.3	-79.1	211	28
2023-08-05T00:00	13523	160	-48.2	-79.1	211	29
2023-08-05T00:00	13547	159	-48.4	-79.2	210	29
2023-08-05T00:00	13570	159	-48.4	-79.2	209	29
2023-08-05T00:00	13589	158	-48.4	-79.2	208	30
2023-08-05T00:00	13614	158	-48.3	-79.1	207	30
2023-08-05T00:00	13636	157	-48.2	-79.1	206	30
2023-08-05T00:00	13662	157	-48.4	-79.2	205	31
2023-08-05T00:00	13686	156	-48.6	-79.4	204	31
2023-08-05T00:00	13714	155	-48.8	-79.5	204	32
2023-08-05T00:00	13735	155	-49.0	-79.2	203	32
2023-08-05T00:00	13756	154	-49.1	-79.3	203	33
2023-08-05T00:00	13778	154	-49.0	-79.2	203	33
2023-08-05T00:00	13798	153	-49.0	-78.8	204	33
2023-08-05T00:00	13821	153	-49.1	-78.9	204	34
2023-08-05T00:00	13842	152	-49.3	-79.0	205	34
2023-08-05T00:00	13863	152	-49.4	-78.7	205	34
2023-08-05T00:00	13884	151	-49.6	-78.8	205	34
2023-08-05T00:00	13905	151	-49.8	-78.6	205	34
2023-08-05T00:00	13927	150	-50.0	-78.8	206	34
2023-08-05T00:00	13948	150	-50.2	-78.9	206	35
2023-08-05T00:00	13969	149	-50.4	-79.1	206	35
2023-08-05T00:00	13991	149	-50.6	-79.2	207	35
2023-08-05T00:00	14012	148	-50.7	-79.3	207	35
2023-08-05T00:00	14034	148	-50.9	-79.1	208	35
2023-08-05T00:00	14056	147	-51.1	-78.9	209	35
2023-08-05T00:00	14078	147	-51.0	-78.9	210	34
2023-08-05T00:00	14101	146	-50.4	-78.7	211	34
2023-08-05T00:00	14120	146	-50.3	-78.7	211	33
2023-08-05T00:00	14142	146	-50.3	-78.7	212	32
2023-08-05T00:00	14163	145	-50.3	-79.0	213	31
2023-08-05T00:00	14184	145	-50.1	-79.2	214	30
2023-08-05T00:00	14205	144	-49.8	-79.4	215	28
2023-08-05T00:00	14227	144	-49.7	-79.3	216	28
2023-08-05T00:00	14252	143	-49.5	-79.6	217	27
2023-08-05T00:00	14272	143	-49.5	-79.6	217	26
2023-08-05T00:00	14293	142	-49.5	-79.6	217	26
2023-08-05T00:00	14313	142	-49.5	-80.0	217	26
2023-08-05T00:00	14334	141	-49.5	-80.0	216	26
2023-08-05T00:00	14355	141	-49.0	-79.7	215	26
2023-08-05T00:00	14374	140	-49.0	-79.7	215	26
2023-08-05T00:00	14395	140	-48.9	-79.1	214	27
2023-08-05T00:00	14414	140	-48.7	-79.0	213	27
2023-08-05T00:00	14435	139	-48.8	-79.1	212	27
2023-08-05T00:00	14456	139	-48.9	-78.7	212	27
2023-08-05T00:00	14474	138	-49.1	-78.9	212	27
2023-08-05T00:00	14495	138	-49.1	-78.9	213	26
2023-08-05T00:00	14519	137	-48.6	-78.5	213	26
2023-08-05T00:00	14540	137	-48.4	-78.3	214	25
2023-08-05T00:00	14562	136	-48.5	-78.4	215	25
2023-08-05T00:00	14582	136	-48.7	-78.6	215	24
2023-08-05T00:00	14603	136	-48.9	-78.7	216	24
2023-08-05T00:00	14624	135	-49.0	-78.8	216	23
2023-08-05T00:00	14648	135	-49.2	-78.9	216	23
2023-08-05T00:00	14671	134	-49.4	-79.1	216	22
2023-08-05T00:00	14692	134	-49.6	-79.2	217	22
2023-08-05T00:00	14717	133	-49.7	-78.9	217	21
2023-08-05T00:00	14737	133	-49.9	-79.5	217	20
2023-08-05T00:00	14760	132	-50.1	-79.6	217	20
2023-08-05T00:00	14781	132	-50.2	-79.7	217	19
2023-08-05T00:00	14799	132	-50.4	-79.8	216	19
2023-08-05T00:00	14822	131	-50.5	-79.9	216	18
2023-08-05T00:00	14843	131	-50.5	-79.9	215	17
2023-08-05T00:00	14864	130	-50.4	-79.8	213	17
2023-08-05T00:00	14886	130	-50.1	-79.6	211	17
2023-08-05T00:00	14906	130	-49.8	-79.4	210	17
2023-08-05T00:00	14925	129	-49.6	-79.7	209	17
2023-08-05T00:00	14945	129	-49.7	-79.7	208	18
2023-08-05T00:00	14965	128	-49.8	-79.8	208	18
2023-08-05T00:00	14985	128	-49.9	-79.9	208	19
2023-08-05T00:00	15005	128	-50.0	-79.5	207	19
2023-08-05T00:00	15027	127	-50.1	-79.6	207	20
2023-08-05T00:00	15049	127	-50.2	-80.1	207	20
2023-08-05T00:00	15069	126	-50.3	-80.2	207	21
2023-08-05T00:00	15094	126	-50.4	-80.3	208	21
2023-08-05T00:00	15115	125	-50.3	-80.2	209	22
2023-08-05T00:00	15138	125	-50.5	-80.3	209	22
2023-08-05T00:00	15161	125	-50.6	-80.4	210	23
2023-08-05T00:00	15182	124	-50.7	-80.5	211	23
2023-08-05T00:00	15206	124	-50.8	-80.6	212	24
2023-08-05T00:00	15224	123	-50.8	-81.0	213	24
2023-08-05T00:00	15248	123	-50.6	-80.9	214	24
2023-08-05T00:00	15269	122	-50.7	-80.9	215	24
2023-08-05T00:00	15292	122	-50.5	-80.8	216	24
2023-08-05T00:00	15314	122	-50.5	-80.8	217	24
2023-08-05T00:00	15334	121	-50.4	-80.7	217	24
2023-08-05T00:00	15356	121	-50.5	-80.8	218	24
2023-08-05T00:00	15378	120	-50.6	-80.9	218	24
2023-08-05T00:00	15401	120	-50.7	-80.9	218	23
2023-08-05T00:00	15423	120	-50.9	-81.6	218	22
2023-08-05T00:00	15445	119	-50.6	-81.3	218	21
2023-08-05T00:00	15465	119	-50.2	-81.0	218	20
2023-08-05T00:00	15490	118	-50.0	-80.9	217	20
2023-08-05T00:00	15513	118	-50.2	-81.0	215	19
2023-08-05T00:00	15534	118	-50.4	-81.2	214	19
2023-08-05T00:00	15559	117	-50.6	-81.3	212	19
2023-08-05T00:00	15583	117	-50.8	-81.5	210	18
2023-08-05T00:00	15611	116	-50.9	-81.6	207	18
2023-08-05T00:00	15642	116	-50.7	-81.4	204	17
2023-08-05T00:00	15671	115	-50.7	-81.4	200	18
2023-08-05T00:00	15699	115	-50.7	-81.4	197	18
2023-08-05T00:00	15725	114	-50.9	-81.6	194	18
2023-08-05T00:00	15749	114	-51.0	-81.6	192	18
2023-08-05T00:00	15769	113	-51.0	-81.6	191	19
2023-08-05T00:00	15791	113	-50.7	-81.4	191	19
2023-08-05T00:00	15811	113	-50.9	-81.6	192	19
2023-08-05T00:00	15830	112	-50.8	-81.5	192	19
2023-08-05T00:00	15852	112	-50.7	-81.4	193	19
2023-08-05T00:00	15875	112	-50.7	-81.4	193	19
2023-08-05T00:00	15897	111	-50.9	-81.6	194	20
2023-08-05T00:00	15918	111	-51.0	-81.6	194	20
2023-08-05T00:00	15939	111	-51.1	-81.7	193	20
2023-08-05T00:00	15960	110	-51.3	-81.9	193	21
2023-08-05T00:00	15982	110	-51.5	-82.0	193	21
2023-08-05T00:00	16003	109	-51.7	-81.7	194	21
2023-08-05T00:00	16022	109	-51.9	-81.8	194	21
2023-08-05T00:00	16042	109	-52.0	-81.9	195	22
2023-08-05T00:00	16061	108	-52.2	-82.1	196	22
2023-08-05T00:00	16079	108	-52.3	-82.1	197	22
2023-08-05T00:00	16096	108	-52.4	-82.2	198	22
2023-08-05T00:00	16116	108	-52.5	-82.3	199	22
2023-08-05T00:00	16135	107	-52.6	-82.4	200	22
2023-08-05T00:00	16154	107	-52.8	-82.5	201	22
2023-08-05T00:00	16173	107	-52.8	-82.5	201	21
2023-08-05T00:00	16192	106	-52.9	-82.6	201	21
2023-08-05T00:00	16212	106	-53.0	-82.7	201	21
2023-08-05T00:00	16232	106	-53.1	-82.7	201	20
2023-08-05T00:00	16251	105	-53.0	-82.7	201	20
2023-08-05T00:00	16268	105	-53.0	-82.7	200	20
2023-08-05T00:00	16286	105	-53.1	-82.7	200	20
2023-08-05T00:00	16303	104	-53.2	-82.8	199	20
2023-08-05T00:00	16324	104	-53.1	-82.7	199	20
2023-08-05T00:00	16340	104	-52.9	-82.6	198	20
2023-08-05T00:00	16358	104	-52.6	-82.4	198	20
2023-08-05T00:00	16378	103	-52.5	-82.8	198	20
2023-08-05T00:00	16395	103	-52.2	-82.5	199	19
2023-08-05T00:00	16413	103	-52.0	-82.4	201	19
2023-08-05T00:00	16434	102	-52.0	-82.4	203	18
2023-08-05T00:00	16454	102	-52.1	-82.5	206	18
2023-08-05T00:00	16476	102	-52.1	-82.5	209	17
2023-08-05T00:00	16496	101	-52.1	-82.5	212	17
2023-08-05T00:00	16517	101	-52.0	-82.4	214	16
2023-08-05T00:00	16537	101	-51.8	-82.2	216	16
2023-08-05T00:00	16561	100	-51.8	-82.2	218	16
2023-08-05T00:00	16584	100	-52.0	-82.4	220	16
2023-08-05T00:00	16606	100	-52.1	-82.5	222	15
2023-08-05T00:00	16631	99	-52.3	-82.6	224	15
2023-08-05T00:00	16653	99	-52.3	-82.6	226	15
2023-08-05T00:00	16677	99	-52.5	-82.3	228	15
2023-08-05T00:00	16698	98	-52.6	-82.4	230	15
2023-08-05T00:00	16722	98	-52.8	-82.5	231	14
2023-08-05T00:00	16745	98	-52.9	-82.6	232	14
2023-08-05T00:00	16768	97	-53.0	-82.7	231	13
2023-08-05T00:00	16790	97	-52.9	-82.6	230	13
2023-08-05T00:00	16811	97	-53.1	-82.7	227	12
2023-08-05T00:00	16836	96	-53.2	-82.8	225	11
2023-08-05T00:00	16858	96	-53.2	-82.8	222	10
2023-08-05T00:00	16882	96	-53.2	-82.8	218	10
2023-08-05T00:00	16905	95	-53.1	-82.7	216	9
2023-08-05T00:00	16928	95	-53.1	-82.7	213	9
2023-08-05T00:00	16951	94	-53.2	-82.8	209	9
2023-08-05T00:00	16973	94	-53.3	-82.9	205	9
2023-08-05T00:00	16999	94	-53.5	-83.0	201	10
2023-08-05T00:00	17022	93	-53.7	-83.2	198	10
2023-08-05T00:00	17044	93	-53.7	-83.2	196	11
2023-08-05T00:00	17066	93	-53.8	-83.3	196	11
2023-08-05T00:00	17087	92	-53.8	-83.3	196	11
2023-08-05T00:00	17110	92	-53.9	-83.3	198	11
2023-08-05T00:00	17131	92	-53.9	-83.3	199	11
2023-08-05T00:00	17154	92	-54.0	-83.4	200	11
2023-08-05T00:00	17177	91	-54.1	-83.5	199	12
2023-08-05T00:00	17198	91	-54.1	-83.5	198	12
2023-08-05T00:00	17222	91	-54.2	-83.6	197	12
2023-08-05T00:00	17243	90	-54.3	-83.6	195	13
2023-08-05T00:00	17264	90	-54.1	-83.5	195	14
2023-08-05T00:00	17285	90	-54.0	-83.4	195	14
2023-08-05T00:00	17307	89	-54.1	-83.5	196	15
2023-08-05T00:00	17328	89	-54.2	-83.6	197	15
2023-08-05T00:00	17350	89	-54.2	-84.0	199	16
2023-08-05T00:00	17370	89	-53.9	-83.8	201	16
2023-08-05T00:00	17391	88	-53.8	-83.7	204	16
2023-08-05T00:00	17412	88	-53.7	-83.7	206	17
2023-08-05T00:00	17432	88	-53.5	-84.0	207	17
2023-08-05T00:00	17453	87	-53.0	-83.6	209	17
2023-08-05T00:00	17473	87	-52.7	-83.4	211	16
2023-08-05T00:00	17493	87	-52.7	-83.4	213	16
2023-08-05T00:00	17516	87	-52.6	-83.3	214	16
2023-08-05T00:00	17534	86	-52.2	-83.1	216	16
2023-08-05T00:00	17557	86	-52.1	-83.0	218	16
2023-08-05T00:00	17577	86	-52.2	-83.1	221	16
2023-08-05T00:00	17599	85	-52.3	-83.1	224	17
2023-08-05T00:00	17622	85	-52.3	-83.7	227	17
2023-08-05T00:00	17643	85	-52.2	-83.6	230	17
2023-08-05T00:00	17664	85	-52.1	-83.5	232	16
2023-08-05T00:00	17686	84	-50.9	-83.3	233	16
2023-08-05T00:00	17709	84	-49.9	-82.5	234	16
2023-08-05T00:00	17731	84	-49.4	-82.9	233	15
2023-08-05T00:00	17752	83	-49.3	-82.8	232	14
2023-08-05T00:00	17773	83	-49.3	-82.1	231	14
2023-08-05T00:00	17796	83	-49.4	-82.2	231	14
2023-08-05T00:00	17821	83	-49.6	-82.3	230	14
2023-08-05T00:00	17843	82	-49.6	-82.3	229	14
2023-08-05T00:00	17862	82	-49.8	-81.8	229	13
2023-08-05T00:00	17883	82	-50.0	-82.0	228	13
2023-08-05T00:00	17905	82	-50.1	-82.1	228	13
2023-08-05T00:00	17927	81	-50.3	-82.2	228	13
2023-08-05T00:00	17948	81	-50.5		229	13
2023-08-05T00:00	17968	81	-50.7		231	13
2023-08-05T00:00	17992	80	-50.9	-82.1	233	12
2023-08-05T00:00	18018	80	-51.1	-82.2	235	12
2023-08-05T00:00	18037	80	-51.3	-82.4	237	11
2023-08-05T00:00	18057	80	-51.3	-82.4	239	11
2023-08-05T00:00	18079	79	-51.3	-82.9	240	10
2023-08-05T00:00	18100	79	-51.3	-82.9	241	9
2023-08-05T00:00	18120	79	-51.2	-82.9	240	8
2023-08-05T00:00	18141	79	-51.1	-82.8	238	8
2023-08-05T00:00	18163	78	-51.0	-82.7	234	7
2023-08-05T00:00	18185	78	-51.2	-82.9	228	7
2023-08-05T00:00	18206	78	-51.3	-82.9	222	6
2023-08-05T00:00	18228	78	-51.2	-82.9	216	7
2023-08-05T00:00	18254	77	-51.2	-82.9	212	7
2023-08-05T00:00	18274	77	-51.4	-82.5	209	7
2023-08-05T00:00	18297	77	-51.5	-82.5	207	7
2023-08-05T00:00	18320	76	-51.7	-82.7	205	7
2023-08-05T00:00	18342	76	-51.9	-82.8	202	8
2023-08-05T00:00	18363	76	-52.0	-82.9	200	8
2023-08-05T00:00	18384	76	-52.2	-83.1	199	8
2023-08-05T00:00	18406	75	-52.4	-83.2	198	8
2023-08-05T00:00	18427	75	-52.5	-83.3	198	9
2023-08-05T00:00	18449	75	-52.7	-83.4	199	8
2023-08-05T00:00	18469	75	-52.3	-83.1	201	8
2023-08-05T00:00	18491	74	-52.2	-83.1	203	8
2023-08-05T00:00	18512	74	-52.4	-83.2	205	8
2023-08-05T00:00	18533	74	-52.5	-83.3	207	8
2023-08-05T00:00	18554	74	-52.3	-83.1	208	9
2023-08-05T00:00	18580	73	-52.3	-83.1	208	9
2023-08-05T00:00	18601	73	-52.4	-83.2	209	9
2023-08-05T00:00	18622	73	-52.5	-83.3	210	9
2023-08-05T00:00	18645	73	-52.7	-83.4	211	10
2023-08-05T00:00	18670	72	-52.8	-83.5	212	10
2023-08-05T00:00	18694	72	-52.8	-83.5	213	10
2023-08-05T00:00	18716	72	-52.8	-83.5	213	10
2023-08-05T00:00	18740	72	-53.0	-83.6	214	10
2023-08-05T00:00	18763	71	-53.2	-83.8	214	10
2023-08-05T00:00	18784	71	-53.2	-83.8	214	10
2023-08-05T00:00	18810	71	-53.2	-83.8	214	9
2023-08-05T00:00	18834	71	-53.3	-83.9	213	9
2023-08-05T00:00	18857	70	-53.4	-83.9	211	9
2023-08-05T00:00	18879	70	-53.4	-83.9	208	9
2023-08-05T00:00	18904	70	-53.6	-84.1	203	8
2023-08-05T00:00	18927	70	-53.3	-83.9	196	8
2023-08-05T00:00	18952	69	-53.1	-84.3	189	8
2023-08-05T00:00	18976	69	-52.7	-84.0	182	8
2023-08-05T00:00	19000	69	-52.0	-83.5	177	8
2023-08-05T00:00	19026	69	-51.7	-83.9	173	9
2023-08-05T00:00	19050	68	-51.6	-83.8	173	9
2023-08-05T00:00	19074	68	-51.6	-83.8	175	9
2023-08-05T00:00	19098	68	-51.2	-83.5	179	9
2023-08-05T00:00	19131	67	-51.3	-82.9	184	9
2023-08-05T00:00	19156	67	-51.4	-83.0	190	10
2023-08-05T00:00	19178	67	-51.5	-83.1	194	10
2023-08-05T00:00	19200	67	-51.6	-83.2	198	10
2023-08-05T00:00	19225	66	-51.7	-83.2	201	11
2023-08-05T00:00	19246	66	-51.5	-83.1	203	11
2023-08-05T00:00	19271	66	-51.3	-83.6	205	10
2023-08-05T00:00	19291	66	-50.9	-83.3	206	10
2023-08-05T00:00	19316	66	-50.4	-82.9	208	10
2023-08-05T00:00	19340	65	-50.2	-82.8	208	10
2023-08-05T00:00	19364	65	-50.2	-82.8	209	10
2023-08-05T00:00	19385	65	-50.2	-82.8	208	10
2023-08-05T00:00	19407	65	-49.9	-82.5	207	10
2023-08-05T00:00	19432	64	-49.9	-82.5	207	10
2023-08-05T00:00	19451	64	-50.0	-82.6	206	10
2023-08-05T00:00	19472	64	-50.0	-82.6	206	10
2023-08-05T00:00	19495	64	-50.2	-82.8	206	10
2023-08-05T00:00	19514	64	-50.2	-82.8	207	10
2023-08-05T00:00	19538	63	-50.3	-82.2	208	9
2023-08-05T00:00	19560	63	-50.5		209	9
2023-08-05T00:00	19584	63	-50.6	-82.4	211	9
2023-08-05T00:00	19605	63	-50.7	-82.5	214	8
2023-08-05T00:00	19628	62	-50.7	-82.5	218	8
2023-08-05T00:00	19653	62	-50.9	-82.7	221	8
2023-08-05T00:00	19678	62	-50.9	-82.7	225	8
2023-08-05T00:00	19701	62	-51.1	-82.8	227	7
2023-08-05T00:00	19723	62	-51.3	-82.9	228	7
2023-08-05T00:00	19745	61	-51.1	-82.8	227	7
2023-08-05T00:00	19770	61	-51.0	-82.7	225	6
2023-08-05T00:00	19792	61	-51.1	-82.8	222	6
2023-08-05T00:00	19815	61	-51.1	-82.8	219	6
2023-08-05T00:00	19839	61	-51.0	-82.7	216	6
2023-08-05T00:00	19863	60	-51.1	-82.8	213	6
2023-08-05T00:00	19883	60	-51.3	-82.9	210	5
2023-08-05T00:00	19907	60	-51.3	-82.9	208	5
2023-08-05T00:00	19930	60	-51.5	-83.1	206	6
2023-08-05T00:00	19951	59	-51.7	-83.2	204	6
2023-08-05T00:00	19974	59	-51.8	-83.3	203	6
2023-08-05T00:00	19996	59	-51.8	-83.3	201	6
2023-08-05T00:00	20019	59	-51.8	-83.3	200	6
2023-08-05T00:00	20044	59	-51.8	-83.3	197	6
2023-08-05T00:00	20063	58	-51.7	-83.2	195	6
2023-08-05T00:00	20091	58	-51.7	-83.9	195	7
2023-08-05T00:00	20111	58	-50.8	-83.2	195	7
2023-08-05T00:00	20134	58	-49.6	-83.0	197	7
2023-08-05T00:00	20157	58	-49.0	-82.6	200	7
2023-08-05T00:00	20180	57	-49.0	-82.6	203	8
2023-08-05T00:00	20203	57	-49.2	-82.7	205	9
2023-08-05T00:00	20224	57	-49.1	-82.7	206	9
2023-08-05T00:00	20245	57	-49.2	-82.7	207	10
2023-08-05T00:00	20270	57	-49.3	-82.1	208	10
2023-08-05T00:00	20291	56	-49.4	-82.2	210	10
2023-08-05T00:00	20316	56	-49.4	-82.2	212	10
2023-08-05T00:00	20338	56	-49.0	-81.9	214	9
2023-08-05T00:00	20363	56	-49.0	-81.9	215	8
2023-08-05T00:00	20388	56	-49.0	-81.9	216	7
2023-08-05T00:00	20415	55	-48.9	-81.8	214	6
2023-08-05T00:00	20438	55	-49.0	-81.9	211	5
2023-08-05T00:00	20465	55	-49.1	-82.0	204	4
2023-08-05T00:00	20488	55	-48.9	-82.5	197	3
2023-08-05T00:00	20513	55	-48.7	-82.4	192	3
2023-08-05T00:00	20535	54	-48.6	-82.3	194	3
2023-08-05T00:00	20558	54	-48.7	-82.4	202	3
2023-08-05T00:00	20586	54	-48.7	-81.7	215	3
2023-08-05T00:00	20611	54	-48.9	-81.8	227	3
2023-08-05T00:00	20636	54	-49.1	-82.0	234	4
2023-08-05T00:00	20659	53	-49.3	-82.1	238	4
2023-08-05T00:00	20687	53	-49.5	-82.3	239	5
2023-08-05T00:00	20713	53	-49.5	-82.3	239	6
2023-08-05T00:00	20737	53	-49.7	-82.4	238	6
2023-08-05T00:00	20761	53	-49.8	-82.5	238	7
2023-08-05T00:00	20783	52	-49.8	-82.5	239	7
2023-08-05T00:00	20807	52	-49.7	-82.4	240	7
2023-08-05T00:00	20831	52	-49.7	-82.4	243	7
2023-08-05T00:00	20859	52	-49.9	-82.5	245	7
2023-08-05T00:00	20882	52	-50.1	-82.7	246	6
2023-08-05T00:00	20906	51	-50.2	-82.8	247	6
2023-08-05T00:00	20931	51	-50.4	-82.9	246	5
2023-08-05T00:00	20957	51	-50.5	-83.0	243	5
2023-08-05T00:00	20976	51	-50.6	-83.1	239	4
2023-08-05T00:00	20998	51	-50.5		234	4
2023-08-05T00:00	21025	50	-50.7	-82.5	230	3
2023-08-05T00:00	21048	50	-50.8	-82.6	226	3
2023-08-05T00:00	21067	50	-51.0	-82.7	223	2
2023-08-05T00:00	21095	50	-51.1	-82.8	218	2
2023-08-05T00:00	21115	50	-51.1	-82.8	211	2
2023-08-05T00:00	21142	50	-50.9	-83.3	204	3
2023-08-05T00:00	21161	49	-50.9	-83.3	198	3
2023-08-05T00:00	21188	49	-50.9	-83.3	193	4
2023-08-05T00:00	21208	49	-51.1	-83.4	187	4
2023-08-05T00:00	21230	49	-51.1	-83.4	182	4
2023-08-05T00:00	21254	49	-50.8	-83.2	177	5
2023-08-05T00:00	21278	49	-50.7	-83.1	173	5
2023-08-05T00:00	21300	48	-50.8	-83.2	170	5
2023-08-05T00:00	21322	48	-50.8	-83.2	168	5
2023-08-05T00:00	21345	48	-50.7	-83.1	168	5
2023-08-05T00:00	21366	48	-50.3	-82.8	170	4
2023-08-05T00:00	21393	48	-50.1	-82.7	173	4
2023-08-05T00:00	21413	48	-50.2	-82.8	178	3
2023-08-05T00:00	21441	47	-50.2	-82.8	187	2
2023-08-05T00:00	21461	47	-50.1	-82.7	201	2
2023-08-05T00:00	21481	47	-50.2	-82.8	218	2
2023-08-05T00:00	21511	47	-50.3	-82.8	236	2
2023-08-05T00:00	21531	47	-50.3	-82.8	253	2
2023-08-05T00:00	21555	47	-50.4	-82.9	269	2
2023-08-05T00:00	21581	46	-50.4	-82.9	286	2
2023-08-05T00:00	21602	46	-50.4	-82.9	303	2
2023-08-05T00:00	21630	46	-50.4	-82.9	321	2
2023-08-05T00:00	21653	46	-50.3	-82.8	338	2
2023-08-05T00:00	21680	46	-50.3	-82.8	357	3
2023-08-05T00:00	21705	45	-49.9	-82.5	16	3
2023-08-05T00:00	21728	45	-49.9	-82.5	32	3
2023-08-05T00:00	21757	45	-49.9	-82.5	46	4
2023-08-05T00:00	21783	45	-50.0	-82.6	56	4
2023-08-05T00:00	21809	45	-50.0	-82.6	65	5
2023-08-05T00:00	21833	45	-49.9	-82.5	72	5
2023-08-05T00:00	21856	44	-49.9	-82.5	79	6
2023-08-05T00:00	21883	44	-49.9	-82.5	85	6
2023-08-05T00:00	21906	44	-50.1	-82.7	90	7
2023-08-05T00:00	21932	44	-50.2	-82.8	94	8
2023-08-05T00:00	21959	44	-50.3	-82.8	98	8
2023-08-05T00:00	21986	44	-50.5	-83.0	101	9
2023-08-05T00:00	22011	43	-50.6	-83.1	105	9
2023-08-05T00:00	22037	43	-50.7	-83.1	109	9
2023-08-05T00:00	22062	43	-50.7	-83.1	112	9
2023-08-05T00:00	22089	43	-50.7	-83.1	115	8
2023-08-05T00:00	22112	43	-50.7	-83.1	117	8
2023-08-05T00:00	22140	43	-50.8	-83.2	117	7
2023-08-05T00:00	22164	42	-51.0	-83.3	118	7
2023-08-05T00:00	22186	42	-51.0	-83.3	118	6
2023-08-05T00:00	22211	42	-51.0	-83.3	119	5
2023-08-05T00:00	22238	42	-50.9	-83.3	120	5
2023-08-05T00:00	22260	42	-50.9	-83.3	121	4
2023-08-05T00:00	22286	42	-50.8	-83.2	120	3
2023-08-05T00:00	22308	41	-50.8	-83.2	116	3
2023-08-05T00:00	22334	41	-50.8	-83.2	108	3
2023-08-05T00:00	22358	41	-50.8	-83.2	98	2
2023-08-05T00:00	22384	41	-50.7	-83.1	86	2
2023-08-05T00:00	22412	41	-50.7	-83.1	77	2
2023-08-05T00:00	22432	41	-50.8	-83.2	73	2
2023-08-05T00:00	22461	41	-50.7	-83.1	73	3
2023-08-05T00:00	22483	40	-50.6	-83.1	77	4
2023-08-05T00:00	22511	40	-50.6	-83.1	81	4
2023-08-05T00:00	22534	40	-50.6	-83.1	85	5
2023-08-05T00:00	22563	40	-50.4	-82.9	89	6
2023-08-05T00:00	22583	40	-50.3	-82.8	92	6
2023-08-05T00:00	22607	40	-50.5	-83.0	96	6
2023-08-05T00:00	22634	39	-50.5	-83.0	99	6
2023-08-05T00:00	22659	39	-50.5	-83.0	103	6
2023-08-05T00:00	22686	39	-50.5	-83.0	107	5
2023-08-05T00:00	22704	39	-50.5	-83.0	111	5
2023-08-05T00:00	22730	39	-50.5	-83.0	116	5
2023-08-05T00:00	22757	39	-50.6	-83.1	121	4
2023-08-05T00:00	22778	39	-50.8	-83.2	127	4
2023-08-05T00:00	22801	38	-50.9	-83.3	132	4
2023-08-05T00:00	22829	38	-51.1	-83.4	136	3
2023-08-05T00:00	22851	38	-51.1	-83.4	136	3
2023-08-05T00:00	22872	38	-50.9	-83.3	130	2
2023-08-05T00:00	22897	38	-50.8	-83.2	116	2
2023-08-05T00:00	22925	38	-50.8	-83.2	102	3
2023-08-05T00:00	22950	38	-50.7	-83.1	94	3
2023-08-05T00:00	22973	37	-50.5	-83.0	91	4
2023-08-05T00:00	22999	37	-50.5	-83.0	90	5
2023-08-05T00:00	23025	37	-50.5	-83.0	91	5
2023-08-05T00:00	23051	37	-50.5	-83.0	93	6
2023-08-05T00:00	23078	37	-50.6	-83.1	95	7
2023-08-05T00:00	23102	37	-50.7	-83.1	98	8
2023-08-05T00:00	23124	37	-50.8	-83.2	101	9
2023-08-05T00:00	23152	36	-50.7	-83.1	106	9
2023-08-05T00:00	23179	36	-50.7	-83.1	110	10
2023-08-05T00:00	23204	36	-50.7	-83.1	114	11
2023-08-05T00:00	23231	36	-50.9	-83.3	118	11
2023-08-05T00:00	23257	36	-50.9	-83.3	121	11
2023-08-05T00:00	23281	36	-51.1	-83.4	124	11
2023-08-05T00:00	23306	36	-51.2	-83.5	126	11
2023-08-05T00:00	23337	35	-51.1	-83.4	128	11
2023-08-05T00:00	23361	35	-51.1	-83.4	130	10
2023-08-05T00:00	23384	35	-51.1	-83.4	131	10
2023-08-05T00:00	23411	35	-51.1	-83.4	131	9
2023-08-05T00:00	23435	35	-51.0	-83.3	131	9
2023-08-05T00:00	23466	35	-51.0	-83.3	130	9
2023-08-05T00:00	23492	35	-50.8	-83.2	129	10
2023-08-05T00:00	23518	34	-50.6	-83.1	128	10
2023-08-05T00:00	23545	34	-50.6	-83.7	128	10
2023-08-05T00:00	23568	34	-50.6	-83.7	128	10
2023-08-05T00:00	23594	34	-50.6	-83.7	128	10
2023-08-05T00:00	23625	34	-50.6	-83.7	128	10
2023-08-05T00:00	23648	34	-50.5	-83.7	128	10
2023-08-05T00:00	23681	34	-50.3	-83.5	128	9
2023-08-05T00:00	23702	33	-50.1	-83.4	128	9
2023-08-05T00:00	23726	33	-49.9	-83.2	128	8
2023-08-05T00:00	23748	33	-49.9	-83.2	129	8
2023-08-05T00:00	23782	33	-49.9	-83.2	129	7
2023-08-05T00:00	23804	33	-49.9	-83.2	130	6
2023-08-05T00:00	23834	33	-49.9	-83.2	132	6
2023-08-05T00:00	23862	33	-50.0	-83.3	133	6
2023-08-05T00:00	23886	33	-50.1	-83.4	133	5
2023-08-05T00:00	23914	32	-50.1	-83.4	132	5
2023-08-05T00:00	23940	32	-50.1	-83.4	129	5
2023-08-05T00:00	23966	32	-50.0	-83.3	125	5
2023-08-05T00:00	23993	32	-50.0	-83.3	121	5
2023-08-05T00:00	24020	32	-50.1	-83.4	118	5
2023-08-05T00:00	24049	32	-50.0	-83.3	117	6
2023-08-05T00:00	24073	32	-50.0	-83.3	118	6
2023-08-05T00:00	24103	31	-50.1	-83.4	118	7
2023-08-05T00:00	24130	31	-50.3	-82.8	119	7
2023-08-05T00:00	24157	31	-50.5	-83.0	119	8
2023-08-05T00:00	24181	31	-50.6	-83.1	119	8
2023-08-05T00:00	24211	31	-50.7	-83.1	120	9
2023-08-05T00:00	24236	31	-50.8	-83.2	122	9
2023-08-05T00:00	24263	31	-50.9	-83.3	123	10
2023-08-05T00:00	24290	31	-51.1	-83.4	126	10
2023-08-05T00:00	24317	30	-51.2	-83.5	128	11
2023-08-05T00:00	24342	30	-51.2	-83.5	131	11
2023-08-05T00:00	24365	30	-51.2	-83.5	133	11
2023-08-05T00:00	24392	30	-51.2	-83.5	135	12
2023-08-05T00:00	24419	30	-51.3	-83.6	137	12
2023-08-05T00:00	24445	30	-51.3	-83.6	138	11
2023-08-05T00:00	24473	30	-51.5	-83.7	140	11
2023-08-05T00:00	24496	30	-51.7	-83.9	140	11
2023-08-05T00:00	24520	30	-51.8	-83.9	141	11
2023-08-05T00:00	24546	29	-51.8	-83.9	140	10
2023-08-05T00:00	24571	29	-51.7	-83.9	139	10
2023-08-05T00:00	24600	29	-51.6	-83.8	138	9
2023-08-05T00:00	24626	29	-51.6	-83.8	136	9
2023-08-05T00:00	24654	29	-51.7	-83.9	133	9
2023-08-05T00:00	24679	29	-51.6	-83.8	131	9
2023-08-05T00:00	24704	29	-51.3	-83.6	128	9
2023-08-05T00:00	24726	29	-51.3	-84.3	127	9
2023-08-05T00:00	24755	28	-51.3	-84.3	125	8
2023-08-05T00:00	24775	28	-51.2	-84.2	123	8
2023-08-05T00:00	24804	28	-50.9	-84.0	121	8
2023-08-05T00:00	24833	28	-50.8	-83.9	117	7
2023-08-05T00:00	24858	28	-50.6	-83.7	112	7
2023-08-05T00:00	24883	28	-50.4	-83.6	107	7
2023-08-05T00:00	24909	28	-50.4	-83.6	102	7
2023-08-05T00:00	24934	28	-50.3	-83.5	99	7
2023-08-05T00:00	24958	28	-50.2	-83.5	97	8
2023-08-05T00:00	24986	28	-50.2	-83.5	98	8
2023-08-05T00:00	25012	27	-50.2	-83.5	100	8
2023-08-05T00:00	25038	27	-50.3	-83.5	105	7
2023-08-05T00:00	25061	27	-50.4	-83.6	112	7
2023-08-05T00:00	25088	27	-50.5	-83.7	119	7
2023-08-05T00:00	25119	27	-50.5	-83.7	124	6
2023-08-05T00:00	25144	27	-50.6	-83.7	126	6
2023-08-05T00:00	25171	27	-50.5	-83.7	125	5
2023-08-05T00:00	25197	27	-50.1	-83.4	119	5
2023-08-05T00:00	25220	27	-49.9	-83.2	109	5
2023-08-05T00:00	25253	26	-49.7	-83.1	99	5
2023-08-05T00:00	25276	26	-49.6	-83.0	91	5
2023-08-05T00:00	25307	26	-49.4	-82.9	86	6
2023-08-05T00:00	25334	26	-49.3	-82.8	85	7
2023-08-05T00:00	25363	26	-49.2	-82.7	85	7
2023-08-05T00:00	25394	26	-49.3	-82.8	86	8
2023-08-05T00:00	25416	26	-49.3	-82.8	88	9
2023-08-05T00:00	25442	26	-49.4	-82.9	90	10
2023-08-05T00:00	25475	26	-49.5	-82.9	92	10
2023-08-05T00:00	25502	25	-49.7	-83.1	94	10
2023-08-05T00:00	25535	25	-49.8	-83.2	97	10
2023-08-05T00:00	25561	25	-49.9	-83.2	100	10
2023-08-05T00:00	25590	25	-49.7	-83.1	104	10
2023-08-05T00:00	25625	25	-49.8	-83.2	108	9
2023-08-05T00:00	25647	25	-49.9	-83.2	112	9
2023-08-05T00:00	25680	25	-49.9	-83.2	115	8
2023-08-05T00:00	25713	25	-50.0	-83.3	116	8
2023-08-05T00:00	25741	25	-50.0	-83.3	116	8
2023-08-05T00:00	25765	24	-50.0	-83.3	113	8
2023-08-05T00:00	25797	24	-50.0	-83.3	109	7
2023-08-05T00:00	25826	24	-49.9	-83.2	105	8
2023-08-05T00:00	25856	24	-49.9	-83.2	101	8
2023-08-05T00:00	25890	24	-49.9	-83.2	98	8
2023-08-05T00:00	25916	24	-49.9	-83.2	97	9
2023-08-05T00:00	25937	24	-49.9	-83.2	98	9
2023-08-05T00:00	25970	24	-49.8	-83.2	100	9
2023-08-05T00:00	25999	24	-49.7	-83.1	103	9
2023-08-05T00:00	26028	23	-49.8	-83.2	107	9
2023-08-05T00:00	26057	23	-49.7	-83.1	112	9
2023-08-05T00:00	26083	23	-49.4	-82.9	116	8
2023-08-05T00:00	26112	23	-49.3	-83.6	119	8
2023-08-05T00:00	26144	23	-49.1	-83.4	122	7
2023-08-05T00:00	26165	23	-49.0	-83.4	122	6
2023-08-05T00:00	26192	23	-48.8	-83.2	120	6
2023-08-05T00:00	26221	23	-48.8	-83.2	114	5
2023-08-05T00:00	26252	23	-48.7	-83.2	104	5
2023-08-05T00:00	26275	23	-48.5	-83.0	92	5
2023-08-05T00:00	26299	22	-48.5	-83.0	82	6
2023-08-05T00:00	26327	22	-48.4	-82.9	76	7
2023-08-05T00:00	26353	22	-48.3	-82.9	74	7
2023-08-05T00:00	26380	22	-48.1	-82.7	75	8
2023-08-05T00:00	26408	22	-48.0	-82.7	77	9
2023-08-05T00:00	26433	22	-48.1	-82.7	79	10
2023-08-05T00:00	26457	22	-48.1	-82.7	82	10
2023-08-05T00:00	26483	22	-48.1	-82.7	84	10
2023-08-05T00:00	26504	22	-48.1	-82.7	86	10
2023-08-05T00:00	26531	22	-48.1	-82.7	87	9
2023-08-05T00:00	26557	22	-48.1	-82.7	87	9
2023-08-05T00:00	26580	22	-47.9	-82.6	87	9
2023-08-05T00:00	26607	21	-47.8	-82.5	88	9
2023-08-05T00:00	26618	21	-47.7	-82.4	89	9
2023-08-05T00:00	26647	21	-47.7	-82.4	92	9
2023-08-05T00:00	26680	21	-47.8	-82.5	95	9
2023-08-05T00:00	26700	21	-47.6	-82.4	97	9
2023-08-05T00:00	26723	21	-47.7	-82.4	99	9
2023-08-05T00:00	26748	21	-47.9	-82.6	100	9
2023-08-05T00:00	26770	21	-47.9	-82.6	100	9
2023-08-05T00:00	26796	21	-47.7	-82.4	100	9
2023-08-05T00:00	26824	21	-47.6	-82.4	101	9
2023-08-05T00:00	26846	21	-47.4	-82.2	102	9
2023-08-05T00:00	26870	21	-47.5	-82.3	103	9
2023-08-05T00:00	26895	21	-47.5	-82.3	104	10
2023-08-05T00:00	26917	21	-47.5	-82.3	104	10
2023-08-05T00:00	26942	20	-47.5	-82.3	105	11
2023-08-05T00:00	26966	20	-47.6	-82.4	106	11
2023-08-05T00:00	26993	20	-47.5	-82.3	107	12
2023-08-05T00:00	27015	20	-47.6	-82.4	108	12
2023-08-05T00:00	27037	20	-47.4	-82.2	109	12
2023-08-05T00:00	27064	20	-47.3	-82.2	109	12
2023-08-05T00:00	27091	20	-47.5	-82.3	110	12
2023-08-05T00:00	27118	20	-47.2	-82.1	110	11
2023-08-05T00:00	27134	20	-47.1	-82.0	109	11
2023-08-05T00:00	27163	20	-47.2	-82.1	108	11
2023-08-05T00:00	27191	20	-47.0	-81.9	108	11
2023-08-05T00:00	27222	20	-47.0	-81.9	107	11
2023-08-05T00:00	27241	20	-47.0	-81.9	107	11
2023-08-05T00:00	27269	19	-47.0	-81.9	108	11
2023-08-05T00:00	27302	19	-47.1	-82.0	109	11
2023-08-05T00:00	27325	19	-47.1	-82.0	110	12
2023-08-05T00:00	27350	19	-47.1	-82.0	110	12
2023-08-05T00:00	27374	19	-47.1	-82.0	110	12
2023-08-05T00:00	27404	19	-47.1	-82.0	110	12
2023-08-05T00:00	27439	19	-47.1	-82.0	109	11
2023-08-05T00:00	27457	19	-47.0	-81.9	110	11
2023-08-05T00:00	27488	19	-47.0	-81.9	112	10
2023-08-05T00:00	27515	19	-47.0	-81.9	115	10
2023-08-05T00:00	27545	19	-47.2	-82.1	119	10
2023-08-05T00:00	27576	19	-47.3	-82.2	122	9
2023-08-05T00:00	27605	18	-47.2	-82.1	125	9
2023-08-05T00:00	27628	18	-47.2	-82.1	126	9
2023-08-05T00:00	27661	18	-47.2	-82.1	127	9
2023-08-05T00:00	27676	18	-47.1	-82.0	128	9
2023-08-05T00:00	27717	18	-46.9	-81.9	129	10
2023-08-05T00:00	27747	18	-46.7	-81.7	130	10
2023-08-05T00:00	27776	18	-46.7	-81.7	130	10
2023-08-05T00:00	27798	18	-46.6	-81.7	131	11
2023-08-05T00:00	27826	18	-46.7	-81.7	131	11
2023-08-05T00:00	27858	18	-46.8	-81.8	131	12
2023-08-05T00:00	27882	18	-46.8	-81.8	131	13
2023-08-05T00:00	27918	18	-46.9	-81.9	131	13
2023-08-05T00:00	27945	18	-47.1	-82.0	131	13
2023-08-05T00:00	27978	17	-47.0	-81.9	132	13
2023-08-05T00:00	28004	17	-47.0	-81.9	133	13
2023-08-05T00:00	28032	17	-47.0	-81.9	134	12
2023-08-05T00:00	28065	17	-47.0	-81.9	135	11
2023-08-05T00:00	28085	17	-46.9	-81.9	137	11
2023-08-05T00:00	28123	17	-46.8	-81.8	138	10
2023-08-05T00:00	28151	17	-46.8	-81.8	140	9
2023-08-05T00:00	28180	17	-46.7	-81.7	141	8
2023-08-05T00:00	28206	17	-46.8	-81.8	143	7
2023-08-05T00:00	28240	17	-46.9	-81.9	144	6
2023-08-05T00:00	28270	17	-46.8	-81.8	144	6
2023-08-05T00:00	28293	17	-46.7	-82.6	143	5
2023-08-05T00:00	28316	17	-46.6	-82.6	141	5
2023-08-05T00:00	28350	17	-46.5	-82.5	137	4
2023-08-05T00:00	28374	16	-46.3	-82.4	134	3
2023-08-05T00:00	28409	16	-46.3	-82.4	131	3
2023-08-05T00:00	28435	16	-46.2	-82.3	129	2
2023-08-05T00:00	28463	16	-46.1	-82.2	127	2
2023-08-05T00:00	28489	16	-46.0	-82.1	124	2
2023-08-05T00:00	28523	16	-46.0	-82.1	121	3
2023-08-05T00:00	28545	16	-45.7	-81.9	118	3
2023-08-05T00:00	28569	16	-45.6	-81.9	117	3
2023-08-05T00:00	28601	16	-45.5	-81.8	119	3
2023-08-05T00:00	28622	16	-45.3	-81.6	122	3
2023-08-05T00:00	28653	16	-45.5	-81.8	127	3
2023-08-05T00:00	28681	16	-45.3	-81.6	131	3
2023-08-05T00:00	28710	16	-45.1	-81.5	133	3
2023-08-05T00:00	28738	16	-45.1	-81.5	134	3
2023-08-05T00:00	28759	16	-45.1	-81.5	132	3
2023-08-05T00:00	28789	15	-44.9	-81.4	128	3
2023-08-05T00:00	28816	15	-44.8	-81.3	122	2
2023-08-05T00:00	28845	15	-45.0	-81.4	114	3
2023-08-05T00:00	28875	15	-45.1	-81.5	108	3
2023-08-05T00:00	28903	15	-45.2	-81.6	104	4
2023-08-05T00:00	28933	15	-45.1	-81.5	103	5
2023-08-05T00:00	28949	15	-45.1	-81.5	103	6
2023-08-05T00:00	28982	15	-45.3	-81.6	105	6
2023-08-05T00:00	29006	15	-45.4	-81.7	109	7
2023-08-05T00:00	29036	15	-45.4	-81.7	113	7
2023-08-05T00:00	29054	15	-45.4	-81.7	118	7
2023-08-05T00:00	29071	15	-45.4	-81.7	123	7
2023-08-05T00:00	29115	15	-45.5	-81.8	128	8
2023-08-05T00:00	29141	15	-45.6	-81.9	132	8
2023-08-05T00:00	29165	15	-45.7	-81.9	136	8
2023-08-05T00:00	29199	15	-45.7	-81.9	140	7
2023-08-05T00:00	29218	15	-45.8	-82.0	143	7
2023-08-05T00:00	29241	14	-45.5	-81.8	147	7
2023-08-05T00:00	29264	14	-45.6	-81.9	152	6
2023-08-05T00:00	29300	14	-45.6	-81.9	156	6
2023-08-05T00:00	29319	14	-45.6	-81.9	161	6
2023-08-05T00:00	29350	14	-45.7	-81.9	165	6
2023-08-05T00:00	29376	14	-45.8	-82.0	168	5
2023-08-05T00:00	29401	14	-45.7	-81.9	171	5
2023-08-05T00:00	29422	14	-45.6	-81.9	171	5
2023-08-05T00:00	29459	14	-45.4	-81.7	170	4
2023-08-05T00:00	29486	14	-45.3	-81.6	166	3
2023-08-05T00:00	29511	14	-45.3	-81.6	157	2
2023-08-05T00:00	29532	14	-45.4	-81.7	138	2
2023-08-05T00:00	29548	14	-45.4	-81.7	107	1
2023-08-05T00:00	29582	14	-45.4	-81.7	74	1
2023-08-05T00:00	29607	14	-45.4	-81.7	48	1
2023-08-05T00:00	29637	14	-45.4	-81.7	19	1
2023-08-05T00:00	29656	14	-45.3	-81.6	349	1
2023-08-05T00:00	29683	14	-45.3	-81.6	331	2
2023-08-05T00:00	29720	13	-45.4	-81.7	324	2
2023-08-05T00:00	29744	13	-45.3	-81.6	323	2
2023-08-05T00:00	29774	13	-45.1	-81.5	327	2
2023-08-05T00:00	29793	13	-44.8	-81.3	332	2
2023-08-05T00:00	29819	13	-44.7	-81.2	341	2
2023-08-05T00:00	29845	13	-44.7	-81.2	352	1
2023-08-05T00:00	29875	13	-44.7	-81.2	7	1
2023-08-05T00:00	29896	13	-44.6	-81.2	21	1
2023-08-05T00:00	29931	13	-44.6	-81.2	24	1
2023-08-05T00:00	29952	13	-44.5	-82.2	18	1
2023-08-05T00:00	29991	13	-44.4	-82.1	14	2
2023-08-05T00:00	30009	13	-44.2	-82.0	13	3
2023-08-05T00:00	30038	13	-43.9	-81.8	16	3
2023-08-05T00:00	30060	13	-43.8	-81.7	21	4
2023-08-05T00:00	30094	13	-43.9	-81.8	28	4
2023-08-05T00:00	30106	13	-43.7	-81.6	34	5
2023-08-05T00:00	30140	13	-43.7	-81.6	37	6
2023-08-05T00:00	30155	13	-43.4	-81.4	39	7
2023-08-05T00:00	30191	13	-43.3	-81.3	39	8
2023-08-05T00:00	30220	12	-43.2	-81.3	38	8
2023-08-05T00:00	30248	12	-43.0	-81.1	37	9
2023-08-05T00:00	30272	12	-42.9	-81.1	36	10
2023-08-05T00:00	30300	12	-42.9	-81.1	35	11
2023-08-05T00:00	30326	12	-42.6	-80.8	34	11
2023-08-05T00:00	30357	12	-42.2	-80.6	34	12
2023-08-05T00:00	30386	12	-42.2	-80.6	34	12
2023-08-05T00:00	30416	12	-42.2	-80.6	35	11
2023-08-05T00:00	30443	12	-42.3	-80.6	37	11
2023-08-05T00:00	30476	12	-42.6	-80.8	40	11
2023-08-05T00:00	30496	12	-42.7	-80.9	43	11
2023-08-05T00:00	30530	12	-42.6	-80.8	46	11
2023-08-05T00:00	30540	12	-42.6	-80.8	49	11
2023-08-05T00:00	30571	12	-42.7	-80.9	51	11
2023-08-05T00:00	30610	12	-42.7	-80.9	53	10
2023-08-05T00:00	30624	12	-42.7	-80.9	55	10
2023-08-05T00:00	30655	12	-42.7	-80.9	57	10
2023-08-05T00:00	30684	12	-42.8	-81.0	58	10
2023-08-05T00:00	30703	12	-42.9	-81.1	58	11
2023-08-05T00:00	30733	12	-42.9	-81.1	57	11
2023-08-05T00:00	30755	12	-42.8	-81.0	56	12
2023-08-05T00:00	30786	11	-42.9	-81.1	55	13
2023-08-05T00:00	30818	11	-42.9	-81.1	54	13
2023-08-05T00:00	30837	11	-42.9	-81.1	54	14
2023-08-05T00:00	30856	11	-42.9	-81.1	54	14
2023-08-05T00:00	30886	11	-42.9	-81.1	55	15
2023-08-05T00:00	30914	11	-42.9	-81.1	56	15
2023-08-05T00:00	30939	11	-42.9	-81.1	57	16
2023-08-05T00:00	30976	11	-43.0	-81.1	58	16
2023-08-05T00:00	30994	11	-43.0	-81.1	60	15
2023-08-05T00:00	31017	11	-42.9	-81.1	62	15
2023-08-05T00:00	31037	11	-42.5	-80.8	64	14
2023-08-05T00:00	31060	11	-42.6	-80.8	66	14
2023-08-05T00:00	31095	11	-42.7	-80.9	68	13
2023-08-05T00:00	31129	11	-42.9	-81.1	71	13
2023-08-05T00:00	31144	11	-43.0	-81.1	73	12
2023-08-05T00:00	31163	11	-43.1	-81.2	77	11
2023-08-05T00:00	31196	11	-43.1	-81.2	81	10
2023-08-05T00:00	31213	11	-43.2	-81.3	85	10
2023-08-05T00:00	31246	11	-43.2	-81.3	90	9
2023-08-05T00:00	31269	11	-43.3	-81.3	94	9
2023-08-05T00:00	31297	11	-43.2	-81.3	96	8
2023-08-05T00:00	31318	11	-43.1	-81.2	95	8
2023-08-05T00:00	31339	11	-42.8	-81.0	92	8
2023-08-05T00:00	31361	11	-42.5	-80.8	88	9
2023-08-05T00:00	31392	10	-42.1	-80.5	83	9
2023-08-05T00:00	31426	10	-41.7	-80.2	78	10
2023-08-05T00:00	31438	10	-41.6	-80.1	74	11
2023-08-05T00:00	31474	10	-41.7	-80.2	72	12
2023-08-05T00:00	31517	10	-41.6	-80.1	69	13
2023-08-05T00:00	31527	10	-41.5	-80.1	68	14
2023-08-05T00:00	31568	10	-41.2	-79.9	67	15
2023-08-05T00:00	31589	10	-41.0	-79.7	67	15
2023-08-05T00:00	31618	10	-41.0	-79.7	66	16
2023-08-05T00:00	31651	10	-41.1	-79.8	66	15
2023-08-05T00:00	31684	10	-40.8	-79.6	66	15
2023-08-05T00:00	31704	10	-40.6	-79.5	67	14
2023-08-05T00:00	31738	10	-40.7	-79.5	67	13
2023-08-05T00:00	31773	10	-40.9	-79.7	67	13
2023-08-05T00:00	31800	10	-41.0	-79.7	67	12
2023-08-05T00:00	31826	10	-41.1	-79.8	66	12
2023-08-05T00:00	31859	10	-41.1	-79.8	64	12
2023-08-05T00:00	31877	10	-41.2	-79.9	63	12
2023-08-05T00:00	31920	10	-41.2	-79.9	62	12
2023-08-05T00:00	31944	10	-41.1	-79.8	62	11
2023-08-05T00:00	31964	10	-41.1	-79.8	63	11
2023-08-05T00:00	31993	10	-41.1	-79.8	65	10
2023-08-05T00:00	32026	10	-41.1	-79.8	67	9
2023-08-05T00:00	32044	10	-41.1	-79.8	68	9
2023-08-05T00:00	32073	10	-41.2	-79.9	68	8
2023-08-05T00:00	32093	9	-41.2	-79.9	67	8
2023-08-05T00:00	32127	9	-41.0	-79.7	66	8
2023-08-05T00:00	32173	9	-40.8	-79.6	64	8
2023-08-05T00:00	32188	9	-40.6	-79.5	63	9
2023-08-05T00:00	32206	9	-40.3	-79.2	62	9
2023-08-05T00:00	32242	9	-40.2	-79.2	62	10
2023-08-05T00:00	32267	9	-40.3	-79.2	61	11
2023-08-05T00:00	32285	9	-40.3	-79.2	61	11
2023-08-05T00:00	32321	9	-40.1	-79.1	60	12
2023-08-05T00:00	32334	9	-39.9	-79.0	59	13
2023-08-05T00:00	32351	9	-40.0	-79.0	58	13
2023-08-05T00:00	32397	9	-40.0	-79.0	58	14
2023-08-05T00:00	32414	9	-40.0	-79.0	57	14
2023-08-05T00:00	32437	9	-40.0	-79.0	57	14
2023-08-05T00:00	32466	9	-40.0	-79.0	58	15
2023-08-05T00:00	32478	9	-39.9	-79.0	59	15
2023-08-05T00:00	32512	9	-39.7	-78.8	59	15
2023-08-05T00:00	32527	9	-39.5	-78.7	60	15
2023-08-05T00:00	32556	9	-39.5	-78.7	61	16
2023-08-05T00:00	32580	9	-39.6	-78.8	61	16
2023-08-05T00:00	32598	9	-39.7	-78.8	62	16
2023-08-05T00:00	32642	9	-39.7	-78.8	63	16
2023-08-05T00:00	32665	9	-39.8	-78.9	64	16
2023-08-05T00:00	32677	9	-39.9	-79.0	65	16
2023-08-05T00:00	32712	9	-40.0	-79.0	66	16
2023-08-05T00:00	32753	9	-40.1	-79.1	67	16
2023-08-05T00:00	32765	9	-40.1	-79.1	69	16
2023-08-05T00:00	32791	9	-40.1	-79.1	70	15
2023-08-05T00:00	32819	9	-40.2	-79.2	72	15
2023-08-05T00:00	32829	8	-40.3	-79.2	74	14
2023-08-05T00:00	32870	8	-40.4	-79.3	76	14
2023-08-05T00:00	32888	8	-40.4	-79.3	77	14
2023-08-05T00:00	32920	8	-40.3	-79.2	78	13
2023-08-05T00:00	32962	8	-40.2	-79.2	78	13
2023-08-05T00:00	32983	8	-40.1	-79.1	78	13
2023-08-05T00:00	33018	8	-39.9	-79.0	78	13
2023-08-05T00:00	33043	8	-39.7	-78.8	77	13
2023-08-05T00:00	33079	8	-39.2	-78.5	77	13
2023-08-05T00:00	33108	8	-39.0	-78.3	77	13
2023-08-05T00:00	33126	8	-38.8	-78.2	78	13
2023-08-05T00:00	33164	8	-38.8	-78.2	80	14
2023-08-05T00:00	33192	8	-38.9	-78.3	81	14
2023-08-05T00:00	33217	8	-38.8	-78.2	82	13
2023-08-05T00:00	33256	8	-38.6	-78.1	83	13
2023-08-05T00:00	33278	8	-38.1	-77.7	83	13
2023-08-05T00:00	33308	8	-37.9	-77.6	83	12
2023-08-05T00:00	33330	8	-37.9	-77.6	82	12
2023-08-05T00:00	33368	8	-37.7	-77.4	81	11
2023-08-05T00:00	33372	8	-37.4	-77.2	80	11
2023-08-05T00:00	33415	8	-37.2	-77.1	77	11
2023-08-05T00:00	33424	8	-36.9	-76.9	75	11
2023-08-05T00:00	33463	8	-36.5	-76.6	73	11
2023-08-05T00:00	33493	8	-36.2	-76.4	72	11
2023-08-05T00:00	33499	8	-36.0	-76.3	71	12
2023-08-05T00:00	33545	8	-35.7	-76.1	71	12
2023-08-05T00:00	33550	8	-35.6	-76.0	70	12
2023-08-05T00:00	33574	8	-35.5	-75.9	70	12
2023-08-05T00:00	33608	8	-35.5	-75.9	70	13
2023-08-05T00:00	33634	8	-35.5	-75.9	69	13
2023-08-05T00:00	33639	8	-35.3	-75.8	69	13
2023-08-05T00:00	33679	8	-35.1	-75.6	68	13
2023-08-05T00:00	33700	8	-34.9	-75.5	69	13
2023-08-05T00:00	33717	7	-34.8	-75.4	70	14
2023-08-05T00:00	33733	7	-34.6	-75.3	72	14
2023-08-05T00:00	33750	7	-34.3	-75.1	75	14
2023-08-05T00:00	33758	7	-34.1	-75.0	77	14
2023-08-05T00:00	33787	7	-33.9	-74.8	80	15
2023-08-05T00:00	33814	7	-33.5	-74.5	81	15
2023-08-05T00:00	33839	7	-33.2	-74.3	82	16
2023-08-05T00:00	33848	7	-33.1	-74.3	83	16
2023-08-05T00:00	33855	7	-32.9	-74.1	83	16
2023-08-05T00:00	33882	7	-32.8	-74.1	82	15
2023-08-05T00:00	33928	7	-32.7	-74.0	81	15
2023-08-05T00:00	33939	7	-32.4	-73.8	79	15
2023-08-05T00:00	33965	7	-32.4	-73.8	78	15
2023-08-05T00:00	33992	7	-32.3	-73.7	77	14
2023-08-05T06:00	116	1001	13.5	13.2	339	2
2023-08-05T06:00	145	997	13.7	12.5	353	3
2023-08-05T06:00	172	994	14.0	12.3	357	4
2023-08-05T06:00	199	991	14.3	12.2	1	5
2023-08-05T06:00	224	988	14.8	11.9	3	6
2023-08-05T06:00	252	985	15.4	12.0	5	6
2023-08-05T06:00	277	982	16.0	11.5	5	6
2023-08-05T06:00	299	979	16.4	11.0	3	6
2023-08-05T06:00	321	977	16.5	10.9	0	6
2023-08-05T06:00	345	974	16.4	10.2	357	5
2023-08-05T06:00	369	971	16.5	9.3	354	5
2023-08-05T06:00	393	968	16.5	9.1	351	5
2023-08-05T06:00	423	965	16.4	8.8	349	5
2023-08-05T06:00	448	962	16.2	9.2	347	5
2023-08-05T06:00	474	960	16.0	9.8	346	5
2023-08-05T06:00	495	957	15.8	9.9	345	5
2023-08-05T06:00	519	954	15.6	9.8	345	5
2023-08-05T06:00	543	952	15.4	10.0	346	5
2023-08-05T06:00	565	949	15.3	10.1	347	5
2023-08-05T06:00	587	947	15.1	9.8	347	4
2023-08-05T06:00	612	944	15.0	8.6	346	4
2023-08-05T06:00	638	941	14.8	8.6	343	4
2023-08-05T06:00	662	938	14.5	9.1	339	4
2023-08-05T06:00	682	936	14.3	9.7	336	4
2023-08-05T06:00	701	934	14.1	9.7	334	4
2023-08-05T06:00	726	931	13.9	9.8	334	4
2023-08-05T06:00	751	928	13.8	9.9	334	4
2023-08-05T06:00	775	926	13.5	9.7	333	3
2023-08-05T06:00	800	923	13.3	9.8	331	3
2023-08-05T06:00	826	920	13.2	9.4	328	3
2023-08-05T06:00	854	917	12.9	9.7	325	3
2023-08-05T06:00	880	914	12.8	8.9	325	3
2023-08-05T06:00	909	911	12.6	8.4	326	3
2023-08-05T06:00	938	908	12.4	8.5	329	3
2023-08-05T06:00	969	905	12.2	8.3	331	3
2023-08-05T06:00	995	902	12.0	7.9	332	3
2023-08-05T06:00	1022	899	11.8	7.3	332	3
2023-08-05T06:00	1048	896	11.6	7.6	332	3
2023-08-05T06:00	1075	893	11.3		331	2
2023-08-05T06:00	1101	891	11.1	7.4	331	2
2023-08-05T06:00	1129	888	10.8	7.4	331	2
2023-08-05T06:00	1155	885	10.6	7.5	330	2
2023-08-05T06:00	1186	882	10.3	7.5	329	3
2023-08-05T06:00	1214	879	10.1	7.1	328	3
2023-08-05T06:00	1241	876	9.9	6.1	326	3
2023-08-05T06:00	1270	873	9.8	5.7	324	3
2023-08-05T06:00	1300	870	9.6	5.6	322	3
2023-08-05T06:00	1325	867	9.5	5.4	320	3
2023-08-05T06:00	1351	864	9.5	4.8	320	3
2023-08-05T06:00	1379	861	9.4	4.1	321	3
2023-08-05T06:00	1403	859	9.3	4.2	324	3
2023-08-05T06:00	1430	856	9.1	3.8	328	2
2023-08-05T06:00	1461	853	9.1	3.0	332	2
2023-08-05T06:00	1489	850	9.0		333	2
2023-08-05T06:00	1518	847	8.8	3.6	330	3
2023-08-05T06:00	1544	844	8.5	3.5	325	3
2023-08-05T06:00	1574	841	8.3	3.3	319	3
2023-08-05T06:00	1602	839	8.1		314	3
2023-08-05T06:00	1627	836	7.9	2.7	309	3
2023-08-05T06:00	1653	833	7.8	2.3	304	3
2023-08-05T06:00	1677	831	7.6	2.1	299	3
2023-08-05T06:00	1702	828	7.4	2.4	294	3
2023-08-05T06:00	1729	826	7.2	2.1	290	3
2023-08-05T06:00	1759	823	7.0	1.6	287	3
2023-08-05T06:00	1784	820	6.8	1.3	286	2
2023-08-05T06:00	1808	818	6.6	1.5	285	2
2023-08-05T06:00	1838	815	6.5	1.2	282	2
2023-08-05T06:00	1863	812	6.2	0.9	279	3
2023-08-05T06:00	1894	809	6.0	0.7	274	3
2023-08-05T06:00	1923	807	5.8	0.5	270	3
2023-08-05T06:00	1949	804	5.6	0.0	267	3
2023-08-05T06:00	1972	802	5.5	0.2	264	3
2023-08-05T06:00	1996	799	5.3	0.7	261	3
2023-08-05T06:00	2021	797	5.1	0.8	258	3
2023-08-05T06:00	2048	794	4.9	0.4	255	3
2023-08-05T06:00	2074	791	4.7	0.3	254	3
2023-08-05T06:00	2107	789	4.5	-0.3	253	3
2023-08-05T06:00	2133	786	4.3	-0.5	252	4
2023-08-05T06:00	2162	783	4.1	-0.5	251	4
2023-08-05T06:00	2194	780	3.9	-1.0	249	4
2023-08-05T06:00	2219	778	3.7	-1.2	245	4
2023-08-05T06:00	2245	775	3.6	-1.3	239	4
2023-08-05T06:00	2271	773	3.3	-1.1	232	4
2023-08-05T06:00	2297	770	3.2	-1.6	225	4
2023-08-05T06:00	2323	768	3.0	-1.8	220	4
2023-08-05T06:00	2349	765	2.8	-1.8	220	4
2023-08-05T06:00	2371	763	2.5	-1.7	224	4
2023-08-05T06:00	2400	761	2.3	-1.6	231	4
2023-08-05T06:00	2427	758	2.0	-1.8	239	4
2023-08-05T06:00	2456	755	1.8	-1.8	247	5
2023-08-05T06:00	2484	753	1.8	-2.4	253	5
2023-08-05T06:00	2509	750	1.7	-3.1	258	5
2023-08-05T06:00	2535	748	1.6	-3.1	260	5
2023-08-05T06:00	2562	745	1.5	-2.7	261	5
2023-08-05T06:00	2588	743	1.4	-2.2	260	5
2023-08-05T06:00	2610	741	1.3	-2.0	257	5
2023-08-05T06:00	2630	739	1.2	-1.4	253	5
2023-08-05T06:00	2654	737	1.1	-0.9	247	6
2023-08-05T06:00	2673	735	1.0	-0.7	243	6
2023-08-05T06:00	2700	733	1.1	-1.3	242	6
2023-08-05T06:00	2725	730	1.0	-1.1	242	7
2023-08-05T06:00	2752	728	0.9	-1.1	242	7
2023-08-05T06:00	2781	725	0.7	-1.5	243	7
2023-08-05T06:00	2811	723	0.6	-1.8	243	7
2023-08-05T06:00	2834	721	0.4	-1.8	243	7
2023-08-05T06:00	2855	719	0.2	-1.8	241	6
2023-08-05T06:00	2879	717	0.0	-1.9	239	6
2023-08-05T06:00	2906	714	-0.2	-1.8	236	6
2023-08-05T06:00	2928	712	-0.5	-2.1	233	6
2023-08-05T06:00	2953	710	-0.7	-2.1	229	6
2023-08-05T06:00	2974	708	-0.9	-2.1	225	6
2023-08-05T06:00	3000	706	-1.1	-2.2	222	6
2023-08-05T06:00	3030	703	-1.3	-2.3	220	6
2023-08-05T06:00	3057	701	-1.6	-2.3	218	6
2023-08-05T06:00	3079	699	-1.7	-2.3	216	6
2023-08-05T06:00	3105	697	-2.0	-2.4	214	6
2023-08-05T06:00	3125	695	-2.1	-2.4	210	6
2023-08-05T06:00	3150	693	-2.3	-2.7	206	6
2023-08-05T06:00	3179	690	-2.3	-2.9	203	6
2023-08-05T06:00	3208	688	-2.5	-3.0	200	6
2023-08-05T06:00	3233	685	-2.7	-3.1	198	6
2023-08-05T06:00	3257	683	-2.9	-3.1	197	7
2023-08-05T06:00	3285	681	-3.1	-3.3	196	7
2023-08-05T06:00	3315	678	-3.3	-3.5	196	6
2023-08-05T06:00	3345	676	-2.6	-4.4	196	6
2023-08-05T06:00	3365	674	-2.4	-4.6	197	6
2023-08-05T06:00	3390	672	-1.9	-5.3	198	6
2023-08-05T06:00	3412	670	-2.0	-5.3	200	6
2023-08-05T06:00	3435	668	-2.1	-5.5	202	6
2023-08-05T06:00	3458	666	-2.2	-5.5	204	6
2023-08-05T06:00	3484	664	-2.3	-6.2	206	6
2023-08-05T06:00	3509	662	-2.3	-6.3	207	6
2023-08-05T06:00	3537	660	-2.5	-5.9	208	6
2023-08-05T06:00	3564	658	-2.7	-5.9	209	6
2023-08-05T06:00	3591	655	-3.0	-6.2	210	7
2023-08-05T06:00	3615	653	-3.2	-6.2	212	7
2023-08-05T06:00	3642	651	-3.4	-6.4	214	7
2023-08-05T06:00	3665	649	-3.5	-6.5	216	7
2023-08-05T06:00	3692	647	-3.7	-6.5	216	7
2023-08-05T06:00	3716	645	-3.8	-6.2	216	7
2023-08-05T06:00	3743	643	-3.9	-6.6	214	7
2023-08-05T06:00	3771	641	-4.1	-6.8	211	7
2023-08-05T06:00	3796	639	-4.3	-6.9	209	8
2023-08-05T06:00	3820	637	-4.5	-7.0	207	8
2023-08-05T06:00	3845	635	-4.7	-7.5	208	8
2023-08-05T06:00	3872	632	-4.9	-7.8	209	8
2023-08-05T06:00	3901	630	-5.1	-8.0	212	8
2023-08-05T06:00	3926	628	-5.4	-8.4	215	8
2023-08-05T06:00	3948	626	-5.4	-9.4	217	8
2023-08-05T06:00	3976	624	-5.4	-9.6	218	8
2023-08-05T06:00	4000	622	-5.7		217	8
2023-08-05T06:00	4022	620	-5.7	-9.7	214	8
2023-08-05T06:00	4048	618	-5.8	-10.1	210	8
2023-08-05T06:00	4081	616	-6.0	-10.2	206	9
2023-08-05T06:00	4108	614	-6.1	-10.1	203	9
2023-08-05T06:00	4134	612	-6.1	-10.7	202	10
2023-08-05T06:00	4159	610	-6.1	-11.4	203	10
2023-08-05T06:00	4188	608	-6.3	-11.4	204	10
2023-08-05T06:00	4210	606	-6.5	-11.3	206	9
2023-08-05T06:00	4239	604	-6.7	-10.9	207	9
2023-08-05T06:00	4262	602	-6.9	-10.6	208	9
2023-08-05T06:00	4288	600	-7.1	-10.8	208	10
2023-08-05T06:00	4307	598	-6.8	-11.9	208	10
2023-08-05T06:00	4331	596	-6.9	-12.4	210	10
2023-08-05T06:00	4360	594	-7.1	-13.8	211	10
2023-08-05T06:00	4386	592	-7.3	-13.2	213	10
2023-08-05T06:00	4411	590	-7.5	-13.3	215	10
2023-08-05T06:00	4437	588	-7.7	-13.3	216	11
2023-08-05T06:00	4462	586	-7.8	-14.7	216	11
2023-08-05T06:00	4490	585	-8.0	-15.0	217	11
2023-08-05T06:00	4508	583	-8.1	-15.1	218	11
2023-08-05T06:00	4532	581	-8.2	-15.1	218	11
2023-08-05T06:00	4559	579	-8.4	-14.5	217	11
2023-08-05T06:00	4586	577	-8.6	-13.1	217	11
2023-08-05T06:00	4613	575	-8.6	-13.9	216	11
2023-08-05T06:00	4631	574	-8.7	-15.2	216	11
2023-08-05T06:00	4658	572	-8.9	-15.0	217	11
2023-08-05T06:00	4680	570	-9.1	-14.6	217	11
2023-08-05T06:00	4703	569	-9.2	-14.6	217	11
2023-08-05T06:00	4726	567	-9.4	-14.8	216	11
2023-08-05T06:00	4748	565	-9.5	-15.0	216	11
2023-08-05T06:00	4779	563	-9.6	-16.1	216	11
2023-08-05T06:00	4808	561	-9.7	-16.9	217	10
2023-08-05T06:00	4834	559	-9.9	-16.8	218	10
2023-08-05T06:00	4861	557	-10.1	-17.1	220	10
2023-08-05T06:00	4886	555	-10.3	-16.5	222	10
2023-08-05T06:00	4915	553	-10.3	-17.6	223	11
2023-08-05T06:00	4936	551	-10.3	-17.9	223	11
2023-08-05T06:00	4966	550	-10.4	-20.4	223	11
2023-08-05T06:00	4988	548	-10.5	-21.3	223	12
2023-08-05T06:00	5010	546	-10.7	-20.7	223	12
2023-08-05T06:00	5036	544	-10.9	-18.1	223	12
2023-08-05T06:00	5060	543	-11.1	-19.1	223	12
2023-08-05T06:00	5084	541	-11.2	-18.0	222	12
2023-08-05T06:00	5115	539	-11.5	-18.4	221	11
2023-08-05T06:00	5147	537	-11.7	-19.9	219	11
2023-08-05T06:00	5173	535	-11.8	-23.2	217	11
2023-08-05T06:00	5195	533	-12.0	-23.7	215	10
2023-08-05T06:00	5224	531	-12.1	-25.5	214	10
2023-08-05T06:00	5253	529	-12.3	-24.6	212	10
2023-08-05T06:00	5278	527	-12.5	-24.5	211	11
2023-08-05T06:00	5312	525	-12.7	-25.3	208	11
2023-08-05T06:00	5336	523	-12.9	-24.9	204	11
2023-08-05T06:00	5370	521	-13.1	-23.3	201	11
2023-08-05T06:00	5387	520	-13.2		199	11
2023-08-05T06:00	5415	518	-13.4	-25.6	198	12
2023-08-05T06:00	5441	516	-13.6	-25.4	199	12
2023-08-05T06:00	5465	515	-13.8	-25.1	199	12
2023-08-05T06:00	5497	513	-14.1	-23.2	199	13
2023-08-05T06:00	5533	510	-14.2	-22.1	197	13
2023-08-05T06:00	5558	508	-14.1	-23.9	196	14
2023-08-05T06:00	5584	507	-14.2	-24.1	195	14
2023-08-05T06:00	5613	505	-14.2	-23.1	196	15
2023-08-05T06:00	5640	503	-14.4	-22.3	197	15
2023-08-05T06:00	5670	501	-14.5	-22.4	199	16
2023-08-05T06:00	5696	499	-14.7	-21.9	201	17
2023-08-05T06:00	5723	498	-14.9	-21.7	203	17
2023-08-05T06:00	5749	496	-15.1	-21.6	203	17
2023-08-05T06:00	5775	494	-15.2	-21.2	203	17
2023-08-05T06:00	5807	492	-15.5	-20.7	202	17
2023-08-05T06:00	5845	490	-15.7	-19.5	202	17
2023-08-05T06:00	5873	488	-15.9	-19.1	201	17
2023-08-05T06:00	5900	486	-15.9	-18.8	201	17
2023-08-05T06:00	5926	484	-16.0	-18.7	201	17
2023-08-05T06:00	5955	483	-16.1	-18.6	201	17
2023-08-05T06:00	5978	481	-16.1	-19.6	201	18
2023-08-05T06:00	6007	479	-16.0	-19.8	201	18
2023-08-05T06:00	6039	477	-15.8	-17.4	201	18
2023-08-05T06:00	6063	475	-15.8	-18.0	201	19
2023-08-05T06:00	6093	474	-16.0	-17.9	201	19
2023-08-05T06:00	6126	472	-16.3	-17.9	201	19
2023-08-05T06:00	6151	470	-16.5	-18.2	201	19
2023-08-05T06:00	6176	469	-16.8	-18.3	201	19
2023-08-05T06:00	6201	467	-17.0	-18.3	201	19
2023-08-05T06:00	6230	465	-17.3	-18.5	201	20
2023-08-05T06:00	6263	463	-17.5	-18.7	202	21
2023-08-05T06:00	6289	462	-17.4	-19.0	203	21
2023-08-05T06:00	6311	460	-17.3	-19.0	204	21
2023-08-05T06:00	6342	458	-17.4	-19.3	205	21
2023-08-05T06:00	6366	457	-17.6	-19.3	204	21
2023-08-05T06:00	6389	455	-17.8	-19.4	204	21
2023-08-05T06:00	6420	454	-18.0	-19.6	202	21
2023-08-05T06:00	6444	452	-18.0	-19.8	201	22
2023-08-05T06:00	6481	450	-18.1	-20.6	201	22
2023-08-05T06:00	6500	449	-17.9	-20.8	200	22
2023-08-05T06:00	6528	447	-17.9	-21.2	201	22
2023-08-05T06:00	6555	445	-18.0	-21.1	202	22
2023-08-05T06:00	6583	444	-18.2	-21.3	203	22
2023-08-05T06:00	6613	442	-18.4	-21.3	205	22
2023-08-05T06:00	6637	440	-18.6	-21.5	206	22
2023-08-05T06:00	6661	439	-18.7	-21.4	207	22
2023-08-05T06:00	6694	437	-18.9	-21.7	208	22
2023-08-05T06:00	6719	436	-18.9	-22.3	209	22
2023-08-05T06:00	6741	434	-19.0	-23.2	209	22
2023-08-05T06:00	6766	433	-19.1	-23.3	209	22
2023-08-05T06:00	6791	431	-19.1	-23.3	209	23
2023-08-05T06:00	6828	429	-19.4	-23.5	209	23
2023-08-05T06:00	6856	428	-19.6	-23.5	210	23
2023-08-05T06:00	6877	427	-19.8	-23.6	210	23
2023-08-05T06:00	6900	425	-20.0	-23.5	209	24
2023-08-05T06:00	6923	424	-20.2	-23.5	209	24
2023-08-05T06:00	6949	422	-20.4	-23.5	208	25
2023-08-05T06:00	6976	421	-20.6	-23.4	208	26
2023-08-05T06:00	7006	419	-20.8	-23.5	207	26
2023-08-05T06:00	7032	418	-21.0	-23.8	207	26
2023-08-05T06:00	7060	416	-21.1	-24.2	206	26
2023-08-05T06:00	7083	415	-21.2	-24.7	205	26
2023-08-05T06:00	7116	413	-21.4	-25.4	205	26
2023-08-05T06:00	7145	411	-21.4	-25.6	205	26
2023-08-05T06:00	7170	410	-21.6	-25.6	205	27
2023-08-05T06:00	7197	408	-21.8	-25.5	205	27
2023-08-05T06:00	7228	407	-22.0	-25.5	206	27
2023-08-05T06:00	7253	405	-22.2	-25.4	206	28
2023-08-05T06:00	7281	404	-22.4	-25.5	207	28
2023-08-05T06:00	7305	403	-22.7	-25.6	206	28
2023-08-05T06:00	7331	401	-22.9	-25.6	206	28
2023-08-05T06:00	7363	399	-23.2	-25.8	206	28
2023-08-05T06:00	7391	398	-23.3	-25.9	206	29
2023-08-05T06:00	7414	397	-23.5	-26.0	206	29
2023-08-05T06:00	7439	395	-23.6	-26.1	206	29
2023-08-05T06:00	7472	393	-23.8	-26.5	206	29
2023-08-05T06:00	7501	392	-24.0	-26.8	206	29
2023-08-05T06:00	7531	390	-24.3	-26.9	205	29
2023-08-05T06:00	7552	389	-24.4	-27.1	204	29
2023-08-05T06:00	7578	388	-24.5	-27.3	203	30
2023-08-05T06:00	7606	386	-24.8	-27.7	203	30
2023-08-05T06:00	7628	385	-24.9	-27.7	203	30
2023-08-05T06:00	7650	384	-25.1	-27.8	203	30
2023-08-05T06:00	7678	382	-25.3	-28.2	203	30
2023-08-05T06:00	7708	381	-25.5	-28.6	204	30
2023-08-05T06:00	7731	380	-25.6	-28.6	204	30
2023-08-05T06:00	7755	378	-25.8	-28.8	204	30
2023-08-05T06:00	7778	377	-26.0	-28.9	204	29
2023-08-05T06:00	7804	376	-26.2	-29.0	203	29
2023-08-05T06:00	7834	374	-26.5	-29.3	203	30
2023-08-05T06:00	7863	373	-26.7	-29.4	203	30
2023-08-05T06:00	7887	372	-27.0	-29.7	203	30
2023-08-05T06:00	7917	370	-27.2	-29.7	202	30
2023-08-05T06:00	7943	369	-27.5	-29.7	202	30
2023-08-05T06:00	7967	367	-27.7	-30.2	202	30
2023-08-05T06:00	7994	366	-27.8	-30.8	202	29
2023-08-05T06:00	8020	365	-28.1	-30.8	203	29
2023-08-05T06:00	8053	363	-28.4	-30.8	202	29
2023-08-05T06:00	8079	362	-28.6	-31.5	202	29
2023-08-05T06:00	8108	360	-28.6	-31.5	201	29
2023-08-05T06:00	8135	359	-28.6	-31.5	200	30
2023-08-05T06:00	8161	358	-28.8	-31.5	200	30
2023-08-05T06:00	8192	356	-29.0	-31.8	200	31
2023-08-05T06:00	8221	355	-29.2	-32.1	200	32
2023-08-05T06:00	8246	353	-29.3	-32.2	201	32
2023-08-05T06:00	8275	352	-29.4	-32.5	202	33
2023-08-05T06:00	8303	351	-29.5	-32.9	203	34
2023-08-05T06:00	8331	349	-29.7	-33.3	205	35
2023-08-05T06:00	8365	348	-29.9	-33.7	206	35
2023-08-05T06:00	8387	346	-30.1	-33.9	207	35
2023-08-05T06:00	8417	345	-30.4	-34.2	208	35
2023-08-05T06:00	8438	344	-30.5	-34.2	208	35
2023-08-05T06:00	8462	343	-30.7	-34.4	208	34
2023-08-05T06:00	8495	341	-31.0	-34.6	208	34
2023-08-05T06:00	8520	340	-31.2	-35.0	208	34
2023-08-05T06:00	8547	339	-31.4	-35.4	207	34
2023-08-05T06:00	8579	337	-31.6	-35.4	206	34
2023-08-05T06:00	8607	336	-31.8	-35.7	206	35
2023-08-05T06:00	8630	335	-32.0	-36.1	205	35
2023-08-05T06:00	8656	334	-32.2	-35.9	205	35
2023-08-05T06:00	8687	332	-32.5	-36.0	205	36
2023-08-05T06:00	8717	331	-32.8		205	36
2023-08-05T06:00	8744	329	-33.0	-36.4	205	36
2023-08-05T06:00	8773	328	-33.2	-36.5	205	36
2023-08-05T06:00	8799	327	-33.4	-36.4	205	35
2023-08-05T06:00	8830	325	-33.7	-36.5	205	35
2023-08-05T06:00	8862	324	-33.9	-36.8	206	35
2023-08-05T06:00	8890	323	-34.2	-37.0	206	35
2023-08-05T06:00	8914	322	-34.4	-37.3	206	36
2023-08-05T06:00	8941	320	-34.6	-37.3	206	36
2023-08-05T06:00	8972	319	-34.8	-37.5	205	37
2023-08-05T06:00	8996	318	-35.0		205	37
2023-08-05T06:00	9020	317	-35.2	-38.0	205	37
2023-08-05T06:00	9048	315	-35.4	-38.2	204	37
2023-08-05T06:00	9075	314	-35.6	-38.3	204	37
2023-08-05T06:00	9103	313	-35.8	-38.6	204	37
2023-08-05T06:00	9134	312	-36.1	-38.7	204	37
2023-08-05T06:00	9161	310	-36.3	-38.8	205	37
2023-08-05T06:00	9190	309	-36.5	-38.9	205	37
2023-08-05T06:00	9220	308	-36.7	-39.2	205	38
2023-08-05T06:00	9246	307	-36.9	-39.7	205	38
2023-08-05T06:00	9270	306	-37.2	-39.9	205	38
2023-08-05T06:00	9297	304	-37.4	-40.0	204	38
2023-08-05T06:00	9327	303	-37.6	-40.5	203	39
2023-08-05T06:00	9359	302	-37.8	-40.7	203	39
2023-08-05T06:00	9393	300	-38.1	-41.0	203	40
2023-08-05T06:00	9428	299	-38.3	-41.1	202	41
2023-08-05T06:00	9459	297	-38.6	-41.3	202	41
2023-08-05T06:00	9489	296	-38.8	-41.4	202	42
2023-08-05T06:00	9520	295	-38.9	-41.8	202	43
2023-08-05T06:00	9547	293	-39.2	-41.9	201	43
2023-08-05T06:00	9580	292	-39.5	-42.0	201	43
2023-08-05T06:00	9610	291	-39.7	-42.2	200	43
2023-08-05T06:00	9634	290	-40.0	-42.5	200	43
2023-08-05T06:00	9661	289	-40.2	-42.9	199	42
2023-08-05T06:00	9687	288	-40.4	-42.8	199	42
2023-08-05T06:00	9714	286	-40.7	-43.1	199	42
2023-08-05T06:00	9744	285	-40.9	-43.8	199	42
2023-08-05T06:00	9768	284	-41.1	-44.1	199	42
2023-08-05T06:00	9793	283	-41.3		200	42
2023-08-05T06:00	9818	282	-41.5	-44.1	200	42
2023-08-05T06:00	9851	281	-41.8	-44.3	201	42
2023-08-05T06:00	9890	279	-42.1	-44.7	201	42
2023-08-05T06:00	9914	278	-42.3	-44.8	202	42
2023-08-05T06:00	9941	277	-42.5	-44.7	202	42
2023-08-05T06:00	9966	276	-42.7	-44.7	202	42
2023-08-05T06:00	9997	275	-43.0	-44.8	203	42
2023-08-05T06:00	10024	274	-43.3	-44.9	203	42
2023-08-05T06:00	10047	273	-43.5	-44.8	203	42
2023-08-05T06:00	10073	272	-43.7	-44.9	203	42
2023-08-05T06:00	10097	271	-43.9	-45.2	204	42
2023-08-05T06:00	10124	270	-44.1	-45.5	204	43
2023-08-05T06:00	10149	268	-44.3	-46.0	204	43
2023-08-05T06:00	10174	267	-44.4	-46.4	204	43
2023-08-05T06:00	10198	266	-44.6	-47.0	205	43
2023-08-05T06:00	10224	265	-44.8	-47.6	205	43
2023-08-05T06:00	10255	264	-45.0	-47.8	206	43
2023-08-05T06:00	10287	263	-45.3	-48.5	206	43
2023-08-05T06:00	10318	262	-45.5	-49.2	207	43
2023-08-05T06:00	10343	261	-45.7	-49.4	207	44
2023-08-05T06:00	10372	260	-45.9	-49.3	208	44
2023-08-05T06:00	10395	259	-46.2	-49.4	208	45
2023-08-05T06:00	10427	258	-46.5	-49.6	208	45
2023-08-05T06:00	10456	256	-46.7	-49.7	207	46
2023-08-05T06:00	10487	255	-46.9	-49.8	207	47
2023-08-05T06:00	10512	254	-47.1	-49.8	207	47
2023-08-05T06:00	10536	253	-47.3	-50.2	208	48
2023-08-05T06:00	10564	252	-47.4	-50.6	208	49
2023-08-05T06:00	10587	251	-47.5	-51.1	208	49
2023-08-05T06:00	10609	251	-47.6	-51.5	208	50
2023-08-05T06:00	10630	250	-47.7	-51.7	208	50
2023-08-05T06:00	10651	249	-47.8	-52.1	208	50
2023-08-05T06:00	10672	248	-47.9	-52.2	208	51
2023-08-05T06:00	10698	247	-48.1	-52.1	207	51
2023-08-05T06:00	10726	246	-48.3	-51.8	207	52
2023-08-05T06:00	10753	245	-48.5	-52.0	206	52
2023-08-05T06:00	10781	244	-48.4	-52.2	206	53
2023-08-05T06:00	10807	243	-48.6	-52.4	205	53
2023-08-05T06:00	10835	242	-48.8	-52.5	205	54
2023-08-05T06:00	10861	241	-49.0	-52.8	205	54
2023-08-05T06:00	10886	240	-49.2	-53.0	204	55
2023-08-05T06:00	10913	239	-49.5	-53.2	204	55
2023-08-05T06:00	10939	238	-49.7	-53.3	204	55
2023-08-05T06:00	10963	237	-49.9	-53.4	204	55
2023-08-05T06:00	10988	237	-50.2	-53.6	204	55
2023-08-05T06:00	11010	236	-50.3	-53.5	203	55
2023-08-05T06:00	11035	235	-50.5	-53.6	203	54
2023-08-05T06:00	11061	234	-50.8	-53.8	203	54
2023-08-05T06:00	11084	233	-50.9	-53.9	203	54
2023-08-05T06:00	11107	232	-51.1	-54.2	203	54
2023-08-05T06:00	11131	231	-51.2	-54.4	203	55
2023-08-05T06:00	11153	231	-51.3	-54.7	203	55
2023-08-05T06:00	11174	230	-51.5	-55.0	203	55
2023-08-05T06:00	11201	229	-51.7	-55.1	204	55
2023-08-05T06:00	11224	228	-51.9	-55.3	204	55
2023-08-05T06:00	11247	227	-52.0	-55.4	205	55
2023-08-05T06:00	11271	226	-52.2	-55.6	206	54
2023-08-05T06:00	11295	226	-52.4	-55.9	207	54
2023-08-05T06:00	11327	224	-52.1	-55.9	208	53
2023-08-05T06:00	11368	223	-51.8	-56.4	210	53
2023-08-05T06:00	11406	222	-51.5	-57.0	211	52
2023-08-05T06:00	11435	221	-51.7	-57.5	212	52
2023-08-05T06:00	11471	220	-52.0	-57.5	212	52
2023-08-05T06:00	11507	218	-52.4	-57.5	213	51
2023-08-05T06:00	11539	217	-52.7	-57.6	213	51
2023-08-05T06:00	11576	216	-52.9	-58.0	214	51
2023-08-05T06:00	11609	215	-53.0	-58.5	214	50
2023-08-05T06:00	11646	214	-53.4	-59.3	215	50
2023-08-05T06:00	11684	212	-53.6	-59.7	216	49
2023-08-05T06:00	11724	211	-53.9	-60.1	217	49
2023-08-05T06:00	11758	210	-54.2	-60.4	217	48
2023-08-05T06:00	11796	209	-54.5	-60.8	218	47
2023-08-05T06:00	11831	208	-54.7	-61.1	217	47
2023-08-05T06:00	11865	207	-55.1	-61.4	217	46
2023-08-05T06:00	11895	206	-55.3	-61.4	217	46
2023-08-05T06:00	11926	205	-55.7	-61.6	216	46
2023-08-05T06:00	11962	203	-55.9	-61.8	216	45
2023-08-05T06:00	11992	202	-56.3	-62.2	216	44
2023-08-05T06:00	12020	202	-56.5	-62.4	216	44
2023-08-05T06:00	12056	200	-56.7	-62.6	216	43
2023-08-05T06:00	12090	199	-57.0	-63.0	216	42
2023-08-05T06:00	12112	199	-57.2	-63.8	215	41
2023-08-05T06:00	12135	198	-57.2	-65.0	214	39
2023-08-05T06:00	12170	197	-56.9	-66.9	212	38
2023-08-05T06:00	12200	196	-56.5	-69.5	211	37
2023-08-05T06:00	12222	195	-55.9	-72.6	209	36
2023-08-05T06:00	12247	194	-54.9	-75.8	207	35
2023-08-05T06:00	12271	194	-54.0	-78.8	205	34
2023-08-05T06:00	12297	193	-53.1	-80.2	204	33
2023-08-05T06:00	12324	192	-52.6	-81.1	203	33
2023-08-05T06:00	12349	191	-51.8	-80.5	203	32
2023-08-05T06:00	12372	191	-51.1	-79.6	202	32
2023-08-05T06:00	12393	190	-51.0	-78.9	202	32
2023-08-05T06:00	12416	189	-51.1	-78.3	201	32
2023-08-05T06:00	12439	189	-50.9	-77.9	200	32
2023-08-05T06:00	12461	188	-50.9	-77.9	199	32
2023-08-05T06:00	12482	188	-50.8	-77.8	198	32
2023-08-05T06:00	12505	187	-51.0	-77.7	197	32
2023-08-05T06:00	12526	186	-51.1	-77.8	195	33
2023-08-05T06:00	12548	186	-51.2	-77.8	194	33
2023-08-05T06:00	12570	185	-51.2	-78.1	194	33
2023-08-05T06:00	12588	184	-51.1	-78.3	194	33
2023-08-05T06:00	12610	184	-50.4	-78.1	194	33
2023-08-05T06:00	12630	183	-50.0	-78.1	195	33
2023-08-05T06:00	12652	183	-49.5	-78.0	195	33
2023-08-05T06:00	12676	182	-49.0	-78.0	196	34
2023-08-05T06:00	12697	181	-48.6	-77.7	197	34
2023-08-05T06:00	12719	181	-48.5	-78.0	197	34
2023-08-05T06:00	12742	180	-48.4	-77.6	198	34
2023-08-05T06:00	12766	180	-48.4	-77.6	198	34
2023-08-05T06:00	12788	179	-48.6	-77.7	198	34
2023-08-05T06:00	12810	178	-48.8	-77.9	199	34
2023-08-05T06:00	12832	178	-48.9	-77.9	199	34
2023-08-05T06:00	12859	177	-49.1	-78.1	199	34
2023-08-05T06:00	12879	176	-49.4	-78.0	200	34
2023-08-05T06:00	12904	176	-49.5	-78.0	200	33
2023-08-05T06:00	12928	175	-49.7	-78.2	201	33
2023-08-05T06:00	12952	175	-49.7	-78.5	201	33
2023-08-05T06:00	12974	174	-49.8	-78.6	202	33
2023-08-05T06:00	12996	173	-49.8	-78.6	202	33
2023-08-05T06:00	13022	173	-50.0	-78.8	203	33
2023-08-05T06:00	13048	172	-50.1	-78.5	203	32
2023-08-05T06:00	13073	171	-50.3	-79.0	204	32
2023-08-05T06:00	13095	171	-50.4	-79.1	204	32
2023-08-05T06:00	13120	170	-50.6	-79.2	205	32
2023-08-05T06:00	13143	170	-50.6	-79.2	205	32
2023-08-05T06:00	13165	169	-50.8	-79.4	206	32
2023-08-05T06:00	13187	168	-50.8	-79.4	206	32
2023-08-05T06:00	13210	168	-50.7	-79.3	206	33
2023-08-05T06:00	13232	167	-50.8	-79.4	206	33
2023-08-05T06:00	13256	167	-50.7	-79.3	206	33
2023-08-05T06:00	13280	166	-50.6	-79.6	206	34
2023-08-05T06:00	13303	165	-50.6	-79.6	206	34
2023-08-05T06:00	13329	165	-50.6	-79.6	207	34
2023-08-05T06:00	13350	164	-50.6	-79.6	207	35
2023-08-05T06:00	13376	164	-50.7	-79.7	207	35
2023-08-05T06:00	13401	163	-50.8	-79.8	207	35
2023-08-05T06:00	13427	162	-50.8	-79.8	207	35
2023-08-05T06:00	13452	162	-51.0	-79.9	208	35
2023-08-05T06:00	13477	161	-51.1	-80.0	208	34
2023-08-05T06:00	13503	160	-51.0	-79.9	208	34
2023-08-05T06:00	13530	160	-50.9	-79.8	208	34
2023-08-05T06:00	13554	159	-50.8	-79.8	208	34
2023-08-05T06:00	13580	158	-50.9	-79.8	208	34
2023-08-05T06:00	13606	158	-50.9	-79.8	208	34
2023-08-05T06:00	13630	157	-50.9	-79.8	207	34
2023-08-05T06:00	13657	157	-51.0	-79.9	207	33
2023-08-05T06:00	13681	156	-51.0	-79.9	207	33
2023-08-05T06:00	13707	155	-51.0	-79.9	207	32
2023-08-05T06:00	13732	155	-51.2	-80.1	207	32
2023-08-05T06:00	13756	154	-51.4	-80.2	207	32
2023-08-05T06:00	13780	154	-51.5	-80.3	208	32
2023-08-05T06:00	13807	153	-51.4	-80.2	209	33
2023-08-05T06:00	13837	152	-51.2	-80.1	210	33
2023-08-05T06:00	13866	152	-51.1	-80.0	211	33
2023-08-05T06:00	13890	151	-51.2	-80.1	212	34
2023-08-05T06:00	13915	151	-51.2	-80.1	213	34
2023-08-05T06:00	13941	150	-51.3	-80.1	214	34
2023-08-05T06:00	13969	149	-51.0	-79.9	215	33
2023-08-05T06:00	13995	149	-51.1	-80.0	216	33
2023-08-05T06:00	14018	148	-51.2	-80.1	216	32
2023-08-05T06:00	14043	148	-51.3	-80.1	217	32
2023-08-05T06:00	14064	147	-51.4	-80.2	217	31
2023-08-05T06:00	14084	147	-51.3	-80.1	217	30
2023-08-05T06:00	14107	146	-51.4	-80.2	216	30
2023-08-05T06:00	14128	146	-51.4	-80.2	216	29
2023-08-05T06:00	14150	145	-51.4	-80.6	215	28
2023-08-05T06:00	14172	145	-51.3	-80.5	214	28
2023-08-05T06:00	14193	144	-51.1	-80.4	214	27
2023-08-05T06:00	14212	144	-50.8	-80.6	213	26
2023-08-05T06:00	14234	143	-50.5	-80.3	213	26
2023-08-05T06:00	14255	143	-50.0	-80.4	213	25
2023-08-05T06:00	14279	142	-49.4	-80.0	212	25
2023-08-05T06:00	14300	142	-49.3	-79.9	212	25
2023-08-05T06:00	14322	141	-49.0	-79.7	212	25
2023-08-05T06:00	14347	141	-49.1	-79.7	211	25
2023-08-05T06:00	14370	140	-49.2	-79.8	210	26
2023-08-05T06:00	14392	140	-49.4	-80.0	210	26
2023-08-05T06:00	14414	139	-49.6	-79.7	209	26
2023-08-05T06:00	14436	139	-49.7	-79.7	209	26
2023-08-05T06:00	14459	138	-49.7	-79.7	209	26
2023-08-05T06:00	14483	138	-49.8	-79.8	210	26
2023-08-05T06:00	14505	138	-49.7	-79.7	210	26
2023-08-05T06:00	14526	137	-49.7	-79.7	210	26
2023-08-05T06:00	14550	137	-49.9	-79.9	210	27
2023-08-05T06:00	14574	136	-50.0	-80.0	209	27
2023-08-05T06:00	14597	136	-50.1	-80.0	209	28
2023-08-05T06:00	14621	135	-50.1	-80.5	208	28
2023-08-05T06:00	14646	135	-50.0	-80.4	208	28
2023-08-05T06:00	14672	134	-49.9	-80.3	207	28
2023-08-05T06:00	14695	134	-49.9	-80.3	208	27
2023-08-05T06:00	14719	133	-49.8	-80.3	208	27
2023-08-05T06:00	14745	133	-50.0	-80.4	209	27
2023-08-05T06:00	14767	132	-50.1	-80.5	210	26
2023-08-05T06:00	14793	132	-50.1	-80.5	211	26
2023-08-05T06:00	14817	131	-50.1	-80.5	212	25
2023-08-05T06:00	14841	131	-50.0	-80.4	212	25
2023-08-05T06:00	14864	130	-49.9	-80.3	212	26
2023-08-05T06:00	14892	130	-49.9	-80.3	212	26
2023-08-05T06:00	14916	129	-50.0	-80.4	211	26
2023-08-05T06:00	14943	129	-50.0	-80.4	211	27
2023-08-05T06:00	14966	128	-50.1	-80.5	211	27
2023-08-05T06:00	14994	128	-50.1	-80.5	212	27
2023-08-05T06:00	15016	127	-50.1	-80.5	213	28
2023-08-05T06:00	15043	127	-50.3	-80.6	214	28
2023-08-05T06:00	15067	126	-50.4	-80.7	215	27
2023-08-05T06:00	15091	126	-50.4	-80.7	216	27
2023-08-05T06:00	15115	125	-50.4	-80.7	218	27
2023-08-05T06:00	15142	125	-50.2	-80.6	219	27
2023-08-05T06:00	15165	124	-50.3	-80.6	220	27
2023-08-05T06:00	15192	124	-50.4	-80.7	220	26
2023-08-05T06:00	15216	123	-50.5	-80.3	221	26
2023-08-05T06:00	15242	123	-50.7	-80.5	220	26
2023-08-05T06:00	15271	122	-50.9	-80.6	220	25
2023-08-05T06:00	15300	122	-50.8	-80.6	220	25
2023-08-05T06:00	15325	121	-50.8	-80.6	219	24
2023-08-05T06:00	15348	121	-50.9	-80.6	219	24
2023-08-05T06:00	15375	120	-51.0	-80.7	218	24
2023-08-05T06:00	15403	120	-51.2	-80.9	219	24
2023-08-05T06:00	15430	119	-51.2	-80.9	220	23
2023-08-05T06:00	15456	119	-51.2	-80.9	221	23
2023-08-05T06:00	15483	118	-51.3	-80.9	222	23
2023-08-05T06:00	15509	118	-51.2	-80.9	224	23
2023-08-05T06:00	15534	117	-51.2	-80.9	225	23
2023-08-05T06:00	15561	117	-51.2	-81.3	226	22
2023-08-05T06:00	15587	116	-51.1	-81.2	226	22
2023-08-05T06:00	15615	116	-51.0	-81.2	226	21
2023-08-05T06:00	15643	115	-51.0	-81.2	225	20
2023-08-05T06:00	15671	115	-51.0	-81.2	224	19
2023-08-05T06:00	15699	115	-51.0	-81.2	223	19
2023-08-05T06:00	15727	114	-50.8	-81.0	222	19
2023-08-05T06:00	15750	114	-50.6	-80.9	221	19
2023-08-05T06:00	15779	113	-50.5	-81.3	220	19
2023-08-05T06:00	15806	113	-50.5	-80.8	219	19
2023-08-05T06:00	15833	112	-50.6	-80.9	218	19
2023-08-05T06:00	15859	112	-50.9	-81.1	217	19
2023-08-05T06:00	15885	111	-51.0	-81.2	217	18
2023-08-05T06:00	15912	111	-51.0	-81.2	218	18
2023-08-05T06:00	15939	110	-50.6	-80.9	219	18
2023-08-05T06:00	15966	110	-50.5	-81.3	221	17
2023-08-05T06:00	15995	109	-50.6	-80.9	223	17
2023-08-05T06:00	16018	109	-50.8	-81.0	224	17
2023-08-05T06:00	16047	109	-51.0	-81.2	224	17
2023-08-05T06:00	16071	108	-51.0	-81.2	224	17
2023-08-05T06:00	16097	108	-51.1	-81.2	224	18
2023-08-05T06:00	16121	107	-51.0	-81.2	223	18
2023-08-05T06:00	16150	107	-51.1	-81.2	222	18
2023-08-05T06:00	16177	106	-51.2	-81.3	221	18
2023-08-05T06:00	16204	106	-51.4	-81.5	219	18
2023-08-05T06:00	16230	106	-51.5	-81.5	217	18
2023-08-05T06:00	16260	105	-51.3	-81.4	214	18
2023-08-05T06:00	16288	105	-51.2	-81.3	211	18
2023-08-05T06:00	16312	104	-51.3	-81.4	210	18
2023-08-05T06:00	16344	104	-51.5	-81.5	209	18
2023-08-05T06:00	16369	103	-51.6	-81.6	209	18
2023-08-05T06:00	16398	103	-51.5	-81.5	209	18
2023-08-05T06:00	16425	102	-51.2	-81.8	209	18
2023-08-05T06:00	16452	102	-50.8	-81.5	210	17
2023-08-05T06:00	16477	102	-50.6	-81.3	211	17
2023-08-05T06:00	16507	101	-50.7	-81.4	211	17
2023-08-05T06:00	16531	101	-50.7	-81.4	212	16
2023-08-05T06:00	16559	100	-50.9	-81.6	213	16
2023-08-05T06:00	16586	100	-51.1	-81.7	213	15
2023-08-05T06:00	16610	100	-51.3	-81.4	214	14
2023-08-05T06:00	16637	99	-51.5	-81.5	214	14
2023-08-05T06:00	16666	99	-51.7	-81.7	213	13
2023-08-05T06:00	16687	98	-51.8	-81.8	213	12
2023-08-05T06:00	16713	98	-51.8	-81.8	212	12
2023-08-05T06:00	16737	98	-51.7	-81.7	212	12
2023-08-05T06:00	16765	97	-51.6	-82.1	212	12
2023-08-05T06:00	16791	97	-51.5	-82.0	212	13
2023-08-05T06:00	16815	96	-51.5	-82.0	213	13
2023-08-05T06:00	16842	96	-51.7	-82.2	214	14
2023-08-05T06:00	16868	96	-51.9	-81.8	215	14
2023-08-05T06:00	16893	95	-52.0	-81.9	216	14
2023-08-05T06:00	16919	95	-52.2	-82.1	217	14
2023-08-05T06:00	16943	95	-52.4	-82.2	219	14
2023-08-05T06:00	16971	94	-52.6	-82.4	220	15
2023-08-05T06:00	16996	94	-52.8	-82.1	221	15
2023-08-05T06:00	17019	93	-53.0	-82.2	222	14
2023-08-05T06:00	17041	93	-53.1	-82.3	222	14
2023-08-05T06:00	17066	93	-53.2	-82.4	222	14
2023-08-05T06:00	17089	92	-53.4	-82.5	221	14
2023-08-05T06:00	17117	92	-53.5	-82.6	219	13
2023-08-05T06:00	17144	92	-53.5	-82.6	216	13
2023-08-05T06:00	17167	91	-53.3	-82.9	213	12
2023-08-05T06:00	17193	91	-53.5	-82.6	210	12
2023-08-05T06:00	17219	91	-53.7	-82.8	208	12
2023-08-05T06:00	17244	90	-53.9	-82.9	206	12
2023-08-05T06:00	17267	90	-54.1	-83.1	204	12
2023-08-05T06:00	17290	90	-54.2	-83.1	204	13
2023-08-05T06:00	17313	89	-54.2	-83.1	205	13
2023-08-05T06:00	17336	89	-53.9	-82.9	206	13
2023-08-05T06:00	17361	89	-54.0	-83.0	207	14
2023-08-05T06:00	17385	88	-54.2	-83.1	209	14
2023-08-05T06:00	17407	88	-54.3	-83.2	210	14
2023-08-05T06:00	17432	88	-54.4	-83.3	211	15
2023-08-05T06:00	17455	87	-54.6	-83.4	211	15
2023-08-05T06:00	17477	87	-54.7	-83.5	212	16
2023-08-05T06:00	17500	87	-54.7	-83.5	214	16
2023-08-05T06:00	17521	86	-54.9	-83.7	215	16
2023-08-05T06:00	17543	86	-54.8	-83.6	217	16
2023-08-05T06:00	17567	86	-54.8	-83.6	218	16
2023-08-05T06:00	17591	86	-54.5	-83.4	220	15
2023-08-05T06:00	17608	85	-54.2	-83.6	221	15
2023-08-05T06:00	17632	85	-54.2	-83.6	222	14
2023-08-05T06:00	17656	85	-54.2	-83.6	222	13
2023-08-05T06:00	17677	84	-54.1	-83.5	221	12
2023-08-05T06:00	17701	84	-53.8	-83.7	220	12
2023-08-05T06:00	17726	84	-53.5	-83.5	218	11
2023-08-05T06:00	17750	83	-53.3		216	10
2023-08-05T06:00	17777	83	-52.8	-83.5	213	9
2023-08-05T06:00	17798	83	-52.5	-83.3	212	9
2023-08-05T06:00	17822	82	-52.2	-83.1	211	9
2023-08-05T06:00	17846	82	-51.9	-82.8	211	8
2023-08-05T06:00	17871	82	-52.0	-82.9	209	8
2023-08-05T06:00	17906	81	-52.0	-82.9	206	8
2023-08-05T06:00	17932	81	-51.8	-82.8	202	7
2023-08-05T06:00	17959	81	-51.8	-82.8	197	7
2023-08-05T06:00	17983	80	-51.8	-82.8	194	7
2023-08-05T06:00	18010	80	-51.6	-82.6	193	7
2023-08-05T06:00	18036	80	-51.6	-82.6	194	8
2023-08-05T06:00	18058	79	-51.6	-82.6	197	8
2023-08-05T06:00	18088	79	-51.7	-82.7	200	8
2023-08-05T06:00	18111	79	-51.8	-82.8	202	9
2023-08-05T06:00	18146	78	-51.8	-82.8	203	10
2023-08-05T06:00	18171	78	-51.9	-82.8	205	10
2023-08-05T06:00	18199	78	-51.9	-82.8	205	11
2023-08-05T06:00	18223	78	-51.9	-82.8	206	11
2023-08-05T06:00	18250	77	-51.7	-82.7	206	11
2023-08-05T06:00	18279	77	-51.6	-82.6	205	12
2023-08-05T06:00	18304	77	-51.7	-82.7	204	12
2023-08-05T06:00	18336	76	-51.8	-82.8	202	11
2023-08-05T06:00	18362	76	-51.7	-82.7	201	11
2023-08-05T06:00	18390	76	-51.7	-82.7	201	11
2023-08-05T06:00	18417	75	-51.8	-82.8	203	11
2023-08-05T06:00	18443	75	-51.7	-82.7	204	10
2023-08-05T06:00	18472	75	-51.7	-82.7	205	10
2023-08-05T06:00	18501	74	-51.7	-82.7	206	10
2023-08-05T06:00	18526	74	-51.7	-82.7	205	10
2023-08-05T06:00	18555	74	-51.6	-82.6	204	10
2023-08-05T06:00	18585	73	-51.8	-82.8	203	11
2023-08-05T06:00	18612	73	-52.1	-82.5	202	11
2023-08-05T06:00	18640	73	-52.3	-82.6	202	12
2023-08-05T06:00	18665	72	-52.5	-82.8	202	12
2023-08-05T06:00	18691	72	-52.6	-82.8	202	12
2023-08-05T06:00	18716	72	-52.6	-82.8	202	12
2023-08-05T06:00	18746	72	-52.3	-83.1	202	12
2023-08-05T06:00	18768	71	-52.0	-82.9	203	11
2023-08-05T06:00	18800	71	-51.9	-82.8	204	11
2023-08-05T06:00	18821	71	-51.9	-82.8	206	10
2023-08-05T06:00	18850	70	-52.0	-82.9	208	9
2023-08-05T06:00	18878	70	-52.1	-83.0	210	9
2023-08-05T06:00	18904	70	-52.2	-83.1	212	9
2023-08-05T06:00	18929	70	-52.2	-83.1	213	8
2023-08-05T06:00	18952	69	-52.1	-83.0	214	8
2023-08-05T06:00	18979	69	-51.8	-82.8	214	9
2023-08-05T06:00	19007	69	-51.7	-82.7	214	9
2023-08-05T06:00	19034	68	-51.7	-82.7	215	9
2023-08-05T06:00	19059	68	-51.7	-82.7	217	9
2023-08-05T06:00	19083	68	-51.5	-82.5	220	9
2023-08-05T06:00	19107	68	-51.5	-82.5	224	9
2023-08-05T06:00	19134	67	-51.6	-82.6	227	9
2023-08-05T06:00	19157	67	-51.7	-82.7	230	9
2023-08-05T06:00	19181	67	-51.7	-82.7	232	8
2023-08-05T06:00	19211	67	-51.7	-82.7	232	8
2023-08-05T06:00	19235	66	-51.6	-82.6	231	7
2023-08-05T06:00	19260	66	-51.5	-82.5	229	7
2023-08-05T06:00	19282	66	-51.5	-82.5	226	6
2023-08-05T06:00	19309	66	-51.5	-82.5	223	5
2023-08-05T06:00	19332	65	-51.6	-82.6	220	5
2023-08-05T06:00	19360	65	-51.8	-82.8	218	4
2023-08-05T06:00	19386	65	-51.9	-82.8	216	3
2023-08-05T06:00	19415	65	-51.7	-82.7	213	2
2023-08-05T06:00	19438	64	-51.2	-82.9	209	2
2023-08-05T06:00	19465	64	-51.1	-82.8	196	1
2023-08-05T06:00	19495	64	-51.0	-82.7	156	1
2023-08-05T06:00	19522	63	-51.0	-82.7	101	1
2023-08-05T06:00	19547	63	-51.1	-82.2	82	1
2023-08-05T06:00	19575	63	-51.2	-82.3	77	2
2023-08-05T06:00	19601	63	-51.3	-82.4	77	2
2023-08-05T06:00	19632	62	-51.5	-82.5	80	3
2023-08-05T06:00	19659	62	-51.7	-82.7	84	4
2023-08-05T06:00	19685	62	-51.8	-82.8	89	4
2023-08-05T06:00	19709	62	-51.9	-82.3	93	5
2023-08-05T06:00	19738	61	-52.1	-82.5	98	5
2023-08-05T06:00	19765	61	-52.2	-82.5	105	6
2023-08-05T06:00	19789	61	-52.3	-82.6	113	6
2023-08-05T06:00	19816	61	-52.4	-82.7	122	6
2023-08-05T06:00	19841	60	-52.4	-83.2	131	7
2023-08-05T06:00	19867	60	-52.3	-83.1	139	7
2023-08-05T06:00	19896	60	-52.1	-83.0	145	8
2023-08-05T06:00	19926	60	-51.9	-82.8	149	8
2023-08-05T06:00	19954	59	-51.9	-82.8	151	9
2023-08-05T06:00	19977	59	-51.6	-82.6	151	10
2023-08-05T06:00	20006	59	-51.4	-82.5	152	11
2023-08-05T06:00	20032	59	-51.4	-82.5	152	11
2023-08-05T06:00	20060	58	-51.6	-82.6	153	12
2023-08-05T06:00	20087	58	-51.7	-82.7	155	12
2023-08-05T06:00	20116	58	-51.9	-82.8	158	12
2023-08-05T06:00	20146	58	-51.8	-82.8	161	11
2023-08-05T06:00	20176	57	-51.7	-82.7	166	11
2023-08-05T06:00	20209	57	-51.7	-82.7	171	10
2023-08-05T06:00	20237	57	-51.8	-82.8	178	10
2023-08-05T06:00	20266	57	-52.0	-82.9	184	10
2023-08-05T06:00	20296	56	-52.2	-83.1	190	9
2023-08-05T06:00	20325	56	-52.2	-83.1	196	9
2023-08-05T06:00	20354	56	-52.4	-83.2	202	9
2023-08-05T06:00	20382	56	-52.2	-83.1	207	8
2023-08-05T06:00	20413	55	-52.1	-83.0	211	8
2023-08-05T06:00	20437	55	-52.1	-83.0	215	7
2023-08-05T06:00	20466	55	-52.1	-83.0	218	7
2023-08-05T06:00	20492	55	-52.2	-83.1	221	6
2023-08-05T06:00	20524	54	-52.4	-83.2	225	5
2023-08-05T06:00	20551	54	-52.5	-83.3	227	4
2023-08-05T06:00	20578	54	-52.4	-83.2	226	3
2023-08-05T06:00	20607	54	-52.0	-82.9	215	2
2023-08-05T06:00	20633	53	-51.8	-82.8	185	1
2023-08-05T06:00	20665	53	-51.8	-82.8	154	2
2023-08-05T06:00	20690	53	-51.9	-82.8	142	3
2023-08-05T06:00	20716	53	-51.8	-82.8	137	3
2023-08-05T06:00	20747	53	-51.8	-82.8	137	4
2023-08-05T06:00	20773	52	-51.9	-82.8	137	5
2023-08-05T06:00	20805	52	-52.0	-82.9	136	5
2023-08-05T06:00	20828	52	-52.1	-83.0	134	6
2023-08-05T06:00	20856	52	-52.2	-83.1	132	6
2023-08-05T06:00	20889	51	-52.3	-83.1	128	6
2023-08-05T06:00	20918	51	-52.2	-83.1	126	6
2023-08-05T06:00	20945	51	-52.3	-83.1	125	6
2023-08-05T06:00	20971	51	-52.2	-83.1	125	6
2023-08-05T06:00	20997	51	-52.1	-83.0	127	7
2023-08-05T06:00	21031	50	-52.2	-83.1	130	7
2023-08-05T06:00	21058	50	-52.4	-83.2	133	7
2023-08-05T06:00	21084	50	-52.5	-83.3	137	8
2023-08-05T06:00	21113	50	-52.4	-83.2	140	8
2023-08-05T06:00	21142	49	-52.5	-83.3	144	8
2023-08-05T06:00	21169	49	-52.6	-83.3	147	8
2023-08-05T06:00	21197	49	-52.5	-83.3	150	8
2023-08-05T06:00	21226	49	-52.6	-83.3	152	9
2023-08-05T06:00	21254	49	-52.7	-83.4	155	9
2023-08-05T06:00	21283	48	-52.6	-83.3	158	10
2023-08-05T06:00	21308	48	-52.5	-83.3	160	10
2023-08-05T06:00	21336	48	-52.7	-83.4	163	10
2023-08-05T06:00	21367	48	-52.8	-83.5	164	9
2023-08-05T06:00	21395	48	-52.4	-83.2	166	9
2023-08-05T06:00	21423	47	-52.2	-83.1	167	8
2023-08-05T06:00	21452	47	-52.2	-83.6	168	7
2023-08-05T06:00	21479	47	-52.1	-83.5	169	6
2023-08-05T06:00	21512	47	-51.9	-83.4	169	6
2023-08-05T06:00	21535	46	-51.7	-83.2	169	6
2023-08-05T06:00	21561	46	-51.6	-83.2	167	6
2023-08-05T06:00	21592	46	-51.8	-82.8	165	6
2023-08-05T06:00	21618	46	-52.0	-82.9	163	6
2023-08-05T06:00	21649	46	-52.2	-83.1	162	6
2023-08-05T06:00	21681	45	-52.3	-83.1	162	7
2023-08-05T06:00	21705	45	-52.5	-82.8	163	7
2023-08-05T06:00	21735	45	-52.7	-82.9	165	7
2023-08-05T06:00	21764	45	-52.9	-83.1	166	7
2023-08-05T06:00	21792	45	-53.1	-83.2	168	8
2023-08-05T06:00	21826	44	-53.3		169	8
2023-08-05T06:00	21849	44	-53.4	-83.4	169	8
2023-08-05T06:00	21883	44	-53.5	-83.5	168	8
2023-08-05T06:00	21910	44	-53.5	-84.0	167	8
2023-08-05T06:00	21934	44	-53.3	-83.9	166	8
2023-08-05T06:00	21966	44	-53.0	-83.6	165	7
2023-08-05T06:00	21990	43	-52.9	-83.6	166	7
2023-08-05T06:00	22019	43	-52.9	-83.6	168	6
2023-08-05T06:00	22048	43	-53.0	-83.6	171	5
2023-08-05T06:00	22074	43	-53.1	-83.7	174	5
2023-08-05T06:00	22108	43	-53.1	-83.7	175	4
2023-08-05T06:00	22137	42	-53.1	-83.7	173	3
2023-08-05T06:00	22165	42	-53.1	-83.7	164	3
2023-08-05T06:00	22195	42	-53.0	-83.6	147	2
2023-08-05T06:00	22221	42	-52.8	-83.5	131	2
2023-08-05T06:00	22249	42	-52.7	-84.0	125	3
2023-08-05T06:00	22280	41	-52.6	-83.9	126	3
2023-08-05T06:00	22308	41	-52.2	-83.6	130	4
2023-08-05T06:00	22335	41	-52.1	-83.5	133	5
2023-08-05T06:00	22363	41	-52.2	-83.1	136	6
2023-08-05T06:00	22397	41	-52.4	-83.2	137	7
2023-08-05T06:00	22421	41	-52.6	-83.3	138	8
2023-08-05T06:00	22454	40	-52.8	-83.5	139	9
2023-08-05T06:00	22484	40	-53.0	-83.6	140	9
2023-08-05T06:00	22515	40	-52.9	-83.6	141	9
2023-08-05T06:00	22540	40	-52.6	-83.3	141	8
2023-08-05T06:00	22572	40	-52.6	-83.3	140	8
2023-08-05T06:00	22599	39	-52.5	-83.8	139	7
2023-08-05T06:00	22627	39	-52.3	-83.7	136	6
2023-08-05T06:00	22658	39	-52.1	-83.5	133	5
2023-08-05T06:00	22688	39	-52.0	-83.5	130	5
2023-08-05T06:00	22721	39	-52.1	-83.5	127	4
2023-08-05T06:00	22746	39	-52.1	-83.5	126	5
2023-08-05T06:00	22774	38	-52.2	-83.6	126	5
2023-08-05T06:00	22798	38	-52.0	-83.5	128	6
2023-08-05T06:00	22835	38	-51.8	-83.3	130	6
2023-08-05T06:00	22861	38	-51.8	-83.3	133	7
2023-08-05T06:00	22894	38	-51.9	-83.4	137	7
2023-08-05T06:00	22924	38	-52.0	-83.5	142	7
2023-08-05T06:00	22953	37	-52.0	-83.5	147	8
2023-08-05T06:00	22981	37	-51.9	-83.4	153	8
2023-08-05T06:00	23009	37	-51.7	-83.2	157	8
2023-08-05T06:00	23037	37	-51.5	-83.1	161	9
2023-08-05T06:00	23066	37	-51.6	-83.2	165	9
2023-08-05T06:00	23099	37	-51.7	-83.2	169	9
2023-08-05T06:00	23124	36	-51.6	-83.2	173	9
2023-08-05T06:00	23154	36	-51.4	-83.0	176	9
2023-08-05T06:00	23183	36	-51.1	-82.8	179	9
2023-08-05T06:00	23211	36	-51.0	-82.7	180	8
2023-08-05T06:00	23245	36	-51.1	-82.8	180	8
2023-08-05T06:00	23268	36	-51.3	-82.9	179	7
2023-08-05T06:00	23301	35	-51.3	-82.9	178	7
2023-08-05T06:00	23334	35	-51.4	-83.0	178	7
2023-08-05T06:00	23362	35	-51.2	-82.9	178	7
2023-08-05T06:00	23389	35	-51.2	-82.9	180	6
2023-08-05T06:00	23420	35	-51.2	-82.9	182	6
2023-08-05T06:00	23451	35	-51.2	-82.9	184	6
2023-08-05T06:00	23487	34	-51.3	-82.9	187	5
2023-08-05T06:00	23515	34	-51.2	-82.9	189	4
2023-08-05T06:00	23543	34	-51.0	-82.7	188	3
2023-08-05T06:00	23573	34	-50.9	-83.3	182	2
2023-08-05T06:00	23608	34	-50.8	-83.2	144	1
2023-08-05T06:00	23644	34	-50.7	-83.1	77	1
2023-08-05T06:00	23674	33	-50.4	-82.9	64	2
2023-08-05T06:00	23706	33	-50.0	-82.6	64	2
2023-08-05T06:00	23735	33	-49.9	-82.5	68	3
2023-08-05T06:00	23769	33	-49.9	-82.5	76	3
2023-08-05T06:00	23793	33	-49.9	-82.5	87	2
2023-08-05T06:00	23825	33	-50.0	-82.6	100	2
2023-08-05T06:00	23859	32	-50.0	-82.6	114	2
2023-08-05T06:00	23894	32	-50.0	-82.6	127	2
2023-08-05T06:00	23929	32	-50.1	-82.7	136	1
2023-08-05T06:00	23956	32	-50.1	-82.7	129	0
2023-08-05T06:00	23984	32	-50.0	-82.6	336	1
2023-08-05T06:00	24014	32	-50.0	-82.6	340	2
2023-08-05T06:00	24049	32	-49.9	-82.5	345	3
2023-08-05T06:00	24078	31	-49.7	-82.4	351	4
2023-08-05T06:00	24111	31	-49.7	-82.4	358	4
2023-08-05T06:00	24142	31	-49.6	-82.3	6	4
2023-08-05T06:00	24177	31	-49.7	-82.4	16	5
2023-08-05T06:00	24204	31	-49.7	-82.4	25	5
2023-08-05T06:00	24234	31	-49.7	-82.4	33	5
2023-08-05T06:00	24271	31	-49.7	-82.4	39	5
2023-08-05T06:00	24300	30	-49.6	-82.3	43	5
2023-08-05T06:00	24336	30	-49.6	-82.3	48	5
2023-08-05T06:00	24358	30	-49.7	-82.4	54	5
2023-08-05T06:00	24393	30	-49.7	-82.4	63	5
2023-08-05T06:00	24424	30	-49.7	-82.4	73	4
2023-08-05T06:00	24459	30	-49.8	-82.5	81	4
2023-08-05T06:00	24484	30	-49.8	-82.5	87	5
2023-08-05T06:00	24522	29	-49.9	-82.5	88	5
2023-08-05T06:00	24547	29	-49.8	-82.5	86	5
2023-08-05T06:00	24580	29	-49.8	-82.5	83	6
2023-08-05T06:00	24612	29	-49.7	-82.4	81	6
2023-08-05T06:00	24647	29	-49.6	-82.3	81	7
2023-08-05T06:00	24669	29	-49.5	-82.3	82	8
2023-08-05T06:00	24709	29	-49.5	-82.3	83	8
2023-08-05T06:00	24728	28	-49.6	-82.3	84	9
2023-08-05T06:00	24762	28	-49.6	-82.3	84	9
2023-08-05T06:00	24790	28	-49.4	-82.2	84	10
2023-08-05T06:00	24822	28	-49.2	-82.0	83	10
2023-08-05T06:00	24846	28	-49.1	-82.0	83	11
2023-08-05T06:00	24879	28	-49.0	-81.9	84	11
2023-08-05T06:00	24913	28	-49.1	-82.0	86	11
2023-08-05T06:00	24934	28	-49.2	-82.0	90	11
2023-08-05T06:00	24962	27	-49.0	-81.9	93	11
2023-08-05T06:00	24997	27	-49.0	-81.9	97	11
2023-08-05T06:00	25021	27	-49.1	-82.0	100	11
2023-08-05T06:00	25045	27	-49.3	-82.1	104	11
2023-08-05T06:00	25082	27	-49.5	-82.3	107	11
2023-08-05T06:00	25105	27	-49.7	-82.4	111	10
2023-08-05T06:00	25127	27	-49.8	-82.5	114	10
2023-08-05T06:00	25155	27	-49.9	-82.5	118	10
2023-08-05T06:00	25188	27	-50.0	-82.6	121	9
2023-08-05T06:00	25213	26	-50.0	-82.6	123	8
2023-08-05T06:00	25242	26	-50.1	-82.7	124	8
2023-08-05T06:00	25277	26	-50.1	-82.7	124	7
2023-08-05T06:00	25302	26	-50.1	-82.7	123	6
2023-08-05T06:00	25331	26	-50.0	-82.6	120	6
2023-08-05T06:00	25359	26	-49.9	-82.5	115	6
2023-08-05T06:00	25388	26	-49.9	-82.5	110	6
2023-08-05T06:00	25414	26	-49.8	-82.5	103	6
2023-08-05T06:00	25442	26	-49.8	-82.5	98	7
2023-08-05T06:00	25475	25	-49.9	-82.5	93	7
2023-08-05T06:00	25508	25	-49.9	-82.5	89	7
2023-08-05T06:00	25537	25	-49.9	-82.5	87	7
2023-08-05T06:00	25562	25	-50.0	-82.6	87	7
2023-08-05T06:00	25592	25	-50.0	-82.6	89	7
2023-08-05T06:00	25629	25	-49.9	-82.5	93	7
2023-08-05T06:00	25660	25	-50.0	-82.6	97	7
2023-08-05T06:00	25683	25	-50.0	-82.6	101	6
2023-08-05T06:00	25711	24	-50.1	-82.7	105	6
2023-08-05T06:00	25745	24	-50.1	-82.7	108	5
2023-08-05T06:00	25778	24	-49.9	-82.5	110	5
2023-08-05T06:00	25807	24	-49.9	-82.5	109	4
2023-08-05T06:00	25836	24	-49.7	-82.4	103	4
2023-08-05T06:00	25869	24	-49.5	-82.9	92	4
2023-08-05T06:00	25903	24	-49.4	-82.9	80	4
2023-08-05T06:00	25930	24	-49.1	-82.7	72	5
2023-08-05T06:00	25967	24	-48.9	-82.5	70	5
2023-08-05T06:00	25994	23	-48.8	-82.4	71	6
2023-08-05T06:00	26022	23	-48.7	-82.4	74	6
2023-08-05T06:00	26053	23	-48.8	-82.4	77	6
2023-08-05T06:00	26096	23	-48.9	-82.5	80	6
2023-08-05T06:00	26116	23	-48.9	-81.8	81	6
2023-08-05T06:00	26144	23	-48.9	-81.8	80	6
2023-08-05T06:00	26182	23	-49.0	-81.9	79	6
2023-08-05T06:00	26205	23	-49.0	-81.9	77	6
2023-08-05T06:00	26241	23	-49.0	-81.9	76	6
2023-08-05T06:00	26276	22	-49.1	-82.0	77	6
2023-08-05T06:00	26296	22	-49.1	-82.0	78	6
2023-08-05T06:00	26332	22	-49.2	-82.0	80	6
2023-08-05T06:00	26368	22	-49.3	-82.1	81	6
2023-08-05T06:00	26389	22	-49.4	-82.2	83	6
2023-08-05T06:00	26425	22	-49.4	-82.2	84	7
2023-08-05T06:00	26448	22	-49.3	-82.8	87	7
2023-08-05T06:00	26486	22	-49.0	-82.6	90	7
2023-08-05T06:00	26518	22	-48.7	-82.4	94	7
2023-08-05T06:00	26541	22	-48.6	-82.3	98	7
2023-08-05T06:00	26574	21	-48.5	-82.2	101	7
2023-08-05T06:00	26598	21	-48.5	-82.2	103	7
2023-08-05T06:00	26627	21	-48.5	-82.2	103	6
2023-08-05T06:00	26665	21	-48.5	-82.2	101	6
2023-08-05T06:00	26687	21	-48.5	-82.2	97	6
2023-08-05T06:00	26719	21	-48.4	-82.2	93	6
2023-08-05T06:00	26746	21	-48.4	-82.2	90	5
2023-08-05T06:00	26777	21	-48.3	-82.1	90	5
2023-08-05T06:00	26805	21	-48.1	-81.9	91	5
2023-08-05T06:00	26834	21	-47.9	-81.8	93	5
2023-08-05T06:00	26864	21	-47.7	-81.6	93	5
2023-08-05T06:00	26882	20	-47.7	-81.6	89	5
2023-08-05T06:00	26916	20	-47.6	-81.6	83	6
2023-08-05T06:00	26938	20	-47.5	-81.5	77	6
2023-08-05T06:00	26975	20	-47.5	-81.5	73	7
2023-08-05T06:00	27001	20	-47.5	-81.5	71	7
2023-08-05T06:00	27040	20	-47.5	-81.5	71	7
2023-08-05T06:00	27060	20	-47.5	-81.5	72	7
2023-08-05T06:00	27085	20	-47.5	-81.5	75	7
2023-08-05T06:00	27113	20	-47.4	-81.4	78	6
2023-08-05T06:00	27147	20	-47.4	-81.4	83	6
2023-08-05T06:00	27180	20	-47.3	-81.4	87	5
2023-08-05T06:00	27201	20	-47.2	-81.3	89	4
2023-08-05T06:00	27235	19	-47.2	-81.3	87	4
2023-08-05T06:00	27272	19	-47.2	-81.3	80	3
2023-08-05T06:00	27294	19	-47.1	-81.2	69	3
2023-08-05T06:00	27320	19	-46.9	-81.9	60	4
2023-08-05T06:00	27354	19	-46.8	-81.8	56	5
2023-08-05T06:00	27389	19	-46.7	-80.9	54	6
2023-08-05T06:00	27423	19	-46.8	-81.0	54	7
2023-08-05T06:00	27456	19	-47.0	-81.1	55	8
2023-08-05T06:00	27488	19	-47.3	-81.4	55	8
2023-08-05T06:00	27519	19	-47.5	-81.5	55	9
2023-08-05T06:00	27550	19	-47.6	-81.6	54	9
2023-08-05T06:00	27576	18	-47.5	-81.5	52	9
2023-08-05T06:00	27620	18	-47.2	-81.3	50	8
2023-08-05T06:00	27643	18	-47.2	-81.3	48	7
2023-08-05T06:00	27675	18	-47.1	-82.0	47	7
2023-08-05T06:00	27709	18	-46.9	-81.9	46	7
2023-08-05T06:00	27745	18	-46.7	-81.7	47	7
2023-08-05T06:00	27773	18	-46.5	-81.6	49	7
2023-08-05T06:00	27800	18	-46.3	-81.4	51	8
2023-08-05T06:00	27833	18	-46.4	-81.5	52	9
2023-08-05T06:00	27871	18	-46.4	-81.5	54	10
2023-08-05T06:00	27900	18	-46.4	-81.5	55	11
2023-08-05T06:00	27928	17	-46.3	-81.4	56	12
2023-08-05T06:00	27962	17	-46.4	-81.5	57	12
2023-08-05T06:00	28000	17	-46.3	-81.4	58	13
2023-08-05T06:00	28026	17	-46.2	-81.4	60	13
2023-08-05T06:00	28070	17	-46.3	-81.4	62	13
2023-08-05T06:00	28101	17	-46.5	-81.6	64	13
2023-08-05T06:00	28134	17	-46.7	-80.9	67	13
2023-08-05T06:00	28153	17	-46.9	-81.1	70	13
2023-08-05T06:00	28207	17	-47.0	-81.1	73	13
2023-08-05T06:00	28228	17	-47.0	-81.1	76	13
2023-08-05T06:00	28267	17	-46.9	-81.1	80	13
2023-08-05T06:00	28300	17	-46.9	-81.1	83	14
2023-08-05T06:00	28342	16	-47.0	-81.1	86	14
2023-08-05T06:00	28379	16	-47.0	-81.1	88	14
2023-08-05T06:00	28409	16	-47.2	-81.3	88	14
2023-08-05T06:00	28437	16	-47.1	-81.2	88	13
2023-08-05T06:00	28477	16	-47.1	-81.2	88	13
2023-08-05T06:00	28497	16	-47.3	-81.4	87	13
2023-08-05T06:00	28537	16	-47.4	-81.4	87	13
2023-08-05T06:00	28573	16	-47.5	-81.5	87	13
2023-08-05T06:00	28607	16	-47.6	-81.6	87	13
2023-08-05T06:00	28641	16	-47.6	-81.6	87	13
2023-08-05T06:00	28670	16	-47.5	-81.5	86	13
2023-08-05T06:00	28704	16	-47.4	-82.2	85	13
2023-08-05T06:00	28741	16	-47.2	-82.1	84	13
2023-08-05T06:00	28776	15	-47.0	-81.9	83	12
2023-08-05T06:00	28805	15	-46.9	-81.9	81	12
2023-08-05T06:00	28828	15	-46.7	-81.7	79	11
2023-08-05T06:00	28865	15	-46.6	-81.7	77	11
2023-08-05T06:00	28896	15	-46.4	-81.5	75	11
2023-08-05T06:00	28924	15	-46.2	-81.4	75	12
2023-08-05T06:00	28962	15	-45.9	-81.2	75	13
2023-08-05T06:00	28994	15	-45.6	-80.9	75	14
2023-08-05T06:00	29023	15	-45.5	-80.9	77	15
2023-08-05T06:00	29049	15	-45.5	-80.9	78	16
2023-08-05T06:00	29078	15	-45.6	-80.9	79	17
2023-08-05T06:00	29108	15	-45.6	-80.9	80	17
2023-08-05T06:00	29150	15	-45.7	-81.0	82	17
2023-08-05T06:00	29177	15	-45.7	-81.0	83	17
2023-08-05T06:00	29198	14	-45.6	-80.9	85	17
2023-08-05T06:00	29219	14	-45.2	-81.6	86	17
2023-08-05T06:00	29263	14	-44.8	-81.3	88	18
2023-08-05T06:00	29296	14	-44.4	-81.0	90	18
2023-08-05T06:00	29310	14	-44.2	-80.9	92	19
2023-08-05T06:00	29340	14	-44.1	-80.8	94	19
2023-08-05T06:00	29370	14	-44.0	-80.7	96	20
2023-08-05T06:00	29399	14	-44.0	-80.7	99	20
2023-08-05T06:00	29434	14	-43.9	-80.7	102	20
2023-08-05T06:00	29459	14	-43.8	-80.6	105	20
2023-08-05T06:00	29490	14	-43.9	-80.7	107	20
2023-08-05T06:00	29531	14	-43.9	-80.7	110	20
2023-08-05T06:00	29555	14	-44.0	-80.7	112	20
2023-08-05T06:00	29591	14	-43.9	-80.7	114	21
2023-08-05T06:00	29624	14	-43.7	-80.5	116	21
2023-08-05T06:00	29652	14	-43.5	-80.4	117	22
2023-08-05T06:00	29669	13	-43.4	-80.3	117	22
2023-08-05T06:00	29705	13	-43.5	-80.4	117	21
2023-08-05T06:00	29740	13	-43.7	-80.5	117	21
2023-08-05T06:00	29791	13	-43.8	-80.6	117	20
2023-08-05T06:00	29807	13	-43.8	-80.6	118	19
2023-08-05T06:00	29835	13	-43.8	-80.6	119	19
2023-08-05T06:00	29866	13	-43.8	-80.6	120	18
2023-08-05T06:00	29918	13	-43.8	-80.6	121	18
2023-08-05T06:00	29939	13	-43.8	-80.6	122	17
2023-08-05T06:00	29979	13	-43.8	-80.6	124	17
2023-08-05T06:00	30016	13	-43.7	-80.5	125	16
2023-08-05T06:00	30044	13	-43.4	-80.3	127	15
2023-08-05T06:00	30070	13	-43.2	-80.2	127	14
2023-08-05T06:00	30097	13	-43.1	-80.1	127	13
2023-08-05T06:00	30142	13	-42.9	-80.0	126	12
2023-08-05T06:00	30187	13	-42.9	-80.0	125	12
2023-08-05T06:00	30216	12	-42.6	-79.7	123	12
2023-08-05T06:00	30259	12	-42.5	-79.7	122	12
2023-08-05T06:00	30286	12	-42.5	-79.7	122	12
2023-08-05T06:00	30314	12	-42.5	-79.7	123	12
2023-08-05T06:00	30361	12	-42.5	-79.7	125	12
2023-08-05T06:00	30393	12	-42.4	-79.6	127	11
2023-08-05T06:00	30423	12	-42.3	-79.5	129	10
2023-08-05T06:00	30454	12	-42.3	-79.5	130	9
2023-08-05T06:00	30497	12	-42.3	-79.5	129	8
2023-08-05T06:00	30523	12	-42.2	-79.5	126	7
2023-08-05T06:00	30549	12	-42.2	-80.6	121	6
2023-08-05T06:00	30605	12	-41.9	-80.4	112	5
2023-08-05T06:00	30635	12	-41.6	-80.1	100	4
2023-08-05T06:00	30654	12	-41.4	-80.0	83	3
2023-08-05T06:00	30706	12	-41.4	-80.0	63	3
2023-08-05T06:00	30744	12	-41.4	-80.0	47	3
2023-08-05T06:00	30771	11	-41.2	-79.9	41	3
2023-08-05T06:00	30791	11	-41.0	-79.7	42	4
2023-08-05T06:00	30834	11	-40.9	-79.7	49	4
2023-08-05T06:00	30876	11	-40.9	-79.7	57	5
2023-08-05T06:00	30892	11	-41.1	-79.8	65	6
2023-08-05T06:00	30936	11	-41.2	-79.9	70	7
2023-08-05T06:00	30958	11	-41.4	-80.0	74	7
2023-08-05T06:00	30990	11	-41.5	-80.1	76	8
2023-08-05T06:00	31048	11	-41.6	-80.1	78	9
2023-08-05T06:00	31073	11	-41.5	-80.1	80	10
2023-08-05T06:00	31102	11	-41.4	-80.0	82	10
2023-08-05T06:00	31128	11	-41.4	-80.0	85	10
2023-08-05T06:00	31161	11	-41.4	-80.0	88	10
2023-08-05T06:00	31203	11	-41.5	-80.1	90	10
2023-08-05T06:00	31230	11	-41.6	-80.1	92	10
2023-08-05T06:00	31264	11	-41.5	-80.1	94	11
2023-08-05T06:00	31275	11	-41.5	-80.1	95	11
2023-08-05T06:00	31308	11	-41.4	-80.0	96	12
2023-08-05T06:00	31336	11	-41.4	-80.0	97	12
2023-08-05T06:00	31366	11	-41.3	-79.9	97	12
2023-08-05T06:00	31398	10	-41.2	-79.9	95	12
2023-08-05T06:00	31440	10	-41.0	-79.7	93	11
2023-08-05T06:00	31462	10	-40.8	-79.6	89	11
2023-08-05T06:00	31490	10	-40.6	-79.5	85	11
2023-08-05T06:00	31519	10	-40.4	-79.3	81	11
2023-08-05T06:00	31550	10	-40.1	-79.1	78	12
2023-08-05T06:00	31601	10	-39.8	-78.9	76	12
2023-08-05T06:00	31640	10	-39.6	-78.8	74	12
2023-08-05T06:00	31662	10	-39.6	-78.8	74	11
2023-08-05T06:00	31708	10	-39.6	-78.8	74	11
2023-08-05T06:00	31741	10	-39.6	-78.8	76	11
2023-08-05T06:00	31760	10	-39.4	-78.6	78	11
2023-08-05T06:00	31782	10	-39.2	-78.5	80	11
2023-08-05T06:00	31812	10	-39.0	-78.3	82	11
2023-08-05T06:00	31859	10	-39.0	-78.3	85	12
2023-08-05T06:00	31864	10	-39.0	-78.3	87	12
2023-08-05T06:00	31910	10	-39.0	-78.3	89	12
2023-08-05T06:00	31933	10	-39.0	-78.3	92	12
2023-08-05T06:00	31959	10	-39.0	-78.3	94	12
2023-08-05T06:00	32005	10	-38.9	-78.3	95	12
2023-08-05T06:00	32040	10	-38.8	-78.2	97	12
2023-08-05T06:00	32068	9	-38.7	-78.1	99	12
2023-08-05T06:00	32119	9	-38.6	-78.1	101	12
2023-08-05T06:00	32137	9	-38.4	-77.9	102	12
2023-08-05T06:00	32192	9	-38.3	-77.9	104	11
2023-08-05T06:00	32203	9	-38.3	-77.9	105	11
2023-08-05T06:00	32237	9	-38.3	-77.9	105	10
2023-08-05T06:00	32293	9	-38.3	-77.9	104	10
2023-08-05T06:00	32308	9	-38.4	-77.9	103	9
2023-08-05T06:00	32361	9	-38.4	-77.9	101	8
2023-08-05T06:00	32382	9	-38.4	-77.9	100	7
2023-08-05T06:00	32420	9	-38.3	-77.9	99	7
2023-08-05T06:00	32446	9	-38.2	-77.8	97	7
2023-08-05T06:00	32501	9	-38.3	-77.9	96	7
2023-08-05T06:00	32512	9	-38.4	-77.9	95	8
2023-08-05T06:00	32551	9	-38.4	-77.9	94	8
2023-08-05T06:00	32598	9	-38.5	-78.0	94	9
2023-08-05T06:00	32618	9	-38.5	-78.0	96	10
2023-08-05T06:00	32670	9	-38.5	-78.0	98	10
2023-08-05T06:00	32696	9	-38.6	-78.1	100	11
2023-08-05T06:00	32730	9	-38.8	-78.2	99	11
2023-08-05T06:00	32754	9	-38.5	-78.0	96	11
2023-08-05T12:00	112	1000	20.2	13.7	10	2
2023-08-05T12:00	138	997	19.2	12.8	8	2
2023-08-05T12:00	162	995	18.7	12.2	9	3
2023-08-05T12:00	182	992	18.4	12.5	7	3
2023-08-05T12:00	203	990	18.3	12.4	3	3
2023-08-05T12:00	229	987	18.0	12.3	355	3
2023-08-05T12:00	252	984	17.8	12.2	348	3
2023-08-05T12:00	278	981	17.6	12.3	343	3
2023-08-05T12:00	306	978	17.3	12.2	342	4
2023-08-05T12:00	324	976	17.1	12.1	343	4
2023-08-05T12:00	343	973	16.9	12.2	344	4
2023-08-05T12:00	380	970	16.6	12.1	347	4
2023-08-05T12:00	406	967	16.4	12.2	349	3
2023-08-05T12:00	434	963	16.1	12.1	351	3
2023-08-05T12:00	462	960	15.8	12.0	355	3
2023-08-05T12:00	485	958	15.6	11.8	360	2
2023-08-05T12:00	509	955	15.4	11.9	5	3
2023-08-05T12:00	530	953	15.1	11.7	8	3
2023-08-05T12:00	555	950	14.9	11.9	8	3
2023-08-05T12:00	585	947	14.6	11.8	6	4
2023-08-05T12:00	604	944	14.4	11.7	4	4
2023-08-05T12:00	627	942	14.2	11.6	2	4
2023-08-05T12:00	648	939	14.1	11.2	2	3
2023-08-05T12:00	673	937	13.9	10.9	2	3
2023-08-05T12:00	701	934	13.6	10.7	4	3
2023-08-05T12:00	725	931	13.5	10.1	6	3
2023-08-05T12:00	752	928	13.2	10.1	9	3
2023-08-05T12:00	779	925	13.0	10.2	12	3
2023-08-05T12:00	807	922	12.8	9.8	14	3
2023-08-05T12:00	830	919	12.5	9.7	18	3
2023-08-05T12:00	857	916	12.3	9.5	22	2
2023-08-05T12:00	891	913	12.1	8.8	27	2
2023-08-05T12:00	921	910	12.0	8.2	33	2
2023-08-05T12:00	944	907	11.8	8.5	38	2
2023-08-05T12:00	974	904	11.5	8.2	42	2
2023-08-05T12:00	998	901	11.5	7.1	44	2
2023-08-05T12:00	1022	899	11.4	7.1	44	2
2023-08-05T12:00	1046	896	11.3	6.7	45	2
2023-08-05T12:00	1072	893	11.1	7.1	50	2
2023-08-05T12:00	1095	891	10.9	7.4	63	2
2023-08-05T12:00	1120	888	10.7	7.4	82	2
2023-08-05T12:00	1139	886	10.5	7.3	100	2
2023-08-05T12:00	1159	884	10.3	7.3	111	3
2023-08-05T12:00	1179	882	10.2	7.3	115	3
2023-08-05T12:00	1200	880	10.0	7.2	115	4
2023-08-05T12:00	1220	878	9.9	7.2	113	4
2023-08-05T12:00	1240	875	9.7	7.0	111	4
2023-08-05T12:00	1260	873	9.6	6.8	110	4
2023-08-05T12:00	1284	871	9.5	6.4	112	4
2023-08-05T12:00	1303	869	9.5	6.1	114	4
2023-08-05T12:00	1324	867	9.3	5.6	115	3
2023-08-05T12:00	1343	864	9.2	5.4	115	3
2023-08-05T12:00	1365	862	9.0	4.9	110	2
2023-08-05T12:00	1391	859	8.9	4.5	99	2
2023-08-05T12:00	1422	856	8.8	4.1	84	2
2023-08-05T12:00	1451	853	8.6	4.0	71	2
2023-08-05T12:00	1476	851	8.5	3.7	61	2
2023-08-05T12:00	1497	849	8.4	3.6	53	2
2023-08-05T12:00	1517	847	8.4	3.0	44	3
2023-08-05T12:00	1539	844	8.2	3.0	33	3
2023-08-05T12:00	1558	842	8.0	3.2	24	3
2023-08-05T12:00	1582	840	7.9	3.3	19	3
2023-08-05T12:00	1609	837	7.7	3.0	18	3
2023-08-05T12:00	1631	835	7.6	3.1	23	2
2023-08-05T12:00	1658	832	7.4	3.0	28	2
2023-08-05T12:00	1681	830	7.2	2.9	27	2
2023-08-05T12:00	1702	828	7.1	2.7	16	2
2023-08-05T12:00	1725	826	7.0	2.6	356	2
2023-08-05T12:00	1747	824	6.9	2.5	326	2
2023-08-05T12:00	1766	821	6.7	2.5	293	2
2023-08-05T12:00	1788	819	6.6	2.5	263	2
2023-08-05T12:00	1811	817	6.5	2.3	240	2
2023-08-05T12:00	1835	815	6.3	1.8	224	2
2023-08-05T12:00	1860	812	6.1	1.3	215	2
2023-08-05T12:00	1882	810	6.0	1.3	211	1
2023-08-05T12:00	1915	807	5.7	0.8	209	1
2023-08-05T12:00	1941	804	5.5	1.0	203	1
2023-08-05T12:00	1964	802	5.4	0.3	190	0
2023-08-05T12:00	1985	800	5.3	0.8	184	0
2023-08-05T12:00	2008	798	5.4	0.5	254	0
2023-08-05T12:00	2034	795	5.3	-0.2	247	1
2023-08-05T12:00	2063	792	5.2	0.2	243	1
2023-08-05T12:00	2088	790	5.1	-0.6	242	1
2023-08-05T12:00	2112	787	5.0	-0.7	244	1
2023-08-05T12:00	2136	785	4.8	-0.1	246	1
2023-08-05T12:00	2162	783	4.7	0.1	243	1
2023-08-05T12:00	2182	781	4.5	0.0	230	1
2023-08-05T12:00	2208	778	4.5	-1.2	214	2
2023-08-05T12:00	2231	776	4.5	-1.0	205	2
2023-08-05T12:00	2249	774	4.5	-0.4	203	3
2023-08-05T12:00	2274	772	4.4	-0.2	207	3
2023-08-05T12:00	2299	770	4.2	-0.4	218	3
2023-08-05T12:00	2324	767	4.0	-0.1	229	3
2023-08-05T12:00	2354	764	3.8	0.3	235	3
2023-08-05T12:00	2376	762	3.7	0.5	234	4
2023-08-05T12:00	2398	760	3.5	0.0	232	4
2023-08-05T12:00	2420	758	3.4	0.0	229	4
2023-08-05T12:00	2450	756	3.2	-0.4	228	4
2023-08-05T12:00	2471	754	3.0	-0.7	227	3
2023-08-05T12:00	2493	752	2.9	-1.1	225	3
2023-08-05T12:00	2514	749	2.8	-1.4	220	3
2023-08-05T12:00	2536	747	2.8	-1.5	212	3
2023-08-05T12:00	2567	745	2.5	-1.6	204	3
2023-08-05T12:00	2589	743	2.4	-1.5	199	3
2023-08-05T12:00	2609	741	2.2	-1.6	197	3
2023-08-05T12:00	2631	739	2.0	-1.7	197	3
2023-08-05T12:00	2659	736	1.8	-1.5	200	3
2023-08-05T12:00	2693	733	1.5	-1.7	205	3
2023-08-05T12:00	2717	731	1.3	-1.6	211	3
2023-08-05T12:00	2739	729	1.2	-1.6	218	3
2023-08-05T12:00	2765	726	1.0	-1.7	221	3
2023-08-05T12:00	2796	724	0.7	-1.8	219	4
2023-08-05T12:00	2825	721	0.5	-1.9	214	5
2023-08-05T12:00	2849	719	0.3	-2.0	209	5
2023-08-05T12:00	2875	717	0.2	-2.0	206	6
2023-08-05T12:00	2899	715	0.1	-2.1	206	6
2023-08-05T12:00	2921	713	0.1	-1.9	210	6
2023-08-05T12:00	2941	711	0.0	-1.8	216	6
2023-08-05T12:00	2964	709	-0.2	-1.9	221	7
2023-08-05T12:00	2985	707	-0.4	-2.0	223	7
2023-08-05T12:00	3008	705	-0.6	-2.0	222	8
2023-08-05T12:00	3028	703	-0.8	-2.2	221	8
2023-08-05T12:00	3050	701	-0.9	-2.1	220	8
2023-08-05T12:00	3079	699	-1.2	-2.2	220	7
2023-08-05T12:00	3104	697	-1.4	-2.1	221	7
2023-08-05T12:00	3121	695	-1.5	-2.1	222	7
2023-08-05T12:00	3156	692	-1.6	-2.1	221	7
2023-08-05T12:00	3180	690	-1.6	-2.3	218	7
2023-08-05T12:00	3204	688	-1.7	-2.5	214	8
2023-08-05T12:00	3230	686	-1.8	-2.3	210	8
2023-08-05T12:00	3253	684	-1.8	-2.0	208	8
2023-08-05T12:00	3278	681	-1.9	-2.0	206	9
2023-08-05T12:00	3306	679	-2.1	-2.2	205	9
2023-08-05T12:00	3333	677	-2.1	-2.6	204	9
2023-08-05T12:00	3355	675	-2.2	-2.9	203	9
2023-08-05T12:00	3384	672	-2.3	-3.3	203	9
2023-08-05T12:00	3412	670	-2.5	-3.2	205	9
2023-08-05T12:00	3437	668	-2.7	-3.2	207	8
2023-08-05T12:00	3459	666	-2.9	-3.4	209	8
2023-08-05T12:00	3484	664	-3.1	-3.6	211	8
2023-08-05T12:00	3509	662	-3.2	-3.7	212	7
2023-08-05T12:00	3533	660	-3.4	-4.2	212	6
2023-08-05T12:00	3559	658	-3.5	-4.5	210	5
2023-08-05T12:00	3584	656	-3.7	-4.9	205	4
2023-08-05T12:00	3604	654	-3.7	-5.5	200	3
2023-08-05T12:00	3629	652	-3.7	-5.8	196	2
2023-08-05T12:00	3654	650	-3.6	-6.9	199	2
2023-08-05T12:00	3680	648	-3.4	-6.8	205	2
2023-08-05T12:00	3703	646	-3.4	-7.5	209	3
2023-08-05T12:00	3727	644	-3.3	-7.0	210	4
2023-08-05T12:00	3752	642	-3.1	-8.2	209	5
2023-08-05T12:00	3779	640	-3.0	-9.1	208	6
2023-08-05T12:00	3803	638	-3.0	-9.3	207	6
2023-08-05T12:00	3816	637	-3.1	-9.2	206	6
2023-08-05T12:00	3832	635	-3.2	-9.3	206	6
2023-08-05T12:00	3849	634	-3.3	-9.3	206	6
2023-08-05T12:00	3869	632	-3.5	-9.6	205	6
2023-08-05T12:00	3898	630	-3.6	-9.4	204	6
2023-08-05T12:00	3920	628	-3.8	-9.8	204	6
2023-08-05T12:00	3945	626	-3.9	-10.0	206	6
2023-08-05T12:00	3972	624	-4.1	-10.2	211	6
2023-08-05T12:00	4001	622	-4.2	-11.5	216	6
2023-08-05T12:00	4023	620	-4.2	-12.2	220	6
2023-08-05T12:00	4051	618	-4.2	-12.9	221	6
2023-08-05T12:00	4071	616	-4.4	-12.8	220	6
2023-08-05T12:00	4100	614	-4.6	-12.8	218	6
2023-08-05T12:00	4126	612	-4.7	-13.2	216	6
2023-08-05T12:00	4145	611	-4.6	-13.8	214	6
2023-08-05T12:00	4161	609	-4.7	-14.2	212	6
2023-08-05T12:00	4179	608	-4.7	-14.6	210	6
2023-08-05T12:00	4204	606	-4.8	-15.5	207	6
2023-08-05T12:00	4229	604	-4.8	-15.6	205	6
2023-08-05T12:00	4256	602	-5.0	-15.8	205	6
2023-08-05T12:00	4283	600	-5.2	-15.8	207	6
2023-08-05T12:00	4308	598	-5.5	-15.7	209	6
2023-08-05T12:00	4331	596	-5.7	-15.4	211	6
2023-08-05T12:00	4362	594	-5.9	-15.0	212	6
2023-08-05T12:00	4383	592	-6.1	-14.9	214	6
2023-08-05T12:00	4403	591	-6.3	-15.0	216	6
2023-08-05T12:00	4428	589	-6.4	-15.9	219	6
2023-08-05T12:00	4466	586	-6.7	-16.6	221	6
2023-08-05T12:00	4492	584	-6.9	-16.9	223	6
2023-08-05T12:00	4509	583	-7.0	-16.5	223	6
2023-08-05T12:00	4542	581	-7.2	-14.5	222	6
2023-08-05T12:00	4567	579	-7.5	-14.3	221	6
2023-08-05T12:00	4599	576	-7.8	-14.7	223	6
2023-08-05T12:00	4633	574	-7.9	-15.4	226	7
2023-08-05T12:00	4665	571	-7.8	-16.4	229	7
2023-08-05T12:00	4696	569	-7.9	-16.8	232	8
2023-08-05T12:00	4723	567	-8.0	-17.0	234	9
2023-08-05T12:00	4751	565	-8.2	-17.2	234	9
2023-08-05T12:00	4782	563	-8.6	-17.2	233	10
2023-08-05T12:00	4808	561	-8.8	-17.4	231	10
2023-08-05T12:00	4834	559	-9.2	-16.7	230	10
2023-08-05T12:00	4856	557	-9.6	-16.7	229	10
2023-08-05T12:00	4881	556	-9.8	-17.1	230	11
2023-08-05T12:00	4909	554	-10.0	-17.1	232	11
2023-08-05T12:00	4934	552	-10.3	-17.1	234	11
2023-08-05T12:00	4956	550	-10.4	-17.3	237	11
2023-08-05T12:00	4984	548	-10.6	-17.6	240	12
2023-08-05T12:00	5007	547	-10.9	-17.5	243	12
2023-08-05T12:00	5029	545	-11.1	-17.4	245	12
2023-08-05T12:00	5057	543	-11.4	-17.4	246	13
2023-08-05T12:00	5075	542	-11.6	-17.5	248	13
2023-08-05T12:00	5092	541	-11.8	-17.7	249	14
2023-08-05T12:00	5111	539	-11.8	-17.9	249	14
2023-08-05T12:00	5132	538	-11.9	-16.5	249	14
2023-08-05T12:00	5150	537	-11.7	-15.1	248	14
2023-08-05T12:00	5168	535	-11.9	-15.3	246	13
2023-08-05T12:00	5187	534	-12.0	-15.5	244	13
2023-08-05T12:00	5204	533	-12.0	-15.6	241	13
2023-08-05T12:00	5234	531	-11.8	-15.0	238	13
2023-08-05T12:00	5255	529	-11.2	-14.2	235	13
2023-08-05T12:00	5275	528	-10.5	-13.1	231	13
2023-08-05T12:00	5298	526	-10.7	-13.1	228	14
2023-08-05T12:00	5320	525	-10.9	-13.1	225	14
2023-08-05T12:00	5344	523	-10.9	-13.1	222	14
2023-08-05T12:00	5371	521	-11.1	-13.1	219	14
2023-08-05T12:00	5394	520	-11.3	-13.1	217	14
2023-08-05T12:00	5416	518	-11.4	-13.1	214	14
2023-08-05T12:00	5436	517	-11.4	-13.1	212	14
2023-08-05T12:00	5457	516	-11.6	-13.2	211	14
2023-08-05T12:00	5480	514	-11.8	-13.3	209	14
2023-08-05T12:00	5500	513	-11.9	-13.4	208	14
2023-08-05T12:00	5525	511	-12.1	-13.5	208	13
2023-08-05T12:00	5548	510	-12.2	-13.7	209	13
2023-08-05T12:00	5567	508	-12.4	-13.8	209	13
2023-08-05T12:00	5592	507	-12.5	-14.0	210	13
2023-08-05T12:00	5612	505	-12.6	-14.1	210	13
2023-08-05T12:00	5632	504	-12.7	-14.2	211	13
2023-08-05T12:00	5659	502	-12.8	-14.4	211	14
2023-08-05T12:00	5682	501	-13.0	-14.6	211	14
2023-08-05T12:00	5701	499	-13.1	-14.7	210	14
2023-08-05T12:00	5725	498	-13.3	-14.9	208	14
2023-08-05T12:00	5752	496	-13.4	-15.0	206	14
2023-08-05T12:00	5773	495	-13.5	-15.1	204	13
2023-08-05T12:00	5790	494	-13.6	-15.1	204	13
2023-08-05T12:00	5805	492	-13.8	-15.3	204	13
2023-08-05T12:00	5830	491	-13.9	-15.3	204	14
2023-08-05T12:00	5850	490	-14.0	-15.3	204	14
2023-08-05T12:00	5877	488	-14.2	-15.5	203	15
2023-08-05T12:00	5901	486	-14.4	-15.7	202	15
2023-08-05T12:00	5924	485	-14.5	-15.8	202	16
2023-08-05T12:00	5944	484	-14.6	-15.9	201	16
2023-08-05T12:00	5966	482	-14.7	-15.9	200	16
2023-08-05T12:00	5989	481	-14.9	-16.1	199	16
2023-08-05T12:00	6010	480	-15.1	-16.2	198	16
2023-08-05T12:00	6029	478	-15.2	-16.3	197	16
2023-08-05T12:00	6050	477	-15.2	-16.3	196	17
2023-08-05T12:00	6072	476	-15.3	-16.4	196	17
2023-08-05T12:00	6098	474	-15.3	-16.2	196	17
2023-08-05T12:00	6122	472	-15.3	-16.3	197	18
2023-08-05T12:00	6147	471	-15.4	-16.3	197	18
2023-08-05T12:00	6179	469	-15.5	-16.4	196	18
2023-08-05T12:00	6201	467	-15.7	-16.7	196	18
2023-08-05T12:00	6231	466	-15.8	-16.8	195	18
2023-08-05T12:00	6256	464	-16.0	-17.0	195	18
2023-08-05T12:00	6280	463	-16.1	-17.0	194	18
2023-08-05T12:00	6302	461	-16.2		193	19
2023-08-05T12:00	6328	460	-16.3	-17.3	193	19
2023-08-05T12:00	6356	458	-16.4	-17.5	193	19
2023-08-05T12:00	6383	456	-16.4	-17.3	193	19
2023-08-05T12:00	6411	455	-16.6	-17.6	193	19
2023-08-05T12:00	6434	453	-16.7	-17.7	193	19
2023-08-05T12:00	6457	452	-16.8	-17.8	193	20
2023-08-05T12:00	6484	450	-16.8	-17.9	194	20
2023-08-05T12:00	6514	448	-16.9	-18.0	193	20
2023-08-05T12:00	6542	447	-17.1	-18.2	193	20
2023-08-05T12:00	6569	445	-17.3	-18.3	192	21
2023-08-05T12:00	6591	444	-17.4	-18.4	191	22
2023-08-05T12:00	6611	443	-17.5	-18.6	192	23
2023-08-05T12:00	6634	441	-17.6	-18.6	192	24
2023-08-05T12:00	6658	440	-17.6	-18.6	193	25
2023-08-05T12:00	6678	439	-17.6	-18.7	194	25
2023-08-05T12:00	6701	437	-17.7	-18.8	195	26
2023-08-05T12:00	6723	436	-17.8	-18.9	195	26
2023-08-05T12:00	6743	435	-17.9	-18.9	194	26
2023-08-05T12:00	6775	433	-18.0	-19.0	194	26
2023-08-05T12:00	6801	432	-18.1	-19.3	194	26
2023-08-05T12:00	6823	430	-18.2	-19.3	194	26
2023-08-05T12:00	6847	429	-18.4	-19.5	194	26
2023-08-05T12:00	6872	427	-18.6	-19.7	194	26
2023-08-05T12:00	6902	426	-18.8	-20.0	194	26
2023-08-05T12:00	6930	424	-19.0	-20.0	195	26
2023-08-05T12:00	6956	423	-19.2	-20.3	195	26
2023-08-05T12:00	6983	421	-19.4	-20.6	196	26
2023-08-05T12:00	7010	420	-19.5	-20.7	196	26
2023-08-05T12:00	7042	418	-19.7	-21.0	196	26
2023-08-05T12:00	7069	416	-19.9	-21.1	196	26
2023-08-05T12:00	7095	415	-20.1	-21.4	196	25
2023-08-05T12:00	7119	413	-20.2	-21.5	196	25
2023-08-05T12:00	7153	412	-20.5	-21.9	197	25
2023-08-05T12:00	7185	410	-20.7	-22.3	197	26
2023-08-05T12:00	7210	409	-20.8	-22.3	198	26
2023-08-05T12:00	7235	407	-21.0	-22.7	198	27
2023-08-05T12:00	7258	406	-21.1	-22.8	197	28
2023-08-05T12:00	7282	405	-21.3	-23.0	196	28
2023-08-05T12:00	7307	403	-21.4	-23.2	195	28
2023-08-05T12:00	7338	402	-21.7	-23.3	194	28
2023-08-05T12:00	7369	400	-21.9	-23.4	194	28
2023-08-05T12:00	7399	398	-22.1	-23.8	194	28
2023-08-05T12:00	7422	397	-22.3	-23.9	194	28
2023-08-05T12:00	7450	395	-22.5	-24.0	194	28
2023-08-05T12:00	7476	394	-22.7	-24.2	194	28
2023-08-05T12:00	7505	392	-23.0	-24.5	193	27
2023-08-05T12:00	7533	391	-23.2	-24.6	193	27
2023-08-05T12:00	7563	389	-23.4	-24.8	193	27
2023-08-05T12:00	7592	388	-23.6	-25.0	193	28
2023-08-05T12:00	7617	387	-23.8	-25.2	194	28
2023-08-05T12:00	7641	385	-24.0	-25.5	195	28
2023-08-05T12:00	7669	384	-24.0	-25.6	195	28
2023-08-05T12:00	7693	382	-24.1	-25.8	196	28
2023-08-05T12:00	7726	381	-24.3	-26.0	196	28
2023-08-05T12:00	7753	379	-24.5	-26.3	196	28
2023-08-05T12:00	7782	378	-24.7	-26.5	195	28
2023-08-05T12:00	7817	376	-24.9	-26.6	195	28
2023-08-05T12:00	7847	374	-25.1	-26.9	195	28
2023-08-05T12:00	7879	373	-25.4	-27.1	195	28
2023-08-05T12:00	7914	371	-25.6	-27.2	195	28
2023-08-05T12:00	7941	370	-25.8	-27.4	194	28
2023-08-05T12:00	7969	368	-26.0	-27.7	194	28
2023-08-05T12:00	8002	367	-26.2	-27.9	195	29
2023-08-05T12:00	8034	365	-26.4	-28.1	196	29
2023-08-05T12:00	8064	363	-26.5	-28.1	196	29
2023-08-05T12:00	8099	362	-26.7	-28.4	197	30
2023-08-05T12:00	8134	360	-26.9	-28.8	197	30
2023-08-05T12:00	8165	358	-27.1	-29.2	197	31
2023-08-05T12:00	8193	357	-27.3	-29.2	197	31
2023-08-05T12:00	8224	355	-27.5	-29.4	197	31
2023-08-05T12:00	8256	354	-27.7	-29.6	197	31
2023-08-05T12:00	8284	352	-27.9		197	31
2023-08-05T12:00	8313	351	-28.1	-30.2	196	31
2023-08-05T12:00	8338	350	-28.2	-30.3	196	31
2023-08-05T12:00	8363	349	-28.4	-30.4	195	31
2023-08-05T12:00	8392	347	-28.5	-30.5	194	31
2023-08-05T12:00	8427	346	-28.7	-31.0	194	31
2023-08-05T12:00	8454	344	-28.9	-31.2	194	31
2023-08-05T12:00	8482	343	-29.1	-31.1	194	31
2023-08-05T12:00	8513	341	-29.4	-31.6	194	31
2023-08-05T12:00	8545	340	-29.6	-32.0	194	32
2023-08-05T12:00	8572	339	-29.9	-32.3	194	32
2023-08-05T12:00	8598	337	-30.1	-32.3	194	32
2023-08-05T12:00	8631	336	-30.4	-32.7	194	32
2023-08-05T12:00	8663	334	-30.6	-33.0	195	33
2023-08-05T12:00	8685	333	-30.8	-33.2	195	33
2023-08-05T12:00	8718	332	-31.1	-33.3	196	33
2023-08-05T12:00	8746	330	-31.2	-33.5	196	33
2023-08-05T12:00	8775	329	-31.5	-33.7	197	33
2023-08-05T12:00	8801	328	-31.6	-34.0	196	33
2023-08-05T12:00	8834	326	-31.9	-34.2	196	33
2023-08-05T12:00	8868	325	-32.2	-34.5	196	34
2023-08-05T12:00	8895	324	-32.4	-34.9	196	34
2023-08-05T12:00	8914	323	-32.6	-35.1	197	34
2023-08-05T12:00	8939	322	-32.8	-35.1	197	35
2023-08-05T12:00	8969	320	-33.1	-35.4	197	35
2023-08-05T12:00	8999	319	-33.3	-36.0	197	35
2023-08-05T12:00	9032	317	-33.5	-36.3	197	36
2023-08-05T12:00	9063	316	-33.7	-36.4	197	37
2023-08-05T12:00	9090	315	-34.0	-36.6	196	37
2023-08-05T12:00	9117	313	-34.2	-36.8	196	38
2023-08-05T12:00	9151	312	-34.5	-37.2	195	38
2023-08-05T12:00	9179	311	-34.7	-37.6	195	38
2023-08-05T12:00	9208	309	-34.9	-37.7	195	38
2023-08-05T12:00	9239	308	-35.2	-37.9	196	38
2023-08-05T12:00	9271	307	-35.5	-38.4	196	38
2023-08-05T12:00	9300	305	-35.7	-38.6	197	38
2023-08-05T12:00	9323	304	-35.9	-38.8	197	38
2023-08-05T12:00	9354	303	-36.1	-39.1	197	38
2023-08-05T12:00	9379	302	-36.3	-39.2	197	39
2023-08-05T12:00	9408	301	-36.5	-39.5	197	39
2023-08-05T12:00	9426	300	-36.6	-39.7	197	39
2023-08-05T12:00	9447	299	-36.8	-39.8	196	40
2023-08-05T12:00	9472	298	-37.0	-39.8	196	40
2023-08-05T12:00	9497	297	-37.1	-40.0	196	40
2023-08-05T12:00	9526	296	-37.4	-40.5	196	40
2023-08-05T12:00	9561	294	-37.5	-40.7	196	41
2023-08-05T12:00	9585	293	-37.6	-40.8	196	41
2023-08-05T12:00	9609	292	-37.7	-41.0	196	41
2023-08-05T12:00	9637	291	-37.9	-41.0	196	41
2023-08-05T12:00	9671	289	-38.1	-41.4	196	41
2023-08-05T12:00	9699	288	-38.2		196	42
2023-08-05T12:00	9733	287	-38.5	-41.9	196	42
2023-08-05T12:00	9767	285	-38.8	-42.2	196	43
2023-08-05T12:00	9792	284	-39.0	-42.5	196	43
2023-08-05T12:00	9818	283	-39.2	-42.6	196	43
2023-08-05T12:00	9841	282	-39.4	-42.8	196	44
2023-08-05T12:00	9865	281	-39.6	-42.9	196	44
2023-08-05T12:00	9894	280	-39.9	-43.2	196	45
2023-08-05T12:00	9929	279	-40.2	-43.6	196	45
2023-08-05T12:00	9963	277	-40.5	-44.0	196	45
2023-08-05T12:00	9990	276	-40.7	-44.2	195	45
2023-08-05T12:00	10016	275	-40.9	-44.3	195	46
2023-08-05T12:00	10041	274	-41.1	-44.4	195	46
2023-08-05T12:00	10065	273	-41.3	-44.7	195	46
2023-08-05T12:00	10090	272	-41.5	-44.9	195	46
2023-08-05T12:00	10116	271	-41.7	-45.1	195	47
2023-08-05T12:00	10137	270	-41.9	-45.5	194	47
2023-08-05T12:00	10158	269	-42.1	-45.7	194	47
2023-08-05T12:00	10181	269	-42.3	-45.9	194	47
2023-08-05T12:00	10203	268	-42.5	-46.0	194	47
2023-08-05T12:00	10229	267	-42.7	-46.1	193	47
2023-08-05T12:00	10254	266	-43.0	-46.5	193	47
2023-08-05T12:00	10276	265	-43.1	-46.7	192	47
2023-08-05T12:00	10298	264	-43.3	-46.7	192	47
2023-08-05T12:00	10324	263	-43.5	-47.0	192	47
2023-08-05T12:00	10349	262	-43.7	-47.5	191	47
2023-08-05T12:00	10372	261	-43.9	-47.5	191	47
2023-08-05T12:00	10396	260	-44.1	-47.6	191	48
2023-08-05T12:00	10421	259	-44.3	-47.8	191	48
2023-08-05T12:00	10444	258	-44.4	-48.2	191	49
2023-08-05T12:00	10472	257	-44.6	-48.4	191	49
2023-08-05T12:00	10504	256	-44.9	-48.5	190	50
2023-08-05T12:00	10536	255	-45.1	-48.8	190	50
2023-08-05T12:00	10563	254	-45.3	-49.0	189	50
2023-08-05T12:00	10584	253	-45.5	-49.2	189	50
2023-08-05T12:00	10603	252	-45.7	-49.3	189	50
2023-08-05T12:00	10629	251	-45.9	-49.6	188	50
2023-08-05T12:00	10657	250	-46.2	-50.0	188	50
2023-08-05T12:00	10679	249	-46.4	-50.2	188	50
2023-08-05T12:00	10704	248	-46.6	-50.4	188	50
2023-08-05T12:00	10728	247	-46.8	-50.5	189	50
2023-08-05T12:00	10753	247	-47.1	-50.7	189	50
2023-08-05T12:00	10777	246	-47.4	-51.3	190	50
2023-08-05T12:00	10810	245	-47.6	-51.4	190	50
2023-08-05T12:00	10832	244	-47.9	-51.7	191	50
2023-08-05T12:00	10857	243	-48.1	-51.9	191	51
2023-08-05T12:00	10880	242	-48.3	-52.1	191	51
2023-08-05T12:00	10903	241	-48.5	-52.3	191	52
2023-08-05T12:00	10934	240	-48.8	-52.5	191	52
2023-08-05T12:00	10956	239	-49.0	-52.9	191	52
2023-08-05T12:00	10977	238	-49.1	-53.1	192	52
2023-08-05T12:00	11000	237	-49.3	-53.2	192	52
2023-08-05T12:00	11021	237	-49.4	-53.1	192	52
2023-08-05T12:00	11046	236	-49.6	-53.4	193	52
2023-08-05T12:00	11070	235	-49.9	-53.7	193	52
2023-08-05T12:00	11093	234	-50.1	-53.8	193	52
2023-08-05T12:00	11121	233	-50.3	-54.0	194	53
2023-08-05T12:00	11147	232	-50.4	-54.2	194	53
2023-08-05T12:00	11174	231	-50.5	-54.5	195	53
2023-08-05T12:00	11195	230	-50.7	-54.8	195	53
2023-08-05T12:00	11216	230	-50.8	-55.0	196	53
2023-08-05T12:00	11238	229	-51.0	-55.1	196	54
2023-08-05T12:00	11258	228	-51.1	-55.4	196	54
2023-08-05T12:00	11279	228	-51.2	-55.7	195	54
2023-08-05T12:00	11298	227	-51.3	-55.6	195	54
2023-08-05T12:00	11318	226	-51.4	-55.2	195	53
2023-08-05T12:00	11338	225	-51.6	-55.0	195	53
2023-08-05T12:00	11358	225	-51.7	-55.1	196	53
2023-08-05T12:00	11386	224	-51.9	-55.5	196	52
2023-08-05T12:00	11411	223	-52.1	-56.5	197	52
2023-08-05T12:00	11444	222	-52.2	-57.6	197	51
2023-08-05T12:00	11477	221	-52.2	-58.3	198	51
2023-08-05T12:00	11503	220	-52.3	-58.6	198	50
2023-08-05T12:00	11535	219	-52.3	-58.7	199	49
2023-08-05T12:00	11561	218	-52.4	-59.0	200	49
2023-08-05T12:00	11594	217	-52.6	-59.2	201	48
2023-08-05T12:00	11624	216	-52.8	-59.5	202	47
2023-08-05T12:00	11652	215	-53.0	-59.7	203	47
2023-08-05T12:00	11681	214	-53.2	-59.8	203	46
2023-08-05T12:00	11707	213	-53.4	-60.1	203	45
2023-08-05T12:00	11731	212	-53.4	-60.5	204	44
2023-08-05T12:00	11753	211	-53.5	-61.1	204	43
2023-08-05T12:00	11779	211	-53.6	-61.5	204	42
2023-08-05T12:00	11799	210	-53.7	-62.2	205	41
2023-08-05T12:00	11821	209	-53.7	-63.1	205	40
2023-08-05T12:00	11843	209	-53.7	-64.1	206	40
2023-08-05T12:00	11863	208	-53.7	-64.8	206	39
2023-08-05T12:00	11884	207	-53.7	-65.5	207	38
2023-08-05T12:00	11903	207	-53.7	-66.0	206	37
2023-08-05T12:00	11924	206	-53.8	-66.4	206	37
2023-08-05T12:00	11945	205	-53.8	-66.7	205	37
2023-08-05T12:00	11964	205	-53.9	-66.9	204	36
2023-08-05T12:00	11993	204	-54.1	-67.2	202	36
2023-08-05T12:00	12019	203	-54.1	-67.5	201	36
2023-08-05T12:00	12042	202	-54.1	-67.7	199	35
2023-08-05T12:00	12064	201	-54.2	-68.0	198	35
2023-08-05T12:00	12087	201	-54.2	-68.1	197	35
2023-08-05T12:00	12110	200	-54.3	-68.3	196	35
2023-08-05T12:00	12132	199	-54.4	-68.9	196	35
2023-08-05T12:00	12154	199	-54.3	-69.7	195	36
2023-08-05T12:00	12177	198	-54.0	-70.4	194	36
2023-08-05T12:00	12197	197	-54.1	-70.9	194	37
2023-08-05T12:00	12220	197	-54.2	-70.9	193	37
2023-08-05T12:00	12242	196	-54.2	-70.9	192	38
2023-08-05T12:00	12262	195	-54.3	-71.2	192	38
2023-08-05T12:00	12285	195	-54.3	-71.3	191	38
2023-08-05T12:00	12306	194	-54.4	-71.5	191	39
2023-08-05T12:00	12330	193	-54.4	-71.8	191	39
2023-08-05T12:00	12351	193	-54.0	-71.9	192	40
2023-08-05T12:00	12370	192	-53.9	-72.3	193	41
2023-08-05T12:00	12391	191	-53.8	-72.6	194	41
2023-08-05T12:00	12412	191	-53.8	-72.9	195	42
2023-08-05T12:00	12432	190	-53.8	-73.3	195	43
2023-08-05T12:00	12450	190	-53.6	-73.6	196	43
2023-08-05T12:00	12472	189	-53.3	-74.0	197	44
2023-08-05T12:00	12491	188	-52.8	-74.1	197	44
2023-08-05T12:00	12512	188	-52.6	-74.2	197	44
2023-08-05T12:00	12532	187	-52.6	-74.2	197	45
2023-08-05T12:00	12553	187	-52.7	-74.1	198	45
2023-08-05T12:00	12572	186	-52.8	-74.2	198	44
2023-08-05T12:00	12591	186	-53.0	-74.5	198	44
2023-08-05T12:00	12617	185	-52.7	-74.4	198	44
2023-08-05T12:00	12637	184	-52.4	-74.5	199	43
2023-08-05T12:00	12660	184	-52.3	-75.1	199	43
2023-08-05T12:00	12682	183	-52.3	-75.4	199	43
2023-08-05T12:00	12701	182	-52.4	-75.6	199	42
2023-08-05T12:00	12724	182	-52.6	-75.8	199	42
2023-08-05T12:00	12742	181	-52.8	-75.9	199	42
2023-08-05T12:00	12761	181	-52.7	-76.2	199	42
2023-08-05T12:00	12781	180	-52.2	-76.2	200	42
2023-08-05T12:00	12798	180	-52.0	-76.2	201	42
2023-08-05T12:00	12819	179	-52.0	-76.6	202	41
2023-08-05T12:00	12844	178	-51.8	-77.1	204	40
2023-08-05T12:00	12864	178	-51.1	-77.2	205	39
2023-08-05T12:00	12890	177	-50.7	-77.7	207	39
2023-08-05T12:00	12912	177	-50.6	-78.2	208	38
2023-08-05T12:00	12937	176	-50.6	-78.2	209	37
2023-08-05T12:00	12962	175	-50.7	-78.6	209	37
2023-08-05T12:00	12986	175	-50.8	-78.7	209	36
2023-08-05T12:00	13018	174	-50.9	-78.5	210	35
2023-08-05T12:00	13043	173	-51.2	-78.7	210	34
2023-08-05T12:00	13069	172	-51.3	-79.1	211	34
2023-08-05T12:00	13096	172	-51.5	-79.2	211	33
2023-08-05T12:00	13115	171	-51.6	-79.3	212	32
2023-08-05T12:00	13132	171	-51.7	-79.7	212	32
2023-08-05T12:00	13150	170	-51.6	-79.6	212	32
2023-08-05T12:00	13167	170	-51.4	-79.5	212	32
2023-08-05T12:00	13185	169	-51.4	-79.5	211	32
2023-08-05T12:00	13202	169	-51.4	-79.5	211	31
2023-08-05T12:00	13219	168	-51.5	-79.6	211	31
2023-08-05T12:00	13236	168	-51.5	-79.6	210	31
2023-08-05T12:00	13254	168	-51.5	-79.6	210	30
2023-08-05T12:00	13273	167	-51.4	-79.5	210	30
2023-08-05T12:00	13291	167	-51.2	-79.3	210	30
2023-08-05T12:00	13310	166	-51.2	-79.3	210	30
2023-08-05T12:00	13328	166	-51.4	-79.5	210	30
2023-08-05T12:00	13348	165	-51.5	-79.6	210	29
2023-08-05T12:00	13364	165	-51.6	-79.6	211	29
2023-08-05T12:00	13383	164	-51.6	-79.6	211	29
2023-08-05T12:00	13402	164	-51.5	-79.6	211	29
2023-08-05T12:00	13421	163	-51.6	-79.6	211	28
2023-08-05T12:00	13437	163	-51.6	-79.6	211	28
2023-08-05T12:00	13455	162	-51.6	-80.0	210	28
2023-08-05T12:00	13477	162	-51.5	-79.9	210	27
2023-08-05T12:00	13495	161	-51.2	-79.7	210	27
2023-08-05T12:00	13513	161	-51.1	-80.0	209	27
2023-08-05T12:00	13536	160	-50.8	-79.8	209	27
2023-08-05T12:00	13556	160	-50.6	-80.0	207	27
2023-08-05T12:00	13579	159	-50.5	-79.9	206	27
2023-08-05T12:00	13598	159	-50.6	-80.0	205	27
2023-08-05T12:00	13619	158	-50.4	-79.8	203	27
2023-08-05T12:00	13641	158	-50.3	-79.8	203	27
2023-08-05T12:00	13662	157	-50.3	-79.8	203	27
2023-08-05T12:00	13684	157	-50.3	-80.2	204	27
2023-08-05T12:00	13706	156	-49.7	-79.7	205	27
2023-08-05T12:00	13735	156	-49.4	-79.5	206	27
2023-08-05T12:00	13760	155	-49.6	-79.7	206	26
2023-08-05T12:00	13781	155	-49.8	-79.8	207	26
2023-08-05T12:00	13804	154	-50.1	-80.0	206	27
2023-08-05T12:00	13824	154	-50.2	-79.7	206	27
2023-08-05T12:00	13843	153	-50.3	-79.8	205	27
2023-08-05T12:00	13866	153	-50.5	-79.9	204	27
2023-08-05T12:00	13885	152	-50.5	-79.9	204	27
2023-08-05T12:00	13906	152	-50.6	-80.0	204	27
2023-08-05T12:00	13928	151	-50.7	-80.1	205	27
2023-08-05T12:00	13947	151	-50.8	-80.1	205	27
2023-08-05T12:00	13971	150	-50.6	-80.4	206	27
2023-08-05T12:00	13992	150	-50.4	-80.3	206	27
2023-08-05T12:00	14014	149	-50.4	-80.3	205	27
2023-08-05T12:00	14033	149	-50.2	-80.6	205	27
2023-08-05T12:00	14051	148	-50.2	-80.6	204	27
2023-08-05T12:00	14073	148	-50.2	-80.6	204	27
2023-08-05T12:00	14095	147	-50.2	-80.6	203	27
2023-08-05T12:00	14116	147	-49.9	-80.3	203	28
2023-08-05T12:00	14138	146	-49.9	-80.3	202	28
2023-08-05T12:00	14158	146	-50.0	-80.4	202	28
2023-08-05T12:00	14178	145	-50.2	-80.6	202	29
2023-08-05T12:00	14200	145	-50.4	-80.3	202	29
2023-08-05T12:00	14222	144	-50.5	-80.3	201	29
2023-08-05T12:00	14239	144	-50.5	-80.3	201	30
2023-08-05T12:00	14263	144	-50.5	-80.3	200	30
2023-08-05T12:00	14284	143	-50.6	-80.9	200	30
2023-08-05T12:00	14305	143	-50.7	-80.9	199	30
2023-08-05T12:00	14324	142	-50.8	-80.6	199	31
2023-08-05T12:00	14343	142	-50.9	-80.6	199	31
2023-08-05T12:00	14367	141	-51.0	-80.7	199	31
2023-08-05T12:00	14396	141	-51.1	-80.8	200	32
2023-08-05T12:00	14418	140	-51.1	-80.8	201	32
2023-08-05T12:00	14440	140	-51.2	-80.9	202	32
2023-08-05T12:00	14460	139	-51.1	-80.8	204	32
2023-08-05T12:00	14482	139	-51.2	-80.9	205	32
2023-08-05T12:00	14501	138	-51.3	-80.9	207	32
2023-08-05T12:00	14517	138	-51.3	-80.9	208	32
2023-08-05T12:00	14539	138	-51.3	-80.9	209	32
2023-08-05T12:00	14558	137	-51.3	-80.9	210	32
2023-08-05T12:00	14578	137	-51.2	-80.9	212	32
2023-08-05T12:00	14599	136	-51.2	-80.9	213	32
2023-08-05T12:00	14615	136	-51.3	-80.9	214	32
2023-08-05T12:00	14636	136	-51.3	-80.9	215	32
2023-08-05T12:00	14656	135	-51.4	-81.0	216	32
2023-08-05T12:00	14676	135	-51.4	-81.0	217	32
2023-08-05T12:00	14696	134	-51.4	-81.0	219	32
2023-08-05T12:00	14716	134	-51.4	-81.0	220	31
2023-08-05T12:00	14735	133	-51.5	-81.1	221	31
2023-08-05T12:00	14755	133	-51.5	-81.5	221	31
2023-08-05T12:00	14775	133	-51.5	-81.5	222	31
2023-08-05T12:00	14795	132	-51.5	-81.5	223	30
2023-08-05T12:00	14816	132	-51.6	-81.6	224	30
2023-08-05T12:00	14838	131	-51.7	-81.7	224	30
2023-08-05T12:00	14856	131	-51.7	-81.7	225	30
2023-08-05T12:00	14879	131	-51.9	-81.4	225	29
2023-08-05T12:00	14899	130	-52.0	-81.5	225	29
2023-08-05T12:00	14919	130	-52.1	-81.5	225	29
2023-08-05T12:00	14939	129	-52.2	-81.6	225	28
2023-08-05T12:00	14962	129	-52.3	-81.7	226	28
2023-08-05T12:00	14982	128	-52.4	-81.8	226	28
2023-08-05T12:00	15004	128	-52.5	-81.8	226	27
2023-08-05T12:00	15025	128	-52.5	-81.8	226	27
2023-08-05T12:00	15048	127	-52.6	-81.9	226	26
2023-08-05T12:00	15069	127	-52.6	-81.9	226	26
2023-08-05T12:00	15090	126	-52.6	-81.9	226	25
2023-08-05T12:00	15111	126	-52.6	-82.4	226	24
2023-08-05T12:00	15136	125	-52.7	-82.4	226	23
2023-08-05T12:00	15154	125	-52.5	-82.3	226	23
2023-08-05T12:00	15178	125	-52.2	-82.1	226	22
2023-08-05T12:00	15200	124	-52.1	-82.0	225	21
2023-08-05T12:00	15222	124	-52.3	-82.1	225	21
2023-08-05T12:00	15250	123	-52.5	-82.3	224	20
2023-08-05T12:00	15271	123	-52.4	-82.2	224	20
2023-08-05T12:00	15294	122	-52.1	-82.0	224	20
2023-08-05T12:00	15315	122	-52.0	-81.9	224	20
2023-08-05T12:00	15338	122	-52.0	-81.9	224	20
2023-08-05T12:00	15362	121	-51.9	-82.3	226	20
2023-08-05T12:00	15387	121	-51.9	-82.3	227	21
2023-08-05T12:00	15412	120	-51.9	-82.3	228	21
2023-08-05T12:00	15433	120	-52.0	-82.4	229	21
2023-08-05T12:00	15459	119	-52.0	-81.9	230	20
2023-08-05T12:00	15481	119	-52.0	-81.9	231	20
2023-08-05T12:00	15506	118	-52.2	-82.1	231	19
2023-08-05T12:00	15529	118	-52.2	-82.1	231	19
2023-08-05T12:00	15551	118	-51.9	-82.3	230	18
2023-08-05T12:00	15574	117	-51.9	-82.3	230	17
2023-08-05T12:00	15598	117	-51.8	-82.2	229	16
2023-08-05T12:00	15620	116	-51.7	-82.2	229	15
2023-08-05T12:00	15643	116	-51.5	-82.0	229	15
2023-08-05T12:00	15662	116	-51.5	-82.0	229	14
2023-08-05T12:00	15684	115	-51.6	-82.1	228	14
2023-08-05T12:00	15706	115	-51.7	-82.2	227	13
2023-08-05T12:00	15729	114	-51.6	-82.1	224	13
2023-08-05T12:00	15749	114	-51.2	-82.3	221	13
2023-08-05T12:00	15770	114	-51.2	-82.3	217	13
2023-08-05T12:00	15795	113	-51.2	-82.3	214	13
2023-08-05T12:00	15818	113	-51.2	-82.3	211	13
2023-08-05T12:00	15840	113	-51.3	-82.4	207	13
2023-08-05T12:00	15859	112	-51.4	-82.5	204	13
2023-08-05T12:00	15884	112	-51.4	-82.5	201	13
2023-08-05T12:00	15905	111	-51.4	-82.5	199	13
2023-08-05T12:00	15927	111	-51.4	-82.5	198	14
2023-08-05T12:00	15948	111	-51.3	-82.4	197	14
2023-08-05T12:00	15970	110	-51.0	-82.2	197	14
2023-08-05T12:00	15990	110	-50.9	-82.1	196	14
2023-08-05T12:00	16011	110	-50.8	-82.0	195	14
2023-08-05T12:00	16033	109	-50.9	-82.1	194	14
2023-08-05T12:00	16055	109	-50.7		192	13
2023-08-05T12:00	16075	109	-50.5	-81.8	191	13
2023-08-05T12:00	16097	108	-50.4	-81.7	189	13
2023-08-05T12:00	16117	108	-50.5	-81.8	188	13
2023-08-05T12:00	16139	107	-50.5	-81.8	187	13
2023-08-05T12:00	16162	107	-50.6	-81.9	187	13
2023-08-05T12:00	16183	107	-50.7		187	14
2023-08-05T12:00	16204	106	-50.6	-81.9	187	14
2023-08-05T12:00	16226	106	-50.7		187	14
2023-08-05T12:00	16250	106	-50.8	-82.0	187	15
2023-08-05T12:00	16273	105	-51.0	-82.2	187	15
2023-08-05T12:00	16294	105	-51.2	-81.8	187	16
2023-08-05T12:00	16317	105	-51.4	-81.9	187	16
2023-08-05T12:00	16343	104	-51.5	-82.0	187	17
2023-08-05T12:00	16363	104	-51.6	-82.1	188	17
2023-08-05T12:00	16384	103	-51.8	-82.2	188	17
2023-08-05T12:00	16406	103	-51.9	-82.3	188	18
2023-08-05T12:00	16427	103	-52.1	-82.5	188	18
2023-08-05T12:00	16451	102	-52.2	-82.5	189	19
2023-08-05T12:00	16477	102	-52.3	-82.6	190	19
2023-08-05T12:00	16498	102	-52.5	-82.8	191	19
2023-08-05T12:00	16520	101	-52.6	-82.4	191	20
2023-08-05T12:00	16544	101	-52.8	-82.5	193	20
2023-08-05T12:00	16565	101	-52.9	-82.6	194	20
2023-08-05T12:00	16590	100	-53.1	-82.7	195	20
2023-08-05T12:00	16611	100	-53.2	-82.8	196	21
2023-08-05T12:00	16633	100	-53.3	-82.9	198	21
2023-08-05T12:00	16658	99	-53.4	-83.0	199	21
2023-08-05T12:00	16679	99	-53.6	-83.1	201	21
2023-08-05T12:00	16701	99	-53.6	-83.1	203	21
2023-08-05T12:00	16725	98	-53.7	-83.2	204	21
2023-08-05T12:00	16746	98	-53.7	-83.2	205	20
2023-08-05T12:00	16769	98	-53.7	-83.2	206	20
2023-08-05T12:00	16792	97	-53.6	-83.1	206	19
2023-08-05T12:00	16814	97	-53.4	-83.0	206	19
2023-08-05T12:00	16838	96	-53.3		207	19
2023-08-05T12:00	16858	96	-53.4	-83.4	208	19
2023-08-05T12:00	16880	96	-53.2	-83.3	209	19
2023-08-05T12:00	16902	96	-53.2	-83.3	210	18
2023-08-05T12:00	16925	95	-53.2	-83.3	211	18
2023-08-05T12:00	16945	95	-53.2	-83.3	213	18
2023-08-05T12:00	16968	95	-53.1	-83.2	214	18
2023-08-05T12:00	16992	94	-53.0	-83.1	215	17
2023-08-05T12:00	17012	94	-52.9	-83.1	215	17
2023-08-05T12:00	17038	94	-52.8	-83.0	215	16
2023-08-05T12:00	17062	93	-52.8	-83.0	214	15
2023-08-05T12:00	17085	93	-53.0	-83.1	213	15
2023-08-05T12:00	17111	92	-53.1	-83.2	211	14
2023-08-05T12:00	17137	92	-53.0	-83.6	208	13
2023-08-05T12:00	17158	92	-52.9	-83.6	205	13
2023-08-05T12:00	17181	91	-52.6	-83.3	203	13
2023-08-05T12:00	17205	91	-52.5	-83.3	202	13
2023-08-05T12:00	17228	91	-52.6	-83.3	202	13
2023-08-05T12:00	17249	91	-52.7	-83.4	203	13
2023-08-05T12:00	17274	90	-52.9	-83.6	205	14
2023-08-05T12:00	17296	90	-53.0	-83.6	208	14
2023-08-05T12:00	17316	90	-53.0	-83.6	210	14
2023-08-05T12:00	17337	89	-52.7	-83.4	213	14
2023-08-05T12:00	17363	89	-52.5	-83.3	215	14
2023-08-05T12:00	17384	89	-52.3	-83.1	216	14
2023-08-05T12:00	17405	88	-52.3	-83.1	217	15
2023-08-05T12:00	17428	88	-52.5	-83.3	218	15
2023-08-05T12:00	17447	88	-52.5	-83.3	219	15
2023-08-05T12:00	17471	87	-52.4	-83.2	221	15
2023-08-05T12:00	17489	87	-52.3	-83.1	222	15
2023-08-05T12:00	17512	87	-52.1	-83.5	223	15
2023-08-05T12:00	17534	87	-51.9	-83.4	224	14
2023-08-05T12:00	17554	86	-51.8	-83.3	224	13
2023-08-05T12:00	17575	86	-51.5	-83.1	223	12
2023-08-05T12:00	17598	86	-51.1	-82.8	222	11
2023-08-05T12:00	17617	85	-51.0	-82.7	219	11
2023-08-05T12:00	17643	85	-51.1	-82.8	216	10
2023-08-05T12:00	17662	85	-51.2	-82.9	212	10
2023-08-05T12:00	17684	85	-51.1	-82.8	208	9
2023-08-05T12:00	17704	84	-51.1	-82.8	203	9
2023-08-05T12:00	17725	84	-51.1	-82.8	198	9
2023-08-05T12:00	17745	84	-51.1	-82.8	193	10
2023-08-05T12:00	17767	84	-51.2	-82.9	189	10
2023-08-05T12:00	17786	83	-51.3	-82.9	186	10
2023-08-05T12:00	17806	83	-51.4	-83.0	184	11
2023-08-05T12:00	17826	83	-51.4	-83.0	183	12
2023-08-05T12:00	17847	83	-51.4	-83.0	184	12
2023-08-05T12:00	17871	82	-51.5	-83.1	185	13
2023-08-05T12:00	17892	82	-51.5	-83.1	186	13
2023-08-05T12:00	17913	82	-51.6	-83.2	188	13
2023-08-05T12:00	17936	81	-51.6	-83.2	190	14
2023-08-05T12:00	17957	81	-51.6	-83.2	192	14
2023-08-05T12:00	17977	81	-51.7	-83.2	194	14
2023-08-05T12:00	18001	81	-51.8	-83.3	196	14
2023-08-05T12:00	18021	80	-51.8	-83.3	197	14
2023-08-05T12:00	18043	80	-51.9	-82.8	199	14
2023-08-05T12:00	18062	80	-52.0	-82.9	200	14
2023-08-05T12:00	18084	80	-52.1	-83.0	202	14
2023-08-05T12:00	18106	79	-52.2	-83.6	203	14
2023-08-05T12:00	18128	79	-52.3	-83.7	203	13
2023-08-05T12:00	18150	79	-51.8	-83.3	204	13
2023-08-05T12:00	18168	79	-50.9	-83.3	204	13
2023-08-05T12:00	18192	78	-50.7	-83.1	203	13
2023-08-05T12:00	18212	78	-50.7	-83.1	203	13
2023-08-05T12:00	18236	78	-50.8	-83.2	204	12
2023-08-05T12:00	18256	77	-50.8	-83.2	205	12
2023-08-05T12:00	18281	77	-50.7	-83.1	207	12
2023-08-05T12:00	18303	77	-50.6	-83.1	209	12
2023-08-05T12:00	18323	77	-50.5	-83.0	211	12
2023-08-05T12:00	18347	76	-50.6	-83.1	213	12
2023-08-05T12:00	18368	76	-50.6	-83.1	214	11
2023-08-05T12:00	18390	76	-50.4	-82.9	214	11
2023-08-05T12:00	18410	76	-50.2	-82.8	215	11
2023-08-05T12:00	18434	75	-50.1	-82.7	216	11
2023-08-05T12:00	18454	75	-50.0	-82.6	217	11
2023-08-05T12:00	18477	75	-49.8	-82.5	217	11
2023-08-05T12:00	18498	75	-49.7	-82.4	217	11
2023-08-05T12:00	18521	74	-49.6	-82.3	217	11
2023-08-05T12:00	18545	74	-49.4	-82.9	216	10
2023-08-05T12:00	18567	74	-49.3	-82.8	216	10
2023-08-05T12:00	18590	74	-49.1	-82.7	217	10
2023-08-05T12:00	18609	73	-48.9	-82.5	218	10
2023-08-05T12:00	18631	73	-48.8	-82.4	220	10
2023-08-05T12:00	18658	73	-48.9	-82.5	222	11
2023-08-05T12:00	18680	73	-49.0	-81.9	223	11
2023-08-05T12:00	18705	72	-49.0	-81.9	223	11
2023-08-05T12:00	18727	72	-49.1	-82.0	223	11
2023-08-05T12:00	18752	72	-49.3	-82.1	222	11
2023-08-05T12:00	18779	72	-49.4	-82.2	221	11
2023-08-05T12:00	18801	71	-49.4	-82.2	220	11
2023-08-05T12:00	18824	71	-49.5	-82.3	218	11
2023-08-05T12:00	18845	71	-49.7	-82.4	217	11
2023-08-05T12:00	18871	71	-49.9	-82.5	214	11
2023-08-05T12:00	18899	70	-50.0	-82.6	211	10
2023-08-05T12:00	18926	70	-50.0	-82.6	208	10
2023-08-05T12:00	18949	70	-50.2	-82.1	205	10
2023-08-05T12:00	18972	69	-50.4	-82.3	201	10
2023-08-05T12:00	18998	69	-50.5		197	10
2023-08-05T12:00	19023	69	-50.7	-82.5	193	10
2023-08-05T12:00	19047	69	-50.9	-82.7	190	10
2023-08-05T12:00	19074	68	-51.0	-82.7	188	10
2023-08-05T12:00	19099	68	-51.1	-82.8	186	10
2023-08-05T12:00	19119	68	-51.3	-82.9	184	10
2023-08-05T12:00	19145	68	-51.5	-83.1	182	10
2023-08-05T12:00	19170	67	-51.7	-83.2	180	10
2023-08-05T12:00	19198	67	-51.9	-82.8	177	11
2023-08-05T12:00	19224	67	-52.0	-82.9	175	11
2023-08-05T12:00	19245	67	-52.2	-83.1	173	11
2023-08-05T12:00	19268	66	-52.4	-83.2	171	12
2023-08-05T12:00	19293	66	-52.6	-83.3	170	12
2023-08-05T12:00	19319	66	-52.7	-83.4	169	12
2023-08-05T12:00	19342	66	-52.9	-83.6	168	12
2023-08-05T12:00	19365	65	-53.0	-83.6	169	13
2023-08-05T12:00	19390	65	-53.2	-83.8	170	13
2023-08-05T12:00	19417	65	-53.3	-83.9	173	13
2023-08-05T12:00	19438	65	-53.4	-83.9	176	13
2023-08-05T12:00	19462	64	-53.1	-84.3	180	12
2023-08-05T12:00	19488	64	-52.7	-84.0	183	12
2023-08-05T12:00	19514	64	-52.6	-83.9	187	11
2023-08-05T12:00	19540	64	-52.6	-83.9	191	11
2023-08-05T12:00	19565	63	-52.7	-84.0	195	10
2023-08-05T12:00	19590	63	-52.8	-84.1	199	10
2023-08-05T12:00	19615	63	-52.9	-83.6	202	10
2023-08-05T12:00	19638	63	-53.0	-83.6	205	9
2023-08-05T12:00	19662	62	-53.1	-83.7	208	9
2023-08-05T12:00	19686	62	-53.1	-83.7	209	9
2023-08-05T12:00	19710	62	-53.1	-83.7	209	8
2023-08-05T12:00	19733	62	-53.1	-84.3	208	8
2023-08-05T12:00	19757	62	-53.1	-84.3	204	8
2023-08-05T12:00	19785	61	-53.0	-84.2	198	8
2023-08-05T12:00	19804	61	-52.8	-84.1	191	8
2023-08-05T12:00	19827	61	-52.6	-83.9	186	9
2023-08-05T12:00	19849	61	-52.4	-83.8	182	9
2023-08-05T12:00	19873	60	-52.3	-83.7	180	10
2023-08-05T12:00	19895	60	-52.2	-83.6	179	11
2023-08-05T12:00	19920	60	-52.3	-83.7	179	11
2023-08-05T12:00	19939	60	-52.3	-83.7	180	12
2023-08-05T12:00	19963	60	-52.3	-83.7	182	12
2023-08-05T12:00	19988	59	-52.4	-83.8	184	12
2023-08-05T12:00	20010	59	-52.5	-83.8	186	11
2023-08-05T12:00	20030	59	-52.3	-83.7	188	11
2023-08-05T12:00	20053	59	-52.2	-84.2	191	10
2023-08-05T12:00	20079	59	-51.9	-84.0	193	10
2023-08-05T12:00	20099	58	-51.6	-83.8	194	9
2023-08-05T12:00	20128	58	-51.2	-83.5	194	9
2023-08-05T12:00	20148	58	-51.0	-83.3	194	8
2023-08-05T12:00	20172	58	-50.8	-83.2	194	8
2023-08-05T12:00	20194	57	-50.7	-83.1	193	7
2023-08-05T12:00	20218	57	-50.7	-83.1	192	7
2023-08-05T12:00	20239	57	-50.7	-83.1	190	6
2023-08-05T12:00	20265	57	-50.7	-83.1	188	6
2023-08-05T12:00	20287	57	-50.7	-83.1	185	6
2023-08-05T12:00	20317	56	-50.9	-83.3	182	6
2023-08-05T12:00	20338	56	-51.0	-83.3	177	5
2023-08-05T12:00	20360	56	-51.2	-82.9	173	5
2023-08-05T12:00	20386	56	-51.2	-82.9	168	5
2023-08-05T12:00	20404	56	-51.3	-82.9	164	5
2023-08-05T12:00	20432	55	-51.5	-83.1	161	5
2023-08-05T12:00	20454	55	-51.6	-83.2	160	6
2023-08-05T12:00	20477	55	-51.7	-83.2	161	6
2023-08-05T12:00	20499	55	-51.8	-83.3	162	6
2023-08-05T12:00	20523	55	-51.9	-83.4	164	7
2023-08-05T12:00	20548	54	-51.9	-83.4	165	7
2023-08-05T12:00	20574	54	-51.9	-83.4	166	7
2023-08-05T12:00	20599	54	-51.8	-83.3	167	7
2023-08-05T12:00	20619	54	-51.8	-83.3	168	7
2023-08-05T12:00	20645	54	-51.8	-83.3	169	7
2023-08-05T12:00	20671	53	-51.9	-83.4	171	7
2023-08-05T12:00	20690	53	-52.0	-83.5	174	7
2023-08-05T12:00	20716	53	-52.0	-83.5	177	7
2023-08-05T12:00	20734	53	-52.1	-83.5	179	7
2023-08-05T12:00	20760	53	-52.2	-83.6	180	7
2023-08-05T12:00	20784	53	-52.2	-83.6	181	7
2023-08-05T12:00	20809	52	-52.3	-83.7	180	8
2023-08-05T12:00	20832	52	-52.2	-83.6	180	8
2023-08-05T12:00	20851	52	-52.2	-83.6	179	8
2023-08-05T12:00	20878	52	-52.4	-83.8	178	8
2023-08-05T12:00	20904	52	-52.4	-83.8	177	9
2023-08-05T12:00	20927	51	-52.4	-83.8	177	9
2023-08-05T12:00	20948	51	-52.2	-83.6	177	9
2023-08-05T12:00	20969	51	-52.2	-83.6	177	9
2023-08-05T12:00	20995	51	-52.3	-83.7	178	9
2023-08-05T12:00	21019	51	-52.3	-83.7	179	10
2023-08-05T12:00	21042	50	-52.3	-83.7	181	10
2023-08-05T12:00	21064	50	-52.3	-83.7	184	10
2023-08-05T12:00	21090	50	-52.3	-83.7	188	10
2023-08-05T12:00	21112	50	-52.3	-83.7	193	10
2023-08-05T12:00	21137	50	-52.2	-84.2	197	10
2023-08-05T12:00	21160	50	-52.1	-84.2	201	10
2023-08-05T12:00	21184	49	-52.0	-84.1	205	9
2023-08-05T12:00	21208	49	-52.1	-84.2	209	9
2023-08-05T12:00	21231	49	-52.2	-84.2	213	9
2023-08-05T12:00	21253	49	-52.0	-84.1	216	9
2023-08-05T12:00	21277	49	-52.0	-84.1	220	9
2023-08-05T12:00	21301	48	-52.0	-84.1	222	9
2023-08-05T12:00	21325	48	-52.1	-84.2	223	8
2023-08-05T12:00	21345	48	-52.0	-84.1	224	7
2023-08-05T12:00	21374	48	-51.7	-83.9	223	6
2023-08-05T12:00	21397	48	-51.5	-83.7	220	5
2023-08-05T12:00	21419	48	-51.3	-83.6	216	5
2023-08-05T12:00	21442	47	-51.1	-83.4	209	4
2023-08-05T12:00	21464	47	-51.1	-83.4	200	4
2023-08-05T12:00	21487	47	-51.1	-83.4	190	4
2023-08-05T12:00	21513	47	-51.1	-83.4	180	4
2023-08-05T12:00	21539	47	-51.2	-83.5	171	4
2023-08-05T12:00	21561	47	-51.4	-83.6	166	4
2023-08-05T12:00	21587	46	-51.5	-83.7	163	4
2023-08-05T12:00	21611	46	-51.4	-83.6	163	4
2023-08-05T12:00	21632	46	-51.2	-83.5	166	3
2023-08-05T12:00	21659	46	-51.0	-83.3	171	3
2023-08-05T12:00	21684	46	-51.1	-83.4	178	3
2023-08-05T12:00	21710	46	-51.2	-83.5	183	3
2023-08-05T12:00	21736	45	-51.4	-83.6	188	2
2023-08-05T12:00	21757	45	-51.5	-83.7	191	2
2023-08-05T12:00	21785	45	-51.6	-83.8	189	2
2023-08-05T12:00	21810	45	-51.6	-83.8	182	2
2023-08-05T12:00	21830	45	-51.3	-83.6	167	2
2023-08-05T12:00	21859	45	-51.0	-83.3	144	2
2023-08-05T12:00	21878	44	-50.9	-83.3	125	2
2023-08-05T12:00	21906	44	-50.9	-83.3	115	2
2023-08-05T12:00	21931	44	-51.0	-83.3	111	3
2023-08-05T12:00	21956	44	-51.1	-83.4	110	4
2023-08-05T12:00	21982	44	-51.2	-83.5	111	5
2023-08-05T12:00	22004	44	-51.3	-83.6	112	6
2023-08-05T12:00	22028	43	-51.2	-83.5	114	7
2023-08-05T12:00	22050	43	-51.2	-83.5	116	7
2023-08-05T12:00	22078	43	-51.1	-83.4	119	7
2023-08-05T12:00	22101	43	-51.2	-83.5	123	7
2023-08-05T12:00	22127	43	-51.1	-83.4	128	6
2023-08-05T12:00	22152	43	-50.8	-83.2	134	6
2023-08-05T12:00	22177	42	-50.8	-83.2	140	6
2023-08-05T12:00	22207	42	-50.9	-83.3	146	5
2023-08-05T12:00	22230	42	-50.9	-83.3	152	5
2023-08-05T12:00	22253	42	-51.0	-83.3	159	4
2023-08-05T12:00	22281	42	-51.1	-83.4	168	4
2023-08-05T12:00	22304	42	-51.2	-83.5	180	3
2023-08-05T12:00	22328	41	-51.1	-83.4	195	3
2023-08-05T12:00	22358	41	-50.9	-83.3	212	3
2023-08-05T12:00	22381	41	-50.8	-83.2	227	3
2023-08-05T12:00	22412	41	-50.8	-83.2	238	3
2023-08-05T12:00	22437	41	-50.8	-83.2	245	3
2023-08-05T12:00	22465	41	-50.9	-83.3	246	3
2023-08-05T12:00	22487	40	-51.0	-83.3	242	2
2023-08-05T12:00	22517	40	-51.0	-83.3	225	2
2023-08-05T12:00	22537	40	-51.1	-83.4	189	2
2023-08-05T12:00	22563	40	-51.2	-83.5	156	2
2023-08-05T12:00	22588	40	-51.0	-83.3	141	3
2023-08-05T12:00	22613	40	-50.9	-83.3	136	4
2023-08-05T12:00	22637	39	-50.9	-83.3	134	5
2023-08-05T12:00	22662	39	-51.0	-83.3	133	5
2023-08-05T12:00	22691	39	-51.2	-83.5	134	5
2023-08-05T12:00	22711	39	-51.2	-83.5	134	5
2023-08-05T12:00	22740	39	-51.1	-83.4	136	5
2023-08-05T12:00	22765	39	-50.8	-83.9	138	5
2023-08-05T12:00	22788	39	-50.7	-83.8	141	4
2023-08-05T12:00	22813	38	-50.7	-83.8	145	4
2023-08-05T12:00	22837	38	-50.6	-83.7	150	3
2023-08-05T12:00	22863	38	-50.5	-83.7	154	3
2023-08-05T12:00	22889	38	-50.3	-83.5	156	3
2023-08-05T12:00	22914	38	-50.0	-83.3	151	2
2023-08-05T12:00	22937	38	-49.8	-83.2	138	2
2023-08-05T12:00	22965	38	-49.8	-83.2	118	2
2023-08-05T12:00	22986	37	-49.8	-83.2	101	2
2023-08-05T12:00	23014	37	-49.7	-83.1	92	3
2023-08-05T12:00	23038	37	-49.6	-83.0	88	4
2023-08-05T12:00	23065	37	-49.6	-83.0	87	4
2023-08-05T12:00	23089	37	-49.7	-83.1	87	5
2023-08-05T12:00	23117	37	-49.8	-83.2	88	6
2023-08-05T12:00	23142	37	-50.0	-83.3	89	6
2023-08-05T12:00	23167	36	-50.1	-83.4	91	7
2023-08-05T12:00	23193	36	-50.2	-83.5	93	7
2023-08-05T12:00	23219	36	-50.4	-83.6	95	8
2023-08-05T12:00	23251	36	-50.5	-83.7	98	8
2023-08-05T12:00	23278	36	-50.6	-83.7	101	8
2023-08-05T12:00	23304	36	-50.6	-83.7	104	9
2023-08-05T12:00	23328	36	-50.5	-83.7	106	9
2023-08-05T12:00	23356	35	-50.5	-83.7	108	9
2023-08-05T12:00	23379	35	-50.5	-83.7	110	9
2023-08-05T12:00	23412	35	-50.5	-83.7	111	9
2023-08-05T12:00	23441	35	-50.5	-83.7	112	10
2023-08-05T12:00	23462	35	-50.6	-83.7	113	10
2023-08-05T12:00	23498	35	-50.6	-83.7	115	11
2023-08-05T12:00	23525	34	-50.6	-83.7	116	11
2023-08-05T12:00	23552	34	-50.7	-83.8	118	12
2023-08-05T12:00	23576	34	-50.8	-83.9	119	12
2023-08-05T12:00	23603	34	-50.9	-84.0	121	12
2023-08-05T12:00	23634	34	-50.9	-84.0	122	12
2023-08-05T12:00	23660	34	-50.9	-84.0	123	12
2023-08-05T12:00	23683	34	-50.7	-83.8	124	12
2023-08-05T12:00	23713	33	-50.5	-83.7	125	12
2023-08-05T12:00	23742	33	-50.4	-83.6	126	13
2023-08-05T12:00	23767	33	-50.3	-83.5	128	13
2023-08-05T12:00	23791	33	-50.1	-83.4	130	13
2023-08-05T12:00	23813	33	-49.9	-83.2	132	13
2023-08-05T12:00	23843	33	-49.9	-83.2	134	12
2023-08-05T12:00	23871	33	-50.0	-83.3	136	12
2023-08-05T12:00	23898	33	-50.1	-83.4	138	11
2023-08-05T12:00	23926	32	-50.2	-83.5	139	11
2023-08-05T12:00	23957	32	-50.4	-83.6	141	10
2023-08-05T12:00	23973	32	-50.5	-83.7	143	10
2023-08-05T12:00	24004	32	-50.7	-83.1	145	10
2023-08-05T12:00	24030	32	-50.9	-83.3	147	9
2023-08-05T12:00	24055	32	-51.0	-83.3	148	9
2023-08-05T12:00	24082	32	-51.1	-83.4	149	9
2023-08-05T12:00	24103	32	-51.2	-83.5	148	8
2023-08-05T12:00	24127	31	-51.2	-83.5	146	8
2023-08-05T12:00	24158	31	-51.3	-83.6	143	8
2023-08-05T12:00	24181	31	-51.3	-83.6	140	7
2023-08-05T12:00	24208	31	-51.3	-84.3	136	8
2023-08-05T12:00	24230	31	-51.2	-84.2	134	8
2023-08-05T12:00	24257	31	-51.2	-84.2	132	8
2023-08-05T12:00	24275	31	-51.1	-84.1	131	9
2023-08-05T12:00	24310	31	-51.0	-84.0	132	9
2023-08-05T12:00	24330	30	-50.9	-84.0	133	10
2023-08-05T12:00	24354	30	-50.7	-83.8	134	10
2023-08-05T12:00	24380	30	-50.5	-83.7	135	11
2023-08-05T12:00	24404	30	-50.5	-83.7	137	11
2023-08-05T12:00	24428	30	-50.6	-83.7	139	11
2023-08-05T12:00	24459	30	-50.7	-83.8	141	11
2023-08-05T12:00	24482	30	-50.6	-83.7	144	11
2023-08-05T12:00	24501	30	-50.5	-83.7	147	11
2023-08-05T12:00	24530	30	-50.5	-83.7	150	10
2023-08-05T12:00	24559	29	-50.4	-83.6	152	10
2023-08-05T12:00	24578	29	-50.4	-83.6	154	9
2023-08-05T12:00	24611	29	-50.1	-84.2	155	9
2023-08-05T12:00	24634	29	-49.7	-83.9	157	9
2023-08-05T12:00	24657	29	-49.5	-83.7	160	9
2023-08-05T12:00	24681	29	-49.3	-83.6	163	8
2023-08-05T12:00	24712	29	-49.2	-83.5	166	8
2023-08-05T12:00	24738	29	-49.1	-83.4	169	8
2023-08-05T12:00	24763	29	-49.1	-83.4	171	7
2023-08-05T12:00	24783	28	-49.1	-83.4	171	7
2023-08-05T12:00	24816	28	-49.1	-83.4	169	6
2023-08-05T12:00	24830	28	-49.2	-83.5	165	5
2023-08-05T12:00	24867	28	-49.0	-83.4	159	5
2023-08-05T12:00	24896	28	-48.8	-83.2	150	5
2023-08-05T12:00	24919	28	-48.8	-83.2	141	5
2023-08-05T12:00	24948	28	-48.8	-83.2	133	5
2023-08-05T12:00	24977	28	-48.7	-83.2	126	5
2023-08-05T12:00	25000	27	-48.6	-83.1	120	6
2023-08-05T12:00	25024	27	-48.6	-83.1	114	6
2023-08-05T12:00	25051	27	-48.6	-83.1	109	6
2023-08-05T12:00	25083	27	-48.6	-83.1	104	6
2023-08-05T12:00	25108	27	-48.6	-83.1	101	7
2023-08-05T12:00	25136	27	-48.7	-83.2	100	7
2023-08-05T12:00	25168	27	-48.7	-83.2	101	7
2023-08-05T12:00	25186	27	-48.7	-83.2	104	8
2023-08-05T12:00	25216	27	-48.7	-83.2	107	8
2023-08-05T12:00	25249	26	-48.7	-83.2	111	8
2023-08-05T12:00	25272	26	-48.7	-83.2	114	9
2023-08-05T12:00	25301	26	-48.8	-83.2	117	9
2023-08-05T12:00	25329	26	-48.8	-83.2	119	9
2023-08-05T12:00	25362	26	-48.7	-83.2	121	8
2023-08-05T12:00	25384	26	-48.6	-83.1	122	8
2023-08-05T12:00	25409	26	-48.6	-83.1	122	8
2023-08-05T12:00	25445	26	-48.7	-83.2	122	7
2023-08-05T12:00	25469	26	-48.6	-83.1	122	7
2023-08-05T12:00	25495	26	-48.5	-83.0	121	6
2023-08-05T12:00	25515	25	-48.4	-82.9	118	5
2023-08-05T12:00	25543	25	-48.4	-82.9	114	5
2023-08-05T12:00	25575	25	-48.4	-82.9	109	5
2023-08-05T12:00	25603	25	-48.4	-82.9	104	5
2023-08-05T12:00	25624	25	-48.4	-82.9	101	5
2023-08-05T12:00	25655	25	-48.4	-82.9	99	5
2023-08-05T12:00	25680	25	-48.4	-82.9	99	6
2023-08-05T12:00	25709	25	-48.5	-83.0	100	6
2023-08-05T12:00	25733	25	-48.5	-83.0	102	7
2023-08-05T12:00	25766	24	-48.6	-83.1	104	8
2023-08-05T12:00	25785	24	-48.6	-83.1	105	8
2023-08-05T12:00	25810	24	-48.7	-83.2	106	9
2023-08-05T12:00	25840	24	-48.8	-83.2	107	9
2023-08-05T12:00	25859	24	-48.8	-83.2	107	9
2023-08-05T12:00	25890	24	-48.9	-83.3	106	9
2023-08-05T12:00	25922	24	-49.0	-83.4	106	9
2023-08-05T12:00	25947	24	-49.0	-83.4	107	9
2023-08-05T12:00	25964	24	-49.0	-83.4	109	9
2023-08-05T12:00	25990	24	-49.0	-83.4	111	9
2023-08-05T12:00	26022	24	-49.0	-83.4	112	9
2023-08-05T12:00	26046	23	-49.0	-83.4	112	9
2023-08-05T12:00	26071	23	-48.9	-83.3	111	8
2023-08-05T12:00	26104	23	-48.7	-83.2	108	8
2023-08-05T12:00	26122	23	-48.6	-83.1	106	7
2023-08-05T12:00	26161	23	-48.5	-83.0	103	7
2023-08-05T12:00	26172	23	-48.4	-82.9	102	6
2023-08-05T12:00	26207	23	-48.3	-82.9	103	6
2023-08-05T12:00	26224	23	-48.2	-82.8	104	6
2023-08-05T12:00	26262	23	-48.1	-83.6	107	6
2023-08-05T12:00	26285	23	-48.0	-83.6	110	6
2023-08-05T12:00	26316	23	-47.9	-83.5	111	7
2023-08-05T12:00	26336	22	-47.7	-83.4	112	6
2023-08-05T12:00	26368	22	-47.5	-83.2	111	6
2023-08-05T12:00	26396	22	-47.4	-83.1	107	5
2023-08-05T12:00	26422	22	-47.2	-83.0	101	5
2023-08-05T12:00	26459	22	-47.2	-83.0	92	4
2023-08-05T12:00	26478	22	-47.2	-83.0	85	4
2023-08-05T12:00	26505	22	-47.2	-83.0	80	5
2023-08-05T12:00	26533	22	-47.2	-83.0	79	5
2023-08-05T12:00	26561	22	-47.2	-83.0	79	6
2023-08-05T12:00	26595	22	-47.1	-82.9	81	6
2023-08-05T12:00	26617	22	-47.1	-82.9	83	7
2023-08-05T12:00	26653	21	-47.1	-82.9	86	7
2023-08-05T12:00	26682	21	-47.2	-83.0	89	8
2023-08-05T12:00	26703	21	-47.2	-83.0	93	8
2023-08-05T12:00	26738	21	-47.2	-82.1	96	9
2023-08-05T12:00	26765	21	-47.3	-82.2	99	9
2023-08-05T12:00	26791	21	-47.4	-82.2	102	9
2023-08-05T12:00	26825	21	-47.5	-82.3	103	9
2023-08-05T12:00	26856	21	-47.6	-82.4	104	9
2023-08-05T12:00	26882	21	-47.8	-82.5	103	9
2023-08-05T12:00	26910	21	-47.9	-82.6	102	9
2023-08-05T12:00	26938	21	-47.9	-82.6	101	9
2023-08-05T12:00	26965	20	-48.0	-82.7	99	9
2023-08-05T12:00	27002	20	-48.0	-82.7	97	9
2023-08-05T12:00	27030	20	-48.1	-82.7	96	9
2023-08-05T12:00	27049	20	-48.2	-82.8	96	9
2023-08-05T12:00	27080	20	-48.3	-82.9	97	9
2023-08-05T12:00	27101	20	-48.3	-82.9	100	9
2023-08-05T12:00	27144	20	-48.3	-82.9	103	9
2023-08-05T12:00	27175	20	-48.3	-82.9	106	9
2023-08-05T12:00	27197	20	-48.4	-82.9	108	9
2023-08-05T12:00	27231	20	-48.5	-83.0	109	9
2023-08-05T12:00	27245	20	-48.3	-82.9	108	9
2023-08-05T12:00	27282	19	-47.9	-83.5	106	9
2023-08-05T12:00	27307	19	-47.6	-83.3	103	9
2023-08-05T12:00	27337	19	-47.3	-83.1	101	10
2023-08-05T12:00	27364	19	-47.1	-82.9	101	10
2023-08-05T12:00	27391	19	-46.9	-82.8	101	11
2023-08-05T12:00	27421	19	-46.7	-82.6	103	12
2023-08-05T12:00	27454	19	-46.5	-82.5	106	12
2023-08-05T12:00	27472	19	-46.4	-82.4	109	12
2023-08-05T12:00	27500	19	-46.3	-82.4	112	12
2023-08-05T12:00	27531	19	-46.3	-82.4	115	12
2023-08-05T12:00	27559	19	-46.3	-82.4	117	12
2023-08-05T12:00	27581	19	-46.3	-82.4	118	11
2023-08-05T12:00	27613	19	-46.1	-82.2	118	11
2023-08-05T12:00	27640	18	-46.0	-82.1	116	10
2023-08-05T12:00	27674	18	-46.0	-82.1	114	10
2023-08-05T12:00	27691	18	-46.1	-82.2	111	10
2023-08-05T12:00	27727	18	-46.1	-82.2	109	9
2023-08-05T12:00	27747	18	-46.1	-82.2	106	9
2023-08-05T12:00	27767	18	-46.2	-82.3	104	9
2023-08-05T12:00	27803	18	-46.2	-82.3	104	9
2023-08-05T12:00	27825	18	-46.2	-82.3	105	9
2023-08-05T12:00	27849	18	-46.2	-82.3	108	9
2023-08-05T12:00	27887	18	-46.1	-82.2	113	10
2023-08-05T12:00	27909	18	-46.1	-82.2	118	10
2023-08-05T12:00	27930	18	-46.0	-82.1	123	11
2023-08-05T12:00	27964	18	-46.0	-82.1	129	11
2023-08-05T12:00	27985	18	-46.1	-82.2	134	12
2023-08-05T12:00	28012	17	-46.2	-82.3	138	12
2023-08-05T12:00	28044	17	-46.2	-82.3	141	12
2023-08-05T12:00	28067	17	-46.0	-82.1	144	13
2023-08-05T12:00	28086	17	-45.9	-82.1	145	12
2023-08-05T12:00	28108	17	-45.7	-81.9	146	12
2023-08-05T12:00	28134	17	-45.7	-81.9	147	12
2023-08-05T12:00	28163	17	-45.6	-81.9	148	11
2023-08-05T12:00	28193	17	-45.6	-81.9	149	11
2023-08-05T12:00	28218	17	-45.6	-81.9	150	11
2023-08-05T12:00	28236	17	-45.7	-81.9	151	11
2023-08-05T12:00	28255	17	-45.7	-81.9	151	11
2023-08-05T12:00	28295	17	-45.7	-81.9	150	11
2023-08-05T12:00	28316	17	-45.6	-81.9	150	11
2023-08-05T12:00	28346	17	-45.6	-81.9	149	10
2023-08-05T12:00	28373	17	-45.7	-81.9	148	10
2023-08-05T12:00	28391	16	-45.8	-82.0	148	9
2023-08-05T12:00	28422	16	-45.9	-82.1	149	8
2023-08-05T12:00	28447	16	-45.9	-82.1	150	8
2023-08-05T12:00	28477	16	-45.9	-82.1	151	7
2023-08-05T12:00	28510	16	-46.0	-82.1	150	6
2023-08-05T12:00	28536	16	-46.1	-82.2	148	6
2023-08-05T12:00	28561	16	-46.2	-82.3	144	5
2023-08-05T12:00	28584	16	-46.2	-82.3	138	5
2023-08-05T12:00	28618	16	-46.3	-82.4	132	4
2023-08-05T12:00	28648	16	-46.3	-82.4	129	4
2023-08-05T12:00	28686	16	-46.3	-82.4	128	4
2023-08-05T12:00	28707	16	-46.3	-82.4	129	4
2023-08-05T12:00	28739	16	-46.2	-82.3	131	4
2023-08-05T12:00	28768	16	-46.2	-82.3	132	5
2023-08-05T12:00	28795	16	-46.3	-82.4	132	5
2023-08-05T12:00	28807	15	-46.4	-82.4	129	4
2023-08-05T12:00	28851	15	-46.5	-82.5	124	4
2023-08-05T12:00	28873	15	-46.4	-82.4	116	4
2023-08-05T12:00	28915	15	-46.4	-82.4	106	4
2023-08-05T12:00	28940	15	-46.5	-82.5	99	4
2023-08-05T12:00	28979	15	-46.6	-82.6	96	4
2023-08-05T12:00	28999	15	-46.6	-82.6	97	4
2023-08-05T12:00	29022	15	-46.6	-82.6	102	4
2023-08-05T12:00	29057	15	-46.7	-82.6	110	4
2023-08-05T12:00	29101	15	-46.7	-82.6	121	3
2023-08-05T12:00	29125	15	-46.7	-82.6	135	3
2023-08-05T12:00	29154	15	-46.7	-82.6	148	4
2023-08-05T12:00	29182	15	-46.7	-82.6	159	4
2023-08-05T12:00	29212	15	-46.7	-82.6	166	4
2023-08-05T12:00	29249	14	-46.7	-82.6	170	4
2023-08-05T12:00	29280	14	-46.6	-82.6	171	4
2023-08-05T12:00	29309	14	-46.4	-82.4	169	4
2023-08-05T12:00	29328	14	-46.3	-82.4	164	4
2023-08-05T12:00	29372	14	-46.2	-82.3	158	4
2023-08-05T12:00	29395	14	-46.1	-82.2	152	3
2023-08-05T12:00	29433	14	-46.1	-82.2	147	3
2023-08-05T12:00	29449	14	-46.0	-82.1	145	3
2023-08-05T12:00	29481	14	-45.9	-82.1	143	2
2023-08-05T12:00	29512	14	-45.8	-83.1	141	1
2023-08-05T12:00	29553	14	-45.7	-83.0	132	1
2023-08-05T12:00	29574	14	-45.6	-82.9	33	0
2023-08-05T12:00	29606	14	-45.6	-81.9	337	1
2023-08-05T12:00	29639	14	-45.6	-81.9	325	1
2023-08-05T12:00	29662	14	-45.7	-81.9	317	1
2023-08-05T12:00	29692	14	-45.9	-82.1	310	2
2023-08-05T12:00	29728	13	-46.0	-82.1	309	2
2023-08-05T12:00	29758	13	-46.2	-82.3	313	3
2023-08-05T12:00	29774	13	-46.2	-82.3	321	3
2023-08-05T12:00	29821	13	-46.0	-82.1	330	4
2023-08-05T12:00	29845	13	-45.7	-81.9	340	4
2023-08-05T12:00	29883	13	-45.6	-82.9	349	4
2023-08-05T12:00	29917	13	-45.6	-82.9	356	4
2023-08-05T12:00	29953	13	-45.6	-82.9	3	4
2023-08-05T12:00	29974	13	-45.5	-82.9	7	3
2023-08-05T12:00	30004	13	-45.3	-82.7	7	3
2023-08-05T12:00	30036	13	-45.1	-82.6	6	3
2023-08-05T12:00	30071	13	-45.2	-82.7	5	3
2023-08-05T12:00	30111	13	-45.1	-82.6	8	4
2023-08-05T12:00	30126	13	-44.9	-82.5	12	5
2023-08-05T12:00	30171	13	-44.5	-82.2	17	6
2023-08-05T12:00	30185	13	-44.3	-82.0	21	7
2023-08-05T12:00	30243	13	-44.2	-82.0	24	8
2023-08-05T12:00	30255	12	-44.1	-81.9	27	10
2023-08-05T12:00	30293	12	-44.0	-81.8	29	11
2023-08-05T12:00	30319	12	-43.9	-81.8	32	12
2023-08-05T12:00	30355	12	-43.8	-81.7	33	12
2023-08-05T12:00	30379	12	-43.8	-81.7	35	13
2023-08-05T12:00	30398	12	-43.8	-81.7	37	13
2023-08-05T12:00	30433	12	-43.9	-81.8	40	13
2023-08-05T12:00	30470	12	-44.1	-81.9	42	13
2023-08-05T12:00	30507	12	-44.2	-82.0	45	12
2023-08-05T12:00	30511	12	-44.1	-81.9	47	12
2023-08-05T12:00	30543	12	-44.0	-81.8	49	12
2023-08-05T12:00	30584	12	-44.0	-81.8	50	13
2023-08-05T12:00	30609	12	-43.7	-81.6	50	14
2023-08-05T12:00	30631	12	-43.4	-81.4	51	15
2023-08-05T12:00	30667	12	-43.2	-81.3	53	15
2023-08-05T12:00	30700	12	-43.1	-81.2	56	16
2023-08-05T12:00	30740	12	-43.0	-81.1	59	17
2023-08-05T12:00	30760	12	-43.0	-81.1	63	18
2023-08-05T12:00	30785	12	-42.9	-81.1	67	18
2023-08-05T12:00	30822	11	-42.8	-81.0	70	18
2023-08-05T12:00	30849	11	-42.9	-81.1	73	19
2023-08-05T12:00	30870	11	-42.9	-81.1	75	18
2023-08-05T12:00	30902	11	-43.0	-81.1	77	18
2023-08-05T12:00	30922	11	-42.9	-81.1	78	17
2023-08-05T12:00	30975	11	-42.6	-80.8	79	16
2023-08-05T12:00	30990	11	-42.3	-80.6	80	15
2023-08-05T12:00	31037	11	-42.3	-80.6	82	14
2023-08-05T12:00	31056	11	-42.2	-80.6	84	13
2023-08-05T12:00	31078	11	-42.1	-80.5	86	13
2023-08-05T12:00	31119	11	-41.9	-80.4	88	12
2023-08-05T12:00	31142	11	-41.6	-80.1	90	12
2023-08-05T12:00	31169	11	-41.4	-80.0	93	12
2023-08-05T12:00	31200	11	-41.3	-79.9	96	12
2023-08-05T12:00	31235	11	-41.2	-79.9	99	12
2023-08-05T12:00	31263	11	-41.1	-79.8	101	12
2023-08-05T12:00	31280	11	-41.1	-79.8	101	12
2023-08-05T12:00	31313	11	-41.1	-79.8	100	12
2023-08-05T12:00	31330	11	-40.9	-79.7	97	13
2023-08-05T12:00	31365	11	-40.5	-79.4	94	13
2023-08-05T12:00	31393	11	-40.2	-79.2	91	14
2023-08-05T12:00	31413	10	-39.9	-79.0	89	15
2023-08-05T12:00	31448	10	-39.9	-79.0	87	16
2023-08-05T12:00	31474	10	-40.0	-79.0	86	16
2023-08-05T12:00	31493	10	-39.9	-79.0	85	17
2023-08-05T12:00	31531	10	-39.8	-78.9	86	17
2023-08-05T12:00	31559	10	-39.6	-78.8	87	17
2023-08-05T12:00	31575	10	-39.4	-78.6	89	16
2023-08-05T12:00	31621	10	-39.2	-78.5	92	16
2023-08-05T12:00	31637	10	-39.1	-78.4	94	15
2023-08-05T12:00	31662	10	-39.1	-78.4	97	14
2023-08-05T12:00	31691	10	-39.1	-78.4	100	14
2023-08-05T12:00	31719	10	-39.0	-78.3	103	13
2023-08-05T12:00	31742	10	-39.0	-78.3	106	13
2023-08-05T12:00	31779	10	-39.1	-78.4	109	12
2023-08-05T12:00	31806	10	-39.1	-78.4	112	12
2023-08-05T12:00	31819	10	-39.0	-78.3	114	11
2023-08-05T12:00	31851	10	-38.8	-78.2	115	10
2023-08-05T12:00	31876	10	-38.7	-78.1	114	10
2023-08-05T12:00	31905	10	-38.6	-78.1	111	9
2023-08-05T12:00	31913	10	-38.5	-78.0	107	9
2023-08-05T12:00	31951	10	-38.4	-77.9	102	9
2023-08-05T12:00	31988	10	-38.2	-77.8	97	9
2023-08-05T12:00	31993	10	-38.1	-77.7	92	9
2023-08-05T12:00	32031	10	-38.1	-77.7	89	9
2023-08-05T12:00	32075	10	-38.0	-77.6	86	9
2023-08-05T12:00	32092	10	-38.0	-77.6	84	9
2023-08-05T12:00	32110	9	-38.0	-77.6	82	9
2023-08-05T12:00	32146	9	-37.9	-77.6	79	8
2023-08-05T12:00	32185	9	-37.8	-77.5	77	8
2023-08-05T12:00	32204	9	-37.7	-77.4	75	7
2023-08-05T12:00	32238	9	-37.8	-77.5	73	7
2023-08-05T12:00	32243	9	-37.8	-77.5	72	8
2023-08-05T12:00	32263	9	-37.7	-77.4	72	8
2023-08-05T12:00	32299	9	-37.5	-77.3	72	9
2023-08-05T12:00	32321	9	-37.4	-77.2	72	10
2023-08-05T12:00	32352	9	-37.4	-77.2	73	11
2023-08-05T12:00	32395	9	-37.4	-77.2	74	12
2023-08-05T12:00	32443	9	-37.6	-77.4	77	14
2023-08-05T12:00	32484	9	-37.7	-77.4	79	14
2023-08-05T12:00	32493	9	-37.6	-77.4	79	14
2023-08-05T12:00	32513	9	-37.6	-77.4	79	14
2023-08-05T12:00	32533	9	-37.6	-77.4	78	14
2023-08-05T12:00	32557	9	-37.6	-77.4	77	13
2023-08-05T12:00	32613	9	-37.4	-77.2	75	13
2023-08-05T12:00	32678	9	-37.0	-77.0	73	12
2023-08-05T12:00	32696	9	-36.8	-76.8	72	12
2023-08-05T12:00	32715	9	-36.7	-76.7	73	12
2023-08-05T12:00	32759	9	-36.7	-76.7	75	12
2023-08-05T12:00	32797	9	-36.7	-76.7	77	13
2023-08-05T12:00	32804	9	-36.7	-76.7	79	14
2023-08-05T12:00	32848	9	-36.7	-76.7	81	14
2023-08-05T12:00	32920	8	-36.9	-76.9	85	15
2023-08-05T12:00	32949	8	-36.9	-76.9	87	16
2023-08-05T12:00	32986	8	-36.9	-76.9	89	16
2023-08-05T12:00	33004	8	-37.0	-77.0	91	16
2023-08-05T12:00	33024	8	-36.9	-76.9	93	15
2023-08-05T12:00	33031	8	-36.8	-76.8	93	15
2023-08-05T12:00	33093	8	-36.7	-76.7	94	14
2023-08-05T12:00	33119	8	-36.4	-76.5	93	13
2023-08-05T12:00	33173	8	-36.2	-76.4	93	13
2023-08-05T12:00	33186	8	-36.1	-76.3	92	13
2023-08-05T12:00	33217	8	-35.9	-76.2	90	13
2023-08-05T12:00	33223	8	-35.7	-76.1	89	13
2023-08-05T12:00	33278	8	-35.6	-76.0	88	13
2023-08-05T12:00	33283	8	-35.5	-75.9	86	13
2023-08-05T12:00	33320	8	-35.4	-75.8	85	12
2023-08-05T12:00	33331	8	-35.3	-75.8	82	12
2023-08-05T12:00	33361	8	-35.1	-75.6	80	12
2023-08-05T12:00	33402	8	-35.0	-75.6	78	12
2023-08-05T12:00	33435	8	-34.9	-75.5	77	11
2023-08-05T12:00	33446	8	-34.8	-75.4	76	11
2023-08-05T12:00	33469	8	-34.8	-75.4	77	11
2023-08-05T12:00	33507	8	-34.6	-75.3	80	12
2023-08-05T12:00	33518	8	-34.5	-75.2	83	12
2023-08-05T12:00	33560	8	-34.4	-75.2	87	13
2023-08-05T12:00	33567	8	-34.3	-75.1	90	13
2023-08-05T12:00	33579	8	-34.2	-75.0	93	14
2023-08-05T12:00	33611	8	-34.0	-74.9	95	14
2023-08-05T12:00	33612	8	-33.8	-74.7	96	15
2023-08-05T12:00	33651	8	-33.6	-74.6	96	15
2023-08-05T12:00	33689	8	-33.3	-74.4	97	15
2023-08-05T12:00	33699	8	-33.1	-74.3	97	15
2023-08-05T12:00	33719	8	-32.9	-74.1	97	15
2023-08-05T12:00	33747	8	-32.8	-74.1	97	14
2023-08-05T12:00	33755	7	-32.8	-74.1	96	14
2023-08-05T12:00	33771	7	-32.9	-74.1	95	14
2023-08-05T12:00	33790	7	-32.9	-74.1	94	13
2023-08-05T12:00	33835	7	-32.9	-74.1	94	13
2023-08-05T12:00	33844	7	-32.9	-74.1	94	13
2023-08-05T12:00	33872	7	-32.9	-74.1	95	14
2023-08-05T12:00	33899	7	-32.9	-74.1	97	14
2023-08-05T12:00	33933	7	-32.9	-74.1	99	15
2023-08-05T12:00	33972	7	-32.9	-74.1	101	16
2023-08-05T12:00	33985	7	-32.8	-74.1	103	16
2023-08-05T12:00	34018	7	-32.7	-74.0	105	17
2023-08-05T12:00	34059	7	-32.6	-73.9	106	17
2023-08-05T12:00	34080	7	-32.5	-73.8	107	16
2023-08-05T12:00	34110	7	-32.3	-73.7	108	16
2023-08-05T12:00	34139	7	-32.3	-73.7	109	15
2023-08-05T12:00	34167	7	-32.3	-73.7	109	15
2023-08-05T12:00	34187	7	-32.3	-73.7	111	14
2023-08-05T12:00	34235	7	-31.9	-73.4	116	14
2023-08-05T12:00	34259	7	-31.8	-73.4	120	14
2023-08-05T12:00	34293	7	-31.6	-73.2	123	14
2023-08-05T12:00	34335	7	-31.6	-73.2	126	14
2023-08-05T12:00	34344	7	-31.7	-73.3	129	14
2023-08-05T12:00	34390	7	-31.7	-73.3	132	14
2023-08-05T12:00	34425	7	-31.8	-73.4	136	14
2023-08-05T12:00	34447	7	-31.8	-73.4	139	13
2023-08-05T12:00	34478	7	-31.8	-73.4	142	13
2023-08-05T12:00	34512	7	-31.6	-73.2	144	13
2023-08-05T12:00	34539	7	-31.4	-73.1	145	12
2023-08-05T12:00	34566	7	-31.3	-73.0	144	12
2023-08-05T12:00	34590	7	-31.2	-73.0	141	11
2023-08-05T12:00	34616	7	-31.2	-73.0	138	11
2023-08-05T12:00	34659	7	-31.1	-72.9	135	10
2023-08-05T12:00	34695	7	-31.1	-72.9	132	10
2023-08-05T12:00	34709	7	-31.1	-72.9	128	10
2023-08-05T12:00	34768	7	-31.1	-72.9	125	10
2023-08-05T12:00	34779	6	-31.0	-72.8	121	10
2023-08-05T12:00	34838	6	-30.9	-72.8	116	10
2023-08-05T12:00	34868	6	-30.7	-72.6	114	10
2023-08-05T12:00	34893	6	-30.6	-72.5	114	10
2023-08-05T12:00	34926	6	-30.6	-72.5	114	10
2023-08-05T12:00	34949	6	-30.6	-72.5	115	10
2023-08-05T12:00	34963	6	-30.6	-72.5	115	10
2023-08-05T12:00	35005	6	-30.6	-72.5	115	9
2023-08-05T12:00	35018	6	-30.5	-72.5	115	9
2023-08-05T12:00	35042	6	-30.5	-72.5	115	9
2023-08-05T12:00	35088	6	-30.5	-72.5	116	8
2023-08-05T12:00	35105	6	-30.4	-72.4	116	8
2023-08-05T12:00	35115	6	-30.3	-72.3	116	7
2023-08-05T12:00	35161	6	-30.2	-72.3	114	7
2023-08-05T12:00	35197	6	-29.9	-72.1	107	6
2023-08-05T12:00	35229	6	-29.7	-71.9	102	6
2023-08-05T12:00	35247	6	-29.6	-71.9	95	6
2023-08-05T12:00	35252	6	-29.5	-71.8	90	7
2023-08-05T12:00	35315	6	-29.4	-71.7	85	7
2023-08-05T12:00	35333	6	-29.3	-71.7	81	7
2023-08-05T12:00	35351	6	-29.2	-71.6	79	8
2023-08-05T12:00	35388	6	-29.2	-71.6	77	8
2023-08-05T12:00	35427	6	-29.2	-71.6	76	8
2023-08-05T12:00	35445	6	-29.3	-71.7	76	9
2023-08-05T12:00	35496	6	-29.4	-71.7	78	10
2023-08-05T12:00	35552	6	-29.3	-71.7	81	11
2023-08-05T12:00	35556	6	-29.2	-71.6	84	11
2023-08-05T12:00	35591	6	-29.1	-71.5	86	11
2023-08-05T12:00	35624	6	-29.1	-71.5	90	11
2023-08-05T12:00	35671	6	-28.8	-71.3	96	11
2023-08-05T12:00	35676	6	-28.8	-71.3	98	11
2023-08-05T12:00	35727	6	-28.7	-71.2	99	11
2023-08-05T12:00	35782	6	-28.6	-71.2	100	11
2023-08-05T12:00	35820	6	-28.3	-71.0	99	11
2023-08-05T12:00	35883	6	-28.0	-70.8	98	10
2023-08-05T12:00	35888	6	-27.9	-70.7	98	10
2023-08-05T12:00	35908	6	-27.8	-70.6	98	10
2023-08-05T12:00	35917	6	-27.8	-70.6	99	11
2023-08-05T12:00	35986	6	-27.7	-70.6	100	11
2023-08-05T12:00	36014	5	-27.5	-70.4	103	12
2023-08-05T12:00	36061	5	-27.4	-70.4	104	12
2023-08-05T12:00	36093	5	-27.4	-70.4	105	12
2023-08-05T12:00	36117	5	-27.4	-70.4	104	13
2023-08-05T12:00	36167	5	-27.3	-70.3	104	13
2023-08-05T12:00	36168	5	-27.3	-70.3	102	13
2023-08-05T12:00	36234	5	-27.4	-70.4	101	13
2023-08-05T12:00	36244	5	-27.6	-70.5	100	13
2023-08-05T12:00	36259	5	-27.7	-70.6	100	13
2023-08-05T12:00	36330	5	-27.7	-70.6	100	13
2023-08-05T12:00	36344	5	-27.6	-70.5	102	13
2023-08-05T12:00	36374	5	-27.8	-70.6	104	13
2023-08-05T12:00	36443	5	-27.9	-70.7	105	13
2023-08-05T12:00	36445	5	-28.0	-70.8	106	13
2023-08-05T12:00	36500	5	-28.0	-70.8	107	13
2023-08-05T12:00	36524	5	-28.1	-70.8	107	12
2023-08-05T12:00	36533	5	-28.0	-70.8	107	12
2023-08-05T12:00	36567	5	-27.9	-70.7	107	12
2023-08-05T12:00	36609	5	-27.8	-70.6	107	11
2023-08-05T12:00	36640	5	-27.8	-70.6	108	10
2023-08-05T12:00	36687	5	-27.8	-70.6	108	10
2023-08-05T12:00	36724	5	-27.8	-70.6	107	10
2023-08-05T12:00	36767	5	-27.8	-70.6	106	9
2023-08-05T12:00	36769	5	-27.9	-70.7	103	9
2023-08-05T12:00	36781	5	-27.9	-70.7	101	10
2023-08-05T12:00	36798	5	-27.8	-70.6	98	10
2023-08-05T12:00	36857	5	-27.9	-70.7	95	10
2023-08-05T12:00	36868	5	-27.9	-70.7	92	11
2023-08-05T12:00	36901	5	-27.8	-70.6	89	11
2023-08-05T18:00	-999					
2023-08-05T18:00	129	996	19.4	13.0	18	2
2023-08-05T18:00	157	993	19.2	12.7	27	2
2023-08-05T18:00	186	990	19.1	12.2	32	3
2023-08-05T18:00	212	986	18.9	12.3	35	3
2023-08-05T18:00	238	983	18.6	12.1	36	3
2023-08-05T18:00	262	981	18.4	12.2	36	3
2023-08-05T18:00	288	978	18.1	12.1	34	3
2023-08-05T18:00	315	975	17.9	12.1	32	3
2023-08-05T18:00	341	972	17.7	12.1	30	3
2023-08-05T18:00	365	969	17.4	12.0	28	3
2023-08-05T18:00	391	966	17.2	11.9	26	3
2023-08-05T18:00	417	963	16.9	11.8	24	3
2023-08-05T18:00	446	960	16.7	11.6	21	3
2023-08-05T18:00	472	957	16.5	11.3	17	4
2023-08-05T18:00	498	954	16.2	11.2	13	4
2023-08-05T18:00	522	951	16.0	10.9	10	4
2023-08-05T18:00	546	948	15.8	10.8	10	4
2023-08-05T18:00	572	946	15.6	11.0	12	4
2023-08-05T18:00	599	943	15.3	10.5	15	3
2023-08-05T18:00	626	940	15.2	10.2	19	3
2023-08-05T18:00	655	937	14.9	9.9	23	3
2023-08-05T18:00	682	933	14.7	9.7	26	3
2023-08-05T18:00	709	931	14.5	9.7	26	3
2023-08-05T18:00	734	928	14.2	9.4	25	3
2023-08-05T18:00	762	925	14.0	9.3	23	3
2023-08-05T18:00	790	922	13.7	9.3	23	3
2023-08-05T18:00	818	919	13.5	9.3	23	3
2023-08-05T18:00	847	916	13.2	9.2	24	3
2023-08-05T18:00	875	912	12.9	9.0	27	3
2023-08-05T18:00	901	909	12.7	9.0	32	3
2023-08-05T18:00	931	906	12.4	8.9	37	3
2023-08-05T18:00	959	903	12.1	8.9	44	3
2023-08-05T18:00	988	900	11.9	9.1	51	3
2023-08-05T18:00	1013	897	11.6	9.5	58	2
2023-08-05T18:00	1042	894	11.3	9.5	67	2
2023-08-05T18:00	1071	891	11.2	9.4	78	2
2023-08-05T18:00	1100	888	10.9	9.1	90	2
2023-08-05T18:00	1130	885	10.7	8.9	103	2
2023-08-05T18:00	1161	882	10.6	8.6	113	1
2023-08-05T18:00	1188	879	10.4	8.6	120	2
2023-08-05T18:00	1219	876	10.2	8.8	126	2
2023-08-05T18:00	1248	873	9.9	8.9	132	2
2023-08-05T18:00	1280	869	9.7	8.8	138	2
2023-08-05T18:00	1307	867	9.4	8.6	142	2
2023-08-05T18:00	1332	864	9.3	8.4	144	2
2023-08-05T18:00	1358	861	9.1	7.9	144	2
2023-08-05T18:00	1384	859	8.9	7.5	144	2
2023-08-05T18:00	1406	856	8.8	7.1	145	2
2023-08-05T18:00	1436	853	8.5	7.3	148	2
2023-08-05T18:00	1463	850	8.3	7.3	155	2
2023-08-05T18:00	1492	847	8.1	6.9	161	2
2023-08-05T18:00	1525	844	7.9	5.7	165	2
2023-08-05T18:00	1554	841	7.7	5.5	165	3
2023-08-05T18:00	1582	838	7.5	4.8	160	3
2023-08-05T18:00	1610	835	7.4	3.8	151	3
2023-08-05T18:00	1635	833	7.2	4.7	140	3
2023-08-05T18:00	1664	830	7.1	3.4	130	3
2023-08-05T18:00	1691	827	6.9	3.2	125	3
2023-08-05T18:00	1715	825	6.9	2.8	123	3
2023-08-05T18:00	1745	822	6.8	2.7	124	3
2023-08-05T18:00	1771	819	6.6	2.1	124	3
2023-08-05T18:00	1798	817	6.5	1.5	122	3
2023-08-05T18:00	1824	814	6.4	1.3	116	3
2023-08-05T18:00	1851	811	6.2	1.2	109	3
2023-08-05T18:00	1880	808	6.1	1.5	102	3
2023-08-05T18:00	1902	806	6.0	0.8	98	3
2023-08-05T18:00	1930	803	5.9	0.6	96	3
2023-08-05T18:00	1956	801	5.7	0.4	96	3
2023-08-05T18:00	1977	799	5.5	0.4	97	3
2023-08-05T18:00	2006	796	5.6	-0.1	99	2
2023-08-05T18:00	2030	794	5.4	-0.2	101	2
2023-08-05T18:00	2056	791	5.2	-0.2	104	2
2023-08-05T18:00	2079	789	5.0	-0.2	110	2
2023-08-05T18:00	2105	786	4.8	0.2	118	2
2023-08-05T18:00	2129	784	4.9	-0.2	126	2
2023-08-05T18:00	2153	782	5.1	-0.8	134	2
2023-08-05T18:00	2179	779	5.1	-0.8	140	2
2023-08-05T18:00	2204	777	4.9	-0.3	144	2
2023-08-05T18:00	2230	774	4.7	-0.4	142	2
2023-08-05T18:00	2255	772	4.5	-0.7	134	1
2023-08-05T18:00	2278	770	4.4	-0.1	119	1
2023-08-05T18:00	2309	767	4.1	0.6	108	2
2023-08-05T18:00	2336	765	3.9	0.7	105	2
2023-08-05T18:00	2361	762	3.8	0.2	108	2
2023-08-05T18:00	2391	759	3.6	0.4	113	2
2023-08-05T18:00	2417	757	3.5	0.3	118	3
2023-08-05T18:00	2441	755	3.4	-0.6	122	3
2023-08-05T18:00	2471	752	3.2	-1.0	125	3
2023-08-05T18:00	2493	750	3.0	0.5	128	3
2023-08-05T18:00	2516	748	2.9	0.5	132	3
2023-08-05T18:00	2541	745	2.8	-0.5	138	2
2023-08-05T18:00	2568	743	2.7	-0.8	143	2
2023-08-05T18:00	2591	741	2.5	-0.6	145	2
2023-08-05T18:00	2621	738	2.2	-0.1	144	2
2023-08-05T18:00	2649	736	2.0	-0.2	143	2
2023-08-05T18:00	2673	733	1.8	-0.7	144	2
2023-08-05T18:00	2700	731	1.6	-1.1	147	2
2023-08-05T18:00	2727	728	1.4	-1.0	152	2
2023-08-05T18:00	2755	726	1.2	-0.7	159	2
2023-08-05T18:00	2780	724	1.1	-0.5	167	1
2023-08-05T18:00	2805	721	0.9	-0.5	181	1
2023-08-05T18:00	2834	719	0.7	-0.5	211	1
2023-08-05T18:00	2862	716	0.5	-0.5	244	1
2023-08-05T18:00	2890	714	0.3	-0.7	255	1
2023-08-05T18:00	2915	712	0.1	-0.7	252	1
2023-08-05T18:00	2942	709	-0.1	-1.4	243	2
2023-08-05T18:00	2969	707	-0.2	-1.4	234	2
2023-08-05T18:00	2997	704	-0.3	-1.3	227	3
2023-08-05T18:00	3022	702	-0.5	-1.6	222	4
2023-08-05T18:00	3044	700	-0.4	-2.2	221	4
2023-08-05T18:00	3077	698	-0.5	-2.1	221	4
2023-08-05T18:00	3104	695	-0.5	-1.6	221	5
2023-08-05T18:00	3133	692	-0.7	-1.6	221	5
2023-08-05T18:00	3164	690	-0.8	-1.4	220	5
2023-08-05T18:00	3192	687	-0.9	-1.6	219	6
2023-08-05T18:00	3218	685	-1.0	-1.8	219	6
2023-08-05T18:00	3243	683	-1.1	-1.9	220	6
2023-08-05T18:00	3269	681	-1.3	-2.1	222	6
2023-08-05T18:00	3300	678	-1.5	-2.3	225	6
2023-08-05T18:00	3329	676	-1.7	-2.6	226	5
2023-08-05T18:00	3360	673	-2.0	-2.7	225	5
2023-08-05T18:00	3389	671	-2.2	-2.9	222	5
2023-08-05T18:00	3418	668	-2.4	-3.0	218	5
2023-08-05T18:00	3448	666	-2.6	-3.1	214	5
2023-08-05T18:00	3480	663	-2.9	-3.5	213	5
2023-08-05T18:00	3505	661	-2.9	-3.6	214	5
2023-08-05T18:00	3529	659	-3.0	-3.7	217	5
2023-08-05T18:00	3558	657	-3.1	-4.2	220	5
2023-08-05T18:00	3581	655	-3.4	-4.0	221	5
2023-08-05T18:00	3609	652	-3.5	-4.7	218	5
2023-08-05T18:00	3635	650	-3.5	-5.5	209	5
2023-08-05T18:00	3662	648	-3.7	-5.7	197	5
2023-08-05T18:00	3690	646	-3.9	-5.8	184	5
2023-08-05T18:00	3719	643	-4.1	-6.5	174	6
2023-08-05T18:00	3744	641	-3.1	-8.2	168	6
2023-08-05T18:00	3769	639	-3.2	-8.0	167	6
2023-08-05T18:00	3796	637	-3.2	-8.4	168	6
2023-08-05T18:00	3821	635	-2.9	-8.7	172	5
2023-08-05T18:00	3847	633	-3.0	-8.9	175	5
2023-08-05T18:00	3875	631	-3.1	-9.0	176	5
2023-08-05T18:00	3900	629	-3.4	-9.0	177	5
2023-08-05T18:00	3930	626	-3.6	-8.9	177	5
2023-08-05T18:00	3958	624	-3.9	-8.9	179	4
2023-08-05T18:00	3989	622	-4.1	-9.2	183	4
2023-08-05T18:00	4018	619	-4.3	-9.4	187	4
2023-08-05T18:00	4048	617	-4.4	-9.4	192	5
2023-08-05T18:00	4075	615	-4.5	-9.4	197	5
2023-08-05T18:00	4101	613	-4.7	-9.4	201	5
2023-08-05T18:00	4128	611	-5.0	-9.5	205	5
2023-08-05T18:00	4151	609	-5.2	-9.6	210	5
2023-08-05T18:00	4176	607	-5.3	-9.6	216	5
2023-08-05T18:00	4203	605	-5.5	-9.6	223	5
2023-08-05T18:00	4230	603	-5.7	-9.8	231	5
2023-08-05T18:00	4262	600	-5.8	-10.1	240	5
2023-08-05T18:00	4294	598	-5.8	-10.9	247	5
2023-08-05T18:00	4322	596	-6.0	-10.9	252	6
2023-08-05T18:00	4354	593	-6.1	-11.1	253	6
2023-08-05T18:00	4388	591	-6.5	-11.3	254	7
2023-08-05T18:00	4418	589	-6.7	-11.5	254	7
2023-08-05T18:00	4447	586	-7.0	-11.5	255	7
2023-08-05T18:00	4476	584	-7.2	-11.7	255	7
2023-08-05T18:00	4505	582	-7.5	-11.8	256	7
2023-08-05T18:00	4537	580	-7.8	-12.0	255	7
2023-08-05T18:00	4566	577	-8.1	-12.0	254	7
2023-08-05T18:00	4604	575	-8.4	-12.2	253	7
2023-08-05T18:00	4637	572	-8.7	-12.2	253	7
2023-08-05T18:00	4668	570	-8.9	-12.4	253	7
2023-08-05T18:00	4693	568	-9.2	-12.5	253	8
2023-08-05T18:00	4723	566	-9.5	-12.6	254	8
2023-08-05T18:00	4752	564	-9.7	-12.8	252	9
2023-08-05T18:00	4776	562	-9.8	-13.0	249	10
2023-08-05T18:00	4801	560	-10.0	-12.9	244	10
2023-08-05T18:00	4832	558	-10.0	-12.9	236	11
2023-08-05T18:00	4865	556	-8.3	-10.3	229	11
2023-08-05T18:00	4892	554	-8.0	-10.1	222	11
2023-08-05T18:00	4919	552	-7.9	-9.7	216	11
2023-08-05T18:00	4944	550	-8.2	-9.9	213	11
2023-08-05T18:00	4972	548	-8.3	-9.9	211	12
2023-08-05T18:00	4997	546	-8.4	-9.8	210	13
2023-08-05T18:00	5025	544	-8.5	-9.8	210	13
2023-08-05T18:00	5051	543	-8.7	-10.0	209	14
2023-08-05T18:00	5079	541	-8.6	-9.9	209	14
2023-08-05T18:00	5108	539	-8.8	-10.0	208	15
2023-08-05T18:00	5136	537	-9.0	-10.1	207	15
2023-08-05T18:00	5163	535	-9.2	-10.3	206	15
2023-08-05T18:00	5192	533	-9.3	-10.3	205	15
2023-08-05T18:00	5223	531	-9.5	-10.4	205	15
2023-08-05T18:00	5253	529	-9.8	-10.5	204	15
2023-08-05T18:00	5281	527	-10.0	-10.7	204	15
2023-08-05T18:00	5307	525	-10.1	-10.9	204	14
2023-08-05T18:00	5336	523	-10.2	-11.1	204	14
2023-08-05T18:00	5371	521	-10.5	-11.2	203	14
2023-08-05T18:00	5400	519	-10.7	-11.4	202	15
2023-08-05T18:00	5428	517	-10.8	-11.5	202	15
2023-08-05T18:00	5460	515	-11.0	-11.7	203	15
2023-08-05T18:00	5489	513	-11.2	-11.9	204	16
2023-08-05T18:00	5515	511	-11.3	-12.1	205	16
2023-08-05T18:00	5545	509	-11.5	-12.3	206	17
2023-08-05T18:00	5572	507	-11.5	-12.4	206	18
2023-08-05T18:00	5599	505	-11.5	-12.5	206	18
2023-08-05T18:00	5636	503	-11.7	-12.6	205	19
2023-08-05T18:00	5668	501	-11.9	-12.8	204	20
2023-08-05T18:00	5695	499	-11.9	-12.7	202	20
2023-08-05T18:00	5720	497	-12.0	-12.8	200	20
2023-08-05T18:00	5747	496	-12.1	-13.0	198	20
2023-08-05T18:00	5777	494	-12.2	-13.1	197	20
2023-08-05T18:00	5804	492	-12.4	-13.3	195	20
2023-08-05T18:00	5832	490	-12.6		193	20
2023-08-05T18:00	5861	488	-12.8	-13.7	191	20
2023-08-05T18:00	5891	486	-13.0	-13.9	189	20
2023-08-05T18:00	5918	485	-13.1	-14.1	187	20
2023-08-05T18:00	5947	483	-13.3	-14.2	186	21
2023-08-05T18:00	5974	481	-13.4	-14.5	185	21
2023-08-05T18:00	6002	479	-13.5	-14.6	185	22
2023-08-05T18:00	6030	477	-13.6	-14.6	185	22
2023-08-05T18:00	6066	475	-13.8	-14.9	185	23
2023-08-05T18:00	6094	474	-13.9	-14.9	185	23
2023-08-05T18:00	6123	472	-14.0	-15.0	185	23
2023-08-05T18:00	6153	470	-14.1	-15.2	186	23
2023-08-05T18:00	6180	468	-14.3	-15.3	187	23
2023-08-05T18:00	6209	466	-14.4	-15.5	188	23
2023-08-05T18:00	6239	465	-14.5	-15.6	189	23
2023-08-05T18:00	6271	463	-14.7	-15.9	190	23
2023-08-05T18:00	6300	461	-14.9	-16.1	191	23
2023-08-05T18:00	6327	459	-15.1	-16.3	192	23
2023-08-05T18:00	6359	457	-15.3	-16.6	192	23
2023-08-05T18:00	6393	455	-15.5	-16.7	192	22
2023-08-05T18:00	6421	454	-15.6	-16.8	193	23
2023-08-05T18:00	6451	452	-15.9	-17.1	193	23
2023-08-05T18:00	6480	450	-16.1	-17.2	194	23
2023-08-05T18:00	6511	448	-16.3	-17.5	194	23
2023-08-05T18:00	6543	446	-16.5	-17.8	195	23
2023-08-05T18:00	6574	445	-16.7	-18.1	195	24
2023-08-05T18:00	6604	443	-16.8	-18.1	195	24
2023-08-05T18:00	6634	441	-17.0	-18.3	195	24
2023-08-05T18:00	6663	439	-17.2	-18.5	195	24
2023-08-05T18:00	6697	437	-17.4	-18.6	194	24
2023-08-05T18:00	6727	436	-17.6	-18.8	195	24
2023-08-05T18:00	6758	434	-17.8	-19.1	195	24
2023-08-05T18:00	6790	432	-18.0	-19.3	195	24
2023-08-05T18:00	6821	430	-18.2	-19.4	195	24
2023-08-05T18:00	6851	428	-18.4	-19.6	195	24
2023-08-05T18:00	6880	427	-18.7	-19.9	195	24
2023-08-05T18:00	6911	425	-18.9	-20.2	194	24
2023-08-05T18:00	6941	423	-19.0	-20.3	193	25
2023-08-05T18:00	6971	422	-19.2	-20.5	193	25
2023-08-05T18:00	7001	420	-19.5	-20.7	193	25
2023-08-05T18:00	7032	418	-19.7	-20.8	192	25
2023-08-05T18:00	7061	416	-19.9	-21.0	193	25
2023-08-05T18:00	7093	415	-20.1	-21.3	193	24
2023-08-05T18:00	7125	413	-20.3	-21.6	193	24
2023-08-05T18:00	7157	411	-20.5	-21.8	194	24
2023-08-05T18:00	7188	409	-20.8	-22.1	194	24
2023-08-05T18:00	7218	408	-21.0	-22.3	194	23
2023-08-05T18:00	7247	406	-21.2	-22.5	194	23
2023-08-05T18:00	7276	405	-21.4	-22.7	194	23
2023-08-05T18:00	7305	403	-21.6	-22.9	195	23
2023-08-05T18:00	7335	401	-21.7		196	24
2023-08-05T18:00	7365	400	-21.8	-23.3	196	24
2023-08-05T18:00	7397	398	-22.0	-23.6	197	24
2023-08-05T18:00	7424	396	-22.2	-23.7	197	24
2023-08-05T18:00	7458	395	-22.4	-24.1	196	25
2023-08-05T18:00	7491	393	-22.7	-24.4	194	25
2023-08-05T18:00	7521	391	-22.9	-24.7	192	25
2023-08-05T18:00	7550	390	-23.1	-24.8	191	25
2023-08-05T18:00	7580	388	-23.2	-24.8	190	26
2023-08-05T18:00	7610	387	-23.4	-25.1	191	26
2023-08-05T18:00	7641	385	-23.6	-25.4	191	26
2023-08-05T18:00	7672	383	-23.8	-25.7	192	26
2023-08-05T18:00	7703	382	-24.1	-26.1	193	26
2023-08-05T18:00	7733	380	-24.3	-26.4	194	26
2023-08-05T18:00	7764	378	-24.6	-26.7	194	26
2023-08-05T18:00	7797	377	-24.9	-27.0	194	26
2023-08-05T18:00	7831	375	-25.1	-27.3	194	26
2023-08-05T18:00	7862	373	-25.3	-27.6	193	27
2023-08-05T18:00	7892	372	-25.4	-27.5	192	27
2023-08-05T18:00	7924	370	-25.5	-27.6	191	27
2023-08-05T18:00	7951	369	-25.7	-27.7	190	27
2023-08-05T18:00	7981	367	-25.9	-28.1	188	26
2023-08-05T18:00	8011	366	-26.1	-28.2	187	26
2023-08-05T18:00	8042	364	-26.4	-28.4	186	26
2023-08-05T18:00	8073	363	-26.6	-28.5	186	26
2023-08-05T18:00	8106	361	-26.9	-28.7	185	27
2023-08-05T18:00	8138	359	-27.0	-28.8	185	27
2023-08-05T18:00	8171	358	-27.2	-29.2	185	28
2023-08-05T18:00	8200	356	-27.4	-29.2	184	28
2023-08-05T18:00	8232	355	-27.7	-29.5	184	28
2023-08-05T18:00	8263	353	-27.9	-29.7	184	28
2023-08-05T18:00	8290	352	-28.1	-30.0	183	28
2023-08-05T18:00	8317	351	-28.3	-30.1	183	28
2023-08-05T18:00	8351	349	-28.5	-30.2	183	29
2023-08-05T18:00	8383	347	-28.7	-30.5	183	29
2023-08-05T18:00	8412	346	-28.9	-30.6	183	29
2023-08-05T18:00	8448	344	-29.2	-30.9	184	30
2023-08-05T18:00	8478	343	-29.4	-31.2	184	31
2023-08-05T18:00	8510	341	-29.6	-31.3	185	32
2023-08-05T18:00	8548	340	-29.8	-31.5	185	32
2023-08-05T18:00	8573	338	-30.0	-31.9	185	32
2023-08-05T18:00	8599	337	-30.2	-32.0	184	33
2023-08-05T18:00	8625	336	-30.4	-32.2	184	33
2023-08-05T18:00	8652	335	-30.6	-32.4	184	33
2023-08-05T18:00	8675	333	-30.8	-32.6	184	33
2023-08-05T18:00	8705	332	-31.1	-32.8	184	33
2023-08-05T18:00	8736	331	-31.3	-33.1	184	34
2023-08-05T18:00	8769	329	-31.5	-33.4	184	34
2023-08-05T18:00	8801	328	-31.8	-33.7	185	34
2023-08-05T18:00	8825	326	-32.0	-33.9	185	34
2023-08-05T18:00	8855	325	-32.2	-34.0	184	34
2023-08-05T18:00	8891	323	-32.4	-34.2	184	34
2023-08-05T18:00	8924	322	-32.6	-34.7	183	34
2023-08-05T18:00	8955	321	-32.9	-34.9	182	34
2023-08-05T18:00	8985	319	-33.1	-35.0	181	34
2023-08-05T18:00	9010	318	-33.3	-35.3	181	34
2023-08-05T18:00	9037	317	-33.5	-35.4	181	34
2023-08-05T18:00	9066	315	-33.7	-35.7	182	35
2023-08-05T18:00	9102	314	-33.9	-35.8	182	35
2023-08-05T18:00	9136	312	-34.1	-36.1	183	36
2023-08-05T18:00	9167	311	-34.4	-36.5	183	36
2023-08-05T18:00	9196	310	-34.6	-36.4	184	36
2023-08-05T18:00	9228	308	-34.9	-36.7	185	36
2023-08-05T18:00	9260	307	-35.2	-37.2	185	36
2023-08-05T18:00	9290	306	-35.4	-37.3	186	36
2023-08-05T18:00	9320	304	-35.7	-37.4	187	36
2023-08-05T18:00	9353	303	-36.0	-37.8	188	35
2023-08-05T18:00	9379	302	-36.2	-38.1	188	35
2023-08-05T18:00	9411	300	-36.5	-38.6	188	35
2023-08-05T18:00	9441	299	-36.8	-38.6	188	35
2023-08-05T18:00	9474	298	-37.1	-38.9	188	34
2023-08-05T18:00	9504	296	-37.4	-39.5	188	34
2023-08-05T18:00	9536	295	-37.7	-39.7	189	34
2023-08-05T18:00	9560	294	-37.9	-40.0	190	34
2023-08-05T18:00	9589	293	-38.2	-40.5	190	34
2023-08-05T18:00	9613	292	-38.4	-40.5	191	35
2023-08-05T18:00	9641	290	-38.7	-40.7	191	35
2023-08-05T18:00	9675	289	-39.0	-41.4	192	35
2023-08-05T18:00	9706	288	-39.2	-41.7	192	35
2023-08-05T18:00	9733	287	-39.5	-42.0	192	36
2023-08-05T18:00	9761	285	-39.7	-42.0	193	36
2023-08-05T18:00	9783	284	-39.9	-42.3	193	37
2023-08-05T18:00	9808	283	-40.2	-42.6	193	37
2023-08-05T18:00	9847	282	-40.5	-42.7	193	37
2023-08-05T18:00	9873	281	-40.7	-42.9	193	38
2023-08-05T18:00	9899	280	-40.8	-42.9	193	38
2023-08-05T18:00	9930	278	-41.1	-43.0	192	39
2023-08-05T18:00	9958	277	-41.3	-43.2	191	39
2023-08-05T18:00	9988	276	-41.5	-43.5	191	39
2023-08-05T18:00	10018	275	-41.7	-43.6	190	39
2023-08-05T18:00	10047	274	-42.0	-43.8	190	39
2023-08-05T18:00	10070	273	-42.2	-43.9	189	39
2023-08-05T18:00	10095	272	-42.4	-44.2	189	39
2023-08-05T18:00	10119	271	-42.6	-44.4	189	39
2023-08-05T18:00	10141	270	-42.8	-44.6	189	39
2023-08-05T18:00	10171	269	-43.1	-45.0	188	39
2023-08-05T18:00	10196	268	-43.2	-45.2	188	39
2023-08-05T18:00	10223	267	-43.4	-45.4	188	40
2023-08-05T18:00	10251	265	-43.7	-45.7	188	40
2023-08-05T18:00	10275	265	-43.8	-45.8	188	40
2023-08-05T18:00	10300	264	-44.1	-46.3	188	41
2023-08-05T18:00	10322	263	-44.2	-46.3	188	41
2023-08-05T18:00	10348	262	-44.4	-46.5	188	41
2023-08-05T18:00	10372	261	-44.5	-46.6	188	41
2023-08-05T18:00	10396	260	-44.7	-46.8	189	41
2023-08-05T18:00	10422	259	-44.9	-47.0	189	42
2023-08-05T18:00	10446	258	-45.1	-47.3	189	42
2023-08-05T18:00	10472	257	-45.3	-47.5	189	42
2023-08-05T18:00	10496	256	-45.5	-47.7	190	42
2023-08-05T18:00	10519	255	-45.7	-47.8	190	42
2023-08-05T18:00	10547	254	-45.9	-48.1	190	42
2023-08-05T18:00	10571	253	-46.2	-48.6	189	43
2023-08-05T18:00	10598	252	-46.4	-48.8	189	43
2023-08-05T18:00	10622	251	-46.6	-48.9	189	43
2023-08-05T18:00	10645	250	-46.8	-49.1	189	43
2023-08-05T18:00	10671	249	-47.0	-49.3	188	43
2023-08-05T18:00	10696	248	-47.2	-49.6	188	43
2023-08-05T18:00	10718	247	-47.4	-50.0	187	43
2023-08-05T18:00	10750	246	-47.6	-50.4	187	43
2023-08-05T18:00	10781	245	-47.8	-50.8	186	43
2023-08-05T18:00	10809	244	-48.1	-51.1	185	43
2023-08-05T18:00	10840	243	-48.4	-51.3	184	44
2023-08-05T18:00	10866	242	-48.6	-51.3	184	44
2023-08-05T18:00	10889	241	-48.8	-51.2	183	45
2023-08-05T18:00	10914	240	-49.0	-51.3	182	45
2023-08-05T18:00	10945	239	-49.1	-51.4	182	45
2023-08-05T18:00	10967	238	-49.3	-51.9	182	45
2023-08-05T18:00	10997	237	-49.5	-52.4	182	45
2023-08-05T18:00	11031	236	-49.7	-52.9	182	45
2023-08-05T18:00	11053	235	-49.8	-52.9	183	45
2023-08-05T18:00	11088	234	-49.9	-52.9	184	46
2023-08-05T18:00	11110	233	-50.0	-53.1	184	46
2023-08-05T18:00	11136	232	-50.1	-53.4	185	46
2023-08-05T18:00	11165	231	-50.3	-53.5	186	46
2023-08-05T18:00	11195	230	-50.6	-53.8	186	47
2023-08-05T18:00	11219	229	-50.8	-54.0	187	47
2023-08-05T18:00	11245	228	-51.0	-54.2	187	47
2023-08-05T18:00	11270	228	-51.2	-54.4	187	47
2023-08-05T18:00	11292	227	-51.4	-54.7	187	47
2023-08-05T18:00	11315	226	-51.6	-55.0	187	47
2023-08-05T18:00	11336	225	-51.8	-55.4	187	47
2023-08-05T18:00	11360	224	-52.1	-55.7	187	47
2023-08-05T18:00	11385	224	-52.3	-55.7	187	47
2023-08-05T18:00	11407	223	-52.5	-55.9	188	47
2023-08-05T18:00	11430	222	-52.7	-56.0	188	47
2023-08-05T18:00	11452	221	-52.9	-56.2	188	47
2023-08-05T18:00	11476	220	-53.1	-56.3	189	47
2023-08-05T18:00	11501	219	-53.3	-56.5	189	47
2023-08-05T18:00	11536	218	-53.6	-56.8	190	47
2023-08-05T18:00	11565	217	-53.8	-56.9	190	47
2023-08-05T18:00	11606	216	-54.1	-57.0	191	46
2023-08-05T18:00	11645	215	-54.4	-57.0	192	46
2023-08-05T18:00	11676	214	-54.7	-57.1	194	46
2023-08-05T18:00	11705	213	-55.0	-57.6	195	46
2023-08-05T18:00	11742	211	-55.2	-58.0	196	47
2023-08-05T18:00	11773	210	-55.4	-58.4	197	47
2023-08-05T18:00	11795	210	-55.6	-58.6	197	47
2023-08-05T18:00	11820	209	-55.8	-58.8	197	47
2023-08-05T18:00	11844	208	-55.9	-59.2	197	46
2023-08-05T18:00	11866	207	-56.0	-60.4	196	46
2023-08-05T18:00	11887	207	-55.8	-62.1	195	45
2023-08-05T18:00	11910	206	-55.9	-64.0	194	45
2023-08-05T18:00	11929	205	-55.9	-65.1	194	45
2023-08-05T18:00	11951	205	-55.5	-65.4	193	44
2023-08-05T18:00	11971	204	-55.3	-65.9	193	43
2023-08-05T18:00	11990	203	-55.0	-66.3	192	43
2023-08-05T18:00	12012	203	-54.9	-66.8	192	42
2023-08-05T18:00	12032	202	-54.7	-67.3	191	42
2023-08-05T18:00	12050	201	-54.5	-68.0	191	42
2023-08-05T18:00	12072	201	-54.3	-68.8	190	42
2023-08-05T18:00	12091	200	-54.3	-69.3	190	42
2023-08-05T18:00	12110	200	-54.2	-69.4	190	42
2023-08-05T18:00	12130	199	-54.1	-69.4	190	42
2023-08-05T18:00	12151	198	-54.2	-69.6	190	43
2023-08-05T18:00	12174	198	-54.3	-69.9	190	44
2023-08-05T18:00	12196	197	-54.3	-70.6	191	44
2023-08-05T18:00	12226	196	-53.6	-71.4	192	44
2023-08-05T18:00	12249	195	-52.8	-72.6	194	44
2023-08-05T18:00	12282	194	-51.3	-73.2	195	43
2023-08-05T18:00	12313	193	-50.5	-73.9	197	42
2023-08-05T18:00	12346	192	-50.4	-74.5	198	40
2023-08-05T18:00	12370	192	-50.2	-74.8	198	39
2023-08-05T18:00	12393	191	-50.2	-74.8	199	38
2023-08-05T18:00	12422	190	-50.2	-74.8	199	37
2023-08-05T18:00	12442	190	-50.3	-74.8	199	37
2023-08-05T18:00	12464	189	-50.3	-74.8	199	36
2023-08-05T18:00	12484	188	-50.3	-74.7	199	36
2023-08-05T18:00	12502	188	-50.4	-74.9	199	36
2023-08-05T18:00	12523	187	-50.5	-75.2	198	36
2023-08-05T18:00	12541	187	-50.6	-75.5	197	35
2023-08-05T18:00	12560	186	-50.7	-75.6	197	35
2023-08-05T18:00	12580	186	-50.8	-75.6	196	35
2023-08-05T18:00	12602	185	-50.7	-75.8	196	35
2023-08-05T18:00	12621	184	-50.7	-76.0	196	35
2023-08-05T18:00	12640	184	-50.4	-76.0	197	35
2023-08-05T18:00	12671	183	-50.3	-76.1	197	34
2023-08-05T18:00	12701	182	-49.7	-76.1	198	34
2023-08-05T18:00	12723	182	-49.8	-76.5	199	34
2023-08-05T18:00	12743	181	-49.8	-76.7	200	34
2023-08-05T18:00	12763	180	-49.8	-76.7	200	33
2023-08-05T18:00	12783	180	-49.7	-76.9	200	33
2023-08-05T18:00	12804	179	-49.7	-76.9	200	33
2023-08-05T18:00	12825	179	-49.7	-77.2	200	33
2023-08-05T18:00	12844	178	-49.6	-77.2	200	34
2023-08-05T18:00	12865	178	-49.7	-77.2	201	34
2023-08-05T18:00	12888	177	-49.8	-77.3	201	34
2023-08-05T18:00	12911	176	-49.5	-77.4	202	33
2023-08-05T18:00	12933	176	-49.2	-77.8	203	33
2023-08-05T18:00	12954	175	-49.0	-78.0	204	33
2023-08-05T18:00	12976	175	-49.1	-78.1	204	32
2023-08-05T18:00	12997	174	-49.1	-78.1	204	32
2023-08-05T18:00	13020	174	-49.1	-78.5	204	32
2023-08-05T18:00	13041	173	-49.1	-78.5	203	31
2023-08-05T18:00	13064	172	-48.9	-78.7	202	31
2023-08-05T18:00	13082	172	-48.8		201	31
2023-08-05T18:00	13105	171	-48.7	-78.6	201	31
2023-08-05T18:00	13126	171	-48.7	-78.6	200	31
2023-08-05T18:00	13148	170	-48.8		199	30
2023-08-05T18:00	13169	170	-48.9	-79.1	199	30
2023-08-05T18:00	13191	169	-48.8	-79.1	199	30
2023-08-05T18:00	13212	169	-48.6	-78.9	199	29
2023-08-05T18:00	13233	168	-48.2	-79.1	200	29
2023-08-05T18:00	13256	167	-48.1	-79.0	200	29
2023-08-05T18:00	13276	167	-48.0	-79.4	201	29
2023-08-05T18:00	13298	166	-47.8	-79.3	201	28
2023-08-05T18:00	13318	166	-47.9	-79.3	201	28
2023-08-05T18:00	13343	165	-48.0	-78.9	200	28
2023-08-05T18:00	13364	165	-48.1	-79.0	200	28
2023-08-05T18:00	13385	164	-48.1	-79.0	200	28
2023-08-05T18:00	13408	164	-47.7		200	29
2023-08-05T18:00	13429	163	-47.8	-79.3	199	29
2023-08-05T18:00	13451	163	-47.9	-79.3	199	28
2023-08-05T18:00	13469	162	-47.7		199	28
2023-08-05T18:00	13494	162	-47.7		199	28
2023-08-05T18:00	13514	161	-47.8	-79.3	199	28
2023-08-05T18:00	13535	160	-48.0	-79.4	199	28
2023-08-05T18:00	13558	160	-48.2	-79.6	199	27
2023-08-05T18:00	13588	159	-48.4	-79.7	200	27
2023-08-05T18:00	13616	159	-48.5	-79.3	201	27
2023-08-05T18:00	13641	158	-48.7	-79.4	203	27
2023-08-05T18:00	13672	157	-48.9	-79.6	204	27
2023-08-05T18:00	13700	156	-49.2	-79.8	205	26
2023-08-05T18:00	13731	156	-49.3	-79.9	206	26
2023-08-05T18:00	13751	155	-49.4	-80.0	206	26
2023-08-05T18:00	13775	155	-49.3	-79.9	206	26
2023-08-05T18:00	13796	154	-49.3	-79.9	206	26
2023-08-05T18:00	13817	154	-49.3	-79.9	206	26
2023-08-05T18:00	13838	153	-49.3	-80.4	206	26
2023-08-05T18:00	13862	153	-49.4	-80.5	206	26
2023-08-05T18:00	13887	152	-49.4	-80.5	206	26
2023-08-05T18:00	13907	152	-49.4	-80.5	206	27
2023-08-05T18:00	13930	151	-49.4	-80.5	206	27
2023-08-05T18:00	13952	151	-49.3	-80.4	206	26
2023-08-05T18:00	13975	150	-49.2	-80.3	206	26
2023-08-05T18:00	13996	150	-49.3	-80.4	205	26
2023-08-05T18:00	14020	149	-49.5	-80.5	205	26
2023-08-05T18:00	14042	149	-49.5	-80.5	205	26
2023-08-05T18:00	14062	148	-49.6	-80.6	205	25
2023-08-05T18:00	14083	148	-49.6	-80.6	206	25
2023-08-05T18:00	14108	147	-49.6	-80.6	207	25
2023-08-05T18:00	14131	147	-49.4	-80.5	208	25
2023-08-05T18:00	14154	146	-49.3	-80.4	209	25
2023-08-05T18:00	14178	146	-49.4	-80.5	210	25
2023-08-05T18:00	14200	145	-49.5	-80.5	210	25
2023-08-05T18:00	14223	145	-49.6	-80.6	211	25
2023-08-05T18:00	14245	144	-49.8	-80.8	211	25
2023-08-05T18:00	14265	144	-50.0	-80.9	211	25
2023-08-05T18:00	14288	143	-50.2	-81.0	211	25
2023-08-05T18:00	14311	143	-50.2	-81.0	211	24
2023-08-05T18:00	14332	142	-50.2	-81.0	212	24
2023-08-05T18:00	14355	142	-50.4	-80.7	212	24
2023-08-05T18:00	14377	141	-50.5	-80.8	212	24
2023-08-05T18:00	14401	141	-50.8	-81.0	212	24
2023-08-05T18:00	14425	140	-50.9	-81.1	213	23
2023-08-05T18:00	14446	140	-50.9	-81.1	213	23
2023-08-05T18:00	14469	139	-50.8	-81.0	214	23
2023-08-05T18:00	14493	139	-50.8	-81.5	215	22
2023-08-05T18:00	14514	138	-50.8	-81.5	215	22
2023-08-05T18:00	14534	138	-51.0	-81.6	216	22
2023-08-05T18:00	14558	137	-51.1	-81.2	217	22
2023-08-05T18:00	14581	137	-51.2	-81.3	217	22
2023-08-05T18:00	14602	136	-50.9	-81.6	218	22
2023-08-05T18:00	14624	136	-51.0	-81.6	218	22
2023-08-05T18:00	14647	135	-51.1	-81.7	219	21
2023-08-05T18:00	14666	135	-51.0	-81.6	219	21
2023-08-05T18:00	14690	135	-51.0	-81.6	219	21
2023-08-05T18:00	14712	134	-51.0	-81.6	218	20
2023-08-05T18:00	14733	134	-51.0	-81.6	218	20
2023-08-05T18:00	14757	133	-51.0	-81.6	217	19
2023-08-05T18:00	14777	133	-51.0	-81.6	216	19
2023-08-05T18:00	14802	132	-51.0	-81.6	215	19
2023-08-05T18:00	14822	132	-51.0	-81.6	214	18
2023-08-05T18:00	14845	131	-51.0	-81.6	214	18
2023-08-05T18:00	14867	131	-50.9	-81.6	213	18
2023-08-05T18:00	14888	130	-50.9	-81.6	213	18
2023-08-05T18:00	14910	130	-50.9	-81.6	213	18
2023-08-05T18:00	14933	130	-50.8	-81.5	213	18
2023-08-05T18:00	14956	129	-50.8	-81.5	213	19
2023-08-05T18:00	14976	129	-50.9	-81.6	212	19
2023-08-05T18:00	15000	128	-50.9	-81.6	212	19
2023-08-05T18:00	15023	128	-51.0	-81.6	211	19
2023-08-05T18:00	15047	127	-51.1	-81.7	211	19
2023-08-05T18:00	15069	127	-51.2	-81.8	210	19
2023-08-05T18:00	15090	126	-51.3	-81.9	209	18
2023-08-05T18:00	15110	126	-51.2	-81.8	207	18
2023-08-05T18:00	15132	126	-51.3	-81.9	207	18
2023-08-05T18:00	15154	125	-51.1	-82.2	206	18
2023-08-05T18:00	15175	125	-50.7		206	17
2023-08-05T18:00	15199	124	-50.4	-81.7	207	17
2023-08-05T18:00	15219	124	-50.3	-81.6	207	17
2023-08-05T18:00	15242	124	-50.3	-81.6	207	17
2023-08-05T18:00	15260	123	-50.3	-81.6	207	18
2023-08-05T18:00	15283	123	-50.2		207	18
2023-08-05T18:00	15304	122	-50.1	-81.5	207	18
2023-08-05T18:00	15325	122	-50.3	-81.6	206	19
2023-08-05T18:00	15349	122	-50.4	-81.7	205	19
2023-08-05T18:00	15368	121	-50.5	-81.8	203	20
2023-08-05T18:00	15389	121	-50.6	-81.9	202	20
2023-08-05T18:00	15409	120	-50.4	-81.7	201	20
2023-08-05T18:00	15432	120	-50.3	-81.6	200	20
2023-08-05T18:00	15454	120	-50.0	-81.4	199	20
2023-08-05T18:00	15475	119	-50.0	-81.4	199	20
2023-08-05T18:00	15496	119	-50.0	-81.4	199	19
2023-08-05T18:00	15520	118	-50.2		199	19
2023-08-05T18:00	15542	118	-50.4	-81.7	199	19
2023-08-05T18:00	15565	118	-50.5	-81.8	199	18
2023-08-05T18:00	15588	117	-50.7		199	18
2023-08-05T18:00	15610	117	-50.8	-81.5	200	18
2023-08-05T18:00	15633	116	-50.9	-81.6	201	17
2023-08-05T18:00	15657	116	-51.1	-81.7	202	17
2023-08-05T18:00	15681	116	-51.3	-81.9	202	17
2023-08-05T18:00	15703	115	-51.4	-81.9	203	17
2023-08-05T18:00	15724	115	-51.5	-82.0	203	17
2023-08-05T18:00	15745	114	-51.6	-82.1	203	17
2023-08-05T18:00	15770	114	-51.4	-81.9	203	17
2023-08-05T18:00	15794	114	-51.5	-82.0	202	18
2023-08-05T18:00	15819	113	-51.7	-82.2	201	18
2023-08-05T18:00	15843	113	-51.9	-82.3	201	19
2023-08-05T18:00	15867	112	-52.1	-82.5	201	19
2023-08-05T18:00	15890	112	-52.2	-82.5	202	20
2023-08-05T18:00	15914	111	-52.3	-82.6	202	21
2023-08-05T18:00	15939	111	-52.4	-82.7	202	21
2023-08-05T18:00	15962	111	-52.5	-82.8	202	22
2023-08-05T18:00	15986	110	-52.6	-82.8	201	22
2023-08-05T18:00	16012	110	-52.5	-82.8	201	23
2023-08-05T18:00	16035	109	-52.6	-82.8	201	23
2023-08-05T18:00	16061	109	-52.8	-83.0	201	23
2023-08-05T18:00	16083	109	-53.0	-82.7	201	23
2023-08-05T18:00	16104	108	-53.1	-82.7	201	23
2023-08-05T18:00	16129	108	-53.3	-82.9	201	23
2023-08-05T18:00	16154	107	-53.4	-83.0	200	23
2023-08-05T18:00	16177	107	-53.2	-83.3	200	23
2023-08-05T18:00	16205	107	-53.1	-83.2	199	23
2023-08-05T18:00	16226	106	-53.1	-83.2	199	23
2023-08-05T18:00	16249	106	-53.2	-83.3	199	23
2023-08-05T18:00	16274	105	-52.8	-83.0	200	23
2023-08-05T18:00	16298	105	-52.7	-82.9	201	23
2023-08-05T18:00	16321	105	-52.7	-82.9	202	23
2023-08-05T18:00	16343	104	-52.8	-83.0	203	23
2023-08-05T18:00	16366	104	-52.9	-83.1	204	23
2023-08-05T18:00	16389	104	-53.1	-83.2	204	22
2023-08-05T18:00	16410	103	-53.2	-83.3	205	22
2023-08-05T18:00	16434	103	-53.3		206	22
2023-08-05T18:00	16456	102	-53.4	-83.4	207	22
2023-08-05T18:00	16477	102	-53.5	-83.5	208	21
2023-08-05T18:00	16501	102	-53.6	-83.6	209	21
2023-08-05T18:00	16522	101	-53.7	-83.7	209	21
2023-08-05T18:00	16546	101	-53.5	-83.5	210	21
2023-08-05T18:00	16567	101	-53.4	-83.4	210	20
2023-08-05T18:00	16589	100	-53.3		210	20
2023-08-05T18:00	16612	100	-53.2	-83.3	211	20
2023-08-05T18:00	16631	100	-53.0	-83.1	211	20
2023-08-05T18:00	16654	99	-53.1	-83.2	212	20
2023-08-05T18:00	16677	99	-53.3		212	19
2023-08-05T18:00	16698	99	-53.3		213	19
2023-08-05T18:00	16721	98	-53.3		215	19
2023-08-05T18:00	16743	98	-53.3		216	18
2023-08-05T18:00	16765	98	-53.3		219	18
2023-08-05T18:00	16788	97	-53.2	-83.3	221	18
2023-08-05T18:00	16811	97	-53.2	-83.3	223	18
2023-08-05T18:00	16833	97	-53.3		225	18
2023-08-05T18:00	16856	96	-53.1	-83.7	226	18
2023-08-05T18:00	16877	96	-52.9	-83.6	227	18
2023-08-05T18:00	16896	96	-52.9	-83.6	228	18
2023-08-05T18:00	16922	95	-52.7	-83.4	230	17
2023-08-05T18:00	16941	95	-52.8	-83.5	232	17
2023-08-05T18:00	16966	95	-52.8	-83.5	234	17
2023-08-05T18:00	16987	94	-52.8	-83.5	236	17
2023-08-05T18:00	17011	94	-52.7	-83.4	236	16
2023-08-05T18:00	17033	94	-52.3	-83.7	236	16
2023-08-05T18:00	17052	93	-51.5	-83.1	235	15
2023-08-05T18:00	17077	93	-51.5	-83.1	232	14
2023-08-05T18:00	17101	93	-51.6	-83.2	229	14
2023-08-05T18:00	17123	92	-51.7	-83.2	225	14
2023-08-05T18:00	17146	92	-51.6	-83.2	222	13
2023-08-05T18:00	17170	92	-51.3	-82.9	219	13
2023-08-05T18:00	17189	91	-51.0	-82.7	216	13
2023-08-05T18:00	17215	91	-50.8	-82.6	214	13
2023-08-05T18:00	17235	91	-50.8	-82.6	212	13
2023-08-05T18:00	17261	90	-50.7	-82.5	211	13
2023-08-05T18:00	17287	90	-50.8	-82.6	210	12
2023-08-05T18:00	17313	90	-51.0	-82.7	209	12
2023-08-05T18:00	17334	89	-51.2	-82.9	209	12
2023-08-05T18:00	17358	89	-51.3	-82.9	209	12
2023-08-05T18:00	17380	89	-51.4	-83.0	209	12
2023-08-05T18:00	17406	88	-51.6	-82.6	210	12
2023-08-05T18:00	17431	88	-51.8	-82.8	210	12
2023-08-05T18:00	17453	88	-51.9	-82.8	211	11
2023-08-05T18:00	17479	87	-52.0	-82.9	210	11
2023-08-05T18:00	17504	87	-52.2	-83.1	210	11
2023-08-05T18:00	17531	87	-52.4	-83.2	209	11
2023-08-05T18:00	17557	86	-52.6	-83.3	208	11
2023-08-05T18:00	17581	86	-52.7	-83.4	206	11
2023-08-05T18:00	17605	86	-52.9	-83.6	204	11
2023-08-05T18:00	17628	85	-53.1	-83.7	203	11
2023-08-05T18:00	17653	85	-53.2	-83.8	202	12
2023-08-05T18:00	17678	85	-53.3	-83.9	202	12
2023-08-05T18:00	17701	85	-53.4	-83.9	203	12
2023-08-05T18:00	17723	84	-53.5	-84.0	204	12
2023-08-05T18:00	17749	84	-53.4	-83.9	205	12
2023-08-05T18:00	17773	84	-53.2	-83.8	207	13
2023-08-05T18:00	17796	83	-52.9	-83.6	208	13
2023-08-05T18:00	17821	83	-53.0	-83.6	210	13
2023-08-05T18:00	17843	83	-53.2	-83.8	211	13
2023-08-05T18:00	17867	82	-53.2	-83.8	213	13
2023-08-05T18:00	17892	82	-53.3	-83.9	214	13
2023-08-05T18:00	17916	82	-53.5	-83.5	215	13
2023-08-05T18:00	17940	81	-53.7	-83.7	216	13
2023-08-05T18:00	17963	81	-53.9	-83.8	218	13
2023-08-05T18:00	17988	81	-54.0	-83.9	221	13
2023-08-05T18:00	18009	81	-54.0	-83.9	223	13
2023-08-05T18:00	18038	80	-54.0	-84.4	225	13
2023-08-05T18:00	18056	80	-53.9	-84.3	226	13
2023-08-05T18:00	18081	80	-53.9	-84.3	227	12
2023-08-05T18:00	18103	79	-53.4	-83.9	227	11
2023-08-05T18:00	18123	79	-52.9	-84.1	226	11
2023-08-05T18:00	18149	79	-52.5	-83.8	225	10
2023-08-05T18:00	18170	79	-52.4	-83.8	223	9
2023-08-05T18:00	18193	78	-52.4	-83.8	222	9
2023-08-05T18:00	18215	78	-52.1	-83.5	222	9
2023-08-05T18:00	18236	78	-52.1	-83.5	222	8
2023-08-05T18:00	18256	78	-52.1	-83.5	223	8
2023-08-05T18:00	18278	77	-52.0	-83.5	225	8
2023-08-05T18:00	18304	77	-51.7	-83.9	227	8
2023-08-05T18:00	18323	77	-51.5	-83.7	229	8
2023-08-05T18:00	18343	76	-51.5	-83.7	228	8
2023-08-05T18:00	18367	76	-51.5	-83.7	223	7
2023-08-05T18:00	18392	76	-51.4	-83.6	216	7
2023-08-05T18:00	18422	76	-51.2	-83.5	207	6
2023-08-05T18:00	18448	75	-50.7	-83.1	198	6
2023-08-05T18:00	18471	75	-50.6	-83.1	191	7
2023-08-05T18:00	18498	75	-50.7	-83.1	187	7
2023-08-05T18:00	18520	74	-50.9	-83.3	183	7
2023-08-05T18:00	18548	74	-51.1	-82.8	181	7
2023-08-05T18:00	18579	74	-51.3	-82.9	178	8
2023-08-05T18:00	18599	74	-51.6	-83.2	175	8
2023-08-05T18:00	18628	73	-51.8	-83.3	173	9
2023-08-05T18:00	18653	73	-52.0	-83.5	171	9
2023-08-05T18:00	18683	73	-52.2	-83.6	171	10
2023-08-05T18:00	18706	72	-52.4	-83.8	170	10
2023-08-05T18:00	18729	72	-52.5	-83.8	171	11
2023-08-05T18:00	18752	72	-52.5	-83.8	172	11
2023-08-05T18:00	18775	72	-52.5	-83.8	173	11
2023-08-05T18:00	18798	71	-52.2	-83.6	175	11
2023-08-05T18:00	18824	71	-52.0	-83.5	177	11
2023-08-05T18:00	18845	71	-51.9	-83.4	180	10
2023-08-05T18:00	18871	71	-51.9	-84.0	182	10
2023-08-05T18:00	18895	70	-51.9	-84.0	182	9
2023-08-05T18:00	18919	70	-52.0	-84.1	182	9
2023-08-05T18:00	18945	70	-51.6	-83.8	180	8
2023-08-05T18:00	18967	69	-51.5	-83.7	180	8
2023-08-05T18:00	18996	69	-51.5	-83.7	181	7
2023-08-05T18:00	19017	69	-51.5	-83.7	185	7
2023-08-05T18:00	19037	69	-51.2	-83.5	192	7
2023-08-05T18:00	19065	68	-51.0	-83.3	200	7
2023-08-05T18:00	19088	68	-51.1	-83.4	208	7
2023-08-05T18:00	19114	68	-51.1	-83.4	214	7
2023-08-05T18:00	19136	68	-51.1	-83.4	217	7
2023-08-05T18:00	19159	67	-51.1	-83.4	217	7
2023-08-05T18:00	19182	67	-50.8	-83.2	215	7
2023-08-05T18:00	19204	67	-50.6	-83.1	212	7
2023-08-05T18:00	19228	67	-50.8	-83.2	208	7
2023-08-05T18:00	19254	67	-51.0	-83.3	204	7
2023-08-05T18:00	19271	66	-50.9	-83.3	201	8
2023-08-05T18:00	19295	66	-50.9	-83.3	199	8
2023-08-05T18:00	19320	66	-50.8	-83.2	197	8
2023-08-05T18:00	19339	66	-50.9	-83.3	195	8
2023-08-05T18:00	19364	65	-51.0	-83.3	194	8
2023-08-05T18:00	19386	65	-50.9	-83.3	192	8
2023-08-05T18:00	19412	65	-50.9	-83.3	190	8
2023-08-05T18:00	19433	65	-51.0	-83.3	188	7
2023-08-05T18:00	19458	64	-51.1	-83.4	186	7
2023-08-05T18:00	19482	64	-51.3	-83.6	184	7
2023-08-05T18:00	19507	64	-51.4	-83.6	183	7
2023-08-05T18:00	19526	64	-51.5	-83.7	184	7
2023-08-05T18:00	19551	64	-51.4	-83.6	187	7
2023-08-05T18:00	19573	63	-51.3	-83.6	193	7
2023-08-05T18:00	19599	63	-51.0	-83.3	199	7
2023-08-05T18:00	19623	63	-50.7	-83.1	205	7
2023-08-05T18:00	19643	63	-50.7	-83.1	211	7
2023-08-05T18:00	19666	62	-50.7	-83.1	217	7
2023-08-05T18:00	19690	62	-50.7	-83.1	223	6
2023-08-05T18:00	19713	62	-50.8	-83.2	230	6
2023-08-05T18:00	19738	62	-50.8	-83.2	238	6
2023-08-05T18:00	19761	62	-51.0	-83.3	245	6
2023-08-05T18:00	19780	61	-50.9	-83.3	251	6
2023-08-05T18:00	19806	61	-51.0	-83.3	255	6
2023-08-05T18:00	19826	61	-51.0	-83.3	257	5
2023-08-05T18:00	19853	61	-51.0	-83.3	257	5
2023-08-05T18:00	19872	60	-51.1	-83.4	255	5
2023-08-05T18:00	19896	60	-51.2	-83.5	253	5
2023-08-05T18:00	19923	60	-51.3	-83.6	250	5
2023-08-05T18:00	19944	60	-51.3	-83.6	247	5
2023-08-05T18:00	19970	60	-51.3	-83.6	243	4
2023-08-05T18:00	19995	59	-51.3	-83.6	239	4
2023-08-05T18:00	20017	59	-51.1	-83.4	235	4
2023-08-05T18:00	20046	59	-51.0	-83.3	228	4
2023-08-05T18:00	20065	59	-50.9	-83.3	221	4
2023-08-05T18:00	20092	58	-51.1	-83.4	214	3
2023-08-05T18:00	20118	58	-51.1	-83.4	209	3
2023-08-05T18:00	20143	58	-51.2	-83.5	205	3
2023-08-05T18:00	20169	58	-51.2	-83.5	204	3
2023-08-05T18:00	20196	58	-51.1	-83.4	205	4
2023-08-05T18:00	20220	57	-50.7	-83.1	206	4
2023-08-05T18:00	20248	57	-50.7	-83.1	206	4
2023-08-05T18:00	20269	57	-50.8	-83.2	204	4
2023-08-05T18:00	20301	57	-50.8	-83.2	199	4
2023-08-05T18:00	20325	56	-50.8	-83.2	192	5
2023-08-05T18:00	20349	56	-50.7	-83.1	183	5
2023-08-05T18:00	20378	56	-50.6	-83.1	173	5
2023-08-05T18:00	20399	56	-50.6	-83.7	165	6
2023-08-05T18:00	20430	56	-50.4	-83.6	158	7
2023-08-05T18:00	20455	55	-50.3	-83.5	152	7
2023-08-05T18:00	20482	55	-50.3	-83.5	148	8
2023-08-05T18:00	20508	55	-50.4	-82.9	146	9
2023-08-05T18:00	20536	55	-50.5	-83.0	145	9
2023-08-05T18:00	20563	54	-50.7	-83.1	145	10
2023-08-05T18:00	20584	54	-50.8	-83.2	147	10
2023-08-05T18:00	20611	54	-50.9	-83.3	149	11
2023-08-05T18:00	20637	54	-51.1	-83.4	152	11
2023-08-05T18:00	20667	54	-51.3	-83.6	154	11
2023-08-05T18:00	20693	53	-51.4	-83.6	156	12
2023-08-05T18:00	20716	53	-51.6	-83.8	158	12
2023-08-05T18:00	20741	53	-51.8	-83.9	160	12
2023-08-05T18:00	20770	53	-51.9	-84.0	162	11
2023-08-05T18:00	20793	52	-51.4	-83.6	165	11
2023-08-05T18:00	20820	52	-51.1	-83.4	168	10
2023-08-05T18:00	20846	52	-51.0	-84.0	172	9
2023-08-05T18:00	20869	52	-51.0	-84.0	175	8
2023-08-05T18:00	20891	52	-50.9	-84.0	179	7
2023-08-05T18:00	20913	52	-50.5	-83.7	181	6
2023-08-05T18:00	20939	51	-50.2	-83.5	182	5
2023-08-05T18:00	20961	51	-50.0	-83.3	181	4
2023-08-05T18:00	20980	51	-50.0	-83.3	178	4
2023-08-05T18:00	21011	51	-50.1	-83.4	174	3
2023-08-05T18:00	21033	51	-50.1	-83.4	169	3
2023-08-05T18:00	21055	50	-50.2	-83.5	164	3
2023-08-05T18:00	21075	50	-50.4	-82.9	158	3
2023-08-05T18:00	21100	50	-50.6	-83.1	151	2
2023-08-05T18:00	21127	50	-50.6	-83.1	143	2
2023-08-05T18:00	21151	50	-50.5	-83.0	133	2
2023-08-05T18:00	21170	50	-50.6	-83.1	115	1
2023-08-05T18:00	21189	49	-50.8	-83.2	85	1
2023-08-05T18:00	21210	49	-51.0	-83.3	56	1
2023-08-05T18:00	21238	49	-51.0	-83.3	44	2
2023-08-05T18:00	21264	49	-51.1	-83.4	43	2
2023-08-05T18:00	21281	49	-51.2	-83.5	48	3
2023-08-05T18:00	21312	48	-51.4	-83.6	58	3
2023-08-05T18:00	21337	48	-51.5	-83.7	72	3
2023-08-05T18:00	21355	48	-51.5	-83.7	87	3
2023-08-05T18:00	21382	48	-51.5	-83.7	101	3
2023-08-05T18:00	21403	48	-51.6	-83.8	113	4
2023-08-05T18:00	21426	48	-51.6	-83.8	123	4
2023-08-05T18:00	21451	47	-51.6	-83.8	133	4
2023-08-05T18:00	21475	47	-51.6	-83.8	141	5
2023-08-05T18:00	21500	47	-51.7	-83.9	148	5
2023-08-05T18:00	21527	47	-51.8	-83.9	153	6
2023-08-05T18:00	21544	47	-51.9	-84.0	156	6
2023-08-05T18:00	21575	47	-52.0	-84.1	156	6
2023-08-05T18:00	21594	46	-52.1	-84.2	154	6
2023-08-05T18:00	21623	46	-51.7	-83.9	150	6
2023-08-05T18:00	21649	46	-51.5	-83.7	144	6
2023-08-05T18:00	21674	46	-51.4	-83.6	138	7
2023-08-05T18:00	21695	46	-51.4	-83.6	135	7
2023-08-05T18:00	21722	45	-51.4	-83.6	135	7
2023-08-05T18:00	21751	45	-51.4	-83.6	137	8
2023-08-05T18:00	21772	45	-51.6	-83.8	140	8
2023-08-05T18:00	21800	45	-51.5	-83.7	144	8
2023-08-05T18:00	21824	45	-51.3	-83.6	149	8
2023-08-05T18:00	21847	45	-51.3	-83.6	153	8
2023-08-05T18:00	21876	44	-51.4	-83.6	156	8
2023-08-05T18:00	21904	44	-51.6	-83.8	159	9
2023-08-05T18:00	21930	44	-51.7	-83.9	161	9
2023-08-05T18:00	21957	44	-51.9	-84.0	164	9
2023-08-05T18:00	21983	44	-52.1	-84.2	166	10
2023-08-05T18:00	22010	44	-52.2	-84.2	169	10
2023-08-05T18:00	22034	43	-52.3	-84.3	172	10
2023-08-05T18:00	22059	43	-52.4	-84.4	176	9
2023-08-05T18:00	22086	43	-52.3	-84.3	180	9
2023-08-05T18:00	22111	43	-51.7	-83.9	184	8
2023-08-05T18:00	22138	43	-51.5	-83.7	187	8
2023-08-05T18:00	22163	43	-51.3	-84.3	189	7
2023-08-05T18:00	22187	42	-51.3	-84.3	189	6
2023-08-05T18:00	22215	42	-51.4	-84.3	187	5
2023-08-05T18:00	22242	42	-51.2	-84.2	181	5
2023-08-05T18:00	22264	42	-51.1	-84.1	173	4
2023-08-05T18:00	22287	42	-51.0	-84.0	162	4
2023-08-05T18:00	22320	42	-51.0	-84.0	152	4
2023-08-05T18:00	22339	41	-51.1	-83.4	144	4
2023-08-05T18:00	22371	41	-51.2	-83.5	136	4
2023-08-05T18:00	22394	41	-51.4	-83.6	128	4
2023-08-05T18:00	22422	41	-51.5	-83.7	121	5
2023-08-05T18:00	22442	41	-51.7	-83.9	114	5
2023-08-05T18:00	22477	41	-51.8	-83.9	109	5
2023-08-05T18:00	22497	40	-51.8	-83.9	107	6
2023-08-05T18:00	22518	40	-51.7	-83.9	107	6
2023-08-05T18:00	22544	40	-51.7	-83.9	108	6
2023-08-05T18:00	22572	40	-51.7	-83.9	112	6
2023-08-05T18:00	22595	40	-51.8	-83.9	115	7
2023-08-05T18:00	22620	40	-51.9	-84.0	120	7
2023-08-05T18:00	22647	39	-52.1	-84.2	124	7
2023-08-05T18:00	22674	39	-52.3	-84.3	128	7
2023-08-05T18:00	22704	39	-52.4	-83.8	131	7
2023-08-05T18:00	22724	39	-52.5	-83.8	134	7
2023-08-05T18:00	22747	39	-52.7	-84.0	138	7
2023-08-05T18:00	22774	39	-52.9	-84.1	142	7
2023-08-05T18:00	22794	39	-53.1	-84.3	147	7
2023-08-05T18:00	22820	38	-53.2	-84.4	151	7
2023-08-05T18:00	22842	38	-53.4	-84.5	155	7
2023-08-05T18:00	22870	38	-53.4	-84.5	158	7
2023-08-05T18:00	22894	38	-53.2	-84.4	159	6
2023-08-05T18:00	22920	38	-53.1	-84.9	158	6
2023-08-05T18:00	22944	38	-53.0	-84.8	156	5
2023-08-05T18:00	22973	38	-52.9	-84.7	152	5
2023-08-05T18:00	22995	37	-52.8	-84.7	146	4
2023-08-05T18:00	23023	37	-52.6	-84.5	138	4
2023-08-05T18:00	23046	37	-52.5	-84.4	130	4
2023-08-05T18:00	23075	37	-52.5	-84.4	123	4
2023-08-05T18:00	23101	37	-52.5	-84.4	118	4
2023-08-05T18:00	23116	37	-52.5	-84.4	116	4
2023-08-05T18:00	23146	37	-52.6	-84.5	116	4
2023-08-05T18:00	23177	36	-52.4	-84.4	118	4
2023-08-05T18:00	23198	36	-52.3	-84.3	122	5
2023-08-05T18:00	23222	36	-52.3	-84.3	127	5
2023-08-05T18:00	23255	36	-52.3	-84.3	131	6
2023-08-05T18:00	23277	36	-52.3	-84.3	136	6
2023-08-05T18:00	23303	36	-52.3	-84.3	140	7
2023-08-05T18:00	23330	35	-52.2	-84.2	145	7
2023-08-05T18:00	23358	35	-52.2	-84.2	148	8
2023-08-05T18:00	23386	35	-52.4	-84.4	152	8
2023-08-05T18:00	23410	35	-52.4	-84.4	155	9
2023-08-05T18:00	23438	35	-52.4	-84.4	158	9
2023-08-05T18:00	23461	35	-52.5	-84.4	161	9
2023-08-05T18:00	23489	35	-52.6	-84.5	165	10
2023-08-05T18:00	23516	35	-52.7	-84.6	168	10
2023-08-05T18:00	23545	34	-52.9	-84.7	171	10
2023-08-05T18:00	23573	34	-53.0	-84.8	175	9
2023-08-05T18:00	23592	34	-53.1	-84.9	179	9
2023-08-05T18:00	23622	34	-52.9	-84.7	183	8
2023-08-05T18:00	23653	34	-52.8	-84.7	189	7
2023-08-05T18:00	23675	34	-52.7	-84.6	196	7
2023-08-05T18:00	23700	34	-52.6	-85.2	203	6
2023-08-05T18:00	23730	33	-52.3	-85.0	211	5
2023-08-05T18:00	23755	33	-51.8	-84.6	218	4
2023-08-05T18:00	23781	33	-51.5	-84.4	226	4
2023-08-05T18:00	23810	33	-51.7	-84.5	235	3
2023-08-05T18:00	23835	33	-51.7	-84.5	246	3
2023-08-05T18:00	23864	33	-51.9	-84.7	258	2
2023-08-05T18:00	23888	33	-52.0	-84.1	272	2
2023-08-05T18:00	23921	32	-52.1	-84.2	295	1
2023-08-05T18:00	23948	32	-52.1	-84.2	328	1
2023-08-05T18:00	23972	32	-52.0	-84.1	0	1
2023-08-05T18:00	23995	32	-51.8	-84.6	19	2
2023-08-05T18:00	24017	32	-51.7	-84.5	31	3
2023-08-05T18:00	24045	32	-51.7	-84.5	38	3
2023-08-05T18:00	24074	32	-51.5	-84.4	45	4
2023-08-05T18:00	24099	32	-51.1	-84.1	50	5
2023-08-05T18:00	24131	31	-51.0	-84.0	54	5
2023-08-05T18:00	24154	31	-51.1	-84.1	58	5
2023-08-05T18:00	24185	31	-51.2	-84.2	62	5
2023-08-05T18:00	24207	31	-51.1	-84.1	67	4
2023-08-05T18:00	24229	31	-51.0	-84.0	72	4
2023-08-05T18:00	24261	31	-51.0	-84.0	76	4
2023-08-05T18:00	24289	31	-51.1	-84.1	79	3
2023-08-05T18:00	24317	30	-51.2	-84.2	81	3
2023-08-05T18:00	24341	30	-51.2	-84.2	80	3
2023-08-05T18:00	24365	30	-51.3	-84.3	77	3
2023-08-05T18:00	24398	30	-51.3	-84.3	74	2
2023-08-05T18:00	24428	30	-51.3	-84.3	69	2
2023-08-05T18:00	24453	30	-51.3	-84.3	62	2
2023-08-05T18:00	24481	30	-51.3	-84.3	53	2
2023-08-05T18:00	24511	30	-51.4	-84.3	46	3
2023-08-05T18:00	24539	29	-51.4	-84.3	42	3
2023-08-05T18:00	24562	29	-51.3	-84.3	40	4
2023-08-05T18:00	24585	29	-51.2	-84.2	40	4
2023-08-05T18:00	24610	29	-51.3	-84.3	41	4
2023-08-05T18:00	24637	29	-51.3	-84.3	43	5
2023-08-05T18:00	24664	29	-51.4	-84.3	45	5
2023-08-05T18:00	24697	29	-51.4	-84.3	49	5
2023-08-05T18:00	24718	29	-51.4	-84.3	52	6
2023-08-05T18:00	24750	29	-51.3	-84.3	55	7
2023-08-05T18:00	24775	28	-51.3	-84.3	57	7
2023-08-05T18:00	24799	28	-51.3	-84.3	58	8
2023-08-05T18:00	24836	28	-51.1	-84.1	59	8
2023-08-05T18:00	24856	28	-51.0	-84.0	59	8
2023-08-05T18:00	24881	28	-51.0	-84.0	58	9
2023-08-05T18:00	24908	28	-51.0	-84.0	57	9
2023-08-05T18:00	24938	28	-51.0	-84.0	57	9
2023-08-05T18:00	24960	28	-51.0	-84.0	57	10
2023-08-05T18:00	24988	27	-50.8	-83.9	57	10
2023-08-05T18:00	25014	27	-50.7	-83.8	58	10
2023-08-05T18:00	25043	27	-50.8	-83.9	61	10
2023-08-05T18:00	25070	27	-50.8	-83.9	63	10
2023-08-05T18:00	25103	27	-50.8	-83.9	67	10
2023-08-05T18:00	25126	27	-50.8	-83.9	70	9
2023-08-05T18:00	25157	27	-51.0	-84.0	73	9
2023-08-05T18:00	25178	27	-51.0	-84.0	76	8
2023-08-05T18:00	25205	27	-50.9	-84.0	78	8
2023-08-05T18:00	25240	26	-50.9	-84.0	79	7
2023-08-05T18:00	25265	26	-50.8	-83.9	81	6
2023-08-05T18:00	25287	26	-50.5	-83.7	81	6
2023-08-05T18:00	25315	26	-50.3	-84.3	81	6
2023-08-05T18:00	25343	26	-50.2	-84.2	80	6
2023-08-05T18:00	25375	26	-50.2	-84.2	78	6
2023-08-05T18:00	25397	26	-50.1	-84.2	76	6
2023-08-05T18:00	25418	26	-50.0	-84.1	75	7
2023-08-05T18:00	25456	26	-50.0	-84.1	77	7
2023-08-05T18:00	25472	26	-49.8	-84.0	81	7
2023-08-05T18:00	25501	25	-49.7	-83.9	85	8
2023-08-05T18:00	25528	25	-49.7	-83.9	91	8
2023-08-05T18:00	25554	25	-49.7	-83.9	95	9
2023-08-05T18:00	25579	25	-49.8	-84.0	98	9
2023-08-05T18:00	25612	25	-49.9	-84.0	100	9
2023-08-05T18:00	25641	25	-50.0	-83.3	102	9
2023-08-05T18:00	25655	25	-50.1	-84.2	102	9
2023-08-05T18:00	25691	25	-50.0	-84.1	102	8
2023-08-05T18:00	25717	25	-49.6	-83.8	102	7
2023-08-05T18:00	25747	24	-49.3	-83.6	100	7
2023-08-05T18:00	25775	24	-49.2	-83.5	97	6
2023-08-05T18:00	25800	24	-49.1	-83.4	94	6
2023-08-05T18:00	25826	24	-48.9	-84.2	92	5
2023-08-05T18:00	25849	24	-48.6		90	5
2023-08-05T18:00	25877	24	-48.4	-83.8	89	5
2023-08-05T18:00	25901	24	-48.2	-83.7	90	6
2023-08-05T18:00	25931	24	-47.9	-83.5	91	6
2023-08-05T18:00	25959	24	-47.6	-83.3	92	7
2023-08-05T18:00	25984	24	-47.5	-83.2	94	7
2023-08-05T18:00	26007	24	-47.6	-83.3	96	7
2023-08-05T18:00	26037	23	-47.6	-83.3	99	6
2023-08-05T18:00	26069	23	-47.5	-83.2	102	6
2023-08-05T18:00	26089	23	-47.5	-83.2	105	5
2023-08-05T18:00	26122	23	-47.5	-83.2	108	5
2023-08-05T18:00	26145	23	-47.6	-82.4	110	5
2023-08-05T18:00	26174	23	-47.5	-82.3	111	5
2023-08-05T18:00	26194	23	-47.5	-82.3	111	6
2023-08-05T18:00	26230	23	-47.5	-82.3	111	6
2023-08-05T18:00	26259	23	-47.5	-82.3	111	6
2023-08-05T18:00	26277	23	-47.6	-82.4	110	7
2023-08-05T18:00	26312	22	-47.6	-82.4	109	7
2023-08-05T18:00	26339	22	-47.6	-82.4	107	7
2023-08-05T18:00	26371	22	-47.6	-82.4	104	7
2023-08-05T18:00	26400	22	-47.7	-82.4	101	7
2023-08-05T18:00	26417	22	-47.8	-82.5	98	8
2023-08-05T18:00	26448	22	-47.8	-82.5	95	8
2023-08-05T18:00	26481	22	-47.9	-82.6	94	8
2023-08-05T18:00	26512	22	-48.1	-82.7	93	9
2023-08-05T18:00	26542	22	-48.2	-82.8	93	9
2023-08-05T18:00	26567	22	-48.3	-82.9	94	9
2023-08-05T18:00	26600	22	-48.3	-82.9	96	9
2023-08-05T18:00	26625	21	-48.3	-82.9	98	8
2023-08-05T18:00	26665	21	-48.1	-82.7	102	8
2023-08-05T18:00	26681	21	-48.1	-82.7	106	7
2023-08-05T18:00	26725	21	-48.2	-82.8	110	7
2023-08-05T18:00	26746	21	-48.4	-82.9	114	6
2023-08-05T18:00	26772	21	-48.5	-83.0	118	6
2023-08-05T18:00	26791	21	-48.7	-83.2	122	5
2023-08-05T18:00	26822	21	-48.7	-83.2	127	4
2023-08-05T18:00	26858	21	-48.5	-83.0	134	4
2023-08-05T18:00	26882	21	-48.5	-83.0	143	3
2023-08-05T18:00	26908	21	-48.5	-83.0	152	3
2023-08-05T18:00	26928	20	-48.6	-83.1	158	2
2023-08-05T18:00	26966	20	-48.7	-83.2	158	2
2023-08-05T18:00	26989	20	-48.7	-83.2	150	2
2023-08-05T18:00	27016	20	-48.4	-82.9	140	3
2023-08-05T18:00	27048	20	-48.4	-82.9	129	3
2023-08-05T18:00	27080	20	-48.4	-82.9	121	3
2023-08-05T18:00	27101	20	-48.3	-82.9	114	3
2023-08-05T18:00	27134	20	-48.2	-82.8	108	3
2023-08-05T18:00	27164	20	-48.2	-82.8	102	4
2023-08-05T18:00	27184	20	-48.2	-83.7	98	4
2023-08-05T18:00	27212	20	-48.1	-83.6	95	4
2023-08-05T18:00	27241	20	-48.0	-83.6	94	5
2023-08-05T18:00	27275	19	-47.9	-83.5	94	5
2023-08-05T18:00	27297	19	-47.9	-83.5	94	5
2023-08-05T18:00	27327	19	-47.8	-83.4	96	5
2023-08-05T18:00	27354	19	-47.7	-83.4	98	4
2023-08-05T18:00	27385	19	-47.8	-83.4	102	4
2023-08-05T18:00	27420	19	-47.7	-83.4	110	3
2023-08-05T18:00	27451	19	-47.6	-83.3	124	2
2023-08-05T18:00	27472	19	-47.5	-83.2	147	1
2023-08-05T18:00	27495	19	-47.5	-83.2	178	1
2023-08-05T18:00	27525	19	-47.4	-83.1	219	1
2023-08-05T18:00	27550	19	-47.1	-82.9	271	1
2023-08-05T18:00	27584	19	-47.0	-82.9	304	1
2023-08-05T18:00	27614	18	-47.0	-82.9	319	2
2023-08-05T18:00	27635	18	-47.1	-82.9	328	3
2023-08-05T18:00	27665	18	-47.1	-82.9	336	3
2023-08-05T18:00	27700	18	-47.1	-82.9	344	4
2023-08-05T18:00	27721	18	-46.9	-82.8	355	4
2023-08-05T18:00	27751	18	-46.4	-82.4	7	5
2023-08-05T18:00	27772	18	-46.4	-82.4	20	5
2023-08-05T18:00	27806	18	-46.4	-82.4	33	6
2023-08-05T18:00	27837	18	-46.5	-82.5	43	6
2023-08-05T18:00	27871	18	-46.5	-82.5	51	7
2023-08-05T18:00	27890	18	-46.4	-82.4	55	7
2023-08-05T18:00	27920	18	-46.5	-82.5	55	7
2023-08-05T18:00	27956	18	-46.6	-82.6	52	7
2023-08-05T18:00	27983	17	-46.4	-82.4	47	8
2023-08-05T18:00	28016	17	-46.2	-82.3	40	8
2023-08-05T18:00	28034	17	-46.2	-82.3	35	8
2023-08-05T18:00	28060	17	-46.1	-82.2	33	9
2023-08-05T18:00	28097	17	-45.8	-83.1	32	9
2023-08-05T18:00	28133	17	-45.6	-82.9	32	10
2023-08-05T18:00	28150	17	-45.2	-82.7	34	10
2023-08-05T18:00	28174	17	-44.9	-82.5	36	10
2023-08-05T18:00	28212	17	-44.8	-82.4	39	11
2023-08-05T18:00	28246	17	-44.5	-82.2	44	10
2023-08-05T18:00	28272	17	-44.3	-82.0	49	10
2023-08-05T18:00	28312	17	-44.4	-82.1	54	10
2023-08-05T18:00	28336	17	-44.4	-82.1	60	10
2023-08-05T18:00	28352	17	-44.6	-82.2	66	10
2023-08-05T18:00	28379	16	-44.7	-82.3	71	10
2023-08-05T18:00	28410	16	-44.8	-81.3	76	10
2023-08-05T18:00	28453	16	-45.0	-81.4	80	10
2023-08-05T18:00	28475	16	-45.1	-81.5	83	11
2023-08-05T18:00	28509	16	-45.2	-81.6	84	10
2023-08-05T18:00	28534	16	-45.0	-82.5	84	10
2023-08-05T18:00	28567	16	-44.6	-82.2	83	10
2023-08-05T18:00	28588	16	-44.4	-82.1	82	10
2023-08-05T18:00	28619	16	-44.2	-82.0	82	10
2023-08-05T18:00	28633	16	-44.0	-81.8	82	10
2023-08-05T18:00	28680	16	-43.8	-81.7	81	10
2023-08-05T18:00	28695	16	-43.7	-81.6	80	10
2023-08-05T18:00	28728	16	-43.7	-81.6	79	9
2023-08-05T18:00	28761	16	-43.7	-81.6	77	9
2023-08-05T18:00	28803	15	-43.7	-81.6	74	9
2023-08-05T18:00	28823	15	-43.5	-81.5	71	10
2023-08-05T18:00	28853	15	-43.4	-81.4	68	10
2023-08-05T18:00	28879	15	-43.4	-81.4	66	10
2023-08-05T18:00	28923	15	-43.3	-81.3	64	11
2023-08-05T18:00	28943	15	-43.4	-81.4	62	11
2023-08-05T18:00	28975	15	-43.3	-81.3	61	11
2023-08-05T18:00	29012	15	-43.5	-81.5	60	10
2023-08-05T18:00	29040	15	-43.7	-81.6	59	10
2023-08-05T18:00	29064	15	-43.9	-81.8	59	9
2023-08-05T18:00	29102	15	-44.0	-81.8	59	9
2023-08-05T18:00	29133	15	-44.0	-81.8	59	9
2023-08-05T18:00	29152	15	-44.0	-81.8	60	9
2023-08-05T18:00	29196	15	-44.0	-81.8	61	9
2023-08-05T18:00	29215	15	-44.2	-82.0	62	9
2023-08-05T18:00	29248	14	-44.2	-82.0	64	9
2023-08-05T18:00	29281	14	-44.1	-81.9	66	10
2023-08-05T18:00	29302	14	-44.0	-81.8	69	10
2023-08-05T18:00	29338	14	-44.0	-81.8	71	11
2023-08-05T18:00	29356	14	-44.0	-81.8	74	12
2023-08-05T18:00	29388	14	-44.0	-81.8	77	14
2023-08-05T18:00	29418	14	-43.9	-81.8	80	15
2023-08-05T18:00	29450	14	-43.9	-81.8	82	16
2023-08-05T18:00	29469	14	-43.9	-81.8	85	18
2023-08-05T18:00	29498	14	-43.6	-81.5	87	19
2023-08-05T18:00	29537	14	-43.3	-81.3	88	20
2023-08-05T18:00	29548	14	-43.3	-81.3	90	21
2023-08-05T18:00	29586	14	-43.3	-81.3	91	21
2023-08-05T18:00	29601	14	-43.3	-81.3	93	21
2023-08-05T18:00	29657	14	-43.3	-81.3	94	21
2023-08-05T18:00	29671	14	-43.1	-81.2	95	20
2023-08-05T18:00	29706	14	-43.0	-81.1	96	20
2023-08-05T18:00	29726	13	-42.9	-81.1	97	19
2023-08-05T18:00	29761	13	-43.0	-81.1	98	19
2023-08-05T18:00	29787	13	-42.9	-81.1	99	19
2023-08-05T18:00	29799	13	-42.9	-81.1	100	19
2023-08-05T18:00	29836	13	-43.0	-81.1	101	19
2023-08-05T18:00	29875	13	-43.0	-81.1	101	20
2023-08-05T18:00	29891	13	-43.0	-81.1	102	20
2023-08-05T18:00	29918	13	-42.9	-81.1	103	20
2023-08-05T18:00	29937	13	-42.8	-81.0	103	20
2023-08-05T18:00	29983	13	-42.7	-80.9	104	19
2023-08-05T18:00	29994	13	-42.7	-80.9	104	18
2023-08-05T18:00	30031	13	-42.7	-80.9	105	18
2023-08-05T18:00	30074	13	-42.6	-80.8	106	17
2023-08-05T18:00	30077	13	-42.6	-80.8	107	16
2023-08-05T18:00	30121	13	-42.5	-80.8	109	15
2023-08-05T18:00	30156	13	-42.6	-80.8	111	14
2023-08-05T18:00	30179	13	-42.6	-80.8	113	13
2023-08-05T18:00	30211	13	-42.6	-80.8	115	12
2023-08-05T18:00	30242	12	-42.5	-80.8	116	11
2023-08-05T18:00	30272	12	-42.5	-80.8	117	11
2023-08-05T18:00	30298	12	-42.3	-80.6	117	11
2023-08-05T18:00	30325	12	-42.1	-80.5	116	11
2023-08-05T18:00	30351	12	-42.0	-80.4	116	12
2023-08-05T18:00	30387	12	-42.0	-80.4	116	13
2023-08-05T18:00	30422	12	-42.0	-80.4	116	13
2023-08-05T18:00	30459	12	-41.9	-80.4	117	14
2023-08-05T18:00	30465	12	-41.9	-80.4	117	14
2023-08-05T18:00	30517	12	-41.9	-80.4	116	13
2023-08-05T18:00	30548	12	-41.7	-80.2	115	12
2023-08-05T18:00	30553	12	-41.4	-80.0	112	11
2023-08-05T18:00	30610	12	-41.0	-79.7	109	10
2023-08-05T18:00	30634	12	-40.6	-79.5	105	10
2023-08-05T18:00	30665	12	-40.4	-79.3	100	9
2023-08-05T18:00	30688	12	-40.3	-79.2	95	9
2023-08-05T18:00	30710	12	-40.2	-79.2	90	9
2023-08-05T18:00	30764	12	-40.1	-79.1	84	9
2023-08-05T18:00	30791	12	-39.9	-79.0	78	9
2023-08-05T18:00	30819	11	-39.6	-78.8	73	9
2023-08-05T18:00	30845	11	-39.4	-78.6	68	9
2023-08-05T18:00	30869	11	-39.3	-78.5	65	9
2023-08-05T18:00	30892	11	-39.3	-78.5	63	9
2023-08-05T18:00	30926	11	-39.3	-78.5	63	9
2023-08-05T18:00	30963	11	-39.2	-78.5	65	9
2023-08-05T18:00	31009	11	-39.2	-78.5	68	9
2023-08-05T18:00	31030	11	-39.2	-78.5	71	9
2023-08-05T18:00	31056	11	-39.2	-78.5	75	9
2023-08-05T18:00	31093	11	-39.2	-78.5	79	9
2023-08-05T18:00	31118	11	-39.1	-78.4	82	9
2023-08-05T18:00	31149	11	-39.0	-78.3	84	9
2023-08-05T18:00	31187	11	-39.1	-78.4	86	10
2023-08-05T18:00	31211	11	-39.1	-78.4	89	10
2023-08-05T18:00	31251	11	-39.2	-78.5	91	10
2023-08-05T18:00	31272	11	-39.2	-78.5	94	10
2023-08-05T18:00	31306	11	-39.3	-78.5	96	10
2023-08-05T18:00	31318	11	-39.3	-78.5	99	11
2023-08-05T18:00	31358	11	-39.3	-78.5	100	11
2023-08-05T18:00	31384	11	-39.3	-78.5	100	11
2023-08-05T18:00	31433	11	-39.3	-78.5	99	11
2023-08-05T18:00	31442	10	-39.3	-78.5	97	11
2023-08-05T18:00	31474	10	-39.3	-78.5	94	11
2023-08-05T18:00	31502	10	-39.1	-78.4	92	11
2023-08-05T18:00	31534	10	-38.9	-78.3	88	10
2023-08-05T18:00	31565	10	-38.8	-78.2	84	10
2023-08-05T18:00	31582	10	-38.8	-78.2	79	10
2023-08-05T18:00	31649	10	-38.7	-78.1	73	10
2023-08-05T18:00	31693	10	-38.3	-77.9	64	11
2023-08-05T18:00	31723	10	-38.2	-77.8	62	11
2023-08-05T18:00	31749	10	-38.1	-77.7	63	12
2023-08-05T18:00	31825	10	-37.7	-77.4	70	12
2023-08-05T18:00	31840	10	-37.5	-77.3	75	13
2023-08-05T18:00	31869	10	-37.5	-77.3	79	13
2023-08-05T18:00	31910	10	-37.7	-77.4	82	13
2023-08-05T18:00	31932	10	-37.8	-77.5	85	13
2023-08-05T18:00	31979	10	-38.0	-77.6	88	13
2023-08-05T18:00	31998	10	-38.2	-77.8	92	13
2023-08-05T18:00	32051	10	-38.4	-77.9	95	13
2023-08-05T18:00	32073	10	-38.4	-77.9	99	13
2023-08-05T18:00	32100	10	-38.3	-77.9	102	13
2023-08-05T18:00	32138	9	-38.3	-77.9	104	14
2023-08-05T18:00	32153	9	-38.3	-77.9	106	13
2023-08-05T18:00	32214	9	-38.4	-77.9	109	13
2023-08-05T18:00	32263	9	-38.4	-77.9	113	13
2023-08-05T18:00	32286	9	-38.3	-77.9	115	13
2023-08-05T18:00	32319	9	-38.3	-77.9	115	14
2023-08-06T00:00	113	996	15.5	15.2	109	2
2023-08-06T00:00	135	994	15.4	14.9	100	2
2023-08-06T00:00	159	991	15.2	14.7	103	3
2023-08-06T00:00	180	988	15.0	14.5	107	4
2023-08-06T00:00	196	986	15.0	14.1	112	4
2023-08-06T00:00	212	984	14.9	14.2	119	5
2023-08-06T00:00	231	982	14.7	14.0	124	5
2023-08-06T00:00	254	980	14.5	13.9	129	6
2023-08-06T00:00	276	977	14.4	13.9	132	6
2023-08-06T00:00	297	975	14.2	13.9	135	6
2023-08-06T00:00	319	972	14.0	13.8	137	6
2023-08-06T00:00	353	969	13.8	13.3	139	6
2023-08-06T00:00	375	966	13.8	12.6	139	5
2023-08-06T00:00	401	963	13.8	12.0	136	5
2023-08-06T00:00	424	960	13.6	11.9	131	5
2023-08-06T00:00	451	957	13.6	11.9	127	5
2023-08-06T00:00	471	955	13.5	11.5	124	5
2023-08-06T00:00	493	952	13.5	11.4	122	5
2023-08-06T00:00	515	950	13.3	12.1	122	5
2023-08-06T00:00	539	947	13.2	11.6	122	5
2023-08-06T00:00	559	945	13.2	12.0	121	4
2023-08-06T00:00	588	942	13.3	10.3	118	4
2023-08-06T00:00	612	939	13.3	10.3	117	4
2023-08-06T00:00	638	936	13.2	10.7	116	4
2023-08-06T00:00	664	933	13.0	10.9	116	3
2023-08-06T00:00	687	931	13.0	10.9	113	3
2023-08-06T00:00	714	928	13.0	11.6	106	3
2023-08-06T00:00	739	925	12.8	11.6	94	3
2023-08-06T00:00	765	922	12.7	11.5	80	3
2023-08-06T00:00	787	920	12.8	11.1	71	3
2023-08-06T00:00	816	917	12.7	10.9	67	4
2023-08-06T00:00	839	914	12.6	10.7	67	4
2023-08-06T00:00	864	911	12.4	10.5	68	4
2023-08-06T00:00	889	909	12.2	10.5	70	4
2023-08-06T00:00	913	906	12.1	10.7	73	4
2023-08-06T00:00	940	903	11.9	10.6	76	3
2023-08-06T00:00	964	900	11.7	10.5	79	3
2023-08-06T00:00	989	898	11.6	10.4	83	3
2023-08-06T00:00	1013	895	11.4	10.2	85	3
2023-08-06T00:00	1034	893	11.3	10.1	86	2
2023-08-06T00:00	1061	890	11.2	10.0	86	2
2023-08-06T00:00	1087	887	11.0	9.9	85	2
2023-08-06T00:00	1115	885	10.8	9.9	85	2
2023-08-06T00:00	1142	882	10.6	9.8	90	2
2023-08-06T00:00	1169	879	10.3	9.6	100	2
2023-08-06T00:00	1191	876	10.2	9.7	113	2
2023-08-06T00:00	1220	874	10.1	9.5	123	2
2023-08-06T00:00	1243	871	9.8	9.4	126	2
2023-08-06T00:00	1267	868	9.6	9.4	123	2
2023-08-06T00:00	1298	865	9.4	9.0	118	3
2023-08-06T00:00	1324	862	9.2	8.8	112	3
2023-08-06T00:00	1351	860	9.1	8.8	108	4
2023-08-06T00:00	1377	857	8.9	8.8	105	4
2023-08-06T00:00	1402	854	8.8	8.7	103	4
2023-08-06T00:00	1421	852	8.9	8.0	101	4
2023-08-06T00:00	1448	850	8.9	7.5	99	4
2023-08-06T00:00	1469	848	8.8	7.4	95	3
2023-08-06T00:00	1490	845	8.6	7.1	93	2
2023-08-06T00:00	1518	843	8.4	6.5	93	2
2023-08-06T00:00	1538	840	8.2	6.8	95	2
2023-08-06T00:00	1558	838	8.1	6.8	98	3
2023-08-06T00:00	1577	837	8.1	6.9	98	3
2023-08-06T00:00	1595	835	7.9	6.8	98	3
2023-08-06T00:00	1618	832	7.9	6.8	97	3
2023-08-06T00:00	1639	830	7.8	6.7	97	3
2023-08-06T00:00	1662	828	7.9	6.4	99	3
2023-08-06T00:00	1686	826	7.7	6.4	100	3
2023-08-06T00:00	1705	824	7.6	6.5	101	2
2023-08-06T00:00	1726	822	7.5	6.7	101	2
2023-08-06T00:00	1746	820	7.4	6.7	99	2
2023-08-06T00:00	1771	817	7.3	6.5	97	2
2023-08-06T00:00	1792	815	7.2	6.4	95	2
2023-08-06T00:00	1810	813	7.0	6.3	93	2
2023-08-06T00:00	1833	811	6.8	6.3	92	2
2023-08-06T00:00	1855	809	6.6	6.3	90	2
2023-08-06T00:00	1877	807	6.5	6.1	87	3
2023-08-06T00:00	1903	804	6.5	6.0	84	3
2023-08-06T00:00	1925	802	6.4	5.7	82	3
2023-08-06T00:00	1946	800	6.3	5.5	82	3
2023-08-06T00:00	1966	798	6.1	5.3	82	3
2023-08-06T00:00	1988	796	5.9	5.3	81	2
2023-08-06T00:00	2009	794	5.8	4.6	79	2
2023-08-06T00:00	2035	791	5.6	4.5	73	2
2023-08-06T00:00	2056	789	5.4	4.3	67	2
2023-08-06T00:00	2075	787	5.2	4.0	64	2
2023-08-06T00:00	2095	786	5.1	4.2	66	2
2023-08-06T00:00	2116	784	4.9	4.0	69	2
2023-08-06T00:00	2136	782	4.8	3.7	71	2
2023-08-06T00:00	2156	780	4.6	3.6	72	2
2023-08-06T00:00	2174	778	4.5	3.7	72	2
2023-08-06T00:00	2198	776	4.4	3.9	73	2
2023-08-06T00:00	2217	774	4.3	4.0	80	1
2023-08-06T00:00	2236	772	4.2	4.0	96	1
2023-08-06T00:00	2253	771	4.1	4.0	111	1
2023-08-06T00:00	2269	769	3.9	3.9	116	1
2023-08-06T00:00	2289	767	3.9	3.9	112	1
2023-08-06T00:00	2313	765	3.7	3.7	103	1
2023-08-06T00:00	2332	763	3.6	3.6	90	1
2023-08-06T00:00	2353	761	3.5	3.5	77	1
2023-08-06T00:00	2372	759	3.4	3.4	70	1
2023-08-06T00:00	2390	758	3.2	3.2	71	1
2023-08-06T00:00	2407	756	3.2	3.0	75	1
2023-08-06T00:00	2426	754	3.1	3.0	82	1
2023-08-06T00:00	2443	752	2.9	2.9	90	1
2023-08-06T00:00	2468	750	2.7	2.7	98	1
2023-08-06T00:00	2489	749	2.7	2.7	102	2
2023-08-06T00:00	2507	747	2.6	2.6	100	2
2023-08-06T00:00	2532	745	2.5	2.5	92	2
2023-08-06T00:00	2554	742	2.3	2.3	83	2
2023-08-06T00:00	2577	740	2.3	2.3	73	2
2023-08-06T00:00	2600	738	2.0	2.0	65	2
2023-08-06T00:00	2624	736	1.9	1.9	60	1
2023-08-06T00:00	2650	734	1.7	1.7	59	1
2023-08-06T00:00	2677	731	1.6	1.6	64	1
2023-08-06T00:00	2705	729	1.4	1.4	73	1
2023-08-06T00:00	2729	727	1.2	1.2	84	1
2023-08-06T00:00	2753	724	1.1	1.1	91	2
2023-08-06T00:00	2779	722	1.0	1.0	92	2
2023-08-06T00:00	2802	720	0.8	0.8	90	2
2023-08-06T00:00	2826	718	0.4	0.4	84	2
2023-08-06T00:00	2850	716	0.4	0.4	79	2
2023-08-06T00:00	2878	713	0.4	0.4	76	2
2023-08-06T00:00	2903	711	0.2	0.2	81	1
2023-08-06T00:00	2932	708	0.0	0.0	99	1
2023-08-06T00:00	2958	706	-0.1	-0.1	117	1
2023-08-06T00:00	2993	703	-0.3	-0.3	122	1
2023-08-06T00:00	3022	700	-0.4	-0.4	119	1
2023-08-06T00:00	3051	698	-0.6	-0.6	115	1
2023-08-06T00:00	3072	696	-0.6	-0.6	113	1
2023-08-06T00:00	3096	694	-0.8	-0.8	119	1
2023-08-06T00:00	3119	692	-0.9	-0.9	133	1
2023-08-06T00:00	3145	690	-1.1	-1.1	151	1
2023-08-06T00:00	3164	688	-1.2	-1.2	163	1
2023-08-06T00:00	3189	686	-1.3	-1.3	170	1
2023-08-06T00:00	3215	684	-1.6	-1.6	172	1
2023-08-06T00:00	3240	682	-1.8	-2.0	171	1
2023-08-06T00:00	3265	680	-1.9	-2.0	171	1
2023-08-06T00:00	3287	678	-2.1	-2.4	175	1
2023-08-06T00:00	3313	675	-2.2	-2.4	189	1
2023-08-06T00:00	3340	673	-2.4	-2.5	219	1
2023-08-06T00:00	3362	671	-2.5	-2.5	245	1
2023-08-06T00:00	3385	669	-2.7	-2.7	255	1
2023-08-06T00:00	3415	667	-2.9	-3.1	252	1
2023-08-06T00:00	3438	665	-3.0	-3.3	233	1
2023-08-06T00:00	3460	663	-3.1	-3.5	212	1
2023-08-06T00:00	3486	661	-3.3	-3.6	207	1
2023-08-06T00:00	3513	659	-3.5	-3.8	207	1
2023-08-06T00:00	3534	657	-3.6	-3.7	209	1
2023-08-06T00:00	3555	655	-3.7	-3.9	211	2
2023-08-06T00:00	3577	653	-3.9	-4.0	217	2
2023-08-06T00:00	3599	652	-4.1	-4.3	228	1
2023-08-06T00:00	3623	650	-4.3	-4.3	245	2
2023-08-06T00:00	3648	648	-4.4	-4.4	258	2
2023-08-06T00:00	3671	646	-4.7	-4.9	265	3
2023-08-06T00:00	3691	644	-4.8	-5.3	268	4
2023-08-06T00:00	3714	642	-4.8	-5.4	268	4
2023-08-06T00:00	3734	640	-4.9	-5.8	269	4
2023-08-06T00:00	3752	639	-4.9	-5.9	270	4
2023-08-06T00:00	3774	637	-5.0	-6.0	273	4
2023-08-06T00:00	3799	635	-5.1	-6.2	276	4
2023-08-06T00:00	3821	633	-5.2	-6.5	280	5
2023-08-06T00:00	3840	632	-5.2	-6.5	281	5
2023-08-06T00:00	3863	630	-5.3	-6.7	280	5
2023-08-06T00:00	3882	628	-5.4	-6.9	279	6
2023-08-06T00:00	3902	627	-5.5	-6.9	278	6
2023-08-06T00:00	3925	625	-5.7	-7.2	278	7
2023-08-06T00:00	3946	623	-5.8	-7.3	278	7
2023-08-06T00:00	3970	621	-6.0	-7.5	277	7
2023-08-06T00:00	3991	620	-6.1	-7.6	275	6
2023-08-06T00:00	4011	618	-6.2	-7.7	271	6
2023-08-06T00:00	4030	617	-6.1	-7.6	266	6
2023-08-06T00:00	4049	615	-5.9	-7.2	258	5
2023-08-06T00:00	4065	614	-5.8	-7.1	249	5
2023-08-06T00:00	4087	612	-5.6	-6.8	238	4
2023-08-06T00:00	4107	611	-5.5	-6.7	229	4
2023-08-06T00:00	4125	609	-5.7	-6.8	221	4
2023-08-06T00:00	4142	608	-5.6	-6.6	216	4
2023-08-06T00:00	4160	607	-5.7	-6.6	209	4
2023-08-06T00:00	4182	605	-5.6	-6.5	199	4
2023-08-06T00:00	4203	603	-5.7	-6.6	186	4
2023-08-06T00:00	4225	602	-5.7	-6.6	172	5
2023-08-06T00:00	4251	600	-5.8	-6.6	162	5
2023-08-06T00:00	4268	598	-5.9	-6.6	157	5
2023-08-06T00:00	4287	597	-5.9	-6.7	156	5
2023-08-06T00:00	4307	595	-6.0	-6.9	158	5
2023-08-06T00:00	4327	594	-6.1	-6.9	158	5
2023-08-06T00:00	4345	592	-6.2	-7.0	155	6
2023-08-06T00:00	4369	591	-6.4	-7.1	151	7
2023-08-06T00:00	4396	589	-6.6	-7.2	147	8
2023-08-06T00:00	4419	587	-6.7	-7.3	144	9
2023-08-06T00:00	4444	585	-6.8	-7.4	143	9
2023-08-06T00:00	4469	583	-6.9	-7.5	143	9
2023-08-06T00:00	4494	581	-7.0	-7.6	144	8
2023-08-06T00:00	4515	580	-7.1	-7.6	146	8
2023-08-06T00:00	4537	578	-7.2	-7.8	148	8
2023-08-06T00:00	4559	576	-7.3	-7.9	150	8
2023-08-06T00:00	4582	575	-7.4	-8.0	151	9
2023-08-06T00:00	4605	573	-7.5	-8.1	153	9
2023-08-06T00:00	4631	571	-7.7	-8.3	153	9
2023-08-06T00:00	4655	569	-7.8	-8.4	153	9
2023-08-06T00:00	4681	568	-8.0	-8.5	153	9
2023-08-06T00:00	4707	566	-8.1	-8.6	153	9
2023-08-06T00:00	4731	564	-8.3	-8.8	153	9
2023-08-06T00:00	4760	562	-8.5	-9.0	153	9
2023-08-06T00:00	4788	560	-8.6	-9.1	153	9
2023-08-06T00:00	4815	558	-8.7	-9.2	154	9
2023-08-06T00:00	4837	556	-8.9	-9.4	154	9
2023-08-06T00:00	4866	554	-9.0	-9.5	155	9
2023-08-06T00:00	4890	552	-9.2	-9.6	154	9
2023-08-06T00:00	4915	551	-9.4	-9.8	154	9
2023-08-06T00:00	4943	549	-9.5	-9.9	153	10
2023-08-06T00:00	4969	547	-9.7	-10.1	153	10
2023-08-06T00:00	4991	545	-9.8	-10.2	153	10
2023-08-06T00:00	5015	544	-9.9	-10.3	154	9
2023-08-06T00:00	5038	542	-10.0	-10.4	155	9
2023-08-06T00:00	5064	540	-10.1	-10.6	157	9
2023-08-06T00:00	5085	539	-10.3	-10.8	158	9
2023-08-06T00:00	5107	537	-10.4	-11.0	160	9
2023-08-06T00:00	5131	535	-10.6	-11.2	160	9
2023-08-06T00:00	5156	534	-10.7	-11.3	161	9
2023-08-06T00:00	5179	532	-10.8	-11.5	161	9
2023-08-06T00:00	5204	530	-10.8	-11.5	161	9
2023-08-06T00:00	5230	529	-10.9	-11.6	162	9
2023-08-06T00:00	5256	527	-11.0	-11.7	164	9
2023-08-06T00:00	5283	525	-11.2	-12.0	165	10
2023-08-06T00:00	5306	523	-11.3	-12.1	165	10
2023-08-06T00:00	5326	522	-11.3	-12.1	166	11
2023-08-06T00:00	5347	521	-11.4	-12.1	167	12
2023-08-06T00:00	5372	519	-11.5	-12.3	167	12
2023-08-06T00:00	5392	518	-11.5	-12.3	167	12
2023-08-06T00:00	5418	516	-11.7	-12.5	167	12
2023-08-06T00:00	5442	514	-11.8	-12.7	167	12
2023-08-06T00:00	5464	513	-11.8	-12.6	167	12
2023-08-06T00:00	5487	511	-11.9	-12.7	166	13
2023-08-06T00:00	5510	510	-12.0	-12.8	167	13
2023-08-06T00:00	5531	508	-12.0	-12.8	167	14
2023-08-06T00:00	5557	507	-12.1	-12.9	167	14
2023-08-06T00:00	5583	505	-12.2	-13.0	166	14
2023-08-06T00:00	5613	503	-12.3	-13.2	163	14
2023-08-06T00:00	5642	501	-12.5	-13.3	161	14
2023-08-06T00:00	5668	499	-12.7	-13.5	159	14
2023-08-06T00:00	5693	498	-12.8	-13.7	159	13
2023-08-06T00:00	5717	496	-12.9	-13.8	161	13
2023-08-06T00:00	5741	495	-13.1	-14.0	165	13
2023-08-06T00:00	5760	493	-13.2	-14.2	167	13
2023-08-06T00:00	5784	492	-13.4	-14.4	169	13
2023-08-06T00:00	5805	490	-13.5	-14.5	168	14
2023-08-06T00:00	5824	489	-13.6	-14.6	167	14
2023-08-06T00:00	5842	488	-13.6	-14.6	165	14
2023-08-06T00:00	5872	486	-13.7	-14.7	164	14
2023-08-06T00:00	5901	484	-13.9	-14.9	164	14
2023-08-06T00:00	5925	483	-14.0	-15.0	165	14
2023-08-06T00:00	5945	481	-14.1	-15.1	166	15
2023-08-06T00:00	5968	480	-14.2	-15.3	167	15
2023-08-06T00:00	5994	478	-14.3	-15.3	168	16
2023-08-06T00:00	6019	477	-14.4	-15.5	170	16
2023-08-06T00:00	6046	475	-14.5	-15.6	172	16
2023-08-06T00:00	6070	474	-14.7	-15.9	174	16
2023-08-06T00:00	6094	472	-14.8	-16.0	177	16
2023-08-06T00:00	6116	471	-15.0	-16.2	179	16
2023-08-06T00:00	6138	469	-15.1	-16.3	180	16
2023-08-06T00:00	6159	468	-15.3	-16.6	179	17
2023-08-06T00:00	6179	467	-15.4	-16.6	177	17
2023-08-06T00:00	6205	465	-15.6	-16.8	174	16
2023-08-06T00:00	6225	464	-15.7	-17.0	172	16
2023-08-06T00:00	6248	463	-15.8		171	16
2023-08-06T00:00	6270	461	-16.0	-17.3	170	16
2023-08-06T00:00	6292	460	-16.1	-17.4	169	16
2023-08-06T00:00	6314	459	-16.2	-17.5	168	17
2023-08-06T00:00	6338	457	-16.4	-17.7	168	17
2023-08-06T00:00	6358	456	-16.4	-17.7	168	18
2023-08-06T00:00	6379	455	-16.5	-17.8	168	18
2023-08-06T00:00	6402	453	-16.5	-17.7	170	19
2023-08-06T00:00	6422	452	-16.6	-17.9	171	19
2023-08-06T00:00	6452	450	-16.8	-18.1	172	20
2023-08-06T00:00	6483	448	-16.9	-18.2	172	21
2023-08-06T00:00	6513	447	-17.0	-18.3	172	21
2023-08-06T00:00	6536	445	-17.1	-18.4	172	21
2023-08-06T00:00	6557	444	-17.2	-18.5	171	22
2023-08-06T00:00	6581	443	-17.3	-18.6	170	22
2023-08-06T00:00	6602	441	-17.4	-18.7	170	22
2023-08-06T00:00	6631	440	-17.6	-18.8	169	22
2023-08-06T00:00	6657	438	-17.7	-18.9	170	22
2023-08-06T00:00	6683	437	-17.9	-19.2	171	22
2023-08-06T00:00	6706	435	-18.0	-19.3	172	23
2023-08-06T00:00	6729	434	-18.1	-19.4	173	23
2023-08-06T00:00	6758	432	-18.3	-19.8	173	24
2023-08-06T00:00	6779	431	-18.3	-19.6	173	24
2023-08-06T00:00	6801	430	-18.4	-19.8	172	25
2023-08-06T00:00	6823	428	-18.5	-19.8	171	25
2023-08-06T00:00	6847	427	-18.6	-19.9	170	25
2023-08-06T00:00	6869	426	-18.8	-20.0	170	25
2023-08-06T00:00	6898	424	-18.9	-20.3	170	26
2023-08-06T00:00	6920	423	-19.0	-20.2	171	26
2023-08-06T00:00	6943	422	-19.1	-20.3	171	26
2023-08-06T00:00	6966	420	-19.3	-20.5	172	27
2023-08-06T00:00	6990	419	-19.5	-20.8	172	27
2023-08-06T00:00	7012	418	-19.6	-20.7	172	28
2023-08-06T00:00	7036	416	-19.7	-20.9	172	29
2023-08-06T00:00	7063	415	-19.9	-21.1	172	29
2023-08-06T00:00	7087	413	-20.1	-21.3	172	29
2023-08-06T00:00	7109	412	-20.2	-21.4	171	30
2023-08-06T00:00	7126	411	-20.3	-21.5	171	30
2023-08-06T00:00	7146	410	-20.5	-21.6	170	29
2023-08-06T00:00	7166	409	-20.6	-21.8	170	29
2023-08-06T00:00	7185	408	-20.8	-22.0	171	28
2023-08-06T00:00	7208	407	-21.0	-22.3	173	27
2023-08-06T00:00	7228	406	-21.1	-22.2	175	27
2023-08-06T00:00	7253	404	-21.3	-22.5	178	27
2023-08-06T00:00	7275	403	-21.5	-22.6	179	28
2023-08-06T00:00	7296	402	-21.7	-22.8	179	29
2023-08-06T00:00	7319	401	-21.9	-22.9	179	29
2023-08-06T00:00	7342	399	-22.0	-23.0	177	29
2023-08-06T00:00	7365	398	-22.2	-23.3	176	29
2023-08-06T00:00	7387	397	-22.4	-23.7	176	29
2023-08-06T00:00	7410	396	-22.6	-24.2	176	29
2023-08-06T00:00	7433	395	-22.8	-24.4	177	28
2023-08-06T00:00	7455	393	-23.0	-24.7	177	29
2023-08-06T00:00	7480	392	-23.1	-24.8	178	29
2023-08-06T00:00	7505	391	-23.3	-24.9	177	29
2023-08-06T00:00	7530	389	-23.5	-24.9	177	29
2023-08-06T00:00	7555	388	-23.7	-25.2	176	29
2023-08-06T00:00	7577	387	-23.9	-25.4	176	28
2023-08-06T00:00	7604	386	-24.1	-25.5	175	28
2023-08-06T00:00	7625	384	-24.3	-25.8	174	27
2023-08-06T00:00	7647	383	-24.4	-26.1	173	26
2023-08-06T00:00	7670	382	-24.5	-26.4	173	26
2023-08-06T00:00	7692	381	-24.7	-26.6	173	25
2023-08-06T00:00	7712	380	-24.9	-26.8	174	25
2023-08-06T00:00	7730	379	-25.0	-26.7	176	25
2023-08-06T00:00	7748	378	-25.1	-26.8	178	25
2023-08-06T00:00	7770	377	-25.3	-27.1	180	25
2023-08-06T00:00	7794	376	-25.4	-27.2	181	26
2023-08-06T00:00	7810	375	-25.5	-27.2	182	27
2023-08-06T00:00	7834	373	-25.5	-27.1	182	27
2023-08-06T00:00	7851	372	-25.7		182	28
2023-08-06T00:00	7872	372	-25.8	-27.5	181	28
2023-08-06T00:00	7885	371	-25.9	-27.7	181	28
2023-08-06T00:00	7908	370	-26.1	-27.9	180	29
2023-08-06T00:00	7930	369	-26.2	-28.1	178	29
2023-08-06T00:00	7950	367	-26.3	-28.2	177	29
2023-08-06T00:00	7971	366	-26.4	-28.6	175	30
2023-08-06T00:00	7988	366	-26.6	-28.7	173	30
2023-08-06T00:00	8008	365	-26.7	-28.9	173	30
2023-08-06T00:00	8028	364	-26.8	-29.0	173	29
2023-08-06T00:00	8046	363	-26.7	-28.9	174	29
2023-08-06T00:00	8067	362	-26.9	-29.1	175	29
2023-08-06T00:00	8088	361	-27.0	-29.2	175	29
2023-08-06T00:00	8106	360	-27.2	-29.4	175	29
2023-08-06T00:00	8130	358	-27.4	-29.5	175	29
2023-08-06T00:00	8154	357	-27.6	-29.7	174	29
2023-08-06T00:00	8185	356	-27.9	-30.0	173	29
2023-08-06T00:00	8212	354	-28.1	-30.6	172	29
2023-08-06T00:00	8236	353	-28.3	-30.8	172	29
2023-08-06T00:00	8266	352	-28.5	-31.0	173	29
2023-08-06T00:00	8293	350	-28.8	-31.1	174	29
2023-08-06T00:00	8313	349	-28.9	-31.2	176	30
2023-08-06T00:00	8337	348	-29.1	-31.3	177	31
2023-08-06T00:00	8363	347	-29.3	-31.4	177	32
2023-08-06T00:00	8386	346	-29.5	-31.7	177	33
2023-08-06T00:00	8409	345	-29.7	-31.8	177	33
2023-08-06T00:00	8439	343	-30.0	-32.1	177	34
2023-08-06T00:00	8462	342	-30.2	-32.2	176	34
2023-08-06T00:00	8487	341	-30.4	-32.4	175	33
2023-08-06T00:00	8512	340	-30.6	-32.8	174	33
2023-08-06T00:00	8538	339	-30.8		173	33
2023-08-06T00:00	8561	337	-31.0	-33.1	171	32
2023-08-06T00:00	8582	336	-31.2	-33.4	171	31
2023-08-06T00:00	8602	335	-31.4	-33.5	170	31
2023-08-06T00:00	8626	334	-31.7	-34.0	171	30
2023-08-06T00:00	8646	333	-31.8	-33.9	172	30
2023-08-06T00:00	8668	332	-32.0	-34.2	174	30
2023-08-06T00:00	8695	331	-32.2	-34.3	176	31
2023-08-06T00:00	8719	330	-32.4	-34.7	177	31
2023-08-06T00:00	8740	329	-32.6	-34.7	177	32
2023-08-06T00:00	8762	328	-32.8	-34.9	177	32
2023-08-06T00:00	8782	327	-33.0	-35.1	177	32
2023-08-06T00:00	8800	326	-33.2	-35.4	178	32
2023-08-06T00:00	8827	325	-33.5	-36.5	179	32
2023-08-06T00:00	8855	324	-33.8	-36.9	181	32
2023-08-06T00:00	8874	323	-33.9	-36.8	182	33
2023-08-06T00:00	8898	322	-34.1	-37.0	183	33
2023-08-06T00:00	8917	321	-34.3	-37.2	182	33
2023-08-06T00:00	8938	320	-34.5	-37.2	182	33
2023-08-06T00:00	8960	319	-34.6	-37.4	182	33
2023-08-06T00:00	8979	318	-34.8	-37.7	182	34
2023-08-06T00:00	9001	317	-34.9	-37.5	183	34
2023-08-06T00:00	9024	316	-34.9	-37.3	183	35
2023-08-06T00:00	9050	315	-35.0	-37.2	183	36
2023-08-06T00:00	9070	314	-35.1	-37.3	183	37
2023-08-06T00:00	9092	313	-35.2	-37.4	182	38
2023-08-06T00:00	9114	312	-35.2	-37.4	182	38
2023-08-06T00:00	9134	311	-35.2	-37.2	183	38
2023-08-06T00:00	9159	310	-35.3	-37.7	184	39
2023-08-06T00:00	9183	309	-35.3	-38.2	185	39
2023-08-06T00:00	9209	308	-35.6	-38.3	185	40
2023-08-06T00:00	9232	307	-35.8	-38.3	185	41
2023-08-06T00:00	9259	305	-36.0	-38.5	184	41
2023-08-06T00:00	9288	304	-36.3	-38.8	183	40
2023-08-06T00:00	9312	303	-36.5	-39.0	182	40
2023-08-06T00:00	9333	302	-36.6	-39.1	181	40
2023-08-06T00:00	9357	301	-36.8	-39.3	181	40
2023-08-06T00:00	9379	300	-37.0	-39.5	181	41
2023-08-06T00:00	9402	299	-37.1	-39.3	181	41
2023-08-06T00:00	9422	298	-37.2	-39.3	180	41
2023-08-06T00:00	9447	297	-37.4	-39.6	180	42
2023-08-06T00:00	9472	296	-37.6	-39.8	180	43
2023-08-06T00:00	9494	295	-37.8	-39.9	180	43
2023-08-06T00:00	9520	294	-38.0	-40.0	179	44
2023-08-06T00:00	9541	293	-38.2	-40.5	179	44
2023-08-06T00:00	9563	292	-38.3	-40.7	179	44
2023-08-06T00:00	9588	291	-38.5	-40.5	178	44
2023-08-06T00:00	9609	290	-38.7	-40.6	178	44
2023-08-06T00:00	9636	289	-38.9	-40.9	177	45
2023-08-06T00:00	9663	288	-39.1	-40.9	177	45
2023-08-06T00:00	9689	287	-39.3	-41.2	176	45
2023-08-06T00:00	9711	286	-39.5	-41.4	176	45
2023-08-06T00:00	9739	285	-39.7	-41.5	176	45
2023-08-06T00:00	9768	284	-40.0	-41.6	177	45
2023-08-06T00:00	9792	283	-40.2	-41.9	177	45
2023-08-06T00:00	9814	282	-40.4	-42.1	177	46
2023-08-06T00:00	9840	281	-40.7	-42.4	178	46
2023-08-06T00:00	9864	280	-40.9	-42.6	178	46
2023-08-06T00:00	9887	279	-41.1	-42.8	178	46
2023-08-06T00:00	9914	278	-41.3	-43.1	178	47
2023-08-06T00:00	9943	276	-41.6	-43.8	179	47
2023-08-06T00:00	9974	275	-41.8	-44.6	179	48
2023-08-06T00:00	10003	274	-42.1	-44.9	179	48
2023-08-06T00:00	10030	273	-42.3	-44.8	179	48
2023-08-06T00:00	10057	272	-42.5	-45.1	179	48
2023-08-06T00:00	10079	271	-42.7	-45.3	180	49
2023-08-06T00:00	10107	270	-42.9	-45.4	180	49
2023-08-06T00:00	10131	269	-43.1	-45.6	180	50
2023-08-06T00:00	10157	268	-43.3	-45.9	181	51
2023-08-06T00:00	10181	267	-43.3	-46.0	181	52
2023-08-06T00:00	10208	266	-43.6	-46.2	180	52
2023-08-06T00:00	10232	265	-43.8	-46.4	180	53
2023-08-06T00:00	10255	264	-43.8	-46.5	180	53
2023-08-06T00:00	10275	263	-43.9	-46.6	180	53
2023-08-06T00:00	10297	262	-44.1	-46.8	180	52
2023-08-06T00:00	10319	261	-44.2	-47.1	179	52
2023-08-06T00:00	10343	261	-44.5	-47.5	179	52
2023-08-06T00:00	10368	260	-44.7	-47.7	179	52
2023-08-06T00:00	10395	259	-44.9	-47.8	179	52
2023-08-06T00:00	10418	258	-45.1	-47.8	179	52
2023-08-06T00:00	10443	257	-45.3	-48.0	179	52
2023-08-06T00:00	10464	256	-45.5	-48.3	179	52
2023-08-06T00:00	10488	255	-45.7	-48.8	179	52
2023-08-06T00:00	10512	254	-46.0	-49.0	179	52
2023-08-06T00:00	10536	253	-46.2	-49.0	179	52
2023-08-06T00:00	10556	252	-46.4	-49.1	179	52
2023-08-06T00:00	10581	251	-46.6		179	51
2023-08-06T00:00	10606	251	-46.8	-49.5	179	51
2023-08-06T00:00	10630	250	-47.0	-49.7	179	51
2023-08-06T00:00	10652	249	-47.2	-49.9	179	51
2023-08-06T00:00	10678	248	-47.5	-50.3	179	51
2023-08-06T00:00	10712	247	-47.8	-51.0	179	51
2023-08-06T00:00	10744	245	-48.1	-51.5	179	51
2023-08-06T00:00	10778	244	-48.4	-51.7	178	50
2023-08-06T00:00	10798	243	-48.6	-51.6	179	50
2023-08-06T00:00	10823	242	-48.8	-51.7	179	50
2023-08-06T00:00	10853	241	-49.1	-52.0	179	50
2023-08-06T00:00	10875	240	-49.3	-52.3	179	49
2023-08-06T00:00	10898	240	-49.5	-52.4	179	49
2023-08-06T00:00	10919	239	-49.8	-52.7	180	49
2023-08-06T00:00	10949	238	-50.0	-53.0	180	49
2023-08-06T00:00	10971	237	-50.2	-53.3	180	48
2023-08-06T00:00	10996	236	-50.4	-53.5	179	48
2023-08-06T00:00	11019	235	-50.6	-54.0	179	48
2023-08-06T00:00	11043	234	-50.8		178	47
2023-08-06T00:00	11070	233	-51.0	-54.7	178	47
2023-08-06T00:00	11093	233	-51.1	-55.0	177	46
2023-08-06T00:00	11118	232	-51.1	-55.2	177	46
2023-08-06T00:00	11138	231	-51.3	-55.2	177	45
2023-08-06T00:00	11161	230	-51.4	-55.1	178	45
2023-08-06T00:00	11181	229	-51.6	-55.1	178	44
2023-08-06T00:00	11203	229	-51.8	-55.2	179	44
2023-08-06T00:00	11228	228	-52.0	-55.3	179	44
2023-08-06T00:00	11252	227	-52.3	-55.4	180	43
2023-08-06T00:00	11274	226	-52.5	-55.4	179	43
2023-08-06T00:00	11303	225	-52.7	-55.4	179	42
2023-08-06T00:00	11325	224	-52.8	-55.5	179	42
2023-08-06T00:00	11354	223	-53.0	-56.0	178	41
2023-08-06T00:00	11379	223	-53.1	-56.9	177	41
2023-08-06T00:00	11406	222	-53.0	-58.2	177	42
2023-08-06T00:00	11430	221	-52.9	-59.9	176	42
2023-08-06T00:00	11456	220	-52.8	-61.6	175	42
2023-08-06T00:00	11479	219	-52.2	-62.5	175	43
2023-08-06T00:00	11506	218	-52.4	-63.5	174	43
2023-08-06T00:00	11532	217	-51.9	-64.2	173	44
2023-08-06T00:00	11554	217	-52.1	-65.6	173	45
2023-08-06T00:00	11579	216	-51.8	-66.8	173	46
2023-08-06T00:00	11606	215	-50.9	-68.3	174	47
2023-08-06T00:00	11630	214	-49.4	-69.2	175	47
2023-08-06T00:00	11653	213	-48.8	-69.2	176	47
2023-08-06T00:00	11682	212	-48.1	-68.7	177	47
2023-08-06T00:00	11709	212	-47.4	-68.5	179	46
2023-08-06T00:00	11732	211	-46.8	-68.7	181	46
2023-08-06T00:00	11757	210	-46.5	-68.7	182	46
2023-08-06T00:00	11778	209	-46.4	-68.4	183	45
2023-08-06T00:00	11805	208	-45.7	-68.4	184	44
2023-08-06T00:00	11832	208	-45.4	-68.3	185	44
2023-08-06T00:00	11856	207	-45.5	-68.1	185	43
2023-08-06T00:00	11882	206	-45.6	-68.2	186	42
2023-08-06T00:00	11903	205	-45.7	-68.5	186	41
2023-08-06T00:00	11934	205	-45.8	-68.9	187	40
2023-08-06T00:00	11955	204	-46.0	-69.1	187	40
2023-08-06T00:00	11981	203	-46.2	-69.4	188	40
2023-08-06T00:00	12007	202	-46.3	-69.9	188	40
2023-08-06T00:00	12031	202	-46.5	-70.2	188	40
2023-08-06T00:00	12055	201	-46.7	-70.4	187	40
2023-08-06T00:00	12077	200	-46.8	-70.6	187	40
2023-08-06T00:00	12104	199	-47.0	-70.8	187	40
2023-08-06T00:00	12127	199	-47.3	-70.9	187	40
2023-08-06T00:00	12149	198	-47.5	-71.0	187	39
2023-08-06T00:00	12175	197	-47.6	-71.4	187	39
2023-08-06T00:00	12198	196	-47.7	-71.9	188	38
2023-08-06T00:00	12223	196	-47.9	-71.8	188	38
2023-08-06T00:00	12253	195	-48.1	-72.0	188	37
2023-08-06T00:00	12277	194	-48.4	-72.2	188	36
2023-08-06T00:00	12308	193	-48.6	-72.6	188	36
2023-08-06T00:00	12331	193	-48.7	-72.8	187	35
2023-08-06T00:00	12357	192	-48.9	-73.2	187	34
2023-08-06T00:00	12376	191	-49.0	-73.8	186	33
2023-08-06T00:00	12401	190	-49.1	-74.1	186	33
2023-08-06T00:00	12426	190	-49.2	-74.4	185	32
2023-08-06T00:00	12449	189	-49.3	-74.5	184	32
2023-08-06T00:00	12473	188	-49.1	-74.5	183	32
2023-08-06T00:00	12495	188	-49.0	-74.4	182	32
2023-08-06T00:00	12519	187	-49.0	-74.4	182	33
2023-08-06T00:00	12541	186	-48.9	-74.6	182	33
2023-08-06T00:00	12562	186	-48.9	-74.8	183	33
2023-08-06T00:00	12587	185	-49.0	-75.1	183	34
2023-08-06T00:00	12612	184	-48.8	-75.2	184	34
2023-08-06T00:00	12635	184	-48.2	-75.0	183	34
2023-08-06T00:00	12660	183	-47.8	-74.9	183	34
2023-08-06T00:00	12685	182	-47.9	-75.0	183	33
2023-08-06T00:00	12712	182	-48.1	-75.2	183	32
2023-08-06T00:00	12736	181	-48.2	-75.2	183	32
2023-08-06T00:00	12763	180	-48.4	-75.4	183	31
2023-08-06T00:00	12787	180	-48.6	-75.8	184	30
2023-08-06T00:00	12816	179	-48.2	-75.8	185	30
2023-08-06T00:00	12840	178	-48.0	-75.6	186	29
2023-08-06T00:00	12864	178	-48.0	-75.9	187	29
2023-08-06T00:00	12895	177	-48.2	-76.1	188	29
2023-08-06T00:00	12922	176	-48.4	-76.2	189	29
2023-08-06T00:00	12948	175	-48.6	-76.4	189	28
2023-08-06T00:00	12975	175	-48.8	-76.5	189	28
2023-08-06T00:00	13005	174	-48.8	-76.8	188	28
2023-08-06T00:00	13033	173	-48.9	-77.2	187	28
2023-08-06T00:00	13054	172	-48.8	-77.2	187	28
2023-08-06T00:00	13080	172	-49.0	-77.3	188	28
2023-08-06T00:00	13103	171	-49.0	-77.3	189	28
2023-08-06T00:00	13126	171	-48.9	-77.6	190	27
2023-08-06T00:00	13152	170	-48.7	-77.8	191	27
2023-08-06T00:00	13174	169	-48.5	-77.6	192	27
2023-08-06T00:00	13198	169	-48.4	-77.6	192	27
2023-08-06T00:00	13223	168	-48.6	-77.7	192	28
2023-08-06T00:00	13248	167	-48.8	-77.5	193	28
2023-08-06T00:00	13273	167	-48.9	-77.6	194	28
2023-08-06T00:00	13296	166	-48.8	-77.5	194	29
2023-08-06T00:00	13320	166	-48.8	-77.9	195	29
2023-08-06T00:00	13350	165	-48.9	-77.9	196	29
2023-08-06T00:00	13369	164	-48.6	-77.7	196	28
2023-08-06T00:00	13389	164	-48.4	-77.6	196	28
2023-08-06T00:00	13413	163	-48.4	-77.9	197	27
2023-08-06T00:00	13439	163	-48.4	-78.3	197	26
2023-08-06T00:00	13461	162	-48.4	-78.3	199	26
2023-08-06T00:00	13485	162	-48.3	-78.3	200	25
2023-08-06T00:00	13509	161	-48.2	-78.2	201	25
2023-08-06T00:00	13532	160	-48.2	-78.2	202	25
2023-08-06T00:00	13562	160	-48.0	-78.0	202	25
2023-08-06T00:00	13582	159	-47.9	-78.4	202	24
2023-08-06T00:00	13605	159	-48.0	-78.5	202	23
2023-08-06T00:00	13631	158	-48.0	-78.5	203	23
2023-08-06T00:00	13654	157	-48.0	-78.0	204	22
2023-08-06T00:00	13682	157	-48.2	-77.8	206	22
2023-08-06T00:00	13704	156	-48.3	-77.9	207	21
2023-08-06T00:00	13728	156	-48.3	-77.9	208	21
2023-08-06T00:00	13749	155	-48.4	-77.9	208	20
2023-08-06T00:00	13772	155	-48.2	-77.8	208	20
2023-08-06T00:00	13798	154	-48.3	-77.9	207	20
2023-08-06T00:00	13823	153	-48.5	-78.0	207	20
2023-08-06T00:00	13845	153	-48.6	-78.1	207	20
2023-08-06T00:00	13864	153	-48.5	-78.0	207	19
2023-08-06T00:00	13884	152	-48.6	-78.1	207	19
2023-08-06T00:00	13904	152	-48.7	-78.2	207	19
2023-08-06T00:00	13927	151	-48.9	-78.3	207	18
2023-08-06T00:00	13948	151	-49.1	-78.1	206	18
2023-08-06T00:00	13971	150	-49.3	-78.2	206	18
2023-08-06T00:00	13997	149	-49.5	-78.4	205	18
2023-08-06T00:00	14020	149	-49.6	-78.1	204	18
2023-08-06T00:00	14044	148	-49.7	-78.2	202	18
2023-08-06T00:00	14064	148	-49.8	-78.3	200	19
2023-08-06T00:00	14082	147	-49.8	-78.6	198	18
2023-08-06T00:00	14107	147	-49.9	-78.7	196	18
2023-08-06T00:00	14131	146	-49.9	-78.7	194	18
2023-08-06T00:00	14150	146	-49.3	-78.6	192	18
2023-08-06T00:00	14179	145	-49.1	-78.5	191	18
2023-08-06T00:00	14197	145	-49.1	-78.5	189	18
2023-08-06T00:00	14222	144	-49.0	-78.0	189	18
2023-08-06T00:00	14242	144	-49.1	-78.1	188	19
2023-08-06T00:00	14269	143	-49.2	-78.2	187	19
2023-08-06T00:00	14292	143	-49.3	-78.2	186	19
2023-08-06T00:00	14315	142	-49.4	-78.3	186	19
2023-08-06T00:00	14338	142	-49.5	-78.4	186	19
2023-08-06T00:00	14363	141	-49.5	-78.4	186	19
2023-08-06T00:00	14391	141	-49.5	-78.4	186	18
2023-08-06T00:00	14413	140	-49.4	-78.7	186	18
2023-08-06T00:00	14435	140	-49.1	-78.5	186	18
2023-08-06T00:00	14458	139	-49.2	-78.9	186	18
2023-08-06T00:00	14477	139	-49.0	-78.8	186	18
2023-08-06T00:00	14499	138	-48.6	-78.9	186	18
2023-08-06T00:00	14521	138	-48.4	-78.8	186	19
2023-08-06T00:00	14542	138	-48.4	-78.8	187	19
2023-08-06T00:00	14563	137	-48.6	-78.9	187	19
2023-08-06T00:00	14586	137	-48.7	-79.0	188	19
2023-08-06T00:00	14605	136	-48.9	-79.1	189	19
2023-08-06T00:00	14631	136	-49.0	-79.2	190	18
2023-08-06T00:00	14650	135	-49.0	-79.2	190	18
2023-08-06T00:00	14677	135	-48.9	-79.1	190	17
2023-08-06T00:00	14698	134	-48.8	-79.1	190	17
2023-08-06T00:00	14720	134	-48.7	-79.0	190	17
2023-08-06T00:00	14744	133	-48.7	-79.0	190	16
2023-08-06T00:00	14764	133	-48.8	-79.1	190	16
2023-08-06T00:00	14785	133	-49.0	-78.8	189	16
2023-08-06T00:00	14808	132	-49.1	-78.9	188	16
2023-08-06T00:00	14827	132	-49.2	-78.5	187	16
2023-08-06T00:00	14846	131	-49.2	-78.5	186	16
2023-08-06T00:00	14867	131	-49.1	-78.5	184	15
2023-08-06T00:00	14884	130	-49.1	-78.5	184	15
2023-08-06T00:00	14907	130	-49.1	-78.5	184	15
2023-08-06T00:00	14926	130	-49.2	-78.5	184	15
2023-08-06T00:00	14948	129	-49.3	-78.6	185	15
2023-08-06T00:00	14970	129	-49.5	-78.8	185	16
2023-08-06T00:00	14997	128	-49.7	-78.9	186	16
2023-08-06T00:00	15021	128	-49.9	-79.1	185	16
2023-08-06T00:00	15046	127	-50.1	-79.2	185	17
2023-08-06T00:00	15069	127	-50.3	-79.4	185	17
2023-08-06T00:00	15090	127	-50.4	-79.5	185	17
2023-08-06T00:00	15110	126	-50.5	-79.9	186	17
2023-08-06T00:00	15133	126	-50.6	-80.0	186	17
2023-08-06T00:00	15152	125	-50.7	-80.1	187	17
2023-08-06T00:00	15175	125	-50.9	-80.2	187	17
2023-08-06T00:00	15195	124	-51.0	-80.3	188	16
2023-08-06T00:00	15215	124	-51.0	-80.3	189	16
2023-08-06T00:00	15241	124	-51.2	-80.1	190	16
2023-08-06T00:00	15263	123	-51.4	-80.2	191	15
2023-08-06T00:00	15291	123	-51.5	-80.3	193	15
2023-08-06T00:00	15316	122	-51.3	-80.1	195	14
2023-08-06T00:00	15338	122	-51.3	-80.1	196	14
2023-08-06T00:00	15364	121	-51.1	-80.4	198	14
2023-08-06T00:00	15385	121	-50.9	-80.2	199	15
2023-08-06T00:00	15409	120	-50.8	-80.1	201	15
2023-08-06T00:00	15435	120	-51.0	-80.3	202	15
2023-08-06T00:00	15459	120	-51.1	-80.0	202	15
2023-08-06T00:00	15485	119	-51.2	-80.1	202	15
2023-08-06T00:00	15506	119	-51.4	-80.2	201	15
2023-08-06T00:00	15527	118	-51.4	-80.2	200	15
2023-08-06T00:00	15551	118	-51.4	-80.2	198	15
2023-08-06T00:00	15571	117	-51.4	-80.6	197	15
2023-08-06T00:00	15591	117	-51.4	-80.6	196	15
2023-08-06T00:00	15612	117	-51.3	-80.9	195	15
2023-08-06T00:00	15632	116	-51.2	-80.9	195	15
2023-08-06T00:00	15655	116	-51.2	-80.9	195	15
2023-08-06T00:00	15674	116	-51.2	-80.9	195	16
2023-08-06T00:00	15694	115	-51.2	-80.9	195	16
2023-08-06T00:00	15715	115	-51.3	-80.9	196	16
2023-08-06T00:00	15737	115	-51.2	-80.9	196	16
2023-08-06T00:00	15756	114	-51.4	-80.6	196	16
2023-08-06T00:00	15777	114	-51.4	-80.6	195	16
2023-08-06T00:00	15795	114	-51.5	-80.7	194	17
2023-08-06T00:00	15813	113	-51.6	-81.2	194	17
2023-08-06T00:00	15831	113	-51.6	-81.2	194	17
2023-08-06T00:00	15852	112	-51.7	-81.2	194	17
2023-08-06T00:00	15871	112	-51.8	-81.3	195	17
2023-08-06T00:00	15890	112	-51.9	-81.4	196	17
2023-08-06T00:00	15911	111	-51.8	-81.3	197	16
2023-08-06T00:00	15930	111	-51.7	-81.2	198	16
2023-08-06T00:00	15951	111	-51.8	-81.3	199	16
2023-08-06T00:00	15970	110	-51.7	-81.2	199	16
2023-08-06T00:00	15988	110	-51.5	-81.1	200	15
2023-08-06T00:00	16008	110	-51.5	-81.1	201	15
2023-08-06T00:00	16026	110	-51.5	-81.1	203	15
2023-08-06T00:00	16046	109	-51.4	-81.0	204	15
2023-08-06T00:00	16065	109	-51.4	-81.0	204	14
2023-08-06T00:00	16084	109	-51.1	-80.8	205	14
2023-08-06T00:00	16100	108	-51.0	-81.2	205	14
2023-08-06T00:00	16122	108	-51.0	-81.2	205	15
2023-08-06T00:00	16140	108	-51.1	-80.8	204	15
2023-08-06T00:00	16157	107	-51.2	-80.9	203	15
2023-08-06T00:00	16174	107	-51.2	-80.9	202	16
2023-08-06T00:00	16197	107	-51.3	-80.9	201	16
2023-08-06T00:00	16213	106	-51.2	-80.9	200	17
2023-08-06T00:00	16233	106	-50.8	-81.0	199	17
2023-08-06T00:00	16251	106	-50.9	-81.1	198	18
2023-08-06T00:00	16267	106	-51.0	-81.2	197	18
2023-08-06T00:00	16289	105	-51.1	-81.2	197	18
2023-08-06T00:00	16306	105	-51.0	-81.2	196	18
2023-08-06T00:00	16322	105	-50.9	-81.1	196	18
2023-08-06T00:00	16340	104	-50.8	-81.0	196	17
2023-08-06T00:00	16359	104	-50.9	-81.1	196	17
2023-08-06T00:00	16377	104	-50.9	-81.1	195	16
2023-08-06T00:00	16395	103	-50.7	-80.9	194	16
2023-08-06T00:00	16415	103	-50.7	-80.9	193	15
2023-08-06T00:00	16435	103	-50.4	-81.2	193	15
2023-08-06T00:00	16452	103	-49.9	-80.8	193	15
2023-08-06T00:00	16472	102	-49.6	-80.1	194	15
2023-08-06T00:00	16492	102	-49.7	-80.2	194	15
2023-08-06T00:00	16514	102	-49.8	-79.8	194	15
2023-08-06T00:00	16536	101	-50.0	-80.0	193	15
2023-08-06T00:00	16557	101	-50.2	-80.1	194	15
2023-08-06T00:00	16579	101	-50.4	-80.3	194	15
2023-08-06T00:00	16603	100	-50.6	-80.4	195	14
2023-08-06T00:00	16627	100	-50.8	-80.6	197	14
2023-08-06T00:00	16649	100	-51.0	-80.7	197	14
2023-08-06T00:00	16673	99	-51.3	-80.9	197	14
2023-08-06T00:00	16696	99	-51.5	-80.7	196	13
2023-08-06T00:00	16721	98	-51.7	-80.8	195	13
2023-08-06T00:00	16740	98	-51.9	-81.0	195	13
2023-08-06T00:00	16760	98	-52.1	-81.1	197	12
2023-08-06T00:00	16784	97	-52.4	-81.4	199	12
2023-08-06T00:00	16804	97	-52.5	-81.4	202	12
2023-08-06T00:00	16827	97	-52.8	-81.7	204	11
2023-08-06T00:00	16847	97	-52.8	-82.1	206	11
2023-08-06T00:00	16867	96	-52.7	-82.0	207	11
2023-08-06T00:00	16885	96	-52.8	-82.1	206	11
2023-08-06T00:00	16911	96	-52.8	-82.1	204	11
2023-08-06T00:00	16930	95	-52.7	-82.0	201	10
2023-08-06T00:00	16949	95	-52.6	-81.9	198	10
2023-08-06T00:00	16970	95	-52.2	-81.6	194	11
2023-08-06T00:00	16989	94	-52.4	-81.8	192	11
2023-08-06T00:00	17013	94	-52.6	-81.9	190	11
2023-08-06T00:00	17034	94	-52.6	-81.5	188	11
2023-08-06T00:00	17060	93	-52.7	-81.6	187	12
2023-08-06T00:00	17081	93	-52.8	-81.7	187	12
2023-08-06T00:00	17105	93	-52.9	-81.7	187	13
2023-08-06T00:00	17129	92	-53.1	-81.9	187	13
2023-08-06T00:00	17148	92	-53.2	-82.0	187	14
2023-08-06T00:00	17167	92	-53.3	-82.0	188	14
2023-08-06T00:00	17185	92	-53.5	-81.8	189	14
2023-08-06T00:00	17207	91	-53.6	-81.9	191	14
2023-08-06T00:00	17225	91	-53.8	-82.0	192	14
2023-08-06T00:00	17245	91	-53.9	-82.1	193	15
2023-08-06T00:00	17264	91	-54.0	-82.2	194	15
2023-08-06T00:00	17281	90	-54.0	-82.6	195	15
2023-08-06T00:00	17298	90	-53.6	-82.3	195	15
2023-08-06T00:00	17316	90	-53.4	-82.1	195	15
2023-08-06T00:00	17337	89	-53.5	-82.6	195	15
2023-08-06T00:00	17360	89	-53.2	-82.4	196	15
2023-08-06T00:00	17377	89	-53.0	-82.2	197	15
2023-08-06T00:00	17397	89	-53.2	-82.4	198	15
2023-08-06T00:00	17417	88	-53.4	-82.5	200	16
2023-08-06T00:00	17441	88	-53.4	-82.5	201	16
2023-08-06T00:00	17461	88	-53.4	-82.5	202	16
2023-08-06T00:00	17482	88	-53.4	-82.5	203	16
2023-08-06T00:00	17501	87	-53.1	-82.3	204	15
2023-08-06T00:00	17520	87	-53.0	-82.2	205	15
2023-08-06T00:00	17540	87	-53.1	-82.3	206	15
2023-08-06T00:00	17561	86	-53.1	-82.3	208	15
2023-08-06T00:00	17583	86	-53.0	-82.2	209	14
2023-08-06T00:00	17600	86	-53.0	-82.2	211	14
2023-08-06T00:00	17622	86	-53.0	-82.2	212	14
2023-08-06T00:00	17642	85	-52.9	-82.1	214	14
2023-08-06T00:00	17664	85	-52.9	-82.1	215	14
2023-08-06T00:00	17681	85	-53.0	-82.2	217	14
2023-08-06T00:00	17701	85	-53.0	-82.2	218	14
2023-08-06T00:00	17724	84	-53.1	-82.3	219	14
2023-08-06T00:00	17744	84	-53.1	-82.3	220	14
2023-08-06T00:00	17762	84	-53.2	-82.4	221	13
2023-08-06T00:00	17785	83	-53.3	-82.5	221	13
2023-08-06T00:00	17804	83	-53.2	-82.4	220	12
2023-08-06T00:00	17827	83	-53.3	-82.5	219	12
2023-08-06T00:00	17851	83	-53.3	-82.5	217	11
2023-08-06T00:00	17872	82	-53.3	-82.0	215	11
2023-08-06T00:00	17892	82	-53.4	-82.1	213	10
2023-08-06T00:00	17912	82	-53.4	-82.1	211	10
2023-08-06T00:00	17934	82	-53.1	-81.9	211	10
2023-08-06T00:00	17952	81	-52.8	-82.1	212	10
2023-08-06T00:00	17974	81	-52.7	-82.4	213	10
2023-08-06T00:00	17992	81	-52.3	-82.1	213	10
2023-08-06T00:00	18016	81	-52.0	-82.4	214	10
2023-08-06T00:00	18033	80	-52.1	-82.5	213	10
2023-08-06T00:00	18057	80	-52.0	-82.4	211	10
2023-08-06T00:00	18081	80	-51.5	-82.0	210	10
2023-08-06T00:00	18099	80	-51.6	-82.1	208	11
2023-08-06T00:00	18118	79	-51.7	-81.7	208	11
2023-08-06T00:00	18141	79	-51.9	-81.8	209	11
2023-08-06T00:00	18163	79	-52.0	-81.9	210	12
2023-08-06T00:00	18185	78	-52.1	-82.0	211	12
2023-08-06T00:00	18205	78	-52.3	-82.1	213	13
2023-08-06T00:00	18229	78	-52.4	-82.2	214	13
2023-08-06T00:00	18248	78	-52.5	-82.3	216	13
2023-08-06T00:00	18271	77	-52.5	-82.3	217	14
2023-08-06T00:00	18294	77	-52.6	-82.4	218	14
2023-08-06T00:00	18313	77	-52.7	-82.4	219	14
2023-08-06T00:00	18338	77	-52.9	-82.6	219	13
2023-08-06T00:00	18360	76	-53.0	-82.2	219	13
2023-08-06T00:00	18378	76	-53.1	-82.3	219	13
2023-08-06T00:00	18397	76	-53.0	-82.2	219	12
2023-08-06T00:00	18421	76	-52.7	-82.0	218	12
2023-08-06T00:00	18441	75	-52.9	-82.1	216	11
2023-08-06T00:00	18465	75	-53.0	-82.2	214	10
2023-08-06T00:00	18487	75	-53.2	-82.4	210	10
2023-08-06T00:00	18510	75	-53.3	-82.5	207	9
2023-08-06T00:00	18531	74	-52.9	-82.1	204	8
2023-08-06T00:00	18553	74	-53.0	-82.2	203	8
2023-08-06T00:00	18573	74	-53.0	-82.7	203	8
2023-08-06T00:00	18592	74	-53.1	-82.7	205	8
2023-08-06T00:00	18614	73	-52.5	-82.3	208	8
2023-08-06T00:00	18635	73	-52.3	-82.6	211	8
2023-08-06T00:00	18655	73	-51.8	-82.2	214	9
2023-08-06T00:00	18677	73	-51.9	-82.3	217	9
2023-08-06T00:00	18697	72	-51.9	-82.3	220	8
2023-08-06T00:00	18715	72	-51.9	-82.3	223	8
2023-08-06T00:00	18737	72	-51.9	-82.3	226	8
2023-08-06T00:00	18763	72	-52.0	-82.4	228	8
2023-08-06T00:00	18783	72	-51.9	-82.3	228	7
2023-08-06T00:00	18805	71	-51.9	-82.3	228	7
2023-08-06T00:00	18829	71	-51.9	-82.3	226	6
2023-08-06T00:00	18851	71	-51.9	-82.3	224	6
2023-08-06T00:00	18873	71	-51.6	-82.1	220	6
2023-08-06T00:00	18895	70	-51.4	-81.9	216	5
2023-08-06T00:00	18916	70	-51.3	-81.9	210	5
2023-08-06T00:00	18940	70	-51.3	-81.9	205	5
2023-08-06T00:00	18964	70	-51.4	-81.9	200	6
2023-08-06T00:00	18985	69	-51.5	-82.0	198	6
2023-08-06T00:00	19010	69	-51.6	-82.1	197	6
2023-08-06T00:00	19028	69	-51.7	-81.7	197	7
2023-08-06T00:00	19049	69	-51.8	-81.8	198	7
2023-08-06T00:00	19072	68	-51.7	-81.7	199	7
2023-08-06T00:00	19096	68	-51.9	-81.8	201	7
2023-08-06T00:00	19121	68	-51.8	-81.8	203	7
2023-08-06T00:00	19146	68	-52.0	-81.9	204	7
2023-08-06T00:00	19162	67	-52.1	-82.0	203	7
2023-08-06T00:00	19184	67	-52.1	-82.0	201	7
2023-08-06T00:00	19204	67	-51.9	-81.8	196	6
2023-08-06T00:00	19226	67	-51.9	-82.3	190	6
2023-08-06T00:00	19249	67	-51.8	-82.2	183	6
2023-08-06T00:00	19271	66	-51.7	-82.2	178	6
2023-08-06T00:00	19294	66	-51.7	-82.2	176	6
2023-08-06T00:00	19314	66	-51.8	-82.2	176	6
2023-08-06T00:00	19337	66	-51.8	-82.2	178	6
2023-08-06T00:00	19361	65	-51.9	-82.3	180	6
2023-08-06T00:00	19380	65	-52.0	-82.4	182	6
2023-08-06T00:00	19401	65	-52.0	-82.4	184	7
2023-08-06T00:00	19428	65	-51.6	-82.1	188	7
2023-08-06T00:00	19450	65	-51.6	-82.1	193	7
2023-08-06T00:00	19471	64	-51.6	-82.1	199	7
2023-08-06T00:00	19493	64	-51.6	-82.1	204	7
2023-08-06T00:00	19515	64	-51.7	-82.2	208	6
2023-08-06T00:00	19538	64	-51.8	-81.8	208	6
2023-08-06T00:00	19561	63	-51.9	-81.8	205	6
2023-08-06T00:00	19582	63	-51.9	-81.8	199	6
2023-08-06T00:00	19604	63	-51.8	-81.8	192	7
2023-08-06T00:00	19626	63	-51.7	-82.2	184	7
2023-08-06T00:00	19650	63	-51.5	-82.0	177	7
2023-08-06T00:00	19669	62	-51.4	-81.9	172	7
2023-08-06T00:00	19689	62	-51.2	-81.8	168	7
2023-08-06T00:00	19711	62	-51.1	-82.2	165	7
2023-08-06T00:00	19734	62	-51.0	-82.2	163	7
2023-08-06T00:00	19759	62	-50.9	-82.1	161	6
2023-08-06T00:00	19779	61	-51.1	-81.7	160	7
2023-08-06T00:00	19802	61	-51.2	-81.8	159	7
2023-08-06T00:00	19826	61	-51.3	-81.9	159	8
2023-08-06T00:00	19846	61	-51.3	-81.9	160	8
2023-08-06T00:00	19870	60	-51.4	-81.9	161	9
2023-08-06T00:00	19891	60	-51.4	-81.9	162	10
2023-08-06T00:00	19916	60	-51.0	-81.6	164	10
2023-08-06T00:00	19939	60	-51.1	-81.7	166	10
2023-08-06T00:00	19960	60	-51.2	-81.8	169	10
2023-08-06T00:00	19981	59	-51.3	-81.9	171	10
2023-08-06T00:00	20009	59	-51.4	-81.9	173	10
2023-08-06T00:00	20029	59	-51.5	-82.0	175	10
2023-08-06T00:00	20056	59	-51.7	-81.7	177	10
2023-08-06T00:00	20079	59	-51.9	-81.8	179	10
2023-08-06T00:00	20106	58	-52.1	-82.0	182	10
2023-08-06T00:00	20133	58	-52.3	-82.1	184	10
2023-08-06T00:00	20156	58	-52.5	-82.3	187	10
2023-08-06T00:00	20174	58	-52.7	-82.4	187	9
2023-08-06T00:00	20200	57	-52.6	-82.8	187	9
2023-08-06T00:00	20225	57	-52.1	-82.5	184	9
2023-08-06T00:00	20255	57	-52.0	-82.4	180	8
2023-08-06T00:00	20278	57	-51.7	-82.2	177	8
2023-08-06T00:00	20299	57	-51.8	-82.2	173	8
2023-08-06T00:00	20325	56	-52.0	-82.4	170	7
2023-08-06T00:00	20349	56	-52.0	-82.4	167	7
2023-08-06T00:00	20372	56	-52.2	-82.1	165	6
2023-08-06T00:00	20399	56	-52.2	-82.1	164	6
2023-08-06T00:00	20425	56	-52.4	-82.2	165	5
2023-08-06T00:00	20447	55	-52.5	-82.3	167	5
2023-08-06T00:00	20471	55	-52.6	-82.4	170	4
2023-08-06T00:00	20494	55	-52.5	-82.3	175	4
2023-08-06T00:00	20518	55	-51.9	-81.8	180	4
2023-08-06T00:00	20543	55	-52.1	-82.0	184	4
2023-08-06T00:00	20567	54	-52.2	-82.1	188	4
2023-08-06T00:00	20589	54	-52.4	-82.2	192	5
2023-08-06T00:00	20616	54	-52.6	-81.9	195	5
2023-08-06T00:00	20637	54	-52.8	-82.1	199	5
2023-08-06T00:00	20661	54	-53.0	-82.2	202	6
2023-08-06T00:00	20681	53	-53.1	-82.3	205	6
2023-08-06T00:00	20708	53	-53.2	-82.4	207	7
2023-08-06T00:00	20730	53	-53.4	-83.0	209	7
2023-08-06T00:00	20750	53	-53.5	-83.0	210	8
2023-08-06T00:00	20775	53	-53.5	-82.6	211	8
2023-08-06T00:00	20794	52	-53.7	-82.8	211	8
2023-08-06T00:00	20819	52	-53.8	-82.8	211	8
2023-08-06T00:00	20837	52	-53.9	-82.9	211	7
2023-08-06T00:00	20859	52	-54.0	-83.0	210	7
2023-08-06T00:00	20884	52	-52.9	-82.6	209	6
2023-08-06T00:00	20904	52	-52.7	-82.4	210	5
2023-08-06T00:00	20922	51	-52.6	-82.8	212	5
2023-08-06T00:00	20942	51	-52.7	-82.9	212	4
2023-08-06T00:00	20965	51	-52.6	-82.8	209	3
2023-08-06T00:00	20986	51	-52.4	-82.7	196	3
2023-08-06T00:00	21009	51	-52.4	-82.7	172	2
2023-08-06T00:00	21026	51	-52.3	-82.6	150	3
2023-08-06T00:00	21050	50	-52.1	-83.0	141	3
2023-08-06T00:00	21070	50	-51.9	-82.8	140	4
2023-08-06T00:00	21094	50	-51.7	-82.7	143	5
2023-08-06T00:00	21116	50	-51.5	-82.5	146	6
2023-08-06T00:00	21141	50	-51.5	-82.0	150	6
2023-08-06T00:00	21167	50	-51.6	-82.1	154	7
2023-08-06T00:00	21190	49	-51.6	-82.1	157	7
2023-08-06T00:00	21206	49	-51.7	-82.2	160	7
2023-08-06T00:00	21232	49	-51.6	-82.1	163	8
2023-08-06T00:00	21255	49	-51.7	-81.7	165	8
2023-08-06T00:00	21280	49	-51.9	-81.8	168	8
2023-08-06T00:00	21296	48	-52.1	-82.0	171	8
2023-08-06T00:00	21322	48	-52.2	-82.1	174	8
2023-08-06T00:00	21349	48	-52.4	-82.2	178	8
2023-08-06T00:00	21369	48	-52.5	-82.3	182	8
2023-08-06T00:00	21395	48	-52.6	-82.4	187	8
2023-08-06T00:00	21415	48	-52.7	-82.4	191	8
2023-08-06T00:00	21439	47	-52.7	-82.9	194	8
2023-08-06T00:00	21466	47	-52.8	-83.0	196	7
2023-08-06T00:00	21484	47	-52.7	-82.9	195	6
2023-08-06T00:00	21511	47	-52.2	-82.5	192	6
2023-08-06T00:00	21532	47	-51.9	-82.3	187	5
2023-08-06T00:00	21558	47	-51.9	-82.3	181	5
2023-08-06T00:00	21579	46	-51.9	-82.3	175	5
2023-08-06T00:00	21598	46	-52.0	-82.4	172	5
2023-08-06T00:00	21626	46	-52.0	-82.4	172	4
2023-08-06T00:00	21651	46	-51.8	-82.2	175	4
2023-08-06T00:00	21672	46	-52.0	-82.4	181	4
2023-08-06T00:00	21700	46	-52.0	-82.9	189	4
2023-08-06T00:00	21720	45	-51.3	-82.4	198	4
2023-08-06T00:00	21742	45	-51.2	-82.3	207	4
2023-08-06T00:00	21770	45	-51.2	-82.3	216	4
2023-08-06T00:00	21789	45	-51.3	-82.4	225	4
2023-08-06T00:00	21818	45	-51.4	-82.5	233	4
2023-08-06T00:00	21837	45	-51.5	-82.5	241	5
2023-08-06T00:00	21860	44	-51.5	-82.0	249	5
2023-08-06T00:00	21894	44	-51.6	-82.1	256	5
2023-08-06T00:00	21911	44	-51.6	-82.1	264	5
2023-08-06T00:00	21936	44	-51.7	-82.2	272	5
2023-08-06T00:00	21960	44	-51.8	-82.2	279	5
2023-08-06T00:00	21984	44	-51.8	-82.2	287	5
2023-08-06T00:00	22006	43	-51.6	-82.1	295	4
2023-08-06T00:00	22032	43	-51.4	-82.5	303	4
2023-08-06T00:00	22059	43	-51.2	-82.3	314	3
2023-08-06T00:00	22083	43	-51.2	-82.3	329	2
2023-08-06T00:00	22106	43	-51.3	-82.4	352	2
2023-08-06T00:00	22127	43	-51.3	-82.4	21	2
2023-08-06T00:00	22152	43	-51.4	-82.5	47	2
2023-08-06T00:00	22177	42	-51.5	-82.0	64	2
2023-08-06T00:00	22197	42	-51.5	-82.0	78	3
2023-08-06T00:00	22225	42	-51.6	-82.1	88	4
2023-08-06T00:00	22249	42	-51.7	-82.2	96	4
2023-08-06T00:00	22272	42	-51.8	-82.2	102	5
2023-08-06T00:00	22296	42	-51.9	-82.3	107	5
2023-08-06T00:00	22324	41	-52.1	-82.5	111	5
2023-08-06T00:00	22344	41	-52.2	-82.5	114	5
2023-08-06T00:00	22369	41	-52.3	-82.6	115	4
2023-08-06T00:00	22392	41	-51.8	-82.8	115	3
2023-08-06T00:00	22417	41	-51.5	-82.5	110	2
2023-08-06T00:00	22442	41	-51.3	-82.4	101	2
2023-08-06T00:00	22461	41	-51.2	-82.3	89	1
2023-08-06T00:00	22487	40	-51.1	-82.2	81	1
2023-08-06T00:00	22506	40	-51.1	-82.2	81	1
2023-08-06T00:00	22530	40	-51.0	-82.2	86	1
2023-08-06T00:00	22551	40	-50.7		93	2
2023-08-06T00:00	22576	40	-50.8	-82.0	101	2
2023-08-06T00:00	22597	40	-50.9	-82.1	108	2
2023-08-06T00:00	22623	40	-51.0	-82.2	115	3
2023-08-06T00:00	22644	39	-51.1	-82.2	122	3
2023-08-06T00:00	22675	39	-51.2	-82.3	127	3
2023-08-06T00:00	22695	39	-51.2	-82.3	130	3
2023-08-06T00:00	22715	39	-51.2	-82.3	132	4
2023-08-06T00:00	22741	39	-51.2	-82.3	132	4
2023-08-06T00:00	22761	39	-51.1	-82.2	132	5
2023-08-06T00:00	22787	39	-51.1	-82.2	131	5
2023-08-06T00:00	22816	38	-51.1	-82.2	132	5
2023-08-06T00:00	22834	38	-50.6	-81.9	133	6
2023-08-06T00:00	22864	38	-50.5		134	5
2023-08-06T00:00	22885	38	-50.4	-82.3	134	5
2023-08-06T00:00	22914	38	-50.2	-82.1	132	5
2023-08-06T00:00	22931	38	-50.0	-82.0	126	4
2023-08-06T00:00	22959	38	-49.8	-81.8	117	4
2023-08-06T00:00	22988	37	-49.7	-81.8	106	3
2023-08-06T00:00	23008	37	-49.7	-81.8	96	3
2023-08-06T00:00	23031	37	-49.8	-81.3	86	3
2023-08-06T00:00	23051	37	-50.0	-81.4	77	3
2023-08-06T00:00	23074	37	-50.1	-81.5	68	3
2023-08-06T00:00	23095	37	-50.3	-81.6	59	4
2023-08-06T00:00	23114	37	-50.3	-81.6	51	4
2023-08-06T00:00	23139	37	-50.4	-81.7	44	4
2023-08-06T00:00	23163	36	-50.4	-81.7	38	4
2023-08-06T00:00	23182	36	-50.4	-81.7	35	5
2023-08-06T00:00	23199	36	-50.3	-81.6	35	5
2023-08-06T00:00	23218	36	-50.3	-81.6	39	5
2023-08-06T00:00	23241	36	-50.4	-81.7	44	6
2023-08-06T00:00	23270	36	-49.9	-80.8	49	7
2023-08-06T00:00	23300	36	-50.0	-80.4	53	7
2023-08-06T00:00	23324	36	-50.0	-80.0	58	7
2023-08-06T00:00	23353	35	-50.2	-79.7	62	7
2023-08-06T00:00	23377	35	-50.5	-79.9	67	8
2023-08-06T00:00	23404	35	-50.6	-80.0	71	8
2023-08-06T00:00	23429	35	-50.9	-80.2	74	9
2023-08-06T00:00	23456	35	-51.1	-80.8	77	9
2023-08-06T00:00	23483	35	-51.3	-81.4	79	10
2023-08-06T00:00	23505	35	-51.4	-81.5	81	10
2023-08-06T00:00	23528	34	-51.5	-82.0	84	10
2023-08-06T00:00	23553	34	-51.6	-82.1	88	10
2023-08-06T00:00	23579	34	-51.5	-82.0	91	11
2023-08-06T00:00	23601	34	-51.2	-82.3	93	11
2023-08-06T00:00	23623	34	-51.1	-82.2	95	11
2023-08-06T00:00	23649	34	-50.7		95	11
2023-08-06T00:00	23677	34	-50.6	-81.9	95	12
2023-08-06T00:00	23698	34	-50.7		96	12
2023-08-06T00:00	23723	33	-50.7		98	12
2023-08-06T00:00	23742	33	-50.7		100	12
2023-08-06T00:00	23770	33	-50.9	-82.1	104	12
2023-08-06T00:00	23798	33	-51.0	-82.2	108	12
2023-08-06T00:00	23819	33	-51.1	-82.2	111	12
2023-08-06T00:00	23845	33	-51.3	-82.4	115	12
2023-08-06T00:00	23861	33	-51.3	-82.4	118	13
2023-08-06T00:00	23888	33	-51.4	-82.5	121	13
2023-08-06T00:00	23914	32	-51.4	-82.5	124	13
2023-08-06T00:00	23931	32	-51.4	-81.9	125	12
2023-08-06T00:00	23952	32	-51.6	-82.1	127	12
2023-08-06T00:00	23975	32	-51.7	-82.2	127	11
2023-08-06T00:00	24004	32	-51.7	-82.2	126	11
2023-08-06T00:00	24021	32	-51.6	-82.1	125	10
2023-08-06T00:00	24042	32	-51.6	-82.1	122	9
2023-08-06T00:00	24066	32	-51.5	-82.0	119	8
2023-08-06T00:00	24094	32	-51.4	-81.9	116	7
2023-08-06T00:00	24117	31	-51.2	-82.3	112	6
2023-08-06T00:00	24136	31	-51.2	-82.3	107	6
2023-08-06T00:00	24167	31	-51.2	-82.3	100	6
2023-08-06T00:00	24187	31	-51.2	-82.3	94	6
2023-08-06T00:00	24213	31	-51.3	-82.4	88	6
2023-08-06T00:00	24232	31	-51.3	-82.4	86	7
2023-08-06T00:00	24257	31	-51.3	-82.4	86	7
2023-08-06T00:00	24277	31	-51.3	-82.4	89	7
2023-08-06T00:00	24301	31	-51.1	-82.2	93	8
2023-08-06T00:00	24327	30	-51.0	-82.2	98	8
2023-08-06T00:00	24353	30	-51.1	-82.2	102	9
2023-08-06T00:00	24371	30	-51.2	-82.3	106	9
2023-08-06T00:00	24395	30	-51.3	-82.4	110	9
2023-08-06T00:00	24419	30	-51.3	-82.4	114	9
2023-08-06T00:00	24441	30	-51.4	-82.5	118	10
2023-08-06T00:00	24464	30	-51.6	-82.6	121	10
2023-08-06T00:00	24492	30	-51.6	-82.6	124	10
2023-08-06T00:00	24509	30	-51.6	-82.6	126	10
2023-08-06T00:00	24536	29	-51.4	-82.5	127	10
2023-08-06T00:00	24559	29	-51.4	-82.5	126	9
2023-08-06T00:00	24586	29	-51.2	-82.3	126	8
2023-08-06T00:00	24606	29	-51.1	-82.8	125	8
2023-08-06T00:00	24633	29	-51.0	-82.7	124	8
2023-08-06T00:00	24663	29	-50.9	-82.7	125	7
2023-08-06T00:00	24688	29	-50.7	-82.5	128	8
2023-08-06T00:00	24706	29	-50.7	-82.5	130	8
2023-08-06T00:00	24731	29	-50.6	-82.4	134	8
2023-08-06T00:00	24754	29	-50.6	-82.4	137	8
2023-08-06T00:00	24783	28	-50.3	-82.2	140	8
2023-08-06T00:00	24800	28	-50.3	-82.2	143	8
2023-08-06T00:00	24834	28	-50.3	-82.2	145	7
2023-08-06T00:00	24856	28	-50.3	-82.2	147	7
2023-08-06T00:00	24877	28	-50.4	-82.3	147	7
2023-08-06T00:00	24910	28	-50.3	-82.2	146	6
2023-08-06T00:00	24937	28	-50.0	-82.0	144	5
2023-08-06T00:00	24957	28	-49.8	-81.8	141	4
2023-08-06T00:00	24980	28	-49.7	-81.8	136	3
2023-08-06T00:00	25003	27	-49.7	-81.8	127	2
2023-08-06T00:00	25036	27	-49.6	-81.7	110	2
2023-08-06T00:00	25051	27	-49.6	-81.7	86	2
2023-08-06T00:00	25082	27	-49.6	-81.7	67	2
2023-08-06T00:00	25107	27	-49.6	-81.7	58	3
2023-08-06T00:00	25132	27	-49.7	-81.8	57	4
2023-08-06T00:00	25161	27	-49.7	-81.8	61	4
2023-08-06T00:00	25184	27	-49.7	-81.8	66	5
2023-08-06T00:00	25212	27	-49.7	-81.8	72	6
2023-08-06T00:00	25231	27	-49.5	-81.6	78	6
2023-08-06T00:00	25258	26	-49.2	-82.0	82	6
2023-08-06T00:00	25281	26	-49.2	-82.0	86	6
2023-08-06T00:00	25306	26	-49.0	-81.9	88	6
2023-08-06T00:00	25327	26	-48.9	-81.8	89	6
2023-08-06T00:00	25361	26	-49.1	-81.3	89	6
2023-08-06T00:00	25374	26	-49.1	-81.3	88	6
2023-08-06T00:00	25403	26	-49.1	-81.3	86	6
2023-08-06T00:00	25427	26	-48.9	-81.2	84	6
2023-08-06T00:00	25453	26	-48.9	-81.2	82	7
2023-08-06T00:00	25479	26	-49.0	-81.3	81	8
2023-08-06T00:00	25504	25	-49.0	-81.3	80	8
2023-08-06T00:00	25526	25	-49.0	-81.3	80	9
2023-08-06T00:00	25549	25	-48.9	-81.8	81	9
2023-08-06T00:00	25577	25	-48.8	-81.7	83	9
2023-08-06T00:00	25591	25	-48.9	-81.2	85	9
2023-08-06T00:00	25617	25	-49.0	-81.3	88	9
2023-08-06T00:00	25639	25	-49.1	-81.3	92	9
2023-08-06T00:00	25666	25	-49.0	-81.3	97	9
2023-08-06T00:00	25690	25	-49.0	-81.3	101	9
2023-08-06T00:00	25703	25	-49.0	-81.3	106	9
2023-08-06T00:00	25741	25	-49.0	-81.3	111	9
2023-08-06T00:00	25751	24	-49.0	-81.3	115	8
2023-08-06T00:00	25783	24	-49.1	-81.3	117	8
2023-08-06T00:00	25808	24	-49.2	-81.4	118	8
2023-08-06T00:00	25828	24	-49.3	-81.5	117	8
2023-08-06T00:00	25854	24	-49.5	-81.6	114	7
2023-08-06T00:00	25880	24	-49.4	-81.6	109	7
2023-08-06T00:00	25910	24	-49.3	-81.5	103	7
2023-08-06T00:00	25931	24	-49.0	-81.9	97	7
2023-08-06T00:00	25950	24	-48.8	-81.7	90	7
2023-08-06T00:00	25983	24	-48.9	-81.8	86	7
2023-08-06T00:00	26007	24	-49.0	-81.9	80	7
2023-08-06T00:00	26027	23	-49.1	-82.0	76	7
2023-08-06T00:00	26058	23	-49.2	-81.4	73	8
2023-08-06T00:00	26075	23	-49.2	-81.4	72	8
2023-08-06T00:00	26116	23	-49.2	-81.4	71	9
2023-08-06T00:00	26132	23	-49.2	-81.4	72	9
2023-08-06T00:00	26157	23	-49.3	-81.5	73	9
2023-08-06T00:00	26188	23	-49.3	-81.5	74	9
2023-08-06T00:00	26219	23	-49.4	-81.6	77	9
2023-08-06T00:00	26239	23	-49.3	-81.5	81	9
2023-08-06T00:00	26265	23	-49.4	-81.6	85	9
2023-08-06T00:00	26295	23	-49.5	-81.6	90	10
2023-08-06T00:00	26312	22	-49.6	-81.7	94	10
2023-08-06T00:00	26347	22	-49.7	-81.8	98	10
2023-08-06T00:00	26372	22	-49.7	-81.8	102	11
2023-08-06T00:00	26393	22	-49.7	-81.8	105	11
2023-08-06T00:00	26414	22	-49.8	-81.8	108	11
2023-08-06T00:00	26451	22	-49.8	-81.8	109	11
2023-08-06T00:00	26468	22	-49.7	-81.8	109	11
2023-08-06T00:00	26500	22	-49.7	-81.8	108	10
2023-08-06T00:00	26528	22	-49.8	-81.8	106	10
2023-08-06T00:00	26558	22	-49.7	-81.8	103	9
2023-08-06T00:00	26584	22	-49.6	-81.7	100	9
2023-08-06T00:00	26605	21	-49.6	-81.7	97	9
2023-08-06T00:00	26634	21	-49.6	-81.7	93	9
2023-08-06T00:00	26663	21	-49.6	-81.7	91	10
2023-08-06T00:00	26696	21	-49.6	-82.3	89	10
2023-08-06T00:00	26712	21	-49.6	-82.3	88	11
2023-08-06T00:00	26733	21	-49.5	-82.3	88	12
2023-08-06T00:00	26767	21	-49.5	-82.3	88	13
2023-08-06T00:00	26780	21	-49.4	-82.2	89	13
2023-08-06T00:00	26810	21	-49.3	-82.1	90	13
2023-08-06T00:00	26838	21	-49.2	-82.0	91	13
2023-08-06T00:00	26867	21	-49.2	-82.0	93	13
2023-08-06T00:00	26882	21	-49.2	-82.0	95	13
2023-08-06T00:00	26907	21	-49.2	-82.0	98	13
2023-08-06T00:00	26947	20	-49.2	-82.0	101	12
2023-08-06T00:00	26966	20	-49.2	-82.0	104	12
2023-08-06T00:00	26980	20	-49.1	-82.0	107	12
2023-08-06T00:00	27009	20	-49.0	-81.9	110	12
2023-08-06T00:00	27046	20	-49.1	-82.0	113	12
2023-08-06T00:00	27057	20	-49.1	-82.0	116	12
2023-08-06T00:00	27085	20	-49.2	-82.0	118	11
2023-08-06T00:00	27108	20	-49.2	-82.0	120	11
2023-08-06T00:00	27136	20	-49.2	-82.0	121	10
2023-08-06T00:00	27159	20	-49.2	-82.0	120	10
2023-08-06T00:00	27186	20	-49.2	-82.0	117	9
2023-08-06T00:00	27217	20	-49.1	-82.0	113	9
2023-08-06T00:00	27236	20	-49.1	-82.0	107	9
2023-08-06T00:00	27258	19	-49.0	-81.9	102	9
2023-08-06T00:00	27288	19	-49.0	-81.9	97	9
2023-08-06T00:00	27311	19	-48.9	-81.8	93	9
2023-08-06T00:00	27333	19	-49.0	-81.9	90	9
2023-08-06T00:00	27354	19	-48.9	-81.8	88	10
2023-08-06T00:00	27393	19	-48.9	-81.8	87	10
2023-08-06T00:00	27414	19	-48.9	-81.8	86	10
2023-08-06T00:00	27440	19	-48.9	-81.8	86	11
2023-08-06T00:00	27470	19	-48.9	-81.8	87	11
2023-08-06T00:00	27481	19	-48.9	-81.8	89	11
2023-08-06T00:00	27512	19	-48.9	-81.8	91	12
2023-08-06T00:00	27535	19	-48.8	-81.7	94	12
2023-08-06T00:00	27568	19	-48.8	-81.7	97	12
2023-08-06T00:00	27586	19	-48.7	-81.7	101	12
2023-08-06T00:00	27614	18	-48.8	-81.7	104	13
2023-08-06T00:00	27634	18	-48.9	-81.8	108	13
2023-08-06T00:00	27659	18	-48.8	-81.7	111	13
2023-08-06T00:00	27691	18	-48.6	-81.6	114	13
2023-08-06T00:00	27710	18	-48.7	-81.7	115	12
2023-08-06T00:00	27738	18	-48.7	-81.7	116	11
2023-08-06T00:00	27767	18	-48.8	-81.7	117	11
2023-08-06T00:00	27790	18	-48.2	-81.3	117	10
2023-08-06T00:00	27817	18	-48.1	-81.9	116	9
2023-08-06T00:00	27841	18	-47.7	-81.6	116	8
2023-08-06T00:00	27877	18	-47.7	-81.6	116	8
2023-08-06T00:00	27905	18	-47.6	-81.6	116	8
2023-08-06T00:00	27926	18	-47.4	-81.4	116	8
2023-08-06T00:00	27951	18	-47.6	-81.6	118	9
2023-08-06T00:00	27969	17	-47.6	-81.6	121	9
2023-08-06T00:00	28006	17	-47.5	-81.5	124	10
2023-08-06T00:00	28015	17	-47.4	-81.4	127	10
2023-08-06T00:00	28051	17	-47.4	-81.4	130	10
2023-08-06T00:00	28078	17	-47.3	-81.4	133	10
2023-08-06T00:00	28107	17	-47.4	-81.4	136	10
2023-08-06T00:00	28131	17	-47.5	-81.5	139	10
2023-08-06T00:00	28152	17	-47.5	-81.5	142	10
2023-08-06T00:00	28171	17	-47.5	-81.5	146	9
2023-08-06T00:00	28193	17	-47.3	-81.4	150	8
2023-08-06T00:00	28218	17	-46.9	-81.1	153	8
2023-08-06T00:00	28248	17	-46.8	-81.0	155	7
2023-08-06T00:00	28260	17	-46.9	-81.1	157	7
2023-08-06T00:00	28287	17	-47.0	-81.1	156	6
2023-08-06T00:00	28308	17	-46.7	-80.9	153	5
2023-08-06T00:00	28329	17	-46.6	-80.9	148	5
2023-08-06T00:00	28350	16	-46.4	-80.7	140	4
2023-08-06T00:00	28383	16	-46.3	-80.6	130	4
2023-08-06T00:00	28405	16	-46.3	-80.6	120	4
2023-08-06T00:00	28417	16	-46.4	-80.7	109	4
2023-08-06T00:00	28450	16	-46.4	-80.7	98	4
2023-08-06T00:00	28473	16	-46.4	-80.7	89	4
2023-08-06T00:00	28493	16	-46.3	-80.6	83	4
2023-08-06T00:00	28514	16	-46.4	-80.7	79	4
2023-08-06T00:00	28535	16	-46.4	-80.7	78	4
2023-08-06T00:00	28562	16	-46.6	-80.9	77	4
2023-08-06T00:00	28586	16	-46.7	-80.9	78	4
2023-08-06T00:00	28620	16	-46.8	-81.0	79	4
2023-08-06T00:00	28631	16	-46.8	-81.0	79	4
2023-08-06T00:00	28675	16	-46.6	-80.9	79	4
2023-08-06T00:00	28700	16	-46.5	-80.8	76	5
2023-08-06T00:00	28737	16	-46.5	-80.8	75	5
2023-08-06T00:00	28760	16	-46.4	-80.7	76	6
2023-08-06T00:00	28794	15	-46.4	-80.7	78	6
2023-08-06T00:00	28801	15	-46.3	-80.6	82	6
2023-08-06T00:00	28830	15	-46.2	-80.6	87	5
2023-08-06T00:00	28868	15	-46.3	-80.6	93	5
2023-08-06T00:00	28889	15	-46.5	-80.8	101	5
2023-08-06T00:00	28911	15	-46.4	-80.7	108	5
2023-08-06T00:00	28947	15	-46.3	-80.6	114	5
2023-08-06T00:00	28972	15	-46.3	-80.6	116	6
2023-08-06T00:00	28990	15	-46.3	-80.6	115	6
2023-08-06T00:00	29012	15	-46.2	-80.6	113	7
2023-08-06T00:00	29048	15	-46.3	-80.6	110	7
2023-08-06T00:00	29067	15	-46.1	-80.5	108	7
2023-08-06T00:00	29105	15	-45.9	-80.3	107	7
2023-08-06T00:00	29136	15	-45.8	-80.3	107	7
2023-08-06T00:00	29161	15	-45.7	-80.2	108	7
2023-08-06T00:00	29194	15	-45.8	-80.3	108	7
2023-08-06T00:00	29209	14	-45.9	-80.3	108	7
2023-08-06T00:00	29250	14	-45.8	-80.3	109	7
2023-08-06T00:00	29282	14	-45.7	-80.2	110	7
2023-08-06T00:00	29305	14	-45.7	-80.2	111	7
2023-08-06T00:00	29327	14	-45.7	-80.2	112	7
2023-08-06T00:00	29355	14	-45.8	-80.3	114	6
2023-08-06T00:00	29405	14	-45.9	-80.3	115	6
2023-08-06T00:00	29414	14	-45.8	-80.3	115	6
2023-08-06T00:00	29433	14	-45.8	-81.1	114	5
2023-08-06T00:00	29464	14	-45.6	-80.9	112	5
2023-08-06T00:00	29491	14	-45.3	-80.7	108	5
2023-08-06T00:00	29531	14	-45.2	-80.7	105	4
2023-08-06T00:00	29556	14	-45.0	-80.5	103	4
2023-08-06T00:00	29584	14	-44.6	-80.2	102	4
2023-08-06T00:00	29613	14	-44.3	-80.0	103	4
2023-08-06T00:00	29624	14	-44.2	-79.9	106	4
2023-08-06T00:00	29651	14	-44.0	-79.8	107	3
2023-08-06T00:00	29688	14	-43.9	-79.7	106	3
2023-08-06T00:00	29705	13	-43.8	-79.6	99	3
2023-08-06T00:00	29731	13	-43.7	-80.5	90	4
2023-08-06T00:00	29751	13	-43.4	-80.3	81	4
2023-08-06T00:00	29794	13	-43.1	-80.1	75	5
2023-08-06T00:00	29812	13	-42.8	-79.9	70	6
2023-08-06T00:00	29837	13	-42.6	-79.7	68	7
2023-08-06T00:00	29870	13	-42.4	-79.6	66	8
2023-08-06T00:00	29885	13	-42.4	-79.6	65	9
2023-08-06T00:00	29907	13	-42.4	-79.6	64	10
2023-08-06T00:00	29938	13	-42.4	-79.6	63	11
2023-08-06T00:00	29966	13	-42.4	-79.6	62	11
2023-08-06T00:00	29980	13	-42.4	-79.6	61	11
2023-08-06T00:00	30003	13	-42.3	-79.5	61	11
2023-08-06T00:00	30034	13	-42.1	-79.4	61	10
2023-08-06T00:00	30058	13	-41.8	-79.2	61	9
2023-08-06T00:00	30078	13	-41.7	-79.1	61	9
2023-08-06T00:00	30112	13	-41.8	-79.2	62	8
2023-08-06T00:00	30132	13	-41.8	-79.2	62	7
2023-08-06T00:00	30156	13	-41.9	-79.2	64	7
2023-08-06T00:00	30174	13	-41.8	-79.2	66	6
2023-08-06T00:00	30211	13	-41.6	-79.0	71	6
2023-08-06T00:00	30217	12	-41.6	-79.0	75	7
2023-08-06T00:00	30242	12	-41.6	-79.0	78	7
2023-08-06T00:00	30279	12	-41.5	-79.0	81	8
2023-08-06T00:00	30305	12	-41.6	-79.0	82	8
2023-08-06T00:00	30318	12	-41.5	-79.0	82	9
2023-08-06T00:00	30347	12	-41.2	-78.8	82	9
2023-08-06T00:00	30372	12	-41.1	-78.7	82	9
2023-08-06T00:00	30397	12	-41.0	-78.6	83	8
2023-08-06T00:00	30424	12	-41.1	-78.7	83	8
2023-08-06T00:00	30438	12	-41.2	-78.8	82	9
2023-08-06T00:00	30466	12	-41.2	-78.8	82	9
2023-08-06T00:00	30498	12	-41.1	-78.7	81	9
2023-08-06T00:00	30523	12	-41.1	-78.7	81	10
2023-08-06T00:00	30547	12	-41.1	-78.7	80	10
2023-08-06T00:00	30581	12	-41.1	-78.7	79	10
2023-08-06T00:00	30596	12	-41.0	-78.6	78	11
2023-08-06T00:00	30625	12	-41.1	-78.7	78	11
2023-08-06T00:00	30645	12	-41.1	-78.7	77	12
2023-08-06T00:00	30664	12	-40.9		76	12
2023-08-06T00:00	30707	12	-41.0	-78.6	75	12
2023-08-06T00:00	30721	12	-41.1	-78.7	74	12
2023-08-06T00:00	30747	12	-41.2	-78.8	73	12
2023-08-06T00:00	30785	11	-41.2	-78.8	72	11
2023-08-06T00:00	30821	11	-41.1	-78.7	71	11
2023-08-06T00:00	30852	11	-41.0	-78.6	71	10
2023-08-06T00:00	30870	11	-41.0	-78.6	71	9
2023-08-06T00:00	30886	11	-41.0	-78.6	72	9
2023-08-06T00:00	30922	11	-40.8	-78.5	73	8
2023-08-06T00:00	30936	11	-40.8	-78.5	76	7
2023-08-06T00:00	30977	11	-40.7	-78.4	78	7
2023-08-06T00:00	31009	11	-40.5	-78.3	81	6
2023-08-06T00:00	31012	11	-40.6	-78.3	83	6
2023-08-06T00:00	31048	11	-40.5	-78.3	85	5
2023-08-06T00:00	31094	11	-40.4	-78.2	87	5
2023-08-06T00:00	31104	11	-40.3	-78.1	88	6
2023-08-06T00:00	31120	11	-40.3	-78.1	89	6
2023-08-06T00:00	31151	11	-40.3	-78.1	90	7
2023-08-06T00:00	31181	11	-40.3	-78.1	91	7
2023-08-06T00:00	31202	11	-40.4	-78.2	91	8
2023-08-06T00:00	31213	11	-40.3	-78.1	92	9
2023-08-06T00:00	31246	11	-40.3	-78.1	93	10
2023-08-06T00:00	31289	11	-40.4	-78.2	93	11
2023-08-06T00:00	31308	11	-40.1	-78.0	93	12
2023-08-06T00:00	31346	11	-40.2	-78.0	93	12
2023-08-06T00:00	31360	11	-40.2	-78.0	94	12
2023-08-06T00:00	31390	11	-40.0	-77.9	94	12
2023-08-06T00:00	31392	11	-39.8	-78.9	95	13
2023-08-06T00:00	31418	10	-39.9	-79.0	95	13
2023-08-06T00:00	31437	10	-39.7	-78.8	94	13
2023-08-06T00:00	31468	10	-39.7	-78.8	93	13
2023-08-06T00:00	31497	10	-39.4	-78.6	92	12
2023-08-06T00:00	31525	10	-39.4	-78.6	92	11
2023-08-06T00:00	31551	10	-39.5	-78.7	91	11
2023-08-06T00:00	31564	10	-39.5	-78.7	91	10
2023-08-06T00:00	31599	10	-39.3	-78.5	89	10
2023-08-06T00:00	31628	10	-39.2	-78.5	87	10
2023-08-06T00:00	31644	10	-39.1	-78.4	83	9
2023-08-06T00:00	31671	10	-38.8	-78.2	79	9
2023-08-06T00:00	31693	10	-38.6	-78.1	75	10
2023-08-06T00:00	31725	10	-38.4	-77.9	68	10
2023-08-06T00:00	31753	10	-38.1	-77.7	66	11
2023-08-06T00:00	31776	10	-38.0	-77.6	64	11
2023-08-06T00:00	31797	10	-38.0	-77.6	64	12
2023-08-06T00:00	31825	10	-38.0	-77.6	63	12
2023-08-06T00:00	31826	10	-38.0	-77.6	64	12
2023-08-06T00:00	31851	10	-37.9	-77.6	64	12
2023-08-06T00:00	31876	10	-37.9	-77.6	65	12
2023-08-06T00:00	31914	10	-37.8	-77.5	65	12
2023-08-06T00:00	31936	10	-37.7	-77.4	65	12
2023-08-06T00:00	31946	10	-37.7	-77.4	65	12
2023-08-06T00:00	31973	10	-37.8	-77.5	64	13
2023-08-06T00:00	32004	10	-37.8	-77.5	64	13
2023-08-06T00:00	32024	10	-38.0	-77.6	63	13
2023-08-06T00:00	32054	10	-38.2	-77.8	63	12
2023-08-06T00:00	32084	10	-38.3	-77.9	64	12
2023-08-06T00:00	32099	9	-38.5	-78.0	64	12
2023-08-06T00:00	32113	9	-38.8	-78.2	64	12
2023-08-06T00:00	32157	9	-38.8	-78.2	64	11
2023-08-06T00:00	32159	9	-38.8	-78.2	63	11
2023-08-06T00:00	32198	9	-38.7	-78.1	62	12
2023-08-06T00:00	32229	9	-38.7	-78.1	62	12
2023-08-06T00:00	32243	9	-38.8	-78.2	62	12
2023-08-06T00:00	32274	9	-38.8	-78.2	63	12
2023-08-06T00:00	32318	9	-38.9	-78.3	64	12
2023-08-06T00:00	32336	9	-39.0	-78.3	65	13
2023-08-06T00:00	32350	9	-39.1	-78.4	67	13
2023-08-06T00:00	32393	9	-39.3	-78.5	69	13
2023-08-06T00:00	32450	9	-39.3	-78.5	71	14
2023-08-06T00:00	32460	9	-39.4	-78.6	76	14
2023-08-06T00:00	32505	9	-39.4	-78.6	80	15
2023-08-06T00:00	32542	9	-39.4	-78.6	83	16
2023-08-06T00:00	32572	9	-39.3	-78.5	86	17
2023-08-06T00:00	32584	9	-39.3	-78.5	88	17
2023-08-06T00:00	32631	9	-39.3	-78.5	91	18
2023-08-06T00:00	32666	9	-39.1	-78.4	93	17
2023-08-06T00:00	32677	9	-39.0	-78.3	96	17
2023-08-06T00:00	32702	9	-39.0	-78.3	99	17
2023-08-06T00:00	32728	9	-38.9	-78.3	102	17
2023-08-06T00:00	32763	9	-38.7	-78.1	104	17
2023-08-06T00:00	32764	9	-38.6	-78.1	104	16
2023-08-06T00:00	32810	9	-38.7	-78.1	103	16
2023-08-06T00:00	32821	9	-38.7	-78.1	99	15
2023-08-06T00:00	32862	8	-38.5	-78.0	96	14
2023-08-06T00:00	32913	8	-38.3	-77.9	90	13
2023-08-06T00:00	32939	8	-38.2	-77.8	88	13
2023-08-06T00:00	32959	8	-38.1	-77.7	86	13
2023-08-06T00:00	32994	8	-38.2	-77.8	83	13
2023-08-06T00:00	33001	8	-38.4	-77.9	82	13
2023-08-06T00:00	33016	8	-38.6	-78.1	80	13
2023-08-06T00:00	33043	8	-38.3	-76.7	80	13
2023-08-06T00:00	33082	8	-38.3	-76.7	80	13
2023-08-06T00:00	33097	8	-38.9	-77.1	81	14
2023-08-06T00:00	33136	8	-38.3	-76.7	82	14
2023-08-06T00:00	33141	8	-38.0	-77.6	83	14
2023-08-06T00:00	33166	8	-38.1	-77.7	83	14
2023-08-06T00:00	33190	8	-38.0	-77.6	83	14
2023-08-06T00:00	33212	8	-37.9	-77.6	81	14
2023-08-06T00:00	33225	8	-37.8	-77.5	78	13
2023-08-06T00:00	33237	8	-37.6	-77.4	75	13
2023-08-06T00:00	33263	8	-37.4	-77.2	71	14
2023-08-06T00:00	33283	8	-37.1	-77.0	67	14
2023-08-06T00:00	33316	8	-37.1	-77.0	65	15
2023-08-06T00:00	33328	8	-37.1	-77.0	63	15
2023-08-06T00:00	33357	8	-37.2	-77.1	61	15
2023-08-06T00:00	33386	8	-37.2	-77.1	61	16
2023-08-06T00:00	33423	8	-37.0	-77.0	63	16
2023-08-06T00:00	33435	8	-36.6	-76.7	64	16
2023-08-06T00:00	33463	8	-36.5	-76.6	67	15
2023-08-06T00:00	33503	8	-36.4	-76.5	68	16
2023-08-06T00:00	33524	8	-36.3	-76.5	69	16
2023-08-06T00:00	33532	8	-36.3	-76.5	68	16
2023-08-06T00:00	33570	8	-36.1	-76.3	67	16
2023-08-06T00:00	33598	8	-35.7	-76.1	66	17
2023-08-06T00:00	33629	8	-35.4	-75.8	65	17
2023-08-06T00:00	33681	8	-35.0	-75.6	64	17
2023-08-06T00:00	33688	8	-35.0	-75.6	64	17
2023-08-06T00:00	33726	8	-34.9	-75.5	65	17
2023-08-06T00:00	33777	7	-34.9	-75.5	66	17
2023-08-06T00:00	33794	7	-35.0	-75.6	68	17
2023-08-06T00:00	33825	7	-35.0	-75.6	70	17
2023-08-06T00:00	33831	7	-35.1	-75.6	72	17
2023-08-06T00:00	33845	7	-35.1	-75.6	75	17
2023-08-06T00:00	33872	7	-35.0	-75.6	78	17
2023-08-06T00:00	33921	7	-35.0	-75.6	80	17
2023-08-06T00:00	33934	7	-35.0	-75.6	83	17
2023-08-06T00:00	33949	7	-35.1	-75.6	86	16
2023-08-06T00:00	33965	7	-35.2	-75.7	88	16
2023-08-06T00:00	34018	7	-35.4	-75.8	91	16
2023-08-06T00:00	34039	7	-35.5	-75.9	94	16
2023-08-06T00:00	34056	7	-35.4	-75.8	96	16
2023-08-06T00:00	34067	7	-35.5	-75.9	99	16
2023-08-06T00:00	34075	7	-35.6	-76.0	101	16
2023-08-06T00:00	34103	7	-35.7	-76.1	103	16
2023-08-06T00:00	34118	7	-35.7	-76.1	105	16
2023-08-06T00:00	34159	7	-35.5	-75.9	106	16
2023-08-06T00:00	34191	7	-35.5	-75.9	106	16
2023-08-06T00:00	34223	7	-35.4	-75.8	106	15
2023-08-06T00:00	34231	7	-35.4	-75.8	106	15
2023-08-06T00:00	34244	7	-35.6	-76.0	106	14
2023-08-06T00:00	34267	7	-35.7	-76.1	106	14
2023-08-06T00:00	34301	7	-35.7	-76.1	106	13
2023-08-06T00:00	34335	7	-35.7	-76.1	107	12
2023-08-06T00:00	34374	7	-35.6	-76.0	108	12
2023-08-06T00:00	34382	7	-35.2	-75.7	115	11
2023-08-06T00:00	34441	7	-35.1	-75.6	117	11
2023-08-06T00:00	34472	7	-35.0	-75.6	123	11
2023-08-06T00:00	34501	7	-34.7	-75.4	129	10
2023-08-06T00:00	34521	7	-34.5	-75.2	131	10
2023-08-06T00:00	34563	7	-33.9	-74.8	133	10
2023-08-06T00:00	34578	7	-33.7	-74.7	135	9
2023-08-06T00:00	34583	7	-33.6	-74.6	137	9
2023-08-06T00:00	34591	7	-33.4	-74.5	139	8
2023-08-06T00:00	34619	7	-33.3	-74.4	141	8
2023-08-06T00:00	34661	7	-33.2	-74.3	141	7
2023-08-06T00:00	34680	7	-33.0	-74.2	140	7
2023-08-06T00:00	34685	7	-32.7	-74.0	136	6
2023-08-06T00:00	34703	7	-32.5	-73.8	131	6
2023-08-06T00:00	34726	7	-32.3	-73.7	123	5
2023-08-06T00:00	34792	6	-32.1	-73.6	115	5
2023-08-06T00:00	34818	6	-31.8	-73.4	89	5
2023-08-06T00:00	34854	6	-31.6	-73.2	81	5
2023-08-06T00:00	34885	6	-31.4	-73.1	74	5
2023-08-06T00:00	34905	6	-31.0	-72.8	69	6
2023-08-06T00:00	34924	6	-30.8	-72.7	75	7
2023-08-06T00:00	34942	6	-30.6	-72.5	79	7
2023-08-06T00:00	34954	6	-30.5	-72.5	84	8
2023-08-06T00:00	34962	6	-30.5	-72.5	88	8
2023-08-06T00:00	35021	6	-30.4	-72.4	91	9
2023-08-06T00:00	35042	6	-30.2	-72.3	95	10
2023-08-06T00:00	35068	6	-30.1	-72.2	96	10
2023-08-06T00:00	35077	6	-29.8	-72.0	96	10
2023-08-06T00:00	35128	6	-29.6	-71.9	97	10
2023-08-06T00:00	35132	6	-29.5	-71.8	97	10
2023-08-06T00:00	35154	6	-29.3	-71.7	98	9
2023-08-06T00:00	35169	6	-29.0	-71.4	98	9
2023-08-06T00:00	35185	6	-29.3	-71.7	98	9
2023-08-06T00:00	35222	6	-29.1	-71.5	98	8
2023-08-06T00:00	35227	6	-29.1	-71.5	95	8
2023-08-06T06:00	-999					
2023-08-06T06:00	124	991	14.5	14.5	315	1
2023-08-06T06:00	153	988	14.0	13.9	317	1
2023-08-06T06:00	179	985	13.8	13.4	317	2
2023-08-06T06:00	205	982	13.7	13.4	316	2
2023-08-06T06:00	227	979	13.6	13.3	316	3
2023-08-06T06:00	254	976	13.5	13.4	317	3
2023-08-06T06:00	271	974	13.5	13.5	320	3
2023-08-06T06:00	295	972	13.4	13.4	324	3
2023-08-06T06:00	315	969	13.3	13.3	328	3
2023-08-06T06:00	338	967	13.3	13.1	332	2
2023-08-06T06:00	357	964	13.1	13.1	334	2
2023-08-06T06:00	382	961	13.0	12.9	335	2
2023-08-06T06:00	404	959	12.8	12.7	335	2
2023-08-06T06:00	425	956	12.7	12.5	335	3
2023-08-06T06:00	450	954	12.6	12.3	336	3
2023-08-06T06:00	469	952	12.5	12.2	338	3
2023-08-06T06:00	491	949	12.5	12.0	339	3
2023-08-06T06:00	515	946	12.4	12.1	341	3
2023-08-06T06:00	536	944	12.3	12.1	342	3
2023-08-06T06:00	561	941	12.3	12.1	342	3
2023-08-06T06:00	585	938	12.2	11.9	342	4
2023-08-06T06:00	611	936	12.0	11.9	340	4
2023-08-06T06:00	633	933	12.0	11.7	339	4
2023-08-06T06:00	660	930	11.9	11.6	338	4
2023-08-06T06:00	687	927	11.8	11.3	340	4
2023-08-06T06:00	712	924	11.7	11.2	343	4
2023-08-06T06:00	737	922	11.6	11.2	347	5
2023-08-06T06:00	759	919	11.5	11.0	352	5
2023-08-06T06:00	785	916	11.3	11.0	354	6
2023-08-06T06:00	811	914	11.2	10.9	355	6
2023-08-06T06:00	836	911	11.1	10.7	355	7
2023-08-06T06:00	861	908	10.9	10.4	355	7
2023-08-06T06:00	888	905	10.9	10.0	355	8
2023-08-06T06:00	916	902	10.7	9.8	355	8
2023-08-06T06:00	944	899	10.5	9.1	356	8
2023-08-06T06:00	976	896	10.3	9.0	357	8
2023-08-06T06:00	1001	893	10.0	8.8	357	9
2023-08-06T06:00	1023	891	9.9	8.4	357	8
2023-08-06T06:00	1045	888	9.9	8.6	357	8
2023-08-06T06:00	1068	886	9.7	8.6	358	8
2023-08-06T06:00	1094	883	9.5	8.5	360	8
2023-08-06T06:00	1118	880	9.3	8.2	2	8
2023-08-06T06:00	1144	878	9.1	8.4	6	7
2023-08-06T06:00	1174	875	9.0	9.0	10	7
2023-08-06T06:00	1200	872	9.0	9.0	14	7
2023-08-06T06:00	1227	869	8.9	8.9	17	7
2023-08-06T06:00	1253	866	8.7	8.7	20	7
2023-08-06T06:00	1285	863	8.5	8.5	22	7
2023-08-06T06:00	1313	860	8.3	8.3	23	7
2023-08-06T06:00	1341	857	8.2	8.2	23	7
2023-08-06T06:00	1369	855	8.1	7.8	24	8
2023-08-06T06:00	1391	852	8.0	7.9	24	8
2023-08-06T06:00	1419	849	7.9	7.4	24	8
2023-08-06T06:00	1444	847	7.8	7.4	23	8
2023-08-06T06:00	1467	844	7.7	7.3	23	8
2023-08-06T06:00	1489	842	7.6	7.2	24	7
2023-08-06T06:00	1514	840	7.4	7.2	26	7
2023-08-06T06:00	1539	837	7.2	7.0	27	8
2023-08-06T06:00	1560	835	7.1	6.9	28	8
2023-08-06T06:00	1587	832	6.9	6.6	28	8
2023-08-06T06:00	1610	830	6.8	6.7	27	8
2023-08-06T06:00	1637	827	6.5	6.5	25	8
2023-08-06T06:00	1657	825	6.4	6.3	24	7
2023-08-06T06:00	1679	823	6.2	6.2	25	7
2023-08-06T06:00	1703	820	6.0	6.0	26	7
2023-08-06T06:00	1728	818	5.9	5.8	27	7
2023-08-06T06:00	1750	816	5.8	5.7	27	7
2023-08-06T06:00	1775	813	5.8	5.6	25	7
2023-08-06T06:00	1805	810	5.7	5.2	22	7
2023-08-06T06:00	1833	808	5.8	5.1	18	6
2023-08-06T06:00	1859	805	5.6	5.0	14	6
2023-08-06T06:00	1885	802	5.4	5.0	10	6
2023-08-06T06:00	1906	800	5.2	5.0	8	6
2023-08-06T06:00	1931	798	5.0	4.9	7	6
2023-08-06T06:00	1955	796	4.9	4.8	9	6
2023-08-06T06:00	1977	793	4.7	4.6	10	6
2023-08-06T06:00	2002	791	4.6	3.9	12	6
2023-08-06T06:00	2029	788	4.4	3.7	13	6
2023-08-06T06:00	2057	786	4.2	3.8	12	5
2023-08-06T06:00	2079	783	4.1	3.8	10	5
2023-08-06T06:00	2103	781	3.9	3.9	7	5
2023-08-06T06:00	2127	779	3.8	3.5	4	5
2023-08-06T06:00	2151	777	3.7	3.2	2	5
2023-08-06T06:00	2172	775	3.5	2.9	2	4
2023-08-06T06:00	2195	772	3.4	2.5	2	4
2023-08-06T06:00	2216	770	3.4	1.8	3	4
2023-08-06T06:00	2242	768	3.2	1.6	4	4
2023-08-06T06:00	2264	766	3.0	1.6	5	4
2023-08-06T06:00	2289	764	2.8	1.6	6	5
2023-08-06T06:00	2313	761	2.7	1.5	7	5
2023-08-06T06:00	2338	759	2.5	1.5	9	5
2023-08-06T06:00	2358	757	2.3	1.4	10	5
2023-08-06T06:00	2380	755	2.1	1.1	11	6
2023-08-06T06:00	2402	753	1.9	1.0	10	6
2023-08-06T06:00	2423	751	1.7	0.8	8	6
2023-08-06T06:00	2449	749	1.5	0.7	6	6
2023-08-06T06:00	2470	747	1.3	0.6	3	6
2023-08-06T06:00	2499	744	1.2	0.5	0	5
2023-08-06T06:00	2526	741	0.9	0.4	359	5
2023-08-06T06:00	2556	739	0.7	0.3	359	5
2023-08-06T06:00	2582	736	0.7	0.3	1	5
2023-08-06T06:00	2605	734	0.5	0.3	5	5
2023-08-06T06:00	2629	732	0.4	0.3	8	5
2023-08-06T06:00	2655	730	0.3	0.2	10	6
2023-08-06T06:00	2678	727	0.3	0.2	11	6
2023-08-06T06:00	2701	725	0.3	0.3	10	6
2023-08-06T06:00	2728	723	0.1	0.1	9	5
2023-08-06T06:00	2750	721	0.0	0.0	6	5
2023-08-06T06:00	2773	719	0.0	0.0	5	5
2023-08-06T06:00	2795	717	0.0	0.0	4	5
2023-08-06T06:00	2816	715	-0.1	-0.1	4	5
2023-08-06T06:00	2839	713	-0.2	-0.2	5	5
2023-08-06T06:00	2861	711	-0.2	-0.2	6	5
2023-08-06T06:00	2882	709	-0.3	-0.3	6	5
2023-08-06T06:00	2905	707	-0.4	-0.4	6	5
2023-08-06T06:00	2925	705	-0.5	-0.6	5	5
2023-08-06T06:00	2949	703	-0.6	-0.7	5	5
2023-08-06T06:00	2973	701	-0.8	-0.9	4	5
2023-08-06T06:00	2994	699	-0.9	-1.0	3	5
2023-08-06T06:00	3014	698	-1.0	-1.2	1	5
2023-08-06T06:00	3037	696	-1.2	-1.4	359	5
2023-08-06T06:00	3059	694	-1.2	-1.4	359	5
2023-08-06T06:00	3079	692	-1.3		1	5
2023-08-06T06:00	3099	690	-1.4	-1.6	4	5
2023-08-06T06:00	3118	689	-1.6	-1.8	8	5
2023-08-06T06:00	3137	687	-1.7	-2.0	9	5
2023-08-06T06:00	3158	685	-1.8	-2.1	8	5
2023-08-06T06:00	3178	683	-1.9	-2.2	5	5
2023-08-06T06:00	3200	682	-2.0	-2.3	3	5
2023-08-06T06:00	3222	680	-2.2	-2.5	1	5
2023-08-06T06:00	3244	678	-2.3	-2.6	1	6
2023-08-06T06:00	3262	676	-2.3	-2.7	0	6
2023-08-06T06:00	3280	675	-2.4	-2.9	359	6
2023-08-06T06:00	3301	673	-2.6	-3.0	356	5
2023-08-06T06:00	3321	671	-2.7	-3.2	353	5
2023-08-06T06:00	3341	670	-2.7	-3.1	351	5
2023-08-06T06:00	3362	668	-2.9		351	5
2023-08-06T06:00	3381	666	-3.0	-3.4	353	5
2023-08-06T06:00	3404	664	-3.1	-3.6	355	5
2023-08-06T06:00	3431	662	-3.2	-3.7	356	5
2023-08-06T06:00	3454	660	-3.3	-3.8	357	5
2023-08-06T06:00	3477	658	-3.4	-4.0	356	5
2023-08-06T06:00	3501	656	-3.5	-4.1	355	5
2023-08-06T06:00	3523	654	-3.6		353	5
2023-08-06T06:00	3544	653	-3.8	-4.4	351	5
2023-08-06T06:00	3565	651	-3.9	-4.5	348	5
2023-08-06T06:00	3587	649	-4.1	-4.7	345	5
2023-08-06T06:00	3608	647	-4.2	-4.7	343	5
2023-08-06T06:00	3632	646	-4.3	-4.9	342	5
2023-08-06T06:00	3653	644	-4.4	-4.9	342	5
2023-08-06T06:00	3676	642	-4.6	-5.0	343	4
2023-08-06T06:00	3701	640	-4.7	-5.2	346	4
2023-08-06T06:00	3726	638	-4.8	-5.4	350	4
2023-08-06T06:00	3752	636	-4.9	-5.4	355	4
2023-08-06T06:00	3773	634	-5.0	-5.5	0	4
2023-08-06T06:00	3796	632	-5.1	-5.7	5	5
2023-08-06T06:00	3817	630	-5.2	-5.8	10	5
2023-08-06T06:00	3836	629	-5.3	-5.9	14	5
2023-08-06T06:00	3859	627	-5.4	-6.1	17	5
2023-08-06T06:00	3877	626	-5.5	-6.2	19	5
2023-08-06T06:00	3900	624	-5.6	-6.4	20	5
2023-08-06T06:00	3924	622	-5.6	-6.3	21	4
2023-08-06T06:00	3945	620	-5.6	-6.4	22	4
2023-08-06T06:00	3964	619	-5.6	-6.4	26	4
2023-08-06T06:00	3989	617	-5.7	-6.5	32	4
2023-08-06T06:00	4009	615	-5.8	-6.6	39	4
2023-08-06T06:00	4032	613	-5.9	-6.7	47	4
2023-08-06T06:00	4056	612	-6.0	-6.8	55	4
2023-08-06T06:00	4079	610	-6.2	-6.9	64	4
2023-08-06T06:00	4106	608	-6.3	-7.0	72	4
2023-08-06T06:00	4125	606	-6.4	-7.1	80	4
2023-08-06T06:00	4143	605	-6.4	-7.1	88	4
2023-08-06T06:00	4163	603	-6.4	-7.0	98	4
2023-08-06T06:00	4187	601	-6.4	-7.0	113	4
2023-08-06T06:00	4210	600	-6.3	-7.0	129	4
2023-08-06T06:00	4232	598	-6.3	-7.0	142	4
2023-08-06T06:00	4254	596	-6.2	-7.0	150	5
2023-08-06T06:00	4278	595	-6.3	-7.0	154	5
2023-08-06T06:00	4301	593	-6.5	-7.1	156	6
2023-08-06T06:00	4326	591	-6.5	-7.3	158	6
2023-08-06T06:00	4345	589	-6.4	-7.2	160	7
2023-08-06T06:00	4371	588	-6.5	-7.3	162	7
2023-08-06T06:00	4392	586	-6.4	-7.3	164	7
2023-08-06T06:00	4417	584	-6.5	-7.3	163	8
2023-08-06T06:00	4437	582	-6.6	-7.4	161	8
2023-08-06T06:00	4459	581	-6.7	-7.5	159	8
2023-08-06T06:00	4485	579	-6.8	-7.6	156	8
2023-08-06T06:00	4511	577	-7.0	-7.8	154	9
2023-08-06T06:00	4537	575	-7.1	-7.9	154	9
2023-08-06T06:00	4560	573	-7.2	-8.0	154	10
2023-08-06T06:00	4583	572	-7.2	-8.0	154	10
2023-08-06T06:00	4607	570	-7.3	-8.1	154	10
2023-08-06T06:00	4631	568	-7.5	-8.3	154	10
2023-08-06T06:00	4656	566	-7.6	-8.4	153	9
2023-08-06T06:00	4682	565	-7.8	-8.6	152	9
2023-08-06T06:00	4702	563	-7.9	-8.6	151	9
2023-08-06T06:00	4727	561	-8.1	-8.8	149	9
2023-08-06T06:00	4747	560	-8.2	-8.9	148	9
2023-08-06T06:00	4769	558	-8.4	-9.1	147	9
2023-08-06T06:00	4796	556	-8.6	-9.2	145	10
2023-08-06T06:00	4819	555	-8.7	-9.3	144	10
2023-08-06T06:00	4845	553	-9.0	-9.5	142	10
2023-08-06T06:00	4872	551	-9.2	-9.6	140	10
2023-08-06T06:00	4893	549	-9.3	-9.7	139	11
2023-08-06T06:00	4918	548	-9.5	-9.9	139	11
2023-08-06T06:00	4939	546	-9.6	-10.0	140	11
2023-08-06T06:00	4965	544	-9.7	-10.1	142	11
2023-08-06T06:00	4991	542	-9.8	-10.3	144	11
2023-08-06T06:00	5016	541	-9.9	-10.5	147	10
2023-08-06T06:00	5043	539	-10.0	-10.6	150	10
2023-08-06T06:00	5068	537	-10.1	-10.7	153	11
2023-08-06T06:00	5098	535	-10.2	-10.9	155	11
2023-08-06T06:00	5125	533	-10.3		157	11
2023-08-06T06:00	5150	531	-10.4	-11.1	157	11
2023-08-06T06:00	5180	529	-10.5	-11.3	157	11
2023-08-06T06:00	5208	527	-10.6		158	11
2023-08-06T06:00	5235	526	-10.7	-11.6	158	11
2023-08-06T06:00	5255	524	-10.7	-11.6	159	11
2023-08-06T06:00	5285	522	-10.8	-11.7	160	11
2023-08-06T06:00	5318	520	-11.0	-12.0	160	11
2023-08-06T06:00	5346	518	-11.0	-12.0	160	12
2023-08-06T06:00	5366	517	-11.1	-12.1	158	12
2023-08-06T06:00	5397	515	-11.3	-12.3	156	12
2023-08-06T06:00	5420	513	-11.5	-12.5	154	12
2023-08-06T06:00	5444	512	-11.6	-12.6	152	13
2023-08-06T06:00	5465	510	-11.6	-12.5	152	13
2023-08-06T06:00	5488	509	-11.6	-12.5	153	14
2023-08-06T06:00	5511	507	-11.7	-12.7	155	14
2023-08-06T06:00	5534	505	-11.7	-12.7	158	15
2023-08-06T06:00	5560	504	-11.8	-12.8	160	15
2023-08-06T06:00	5586	502	-12.0	-13.0	162	14
2023-08-06T06:00	5606	501	-12.1	-13.1	163	14
2023-08-06T06:00	5630	499	-12.1	-13.1	163	14
2023-08-06T06:00	5659	497	-12.3	-13.2	163	14
2023-08-06T06:00	5684	496	-12.4	-13.3	163	14
2023-08-06T06:00	5707	494	-12.5	-13.5	162	14
2023-08-06T06:00	5732	493	-12.6	-13.7	161	14
2023-08-06T06:00	5761	491	-12.9	-14.0	160	15
2023-08-06T06:00	5794	489	-13.1	-14.2	158	15
2023-08-06T06:00	5820	487	-13.2	-14.2	156	15
2023-08-06T06:00	5844	485	-13.4	-14.3	155	16
2023-08-06T06:00	5868	484	-13.5	-14.3	153	16
2023-08-06T06:00	5889	482	-13.6	-14.4	153	15
2023-08-06T06:00	5913	481	-13.8	-14.7	153	15
2023-08-06T06:00	5936	480	-13.9	-14.8	154	14
2023-08-06T06:00	5960	478	-14.0	-14.9	154	14
2023-08-06T06:00	5984	477	-14.2	-15.1	155	13
2023-08-06T06:00	6007	475	-14.3	-15.3	157	13
2023-08-06T06:00	6031	474	-14.5	-15.5	158	13
2023-08-06T06:00	6056	472	-14.6	-15.6	160	14
2023-08-06T06:00	6080	471	-14.8	-15.8	162	14
2023-08-06T06:00	6106	469	-14.9	-15.9	163	14
2023-08-06T06:00	6129	467	-15.1	-16.2	165	15
2023-08-06T06:00	6156	466	-15.2	-16.3	166	15
2023-08-06T06:00	6179	464	-15.3	-16.4	167	16
2023-08-06T06:00	6204	463	-15.5	-16.6	167	16
2023-08-06T06:00	6228	461	-15.6	-16.7	168	17
2023-08-06T06:00	6250	460	-15.8	-17.0	167	18
2023-08-06T06:00	6274	459	-15.9		167	19
2023-08-06T06:00	6296	457	-16.0	-17.1	166	19
2023-08-06T06:00	6318	456	-16.1	-17.3	164	20
2023-08-06T06:00	6341	455	-16.2	-17.5	161	21
2023-08-06T06:00	6365	453	-16.4	-17.7	159	21
2023-08-06T06:00	6387	452	-16.5	-17.9	156	21
2023-08-06T06:00	6411	450	-16.6	-17.9	154	21
2023-08-06T06:00	6434	449	-16.8	-18.0	151	21
2023-08-06T06:00	6458	448	-16.9	-18.2	149	21
2023-08-06T06:00	6482	446	-16.9	-18.2	148	21
2023-08-06T06:00	6507	445	-17.1	-18.3	148	21
2023-08-06T06:00	6531	443	-17.2	-18.4	149	21
2023-08-06T06:00	6556	442	-17.3	-18.4	150	21
2023-08-06T06:00	6577	440	-17.4	-18.6	151	21
2023-08-06T06:00	6599	439	-17.5	-18.7	151	21
2023-08-06T06:00	6626	438	-17.7	-18.9	151	21
2023-08-06T06:00	6650	436	-17.9	-19.1	150	22
2023-08-06T06:00	6675	435	-18.0	-19.1	150	22
2023-08-06T06:00	6698	433	-18.1	-19.2	149	22
2023-08-06T06:00	6725	432	-18.2	-19.3	149	23
2023-08-06T06:00	6749	431	-18.4	-19.5	149	23
2023-08-06T06:00	6772	429	-18.5	-19.6	148	23
2023-08-06T06:00	6799	428	-18.7	-19.8	148	23
2023-08-06T06:00	6824	426	-18.8	-19.8	147	23
2023-08-06T06:00	6849	425	-19.0	-19.9	147	23
2023-08-06T06:00	6876	423	-19.2	-20.3	147	23
2023-08-06T06:00	6902	422	-19.4	-20.4	147	24
2023-08-06T06:00	6929	420	-19.4	-20.3	147	24
2023-08-06T06:00	6951	419	-19.5	-20.3	148	24
2023-08-06T06:00	6974	418	-19.7	-20.5	148	25
2023-08-06T06:00	7001	416	-19.8	-20.8	148	26
2023-08-06T06:00	7025	415	-20.0	-21.1	147	26
2023-08-06T06:00	7048	414	-20.2	-21.3	146	27
2023-08-06T06:00	7072	412	-20.2	-21.1	146	27
2023-08-06T06:00	7096	411	-20.4	-21.4	145	27
2023-08-06T06:00	7120	410	-20.6	-21.6	145	27
2023-08-06T06:00	7143	408	-20.8	-21.7	144	27
2023-08-06T06:00	7168	407	-20.9	-21.8	143	27
2023-08-06T06:00	7195	405	-21.1	-22.1	143	26
2023-08-06T06:00	7219	404	-21.3	-22.2	142	26
2023-08-06T06:00	7241	403	-21.4	-22.4	142	25
2023-08-06T06:00	7265	402	-21.5	-22.3	142	26
2023-08-06T06:00	7293	400	-21.7	-22.6	143	26
2023-08-06T06:00	7322	399	-21.9	-22.8	143	27
2023-08-06T06:00	7345	397	-22.1	-22.9	144	28
2023-08-06T06:00	7374	396	-22.3	-23.2	145	29
2023-08-06T06:00	7396	394	-22.4	-23.3	145	30
2023-08-06T06:00	7421	393	-22.6	-23.5	145	30
2023-08-06T06:00	7445	392	-22.7	-23.6	146	30
2023-08-06T06:00	7469	391	-22.9	-23.9	147	30
2023-08-06T06:00	7496	389	-23.0	-23.8	148	30
2023-08-06T06:00	7522	388	-23.2	-24.0	149	29
2023-08-06T06:00	7549	386	-23.4	-24.4	150	29
2023-08-06T06:00	7577	385	-23.6	-24.8	151	30
2023-08-06T06:00	7601	384	-23.8	-24.9	152	30
2023-08-06T06:00	7625	382	-23.9	-24.9	152	30
2023-08-06T06:00	7652	381	-24.1	-25.1	153	31
2023-08-06T06:00	7675	380	-24.2	-25.2	153	31
2023-08-06T06:00	7699	378	-24.3	-25.4	153	31
2023-08-06T06:00	7727	377	-24.5	-25.5	152	31
2023-08-06T06:00	7750	376	-24.7	-25.7	151	31
2023-08-06T06:00	7781	374	-25.0	-26.0	149	31
2023-08-06T06:00	7810	373	-25.2	-26.3	148	31
2023-08-06T06:00	7837	371	-25.4	-26.4	146	31
2023-08-06T06:00	7862	370	-25.6	-26.4	145	31
2023-08-06T06:00	7886	369	-25.8	-26.7	145	32
2023-08-06T06:00	7911	368	-26.0	-26.9	146	32
2023-08-06T06:00	7937	366	-26.2	-27.1	147	32
2023-08-06T06:00	7960	365	-26.4	-27.2	148	32
2023-08-06T06:00	7984	364	-26.6	-27.5	148	32
2023-08-06T06:00	8010	363	-26.8	-27.6	148	31
2023-08-06T06:00	8037	361	-27.0	-27.7	147	31
2023-08-06T06:00	8073	360	-27.2	-27.8	146	31
2023-08-06T06:00	8106	358	-27.5	-28.3	146	31
2023-08-06T06:00	8138	356	-27.7	-28.6	147	31
2023-08-06T06:00	8164	355	-27.9	-28.7	148	31
2023-08-06T06:00	8192	354	-28.1	-28.9	149	31
2023-08-06T06:00	8217	352	-28.3	-29.1	150	32
2023-08-06T06:00	8241	351	-28.5	-29.3	150	33
2023-08-06T06:00	8265	350	-28.7	-29.4	150	34
2023-08-06T06:00	8292	349	-28.9	-29.6	150	34
2023-08-06T06:00	8317	347	-29.1	-29.8	149	34
2023-08-06T06:00	8343	346	-29.3	-30.2	149	33
2023-08-06T06:00	8369	345	-29.5	-30.6	150	32
2023-08-06T06:00	8393	344	-29.7	-30.8	150	31
2023-08-06T06:00	8418	343	-29.9	-31.0	151	30
2023-08-06T06:00	8446	341	-30.0	-31.2	152	30
2023-08-06T06:00	8473	340	-30.2	-31.5	153	30
2023-08-06T06:00	8497	339	-30.5	-32.0	154	31
2023-08-06T06:00	8526	337	-30.7	-32.3	154	31
2023-08-06T06:00	8556	336	-30.9	-32.5	154	32
2023-08-06T06:00	8586	335	-31.2	-32.7	154	32
2023-08-06T06:00	8617	333	-31.4	-32.8	154	33
2023-08-06T06:00	8644	332	-31.6	-33.0	153	33
2023-08-06T06:00	8680	330	-31.9	-33.3	153	33
2023-08-06T06:00	8710	329	-32.1	-33.6	153	33
2023-08-06T06:00	8740	327	-32.3	-33.8	152	33
2023-08-06T06:00	8769	326	-32.6	-34.0	152	33
2023-08-06T06:00	8798	325	-32.9	-34.4	152	33
2023-08-06T06:00	8826	323	-33.1	-34.6	152	33
2023-08-06T06:00	8849	322	-33.3	-34.8	152	33
2023-08-06T06:00	8875	321	-33.5	-35.2	153	33
2023-08-06T06:00	8908	320	-33.7	-35.5	154	34
2023-08-06T06:00	8942	318	-33.9	-35.9	155	34
2023-08-06T06:00	8969	317	-34.2	-36.3	155	34
2023-08-06T06:00	8997	316	-34.4	-36.6	156	35
2023-08-06T06:00	9027	314	-34.7	-37.0	157	35
2023-08-06T06:00	9059	313	-34.9	-37.4	157	35
2023-08-06T06:00	9087	312	-35.2	-37.8	158	35
2023-08-06T06:00	9113	310	-35.4	-37.9	158	36
2023-08-06T06:00	9138	309	-35.7	-38.2	158	36
2023-08-06T06:00	9162	308	-35.9	-38.4	159	36
2023-08-06T06:00	9187	307	-36.1	-38.8	159	36
2023-08-06T06:00	9213	306	-36.3	-38.9	159	36
2023-08-06T06:00	9244	305	-36.6	-39.1	158	36
2023-08-06T06:00	9271	303	-36.8	-39.5	158	36
2023-08-06T06:00	9303	302	-37.1	-39.7	158	36
2023-08-06T06:00	9331	301	-37.3	-40.1	158	36
2023-08-06T06:00	9366	299	-37.6	-40.4	158	36
2023-08-06T06:00	9401	298	-37.9	-40.8	158	37
2023-08-06T06:00	9435	296	-38.2	-41.0	159	37
2023-08-06T06:00	9467	295	-38.5	-41.4	159	38
2023-08-06T06:00	9493	294	-38.7	-41.5	160	38
2023-08-06T06:00	9520	293	-38.9	-41.8	160	39
2023-08-06T06:00	9547	291	-39.1	-42.0	160	39
2023-08-06T06:00	9576	290	-39.4	-42.3	161	39
2023-08-06T06:00	9605	289	-39.6	-42.6	161	39
2023-08-06T06:00	9632	288	-39.8	-42.8	160	39
2023-08-06T06:00	9660	287	-40.0	-42.9	160	39
2023-08-06T06:00	9685	286	-40.2	-43.1	160	39
2023-08-06T06:00	9712	285	-40.5	-43.4	160	39
2023-08-06T06:00	9738	283	-40.7	-43.5	160	40
2023-08-06T06:00	9766	282	-40.9	-43.6	160	40
2023-08-06T06:00	9793	281	-41.1	-44.0	160	40
2023-08-06T06:00	9821	280	-41.3	-44.2	160	41
2023-08-06T06:00	9852	279	-41.5	-44.4	160	41
2023-08-06T06:00	9879	278	-41.8	-44.6	159	42
2023-08-06T06:00	9907	276	-42.0	-44.7	159	42
2023-08-06T06:00	9933	275	-42.1	-44.8	159	42
2023-08-06T06:00	9962	274	-42.4	-45.2	159	42
2023-08-06T06:00	9985	273	-42.6	-45.5	159	42
2023-08-06T06:00	10011	272	-42.7	-45.8	159	42
2023-08-06T06:00	10038	271	-42.9	-46.0	160	41
2023-08-06T06:00	10066	270	-43.1	-46.1	160	41
2023-08-06T06:00	10089	269	-43.3	-46.2	160	41
2023-08-06T06:00	10114	268	-43.4	-46.4	160	41
2023-08-06T06:00	10141	267	-43.6	-46.5	159	41
2023-08-06T06:00	10169	266	-43.9	-46.9	159	41
2023-08-06T06:00	10192	265	-44.1	-47.0	158	41
2023-08-06T06:00	10221	264	-44.2	-47.2	158	41
2023-08-06T06:00	10245	263	-44.5	-47.5	158	42
2023-08-06T06:00	10275	262	-44.7	-47.7	158	42
2023-08-06T06:00	10302	261	-45.0	-48.0	158	42
2023-08-06T06:00	10328	260	-45.2	-48.1	159	43
2023-08-06T06:00	10354	259	-45.4	-48.2	158	43
2023-08-06T06:00	10384	257	-45.7	-48.5	158	43
2023-08-06T06:00	10418	256	-46.0	-48.8	157	43
2023-08-06T06:00	10447	255	-46.2	-48.9	157	42
2023-08-06T06:00	10475	254	-46.5	-49.1	156	42
2023-08-06T06:00	10503	253	-46.7	-49.0	156	42
2023-08-06T06:00	10531	252	-46.9	-49.1	156	42
2023-08-06T06:00	10559	251	-47.2	-49.5	156	42
2023-08-06T06:00	10593	250	-47.5	-49.9	156	42
2023-08-06T06:00	10621	248	-47.7	-50.0	156	42
2023-08-06T06:00	10651	247	-48.0	-50.4	157	42
2023-08-06T06:00	10676	246	-48.3	-51.3	157	43
2023-08-06T06:00	10701	245	-48.5	-51.6	157	43
2023-08-06T06:00	10730	244	-48.8	-51.7	157	43
2023-08-06T06:00	10752	243	-49.0	-51.7	157	43
2023-08-06T06:00	10786	242	-49.3	-51.9	157	43
2023-08-06T06:00	10816	241	-49.6	-52.3	157	43
2023-08-06T06:00	10842	240	-49.8	-52.5	157	43
2023-08-06T06:00	10867	239	-50.0	-52.8	157	42
2023-08-06T06:00	10894	238	-50.2	-53.1	157	42
2023-08-06T06:00	10925	237	-50.5	-53.5	157	43
2023-08-06T06:00	10951	236	-50.8	-53.8	158	43
2023-08-06T06:00	10983	235	-51.1	-54.1	158	43
2023-08-06T06:00	11007	234	-51.3	-54.4	159	43
2023-08-06T06:00	11034	233	-51.6	-54.8	160	43
2023-08-06T06:00	11059	232	-51.8	-55.2	161	43
2023-08-06T06:00	11078	232	-51.9	-55.6	162	43
2023-08-06T06:00	11102	231	-52.1	-55.9	163	43
2023-08-06T06:00	11128	230	-52.2	-56.0	163	44
2023-08-06T06:00	11154	229	-52.4	-55.9	163	44
2023-08-06T06:00	11178	228	-52.6	-55.9	164	44
2023-08-06T06:00	11207	227	-52.9	-56.1	165	43
2023-08-06T06:00	11235	226	-53.1	-56.3	166	42
2023-08-06T06:00	11262	225	-53.4	-56.7	167	42
2023-08-06T06:00	11287	224	-53.6	-56.9	168	41
2023-08-06T06:00	11310	224	-53.8	-57.0	169	41
2023-08-06T06:00	11335	223	-54.0	-57.4	170	41
2023-08-06T06:00	11363	222	-54.3	-58.0	170	41
2023-08-06T06:00	11390	221	-54.4	-58.4	169	40
2023-08-06T06:00	11422	220	-54.6	-58.5	169	39
2023-08-06T06:00	11448	219	-54.6	-58.4	168	38
2023-08-06T06:00	11475	218	-54.7	-58.3	167	37
2023-08-06T06:00	11503	217	-54.6	-57.9	166	37
2023-08-06T06:00	11530	216	-54.6	-57.2	164	36
2023-08-06T06:00	11555	215	-54.6	-56.5	163	36
2023-08-06T06:00	11581	214	-54.5	-56.5	161	37
2023-08-06T06:00	11610	213	-54.3	-58.1	160	38
2023-08-06T06:00	11641	212	-53.7	-60.7	158	38
2023-08-06T06:00	11665	211	-53.5	-64.0	157	39
2023-08-06T06:00	11693	211	-53.1	-67.3	156	40
2023-08-06T06:00	11716	210	-51.9	-70.2	156	41
2023-08-06T06:00	11741	209	-51.1	-71.5	156	42
2023-08-06T06:00	11767	208	-50.5	-71.0	156	42
2023-08-06T06:00	11789	207	-50.2	-70.2	156	43
2023-08-06T06:00	11816	207	-50.2	-69.6	158	43
2023-08-06T06:00	11845	206	-50.3	-69.8	160	43
2023-08-06T06:00	11879	205	-49.7	-70.7	162	43
2023-08-06T06:00	11903	204	-48.4	-71.0	165	42
2023-08-06T06:00	11928	203	-47.9	-71.2	167	42
2023-08-06T06:00	11958	202	-47.8	-71.3	168	41
2023-08-06T06:00	11984	201	-47.8	-71.1	170	41
2023-08-06T06:00	12012	201	-47.9	-71.0	171	40
2023-08-06T06:00	12044	200	-47.9	-71.7	172	39
2023-08-06T06:00	12072	199	-47.9	-72.4	173	38
2023-08-06T06:00	12103	198	-48.1	-73.1	175	37
2023-08-06T06:00	12129	197	-48.2	-73.4	177	36
2023-08-06T06:00	12158	196	-48.4	-73.5	178	35
2023-08-06T06:00	12192	195	-48.6	-73.5	178	35
2023-08-06T06:00	12226	194	-48.8	-73.7	178	34
2023-08-06T06:00	12255	193	-49.0	-74.0	178	33
2023-08-06T06:00	12287	192	-49.1	-74.1	178	32
2023-08-06T06:00	12316	191	-49.1	-74.5	177	31
2023-08-06T06:00	12342	191	-49.1	-74.7	176	30
2023-08-06T06:00	12365	190	-49.1	-74.7	176	29
2023-08-06T06:00	12392	189	-48.9	-74.8	176	28
2023-08-06T06:00	12422	188	-48.0	-74.3	177	27
2023-08-06T06:00	12445	188	-47.6	-74.0	178	27
2023-08-06T06:00	12471	187	-47.6	-74.3	180	26
2023-08-06T06:00	12501	186	-47.5	-74.7	183	26
2023-08-06T06:00	12533	185	-47.3	-75.1	185	25
2023-08-06T06:00	12562	184	-47.1	-75.2	187	25
2023-08-06T06:00	12593	184	-46.2	-74.9	189	25
2023-08-06T06:00	12617	183	-46.0	-75.0	189	25
2023-08-06T06:00	12642	182	-46.0	-75.0	189	24
2023-08-06T06:00	12666	182	-46.0	-75.0	189	24
2023-08-06T06:00	12695	181	-46.0	-75.0	189	24
2023-08-06T06:00	12723	180	-46.1	-74.8	189	23
2023-08-06T06:00	12748	179	-46.2	-74.9	190	23
2023-08-06T06:00	12777	179	-46.2	-75.2	190	23
2023-08-06T06:00	12808	178	-45.9	-75.3	190	22
2023-08-06T06:00	12838	177	-45.8	-75.2	191	22
2023-08-06T06:00	12864	176	-45.9	-75.7	191	21
2023-08-06T06:00	12890	176	-46.0	-75.7	191	20
2023-08-06T06:00	12921	175	-46.1	-75.8	191	20
2023-08-06T06:00	12949	174	-46.1	-75.8	191	19
2023-08-06T06:00	12972	173	-46.0	-75.7	190	19
2023-08-06T06:00	13001	173	-46.0	-75.7	189	18
2023-08-06T06:00	13030	172	-46.2	-75.9	189	18
2023-08-06T06:00	13057	171	-46.3	-76.0	188	18
2023-08-06T06:00	13085	170	-46.4	-76.0	188	17
2023-08-06T06:00	13115	170	-46.6	-76.2	188	17
2023-08-06T06:00	13141	169	-46.7	-75.9	187	18
2023-08-06T06:00	13162	168	-46.8	-75.6	186	17
2023-08-06T06:00	13192	168	-46.9	-75.7	184	17
2023-08-06T06:00	13221	167	-47.0	-76.1	182	16
2023-08-06T06:00	13243	166	-47.0	-76.5	180	15
2023-08-06T06:00	13274	166	-47.0	-76.5	177	15
2023-08-06T06:00	13303	165	-47.1	-77.0	174	14
2023-08-06T06:00	13326	164	-47.1	-77.0	172	14
2023-08-06T06:00	13353	164	-46.6	-76.6	169	14
2023-08-06T06:00	13378	163	-46.6	-77.0	166	14
2023-08-06T06:00	13405	162	-46.5		164	15
2023-08-06T06:00	13426	162	-46.5		163	15
2023-08-06T06:00	13449	161	-46.7	-77.1	162	16
2023-08-06T06:00	13475	161	-46.9	-77.2	161	16
2023-08-06T06:00	13504	160	-46.9	-76.8	160	17
2023-08-06T06:00	13532	159	-47.1	-77.0	160	17
2023-08-06T06:00	13561	159	-47.2	-77.0	161	17
2023-08-06T06:00	13584	158	-47.0	-76.9	162	18
2023-08-06T06:00	13611	157	-46.9	-76.8	162	18
2023-08-06T06:00	13638	157	-47.0	-76.9	163	19
2023-08-06T06:00	13665	156	-47.2	-77.0	164	20
2023-08-06T06:00	13689	156	-47.5	-77.3	164	20
2023-08-06T06:00	13718	155	-47.6	-77.3	165	20
2023-08-06T06:00	13742	154	-47.7	-77.4	166	20
2023-08-06T06:00	13762	154	-47.9	-77.6	167	20
2023-08-06T06:00	13785	153	-48.0	-77.6	169	20
2023-08-06T06:00	13808	153	-48.1	-77.7	171	20
2023-08-06T06:00	13830	152	-48.0	-78.0	172	19
2023-08-06T06:00	13852	152	-48.0	-78.0	175	19
2023-08-06T06:00	13878	151	-48.1	-78.1	177	19
2023-08-06T06:00	13901	151	-48.2	-77.8	180	19
2023-08-06T06:00	13926	150	-48.3	-78.3	184	19
2023-08-06T06:00	13954	150	-47.8	-77.9	187	20
2023-08-06T06:00	13985	149	-47.4	-77.6	190	20
2023-08-06T06:00	14010	148	-47.3	-77.5	191	20
2023-08-06T06:00	14034	148	-47.3	-77.5	193	20
2023-08-06T06:00	14060	147	-47.4	-77.6	194	19
2023-08-06T06:00	14088	147	-47.5	-77.7	194	19
2023-08-06T06:00	14114	146	-47.5	-77.7	195	19
2023-08-06T06:00	14135	145	-47.6	-77.7	196	18
2023-08-06T06:00	14165	145	-47.7	-77.8	197	18
2023-08-06T06:00	14188	144	-47.8	-77.9	199	17
2023-08-06T06:00	14214	144	-47.9	-77.6	200	16
2023-08-06T06:00	14245	143	-47.8	-77.5	200	16
2023-08-06T06:00	14275	142	-47.9	-77.6	200	16
2023-08-06T06:00	14301	142	-47.8	-77.5	200	15
2023-08-06T06:00	14327	141	-47.9	-77.6	198	15
2023-08-06T06:00	14359	141	-48.1	-77.7	196	15
2023-08-06T06:00	14389	140	-48.3	-77.9	194	15
2023-08-06T06:00	14417	139	-48.3	-77.9	192	15
2023-08-06T06:00	14447	139	-48.5	-78.0	190	15
2023-08-06T06:00	14480	138	-48.6	-78.1	189	15
2023-08-06T06:00	14502	138	-48.5	-78.0	189	14
2023-08-06T06:00	14522	137	-48.5	-78.0	190	14
2023-08-06T06:00	14546	137	-48.6	-78.1	191	15
2023-08-06T06:00	14569	136	-48.6	-78.1	192	15
2023-08-06T06:00	14595	136	-48.7	-78.6	193	14
2023-08-06T06:00	14626	135	-48.8		193	14
2023-08-06T06:00	14654	134	-48.5	-78.4	194	14
2023-08-06T06:00	14680	134	-48.5	-78.4	195	14
2023-08-06T06:00	14700	134	-48.5	-78.4	197	14
2023-08-06T06:00	14724	133	-48.5	-78.4	199	14
2023-08-06T06:00	14753	132	-48.6	-78.5	201	14
2023-08-06T06:00	14782	132	-48.7	-78.6	201	14
2023-08-06T06:00	14806	131	-48.6	-78.5	200	14
2023-08-06T06:00	14833	131	-48.5	-78.8	198	14
2023-08-06T06:00	14864	130	-48.5	-78.8	195	14
2023-08-06T06:00	14888	130	-48.5	-78.8	191	14
2023-08-06T06:00	14910	129	-48.5	-78.8	188	14
2023-08-06T06:00	14938	129	-48.7	-79.0	187	15
2023-08-06T06:00	14964	128	-48.9	-79.1	186	16
2023-08-06T06:00	14983	128	-49.1	-78.9	185	16
2023-08-06T06:00	15009	127	-49.1	-78.9	185	17
2023-08-06T06:00	15032	127	-49.0	-79.2	185	17
2023-08-06T06:00	15056	126	-49.1	-79.3	185	17
2023-08-06T06:00	15081	126	-49.1	-79.3	186	17
2023-08-06T06:00	15102	126	-49.2	-79.4	186	17
2023-08-06T06:00	15126	125	-49.4	-79.5	187	17
2023-08-06T06:00	15151	125	-49.6	-79.7	188	17
2023-08-06T06:00	15172	124	-49.6	-79.2	189	16
2023-08-06T06:00	15194	124	-49.8	-79.4	190	16
2023-08-06T06:00	15218	123	-49.9	-79.9	190	16
2023-08-06T06:00	15242	123	-49.8	-79.8	191	15
2023-08-06T06:00	15269	122	-49.5	-79.6	191	15
2023-08-06T06:00	15297	122	-49.1	-79.7	190	15
2023-08-06T06:00	15328	121	-49.1	-79.7	190	14
2023-08-06T06:00	15353	121	-49.2	-79.8	190	14
2023-08-06T06:00	15377	120	-49.4	-80.0	191	13
2023-08-06T06:00	15408	120	-49.6	-79.7	192	12
2023-08-06T06:00	15431	119	-49.8	-79.8	193	12
2023-08-06T06:00	15455	119	-49.8	-79.8	194	12
2023-08-06T06:00	15487	118	-49.6	-79.7	194	12
2023-08-06T06:00	15514	118	-49.7	-79.7	194	12
2023-08-06T06:00	15537	118	-50.0	-80.0	194	12
2023-08-06T06:00	15558	117	-50.2	-80.1	192	12
2023-08-06T06:00	15589	117	-50.3	-79.8	190	12
2023-08-06T06:00	15615	116	-50.5	-79.9	188	12
2023-08-06T06:00	15631	116	-50.5	-80.3	187	12
2023-08-06T06:00	15655	115	-50.5	-80.3	188	12
2023-08-06T06:00	15676	115	-50.6	-80.4	189	12
2023-08-06T06:00	15702	115	-50.8	-80.6	192	13
2023-08-06T06:00	15724	114	-50.8	-80.6	194	13
2023-08-06T06:00	15748	114	-50.8	-80.6	196	13
2023-08-06T06:00	15775	113	-50.9	-80.6	198	14
2023-08-06T06:00	15800	113	-51.1	-80.8	198	14
2023-08-06T06:00	15824	112	-51.1	-80.8	198	14
2023-08-06T06:00	15845	112	-51.1	-81.2	196	14
2023-08-06T06:00	15865	112	-50.8	-81.0	194	14
2023-08-06T06:00	15890	111	-50.2	-81.0	192	14
2023-08-06T06:00	15912	111	-49.6	-80.6	191	14
2023-08-06T06:00	15933	111	-49.4	-80.5	191	14
2023-08-06T06:00	15957	110	-49.6	-80.6	192	14
2023-08-06T06:00	15983	110	-49.8	-80.8	193	14
2023-08-06T06:00	16004	109	-49.8	-80.3	195	14
2023-08-06T06:00	16030	109	-49.9	-80.3	197	14
2023-08-06T06:00	16050	109	-50.0	-80.4	198	14
2023-08-06T06:00	16071	108	-50.0	-80.4	198	14
2023-08-06T06:00	16093	108	-50.1	-80.5	199	14
2023-08-06T06:00	16114	108	-50.3	-80.6	199	14
2023-08-06T06:00	16135	107	-50.5	-80.8	200	14
2023-08-06T06:00	16156	107	-50.6	-80.9	200	14
2023-08-06T06:00	16175	107	-50.6	-80.9	199	13
2023-08-06T06:00	16199	106	-50.6	-80.9	199	13
2023-08-06T06:00	16217	106	-50.6	-80.9	198	12
2023-08-06T06:00	16241	106	-50.4	-80.7	197	12
2023-08-06T06:00	16260	105	-50.2	-80.6	197	12
2023-08-06T06:00	16278	105	-50.3	-80.6	196	12
2023-08-06T06:00	16305	105	-50.5	-80.8	194	12
2023-08-06T06:00	16323	104	-50.6	-80.9	193	11
2023-08-06T06:00	16342	104	-50.7	-80.9	191	11
2023-08-06T06:00	16366	103	-50.7	-80.9	190	11
2023-08-06T06:00	16389	103	-50.8	-81.0	188	11
2023-08-06T06:00	16411	103	-50.6	-80.9	188	11
2023-08-06T06:00	16431	102	-50.4	-81.2	188	11
2023-08-06T06:00	16452	102	-50.3	-81.1	189	11
2023-08-06T06:00	16476	102	-50.3	-81.1	190	11
2023-08-06T06:00	16495	101	-50.4	-81.2	190	11
2023-08-06T06:00	16519	101	-50.3	-81.1	190	11
2023-08-06T06:00	16538	101	-50.2	-81.0	189	11
2023-08-06T06:00	16562	100	-50.2	-81.0	189	11
2023-08-06T06:00	16579	100	-50.2	-81.0	189	11
2023-08-06T06:00	16601	100	-50.2	-81.0	190	11
2023-08-06T06:00	16620	100	-50.1	-81.0	193	11
2023-08-06T06:00	16647	99	-50.1	-81.0	196	11
2023-08-06T06:00	16672	99	-50.2	-81.0	199	11
2023-08-06T06:00	16693	98	-50.3	-81.1	202	12
2023-08-06T06:00	16719	98	-50.4	-80.7	205	12
2023-08-06T06:00	16737	98	-50.5	-80.8	208	12
2023-08-06T06:00	16764	97	-50.7	-80.9	210	12
2023-08-06T06:00	16783	97	-50.9	-81.1	213	12
2023-08-06T06:00	16804	97	-51.0	-81.2	215	12
2023-08-06T06:00	16827	96	-51.1	-81.2	217	12
2023-08-06T06:00	16850	96	-51.1	-81.2	220	12
2023-08-06T06:00	16872	96	-51.1	-81.2	221	12
2023-08-06T06:00	16894	95	-51.2	-81.8	223	12
2023-08-06T06:00	16917	95	-51.2	-81.8	225	11
2023-08-06T06:00	16940	95	-50.9	-81.6	227	11
2023-08-06T06:00	16961	94	-50.5	-81.3	229	11
2023-08-06T06:00	16983	94	-50.5	-81.3	230	11
2023-08-06T06:00	17004	94	-50.5	-81.3	231	11
2023-08-06T06:00	17026	94	-50.5	-81.3	230	10
2023-08-06T06:00	17052	93	-50.5	-81.3	228	10
2023-08-06T06:00	17077	93	-50.5	-81.3	224	9
2023-08-06T06:00	17096	93	-50.4	-81.2	218	8
2023-08-06T06:00	17122	92	-50.1	-81.5	211	8
2023-08-06T06:00	17143	92	-50.1	-81.5	202	8
2023-08-06T06:00	17166	92	-50.1	-81.5	194	8
2023-08-06T06:00	17189	91	-49.9	-81.3	187	8
2023-08-06T06:00	17213	91	-49.7	-81.2	182	8
2023-08-06T06:00	17238	91	-49.6	-81.1	179	9
2023-08-06T06:00	17257	90	-49.5	-81.1	177	9
2023-08-06T06:00	17282	90	-49.7	-81.2	177	9
2023-08-06T06:00	17305	90	-49.9	-80.8	177	9
2023-08-06T06:00	17326	89	-50.2	-81.0	177	10
2023-08-06T06:00	17349	89	-50.3	-81.1	177	10
2023-08-06T06:00	17372	89	-50.5	-81.3	177	10
2023-08-06T06:00	17393	88	-50.6	-81.3	178	11
2023-08-06T06:00	17415	88	-50.8	-81.0	179	11
2023-08-06T06:00	17436	88	-51.0	-81.2	180	11
2023-08-06T06:00	17466	87	-51.2	-81.3	181	11
2023-08-06T06:00	17491	87	-51.5	-81.5	183	12
2023-08-06T06:00	17517	87	-51.7	-81.7	185	12
2023-08-06T06:00	17546	86	-51.7	-81.7	187	13
2023-08-06T06:00	17569	86	-51.7	-81.7	189	13
2023-08-06T06:00	17592	86	-51.8	-81.8	191	13
2023-08-06T06:00	17615	85	-51.8	-81.8	192	14
2023-08-06T06:00	17641	85	-51.6	-81.6	193	14
2023-08-06T06:00	17659	85	-51.6	-81.6	193	14
2023-08-06T06:00	17680	85	-51.8	-81.8	193	14
2023-08-06T06:00	17703	84	-51.9	-81.8	193	13
2023-08-06T06:00	17726	84	-51.9	-81.8	193	13
2023-08-06T06:00	17748	84	-52.0	-81.9	193	13
2023-08-06T06:00	17767	83	-52.0	-81.9	194	13
2023-08-06T06:00	17792	83	-51.9	-81.8	196	13
2023-08-06T06:00	17807	83	-51.9	-82.3	198	13
2023-08-06T06:00	17833	83	-51.8	-82.2	200	13
2023-08-06T06:00	17856	82	-51.5	-82.0	202	13
2023-08-06T06:00	17877	82	-51.4	-81.9	205	13
2023-08-06T06:00	17902	82	-51.3	-81.9	207	12
2023-08-06T06:00	17923	82	-51.2	-81.8	209	11
2023-08-06T06:00	17945	81	-51.3	-81.9	211	11
2023-08-06T06:00	17967	81	-51.4	-81.9	213	10
2023-08-06T06:00	17990	81	-51.3	-81.9	213	9
2023-08-06T06:00	18015	80	-51.3	-81.9	213	8
2023-08-06T06:00	18035	80	-51.3	-81.9	212	7
2023-08-06T06:00	18057	80	-51.3	-81.9	210	6
2023-08-06T06:00	18077	80	-51.4	-81.9	208	6
2023-08-06T06:00	18101	79	-51.4	-81.9	207	5
2023-08-06T06:00	18121	79	-51.4	-81.9	207	5
2023-08-06T06:00	18144	79	-51.4	-81.9	208	5
2023-08-06T06:00	18166	78	-51.3	-81.9	209	5
2023-08-06T06:00	18192	78	-51.4	-81.9	211	4
2023-08-06T06:00	18211	78	-51.5	-82.0	211	4
2023-08-06T06:00	18233	78	-51.6	-82.1	209	4
2023-08-06T06:00	18255	77	-51.4	-81.9	205	4
2023-08-06T06:00	18278	77	-51.2	-82.3	196	4
2023-08-06T06:00	18305	77	-50.7		186	4
2023-08-06T06:00	18328	77	-50.6	-81.9	177	4
2023-08-06T06:00	18349	76	-50.8	-82.0	171	4
2023-08-06T06:00	18373	76	-51.0	-82.2	167	5
2023-08-06T06:00	18397	76	-51.2	-81.8	165	5
2023-08-06T06:00	18419	76	-51.3	-81.9	163	6
2023-08-06T06:00	18439	75	-51.5	-82.0	161	6
2023-08-06T06:00	18464	75	-51.6	-81.6	160	6
2023-08-06T06:00	18489	75	-51.7	-81.7	158	7
2023-08-06T06:00	18513	74	-51.8	-81.8	158	7
2023-08-06T06:00	18536	74	-52.1	-82.0	158	8
2023-08-06T06:00	18560	74	-52.3	-82.1	159	8
2023-08-06T06:00	18584	74	-52.4	-82.2	161	8
2023-08-06T06:00	18611	73	-52.4	-82.2	163	8
2023-08-06T06:00	18630	73	-52.4	-82.2	165	9
2023-08-06T06:00	18655	73	-52.4	-82.7	167	9
2023-08-06T06:00	18676	73	-52.4	-82.7	169	10
2023-08-06T06:00	18697	72	-52.2	-82.5	169	10
2023-08-06T06:00	18721	72	-52.3	-82.6	169	11
2023-08-06T06:00	18744	72	-52.2	-82.5	170	11
2023-08-06T06:00	18772	72	-52.2	-82.5	170	11
2023-08-06T06:00	18791	71	-52.3	-82.6	170	11
2023-08-06T06:00	18816	71	-52.4	-82.7	171	10
2023-08-06T06:00	18838	71	-52.4	-82.7	172	10
2023-08-06T06:00	18864	70	-52.3	-82.6	173	10
2023-08-06T06:00	18885	70	-52.3	-82.6	175	10
2023-08-06T06:00	18908	70	-52.2	-82.5	176	9
2023-08-06T06:00	18929	70	-52.2	-82.5	177	9
2023-08-06T06:00	18952	70	-52.3	-82.6	178	9
2023-08-06T06:00	18976	69	-52.3	-82.6	178	9
2023-08-06T06:00	18991	69	-52.3	-82.6	179	9
2023-08-06T06:00	19017	69	-52.5	-82.8	181	8
2023-08-06T06:00	19040	69	-52.5	-82.8	182	8
2023-08-06T06:00	19058	68	-52.4	-82.7	183	7
2023-08-06T06:00	19085	68	-52.5	-82.8	184	7
2023-08-06T06:00	19107	68	-52.5	-82.8	183	7
2023-08-06T06:00	19129	68	-52.3	-82.6	182	7
2023-08-06T06:00	19152	67	-52.2	-82.5	180	7
2023-08-06T06:00	19175	67	-52.3	-82.6	179	6
2023-08-06T06:00	19196	67	-52.2	-82.5	179	6
2023-08-06T06:00	19219	67	-52.3	-82.6	181	6
2023-08-06T06:00	19240	67	-52.3	-82.6	183	6
2023-08-06T06:00	19263	66	-52.2	-82.5	185	7
2023-08-06T06:00	19285	66	-52.1	-82.5	186	7
2023-08-06T06:00	19309	66	-52.0	-82.4	185	7
2023-08-06T06:00	19334	66	-52.0	-82.4	182	8
2023-08-06T06:00	19357	65	-52.0	-82.4	179	8
2023-08-06T06:00	19379	65	-51.8	-82.2	176	9
2023-08-06T06:00	19405	65	-51.7	-82.7	172	9
2023-08-06T06:00	19430	65	-51.8	-82.2	170	10
2023-08-06T06:00	19453	64	-52.0	-82.4	168	10
2023-08-06T06:00	19477	64	-52.1	-82.5	167	11
2023-08-06T06:00	19498	64	-52.1	-82.5	167	11
2023-08-06T06:00	19522	64	-52.0	-82.4	169	11
2023-08-06T06:00	19546	63	-51.9	-82.3	171	11
2023-08-06T06:00	19569	63	-51.9	-82.3	174	11
2023-08-06T06:00	19595	63	-52.0	-82.4	178	11
2023-08-06T06:00	19619	63	-52.1	-82.5	181	10
2023-08-06T06:00	19644	62	-52.3	-82.6	184	10
2023-08-06T06:00	19668	62	-52.4	-82.7	187	10
2023-08-06T06:00	19694	62	-52.6	-82.8	190	10
2023-08-06T06:00	19722	62	-52.7	-82.9	193	9
2023-08-06T06:00	19745	62	-52.6	-82.8	197	9
2023-08-06T06:00	19769	61	-52.6	-82.8	200	9
2023-08-06T06:00	19794	61	-52.7	-82.9	203	8
2023-08-06T06:00	19819	61	-52.7	-82.9	205	8
2023-08-06T06:00	19843	61	-52.8	-83.0	206	7
2023-08-06T06:00	19868	60	-52.9	-82.6	207	7
2023-08-06T06:00	19895	60	-53.1	-82.7	209	6
2023-08-06T06:00	19917	60	-53.2	-82.8	211	6
2023-08-06T06:00	19941	60	-53.3	-82.9	215	5
2023-08-06T06:00	19961	59	-53.4	-83.0	219	5
2023-08-06T06:00	19990	59	-53.3	-82.9	223	5
2023-08-06T06:00	20012	59	-53.4	-83.0	224	4
2023-08-06T06:00	20036	59	-53.3		221	3
2023-08-06T06:00	20063	59	-53.4	-83.4	210	3
2023-08-06T06:00	20087	58	-53.4	-83.4	189	2
2023-08-06T06:00	20113	58	-53.0	-83.1	167	3
2023-08-06T06:00	20144	58	-52.5	-83.3	154	4
2023-08-06T06:00	20164	58	-52.2	-83.1	147	5
2023-08-06T06:00	20190	57	-52.1	-83.0	143	5
2023-08-06T06:00	20215	57	-52.1	-83.0	140	6
2023-08-06T06:00	20237	57	-52.2	-83.1	138	7
2023-08-06T06:00	20267	57	-52.4	-82.7	136	7
2023-08-06T06:00	20292	57	-52.5	-82.8	134	8
2023-08-06T06:00	20316	56	-52.6	-82.8	133	8
2023-08-06T06:00	20337	56	-52.7	-82.9	132	9
2023-08-06T06:00	20364	56	-52.9	-83.1	132	9
2023-08-06T06:00	20384	56	-52.9	-83.1	132	9
2023-08-06T06:00	20406	56	-52.3	-82.6	131	9
2023-08-06T06:00	20432	55	-52.0	-82.9	131	8
2023-08-06T06:00	20453	55	-52.1	-83.0	130	7
2023-08-06T06:00	20479	55	-52.1	-83.0	128	7
2023-08-06T06:00	20498	55	-52.2	-83.1	126	6
2023-08-06T06:00	20524	55	-52.3	-83.1	124	5
2023-08-06T06:00	20551	54	-52.2	-83.1	123	5
2023-08-06T06:00	20569	54	-52.2	-83.1	123	5
2023-08-06T06:00	20598	54	-51.8	-82.8	123	5
2023-08-06T06:00	20620	54	-51.3	-82.4	124	6
2023-08-06T06:00	20641	54	-51.3	-82.4	125	6
2023-08-06T06:00	20671	53	-51.6	-82.6	126	7
2023-08-06T06:00	20691	53	-51.6	-82.6	126	8
2023-08-06T06:00	20711	53	-51.8	-82.2	127	9
2023-08-06T06:00	20734	53	-51.8	-82.2	128	10
2023-08-06T06:00	20760	53	-51.9	-82.3	130	11
2023-08-06T06:00	20784	52	-52.1	-82.5	132	11
2023-08-06T06:00	20804	52	-52.1	-82.5	134	12
2023-08-06T06:00	20832	52	-52.2	-82.5	136	13
2023-08-06T06:00	20850	52	-52.2	-83.1	138	13
2023-08-06T06:00	20871	52	-51.6	-82.6	140	12
2023-08-06T06:00	20898	51	-51.2	-82.3	141	12
2023-08-06T06:00	20917	51	-51.1	-82.2	143	11
2023-08-06T06:00	20941	51	-51.3	-82.4	145	11
2023-08-06T06:00	20962	51	-51.5	-82.5	148	10
2023-08-06T06:00	20987	51	-51.6	-82.6	151	10
2023-08-06T06:00	21009	51	-51.6	-82.6	154	9
2023-08-06T06:00	21037	50	-51.7	-82.2	157	9
2023-08-06T06:00	21057	50	-51.9	-82.3	160	9
2023-08-06T06:00	21081	50	-51.9	-82.3	164	8
2023-08-06T06:00	21105	50	-52.1	-82.5	167	8
2023-08-06T06:00	21129	50	-52.2	-82.5	170	7
2023-08-06T06:00	21155	49	-52.3	-82.6	173	7
2023-08-06T06:00	21178	49	-52.2	-82.5	176	6
2023-08-06T06:00	21203	49	-52.2	-82.5	179	5
2023-08-06T06:00	21224	49	-52.2	-82.5	180	4
2023-08-06T06:00	21252	49	-52.2	-82.5	177	3
2023-08-06T06:00	21273	49	-52.1	-82.5	164	2
2023-08-06T06:00	21300	48	-52.3	-82.6	135	2
2023-08-06T06:00	21323	48	-52.3	-82.6	105	2
2023-08-06T06:00	21345	48	-52.1	-82.5	93	2
2023-08-06T06:00	21369	48	-51.9	-82.3	91	3
2023-08-06T06:00	21398	48	-51.9	-82.3	93	3
2023-08-06T06:00	21425	47	-52.0	-82.9	98	3
2023-08-06T06:00	21449	47	-52.0	-82.9	103	4
2023-08-06T06:00	21476	47	-52.1	-83.0	107	4
2023-08-06T06:00	21501	47	-52.2	-83.1	110	5
2023-08-06T06:00	21527	47	-52.1	-83.0	111	6
2023-08-06T06:00	21555	47	-51.9	-82.8	111	6
2023-08-06T06:00	21578	46	-51.7	-82.7	110	7
2023-08-06T06:00	21605	46	-51.7	-82.7	109	8
2023-08-06T06:00	21629	46	-51.7	-82.7	108	8
2023-08-06T06:00	21655	46	-51.6	-82.6	106	8
2023-08-06T06:00	21679	46	-51.7	-82.7	104	9
2023-08-06T06:00	21708	45	-51.7	-82.7	102	9
2023-08-06T06:00	21732	45	-51.8	-82.8	101	9
2023-08-06T06:00	21756	45	-51.9	-82.8	100	9
2023-08-06T06:00	21782	45	-52.0	-82.9	102	9
2023-08-06T06:00	21810	45	-52.0	-82.9	104	9
2023-08-06T06:00	21832	45	-52.1	-83.0	107	9
2023-08-06T06:00	21858	44	-51.9	-82.8	112	9
2023-08-06T06:00	21887	44	-51.5	-82.5	116	9
2023-08-06T06:00	21904	44	-51.5	-82.5	121	9
2023-08-06T06:00	21931	44	-51.7	-82.7	124	9
2023-08-06T06:00	21961	44	-51.8	-82.8	128	9
2023-08-06T06:00	21979	44	-52.0	-82.4	131	9
2023-08-06T06:00	22007	43	-52.2	-82.5	133	9
2023-08-06T06:00	22026	43	-52.4	-82.7	136	9
2023-08-06T06:00	22050	43	-52.6	-82.8	139	10
2023-08-06T06:00	22076	43	-52.8	-83.0	142	10
2023-08-06T06:00	22098	43	-52.9	-82.6	145	10
2023-08-06T06:00	22122	43	-53.1	-82.7	148	11
2023-08-06T06:00	22145	42	-53.3	-82.9	152	11
2023-08-06T06:00	22170	42	-53.4	-83.0	156	11
2023-08-06T06:00	22189	42	-53.5	-83.5	159	11
2023-08-06T06:00	22220	42	-53.3		162	10
2023-08-06T06:00	22240	42	-53.0	-83.1	165	10
2023-08-06T06:00	22264	42	-52.9	-83.1	168	9
2023-08-06T06:00	22287	42	-52.9	-83.1	170	8
2023-08-06T06:00	22310	41	-52.9	-83.1	172	7
2023-08-06T06:00	22339	41	-52.9	-83.1	173	6
2023-08-06T06:00	22358	41	-53.0	-83.1	172	5
2023-08-06T06:00	22383	41	-53.0	-83.1	168	4
2023-08-06T06:00	22409	41	-52.9	-83.1	159	3
2023-08-06T06:00	22432	41	-52.8	-83.0	143	3
2023-08-06T06:00	22452	40	-52.7	-82.9	122	3
2023-08-06T06:00	22474	40	-52.6	-83.3	106	3
2023-08-06T06:00	22497	40	-52.6	-83.3	99	3
2023-08-06T06:00	22519	40	-52.5	-83.3	99	3
2023-08-06T06:00	22546	40	-52.2	-83.1	105	3
2023-08-06T06:00	22569	40	-52.1	-83.0	114	3
2023-08-06T06:00	22596	40	-52.1	-83.0	122	4
2023-08-06T06:00	22617	39	-52.2	-83.1	130	4
2023-08-06T06:00	22639	39	-52.3	-83.1	136	4
2023-08-06T06:00	22672	39	-52.4	-83.2	143	5
2023-08-06T06:00	22693	39	-52.4	-82.7	149	5
2023-08-06T06:00	22719	39	-52.4	-82.7	155	5
2023-08-06T06:00	22747	39	-52.5	-82.8	161	6
2023-08-06T06:00	22770	39	-52.6	-82.8	166	5
2023-08-06T06:00	22794	38	-52.6	-83.3	170	5
2023-08-06T06:00	22815	38	-52.5	-83.3	173	4
2023-08-06T06:00	22840	38	-52.4	-83.2	174	3
2023-08-06T06:00	22868	38	-52.3	-83.1	170	2
2023-08-06T06:00	22897	38	-52.3	-83.1	158	2
2023-08-06T06:00	22919	38	-52.1	-83.0	127	1
2023-08-06T06:00	22936	38	-52.0	-82.9	94	1
2023-08-06T06:00	22966	37	-51.9	-82.8	80	2
2023-08-06T06:00	22993	37	-51.8	-82.8	76	3
2023-08-06T06:00	23019	37	-51.8	-82.8	76	3
2023-08-06T06:00	23046	37	-51.8	-82.8	78	4
2023-08-06T06:00	23067	37	-51.8	-82.8	81	4
2023-08-06T06:00	23091	37	-51.8	-82.8	85	5
2023-08-06T06:00	23125	37	-52.0	-82.9	88	6
2023-08-06T06:00	23146	36	-52.2	-82.5	90	6
2023-08-06T06:00	23175	36	-52.3	-82.6	92	6
2023-08-06T06:00	23200	36	-52.4	-82.7	94	6
2023-08-06T06:00	23224	36	-52.4	-82.7	96	7
2023-08-06T06:00	23246	36	-52.5	-82.8	99	7
2023-08-06T06:00	23272	36	-52.6	-82.8	102	7
2023-08-06T06:00	23299	36	-52.7	-82.9	106	6
2023-08-06T06:00	23330	35	-52.8	-83.0	110	6
2023-08-06T06:00	23352	35	-52.8	-83.0	113	6
2023-08-06T06:00	23378	35	-52.7	-83.4	115	6
2023-08-06T06:00	23403	35	-52.5	-83.3	116	5
2023-08-06T06:00	23427	35	-52.3	-83.1	115	5
2023-08-06T06:00	23452	35	-52.4	-83.2	113	5
2023-08-06T06:00	23474	35	-52.6	-83.3	110	5
2023-08-06T06:00	23503	34	-52.8	-83.5	107	5
2023-08-06T06:00	23532	34	-52.8	-83.5	104	5
2023-08-06T06:00	23554	34	-52.7	-83.4	101	5
2023-08-06T06:00	23580	34	-52.5	-83.3	99	5
2023-08-06T06:00	23600	34	-52.5	-83.3	99	5
2023-08-06T06:00	23628	34	-52.5	-83.3	100	4
2023-08-06T06:00	23654	34	-52.4	-83.2	103	4
2023-08-06T06:00	23675	34	-52.4	-83.2	109	3
2023-08-06T06:00	23699	33	-52.4	-83.2	119	3
2023-08-06T06:00	23725	33	-52.4	-83.2	130	3
2023-08-06T06:00	23753	33	-52.4	-83.2	139	2
2023-08-06T06:00	23768	33	-52.2	-83.1	139	2
2023-08-06T06:00	23797	33	-52.0	-82.9	128	2
2023-08-06T06:00	23827	33	-52.0	-82.9	110	2
2023-08-06T06:00	23842	33	-51.7	-82.7	96	3
2023-08-06T06:00	23868	33	-51.5	-82.5	89	4
2023-08-06T06:00	23893	32	-51.3	-82.4	86	5
2023-08-06T06:00	23922	32	-51.4	-82.5	85	6
2023-08-06T06:00	23950	32	-51.6	-82.6	85	7
2023-08-06T06:00	23971	32	-51.5	-82.5	86	7
2023-08-06T06:00	23991	32	-51.4	-82.5	88	8
2023-08-06T06:00	24022	32	-51.4	-82.5	91	8
2023-08-06T06:00	24047	32	-51.4	-82.5	95	8
2023-08-06T06:00	24070	32	-51.4	-82.5	99	8
2023-08-06T06:00	24097	31	-51.3	-82.4	102	7
2023-08-06T06:00	24116	31	-51.4	-82.5	105	7
2023-08-06T06:00	24145	31	-51.5	-82.5	106	7
2023-08-06T06:00	24170	31	-51.5	-82.5	107	6
2023-08-06T06:00	24195	31	-51.4	-82.5	108	6
2023-08-06T06:00	24225	31	-51.5	-82.5	109	5
2023-08-06T06:00	24250	31	-51.5	-82.5	110	5
2023-08-06T06:00	24270	31	-51.6	-82.6	110	4
2023-08-06T06:00	24300	30	-51.7	-82.7	108	3
2023-08-06T06:00	24330	30	-51.6	-82.6	107	3
2023-08-06T06:00	24361	30	-51.6	-82.6	106	3
2023-08-06T06:00	24388	30	-51.6	-82.6	105	3
2023-08-06T06:00	24413	30	-51.7	-82.7	104	3
2023-08-06T06:00	24440	30	-51.8	-82.8	101	3
2023-08-06T06:00	24465	30	-51.9	-82.8	96	3
2023-08-06T06:00	24496	30	-51.8	-82.8	91	3
2023-08-06T06:00	24519	29	-51.8	-82.8	86	4
2023-08-06T06:00	24548	29	-51.9	-82.8	82	4
2023-08-06T06:00	24571	29	-51.9	-82.8	79	4
2023-08-06T06:00	24596	29	-51.9	-82.8	76	4
2023-08-06T06:00	24625	29	-51.9	-82.8	73	5
2023-08-06T06:00	24657	29	-51.8	-82.8	71	5
2023-08-06T06:00	24678	29	-51.6	-83.2	69	6
2023-08-06T06:00	24704	29	-51.6	-83.2	67	6
2023-08-06T06:00	24733	28	-51.6	-83.2	65	6
2023-08-06T06:00	24762	28	-51.6	-83.2	64	6
2023-08-06T06:00	24784	28	-51.5	-83.1	63	6
2023-08-06T06:00	24810	28	-51.4	-83.0	63	6
2023-08-06T06:00	24844	28	-51.5	-83.1	65	7
2023-08-06T06:00	24870	28	-51.5	-83.1	68	7
2023-08-06T06:00	24897	28	-51.3	-82.9	72	7
2023-08-06T06:00	24927	28	-51.2	-82.9	76	7
2023-08-06T06:00	24953	28	-51.2	-82.9	80	8
2023-08-06T06:00	24978	27	-51.3	-82.4	84	8
2023-08-06T06:00	24998	27	-51.5	-82.5	88	8
2023-08-06T06:00	25031	27	-51.7	-82.7	91	9
2023-08-06T06:00	25051	27	-51.7	-82.7	94	9
2023-08-06T06:00	25080	27	-51.7	-82.7	98	10
2023-08-06T06:00	25105	27	-51.8	-82.8	101	10
2023-08-06T06:00	25129	27	-51.9	-82.8	104	10
2023-08-06T06:00	25159	27	-52.0	-82.9	108	10
2023-08-06T06:00	25184	27	-52.0	-82.9	111	10
2023-08-06T06:00	25214	26	-52.0	-82.9	114	10
2023-08-06T06:00	25239	26	-52.0	-82.9	117	10
2023-08-06T06:00	25262	26	-52.0	-82.9	118	9
2023-08-06T06:00	25291	26	-52.0	-82.9	119	9
2023-08-06T06:00	25316	26	-51.9	-83.4	120	8
2023-08-06T06:00	25340	26	-51.8	-83.3	119	7
2023-08-06T06:00	25367	26	-51.7	-83.2	117	7
2023-08-06T06:00	25395	26	-51.7	-83.2	115	6
2023-08-06T06:00	25420	26	-51.5	-83.1	112	6
2023-08-06T06:00	25438	26	-51.4	-83.0	111	6
2023-08-06T06:00	25474	25	-51.4	-83.0	110	7
2023-08-06T06:00	25503	25	-51.5	-83.1	110	7
2023-08-06T06:00	25515	25	-51.4	-83.0	109	7
2023-08-06T06:00	25555	25	-51.3	-82.9	108	7
2023-08-06T06:00	25579	25	-51.2	-82.9	106	7
2023-08-06T06:00	25601	25	-51.0	-82.7	102	7
2023-08-06T06:00	25629	25	-50.7	-82.5	97	6
2023-08-06T06:00	25658	25	-50.5	-83.0	91	6
2023-08-06T06:00	25683	25	-50.4	-82.9	86	6
2023-08-06T06:00	25712	25	-50.4	-82.9	84	7
2023-08-06T06:00	25737	24	-50.4	-82.9	84	7
2023-08-06T06:00	25762	24	-50.4	-82.9	85	8
2023-08-06T06:00	25791	24	-50.1	-82.7	87	8
2023-08-06T06:00	25820	24	-50.0	-82.6	88	9
2023-08-06T06:00	25852	24	-49.9	-82.5	88	9
2023-08-06T06:00	25879	24	-49.8	-82.5	88	9
2023-08-06T06:00	25898	24	-49.7	-82.4	89	9
2023-08-06T06:00	25934	24	-49.6	-82.3	90	10
2023-08-06T06:00	25959	24	-49.6	-82.3	92	10
2023-08-06T06:00	25992	23	-49.5	-82.3	94	10
2023-08-06T06:00	26020	23	-49.5	-82.3	95	10
2023-08-06T06:00	26052	23	-49.6	-82.3	97	10
2023-08-06T06:00	26078	23	-49.4	-82.2	98	10
2023-08-06T06:00	26106	23	-49.2	-82.0	99	10
2023-08-06T06:00	26126	23	-49.1	-82.0	100	10
2023-08-06T06:00	26158	23	-49.0	-81.9	101	10
2023-08-06T06:00	26189	23	-49.0	-81.9	102	10
2023-08-06T06:00	26215	23	-49.0	-81.9	103	10
2023-08-06T06:00	26243	23	-49.0	-81.9	102	10
2023-08-06T06:00	26267	22	-49.1	-82.0	101	10
2023-08-06T06:00	26295	22	-48.9	-81.8	99	10
2023-08-06T06:00	26332	22	-48.7	-81.7	98	11
2023-08-06T06:00	26358	22	-48.6	-81.6	97	11
2023-08-06T06:00	26386	22	-48.4	-81.4	97	11
2023-08-06T06:00	26410	22	-48.3	-81.4	98	11
2023-08-06T06:00	26446	22	-48.3	-81.4	100	11
2023-08-06T06:00	26470	22	-48.3	-81.4	102	11
2023-08-06T06:00	26492	22	-48.2	-81.3	103	11
2023-08-06T06:00	26520	22	-48.2	-81.3	104	11
2023-08-06T06:00	26554	22	-48.3	-81.4	105	11
2023-08-06T06:00	26584	21	-48.3	-81.4	106	10
2023-08-06T06:00	26609	21	-48.4	-81.4	108	9
2023-08-06T06:00	26639	21	-48.4	-81.4	109	8
2023-08-06T06:00	26656	21	-48.4	-81.4	110	8
2023-08-06T06:00	26691	21	-48.4	-81.4	110	7
2023-08-06T06:00	26715	21	-48.4	-81.4	109	7
2023-08-06T06:00	26736	21	-48.3	-81.4	108	7
2023-08-06T06:00	26775	21	-48.3	-81.4	104	7
2023-08-06T06:00	26795	21	-48.4	-81.4	100	7
2023-08-06T06:00	26820	21	-48.5	-81.5	95	7
2023-08-06T06:00	26854	21	-48.5	-81.5	90	7
2023-08-06T06:00	26884	21	-48.4	-81.4	86	7
2023-08-06T06:00	26910	20	-48.5	-81.5	85	8
2023-08-06T06:00	26947	20	-48.4	-81.4	86	8
2023-08-06T06:00	26966	20	-48.4	-81.4	89	9
2023-08-06T06:00	26994	20	-48.4	-81.4	92	9
2023-08-06T06:00	27017	20	-48.4	-81.4	95	10
2023-08-06T06:00	27050	20	-48.5	-81.5	98	10
2023-08-06T06:00	27077	20	-48.6	-81.6	102	11
2023-08-06T06:00	27101	20	-48.8	-81.7	105	11
2023-08-06T06:00	27140	20	-48.9	-81.8	109	11
2023-08-06T06:00	27176	20	-49.1	-82.0	111	11
2023-08-06T06:00	27189	20	-49.1	-82.0	113	10
2023-08-06T06:00	27224	19	-48.9	-81.8	114	10
2023-08-06T06:00	27244	19	-48.6	-81.6	114	9
2023-08-06T06:00	27277	19	-48.4	-81.4	112	8
2023-08-06T06:00	27304	19	-48.4	-82.2	111	7
2023-08-06T06:00	27333	19	-48.2	-82.0	110	7
2023-08-06T06:00	27362	19	-48.1	-81.9	108	6
2023-08-06T06:00	27388	19	-48.2	-82.0	106	6
2023-08-06T06:00	27420	19	-48.1	-81.9	102	5
2023-08-06T06:00	27451	19	-47.8	-81.7	95	5
2023-08-06T06:00	27472	19	-47.6	-81.6	87	5
2023-08-06T06:00	27502	19	-47.6	-81.6	77	5
2023-08-06T06:00	27540	19	-47.6	-81.6	69	6
2023-08-06T06:00	27562	18	-47.5	-81.5	64	6
2023-08-06T06:00	27591	18	-47.6	-81.6	61	7
2023-08-06T06:00	27626	18	-47.6	-81.6	61	8
2023-08-06T06:00	27647	18	-47.5	-81.5	61	9
2023-08-06T06:00	27672	18	-47.5	-81.5	63	9
2023-08-06T06:00	27706	18	-47.5	-81.5	64	10
2023-08-06T06:00	27739	18	-47.6	-81.6	65	10
2023-08-06T06:00	27757	18	-47.8	-81.7	66	10
2023-08-06T06:00	27787	18	-47.7	-81.6	65	9
2023-08-06T06:00	27825	18	-47.5	-81.5	63	9
2023-08-06T06:00	27847	18	-47.5	-81.5	60	9
2023-08-06T06:00	27881	18	-47.5	-81.5	56	9
2023-08-06T06:00	27906	18	-47.4	-81.4	54	9
2023-08-06T06:00	27917	18	-47.1	-81.2	52	9
2023-08-06T06:00	27956	17	-46.8	-81.0	52	10
2023-08-06T06:00	27979	17	-46.6	-80.9	52	11
2023-08-06T06:00	28010	17	-46.6	-80.9	52	11
2023-08-06T06:00	28034	17	-46.6	-80.9	54	12
2023-08-06T06:00	28061	17	-46.5	-80.8	56	12
2023-08-06T06:00	28095	17	-46.3	-81.4	58	13
2023-08-06T06:00	28111	17	-46.1	-81.3	62	14
2023-08-06T06:00	28149	17	-46.0	-81.2	65	14
2023-08-06T06:00	28172	17	-45.8	-81.1	69	15
2023-08-06T06:00	28190	17	-45.8	-81.1	73	15
2023-08-06T06:00	28218	17	-45.7	-81.0	77	15
2023-08-06T06:00	28229	17	-45.7	-81.0	81	15
2023-08-06T06:00	28265	17	-45.4	-80.8	85	16
2023-08-06T06:00	28282	17	-45.0	-80.5	87	16
2023-08-06T06:00	28316	17	-44.6	-80.2	90	16
2023-08-06T06:00	28332	16	-44.5	-80.1	92	16
2023-08-06T06:00	28357	16	-44.6	-80.2	93	15
2023-08-06T06:00	28381	16	-44.7	-80.3	95	15
2023-08-06T06:00	28401	16	-44.7	-80.3	96	14
2023-08-06T06:00	28444	16	-44.7	-80.3	96	14
2023-08-06T06:00	28465	16	-44.6	-80.2	96	13
2023-08-06T06:00	28483	16	-44.5	-80.1	96	12
2023-08-06T06:00	28512	16	-44.3	-80.0	95	11
2023-08-06T06:00	28529	16	-44.0	-79.8	93	11
2023-08-06T06:00	28556	16	-43.9	-79.7	91	10
2023-08-06T06:00	28590	16	-43.8	-79.6	90	10
2023-08-06T06:00	28622	16	-43.6	-79.5	89	10
2023-08-06T06:00	28649	16	-43.4	-79.4	89	9
2023-08-06T06:00	28672	16	-43.2	-79.2	90	9
2023-08-06T06:00	28699	16	-43.3	-79.3	92	9
2023-08-06T06:00	28725	16	-43.4	-79.4	93	9
2023-08-06T06:00	28757	15	-43.5	-79.4	94	9
2023-08-06T06:00	28779	15	-43.6	-79.5	93	9
2023-08-06T06:00	28811	15	-43.5	-79.4	93	9
2023-08-06T06:00	28824	15	-43.4	-79.4	91	9
2023-08-06T06:00	28863	15	-43.3	-79.3	89	10
2023-08-06T06:00	28887	15	-43.2	-79.2	87	10
2023-08-06T06:00	28934	15	-43.1		85	10
2023-08-06T06:00	28954	15	-43.2	-79.2	83	10
2023-08-06T06:00	28988	15	-43.3	-79.3	82	11
2023-08-06T06:00	29011	15	-43.2	-79.2	82	11
2023-08-06T06:00	29052	15	-43.0	-80.0	82	11
2023-08-06T06:00	29085	15	-43.0	-80.0	82	12
2023-08-06T06:00	29107	15	-42.8	-79.9	82	12
2023-08-06T06:00	29132	15	-42.6	-79.7	82	13
2023-08-06T06:00	29164	15	-42.6	-79.7	83	13
2023-08-06T06:00	29194	14	-42.6	-79.7	84	13
2023-08-06T06:00	29223	14	-42.8	-78.9	85	13
2023-08-06T06:00	29255	14	-42.9	-79.0	85	13
2023-08-06T06:00	29282	14	-43.0	-79.1	86	13
2023-08-06T06:00	29312	14	-43.2	-79.2	87	13
2023-08-06T06:00	29347	14	-43.3	-79.3	88	13
2023-08-06T06:00	29384	14	-43.4	-79.4	88	13
2023-08-06T06:00	29398	14	-43.6	-79.5	87	13
2023-08-06T06:00	29424	14	-43.8	-79.6	87	13
2023-08-06T06:00	29468	14	-43.9	-79.7	85	13
2023-08-06T06:00	29497	14	-44.0	-79.8	84	12
2023-08-06T06:00	29530	14	-44.0	-79.8	83	12
2023-08-06T06:00	29553	14	-44.1	-79.9	82	12
2023-08-06T06:00	29588	14	-44.1	-79.9	83	12
2023-08-06T06:00	29609	14	-44.3	-80.0	83	12
2023-08-06T06:00	29651	14	-44.5	-80.1	85	12
2023-08-06T06:00	29661	14	-44.7	-80.3	86	12
2023-08-06T06:00	29692	13	-44.7	-80.3	88	12
2023-08-06T06:00	29721	13	-44.8	-80.4	90	12
2023-08-06T06:00	29749	13	-44.9	-80.4	92	12
2023-08-06T06:00	29772	13	-45.0	-80.5	94	12
2023-08-06T06:00	29811	13	-45.0	-80.5	96	12
2023-08-06T06:00	29847	13	-45.0	-80.5	99	12
2023-08-06T06:00	29856	13	-44.8	-80.4	103	12
2023-08-06T06:00	29880	13	-44.6	-80.2	105	12
2023-08-06T06:00	29909	13	-44.4	-80.1	108	12
2023-08-06T06:00	29933	13	-44.2	-79.9	109	12
2023-08-06T06:00	29964	13	-44.2	-79.9	109	11
2023-08-06T06:00	29999	13	-44.1	-79.9	109	11
2023-08-06T06:00	30017	13	-44.0	-80.7	107	10
2023-08-06T06:00	30051	13	-43.9	-80.7	104	10
2023-08-06T06:00	30068	13	-43.8	-80.6	99	9
2023-08-06T06:00	30097	13	-43.7	-80.5	94	9
2023-08-06T06:00	30130	13	-43.5	-80.4	88	10
2023-08-06T06:00	30149	13	-43.3	-80.2	83	10
2023-08-06T06:00	30189	13	-43.0	-80.0	78	10
2023-08-06T06:00	30201	12	-42.7	-79.8	73	10
2023-08-06T06:00	30241	12	-42.6	-79.7	69	10
2023-08-06T06:00	30263	12	-42.6	-79.7	66	10
2023-08-06T06:00	30299	12	-42.6	-79.7	64	10
2023-08-06T06:00	30335	12	-42.5	-79.7	65	10
2023-08-06T06:00	30341	12	-42.5	-79.7	67	11
2023-08-06T06:00	30391	12	-42.6	-79.7	71	11
2023-08-06T06:00	30402	12	-42.5	-79.7	75	11
2023-08-06T06:00	30432	12	-42.5	-79.7	80	11
2023-08-06T06:00	30473	12	-42.6	-79.7	84	12
2023-08-06T06:00	30507	12	-42.9	-80.0	88	11
2023-08-06T06:00	30540	12	-43.0	-80.0	91	11
2023-08-06T06:00	30564	12	-42.9	-80.0	93	11
2023-08-06T06:00	30596	12	-42.9	-80.0	94	11
2023-08-06T06:00	30627	12	-42.9	-80.0	95	11
2023-08-06T06:00	30661	12	-42.9	-80.0	96	11
2023-08-06T06:00	30687	12	-42.9	-80.0	96	11
2023-08-06T06:00	30727	12	-42.8	-79.9	95	11
2023-08-06T06:00	30750	12	-42.6	-79.7	93	11
2023-08-06T06:00	30772	11	-42.4	-79.6	91	11
2023-08-06T06:00	30827	11	-42.3	-79.5	89	11
2023-08-06T06:00	30844	11	-42.4	-79.6	87	11
2023-08-06T06:00	30871	11	-42.5	-79.7	86	10
2023-08-06T06:00	30907	11	-42.5	-79.7	85	10
2023-08-06T06:00	30938	11	-42.5	-79.7	84	10
2023-08-06T06:00	30980	11	-42.6	-79.7	83	10
2023-08-06T06:00	31016	11	-42.5	-79.7	83	11
2023-08-06T06:00	31041	11	-42.4	-79.6	84	11
2023-08-06T06:00	31080	11	-42.5	-79.7	86	11
2023-08-06T06:00	31103	11	-42.5	-79.7	90	11
2023-08-06T06:00	31158	11	-42.5	-79.7	93	11
2023-08-06T06:00	31187	11	-42.7	-79.8	97	11
2023-08-06T06:00	31212	11	-42.7	-79.8	100	11
2023-08-06T06:00	31231	11	-42.7	-79.8	102	11
2023-08-06T06:00	31266	11	-42.5	-79.7	104	11
2023-08-06T06:00	31289	11	-42.2	-79.5	106	11
2023-08-06T06:00	31326	11	-42.0	-79.3	106	11
2023-08-06T06:00	31355	11	-41.9	-79.2	106	11
2023-08-06T06:00	31378	10	-41.8	-79.2	105	10
2023-08-06T06:00	31402	10	-41.8	-79.2	103	10
2023-08-06T06:00	31456	10	-41.7	-79.1	100	10
2023-08-06T06:00	31468	10	-41.5	-80.1	97	10
2023-08-06T06:00	31487	10	-41.3	-79.9	94	10
2023-08-06T06:00	31521	10	-41.1	-79.8	93	10
2023-08-06T06:00	31539	10	-41.0	-79.7	92	11
2023-08-06T06:00	31575	10	-40.9	-79.7	91	11
2023-08-06T06:00	31603	10	-40.9	-79.7	91	11
2023-08-06T06:00	31615	10	-41.0	-79.7	90	11
2023-08-06T06:00	31654	10	-41.0	-79.7	91	11
2023-08-06T06:00	31684	10	-40.9	-79.7	92	11
2023-08-06T06:00	31716	10	-40.8	-79.6	96	11
2023-08-06T06:00	31731	10	-40.7	-79.5	100	10
2023-08-06T06:00	31766	10	-40.6	-79.5	106	10
2023-08-06T06:00	31786	10	-40.7	-79.5	111	9
2023-08-06T06:00	31813	10	-40.7	-79.5	114	9
2023-08-06T06:00	31836	10	-40.7	-79.5	115	9
2023-08-06T06:00	31855	10	-40.7	-79.5	113	8
2023-08-06T06:00	31887	10	-40.5	-79.4	109	8
2023-08-06T06:00	31920	10	-40.2	-79.2	104	7
2023-08-06T06:00	31946	10	-40.0	-79.0	98	7
2023-08-06T06:00	31964	10	-39.8	-78.9	94	7
2023-08-06T06:00	31989	10	-39.5	-78.7	91	7
2023-08-06T06:00	32019	10	-39.3	-78.5	89	7
2023-08-06T12:00	112	990	16.0	15.7	290	3
2023-08-06T12:00	135	987	15.5	15.0	304	5
2023-08-06T12:00	161	984	15.2	14.7	302	6
2023-08-06T12:00	194	981	14.9	14.6	300	6
2023-08-06T12:00	220	977	14.7	14.6	298	7
2023-08-06T12:00	247	974	14.4	14.3	297	7
2023-08-06T12:00	274	971	14.3	13.6	294	7
2023-08-06T12:00	292	969	14.1	13.2	291	7
2023-08-06T12:00	312	967	14.0	13.2	288	8
2023-08-06T12:00	332	964	13.7	13.4	286	8
2023-08-06T12:00	354	962	13.5	13.5	287	8
2023-08-06T12:00	373	960	13.3	13.3	291	9
2023-08-06T12:00	394	958	13.2	13.2	297	9
2023-08-06T12:00	415	955	13.0	13.0	303	9
2023-08-06T12:00	436	953	12.9	12.9	310	9
2023-08-06T12:00	462	950	12.6	12.6	317	9
2023-08-06T12:00	489	947	12.5	12.5	324	8
2023-08-06T12:00	514	944	12.5	12.5	328	8
2023-08-06T12:00	532	942	12.0	11.5	330	8
2023-08-06T12:00	551	940	11.6	11.3	330	8
2023-08-06T12:00	580	937	12.1	12.1	328	9
2023-08-06T12:00	603	934	11.6	11.6	328	10
2023-08-06T12:00	629	931	11.2	11.1	329	10
2023-08-06T12:00	653	928	10.5	8.1	330	11
2023-08-06T12:00	678	926	11.1	7.7	332	11
2023-08-06T12:00	696	924	11.8	7.8	334	11
2023-08-06T12:00	714	922	11.7	7.4	335	11
2023-08-06T12:00	736	919	11.6	7.5	336	11
2023-08-06T12:00	758	917	11.4	7.3	335	10
2023-08-06T12:00	779	914	11.4	7.6	335	10
2023-08-06T12:00	803	912	11.4	7.5	335	10
2023-08-06T12:00	827	909	11.3	7.6	335	10
2023-08-06T12:00	848	907	11.2	7.4	335	10
2023-08-06T12:00	871	905	11.1	7.2	335	10
2023-08-06T12:00	890	902	10.9	7.1	333	11
2023-08-06T12:00	914	900	10.8	7.1	332	11
2023-08-06T12:00	936	898	10.7	7.1	330	11
2023-08-06T12:00	956	895	10.5	6.9	328	11
2023-08-06T12:00	980	893	10.4	6.9	327	11
2023-08-06T12:00	1000	890	10.2	6.8	326	10
2023-08-06T12:00	1024	888	10.1	6.8	326	10
2023-08-06T12:00	1045	886	10.0	6.8	327	9
2023-08-06T12:00	1071	883	9.8	6.7	327	9
2023-08-06T12:00	1094	881	9.8	6.8	329	9
2023-08-06T12:00	1116	878	9.8	6.9	330	9
2023-08-06T12:00	1137	876	9.7	6.5	331	9
2023-08-06T12:00	1159	874	9.5	6.4	332	9
2023-08-06T12:00	1179	872	9.4	6.1	332	9
2023-08-06T12:00	1203	869	9.3	5.8	330	9
2023-08-06T12:00	1227	867	9.1	5.8	329	9
2023-08-06T12:00	1252	864	9.0	5.9	328	9
2023-08-06T12:00	1277	862	8.8	5.7	328	8
2023-08-06T12:00	1296	859	8.7	5.6	328	8
2023-08-06T12:00	1320	857	8.5	5.4	327	8
2023-08-06T12:00	1348	854	8.3	5.3	327	9
2023-08-06T12:00	1370	852	8.1	5.2	327	9
2023-08-06T12:00	1388	850	8.0	5.2	327	9
2023-08-06T12:00	1407	848	7.8	4.8	327	9
2023-08-06T12:00	1430	846	7.7	4.7	328	9
2023-08-06T12:00	1452	843	7.6	4.7	328	8
2023-08-06T12:00	1476	841	7.4	4.6	329	8
2023-08-06T12:00	1494	839	7.3	4.6	329	8
2023-08-06T12:00	1513	837	7.1	4.2	330	8
2023-08-06T12:00	1535	835	6.9	4.0	332	8
2023-08-06T12:00	1558	833	6.8	3.9	335	8
2023-08-06T12:00	1577	831	6.7	3.6	337	8
2023-08-06T12:00	1597	829	6.5	3.5	339	8
2023-08-06T12:00	1615	827	6.4	3.5	339	8
2023-08-06T12:00	1634	825	6.2	3.3	339	8
2023-08-06T12:00	1652	823	6.1	3.4	338	9
2023-08-06T12:00	1669	821	5.9	3.4	337	9
2023-08-06T12:00	1689	819	5.8	3.4	338	9
2023-08-06T12:00	1708	818	5.6	3.3	340	9
2023-08-06T12:00	1726	816	5.5	3.1	342	9
2023-08-06T12:00	1744	814	5.4	3.1	343	8
2023-08-06T12:00	1760	812	5.2	3.1	342	9
2023-08-06T12:00	1781	810	5.1	3.0	340	9
2023-08-06T12:00	1799	808	5.0	3.0	337	9
2023-08-06T12:00	1822	806	4.8	2.8	335	10
2023-08-06T12:00	1846	804	4.7	2.6	334	10
2023-08-06T12:00	1869	802	4.5	2.6	334	10
2023-08-06T12:00	1889	800	4.4	2.6	333	10
2023-08-06T12:00	1908	798	4.2	2.6	332	10
2023-08-06T12:00	1926	796	4.0	2.4	331	10
2023-08-06T12:00	1944	794	3.9	2.4	329	10
2023-08-06T12:00	1963	792	3.7	2.3	329	11
2023-08-06T12:00	1982	791	3.6	2.3	330	11
2023-08-06T12:00	1998	789	3.5	2.3	331	11
2023-08-06T12:00	2016	787	3.4	2.3	331	10
2023-08-06T12:00	2036	785	3.2	2.2	328	10
2023-08-06T12:00	2054	783	3.1	2.2	326	10
2023-08-06T12:00	2075	782	2.9	2.1	324	11
2023-08-06T12:00	2094	780	2.8	2.1	326	11
2023-08-06T12:00	2112	778	2.6	2.0	329	11
2023-08-06T12:00	2130	776	2.5	1.9	332	11
2023-08-06T12:00	2148	775	2.3	1.7	334	11
2023-08-06T12:00	2165	773	2.2	1.5	333	11
2023-08-06T12:00	2185	771	2.1	1.5	330	10
2023-08-06T12:00	2203	769	1.9	1.3	325	10
2023-08-06T12:00	2222	767	1.7		322	11
2023-08-06T12:00	2241	766	1.6	1.0	321	12
2023-08-06T12:00	2258	764	1.5	0.7	323	12
2023-08-06T12:00	2276	762	1.4	0.6	326	12
2023-08-06T12:00	2294	761	1.3	0.7	329	12
2023-08-06T12:00	2312	759	1.2	0.7	331	11
2023-08-06T12:00	2329	757	1.1	0.6	333	10
2023-08-06T12:00	2347	756	1.0	0.6	333	10
2023-08-06T12:00	2367	754	0.9	0.4	334	9
2023-08-06T12:00	2385	752	0.8	0.4	335	9
2023-08-06T12:00	2404	750	0.7	0.4	337	10
2023-08-06T12:00	2421	749	0.6	0.3	338	10
2023-08-06T12:00	2439	747	0.4	0.2	339	10
2023-08-06T12:00	2456	746	0.3	0.2	339	10
2023-08-06T12:00	2472	744	0.3	0.2	338	10
2023-08-06T12:00	2490	742	0.2	0.1	335	10
2023-08-06T12:00	2506	741	0.2	0.1	331	10
2023-08-06T12:00	2523	739	0.2	0.0	328	10
2023-08-06T12:00	2542	738	0.1	0.1	327	10
2023-08-06T12:00	2559	736	0.0	0.0	328	11
2023-08-06T12:00	2577	734	-0.1	-0.1	329	11
2023-08-06T12:00	2602	732	-0.2	-0.2	332	11
2023-08-06T12:00	2624	730	-0.2	-0.2	334	11
2023-08-06T12:00	2649	728	-0.2	-0.2	335	11
2023-08-06T12:00	2669	726	-0.2	-0.2	336	10
2023-08-06T12:00	2691	724	-0.1	-0.1	337	10
2023-08-06T12:00	2710	722	-0.1	-0.1	338	10
2023-08-06T12:00	2730	720	-0.1	-0.1	339	10
2023-08-06T12:00	2749	719	-0.3	-0.3	340	9
2023-08-06T12:00	2773	717	-0.3	-0.3	340	9
2023-08-06T12:00	2789	715	-0.4	-0.4	338	9
2023-08-06T12:00	2811	713	-0.4	-0.4	336	9
2023-08-06T12:00	2834	711	-0.6	-0.6	334	9
2023-08-06T12:00	2856	709	-0.7	-0.7	332	9
2023-08-06T12:00	2876	707	-0.8	-0.8	332	9
2023-08-06T12:00	2900	705	-0.9	-0.9	332	9
2023-08-06T12:00	2921	703	-1.0	-1.0	333	9
2023-08-06T12:00	2943	702	-1.0	-1.0	335	9
2023-08-06T12:00	2961	700	-1.1	-1.1	336	9
2023-08-06T12:00	2983	698	-1.2	-1.2	337	8
2023-08-06T12:00	3003	696	-1.4	-1.4	338	8
2023-08-06T12:00	3023	695	-1.5	-1.6	339	9
2023-08-06T12:00	3042	693	-1.5	-1.6	340	9
2023-08-06T12:00	3063	691	-1.6	-1.7	340	9
2023-08-06T12:00	3086	689	-1.7	-1.8	340	9
2023-08-06T12:00	3110	687	-1.8	-1.9	341	9
2023-08-06T12:00	3130	685	-1.9	-2.1	341	9
2023-08-06T12:00	3152	683	-1.9	-2.1	342	9
2023-08-06T12:00	3174	681	-2.1	-2.3	344	8
2023-08-06T12:00	3193	680	-2.2	-2.3	345	8
2023-08-06T12:00	3215	678	-2.3	-2.4	346	8
2023-08-06T12:00	3237	676	-2.4	-2.5	346	8
2023-08-06T12:00	3262	674	-2.5	-2.6	346	9
2023-08-06T12:00	3284	672	-2.6	-2.7	346	9
2023-08-06T12:00	3309	670	-2.7	-2.8	347	9
2023-08-06T12:00	3331	668	-2.8	-3.0	349	9
2023-08-06T12:00	3348	667	-2.9	-3.1	350	9
2023-08-06T12:00	3373	665	-3.0	-3.3	352	9
2023-08-06T12:00	3394	663	-3.1	-3.3	353	9
2023-08-06T12:00	3417	661	-3.2	-3.5	353	8
2023-08-06T12:00	3437	659	-3.2	-3.4	354	8
2023-08-06T12:00	3461	657	-3.3	-3.5	356	8
2023-08-06T12:00	3485	655	-3.5	-3.7	358	8
2023-08-06T12:00	3507	653	-3.7	-3.9	1	8
2023-08-06T12:00	3529	652	-3.8	-4.0	4	8
2023-08-06T12:00	3553	650	-3.9	-3.9	6	7
2023-08-06T12:00	3576	648	-4.0	-4.0	9	7
2023-08-06T12:00	3599	646	-4.0	-4.0	12	7
2023-08-06T12:00	3622	644	-4.1	-4.2	16	6
2023-08-06T12:00	3638	643	-4.1	-4.1	19	6
2023-08-06T12:00	3655	641	-4.1	-4.2	20	6
2023-08-06T12:00	3673	640	-4.2	-4.3	18	5
2023-08-06T12:00	3696	638	-4.2	-4.3	13	4
2023-08-06T12:00	3716	636	-4.2	-4.4	9	3
2023-08-06T12:00	3733	635	-4.3	-4.6	10	3
2023-08-06T12:00	3753	633	-4.4	-4.7	18	3
2023-08-06T12:00	3776	632	-4.4	-4.8	29	3
2023-08-06T12:00	3797	630	-4.5	-4.8	39	3
2023-08-06T12:00	3818	628	-4.7	-4.9	48	3
2023-08-06T12:00	3839	627	-4.8	-4.9	54	3
2023-08-06T12:00	3863	625	-4.9	-5.0	55	3
2023-08-06T12:00	3884	623	-5.1	-5.2	49	3
2023-08-06T12:00	3906	621	-5.1	-5.2	39	3
2023-08-06T12:00	3928	620	-4.9	-5.1	29	3
2023-08-06T12:00	3947	618	-4.8	-5.0	20	3
2023-08-06T12:00	3971	616	-4.9	-5.1	12	3
2023-08-06T12:00	3991	615	-5.0	-5.3	4	3
2023-08-06T12:00	4011	613	-5.0	-5.3	357	3
2023-08-06T12:00	4030	611	-5.0	-5.3	351	3
2023-08-06T12:00	4055	610	-5.2	-5.5	344	3
2023-08-06T12:00	4078	608	-5.2	-5.5	338	3
2023-08-06T12:00	4100	606	-5.4	-5.8	330	3
2023-08-06T12:00	4121	605	-5.5	-5.9	322	3
2023-08-06T12:00	4144	603	-5.6	-6.0	315	3
2023-08-06T12:00	4164	601	-5.6	-6.0	309	3
2023-08-06T12:00	4185	600	-5.7	-6.2	305	3
2023-08-06T12:00	4208	598	-5.9	-6.3	302	4
2023-08-06T12:00	4228	596	-6.1	-6.5	301	4
2023-08-06T12:00	4247	595	-6.2	-6.6	302	4
2023-08-06T12:00	4270	593	-6.3	-6.8	303	4
2023-08-06T12:00	4288	592	-6.5	-6.9	305	4
2023-08-06T12:00	4310	590	-6.6	-7.1	304	3
2023-08-06T12:00	4335	588	-6.8	-7.3	301	3
2023-08-06T12:00	4356	587	-6.8	-7.3	296	3
2023-08-06T12:00	4378	585	-6.9	-7.4	291	3
2023-08-06T12:00	4404	583	-7.0	-7.6	289	3
2023-08-06T12:00	4430	581	-7.1	-7.6	290	2
2023-08-06T12:00	4454	579	-7.3	-7.9	294	2
2023-08-06T12:00	4475	578	-7.3	-7.9	298	2
2023-08-06T12:00	4502	576	-7.4	-8.0	300	2
2023-08-06T12:00	4528	574	-7.6	-8.3	298	2
2023-08-06T12:00	4553	572	-7.7	-8.4	294	3
2023-08-06T12:00	4576	570	-7.8	-8.6	289	3
2023-08-06T12:00	4598	569	-7.9	-8.6	285	3
2023-08-06T12:00	4618	567	-8.1	-8.8	281	4
2023-08-06T12:00	4638	566	-8.2	-8.9	279	4
2023-08-06T12:00	4664	564	-8.4	-9.2	276	4
2023-08-06T12:00	4686	562	-8.6	-9.4	275	4
2023-08-06T12:00	4712	561	-8.7	-9.5	275	3
2023-08-06T12:00	4731	559	-8.8	-9.6	278	3
2023-08-06T12:00	4759	557	-8.9	-9.7	283	2
2023-08-06T12:00	4782	555	-9.0	-9.9	299	1
2023-08-06T12:00	4804	554	-9.0	-9.9	347	0
2023-08-06T12:00	4828	552	-9.1	-9.9	56	0
2023-08-06T12:00	4852	550	-9.0	-9.8	136	0
2023-08-06T12:00	4881	548	-9.0	-9.8	212	1
2023-08-06T12:00	4904	547	-9.0	-9.8	228	1
2023-08-06T12:00	4926	545	-9.1	-9.9	233	2
2023-08-06T12:00	4949	544	-9.1	-10.0	234	2
2023-08-06T12:00	4966	542	-9.2	-10.1	227	1
2023-08-06T12:00	4991	541	-9.3	-10.2	213	1
2023-08-06T12:00	5014	539	-9.5	-10.5	202	1
2023-08-06T12:00	5042	537	-9.6	-10.6	203	2
2023-08-06T12:00	5068	535	-9.7		211	2
2023-08-06T12:00	5091	534	-9.8	-10.9	217	3
2023-08-06T12:00	5113	532	-9.9	-11.0	221	3
2023-08-06T12:00	5132	531	-10.1	-11.2	221	4
2023-08-06T12:00	5157	529	-10.2	-11.3	219	4
2023-08-06T12:00	5183	527	-10.3	-11.5	218	5
2023-08-06T12:00	5208	526	-10.4	-11.6	217	6
2023-08-06T12:00	5234	524	-10.6	-11.8	217	6
2023-08-06T12:00	5256	522	-10.7	-11.9	216	7
2023-08-06T12:00	5282	521	-10.9	-12.1	215	7
2023-08-06T12:00	5307	519	-11.1	-12.4	213	7
2023-08-06T12:00	5328	517	-11.2	-12.5	211	7
2023-08-06T12:00	5352	516	-11.2	-12.6	209	7
2023-08-06T12:00	5378	514	-11.4	-12.8	208	7
2023-08-06T12:00	5406	512	-11.6	-12.9	208	7
2023-08-06T12:00	5428	511	-11.6	-13.0	209	7
2023-08-06T12:00	5453	509	-11.7	-13.1	209	7
2023-08-06T12:00	5479	508	-11.8	-13.2	208	7
2023-08-06T12:00	5498	506	-11.8	-13.2	204	6
2023-08-06T12:00	5519	505	-12.0	-13.3	194	5
2023-08-06T12:00	5540	503	-12.1	-13.4	178	5
2023-08-06T12:00	5563	502	-12.3		163	5
2023-08-06T12:00	5583	501	-12.4	-13.5	154	6
2023-08-06T12:00	5601	499	-12.5	-13.6	151	7
2023-08-06T12:00	5623	498	-12.6	-13.7	150	8
2023-08-06T12:00	5646	496	-12.7	-13.9	150	8
2023-08-06T12:00	5669	495	-12.7	-14.0	150	8
2023-08-06T12:00	5696	493	-12.6	-13.8	149	8
2023-08-06T12:00	5718	492	-12.7	-14.0	148	8
2023-08-06T12:00	5737	490	-12.8	-14.0	146	8
2023-08-06T12:00	5764	489	-12.9	-14.0	142	8
2023-08-06T12:00	5785	488	-13.0	-14.1	137	9
2023-08-06T12:00	5809	486	-13.1	-14.3	132	9
2023-08-06T12:00	5832	485	-13.1		129	11
2023-08-06T12:00	5850	483	-13.1	-14.2	128	12
2023-08-06T12:00	5871	482	-13.2	-14.3	128	13
2023-08-06T12:00	5894	481	-13.3	-14.5	130	14
2023-08-06T12:00	5915	479	-13.4	-14.6	133	15
2023-08-06T12:00	5940	478	-13.5	-14.7	135	16
2023-08-06T12:00	5962	476	-13.5	-14.7	137	16
2023-08-06T12:00	5983	475	-13.6	-14.8	139	16
2023-08-06T12:00	6002	474	-13.7	-14.9	140	16
2023-08-06T12:00	6024	473	-13.7	-14.8	141	16
2023-08-06T12:00	6042	471	-13.8	-15.0	140	17
2023-08-06T12:00	6064	470	-13.9	-15.0	139	17
2023-08-06T12:00	6090	468	-14.0	-15.1	137	18
2023-08-06T12:00	6111	467	-14.1	-15.2	134	19
2023-08-06T12:00	6132	466	-14.1	-15.2	132	20
2023-08-06T12:00	6153	464	-14.2	-15.3	129	21
2023-08-06T12:00	6179	463	-14.3	-15.3	127	21
2023-08-06T12:00	6203	462	-14.4	-15.4	125	21
2023-08-06T12:00	6224	460	-14.6	-15.6	124	21
2023-08-06T12:00	6246	459	-14.7	-15.7	122	21
2023-08-06T12:00	6267	458	-14.8	-15.8	121	20
2023-08-06T12:00	6286	456	-14.9	-15.8	121	19
2023-08-06T12:00	6311	455	-15.0	-16.0	122	18
2023-08-06T12:00	6332	454	-15.1	-16.1	123	18
2023-08-06T12:00	6351	452	-15.3	-16.3	125	18
2023-08-06T12:00	6371	451	-15.4	-16.4	127	19
2023-08-06T12:00	6392	450	-15.5	-16.5	129	20
2023-08-06T12:00	6412	449	-15.6	-16.7	129	21
2023-08-06T12:00	6433	448	-15.7	-16.8	128	22
2023-08-06T12:00	6452	446	-15.9	-17.0	127	22
2023-08-06T12:00	6476	445	-16.0	-17.2	125	22
2023-08-06T12:00	6500	444	-16.1	-17.2	124	21
2023-08-06T12:00	6523	442	-16.2	-17.3	125	20
2023-08-06T12:00	6548	441	-16.3	-17.5	127	20
2023-08-06T12:00	6571	440	-16.4	-17.6	130	19
2023-08-06T12:00	6591	438	-16.5	-17.7	133	19
2023-08-06T12:00	6614	437	-16.6	-17.7	135	20
2023-08-06T12:00	6639	436	-16.7	-17.9	136	20
2023-08-06T12:00	6663	434	-16.9	-18.1	135	21
2023-08-06T12:00	6687	433	-17.0	-18.2	135	21
2023-08-06T12:00	6708	431	-17.2	-18.3	135	21
2023-08-06T12:00	6734	430	-17.3	-18.5	136	21
2023-08-06T12:00	6759	429	-17.5	-18.6	138	20
2023-08-06T12:00	6780	427	-17.6	-18.8	140	20
2023-08-06T12:00	6801	426	-17.7	-18.9	142	20
2023-08-06T12:00	6824	425	-17.9	-19.1	144	20
2023-08-06T12:00	6843	424	-18.0	-19.2	146	20
2023-08-06T12:00	6863	423	-18.1	-19.3	146	21
2023-08-06T12:00	6889	421	-18.3	-19.6	147	21
2023-08-06T12:00	6910	420	-18.4	-19.6	147	21
2023-08-06T12:00	6933	419	-18.5	-19.7	148	22
2023-08-06T12:00	6954	418	-18.6	-19.8	147	22
2023-08-06T12:00	6974	416	-18.7	-20.0	147	22
2023-08-06T12:00	6996	415	-18.9	-20.2	145	23
2023-08-06T12:00	7017	414	-19.0	-20.3	144	24
2023-08-06T12:00	7040	413	-19.2	-20.5	143	24
2023-08-06T12:00	7065	411	-19.3	-20.7	142	24
2023-08-06T12:00	7091	410	-19.4	-20.8	141	24
2023-08-06T12:00	7110	409	-19.6	-21.0	140	24
2023-08-06T12:00	7132	408	-19.8	-21.1	140	24
2023-08-06T12:00	7158	406	-19.9	-21.4	139	23
2023-08-06T12:00	7183	405	-20.1	-21.5	138	22
2023-08-06T12:00	7201	404	-20.2	-21.6	137	22
2023-08-06T12:00	7222	403	-20.4	-21.8	135	22
2023-08-06T12:00	7247	402	-20.5	-22.0	133	22
2023-08-06T12:00	7268	400	-20.6	-22.2	133	23
2023-08-06T12:00	7289	399	-20.7	-22.2	133	24
2023-08-06T12:00	7308	398	-20.9	-22.4	133	25
2023-08-06T12:00	7330	397	-21.0	-22.6	135	26
2023-08-06T12:00	7349	396	-21.1	-22.6	137	26
2023-08-06T12:00	7369	395	-21.3	-22.8	139	26
2023-08-06T12:00	7389	394	-21.4	-22.9	141	26
2023-08-06T12:00	7407	393	-21.6	-23.1	143	26
2023-08-06T12:00	7431	392	-21.7	-23.4	144	26
2023-08-06T12:00	7451	391	-21.9	-23.5	145	25
2023-08-06T12:00	7470	390	-22.0	-23.6	145	25
2023-08-06T12:00	7489	388	-22.1	-23.7	145	26
2023-08-06T12:00	7511	387	-22.3	-23.9	145	26
2023-08-06T12:00	7530	386	-22.4	-24.1	145	26
2023-08-06T12:00	7550	385	-22.5	-24.2	144	26
2023-08-06T12:00	7570	384	-22.7	-24.3	144	25
2023-08-06T12:00	7588	383	-22.8	-24.4	144	25
2023-08-06T12:00	7607	382	-23.0	-24.5	144	25
2023-08-06T12:00	7633	381	-23.2	-24.8	144	24
2023-08-06T12:00	7654	380	-23.3	-25.0	143	24
2023-08-06T12:00	7672	379	-23.4	-25.0	142	24
2023-08-06T12:00	7694	378	-23.6	-25.2	141	24
2023-08-06T12:00	7719	377	-23.7	-25.3	139	25
2023-08-06T12:00	7739	376	-23.9	-25.5	138	25
2023-08-06T12:00	7761	374	-24.1	-25.5	137	25
2023-08-06T12:00	7782	373	-24.2	-25.8	136	25
2023-08-06T12:00	7805	372	-24.4	-26.0	137	26
2023-08-06T12:00	7828	371	-24.5	-26.4	137	26
2023-08-06T12:00	7852	370	-24.7	-26.4	138	25
2023-08-06T12:00	7873	369	-24.9	-26.7	138	25
2023-08-06T12:00	7893	368	-25.0	-26.8	138	25
2023-08-06T12:00	7912	367	-25.2	-27.0	138	25
2023-08-06T12:00	7934	366	-25.3	-27.0	138	26
2023-08-06T12:00	7958	364	-25.5	-27.4	138	26
2023-08-06T12:00	7981	363	-25.6	-27.5	138	26
2023-08-06T12:00	8006	362	-25.8	-27.5	139	27
2023-08-06T12:00	8031	361	-26.0	-27.9	140	27
2023-08-06T12:00	8057	359	-26.2	-28.1	141	28
2023-08-06T12:00	8077	358	-26.3	-28.2	142	28
2023-08-06T12:00	8095	358	-26.5	-28.3	143	28
2023-08-06T12:00	8115	356	-26.7	-28.5	143	28
2023-08-06T12:00	8142	355	-26.8	-28.6	143	28
2023-08-06T12:00	8164	354	-27.0	-29.0	143	28
2023-08-06T12:00	8187	353	-27.2	-29.0	143	28
2023-08-06T12:00	8203	352	-27.4	-29.3	143	27
2023-08-06T12:00	8224	351	-27.5	-29.4	142	27
2023-08-06T12:00	8241	350	-27.6	-29.5	141	27
2023-08-06T12:00	8260	349	-27.8	-29.7	139	27
2023-08-06T12:00	8283	348	-28.0	-29.9	137	27
2023-08-06T12:00	8302	347	-28.1	-30.2	136	28
2023-08-06T12:00	8329	346	-28.3	-30.3	135	29
2023-08-06T12:00	8352	345	-28.5	-30.5	135	29
2023-08-06T12:00	8373	344	-28.6	-30.6	135	30
2023-08-06T12:00	8392	343	-28.8	-30.8	134	31
2023-08-06T12:00	8417	342	-29.0	-31.0	134	31
2023-08-06T12:00	8438	341	-29.1	-31.2	133	31
2023-08-06T12:00	8456	340	-29.3	-31.3	133	30
2023-08-06T12:00	8477	339	-29.4	-31.4	132	30
2023-08-06T12:00	8498	338	-29.6	-31.7	132	29
2023-08-06T12:00	8522	337	-29.8	-31.9	133	28
2023-08-06T12:00	8544	336	-30.0	-32.0	134	28
2023-08-06T12:00	8564	335	-30.1	-32.1	136	27
2023-08-06T12:00	8588	334	-30.3	-32.4	138	27
2023-08-06T12:00	8611	333	-30.5	-32.6	140	27
2023-08-06T12:00	8630	332	-30.7	-32.8	141	27
2023-08-06T12:00	8649	331	-30.8	-32.9	143	28
2023-08-06T12:00	8670	330	-31.0	-33.1	143	28
2023-08-06T12:00	8689	329	-31.2	-33.4	143	28
2023-08-06T12:00	8708	328	-31.3	-33.4	143	28
2023-08-06T12:00	8731	327	-31.5	-33.7	143	27
2023-08-06T12:00	8752	326	-31.7	-33.8	143	27
2023-08-06T12:00	8772	325	-31.9	-34.1	142	27
2023-08-06T12:00	8792	324	-32.0	-34.2	142	27
2023-08-06T12:00	8813	323	-32.2	-34.4	140	27
2023-08-06T12:00	8840	322	-32.4	-34.7	139	27
2023-08-06T12:00	8867	321	-32.6	-35.0	139	27
2023-08-06T12:00	8891	320	-32.8	-35.2	138	27
2023-08-06T12:00	8912	319	-33.0	-35.4	138	27
2023-08-06T12:00	8931	318	-33.2	-35.5	138	27
2023-08-06T12:00	8958	317	-33.4	-35.9	138	27
2023-08-06T12:00	8983	316	-33.6	-36.1	137	28
2023-08-06T12:00	9007	315	-33.8	-36.3	137	29
2023-08-06T12:00	9028	314	-34.0	-36.5	137	30
2023-08-06T12:00	9050	313	-34.2	-36.6	137	30
2023-08-06T12:00	9077	311	-34.4	-36.9	138	31
2023-08-06T12:00	9103	310	-34.6	-37.1	139	31
2023-08-06T12:00	9129	309	-34.8	-37.1	140	31
2023-08-06T12:00	9152	308	-35.0	-37.4	140	32
2023-08-06T12:00	9178	307	-35.2	-37.5	139	32
2023-08-06T12:00	9205	306	-35.5	-37.8	138	32
2023-08-06T12:00	9227	305	-35.7	-38.0	137	32
2023-08-06T12:00	9248	304	-35.9	-38.1	136	32
2023-08-06T12:00	9272	303	-36.1	-38.3	137	32
2023-08-06T12:00	9291	302	-36.2	-38.4	138	32
2023-08-06T12:00	9318	301	-36.5	-38.7	140	32
2023-08-06T12:00	9342	300	-36.7	-39.1	142	32
2023-08-06T12:00	9363	299	-36.8	-39.1	143	32
2023-08-06T12:00	9383	298	-37.0	-39.3	143	32
2023-08-06T12:00	9404	297	-37.2	-39.4	143	32
2023-08-06T12:00	9430	296	-37.4	-39.7	141	32
2023-08-06T12:00	9452	295	-37.6	-39.8	139	32
2023-08-06T12:00	9478	294	-37.8	-39.9	138	32
2023-08-06T12:00	9499	293	-38.0	-40.2	136	31
2023-08-06T12:00	9521	292	-38.2	-40.5	135	31
2023-08-06T12:00	9541	291	-38.3	-40.7	134	31
2023-08-06T12:00	9561	290	-38.5	-40.8	134	31
2023-08-06T12:00	9584	289	-38.7	-41.1	134	31
2023-08-06T12:00	9604	289	-38.9	-41.3	134	32
2023-08-06T12:00	9622	288	-39.1	-41.4	135	33
2023-08-06T12:00	9643	287	-39.3	-41.6	137	33
2023-08-06T12:00	9667	286	-39.5	-41.8	138	33
2023-08-06T12:00	9688	285	-39.6	-41.9	139	33
2023-08-06T12:00	9707	284	-39.8	-42.1	140	32
2023-08-06T12:00	9732	283	-40.0	-42.4	140	31
2023-08-06T12:00	9754	282	-40.2	-42.9	140	30
2023-08-06T12:00	9773	282	-40.4	-43.0	138	30
2023-08-06T12:00	9800	281	-40.6	-43.2	137	30
2023-08-06T12:00	9823	280	-40.9	-43.6	136	31
2023-08-06T12:00	9844	279	-41.1	-43.7	135	32
2023-08-06T12:00	9866	278	-41.2		136	33
2023-08-06T12:00	9884	277	-41.4	-43.9	137	33
2023-08-06T12:00	9906	276	-41.6	-44.2	139	33
2023-08-06T12:00	9928	275	-41.8	-44.5	140	33
2023-08-06T12:00	9949	274	-42.0	-44.8	141	33
2023-08-06T12:00	9970	273	-42.2	-44.9	141	32
2023-08-06T12:00	9995	272	-42.4	-45.0	140	31
2023-08-06T12:00	10021	271	-42.7	-45.3	138	31
2023-08-06T12:00	10042	271	-42.9	-45.6	137	31
2023-08-06T12:00	10064	270	-43.1	-45.7	136	32
2023-08-06T12:00	10086	269	-43.3	-46.1	136	33
2023-08-06T12:00	10108	268	-43.5	-46.4	137	33
2023-08-06T12:00	10130	267	-43.7	-46.6	138	34
2023-08-06T12:00	10155	266	-43.9	-46.7	140	34
2023-08-06T12:00	10179	265	-44.1	-46.8	141	34
2023-08-06T12:00	10198	264	-44.3	-46.8	142	34
2023-08-06T12:00	10219	264	-44.5	-47.2	142	34
2023-08-06T12:00	10243	263	-44.7	-47.5	142	34
2023-08-06T12:00	10262	262	-44.9	-47.6	142	34
2023-08-06T12:00	10283	261	-45.1	-47.9	142	34
2023-08-06T12:00	10305	260	-45.3	-48.2	142	34
2023-08-06T12:00	10332	259	-45.5	-48.4	142	34
2023-08-06T12:00	10356	258	-45.7	-48.5	142	35
2023-08-06T12:00	10382	257	-46.0	-48.6	142	35
2023-08-06T12:00	10403	256	-46.2	-48.7	142	35
2023-08-06T12:00	10425	256	-46.4	-48.8	142	35
2023-08-06T12:00	10446	255	-46.6	-49.0	143	35
2023-08-06T12:00	10468	254	-46.8	-49.2	143	34
2023-08-06T12:00	10488	253	-47.0	-49.6	143	34
2023-08-06T12:00	10511	252	-47.2	-49.9	142	33
2023-08-06T12:00	10540	251	-47.5	-50.1	140	32
2023-08-06T12:00	10564	250	-47.7	-50.6	138	32
2023-08-06T12:00	10587	249	-47.9	-50.9	137	32
2023-08-06T12:00	10609	249	-48.2	-51.3	136	31
2023-08-06T12:00	10630	248	-48.4	-51.7	136	31
2023-08-06T12:00	10648	247	-48.6	-52.0	136	31
2023-08-06T12:00	10668	246	-48.8	-52.1	137	31
2023-08-06T12:00	10690	245	-49.0	-52.1	138	31
2023-08-06T12:00	10716	245	-49.2	-52.5	138	31
2023-08-06T12:00	10737	244	-49.4	-52.9	139	31
2023-08-06T12:00	10758	243	-49.6	-53.0	138	31
2023-08-06T12:00	10782	242	-49.8	-53.0	137	31
2023-08-06T12:00	10804	241	-50.0	-53.3	136	31
2023-08-06T12:00	10827	240	-50.3	-53.8	136	32
2023-08-06T12:00	10850	240	-50.5	-54.1	136	33
2023-08-06T12:00	10872	239	-50.7	-54.3	138	33
2023-08-06T12:00	10894	238	-50.9	-54.4	139	34
2023-08-06T12:00	10918	237	-51.1	-54.7	141	34
2023-08-06T12:00	10943	236	-51.4	-55.3	142	35
2023-08-06T12:00	10964	235	-51.6	-55.8	143	35
2023-08-06T12:00	10983	235	-51.8	-55.9	144	36
2023-08-06T12:00	11003	234	-52.0	-55.7	145	35
2023-08-06T12:00	11021	233	-52.1	-55.7	145	35
2023-08-06T12:00	11046	232	-52.4	-56.0	146	34
2023-08-06T12:00	11072	232	-52.6	-56.3	146	33
2023-08-06T12:00	11098	231	-52.7	-56.4	145	32
2023-08-06T12:00	11117	230	-52.8	-56.5	144	32
2023-08-06T12:00	11139	229	-53.0	-56.6	142	33
2023-08-06T12:00	11159	228	-53.1	-56.8	141	34
2023-08-06T12:00	11183	228	-53.2	-57.0	141	35
2023-08-06T12:00	11209	227	-53.4	-57.2	140	36
2023-08-06T12:00	11232	226	-53.6	-57.4	141	37
2023-08-06T12:00	11258	225	-53.8	-57.3	141	37
2023-08-06T12:00	11286	224	-54.0	-57.2	142	37
2023-08-06T12:00	11309	223	-54.2	-57.2	143	36
2023-08-06T12:00	11335	222	-54.3	-57.2	143	36
2023-08-06T12:00	11358	221	-54.5	-57.3	143	35
2023-08-06T12:00	11380	221	-54.7	-57.5	144	34
2023-08-06T12:00	11406	220	-54.7	-57.6	144	33
2023-08-06T12:00	11433	219	-54.8	-57.5	144	32
2023-08-06T12:00	11455	218	-54.8	-56.7	144	32
2023-08-06T12:00	11475	217	-54.6	-56.2	144	32
2023-08-06T12:00	11499	217	-54.1	-57.5	144	32
2023-08-06T12:00	11524	216	-53.3	-61.5	144	32
2023-08-06T12:00	11551	215	-51.9	-67.8	144	31
2023-08-06T12:00	11571	214	-51.5	-73.8	144	31
2023-08-06T12:00	11589	214	-50.8	-74.2	144	31
2023-08-06T12:00	11613	213	-50.3	-73.1	144	30
2023-08-06T12:00	11630	212	-50.4	-72.2	145	30
2023-08-06T12:00	11650	212	-50.4	-72.6	146	30
2023-08-06T12:00	11676	211	-50.0	-74.4	148	30
2023-08-06T12:00	11700	210	-49.4	-77.0	151	30
2023-08-06T12:00	11722	209	-48.6	-78.5	153	30
2023-08-06T12:00	11744	209	-48.5	-78.4	156	30
2023-08-06T12:00	11774	208	-47.8	-77.5	158	30
2023-08-06T12:00	11800	207	-47.4	-76.8	159	31
2023-08-06T12:00	11823	206	-47.1	-76.2	160	30
2023-08-06T12:00	11847	205	-46.9	-76.1	161	30
2023-08-06T12:00	11872	205	-47.1	-76.2	162	29
2023-08-06T12:00	11892	204	-47.0	-76.1	164	29
2023-08-06T12:00	11921	203	-47.1	-76.2	166	28
2023-08-06T12:00	11941	202	-47.0	-76.1	167	27
2023-08-06T12:00	11963	202	-47.0	-76.1	168	26
2023-08-06T12:00	11991	201	-47.1	-76.6	167	25
2023-08-06T12:00	12018	200	-47.0	-76.5	166	24
2023-08-06T12:00	12047	199	-47.0	-76.9	165	24
2023-08-06T12:00	12074	198	-47.0	-77.3	164	23
2023-08-06T12:00	12098	198	-47.0	-77.3	163	23
2023-08-06T12:00	12123	197	-47.0	-77.3	163	23
2023-08-06T12:00	12147	196	-46.9	-77.2	163	23
2023-08-06T12:00	12167	196	-47.0	-77.3	164	23
2023-08-06T12:00	12186	195	-46.9	-77.6	165	23
2023-08-06T12:00	12208	194	-46.8	-78.0	165	22
2023-08-06T12:00	12235	194	-46.3	-77.7	166	22
2023-08-06T12:00	12259	193	-46.1	-77.5	166	22
2023-08-06T12:00	12283	192	-46.3	-77.7	166	22
2023-08-06T12:00	12307	192	-46.5	-77.8	165	21
2023-08-06T12:00	12331	191	-46.7	-78.0	165	21
2023-08-06T12:00	12358	190	-46.6	-77.9	165	21
2023-08-06T12:00	12386	189	-46.6	-77.9	165	21
2023-08-06T12:00	12411	189	-46.4	-77.7	166	21
2023-08-06T12:00	12434	188	-46.2	-77.6	167	21
2023-08-06T12:00	12455	187	-46.0	-77.9	167	20
2023-08-06T12:00	12479	187	-46.0	-77.9	167	20
2023-08-06T12:00	12505	186	-45.9	-77.9	167	20
2023-08-06T12:00	12533	185	-45.8	-77.8	166	20
2023-08-06T12:00	12559	184	-45.7	-77.7	166	20
2023-08-06T12:00	12590	184	-45.8	-77.3	165	20
2023-08-06T12:00	12614	183	-45.9	-77.4	165	19
2023-08-06T12:00	12636	182	-46.0	-77.4	164	19
2023-08-06T12:00	12656	182	-45.9	-77.4	163	18
2023-08-06T12:00	12676	181	-46.0	-77.4	163	17
2023-08-06T12:00	12699	181	-45.9	-77.4	162	17
2023-08-06T12:00	12720	180	-46.0	-77.4	163	16
2023-08-06T12:00	12743	179	-46.1	-77.0	163	16
2023-08-06T12:00	12764	179	-46.1	-76.6	164	16
2023-08-06T12:00	12788	178	-46.2	-76.7	164	16
2023-08-06T12:00	12807	178	-46.0	-76.5	164	17
2023-08-06T12:00	12833	177	-46.0	-77.0	163	17
2023-08-06T12:00	12854	176	-45.9	-76.9	163	18
2023-08-06T12:00	12874	176	-45.8	-77.3	163	18
2023-08-06T12:00	12894	175	-46.0	-77.4	163	18
2023-08-06T12:00	12917	175	-46.1	-77.5	163	18
2023-08-06T12:00	12937	174	-46.2	-77.6	163	18
2023-08-06T12:00	12960	174	-46.1	-77.5	163	18
2023-08-06T12:00	12982	173	-45.8	-77.3	163	17
2023-08-06T12:00	13005	173	-45.7	-77.2	163	17
2023-08-06T12:00	13023	172	-45.7	-77.2	164	17
2023-08-06T12:00	13045	171	-45.6	-77.6	164	17
2023-08-06T12:00	13065	171	-45.4	-77.5	164	17
2023-08-06T12:00	13093	170	-45.2	-77.3	164	17
2023-08-06T12:00	13116	170	-45.1	-77.8	164	17
2023-08-06T12:00	13136	169	-45.2	-77.9	164	17
2023-08-06T12:00	13157	169	-45.0	-77.7	164	17
2023-08-06T12:00	13184	168	-45.2	-77.9	166	18
2023-08-06T12:00	13213	167	-45.0	-78.3	169	18
2023-08-06T12:00	13239	167	-44.7	-78.1	172	18
2023-08-06T12:00	13273	166	-44.4	-77.9	176	18
2023-08-06T12:00	13294	165	-44.5	-78.0	179	18
2023-08-06T12:00	13317	165	-44.4	-77.9	181	18
2023-08-06T12:00	13340	164	-44.5	-78.0	182	18
2023-08-06T12:00	13370	163	-44.5	-77.4	183	17
2023-08-06T12:00	13397	163	-44.4	-77.3	183	17
2023-08-06T12:00	13418	162	-44.2	-77.1	183	16
2023-08-06T12:00	13440	162	-44.4	-77.3	183	16
2023-08-06T12:00	13464	161	-44.6	-77.4	183	15
2023-08-06T12:00	13493	160	-44.9	-77.7	182	15
2023-08-06T12:00	13521	160	-45.0	-77.7	181	14
2023-08-06T12:00	13546	159	-45.0	-77.7	181	14
2023-08-06T12:00	13567	159	-45.0	-77.7	180	14
2023-08-06T12:00	13593	158	-45.1	-77.8	179	13
2023-08-06T12:00	13618	157	-45.1	-77.8	179	13
2023-08-06T12:00	13645	157	-45.3	-78.0	178	13
2023-08-06T12:00	13672	156	-45.5	-78.1	178	13
2023-08-06T12:00	13699	156	-45.8	-78.3	178	12
2023-08-06T12:00	13719	155	-45.9	-78.4	179	12
2023-08-06T12:00	13742	154	-46.2	-78.6	181	12
2023-08-06T12:00	13764	154	-46.4	-78.8	183	11
2023-08-06T12:00	13787	153	-46.4	-78.8	184	11
2023-08-06T12:00	13812	153	-46.3	-78.7	185	10
2023-08-06T12:00	13833	152	-46.3	-78.7	184	10
2023-08-06T12:00	13858	152	-46.4	-78.8	183	10
2023-08-06T12:00	13882	151	-46.4	-78.8	181	10
2023-08-06T12:00	13904	151	-46.3	-78.7	178	10
2023-08-06T12:00	13931	150	-46.4	-78.8	175	11
2023-08-06T12:00	13959	150	-46.4	-78.8	172	11
2023-08-06T12:00	13986	149	-46.4	-78.8	169	11
2023-08-06T12:00	14008	148	-46.6	-78.4	167	11
2023-08-06T12:00	14028	148	-46.8	-78.5	165	12
2023-08-06T12:00	14050	147	-46.7	-78.4	164	12
2023-08-06T12:00	14074	147	-46.4	-78.2	163	12
2023-08-06T12:00	14100	146	-46.6	-78.4	162	13
2023-08-06T12:00	14127	146	-46.7	-78.4	162	13
2023-08-06T12:00	14148	145	-46.8	-78.5	162	14
2023-08-06T12:00	14165	145	-46.9	-78.6	161	14
2023-08-06T12:00	14186	144	-46.8	-78.5	161	14
2023-08-06T12:00	14209	144	-46.8	-79.1	161	15
2023-08-06T12:00	14234	143	-47.0	-79.2	162	15
2023-08-06T12:00	14255	143	-47.0	-79.2	163	15
2023-08-06T12:00	14274	143	-47.1	-79.3	165	15
2023-08-06T12:00	14296	142	-47.2	-79.4	166	15
2023-08-06T12:00	14319	142	-47.1	-79.3	169	15
2023-08-06T12:00	14339	141	-47.0	-79.2	170	15
2023-08-06T12:00	14362	141	-46.9	-79.1	172	16
2023-08-06T12:00	14390	140	-47.0	-79.2	173	16
2023-08-06T12:00	14412	140	-47.1	-79.3	173	15
2023-08-06T12:00	14433	139	-47.1	-79.3	173	15
2023-08-06T12:00	14460	139	-47.1	-79.3	173	15
2023-08-06T12:00	14481	138	-46.9	-79.1	172	15
2023-08-06T12:00	14502	138	-46.9	-79.1	172	15
2023-08-06T12:00	14526	137	-47.0	-79.2	173	15
2023-08-06T12:00	14548	137	-47.0	-79.2	173	15
2023-08-06T12:00	14566	136	-47.1	-79.3	174	14
2023-08-06T12:00	14587	136	-47.2	-79.4	175	14
2023-08-06T12:00	14605	136	-47.4	-79.5	176	14
2023-08-06T12:00	14625	135	-47.5	-79.6	177	14
2023-08-06T12:00	14646	135	-47.5	-79.6	178	13
2023-08-06T12:00	14667	134	-47.6	-79.6	178	13
2023-08-06T12:00	14685	134	-47.6	-79.6	178	12
2023-08-06T12:00	14707	134	-47.6	-79.6	178	12
2023-08-06T12:00	14727	133	-47.5	-79.6	178	12
2023-08-06T12:00	14751	133	-47.6	-79.6	176	12
2023-08-06T12:00	14771	132	-47.7	-79.7	175	12
2023-08-06T12:00	14795	132	-47.8	-79.8	174	12
2023-08-06T12:00	14816	131	-48.0	-79.9	172	12
2023-08-06T12:00	14839	131	-48.1	-80.0	172	12
2023-08-06T12:00	14863	130	-48.2	-80.1	173	12
2023-08-06T12:00	14884	130	-48.3	-80.2	175	11
2023-08-06T12:00	14907	130	-48.1	-80.0	177	11
2023-08-06T12:00	14930	129	-47.7	-80.3	181	11
2023-08-06T12:00	14953	129	-47.7	-80.3	184	12
2023-08-06T12:00	14972	128	-47.7	-80.3	187	12
2023-08-06T12:00	14993	128	-47.6	-80.2	189	12
2023-08-06T12:00	15015	127	-47.5	-80.2	189	13
2023-08-06T12:00	15035	127	-47.5	-80.2	188	13
2023-08-06T12:00	15057	127	-47.5	-80.2	187	13
2023-08-06T12:00	15080	126	-47.6	-80.9	186	13
2023-08-06T12:00	15102	126	-47.4	-80.7	185	13
2023-08-06T12:00	15125	125	-47.2	-80.6	184	13
2023-08-06T12:00	15151	125	-47.3	-80.6	183	13
2023-08-06T12:00	15173	124	-47.4	-80.7	182	13
2023-08-06T12:00	15195	124	-47.4	-80.7	182	13
2023-08-06T12:00	15216	124	-47.3	-80.6	182	13
2023-08-06T12:00	15236	123	-47.3	-80.6	181	13
2023-08-06T12:00	15260	123	-47.4	-80.7	181	13
2023-08-06T12:00	15283	122	-47.4	-80.7	181	13
2023-08-06T12:00	15302	122	-47.5	-80.8	181	13
2023-08-06T12:00	15323	122	-47.6	-80.9	181	12
2023-08-06T12:00	15345	121	-47.7	-80.9	182	12
2023-08-06T12:00	15368	121	-47.8	-81.0	182	12
2023-08-06T12:00	15388	120	-47.9	-81.1	183	12
2023-08-06T12:00	15409	120	-47.9	-81.1	183	11
2023-08-06T12:00	15431	120	-47.9	-81.1	183	11
2023-08-06T12:00	15451	119	-47.9	-81.1	183	11
2023-08-06T12:00	15472	119	-47.9	-81.1	183	10
2023-08-06T12:00	15491	119	-48.0	-81.2	183	10
2023-08-06T12:00	15511	118	-48.2	-81.3	183	10
2023-08-06T12:00	15532	118	-48.4	-81.4	183	10
2023-08-06T12:00	15552	118	-48.5	-80.9	183	10
2023-08-06T12:00	15572	117	-48.7	-81.0	183	9
2023-08-06T12:00	15594	117	-48.9	-81.2	183	9
2023-08-06T12:00	15614	116	-49.1	-81.3	182	9
2023-08-06T12:00	15637	116	-49.2	-81.4	181	9
2023-08-06T12:00	15659	116	-49.2	-81.4	179	8
2023-08-06T12:00	15678	115	-49.2	-81.4	177	8
2023-08-06T12:00	15699	115	-49.1	-81.3	177	9
2023-08-06T12:00	15721	115	-49.3	-81.5	177	9
2023-08-06T12:00	15742	114	-49.5	-81.6	178	9
2023-08-06T12:00	15765	114	-49.6	-81.7	181	10
2023-08-06T12:00	15786	113	-49.6	-81.7	184	10
2023-08-06T12:00	15809	113	-49.7	-81.8	188	10
2023-08-06T12:00	15831	113	-49.7	-81.8	191	11
2023-08-06T12:00	15851	112	-49.7	-82.4	193	11
2023-08-06T12:00	15874	112	-49.7	-82.4	194	11
2023-08-06T12:00	15898	111	-49.6	-82.3	194	12
2023-08-06T12:00	15918	111	-49.6	-82.3	193	12
2023-08-06T12:00	15941	111	-49.4	-82.2	191	12
2023-08-06T12:00	15962	110	-49.1	-82.0	188	12
2023-08-06T12:00	15986	110	-49.1	-82.7	185	12
2023-08-06T12:00	16008	110	-49.2	-82.0	184	13
2023-08-06T12:00	16029	109	-49.4	-82.2	183	13
2023-08-06T12:00	16049	109	-49.5	-82.3	184	13
2023-08-06T12:00	16070	109	-49.7	-82.4	185	13
2023-08-06T12:00	16091	108	-49.7	-82.4	186	13
2023-08-06T12:00	16111	108	-49.6	-82.3	187	13
2023-08-06T12:00	16132	108	-49.4	-82.2	188	13
2023-08-06T12:00	16151	107	-49.4	-82.2	188	13
2023-08-06T12:00	16171	107	-49.5	-82.3	188	13
2023-08-06T12:00	16191	107	-49.6	-82.3	188	13
2023-08-06T12:00	16214	106	-49.6	-82.3	188	13
2023-08-06T12:00	16237	106	-49.5	-82.3	189	13
2023-08-06T12:00	16259	105	-49.4	-82.2	189	13
2023-08-06T12:00	16282	105	-49.4	-82.2	189	13
2023-08-06T12:00	16302	105	-49.4	-82.9	190	13
2023-08-06T12:00	16324	104	-49.4	-82.9	190	13
2023-08-06T12:00	16346	104	-49.4	-82.9	191	13
2023-08-06T12:00	16365	104	-49.4	-82.9	191	13
2023-08-06T12:00	16383	103	-49.4	-82.9	191	12
2023-08-06T12:00	16405	103	-49.4	-82.9	191	12
2023-08-06T12:00	16426	103	-49.5	-82.9	190	12
2023-08-06T12:00	16446	103	-49.3	-82.8	188	11
2023-08-06T12:00	16466	102	-49.1	-82.7	185	11
2023-08-06T12:00	16487	102	-49.0	-82.6	183	11
2023-08-06T12:00	16507	102	-49.0	-82.6	181	11
2023-08-06T12:00	16529	101	-49.0	-82.6	179	11
2023-08-06T12:00	16549	101	-49.2	-82.7	178	10
2023-08-06T12:00	16570	101	-49.4	-82.9	176	10
2023-08-06T12:00	16593	100	-49.4	-82.9	175	10
2023-08-06T12:00	16613	100	-49.5	-82.9	175	10
2023-08-06T12:00	16634	100	-49.5	-82.3	175	10
2023-08-06T12:00	16656	99	-49.6	-82.3	175	10
2023-08-06T12:00	16679	99	-49.8	-82.5	175	10
2023-08-06T12:00	16701	99	-49.9	-82.5	175	10
2023-08-06T12:00	16724	98	-50.1	-82.7	175	10
2023-08-06T12:00	16745	98	-50.3	-82.8	175	10
2023-08-06T12:00	16766	98	-50.4	-82.9	175	10
2023-08-06T12:00	16790	97	-50.6	-83.1	174	10
2023-08-06T12:00	16810	97	-50.8	-83.2	173	10
2023-08-06T12:00	16830	97	-51.0	-83.3	172	11
2023-08-06T12:00	16851	96	-51.2	-83.5	171	11
2023-08-06T12:00	16871	96	-51.2	-83.5	170	11
2023-08-06T12:00	16891	96	-51.3	-83.6	169	12
2023-08-06T12:00	16912	95	-51.3	-83.6	169	12
2023-08-06T12:00	16933	95	-51.3	-83.6	169	13
2023-08-06T12:00	16953	95	-51.2	-83.5	170	13
2023-08-06T12:00	16973	95	-51.3	-83.6	171	14
2023-08-06T12:00	16992	94	-51.4	-83.6	173	14
2023-08-06T12:00	17017	94	-51.5	-83.7	176	14
2023-08-06T12:00	17037	94	-51.5	-83.7	179	14
2023-08-06T12:00	17056	93	-51.5	-83.7	181	14
2023-08-06T12:00	17076	93	-51.6	-83.8	184	14
2023-08-06T12:00	17096	93	-51.5	-83.7	187	14
2023-08-06T12:00	17116	93	-51.5	-83.7	189	13
2023-08-06T12:00	17137	92	-51.5	-83.7	192	13
2023-08-06T12:00	17157	92	-51.4	-83.6	194	13
2023-08-06T12:00	17178	92	-51.3	-83.6	196	12
2023-08-06T12:00	17197	91	-51.3	-83.6	197	12
2023-08-06T12:00	17218	91	-51.2	-83.5	199	12
2023-08-06T12:00	17238	91	-51.3	-83.6	201	12
2023-08-06T12:00	17259	91	-51.3	-83.6	203	12
2023-08-06T12:00	17277	90	-51.4	-83.6	205	12
2023-08-06T12:00	17299	90	-51.4	-83.6	205	12
2023-08-06T12:00	17315	90	-51.5	-83.7	204	12
2023-08-06T12:00	17333	89	-51.5	-83.7	201	12
2023-08-06T12:00	17353	89	-51.7	-83.9	199	12
2023-08-06T12:00	17372	89	-51.5	-83.7	196	13
2023-08-06T12:00	17394	89	-51.2	-83.5	193	13
2023-08-06T12:00	17414	88	-51.2	-83.5	191	13
2023-08-06T12:00	17433	88	-51.3	-83.6	191	13
2023-08-06T12:00	17452	88	-51.4	-83.6	192	13
2023-08-06T12:00	17472	88	-51.5	-83.7	193	13
2023-08-06T12:00	17494	87	-51.4	-83.6	194	12
2023-08-06T12:00	17513	87	-51.2	-83.5	194	12
2023-08-06T12:00	17530	87	-51.0	-84.0	194	12
2023-08-06T12:00	17552	87	-50.9	-84.0	192	12
2023-08-06T12:00	17569	86	-51.1	-84.1	190	11
2023-08-06T12:00	17591	86	-51.1	-83.4	188	11
2023-08-06T12:00	17611	86	-51.1	-83.4	187	11
2023-08-06T12:00	17628	85	-51.1	-83.4	187	10
2023-08-06T12:00	17646	85	-51.1	-83.4	187	10
2023-08-06T12:00	17667	85	-51.1	-83.4	189	9
2023-08-06T12:00	17686	85	-51.1	-83.4	190	9
2023-08-06T12:00	17705	84	-51.1	-83.4	192	9
2023-08-06T12:00	17724	84	-51.2	-83.5	193	8
2023-08-06T12:00	17745	84	-51.4	-83.6	196	8
2023-08-06T12:00	17763	84	-51.4	-83.6	199	8
2023-08-06T12:00	17787	83	-51.5	-83.7	201	8
2023-08-06T12:00	17806	83	-51.6	-83.8	203	7
2023-08-06T12:00	17827	83	-51.8	-83.9	203	7
2023-08-06T12:00	17848	83	-52.0	-84.1	200	7
2023-08-06T12:00	17870	82	-52.0	-84.1	195	7
2023-08-06T12:00	17892	82	-51.7	-83.9	189	7
2023-08-06T12:00	17914	82	-51.5	-83.7	183	7
2023-08-06T12:00	17933	82	-51.4	-84.3	180	7
2023-08-06T12:00	17956	81	-51.4	-83.6	178	8
2023-08-06T12:00	17975	81	-51.5	-83.7	178	8
2023-08-06T12:00	17997	81	-51.6	-83.8	179	8
2023-08-06T12:00	18018	81	-51.8	-83.9	180	9
2023-08-06T12:00	18037	80	-52.0	-84.1	180	9
2023-08-06T12:00	18058	80	-52.0	-84.1	180	10
2023-08-06T12:00	18077	80	-52.1	-84.2	180	10
2023-08-06T12:00	18096	80	-52.4	-84.4	178	10
2023-08-06T12:00	18120	79	-52.5	-84.4	177	11
2023-08-06T12:00	18139	79	-52.6	-84.5	175	11
2023-08-06T12:00	18160	79	-52.5	-84.4	173	11
2023-08-06T12:00	18179	79	-52.2	-84.2	172	12
2023-08-06T12:00	18202	78	-51.9	-84.7	171	12
2023-08-06T12:00	18220	78	-51.9	-84.7	170	12
2023-08-06T12:00	18243	78	-51.4	-84.3	170	13
2023-08-06T12:00	18263	78	-50.9	-84.0	171	13
2023-08-06T12:00	18284	77	-50.8	-83.9	172	13
2023-08-06T12:00	18307	77	-50.8	-83.9	173	13
2023-08-06T12:00	18329	77	-50.9	-84.0	174	14
2023-08-06T12:00	18352	76	-50.9	-84.0	175	14
2023-08-06T12:00	18372	76	-51.0	-84.0	176	14
2023-08-06T12:00	18393	76	-51.2	-83.5	177	14
2023-08-06T12:00	18416	76	-51.4	-83.6	179	14
2023-08-06T12:00	18439	75	-51.6	-83.8	181	14
2023-08-06T12:00	18461	75	-51.8	-83.9	183	15
2023-08-06T12:00	18482	75	-52.0	-84.1	184	15
2023-08-06T12:00	18502	75	-52.0	-84.1	186	15
2023-08-06T12:00	18523	74	-51.8	-83.9	187	14
2023-08-06T12:00	18545	74	-51.7	-83.9	189	14
2023-08-06T12:00	18569	74	-51.7	-83.9	190	14
2023-08-06T12:00	18593	74	-51.8	-83.9	192	13
2023-08-06T12:00	18615	73	-51.9	-84.0	194	13
2023-08-06T12:00	18637	73	-52.0	-84.1	197	13
2023-08-06T12:00	18659	73	-52.0	-84.1	199	13
2023-08-06T12:00	18678	73	-52.0	-84.1	201	13
2023-08-06T12:00	18701	72	-52.1	-84.2	203	12
2023-08-06T12:00	18723	72	-52.2	-84.2	204	11
2023-08-06T12:00	18747	72	-52.3	-84.3	206	11
2023-08-06T12:00	18767	72	-52.4	-84.4	207	10
2023-08-06T12:00	18789	72	-52.4	-84.4	208	9
2023-08-06T12:00	18812	71	-52.4	-84.4	209	8
2023-08-06T12:00	18829	71	-52.4	-84.4	210	7
2023-08-06T12:00	18853	71	-52.4	-84.4	211	7
2023-08-06T12:00	18871	71	-52.3	-84.3	211	6
2023-08-06T12:00	18894	70	-52.2	-84.9	212	5
2023-08-06T12:00	18914	70	-52.1	-84.8	213	5
2023-08-06T12:00	18937	70	-52.1	-84.8	214	4
2023-08-06T12:00	18959	70	-52.0	-84.8	216	4
2023-08-06T12:00	18977	69	-51.8	-84.6	215	3
2023-08-06T12:00	19002	69	-51.8	-84.6	213	3
2023-08-06T12:00	19019	69	-51.6	-84.5	207	3
2023-08-06T12:00	19042	69	-51.5	-84.4	198	3
2023-08-06T12:00	19066	69	-51.5	-84.4	188	3
2023-08-06T12:00	19084	68	-51.7	-84.5	176	3
2023-08-06T12:00	19110	68	-51.7	-84.5	164	3
2023-08-06T12:00	19128	68	-51.7	-84.5	155	3
2023-08-06T12:00	19152	68	-51.7	-84.5	148	4
2023-08-06T12:00	19178	67	-51.8	-84.6	142	4
2023-08-06T12:00	19197	67	-51.9	-84.0	138	5
2023-08-06T12:00	19218	67	-52.0	-84.1	135	5
2023-08-06T12:00	19240	67	-52.1	-84.2	134	5
2023-08-06T12:00	19262	66	-52.2	-84.2	134	5
2023-08-06T12:00	19285	66	-52.3	-84.3	134	5
2023-08-06T12:00	19305	66	-52.3	-84.3	136	5
2023-08-06T12:00	19328	66	-52.3	-85.0	137	5
2023-08-06T12:00	19349	66	-52.4	-85.1	139	4
2023-08-06T12:00	19371	65	-52.3	-85.0	140	4
2023-08-06T12:00	19389	65	-52.3	-85.0	140	3
2023-08-06T12:00	19414	65	-52.1	-84.8	139	3
2023-08-06T12:00	19432	65	-51.9	-84.7	135	4
2023-08-06T12:00	19454	65	-51.8	-84.6	131	4
2023-08-06T12:00	19473	64	-51.7	-84.5	128	4
2023-08-06T12:00	19492	64	-51.7	-84.5	126	5
2023-08-06T12:00	19516	64	-51.5	-84.4	125	5
2023-08-06T12:00	19537	64	-51.1	-84.9	126	6
2023-08-06T12:00	19560	63	-51.2	-85.0	126	6
2023-08-06T12:00	19578	63	-51.2	-84.2	127	6
2023-08-06T12:00	19599	63	-51.2	-84.2	127	6
2023-08-06T12:00	19623	63	-51.2	-84.2	126	6
2023-08-06T12:00	19642	63	-51.3	-84.3	125	6
2023-08-06T12:00	19663	62	-51.4	-84.3	124	7
2023-08-06T12:00	19687	62	-51.5	-84.4	123	7
2023-08-06T12:00	19705	62	-51.5	-84.4	122	7
2023-08-06T12:00	19727	62	-51.5	-84.4	122	7
2023-08-06T12:00	19749	62	-51.5	-84.4	123	8
2023-08-06T12:00	19767	61	-51.5	-84.4	125	8
2023-08-06T12:00	19789	61	-51.6	-84.5	129	8
2023-08-06T12:00	19812	61	-51.7	-84.5	133	9
2023-08-06T12:00	19835	61	-51.7	-84.5	137	9
2023-08-06T12:00	19855	61	-51.7	-84.5	140	10
2023-08-06T12:00	19880	60	-51.7	-84.5	143	10
2023-08-06T12:00	19901	60	-51.9	-84.7	145	10
2023-08-06T12:00	19921	60	-52.0	-84.1	146	10
2023-08-06T12:00	19948	60	-52.3	-84.3	148	11
2023-08-06T12:00	19971	60	-52.6	-84.5	150	11
2023-08-06T12:00	19994	59	-52.7	-84.6	153	12
2023-08-06T12:00	20019	59	-52.8	-84.7	155	12
2023-08-06T12:00	20039	59	-53.0	-84.8	157	13
2023-08-06T12:00	20063	59	-53.2	-85.0	159	13
2023-08-06T12:00	20087	59	-53.2	-85.0	160	13
2023-08-06T12:00	20107	58	-53.0	-84.8	162	13
2023-08-06T12:00	20127	58	-52.8	-84.7	164	13
2023-08-06T12:00	20152	58	-52.8	-84.7	165	12
2023-08-06T12:00	20174	58	-52.9	-84.7	167	12
2023-08-06T12:00	20194	58	-52.9	-84.7	169	11
2023-08-06T12:00	20217	57	-52.8	-84.7	171	11
2023-08-06T12:00	20240	57	-52.9	-84.7	173	11
2023-08-06T12:00	20263	57	-53.1	-84.9	175	10
2023-08-06T12:00	20283	57	-53.2	-85.0	178	10
2023-08-06T12:00	20304	57	-53.3	-85.0	181	10
2023-08-06T12:00	20326	56	-53.2	-85.0	186	9
2023-08-06T12:00	20346	56	-53.3	-85.0	191	9
2023-08-06T12:00	20372	56	-53.4	-85.1	196	8
2023-08-06T12:00	20393	56	-53.5	-85.2	201	8
2023-08-06T12:00	20411	56	-53.1	-84.9	205	8
2023-08-06T12:00	20434	55	-52.9	-85.4	208	7
2023-08-06T12:00	20456	55	-52.9	-85.4	209	7
2023-08-06T12:00	20475	55	-52.8	-85.3	209	7
2023-08-06T12:00	20499	55	-52.5	-85.1	206	7
2023-08-06T12:00	20520	55	-52.4	-85.1	201	7
2023-08-06T12:00	20546	55	-52.3	-85.0	194	7
2023-08-06T12:00	20565	54	-52.2	-84.9	188	8
2023-08-06T12:00	20589	54	-52.2	-84.9	182	8
2023-08-06T12:00	20613	54	-52.3	-85.0	178	9
2023-08-06T12:00	20633	54	-52.5	-85.1	175	9
2023-08-06T12:00	20652	54	-52.5	-85.1	175	10
2023-08-06T12:00	20674	53	-52.5	-85.1	176	10
2023-08-06T12:00	20695	53	-52.5	-85.1	178	10
2023-08-06T12:00	20720	53	-52.4	-85.1	181	10
2023-08-06T12:00	20739	53	-52.0	-84.8	184	10
2023-08-06T12:00	20763	53	-51.5	-85.2	187	10
2023-08-06T12:00	20783	53	-51.1	-84.9	189	9
2023-08-06T12:00	20808	52	-50.9	-84.7	192	9
2023-08-06T12:00	20832	52	-50.8	-84.7	195	8
2023-08-06T12:00	20852	52	-50.8	-84.7	198	7
2023-08-06T12:00	20879	52	-50.9	-84.7	201	7
2023-08-06T12:00	20901	52	-51.0	-84.0	203	6
2023-08-06T12:00	20922	51	-51.1	-84.1	203	5
2023-08-06T12:00	20947	51	-51.2	-84.2	202	4
2023-08-06T12:00	20968	51	-51.3	-84.3	199	4
2023-08-06T12:00	20988	51	-51.3	-84.3	193	3
2023-08-06T12:00	21013	51	-51.5	-84.4	181	2
2023-08-06T12:00	21036	51	-51.7	-83.9	161	2
2023-08-06T12:00	21062	50	-51.8	-83.9	140	2
2023-08-06T12:00	21085	50	-51.9	-84.0	127	2
2023-08-06T12:00	21103	50	-51.7	-84.5	124	3
2023-08-06T12:00	21125	50	-51.4	-84.3	125	3
2023-08-06T12:00	21146	50	-51.2	-84.2	128	4
2023-08-06T12:00	21172	49	-51.0	-84.8	131	4
2023-08-06T12:00	21191	49	-50.9	-84.7	134	5
2023-08-06T12:00	21215	49	-50.9	-84.7	135	5
2023-08-06T12:00	21238	49	-50.8	-84.7	135	5
2023-08-06T12:00	21260	49	-50.8	-83.9	134	5
2023-08-06T12:00	21285	49	-50.9	-84.0	132	5
2023-08-06T12:00	21307	48	-51.2	-84.2	130	5
2023-08-06T12:00	21328	48	-51.4	-84.3	129	6
2023-08-06T12:00	21351	48	-51.5	-84.4	130	6
2023-08-06T12:00	21376	48	-51.6	-84.5	131	6
2023-08-06T12:00	21394	48	-51.8	-84.6	135	6
2023-08-06T12:00	21416	48	-52.1	-84.8	139	6
2023-08-06T12:00	21444	47	-52.3	-85.0	143	6
2023-08-06T12:00	21468	47	-52.4	-85.1	146	6
2023-08-06T12:00	21491	47	-52.4	-85.1	149	6
2023-08-06T12:00	21513	47	-52.4	-85.1	150	6
2023-08-06T12:00	21536	47	-52.4	-85.1	152	5
2023-08-06T12:00	21557	47	-52.4	-85.1	154	5
2023-08-06T12:00	21582	46	-52.2	-84.9	158	5
2023-08-06T12:00	21602	46	-52.3	-85.0	162	5
2023-08-06T12:00	21627	46	-52.4	-85.1	165	5
2023-08-06T12:00	21651	46	-52.2	-84.9	168	5
2023-08-06T12:00	21671	46	-52.1	-84.8	169	6
2023-08-06T12:00	21693	46	-52.3	-85.0	171	6
2023-08-06T12:00	21717	46	-52.4	-85.1	172	6
2023-08-06T12:00	21740	45	-52.4	-85.1	174	5
2023-08-06T12:00	21762	45	-52.4	-85.1	177	5
2023-08-06T12:00	21785	45	-52.3	-85.0	179	4
2023-08-06T12:00	21808	45	-52.3	-85.0	181	4
2023-08-06T12:00	21836	45	-52.1	-84.8	182	3
2023-08-06T12:00	21854	45	-52.0	-84.8	180	3
2023-08-06T12:00	21881	44	-52.1	-84.8	173	2
2023-08-06T12:00	21904	44	-52.1	-84.8	162	2
2023-08-06T12:00	21926	44	-51.8	-84.6	150	2
2023-08-06T12:00	21950	44	-51.6	-84.5	139	2
2023-08-06T12:00	21975	44	-51.6	-84.5	128	2
2023-08-06T12:00	21996	44	-51.8	-84.6	118	2
2023-08-06T12:00	22021	43	-51.9	-84.7	107	2
2023-08-06T12:00	22045	43	-52.1	-84.8	99	2
2023-08-06T12:00	22066	43	-52.2	-84.9	93	2
2023-08-06T12:00	22093	43	-52.3	-85.0	90	3
2023-08-06T12:00	22112	43	-52.4	-85.1	88	3
2023-08-06T12:00	22138	43	-52.4	-85.1	88	4
2023-08-06T12:00	22161	42	-52.5	-85.1	88	5
2023-08-06T12:00	22186	42	-52.4	-85.1	89	6
2023-08-06T12:00	22207	42	-52.4	-85.1	91	7
2023-08-06T12:00	22233	42	-52.4	-84.4	95	7
2023-08-06T12:00	22258	42	-52.2	-84.2	99	8
2023-08-06T12:00	22275	42	-52.1	-83.5	104	9
2023-08-06T12:00	22298	42	-52.2	-83.6	109	10
2023-08-06T12:00	22320	41	-52.4	-83.8	114	10
2023-08-06T12:00	22347	41	-52.4	-83.8	119	10
2023-08-06T12:00	22370	41	-52.0	-84.1	123	11
2023-08-06T12:00	22394	41	-51.8	-84.6	128	11
2023-08-06T12:00	22420	41	-51.7	-84.5	132	10
2023-08-06T12:00	22444	41	-51.8	-84.6	136	10
2023-08-06T12:00	22466	41	-52.0	-84.8	140	10
2023-08-06T12:00	22488	40	-52.2	-84.9	144	10
2023-08-06T12:00	22512	40	-52.1	-84.8	147	9
2023-08-06T12:00	22536	40	-52.1	-84.8	149	9
2023-08-06T12:00	22562	40	-52.1	-84.8	151	8
2023-08-06T12:00	22583	40	-52.1	-84.8	151	8
2023-08-06T12:00	22605	40	-52.0	-84.8	149	7
2023-08-06T12:00	22631	40	-52.0	-84.8	146	7
2023-08-06T12:00	22656	39	-52.0	-84.8	141	6
2023-08-06T12:00	22675	39	-51.9	-84.7	135	6
2023-08-06T12:00	22700	39	-52.0	-84.8	128	6
2023-08-06T12:00	22724	39	-52.0	-84.8	121	6
2023-08-06T12:00	22750	39	-51.9	-84.7	115	6
2023-08-06T12:00	22771	39	-51.8	-84.6	111	7
2023-08-06T12:00	22794	39	-51.8	-85.4	109	7
2023-08-06T12:00	22817	38	-51.8	-85.4	109	8
2023-08-06T12:00	22842	38	-51.6	-85.2	110	8
2023-08-06T12:00	22867	38	-51.6	-85.2	112	9
2023-08-06T12:00	22893	38	-51.6	-85.2	114	10
2023-08-06T12:00	22913	38	-51.4	-84.3	116	10
2023-08-06T12:00	22938	38	-51.5	-84.4	119	10
2023-08-06T12:00	22960	38	-51.7	-84.5	122	11
2023-08-06T12:00	22988	37	-51.9	-84.7	124	11
2023-08-06T12:00	23011	37	-51.9	-84.7	127	10
2023-08-06T12:00	23035	37	-51.6	-84.5	129	10
2023-08-06T12:00	23059	37	-51.4	-85.1	130	9
2023-08-06T12:00	23084	37	-51.4	-85.1	130	9
2023-08-06T12:00	23106	37	-51.4	-85.1	129	9
2023-08-06T12:00	23134	37	-51.4	-85.1	126	9
2023-08-06T12:00	23156	36	-51.3	-85.0	123	10
2023-08-06T12:00	23180	36	-51.0	-84.8	120	10
2023-08-06T12:00	23208	36	-50.7	-84.6	118	11
2023-08-06T12:00	23231	36	-50.5	-84.5	118	11
2023-08-06T12:00	23253	36	-50.5	-84.5	118	11
2023-08-06T12:00	23276	36	-50.5	-84.5	120	10
2023-08-06T12:00	23299	36	-50.5	-84.5	122	10
2023-08-06T12:00	23323	36	-50.5	-84.5	125	9
2023-08-06T12:00	23347	35	-50.5	-84.5	129	9
2023-08-06T12:00	23365	35	-50.6	-84.5	133	8
2023-08-06T12:00	23394	35	-50.7	-84.6	137	8
2023-08-06T12:00	23420	35	-50.8	-84.7	140	7
2023-08-06T12:00	23448	35	-50.9	-84.7	143	7
2023-08-06T12:00	23465	35	-51.0	-84.8	147	7
2023-08-06T12:00	23490	35	-51.1	-84.9	150	6
2023-08-06T12:00	23520	34	-51.2	-85.0	153	6
2023-08-06T12:00	23542	34	-51.3	-85.0	155	5
2023-08-06T12:00	23561	34	-51.3	-85.0	152	4
2023-08-06T12:00	23585	34	-51.4	-85.1	145	4
2023-08-06T12:00	23618	34	-51.4	-85.1	130	3
2023-08-06T12:00	23640	34	-51.4	-85.1	112	3
2023-08-06T12:00	23662	34	-51.4	-85.1	97	4
2023-08-06T12:00	23686	34	-51.4	-85.1	88	5
2023-08-06T12:00	23713	33	-51.4	-85.1	84	5
2023-08-06T12:00	23734	33	-51.4	-85.1	83	6
2023-08-06T12:00	23762	33	-51.3	-85.0	84	7
2023-08-06T12:00	23782	33	-51.2	-85.0	86	7
2023-08-06T12:00	23809	33	-51.1	-84.9	90	7
2023-08-06T12:00	23836	33	-50.9	-84.7	95	7
2023-08-06T12:00	23854	33	-50.9	-84.7	101	7
2023-08-06T12:00	23884	33	-50.9	-84.7	106	7
2023-08-06T12:00	23901	32	-50.9	-84.7	110	7
2023-08-06T12:00	23932	32	-50.8	-84.7	114	8
2023-08-06T12:00	23959	32	-50.8	-84.7	116	8
2023-08-06T12:00	23981	32	-50.9	-84.7	117	7
2023-08-06T12:00	24006	32	-50.9	-84.7	116	7
2023-08-06T12:00	24031	32	-50.6	-84.5	114	7
2023-08-06T12:00	24054	32	-50.3	-84.3	109	6
2023-08-06T12:00	24081	32	-50.1	-85.1	103	6
2023-08-06T12:00	24108	31	-49.9	-84.9	97	6
2023-08-06T12:00	24133	31	-49.9	-84.9	90	6
2023-08-06T12:00	24158	31	-49.9	-84.9	84	6
2023-08-06T12:00	24182	31	-49.9	-84.9	80	6
2023-08-06T12:00	24209	31	-49.9	-84.9	78	7
2023-08-06T12:00	24232	31	-49.9	-84.0	77	8
2023-08-06T12:00	24263	31	-49.9	-84.0	78	8
2023-08-06T12:00	24290	31	-49.9	-84.0	81	9
2023-08-06T12:00	24320	31	-49.9	-84.0	84	10
2023-08-06T12:00	24343	30	-49.9	-84.0	86	10
2023-08-06T12:00	24368	30	-49.8	-84.0	89	10
2023-08-06T12:00	24390	30	-49.8	-84.0	93	10
2023-08-06T12:00	24417	30	-49.9	-84.0	96	10
2023-08-06T12:00	24443	30	-50.0	-84.1	100	10
2023-08-06T12:00	24468	30	-50.0	-84.1	105	9
2023-08-06T12:00	24493	30	-50.0	-84.1	109	9
2023-08-06T12:00	24515	30	-50.1	-84.2	112	9
2023-08-06T12:00	24542	29	-50.3	-84.3	116	9
2023-08-06T12:00	24562	29	-50.4	-84.4	119	9
2023-08-06T12:00	24593	29	-50.6	-84.5	122	9
2023-08-06T12:00	24615	29	-50.7	-84.6	125	9
2023-08-06T12:00	24637	29	-50.8	-84.7	128	9
2023-08-06T12:00	24662	29	-50.8	-84.7	132	9
2023-08-06T12:00	24684	29	-50.8	-84.7	134	9
2023-08-06T12:00	24706	29	-50.8	-84.7	135	8
2023-08-06T12:00	24736	29	-50.7	-84.6	135	7
2023-08-06T12:00	24752	29	-50.7	-84.6	134	7
2023-08-06T12:00	24774	28	-50.6	-84.5	131	6
2023-08-06T12:00	24805	28	-50.5	-84.5	127	5
2023-08-06T12:00	24823	28	-50.3	-85.2	121	5
2023-08-06T12:00	24845	28	-50.2	-85.1	113	4
2023-08-06T12:00	24871	28	-50.1	-85.1	103	4
2023-08-06T12:00	24894	28	-50.1	-85.1	94	5
2023-08-06T12:00	24921	28	-49.9	-84.9	87	5
2023-08-06T12:00	24939	28	-49.7	-84.8	83	6
2023-08-06T12:00	24958	28	-49.5	-84.6	82	7
2023-08-06T12:00	24983	28	-49.4	-84.6	82	8
2023-08-06T12:00	25003	27	-49.3	-84.5	82	9
2023-08-06T12:00	25027	27	-49.2	-84.4	84	9
2023-08-06T12:00	25047	27	-49.1	-84.3	85	10
2023-08-06T12:00	25074	27	-49.0	-84.3	87	11
2023-08-06T12:00	25097	27	-49.0	-84.3	90	12
2023-08-06T12:00	25119	27	-48.8	-84.1	93	12
2023-08-06T12:00	25140	27	-48.6		95	12
2023-08-06T12:00	25167	27	-48.6		98	12
2023-08-06T12:00	25187	27	-48.5	-83.9	99	12
2023-08-06T12:00	25211	27	-48.5	-83.9	100	12
2023-08-06T12:00	25237	27	-48.6		99	12
2023-08-06T12:00	25257	26	-48.6		97	12
2023-08-06T12:00	25280	26	-48.6		95	12
2023-08-06T12:00	25300	26	-48.6		95	12
2023-08-06T12:00	25330	26	-48.6		95	12
2023-08-06T12:00	25354	26	-48.7	-84.1	97	12
2023-08-06T12:00	25383	26	-48.7	-84.1	100	12
2023-08-06T12:00	25409	26	-48.7	-84.1	102	12
2023-08-06T12:00	25431	26	-48.7	-84.1	104	12
2023-08-06T12:00	25452	26	-48.7	-84.1	106	12
2023-08-06T12:00	25479	26	-48.8	-84.1	108	12
2023-08-06T12:00	25505	25	-48.9	-84.2	109	12
2023-08-06T12:00	25532	25	-49.0	-84.3	111	12
2023-08-06T12:00	25559	25	-49.1	-84.3	113	12
2023-08-06T12:00	25585	25	-49.2	-84.4	115	12
2023-08-06T12:00	25614	25	-49.3	-84.5	116	12
2023-08-06T12:00	25641	25	-49.4	-84.6	118	13
2023-08-06T12:00	25662	25	-49.5	-83.7	119	13
2023-08-06T12:00	25691	25	-49.7	-83.9	119	13
2023-08-06T12:00	25721	25	-49.8	-84.0	118	13
2023-08-06T12:00	25752	25	-49.9	-84.0	116	13
2023-08-06T12:00	25782	24	-49.9	-84.9	115	13
2023-08-06T12:00	25802	24	-49.9	-84.9	115	13
2023-08-06T12:00	25831	24	-49.9	-84.9	116	13
2023-08-06T12:00	25855	24	-49.8	-84.8	117	13
2023-08-06T12:00	25879	24	-49.8	-84.8	119	12
2023-08-06T12:00	25910	24	-49.9	-84.9	121	12
2023-08-06T12:00	25938	24	-49.9	-84.9	122	11
2023-08-06T12:00	25963	24	-49.9	-84.9	124	10
2023-08-06T12:00	25992	24	-49.9	-84.9	126	9
2023-08-06T12:00	26022	24	-49.8	-84.8	127	8
2023-08-06T12:00	26039	23	-49.8	-84.8	130	7
2023-08-06T12:00	26070	23	-49.7	-84.8	133	6
2023-08-06T12:00	26094	23	-49.6	-84.7	136	6
2023-08-06T12:00	26124	23	-49.4	-84.6	139	5
2023-08-06T12:00	26143	23	-49.4	-84.6	139	5
2023-08-06T12:00	26171	23	-49.5	-84.6	136	4
2023-08-06T12:00	26192	23	-49.7	-84.8	130	4
2023-08-06T12:00	26224	23	-49.7	-84.8	120	4
2023-08-06T12:00	26246	23	-49.7	-83.9	110	4
2023-08-06T12:00	26262	23	-49.7	-83.9	101	3
2023-08-06T12:00	26291	23	-49.8	-84.0	94	3
2023-08-06T12:00	26311	22	-49.8	-84.8	89	3
2023-08-06T12:00	26338	22	-49.8	-84.8	85	4
2023-08-06T12:00	26367	22	-49.7	-84.8	81	4
2023-08-06T12:00	26390	22	-49.6	-84.7	80	4
2023-08-06T12:00	26410	22	-49.5	-84.6	81	4
2023-08-06T12:00	26437	22	-49.5	-84.6	84	5
2023-08-06T12:00	26456	22	-49.5	-84.6	88	5
2023-08-06T12:00	26483	22	-49.5	-84.6	92	5
2023-08-06T12:00	26502	22	-49.5	-84.6	95	6
2023-08-06T12:00	26526	22	-49.5	-84.6	97	6
2023-08-06T12:00	26552	22	-49.4	-84.6	98	6
2023-08-06T12:00	26575	22	-49.4	-84.6	99	6
2023-08-06T12:00	26599	22	-49.3	-84.5	100	6
2023-08-06T12:00	26621	21	-49.3	-84.5	99	6
2023-08-06T12:00	26645	21	-49.3	-84.5	98	6
2023-08-06T12:00	26662	21	-49.3	-84.5	96	7
2023-08-06T12:00	26689	21	-49.2	-84.4	94	7
2023-08-06T12:00	26703	21	-49.2	-84.4	92	7
2023-08-06T12:00	26727	21	-49.3	-84.5	91	8
2023-08-06T12:00	26758	21	-49.3	-84.5	91	8
2023-08-06T12:00	26782	21	-49.2	-84.4	91	8
2023-08-06T12:00	26807	21	-49.1	-84.3	92	9
2023-08-06T12:00	26833	21	-48.9	-84.2	93	9
2023-08-06T12:00	26847	21	-48.9	-85.3	95	9
2023-08-06T12:00	26877	21	-48.9	-85.3	97	9
2023-08-06T12:00	26898	21	-49.0	-85.3	98	9
2023-08-06T12:00	26925	20	-48.9	-85.3	100	9
2023-08-06T12:00	26939	20	-48.8	-85.2	101	9
2023-08-06T12:00	26976	20	-48.7	-85.1	101	9
2023-08-06T12:00	26999	20	-48.5	-85.0	99	8
2023-08-06T12:00	27030	20	-48.3	-84.8	97	8
2023-08-06T12:00	27053	20	-48.2	-84.8	93	7
2023-08-06T12:00	27075	20	-48.1	-84.7	88	7
2023-08-06T12:00	27097	20	-48.1	-84.7	83	7
2023-08-06T12:00	27121	20	-48.1	-84.7	80	7
2023-08-06T12:00	27158	20	-48.0	-84.6	78	7
2023-08-06T12:00	27184	20	-47.9	-84.6	78	8
2023-08-06T12:00	27208	20	-47.9	-84.6	80	8
2023-08-06T12:00	27237	20	-48.0	-84.6	82	9
2023-08-06T12:00	27257	19	-48.0	-84.6	84	10
2023-08-06T12:00	27292	19	-48.1	-84.7	86	10
2023-08-06T12:00	27312	19	-48.2	-84.8	89	11
2023-08-06T12:00	27341	19	-48.3	-84.8	91	11
2023-08-06T12:00	27361	19	-48.3	-84.8	94	12
2023-08-06T12:00	27400	19	-48.3	-84.8	96	12
2023-08-06T12:00	27428	19	-48.2	-84.8	99	11
2023-08-06T12:00	27450	19	-48.1	-84.7	102	11
2023-08-06T12:00	27477	19	-48.1	-84.7	104	11
2023-08-06T12:00	27501	19	-48.1	-84.7	107	11
2023-08-06T12:00	27533	19	-48.1	-84.7	109	10
2023-08-06T12:00	27560	19	-48.1	-84.7	111	10
2023-08-06T12:00	27588	19	-48.1	-84.7	114	10
2023-08-06T12:00	27620	18	-48.0	-84.6	117	10
2023-08-06T12:00	27635	18	-47.9	-84.6	120	10
2023-08-06T12:00	27669	18	-48.0	-84.6	123	10
2023-08-06T12:00	27692	18	-48.1	-84.7	126	10
2023-08-06T12:00	27716	18	-48.3	-84.8	128	10
2023-08-06T12:00	27739	18	-48.4	-84.9	129	10
2023-08-06T12:00	27767	18	-48.3	-84.8	129	10
2023-08-06T12:00	27797	18	-48.1	-84.7	128	10
2023-08-06T12:00	27823	18	-48.1	-84.7	126	10
2023-08-06T12:00	27857	18	-48.1	-84.7	124	11
2023-08-06T12:00	27880	18	-48.0	-84.6	121	11
2023-08-06T12:00	27907	18	-47.9	-84.6	120	12
2023-08-06T12:00	27928	18	-47.8	-84.5	119	12
2023-08-06T12:00	27956	18	-47.8	-84.5	119	13
2023-08-06T12:00	27981	17	-47.8	-84.5	120	13
2023-08-06T12:00	28006	17	-47.8	-84.5	121	13
2023-08-06T12:00	28041	17	-47.9	-84.6	122	13
2023-08-06T12:00	28061	17	-47.8	-84.5	124	13
2023-08-06T12:00	28082	17	-47.8	-84.5	125	13
2023-08-06T12:00	28109	17	-47.9	-84.6	127	12
2023-08-06T12:00	28143	17	-47.9	-84.6	129	12
2023-08-06T12:00	28157	17	-47.9	-84.6	132	12
2023-08-06T12:00	28179	17	-48.0	-84.6	134	11
2023-08-06T12:00	28216	17	-48.1	-84.7	137	11
2023-08-06T12:00	28234	17	-48.2	-84.8	141	11
2023-08-06T12:00	28273	17	-48.1	-84.7	144	10
2023-08-06T12:00	28291	17	-48.0	-84.6	148	10
2023-08-06T12:00	28308	17	-48.1	-84.7	151	10
2023-08-06T12:00	28350	17	-48.1	-84.7	154	10
2023-08-06T12:00	28374	16	-48.0	-84.6	156	9
2023-08-06T12:00	28396	16	-47.9	-84.6	156	9
2023-08-06T12:00	28416	16	-47.7	-84.4	156	8
2023-08-06T12:00	28446	16	-47.6	-84.3	155	8
2023-08-06T12:00	28471	16	-47.4	-84.2	155	7
2023-08-06T12:00	28494	16	-47.2	-84.1	154	6
2023-08-06T12:00	28535	16	-47.2	-84.1	154	6
2023-08-06T12:00	28562	16	-47.4	-84.2	154	5
2023-08-06T12:00	28577	16	-47.4	-84.2	155	5
2023-08-06T12:00	28612	16	-47.5	-84.3	155	4
2023-08-06T12:00	28633	16	-47.6	-84.3	154	4
2023-08-06T12:00	28652	16	-47.8	-84.5	152	3
2023-08-06T12:00	28688	16	-47.8	-84.5	147	2
2023-08-06T12:00	28715	16	-47.8	-84.5	138	2
2023-08-06T12:00	28739	16	-47.8	-84.5	129	2
2023-08-06T12:00	28762	16	-47.6	-84.3	120	3
2023-08-06T12:00	28787	15	-47.4	-84.2	111	3
2023-08-06T12:00	28815	15	-47.2	-84.1	102	3
2023-08-06T12:00	28856	15	-47.1	-84.0	94	4
2023-08-06T12:00	28874	15	-47.0	-83.9	88	4
2023-08-06T12:00	28896	15	-46.9	-83.9	86	5
2023-08-06T12:00	28927	15	-46.9	-83.9	86	6
2023-08-06T12:00	28952	15	-46.8	-83.8	87	7
2023-08-06T12:00	28984	15	-46.7	-83.7	88	8
2023-08-06T12:00	29007	15	-46.5	-83.6	88	8
2023-08-06T12:00	29039	15	-46.3	-83.4	88	9
2023-08-06T12:00	29074	15	-46.2	-83.4	87	9
2023-08-06T12:00	29091	15	-46.1	-83.3	87	9
2023-08-06T12:00	29124	15	-46.0	-83.2	87	10
2023-08-06T12:00	29150	15	-46.0	-83.2	88	10
2023-08-06T12:00	29173	15	-46.0	-83.2	89	10
2023-08-06T12:00	29203	15	-46.0	-83.2	92	10
2023-08-06T12:00	29225	14	-46.0	-83.2	94	10
2023-08-06T12:00	29249	14	-45.9	-83.2	96	10
2023-08-06T12:00	29278	14	-45.8	-83.1	98	10
2023-08-06T12:00	29315	14	-45.7	-83.0	99	11
2023-08-06T12:00	29335	14	-45.5	-82.9	99	11
2023-08-06T12:00	29368	14	-45.3	-82.7	99	12
2023-08-06T12:00	29383	14	-45.1	-82.6	99	12
2023-08-06T12:00	29434	14	-45.0	-82.5	100	12
2023-08-06T12:00	29441	14	-44.9	-82.5	100	12
2023-08-06T12:00	29474	14	-44.8	-82.4	101	12
2023-08-06T12:00	29495	14	-44.6	-82.2	102	12
2023-08-06T12:00	29524	14	-44.5	-82.2	103	12
2023-08-06T12:00	29543	14	-44.4	-82.1	103	12
2023-08-06T12:00	29565	14	-44.2	-82.0	103	12
2023-08-06T12:00	29582	14	-44.0	-81.8	103	12
2023-08-06T12:00	29624	14	-43.9	-81.8	103	12
2023-08-06T12:00	29634	14	-43.8	-81.7	102	12
2023-08-06T12:00	29673	14	-43.8	-81.7	102	12
2023-08-06T12:00	29693	14	-43.7	-81.6	100	12
2023-08-06T12:00	29722	13	-43.6	-81.5	99	11
2023-08-06T12:00	29740	13	-43.6	-81.5	97	11
2023-08-06T12:00	29766	13	-43.4	-81.4	95	11
2023-08-06T12:00	29780	13	-43.3	-81.3	94	10
2023-08-06T12:00	29810	13	-43.2	-81.3	94	10
2023-08-06T12:00	29843	13	-43.2	-81.3	94	10
2023-08-06T12:00	29869	13	-43.1	-81.2	94	10
2023-08-06T12:00	29895	13	-43.0	-81.1	93	10
2023-08-06T12:00	29915	13	-43.0	-81.1	92	10
2023-08-06T12:00	29944	13	-43.0	-81.1	91	10
2023-08-06T12:00	29976	13	-43.1	-81.2	90	10
2023-08-06T12:00	29991	13	-43.1	-81.2	89	10
2023-08-06T12:00	30023	13	-43.0	-81.1	88	11
2023-08-06T12:00	30049	13	-43.1	-81.2	89	11
2023-08-06T12:00	30069	13	-43.1	-81.2	90	11
2023-08-06T12:00	30096	13	-43.0	-81.1	92	11
2023-08-06T12:00	30127	13	-43.0	-81.1	96	11
2023-08-06T12:00	30166	13	-42.9	-81.1	99	10
2023-08-06T12:00	30185	13	-42.9	-81.1	103	10
2023-08-06T12:00	30216	12	-42.9	-81.1	106	10
2023-08-06T12:00	30240	12	-42.8	-81.0	110	9
2023-08-06T12:00	30259	12	-42.5	-80.8	114	9
2023-08-06T12:00	30287	12	-42.2	-80.6	117	8
2023-08-06T12:00	30325	12	-42.3	-80.6	118	8
2023-08-06T12:00	30353	12	-42.4	-80.7	116	8
2023-08-06T12:00	30382	12	-42.2	-80.6	111	8
2023-08-06T12:00	30406	12	-41.9	-80.4	104	8
2023-08-06T12:00	30436	12	-41.9	-80.4	97	8
2023-08-06T12:00	30462	12	-41.8	-80.3	93	8
2023-08-06T12:00	30479	12	-41.6	-80.1	91	9
2023-08-06T12:00	30498	12	-41.6	-80.1	92	9
2023-08-06T12:00	30524	12	-41.5	-80.1	92	9
2023-08-06T12:00	30555	12	-41.3	-79.9	93	10
2023-08-06T12:00	30589	12	-41.3	-79.9	93	10
2023-08-06T12:00	30619	12	-41.2	-79.9	93	11
2023-08-06T12:00	30622	12	-41.2	-79.9	94	11
2023-08-06T12:00	30656	12	-41.3	-79.9	96	12
2023-08-06T12:00	30680	12	-41.3	-79.9	97	12
2023-08-06T12:00	30710	12	-41.3	-79.9	99	12
2023-08-06T12:00	30735	12	-41.2	-79.9	100	12
2023-08-06T12:00	30754	12	-41.1	-79.8	100	12
2023-08-06T12:00	30795	11	-40.9	-79.7	99	12
2023-08-06T12:00	30812	11	-40.9	-79.7	97	12
2023-08-06T12:00	30841	11	-41.0	-79.7	96	12
2023-08-06T12:00	30874	11	-40.9	-79.7	95	12
2023-08-06T12:00	30895	11	-40.8	-79.6	95	12
2023-08-06T12:00	30909	11	-40.8	-79.6	95	11
2023-08-06T12:00	30936	11	-40.7	-79.5	95	11
2023-08-06T12:00	30960	11	-40.5	-79.4	95	10
2023-08-06T12:00	30975	11	-40.3	-79.2	95	9
2023-08-06T12:00	31020	11	-40.2	-79.2	94	9
2023-08-06T12:00	31046	11	-40.1	-79.1	92	8
2023-08-06T12:00	31054	11	-39.9	-79.0	89	8
2023-08-06T12:00	31075	11	-39.7	-78.8	87	8
2023-08-06T12:00	31111	11	-39.4	-78.6	86	9
2023-08-06T12:00	31113	11	-39.2	-78.5	85	10
2023-08-06T12:00	31146	11	-39.0	-78.3	85	11
2023-08-06T12:00	31187	11	-38.7	-78.1	86	12
2023-08-06T12:00	31192	11	-38.7	-78.1	87	13
2023-08-06T12:00	31218	11	-38.6	-78.1	88	14
2023-08-06T12:00	31244	11	-38.6	-78.1	89	14
2023-08-06T12:00	31276	11	-38.4	-77.9	91	14
2023-08-06T12:00	31288	11	-38.0	-77.6	93	14
2023-08-06T12:00	31326	11	-37.8	-77.5	96	13
2023-08-06T12:00	31355	11	-37.5	-77.3	97	13
2023-08-06T12:00	31382	11	-37.2	-77.1	99	12
2023-08-06T12:00	31408	11	-37.0	-77.0	98	12
2023-08-06T12:00	31445	10	-36.9	-76.9	97	12
2023-08-06T12:00	31456	10	-36.7	-76.7	95	12
2023-08-06T12:00	31480	10	-36.6	-76.7	94	12
2023-08-06T12:00	31520	10	-36.6	-76.7	93	11
2023-08-06T12:00	31540	10	-36.5	-76.6	92	11
2023-08-06T12:00	31577	10	-36.5	-76.6	91	11
2023-08-06T12:00	31591	10	-36.5	-76.6	90	11
2023-08-06T12:00	31625	10	-36.5	-76.6	88	11
2023-08-06T12:00	31661	10	-36.6	-76.7	86	11
2023-08-06T12:00	31692	10	-36.7	-76.7	83	11
2023-08-06T12:00	31729	10	-36.7	-76.7	82	11
2023-08-06T12:00	31746	10	-36.7	-76.7	80	11
2023-08-06T12:00	31769	10	-36.8	-76.8	79	11
2023-08-06T12:00	31809	10	-37.0	-77.0	78	11
2023-08-06T12:00	31838	10	-37.1	-77.0	77	11
2023-08-06T12:00	31859	10	-37.2	-77.1	76	11
2023-08-06T12:00	31901	10	-37.2	-77.1	74	11
2023-08-06T12:00	31920	10	-37.2	-77.1	73	12
2023-08-06T12:00	31939	10	-37.2	-77.1	71	12
2023-08-06T12:00	31976	10	-37.3	-77.2	71	12
2023-08-06T12:00	31997	10	-37.2	-77.1	71	12
2023-08-06T12:00	32026	10	-37.2	-77.1	72	12
2023-08-06T12:00	32058	10	-37.2	-77.1	74	12
2023-08-06T12:00	32067	10	-37.2	-77.1	77	12
2023-08-06T12:00	32101	10	-37.3	-77.2	79	12
2023-08-06T12:00	32116	9	-37.3	-77.2	81	12
2023-08-06T12:00	32152	9	-37.3	-77.2	82	12
2023-08-06T12:00	32177	9	-37.3	-77.2	84	12
2023-08-06T12:00	32200	9	-37.2	-77.1	87	12
2023-08-06T12:00	32223	9	-37.2	-77.1	90	12
2023-08-06T12:00	32239	9	-37.1	-77.0	93	12
2023-08-06T12:00	32272	9	-37.0	-77.0	95	12
2023-08-06T12:00	32283	9	-36.9	-76.9	97	12
2023-08-06T12:00	32327	9	-36.9	-76.9	97	12
2023-08-06T12:00	32338	9	-36.8	-76.8	98	12
2023-08-06T12:00	32355	9	-36.7	-76.7	98	11
2023-08-06T12:00	32374	9	-36.6	-76.7	98	11
2023-08-06T12:00	32403	9	-36.6	-76.7	100	10
2023-08-06T12:00	32435	9	-36.5	-76.6	103	9
2023-08-06T12:00	32445	9	-36.4	-76.5	105	8
2023-08-06T12:00	32460	9	-36.4	-76.5	105	8
2023-08-06T12:00	32508	9	-36.2	-76.4	105	7
2023-08-06T12:00	32521	9	-36.1	-76.3	104	7
2023-08-06T12:00	32552	9	-36.0	-76.3	103	6
2023-08-06T12:00	32571	9	-35.8	-76.1	102	6
2023-08-06T12:00	32582	9	-35.7	-76.1	100	5
2023-08-06T12:00	32600	9	-35.6	-76.0	97	5
2023-08-06T12:00	32646	9	-35.6	-76.0	95	6
2023-08-06T12:00	32682	9	-35.4	-75.8	93	6
2023-08-06T12:00	32685	9	-35.3	-75.8	92	7
2023-08-06T12:00	32713	9	-35.2	-75.7	92	8
2023-08-06T12:00	32732	9	-35.1	-75.6	93	9
2023-08-06T12:00	32759	9	-34.9	-75.5	93	9
2023-08-06T12:00	32787	9	-34.7	-75.4	92	10
2023-08-06T12:00	32802	9	-34.5	-75.2	91	9
2023-08-06T12:00	32829	9	-34.3	-75.1	88	9
2023-08-06T12:00	32859	9	-34.3	-75.1	84	8
2023-08-06T12:00	32890	8	-34.4	-75.2	81	7
2023-08-06T12:00	32926	8	-34.5	-75.2	76	7
2023-08-06T12:00	32952	8	-34.5	-75.2	72	6
2023-08-06T12:00	32978	8	-34.6	-75.3	69	6
2023-08-06T12:00	33004	8	-34.7	-75.4	65	6
2023-08-06T12:00	33035	8	-34.7	-75.4	63	6
2023-08-06T12:00	33060	8	-35.0	-75.6	61	6
2023-08-06T12:00	33097	8	-35.2	-75.7	62	6
2023-08-06T12:00	33141	8	-35.2	-75.7	65	7
2023-08-06T12:00	33152	8	-35.2	-75.7	68	7
2023-08-06T12:00	33192	8	-35.3	-75.8	71	8
2023-08-06T12:00	33206	8	-35.5	-75.9	75	8
2023-08-06T12:00	33236	8	-35.6	-76.0	78	9
2023-08-06T12:00	33292	8	-35.7	-76.1	82	9
2023-08-06T12:00	33323	8	-35.7	-76.1	85	10
2023-08-06T12:00	33342	8	-35.7	-76.1	88	10
2023-08-06T12:00	33376	8	-35.8	-76.1	91	10
2023-08-06T12:00	33415	8	-35.9	-76.2	93	10
2023-08-06T12:00	33442	8	-35.8	-76.1	96	9
2023-08-06T12:00	33473	8	-35.9	-76.2	99	9
2023-08-06T12:00	33497	8	-35.9	-76.2	101	9
2023-08-06T12:00	33534	8	-35.9	-76.2	104	8
2023-08-06T12:00	33565	8	-35.9	-76.2	105	8
2023-08-06T12:00	33583	8	-35.8	-76.1	106	8
2023-08-06T12:00	33629	8	-35.8	-76.1	105	8
2023-08-06T12:00	33665	8	-35.8	-76.1	104	8
2023-08-06T12:00	33670	8	-35.7	-76.1	102	8
2023-08-06T12:00	33690	8	-35.7	-76.1	100	9
2023-08-06T12:00	33710	8	-35.7	-76.1	98	9
2023-08-06T12:00	33751	8	-35.6	-76.0	95	9
2023-08-06T12:00	33776	7	-35.6	-76.0	93	9
2023-08-06T12:00	33807	7	-35.6	-76.0	90	9
2023-08-06T12:00	33821	7	-35.6	-76.0	89	9
2023-08-06T12:00	33843	7	-35.6	-76.0	88	9
2023-08-06T12:00	33869	7	-35.5	-75.9	88	9
2023-08-06T12:00	33919	7	-35.5	-75.9	89	10
2023-08-06T12:00	33951	7	-35.4	-75.8	91	10
2023-08-06T12:00	33979	7	-35.3	-75.8	93	10
2023-08-06T12:00	34008	7	-35.1	-75.6	94	10
2023-08-06T12:00	34029	7	-34.9	-75.5	95	10
2023-08-06T12:00	34041	7	-34.7	-75.4	96	9
2023-08-06T12:00	34053	7	-34.4	-75.2	97	8
2023-08-06T12:00	34087	7	-34.2	-75.0	98	7
2023-08-06T12:00	34123	7	-34.0	-74.9	99	7
2023-08-06T12:00	34154	7	-33.6	-74.6	97	6
2023-08-06T12:00	34190	7	-33.4	-74.5	95	6
2023-08-06T12:00	34205	7	-33.2	-74.3	95	6
2023-08-06T12:00	34223	7	-33.0	-74.2	95	7
2023-08-06T12:00	34259	7	-32.7	-74.0	96	7
2023-08-06T18:00	112	989	15.6	15.3	290	3
2023-08-06T18:00	135	987	15.2	15.1	302	3
2023-08-06T18:00	163	983	15.0	14.5	303	4
2023-08-06T18:00	189	980	14.8	14.3	303	5
2023-08-06T18:00	211	978	14.7	14.0	304	6
2023-08-06T18:00	237	975	14.5	13.8	306	7
2023-08-06T18:00	262	972	14.3	13.5	308	7
2023-08-06T18:00	286	969	14.1	13.2	311	8
2023-08-06T18:00	309	967	13.9	12.7	313	8
2023-08-06T18:00	333	964	13.8	12.8	315	8
2023-08-06T18:00	362	961	13.6	12.1	316	8
2023-08-06T18:00	388	958	13.4	11.6	318	9
2023-08-06T18:00	413	955	13.3	10.3	320	9
2023-08-06T18:00	437	952	13.3	9.9	321	9
2023-08-06T18:00	463	949	13.1	9.7	322	10
2023-08-06T18:00	484	947	13.0	9.5	322	10
2023-08-06T18:00	506	944	12.8	9.3	322	10
2023-08-06T18:00	528	942	12.6	8.7	322	10
2023-08-06T18:00	551	939	12.4	8.7	322	10
2023-08-06T18:00	575	937	12.2	8.8	322	10
2023-08-06T18:00	593	934	12.2	9.5	322	10
2023-08-06T18:00	625	931	12.0	9.2	322	10
2023-08-06T18:00	650	928	11.8	8.7	322	11
2023-08-06T18:00	673	926	11.6	8.5	323	11
2023-08-06T18:00	697	923	11.4	8.2	324	11
2023-08-06T18:00	719	921	11.2	8.2	325	11
2023-08-06T18:00	739	918	11.1	7.8	327	11
2023-08-06T18:00	763	916	10.9	7.2	329	11
2023-08-06T18:00	785	913	10.8	6.4	330	12
2023-08-06T18:00	809	911	10.8	6.0	330	12
2023-08-06T18:00	834	908	10.7	6.3	329	12
2023-08-06T18:00	861	905	10.6	6.0	328	12
2023-08-06T18:00	890	902	10.5	5.9	327	12
2023-08-06T18:00	917	899	10.4	5.8	327	12
2023-08-06T18:00	938	897	10.2	5.7	327	12
2023-08-06T18:00	960	894	10.1	5.6	327	12
2023-08-06T18:00	983	892	10.0	5.4	327	12
2023-08-06T18:00	1006	889	9.9	5.4	326	13
2023-08-06T18:00	1028	887	9.8	5.3	326	13
2023-08-06T18:00	1051	885	9.7	4.7	325	13
2023-08-06T18:00	1075	882	9.6	4.4	325	14
2023-08-06T18:00	1097	880	9.4	4.3	325	14
2023-08-06T18:00	1121	877	9.2	4.2	325	14
2023-08-06T18:00	1142	875	9.0	4.0	326	14
2023-08-06T18:00	1163	873	8.8	4.0	326	13
2023-08-06T18:00	1186	870	8.7	4.3	327	13
2023-08-06T18:00	1206	868	8.5	4.5	328	12
2023-08-06T18:00	1230	866	8.5	4.7	328	12
2023-08-06T18:00	1251	863	8.4	4.6	327	12
2023-08-06T18:00	1282	861	8.3	4.5	325	12
2023-08-06T18:00	1303	858	8.1	4.4	322	12
2023-08-06T18:00	1324	856	8.0	4.4	320	12
2023-08-06T18:00	1342	854	7.9	4.4	317	12
2023-08-06T18:00	1363	852	7.8	4.3	316	12
2023-08-06T18:00	1386	850	7.6	4.2	316	12
2023-08-06T18:00	1406	848	7.4	4.2	317	12
2023-08-06T18:00	1427	845	7.3	4.1	320	12
2023-08-06T18:00	1449	843	7.1	4.1	323	11
2023-08-06T18:00	1473	841	7.1	4.1	327	11
2023-08-06T18:00	1495	838	7.0	3.9	330	12
2023-08-06T18:00	1513	837	6.9	3.9	332	12
2023-08-06T18:00	1532	834	6.7	3.8	331	12
2023-08-06T18:00	1557	832	6.5	3.6	329	12
2023-08-06T18:00	1579	830	6.4	3.5	326	13
2023-08-06T18:00	1604	827	6.3	3.6	324	13
2023-08-06T18:00	1626	825	6.2	3.6	322	13
2023-08-06T18:00	1649	823	6.0	3.4	320	13
2023-08-06T18:00	1670	821	5.9	3.2	320	12
2023-08-06T18:00	1694	818	5.8	3.2	319	12
2023-08-06T18:00	1716	816	5.6	3.0	319	12
2023-08-06T18:00	1744	813	5.4	3.0	318	12
2023-08-06T18:00	1768	811	5.3	2.9	317	12
2023-08-06T18:00	1794	808	5.1	2.8	316	12
2023-08-06T18:00	1820	806	4.9	2.8	315	13
2023-08-06T18:00	1842	803	4.7	2.7	314	13
2023-08-06T18:00	1870	801	4.6	2.7	315	13
2023-08-06T18:00	1895	798	4.4	2.6	315	13
2023-08-06T18:00	1923	796	4.2	2.6	316	13
2023-08-06T18:00	1951	793	4.0	2.4	317	14
2023-08-06T18:00	1977	790	3.7	2.3	317	14
2023-08-06T18:00	2006	788	3.5	2.2	318	14
2023-08-06T18:00	2031	785	3.3	2.1	318	14
2023-08-06T18:00	2058	783	3.1	1.9	318	14
2023-08-06T18:00	2087	780	2.8	1.7	317	14
2023-08-06T18:00	2115	777	2.6	1.6	317	14
2023-08-06T18:00	2140	775	2.4	1.6	317	15
2023-08-06T18:00	2169	772	2.2	1.4	317	15
2023-08-06T18:00	2196	769	2.2	1.0	317	15
2023-08-06T18:00	2225	767	2.4	0.8	317	14
2023-08-06T18:00	2254	764	2.3	0.8	317	14
2023-08-06T18:00	2280	761	2.1	0.8	316	14
2023-08-06T18:00	2307	759	1.8	0.6	315	13
2023-08-06T18:00	2333	756	1.6	0.6	314	13
2023-08-06T18:00	2361	754	1.6	0.5	313	13
2023-08-06T18:00	2390	751	1.4	0.4	311	14
2023-08-06T18:00	2418	748	1.3	0.4	308	14
2023-08-06T18:00	2447	746	1.2	0.4	306	14
2023-08-06T18:00	2473	743	1.2	0.4	304	14
2023-08-06T18:00	2497	741	1.0	0.3	303	14
2023-08-06T18:00	2520	739	0.7	0.2	303	14
2023-08-06T18:00	2544	737	0.6	0.2	304	14
2023-08-06T18:00	2570	734	0.4	0.1	304	14
2023-08-06T18:00	2598	732	0.2	0.0	304	15
2023-08-06T18:00	2623	730	0.1	-0.1	304	15
2023-08-06T18:00	2648	727	0.1	0.1	304	15
2023-08-06T18:00	2671	725	0.0	0.0	305	15
2023-08-06T18:00	2699	723	-0.1	-0.2	306	15
2023-08-06T18:00	2725	720	-0.3	-0.4	306	14
2023-08-06T18:00	2750	718	-0.5	-0.6	305	14
2023-08-06T18:00	2775	716	-0.6	-0.6	304	14
2023-08-06T18:00	2799	714	-0.8	-0.8	302	14
2023-08-06T18:00	2820	712	-0.9	-0.9	300	13
2023-08-06T18:00	2841	710	-1.0	-1.0	299	13
2023-08-06T18:00	2867	708	-1.1	-1.1	298	13
2023-08-06T18:00	2887	706	-1.2	-1.2	299	13
2023-08-06T18:00	2911	704	-1.3	-1.3	300	13
2023-08-06T18:00	2931	702	-1.4	-1.4	301	13
2023-08-06T18:00	2952	700	-1.6	-1.6	303	13
2023-08-06T18:00	2976	698	-1.7	-1.7	303	13
2023-08-06T18:00	2999	696	-1.8	-1.8	304	13
2023-08-06T18:00	3025	694	-1.9	-1.9	303	13
2023-08-06T18:00	3048	692	-2.0	-2.0	303	13
2023-08-06T18:00	3073	690	-2.1	-2.1	303	13
2023-08-06T18:00	3093	688	-2.2	-2.2	302	13
2023-08-06T18:00	3119	686	-2.2	-2.4	302	13
2023-08-06T18:00	3140	684	-2.4	-2.6	303	14
2023-08-06T18:00	3164	682	-2.5	-2.9	303	14
2023-08-06T18:00	3188	680	-2.6	-3.0	303	15
2023-08-06T18:00	3211	678	-2.7	-3.2	302	15
2023-08-06T18:00	3232	676	-2.8	-3.2	300	14
2023-08-06T18:00	3263	674	-3.0	-3.4	297	14
2023-08-06T18:00	3284	672	-3.1	-3.5	295	14
2023-08-06T18:00	3306	670	-3.3	-3.6	292	14
2023-08-06T18:00	3328	668	-3.4	-3.7	291	14
2023-08-06T18:00	3356	666	-3.4	-3.5	290	14
2023-08-06T18:00	3381	663	-3.6	-3.8	290	14
2023-08-06T18:00	3403	662	-3.6	-3.9	291	14
2023-08-06T18:00	3428	659	-3.8	-4.0	291	14
2023-08-06T18:00	3453	657	-3.9	-4.1	292	15
2023-08-06T18:00	3478	655	-4.0	-4.3	292	15
2023-08-06T18:00	3500	654	-4.0	-4.4	293	15
2023-08-06T18:00	3523	652	-4.2	-4.5	293	15
2023-08-06T18:00	3550	649	-4.3	-4.6	293	16
2023-08-06T18:00	3575	647	-4.4	-4.7	293	16
2023-08-06T18:00	3601	645	-4.4	-4.6	293	15
2023-08-06T18:00	3623	643	-4.6	-4.9	293	15
2023-08-06T18:00	3647	642	-4.6	-4.9	293	15
2023-08-06T18:00	3669	640	-4.7	-5.1	293	15
2023-08-06T18:00	3694	638	-4.8	-5.3	292	15
2023-08-06T18:00	3725	635	-5.0	-5.4	292	15
2023-08-06T18:00	3745	633	-5.2	-5.5	292	15
2023-08-06T18:00	3767	632	-5.3	-5.6	293	15
2023-08-06T18:00	3792	630	-5.4	-5.8	294	15
2023-08-06T18:00	3819	628	-5.6	-5.9	295	15
2023-08-06T18:00	3841	626	-5.8	-6.0	296	16
2023-08-06T18:00	3864	624	-5.9	-6.0	298	16
2023-08-06T18:00	3889	622	-6.0	-6.2	298	16
2023-08-06T18:00	3912	620	-6.1	-6.4	299	16
2023-08-06T18:00	3936	618	-6.3	-6.6	299	16
2023-08-06T18:00	3961	616	-6.4	-6.8	299	16
2023-08-06T18:00	3984	615	-6.4	-7.1	299	16
2023-08-06T18:00	4009	613	-6.5	-7.2	300	16
2023-08-06T18:00	4031	611	-6.6	-7.3	301	16
2023-08-06T18:00	4051	609	-6.7	-7.3	302	15
2023-08-06T18:00	4073	608	-6.8	-7.4	303	15
2023-08-06T18:00	4097	606	-6.9	-7.6	304	15
2023-08-06T18:00	4118	604	-7.0	-7.7	304	15
2023-08-06T18:00	4144	602	-7.1	-8.0	303	15
2023-08-06T18:00	4168	600	-7.1	-8.0	303	16
2023-08-06T18:00	4190	598	-7.3	-8.2	303	16
2023-08-06T18:00	4215	597	-7.4	-8.3	303	17
2023-08-06T18:00	4242	595	-7.5	-8.3	303	17
2023-08-06T18:00	4266	593	-7.7	-8.5	304	17
2023-08-06T18:00	4296	591	-7.7	-8.5	305	16
2023-08-06T18:00	4315	589	-7.8	-8.7	306	16
2023-08-06T18:00	4336	587	-8.0	-9.0	307	15
2023-08-06T18:00	4361	586	-8.0	-9.1	307	14
2023-08-06T18:00	4381	584	-8.1	-9.4	306	13
2023-08-06T18:00	4405	582	-8.2	-9.4	305	12
2023-08-06T18:00	4428	580	-8.2	-9.5	304	12
2023-08-06T18:00	4452	579	-8.2	-9.5	303	11
2023-08-06T18:00	4473	577	-8.4	-9.5	302	11
2023-08-06T18:00	4495	575	-8.5	-9.6	302	11
2023-08-06T18:00	4519	574	-8.5	-9.6	302	11
2023-08-06T18:00	4541	572	-8.6	-9.6	302	11
2023-08-06T18:00	4567	570	-8.7	-9.7	303	10
2023-08-06T18:00	4591	568	-8.9	-9.9	303	10
2023-08-06T18:00	4613	567	-9.0	-10.0	303	10
2023-08-06T18:00	4636	565	-9.1	-10.1	302	10
2023-08-06T18:00	4663	563	-9.2	-10.2	302	10
2023-08-06T18:00	4688	561	-9.3	-10.3	301	9
2023-08-06T18:00	4709	560	-9.5	-10.5	302	9
2023-08-06T18:00	4727	558	-9.5	-10.5	302	9
2023-08-06T18:00	4755	557	-9.6	-10.6	303	8
2023-08-06T18:00	4776	555	-9.7	-10.7	303	8
2023-08-06T18:00	4801	553	-9.9	-10.9	303	8
2023-08-06T18:00	4824	552	-10.0	-10.9	303	8
2023-08-06T18:00	4847	550	-10.1	-11.1	303	8
2023-08-06T18:00	4869	548	-10.2	-11.2	302	7
2023-08-06T18:00	4896	546	-10.4	-11.4	301	7
2023-08-06T18:00	4920	545	-10.5	-11.4	300	7
2023-08-06T18:00	4948	543	-10.7	-11.7	297	6
2023-08-06T18:00	4975	541	-10.8	-11.8	294	6
2023-08-06T18:00	5003	539	-10.9	-11.9	290	6
2023-08-06T18:00	5028	537	-11.0	-12.0	288	6
2023-08-06T18:00	5055	535	-11.2	-12.2	288	5
2023-08-06T18:00	5082	533	-11.3	-12.3	291	5
2023-08-06T18:00	5105	532	-11.4	-12.4	298	5
2023-08-06T18:00	5131	530	-11.5	-12.4	307	5
2023-08-06T18:00	5156	528	-11.6	-12.5	315	5
2023-08-06T18:00	5188	526	-11.7	-12.6	322	5
2023-08-06T18:00	5215	524	-11.8	-12.6	325	5
2023-08-06T18:00	5243	522	-11.9	-12.7	326	6
2023-08-06T18:00	5267	521	-12.0	-12.9	326	6
2023-08-06T18:00	5292	519	-12.1	-13.0	326	5
2023-08-06T18:00	5317	517	-12.2	-13.1	328	5
2023-08-06T18:00	5345	515	-12.3	-13.1	334	4
2023-08-06T18:00	5373	514	-12.4	-13.1	343	4
2023-08-06T18:00	5393	512	-12.5	-13.2	352	3
2023-08-06T18:00	5416	511	-12.6	-13.4	360	3
2023-08-06T18:00	5441	509	-12.7	-13.5	2	3
2023-08-06T18:00	5461	508	-12.9	-13.6	1	3
2023-08-06T18:00	5486	506	-13.0	-13.7	355	2
2023-08-06T18:00	5512	504	-13.1	-13.8	347	2
2023-08-06T18:00	5539	502	-13.3	-14.0	341	2
2023-08-06T18:00	5566	501	-13.4	-14.2	341	2
2023-08-06T18:00	5591	499	-13.5	-14.3	347	2
2023-08-06T18:00	5612	498	-13.7	-14.5	355	2
2023-08-06T18:00	5634	496	-13.8	-14.6	2	3
2023-08-06T18:00	5655	495	-13.9	-14.8	7	2
2023-08-06T18:00	5680	493	-13.9	-14.8	9	2
2023-08-06T18:00	5702	492	-14.1	-15.1	6	2
2023-08-06T18:00	5723	490	-14.2	-15.1	358	2
2023-08-06T18:00	5750	489	-14.3	-15.4	347	2
2023-08-06T18:00	5777	487	-14.5	-15.5	340	3
2023-08-06T18:00	5803	485	-14.7	-15.7	336	4
2023-08-06T18:00	5828	484	-14.9	-15.8	334	4
2023-08-06T18:00	5849	482	-15.0	-15.9	331	5
2023-08-06T18:00	5874	481	-15.1	-15.9	328	5
2023-08-06T18:00	5900	479	-15.3	-16.2	327	5
2023-08-06T18:00	5925	477	-15.4	-16.3	326	4
2023-08-06T18:00	5957	476	-15.6	-16.6	327	4
2023-08-06T18:00	5985	474	-15.8	-16.9	330	4
2023-08-06T18:00	6012	472	-16.0	-17.1	332	3
2023-08-06T18:00	6037	470	-16.2		332	3
2023-08-06T18:00	6073	468	-16.4	-17.7	328	3
2023-08-06T18:00	6101	467	-16.7	-18.1	321	3
2023-08-06T18:00	6128	465	-16.8	-18.0	313	3
2023-08-06T18:00	6156	463	-17.0	-18.3	304	3
2023-08-06T18:00	6183	461	-17.2	-18.6	296	3
2023-08-06T18:00	6210	460	-17.3	-18.8	289	3
2023-08-06T18:00	6239	458	-17.4	-18.9	285	3
2023-08-06T18:00	6262	457	-17.5	-19.0	284	3
2023-08-06T18:00	6287	455	-17.6	-19.1	285	2
2023-08-06T18:00	6315	453	-17.7	-19.1	287	1
2023-08-06T18:00	6341	452	-17.8	-19.2	295	0
2023-08-06T18:00	6365	450	-18.0	-19.4	102	1
2023-08-06T18:00	6392	449	-18.1	-19.5	107	1
2023-08-06T18:00	6417	447	-18.3	-19.5	106	1
2023-08-06T18:00	6442	446	-18.5	-19.9	102	1
2023-08-06T18:00	6467	444	-18.6	-19.9	90	1
2023-08-06T18:00	6494	443	-18.9	-20.2	76	1
2023-08-06T18:00	6523	441	-19.1	-20.4	69	1
2023-08-06T18:00	6546	440	-19.2	-20.5	68	1
2023-08-06T18:00	6569	438	-19.4	-20.7	67	2
2023-08-06T18:00	6596	437	-19.6	-20.8	65	3
2023-08-06T18:00	6618	435	-19.8	-21.1	64	3
2023-08-06T18:00	6642	434	-19.9	-21.2	65	4
2023-08-06T18:00	6666	432	-20.1	-21.3	68	4
2023-08-06T18:00	6698	431	-20.2	-21.4	75	4
2023-08-06T18:00	6728	429	-20.2	-21.6	84	4
2023-08-06T18:00	6755	427	-20.3	-21.5	92	5
2023-08-06T18:00	6784	426	-20.6	-21.7	99	6
2023-08-06T18:00	6812	424	-20.7	-21.7	104	6
2023-08-06T18:00	6841	423	-21.0	-21.9	109	7
2023-08-06T18:00	6863	421	-21.2	-21.9	113	8
2023-08-06T18:00	6887	420	-21.2	-21.8	117	8
2023-08-06T18:00	6915	418	-21.3	-22.0	121	9
2023-08-06T18:00	6944	417	-21.3	-22.2	124	10
2023-08-06T18:00	6970	415	-21.3	-22.1	126	10
2023-08-06T18:00	6995	414	-21.3	-22.1	129	10
2023-08-06T18:00	7022	412	-21.4	-22.4	131	10
2023-08-06T18:00	7046	411	-21.6	-22.6	133	9
2023-08-06T18:00	7068	410	-21.8	-22.9	134	9
2023-08-06T18:00	7093	408	-21.9	-23.2	134	9
2023-08-06T18:00	7115	407	-22.0		133	9
2023-08-06T18:00	7139	406	-22.2	-23.5	131	9
2023-08-06T18:00	7161	404	-22.3	-23.7	129	10
2023-08-06T18:00	7188	403	-22.4	-23.7	128	10
2023-08-06T18:00	7210	402	-22.5	-23.7	127	11
2023-08-06T18:00	7236	400	-22.5	-23.6	128	11
2023-08-06T18:00	7263	399	-22.7	-23.6	129	12
2023-08-06T18:00	7289	398	-22.8	-23.7	129	12
2023-08-06T18:00	7308	396	-22.9	-24.0	129	12
2023-08-06T18:00	7335	395	-23.1	-24.3	128	12
2023-08-06T18:00	7362	394	-23.4	-24.8	126	12
2023-08-06T18:00	7388	392	-23.6	-25.0	124	12
2023-08-06T18:00	7415	391	-23.8	-25.2	123	12
2023-08-06T18:00	7441	389	-24.0	-25.4	123	12
2023-08-06T18:00	7467	388	-24.2	-25.4	124	13
2023-08-06T18:00	7490	387	-24.4	-25.5	126	13
2023-08-06T18:00	7514	386	-24.6	-25.6	129	13
2023-08-06T18:00	7536	384	-24.7	-25.6	131	14
2023-08-06T18:00	7560	383	-24.9	-26.0	133	14
2023-08-06T18:00	7583	382	-25.1	-26.2	133	14
2023-08-06T18:00	7608	381	-25.2	-26.4	133	14
2023-08-06T18:00	7632	379	-25.4	-26.7	133	15
2023-08-06T18:00	7659	378	-25.6	-27.1	133	15
2023-08-06T18:00	7685	377	-25.8	-27.3	134	15
2023-08-06T18:00	7709	375	-26.0	-27.5	134	15
2023-08-06T18:00	7734	374	-26.2	-27.8	135	15
2023-08-06T18:00	7759	373	-26.4	-28.2	136	14
2023-08-06T18:00	7786	371	-26.6	-28.3	137	14
2023-08-06T18:00	7815	370	-26.8	-28.5	138	15
2023-08-06T18:00	7839	368	-27.0	-28.8	138	15
2023-08-06T18:00	7866	367	-27.2	-29.0	137	15
2023-08-06T18:00	7891	366	-27.4	-29.2	136	15
2023-08-06T18:00	7917	365	-27.6	-29.6	135	14
2023-08-06T18:00	7938	363	-27.8	-29.7	135	14
2023-08-06T18:00	7961	362	-27.9	-29.8	135	14
2023-08-06T18:00	7986	361	-28.1	-30.1	135	14
2023-08-06T18:00	8008	360	-28.3	-30.3	135	14
2023-08-06T18:00	8032	359	-28.5	-30.5	135	14
2023-08-06T18:00	8057	358	-28.7	-30.5	135	15
2023-08-06T18:00	8082	356	-28.9	-30.7	134	15
2023-08-06T18:00	8107	355	-29.1	-31.0	133	15
2023-08-06T18:00	8131	354	-29.3	-31.2	132	15
2023-08-06T18:00	8154	353	-29.5	-31.4	131	15
2023-08-06T18:00	8178	352	-29.7	-31.5	130	15
2023-08-06T18:00	8199	350	-29.8	-31.5	130	15
2023-08-06T18:00	8224	349	-30.0	-31.6	129	15
2023-08-06T18:00	8248	348	-30.1	-31.7	128	15
2023-08-06T18:00	8271	347	-30.3	-31.7	126	15
2023-08-06T18:00	8295	346	-30.5	-31.8	124	15
2023-08-06T18:00	8319	345	-30.6	-31.9	122	15
2023-08-06T18:00	8348	343	-30.9	-32.2	121	15
2023-08-06T18:00	8374	342	-31.1	-32.3	120	15
2023-08-06T18:00	8400	341	-31.3	-32.5	120	15
2023-08-06T18:00	8428	339	-31.5	-32.6	119	15
2023-08-06T18:00	8457	338	-31.7	-32.7	119	16
2023-08-06T18:00	8478	337	-31.9	-32.9	120	16
2023-08-06T18:00	8505	336	-32.2	-33.2	120	16
2023-08-06T18:00	8530	334	-32.4	-33.2	120	17
2023-08-06T18:00	8557	333	-32.6	-33.3	120	17
2023-08-06T18:00	8581	332	-32.8	-33.5	119	17
2023-08-06T18:00	8608	331	-33.2	-34.7	119	17
2023-08-06T18:00	8632	330	-33.4	-34.5	118	17
2023-08-06T18:00	8659	329	-33.6	-34.9	118	18
2023-08-06T18:00	8679	328	-33.8	-35.5	118	18
2023-08-06T18:00	8701	326	-34.0	-36.3	118	18
2023-08-06T18:00	8724	325	-34.2	-36.5	118	19
2023-08-06T18:00	8746	324	-34.4	-37.7	119	19
2023-08-06T18:00	8771	323	-34.7	-38.5	119	19
2023-08-06T18:00	8794	322	-34.9	-38.5	119	20
2023-08-06T18:00	8819	321	-35.1	-39.5	120	20
2023-08-06T18:00	8844	320	-35.3	-40.9	120	20
2023-08-06T18:00	8866	319	-35.5	-40.7	120	20
2023-08-06T18:00	8888	318	-35.7	-40.6	121	21
2023-08-06T18:00	8914	317	-35.9	-40.7	121	21
2023-08-06T18:00	8937	316	-36.1	-40.8	121	21
2023-08-06T18:00	8958	315	-36.3	-40.8	121	21
2023-08-06T18:00	8985	314	-36.5	-40.5	121	21
2023-08-06T18:00	9008	312	-36.7	-40.6	120	21
2023-08-06T18:00	9036	311	-36.9	-40.3	119	21
2023-08-06T18:00	9062	310	-37.1	-40.1	118	21
2023-08-06T18:00	9086	309	-37.3	-39.9	117	21
2023-08-06T18:00	9118	308	-37.5	-39.7	116	21
2023-08-06T18:00	9143	306	-37.8	-40.0	116	21
2023-08-06T18:00	9169	305	-38.0	-40.0	116	21
2023-08-06T18:00	9194	304	-38.2	-39.8	116	21
2023-08-06T18:00	9223	303	-38.5	-40.2	116	21
2023-08-06T18:00	9248	302	-38.7	-40.5	115	21
2023-08-06T18:00	9275	301	-38.9	-41.4	115	21
2023-08-06T18:00	9301	299	-39.2	-42.0	114	21
2023-08-06T18:00	9325	298	-39.4	-41.7	113	21
2023-08-06T18:00	9349	297	-39.5	-42.3	112	21
2023-08-06T18:00	9372	296	-39.7	-42.8	111	21
2023-08-06T18:00	9396	295	-39.9	-43.1	111	21
2023-08-06T18:00	9419	294	-40.1	-44.5	111	21
2023-08-06T18:00	9444	293	-40.3	-44.7	111	21
2023-08-06T18:00	9471	292	-40.5	-44.6	112	21
2023-08-06T18:00	9494	291	-40.7	-44.7	112	21
2023-08-06T18:00	9520	290	-41.0	-44.9	112	21
2023-08-06T18:00	9546	289	-41.2	-45.5	112	22
2023-08-06T18:00	9571	288	-41.4	-45.8	112	22
2023-08-06T18:00	9597	287	-41.7	-46.4	112	22
2023-08-06T18:00	9625	286	-41.9	-46.3	111	22
2023-08-06T18:00	9652	284	-42.1	-46.4	111	22
2023-08-06T18:00	9679	283	-42.4	-46.6	112	22
2023-08-06T18:00	9709	282	-42.6	-46.7	112	23
2023-08-06T18:00	9735	281	-42.9	-46.8	112	23
2023-08-06T18:00	9758	280	-43.1	-47.2	112	23
2023-08-06T18:00	9785	279	-43.3	-47.2	112	23
2023-08-06T18:00	9811	278	-43.6	-47.3	111	23
2023-08-06T18:00	9835	277	-43.8	-47.4	110	22
2023-08-06T18:00	9866	275	-44.0	-47.5	109	22
2023-08-06T18:00	9895	274	-44.3	-47.9	107	22
2023-08-06T18:00	9920	273	-44.4	-48.2	106	22
2023-08-06T18:00	9950	272	-44.6	-48.5	105	21
2023-08-06T18:00	9975	271	-44.8	-48.5	105	21
2023-08-06T18:00	10002	270	-45.0	-48.5	104	21
2023-08-06T18:00	10031	269	-45.2	-48.6	103	20
2023-08-06T18:00	10054	268	-45.4	-48.7	102	20
2023-08-06T18:00	10077	267	-45.6	-48.7	101	20
2023-08-06T18:00	10098	266	-45.6	-48.2	100	20
2023-08-06T18:00	10125	265	-45.7	-48.2	99	20
2023-08-06T18:00	10156	264	-45.9	-49.3	99	21
2023-08-06T18:00	10186	263	-45.9	-50.6	98	21
2023-08-06T18:00	10209	262	-46.1	-51.0	98	21
2023-08-06T18:00	10236	261	-46.3	-51.1	98	21
2023-08-06T18:00	10265	260	-46.6	-51.3	98	21
2023-08-06T18:00	10292	258	-46.8	-51.3	98	22
2023-08-06T18:00	10319	257	-47.1	-51.4	99	22
2023-08-06T18:00	10347	256	-47.3	-51.3	99	22
2023-08-06T18:00	10378	255	-47.6	-51.4	100	22
2023-08-06T18:00	10404	254	-47.9	-51.6	100	22
2023-08-06T18:00	10432	253	-48.1	-51.7	101	22
2023-08-06T18:00	10461	252	-48.3	-51.8	103	22
2023-08-06T18:00	10487	251	-48.5	-52.0	104	22
2023-08-06T18:00	10512	250	-48.6	-52.2	105	22
2023-08-06T18:00	10536	249	-48.8	-52.4	106	22
2023-08-06T18:00	10562	248	-49.0	-52.8	107	22
2023-08-06T18:00	10586	247	-49.2	-53.1	108	22
2023-08-06T18:00	10613	246	-49.4	-53.2	109	23
2023-08-06T18:00	10638	245	-49.7	-53.4	110	23
2023-08-06T18:00	10664	244	-49.9	-53.5	111	23
2023-08-06T18:00	10692	243	-50.1	-53.7	112	23
2023-08-06T18:00	10720	242	-50.4	-53.9	113	23
2023-08-06T18:00	10742	241	-50.5	-53.9	114	23
2023-08-06T18:00	10766	240	-50.7	-54.0	115	23
2023-08-06T18:00	10790	240	-50.8	-53.9	116	23
2023-08-06T18:00	10815	239	-50.9	-53.4	117	23
2023-08-06T18:00	10837	238	-51.1	-52.6	118	23
2023-08-06T18:00	10861	237	-51.2	-52.0	119	23
2023-08-06T18:00	10885	236	-51.4	-52.2	121	23
2023-08-06T18:00	10912	235	-51.4	-53.2	123	22
2023-08-06T18:00	10941	234	-50.9	-55.0	124	21
2023-08-06T18:00	10969	233	-50.3	-56.8	125	20
2023-08-06T18:00	10999	232	-49.9	-57.7	124	19
2023-08-06T18:00	11026	231	-49.6	-58.6	123	18
2023-08-06T18:00	11059	230	-49.5	-60.0	123	18
2023-08-06T18:00	11084	229	-48.8	-62.8	124	18
2023-08-06T18:00	11111	228	-47.2	-67.1	126	18
2023-08-06T18:00	11137	227	-46.7	-69.8	128	18
2023-08-06T18:00	11163	226	-46.6	-68.0	130	18
2023-08-06T18:00	11190	225	-46.5	-66.8	132	18
2023-08-06T18:00	11214	225	-46.1	-67.6	133	18
2023-08-06T18:00	11240	224	-45.8	-70.5	135	17
2023-08-06T18:00	11267	223	-45.5	-72.9	137	17
2023-08-06T18:00	11297	222	-45.4	-72.5	139	17
2023-08-06T18:00	11321	221	-45.3	-71.5	141	17
2023-08-06T18:00	11349	220	-44.4	-70.8	141	17
2023-08-06T18:00	11375	219	-44.2	-70.7	141	17
2023-08-06T18:00	11406	218	-44.2	-71.4	140	16
2023-08-06T18:00	11435	217	-44.4	-72.0	139	16
2023-08-06T18:00	11462	216	-44.6	-72.4	137	16
2023-08-06T18:00	11492	215	-44.7	-72.5	136	16
2023-08-06T18:00	11521	214	-44.7	-72.8	135	16
2023-08-06T18:00	11552	213	-44.6	-73.0	135	16
2023-08-06T18:00	11584	212	-44.7	-73.1	136	16
2023-08-06T18:00	11613	211	-44.7	-73.4	138	16
2023-08-06T18:00	11644	211	-44.6	-74.0	140	17
2023-08-06T18:00	11677	210	-44.8	-74.1	142	17
2023-08-06T18:00	11705	209	-44.9	-74.5	143	17
2023-08-06T18:00	11734	208	-45.0	-74.3	145	17
2023-08-06T18:00	11766	207	-45.1	-74.3	146	17
2023-08-06T18:00	11797	206	-44.9	-74.2	146	16
2023-08-06T18:00	11827	205	-44.8	-74.5	146	16
2023-08-06T18:00	11854	204	-44.7	-74.4	146	16
2023-08-06T18:00	11885	203	-44.6	-74.3	145	16
2023-08-06T18:00	11916	202	-44.5	-74.6	145	16
2023-08-06T18:00	11946	201	-44.5	-75.4	145	16
2023-08-06T18:00	11975	200	-44.4	-75.8	145	15
2023-08-06T18:00	12002	200	-44.5	-75.8	145	15
2023-08-06T18:00	12030	199	-44.5	-76.3	145	14
2023-08-06T18:00	12056	198	-44.5	-76.3	145	14
2023-08-06T18:00	12086	197	-44.6	-75.9	145	14
2023-08-06T18:00	12118	196	-44.4	-75.8	146	13
2023-08-06T18:00	12148	195	-44.3	-76.2	147	13
2023-08-06T18:00	12177	194	-44.4	-76.2	148	13
2023-08-06T18:00	12210	193	-44.3	-76.7	149	13
2023-08-06T18:00	12240	193	-44.3	-76.7	149	13
2023-08-06T18:00	12270	192	-44.4	-76.7	149	13
2023-08-06T18:00	12301	191	-44.3	-76.7	149	13
2023-08-06T18:00	12327	190	-44.4	-77.3	149	14
2023-08-06T18:00	12353	189	-44.2	-77.1	149	14
2023-08-06T18:00	12383	189	-44.1	-77.1	149	15
2023-08-06T18:00	12412	188	-44.0	-77.0	149	15
2023-08-06T18:00	12443	187	-43.9	-76.9	148	15
2023-08-06T18:00	12476	186	-43.9	-76.9	148	15
2023-08-06T18:00	12503	185	-44.0	-77.0	147	15
2023-08-06T18:00	12527	184	-43.8	-76.9	148	15
2023-08-06T18:00	12558	184	-43.7	-76.8	149	15
2023-08-06T18:00	12584	183	-43.6	-76.7	150	15
2023-08-06T18:00	12613	182	-43.6	-77.3	152	15
2023-08-06T18:00	12644	181	-43.5	-76.6	155	15
2023-08-06T18:00	12675	180	-43.4	-76.6	157	14
2023-08-06T18:00	12709	180	-43.5	-76.6	160	14
2023-08-06T18:00	12736	179	-43.4	-76.6	163	13
2023-08-06T18:00	12770	178	-42.9	-76.2	166	13
2023-08-06T18:00	12799	177	-42.7	-76.0	169	14
2023-08-06T18:00	12824	177	-42.8	-76.1	171	14
2023-08-06T18:00	12853	176	-43.0	-76.3	172	14
2023-08-06T18:00	12880	175	-43.0	-76.3	172	14
2023-08-06T18:00	12911	174	-43.0	-75.7	172	14
2023-08-06T18:00	12941	173	-43.3	-75.9	171	13
2023-08-06T18:00	12974	173	-43.5	-76.1	170	13
2023-08-06T18:00	13003	172	-43.5	-76.6	169	12
2023-08-06T18:00	13035	171	-43.5	-76.6	167	12
2023-08-06T18:00	13064	170	-43.7	-76.8	165	12
2023-08-06T18:00	13087	170	-43.8	-76.9	163	11
2023-08-06T18:00	13116	169	-43.8	-76.9	160	11
2023-08-06T18:00	13149	168	-44.0	-77.0	157	11
2023-08-06T18:00	13184	167	-44.3	-77.2	154	11
2023-08-06T18:00	13214	167	-44.2	-77.1	150	11
2023-08-06T18:00	13244	166	-44.1	-77.1	147	11
2023-08-06T18:00	13275	165	-44.1	-77.1	146	11
2023-08-06T18:00	13309	164	-44.2	-77.1	146	11
2023-08-06T18:00	13338	164	-44.0	-77.0	147	11
2023-08-06T18:00	13367	163	-44.0	-77.0	149	12
2023-08-06T18:00	13396	162	-44.1	-77.1	150	12
2023-08-06T18:00	13429	161	-44.3	-77.2	151	12
2023-08-06T18:00	13461	161	-44.4	-77.3	153	12
2023-08-06T18:00	13488	160	-44.6	-77.4	154	13
2023-08-06T18:00	13520	159	-44.7	-77.5	156	13
2023-08-06T18:00	13549	158	-44.8	-77.6	158	13
2023-08-06T18:00	13576	158	-44.8	-77.6	159	14
2023-08-06T18:00	13604	157	-44.9	-77.7	160	14
2023-08-06T18:00	13634	157	-45.0	-77.7	161	15
2023-08-06T18:00	13660	156	-44.9	-77.7	162	15
2023-08-06T18:00	13688	155	-44.9	-77.7	164	15
2023-08-06T18:00	13718	154	-44.8	-77.0	167	15
2023-08-06T18:00	13751	154	-44.8	-77.0	171	15
2023-08-06T18:00	13782	153	-44.8	-77.0	174	15
2023-08-06T18:00	13812	152	-44.9	-77.7	177	15
2023-08-06T18:00	13842	152	-44.7	-77.5	178	15
2023-08-06T18:00	13868	151	-44.7	-77.5	180	15
2023-08-06T18:00	13895	150	-44.9	-77.7	181	15
2023-08-06T18:00	13924	150	-45.1	-77.8	182	15
2023-08-06T18:00	13955	149	-45.3	-78.0	183	15
2023-08-06T18:00	13987	148	-45.5	-78.1	183	14
2023-08-06T18:00	14018	148	-45.5	-77.6	184	14
2023-08-06T18:00	14047	147	-45.6	-78.2	185	14
2023-08-06T18:00	14075	146	-45.5	-77.6	186	14
2023-08-06T18:00	14103	146	-45.6	-77.6	188	14
2023-08-06T18:00	14131	145	-46.0	-77.9	189	14
2023-08-06T18:00	14160	145	-46.2	-78.1	190	15
2023-08-06T18:00	14195	144	-46.4	-78.2	191	15
2023-08-06T18:00	14225	143	-46.3	-78.2	191	15
2023-08-06T18:00	14257	143	-46.1	-78.0	191	15
2023-08-06T18:00	14286	142	-46.3	-78.2	191	14
2023-08-06T18:00	14312	141	-46.4	-78.2	191	14
2023-08-06T18:00	14347	141	-46.4	-78.2	192	13
2023-08-06T18:00	14373	140	-46.4	-78.8	193	13
2023-08-06T18:00	14398	140	-46.2	-78.6	194	13
2023-08-06T18:00	14425	139	-46.3	-78.7	194	13
2023-08-06T18:00	14459	138	-46.5	-78.8	193	13
2023-08-06T18:00	14486	138	-46.6	-78.9	193	12
2023-08-06T18:00	14517	137	-46.3	-78.7	193	12
2023-08-06T18:00	14546	136	-46.3	-78.7	193	12
2023-08-06T18:00	14575	136	-46.1	-78.5	193	12
2023-08-06T18:00	14612	135	-46.2	-78.6	192	11
2023-08-06T18:00	14641	135	-46.4	-79.3	190	11
2023-08-06T18:00	14671	134	-46.4	-79.3	187	11
2023-08-06T18:00	14702	133	-46.3	-79.3	183	10
2023-08-06T18:00	14724	133	-46.3	-79.3	180	10
2023-08-06T18:00	14756	132	-46.4	-79.3	178	10
2023-08-06T18:00	14782	132	-46.4	-79.3	178	10
2023-08-06T18:00	14810	131	-46.2	-79.2	178	9
2023-08-06T18:00	14836	131	-46.1	-79.1	179	9
2023-08-06T18:00	14865	130	-46.2	-79.2	180	9
2023-08-06T18:00	14899	129	-46.5	-79.4	182	9
2023-08-06T18:00	14926	129	-46.7	-79.6	183	9
2023-08-06T18:00	14951	128	-46.8	-79.6	185	10
2023-08-06T18:00	14981	128	-46.6	-79.5	186	10
2023-08-06T18:00	15010	127	-46.6	-79.5	187	10
2023-08-06T18:00	15036	127	-46.6	-79.5	188	9
2023-08-06T18:00	15066	126	-46.7	-79.6	189	9
2023-08-06T18:00	15096	126	-46.9	-79.7	188	9
2023-08-06T18:00	15124	125	-46.9	-79.7	187	9
2023-08-06T18:00	15154	125	-47.1	-79.9	186	9
2023-08-06T18:00	15185	124	-47.2	-79.4	185	9
2023-08-06T18:00	15215	123	-47.5	-79.6	183	9
2023-08-06T18:00	15243	123	-47.7	-79.7	181	8
2023-08-06T18:00	15278	122	-47.9	-79.9	179	8
2023-08-06T18:00	15311	122	-48.0	-79.9	176	8
2023-08-06T18:00	15340	121	-48.1	-80.0	173	8
2023-08-06T18:00	15371	120	-48.2	-80.1	169	8
2023-08-06T18:00	15401	120	-48.3	-80.2	165	8
2023-08-06T18:00	15428	119	-48.4	-80.2	162	9
2023-08-06T18:00	15454	119	-48.5	-80.3	161	9
2023-08-06T18:00	15482	118	-48.6	-80.4	160	9
2023-08-06T18:00	15509	118	-48.4	-80.8	162	10
2023-08-06T18:00	15536	118	-48.2	-80.7	165	10
2023-08-06T18:00	15561	117	-48.2	-80.7	169	10
2023-08-06T18:00	15585	117	-48.2	-80.7	173	11
2023-08-06T18:00	15616	116	-48.2	-80.7	178	11
2023-08-06T18:00	15646	116	-47.7	-80.3	182	10
2023-08-06T18:00	15670	115	-47.5	-80.2	185	10
2023-08-06T18:00	15704	115	-47.8	-80.4	188	9
2023-08-06T18:00	15727	114	-47.9	-80.4	191	9
2023-08-06T18:00	15753	114	-48.1	-80.6	195	8
2023-08-06T18:00	15778	113	-48.2	-80.7	198	8
2023-08-06T18:00	15804	113	-48.2	-80.7	200	8
2023-08-06T18:00	15837	112	-48.1	-80.6	200	8
2023-08-06T18:00	15861	112	-47.9	-80.4	200	8
2023-08-06T18:00	15891	111	-48.0	-80.5	199	8
2023-08-06T18:00	15916	111	-48.0	-80.5	199	8
2023-08-06T18:00	15941	110	-48.0	-80.5	198	7
2023-08-06T18:00	15968	110	-48.2	-80.7	198	7
2023-08-06T18:00	15994	110	-48.2	-80.7	197	7
2023-08-06T18:00	16025	109	-48.3	-80.7	196	7
2023-08-06T18:00	16056	109	-48.5	-80.9	195	8
2023-08-06T18:00	16085	108	-48.7	-81.0	195	8
2023-08-06T18:00	16113	108	-48.9	-81.2	196	8
2023-08-06T18:00	16137	107	-49.1	-81.3	198	8
2023-08-06T18:00	16163	107	-49.2	-81.4	198	8
2023-08-06T18:00	16192	106	-49.2	-81.4	198	8
2023-08-06T18:00	16218	106	-49.1	-81.3	198	8
2023-08-06T18:00	16243	106	-49.0	-81.3	196	9
2023-08-06T18:00	16269	105	-49.1	-81.3	195	9
2023-08-06T18:00	16304	105	-49.2	-81.4	193	10
2023-08-06T18:00	16332	104	-49.3	-81.5	192	10
2023-08-06T18:00	16358	104	-49.4	-81.6	191	11
2023-08-06T18:00	16392	103	-49.5	-81.6	189	11
2023-08-06T18:00	16419	103	-49.7	-81.8	188	11
2023-08-06T18:00	16447	102	-49.9	-81.9	186	11
2023-08-06T18:00	16478	102	-50.1	-82.1	185	11
2023-08-06T18:00	16500	101	-50.2	-82.1	185	11
2023-08-06T18:00	16520	101	-50.1	-82.1	184	11
2023-08-06T18:00	16545	101	-50.0	-82.0	185	11
2023-08-06T18:00	16572	100	-49.8	-81.8	185	11
2023-08-06T18:00	16602	100	-49.5	-81.6	185	11
2023-08-06T18:00	16630	100	-49.6	-82.3	186	11
2023-08-06T18:00	16655	99	-49.6	-82.3	186	12
2023-08-06T18:00	16680	99	-49.6	-82.3	187	11
2023-08-06T18:00	16706	98	-49.7	-81.8	189	11
2023-08-06T18:00	16726	98	-49.7	-81.8	191	11
2023-08-06T18:00	16751	98	-49.5	-81.6	193	11
2023-08-06T18:00	16783	97	-49.5	-81.6	195	10
2023-08-06T18:00	16810	97	-49.8	-81.8	196	10
2023-08-06T18:00	16830	96	-49.9	-81.9	197	10
2023-08-06T18:00	16857	96	-49.9	-81.9	197	10
2023-08-06T18:00	16882	96	-50.0	-82.0	195	9
2023-08-06T18:00	16911	95	-50.1	-82.1	193	9
2023-08-06T18:00	16937	95	-50.2	-82.1	191	8
2023-08-06T18:00	16961	95	-50.4	-82.3	189	8
2023-08-06T18:00	16983	94	-50.3	-82.2	187	8
2023-08-06T18:00	17006	94	-50.1	-82.1	185	7
2023-08-06T18:00	17029	94	-50.1	-82.1	183	7
2023-08-06T18:00	17050	93	-50.3	-82.2	182	7
2023-08-06T18:00	17077	93	-50.5		180	7
2023-08-06T18:00	17100	93	-50.6	-82.4	178	7
2023-08-06T18:00	17121	92	-50.6	-82.4	176	7
2023-08-06T18:00	17146	92	-50.7	-82.5	175	8
2023-08-06T18:00	17169	92	-50.8	-82.6	175	8
2023-08-06T18:00	17189	91	-50.8	-82.6	177	8
2023-08-06T18:00	17217	91	-50.7	-82.5	179	8
2023-08-06T18:00	17238	91	-50.6	-82.4	182	9
2023-08-06T18:00	17262	90	-50.7	-82.5	185	9
2023-08-06T18:00	17287	90	-50.8	-82.6	188	9
2023-08-06T18:00	17307	90	-50.8	-82.6	191	9
2023-08-06T18:00	17338	89	-50.6	-82.4	193	8
2023-08-06T18:00	17360	89	-50.5		193	8
2023-08-06T18:00	17381	89	-50.6	-82.4	192	7
2023-08-06T18:00	17401	88	-50.5	-83.0	189	7
2023-08-06T18:00	17429	88	-50.1	-82.7	184	7
2023-08-06T18:00	17454	88	-49.8	-82.5	179	7
2023-08-06T18:00	17480	87	-49.6	-82.3	173	7
2023-08-06T18:00	17510	87	-49.7	-82.4	168	7
2023-08-06T18:00	17541	87	-50.0	-82.6	164	8
2023-08-06T18:00	17570	86	-50.2	-82.8	161	8
2023-08-06T18:00	17599	86	-50.1	-82.7	159	9
2023-08-06T18:00	17624	85	-50.1	-82.1	159	10
2023-08-06T18:00	17652	85	-50.1	-82.1	161	10
2023-08-06T18:00	17678	85	-50.3	-82.2	162	10
2023-08-06T18:00	17702	84	-50.3	-82.2	164	10
2023-08-06T18:00	17733	84	-50.5		167	10
2023-08-06T18:00	17755	84	-50.7	-82.5	169	10
2023-08-06T18:00	17780	83	-50.9	-82.7	172	10
2023-08-06T18:00	17807	83	-51.1	-82.8	175	10
2023-08-06T18:00	17831	83	-51.2	-82.9	178	9
2023-08-06T18:00	17855	82	-51.4	-82.5	181	9
2023-08-06T18:00	17878	82	-51.6	-82.6	185	9
2023-08-06T18:00	17904	82	-51.7	-82.7	187	9
2023-08-06T18:00	17932	82	-51.8	-82.8	190	9
2023-08-06T18:00	17952	81	-52.0	-82.9	191	8
2023-08-06T18:00	17979	81	-51.9	-82.8	191	8
2023-08-06T18:00	18003	81	-51.9	-83.4	190	7
2023-08-06T18:00	18027	80	-51.9	-83.4	189	7
2023-08-06T18:00	18050	80	-51.9	-83.4	189	6
2023-08-06T18:00	18076	80	-51.9	-83.4	188	6
2023-08-06T18:00	18100	79	-51.8	-83.3	189	6
2023-08-06T18:00	18123	79	-51.5	-83.1	191	6
2023-08-06T18:00	18151	79	-51.2	-82.9	193	6
2023-08-06T18:00	18178	78	-51.2	-82.9	196	6
2023-08-06T18:00	18199	78	-51.3	-82.9	199	6
2023-08-06T18:00	18224	78	-51.6	-83.2	202	6
2023-08-06T18:00	18249	78	-51.7	-83.2	206	6
2023-08-06T18:00	18272	77	-51.7	-83.2	209	6
2023-08-06T18:00	18296	77	-51.7	-83.2	212	6
2023-08-06T18:00	18321	77	-51.7	-83.2	215	6
2023-08-06T18:00	18347	76	-51.5	-83.1	217	6
2023-08-06T18:00	18375	76	-51.4	-83.0	217	5
2023-08-06T18:00	18398	76	-51.5	-83.1	215	5
2023-08-06T18:00	18420	76	-51.6	-83.2	209	4
2023-08-06T18:00	18444	75	-51.6	-83.2	199	4
2023-08-06T18:00	18463	75	-51.6	-83.2	189	4
2023-08-06T18:00	18495	75	-51.7	-83.2	180	4
2023-08-06T18:00	18520	74	-51.7	-83.2	172	4
2023-08-06T18:00	18545	74	-51.8	-83.3	166	5
2023-08-06T18:00	18568	74	-51.9	-83.4	160	5
2023-08-06T18:00	18595	74	-51.9	-83.4	154	5
2023-08-06T18:00	18619	73	-52.1	-83.5	146	6
2023-08-06T18:00	18639	73	-52.2	-83.6	138	6
2023-08-06T18:00	18663	73	-52.4	-83.8	130	7
2023-08-06T18:00	18686	73	-52.4	-83.8	124	8
2023-08-06T18:00	18709	72	-52.4	-83.8	120	9
2023-08-06T18:00	18734	72	-52.4	-83.8	118	9
2023-08-06T18:00	18755	72	-52.2	-83.6	117	10
2023-08-06T18:00	18776	71	-51.8	-83.3	118	11
2023-08-06T18:00	18809	71	-51.8	-83.3	119	11
2023-08-06T18:00	18828	71	-51.8	-83.3	120	12
2023-08-06T18:00	18851	71	-51.9	-83.4	122	12
2023-08-06T18:00	18871	70	-52.0	-83.5	124	12
2023-08-06T18:00	18897	70	-52.1	-83.5	126	13
2023-08-06T18:00	18921	70	-51.9	-83.4	129	13
2023-08-06T18:00	18941	70	-51.8	-83.3	131	13
2023-08-06T18:00	18966	69	-51.8	-83.3	134	13
2023-08-06T18:00	18987	69	-51.9	-83.4	137	14
2023-08-06T18:00	19010	69	-52.0	-83.5	140	14
2023-08-06T18:00	19029	69	-52.1	-83.5	144	14
2023-08-06T18:00	19056	69	-52.2	-83.6	148	14
2023-08-06T18:00	19080	68	-52.3	-83.7	152	14
2023-08-06T18:00	19099	68	-52.3	-83.7	155	14
2023-08-06T18:00	19120	68	-52.1	-83.5	158	14
2023-08-06T18:00	19142	68	-51.7	-83.9	160	14
2023-08-06T18:00	19162	67	-51.5	-83.7	161	14
2023-08-06T18:00	19187	67	-51.6	-83.8	163	14
2023-08-06T18:00	19208	67	-51.6	-83.8	165	14
2023-08-06T18:00	19231	67	-51.8	-83.3	167	14
2023-08-06T18:00	19250	66	-51.9	-83.4	170	14
2023-08-06T18:00	19276	66	-51.9	-83.4	172	13
2023-08-06T18:00	19301	66	-52.1	-83.5	175	13
2023-08-06T18:00	19322	66	-52.1	-83.5	178	12
2023-08-06T18:00	19349	66	-51.9	-83.4	181	12
2023-08-06T18:00	19367	65	-51.8	-83.3	184	11
2023-08-06T18:00	19389	65	-51.8	-83.9	187	10
2023-08-06T18:00	19416	65	-51.8	-83.9	190	9
2023-08-06T18:00	19442	65	-51.8	-83.9	194	9
2023-08-06T18:00	19464	64	-51.7	-83.9	198	8
2023-08-06T18:00	19487	64	-51.7	-83.9	201	8
2023-08-06T18:00	19515	64	-51.6	-83.8	203	7
2023-08-06T18:00	19538	64	-51.6	-83.8	206	7
2023-08-06T18:00	19560	63	-51.7	-83.9	208	7
2023-08-06T18:00	19591	63	-51.5	-83.7	210	6
2023-08-06T18:00	19611	63	-51.2	-83.5	212	6
2023-08-06T18:00	19635	63	-51.0	-83.3	213	6
2023-08-06T18:00	19665	62	-51.0	-83.3	213	6
2023-08-06T18:00	19691	62	-50.9	-83.3	213	7
2023-08-06T18:00	19718	62	-51.0	-83.3	211	7
2023-08-06T18:00	19743	62	-51.1	-83.4	208	6
2023-08-06T18:00	19769	61	-51.2	-83.5	204	6
2023-08-06T18:00	19795	61	-51.2	-83.5	199	5
2023-08-06T18:00	19820	61	-51.3	-83.6	195	5
2023-08-06T18:00	19846	61	-51.4	-83.6	189	4
2023-08-06T18:00	19872	60	-51.4	-83.6	182	4
2023-08-06T18:00	19899	60	-51.4	-83.6	172	4
2023-08-06T18:00	19926	60	-51.4	-83.6	158	3
2023-08-06T18:00	19951	60	-51.4	-83.6	143	3
2023-08-06T18:00	19975	59	-51.6	-83.8	129	4
2023-08-06T18:00	20006	59	-51.6	-83.8	118	4
2023-08-06T18:00	20024	59	-51.6	-83.8	111	4
2023-08-06T18:00	20051	59	-51.6	-83.8	107	5
2023-08-06T18:00	20078	59	-51.7	-83.2	106	5
2023-08-06T18:00	20106	58	-51.9	-83.4	105	6
2023-08-06T18:00	20131	58	-51.9	-83.4	106	6
2023-08-06T18:00	20154	58	-52.1	-83.5	106	6
2023-08-06T18:00	20177	58	-52.2	-83.6	107	7
2023-08-06T18:00	20201	57	-52.4	-83.8	107	7
2023-08-06T18:00	20231	57	-52.6	-83.9	109	7
2023-08-06T18:00	20249	57	-52.7	-84.0	110	8
2023-08-06T18:00	20278	57	-52.8	-84.1	112	8
2023-08-06T18:00	20299	57	-52.8	-84.1	114	9
2023-08-06T18:00	20323	56	-52.7	-84.0	116	10
2023-08-06T18:00	20346	56	-52.5	-83.8	119	10
2023-08-06T18:00	20370	56	-52.2	-84.2	121	11
2023-08-06T18:00	20393	56	-52.0	-84.1	124	11
2023-08-06T18:00	20418	56	-52.0	-84.1	127	11
2023-08-06T18:00	20444	55	-52.1	-84.2	129	11
2023-08-06T18:00	20465	55	-52.3	-84.3	132	10
2023-08-06T18:00	20489	55	-52.2	-84.2	136	9
2023-08-06T18:00	20515	55	-52.1	-83.5	139	8
2023-08-06T18:00	20540	55	-52.2	-83.6	143	7
2023-08-06T18:00	20559	54	-52.2	-83.6	148	6
2023-08-06T18:00	20589	54	-52.3	-83.7	154	5
2023-08-06T18:00	20609	54	-52.3	-83.7	160	5
2023-08-06T18:00	20638	54	-52.5	-83.8	165	4
2023-08-06T18:00	20662	53	-52.6	-83.9	168	4
2023-08-06T18:00	20683	53	-52.7	-84.0	167	3
2023-08-06T18:00	20709	53	-52.7	-84.0	162	3
2023-08-06T18:00	20732	53	-52.5	-83.8	154	3
2023-08-06T18:00	20754	53	-52.4	-83.8	143	3
2023-08-06T18:00	20779	53	-52.3	-84.3	130	4
2023-08-06T18:00	20805	52	-52.4	-84.4	120	4
2023-08-06T18:00	20828	52	-52.3	-84.3	113	5
2023-08-06T18:00	20852	52	-52.2	-84.2	109	6
2023-08-06T18:00	20875	52	-51.7	-83.9	108	7
2023-08-06T18:00	20899	52	-51.5	-83.7	108	7
2023-08-06T18:00	20923	51	-51.5	-83.7	109	8
2023-08-06T18:00	20945	51	-51.5	-83.7	110	9
2023-08-06T18:00	20971	51	-51.6	-83.2	112	9
2023-08-06T18:00	20992	51	-51.8	-83.3	113	10
2023-08-06T18:00	21019	51	-52.0	-83.5	115	10
2023-08-06T18:00	21048	50	-52.3	-83.7	117	11
2023-08-06T18:00	21074	50	-52.4	-83.8	119	12
2023-08-06T18:00	21098	50	-52.4	-83.8	122	12
2023-08-06T18:00	21121	50	-52.4	-83.8	125	12
2023-08-06T18:00	21148	50	-52.3	-83.7	129	12
2023-08-06T18:00	21172	49	-52.3	-83.7	132	12
2023-08-06T18:00	21200	49	-52.3	-83.7	136	12
2023-08-06T18:00	21223	49	-52.4	-83.8	139	11
2023-08-06T18:00	21253	49	-52.5	-83.8	143	11
2023-08-06T18:00	21276	49	-52.6	-83.9	147	11
2023-08-06T18:00	21300	48	-52.7	-84.0	150	11
2023-08-06T18:00	21328	48	-52.7	-84.0	153	10
2023-08-06T18:00	21356	48	-52.9	-84.1	155	10
2023-08-06T18:00	21382	48	-53.0	-84.2	157	9
2023-08-06T18:00	21404	48	-53.1	-84.3	157	8
2023-08-06T18:00	21430	47	-53.0	-84.2	157	7
2023-08-06T18:00	21454	47	-52.7	-84.0	155	7
2023-08-06T18:00	21481	47	-52.7	-84.0	151	6
2023-08-06T18:00	21509	47	-52.7	-84.0	146	5
2023-08-06T18:00	21535	47	-52.8	-84.1	139	5
2023-08-06T18:00	21555	47	-52.9	-84.1	134	5
2023-08-06T18:00	21586	46	-52.8	-84.1	130	5
2023-08-06T18:00	21612	46	-52.6	-83.9	129	5
2023-08-06T18:00	21634	46	-52.5	-84.4	128	6
2023-08-06T18:00	21658	46	-52.4	-84.4	128	7
2023-08-06T18:00	21683	46	-52.2	-84.2	128	8
2023-08-06T18:00	21708	45	-52.1	-84.2	127	8
2023-08-06T18:00	21733	45	-52.1	-84.2	126	8
2023-08-06T18:00	21758	45	-52.2	-84.2	124	8
2023-08-06T18:00	21781	45	-52.2	-84.2	123	9
2023-08-06T18:00	21802	45	-52.3	-84.3	123	9
2023-08-06T18:00	21827	45	-52.2	-84.2	124	9
2023-08-06T18:00	21847	45	-52.2	-84.2	125	10
2023-08-06T18:00	21871	44	-52.2	-84.2	126	10
2023-08-06T18:00	21897	44	-52.2	-84.2	127	11
2023-08-06T18:00	21917	44	-52.3	-84.3	130	11
2023-08-06T18:00	21942	44	-52.3	-84.3	132	11
2023-08-06T18:00	21961	44	-52.2	-84.2	135	11
2023-08-06T18:00	21985	44	-52.3	-84.3	139	10
2023-08-06T18:00	22003	43	-52.3	-84.3	142	10
2023-08-06T18:00	22025	43	-52.3	-83.7	146	10
2023-08-06T18:00	22048	43	-52.4	-83.8	149	9
2023-08-06T18:00	22070	43	-52.4	-83.8	152	9
2023-08-06T18:00	22099	43	-52.4	-83.8	154	8
2023-08-06T18:00	22115	43	-52.5	-83.8	157	8
2023-08-06T18:00	22146	43	-52.5	-83.8	161	7
2023-08-06T18:00	22164	42	-52.6	-83.9	165	6
2023-08-06T18:00	22189	42	-52.7	-84.0	170	5
2023-08-06T18:00	22210	42	-52.6	-83.9	176	5
2023-08-06T18:00	22230	42	-52.6	-84.5	183	4
2023-08-06T18:00	22256	42	-52.6	-84.5	191	3
2023-08-06T18:00	22281	42	-52.5	-84.4	198	2
2023-08-06T18:00	22301	42	-52.2	-84.2	201	2
2023-08-06T18:00	22328	41	-51.9	-84.0	196	1
2023-08-06T18:00	22347	41	-51.7	-83.9	168	1
2023-08-06T18:00	22375	41	-51.8	-83.9	124	1
2023-08-06T18:00	22399	41	-51.8	-83.9	103	2
2023-08-06T18:00	22420	41	-51.8	-83.9	97	2
2023-08-06T18:00	22448	41	-51.7	-83.9	95	3
2023-08-06T18:00	22468	40	-51.7	-83.9	96	4
2023-08-06T18:00	22489	40	-51.5	-83.7	98	5
2023-08-06T18:00	22517	40	-51.5	-83.7	102	6
2023-08-06T18:00	22540	40	-51.4	-83.6	105	6
2023-08-06T18:00	22569	40	-51.5	-83.7	110	7
2023-08-06T18:00	22587	40	-51.7	-83.9	114	7
2023-08-06T18:00	22617	40	-51.8	-83.9	118	8
2023-08-06T18:00	22639	39	-51.9	-84.0	123	8
2023-08-06T18:00	22663	39	-52.0	-84.1	127	8
2023-08-06T18:00	22693	39	-52.0	-84.1	130	8
2023-08-06T18:00	22714	39	-52.1	-84.2	132	7
2023-08-06T18:00	22748	39	-52.1	-84.2	133	7
2023-08-06T18:00	22770	39	-52.2	-84.2	134	6
2023-08-06T18:00	22798	38	-52.2	-84.2	134	6
2023-08-06T18:00	22826	38	-52.3	-83.7	136	5
2023-08-06T18:00	22849	38	-52.4	-83.8	139	4
2023-08-06T18:00	22879	38	-52.4	-83.8	141	4
2023-08-06T18:00	22907	38	-52.5	-84.4	142	4
2023-08-06T18:00	22932	38	-52.5	-84.4	140	4
2023-08-06T18:00	22965	37	-52.3	-84.3	137	4
2023-08-06T18:00	22988	37	-52.1	-84.2	132	4
2023-08-06T18:00	23016	37	-52.1	-84.2	129	4
2023-08-06T18:00	23040	37	-52.2	-84.2	127	5
2023-08-06T18:00	23072	37	-52.4	-84.4	126	5
2023-08-06T18:00	23095	37	-52.5	-83.8	126	6
2023-08-06T18:00	23126	37	-52.6	-83.9	127	6
2023-08-06T18:00	23147	36	-52.7	-84.0	129	6
2023-08-06T18:00	23177	36	-52.8	-84.1	131	6
2023-08-06T18:00	23204	36	-53.0	-84.2	133	6
2023-08-06T18:00	23230	36	-53.2	-84.4	135	5
2023-08-06T18:00	23256	36	-53.3	-84.4	136	5
2023-08-06T18:00	23285	36	-53.2	-84.4	135	4
2023-08-06T18:00	23306	36	-53.1	-84.3	132	4
2023-08-06T18:00	23332	35	-53.2	-84.4	123	3
2023-08-06T18:00	23356	35	-53.2	-84.4	106	2
2023-08-06T18:00	23384	35	-53.1	-84.3	86	2
2023-08-06T18:00	23413	35	-53.0	-84.8	72	3
2023-08-06T18:00	23434	35	-52.8	-84.7	65	3
2023-08-06T18:00	23454	35	-52.8	-84.7	64	4
2023-08-06T18:00	23488	35	-52.7	-84.6	66	4
2023-08-06T18:00	23509	34	-52.6	-84.5	71	4
2023-08-06T18:00	23534	34	-52.6	-84.5	79	4
2023-08-06T18:00	23554	34	-52.6	-84.5	86	4
2023-08-06T18:00	23581	34	-52.7	-84.0	93	5
2023-08-06T18:00	23603	34	-52.8	-84.1	98	5
2023-08-06T18:00	23625	34	-52.9	-84.1	103	5
2023-08-06T18:00	23645	34	-53.0	-84.2	107	6
2023-08-06T18:00	23672	34	-53.1	-84.3	111	6
2023-08-06T18:00	23697	33	-53.2	-84.4	117	6
2023-08-06T18:00	23725	33	-53.3	-84.4	122	7
2023-08-06T18:00	23745	33	-53.3	-84.4	127	7
2023-08-06T18:00	23768	33	-53.3	-84.4	132	7
2023-08-06T18:00	23790	33	-53.4	-85.1	135	6
2023-08-06T18:00	23818	33	-53.1	-84.9	137	6
2023-08-06T18:00	23835	33	-52.7	-84.6	139	5
2023-08-06T18:00	23861	33	-52.7	-84.6	138	4
2023-08-06T18:00	23887	32	-52.8	-84.7	136	4
2023-08-06T18:00	23908	32	-52.8	-84.7	131	4
2023-08-06T18:00	23933	32	-52.8	-84.7	124	4
2023-08-06T18:00	23955	32	-52.5	-84.4	118	4
2023-08-06T18:00	23987	32	-52.3	-84.3	114	5
2023-08-06T18:00	24002	32	-52.2	-84.2	110	5
2023-08-06T18:00	24032	32	-52.0	-84.1	107	5
2023-08-06T18:00	24056	32	-51.8	-84.6	106	5
2023-08-06T18:00	24081	32	-51.6	-84.5	107	5
2023-08-06T18:00	24105	31	-51.5	-84.4	109	5
2023-08-06T18:00	24133	31	-51.5	-83.7	113	5
2023-08-06T18:00	24162	31	-51.5	-83.7	118	5
2023-08-06T18:00	24186	31	-51.7	-83.9	123	5
2023-08-06T18:00	24216	31	-51.8	-83.9	128	6
2023-08-06T18:00	24245	31	-51.9	-84.0	133	6
2023-08-06T18:00	24265	31	-52.0	-84.1	137	6
2023-08-06T18:00	24297	30	-52.2	-84.2	142	6
2023-08-06T18:00	24324	30	-52.3	-84.3	147	5
2023-08-06T18:00	24353	30	-52.3	-84.3	153	5
2023-08-06T18:00	24382	30	-52.3	-84.3	159	5
2023-08-06T18:00	24408	30	-52.3	-84.3	165	5
2023-08-06T18:00	24436	30	-52.2	-84.2	170	4
2023-08-06T18:00	24464	30	-52.2	-84.2	172	4
2023-08-06T18:00	24490	30	-52.2	-84.2	172	4
2023-08-06T18:00	24522	29	-52.1	-84.2	166	3
2023-08-06T18:00	24550	29	-51.9	-84.0	152	2
2023-08-06T18:00	24579	29	-51.8	-84.6	125	2
2023-08-06T18:00	24606	29	-51.8	-83.9	96	2
2023-08-06T18:00	24633	29	-51.8	-83.9	80	3
2023-08-06T18:00	24667	29	-51.8	-84.6	72	4
2023-08-06T18:00	24694	29	-51.7	-84.5	70	4
2023-08-06T18:00	24724	29	-51.5	-84.4	72	5
2023-08-06T18:00	24749	28	-51.2	-84.2	76	5
2023-08-06T18:00	24773	28	-51.1	-84.1	83	5
2023-08-06T18:00	24807	28	-51.1	-84.1	91	5
2023-08-06T18:00	24836	28	-51.3	-84.3	100	5
2023-08-06T18:00	24860	28	-51.4	-83.6	108	5
2023-08-06T18:00	24883	28	-51.6	-83.8	113	5
2023-08-06T18:00	24913	28	-51.7	-83.9	115	5
2023-08-06T18:00	24936	28	-51.8	-83.9	114	5
2023-08-06T18:00	24960	28	-51.8	-83.9	109	5
2023-08-06T18:00	24986	27	-51.9	-84.0	105	5
2023-08-06T18:00	25011	27	-52.0	-84.1	101	6
2023-08-06T18:00	25034	27	-52.0	-84.1	98	7
2023-08-06T18:00	25069	27	-52.1	-84.2	97	7
2023-08-06T18:00	25087	27	-52.3	-84.3	96	7
2023-08-06T18:00	25112	27	-52.3	-84.3	97	7
2023-08-06T18:00	25138	27	-52.2	-84.2	100	7
2023-08-06T18:00	25161	27	-51.9	-84.0	104	6
2023-08-06T18:00	25179	27	-51.9	-84.0	110	5
2023-08-06T18:00	25204	27	-51.9	-84.0	119	4
2023-08-06T18:00	25229	26	-51.8	-84.6	128	4
2023-08-06T18:00	25255	26	-51.6	-84.5	135	3
2023-08-06T18:00	25269	26	-51.5	-84.4	138	3
2023-08-06T18:00	25298	26	-51.5	-84.4	134	3
2023-08-06T18:00	25319	26	-51.4	-84.3	120	2
2023-08-06T18:00	25340	26	-51.3	-84.3	103	3
2023-08-06T18:00	25367	26	-51.2	-84.2	91	3
2023-08-06T18:00	25383	26	-50.9	-84.0	85	4
2023-08-06T18:00	25409	26	-50.7	-83.8	84	5
2023-08-06T18:00	25437	26	-50.5	-83.7	85	5
2023-08-06T18:00	25459	26	-50.4	-83.6	87	6
2023-08-06T18:00	25478	25	-50.3	-84.3	90	6
2023-08-06T18:00	25501	25	-50.1	-84.2	93	5
2023-08-06T18:00	25529	25	-50.0	-84.1	95	5
2023-08-06T18:00	25548	25	-49.8	-84.0	96	5
2023-08-06T18:00	25578	25	-49.7	-83.9	96	5
2023-08-06T18:00	25603	25	-49.6	-83.8	97	5
2023-08-06T18:00	25625	25	-49.4	-83.7	97	4
2023-08-06T18:00	25656	25	-49.2	-83.5	96	4
2023-08-06T18:00	25681	25	-48.9	-83.3	94	4
2023-08-06T18:00	25703	25	-48.7	-83.2	89	4
2023-08-06T18:00	25739	24	-48.7	-83.2	84	5
2023-08-06T18:00	25762	24	-48.7	-83.2	79	5
2023-08-06T18:00	25789	24	-48.7	-83.2	75	5
2023-08-06T18:00	25808	24	-48.7	-83.2	74	6
2023-08-06T18:00	25843	24	-48.6	-83.1	73	7
2023-08-06T18:00	25874	24	-48.6	-83.1	73	8
2023-08-06T18:00	25894	24	-48.6	-83.1	73	8
2023-08-06T18:00	25929	24	-48.6	-83.1	74	9
2023-08-06T18:00	25957	24	-48.7	-83.2	74	9
2023-08-06T18:00	25991	24	-48.8	-83.2	75	9
2023-08-06T18:00	26021	23	-48.9	-82.5	77	9
2023-08-06T18:00	26043	23	-49.1	-82.7	80	10
2023-08-06T18:00	26077	23	-49.1	-82.7	83	10
2023-08-06T18:00	26094	23	-49.1	-82.7	87	10
2023-08-06T18:00	26132	23	-49.2	-82.7	91	10
2023-08-06T18:00	26160	23	-49.3	-83.6	95	10
2023-08-06T18:00	26191	23	-49.2	-83.5	99	10
2023-08-06T18:00	26211	23	-49.1	-83.4	101	10
2023-08-06T18:00	26248	23	-48.9	-83.3	102	11
2023-08-06T18:00	26274	23	-48.8	-83.2	102	11
2023-08-06T18:00	26303	22	-48.7	-83.2	102	11
2023-08-06T18:00	26331	22	-48.7	-83.2	102	10
2023-08-06T18:00	26362	22	-48.6	-83.1	103	10
2023-08-06T18:00	26389	22	-48.6	-83.1	104	10
2023-08-06T18:00	26417	22	-48.5	-83.0	105	9
2023-08-06T18:00	26443	22	-48.4	-82.9	106	8
2023-08-06T18:00	26473	22	-48.4	-82.9	107	8
2023-08-06T18:00	26499	22	-48.5	-83.0	108	7
2023-08-06T18:00	26525	22	-48.5	-83.0	110	7
2023-08-06T18:00	26542	22	-48.5	-83.0	112	6
2023-08-06T18:00	26570	22	-48.5	-83.0	114	5
2023-08-06T18:00	26596	21	-48.5	-83.0	116	5
2023-08-06T18:00	26620	21	-48.4	-82.9	117	4
2023-08-06T18:00	26655	21	-48.3	-82.9	116	4
2023-08-06T18:00	26668	21	-48.3	-82.9	113	4
2023-08-06T18:00	26686	21	-48.3	-82.9	107	4
2023-08-06T18:00	26717	21	-48.1	-82.7	99	4
2023-08-06T18:00	26745	21	-47.8	-82.5	92	4
2023-08-06T18:00	26768	21	-47.7	-82.4	87	5
2023-08-06T18:00	26790	21	-47.7	-82.4	84	5
2023-08-06T18:00	26818	21	-47.6	-82.4	84	5
2023-08-06T18:00	26841	21	-47.5	-82.3	84	6
2023-08-06T18:00	26857	21	-47.5	-82.3	86	6
2023-08-06T18:00	26887	21	-47.5	-82.3	88	6
2023-08-06T18:00	26916	20	-47.6	-82.4	91	6
2023-08-06T18:00	26941	20	-47.4	-82.2	94	6
2023-08-06T18:00	26956	20	-47.4	-82.2	98	6
2023-08-06T18:00	26980	20	-47.4	-82.2	102	6
2023-08-06T18:00	27012	20	-47.2	-83.0	105	5
2023-08-06T18:00	27034	20	-47.2	-83.0	107	5
2023-08-06T18:00	27058	20	-47.1	-82.9	107	5
2023-08-06T18:00	27090	20	-47.0	-82.9	107	5
2023-08-06T18:00	27118	20	-46.7	-82.6	106	5
2023-08-06T18:00	27136	20	-46.5	-82.5	105	5
2023-08-06T18:00	27163	20	-46.4	-82.4	104	5
2023-08-06T18:00	27195	20	-46.5	-82.5	101	4
2023-08-06T18:00	27218	20	-46.6	-82.6	97	4
2023-08-06T18:00	27251	19	-46.6	-82.6	89	3
2023-08-06T18:00	27276	19	-46.5	-82.5	79	3
2023-08-06T18:00	27296	19	-46.3	-82.4	69	3
2023-08-06T18:00	27326	19	-46.4	-82.4	61	3
2023-08-06T18:00	27353	19	-46.4	-82.4	57	4
2023-08-06T18:00	27373	19	-46.4	-82.4	54	4
2023-08-06T18:00	27418	19	-46.3	-82.4	52	5
2023-08-06T18:00	27444	19	-46.2	-82.3	52	5
2023-08-06T18:00	27467	19	-46.2	-82.3	52	5
2023-08-06T18:00	27502	19	-46.2	-82.3	54	6
2023-08-06T18:00	27530	19	-46.2	-82.3	57	6
2023-08-06T18:00	27571	19	-46.2	-82.3	63	6
2023-08-06T18:00	27597	18	-46.2	-82.3	69	6
2023-08-06T18:00	27624	18	-46.2	-82.3	75	6
2023-08-06T18:00	27656	18	-46.3	-82.4	80	6
2023-08-06T18:00	27683	18	-46.3	-82.4	82	6
2023-08-06T18:00	27716	18	-46.3	-82.4	81	6
2023-08-06T18:00	27745	18	-46.4	-82.4	78	7
2023-08-06T18:00	27779	18	-46.3	-82.4	75	7
2023-08-06T18:00	27810	18	-46.3	-82.4	71	8
2023-08-06T18:00	27830	18	-46.4	-82.4	68	8
2023-08-06T18:00	27867	18	-46.5	-82.5	65	8
2023-08-06T18:00	27893	18	-46.7	-82.6	63	9
2023-08-06T18:00	27931	18	-46.7	-82.6	61	9
2023-08-06T18:00	27974	17	-46.8	-82.7	59	10
2023-08-06T18:00	27990	17	-46.8	-82.7	57	10
2023-08-06T18:00	28013	17	-46.9	-82.8	55	10
2023-08-06T18:00	28039	17	-47.0	-82.9	54	10
2023-08-06T18:00	28074	17	-47.0	-82.9	52	11
2023-08-06T18:00	28097	17	-47.0	-82.9	51	11
2023-08-06T18:00	28122	17	-47.0	-82.9	50	11
2023-08-06T18:00	28157	17	-47.0	-82.9	50	12
2023-08-06T18:00	28191	17	-46.9	-82.8	51	12
2023-08-06T18:00	28216	17	-46.7	-82.6	52	12
2023-08-06T18:00	28242	17	-46.6	-82.6	54	13
2023-08-06T18:00	28259	17	-46.5	-82.5	56	13
2023-08-06T18:00	28301	17	-46.6	-82.6	58	13
2023-08-06T18:00	28319	17	-46.6	-82.6	60	14
2023-08-06T18:00	28348	16	-46.5	-82.5	62	14
2023-08-06T18:00	28372	16	-46.6	-82.6	64	15
2023-08-06T18:00	28405	16	-46.6	-82.6	67	15
2023-08-06T18:00	28433	16	-46.6	-82.6	71	15
2023-08-06T18:00	28450	16	-46.5	-82.5	74	16
2023-08-06T18:00	28482	16	-46.3	-82.4	78	16
2023-08-06T18:00	28504	16	-45.9	-82.1	81	16
2023-08-06T18:00	28537	16	-45.5	-82.9	83	16
2023-08-06T18:00	28551	16	-45.3	-82.7	84	16
2023-08-06T18:00	28582	16	-45.1	-82.6	84	16
2023-08-06T18:00	28604	16	-44.9	-82.5	84	16
2023-08-06T18:00	28635	16	-44.7	-82.3	84	15
2023-08-06T18:00	28653	16	-44.6	-82.2	84	15
2023-08-06T18:00	28691	16	-44.5	-82.2	85	15
2023-08-06T18:00	28705	16	-44.3	-82.0	87	14
2023-08-06T18:00	28733	16	-44.1	-81.9	90	14
2023-08-06T18:00	28756	15	-43.9	-81.8	92	14
2023-08-06T18:00	28788	15	-43.8	-81.7	95	14
2023-08-06T18:00	28814	15	-43.8	-81.7	97	14
2023-08-06T18:00	28841	15	-43.5	-81.5	98	13
2023-08-06T18:00	28864	15	-43.4	-81.4	99	13
2023-08-06T18:00	28889	15	-43.5	-81.5	100	12
2023-08-06T18:00	28919	15	-43.5	-81.5	101	11
2023-08-06T18:00	28942	15	-43.6	-81.5	102	11
2023-08-06T18:00	28972	15	-43.6	-81.5	103	11
2023-08-06T18:00	28992	15	-43.5	-81.5	105	11
2023-08-06T18:00	29023	15	-43.3	-81.3	107	10
2023-08-06T18:00	29054	15	-43.2	-81.3	108	10
2023-08-06T18:00	29089	15	-43.2	-81.3	110	10
2023-08-06T18:00	29102	15	-43.2	-81.3	110	10
2023-08-06T18:00	29142	15	-43.0	-81.1	108	9
2023-08-06T18:00	29166	15	-42.8	-81.0	105	9
2023-08-06T18:00	29185	15	-42.7	-80.9	99	8
2023-08-06T18:00	29221	14	-42.6	-80.8	93	8
2023-08-06T18:00	29238	14	-42.4	-80.7	87	8
2023-08-06T18:00	29270	14	-42.3	-80.6	80	8
2023-08-06T18:00	29300	14	-42.4	-80.7	73	8
2023-08-06T18:00	29317	14	-42.4	-80.7	66	8
2023-08-06T18:00	29347	14	-42.3	-80.6	61	9
2023-08-06T18:00	29375	14	-42.3	-80.6	57	9
2023-08-06T18:00	29395	14	-42.2	-80.6	55	10
2023-08-06T18:00	29429	14	-42.1	-80.5	56	10
2023-08-06T18:00	29459	14	-42.1	-80.5	58	10
2023-08-06T18:00	29493	14	-42.1	-80.5	60	11
2023-08-06T18:00	29513	14	-42.2	-80.6	63	11
2023-08-06T18:00	29535	14	-42.2	-80.6	66	11
2023-08-06T18:00	29567	14	-42.3	-80.6	69	11
2023-08-06T18:00	29604	14	-42.3	-80.6	71	11
2023-08-06T18:00	29630	14	-42.3	-80.6	72	11
2023-08-06T18:00	29647	14	-42.3	-80.6	72	11
2023-08-06T18:00	29681	14	-42.3	-80.6	72	11
2023-08-06T18:00	29713	13	-42.3	-80.6	70	11
2023-08-06T18:00	29740	13	-42.3	-80.6	68	11
2023-08-06T18:00	29767	13	-42.3	-80.6	65	11
2023-08-06T18:00	29797	13	-42.3	-80.6	62	11
2023-08-06T18:00	29820	13	-42.4	-80.7	60	11
2023-08-06T18:00	29851	13	-42.4	-80.7	58	10
2023-08-06T18:00	29883	13	-42.3	-80.6	57	10
2023-08-06T18:00	29906	13	-42.2	-80.6	56	10
2023-08-06T18:00	29940	13	-42.1	-80.5	56	10
2023-08-06T18:00	29964	13	-41.9	-80.4	55	9
2023-08-06T18:00	30000	13	-41.7	-80.2	55	9
2023-08-06T18:00	30032	13	-41.5	-80.1	55	10
2023-08-06T18:00	30054	13	-41.4	-80.0	55	10
2023-08-06T18:00	30087	13	-41.4	-80.0	57	10
2023-08-06T18:00	30110	13	-41.4	-80.0	58	11
2023-08-06T18:00	30135	13	-41.5	-80.1	60	11
2023-08-06T18:00	30174	13	-41.6	-80.1	62	11
2023-08-06T18:00	30214	13	-41.7	-80.2	63	12
2023-08-06T18:00	30231	12	-41.8	-80.3	63	11
2023-08-07T00:00	112	990	14.0	13.7	310	2
2023-08-07T00:00	136	987	14.0	14.0	314	3
2023-08-07T00:00	164	984	13.8	13.7	311	4
2023-08-07T00:00	194	980	13.6	13.5	307	4
2023-08-07T00:00	222	977	13.4	13.4	304	5
2023-08-07T00:00	248	974	13.2	13.2	303	5
2023-08-07T00:00	274	971	13.0	12.8	304	6
2023-08-07T00:00	298	968	12.9	12.1	307	7
2023-08-07T00:00	329	965	12.9	11.5	310	7
2023-08-07T00:00	358	962	12.6	11.2	313	8
2023-08-07T00:00	379	959	12.6	10.1	315	8
2023-08-07T00:00	402	956	12.4	9.8	317	8
2023-08-07T00:00	430	953	12.2	9.6	318	8
2023-08-07T00:00	451	951	12.0	9.6	319	8
2023-08-07T00:00	474	948	11.8	9.5	320	8
2023-08-07T00:00	496	946	11.6	9.5	320	9
2023-08-07T00:00	524	943	11.4	9.3	320	9
2023-08-07T00:00	549	940	11.2	9.0	320	9
2023-08-07T00:00	573	937	11.2	8.5	320	9
2023-08-07T00:00	599	934	11.1	8.6	319	9
2023-08-07T00:00	624	931	10.9	8.4	319	9
2023-08-07T00:00	653	928	10.6	8.3	319	9
2023-08-07T00:00	678	925	10.4	8.1	320	9
2023-08-07T00:00	705	922	10.2	8.2	319	9
2023-08-07T00:00	738	919	9.9	7.9	318	9
2023-08-07T00:00	762	916	9.6	7.8	316	9
2023-08-07T00:00	787	913	9.7	7.5	313	9
2023-08-07T00:00	809	911	9.6	7.0	311	9
2023-08-07T00:00	842	908	9.4	7.1	308	10
2023-08-07T00:00	864	905	9.2	8.4	307	10
2023-08-07T00:00	888	902	9.0	8.8	306	10
2023-08-07T00:00	917	899	8.8	8.6	305	10
2023-08-07T00:00	945	896	8.7	8.2	304	10
2023-08-07T00:00	970	894	8.7	8.1	304	10
2023-08-07T00:00	993	891	8.6	8.0	303	10
2023-08-07T00:00	1022	888	8.6	7.2	303	10
2023-08-07T00:00	1048	885	8.5	6.2	303	10
2023-08-07T00:00	1072	882	8.4	5.4	302	10
2023-08-07T00:00	1099	880	8.5	5.3	301	11
2023-08-07T00:00	1125	877	8.4	5.7	301	11
2023-08-07T00:00	1153	874	8.2	6.0	300	11
2023-08-07T00:00	1183	871	7.9	5.7	299	12
2023-08-07T00:00	1211	868	7.7	5.9	298	12
2023-08-07T00:00	1239	865	7.4	5.8	298	11
2023-08-07T00:00	1266	862	7.2	6.2	297	11
2023-08-07T00:00	1294	859	7.0	6.7	296	11
2023-08-07T00:00	1324	856	6.8	6.3	294	11
2023-08-07T00:00	1355	853	6.7	5.9	292	11
2023-08-07T00:00	1386	850	6.7	5.7	290	11
2023-08-07T00:00	1413	847	6.5	5.6	289	12
2023-08-07T00:00	1442	844	6.3	5.6	288	12
2023-08-07T00:00	1472	841	6.0	5.5	288	12
2023-08-07T00:00	1504	837	5.8	5.4	288	12
2023-08-07T00:00	1536	834	5.5	5.2	289	12
2023-08-07T00:00	1565	831	5.3	4.9	290	12
2023-08-07T00:00	1592	829	5.1	5.0	290	12
2023-08-07T00:00	1616	826	4.9	4.9	290	13
2023-08-07T00:00	1639	824	4.7	4.7	290	13
2023-08-07T00:00	1661	822	4.5	4.5	289	13
2023-08-07T00:00	1682	819	4.3	4.3	289	14
2023-08-07T00:00	1707	817	4.2	4.2	288	14
2023-08-07T00:00	1736	814	4.0	4.0	288	14
2023-08-07T00:00	1762	811	3.9	3.4	288	13
2023-08-07T00:00	1788	809	4.0	2.6	288	13
2023-08-07T00:00	1816	806	4.1	0.2	289	12
2023-08-07T00:00	1845	803	4.3	-2.6	290	12
2023-08-07T00:00	1878	800	4.2	-3.8	290	12
2023-08-07T00:00	1902	797	4.2	-3.9	290	12
2023-08-07T00:00	1934	794	4.1	-3.6	290	13
2023-08-07T00:00	1961	792	3.9	-3.4	290	13
2023-08-07T00:00	1990	789	3.7	-1.9	289	14
2023-08-07T00:00	2023	786	3.6	-2.7	288	14
2023-08-07T00:00	2053	783	3.4	-2.5	287	14
2023-08-07T00:00	2080	780	3.1	-2.6	286	14
2023-08-07T00:00	2104	778	3.0	-2.5	285	14
2023-08-07T00:00	2133	775	2.7	-1.9	286	14
2023-08-07T00:00	2166	772	2.5	-1.9	288	14
2023-08-07T00:00	2188	770	2.3	-1.8	291	14
2023-08-07T00:00	2207	768	2.2	-1.8	294	14
2023-08-07T00:00	2226	766	2.0	-1.8	295	14
2023-08-07T00:00	2249	764	1.8	-1.9	296	13
2023-08-07T00:00	2268	762	1.7	-2.0	296	13
2023-08-07T00:00	2295	760	1.5	-2.3	295	13
2023-08-07T00:00	2320	757	1.3	-2.2	293	13
2023-08-07T00:00	2347	755	1.2	-2.5	291	13
2023-08-07T00:00	2372	753	1.1	-2.8	289	14
2023-08-07T00:00	2402	750	0.9	-3.2	288	14
2023-08-07T00:00	2433	747	0.7	-3.7	287	15
2023-08-07T00:00	2455	745	0.6	-4.2	287	16
2023-08-07T00:00	2474	743	0.5	-4.3	288	16
2023-08-07T00:00	2494	741	0.3	-3.9	289	17
2023-08-07T00:00	2521	739	0.0	-1.0	289	17
2023-08-07T00:00	2553	736	-0.2	-0.5	290	16
2023-08-07T00:00	2581	733	-0.4	-1.4	289	16
2023-08-07T00:00	2609	731	-0.5	-2.3	289	16
2023-08-07T00:00	2635	728	-0.5	-4.5	289	16
2023-08-07T00:00	2665	726	-0.6	-5.6	289	16
2023-08-07T00:00	2692	723	-0.5	-7.1	290	16
2023-08-07T00:00	2718	721	-0.6	-8.0	290	17
2023-08-07T00:00	2748	718	-0.7	-7.9	291	17
2023-08-07T00:00	2775	716	-0.9	-8.7	291	17
2023-08-07T00:00	2801	713	-1.0	-8.5	291	17
2023-08-07T00:00	2823	711	-1.1	-9.0	292	17
2023-08-07T00:00	2844	709	-1.2	-9.5	292	17
2023-08-07T00:00	2865	707	-1.2	-9.7	292	17
2023-08-07T00:00	2894	705	-1.3	-10.2	292	17
2023-08-07T00:00	2917	703	-1.5	-10.3	290	16
2023-08-07T00:00	2941	701	-1.6	-10.8	289	16
2023-08-07T00:00	2966	699	-1.7	-11.1	288	16
2023-08-07T00:00	2989	697	-1.9	-11.2	288	16
2023-08-07T00:00	3016	694	-2.2	-11.1	289	16
2023-08-07T00:00	3042	692	-2.5	-10.7	291	17
2023-08-07T00:00	3066	690	-2.8	-10.8	292	17
2023-08-07T00:00	3097	687	-3.1	-10.3	293	17
2023-08-07T00:00	3125	685	-3.3	-10.4	294	17
2023-08-07T00:00	3148	683	-3.6	-10.5	295	17
2023-08-07T00:00	3171	681	-3.8	-10.6	295	17
2023-08-07T00:00	3200	678	-4.0	-10.0	296	17
2023-08-07T00:00	3227	676	-4.0	-7.7	296	17
2023-08-07T00:00	3250	674	-4.1	-7.4	295	17
2023-08-07T00:00	3270	672	-4.3	-7.4	294	16
2023-08-07T00:00	3286	671	-4.4	-7.4	293	16
2023-08-07T00:00	3303	669	-4.6	-7.5	292	16
2023-08-07T00:00	3323	668	-4.7	-7.3	292	16
2023-08-07T00:00	3345	666	-4.7	-6.3	293	17
2023-08-07T00:00	3370	664	-4.7	-5.9	294	17
2023-08-07T00:00	3391	662	-4.9	-6.1	295	17
2023-08-07T00:00	3408	661	-5.0	-6.5	296	18
2023-08-07T00:00	3426	659	-5.1	-6.7	297	19
2023-08-07T00:00	3441	658	-5.2	-6.8	298	19
2023-08-07T00:00	3457	657	-5.3	-7.0	299	20
2023-08-07T00:00	3475	655	-5.4	-7.3	300	20
2023-08-07T00:00	3491	654	-5.5	-7.4	301	21
2023-08-07T00:00	3508	652	-5.7	-7.5	301	20
2023-08-07T00:00	3525	651	-5.7	-7.4	302	20
2023-08-07T00:00	3541	650	-5.8	-7.4	302	19
2023-08-07T00:00	3563	648	-5.8	-7.5	302	18
2023-08-07T00:00	3582	646	-5.1	-6.7	302	17
2023-08-07T00:00	3605	644	-5.1	-6.7	300	16
2023-08-07T00:00	3626	643	-5.2	-6.8	298	16
2023-08-07T00:00	3642	641	-5.3	-7.0	296	16
2023-08-07T00:00	3660	640	-5.3	-7.0	294	16
2023-08-07T00:00	3681	638	-5.4	-7.0	293	16
2023-08-07T00:00	3704	636	-5.5	-7.0	291	16
2023-08-07T00:00	3728	634	-5.7	-7.2	289	16
2023-08-07T00:00	3752	632	-5.9	-7.4	288	16
2023-08-07T00:00	3774	630	-6.0		287	16
2023-08-07T00:00	3799	629	-6.1	-7.5	286	15
2023-08-07T00:00	3823	627	-6.3	-7.5	286	15
2023-08-07T00:00	3852	624	-6.4	-7.6	286	15
2023-08-07T00:00	3875	622	-6.6	-7.7	287	15
2023-08-07T00:00	3901	620	-6.8	-7.9	286	15
2023-08-07T00:00	3928	618	-6.9	-8.0	285	15
2023-08-07T00:00	3950	617	-7.1	-8.1	284	16
2023-08-07T00:00	3968	615	-7.1	-8.1	284	15
2023-08-07T00:00	3987	614	-7.2	-8.2	285	15
2023-08-07T00:00	4006	612	-7.3	-8.3	287	15
2023-08-07T00:00	4028	611	-7.5	-8.4	289	15
2023-08-07T00:00	4049	609	-7.6	-8.6	291	16
2023-08-07T00:00	4076	607	-7.8	-8.8	292	16
2023-08-07T00:00	4099	605	-7.9	-9.0	293	16
2023-08-07T00:00	4119	603	-8.0	-9.0	292	16
2023-08-07T00:00	4138	602	-8.1	-9.1	291	15
2023-08-07T00:00	4159	600	-8.2	-9.2	289	15
2023-08-07T00:00	4177	599	-8.3	-9.4	285	15
2023-08-07T00:00	4197	597	-8.4	-9.5	281	15
2023-08-07T00:00	4219	596	-8.5	-9.5	279	16
2023-08-07T00:00	4238	594	-8.6	-9.5	277	17
2023-08-07T00:00	4259	593	-8.7	-9.6	277	17
2023-08-07T00:00	4278	591	-8.9	-9.8	278	16
2023-08-07T00:00	4307	589	-9.1	-9.9	280	15
2023-08-07T00:00	4327	587	-9.2	-10.0	282	15
2023-08-07T00:00	4349	586	-9.4	-10.2	283	14
2023-08-07T00:00	4369	584	-9.6	-10.4	284	14
2023-08-07T00:00	4388	583	-9.7	-10.5	285	14
2023-08-07T00:00	4408	581	-9.8	-10.6	284	15
2023-08-07T00:00	4430	580	-9.9	-10.6	284	15
2023-08-07T00:00	4452	578	-10.1	-10.9	283	16
2023-08-07T00:00	4474	576	-10.2	-10.9	283	16
2023-08-07T00:00	4495	575	-10.3	-10.8	282	17
2023-08-07T00:00	4518	573	-10.4	-10.9	281	17
2023-08-07T00:00	4539	571	-10.6	-11.1	280	17
2023-08-07T00:00	4559	570	-10.7	-11.2	278	18
2023-08-07T00:00	4582	568	-10.8	-11.2	276	18
2023-08-07T00:00	4602	567	-11.0	-11.4	275	17
2023-08-07T00:00	4625	565	-11.1	-11.5	274	17
2023-08-07T00:00	4649	563	-11.3	-11.9	275	17
2023-08-07T00:00	4673	562	-11.5	-12.0	276	17
2023-08-07T00:00	4699	560	-11.8	-12.3	276	16
2023-08-07T00:00	4724	558	-11.9	-12.7	276	16
2023-08-07T00:00	4751	556	-12.1	-12.8	274	16
2023-08-07T00:00	4774	554	-12.3	-13.4	272	16
2023-08-07T00:00	4800	552	-12.5	-13.9	271	16
2023-08-07T00:00	4818	551	-12.6	-13.7	270	17
2023-08-07T00:00	4842	549	-12.8	-14.0	270	17
2023-08-07T00:00	4862	548	-12.9	-14.1	270	18
2023-08-07T00:00	4879	547	-13.1	-14.4	271	17
2023-08-07T00:00	4904	545	-13.2	-14.7	272	17
2023-08-07T00:00	4929	543	-13.1	-14.5	273	15
2023-08-07T00:00	4949	542	-13.0	-14.4	275	14
2023-08-07T00:00	4976	540	-13.0	-14.3	278	13
2023-08-07T00:00	5001	538	-12.8	-14.1	281	12
2023-08-07T00:00	5022	537	-12.9	-14.3	284	12
2023-08-07T00:00	5042	535	-12.9	-14.3	286	11
2023-08-07T00:00	5068	533	-13.2	-14.5	288	11
2023-08-07T00:00	5092	532	-13.4	-14.6	289	10
2023-08-07T00:00	5115	530	-13.5	-14.8	291	10
2023-08-07T00:00	5140	528	-13.7	-14.8	292	10
2023-08-07T00:00	5163	527	-13.9	-15.2	292	10
2023-08-07T00:00	5188	525	-14.0	-15.3	292	10
2023-08-07T00:00	5211	523	-14.2	-15.4	292	10
2023-08-07T00:00	5234	522	-14.3	-15.5	291	10
2023-08-07T00:00	5263	520	-14.5		291	11
2023-08-07T00:00	5291	518	-14.5	-15.7	291	11
2023-08-07T00:00	5315	516	-14.6	-15.9	291	11
2023-08-07T00:00	5340	514	-14.7	-16.0	291	11
2023-08-07T00:00	5366	513	-14.9	-16.2	292	11
2023-08-07T00:00	5389	511	-15.1	-16.4	294	12
2023-08-07T00:00	5414	510	-15.3	-16.6	296	12
2023-08-07T00:00	5433	508	-15.4	-16.8	299	13
2023-08-07T00:00	5455	507	-15.5	-16.9	301	13
2023-08-07T00:00	5474	505	-15.7	-17.1	303	13
2023-08-07T00:00	5495	504	-15.8	-17.2	304	12
2023-08-07T00:00	5518	503	-15.9	-17.2	304	11
2023-08-07T00:00	5540	501	-16.1	-17.4	305	10
2023-08-07T00:00	5564	500	-16.1	-17.4	305	10
2023-08-07T00:00	5587	498	-16.2	-17.5	306	10
2023-08-07T00:00	5613	496	-16.4	-17.7	306	10
2023-08-07T00:00	5638	495	-16.5	-17.8	306	9
2023-08-07T00:00	5665	493	-16.6	-18.0	305	9
2023-08-07T00:00	5697	491	-16.8	-18.1	305	9
2023-08-07T00:00	5726	489	-17.0	-18.4	304	8
2023-08-07T00:00	5749	487	-17.1	-18.4	302	8
2023-08-07T00:00	5775	486	-17.3	-18.6	301	8
2023-08-07T00:00	5799	484	-17.4	-18.7	300	8
2023-08-07T00:00	5825	482	-17.5	-18.9	299	7
2023-08-07T00:00	5852	481	-17.7	-19.1	299	7
2023-08-07T00:00	5878	479	-17.8	-19.1	299	6
2023-08-07T00:00	5902	478	-17.9	-19.3	299	6
2023-08-07T00:00	5925	476	-18.0	-19.3	300	6
2023-08-07T00:00	5948	474	-18.2	-19.5	300	7
2023-08-07T00:00	5975	473	-18.4	-19.6	301	7
2023-08-07T00:00	6002	471	-18.5	-20.0	302	7
2023-08-07T00:00	6027	470	-18.7	-20.0	303	7
2023-08-07T00:00	6052	468	-18.8	-20.0	302	8
2023-08-07T00:00	6079	466	-19.0	-20.4	299	7
2023-08-07T00:00	6106	465	-19.1	-20.4	297	7
2023-08-07T00:00	6134	463	-19.3	-20.5	295	7
2023-08-07T00:00	6157	461	-19.5	-20.8	296	7
2023-08-07T00:00	6184	460	-19.7	-21.0	300	7
2023-08-07T00:00	6212	458	-19.9	-21.1	303	7
2023-08-07T00:00	6239	456	-20.1	-21.4	306	7
2023-08-07T00:00	6266	455	-20.3	-21.8	306	7
2023-08-07T00:00	6292	453	-20.5	-21.8	304	7
2023-08-07T00:00	6318	451	-20.7	-22.2	302	6
2023-08-07T00:00	6345	450	-20.9	-22.5	300	6
2023-08-07T00:00	6368	448	-21.0	-22.5	299	6
2023-08-07T00:00	6397	447	-21.2	-22.7	300	6
2023-08-07T00:00	6419	445	-21.4	-22.9	301	6
2023-08-07T00:00	6444	444	-21.6	-23.0	304	6
2023-08-07T00:00	6468	442	-21.7	-23.1	307	6
2023-08-07T00:00	6494	441	-21.9	-23.3	310	6
2023-08-07T00:00	6519	439	-22.1	-23.4	313	6
2023-08-07T00:00	6546	438	-22.3	-23.6	315	6
2023-08-07T00:00	6571	436	-22.5	-23.7	315	6
2023-08-07T00:00	6594	435	-22.6	-23.8	315	6
2023-08-07T00:00	6616	434	-22.8	-24.0	314	5
2023-08-07T00:00	6646	432	-23.0	-24.2	313	5
2023-08-07T00:00	6671	430	-23.1	-24.2	313	5
2023-08-07T00:00	6695	429	-23.2	-24.4	314	4
2023-08-07T00:00	6719	428	-23.4	-24.6	314	4
2023-08-07T00:00	6742	426	-23.5	-24.7	315	3
2023-08-07T00:00	6767	425	-23.7	-25.0	314	3
2023-08-07T00:00	6793	423	-23.8	-25.2	312	3
2023-08-07T00:00	6815	422	-24.0	-25.3	309	3
2023-08-07T00:00	6843	420	-24.1	-25.6	305	3
2023-08-07T00:00	6873	419	-24.3	-25.9	300	4
2023-08-07T00:00	6905	417	-24.5	-26.1	297	4
2023-08-07T00:00	6933	415	-24.7	-26.3	296	4
2023-08-07T00:00	6961	414	-24.9	-26.6	297	4
2023-08-07T00:00	6993	412	-25.2	-26.9	300	4
2023-08-07T00:00	7014	411	-25.3	-27.0	302	4
2023-08-07T00:00	7039	409	-25.4	-27.0	300	3
2023-08-07T00:00	7065	408	-25.6	-27.2	293	3
2023-08-07T00:00	7090	406	-25.8	-27.5	283	4
2023-08-07T00:00	7119	405	-26.0	-27.7	274	4
2023-08-07T00:00	7149	403	-26.2	-28.1	265	4
2023-08-07T00:00	7168	402	-26.3	-28.2	256	4
2023-08-07T00:00	7202	400	-26.5	-28.3	248	3
2023-08-07T00:00	7235	398	-26.7	-28.6	241	3
2023-08-07T00:00	7257	397	-26.9	-28.8	234	3
2023-08-07T00:00	7274	396	-27.0	-28.9	230	2
2023-08-07T00:00	7300	395	-27.2	-28.9	224	2
2023-08-07T00:00	7334	393	-27.4	-29.2	213	1
2023-08-07T00:00	7361	391	-27.6	-29.4	145	0
2023-08-07T00:00	7391	390	-27.8	-29.6	90	1
2023-08-07T00:00	7417	388	-27.9	-29.7	91	1
2023-08-07T00:00	7447	387	-28.1	-29.9	113	1
2023-08-07T00:00	7481	385	-28.3	-30.2	144	1
2023-08-07T00:00	7505	384	-28.4	-30.5	162	2
2023-08-07T00:00	7528	382	-28.6	-30.3	169	3
2023-08-07T00:00	7554	381	-28.9	-30.8	168	3
2023-08-07T00:00	7580	380	-29.0	-31.1	164	4
2023-08-07T00:00	7608	378	-29.3	-31.2	158	4
2023-08-07T00:00	7638	377	-29.5	-31.6	153	5
2023-08-07T00:00	7667	375	-29.7	-31.7	150	5
2023-08-07T00:00	7688	374	-29.8	-31.9	150	5
2023-08-07T00:00	7708	373	-30.0	-32.1	152	5
2023-08-07T00:00	7731	372	-30.2	-32.2	154	5
2023-08-07T00:00	7754	370	-30.4	-32.5	156	5
2023-08-07T00:00	7780	369	-30.6	-32.7	158	5
2023-08-07T00:00	7805	368	-30.8	-32.8	159	5
2023-08-07T00:00	7833	366	-31.0	-33.0	160	5
2023-08-07T00:00	7869	365	-31.3	-33.2	162	5
2023-08-07T00:00	7897	363	-31.5	-33.5	163	5
2023-08-07T00:00	7921	362	-31.8	-34.1	162	4
2023-08-07T00:00	7954	360	-32.0	-33.9	158	4
2023-08-07T00:00	7978	359	-32.2	-33.9	151	4
2023-08-07T00:00	8008	357	-32.5	-34.3	141	4
2023-08-07T00:00	8037	356	-32.7	-34.5	130	4
2023-08-07T00:00	8066	354	-33.0	-34.8	120	4
2023-08-07T00:00	8101	353	-33.2	-35.0	114	3
2023-08-07T00:00	8127	351	-33.5	-35.6	114	3
2023-08-07T00:00	8156	350	-33.8	-35.9	118	3
2023-08-07T00:00	8177	349	-34.0	-36.1	126	3
2023-08-07T00:00	8199	348	-34.2	-36.0	133	2
2023-08-07T00:00	8221	347	-34.3	-36.1	139	2
2023-08-07T00:00	8244	346	-34.5	-36.6	143	2
2023-08-07T00:00	8267	344	-34.7	-36.7	150	2
2023-08-07T00:00	8292	343	-34.9	-36.8	163	1
2023-08-07T00:00	8319	342	-35.1	-37.1	184	1
2023-08-07T00:00	8349	340	-35.4	-37.7	206	1
2023-08-07T00:00	8375	339	-35.6	-37.7	219	2
2023-08-07T00:00	8410	338	-35.9	-38.2	224	2
2023-08-07T00:00	8435	336	-36.1	-38.5	225	2
2023-08-07T00:00	8460	335	-36.3	-38.5	223	2
2023-08-07T00:00	8482	334	-36.5	-38.8	216	1
2023-08-07T00:00	8510	333	-36.7	-39.0	199	1
2023-08-07T00:00	8547	331	-37.0	-39.2	170	1
2023-08-07T00:00	8575	330	-37.3	-39.6	157	1
2023-08-07T00:00	8595	328	-37.4	-39.4	160	1
2023-08-07T00:00	8622	327	-37.6	-39.6	167	2
2023-08-07T00:00	8657	326	-38.0	-40.3	172	2
2023-08-07T00:00	8684	324	-38.2	-40.3	174	2
2023-08-07T00:00	8707	323	-38.5	-40.6	171	2
2023-08-07T00:00	8732	322	-38.7	-40.6	164	2
2023-08-07T00:00	8761	321	-38.9	-40.7	154	2
2023-08-07T00:00	8795	319	-39.3	-41.3	147	2
2023-08-07T00:00	8826	318	-39.5	-41.7	146	2
2023-08-07T00:00	8845	317	-39.8	-42.4	153	2
2023-08-07T00:00	8867	316	-40.0	-42.6	164	2
2023-08-07T00:00	8890	315	-40.2	-42.8	175	2
2023-08-07T00:00	8911	314	-40.4	-43.1	181	2
2023-08-07T00:00	8931	313	-40.5	-43.0	184	3
2023-08-07T00:00	8953	312	-40.7	-43.2	184	3
2023-08-07T00:00	8975	311	-40.9	-43.2	183	3
2023-08-07T00:00	9000	310	-41.1	-43.6	184	3
2023-08-07T00:00	9028	308	-41.4	-44.1	185	3
2023-08-07T00:00	9053	307	-41.6	-44.3	189	3
2023-08-07T00:00	9078	306	-41.9	-44.6	194	3
2023-08-07T00:00	9107	305	-42.1	-44.9	199	3
2023-08-07T00:00	9136	304	-42.3	-45.1	201	3
2023-08-07T00:00	9165	302	-42.6	-45.4	199	3
2023-08-07T00:00	9192	301	-42.8	-45.7	191	2
2023-08-07T00:00	9217	300	-43.0	-46.3	172	2
2023-08-07T00:00	9247	299	-43.3	-46.6	148	2
2023-08-07T00:00	9273	297	-43.5	-46.6	135	2
2023-08-07T00:00	9298	296	-43.6	-46.3	134	2
2023-08-07T00:00	9327	295	-43.5	-45.6	138	3
2023-08-07T00:00	9353	294	-43.7	-45.2	143	3
2023-08-07T00:00	9378	293	-43.7	-45.4	147	3
2023-08-07T00:00	9405	292	-43.9	-45.9	151	4
2023-08-07T00:00	9438	290	-44.1	-46.5	155	4
2023-08-07T00:00	9471	289	-44.2	-47.2	160	5
2023-08-07T00:00	9497	288	-44.4	-47.5	166	5
2023-08-07T00:00	9519	287	-44.5	-47.7	169	6
2023-08-07T00:00	9538	286	-44.7	-47.4	170	6
2023-08-07T00:00	9562	285	-44.9	-47.5	167	6
2023-08-07T00:00	9579	284	-45.0	-47.5	162	7
2023-08-07T00:00	9600	283	-45.1	-47.5	157	7
2023-08-07T00:00	9621	282	-45.3	-47.5	153	8
2023-08-07T00:00	9639	282	-45.5	-47.8	151	8
2023-08-07T00:00	9658	281	-45.6	-47.6	150	8
2023-08-07T00:00	9677	280	-45.7	-47.8	151	8
2023-08-07T00:00	9695	279	-45.8	-47.9	152	8
2023-08-07T00:00	9715	278	-45.9	-48.5	152	8
2023-08-07T00:00	9734	278	-46.0	-48.7	151	8
2023-08-07T00:00	9754	277	-46.1	-48.9	150	8
2023-08-07T00:00	9774	276	-46.1	-49.1	148	9
2023-08-07T00:00	9791	275	-46.1	-50.7	146	9
2023-08-07T00:00	9810	274	-45.9	-52.8	144	9
2023-08-07T00:00	9831	274	-45.8	-53.9	141	10
2023-08-07T00:00	9851	273	-45.7	-54.8	139	11
2023-08-07T00:00	9887	271	-45.5	-55.7	138	13
2023-08-07T00:00	9908	270	-45.1	-57.8	137	14
2023-08-07T00:00	9923	270	-44.6		138	15
2023-08-07T00:00	9944	269	-44.4	-59.1	139	16
2023-08-07T00:00	9965	268	-43.9	-58.0	140	17
2023-08-07T00:00	9986	267	-43.7	-57.7	141	18
2023-08-07T00:00	10007	267	-43.7	-58.4	141	18
2023-08-07T00:00	10027	266	-43.5	-59.6	140	19
2023-08-07T00:00	10049	265	-43.3	-61.2	139	19
2023-08-07T00:00	10070	264	-43.3	-62.9	138	19
2023-08-07T00:00	10091	263	-42.9	-63.1	137	20
2023-08-07T00:00	10110	262	-42.8	-62.5	136	20
2023-08-07T00:00	10130	262	-42.8	-62.7	136	19
2023-08-07T00:00	10150	261	-42.7	-64.3	136	19
2023-08-07T00:00	10168	260	-42.6	-63.8	136	18
2023-08-07T00:00	10187	259	-42.5	-64.6	137	18
2023-08-07T00:00	10207	259	-42.5	-65.0	139	18
2023-08-07T00:00	10227	258	-42.4	-64.4	141	18
2023-08-07T00:00	10247	257	-41.9	-63.8	142	18
2023-08-07T00:00	10270	256	-41.8	-63.5	144	18
2023-08-07T00:00	10288	256	-41.8	-63.8	145	18
2023-08-07T00:00	10306	255	-42.0	-65.1	146	18
2023-08-07T00:00	10326	254	-42.0	-65.4	147	18
2023-08-07T00:00	10345	253	-42.0	-66.1	148	18
2023-08-07T00:00	10364	253	-41.8	-68.1	148	18
2023-08-07T00:00	10383	252	-41.4	-69.2	149	18
2023-08-07T00:00	10403	251	-41.0	-69.4	149	18
2023-08-07T00:00	10421	251	-40.8	-69.2	150	18
2023-08-07T00:00	10440	250	-40.8	-69.5	150	18
2023-08-07T00:00	10460	249	-40.1	-69.6	150	18
2023-08-07T00:00	10480	249	-39.7	-69.9	150	18
2023-08-07T00:00	10502	248	-39.2	-69.9	150	17
2023-08-07T00:00	10520	247	-38.9	-70.0	150	17
2023-08-07T00:00	10539	246	-39.0	-70.5	151	17
2023-08-07T00:00	10559	246	-38.6	-70.6	151	16
2023-08-07T00:00	10578	245	-38.6	-71.0	151	16
2023-08-07T00:00	10599	244	-38.7	-71.1	152	15
2023-08-07T00:00	10614	244	-38.7	-70.6	152	15
2023-08-07T00:00	10636	243	-38.7	-70.6	151	15
2023-08-07T00:00	10654	242	-38.7	-70.2	151	15
2023-08-07T00:00	10672	242	-38.8	-69.9	151	15
2023-08-07T00:00	10692	241	-38.6	-69.1	151	16
2023-08-07T00:00	10710	240	-38.5	-69.3	151	16
2023-08-07T00:00	10728	240	-38.3	-69.6	151	16
2023-08-07T00:00	10747	239	-38.3	-69.2	152	17
2023-08-07T00:00	10768	238	-38.3	-69.2	152	17
2023-08-07T00:00	10789	238	-38.4	-68.9	152	17
2023-08-07T00:00	10808	237	-38.3	-68.8	152	18
2023-08-07T00:00	10825	236	-38.3	-69.2	152	18
2023-08-07T00:00	10844	236	-38.5	-69.3	151	18
2023-08-07T00:00	10860	235	-38.6	-69.4	151	19
2023-08-07T00:00	10881	234	-38.5	-69.3	151	19
2023-08-07T00:00	10898	234	-38.5	-69.3	150	19
2023-08-07T00:00	10916	233	-38.6	-69.4	150	19
2023-08-07T00:00	10937	233	-38.6	-69.4	149	20
2023-08-07T00:00	10953	232	-38.6	-69.4	149	20
2023-08-07T00:00	10973	231	-38.8	-69.6	149	20
2023-08-07T00:00	10993	231	-38.9	-69.6	149	20
2023-08-07T00:00	11012	230	-39.0	-69.7	150	21
2023-08-07T00:00	11030	229	-39.2	-69.9	150	21
2023-08-07T00:00	11051	229	-39.3	-69.9	150	22
2023-08-07T00:00	11069	228	-39.4	-70.0	150	22
2023-08-07T00:00	11092	227	-39.5	-70.1	150	22
2023-08-07T00:00	11119	226	-39.4	-70.4	149	22
2023-08-07T00:00	11142	226	-39.4	-70.4	149	23
2023-08-07T00:00	11164	225	-39.5	-70.5	148	23
2023-08-07T00:00	11181	224	-39.6	-70.5	147	24
2023-08-07T00:00	11203	224	-39.7	-70.2	147	24
2023-08-07T00:00	11222	223	-39.8	-70.7	146	24
2023-08-07T00:00	11240	222	-40.0	-70.5	146	24
2023-08-07T00:00	11259	222	-40.1	-70.6	146	24
2023-08-07T00:00	11278	221	-40.2	-70.6	146	25
2023-08-07T00:00	11298	221	-40.3	-70.7	145	24
2023-08-07T00:00	11315	220	-40.4	-70.8	145	24
2023-08-07T00:00	11333	219	-40.5	-70.9	144	24
2023-08-07T00:00	11355	219	-40.2	-71.0	143	25
2023-08-07T00:00	11373	218	-39.7	-71.0	142	25
2023-08-07T00:00	11393	217	-39.9	-71.1	141	25
2023-08-07T00:00	11414	217	-40.0	-71.2	141	25
2023-08-07T00:00	11433	216	-40.1	-71.3	140	25
2023-08-07T00:00	11452	216	-40.2	-71.4	140	25
2023-08-07T00:00	11473	215	-40.3	-71.4	140	24
2023-08-07T00:00	11492	214	-40.5	-71.6	139	24
2023-08-07T00:00	11513	214	-40.3	-71.4	139	23
2023-08-07T00:00	11533	213	-40.3	-71.4	139	23
2023-08-07T00:00	11554	212	-40.4	-71.5	139	23
2023-08-07T00:00	11573	212	-40.5	-72.0	139	22
2023-08-07T00:00	11594	211	-40.7	-72.1	139	22
2023-08-07T00:00	11614	211	-40.7	-72.1	139	21
2023-08-07T00:00	11634	210	-40.8	-72.2	139	21
2023-08-07T00:00	11651	209	-40.8	-72.2	140	20
2023-08-07T00:00	11670	209	-40.6	-72.1	140	20
2023-08-07T00:00	11691	208	-40.8	-72.2	140	20
2023-08-07T00:00	11709	208	-40.9	-72.3	141	20
2023-08-07T00:00	11730	207	-41.1	-72.4	141	20
2023-08-07T00:00	11751	206	-41.2	-72.5	141	20
2023-08-07T00:00	11770	206	-41.4		142	20
2023-08-07T00:00	11791	205	-41.6	-72.4	142	20
2023-08-07T00:00	11811	205	-41.7	-72.5	143	20
2023-08-07T00:00	11830	204	-41.9	-72.6	144	20
2023-08-07T00:00	11850	203	-42.1	-72.8	144	20
2023-08-07T00:00	11871	203	-42.2	-72.9	145	20
2023-08-07T00:00	11891	202	-42.3	-72.9	145	20
2023-08-07T00:00	11910	202	-42.5	-73.1	145	20
2023-08-07T00:00	11930	201	-42.6	-73.2	146	19
2023-08-07T00:00	11949	200	-42.7	-73.2	146	19
2023-08-07T00:00	11969	200	-42.9	-73.4	147	19
2023-08-07T00:00	11988	199	-43.0	-73.5	148	19
2023-08-07T00:00	12008	199	-43.1	-73.6	149	19
2023-08-07T00:00	12027	198	-43.1	-73.6	150	19
2023-08-07T00:00	12047	198	-43.2	-73.6	150	19
2023-08-07T00:00	12067	197	-43.3	-73.7	151	19
2023-08-07T00:00	12087	196	-43.4	-73.8	151	19
2023-08-07T00:00	12105	196	-43.5	-73.9	152	19
2023-08-07T00:00	12126	195	-43.6	-73.9	152	19
2023-08-07T00:00	12145	195	-43.7	-74.0	152	19
2023-08-07T00:00	12165	194	-43.8	-74.1	153	19
2023-08-07T00:00	12185	193	-44.0	-74.2	153	18
2023-08-07T00:00	12207	193	-44.1	-74.3	154	18
2023-08-07T00:00	12227	192	-44.2	-74.4	155	17
2023-08-07T00:00	12243	192	-44.3	-74.5	157	17
2023-08-07T00:00	12265	191	-44.4	-74.5	159	16
2023-08-07T00:00	12281	191	-44.5	-74.6	160	16
2023-08-07T00:00	12302	190	-44.3	-74.8	161	15
2023-08-07T00:00	12325	190	-44.1	-74.7	162	15
2023-08-07T00:00	12343	189	-44.1	-75.1	162	15
2023-08-07T00:00	12362	188	-44.1	-75.1	161	15
2023-08-07T00:00	12383	188	-44.2	-75.2	161	14
2023-08-07T00:00	12401	187	-44.3	-75.3	161	14
2023-08-07T00:00	12420	187	-44.3	-75.3	161	13
2023-08-07T00:00	12439	186	-44.3	-75.3	161	13
2023-08-07T00:00	12460	186	-44.2	-75.2	160	12
2023-08-07T00:00	12479	185	-44.2	-75.6	160	11
2023-08-07T00:00	12497	185	-44.1	-75.5	159	11
2023-08-07T00:00	12520	184	-44.2	-75.6	157	11
2023-08-07T00:00	12538	184	-44.0	-75.5	155	10
2023-08-07T00:00	12559	183	-44.1	-75.5	152	10
2023-08-07T00:00	12578	182	-44.2	-75.6	150	10
2023-08-07T00:00	12599	182	-44.3	-75.7	148	10
2023-08-07T00:00	12615	181	-44.3	-76.2	147	11
2023-08-07T00:00	12635	181	-44.2	-76.1	146	12
2023-08-07T00:00	12654	180	-44.1	-76.0	147	12
2023-08-07T00:00	12673	180	-44.0	-75.9	147	13
2023-08-07T00:00	12692	179	-43.9	-75.9	147	14
2023-08-07T00:00	12712	179	-43.9	-75.9	147	14
2023-08-07T00:00	12729	178	-43.6	-75.6	147	15
2023-08-07T00:00	12747	178	-43.2	-75.4	146	15
2023-08-07T00:00	12766	177	-43.2	-75.4	146	15
2023-08-07T00:00	12782	177	-43.3	-75.4	147	15
2023-08-07T00:00	12801	176	-43.3	-75.4	148	15
2023-08-07T00:00	12823	176	-43.3	-75.9	150	16
2023-08-07T00:00	12840	175	-43.1	-75.8	153	16
2023-08-07T00:00	12859	175	-43.0	-75.7	155	16
2023-08-07T00:00	12877	175	-42.7	-75.5	156	16
2023-08-07T00:00	12897	174	-42.3	-75.2	157	17
2023-08-07T00:00	12914	174	-41.7	-75.3	158	17
2023-08-07T00:00	12932	173	-41.9	-74.9	159	17
2023-08-07T00:00	12953	173	-42.0	-75.0	161	17
2023-08-07T00:00	12972	172	-42.2	-75.1	162	17
2023-08-07T00:00	12990	172	-42.3	-75.2	163	17
2023-08-07T00:00	13008	171	-42.4	-75.3	165	17
2023-08-07T00:00	13027	171	-42.5	-75.3	167	17
2023-08-07T00:00	13045	170	-42.6	-75.4	168	17
2023-08-07T00:00	13063	170	-42.8	-75.6	169	17
2023-08-07T00:00	13083	169	-42.9	-75.6	169	17
2023-08-07T00:00	13100	169	-43.1	-75.3	169	16
2023-08-07T00:00	13119	168	-43.2	-75.4	168	16
2023-08-07T00:00	13140	168	-43.3	-75.4	168	16
2023-08-07T00:00	13158	167	-43.4	-75.5	169	17
2023-08-07T00:00	13178	167	-43.5	-75.6	170	17
2023-08-07T00:00	13201	166	-43.6	-75.6	171	17
2023-08-07T00:00	13217	166	-43.6	-76.2	172	16
2023-08-07T00:00	13241	165	-43.5	-76.1	174	16
2023-08-07T00:00	13257	165	-43.5	-76.1	176	16
2023-08-07T00:00	13277	165	-43.5	-76.1	177	16
2023-08-07T00:00	13295	164	-43.5	-76.1	179	15
2023-08-07T00:00	13317	164	-43.4	-76.0	180	15
2023-08-07T00:00	13336	163	-43.4	-76.0	181	15
2023-08-07T00:00	13355	163	-43.3	-75.9	183	15
2023-08-07T00:00	13377	162	-43.3	-76.5	184	14
2023-08-07T00:00	13395	162	-43.1	-76.3	185	14
2023-08-07T00:00	13419	161	-43.1	-76.3	186	14
2023-08-07T00:00	13436	161	-43.0	-76.3	186	13
2023-08-07T00:00	13456	160	-43.1	-76.3	185	13
2023-08-07T00:00	13479	160	-42.9	-76.2	183	12
2023-08-07T00:00	13498	159	-43.0	-76.3	181	11
2023-08-07T00:00	13519	159	-43.1	-76.3	179	11
2023-08-07T00:00	13542	158	-43.0	-76.3	177	10
2023-08-07T00:00	13562	158	-42.2	-76.3	176	10
2023-08-07T00:00	13581	157	-42.2	-76.3	176	9
2023-08-07T00:00	13601	157	-42.3	-76.4	177	9
2023-08-07T00:00	13622	156	-42.5	-75.9	178	9
2023-08-07T00:00	13642	156	-42.7	-76.0	180	9
2023-08-07T00:00	13662	155	-42.8	-76.1	181	9
2023-08-07T00:00	13683	155	-42.9	-76.2	182	9
2023-08-07T00:00	13706	154	-42.6	-76.0	183	9
2023-08-07T00:00	13727	154	-42.5	-75.9	184	9
2023-08-07T00:00	13747	153	-42.7	-76.0	185	9
2023-08-07T00:00	13772	153	-42.9	-76.2	187	9
2023-08-07T00:00	13793	152	-43.1	-76.3	188	9
2023-08-07T00:00	13814	152	-43.3	-76.5	190	9
2023-08-07T00:00	13835	151	-43.5	-76.6	191	9
2023-08-07T00:00	13856	151	-43.6	-76.7	192	9
2023-08-07T00:00	13876	151	-43.7	-76.8	191	9
2023-08-07T00:00	13898	150	-43.8	-76.9	189	9
2023-08-07T00:00	13923	149	-43.9	-76.9	187	8
2023-08-07T00:00	13945	149	-43.9	-76.9	185	8
2023-08-07T00:00	13966	149	-43.8	-76.9	183	8
2023-08-07T00:00	13987	148	-43.8	-76.9	181	8
2023-08-07T00:00	14008	148	-43.9	-76.9	178	8
2023-08-07T00:00	14030	147	-44.1	-77.1	175	8
2023-08-07T00:00	14054	147	-44.3	-77.2	172	8
2023-08-07T00:00	14076	146	-44.4	-76.7	168	9
2023-08-07T00:00	14100	146	-44.6	-76.9	165	9
2023-08-07T00:00	14120	145	-44.7	-77.0	162	9
2023-08-07T00:00	14143	145	-44.9	-77.1	160	9
2023-08-07T00:00	14167	144	-45.0	-77.2	157	9
2023-08-07T00:00	14186	144	-45.1	-77.3	155	9
2023-08-07T00:00	14208	143	-45.1	-77.3	154	9
2023-08-07T00:00	14229	143	-45.3	-77.4	153	9
2023-08-07T00:00	14251	142	-45.4	-77.5	153	9
2023-08-07T00:00	14275	142	-45.4	-77.5	154	10
2023-08-07T00:00	14295	141	-45.3	-77.4	157	10
2023-08-07T00:00	14316	141	-45.2	-77.3	159	10
2023-08-07T00:00	14340	140	-44.9	-77.1	161	10
2023-08-07T00:00	14361	140	-44.7	-77.0	162	10
2023-08-07T00:00	14379	140	-44.7	-77.0	163	11
2023-08-07T00:00	14401	139	-44.5	-76.8	163	11
2023-08-07T00:00	14424	139	-44.6	-76.9	162	11
2023-08-07T00:00	14444	138	-44.8	-77.0	162	11
2023-08-07T00:00	14463	138	-44.9	-77.1	162	11
2023-08-07T00:00	14485	137	-45.0	-77.2	162	12
2023-08-07T00:00	14503	137	-45.1	-77.3	163	12
2023-08-07T00:00	14524	137	-45.3	-77.4	164	12
2023-08-07T00:00	14545	136	-45.4	-77.5	166	12
2023-08-07T00:00	14565	136	-45.6	-77.6	168	12
2023-08-07T00:00	14585	135	-45.7	-77.2	170	13
2023-08-07T00:00	14605	135	-45.9	-77.4	172	13
2023-08-07T00:00	14624	135	-45.9	-77.4	173	13
2023-08-07T00:00	14644	134	-46.0	-77.4	174	13
2023-08-07T00:00	14664	134	-46.0	-77.4	175	13
2023-08-07T00:00	14683	133	-45.9	-77.9	175	13
2023-08-07T00:00	14705	133	-45.8	-77.8	174	12
2023-08-07T00:00	14722	133	-45.5	-77.6	174	12
2023-08-07T00:00	14742	132	-45.6	-77.6	173	12
2023-08-07T00:00	14762	132	-45.6	-77.6	173	12
2023-08-07T00:00	14782	131	-45.5	-77.6	173	11
2023-08-07T00:00	14803	131	-45.6	-77.6	173	11
2023-08-07T00:00	14822	131	-45.7	-77.7	173	11
2023-08-07T00:00	14842	130	-45.8	-77.8	174	11
2023-08-07T00:00	14860	130	-45.8	-77.8	175	12
2023-08-07T00:00	14881	129	-45.8	-77.8	175	12
2023-08-07T00:00	14901	129	-45.9	-77.9	176	12
2023-08-07T00:00	14921	129	-45.9	-77.9	177	11
2023-08-07T00:00	14945	128	-46.0	-77.9	178	11
2023-08-07T00:00	14965	128	-46.1	-78.0	178	11
2023-08-07T00:00	14982	128	-46.3	-78.2	180	11
2023-08-07T00:00	15003	127	-46.5	-78.3	181	11
2023-08-07T00:00	15022	127	-46.6	-78.4	182	11
2023-08-07T00:00	15045	126	-46.7	-78.4	184	11
2023-08-07T00:00	15065	126	-46.5	-78.3	185	11
2023-08-07T00:00	15084	126	-46.5	-78.3	185	12
2023-08-07T00:00	15108	125	-46.5	-78.3	186	12
2023-08-07T00:00	15129	125	-46.5	-78.3	186	12
2023-08-07T00:00	15149	124	-46.6	-78.4	187	12
2023-08-07T00:00	15169	124	-46.8	-78.5	188	13
2023-08-07T00:00	15189	124	-46.9	-78.6	189	13
2023-08-07T00:00	15210	123	-47.0	-78.7	191	13
2023-08-07T00:00	15233	123	-47.0	-78.7	194	13
2023-08-07T00:00	15251	122	-47.1	-78.7	197	14
2023-08-07T00:00	15275	122	-47.1	-78.7	199	14
2023-08-07T00:00	15297	122	-47.0	-78.7	201	15
2023-08-07T00:00	15319	121	-47.0	-78.7	203	15
2023-08-07T00:00	15343	121	-46.8	-78.5	203	15
2023-08-07T00:00	15361	120	-46.7	-79.0	203	14
2023-08-07T00:00	15386	120	-46.2	-78.6	203	13
2023-08-07T00:00	15407	120	-46.2	-78.6	202	13
2023-08-07T00:00	15428	119	-46.3	-78.7	202	12
2023-08-07T00:00	15448	119	-46.2	-78.6	202	11
2023-08-07T00:00	15471	118	-46.2	-78.6	201	11
2023-08-07T00:00	15492	118	-46.1	-78.5	200	10
2023-08-07T00:00	15512	118	-46.3	-78.7	199	10
2023-08-07T00:00	15532	117	-46.4	-78.2	198	10
2023-08-07T00:00	15550	117	-46.5	-78.3	197	10
2023-08-07T00:00	15571	117	-46.6	-78.4	195	9
2023-08-07T00:00	15593	116	-46.6	-78.4	194	9
2023-08-07T00:00	15616	116	-46.4	-78.8	192	9
2023-08-07T00:00	15634	116	-46.3	-78.7	191	9
2023-08-07T00:00	15654	115	-46.4	-78.8	191	9
2023-08-07T00:00	15676	115	-46.5	-78.8	191	9
2023-08-07T00:00	15695	115	-46.5	-78.8	190	9
2023-08-07T00:00	15721	114	-46.4	-78.8	190	9
2023-08-07T00:00	15740	114	-46.6	-78.9	189	9
2023-08-07T00:00	15759	113	-46.8	-78.5	189	9
2023-08-07T00:00	15781	113	-46.9	-78.6	189	9
2023-08-07T00:00	15802	113	-46.9	-78.6	189	9
2023-08-07T00:00	15820	112	-47.1	-78.7	189	9
2023-08-07T00:00	15842	112	-47.2	-78.8	189	9
2023-08-07T00:00	15860	112	-47.3	-78.9	188	9
2023-08-07T00:00	15882	111	-47.5	-79.0	187	9
2023-08-07T00:00	15902	111	-47.6	-79.1	186	9
2023-08-07T00:00	15919	111	-47.8	-79.3	185	9
2023-08-07T00:00	15940	110	-47.7		184	9
2023-08-07T00:00	15958	110	-47.7		183	9
2023-08-07T00:00	15978	110	-47.9	-79.3	184	10
2023-08-07T00:00	15995	109	-47.9	-79.3	184	10
2023-08-07T00:00	16015	109	-47.8	-79.3	185	10
2023-08-07T00:00	16034	109	-47.9	-79.3	185	10
2023-08-07T00:00	16051	109	-48.1	-79.5	187	10
2023-08-07T00:00	16069	108	-48.1	-79.5	188	10
2023-08-07T00:00	16089	108	-48.1	-79.5	190	10
2023-08-07T00:00	16106	108	-48.2	-79.6	193	10
2023-08-07T00:00	16125	107	-48.2	-79.6	195	10
2023-08-07T00:00	16144	107	-48.2	-79.6	197	10
2023-08-07T00:00	16159	107	-48.0	-79.4	197	10
2023-08-07T00:00	16179	106	-48.0	-79.4	196	10
2023-08-07T00:00	16198	106	-48.1	-79.5	194	10
2023-08-07T00:00	16218	106	-47.8	-79.8	192	9
2023-08-07T00:00	16236	106	-47.8	-79.8	190	9
2023-08-07T00:00	16256	105	-47.8	-79.8	189	9
2023-08-07T00:00	16275	105	-47.8	-79.8	189	8
2023-08-07T00:00	16294	105	-47.8	-79.8	191	8
2023-08-07T00:00	16312	104	-47.6	-79.6	193	7
2023-08-07T00:00	16332	104	-47.6	-79.6	196	7
2023-08-07T00:00	16350	104	-47.5	-79.6	200	7
2023-08-07T00:00	16371	103	-47.6	-79.6	203	7
2023-08-07T00:00	16393	103	-47.7	-79.7	206	8
2023-08-07T00:00	16411	103	-47.8	-79.3	207	8
2023-08-07T00:00	16432	102	-47.9	-79.3	208	8
2023-08-07T00:00	16452	102	-48.1	-79.5	207	8
2023-08-07T00:00	16469	102	-48.2	-79.6	205	8
2023-08-07T00:00	16497	101	-48.4	-79.7	202	8
2023-08-07T00:00	16512	101	-48.4	-79.7	199	8
2023-08-07T00:00	16534	101	-48.0	-79.9	194	8
2023-08-07T00:00	16557	101	-47.9	-79.9	189	7
2023-08-07T00:00	16579	100	-47.9	-79.9	184	7
2023-08-07T00:00	16600	100	-48.0	-79.9	180	7
2023-08-07T00:00	16624	100	-48.1	-80.0	177	8
2023-08-07T00:00	16645	99	-48.3	-79.6	173	8
2023-08-07T00:00	16665	99	-48.4	-79.7	170	8
2023-08-07T00:00	16687	99	-48.5	-79.8	168	9
2023-08-07T00:00	16712	98	-48.4	-79.7	166	9
2023-08-07T00:00	16735	98	-48.5	-79.8	164	9
2023-08-07T00:00	16760	97	-48.6	-79.9	164	9
2023-08-07T00:00	16782	97	-48.6	-79.9	165	10
2023-08-07T00:00	16807	97	-48.8	-80.0	166	10
2023-08-07T00:00	16830	96	-49.0	-80.2	168	10
2023-08-07T00:00	16851	96	-49.2	-80.3	170	10
2023-08-07T00:00	16876	96	-49.3	-80.4	172	10
2023-08-07T00:00	16900	95	-49.4	-80.5	174	10
2023-08-07T00:00	16922	95	-49.5	-80.5	175	10
2023-08-07T00:00	16943	95	-49.5	-80.5	176	10
2023-08-07T00:00	16966	94	-49.5	-80.5	176	10
2023-08-07T00:00	16988	94	-49.5	-80.5	177	10
2023-08-07T00:00	17015	94	-49.5	-80.5	178	10
2023-08-07T00:00	17037	93	-49.5	-80.5	179	9
2023-08-07T00:00	17058	93	-49.5	-80.5	180	9
2023-08-07T00:00	17084	93	-49.4	-80.5	181	9
2023-08-07T00:00	17108	92	-49.5	-80.5	181	8
2023-08-07T00:00	17129	92	-49.5	-80.5	180	8
2023-08-07T00:00	17149	92	-49.6	-80.6	179	8
2023-08-07T00:00	17173	92	-49.6	-80.6	177	8
2023-08-07T00:00	17195	91	-49.5	-80.5	174	8
2023-08-07T00:00	17220	91	-49.5	-80.5	172	8
2023-08-07T00:00	17242	91	-49.7	-80.7	169	8
2023-08-07T00:00	17261	90	-49.7	-80.7	168	9
2023-08-07T00:00	17283	90	-49.7	-80.7	168	9
2023-08-07T00:00	17304	90	-49.8	-80.8	169	10
2023-08-07T00:00	17326	89	-50.0	-80.9	171	10
2023-08-07T00:00	17349	89	-50.1	-81.0	173	10
2023-08-07T00:00	17372	89	-50.3	-81.1	176	11
2023-08-07T00:00	17390	89	-50.2	-81.0	178	11
2023-08-07T00:00	17411	88	-50.2	-81.0	180	11
2023-08-07T00:00	17433	88	-50.3	-81.1	182	11
2023-08-07T00:00	17455	88	-50.2	-81.0	183	11
2023-08-07T00:00	17472	87	-50.3	-81.1	184	11
2023-08-07T00:00	17494	87	-50.3	-81.1	185	11
2023-08-07T00:00	17516	87	-50.4	-81.2	186	10
2023-08-07T00:00	17535	87	-50.3	-81.1	187	10
2023-08-07T00:00	17553	86	-50.4	-81.2	188	10
2023-08-07T00:00	17575	86	-50.4	-81.2	189	10
2023-08-07T00:00	17596	86	-50.5	-80.8	190	10
2023-08-07T00:00	17615	86	-50.7	-80.9	192	9
2023-08-07T00:00	17635	85	-50.8	-81.0	193	9
2023-08-07T00:00	17655	85	-50.8	-81.0	195	8
2023-08-07T00:00	17677	85	-50.8	-81.0	196	8
2023-08-07T00:00	17698	84	-50.9	-81.1	196	7
2023-08-07T00:00	17720	84	-50.9	-81.6	195	7
2023-08-07T00:00	17737	84	-50.9	-81.6	193	6
2023-08-07T00:00	17762	84	-50.7	-81.4	187	5
2023-08-07T00:00	17780	83	-50.6	-81.3	179	5
2023-08-07T00:00	17804	83	-50.6	-81.3	169	5
2023-08-07T00:00	17826	83	-50.5	-81.3	161	5
2023-08-07T00:00	17846	83	-50.5	-81.3	155	6
2023-08-07T00:00	17868	82	-50.5	-81.3	152	6
2023-08-07T00:00	17888	82	-50.6	-81.3	150	6
2023-08-07T00:00	17904	82	-50.7	-80.9	150	6
2023-08-07T00:00	17930	81	-50.8	-81.0	151	7
2023-08-07T00:00	17952	81	-51.0	-81.2	153	7
2023-08-07T00:00	17975	81	-51.1	-81.2	153	7
2023-08-07T00:00	17997	81	-51.3	-81.4	153	7
2023-08-07T00:00	18018	80	-51.3	-81.4	152	7
2023-08-07T00:00	18042	80	-51.3	-81.4	150	8
2023-08-07T00:00	18062	80	-51.4	-81.5	147	8
2023-08-07T00:00	18087	80	-51.5	-81.5	145	8
2023-08-07T00:00	18111	79	-51.5	-81.5	143	9
2023-08-07T00:00	18133	79	-51.6	-81.6	143	9
2023-08-07T00:00	18155	79	-51.7	-81.7	143	9
2023-08-07T00:00	18178	78	-51.6	-81.6	143	9
2023-08-07T00:00	18199	78	-51.7	-81.7	143	10
2023-08-07T00:00	18224	78	-51.9	-81.8	143	10
2023-08-07T00:00	18248	78	-52.1	-81.5	143	10
2023-08-07T00:00	18272	77	-52.3	-81.7	143	10
2023-08-07T00:00	18296	77	-52.5	-81.8	143	10
2023-08-07T00:00	18319	77	-52.7	-82.0	143	11
2023-08-07T00:00	18343	76	-52.8	-82.1	143	11
2023-08-07T00:00	18366	76	-53.0	-82.2	144	11
2023-08-07T00:00	18390	76	-53.1	-82.3	145	11
2023-08-07T00:00	18409	76	-52.9	-82.1	146	11
2023-08-07T00:00	18436	75	-53.0	-82.2	146	10
2023-08-07T00:00	18459	75	-53.1	-82.3	146	10
2023-08-07T00:00	18483	75	-53.2	-82.4	146	10
2023-08-07T00:00	18504	75	-53.3	-82.5	146	10
2023-08-07T00:00	18526	74	-53.4	-82.5	147	10
2023-08-07T00:00	18549	74	-53.2	-82.4	148	10
2023-08-07T00:00	18572	74	-53.3	-82.5	150	10
2023-08-07T00:00	18593	74	-53.4	-82.5	152	10
2023-08-07T00:00	18621	73	-53.6	-82.7	153	10
2023-08-07T00:00	18641	73	-53.7	-82.8	155	10
2023-08-07T00:00	18663	73	-53.9	-82.5	156	10
2023-08-07T00:00	18687	73	-54.0	-82.6	158	10
2023-08-07T00:00	18710	72	-54.1	-82.6	158	10
2023-08-07T00:00	18730	72	-54.1	-82.6	159	10
2023-08-07T00:00	18752	72	-54.2	-82.7	160	10
2023-08-07T00:00	18776	72	-54.2	-83.1	160	10
2023-08-07T00:00	18798	71	-54.2	-83.1	161	11
2023-08-07T00:00	18819	71	-54.0	-83.0	162	11
2023-08-07T00:00	18842	71	-53.9	-82.9	164	11
2023-08-07T00:00	18861	71	-53.9	-82.9	166	11
2023-08-07T00:00	18881	70	-53.8	-82.8	169	10
2023-08-07T00:00	18905	70	-53.8	-82.8	172	10
2023-08-07T00:00	18925	70	-53.8	-82.8	174	10
2023-08-07T00:00	18946	70	-53.8	-82.8	178	10
2023-08-07T00:00	18966	69	-53.8	-82.8	181	10
2023-08-07T00:00	18986	69	-53.7	-82.8	183	9
2023-08-07T00:00	19007	69	-53.7	-83.2	186	9
2023-08-07T00:00	19028	69	-53.7	-83.2	188	9
2023-08-07T00:00	19050	69	-53.7	-83.2	190	8
2023-08-07T00:00	19071	68	-53.4	-83.0	192	8
2023-08-07T00:00	19091	68	-53.4	-83.0	194	7
2023-08-07T00:00	19112	68	-53.0	-82.7	196	7
2023-08-07T00:00	19133	68	-53.0	-82.7	198	6
2023-08-07T00:00	19151	67	-53.0	-82.7	200	6
2023-08-07T00:00	19171	67	-53.0	-82.7	202	5
2023-08-07T00:00	19192	67	-52.9	-82.6	205	5
2023-08-07T00:00	19214	67	-53.0	-82.7	208	5
2023-08-07T00:00	19236	67	-53.0	-82.7	212	4
2023-08-07T00:00	19254	66	-53.1	-82.7	216	4
2023-08-07T00:00	19269	66	-52.9	-82.6	220	4
2023-08-07T00:00	19294	66	-53.0	-82.7	224	3
2023-08-07T00:00	19315	66	-52.9	-82.6	227	3
2023-08-07T00:00	19335	66	-52.9	-82.6	228	2
2023-08-07T00:00	19354	65	-52.9	-82.6	226	2
2023-08-07T00:00	19377	65	-52.8	-82.5	211	1
2023-08-07T00:00	19400	65	-52.5	-82.8	143	1
2023-08-07T00:00	19421	65	-52.5	-82.8	108	1
2023-08-07T00:00	19440	64	-52.5	-82.8	102	2
2023-08-07T00:00	19467	64	-52.5	-82.3	102	3
2023-08-07T00:00	19489	64	-52.6	-82.4	104	3
2023-08-07T00:00	19511	64	-52.7	-82.4	107	3
2023-08-07T00:00	19534	64	-52.8	-82.5	111	4
2023-08-07T00:00	19560	63	-53.0	-82.7	116	5
2023-08-07T00:00	19588	63	-53.2	-82.8	120	5
2023-08-07T00:00	19610	63	-53.4	-82.5	123	6
2023-08-07T00:00	19634	63	-53.6	-83.1	126	6
2023-08-07T00:00	19661	62	-53.4	-83.0	127	7
2023-08-07T00:00	19687	62	-53.1	-82.7	127	7
2023-08-07T00:00	19707	62	-53.0	-82.7	124	7
2023-08-07T00:00	19732	62	-52.9	-82.6	121	7
2023-08-07T00:00	19756	61	-52.9	-82.6	118	8
2023-08-07T00:00	19782	61	-53.0	-82.7	115	8
2023-08-07T00:00	19805	61	-53.0	-82.7	113	8
2023-08-07T00:00	19827	61	-53.0	-83.1	112	8
2023-08-07T00:00	19855	60	-52.8	-83.0	112	8
2023-08-07T00:00	19881	60	-52.5	-82.8	112	8
2023-08-07T00:00	19906	60	-52.5	-82.8	112	9
2023-08-07T00:00	19928	60	-52.6	-82.4	113	9
2023-08-07T00:00	19960	60	-52.7	-82.4	114	9
2023-08-07T00:00	19982	59	-52.7	-82.4	115	10
2023-08-07T00:00	20003	59	-52.7	-82.4	117	10
2023-08-07T00:00	20033	59	-52.8	-82.5	119	10
2023-08-07T00:00	20060	59	-52.9	-82.6	121	9
2023-08-07T00:00	20085	58	-53.1	-82.7	125	9
2023-08-07T00:00	20110	58	-53.3	-82.5	128	9
2023-08-07T00:00	20137	58	-53.5	-82.6	132	9
2023-08-07T00:00	20161	58	-53.8	-82.8	136	9
2023-08-07T00:00	20189	57	-53.9	-82.9	140	9
2023-08-07T00:00	20213	57	-54.2	-82.7	144	9
2023-08-07T00:00	20243	57	-54.4	-82.9	148	9
2023-08-07T00:00	20264	57	-54.5	-82.9	151	9
2023-08-07T00:00	20284	57	-54.7	-83.5	154	9
2023-08-07T00:00	20307	56	-54.7	-83.5	157	9
2023-08-07T00:00	20336	56	-54.3	-83.2	159	8
2023-08-07T00:00	20357	56	-53.7	-83.2	161	8
2023-08-07T00:00	20378	56	-53.8	-83.3	163	7
2023-08-07T00:00	20402	56	-53.8	-83.3	164	6
2023-08-07T00:00	20427	55	-53.8	-83.3	164	6
2023-08-07T00:00	20448	55	-53.6	-83.1	163	5
2023-08-07T00:00	20469	55	-53.5	-83.0	160	5
2023-08-07T00:00	20493	55	-53.3	-82.9	157	5
2023-08-07T00:00	20515	55	-53.2	-83.3	153	5
2023-08-07T00:00	20533	54	-52.9	-83.1	150	5
2023-08-07T00:00	20551	54	-52.8	-83.0	148	6
2023-08-07T00:00	20579	54	-52.8	-83.0	147	6
2023-08-07T00:00	20602	54	-52.7	-82.9	148	6
2023-08-07T00:00	20620	54	-52.6	-82.8	149	6
2023-08-07T00:00	20638	54	-52.4	-82.7	151	6
2023-08-07T00:00	20663	53	-52.5	-82.8	154	6
2023-08-07T00:00	20684	53	-52.6	-82.4	156	6
2023-08-07T00:00	20705	53	-52.7	-82.4	158	7
2023-08-07T00:00	20724	53	-52.6	-82.4	159	7
2023-08-07T00:00	20744	53	-52.6	-82.4	160	7
2023-08-07T00:00	20766	52	-52.7	-82.4	160	7
2023-08-07T00:00	20791	52	-52.7	-82.4	160	7
2023-08-07T00:00	20808	52	-52.7	-82.4	160	8
2023-08-07T00:00	20833	52	-52.8	-82.5	160	8
2023-08-07T00:00	20851	52	-52.9	-82.6	161	8
2023-08-07T00:00	20874	52	-53.0	-82.7	162	8
2023-08-07T00:00	20890	51	-53.2	-82.8	164	8
2023-08-07T00:00	20912	51	-53.1	-82.7	165	8
2023-08-07T00:00	20939	51	-53.2	-82.8	167	8
2023-08-07T00:00	20961	51	-53.3	-82.9	169	7
2023-08-07T00:00	20979	51	-53.3	-82.9	171	7
2023-08-07T00:00	21001	51	-53.3	-82.9	174	6
2023-08-07T00:00	21018	50	-53.3	-82.9	178	6
2023-08-07T00:00	21045	50	-53.3	-82.9	183	5
2023-08-07T00:00	21070	50	-53.4	-83.0	188	5
2023-08-07T00:00	21087	50	-53.5	-83.0	194	4
2023-08-07T00:00	21114	50	-53.5	-83.0	200	4
2023-08-07T00:00	21139	50	-53.3	-82.9	207	3
2023-08-07T00:00	21160	49	-53.3	-82.9	215	2
2023-08-07T00:00	21188	49	-53.2	-82.8	226	2
2023-08-07T00:00	21209	49	-53.3	-82.9	239	1
2023-08-07T00:00	21234	49	-53.4	-83.0	280	0
2023-08-07T00:00	21262	49	-53.5	-83.0	38	1
2023-08-07T00:00	21288	48	-53.5	-83.0	57	2
2023-08-07T00:00	21313	48	-53.4	-83.0	65	3
2023-08-07T00:00	21344	48	-53.2	-82.8	70	4
2023-08-07T00:00	21368	48	-53.4	-83.0	74	5
2023-08-07T00:00	21397	48	-53.3	-82.9	77	6
2023-08-07T00:00	21416	47	-53.4	-83.0	79	7
2023-08-07T00:00	21449	47	-53.6	-83.1	82	7
2023-08-07T00:00	21474	47	-53.5	-82.6	84	8
2023-08-07T00:00	21500	47	-53.7	-82.8	85	9
2023-08-07T00:00	21527	47	-53.8	-82.8	87	9
2023-08-07T00:00	21548	46	-54.0	-83.0	89	9
2023-08-07T00:00	21575	46	-54.1	-83.1	92	9
2023-08-07T00:00	21595	46	-54.3	-83.2	95	9
2023-08-07T00:00	21625	46	-54.4	-83.3	100	9
2023-08-07T00:00	21649	46	-54.4	-83.3	105	8
2023-08-07T00:00	21672	46	-54.4	-83.3	110	8
2023-08-07T00:00	21695	45	-54.3	-83.2	116	7
2023-08-07T00:00	21720	45	-54.4	-83.3	122	6
2023-08-07T00:00	21742	45	-54.4	-83.3	128	6
2023-08-07T00:00	21767	45	-54.4	-83.3	132	5
2023-08-07T00:00	21793	45	-54.3	-83.2	136	5
2023-08-07T00:00	21810	45	-54.3	-83.2	140	5
2023-08-07T00:00	21836	44	-54.2	-83.1	143	4
2023-08-07T00:00	21856	44	-54.3	-83.6	145	4
2023-08-07T00:00	21876	44	-54.2	-83.6	147	4
2023-08-07T00:00	21899	44	-54.1	-83.5	146	4
2023-08-07T00:00	21925	44	-53.9	-83.3	143	4
2023-08-07T00:00	21944	44	-53.8	-83.3	135	3
2023-08-07T00:00	21962	44	-53.6	-83.6	125	3
2023-08-07T00:00	21984	43	-53.5	-83.5	114	3
2023-08-07T00:00	22003	43	-53.0	-83.1	106	4
2023-08-07T00:00	22027	43	-52.9	-83.1	101	4
2023-08-07T00:00	22045	43	-52.8	-83.0	99	4
2023-08-07T00:00	22069	43	-52.9	-83.1	98	5
2023-08-07T00:00	22084	43	-53.0	-82.7	99	5
2023-08-07T00:00	22109	43	-53.0	-82.7	100	6
2023-08-07T00:00	22125	42	-53.1	-82.7	103	6
2023-08-07T00:00	22150	42	-53.1	-82.7	106	7
2023-08-07T00:00	22173	42	-53.1	-82.7	109	7
2023-08-07T00:00	22190	42	-53.2	-82.8	112	8
2023-08-07T00:00	22213	42	-53.3	-82.9	116	8
2023-08-07T00:00	22227	42	-53.2	-82.8	119	8
2023-08-07T00:00	22250	42	-53.2	-82.8	122	7
2023-08-07T00:00	22274	42	-52.9	-83.1	125	7
2023-08-07T00:00	22300	41	-52.5	-82.8	129	6
2023-08-07T00:00	22317	41	-52.5	-82.8	133	6
2023-08-07T00:00	22342	41	-52.6	-82.8	136	5
2023-08-07T00:00	22364	41	-52.6	-82.8	138	5
2023-08-07T00:00	22389	41	-52.6	-82.8	139	4
2023-08-07T00:00	22405	41	-52.4	-82.7	139	4
2023-08-07T00:00	22428	41	-52.4	-82.7	139	3
2023-08-07T00:00	22452	40	-52.5	-82.8	139	3
2023-08-07T00:00	22474	40	-52.5	-82.8	138	2
2023-08-07T00:00	22501	40	-52.6	-82.4	136	2
2023-08-07T00:00	22517	40	-52.7	-82.4	130	2
2023-08-07T00:00	22545	40	-52.7	-82.4	120	2
2023-08-07T00:00	22565	40	-52.6	-82.4	109	2
2023-08-07T00:00	22592	40	-52.5	-82.8	101	3
2023-08-07T00:00	22613	39	-52.5	-82.8	98	3
2023-08-07T00:00	22642	39	-52.5	-82.8	97	4
2023-08-07T00:00	22662	39	-52.4	-82.7	97	4
2023-08-07T00:00	22685	39	-52.3	-82.6	98	4
2023-08-07T00:00	22707	39	-52.2	-82.5	99	4
2023-08-07T00:00	22738	39	-52.0	-82.4	100	4
2023-08-07T00:00	22759	39	-51.9	-82.3	99	3
2023-08-07T00:00	22781	38	-51.9	-82.3	97	3
2023-08-07T00:00	22807	38	-51.8	-82.2	92	4
2023-08-07T00:00	22835	38	-51.8	-82.8	88	4
2023-08-07T00:00	22859	38	-51.7	-82.7	84	5
2023-08-07T00:00	22882	38	-51.5	-82.5	82	6
2023-08-07T00:00	22909	38	-51.2	-82.3	82	6
2023-08-07T00:00	22934	38	-51.0	-82.2	84	7
2023-08-07T00:00	22956	37	-50.6	-81.9	88	7
2023-08-07T00:00	22985	37	-50.3	-81.6	93	7
2023-08-07T00:00	23010	37	-50.2		99	7
2023-08-07T00:00	23031	37	-50.2		104	7
2023-08-07T00:00	23052	37	-50.2		110	7
2023-08-07T00:00	23079	37	-50.2		115	7
2023-08-07T00:00	23099	37	-50.4	-81.7	119	7
2023-08-07T00:00	23126	36	-50.5	-81.8	124	7
2023-08-07T00:00	23155	36	-50.7	-81.4	128	7
2023-08-07T00:00	23178	36	-50.9	-81.6	132	6
2023-08-07T00:00	23199	36	-51.0	-81.6	135	6
2023-08-07T00:00	23222	36	-51.2	-81.8	136	5
2023-08-07T00:00	23244	36	-51.1	-81.7	133	5
2023-08-07T00:00	23272	36	-51.0	-81.6	127	4
2023-08-07T00:00	23291	36	-51.0	-81.6	116	4
2023-08-07T00:00	23314	35	-50.9	-82.1	104	4
2023-08-07T00:00	23341	35	-50.9	-82.1	93	4
2023-08-07T00:00	23358	35	-50.7		86	5
2023-08-07T00:00	23384	35	-50.6	-81.9	80	5
2023-08-07T00:00	23406	35	-50.7		77	6
2023-08-07T00:00	23420	35	-50.8	-82.0	76	6
2023-08-07T00:00	23448	35	-50.9	-82.1	76	7
2023-08-07T00:00	23470	35	-50.8	-82.0	77	8
2023-08-07T00:00	23499	34	-50.8	-82.0	79	9
2023-08-07T00:00	23518	34	-50.8	-82.0	82	10
2023-08-07T00:00	23540	34	-50.8	-82.0	86	11
2023-08-07T00:00	23564	34	-50.6	-81.9	89	11
2023-08-07T00:00	23578	34	-50.6	-81.9	93	12
2023-08-07T00:00	23599	34	-50.7		97	12
2023-08-07T00:00	23627	34	-50.7		99	12
2023-08-07T00:00	23651	34	-50.6	-81.9	102	12
2023-08-07T00:00	23669	34	-50.7	-81.4	103	12
2023-08-07T00:00	23694	33	-50.9	-81.6	105	11
2023-08-07T00:00	23714	33	-51.0	-81.6	107	11
2023-08-07T00:00	23737	33	-51.2	-81.8	109	11
2023-08-07T00:00	23759	33	-51.4	-81.9	111	10
2023-08-07T00:00	23785	33	-51.6	-82.1	113	10
2023-08-07T00:00	23808	33	-51.7	-82.2	115	9
2023-08-07T00:00	23826	33	-51.7	-82.2	115	9
2023-08-07T00:00	23848	33	-51.6	-82.1	113	9
2023-08-07T00:00	23872	32	-51.7	-82.2	109	8
2023-08-07T00:00	23901	32	-51.7	-82.2	105	8
2023-08-07T00:00	23923	32	-51.6	-82.1	99	8
2023-08-07T00:00	23942	32	-51.5	-82.5	94	7
2023-08-07T00:00	23958	32	-51.4	-82.5	89	7
2023-08-07T00:00	23992	32	-51.3	-82.4	85	8
2023-08-07T00:00	24010	32	-51.2	-82.3	82	8
2023-08-07T00:00	24037	32	-51.0	-82.2	81	9
2023-08-07T00:00	24061	32	-50.7		81	10
2023-08-07T00:00	24088	31	-50.4	-81.7	81	10
2023-08-07T00:00	24110	31	-50.3	-81.6	82	10
2023-08-07T00:00	24128	31	-50.2		83	10
2023-08-07T00:00	24162	31	-50.2		84	10
2023-08-07T00:00	24188	31	-50.2		86	9
2023-08-07T00:00	24208	31	-50.0	-81.4	89	9
2023-08-07T00:00	24245	31	-50.0	-81.4	92	10
2023-08-07T00:00	24265	31	-50.1	-81.5	94	10
2023-08-07T00:00	24297	30	-50.2		97	11
2023-08-07T00:00	24325	30	-50.3	-81.6	98	11
2023-08-07T00:00	24347	30	-50.5	-81.8	99	11
2023-08-07T00:00	24373	30	-50.7		99	11
2023-08-07T00:00	24401	30	-50.8	-82.0	98	11
2023-08-07T00:00	24426	30	-50.7		95	11
2023-08-07T00:00	24462	30	-50.5	-81.8	92	10
2023-08-07T00:00	24489	30	-50.1	-81.5	90	10
2023-08-07T00:00	24511	29	-49.9	-81.3	87	10
2023-08-07T00:00	24541	29	-49.8	-81.8	86	11
2023-08-07T00:00	24575	29	-49.8	-81.8	86	11
2023-08-07T00:00	24603	29	-49.7	-81.8	87	11
2023-08-07T00:00	24636	29	-49.7	-81.8	88	11
2023-08-07T00:00	24663	29	-49.7	-81.8	88	11
2023-08-07T00:00	24691	29	-49.5	-81.6	87	11
2023-08-07T00:00	24714	29	-49.3	-81.5	85	11
2023-08-07T00:00	24754	28	-49.3	-81.5	83	10
2023-08-07T00:00	24772	28	-49.3	-81.5	80	10
2023-08-07T00:00	24800	28	-49.3	-81.5	78	10
2023-08-07T00:00	24832	28	-49.3	-80.9	75	10
2023-08-07T00:00	24861	28	-49.4	-81.0	74	11
2023-08-07T00:00	24890	28	-49.5	-81.1	73	11
2023-08-07T00:00	24909	28	-49.4	-81.0	74	12
2023-08-07T00:00	24945	28	-49.4	-81.0	76	13
2023-08-07T00:00	24971	27	-49.5	-81.1	78	14
2023-08-07T00:00	24997	27	-49.4	-81.0	81	14
2023-08-07T00:00	25020	27	-49.4	-81.0	84	15
2023-08-07T00:00	25049	27	-49.4	-81.0	87	15
2023-08-07T00:00	25077	27	-49.5	-81.1	89	16
2023-08-07T00:00	25106	27	-49.6	-81.1	91	16
2023-08-07T00:00	25125	27	-49.8	-81.3	94	16
2023-08-07T00:00	25152	27	-49.9	-81.3	96	16
2023-08-07T00:00	25179	27	-50.0	-81.4	98	15
2023-08-07T00:00	25199	27	-50.1	-81.5	99	15
2023-08-07T00:00	25225	26	-50.1	-81.5	101	14
2023-08-07T00:00	25249	26	-50.0	-81.4	102	14
2023-08-07T00:00	25261	26	-50.1	-81.5	103	13
2023-08-07T00:00	25282	26	-50.0	-81.4	103	13
2023-08-07T00:00	25310	26	-50.1	-81.5	103	13
2023-08-07T00:00	25339	26	-50.2		102	13
2023-08-07T00:00	25360	26	-50.4	-81.7	101	12
2023-08-07T00:00	25380	26	-50.4	-81.7	100	12
2023-08-07T00:00	25407	26	-50.5	-81.8	98	12
2023-08-07T00:00	25428	26	-50.3	-81.6	97	11
2023-08-07T00:00	25451	26	-50.2		95	11
2023-08-07T00:00	25476	25	-50.2		93	10
2023-08-07T00:00	25494	25	-50.1	-81.5	92	10
2023-08-07T00:00	25520	25	-49.9	-81.3	90	9
2023-08-07T00:00	25542	25	-49.8	-81.3	89	9
2023-08-07T00:00	25564	25	-49.8	-81.8	87	9
2023-08-07T00:00	25589	25	-49.8	-81.3	86	8
2023-08-07T00:00	25610	25	-49.8	-81.3	84	8
2023-08-07T00:00	25634	25	-49.9	-81.3	83	8
2023-08-07T00:00	25656	25	-49.9	-81.3	81	8
2023-08-07T00:00	25680	25	-50.0	-81.4	79	8
2023-08-07T00:00	25700	25	-50.1	-81.5	78	8
2023-08-07T00:00	25733	24	-50.2		78	9
2023-08-07T00:00	25763	24	-50.2		78	9
2023-08-07T00:00	25791	24	-50.2		80	9
2023-08-07T00:00	25810	24	-50.2		83	9
2023-08-07T00:00	25841	24	-50.2		87	9
2023-08-07T00:00	25866	24	-50.3	-81.6	91	9
2023-08-07T00:00	25898	24	-50.5	-81.8	96	9
2023-08-07T00:00	25921	24	-50.7		100	9
2023-08-07T00:00	25949	24	-50.9	-81.6	104	10
2023-08-07T00:00	25966	24	-51.1	-81.7	107	10
2023-08-07T00:00	25991	23	-51.3	-81.9	108	9
2023-08-07T00:00	26014	23	-51.4	-81.9	108	9
2023-08-07T00:00	26052	23	-51.1	-82.2	105	8
2023-08-07T00:00	26084	23	-50.7		101	7
2023-08-07T00:00	26103	23	-50.4	-82.3	94	6
2023-08-07T00:00	26134	23	-50.1	-82.1	86	6
2023-08-07T00:00	26161	23	-50.1	-82.1	81	6
2023-08-07T00:00	26193	23	-50.1	-82.1	79	6
2023-08-07T00:00	26227	23	-50.0	-82.0	81	6
2023-08-07T00:00	26250	23	-49.5	-81.6	86	7
2023-08-07T00:00	26285	22	-49.4	-81.6	92	7
2023-08-07T00:00	26309	22	-49.6	-81.7	96	8
2023-08-07T00:00	26340	22	-49.7	-81.8	99	8
2023-08-07T00:00	26364	22	-49.8	-81.8	99	8
2023-08-07T00:00	26397	22	-49.8	-81.8	96	8
2023-08-07T00:00	26424	22	-49.5	-81.6	92	9
2023-08-07T00:00	26451	22	-49.3	-81.5	88	9
2023-08-07T00:00	26483	22	-49.1	-81.3	86	9
2023-08-07T00:00	26507	22	-49.2	-81.4	84	10
2023-08-07T00:00	26537	22	-49.3	-81.5	84	10
2023-08-07T00:00	26565	22	-49.4	-81.6	85	11
2023-08-07T00:00	26587	21	-49.4	-81.6	86	12
2023-08-07T00:00	26620	21	-49.4	-81.6	87	12
2023-08-07T00:00	26648	21	-49.4	-81.6	88	13
2023-08-07T00:00	26674	21	-49.4	-81.6	88	13
2023-08-07T00:00	26705	21	-49.2	-81.4	89	14
2023-08-07T00:00	26727	21	-49.1	-81.3	89	14
2023-08-07T00:00	26759	21	-49.0	-81.3	88	14
2023-08-07T00:00	26788	21	-49.0	-81.3	88	14
2023-08-07T00:00	26806	21	-48.9	-81.2	87	13
2023-08-07T00:00	26832	21	-48.9	-81.2	86	13
2023-08-07T00:00	26857	21	-48.9	-81.2	86	13
2023-08-07T00:00	26891	20	-48.9	-81.2	86	13
2023-08-07T00:00	26908	20	-48.9	-81.2	86	12
2023-08-07T00:00	26933	20	-49.0	-81.3	86	12
2023-08-07T00:00	26965	20	-49.0	-81.3	86	12
2023-08-07T00:00	26988	20	-49.0	-81.3	86	12
2023-08-07T00:00	27012	20	-49.1	-81.3	86	12
2023-08-07T00:00	27048	20	-49.2	-81.4	85	12
2023-08-07T00:00	27074	20	-49.1	-81.3	84	12
2023-08-07T00:00	27084	20	-49.2	-81.4	84	12
2023-08-07T00:00	27117	20	-49.3	-81.5	83	12
2023-08-07T00:00	27137	20	-49.3	-81.5	82	12
2023-08-07T00:00	27169	20	-49.3	-81.5	82	11
2023-08-07T00:00	27192	20	-49.2	-81.4	82	11
2023-08-07T00:00	27225	19	-49.2	-81.4	82	11
2023-08-07T00:00	27241	19	-49.3	-81.5	81	11
2023-08-07T00:00	27268	19	-49.2	-81.4	81	11
2023-08-07T00:00	27299	19	-49.2	-81.4	82	11
2023-08-07T00:00	27319	19	-49.1	-81.3	83	11
2023-08-07T00:00	27358	19	-49.0	-81.3	85	12
2023-08-07T00:00	27382	19	-49.1	-81.3	87	12
2023-08-07T00:00	27402	19	-49.1	-81.3	89	12
2023-08-07T00:00	27419	19	-49.2	-81.4	90	13
2023-08-07T00:00	27443	19	-49.3	-81.5	91	12
2023-08-07T00:00	27479	19	-49.2	-81.4	90	12
2023-08-07T00:00	27513	19	-48.9	-81.2	90	12
2023-08-07T00:00	27523	19	-48.6	-81.0	89	11
2023-08-07T00:00	27552	19	-48.6	-81.0	88	11
2023-08-07T00:00	27591	18	-48.7	-81.0	88	10
2023-08-07T00:00	27595	18	-48.8		87	10
2023-08-07T00:00	27633	18	-48.7	-81.0	87	10
2023-08-07T00:00	27660	18	-48.6	-81.0	87	10
2023-08-07T00:00	27685	18	-48.4	-80.8	87	10
2023-08-07T00:00	27702	18	-48.4	-80.8	87	10
2023-08-07T00:00	27748	18	-48.5	-80.9	87	10
2023-08-07T00:00	27762	18	-48.6	-81.0	86	10
2023-08-07T00:00	27792	18	-48.8		86	10
2023-08-07T00:00	27824	18	-48.8		87	11
2023-08-07T00:00	27847	18	-49.0	-81.3	89	11
2023-08-07T00:00	27885	18	-49.0	-81.3	91	11
2023-08-07T00:00	27900	18	-49.0	-81.3	93	11
2023-08-07T00:00	27935	17	-49.0	-81.3	94	11
2023-08-07T00:00	27952	17	-48.9	-81.2	96	11
2023-08-07T00:00	27991	17	-49.0	-81.3	97	11
2023-08-07T00:00	28027	17	-48.8		99	11
2023-08-07T00:00	28041	17	-48.7	-81.0	101	11
2023-08-07T00:00	28064	17	-48.7	-81.0	103	11
2023-08-07T00:00	28088	17	-48.6	-81.6	106	11
2023-08-07T00:00	28131	17	-48.4	-81.4	109	11
2023-08-07T00:00	28147	17	-48.4	-81.4	113	11
2023-08-07T00:00	28178	17	-48.4	-81.4	117	10
2023-08-07T00:00	28214	17	-48.3	-81.4	121	10
2023-08-07T00:00	28229	17	-48.2	-81.3	125	10
2023-08-07T00:00	28270	17	-47.9	-81.1	129	10
2023-08-07T00:00	28286	17	-47.7	-80.9	132	10
2023-08-07T00:00	28323	16	-47.7	-80.9	135	10
2023-08-07T00:00	28343	16	-47.9	-81.1	137	9
2023-08-07T00:00	28371	16	-48.1	-81.2	140	9
2023-08-07T00:00	28414	16	-48.0	-81.2	143	8
2023-08-07T00:00	28421	16	-47.9	-81.1	144	7
2023-08-07T00:00	28457	16	-47.6	-80.9	145	7
2023-08-07T00:00	28492	16	-47.4	-80.7	145	6
2023-08-07T00:00	28500	16	-47.4	-80.7	142	6
2023-08-07T00:00	28528	16	-47.2	-80.6	139	5
2023-08-07T00:00	28557	16	-47.1	-80.5	134	5
2023-08-07T00:00	28593	16	-47.0	-80.4	128	4
2023-08-07T00:00	28605	16	-46.6	-80.9	122	4
2023-08-07T00:00	28629	16	-46.4	-80.7	115	4
2023-08-07T00:00	28655	16	-46.4	-80.7	109	4
2023-08-07T00:00	28693	16	-46.4	-80.7	102	4
2023-08-07T00:00	28712	16	-46.1	-80.5	94	3
2023-08-07T00:00	28738	15	-45.8	-80.3	85	3
2023-08-07T00:00	28768	15	-45.4	-80.0	75	3
2023-08-07T00:00	28784	15	-45.1	-79.8	66	4
2023-08-07T00:00	28809	15	-45.0	-79.7	58	4
2023-08-07T00:00	28840	15	-45.0	-79.7	52	4
2023-08-07T00:00	28871	15	-45.0	-79.7	49	5
2023-08-07T00:00	28901	15	-45.0	-79.7	48	5
2023-08-07T00:00	28916	15	-45.0	-79.7	51	6
2023-08-07T00:00	28950	15	-44.9	-79.6	54	6
2023-08-07T00:00	28961	15	-44.8	-79.6	58	7
2023-08-07T00:00	28995	15	-44.8	-79.6	61	7
2023-08-07T00:00	29025	15	-44.9	-79.6	63	7
2023-08-07T00:00	29058	15	-44.8	-79.6	64	7
2023-08-07T00:00	29077	15	-44.9	-79.6	64	7
2023-08-07T00:00	29113	15	-44.7	-79.5	64	7
2023-08-07T00:00	29134	15	-44.8	-79.6	65	7
2023-08-07T00:00	29150	15	-44.9	-79.6	66	7
2023-08-07T00:00	29190	14	-45.0	-79.7	67	7
2023-08-07T00:00	29217	14	-45.0	-79.7	68	7
2023-08-07T00:00	29244	14	-45.1	-79.8	69	7
2023-08-07T00:00	29266	14	-45.2	-79.8	70	8
2023-08-07T00:00	29302	14	-45.2	-79.8	72	8
2023-08-07T00:00	29331	14	-45.1	-79.8	75	8
2023-08-07T00:00	29361	14	-44.8	-79.6	77	8
2023-08-07T00:00	29384	14	-44.9	-79.6	80	8
2023-08-07T00:00	29419	14	-45.0	-79.7	81	8
2023-08-07T00:00	29447	14	-44.8	-79.6	82	8
2023-08-07T00:00	29464	14	-44.6	-79.4	82	8
2023-08-07T00:00	29499	14	-44.6	-79.4	82	7
2023-08-07T00:00	29528	14	-44.5	-79.3	80	7
2023-08-07T00:00	29563	14	-44.5	-79.3	76	7
2023-08-07T00:00	29593	14	-44.6	-79.4	72	7
2023-08-07T00:00	29608	14	-44.7	-79.5	67	7
2023-08-07T00:00	29649	14	-44.6	-79.4	63	7
2023-08-07T00:00	29663	13	-44.5	-79.3	60	7
2023-08-07T00:00	29703	13	-44.2	-79.1	60	7
2023-08-07T00:00	29733	13	-44.1	-79.0	62	7
2023-08-07T00:00	29743	13	-44.2	-79.1	66	7
2023-08-07T00:00	29787	13	-44.2	-79.1	70	7
2023-08-07T00:00	29802	13	-44.1	-79.9	74	7
2023-08-07T00:00	29823	13	-44.0	-79.8	77	8
2023-08-07T00:00	29844	13	-43.9	-79.7	78	8
2023-08-07T00:00	29886	13	-43.8	-79.6	78	9
2023-08-07T00:00	29893	13	-43.5	-79.4	77	9
2023-08-07T00:00	29924	13	-43.4	-79.4	75	9
2023-08-07T00:00	29969	13	-43.3	-79.3	75	9
2023-08-07T00:00	29974	13	-43.1		74	9
2023-08-07T00:00	30031	13	-43.0	-79.1	75	8
2023-08-07T00:00	30061	13	-43.1		76	8
2023-08-07T00:00	30093	13	-43.0	-79.1	76	7
2023-08-07T00:00	30119	13	-43.0	-79.1	75	7
2023-08-07T00:00	30140	13	-42.9	-79.0	73	7
2023-08-07T00:00	30158	13	-42.7	-78.9	71	7
2023-08-07T00:00	30191	12	-42.6	-78.8	71	7
2023-08-07T00:00	30209	12	-42.6	-78.8	71	7
2023-08-07T00:00	30242	12	-42.2	-78.5	73	8
2023-08-07T00:00	30259	12	-41.9	-78.3	75	8
2023-08-07T00:00	30284	12	-41.7	-78.2	77	9
2023-08-07T00:00	30299	12	-41.6	-78.1	78	9
2023-08-07T00:00	30341	12	-41.5	-78.0	78	9
2023-08-07T00:00	30378	12	-41.4	-77.9	77	9
2023-08-07T00:00	30406	12	-41.4	-77.9	75	9
2023-08-07T00:00	30426	12	-41.2	-77.8	72	8
2023-08-07T00:00	30440	12	-41.2	-77.8	69	8
2023-08-07T00:00	30476	12	-41.3	-77.9	67	8
2023-08-07T00:00	30516	12	-41.1	-77.7	65	9
2023-08-07T00:00	30536	12	-40.9	-77.6	65	9
2023-08-07T00:00	30581	12	-40.8	-78.5	67	10
2023-08-07T00:00	30583	12	-40.6	-78.3	69	11
2023-08-07T00:00	30638	12	-40.6	-78.3	70	11
2023-08-07T00:00	30669	12	-40.4	-78.2	71	11
2023-08-07T00:00	30684	12	-40.3	-78.1	72	11
2023-08-07T00:00	30693	12	-40.3	-78.1	73	11
2023-08-07T00:00	30749	12	-40.3	-78.1	74	11
2023-08-07T00:00	30773	11	-40.2	-78.0	75	11
2023-08-07T00:00	30806	11	-40.3	-78.1	77	10
2023-08-07T00:00	30825	11	-40.1	-78.0	79	10
2023-08-07T00:00	30846	11	-40.1	-78.0	81	10
2023-08-07T00:00	30907	11	-40.0	-77.9	83	10
2023-08-07T00:00	30940	11	-40.0	-77.9	84	10
2023-08-07T00:00	30969	11	-40.1	-78.0	85	10
2023-08-07T00:00	30977	11	-40.3	-78.1	85	10
2023-08-07T00:00	31019	11	-40.3	-78.1	84	10
2023-08-07T00:00	31044	11	-40.5		84	11
2023-08-07T00:00	31089	11	-40.5		84	11
2023-08-07T00:00	31116	11	-40.5		84	11
2023-08-07T00:00	31130	11	-40.4	-77.2	85	11
2023-08-07T00:00	31154	11	-40.5	-78.3	85	11
2023-08-07T00:00	31187	11	-40.4	-78.2	85	12
2023-08-07T00:00	31223	11	-40.0	-77.9	85	12
2023-08-07T00:00	31262	11	-40.1	-78.0	84	12
2023-08-07T00:00	31282	11	-40.0	-77.9	84	12
2023-08-07T00:00	31312	11	-40.0	-77.9	84	13
2023-08-07T00:00	31356	11	-39.9	-77.8	86	13
2023-08-07T00:00	31374	10	-39.8	-77.8	88	13
2023-08-07T00:00	31416	10	-39.8	-77.8	91	13
2023-08-07T00:00	31430	10	-39.9	-77.8	95	13
2023-08-07T00:00	31481	10	-39.9	-77.8	97	13
2023-08-07T00:00	31499	10	-39.9	-77.8	98	13
2023-08-07T00:00	31532	10	-39.8	-77.8	99	13
2023-08-07T00:00	31561	10	-39.6	-77.6	99	12
2023-08-07T00:00	31583	10	-39.3	-77.4	99	12
2023-08-07T00:00	31608	10	-39.2	-77.3	99	11
2023-08-07T00:00	31636	10	-39.1	-77.3	99	11
2023-08-07T00:00	31661	10	-39.1	-77.3	99	10
2023-08-07T00:00	31684	10	-39.1	-77.3	100	9
2023-08-07T00:00	31716	10	-39.0	-77.2	101	9
2023-08-07T00:00	31743	10	-38.7	-77.0	103	8
2023-08-07T00:00	31757	10	-38.7	-77.0	105	8
2023-08-07T00:00	31779	10	-38.7	-77.0	106	8
2023-08-07T00:00	31828	10	-38.6	-76.9	105	8
2023-08-07T00:00	31848	10	-38.5	-76.9	102	8
2023-08-07T00:00	31870	10	-38.5	-76.9	99	9
2023-08-07T00:00	31917	10	-38.4	-76.8	93	10
2023-08-07T00:00	31934	10	-38.4	-76.8	92	11
2023-08-07T00:00	31971	10	-38.4	-76.8	92	12
2023-08-07T00:00	31991	10	-38.1	-76.6	92	13
2023-08-07T00:00	32023	10	-38.0	-76.5	91	13
2023-08-07T00:00	32054	10	-37.7	-76.3	91	13
2023-08-07T00:00	32068	9	-37.5	-77.3	90	13
2023-08-07T00:00	32117	9	-37.2	-77.1	90	13
2023-08-07T00:00	32139	9	-37.1	-77.0	89	13
2023-08-07T00:00	32189	9	-37.4	-76.1	89	12
2023-08-07T00:00	32194	9	-37.5	-76.2	89	12
2023-08-07T00:00	32245	9	-37.5	-76.2	89	11
2023-08-07T00:00	32248	9	-37.6	-76.2	89	11
2023-08-07T00:00	32293	9	-37.7	-76.3	89	11
2023-08-07T00:00	32304	9	-37.8	-76.4	90	11
2023-08-07T00:00	32322	9	-37.9	-76.4	90	11
2023-08-07T00:00	32368	9	-38.0	-76.5	91	10
2023-08-07T00:00	32398	9	-38.1	-76.6	90	11
2023-08-07T00:00	32428	9	-38.1	-76.6	90	11
2023-08-07T00:00	32445	9	-38.1	-76.6	88	11
2023-08-07T00:00	32458	9	-38.2	-76.6	88	11
2023-08-07T00:00	32503	9	-37.7	-76.3	88	11
2023-08-07T00:00	32547	9	-37.6	-76.2	88	12
2023-08-07T00:00	32562	9	-37.5	-76.2	90	11
2023-08-07T00:00	32600	9	-37.5	-76.2	93	11
2023-08-07T00:00	32612	9	-37.7	-76.3	96	11
2023-08-07T00:00	32646	9	-37.8	-76.4	98	10
2023-08-07T00:00	32674	9	-37.9	-76.4	101	10
2023-08-07T00:00	32724	9	-37.9	-76.4	103	9
2023-08-07T00:00	32740	9	-37.9	-76.4	106	9
2023-08-07T00:00	32754	9	-37.7	-76.3	107	8
2023-08-07T00:00	32808	9	-37.3	-77.2	108	8
2023-08-07T00:00	32818	9	-37.1	-77.0	106	8
2023-08-07T00:00	32842	8	-37.1	-77.0	103	8
2023-08-07T00:00	32889	8	-37.1	-77.0	99	8
2023-08-07T00:00	32933	8	-37.2	-77.1	90	9
2023-08-07T00:00	32952	8	-37.1	-77.0	86	9
2023-08-07T00:00	32978	8	-36.9	-76.9	83	10
2023-08-07T00:00	33011	8	-36.9	-76.9	81	10
2023-08-07T00:00	33067	8	-36.8	-76.8	80	11
2023-08-07T00:00	33078	8	-36.7	-76.7	80	11
2023-08-07T00:00	33095	8	-36.7	-76.7	81	11
2023-08-07T00:00	33126	8	-36.6	-76.7	85	12
2023-08-07T00:00	33161	8	-36.6	-76.7	89	12
2023-08-07T00:00	33189	8	-36.7	-76.7	92	12
2023-08-07T00:00	33208	8	-36.7	-76.7	96	12
2023-08-07T00:00	33237	8	-36.7	-76.7	98	12
2023-08-07T00:00	33240	8	-36.6	-76.7	99	12
2023-08-07T00:00	33270	8	-36.4	-76.5	99	12
2023-08-07T00:00	33283	8	-36.4	-76.5	98	12
2023-08-07T00:00	33341	8	-36.3	-76.5	96	12
2023-08-07T00:00	33354	8	-36.2	-76.4	94	11
2023-08-07T00:00	33378	8	-36.0	-76.3	93	11
2023-08-07T00:00	33386	8	-35.8	-76.1	92	11
2023-08-07T00:00	33428	8	-35.7	-76.1	92	11
2023-08-07T00:00	33451	8	-35.7	-76.1	93	10
2023-08-07T00:00	33481	8	-35.7	-76.1	92	10
2023-08-07T00:00	33492	8	-35.6	-76.0	91	10
2023-08-07T00:00	33501	8	-35.6	-76.0	89	10
2023-08-07T00:00	33542	8	-35.5	-75.9	87	11
2023-08-07T00:00	33595	8	-35.4	-75.8	84	10
2023-08-07T00:00	33604	8	-35.1	-75.6	82	10
2023-08-07T00:00	33605	8	-35.0	-75.6	81	10
2023-08-07T00:00	33639	8	-34.9	-75.5	80	10
2023-08-07T00:00	33701	8	-34.8	-75.4	78	11
2023-08-07T00:00	33719	7	-34.6	-75.3	77	11
2023-08-07T00:00	33753	7	-34.5	-75.2	76	11
2023-08-07T00:00	33780	7	-34.2	-75.0	75	11
2023-08-07T00:00	33781	7	-34.1	-75.0	74	12
2023-08-07T00:00	33813	7	-33.8	-74.7	74	12
2023-08-07T00:00	33846	7	-33.4	-74.5	75	13
2023-08-07T00:00	33852	7	-33.5	-74.5	76	13
2023-08-07T00:00	33865	7	-33.6	-74.6	77	14
2023-08-07T00:00	33890	7	-33.8	-74.7	79	14
2023-08-07T00:00	33921	7	-34.0	-74.9	80	15
2023-08-07T00:00	33961	7	-34.2	-75.0	82	15
2023-08-07T00:00	33980	7	-34.3	-75.1	83	16
2023-08-07T00:00	33997	7	-34.5	-75.2	84	16
2023-08-07T00:00	34016	7	-34.6	-75.3	85	17
2023-08-07T00:00	34056	7	-34.6	-75.3	85	17
2023-08-07T00:00	34106	7	-34.5	-75.2	85	17
2023-08-07T00:00	34128	7	-34.7	-75.4	86	17
2023-08-07T00:00	34179	7	-34.7	-75.4	86	16
2023-08-07T00:00	34189	7	-34.7	-75.4	86	15
2023-08-07T00:00	34217	7	-34.8	-75.4	86	14
2023-08-07T00:00	34233	7	-34.7	-75.4	86	13
2023-08-07T00:00	34264	7	-34.6	-75.3	87	12
2023-08-07T00:00	34295	7	-34.3	-75.1	87	11
2023-08-07T00:00	34325	7	-33.9	-74.8	88	10
2023-08-07T00:00	34360	7	-33.8	-74.7	88	10
2023-08-07T00:00	34385	7	-33.8	-74.7	87	9
2023-08-07T00:00	34438	7	-33.8	-74.7	84	8
2023-08-07T00:00	34468	7	-33.6	-74.6	77	8
2023-08-07T00:00	34471	7	-33.6	-74.6	73	7
2023-08-07T06:00	112	990	13.8	13.2	270	6
2023-08-07T06:00	140	987	13.7	13.3	277	4
2023-08-07T06:00	169	983	13.4	13.0	275	6
2023-08-07T06:00	199	980	13.2	12.9	274	7
2023-08-07T06:00	221	977	13.0	12.7	273	8
2023-08-07T06:00	249	974	12.8	12.7	273	10
2023-08-07T06:00	276	971	12.5	12.5	272	10
2023-08-07T06:00	308	967	12.3	12.3	272	11
2023-08-07T06:00	334	964	12.1	12.1	273	11
2023-08-07T06:00	361	961	12.0	12.0	274	11
2023-08-07T06:00	386	958	11.8	11.8	277	12
2023-08-07T06:00	412	955	11.7	11.7	279	12
2023-08-07T06:00	436	953	11.5	11.5	281	12
2023-08-07T06:00	451	951	11.4	11.4	282	13
2023-08-07T06:00	471	948	11.4	11.4	283	14
2023-08-07T06:00	497	945	11.2	11.2	285	14
2023-08-07T06:00	519	943	11.1	11.1	287	15
2023-08-07T06:00	542	940	10.8	10.8	289	15
2023-08-07T06:00	564	938	10.6	10.6	292	15
2023-08-07T06:00	585	935	10.4	10.4	293	15
2023-08-07T06:00	611	933	10.2	9.4	294	15
2023-08-07T06:00	635	930	9.9	8.6	295	15
2023-08-07T06:00	661	927	9.9	8.3	295	15
2023-08-07T06:00	686	924	9.9	8.3	295	15
2023-08-07T06:00	716	921	9.9	8.0	296	16
2023-08-07T06:00	745	918	9.9	7.7	296	16
2023-08-07T06:00	771	915	9.9	7.7	296	16
2023-08-07T06:00	800	912	9.8	7.6	296	16
2023-08-07T06:00	830	909	9.6	7.5	297	16
2023-08-07T06:00	858	905	9.4	7.3	297	16
2023-08-07T06:00	889	902	9.2	7.2	298	15
2023-08-07T06:00	917	899	9.0	6.8	298	15
2023-08-07T06:00	947	896	8.8	6.5	298	15
2023-08-07T06:00	977	892	8.7	5.6	299	15
2023-08-07T06:00	1007	889	8.6	4.5	299	15
2023-08-07T06:00	1037	886	8.3	5.0	299	15
2023-08-07T06:00	1069	883	8.0	4.9	299	15
2023-08-07T06:00	1097	879	7.8	4.9	298	15
2023-08-07T06:00	1130	876	7.5	4.9	298	15
2023-08-07T06:00	1161	873	7.2	5.0	298	15
2023-08-07T06:00	1191	870	7.0	4.5	297	15
2023-08-07T06:00	1219	867	6.8	4.3	297	15
2023-08-07T06:00	1249	864	6.5	4.0	296	15
2023-08-07T06:00	1280	860	6.3	3.4	296	15
2023-08-07T06:00	1310	857	6.1	2.8	295	15
2023-08-07T06:00	1342	854	6.0	2.4	295	16
2023-08-07T06:00	1372	851	5.8	1.6	294	16
2023-08-07T06:00	1402	848	5.6	2.9	294	16
2023-08-07T06:00	1432	844	5.4	1.9	293	16
2023-08-07T06:00	1463	841	5.1	3.4	293	16
2023-08-07T06:00	1494	838	4.9	2.4	292	16
2023-08-07T06:00	1526	835	5.0	1.2	291	16
2023-08-07T06:00	1558	832	5.0	-1.3	289	16
2023-08-07T06:00	1588	829	5.0	-3.0	289	16
2023-08-07T06:00	1618	825	4.8	-1.7	288	16
2023-08-07T06:00	1649	822	4.6	-0.5	288	16
2023-08-07T06:00	1679	819	4.5	-2.1	288	16
2023-08-07T06:00	1709	816	4.4	-3.3	289	16
2023-08-07T06:00	1741	813	4.2	-2.3	290	16
2023-08-07T06:00	1770	810	4.0	-3.1	291	16
2023-08-07T06:00	1800	807	3.8	-3.2	291	16
2023-08-07T06:00	1832	804	3.6	-2.4	292	16
2023-08-07T06:00	1862	801	3.4	-2.9	293	16
2023-08-07T06:00	1892	798	3.3	-3.7	293	16
2023-08-07T06:00	1923	795	3.2	-4.2	294	16
2023-08-07T06:00	1948	793	3.1	-4.9	294	16
2023-08-07T06:00	1977	790	2.9	-5.1	293	16
2023-08-07T06:00	2007	787	2.7	-6.1	293	16
2023-08-07T06:00	2035	784	2.6	-7.8	293	16
2023-08-07T06:00	2063	781	2.4	-8.4	292	16
2023-08-07T06:00	2094	778	2.3	-8.1	292	16
2023-08-07T06:00	2123	776	2.2	-6.4	293	16
2023-08-07T06:00	2153	773	2.0	-6.6	293	16
2023-08-07T06:00	2182	770	1.8	-6.5	294	16
2023-08-07T06:00	2211	767	1.6	-6.7	294	16
2023-08-07T06:00	2240	765	1.4	-6.9	294	16
2023-08-07T06:00	2269	762	1.2	-6.8	294	15
2023-08-07T06:00	2298	759	0.9	-6.9	293	15
2023-08-07T06:00	2327	756	0.6	-6.9	293	15
2023-08-07T06:00	2357	753	0.6	-8.0	292	15
2023-08-07T06:00	2388	751	0.5	-9.7	291	15
2023-08-07T06:00	2416	748	0.4	-10.6	291	15
2023-08-07T06:00	2445	745	0.2	-11.3	291	15
2023-08-07T06:00	2475	742	0.0	-12.2	291	15
2023-08-07T06:00	2504	740	-0.2	-12.7	292	15
2023-08-07T06:00	2536	737	-0.4	-13.2	292	15
2023-08-07T06:00	2564	734	-0.5	-14.7	293	14
2023-08-07T06:00	2596	731	-0.6	-15.8	294	14
2023-08-07T06:00	2628	728	-0.6	-15.8	294	14
2023-08-07T06:00	2659	726	-0.8	-15.0	294	14
2023-08-07T06:00	2688	723	-1.0	-13.4	294	15
2023-08-07T06:00	2721	720	-1.2	-11.0	293	15
2023-08-07T06:00	2751	717	-1.3	-9.5	293	15
2023-08-07T06:00	2783	714	-1.4	-9.1	293	15
2023-08-07T06:00	2814	712	-1.6	-9.0	293	15
2023-08-07T06:00	2845	709	-1.8	-9.1	294	15
2023-08-07T06:00	2876	706	-2.0	-9.1	294	15
2023-08-07T06:00	2907	703	-2.2	-9.7	294	15
2023-08-07T06:00	2938	701	-2.3	-9.6	293	15
2023-08-07T06:00	2968	698	-2.5	-9.9	293	15
2023-08-07T06:00	2999	695	-2.6	-10.4	292	16
2023-08-07T06:00	3030	692	-2.8	-13.0	291	16
2023-08-07T06:00	3063	690	-2.9	-14.0	290	16
2023-08-07T06:00	3093	687	-3.2	-14.2	290	16
2023-08-07T06:00	3122	684	-3.4	-14.4	289	16
2023-08-07T06:00	3153	682	-3.5	-15.3	289	16
2023-08-07T06:00	3183	679	-3.6	-15.6	289	16
2023-08-07T06:00	3211	677	-3.7	-17.3	289	16
2023-08-07T06:00	3240	674	-3.9	-16.3	289	16
2023-08-07T06:00	3270	672	-4.1	-13.4	290	16
2023-08-07T06:00	3300	669	-4.4	-10.8	290	16
2023-08-07T06:00	3331	667	-4.6	-10.6	290	16
2023-08-07T06:00	3359	664	-4.6	-6.3	290	16
2023-08-07T06:00	3389	662	-4.5	-6.5	290	16
2023-08-07T06:00	3418	659	-4.6	-6.4	289	16
2023-08-07T06:00	3448	657	-4.8	-6.3	288	16
2023-08-07T06:00	3478	654	-5.1	-6.2	287	16
2023-08-07T06:00	3508	652	-5.4	-6.3	287	16
2023-08-07T06:00	3538	649	-5.5	-6.6	286	16
2023-08-07T06:00	3566	647	-5.7	-6.5	286	15
2023-08-07T06:00	3596	645	-5.9	-6.7	286	15
2023-08-07T06:00	3624	642	-6.2	-6.8	286	15
2023-08-07T06:00	3652	640	-6.4	-6.9	286	15
2023-08-07T06:00	3680	638	-6.6	-7.0	286	15
2023-08-07T06:00	3711	635	-6.8	-7.6	285	15
2023-08-07T06:00	3738	633	-7.0	-7.7	286	15
2023-08-07T06:00	3768	631	-7.2	-8.1	286	15
2023-08-07T06:00	3796	628	-7.4	-8.6	286	15
2023-08-07T06:00	3826	626	-7.7	-8.6	286	15
2023-08-07T06:00	3853	624	-7.9	-8.9	286	15
2023-08-07T06:00	3882	621	-8.1	-9.1	285	15
2023-08-07T06:00	3912	619	-8.4	-9.2	285	15
2023-08-07T06:00	3942	617	-8.6	-9.7	284	15
2023-08-07T06:00	3972	614	-8.9	-9.8	283	15
2023-08-07T06:00	4000	612	-9.1	-9.9	282	14
2023-08-07T06:00	4031	610	-9.4	-10.2	281	14
2023-08-07T06:00	4059	607	-9.6	-10.3	281	15
2023-08-07T06:00	4089	605	-9.7	-11.3	280	15
2023-08-07T06:00	4118	603	-9.9	-11.5	280	15
2023-08-07T06:00	4147	600	-10.2	-11.8	280	15
2023-08-07T06:00	4180	598	-10.5	-11.9	280	15
2023-08-07T06:00	4209	596	-10.8	-12.0	281	15
2023-08-07T06:00	4240	593	-11.1	-12.2	282	15
2023-08-07T06:00	4268	591	-11.3	-12.7	283	15
2023-08-07T06:00	4297	589	-11.5	-13.1	285	15
2023-08-07T06:00	4326	587	-11.4	-14.4	286	15
2023-08-07T06:00	4356	584	-11.6	-14.7	287	15
2023-08-07T06:00	4386	582	-11.7	-18.2	288	15
2023-08-07T06:00	4414	580	-11.7	-21.5	287	15
2023-08-07T06:00	4445	578	-11.8	-21.9	286	15
2023-08-07T06:00	4475	575	-12.1	-21.9	285	15
2023-08-07T06:00	4504	573	-12.3	-21.5	284	15
2023-08-07T06:00	4536	571	-12.3	-23.5	285	15
2023-08-07T06:00	4566	569	-12.3	-27.5	285	15
2023-08-07T06:00	4597	566	-12.2	-30.0	285	15
2023-08-07T06:00	4627	564	-12.1	-30.6	285	15
2023-08-07T06:00	4656	562	-12.2	-31.0	285	15
2023-08-07T06:00	4687	560	-12.4	-32.3	284	14
2023-08-07T06:00	4715	557	-12.7	-32.3	284	14
2023-08-07T06:00	4745	555	-12.9	-32.0	284	14
2023-08-07T06:00	4774	553	-13.0	-32.6	284	14
2023-08-07T06:00	4802	551	-13.1	-33.7	285	14
2023-08-07T06:00	4831	549	-13.2	-34.5	285	14
2023-08-07T06:00	4860	547	-13.3	-34.1	286	14
2023-08-07T06:00	4889	545	-13.4	-35.1	286	14
2023-08-07T06:00	4917	543	-13.5	-41.8	286	14
2023-08-07T06:00	4946	541	-13.7	-42.0	286	14
2023-08-07T06:00	4972	539	-13.8	-39.2	286	13
2023-08-07T06:00	5002	537	-14.0	-39.2	286	13
2023-08-07T06:00	5032	535	-14.2	-37.6	286	13
2023-08-07T06:00	5061	533	-14.5	-37.2	287	12
2023-08-07T06:00	5093	530	-14.7	-31.4	286	12
2023-08-07T06:00	5123	528	-14.7	-22.7	286	12
2023-08-07T06:00	5154	526	-14.8	-21.7	286	12
2023-08-07T06:00	5184	524	-14.9	-20.3	285	12
2023-08-07T06:00	5215	522	-14.9	-20.1	284	12
2023-08-07T06:00	5245	520	-15.0	-20.7	283	12
2023-08-07T06:00	5277	518	-15.2	-21.0	282	12
2023-08-07T06:00	5306	516	-15.4	-21.4	281	12
2023-08-07T06:00	5336	514	-15.5	-22.7	280	12
2023-08-07T06:00	5364	512	-15.6	-23.9	280	12
2023-08-07T06:00	5395	510	-15.8	-24.6	279	13
2023-08-07T06:00	5425	508	-16.0	-24.2	279	13
2023-08-07T06:00	5456	506	-16.2	-24.1	278	13
2023-08-07T06:00	5484	504	-16.4	-24.3	278	14
2023-08-07T06:00	5517	501	-16.6	-23.7	277	14
2023-08-07T06:00	5548	499	-16.9	-23.8	278	14
2023-08-07T06:00	5580	497	-17.1	-24.3	278	14
2023-08-07T06:00	5613	495	-17.3	-25.2	278	15
2023-08-07T06:00	5646	493	-17.5	-25.5	279	15
2023-08-07T06:00	5678	491	-17.7	-25.8	280	15
2023-08-07T06:00	5713	489	-17.9	-25.6	282	14
2023-08-07T06:00	5744	486	-17.6	-23.7	284	14
2023-08-07T06:00	5778	484	-17.9	-24.0	287	14
2023-08-07T06:00	5810	482	-18.0	-23.5	288	13
2023-08-07T06:00	5840	480	-18.2	-23.2	290	13
2023-08-07T06:00	5875	478	-18.4	-23.1	290	12
2023-08-07T06:00	5906	476	-18.6	-22.7	291	12
2023-08-07T06:00	5937	474	-19.0	-22.9	291	12
2023-08-07T06:00	5968	472	-19.2	-22.5	291	11
2023-08-07T06:00	5998	470	-19.5	-22.5	292	11
2023-08-07T06:00	6028	468	-19.8	-22.4	292	10
2023-08-07T06:00	6059	466	-19.9	-22.4	292	9
2023-08-07T06:00	6091	464	-20.1	-22.5	292	8
2023-08-07T06:00	6121	463	-20.3	-22.9	292	8
2023-08-07T06:00	6145	461	-20.5	-22.9	291	7
2023-08-07T06:00	6179	459	-20.6	-23.1	290	7
2023-08-07T06:00	6209	457	-20.8	-23.3	289	7
2023-08-07T06:00	6242	455	-21.1	-23.5	288	7
2023-08-07T06:00	6274	453	-21.4	-23.6	288	6
2023-08-07T06:00	6305	451	-21.6	-23.5	288	6
2023-08-07T06:00	6336	449	-21.9	-23.6	288	6
2023-08-07T06:00	6367	447	-22.1	-23.5	288	6
2023-08-07T06:00	6396	446	-22.4	-23.6	287	6
2023-08-07T06:00	6430	443	-22.6	-24.6	286	6
2023-08-07T06:00	6463	442	-22.9	-24.7	285	6
2023-08-07T06:00	6494	440	-23.1	-24.8	284	6
2023-08-07T06:00	6522	438	-23.2	-25.3	282	6
2023-08-07T06:00	6556	436	-23.4	-25.6	280	6
2023-08-07T06:00	6583	434	-23.7	-25.6	277	5
2023-08-07T06:00	6614	433	-23.9	-25.2	275	5
2023-08-07T06:00	6645	431	-24.2	-25.3	272	5
2023-08-07T06:00	6675	429	-24.5	-25.7	270	5
2023-08-07T06:00	6710	427	-24.6	-26.2	268	5
2023-08-07T06:00	6742	425	-24.9	-26.3	265	5
2023-08-07T06:00	6773	423	-25.1	-27.1	261	5
2023-08-07T06:00	6805	421	-25.3	-27.6	257	6
2023-08-07T06:00	6837	420	-25.5	-27.6	255	6
2023-08-07T06:00	6868	418	-25.8	-27.6	253	6
2023-08-07T06:00	6895	416	-25.9	-27.6	254	7
2023-08-07T06:00	6921	415	-26.1	-27.7	255	7
2023-08-07T06:00	6941	413	-26.0	-28.7	256	7
2023-08-07T06:00	6973	412	-26.2	-29.3	257	7
2023-08-07T06:00	7001	410	-26.4	-29.7	258	6
2023-08-07T06:00	7031	408	-26.7	-29.8	259	6
2023-08-07T06:00	7063	406	-27.0	-29.9	260	6
2023-08-07T06:00	7095	405	-27.3	-30.2	260	6
2023-08-07T06:00	7121	403	-27.5	-30.2	260	6
2023-08-07T06:00	7152	402	-27.7	-30.5	260	6
2023-08-07T06:00	7177	400	-27.9	-30.9	260	6
2023-08-07T06:00	7203	399	-28.2	-30.9	261	6
2023-08-07T06:00	7230	397	-28.4	-31.2	263	5
2023-08-07T06:00	7261	396	-28.6	-31.0	264	5
2023-08-07T06:00	7282	394	-28.8	-31.5	265	4
2023-08-07T06:00	7310	393	-29.0	-31.4	265	4
2023-08-07T06:00	7335	391	-29.2	-31.4	264	4
2023-08-07T06:00	7367	390	-29.4	-31.6	262	4
2023-08-07T06:00	7399	388	-29.6	-32.6	261	4
2023-08-07T06:00	7436	386	-29.9	-32.3	261	4
2023-08-07T06:00	7471	384	-30.2	-32.2	262	4
2023-08-07T06:00	7497	383	-30.5	-32.2	265	4
2023-08-07T06:00	7529	381	-30.7	-32.6	269	5
2023-08-07T06:00	7558	379	-30.9	-33.4	272	5
2023-08-07T06:00	7588	378	-31.2	-33.6	274	5
2023-08-07T06:00	7614	376	-31.3	-34.1	274	5
2023-08-07T06:00	7637	375	-31.5	-34.5	273	6
2023-08-07T06:00	7671	373	-31.8	-33.8	271	6
2023-08-07T06:00	7705	372	-32.2	-33.6	269	6
2023-08-07T06:00	7732	370	-32.4	-33.8	267	6
2023-08-07T06:00	7756	369	-32.6	-33.8	264	6
2023-08-07T06:00	7780	368	-32.9	-34.0	263	5
2023-08-07T06:00	7809	366	-33.1	-34.2	262	5
2023-08-07T06:00	7835	365	-33.3	-34.4	262	5
2023-08-07T06:00	7863	363	-33.5	-34.5	263	4
2023-08-07T06:00	7892	362	-33.7	-35.9	265	4
2023-08-07T06:00	7923	360	-33.9	-35.1	266	4
2023-08-07T06:00	7950	359	-34.1	-36.0	265	4
2023-08-07T06:00	7976	358	-34.2		263	4
2023-08-07T06:00	8004	356	-34.4	-35.5	262	4
2023-08-07T06:00	8034	355	-34.6	-36.3	260	4
2023-08-07T06:00	8064	353	-34.8	-36.8	259	4
2023-08-07T06:00	8090	352	-34.9	-37.3	257	5
2023-08-07T06:00	8120	350	-35.2	-37.0	254	5
2023-08-07T06:00	8154	348	-35.4	-37.3	251	5
2023-08-07T06:00	8189	347	-35.6	-38.1	247	4
2023-08-07T06:00	8214	345	-35.7	-38.9	244	4
2023-08-07T06:00	8239	344	-35.9	-38.8	241	4
2023-08-07T06:00	8265	343	-36.1	-39.2	242	4
2023-08-07T06:00	8297	341	-36.4	-39.5	244	3
2023-08-07T06:00	8323	340	-36.6	-39.1	249	3
2023-08-07T06:00	8353	339	-36.9	-39.0	256	3
2023-08-07T06:00	8377	337	-37.1	-39.6	262	2
2023-08-07T06:00	8408	336	-37.3	-39.5	266	2
2023-08-07T06:00	8435	335	-37.5	-39.7	269	2
2023-08-07T06:00	8459	333	-37.7	-40.1	271	1
2023-08-07T06:00	8493	332	-37.9	-40.8	274	1
2023-08-07T06:00	8518	331	-38.0	-40.3	274	1
2023-08-07T06:00	8550	329	-38.2	-39.8	268	1
2023-08-07T06:00	8581	328	-38.4	-40.7	255	1
2023-08-07T06:00	8611	326	-38.6	-40.9	233	1
2023-08-07T06:00	8642	325	-38.9	-40.7	196	1
2023-08-07T06:00	8675	323	-39.2	-40.9	157	1
2023-08-07T06:00	8706	322	-39.5	-41.1	140	1
2023-08-07T06:00	8739	320	-39.8	-41.3	135	2
2023-08-07T06:00	8773	319	-40.1	-41.2	136	2
2023-08-07T06:00	8809	317	-40.5	-41.4	140	2
2023-08-07T06:00	8834	316	-40.7	-41.5	144	3
2023-08-07T06:00	8867	314	-41.0	-42.1	147	3
2023-08-07T06:00	8897	313	-41.2	-42.7	151	3
2023-08-07T06:00	8923	312	-41.5	-42.8	157	3
2023-08-07T06:00	8950	310	-41.7	-42.9	165	3
2023-08-07T06:00	8977	309	-42.0	-43.2	176	2
2023-08-07T06:00	9004	308	-42.2	-43.7	189	2
2023-08-07T06:00	9035	307	-42.5	-44.2	198	2
2023-08-07T06:00	9060	305	-42.7	-44.6	200	2
2023-08-07T06:00	9087	304	-42.9	-44.5	199	2
2023-08-07T06:00	9116	303	-43.2	-44.6	198	2
2023-08-07T06:00	9147	302	-43.4	-45.0	200	2
2023-08-07T06:00	9175	300	-43.7	-45.8	206	2
2023-08-07T06:00	9207	299	-43.9	-46.0	213	2
2023-08-07T06:00	9248	297	-44.3	-47.1	219	2
2023-08-07T06:00	9272	296	-44.4	-47.5	223	2
2023-08-07T06:00	9300	295	-44.7	-46.9	225	2
2023-08-07T06:00	9325	294	-44.9	-46.5	229	2
2023-08-07T06:00	9349	293	-45.1	-46.7	236	2
2023-08-07T06:00	9374	291	-45.3	-47.1	244	2
2023-08-07T06:00	9398	290	-45.5	-47.4	248	2
2023-08-07T06:00	9428	289	-45.8	-47.1	249	2
2023-08-07T06:00	9452	288	-45.9	-48.1	248	2
2023-08-07T06:00	9477	287	-46.0	-47.5	246	2
2023-08-07T06:00	9501	286	-46.2	-47.3	244	2
2023-08-07T06:00	9523	285	-46.4	-47.9	242	2
2023-08-07T06:00	9545	284	-46.5	-49.2	241	3
2023-08-07T06:00	9572	283	-46.5		240	3
2023-08-07T06:00	9603	282	-46.8	-49.7	238	3
2023-08-07T06:00	9629	280	-47.0	-48.2	236	3
2023-08-07T06:00	9656	279	-47.1	-48.6	232	3
2023-08-07T06:00	9687	278	-47.3	-49.3	227	4
2023-08-07T06:00	9717	277	-47.4	-50.1	221	4
2023-08-07T06:00	9743	276	-47.6	-50.6	216	5
2023-08-07T06:00	9778	274	-47.8	-51.7	213	5
2023-08-07T06:00	9802	273	-47.9	-53.5	210	6
2023-08-07T06:00	9823	272	-47.9	-55.6	207	6
2023-08-07T06:00	9847	271	-47.8	-58.9	203	6
2023-08-07T06:00	9871	270	-47.8	-62.8	198	6
2023-08-07T06:00	9901	269	-47.5	-65.5	191	6
2023-08-07T06:00	9924	268	-47.2	-65.1	183	6
2023-08-07T06:00	9946	267	-46.7	-63.5	176	6
2023-08-07T06:00	9970	266	-46.8	-63.0	171	7
2023-08-07T06:00	9992	265	-46.9	-62.7	167	8
2023-08-07T06:00	10015	265	-47.0	-63.1	166	9
2023-08-07T06:00	10040	264	-46.4	-64.2	165	9
2023-08-07T06:00	10062	263	-45.9	-65.6	164	10
2023-08-07T06:00	10090	262	-45.3	-66.7	162	10
2023-08-07T06:00	10117	260	-45.0	-67.8	160	11
2023-08-07T06:00	10148	259	-45.0	-68.4	158	12
2023-08-07T06:00	10181	258	-44.8	-69.4	157	12
2023-08-07T06:00	10210	257	-44.3	-69.7	157	13
2023-08-07T06:00	10238	256	-43.9	-70.4	157	13
2023-08-07T06:00	10262	255	-43.0	-71.2	158	13
2023-08-07T06:00	10291	254	-42.8	-71.1	158	13
2023-08-07T06:00	10317	253	-43.0	-70.9	158	13
2023-08-07T06:00	10342	252	-43.1	-70.8	158	13
2023-08-07T06:00	10366	251	-42.8	-70.8	157	13
2023-08-07T06:00	10391	250	-42.2	-70.6	156	13
2023-08-07T06:00	10416	249	-42.2	-70.9	156	12
2023-08-07T06:00	10446	248	-42.4	-71.3	156	12
2023-08-07T06:00	10471	247	-42.6	-71.5	156	12
2023-08-07T06:00	10501	246	-42.5	-71.7	155	12
2023-08-07T06:00	10532	245	-42.2	-71.8	155	12
2023-08-07T06:00	10558	244	-42.1	-72.1	154	11
2023-08-07T06:00	10581	243	-41.8	-71.8	152	11
2023-08-07T06:00	10604	242	-41.9	-72.3	149	11
2023-08-07T06:00	10628	241	-41.9	-72.3	146	11
2023-08-07T06:00	10651	241	-41.9	-71.9	144	11
2023-08-07T06:00	10677	240	-42.0	-72.0	144	11
2023-08-07T06:00	10701	239	-41.7	-72.5	145	12
2023-08-07T06:00	10733	238	-41.0	-72.4	148	13
2023-08-07T06:00	10760	237	-40.6	-72.5	150	13
2023-08-07T06:00	10789	236	-40.6	-72.5	152	14
2023-08-07T06:00	10814	235	-40.8	-72.6	154	14
2023-08-07T06:00	10842	234	-40.9	-72.7	154	14
2023-08-07T06:00	10872	233	-40.8	-72.6	153	13
2023-08-07T06:00	10899	232	-40.5	-72.9	152	13
2023-08-07T06:00	10924	231	-40.5	-72.9	149	13
2023-08-07T06:00	10953	230	-40.4	-72.8	145	13
2023-08-07T06:00	10980	229	-40.2	-72.6	141	13
2023-08-07T06:00	11004	229	-40.2	-73.1	137	13
2023-08-07T06:00	11026	228	-40.3	-73.2	134	13
2023-08-07T06:00	11050	227	-40.3	-73.2	134	14
2023-08-07T06:00	11073	226	-40.1	-73.1	135	14
2023-08-07T06:00	11103	225	-39.9	-72.9	137	14
2023-08-07T06:00	11136	224	-39.8	-72.8	138	13
2023-08-07T06:00	11166	223	-39.8	-73.4	139	13
2023-08-07T06:00	11190	222	-39.8	-73.4	139	13
2023-08-07T06:00	11216	221	-39.9	-73.4	137	13
2023-08-07T06:00	11247	221	-39.9	-73.4	134	13
2023-08-07T06:00	11280	219	-39.8	-73.4	132	13
2023-08-07T06:00	11309	218	-39.9	-73.4	130	13
2023-08-07T06:00	11336	218	-40.1	-73.1	129	13
2023-08-07T06:00	11367	217	-40.2	-73.1	129	13
2023-08-07T06:00	11395	216	-40.2	-73.1	129	13
2023-08-07T06:00	11422	215	-40.4	-73.3	129	12
2023-08-07T06:00	11449	214	-40.5	-73.4	129	12
2023-08-07T06:00	11477	213	-40.4	-73.8	130	12
2023-08-07T06:00	11504	212	-40.5	-73.9	131	12
2023-08-07T06:00	11529	212	-40.4	-73.8	133	12
2023-08-07T06:00	11556	211	-39.9	-73.4	136	12
2023-08-07T06:00	11583	210	-39.9	-73.4	138	12
2023-08-07T06:00	11604	209	-39.8	-73.4	140	12
2023-08-07T06:00	11627	209	-40.0	-73.5	140	12
2023-08-07T06:00	11653	208	-40.0	-73.5	140	12
2023-08-07T06:00	11677	207	-39.8	-73.4	140	12
2023-08-07T06:00	11701	206	-39.9	-73.4	139	13
2023-08-07T06:00	11728	205	-39.9	-73.4	139	13
2023-08-07T06:00	11761	205	-39.9	-73.4	139	13
2023-08-07T06:00	11790	204	-40.1	-73.6	140	14
2023-08-07T06:00	11812	203	-40.2	-73.7	140	14
2023-08-07T06:00	11835	202	-40.1	-73.6	140	15
2023-08-07T06:00	11857	202	-40.0	-73.5	140	15
2023-08-07T06:00	11881	201	-40.0	-74.1	140	15
2023-08-07T06:00	11908	200	-40.0	-74.1	140	15
2023-08-07T06:00	11933	199	-40.2	-74.2	141	15
2023-08-07T06:00	11956	199	-40.2	-74.2	142	15
2023-08-07T06:00	11983	198	-40.1	-74.1	143	15
2023-08-07T06:00	12007	197	-40.1	-74.1	144	15
2023-08-07T06:00	12027	197	-40.2	-74.2	145	14
2023-08-07T06:00	12051	196	-40.4	-74.4	146	14
2023-08-07T06:00	12071	195	-40.4	-74.4	146	13
2023-08-07T06:00	12094	195	-40.4	-74.4	145	13
2023-08-07T06:00	12115	194	-40.5	-74.4	145	13
2023-08-07T06:00	12140	193	-40.6	-74.5	145	12
2023-08-07T06:00	12161	193	-40.8	-74.7	145	12
2023-08-07T06:00	12183	192	-40.9	-74.7	144	12
2023-08-07T06:00	12204	192	-41.0	-74.8	144	12
2023-08-07T06:00	12226	191	-41.0	-74.8	144	12
2023-08-07T06:00	12248	190	-41.0	-74.8	143	12
2023-08-07T06:00	12268	190	-41.1	-74.9	143	13
2023-08-07T06:00	12290	189	-41.1	-74.9	143	13
2023-08-07T06:00	12312	189	-41.3	-74.5	143	14
2023-08-07T06:00	12338	188	-41.5	-74.6	143	14
2023-08-07T06:00	12367	187	-41.6	-74.7	144	14
2023-08-07T06:00	12395	186	-41.6	-74.7	145	14
2023-08-07T06:00	12422	186	-41.6	-74.7	146	14
2023-08-07T06:00	12451	185	-41.6	-75.2	146	15
2023-08-07T06:00	12476	184	-41.7	-75.3	146	15
2023-08-07T06:00	12501	184	-41.6	-74.7	147	15
2023-08-07T06:00	12520	183	-41.6	-74.7	147	15
2023-08-07T06:00	12545	182	-41.6	-74.7	147	15
2023-08-07T06:00	12565	182	-41.6	-75.2	147	14
2023-08-07T06:00	12588	181	-41.6	-75.2	148	14
2023-08-07T06:00	12611	181	-41.6	-75.2	148	13
2023-08-07T06:00	12632	180	-41.6	-75.2	147	13
2023-08-07T06:00	12657	179	-41.7	-74.8	146	13
2023-08-07T06:00	12677	179	-41.7	-74.8	145	12
2023-08-07T06:00	12699	178	-41.8	-74.8	144	12
2023-08-07T06:00	12724	178	-41.9	-74.9	143	12
2023-08-07T06:00	12748	177	-41.9	-74.9	143	12
2023-08-07T06:00	12770	176	-42.1	-75.0	143	12
2023-08-07T06:00	12794	176	-42.2	-75.1	144	12
2023-08-07T06:00	12817	175	-42.4	-75.3	144	12
2023-08-07T06:00	12836	175	-42.3	-75.2	145	12
2023-08-07T06:00	12863	174	-42.3	-75.2	147	12
2023-08-07T06:00	12887	173	-42.4	-75.3	148	12
2023-08-07T06:00	12910	173	-42.5	-75.3	149	12
2023-08-07T06:00	12934	172	-42.6	-75.4	151	11
2023-08-07T06:00	12957	171	-42.8	-75.6	152	12
2023-08-07T06:00	12979	171	-43.0	-75.7	153	12
2023-08-07T06:00	13002	170	-43.0	-75.7	154	12
2023-08-07T06:00	13024	170	-43.0	-75.7	155	12
2023-08-07T06:00	13046	169	-42.8	-75.6	156	12
2023-08-07T06:00	13071	169	-42.9	-75.6	157	13
2023-08-07T06:00	13092	168	-42.9	-75.6	158	13
2023-08-07T06:00	13113	168	-42.9	-75.6	159	13
2023-08-07T06:00	13136	167	-42.9	-76.2	160	13
2023-08-07T06:00	13158	166	-42.9	-76.2	162	13
2023-08-07T06:00	13178	166	-42.9	-76.2	163	12
2023-08-07T06:00	13202	165	-43.0	-76.3	165	12
2023-08-07T06:00	13222	165	-43.2	-76.4	167	12
2023-08-07T06:00	13247	164	-43.1	-76.3	168	12
2023-08-07T06:00	13270	164	-43.0	-76.3	169	13
2023-08-07T06:00	13290	163	-42.8	-76.1	169	13
2023-08-07T06:00	13313	163	-42.9	-76.2	168	13
2023-08-07T06:00	13332	162	-43.0	-76.3	167	13
2023-08-07T06:00	13357	162	-43.0	-76.3	166	14
2023-08-07T06:00	13376	161	-43.1	-76.3	165	14
2023-08-07T06:00	13397	161	-43.2	-76.4	164	15
2023-08-07T06:00	13420	160	-43.3	-76.5	164	15
2023-08-07T06:00	13440	160	-43.4	-76.6	163	15
2023-08-07T06:00	13463	159	-43.2	-76.4	163	15
2023-08-07T06:00	13486	159	-42.9	-76.2	164	15
2023-08-07T06:00	13505	158	-42.9	-76.2	164	14
2023-08-07T06:00	13528	158	-43.0	-76.3	165	14
2023-08-07T06:00	13550	157	-43.1	-76.3	166	13
2023-08-07T06:00	13572	157	-43.2	-76.4	167	13
2023-08-07T06:00	13593	156	-43.1	-76.3	167	13
2023-08-07T06:00	13613	156	-43.0	-76.3	167	13
2023-08-07T06:00	13633	155	-43.1	-76.3	168	13
2023-08-07T06:00	13657	155	-42.9	-76.8	168	13
2023-08-07T06:00	13675	154	-42.9	-76.8	168	13
2023-08-07T06:00	13700	154	-42.9	-76.8	167	13
2023-08-07T06:00	13723	153	-43.0	-76.9	167	13
2023-08-07T06:00	13746	153	-43.1	-76.3	166	13
2023-08-07T06:00	13769	152	-43.2	-76.4	166	13
2023-08-07T06:00	13792	152	-43.3	-76.5	166	12
2023-08-07T06:00	13813	151	-43.5	-76.6	167	12
2023-08-07T06:00	13839	150	-43.5	-76.6	169	11
2023-08-07T06:00	13861	150	-43.6	-76.7	171	11
2023-08-07T06:00	13886	149	-43.6	-76.7	174	11
2023-08-07T06:00	13908	149	-43.4	-76.6	176	11
2023-08-07T06:00	13933	148	-43.2	-77.0	178	11
2023-08-07T06:00	13955	148	-43.2	-77.0	179	10
2023-08-07T06:00	13979	147	-43.4	-76.6	180	10
2023-08-07T06:00	14003	147	-43.6	-76.7	181	10
2023-08-07T06:00	14026	146	-43.8	-76.9	181	10
2023-08-07T06:00	14051	146	-44.0	-77.0	181	10
2023-08-07T06:00	14078	145	-43.9	-76.9	180	10
2023-08-07T06:00	14101	145	-43.8	-76.9	180	11
2023-08-07T06:00	14126	144	-43.8	-76.9	179	11
2023-08-07T06:00	14150	144	-43.8	-76.9	178	11
2023-08-07T06:00	14173	143	-44.0	-77.0	178	11
2023-08-07T06:00	14195	143	-44.1	-77.1	177	11
2023-08-07T06:00	14220	142	-44.3	-77.2	177	11
2023-08-07T06:00	14245	142	-44.5	-76.8	176	11
2023-08-07T06:00	14270	141	-44.6	-76.9	176	11
2023-08-07T06:00	14295	141	-44.5	-76.8	176	11
2023-08-07T06:00	14320	140	-44.6	-76.9	176	11
2023-08-07T06:00	14344	140	-44.6	-76.9	176	12
2023-08-07T06:00	14369	139	-44.6	-76.9	176	12
2023-08-07T06:00	14396	138	-44.4	-76.7	177	11
2023-08-07T06:00	14416	138	-44.4	-76.7	177	11
2023-08-07T06:00	14444	137	-44.6	-76.9	177	10
2023-08-07T06:00	14467	137	-44.8	-77.0	178	10
2023-08-07T06:00	14489	137	-44.9	-77.1	178	9
2023-08-07T06:00	14515	136	-45.0	-77.2	179	9
2023-08-07T06:00	14536	136	-45.1	-77.3	179	9
2023-08-07T06:00	14563	135	-45.1	-77.3	180	8
2023-08-07T06:00	14589	135	-45.1	-77.3	180	8
2023-08-07T06:00	14611	134	-45.2	-77.3	180	8
2023-08-07T06:00	14636	134	-45.3	-77.4	180	8
2023-08-07T06:00	14664	133	-45.3	-77.4	180	8
2023-08-07T06:00	14688	133	-45.4	-77.5	180	9
2023-08-07T06:00	14712	132	-45.4	-77.5	180	9
2023-08-07T06:00	14736	132	-45.6	-77.6	179	10
2023-08-07T06:00	14758	131	-45.7	-77.7	178	11
2023-08-07T06:00	14784	131	-45.9	-77.9	177	11
2023-08-07T06:00	14807	130	-46.1	-78.0	176	11
2023-08-07T06:00	14830	130	-46.2	-78.1	175	11
2023-08-07T06:00	14855	129	-46.3	-78.2	174	11
2023-08-07T06:00	14877	129	-46.1	-78.0	173	11
2023-08-07T06:00	14898	128	-45.7	-78.2	173	10
2023-08-07T06:00	14924	128	-45.6	-78.2	174	10
2023-08-07T06:00	14946	127	-45.5	-78.1	175	10
2023-08-07T06:00	14970	127	-45.5	-78.1	176	10
2023-08-07T06:00	14994	127	-45.3	-78.0	178	10
2023-08-07T06:00	15015	126	-45.2	-77.9	179	11
2023-08-07T06:00	15042	126	-45.3	-78.0	180	12
2023-08-07T06:00	15065	125	-45.4	-78.0	181	12
2023-08-07T06:00	15091	125	-45.6	-78.2	181	13
2023-08-07T06:00	15112	124	-45.8	-78.3	182	13
2023-08-07T06:00	15138	124	-46.0	-77.9	182	13
2023-08-07T06:00	15163	123	-46.2	-78.1	183	14
2023-08-07T06:00	15185	123	-46.4	-78.2	184	15
2023-08-07T06:00	15210	123	-46.6	-78.4	184	15
2023-08-07T06:00	15233	122	-46.7	-78.4	185	16
2023-08-07T06:00	15260	122	-46.5	-78.3	185	16
2023-08-07T06:00	15285	121	-46.2	-78.6	185	16
2023-08-07T06:00	15307	121	-45.9	-78.4	185	16
2023-08-07T06:00	15331	120	-46.0	-78.5	185	15
2023-08-07T06:00	15355	120	-46.0	-78.5	185	15
2023-08-07T06:00	15376	119	-45.8	-78.3	186	14
2023-08-07T06:00	15401	119	-45.3	-78.0	185	13
2023-08-07T06:00	15425	119	-45.4	-78.0	185	13
2023-08-07T06:00	15448	118	-45.3	-78.0	184	13
2023-08-07T06:00	15471	118	-45.4	-78.0	183	13
2023-08-07T06:00	15497	117	-45.4	-78.0	182	12
2023-08-07T06:00	15521	117	-45.2	-77.9	181	12
2023-08-07T06:00	15547	117	-45.2	-77.9	180	12
2023-08-07T06:00	15569	116	-45.3	-78.0	179	12
2023-08-07T06:00	15597	116	-45.2	-78.5	178	11
2023-08-07T06:00	15621	115	-45.0	-78.3	176	11
2023-08-07T06:00	15642	115	-44.9	-78.3	174	11
2023-08-07T06:00	15671	114	-44.9	-78.3	172	11
2023-08-07T06:00	15697	114	-44.8	-78.2	170	11
2023-08-07T06:00	15723	113	-45.0	-78.3	167	10
2023-08-07T06:00	15750	113	-45.0	-78.3	165	10
2023-08-07T06:00	15775	113	-45.2	-77.9	162	10
2023-08-07T06:00	15801	112	-45.3	-78.0	160	10
2023-08-07T06:00	15826	112	-45.5	-78.1	159	10
2023-08-07T06:00	15851	111	-45.7	-78.2	158	10
2023-08-07T06:00	15881	111	-46.0	-78.5	158	9
2023-08-07T06:00	15907	110	-46.2	-78.6	159	9
2023-08-07T06:00	15934	110	-46.4	-78.2	159	10
2023-08-07T06:00	15962	110	-46.7	-78.4	159	10
2023-08-07T06:00	15982	109	-47.0	-78.7	158	10
2023-08-07T06:00	16010	109	-47.3	-78.9	158	10
2023-08-07T06:00	16039	108	-47.4	-79.0	157	11
2023-08-07T06:00	16065	108	-47.7		157	11
2023-08-07T06:00	16089	107	-47.8	-78.8	157	11
2023-08-07T06:00	16118	107	-48.1	-79.0	157	11
2023-08-07T06:00	16143	106	-48.3	-79.1	156	11
2023-08-07T06:00	16170	106	-48.5	-79.3	156	11
2023-08-07T06:00	16196	106	-48.7	-79.4	155	11
2023-08-07T06:00	16218	105	-49.0	-79.7	154	10
2023-08-07T06:00	16244	105	-49.2	-79.8	153	10
2023-08-07T06:00	16270	104	-49.4	-80.0	153	10
2023-08-07T06:00	16292	104	-49.6	-80.1	154	9
2023-08-07T06:00	16318	104	-49.8	-79.8	155	9
2023-08-07T06:00	16344	103	-50.0	-80.0	157	8
2023-08-07T06:00	16370	103	-50.2	-80.1	160	8
2023-08-07T06:00	16394	102	-50.3	-80.2	162	8
2023-08-07T06:00	16423	102	-50.4	-80.3	165	7
2023-08-07T06:00	16445	102	-50.6	-80.4	169	7
2023-08-07T06:00	16471	101	-50.8	-80.6	172	7
2023-08-07T06:00	16494	101	-50.9	-80.6	175	7
2023-08-07T06:00	16519	101	-51.0	-80.7	179	6
2023-08-07T06:00	16545	100	-51.1	-80.8	183	6
2023-08-07T06:00	16569	100	-51.1	-80.8	186	6
2023-08-07T06:00	16593	99	-50.8	-81.0	188	5
2023-08-07T06:00	16617	99	-50.6	-80.9	187	5
2023-08-07T06:00	16643	99	-50.3	-81.1	183	4
2023-08-07T06:00	16667	98	-49.6	-81.1	177	4
2023-08-07T06:00	16689	98	-49.1	-80.8	170	5
2023-08-07T06:00	16713	98	-48.7	-80.5	166	5
2023-08-07T06:00	16741	97	-48.8	-80.5	164	6
2023-08-07T06:00	16765	97	-49.0	-80.7	163	6
2023-08-07T06:00	16787	97	-49.2	-80.3	164	7
2023-08-07T06:00	16814	96	-49.4	-80.5	165	7
2023-08-07T06:00	16837	96	-49.7	-80.2	167	7
2023-08-07T06:00	16862	95	-49.9	-80.3	170	7
2023-08-07T06:00	16888	95	-50.1	-80.5	173	7
2023-08-07T06:00	16911	95	-50.2	-80.6	176	7
2023-08-07T06:00	16939	94	-50.4	-80.7	178	7
2023-08-07T06:00	16960	94	-50.6	-80.9	179	6
2023-08-07T06:00	16982	94	-50.6	-80.9	179	6
2023-08-07T06:00	17005	93	-50.5	-80.8	178	6
2023-08-07T06:00	17029	93	-50.4	-80.7	177	5
2023-08-07T06:00	17054	93	-50.3	-80.6	176	5
2023-08-07T06:00	17077	92	-50.4	-81.2	176	5
2023-08-07T06:00	17099	92	-50.5	-81.3	178	5
2023-08-07T06:00	17121	92	-50.2	-81.0	180	5
2023-08-07T06:00	17148	91	-50.2	-80.6	182	5
2023-08-07T06:00	17170	91	-50.3	-80.6	185	5
2023-08-07T06:00	17195	91	-50.5	-80.8	187	5
2023-08-07T06:00	17215	90	-50.6	-80.9	189	4
2023-08-07T06:00	17239	90	-50.7	-80.9	190	4
2023-08-07T06:00	17262	90	-50.5	-81.3	190	3
2023-08-07T06:00	17280	89	-50.2	-81.0	187	3
2023-08-07T06:00	17304	89	-49.8	-80.8	180	3
2023-08-07T06:00	17329	89	-49.8	-80.8	170	3
2023-08-07T06:00	17351	89	-49.8	-80.8	161	4
2023-08-07T06:00	17375	88	-49.8	-80.8	153	4
2023-08-07T06:00	17401	88	-49.9	-80.8	146	5
2023-08-07T06:00	17426	88	-49.8	-80.8	142	5
2023-08-07T06:00	17451	87	-49.8	-80.8	140	6
2023-08-07T06:00	17474	87	-49.8	-80.8	139	6
2023-08-07T06:00	17500	87	-50.0	-80.9	139	6
2023-08-07T06:00	17523	86	-50.2	-80.6	139	6
2023-08-07T06:00	17555	86	-50.4	-80.7	139	6
2023-08-07T06:00	17579	85	-50.6	-80.9	139	7
2023-08-07T06:00	17610	85	-50.9	-81.1	139	7
2023-08-07T06:00	17635	85	-51.2	-80.9	140	7
2023-08-07T06:00	17661	84	-51.4	-81.0	141	8
2023-08-07T06:00	17686	84	-51.7	-81.2	143	8
2023-08-07T06:00	17714	84	-51.7	-81.2	145	8
2023-08-07T06:00	17737	83	-51.8	-81.3	147	8
2023-08-07T06:00	17762	83	-52.0	-81.5	149	8
2023-08-07T06:00	17789	83	-52.0	-81.5	149	8
2023-08-07T06:00	17816	82	-51.8	-81.3	150	8
2023-08-07T06:00	17841	82	-51.9	-81.4	150	8
2023-08-07T06:00	17864	82	-52.1	-81.5	151	7
2023-08-07T06:00	17890	81	-52.3	-81.7	153	7
2023-08-07T06:00	17917	81	-52.4	-81.8	155	7
2023-08-07T06:00	17942	81	-52.5	-81.8	157	6
2023-08-07T06:00	17969	81	-52.6	-81.9	160	6
2023-08-07T06:00	17992	80	-52.7	-82.0	163	6
2023-08-07T06:00	18018	80	-52.9	-82.1	167	6
2023-08-07T06:00	18038	80	-53.0	-82.2	170	6
2023-08-07T06:00	18061	79	-53.0	-82.2	173	6
2023-08-07T06:00	18088	79	-53.2	-82.4	175	6
2023-08-07T06:00	18111	79	-53.3	-82.0	177	6
2023-08-07T06:00	18137	78	-53.4	-82.5	178	5
2023-08-07T06:00	18156	78	-53.3	-82.5	179	5
2023-08-07T06:00	18181	78	-53.2	-82.4	178	5
2023-08-07T06:00	18204	78	-53.2	-82.4	176	5
2023-08-07T06:00	18225	77	-53.1	-82.3	173	6
2023-08-07T06:00	18249	77	-53.1	-82.3	170	6
2023-08-07T06:00	18271	77	-53.1	-82.7	168	6
2023-08-07T06:00	18292	77	-52.7	-82.4	166	6
2023-08-07T06:00	18319	76	-52.3	-82.1	167	7
2023-08-07T06:00	18338	76	-52.1	-82.0	168	7
2023-08-07T06:00	18364	76	-52.3	-82.1	172	7
2023-08-07T06:00	18383	75	-52.5	-82.3	177	6
2023-08-07T06:00	18406	75	-52.5	-82.3	182	6
2023-08-07T06:00	18427	75	-52.2	-82.1	188	5
2023-08-07T06:00	18450	75	-52.0	-81.9	193	4
2023-08-07T06:00	18472	74	-52.0	-82.4	195	4
2023-08-07T06:00	18495	74	-51.9	-82.3	191	3
2023-08-07T06:00	18517	74	-51.5	-82.0	177	2
2023-08-07T06:00	18541	74	-51.1	-81.7	152	2
2023-08-07T06:00	18561	73	-51.0	-81.6	130	2
2023-08-07T06:00	18590	73	-50.9	-81.6	119	2
2023-08-07T06:00	18611	73	-51.0	-81.6	115	2
2023-08-07T06:00	18635	73	-51.1	-81.7	114	3
2023-08-07T06:00	18657	72	-51.1	-81.7	114	3
2023-08-07T06:00	18679	72	-51.1	-81.7	115	3
2023-08-07T06:00	18702	72	-51.1	-81.7	115	3
2023-08-07T06:00	18724	72	-51.2	-81.8	115	3
2023-08-07T06:00	18747	71	-51.2	-81.3	114	4
2023-08-07T06:00	18774	71	-51.3	-81.4	111	4
2023-08-07T06:00	18795	71	-51.4	-81.5	107	4
2023-08-07T06:00	18818	71	-51.5	-81.5	103	4
2023-08-07T06:00	18846	70	-51.5	-81.5	98	5
2023-08-07T06:00	18871	70	-51.5	-81.5	95	5
2023-08-07T06:00	18894	70	-51.7	-81.7	94	6
2023-08-07T06:00	18919	70	-51.9	-81.8	93	7
2023-08-07T06:00	18947	69	-52.0	-81.9	93	7
2023-08-07T06:00	18972	69	-52.2	-82.1	94	8
2023-08-07T06:00	19001	69	-52.3	-81.7	95	8
2023-08-07T06:00	19026	68	-52.5	-81.8	98	8
2023-08-07T06:00	19049	68	-52.7	-82.0	102	8
2023-08-07T06:00	19083	68	-52.7	-82.0	107	8
2023-08-07T06:00	19105	68	-52.7	-82.0	112	9
2023-08-07T06:00	19137	67	-52.8	-82.1	116	9
2023-08-07T06:00	19167	67	-52.9	-82.1	120	9
2023-08-07T06:00	19192	67	-53.1	-82.3	123	10
2023-08-07T06:00	19221	66	-53.2	-82.4	126	10
2023-08-07T06:00	19246	66	-53.4	-82.5	128	11
2023-08-07T06:00	19274	66	-53.6	-82.7	130	11
2023-08-07T06:00	19303	66	-53.8	-82.8	132	11
2023-08-07T06:00	19330	65	-53.7	-82.8	134	11
2023-08-07T06:00	19354	65	-53.4	-83.0	135	11
2023-08-07T06:00	19384	65	-53.1	-82.7	138	11
2023-08-07T06:00	19407	64	-53.0	-82.7	140	11
2023-08-07T06:00	19439	64	-52.8	-82.5	144	11
2023-08-07T06:00	19465	64	-52.7	-82.4	146	10
2023-08-07T06:00	19491	64	-52.6	-82.4	148	10
2023-08-07T06:00	19517	63	-52.6	-82.4	149	10
2023-08-07T06:00	19540	63	-52.5	-82.3	149	10
2023-08-07T06:00	19572	63	-52.6	-82.4	149	10
2023-08-07T06:00	19598	63	-52.5	-82.3	149	10
2023-08-07T06:00	19622	62	-52.4	-82.7	150	10
2023-08-07T06:00	19654	62	-52.2	-82.5	152	10
2023-08-07T06:00	19676	62	-52.1	-82.5	154	9
2023-08-07T06:00	19705	62	-52.0	-82.4	156	9
2023-08-07T06:00	19731	61	-52.0	-82.4	158	9
2023-08-07T06:00	19752	61	-51.9	-82.3	159	9
2023-08-07T06:00	19782	61	-52.0	-82.4	161	8
2023-08-07T06:00	19804	61	-51.9	-82.3	163	8
2023-08-07T06:00	19828	60	-51.9	-82.3	165	7
2023-08-07T06:00	19855	60	-51.8	-82.2	167	7
2023-08-07T06:00	19880	60	-51.8	-82.2	169	7
2023-08-07T06:00	19911	60	-51.8	-82.2	170	6
2023-08-07T06:00	19932	59	-51.7	-82.2	171	6
2023-08-07T06:00	19953	59	-51.7	-82.2	171	6
2023-08-07T06:00	19976	59	-51.7	-82.2	172	6
2023-08-07T06:00	20002	59	-51.7	-82.2	172	6
2023-08-07T06:00	20034	59	-51.9	-81.8	171	6
2023-08-07T06:00	20052	58	-51.9	-81.8	168	5
2023-08-07T06:00	20075	58	-52.0	-81.9	164	5
2023-08-07T06:00	20107	58	-52.1	-82.0	156	5
2023-08-07T06:00	20130	58	-52.2	-82.1	146	5
2023-08-07T06:00	20153	57	-52.0	-81.9	136	5
2023-08-07T06:00	20179	57	-51.9	-82.3	127	6
2023-08-07T06:00	20203	57	-52.0	-82.4	120	7
2023-08-07T06:00	20229	57	-51.7	-82.2	114	7
2023-08-07T06:00	20254	57	-51.5	-82.0	109	8
2023-08-07T06:00	20277	56	-51.4	-81.9	105	9
2023-08-07T06:00	20306	56	-51.3	-81.9	102	9
2023-08-07T06:00	20332	56	-51.4	-81.9	101	9
2023-08-07T06:00	20359	56	-51.5	-82.0	102	9
2023-08-07T06:00	20381	55	-51.4	-81.9	104	9
2023-08-07T06:00	20407	55	-51.5	-82.0	108	8
2023-08-07T06:00	20437	55	-51.7	-81.7	112	7
2023-08-07T06:00	20458	55	-51.7	-81.7	117	7
2023-08-07T06:00	20486	55	-51.8	-81.8	121	6
2023-08-07T06:00	20508	54	-51.9	-81.8	126	6
2023-08-07T06:00	20533	54	-52.1	-82.0	131	6
2023-08-07T06:00	20564	54	-52.3	-82.1	138	6
2023-08-07T06:00	20593	54	-52.5	-81.8	145	5
2023-08-07T06:00	20614	53	-52.7	-82.0	152	5
2023-08-07T06:00	20641	53	-52.9	-82.1	158	5
2023-08-07T06:00	20669	53	-53.0	-82.2	163	5
2023-08-07T06:00	20697	53	-53.0	-82.2	165	4
2023-08-07T06:00	20725	53	-53.0	-82.2	165	4
2023-08-07T06:00	20757	52	-53.2	-82.4	162	3
2023-08-07T06:00	20785	52	-53.2	-82.4	153	2
2023-08-07T06:00	20812	52	-53.2	-82.4	136	2
2023-08-07T06:00	20839	52	-53.4	-82.5	114	2
2023-08-07T06:00	20862	51	-53.6	-82.7	98	2
2023-08-07T06:00	20895	51	-53.9	-82.9	88	3
2023-08-07T06:00	20925	51	-54.0	-83.0	83	4
2023-08-07T06:00	20954	51	-54.0	-83.0	81	5
2023-08-07T06:00	20984	51	-53.9	-82.9	82	6
2023-08-07T06:00	21016	50	-53.9	-82.9	85	7
2023-08-07T06:00	21041	50	-54.0	-83.0	89	7
2023-08-07T06:00	21067	50	-54.1	-83.1	94	8
2023-08-07T06:00	21100	50	-54.2	-83.1	99	8
2023-08-07T06:00	21125	49	-54.1	-83.1	103	9
2023-08-07T06:00	21156	49	-53.9	-82.9	106	9
2023-08-07T06:00	21181	49	-53.7	-83.2	108	9
2023-08-07T06:00	21211	49	-53.6	-83.1	108	9
2023-08-07T06:00	21238	49	-53.5	-83.0	108	9
2023-08-07T06:00	21264	48	-53.4	-83.0	108	9
2023-08-07T06:00	21294	48	-53.3	-82.9	107	9
2023-08-07T06:00	21319	48	-53.3	-82.9	107	9
2023-08-07T06:00	21348	48	-53.4	-83.0	106	8
2023-08-07T06:00	21368	48	-53.5	-82.6	104	8
2023-08-07T06:00	21393	47	-53.5	-82.6	101	7
2023-08-07T06:00	21420	47	-53.7	-82.8	98	7
2023-08-07T06:00	21446	47	-53.9	-82.9	96	6
2023-08-07T06:00	21468	47	-53.8	-82.8	94	6
2023-08-07T06:00	21496	47	-53.6	-83.1	95	5
2023-08-07T06:00	21523	46	-53.5	-83.0	99	6
2023-08-07T06:00	21551	46	-53.4	-83.0	104	6
2023-08-07T06:00	21577	46	-53.1	-82.7	110	7
2023-08-07T06:00	21599	46	-53.3	-82.9	115	7
2023-08-07T06:00	21627	46	-53.5	-83.0	120	8
2023-08-07T06:00	21651	46	-53.6	-82.7	125	8
2023-08-07T06:00	21680	45	-53.6	-82.7	130	9
2023-08-07T06:00	21700	45	-53.6	-82.7	134	10
2023-08-07T06:00	21726	45	-53.6	-82.7	136	10
2023-08-07T06:00	21750	45	-53.7	-82.8	138	10
2023-08-07T06:00	21768	45	-53.8	-82.8	139	10
2023-08-07T06:00	21796	45	-53.7	-82.8	140	9
2023-08-07T06:00	21816	44	-53.6	-83.1	140	8
2023-08-07T06:00	21845	44	-53.6	-83.1	140	8
2023-08-07T06:00	21867	44	-53.5	-83.0	142	7
2023-08-07T06:00	21894	44	-53.5	-83.0	146	7
2023-08-07T06:00	21916	44	-53.4	-83.0	150	6
2023-08-07T06:00	21935	44	-53.1	-82.7	155	6
2023-08-07T06:00	21965	43	-52.8	-83.0	158	5
2023-08-07T06:00	21991	43	-52.6	-82.8	158	4
2023-08-07T06:00	22013	43	-52.6	-82.8	153	4
2023-08-07T06:00	22036	43	-52.3	-82.6	137	3
2023-08-07T06:00	22063	43	-51.9	-82.8	115	3
2023-08-07T06:00	22090	43	-51.5	-82.5	99	4
2023-08-07T06:00	22121	42	-51.4	-82.5	91	5
2023-08-07T06:00	22142	42	-51.3	-82.4	88	6
2023-08-07T06:00	22162	42	-51.3	-82.4	89	7
2023-08-07T06:00	22188	42	-51.2	-81.8	91	8
2023-08-07T06:00	22224	42	-51.2	-81.8	93	8
2023-08-07T06:00	22247	42	-51.3	-81.9	96	8
2023-08-07T06:00	22285	41	-51.5	-82.0	98	9
2023-08-07T06:00	22304	41	-51.7	-82.2	100	9
2023-08-07T06:00	22335	41	-51.8	-82.2	102	9
2023-08-07T06:00	22361	41	-51.6	-82.1	104	9
2023-08-07T06:00	22388	41	-51.3	-81.9	107	9
2023-08-07T06:00	22419	40	-51.4	-81.9	110	9
2023-08-07T06:00	22445	40	-51.5	-82.0	114	9
2023-08-07T06:00	22475	40	-51.7	-82.2	118	9
2023-08-07T06:00	22501	40	-51.7	-82.2	122	9
2023-08-07T06:00	22534	40	-51.8	-81.8	124	9
2023-08-07T06:00	22560	40	-52.0	-81.9	126	9
2023-08-07T06:00	22592	39	-52.0	-82.4	126	9
2023-08-07T06:00	22617	39	-52.0	-82.4	126	8
2023-08-07T06:00	22646	39	-51.7	-82.2	124	8
2023-08-07T06:00	22678	39	-51.3	-81.9	123	8
2023-08-07T06:00	22707	39	-51.2	-81.8	122	7
2023-08-07T06:00	22737	39	-51.2	-81.8	122	7
2023-08-07T06:00	22763	38	-51.3	-81.9	123	6
2023-08-07T06:00	22793	38	-51.4	-81.9	126	6
2023-08-07T06:00	22821	38	-51.5	-82.0	128	5
2023-08-07T06:00	22852	38	-51.7	-82.2	130	5
2023-08-07T06:00	22878	38	-51.8	-81.8	131	4
2023-08-07T06:00	22915	37	-51.9	-81.8	129	4
2023-08-07T06:00	22944	37	-51.9	-81.8	124	3
2023-08-07T06:00	22974	37	-51.9	-82.3	113	3
2023-08-07T06:00	23003	37	-51.9	-82.3	100	3
2023-08-07T06:00	23030	37	-51.9	-82.3	88	3
2023-08-07T06:00	23060	37	-51.9	-82.3	81	4
2023-08-07T06:00	23087	36	-51.9	-82.3	78	4
2023-08-07T06:00	23114	36	-51.9	-82.3	79	5
2023-08-07T06:00	23140	36	-51.9	-82.3	81	6
2023-08-07T06:00	23174	36	-52.0	-82.4	84	6
2023-08-07T06:00	23199	36	-52.1	-82.0	87	7
2023-08-07T06:00	23227	36	-52.1	-82.0	90	8
2023-08-07T06:00	23257	36	-52.1	-82.0	94	8
2023-08-07T06:00	23282	35	-52.2	-82.1	98	9
2023-08-07T06:00	23307	35	-52.3	-82.1	102	9
2023-08-07T06:00	23336	35	-52.4	-82.2	105	9
2023-08-07T06:00	23364	35	-52.4	-82.2	108	9
2023-08-07T06:00	23392	35	-52.5	-82.3	110	9
2023-08-07T06:00	23421	35	-52.4	-82.2	111	9
2023-08-07T06:00	23449	35	-52.2	-82.1	112	8
2023-08-07T06:00	23476	34	-52.2	-82.1	113	8
2023-08-07T06:00	23499	34	-52.3	-82.1	114	7
2023-08-07T06:00	23529	34	-52.4	-82.2	114	6
2023-08-07T06:00	23557	34	-52.6	-82.4	112	6
2023-08-07T06:00	23588	34	-52.8	-82.5	108	5
2023-08-07T06:00	23612	34	-52.8	-82.5	101	5
2023-08-07T06:00	23639	33	-52.7	-82.4	93	5
2023-08-07T06:00	23674	33	-52.7	-82.4	86	5
2023-08-07T06:00	23700	33	-52.7	-82.4	81	5
2023-08-07T06:00	23727	33	-52.6	-82.8	80	6
2023-08-07T06:00	23750	33	-52.6	-82.8	82	7
2023-08-07T06:00	23788	33	-52.6	-82.8	86	8
2023-08-07T06:00	23812	33	-52.3	-82.6	91	9
2023-08-07T06:00	23840	32	-52.0	-82.4	96	9
2023-08-07T06:00	23870	32	-52.1	-82.5	101	10
2023-08-07T06:00	23901	32	-52.4	-82.2	105	10
2023-08-07T06:00	23927	32	-52.6	-82.4	109	10
2023-08-07T06:00	23960	32	-52.7	-82.4	113	10
2023-08-07T06:00	23987	32	-52.8	-82.5	117	9
2023-08-07T06:00	24017	32	-52.9	-82.6	120	9
2023-08-07T06:00	24040	31	-52.8	-82.5	122	9
2023-08-07T06:00	24071	31	-52.5	-82.8	123	9
2023-08-07T06:00	24099	31	-52.4	-82.7	123	8
2023-08-07T06:00	24128	31	-52.2	-82.5	122	8
2023-08-07T06:00	24156	31	-52.0	-82.4	120	7
2023-08-07T06:00	24190	31	-51.8	-82.8	118	7
2023-08-07T06:00	24214	31	-51.5	-82.5	115	6
2023-08-07T06:00	24244	30	-51.3	-82.4	111	6
2023-08-07T06:00	24280	30	-51.2	-82.3	109	6
2023-08-07T06:00	24310	30	-51.1	-82.2	109	7
2023-08-07T06:00	24337	30	-51.0	-82.2	110	7
2023-08-07T06:00	24361	30	-50.9	-82.1	112	8
2023-08-07T06:00	24390	30	-50.9	-82.1	115	8
2023-08-07T06:00	24420	30	-50.8	-82.0	117	8
2023-08-07T06:00	24456	30	-50.7		119	8
2023-08-07T06:00	24481	29	-50.6	-81.9	120	8
2023-08-07T06:00	24512	29	-50.5	-81.8	119	8
2023-08-07T06:00	24533	29	-50.5	-81.8	116	7
2023-08-07T06:00	24567	29	-50.6	-81.9	111	7
2023-08-07T06:00	24595	29	-50.6	-81.9	105	7
2023-08-07T06:00	24619	29	-50.6	-81.9	99	8
2023-08-07T06:00	24650	29	-50.7		96	8
2023-08-07T06:00	24676	29	-50.6	-81.9	94	8
2023-08-07T06:00	24704	28	-50.5	-81.8	95	9
2023-08-07T06:00	24734	28	-50.5	-81.8	98	8
2023-08-07T06:00	24758	28	-50.6	-81.9	102	8
2023-08-07T06:00	24788	28	-50.6	-81.3	107	8
2023-08-07T06:00	24820	28	-50.6	-81.3	112	8
2023-08-07T06:00	24847	28	-50.7	-81.4	116	7
2023-08-07T06:00	24876	28	-50.8	-81.5	118	7
2023-08-07T06:00	24904	28	-50.9	-81.6	117	7
2023-08-07T06:00	24927	27	-50.9	-81.6	113	7
2023-08-07T06:00	24955	27	-50.9	-81.6	107	7
2023-08-07T06:00	24985	27	-50.8	-82.0	101	7
2023-08-07T06:00	25004	27	-50.7		94	7
2023-08-07T06:00	25044	27	-50.7		89	8
2023-08-07T06:00	25074	27	-50.7		85	9
2023-08-07T06:00	25098	27	-50.4	-81.7	83	9
2023-08-07T06:00	25126	27	-50.2		82	10
2023-08-07T06:00	25158	27	-50.2		82	10
2023-08-07T06:00	25186	26	-50.4	-81.7	83	10
2023-08-07T06:00	25211	26	-50.4	-81.7	86	10
2023-08-07T06:00	25242	26	-50.3	-81.6	90	9
2023-08-07T06:00	25273	26	-50.2		95	9
2023-08-07T06:00	25298	26	-50.0	-81.4	100	8
2023-08-07T06:00	25329	26	-50.0	-81.4	105	8
2023-08-07T06:00	25360	26	-50.0	-81.4	110	8
2023-08-07T06:00	25389	26	-50.0	-81.4	114	7
2023-08-07T06:00	25427	25	-50.2		117	7
2023-08-07T06:00	25447	25	-50.3	-81.6	118	7
2023-08-07T06:00	25490	25	-50.4	-81.7	117	7
2023-08-07T06:00	25518	25	-50.3	-81.6	114	6
2023-08-07T06:00	25541	25	-50.3	-81.6	109	6
2023-08-07T06:00	25577	25	-50.3	-81.6	104	7
2023-08-07T06:00	25611	25	-50.2		100	7
2023-08-07T06:00	25633	25	-50.1	-81.5	96	8
2023-08-07T06:00	25664	25	-49.9	-81.3	94	8
2023-08-07T06:00	25689	24	-49.8	-81.3	92	9
2023-08-07T06:00	25727	24	-49.9	-81.3	91	10
2023-08-07T06:00	25763	24	-49.9	-81.3	91	10
2023-08-07T06:00	25784	24	-50.0	-81.4	92	11
2023-08-07T06:00	25812	24	-50.1	-81.5	93	12
2023-08-07T06:00	25862	24	-50.3	-81.6	94	13
2023-08-07T06:00	25888	24	-50.3	-81.6	96	13
2023-08-07T06:00	25919	24	-50.0	-81.4	97	13
2023-08-07T06:00	25942	24	-50.0	-81.4	98	13
2023-08-07T06:00	25969	23	-50.1	-81.5	99	13
2023-08-07T06:00	26004	23	-50.3	-81.6	100	12
2023-08-07T06:00	26036	23	-50.3	-81.6	101	11
2023-08-07T06:00	26063	23	-50.1	-81.5	102	10
2023-08-07T06:00	26092	23	-50.1	-81.5	102	9
2023-08-07T06:00	26122	23	-50.1	-81.5	102	8
2023-08-07T06:00	26154	23	-50.1	-81.5	101	8
2023-08-07T06:00	26179	23	-50.2		100	8
2023-08-07T06:00	26211	23	-50.1	-81.5	100	8
2023-08-07T06:00	26243	22	-50.1	-81.5	101	8
2023-08-07T06:00	26271	22	-50.1	-81.5	103	8
2023-08-07T06:00	26296	22	-50.1	-81.5	104	8
2023-08-07T06:00	26330	22	-50.1	-81.5	106	8
2023-08-07T06:00	26358	22	-50.1	-81.5	109	7
2023-08-07T06:00	26380	22	-50.1	-81.5	112	6
2023-08-07T06:00	26401	22	-50.1	-81.5	115	6
2023-08-07T06:00	26448	22	-49.9	-81.3	119	5
2023-08-07T06:00	26460	22	-49.8	-81.3	121	5
2023-08-07T06:00	26496	22	-49.6	-81.1	122	4
2023-08-07T06:00	26523	22	-49.6	-81.1	119	4
2023-08-07T06:00	26536	21	-49.6	-81.1	114	4
2023-08-07T06:00	26568	21	-49.6	-81.1	106	4
2023-08-07T06:00	26597	21	-49.6	-81.1	98	4
2023-08-07T06:00	26626	21	-49.6	-81.1	89	4
2023-08-07T06:00	26655	21	-49.5	-81.1	82	3
2023-08-07T06:00	26682	21	-49.5	-81.1	76	4
2023-08-07T06:00	26698	21	-49.5	-81.1	71	4
2023-08-07T06:00	26734	21	-49.5	-81.1	66	4
2023-08-07T06:00	26763	21	-49.4	-81.6	60	4
2023-08-07T06:00	26795	21	-49.2	-81.4	56	4
2023-08-07T06:00	26812	21	-49.0	-81.3	53	5
2023-08-07T06:00	26854	20	-48.8		53	5
2023-08-07T06:00	26872	20	-48.7	-81.0	55	6
2023-08-07T06:00	26903	20	-48.6	-81.0	58	7
2023-08-07T06:00	26929	20	-48.5	-80.9	62	7
2023-08-07T06:00	26953	20	-48.6	-81.0	65	7
2023-08-07T06:00	26978	20	-48.7	-81.0	68	8
2023-08-07T06:00	27021	20	-48.6	-81.0	70	8
2023-08-07T06:00	27050	20	-48.7	-81.0	70	8
2023-08-07T06:00	27076	20	-48.7	-81.0	70	8
2023-08-07T06:00	27105	20	-48.8	-80.5	69	8
2023-08-07T06:00	27130	20	-48.9	-80.6	69	8
2023-08-07T06:00	27163	20	-49.0	-80.7	70	8
2023-08-07T06:00	27200	19	-49.0	-80.7	71	8
2023-08-07T06:00	27241	19	-49.0	-80.7	73	8
2023-08-07T06:00	27255	19	-49.0	-80.7	74	8
2023-08-07T06:00	27294	19	-49.0	-81.3	75	8
2023-08-07T06:00	27318	19	-48.9	-81.2	74	8
2023-08-07T06:00	27359	19	-48.7	-81.0	74	8
2023-08-07T06:00	27396	19	-48.6	-81.0	74	8
2023-08-07T06:00	27427	19	-48.5	-80.9	73	8
2023-08-07T06:00	27460	19	-48.3	-80.7	73	7
2023-08-07T06:00	27497	19	-48.2	-80.7	73	7
2023-08-07T06:00	27534	18	-48.1	-80.6	72	7
2023-08-07T06:00	27563	18	-48.0	-80.5	71	6
2023-08-07T06:00	27606	18	-48.1	-80.6	69	6
2023-08-07T06:00	27627	18	-48.2	-80.7	67	6
2023-08-07T06:00	27656	18	-48.3	-80.7	63	7
2023-08-07T06:00	27697	18	-48.4	-80.8	59	7
2023-08-07T06:00	27721	18	-48.2	-80.7	55	7
2023-08-07T06:00	27757	18	-47.9	-80.4	51	7
2023-08-07T06:00	27789	18	-47.7	-80.9	49	8
2023-08-07T06:00	27824	18	-47.2	-80.6	48	8
2023-08-07T06:00	27867	18	-46.8	-80.3	47	9
2023-08-07T06:00	27872	18	-46.5	-80.1	47	10
2023-08-07T06:00	27915	17	-46.4	-80.0	47	10
2023-08-07T06:00	27948	17	-46.4	-80.0	47	11
2023-08-07T06:00	27984	17	-46.4	-80.0	46	11
2023-08-07T06:00	28008	17	-46.3	-79.9	46	12
2023-08-07T06:00	28047	17	-46.3	-79.9	45	12
2023-08-07T06:00	28076	17	-46.4	-80.0	45	13
2023-08-07T06:00	28106	17	-46.4	-80.0	46	13
2023-08-07T06:00	28143	17	-46.3	-79.9	47	12
2023-08-07T06:00	28162	17	-46.3	-79.9	49	12
2023-08-07T06:00	28191	17	-46.4	-80.0	52	12
2023-08-07T06:00	28215	17	-46.5	-80.1	54	12
2023-08-07T06:00	28244	17	-46.5	-80.1	57	12
2023-08-07T06:00	28279	17	-46.5	-80.1	59	12
2023-08-07T06:00	28298	16	-46.5	-80.1	61	12
2023-08-07T06:00	28330	16	-46.6	-80.1	64	12
2023-08-07T06:00	28356	16	-46.7	-80.2	67	12
2023-08-07T06:00	28396	16	-46.6	-80.1	70	12
2023-08-07T06:00	28416	16	-46.4	-80.0	73	12
2023-08-07T06:00	28437	16	-46.3	-79.9	75	12
2023-08-07T06:00	28468	16	-46.2	-79.8	77	12
2023-08-07T06:00	28505	16	-46.2	-79.8	78	13
2023-08-07T06:00	28531	16	-46.0	-79.7	79	13
2023-08-07T06:00	28558	16	-45.7	-80.2	80	13
2023-08-07T06:00	28586	16	-45.2	-79.8	82	14
2023-08-07T06:00	28608	16	-44.8	-79.6	83	14
2023-08-07T06:00	28629	16	-44.6	-79.4	85	13
2023-08-07T06:00	28665	16	-44.4	-79.3	86	13
2023-08-07T06:00	28693	16	-44.2	-79.1	88	12
2023-08-07T06:00	28726	15	-44.0	-79.0	91	12
2023-08-07T06:00	28754	15	-43.8	-78.8	93	11
2023-08-07T06:00	28778	15	-43.6	-78.7	95	10
2023-08-07T06:00	28825	15	-43.5	-78.6	96	10
2023-08-07T06:00	28843	15	-43.5	-78.6	96	10
2023-08-07T06:00	28886	15	-43.5	-78.6	95	10
2023-08-07T06:00	28900	15	-43.4	-78.5	93	10
2023-08-07T06:00	28941	15	-43.3	-78.5	91	11
2023-08-07T06:00	28973	15	-43.2	-78.4	89	11
2023-08-07T06:00	29004	15	-43.3	-78.5	88	12
2023-08-07T06:00	29037	15	-43.3	-78.5	86	13
2023-08-07T06:00	29073	15	-43.3	-78.5	85	14
2023-08-07T06:00	29101	15	-43.4	-78.5	84	15
2023-08-07T06:00	29139	15	-43.4	-78.5	82	15
2023-08-07T06:00	29173	14	-43.4	-78.5	81	15
2023-08-07T06:00	29213	14	-43.4	-78.5	81	15
2023-08-07T06:00	29244	14	-43.4	-78.5	82	14
2023-08-07T06:00	29271	14	-43.4	-78.5	83	14
2023-08-07T06:00	29311	14	-43.4	-78.5	85	13
2023-08-07T06:00	29347	14	-43.3	-78.5	88	13
2023-08-07T06:00	29401	14	-43.3	-78.5	90	13
2023-08-07T06:00	29420	14	-43.3	-78.5	93	13
2023-08-07T06:00	29468	14	-43.3	-78.5	95	13
2023-08-07T06:00	29483	14	-43.4	-78.5	96	13
2023-08-07T06:00	29536	14	-43.3	-78.5	97	13
2023-08-07T06:00	29570	14	-43.3	-78.5	97	13
2023-08-07T06:00	29602	14	-43.3	-78.5	96	13
2023-08-07T06:00	29639	13	-43.2	-78.4	94	12
2023-08-07T06:00	29655	13	-42.9	-78.2	91	12
2023-08-07T06:00	29710	13	-42.6	-78.0	89	12
2023-08-07T06:00	29742	13	-42.4	-77.8	87	13
2023-08-07T06:00	29769	13	-42.4	-78.7	85	13
2023-08-07T06:00	29807	13	-42.3		84	14
2023-08-07T06:00	29845	13	-42.4	-77.8	83	15
2023-08-07T06:00	29871	13	-42.4	-77.8	83	16
2023-08-07T06:00	29904	13	-42.4	-77.8	83	17
2023-08-07T06:00	29932	13	-42.4	-77.8	84	17
2023-08-07T06:00	29968	13	-42.5	-77.9	85	18
2023-08-07T06:00	29995	13	-42.6	-78.0	86	18
2023-08-07T06:00	30037	13	-42.8	-78.1	88	18
2023-08-07T06:00	30049	13	-42.9	-78.2	89	18
2023-08-07T06:00	30091	13	-43.0	-78.3	90	17
2023-08-07T06:00	30113	13	-43.1	-78.3	92	17
2023-08-07T06:00	30146	13	-43.2	-78.4	94	17
2023-08-07T06:00	30180	12	-43.3	-78.5	96	17
2023-08-07T06:00	30211	12	-43.5	-78.6	99	17
2023-08-07T06:00	30250	12	-43.7	-78.8	102	17
2023-08-07T06:00	30298	12	-43.8	-78.8	104	17
2023-08-07T06:00	30311	12	-43.7	-78.8	104	17
2023-08-07T06:00	30335	12	-43.5	-78.6	102	17
2023-08-07T06:00	30369	12	-43.2	-78.4	100	17
2023-08-07T06:00	30402	12	-43.0	-78.3	98	17
2023-08-07T06:00	30418	12	-42.8	-78.1	96	17
2023-08-07T06:00	30444	12	-42.7	-78.0	95	16
2023-08-07T06:00	30500	12	-42.7	-78.0	94	16
2023-08-07T06:00	30523	12	-42.7	-78.0	95	16
2023-08-07T06:00	30561	12	-42.7	-78.0	96	15
2023-08-07T06:00	30595	12	-42.7	-78.0	98	15
2023-08-07T06:00	30618	12	-42.8	-78.1	101	15
2023-08-07T06:00	30652	12	-42.8	-78.1	103	15
2023-08-07T06:00	30690	12	-42.8	-78.1	105	15
2023-08-07T06:00	30709	11	-42.7	-78.0	105	15
2023-08-07T06:00	30735	11	-42.6	-78.0	104	15
2023-08-07T06:00	30779	11	-42.5	-77.9	103	15
2023-08-07T06:00	30820	11	-42.5	-77.9	101	15
2023-08-07T06:00	30847	11	-42.5	-77.9	98	14
2023-08-07T06:00	30879	11	-42.6	-78.0	95	14
2023-08-07T06:00	30915	11	-42.6	-78.0	93	14
2023-08-07T06:00	30942	11	-42.5	-77.9	91	13
2023-08-07T06:00	30994	11	-42.4	-77.8	90	13
2023-08-07T06:00	31024	11	-42.5	-77.9	90	13
2023-08-07T06:00	31041	11	-42.6	-78.0	90	13
2023-08-07T06:00	31083	11	-42.8	-78.1	91	14
2023-08-07T06:00	31123	11	-42.9	-78.2	91	14
2023-08-07T06:00	31171	11	-43.0	-78.3	92	14
2023-08-07T06:00	31186	11	-42.9	-78.2	93	15
2023-08-07T06:00	31216	11	-42.8	-78.1	94	15
2023-08-07T06:00	31254	11	-42.7	-78.0	95	16
2023-08-07T06:00	31291	11	-42.7	-78.0	96	16
2023-08-07T06:00	31316	11	-42.7	-78.0	97	16
2023-08-07T06:00	31339	10	-42.8	-78.1	98	15
2023-08-07T06:00	31391	10	-42.9	-78.2	99	14
2023-08-07T06:00	31415	10	-42.9	-78.2	99	13
2023-08-07T06:00	31438	10	-42.8	-78.1	99	13
2023-08-07T06:00	31477	10	-42.9	-78.2	99	12
2023-08-07T06:00	31508	10	-43.0	-78.3	99	12
2023-08-07T06:00	31548	10	-43.0	-78.3	98	12
2023-08-07T06:00	31561	10	-42.8	-78.1	98	13
2023-08-07T06:00	31594	10	-42.5	-78.7	97	13
2023-08-07T06:00	31617	10	-42.2	-78.5	97	14
2023-08-07T06:00	31657	10	-42.1	-78.4	96	14
2023-08-07T06:00	31677	10	-42.0	-78.4	96	14
2023-08-07T06:00	31720	10	-41.8	-78.2	96	13
2023-08-07T06:00	31739	10	-41.4	-77.9	95	12
2023-08-07T06:00	31757	10	-41.0	-77.7	95	11
2023-08-07T06:00	31821	10	-40.7	-77.4	95	11
2023-08-07T06:00	31826	10	-40.6	-78.3	96	10
2023-08-07T06:00	31847	10	-40.4	-78.2	96	10
2023-08-07T06:00	31889	10	-40.2	-78.0	96	10
2023-08-07T06:00	31923	10	-40.1	-78.0	95	10
2023-08-07T06:00	31946	10	-39.9	-77.8	94	10
2023-08-07T06:00	31996	10	-39.6	-77.6	92	10
2023-08-07T06:00	32013	10	-39.4	-77.5	90	11
2023-08-07T06:00	32031	9	-39.2	-77.3	88	10
2023-08-07T06:00	32060	9	-39.0	-77.2	87	10
2023-08-07T06:00	32099	9	-38.8	-77.1	86	10
2023-08-07T06:00	32121	9	-38.6	-76.9	85	9
2023-08-07T06:00	32168	9	-38.5	-76.9	84	9
2023-08-07T06:00	32183	9	-38.2	-76.6	81	9
2023-08-07T06:00	32209	9	-37.9	-76.4	77	9
2023-08-07T06:00	32243	9	-37.6	-76.2	73	10
2023-08-07T06:00	32268	9	-37.3	-76.0	69	11
2023-08-07T06:00	32296	9	-37.2	-75.9	68	11
2023-08-07T06:00	32330	9	-37.0	-75.8	67	12
2023-08-07T06:00	32371	9	-36.9	-75.7	68	12
2023-08-07T06:00	32386	9	-36.8	-75.7	70	13
2023-08-07T06:00	32415	9	-36.7	-75.6	73	13
2023-08-07T06:00	32446	9	-36.7	-75.6	76	13
2023-08-07T06:00	32469	9	-36.7	-75.6	79	13
2023-08-07T06:00	32500	9	-36.8	-75.7	81	13
2023-08-07T06:00	32520	9	-36.8	-75.7	83	13
2023-08-07T06:00	32559	9	-36.9	-75.7	84	12
2023-08-07T06:00	32619	9	-36.9	-75.7	84	12
2023-08-07T06:00	32634	9	-36.9	-75.7	83	12
2023-08-07T06:00	32673	9	-36.8	-75.7	83	11
2023-08-07T06:00	32695	9	-36.8	-75.7	83	11
2023-08-07T06:00	32734	9	-36.8	-75.7	82	11
2023-08-07T06:00	32770	9	-36.8	-75.7	80	11
2023-08-07T06:00	32815	8	-36.8	-75.7	76	11
2023-08-07T06:00	32842	8	-36.6	-75.5	73	11
2023-08-07T06:00	32872	8	-36.4	-75.4	70	11
2023-08-07T06:00	32916	8	-36.2	-75.2	67	11
2023-08-07T06:00	32948	8	-36.1	-75.2	66	11
2023-08-07T06:00	32968	8	-36.0	-75.1	65	12
2023-08-07T06:00	32997	8	-36.0	-75.1	64	13
2023-08-07T06:00	33028	8	-36.1	-75.2	65	13
2023-08-07T06:00	33055	8	-36.2	-75.2	65	14
2023-08-07T06:00	33116	8	-36.4	-75.4	67	15
2023-08-07T06:00	33154	8	-36.7	-75.6	70	16
2023-08-07T06:00	33172	8	-36.7	-75.6	73	16
2023-08-07T06:00	33197	8	-36.6	-75.5	76	17
2023-08-07T06:00	33240	8	-36.5	-75.5	79	17
2023-08-07T06:00	33286	8	-36.5	-75.5	82	17
2023-08-07T06:00	33301	8	-36.5	-75.5	85	17
2023-08-07T06:00	33348	8	-36.6	-75.5	88	17
2023-08-07T06:00	33391	8	-36.7	-75.6	91	16
2023-08-07T06:00	33414	8	-36.7	-75.6	93	16
2023-08-07T06:00	33458	8	-36.6	-75.5	95	15
2023-08-07T06:00	33467	8	-36.5	-75.5	96	15
2023-08-07T06:00	33513	8	-36.3	-76.5	96	14
2023-08-07T06:00	33556	8	-36.1	-76.3	96	14
2023-08-07T06:00	33563	8	-35.9	-76.2	96	14
2023-08-07T06:00	33607	8	-35.7	-76.1	96	13
2023-08-07T06:00	33619	8	-35.5	-75.9	97	13
2023-08-07T06:00	33658	7	-35.3	-75.8	97	12
2023-08-07T06:00	33698	7	-35.2	-75.7	97	12
2023-08-07T06:00	33709	7	-35.1	-75.6	96	12
2023-08-07T06:00	33737	7	-34.8	-75.4	95	12
2023-08-07T06:00	33780	7	-34.4	-75.2	92	12
2023-08-07T06:00	33817	7	-34.1	-75.0	90	13
2023-08-07T06:00	33874	7	-34.1	-75.0	87	14
2023-08-07T06:00	33878	7	-34.1	-75.0	85	15
2023-08-07T06:00	33932	7	-33.9	-74.8	84	17
2023-08-07T06:00	33945	7	-33.8	-74.7	83	18
2023-08-07T06:00	33956	7	-33.7	-74.7	83	19
2023-08-07T06:00	34044	7	-33.6	-74.6	83	20
2023-08-07T06:00	34060	7	-33.6	-74.6	82	21
2023-08-07T06:00	34084	7	-33.8	-74.7	82	21
2023-08-07T06:00	34116	7	-33.9	-74.8	81	21
2023-08-07T06:00	34136	7	-33.9	-74.8	80	22
2023-08-07T06:00	34167	7	-33.9	-74.8	80	22
2023-08-07T12:00	-999					
2023-08-07T12:00	136	989	17.4	11.4	261	5
2023-08-07T12:00	159	986	17.1	11.0	264	8
2023-08-07T12:00	185	983	16.8	10.8	266	9
2023-08-07T12:00	221	980	16.5	10.7	267	11
2023-08-07T12:00	242	977	16.2	10.6	267	12
2023-08-07T12:00	272	973	15.9	10.6	266	13
2023-08-07T12:00	309	969	15.6	10.4	266	13
2023-08-07T12:00	338	966	15.3	10.5	266	13
2023-08-07T12:00	374	962	14.9	10.3	267	13
2023-08-07T12:00	407	958	14.6	10.4	269	13
2023-08-07T12:00	449	954	14.1	10.2	270	13
2023-08-07T12:00	479	950	13.8	10.3	272	13
2023-08-07T12:00	509	947	13.5	10.2	273	13
2023-08-07T12:00	537	943	13.3	10.3	275	13
2023-08-07T12:00	562	940	13.0	10.2	276	14
2023-08-07T12:00	595	937	12.7	10.1	278	14
2023-08-07T12:00	630	933	12.3	9.9	280	15
2023-08-07T12:00	667	929	12.0	9.8	282	15
2023-08-07T12:00	700	925	11.6	9.7	284	16
2023-08-07T12:00	734	922	11.3	9.5	286	16
2023-08-07T12:00	750	919	11.1	9.7	286	17
2023-08-07T12:00	778	917	11.0	8.5	286	17
2023-08-07T12:00	803	914	10.8	8.7	285	17
2023-08-07T12:00	825	912	10.5	8.7	283	18
2023-08-07T12:00	850	909	10.4	8.3	281	18
2023-08-07T12:00	875	906	10.2	8.4	279	17
2023-08-07T12:00	899	903	10.0	7.9	278	17
2023-08-07T12:00	927	900	9.8	7.9	278	18
2023-08-07T12:00	956	897	9.7	7.0	280	18
2023-08-07T12:00	982	894	9.5	7.0	282	19
2023-08-07T12:00	1009	892	9.1	7.2	284	19
2023-08-07T12:00	1033	889	8.9	6.9	285	20
2023-08-07T12:00	1059	886	8.8	6.6	285	20
2023-08-07T12:00	1081	884	8.9	4.9	285	20
2023-08-07T12:00	1104	881	8.7	4.8	285	20
2023-08-07T12:00	1128	879	8.5	4.8	285	20
2023-08-07T12:00	1149	877	8.3	4.7	285	20
2023-08-07T12:00	1172	874	8.1	4.6	285	20
2023-08-07T12:00	1196	872	7.9	4.5	285	21
2023-08-07T12:00	1218	869	7.7	4.4	285	21
2023-08-07T12:00	1244	867	7.5	4.2	285	21
2023-08-07T12:00	1267	864	7.3	4.1	285	20
2023-08-07T12:00	1290	862	7.2	3.6	286	20
2023-08-07T12:00	1312	860	7.0	3.5	286	19
2023-08-07T12:00	1336	857	6.9	3.5	286	19
2023-08-07T12:00	1352	855	6.8	3.3	286	19
2023-08-07T12:00	1375	853	6.7	3.2	287	19
2023-08-07T12:00	1399	850	6.5	3.2	287	19
2023-08-07T12:00	1426	848	6.3	3.0	288	19
2023-08-07T12:00	1447	845	6.4	2.3	288	19
2023-08-07T12:00	1472	843	6.3	1.9	288	20
2023-08-07T12:00	1492	841	6.1	2.0	289	20
2023-08-07T12:00	1514	839	5.8	2.0	289	20
2023-08-07T12:00	1536	836	5.6	2.0	289	20
2023-08-07T12:00	1560	834	5.5	1.7	290	19
2023-08-07T12:00	1582	832	5.4	1.4	290	19
2023-08-07T12:00	1604	829	5.3	1.2	291	19
2023-08-07T12:00	1629	827	5.2	1.0	291	20
2023-08-07T12:00	1650	825	5.3	0.7	290	20
2023-08-07T12:00	1670	823	5.1	0.6	290	20
2023-08-07T12:00	1691	821	5.0	0.3	289	20
2023-08-07T12:00	1714	818	4.9	0.3	288	19
2023-08-07T12:00	1735	816	4.8	0.4	288	19
2023-08-07T12:00	1760	814	4.6	0.4	288	19
2023-08-07T12:00	1790	811	4.4	0.4	289	18
2023-08-07T12:00	1821	808	4.2	0.4	288	18
2023-08-07T12:00	1852	805	3.9	0.3	288	18
2023-08-07T12:00	1880	802	3.7	0.3	287	17
2023-08-07T12:00	1907	799	3.6	-0.1	286	17
2023-08-07T12:00	1935	796	3.5	-0.1	286	17
2023-08-07T12:00	1959	794	3.3	-0.4	286	17
2023-08-07T12:00	1992	791	3.1	-0.1	287	18
2023-08-07T12:00	2023	788	2.8	-0.1	287	18
2023-08-07T12:00	2049	785	2.5	0.1	288	18
2023-08-07T12:00	2073	783	2.3	-0.1	288	19
2023-08-07T12:00	2094	781	2.1	-0.3	287	19
2023-08-07T12:00	2123	778	1.9	-0.4	287	19
2023-08-07T12:00	2148	776	1.6	-0.5	287	19
2023-08-07T12:00	2175	773	1.5	-0.5	287	19
2023-08-07T12:00	2199	771	1.3	-0.8	287	19
2023-08-07T12:00	2226	768	1.1	-0.7	288	19
2023-08-07T12:00	2254	765	0.9	-0.7	288	18
2023-08-07T12:00	2288	763	0.7	-1.2	288	18
2023-08-07T12:00	2311	760	0.6	-1.2	287	18
2023-08-07T12:00	2340	758	0.4	-1.3	286	18
2023-08-07T12:00	2362	755	0.3	-1.4	286	19
2023-08-07T12:00	2384	753	0.2	-1.7	286	19
2023-08-07T12:00	2404	751	0.1	-1.7	287	20
2023-08-07T12:00	2424	749	0.0	-1.7	288	20
2023-08-07T12:00	2443	748	-0.1	-1.7	289	20
2023-08-07T12:00	2470	745	-0.1	-2.7	290	19
2023-08-07T12:00	2497	743	0.0	-2.7	290	19
2023-08-07T12:00	2526	740	-0.1	-2.7	290	18
2023-08-07T12:00	2549	738	-0.3	-2.8	290	18
2023-08-07T12:00	2573	736	-0.5	-3.0	290	18
2023-08-07T12:00	2593	734	-0.7	-3.0	291	18
2023-08-07T12:00	2618	732	-0.9	-3.2	292	18
2023-08-07T12:00	2640	730	-1.1	-3.3	292	19
2023-08-07T12:00	2660	728	-1.3	-3.5	292	19
2023-08-07T12:00	2681	726	-1.4	-3.6	291	19
2023-08-07T12:00	2713	723	-1.7	-3.5	290	19
2023-08-07T12:00	2740	720	-1.9	-3.2	289	19
2023-08-07T12:00	2769	718	-2.1	-3.0	289	19
2023-08-07T12:00	2794	716	-2.2	-3.3	290	19
2023-08-07T12:00	2820	713	-2.3	-4.2	291	19
2023-08-07T12:00	2840	711	-2.4	-4.4	293	19
2023-08-07T12:00	2873	709	-2.5	-4.2	295	19
2023-08-07T12:00	2902	706	-2.8	-4.2	297	19
2023-08-07T12:00	2931	703	-3.0	-4.2	299	19
2023-08-07T12:00	2958	701	-3.0	-4.4	300	20
2023-08-07T12:00	2974	699	-2.9	-5.1	300	20
2023-08-07T12:00	3001	697	-3.0	-5.1	298	20
2023-08-07T12:00	3033	695	-3.2	-5.9	296	21
2023-08-07T12:00	3056	692	-3.3	-7.1	294	21
2023-08-07T12:00	3077	690	-3.5	-5.8	292	21
2023-08-07T12:00	3098	689	-3.7	-5.9	292	21
2023-08-07T12:00	3124	687	-3.9	-6.5	292	20
2023-08-07T12:00	3147	685	-3.9	-6.4	293	20
2023-08-07T12:00	3168	683	-4.1	-6.5	294	20
2023-08-07T12:00	3193	681	-4.3	-6.5	294	20
2023-08-07T12:00	3213	679	-4.4	-6.5	295	20
2023-08-07T12:00	3239	677	-4.6	-6.4	295	20
2023-08-07T12:00	3258	675	-4.8	-6.4	295	20
2023-08-07T12:00	3283	673	-5.0	-6.9	295	20
2023-08-07T12:00	3309	671	-5.1	-6.8	295	19
2023-08-07T12:00	3334	669	-5.4	-6.8	294	19
2023-08-07T12:00	3355	667	-5.5	-7.6	293	18
2023-08-07T12:00	3378	665	-5.6	-10.0	292	18
2023-08-07T12:00	3406	662	-5.8	-10.3	292	18
2023-08-07T12:00	3430	660	-5.8	-9.9	293	18
2023-08-07T12:00	3446	659	-6.0	-7.7	294	18
2023-08-07T12:00	3464	657	-6.1	-6.7	295	19
2023-08-07T12:00	3494	655	-5.7	-7.3	296	19
2023-08-07T12:00	3520	653	-5.6	-7.7	297	20
2023-08-07T12:00	3542	651	-5.8	-7.9	298	20
2023-08-07T12:00	3558	649	-5.7	-8.4	298	21
2023-08-07T12:00	3579	648	-5.8	-9.1	299	21
2023-08-07T12:00	3598	646	-5.7	-10.2	300	20
2023-08-07T12:00	3623	644	-5.8	-10.6	300	20
2023-08-07T12:00	3639	643	-5.9	-10.8	300	20
2023-08-07T12:00	3659	641	-6.0	-11.0	301	20
2023-08-07T12:00	3680	639	-6.2	-11.1	302	20
2023-08-07T12:00	3710	637	-6.4	-11.2	303	20
2023-08-07T12:00	3730	636	-6.5	-11.5	304	21
2023-08-07T12:00	3747	634	-6.7	-11.6	304	21
2023-08-07T12:00	3771	632	-6.9	-11.5	303	21
2023-08-07T12:00	3793	630	-7.0	-11.5	302	21
2023-08-07T12:00	3821	628	-7.2	-11.7	300	21
2023-08-07T12:00	3842	626	-7.4	-11.9	299	20
2023-08-07T12:00	3863	625	-7.6	-11.8	298	20
2023-08-07T12:00	3885	623	-7.8	-11.9	297	20
2023-08-07T12:00	3911	621	-8.1	-11.8	297	19
2023-08-07T12:00	3929	619	-8.2	-11.6	296	19
2023-08-07T12:00	3949	618	-8.4	-11.6	295	18
2023-08-07T12:00	3972	616	-8.5	-11.9	294	17
2023-08-07T12:00	3995	614	-8.6	-12.1	293	17
2023-08-07T12:00	4027	612	-8.8	-12.6	292	17
2023-08-07T12:00	4057	609	-8.9	-14.3	292	17
2023-08-07T12:00	4078	608	-9.0	-15.0	293	17
2023-08-07T12:00	4104	606	-9.2	-14.5	294	17
2023-08-07T12:00	4131	604	-9.4	-14.7	294	17
2023-08-07T12:00	4152	602	-9.5	-16.1	294	17
2023-08-07T12:00	4180	600	-9.7	-16.9	293	17
2023-08-07T12:00	4200	598	-9.9	-17.1	292	17
2023-08-07T12:00	4232	596	-10.1	-17.1	291	17
2023-08-07T12:00	4265	593	-10.2	-18.1	292	17
2023-08-07T12:00	4291	591	-10.4	-18.5	292	18
2023-08-07T12:00	4321	589	-10.7	-18.5	293	18
2023-08-07T12:00	4357	586	-11.1	-18.5	294	17
2023-08-07T12:00	4382	584	-11.3	-18.5	295	17
2023-08-07T12:00	4411	582	-11.6	-18.4	296	17
2023-08-07T12:00	4439	580	-11.9	-18.7	295	17
2023-08-07T12:00	4465	578	-12.2	-19.1	294	18
2023-08-07T12:00	4495	576	-12.4	-19.0	292	18
2023-08-07T12:00	4524	573	-12.7	-19.7	291	19
2023-08-07T12:00	4553	571	-13.0	-19.7	290	19
2023-08-07T12:00	4582	569	-13.3	-19.3	290	19
2023-08-07T12:00	4608	567	-13.4	-16.4	290	19
2023-08-07T12:00	4631	565	-13.6	-17.3	290	20
2023-08-07T12:00	4657	564	-13.8	-16.2	290	20
2023-08-07T12:00	4682	562	-13.9	-16.0	291	20
2023-08-07T12:00	4712	560	-14.2	-16.5	290	20
2023-08-07T12:00	4740	557	-14.4	-16.5	290	21
2023-08-07T12:00	4771	555	-14.7	-16.9	288	20
2023-08-07T12:00	4799	553	-14.6	-17.0	286	20
2023-08-07T12:00	4825	551	-14.2	-16.5	285	20
2023-08-07T12:00	4848	550	-14.3	-16.6	285	20
2023-08-07T12:00	4870	548	-14.3	-16.8	287	19
2023-08-07T12:00	4901	546	-14.2	-16.3	289	19
2023-08-07T12:00	4928	544	-14.3	-16.6	291	19
2023-08-07T12:00	4954	542	-14.4	-16.6	293	19
2023-08-07T12:00	4980	540	-14.7	-16.8	295	19
2023-08-07T12:00	5006	538	-14.9	-17.0	296	19
2023-08-07T12:00	5038	536	-15.0	-17.1	296	19
2023-08-07T12:00	5068	534	-15.3	-17.3	296	18
2023-08-07T12:00	5093	532	-15.5	-17.4	296	18
2023-08-07T12:00	5120	530	-15.8	-17.6	295	18
2023-08-07T12:00	5141	529	-15.8	-17.5	295	18
2023-08-07T12:00	5161	527	-16.1	-17.6	295	18
2023-08-07T12:00	5183	526	-16.3	-17.7	296	18
2023-08-07T12:00	5209	524	-16.5	-17.8	298	18
2023-08-07T12:00	5231	522	-16.6	-18.0	300	18
2023-08-07T12:00	5255	521	-16.7	-18.1	301	18
2023-08-07T12:00	5276	519	-16.9	-18.1	302	18
2023-08-07T12:00	5299	518	-17.1	-18.4	303	18
2023-08-07T12:00	5319	516	-17.2	-18.5	303	18
2023-08-07T12:00	5343	515	-17.4	-18.6	304	18
2023-08-07T12:00	5371	513	-17.6	-18.8	304	18
2023-08-07T12:00	5391	511	-17.7	-18.9	305	18
2023-08-07T12:00	5414	510	-17.9	-19.0	305	18
2023-08-07T12:00	5437	508	-18.0	-19.0	306	18
2023-08-07T12:00	5463	506	-18.2	-19.2	307	18
2023-08-07T12:00	5488	505	-18.4	-19.4	307	18
2023-08-07T12:00	5513	503	-18.6	-19.5	308	18
2023-08-07T12:00	5536	502	-18.7	-19.4	308	18
2023-08-07T12:00	5557	500	-18.9	-19.7	309	18
2023-08-07T12:00	5585	498	-19.0	-19.7	309	17
2023-08-07T12:00	5608	497	-19.0	-19.8	310	17
2023-08-07T12:00	5634	495	-19.2	-20.1	312	16
2023-08-07T12:00	5655	493	-19.3	-20.2	313	16
2023-08-07T12:00	5680	492	-19.4	-20.3	313	16
2023-08-07T12:00	5702	490	-19.4	-20.4	313	15
2023-08-07T12:00	5732	489	-19.5	-20.4	311	15
2023-08-07T12:00	5754	487	-19.7	-20.6	310	14
2023-08-07T12:00	5781	485	-19.9	-20.7	308	14
2023-08-07T12:00	5809	483	-20.2	-21.0	307	14
2023-08-07T12:00	5834	482	-20.3	-21.1	306	14
2023-08-07T12:00	5859	480	-20.4	-21.2	306	13
2023-08-07T12:00	5889	478	-20.6	-21.6	306	13
2023-08-07T12:00	5914	477	-20.6	-21.8	306	13
2023-08-07T12:00	5936	475	-20.8	-21.7	305	12
2023-08-07T12:00	5964	473	-21.0	-21.9	304	12
2023-08-07T12:00	5990	472	-21.2	-21.9	302	11
2023-08-07T12:00	6016	470	-21.4	-22.1	299	11
2023-08-07T12:00	6042	468	-21.6	-22.1	297	11
2023-08-07T12:00	6066	467	-21.9	-22.2	295	12
2023-08-07T12:00	6101	465	-22.1	-22.5	294	12
2023-08-07T12:00	6128	463	-22.3	-22.4	294	11
2023-08-07T12:00	6155	461	-22.5	-22.7	295	11
2023-08-07T12:00	6186	459	-22.8	-23.0	295	10
2023-08-07T12:00	6211	458	-22.9	-23.1	294	10
2023-08-07T12:00	6233	456	-23.0	-23.4	291	9
2023-08-07T12:00	6257	455	-23.1	-23.5	287	9
2023-08-07T12:00	6285	453	-23.3	-23.8	282	10
2023-08-07T12:00	6310	452	-23.5	-24.1	278	10
2023-08-07T12:00	6345	449	-23.7	-24.8	275	10
2023-08-07T12:00	6375	448	-23.9	-24.8	273	10
2023-08-07T12:00	6400	446	-24.1	-25.2	272	10
2023-08-07T12:00	6429	444	-24.3	-25.4	271	10
2023-08-07T12:00	6454	443	-24.5	-25.4	270	10
2023-08-07T12:00	6480	441	-24.7	-25.5	268	9
2023-08-07T12:00	6503	440	-25.0	-25.4	267	9
2023-08-07T12:00	6529	438	-25.2	-25.6	267	10
2023-08-07T12:00	6551	437	-25.5	-25.7	268	10
2023-08-07T12:00	6580	435	-25.7	-25.9	270	10
2023-08-07T12:00	6610	433	-26.0	-26.1	273	11
2023-08-07T12:00	6631	432	-26.2	-26.2	274	11
2023-08-07T12:00	6653	431	-26.3	-26.5	274	12
2023-08-07T12:00	6680	429	-26.3	-26.9	274	12
2023-08-07T12:00	6725	427	-26.4	-28.0	273	12
2023-08-07T12:00	6751	425	-26.5	-28.3	274	12
2023-08-07T12:00	6774	424	-26.6	-28.7	276	13
2023-08-07T12:00	6793	422	-26.6	-29.0	279	13
2023-08-07T12:00	6822	421	-26.7	-29.4	281	13
2023-08-07T12:00	6857	419	-26.8	-29.4	283	13
2023-08-07T12:00	6878	418	-26.9	-29.4	284	13
2023-08-07T12:00	6897	417	-27.1	-29.4	284	13
2023-08-07T12:00	6917	415	-27.2	-29.4	284	13
2023-08-07T12:00	6937	414	-27.4	-29.7	285	12
2023-08-07T12:00	6958	413	-27.5	-29.8	286	12
2023-08-07T12:00	6985	412	-27.7	-30.1	287	12
2023-08-07T12:00	7009	410	-27.8	-30.4	288	12
2023-08-07T12:00	7042	408	-28.1	-30.5	289	12
2023-08-07T12:00	7071	407	-28.2	-30.5	289	12
2023-08-07T12:00	7094	405	-28.4	-30.7	289	11
2023-08-07T12:00	7125	404	-28.4	-30.9	289	10
2023-08-07T12:00	7142	403	-28.4	-30.9	290	9
2023-08-07T12:00	7162	401	-28.6	-31.0	290	9
2023-08-07T12:00	7182	400	-28.6	-30.8	289	9
2023-08-07T12:00	7202	399	-28.7	-31.1	287	9
2023-08-07T12:00	7224	398	-28.7	-31.1	285	9
2023-08-07T12:00	7243	397	-28.7	-31.0	282	9
2023-08-07T12:00	7266	396	-28.9	-31.1	280	8
2023-08-07T12:00	7294	394	-29.0		278	8
2023-08-07T12:00	7326	392	-29.2	-31.9	276	8
2023-08-07T12:00	7350	391	-29.4	-32.2	275	9
2023-08-07T12:00	7376	390	-29.6	-32.6	275	9
2023-08-07T12:00	7400	388	-29.5	-32.4	276	10
2023-08-07T12:00	7428	387	-29.5	-32.6	279	10
2023-08-07T12:00	7458	385	-29.6	-33.0	282	10
2023-08-07T12:00	7491	383	-29.8	-33.0	286	10
2023-08-07T12:00	7530	382	-30.1	-33.1	288	9
2023-08-07T12:00	7549	380	-30.2	-33.5	289	9
2023-08-07T12:00	7570	379	-30.4	-33.4	288	9
2023-08-07T12:00	7593	378	-30.6	-33.6	285	9
2023-08-07T12:00	7618	377	-30.8	-34.0	283	8
2023-08-07T12:00	7647	375	-31.0	-34.0	282	8
2023-08-07T12:00	7679	373	-31.3	-34.4	282	8
2023-08-07T12:00	7721	371	-31.7	-34.7	284	8
2023-08-07T12:00	7760	369	-32.0	-35.0	285	8
2023-08-07T12:00	7779	368	-32.2	-34.9	286	8
2023-08-07T12:00	7798	367	-32.3	-34.9	286	8
2023-08-07T12:00	7819	366	-32.5	-35.2	286	9
2023-08-07T12:00	7837	365	-32.7	-35.7	286	9
2023-08-07T12:00	7861	364	-32.8	-35.9	286	9
2023-08-07T12:00	7882	363	-33.0	-36.3	288	9
2023-08-07T12:00	7903	362	-33.2	-36.3	290	8
2023-08-07T12:00	7927	360	-33.4	-36.6	293	8
2023-08-07T12:00	7958	359	-33.7	-37.2	296	7
2023-08-07T12:00	7988	357	-33.9	-37.3	298	7
2023-08-07T12:00	8015	356	-34.2	-37.7	299	7
2023-08-07T12:00	8042	355	-34.4	-37.8	299	7
2023-08-07T12:00	8076	353	-34.7	-37.6	299	7
2023-08-07T12:00	8103	351	-34.9	-37.8	300	7
2023-08-07T12:00	8130	350	-35.1	-38.0	303	7
2023-08-07T12:00	8162	349	-35.3	-38.3	305	7
2023-08-07T12:00	8194	347	-35.6	-38.7	307	6
2023-08-07T12:00	8223	345	-35.8	-38.9	307	6
2023-08-07T12:00	8256	344	-36.1	-39.0	306	6
2023-08-07T12:00	8277	343	-36.3	-39.2	305	6
2023-08-07T12:00	8298	342	-36.5	-39.4	304	6
2023-08-07T12:00	8321	341	-36.7	-39.6	303	5
2023-08-07T12:00	8341	340	-36.8	-39.8	304	5
2023-08-07T12:00	8363	339	-37.0	-40.0	306	5
2023-08-07T12:00	8387	337	-37.2	-40.0	307	4
2023-08-07T12:00	8414	336	-37.5	-40.3	307	4
2023-08-07T12:00	8441	335	-37.7	-40.5	306	5
2023-08-07T12:00	8474	333	-38.0	-40.8	305	5
2023-08-07T12:00	8505	332	-38.2	-41.1	305	5
2023-08-07T12:00	8531	330	-38.5	-41.5	305	5
2023-08-07T12:00	8563	329	-38.8	-41.7	306	5
2023-08-07T12:00	8596	327	-39.1	-41.9	308	5
2023-08-07T12:00	8630	326	-39.3	-42.3	310	5
2023-08-07T12:00	8654	325	-39.5	-42.4	314	5
2023-08-07T12:00	8679	323	-39.7	-42.4	319	5
2023-08-07T12:00	8706	322	-40.0	-42.6	324	6
2023-08-07T12:00	8735	321	-40.2	-42.7	330	6
2023-08-07T12:00	8766	319	-40.4	-42.9	334	6
2023-08-07T12:00	8795	318	-40.7	-43.2	335	6
2023-08-07T12:00	8825	317	-40.9	-43.4	333	6
2023-08-07T12:00	8857	315	-41.2	-43.7	329	6
2023-08-07T12:00	8895	313	-41.5	-43.7	324	6
2023-08-07T12:00	8925	312	-41.8	-44.0	320	6
2023-08-07T12:00	8941	311	-42.0	-44.2	319	6
2023-08-07T12:00	8963	310	-42.2	-44.2	319	5
2023-08-07T12:00	8983	309	-42.3	-44.4	321	5
2023-08-07T12:00	9002	308	-42.5	-44.7	322	5
2023-08-07T12:00	9024	307	-42.7	-44.9	323	5
2023-08-07T12:00	9046	306	-42.9	-45.1	323	5
2023-08-07T12:00	9069	305	-43.1	-45.3	322	5
2023-08-07T12:00	9088	304	-43.3	-45.4	322	4
2023-08-07T12:00	9106	304	-43.4	-45.2	322	4
2023-08-07T12:00	9128	303	-43.6	-45.5	322	4
2023-08-07T12:00	9149	302	-43.8	-45.7	323	5
2023-08-07T12:00	9170	301	-44.0	-45.7	324	5
2023-08-07T12:00	9191	300	-44.2	-45.9	325	5
2023-08-07T12:00	9213	299	-44.4	-46.0	327	5
2023-08-07T12:00	9237	298	-44.6	-45.9	328	5
2023-08-07T12:00	9262	297	-44.9	-46.0	330	5
2023-08-07T12:00	9284	296	-45.0	-46.3	331	5
2023-08-07T12:00	9307	295	-45.2	-46.6	331	5
2023-08-07T12:00	9330	294	-45.5	-46.9	330	5
2023-08-07T12:00	9352	293	-45.6	-46.9	331	4
2023-08-07T12:00	9375	292	-45.8	-46.8	331	4
2023-08-07T12:00	9395	291	-46.0	-47.2	331	4
2023-08-07T12:00	9420	290	-46.3	-47.9	331	4
2023-08-07T12:00	9443	289	-46.5	-48.0	330	4
2023-08-07T12:00	9465	288	-46.7	-47.9	328	4
2023-08-07T12:00	9488	287	-46.8	-48.1	327	4
2023-08-07T12:00	9514	286	-47.0	-48.2	326	4
2023-08-07T12:00	9539	285	-47.3	-48.5	325	4
2023-08-07T12:00	9562	283	-47.5	-48.9	322	4
2023-08-07T12:00	9591	282	-47.8	-50.2	320	4
2023-08-07T12:00	9618	281	-48.0		318	4
2023-08-07T12:00	9646	280	-48.2	-49.3	317	4
2023-08-07T12:00	9673	279	-48.4	-49.2	318	4
2023-08-07T12:00	9703	278	-48.6	-49.6	321	4
2023-08-07T12:00	9724	277	-48.8	-49.9	325	4
2023-08-07T12:00	9749	276	-49.1	-50.6	330	4
2023-08-07T12:00	9772	275	-49.1	-51.6	336	4
2023-08-07T12:00	9795	274	-49.0	-51.7	343	4
2023-08-07T12:00	9821	273	-49.0	-51.3	349	4
2023-08-07T12:00	9850	271	-49.2	-51.1	355	4
2023-08-07T12:00	9874	270	-49.3	-50.9	1	4
2023-08-07T12:00	9899	269	-49.3	-50.5	9	3
2023-08-07T12:00	9924	268	-49.5	-51.2	21	3
2023-08-07T12:00	9952	267	-49.1	-55.2	42	2
2023-08-07T12:00	9978	266	-48.7	-67.2	72	2
2023-08-07T12:00	9999	265	-48.4	-77.6	94	2
2023-08-07T12:00	10021	264	-47.9	-75.9	106	3
2023-08-07T12:00	10043	264	-47.4	-74.4	113	3
2023-08-07T12:00	10062	263	-47.3	-70.7	118	2
2023-08-07T12:00	10083	262	-47.0	-69.3	124	2
2023-08-07T12:00	10105	261	-46.6	-69.0	136	2
2023-08-07T12:00	10125	260	-46.4	-69.1	152	2
2023-08-07T12:00	10145	260	-46.3	-69.0	168	2
2023-08-07T12:00	10165	259	-45.9	-68.6	179	2
2023-08-07T12:00	10186	258	-45.2	-68.9	184	2
2023-08-07T12:00	10207	257	-44.7	-69.3	182	2
2023-08-07T12:00	10225	256	-44.5	-69.5	175	2
2023-08-07T12:00	10246	256	-44.3	-69.5	167	3
2023-08-07T12:00	10265	255	-44.3	-69.3	158	3
2023-08-07T12:00	10284	254	-44.4	-69.4	151	4
2023-08-07T12:00	10304	253	-44.3	-69.7	146	4
2023-08-07T12:00	10326	253	-44.2	-69.6	142	4
2023-08-07T12:00	10344	252	-44.2	-69.4	141	5
2023-08-07T12:00	10362	251	-44.3	-70.3	141	5
2023-08-07T12:00	10383	250	-44.3	-70.5	142	6
2023-08-07T12:00	10405	250	-44.2	-70.9	142	7
2023-08-07T12:00	10425	249	-44.2	-71.1	142	7
2023-08-07T12:00	10446	248	-44.0	-71.0	142	8
2023-08-07T12:00	10464	247	-43.9	-71.1	143	8
2023-08-07T12:00	10485	247	-43.8	-71.0	144	8
2023-08-07T12:00	10503	246	-43.4	-71.8	146	8
2023-08-07T12:00	10522	245	-43.1	-71.9	149	8
2023-08-07T12:00	10541	245	-42.9	-71.7	151	8
2023-08-07T12:00	10563	244	-42.9	-72.0	154	7
2023-08-07T12:00	10581	243	-42.7	-71.9	155	7
2023-08-07T12:00	10601	242	-42.6	-72.1	156	7
2023-08-07T12:00	10621	242	-42.4	-72.0	155	7
2023-08-07T12:00	10640	241	-42.4	-72.3	155	7
2023-08-07T12:00	10660	240	-42.3	-72.2	154	7
2023-08-07T12:00	10679	240	-42.2	-72.1	154	7
2023-08-07T12:00	10700	239	-42.2	-72.1	154	7
2023-08-07T12:00	10721	238	-42.0	-72.0	154	7
2023-08-07T12:00	10741	237	-42.0	-72.3	155	7
2023-08-07T12:00	10762	237	-41.9	-72.3	154	7
2023-08-07T12:00	10782	236	-41.7	-72.1	153	8
2023-08-07T12:00	10803	235	-41.6	-72.4	151	8
2023-08-07T12:00	10824	235	-41.6	-72.4	149	8
2023-08-07T12:00	10843	234	-41.4	-72.7	147	8
2023-08-07T12:00	10864	233	-41.2	-72.9	147	9
2023-08-07T12:00	10885	233	-41.1	-72.4	146	9
2023-08-07T12:00	10905	232	-41.1	-72.9	147	9
2023-08-07T12:00	10928	231	-41.2	-72.9	148	9
2023-08-07T12:00	10948	230	-41.2	-72.9	150	9
2023-08-07T12:00	10969	230	-41.2	-73.4	151	9
2023-08-07T12:00	10993	229	-41.2	-73.4	153	10
2023-08-07T12:00	11014	228	-41.2	-73.4	155	10
2023-08-07T12:00	11036	227	-41.0	-73.2	156	10
2023-08-07T12:00	11056	227	-40.9	-73.2	156	10
2023-08-07T12:00	11079	226	-41.0	-73.2	155	11
2023-08-07T12:00	11102	225	-41.1	-73.8	154	11
2023-08-07T12:00	11122	225	-41.0	-73.7	153	11
2023-08-07T12:00	11142	224	-41.0	-73.7	152	11
2023-08-07T12:00	11164	223	-40.9	-73.6	152	11
2023-08-07T12:00	11183	223	-40.6	-73.4	152	11
2023-08-07T12:00	11203	222	-40.5	-73.9	152	10
2023-08-07T12:00	11223	221	-40.6	-73.9	152	10
2023-08-07T12:00	11245	221	-40.6	-73.9	150	10
2023-08-07T12:00	11267	220	-40.6	-73.9	149	10
2023-08-07T12:00	11285	219	-40.7	-74.0	148	10
2023-08-07T12:00	11304	219	-40.7	-74.0	147	11
2023-08-07T12:00	11328	218	-40.7	-74.0	147	11
2023-08-07T12:00	11350	217	-40.8	-74.1	148	11
2023-08-07T12:00	11368	217	-40.9	-74.2	150	11
2023-08-07T12:00	11389	216	-40.9	-74.2	151	11
2023-08-07T12:00	11408	215	-40.7	-74.0	152	11
2023-08-07T12:00	11428	215	-40.6	-73.9	153	11
2023-08-07T12:00	11444	214	-40.6	-73.9	153	11
2023-08-07T12:00	11463	214	-40.6	-73.9	153	11
2023-08-07T12:00	11484	213	-40.5	-74.4	153	12
2023-08-07T12:00	11502	212	-40.5	-74.4	153	12
2023-08-07T12:00	11522	212	-40.5	-74.4	154	13
2023-08-07T12:00	11543	211	-40.3	-74.3	155	13
2023-08-07T12:00	11564	210	-40.2	-74.2	155	14
2023-08-07T12:00	11582	210	-40.2	-74.2	156	14
2023-08-07T12:00	11602	209	-40.3	-74.3	158	14
2023-08-07T12:00	11622	209	-40.2	-74.2	159	13
2023-08-07T12:00	11640	208	-40.1	-74.1	161	13
2023-08-07T12:00	11657	208	-39.9	-74.0	162	12
2023-08-07T12:00	11678	207	-40.0	-74.1	163	12
2023-08-07T12:00	11698	206	-40.0	-74.1	165	11
2023-08-07T12:00	11717	206	-40.1	-74.1	166	11
2023-08-07T12:00	11735	205	-40.2	-74.2	168	10
2023-08-07T12:00	11754	205	-40.1	-74.1	169	10
2023-08-07T12:00	11772	204	-39.8	-73.9	170	10
2023-08-07T12:00	11795	203	-39.9	-74.0	169	9
2023-08-07T12:00	11813	203	-40.0	-74.1	168	9
2023-08-07T12:00	11831	202	-39.8	-74.5	165	9
2023-08-07T12:00	11852	202	-39.7	-74.5	162	9
2023-08-07T12:00	11872	201	-39.6	-74.4	158	9
2023-08-07T12:00	11893	201	-39.7	-74.5	156	10
2023-08-07T12:00	11913	200	-39.8	-74.5	154	10
2023-08-07T12:00	11934	199	-39.8	-74.5	153	10
2023-08-07T12:00	11953	199	-39.7	-74.5	152	11
2023-08-07T12:00	11972	198	-39.5	-74.3	151	11
2023-08-07T12:00	11992	198	-39.5	-74.3	151	11
2023-08-07T12:00	12013	197	-39.6	-74.4	151	11
2023-08-07T12:00	12033	196	-39.6	-74.4	151	11
2023-08-07T12:00	12056	196	-39.7	-74.5	151	11
2023-08-07T12:00	12075	195	-39.7	-74.5	151	10
2023-08-07T12:00	12094	195	-39.8	-74.5	151	10
2023-08-07T12:00	12117	194	-40.0	-74.1	150	10
2023-08-07T12:00	12139	193	-40.0	-74.1	150	11
2023-08-07T12:00	12158	193	-40.0	-74.1	150	11
2023-08-07T12:00	12180	192	-40.1	-74.1	150	11
2023-08-07T12:00	12200	192	-40.3	-74.3	150	11
2023-08-07T12:00	12223	191	-40.4	-74.4	151	11
2023-08-07T12:00	12245	190	-40.6	-74.5	152	11
2023-08-07T12:00	12264	190	-40.7	-74.6	153	11
2023-08-07T12:00	12287	189	-40.7	-74.6	154	11
2023-08-07T12:00	12309	189	-40.6	-74.5	154	11
2023-08-07T12:00	12329	188	-40.5	-74.4	154	10
2023-08-07T12:00	12349	188	-40.5	-74.4	154	10
2023-08-07T12:00	12369	187	-40.6	-74.5	154	10
2023-08-07T12:00	12391	186	-40.8	-74.7	153	10
2023-08-07T12:00	12414	186	-40.9	-74.7	153	10
2023-08-07T12:00	12436	185	-40.9	-74.7	152	9
2023-08-07T12:00	12456	185	-40.8	-74.7	152	9
2023-08-07T12:00	12479	184	-40.6	-75.1	152	8
2023-08-07T12:00	12498	183	-40.5	-75.0	154	8
2023-08-07T12:00	12519	183	-40.5	-75.0	157	7
2023-08-07T12:00	12539	182	-40.5	-75.0	160	7
2023-08-07T12:00	12559	182	-40.6	-75.1	164	8
2023-08-07T12:00	12580	181	-40.6	-75.1	166	8
2023-08-07T12:00	12600	181	-40.7	-75.2	166	8
2023-08-07T12:00	12621	180	-40.6	-75.1	165	8
2023-08-07T12:00	12642	180	-40.4	-75.0	164	8
2023-08-07T12:00	12663	179	-40.4	-75.0	162	8
2023-08-07T12:00	12682	179	-40.4	-75.0	160	8
2023-08-07T12:00	12702	178	-40.5	-75.0	158	8
2023-08-07T12:00	12724	178	-40.6	-75.1	156	8
2023-08-07T12:00	12746	177	-40.6	-75.1	155	8
2023-08-07T12:00	12763	176	-40.6	-75.1	153	8
2023-08-07T12:00	12784	176	-40.6	-75.1	151	8
2023-08-07T12:00	12806	175	-40.5	-75.0	150	8
2023-08-07T12:00	12825	175	-40.4	-75.0	151	7
2023-08-07T12:00	12847	174	-40.3	-74.9	153	7
2023-08-07T12:00	12868	174	-39.9	-74.6	157	7
2023-08-07T12:00	12889	173	-40.0	-74.7	161	7
2023-08-07T12:00	12911	173	-40.1	-74.8	166	7
2023-08-07T12:00	12931	172	-40.2	-74.8	170	8
2023-08-07T12:00	12954	172	-40.1	-74.8	174	8
2023-08-07T12:00	12974	171	-40.2	-74.8	177	8
2023-08-07T12:00	12995	171	-40.3	-74.9	180	9
2023-08-07T12:00	13017	170	-40.4	-75.0	183	9
2023-08-07T12:00	13036	170	-40.4	-75.0	186	9
2023-08-07T12:00	13056	169	-40.4	-75.0	188	9
2023-08-07T12:00	13076	169	-40.4	-75.0	190	9
2023-08-07T12:00	13097	168	-40.4	-75.0	191	9
2023-08-07T12:00	13117	168	-40.2	-74.8	192	9
2023-08-07T12:00	13138	167	-40.1	-74.8	193	9
2023-08-07T12:00	13157	167	-40.1	-75.4	192	9
2023-08-07T12:00	13180	166	-40.2	-74.8	191	9
2023-08-07T12:00	13199	166	-40.4	-75.0	190	9
2023-08-07T12:00	13219	165	-40.5	-75.0	188	9
2023-08-07T12:00	13239	165	-40.5	-75.0	187	8
2023-08-07T12:00	13261	164	-40.5	-75.0	186	8
2023-08-07T12:00	13283	164	-40.6	-75.1	184	8
2023-08-07T12:00	13305	163	-40.5	-75.0	183	8
2023-08-07T12:00	13325	163	-40.5	-75.0	181	8
2023-08-07T12:00	13346	162	-40.5	-75.0	179	8
2023-08-07T12:00	13367	162	-40.7	-75.2	177	8
2023-08-07T12:00	13387	161	-40.7	-75.2	174	8
2023-08-07T12:00	13409	161	-40.8	-75.3	172	8
2023-08-07T12:00	13430	160	-40.9	-75.3	170	8
2023-08-07T12:00	13452	160	-41.0	-75.4	167	8
2023-08-07T12:00	13473	159	-41.0	-75.4	164	8
2023-08-07T12:00	13497	158	-41.1	-75.5	161	9
2023-08-07T12:00	13520	158	-41.3	-75.6	160	9
2023-08-07T12:00	13542	157	-41.5	-75.8	159	9
2023-08-07T12:00	13567	157	-41.6	-75.8	159	10
2023-08-07T12:00	13597	156	-41.8	-76.0	158	10
2023-08-07T12:00	13632	155	-42.0	-76.1	156	11
2023-08-07T12:00	13658	155	-42.2	-76.3	153	11
2023-08-07T12:00	13688	154	-42.3	-76.4	150	12
2023-08-07T12:00	13715	153	-42.6	-76.6	147	12
2023-08-07T12:00	13736	153	-42.8	-76.7	145	13
2023-08-07T12:00	13760	152	-42.9	-76.8	144	14
2023-08-07T12:00	13783	152	-42.8	-76.7	143	14
2023-08-07T12:00	13805	151	-42.8	-76.7	142	15
2023-08-07T12:00	13828	151	-42.9	-76.8	141	16
2023-08-07T12:00	13852	150	-43.1	-76.9	141	16
2023-08-07T12:00	13876	150	-43.2	-77.0	140	17
2023-08-07T12:00	13899	149	-43.2	-77.0	140	17
2023-08-07T12:00	13921	149	-43.0	-76.9	141	17
2023-08-07T12:00	13944	148	-42.8	-76.7	142	17
2023-08-07T12:00	13968	148	-43.0	-76.9	143	17
2023-08-07T12:00	13995	147	-43.0	-76.9	145	17
2023-08-07T12:00	14018	147	-43.2	-76.4	146	16
2023-08-07T12:00	14043	146	-43.3	-76.5	147	16
2023-08-07T12:00	14064	146	-43.4	-76.6	147	15
2023-08-07T12:00	14087	145	-43.4	-76.6	148	15
2023-08-07T12:00	14114	145	-43.4	-76.6	149	14
2023-08-07T12:00	14136	144	-43.5	-76.6	151	14
2023-08-07T12:00	14157	144	-43.5	-76.6	152	13
2023-08-07T12:00	14180	143	-43.5	-76.6	153	13
2023-08-07T12:00	14204	143	-43.6	-76.7	155	13
2023-08-07T12:00	14228	142	-43.7	-76.8	157	12
2023-08-07T12:00	14249	142	-43.7	-76.8	159	12
2023-08-07T12:00	14275	141	-43.8	-76.9	161	12
2023-08-07T12:00	14298	141	-44.0	-77.0	163	11
2023-08-07T12:00	14324	140	-44.2	-77.1	166	11
2023-08-07T12:00	14348	140	-44.2	-77.1	168	10
2023-08-07T12:00	14372	139	-44.3	-77.2	170	10
2023-08-07T12:00	14396	139	-44.5	-77.4	173	10
2023-08-07T12:00	14419	138	-44.7	-77.5	176	10
2023-08-07T12:00	14448	138	-44.9	-77.7	178	10
2023-08-07T12:00	14469	137	-45.1	-77.8	180	11
2023-08-07T12:00	14494	137	-45.1	-77.8	181	11
2023-08-07T12:00	14515	136	-45.2	-77.9	181	12
2023-08-07T12:00	14538	136	-45.1	-77.8	181	12
2023-08-07T12:00	14561	135	-45.1	-77.8	180	13
2023-08-07T12:00	14581	135	-45.1	-77.8	179	13
2023-08-07T12:00	14605	134	-45.1	-77.8	177	13
2023-08-07T12:00	14627	134	-45.2	-77.9	176	13
2023-08-07T12:00	14647	134	-45.3	-77.4	174	13
2023-08-07T12:00	14671	133	-45.5	-77.6	172	13
2023-08-07T12:00	14691	133	-45.6	-77.6	171	13
2023-08-07T12:00	14712	132	-45.8	-77.8	170	12
2023-08-07T12:00	14734	132	-45.9	-77.9	168	12
2023-08-07T12:00	14753	131	-46.0	-77.9	167	12
2023-08-07T12:00	14775	131	-46.1	-78.0	166	12
2023-08-07T12:00	14796	131	-46.3	-78.2	165	12
2023-08-07T12:00	14814	130	-46.5	-78.3	164	12
2023-08-07T12:00	14838	130	-46.6	-78.4	163	12
2023-08-07T12:00	14858	129	-46.7	-78.4	162	12
2023-08-07T12:00	14879	129	-46.7	-78.4	162	13
2023-08-07T12:00	14898	129	-46.5	-78.3	162	14
2023-08-07T12:00	14919	128	-46.4	-78.2	163	14
2023-08-07T12:00	14939	128	-46.3	-78.2	163	14
2023-08-07T12:00	14959	127	-46.3	-78.7	164	15
2023-08-07T12:00	14978	127	-46.2	-78.6	165	15
2023-08-07T12:00	14998	127	-46.1	-78.5	166	14
2023-08-07T12:00	15019	126	-46.1	-78.5	167	14
2023-08-07T12:00	15039	126	-46.2	-78.6	168	14
2023-08-07T12:00	15061	126	-46.3	-78.7	169	13
2023-08-07T12:00	15081	125	-46.3	-78.7	171	13
2023-08-07T12:00	15101	125	-46.1	-78.5	173	13
2023-08-07T12:00	15120	124	-46.0	-78.5	175	13
2023-08-07T12:00	15138	124	-45.7	-78.2	177	12
2023-08-07T12:00	15161	124	-45.8	-78.3	178	12
2023-08-07T12:00	15182	123	-45.9	-78.4	179	12
2023-08-07T12:00	15204	123	-45.9	-78.4	181	12
2023-08-07T12:00	15223	122	-46.0	-78.5	182	12
2023-08-07T12:00	15242	122	-46.1	-78.5	184	11
2023-08-07T12:00	15266	122	-46.2	-78.6	186	11
2023-08-07T12:00	15288	121	-46.3	-78.7	187	11
2023-08-07T12:00	15306	121	-46.3	-78.7	188	12
2023-08-07T12:00	15328	121	-46.5	-78.8	189	11
2023-08-07T12:00	15348	120	-46.7	-79.0	190	11
2023-08-07T12:00	15370	120	-46.7	-79.0	190	11
2023-08-07T12:00	15390	119	-46.8	-79.1	190	11
2023-08-07T12:00	15411	119	-46.5	-78.8	190	10
2023-08-07T12:00	15432	119	-45.9	-79.0	191	10
2023-08-07T12:00	15453	118	-45.8	-78.9	191	10
2023-08-07T12:00	15475	118	-45.7	-78.8	192	10
2023-08-07T12:00	15497	118	-45.9	-79.0	193	10
2023-08-07T12:00	15517	117	-46.1	-78.5	195	9
2023-08-07T12:00	15538	117	-46.3	-78.7	196	9
2023-08-07T12:00	15560	116	-46.5	-78.8	198	9
2023-08-07T12:00	15582	116	-46.6	-78.9	199	9
2023-08-07T12:00	15604	116	-46.8	-79.1	200	8
2023-08-07T12:00	15627	115	-46.8	-79.1	201	8
2023-08-07T12:00	15646	115	-46.8	-79.1	200	8
2023-08-07T12:00	15668	115	-46.7	-79.0	199	7
2023-08-07T12:00	15693	114	-46.7	-79.0	196	7
2023-08-07T12:00	15715	114	-46.8	-79.1	193	7
2023-08-07T12:00	15739	113	-46.8	-79.1	189	7
2023-08-07T12:00	15763	113	-47.0	-79.2	184	7
2023-08-07T12:00	15792	112	-47.2	-79.4	180	8
2023-08-07T12:00	15817	112	-47.4	-79.5	175	8
2023-08-07T12:00	15841	112	-47.5	-79.0	173	8
2023-08-07T12:00	15867	111	-47.8	-79.3	171	8
2023-08-07T12:00	15895	111	-48.0	-79.4	170	9
2023-08-07T12:00	15920	110	-48.2	-79.6	169	9
2023-08-07T12:00	15943	110	-48.4	-79.7	169	9
2023-08-07T12:00	15967	110	-48.5	-79.8	169	9
2023-08-07T12:00	15986	109	-48.7	-79.9	169	9
2023-08-07T12:00	16011	109	-48.8	-79.5	170	10
2023-08-07T12:00	16030	108	-49.0	-79.7	171	10
2023-08-07T12:00	16051	108	-49.1	-79.7	171	10
2023-08-07T12:00	16072	108	-49.3	-79.9	172	11
2023-08-07T12:00	16092	107	-49.4	-80.0	172	11
2023-08-07T12:00	16115	107	-49.4	-80.5	172	10
2023-08-07T12:00	16136	107	-49.4	-80.5	171	10
2023-08-07T12:00	16158	106	-49.3	-80.4	170	10
2023-08-07T12:00	16182	106	-49.2	-80.3	168	10
2023-08-07T12:00	16206	106	-49.2	-80.3	165	10
2023-08-07T12:00	16228	105	-49.1	-80.2	164	10
2023-08-07T12:00	16246	105	-49.3	-80.4	164	10
2023-08-07T12:00	16270	105	-49.4	-80.5	165	11
2023-08-07T12:00	16291	104	-49.6	-80.6	166	11
2023-08-07T12:00	16313	104	-49.8	-80.8	169	11
2023-08-07T12:00	16334	104	-49.8	-80.8	171	11
2023-08-07T12:00	16355	103	-49.7	-80.7	173	11
2023-08-07T12:00	16375	103	-49.6	-80.6	175	12
2023-08-07T12:00	16399	103	-49.6	-80.6	177	11
2023-08-07T12:00	16417	102	-49.7	-80.7	177	11
2023-08-07T12:00	16440	102	-49.8	-80.8	177	11
2023-08-07T12:00	16464	101	-49.8	-80.8	176	10
2023-08-07T12:00	16489	101	-49.5	-81.1	173	9
2023-08-07T12:00	16509	101	-48.9	-80.6	170	9
2023-08-07T12:00	16533	100	-48.6	-80.4	167	8
2023-08-07T12:00	16556	100	-48.6	-80.4	163	8
2023-08-07T12:00	16579	100	-48.5	-80.3	161	8
2023-08-07T12:00	16602	99	-48.6	-80.4	160	8
2023-08-07T12:00	16624	99	-48.7	-80.5	159	8
2023-08-07T12:00	16649	99	-48.9	-80.6	159	8
2023-08-07T12:00	16672	98	-49.1	-80.2	159	8
2023-08-07T12:00	16695	98	-49.3	-80.4	160	8
2023-08-07T12:00	16718	98	-49.4	-80.5	160	8
2023-08-07T12:00	16742	97	-49.5	-80.5	160	8
2023-08-07T12:00	16762	97	-49.7	-80.7	159	8
2023-08-07T12:00	16788	97	-49.9	-80.8	157	8
2023-08-07T12:00	16810	96	-50.0	-80.9	154	8
2023-08-07T12:00	16833	96	-49.9	-80.8	152	8
2023-08-07T12:00	16856	96	-49.8	-80.8	149	9
2023-08-07T12:00	16878	95	-49.8	-80.8	147	9
2023-08-07T12:00	16901	95	-49.8	-80.8	145	10
2023-08-07T12:00	16927	95	-50.0	-80.9	144	10
2023-08-07T12:00	16947	94	-50.1	-81.0	143	10
2023-08-07T12:00	16968	94	-50.2	-81.0	144	10
2023-08-07T12:00	16997	94	-50.3	-81.1	145	10
2023-08-07T12:00	17020	93	-50.5	-81.3	148	10
2023-08-07T12:00	17039	93	-50.7	-80.9	151	10
2023-08-07T12:00	17065	93	-50.7	-80.9	154	10
2023-08-07T12:00	17088	92	-50.8	-81.0	157	10
2023-08-07T12:00	17115	92	-51.0	-81.2	160	10
2023-08-07T12:00	17135	92	-51.1	-81.2	163	9
2023-08-07T12:00	17157	91	-51.2	-81.3	165	9
2023-08-07T12:00	17185	91	-51.3	-81.4	166	8
2023-08-07T12:00	17209	91	-51.3	-81.4	166	8
2023-08-07T12:00	17232	90	-51.3	-81.4	167	8
2023-08-07T12:00	17256	90	-51.2	-81.8	168	8
2023-08-07T12:00	17279	90	-51.1	-81.7	170	8
2023-08-07T12:00	17305	89	-50.8	-81.5	174	9
2023-08-07T12:00	17326	89	-50.7	-81.4	178	9
2023-08-07T12:00	17346	89	-50.8	-81.5	181	10
2023-08-07T12:00	17369	88	-50.8	-81.5	184	11
2023-08-07T12:00	17392	88	-50.8	-81.5	185	11
2023-08-07T12:00	17412	88	-50.9	-81.6	186	11
2023-08-07T12:00	17434	87	-51.0	-81.6	187	11
2023-08-07T12:00	17455	87	-50.9	-81.6	187	11
2023-08-07T12:00	17481	87	-50.8	-81.5	187	10
2023-08-07T12:00	17502	87	-50.6	-81.3	187	10
2023-08-07T12:00	17525	86	-50.3	-81.1	187	10
2023-08-07T12:00	17546	86	-50.3	-81.6	188	10
2023-08-07T12:00	17568	86	-50.4	-81.2	189	10
2023-08-07T12:00	17592	85	-50.4	-81.2	190	10
2023-08-07T12:00	17617	85	-50.5	-81.3	190	10
2023-08-07T12:00	17637	85	-50.5	-81.3	191	10
2023-08-07T12:00	17658	85	-50.5	-81.3	191	10
2023-08-07T12:00	17683	84	-50.6	-81.3	191	10
2023-08-07T12:00	17705	84	-50.6	-81.3	191	9
2023-08-07T12:00	17727	84	-50.7	-81.4	191	9
2023-08-07T12:00	17748	83	-50.7	-81.4	190	8
2023-08-07T12:00	17772	83	-50.8	-81.5	189	8
2023-08-07T12:00	17798	83	-50.9	-81.6	187	8
2023-08-07T12:00	17819	82	-51.0	-81.6	184	7
2023-08-07T12:00	17846	82	-51.2	-81.8	179	7
2023-08-07T12:00	17866	82	-51.4	-81.5	174	7
2023-08-07T12:00	17889	82	-51.5	-81.5	168	7
2023-08-07T12:00	17917	81	-51.6	-81.6	163	7
2023-08-07T12:00	17942	81	-51.7	-81.7	159	7
2023-08-07T12:00	17965	81	-51.8	-81.8	157	7
2023-08-07T12:00	17990	80	-51.7	-81.7	158	7
2023-08-07T12:00	18012	80	-51.6	-81.6	160	7
2023-08-07T12:00	18037	80	-51.5	-82.0	165	7
2023-08-07T12:00	18061	79	-51.5	-82.0	169	7
2023-08-07T12:00	18085	79	-51.5	-82.0	173	7
2023-08-07T12:00	18106	79	-51.5	-82.0	177	7
2023-08-07T12:00	18132	79	-51.4	-81.9	180	7
2023-08-07T12:00	18154	78	-51.4	-81.9	183	8
2023-08-07T12:00	18181	78	-51.5	-82.0	185	8
2023-08-07T12:00	18202	78	-51.6	-82.1	187	8
2023-08-07T12:00	18226	77	-51.8	-81.8	189	8
2023-08-07T12:00	18252	77	-51.9	-81.8	191	8
2023-08-07T12:00	18276	77	-52.0	-81.9	192	8
2023-08-07T12:00	18304	77	-52.1	-82.0	191	7
2023-08-07T12:00	18329	76	-52.2	-82.1	189	6
2023-08-07T12:00	18356	76	-51.9	-82.3	184	5
2023-08-07T12:00	18381	76	-51.5	-82.0	176	4
2023-08-07T12:00	18410	75	-51.5	-82.0	165	4
2023-08-07T12:00	18436	75	-51.6	-82.1	153	4
2023-08-07T12:00	18462	75	-51.8	-82.2	142	4
2023-08-07T12:00	18487	74	-51.9	-82.3	135	5
2023-08-07T12:00	18512	74	-52.0	-82.4	131	5
2023-08-07T12:00	18535	74	-51.9	-82.3	129	6
2023-08-07T12:00	18562	74	-51.8	-82.2	129	7
2023-08-07T12:00	18587	73	-51.9	-82.3	130	8
2023-08-07T12:00	18613	73	-52.0	-82.4	131	9
2023-08-07T12:00	18637	73	-52.0	-82.4	132	10
2023-08-07T12:00	18663	72	-52.2	-82.1	133	10
2023-08-07T12:00	18688	72	-52.2	-82.1	133	11
2023-08-07T12:00	18711	72	-52.3	-82.1	134	12
2023-08-07T12:00	18733	72	-52.6	-82.4	134	13
2023-08-07T12:00	18760	71	-52.9	-82.6	135	13
2023-08-07T12:00	18785	71	-53.1	-82.7	136	14
2023-08-07T12:00	18808	71	-53.1	-82.3	138	14
2023-08-07T12:00	18831	71	-53.2	-82.4	140	14
2023-08-07T12:00	18854	70	-53.3	-82.5	142	14
2023-08-07T12:00	18873	70	-53.3	-82.5	145	14
2023-08-07T12:00	18896	70	-53.3	-82.5	148	13
2023-08-07T12:00	18921	70	-53.4	-83.0	150	13
2023-08-07T12:00	18948	69	-53.3	-82.9	153	12
2023-08-07T12:00	18970	69	-52.9	-82.6	156	12
2023-08-07T12:00	18990	69	-52.8	-83.0	160	11
2023-08-07T12:00	19014	69	-52.7	-82.9	162	11
2023-08-07T12:00	19038	68	-52.6	-82.8	165	11
2023-08-07T12:00	19059	68	-52.4	-82.7	166	10
2023-08-07T12:00	19084	68	-52.1	-82.5	168	10
2023-08-07T12:00	19105	68	-52.1	-82.5	169	10
2023-08-07T12:00	19127	67	-52.1	-82.5	172	9
2023-08-07T12:00	19148	67	-52.2	-82.5	175	9
2023-08-07T12:00	19168	67	-52.2	-82.5	179	9
2023-08-07T12:00	19196	67	-52.1	-82.5	183	8
2023-08-07T12:00	19216	66	-52.1	-82.5	188	8
2023-08-07T12:00	19243	66	-52.1	-82.5	192	7
2023-08-07T12:00	19262	66	-52.3	-82.6	197	7
2023-08-07T12:00	19288	66	-52.5	-82.8	200	7
2023-08-07T12:00	19309	66	-52.5	-82.8	201	7
2023-08-07T12:00	19331	65	-52.4	-82.7	200	7
2023-08-07T12:00	19354	65	-52.2	-82.5	198	7
2023-08-07T12:00	19377	65	-52.1	-82.5	196	7
2023-08-07T12:00	19397	65	-52.1	-82.5	194	8
2023-08-07T12:00	19423	64	-52.1	-82.5	195	8
2023-08-07T12:00	19447	64	-52.1	-82.5	196	7
2023-08-07T12:00	19470	64	-52.2	-82.5	200	7
2023-08-07T12:00	19497	64	-51.9	-82.3	204	7
2023-08-07T12:00	19516	63	-51.7	-82.2	208	6
2023-08-07T12:00	19545	63	-51.5	-82.5	212	6
2023-08-07T12:00	19569	63	-51.5	-82.0	214	5
2023-08-07T12:00	19594	63	-51.7	-82.2	214	5
2023-08-07T12:00	19622	62	-51.8	-82.2	212	4
2023-08-07T12:00	19644	62	-52.0	-82.4	204	4
2023-08-07T12:00	19672	62	-52.1	-82.5	192	3
2023-08-07T12:00	19698	62	-52.2	-82.5	172	3
2023-08-07T12:00	19723	61	-52.3	-82.6	152	3
2023-08-07T12:00	19751	61	-52.5	-82.8	135	3
2023-08-07T12:00	19776	61	-52.4	-82.7	125	3
2023-08-07T12:00	19797	61	-52.3	-82.6	121	4
2023-08-07T12:00	19822	61	-52.3	-82.6	121	4
2023-08-07T12:00	19845	60	-52.4	-82.7	121	4
2023-08-07T12:00	19871	60	-52.4	-82.7	122	3
2023-08-07T12:00	19896	60	-52.5	-82.8	120	3
2023-08-07T12:00	19920	60	-52.6	-82.4	115	2
2023-08-07T12:00	19941	59	-52.8	-82.5	106	2
2023-08-07T12:00	19969	59	-52.9	-82.6	96	2
2023-08-07T12:00	19991	59	-53.0	-82.7	87	2
2023-08-07T12:00	20014	59	-53.0	-82.7	82	2
2023-08-07T12:00	20037	59	-53.1	-82.7	79	3
2023-08-07T12:00	20059	58	-53.2	-82.8	78	3
2023-08-07T12:00	20081	58	-53.2	-82.8	78	4
2023-08-07T12:00	20110	58	-53.2	-82.8	78	5
2023-08-07T12:00	20131	58	-53.2	-82.8	80	5
2023-08-07T12:00	20162	57	-53.2	-82.8	83	5
2023-08-07T12:00	20187	57	-53.2	-82.8	88	5
2023-08-07T12:00	20210	57	-53.3	-82.9	98	4
2023-08-07T12:00	20238	57	-53.4	-83.0	111	4
2023-08-07T12:00	20260	57	-53.6	-83.1	124	4
2023-08-07T12:00	20285	56	-53.7	-83.2	135	4
2023-08-07T12:00	20314	56	-53.7	-83.2	140	4
2023-08-07T12:00	20333	56	-53.6	-83.6	140	4
2023-08-07T12:00	20364	56	-53.3		134	4
2023-08-07T12:00	20384	55	-52.7	-83.4	122	4
2023-08-07T12:00	20412	55	-52.1	-83.0	106	4
2023-08-07T12:00	20438	55	-51.9	-82.8	92	4
2023-08-07T12:00	20459	55	-51.8	-82.8	83	5
2023-08-07T12:00	20484	55	-51.9	-82.8	79	6
2023-08-07T12:00	20509	54	-51.7	-82.7	79	6
2023-08-07T12:00	20532	54	-51.7	-82.7	80	7
2023-08-07T12:00	20557	54	-51.8	-82.2	82	8
2023-08-07T12:00	20579	54	-51.9	-82.3	86	8
2023-08-07T12:00	20609	54	-51.9	-82.3	91	8
2023-08-07T12:00	20634	53	-52.0	-82.4	96	8
2023-08-07T12:00	20656	53	-52.0	-82.4	101	8
2023-08-07T12:00	20680	53	-52.0	-82.4	107	9
2023-08-07T12:00	20710	53	-52.1	-82.5	112	9
2023-08-07T12:00	20729	53	-52.1	-82.5	116	9
2023-08-07T12:00	20753	52	-52.2	-82.5	121	9
2023-08-07T12:00	20777	52	-52.2	-82.5	125	9
2023-08-07T12:00	20799	52	-52.0	-82.4	130	9
2023-08-07T12:00	20823	52	-52.0	-82.4	135	9
2023-08-07T12:00	20850	52	-52.1	-82.5	139	8
2023-08-07T12:00	20872	51	-52.1	-82.5	143	8
2023-08-07T12:00	20892	51	-51.9	-82.3	146	7
2023-08-07T12:00	20916	51	-51.9	-82.3	148	7
2023-08-07T12:00	20941	51	-51.9	-82.8	149	6
2023-08-07T12:00	20962	51	-51.8	-82.8	148	5
2023-08-07T12:00	20984	51	-51.7	-82.7	144	5
2023-08-07T12:00	21011	50	-51.5	-82.5	138	5
2023-08-07T12:00	21035	50	-51.3	-82.4	132	5
2023-08-07T12:00	21061	50	-51.2	-82.3	128	6
2023-08-07T12:00	21088	50	-51.0	-82.2	126	6
2023-08-07T12:00	21107	50	-50.8	-82.0	125	6
2023-08-07T12:00	21128	49	-50.8	-82.0	124	6
2023-08-07T12:00	21158	49	-50.6	-81.9	124	6
2023-08-07T12:00	21180	49	-50.6	-81.9	124	6
2023-08-07T12:00	21207	49	-50.6	-81.9	124	6
2023-08-07T12:00	21228	49	-50.7		125	6
2023-08-07T12:00	21253	49	-50.7		127	6
2023-08-07T12:00	21277	48	-50.7		128	6
2023-08-07T12:00	21307	48	-50.8	-82.0	130	6
2023-08-07T12:00	21333	48	-50.9	-82.1	130	6
2023-08-07T12:00	21354	48	-51.0	-82.2	131	6
2023-08-07T12:00	21379	48	-51.0	-82.2	130	6
2023-08-07T12:00	21402	47	-50.9	-82.1	127	6
2023-08-07T12:00	21427	47	-50.9	-82.1	124	5
2023-08-07T12:00	21452	47	-51.0	-82.2	119	5
2023-08-07T12:00	21477	47	-51.0	-82.2	116	5
2023-08-07T12:00	21504	47	-51.1	-82.2	115	5
2023-08-07T12:00	21528	47	-51.2	-82.3	116	5
2023-08-07T12:00	21550	46	-51.2	-82.3	118	5
2023-08-07T12:00	21580	46	-51.3	-82.4	121	5
2023-08-07T12:00	21604	46	-51.4	-81.9	124	6
2023-08-07T12:00	21633	46	-51.5	-82.0	126	6
2023-08-07T12:00	21657	46	-51.6	-82.1	126	6
2023-08-07T12:00	21681	45	-51.8	-82.2	126	6
2023-08-07T12:00	21705	45	-51.8	-82.2	126	7
2023-08-07T12:00	21731	45	-51.9	-82.3	125	7
2023-08-07T12:00	21764	45	-52.1	-82.5	125	8
2023-08-07T12:00	21792	45	-52.2	-82.5	125	8
2023-08-07T12:00	21809	45	-52.2	-82.5	125	9
2023-08-07T12:00	21835	44	-52.4	-82.7	126	9
2023-08-07T12:00	21863	44	-52.6	-82.8	127	9
2023-08-07T12:00	21889	44	-52.6	-82.8	129	9
2023-08-07T12:00	21913	44	-52.6	-82.8	129	9
2023-08-07T12:00	21941	44	-52.6	-82.8	129	9
2023-08-07T12:00	21965	43	-52.8	-83.0	128	9
2023-08-07T12:00	21990	43	-52.8	-83.0	126	9
2023-08-07T12:00	22017	43	-52.9	-83.1	125	9
2023-08-07T12:00	22047	43	-53.0	-83.1	124	9
2023-08-07T12:00	22070	43	-53.0	-82.7	125	9
2023-08-07T12:00	22095	43	-53.0	-82.7	126	8
2023-08-07T12:00	22123	42	-53.0	-82.7	128	8
2023-08-07T12:00	22146	42	-53.0	-82.7	130	8
2023-08-07T12:00	22172	42	-53.2	-82.8	132	8
2023-08-07T12:00	22198	42	-53.3	-82.9	133	7
2023-08-07T12:00	22226	42	-53.5	-83.0	134	7
2023-08-07T12:00	22253	42	-53.5	-83.0	135	6
2023-08-07T12:00	22281	41	-53.5	-83.0	136	6
2023-08-07T12:00	22306	41	-53.6	-83.1	136	5
2023-08-07T12:00	22331	41	-53.7	-83.2	135	5
2023-08-07T12:00	22356	41	-53.8	-83.3	132	5
2023-08-07T12:00	22381	41	-53.7	-83.2	129	5
2023-08-07T12:00	22406	41	-53.5	-83.0	127	4
2023-08-07T12:00	22433	40	-53.4	-83.4	124	4
2023-08-07T12:00	22455	40	-53.3		123	4
2023-08-07T12:00	22482	40	-53.3		121	4
2023-08-07T12:00	22503	40	-53.2	-83.3	120	4
2023-08-07T12:00	22532	40	-53.3		118	4
2023-08-07T12:00	22556	40	-53.3		116	4
2023-08-07T12:00	22577	40	-53.2	-83.3	112	5
2023-08-07T12:00	22604	39	-53.0	-83.1	109	5
2023-08-07T12:00	22629	39	-53.0	-83.1	105	5
2023-08-07T12:00	22652	39	-53.1	-83.2	102	6
2023-08-07T12:00	22682	39	-53.0	-83.1	99	6
2023-08-07T12:00	22703	39	-52.9	-83.1	96	7
2023-08-07T12:00	22728	39	-52.8	-83.0	92	7
2023-08-07T12:00	22755	38	-52.5	-83.3	88	7
2023-08-07T12:00	22776	38	-52.3	-83.1	85	7
2023-08-07T12:00	22798	38	-52.1	-83.0	83	7
2023-08-07T12:00	22825	38	-52.0	-82.9	82	8
2023-08-07T12:00	22850	38	-52.1	-83.0	82	8
2023-08-07T12:00	22874	38	-52.1	-83.0	84	9
2023-08-07T12:00	22892	38	-52.0	-82.9	85	9
2023-08-07T12:00	22920	37	-52.0	-82.9	88	10
2023-08-07T12:00	22945	37	-51.9	-82.8	90	10
2023-08-07T12:00	22972	37	-51.7	-82.7	92	11
2023-08-07T12:00	22995	37	-51.7	-82.7	94	11
2023-08-07T12:00	23017	37	-51.9	-82.8	96	10
2023-08-07T12:00	23039	37	-51.7	-82.7	98	10
2023-08-07T12:00	23067	37	-51.6	-82.6	100	10
2023-08-07T12:00	23089	37	-51.7	-82.7	102	9
2023-08-07T12:00	23118	36	-51.8	-82.8	103	9
2023-08-07T12:00	23134	36	-51.8	-82.8	103	8
2023-08-07T12:00	23162	36	-51.8	-82.8	102	8
2023-08-07T12:00	23187	36	-51.7	-82.7	100	7
2023-08-07T12:00	23209	36	-51.7	-82.7	96	7
2023-08-07T12:00	23234	36	-51.6	-82.6	91	7
2023-08-07T12:00	23265	36	-51.5	-82.5	87	7
2023-08-07T12:00	23283	35	-51.6	-82.6	85	7
2023-08-07T12:00	23308	35	-51.6	-82.6	84	8
2023-08-07T12:00	23332	35	-51.6	-82.6	84	9
2023-08-07T12:00	23360	35	-51.7	-82.7	86	10
2023-08-07T12:00	23384	35	-51.7	-82.7	89	11
2023-08-07T12:00	23412	35	-51.8	-82.2	92	11
2023-08-07T12:00	23441	35	-52.0	-82.4	95	12
2023-08-07T12:00	23464	34	-52.1	-82.5	97	13
2023-08-07T12:00	23492	34	-52.2	-82.5	99	13
2023-08-07T12:00	23524	34	-52.3	-82.6	102	13
2023-08-07T12:00	23550	34	-52.4	-82.7	103	13
2023-08-07T12:00	23577	34	-52.4	-82.7	105	13
2023-08-07T12:00	23603	34	-52.4	-82.7	106	12
2023-08-07T12:00	23629	34	-52.4	-82.7	106	12
2023-08-07T12:00	23659	33	-52.6	-82.4	106	11
2023-08-07T12:00	23685	33	-52.8	-82.5	106	11
2023-08-07T12:00	23717	33	-52.9	-82.6	106	10
2023-08-07T12:00	23745	33	-53.0	-82.7	106	10
2023-08-07T12:00	23773	33	-53.0	-83.1	105	9
2023-08-07T12:00	23807	33	-52.9	-83.1	105	9
2023-08-07T12:00	23828	33	-52.9	-83.1	104	9
2023-08-07T12:00	23858	32	-52.9	-83.1	104	9
2023-08-07T12:00	23883	32	-52.8	-83.0	103	9
2023-08-07T12:00	23915	32	-52.6	-82.8	103	9
2023-08-07T12:00	23947	32	-52.6	-82.8	104	9
2023-08-07T12:00	23970	32	-52.6	-82.8	105	9
2023-08-07T12:00	23992	32	-52.6	-82.8	107	9
2023-08-07T12:00	24017	32	-52.5	-82.8	109	9
2023-08-07T12:00	24048	32	-52.5	-82.8	111	8
2023-08-07T12:00	24075	31	-52.5	-82.8	111	8
2023-08-07T12:00	24101	31	-52.5	-82.8	110	8
2023-08-07T12:00	24130	31	-52.5	-82.8	108	8
2023-08-07T12:00	24155	31	-52.5	-82.8	105	9
2023-08-07T12:00	24179	31	-52.5	-82.8	103	9
2023-08-07T12:00	24205	31	-52.6	-82.8	101	10
2023-08-07T12:00	24231	31	-52.7	-82.9	100	10
2023-08-07T12:00	24259	30	-52.7	-82.9	100	11
2023-08-07T12:00	24286	30	-52.7	-82.9	102	11
2023-08-07T12:00	24308	30	-52.7	-82.9	104	12
2023-08-07T12:00	24332	30	-52.7	-82.9	107	12
2023-08-07T12:00	24354	30	-52.5	-82.8	110	12
2023-08-07T12:00	24379	30	-52.4	-82.7	113	12
2023-08-07T12:00	24407	30	-52.4	-82.7	116	12
2023-08-07T12:00	24428	30	-52.5	-82.8	118	11
2023-08-07T12:00	24456	30	-52.5	-82.8	119	10
2023-08-07T12:00	24479	29	-52.5	-82.8	120	10
2023-08-07T12:00	24508	29	-52.4	-83.2	120	9
2023-08-07T12:00	24534	29	-52.3	-83.1	119	9
2023-08-07T12:00	24550	29	-52.1	-83.0	117	8
2023-08-07T12:00	24581	29	-52.1	-83.0	115	8
2023-08-07T12:00	24604	29	-52.1	-83.0	112	7
2023-08-07T12:00	24624	29	-52.0	-82.9	107	7
2023-08-07T12:00	24647	29	-51.9	-82.8	102	7
2023-08-07T12:00	24673	29	-51.8	-82.8	99	8
2023-08-07T12:00	24694	28	-51.5	-82.5	96	8
2023-08-07T12:00	24722	28	-51.2	-82.3	96	8
2023-08-07T12:00	24751	28	-51.0	-82.2	96	9
2023-08-07T12:00	24770	28	-51.0	-82.2	97	9
2023-08-07T12:00	24803	28	-50.9	-82.1	99	9
2023-08-07T12:00	24825	28	-50.8	-82.0	102	9
2023-08-07T12:00	24849	28	-50.8	-82.0	104	9
2023-08-07T12:00	24877	28	-50.8	-82.0	107	9
2023-08-07T12:00	24895	28	-50.7		108	9
2023-08-07T12:00	24925	28	-50.6	-81.9	109	10
2023-08-07T12:00	24944	27	-50.6	-81.9	108	10
2023-08-07T12:00	24971	27	-50.7	-82.5	107	10
2023-08-07T12:00	25004	27	-50.5		105	10
2023-08-07T12:00	25022	27	-50.3	-82.2	103	10
2023-08-07T12:00	25052	27	-50.0	-82.0	102	10
2023-08-07T12:00	25077	27	-49.8	-81.8	100	10
2023-08-07T12:00	25105	27	-49.5	-81.6	99	9
2023-08-07T12:00	25130	27	-49.3	-81.5	98	9
2023-08-07T12:00	25157	27	-49.3	-81.5	97	8
2023-08-07T12:00	25183	26	-49.4	-81.6	94	8
2023-08-07T12:00	25207	26	-49.4	-81.6	91	8
2023-08-07T12:00	25238	26	-49.4	-81.6	87	7
2023-08-07T12:00	25268	26	-49.4	-81.6	83	7
2023-08-07T12:00	25293	26	-49.4	-81.6	80	7
2023-08-07T12:00	25321	26	-49.3	-81.5	79	7
2023-08-07T12:00	25349	26	-49.2	-81.4	79	7
2023-08-07T12:00	25377	26	-49.2	-81.4	80	7
2023-08-07T12:00	25406	26	-49.2	-81.4	83	7
2023-08-07T12:00	25429	25	-49.3	-81.5	86	7
2023-08-07T12:00	25461	25	-49.3	-81.5	89	7
2023-08-07T12:00	25489	25	-49.4	-81.6	92	7
2023-08-07T12:00	25519	25	-49.4	-81.0	95	8
2023-08-07T12:00	25553	25	-49.5	-81.1	98	8
2023-08-07T12:00	25580	25	-49.6	-81.1	100	8
2023-08-07T12:00	25603	25	-49.7	-81.2	101	8
2023-08-07T12:00	25636	25	-49.7	-81.2	103	8
2023-08-07T12:00	25658	25	-49.6	-81.1	105	8
2023-08-07T12:00	25693	24	-49.6	-81.1	106	8
2023-08-07T12:00	25721	24	-49.6	-81.7	107	7
2023-08-07T12:00	25751	24	-49.6	-81.7	107	7
2023-08-07T12:00	25775	24	-49.5	-81.6	106	7
2023-08-07T12:00	25806	24	-49.5	-81.6	105	7
2023-08-07T12:00	25835	24	-49.5	-81.6	102	6
2023-08-07T12:00	25858	24	-49.5	-81.6	100	6
2023-08-07T12:00	25887	24	-49.5	-81.6	97	6
2023-08-07T12:00	25921	24	-49.5	-81.6	94	6
2023-08-07T12:00	25947	24	-49.5	-81.6	92	7
2023-08-07T12:00	25973	23	-49.5	-81.6	91	7
2023-08-07T12:00	25991	23	-49.5	-81.6	90	8
2023-08-07T12:00	26023	23	-49.5	-81.1	91	9
2023-08-07T12:00	26053	23	-49.5	-81.1	92	9
2023-08-07T12:00	26083	23	-49.6	-81.1	93	10
2023-08-07T12:00	26115	23	-49.6	-81.1	95	11
2023-08-07T12:00	26133	23	-49.6	-81.7	97	11
2023-08-07T12:00	26156	23	-49.4	-81.6	98	11
2023-08-07T12:00	26182	23	-49.4	-81.6	97	11
2023-08-07T12:00	26215	23	-49.4	-81.6	95	11
2023-08-07T12:00	26243	23	-49.4	-81.6	92	11
2023-08-07T12:00	26270	22	-49.4	-81.6	89	11
2023-08-07T12:00	26302	22	-49.4	-81.6	87	11
2023-08-07T12:00	26332	22	-49.4	-81.6	85	11
2023-08-07T12:00	26352	22	-49.4	-81.6	84	11
2023-08-07T12:00	26384	22	-49.4	-81.6	84	11
2023-08-07T12:00	26408	22	-49.4	-81.6	83	10
2023-08-07T12:00	26441	22	-49.4	-81.6	84	10
2023-08-07T12:00	26469	22	-49.4	-81.6	84	10
2023-08-07T12:00	26489	22	-49.3	-81.5	84	10
2023-08-07T12:00	26521	22	-49.3	-81.5	84	10
2023-08-07T12:00	26553	21	-49.2	-81.4	83	10
2023-08-07T12:00	26585	21	-49.2	-81.4	83	11
2023-08-07T12:00	26608	21	-49.2	-81.4	84	11
2023-08-07T12:00	26646	21	-49.3	-81.5	85	11
2023-08-07T12:00	26670	21	-49.3	-81.5	88	12
2023-08-07T12:00	26698	21	-49.3	-81.5	92	12
2023-08-07T12:00	26730	21	-49.3	-81.5	96	12
2023-08-07T12:00	26762	21	-49.4	-81.0	100	12
2023-08-07T12:00	26793	21	-49.5	-81.1	103	12
2023-08-07T12:00	26825	21	-49.6	-81.1	106	12
2023-08-07T12:00	26846	21	-49.6	-81.1	108	12
2023-08-07T12:00	26878	20	-49.6	-81.1	110	12
2023-08-07T12:00	26915	20	-49.6	-81.7	112	12
2023-08-07T12:00	26939	20	-49.6	-81.7	113	11
2023-08-07T12:00	26977	20	-49.5	-81.6	114	11
2023-08-07T12:00	27008	20	-49.3	-81.5	114	11
2023-08-07T12:00	27029	20	-49.3	-81.5	115	10
2023-08-07T12:00	27065	20	-49.3	-81.5	114	10
2023-08-07T12:00	27084	20	-49.3	-81.5	114	10
2023-08-07T12:00	27116	20	-49.2	-81.4	112	9
2023-08-07T12:00	27147	20	-49.3	-81.5	110	9
2023-08-07T12:00	27169	20	-49.2	-81.4	106	9
2023-08-07T12:00	27196	19	-49.2	-81.4	103	9
2023-08-07T12:00	27237	19	-49.2	-81.4	100	9
2023-08-07T12:00	27263	19	-49.2	-81.4	98	9
2023-08-07T12:00	27296	19	-49.2	-81.4	97	9
2023-08-07T12:00	27326	19	-49.1	-81.3	98	9
2023-08-07T12:00	27353	19	-49.2	-81.4	99	10
2023-08-07T12:00	27382	19	-49.2	-81.4	99	10
2023-08-07T12:00	27419	19	-49.2	-81.4	99	10
2023-08-07T12:00	27448	19	-49.1	-81.3	98	10
2023-08-07T12:00	27470	19	-49.0	-81.3	96	10
2023-08-07T12:00	27501	19	-49.0	-81.3	93	9
2023-08-07T12:00	27528	18	-49.0	-81.3	91	9
2023-08-07T12:00	27558	18	-49.0	-81.3	90	9
2023-08-07T12:00	27590	18	-49.0	-81.3	88	9
2023-08-07T12:00	27625	18	-49.0	-81.3	87	10
2023-08-07T12:00	27649	18	-49.1	-81.3	86	10
2023-08-07T12:00	27668	18	-49.2	-81.4	86	10
2023-08-07T12:00	27708	18	-49.2	-81.4	85	11
2023-08-07T12:00	27729	18	-49.2	-81.4	85	11
2023-08-07T12:00	27767	18	-49.1	-81.3	86	12
2023-08-07T12:00	27776	18	-49.0	-81.3	87	12
2023-08-07T12:00	27813	18	-49.1	-81.3	88	13
2023-08-07T12:00	27836	18	-49.1	-81.3	90	13
2023-08-07T12:00	27863	18	-48.8		91	13
2023-08-07T12:00	27897	18	-48.6	-81.0	93	13
2023-08-07T12:00	27924	17	-48.6	-81.0	94	13
2023-08-07T12:00	27953	17	-48.7	-81.0	96	13
2023-08-07T12:00	27982	17	-48.7	-81.0	98	13
2023-08-07T12:00	28009	17	-48.7	-81.0	100	12
2023-08-07T12:00	28043	17	-48.8		102	12
2023-08-07T12:00	28069	17	-48.9	-80.6	105	12
2023-08-07T12:00	28094	17	-48.9	-80.6	108	12
2023-08-07T12:00	28122	17	-48.9	-80.6	111	12
2023-08-07T12:00	28147	17	-49.0	-81.3	112	11
2023-08-07T12:00	28172	17	-49.1	-81.3	113	11
2023-08-07T12:00	28208	17	-49.0	-81.3	112	10
2023-08-07T12:00	28237	17	-48.9	-81.2	111	10
2023-08-07T12:00	28253	17	-48.8		109	10
2023-08-07T12:00	28286	17	-48.7	-81.0	109	9
2023-08-07T12:00	28320	16	-48.5	-80.9	109	9
2023-08-07T12:00	28337	16	-48.2	-80.7	110	10
2023-08-07T12:00	28364	16	-48.1	-80.6	112	10
2023-08-07T12:00	28393	16	-48.1	-80.6	115	10
2023-08-07T12:00	28422	16	-48.2	-80.7	117	11
2023-08-07T12:00	28440	16	-48.3	-80.7	119	11
2023-08-07T12:00	28484	16	-48.2	-80.7	122	11
2023-08-07T12:00	28511	16	-48.2	-80.7	125	10
2023-08-07T12:00	28543	16	-48.1	-81.2	128	10
2023-08-07T12:00	28569	16	-47.8	-81.0	131	9
2023-08-07T12:00	28594	16	-47.5	-80.8	135	9
2023-08-07T12:00	28610	16	-47.4	-80.7	138	8
2023-08-07T12:00	28648	16	-47.3	-80.6	141	7
2023-08-07T12:00	28667	16	-47.1	-80.5	141	6
2023-08-07T12:00	28698	15	-47.0	-80.4	137	5
2023-08-07T12:00	28722	15	-46.9	-80.4	129	4
2023-08-07T12:00	28755	15	-46.7	-80.2	116	4
2023-08-07T12:00	28786	15	-46.6	-80.9	103	4
2023-08-07T12:00	28811	15	-46.3	-80.6	92	4
2023-08-07T12:00	28842	15	-46.0	-80.4	84	4
2023-08-07T12:00	28875	15	-45.7	-80.2	79	4
2023-08-07T12:00	28903	15	-45.5	-80.1	74	5
2023-08-07T12:00	28935	15	-45.5	-80.1	70	5
2023-08-07T12:00	28958	15	-45.5	-79.3	66	5
2023-08-07T12:00	28998	15	-45.5	-79.3	64	6
2023-08-07T12:00	29020	15	-45.5	-79.3	63	6
2023-08-07T12:00	29051	15	-45.4	-79.3	65	7
2023-08-07T12:00	29075	15	-45.4	-79.3	67	7
2023-08-07T12:00	29119	15	-45.4	-79.3	70	7
2023-08-07T12:00	29149	14	-45.5	-79.3	74	7
2023-08-07T12:00	29184	14	-45.6		79	7
2023-08-07T12:00	29199	14	-45.8	-79.6	84	8
2023-08-07T12:00	29227	14	-45.9	-79.6	90	8
2023-08-07T12:00	29264	14	-46.0	-79.7	96	8
2023-08-07T12:00	29290	14	-46.1	-79.8	102	8
2023-08-07T12:00	29323	14	-46.0	-79.7	107	8
2023-08-07T12:00	29346	14	-45.7	-79.5	110	8
2023-08-07T12:00	29386	14	-45.4	-80.0	111	7
2023-08-07T12:00	29407	14	-45.2	-79.8	110	6
2023-08-07T12:00	29446	14	-44.9	-79.6	107	6
2023-08-07T12:00	29488	14	-44.6	-79.4	103	6
2023-08-07T12:00	29500	14	-44.4	-79.3	100	6
2023-08-07T12:00	29518	14	-44.2	-79.1	97	6
2023-08-07T12:00	29561	14	-44.1	-79.0	95	6
2023-08-07T12:00	29592	14	-44.1	-79.0	93	7
2023-08-07T12:00	29615	14	-43.9	-78.9	91	7
2023-08-07T12:00	29641	13	-43.7	-78.8	88	8
2023-08-07T12:00	29670	13	-43.5	-78.6	85	8
2023-08-07T12:00	29712	13	-43.5	-78.6	82	9
2023-08-07T12:00	29721	13	-43.4	-78.5	81	9
2023-08-07T12:00	29759	13	-43.3	-78.5	80	10
2023-08-07T12:00	29787	13	-43.3	-78.5	80	10
2023-08-07T12:00	29819	13	-43.3	-78.5	80	11
2023-08-07T12:00	29844	13	-43.4	-78.5	80	11
2023-08-07T12:00	29874	13	-43.4	-78.5	80	11
2023-08-07T12:00	29882	13	-43.4	-78.5	80	11
2023-08-07T12:00	29933	13	-43.5	-78.6	81	11
2023-08-07T12:00	29959	13	-43.4	-78.5	82	11
2023-08-07T12:00	29993	13	-43.4	-78.5	84	11
2023-08-07T12:00	30032	13	-43.3	-78.5	86	10
2023-08-07T12:00	30048	13	-43.2	-78.4	89	10
2023-08-07T12:00	30074	13	-43.1	-78.3	91	9
2023-08-07T12:00	30100	13	-43.0	-78.3	92	9
2023-08-07T12:00	30137	13	-43.0	-78.3	93	9
2023-08-07T12:00	30161	12	-43.0	-78.3	92	9
2023-08-07T12:00	30176	12	-42.9	-78.2	89	9
2023-08-07T12:00	30229	12	-42.7	-78.9	86	9
2023-08-07T12:00	30273	12	-42.3		78	9
2023-08-07T12:00	30300	12	-42.3		75	10
2023-08-07T12:00	30321	12	-42.2	-78.5	73	11
2023-08-07T12:00	30348	12	-41.9	-78.3	72	11
2023-08-07T12:00	30369	12	-41.4	-77.9	72	12
2023-08-07T12:00	30402	12	-41.1	-77.7	71	12
2023-08-07T12:00	30429	12	-40.9	-77.6	70	13
2023-08-07T12:00	30451	12	-40.8	-77.5	68	13
2023-08-07T12:00	30481	12	-40.7	-77.4	67	13
2023-08-07T12:00	30506	12	-40.6	-77.4	66	13
2023-08-07T12:00	30535	12	-40.5		67	13
2023-08-07T12:00	30562	12	-40.5		69	13
2023-08-07T12:00	30580	12	-40.5		72	13
2023-08-07T12:00	30601	12	-40.5		76	12
2023-08-07T12:00	30635	12	-40.5		81	12
2023-08-07T12:00	30664	12	-40.6	-77.4	86	12
2023-08-07T12:00	30693	12	-40.7	-77.4	91	11
2023-08-07T12:00	30723	11	-40.8	-77.5	97	11
2023-08-07T12:00	30750	11	-41.0	-77.7	103	11
2023-08-07T12:00	30802	11	-41.3	-77.9	114	10
2023-08-07T12:00	30823	11	-41.4	-77.9	117	10
2023-08-07T12:00	30857	11	-41.2	-77.8	119	9
2023-08-07T12:00	30895	11	-40.9	-77.6	117	9
2023-08-07T12:00	30919	11	-40.6	-77.4	114	8
2023-08-07T12:00	30938	11	-40.4	-77.2	109	8
2023-08-07T12:00	30971	11	-40.2	-78.0	104	8
2023-08-07T12:00	31003	11	-40.1	-78.0	100	8
2023-08-07T12:00	31027	11	-40.0	-77.9	96	8
2023-08-07T12:00	31050	11	-39.8	-77.8	94	8
2023-08-07T12:00	31079	11	-39.7	-77.7	93	8
2023-08-07T12:00	31121	11	-39.6	-77.6	93	8
2023-08-07T12:00	31148	11	-39.5	-77.6	94	8
2023-08-07T12:00	31183	11	-39.4	-77.5	96	7
2023-08-07T12:00	31212	11	-39.3	-77.4	99	7
2023-08-07T12:00	31237	11	-39.3	-77.4	105	7
2023-08-07T12:00	31262	11	-39.2	-77.3	111	7
2023-08-07T12:00	31296	11	-39.2	-77.3	118	7
2023-08-07T12:00	31328	11	-39.1	-77.3	124	7
2023-08-07T12:00	31360	10	-39.1	-77.3	127	6
2023-08-07T12:00	31367	10	-38.9	-77.1	127	6
2023-08-07T12:00	31422	10	-38.6	-76.9	123	6
2023-08-07T12:00	31435	10	-38.3	-76.7	117	5
2023-08-07T12:00	31473	10	-38.0	-76.5	107	5
2023-08-07T12:00	31504	10	-37.9	-76.4	96	5
2023-08-07T12:00	31509	10	-37.9	-76.4	86	5
2023-08-07T12:00	31566	10	-37.9	-76.4	76	6
2023-08-07T12:00	31595	10	-37.9	-76.4	69	6
2023-08-07T12:00	31620	10	-37.9	-76.4	64	7
2023-08-07T12:00	31636	10	-37.9	-76.4	61	8
2023-08-07T12:00	31673	10	-37.9	-76.4	61	9
2023-08-07T12:00	31705	10	-38.0	-76.5	63	9
2023-08-07T12:00	31730	10	-38.1	-76.6	65	10
2023-08-07T12:00	31768	10	-38.2	-76.6	69	10
2023-08-07T12:00	31778	10	-38.2	-76.6	73	11
2023-08-07T12:00	31823	10	-38.2	-76.6	78	11
2023-08-07T12:00	31865	10	-38.2	-76.6	82	11
2023-08-07T12:00	31889	10	-38.3	-76.7	85	11
2023-08-07T12:00	31921	10	-38.2	-76.6	88	11
2023-08-07T12:00	31944	10	-38.1	-76.6	91	11
2023-08-07T12:00	31985	10	-37.9	-76.4	93	10
2023-08-07T12:00	31997	10	-37.9	-76.4	95	10
2023-08-07T12:00	32021	10	-37.9	-76.4	97	9
2023-08-07T12:00	32046	9	-37.9	-76.4	100	8
2023-08-07T12:00	32089	9	-37.8	-76.4	104	7
2023-08-07T12:00	32108	9	-37.7	-76.3	109	7
2023-08-07T12:00	32125	9	-37.6	-76.2	112	6
2023-08-07T12:00	32166	9	-37.4	-76.1	114	6
2023-08-07T12:00	32190	9	-37.3	-76.0	113	6
2023-08-07T12:00	32207	9	-37.2	-75.9	111	6
2023-08-07T12:00	32239	9	-37.2	-75.9	108	6
2023-08-07T12:00	32243	9	-37.1	-75.9	106	6
2023-08-07T12:00	32296	9	-37.0	-75.8	105	6
2023-08-07T12:00	32322	9	-36.9	-75.7	105	6
2023-08-07T12:00	32336	9	-36.9	-75.7	105	6
2023-08-07T12:00	32370	9	-36.8	-76.8	105	6
2023-08-07T12:00	32404	9	-36.7	-76.7	104	7
2023-08-07T12:00	32431	9	-36.4	-76.5	102	7
2023-08-07T12:00	32464	9	-36.1	-76.3	102	8
2023-08-07T12:00	32481	9	-35.9	-76.2	101	8
2023-08-07T12:00	32488	9	-35.7	-76.1	100	8
2023-08-07T12:00	32518	9	-35.5	-75.9	100	8
2023-08-07T12:00	32532	9	-35.4	-75.8	99	8
2023-08-07T12:00	32561	9	-35.3	-75.8	99	9
2023-08-07T12:00	32585	9	-35.1	-75.6	99	9
2023-08-07T12:00	32622	9	-34.8	-75.4	101	10
2023-08-07T12:00	32653	9	-34.6	-75.3	103	10
2023-08-07T12:00	32673	9	-34.4	-75.2	106	9
2023-08-07T12:00	32702	9	-34.1	-75.0	110	9
2023-08-07T12:00	32750	9	-34.0	-74.9	115	8
2023-08-07T12:00	32774	9	-34.0	-74.9	120	8
2023-08-07T12:00	32794	9	-34.0	-74.9	126	8
2023-08-07T12:00	32813	8	-34.0	-74.9	131	7
2023-08-07T12:00	32851	8	-34.0	-74.9	135	7
2023-08-07T12:00	32866	8	-34.0	-74.9	139	7
2023-08-07T12:00	32920	8	-34.1	-75.0	139	6
2023-08-07T12:00	32946	8	-34.1	-75.0	136	6
2023-08-07T12:00	32990	8	-34.0	-74.9	128	5
2023-08-07T12:00	32998	8	-33.8	-74.7	115	5
2023-08-07T12:00	33030	8	-33.5	-74.5	102	6
2023-08-07T12:00	33052	8	-33.2	-74.3	92	7
2023-08-07T12:00	33082	8	-33.0	-74.2	86	8
2023-08-07T12:00	33148	8	-32.8	-74.1	83	10
2023-08-07T12:00	33153	8	-32.7	-74.0	82	11
2023-08-07T12:00	33184	8	-32.6	-73.9	81	12
2023-08-07T12:00	33204	8	-32.6	-73.9	81	13
2023-08-07T12:00	33222	8	-32.5	-73.8	81	13
2023-08-07T12:00	33252	8	-32.3	-73.7	80	13
2023-08-07T12:00	33310	8	-32.1	-73.6	79	13
2023-08-07T12:00	33334	8	-31.9	-73.4	78	13
2023-08-07T12:00	33351	8	-31.7	-73.3	77	12
2023-08-07T12:00	33399	8	-31.6	-73.2	77	12
2023-08-07T12:00	33400	8	-31.7	-73.3	77	12
2023-08-07T12:00	33443	8	-31.8	-73.4	78	12
2023-08-07T12:00	33469	8	-31.9	-73.4	79	12
2023-08-07T12:00	33507	8	-31.9	-73.4	80	12
2023-08-07T12:00	33511	8	-31.9	-73.4	81	12
2023-08-07T12:00	33547	8	-32.0	-73.5	82	13
2023-08-07T12:00	33588	8	-32.0	-73.5	82	13
2023-08-07T12:00	33614	8	-32.0	-73.5	83	14
2023-08-07T12:00	33653	8	-32.1	-73.6	83	15
2023-08-07T12:00	33654	8	-32.2	-73.6	84	15
2023-08-07T12:00	33691	7	-32.3	-73.7	84	16
2023-08-07T12:00	33737	7	-32.3	-73.7	85	16
2023-08-07T12:00	33754	7	-32.4	-73.8	86	17
2023-08-07T12:00	33799	7	-32.4	-73.8	87	17
2023-08-07T12:00	33801	7	-32.4	-73.8	87	18
2023-08-07T12:00	33846	7	-32.4	-73.8	87	18
2023-08-07T12:00	33850	7	-32.4	-73.8	88	18
2023-08-07T12:00	33892	7	-32.3	-73.7	88	18
2023-08-07T12:00	33907	7	-32.3	-73.7	89	18
2023-08-07T12:00	33945	7	-32.2	-73.6	90	17
2023-08-07T12:00	33962	7	-32.2	-73.6	91	17
2023-08-07T12:00	33986	7	-32.1	-73.6	91	17
2023-08-07T12:00	34003	7	-32.0	-73.5	91	17
2023-08-07T12:00	34029	7	-31.9	-73.4	89	17
2023-08-07T12:00	34061	7	-31.6	-73.2	88	17
2023-08-07T12:00	34100	7	-31.3	-73.0	86	17
2023-08-07T12:00	34102	7	-31.1	-72.9	84	17
2023-08-07T12:00	34113	7	-30.9	-72.8	82	17
2023-08-07T12:00	34172	7	-30.8	-72.7	81	17
2023-08-07T12:00	34231	7	-30.7	-72.6	80	16
2023-08-07T12:00	34281	7	-30.7	-72.6	79	16
2023-08-07T12:00	34302	7	-30.8	-72.7	79	15
2023-08-07T12:00	34348	7	-30.8	-72.7	78	15
2023-08-07T12:00	34360	7	-30.8	-72.7	77	14
2023-08-07T12:00	34382	7	-30.8	-72.7	77	14
2023-08-07T12:00	34418	7	-30.8	-72.7	77	14
2023-08-07T12:00	34466	7	-30.9	-72.8	78	14
2023-08-07T12:00	34504	7	-30.9	-72.8	80	14
2023-08-07T12:00	34546	7	-30.9	-72.8	84	14
2023-08-07T12:00	34560	7	-30.8	-72.7	87	14
2023-08-07T12:00	34614	7	-30.6	-72.5	89	14
2023-08-07T12:00	34632	7	-30.4	-72.4	90	14
2023-08-07T12:00	34670	7	-30.3	-72.3	91	15
2023-08-07T12:00	34726	6	-30.4	-72.4	91	15
2023-08-07T12:00	34740	6	-30.5	-72.5	91	15
2023-08-07T12:00	34778	6	-30.5	-72.5	91	16
2023-08-07T12:00	34789	6	-30.6	-72.5	91	16
2023-08-07T12:00	34874	6	-30.7	-72.6	91	16
2023-08-07T12:00	34881	6	-30.8	-72.7	92	17
2023-08-07T12:00	34925	6	-30.8	-72.7	92	17
2023-08-07T12:00	34987	6	-30.9	-72.8	93	17
2023-08-07T12:00	35026	6	-30.7	-72.6	94	17
2023-08-07T12:00	35039	6	-30.6	-72.5	95	17
2023-08-07T12:00	35092	6	-30.7	-72.6	94	16
2023-08-07T12:00	35096	6	-30.7	-72.6	94	16
2023-08-07T12:00	35124	6	-30.8	-72.7	93	15
2023-08-07T12:00	35170	6	-30.8	-72.7	93	15
2023-08-07T12:00	35171	6	-30.7	-72.6	94	15
2023-08-07T12:00	35197	6	-30.7	-72.6	95	15
2023-08-07T12:00	35249	6	-30.6	-72.5	96	15
2023-08-07T18:00	-999					
2023-08-07T18:00	112	994	17.2	9.9	290	6
2023-08-07T18:00	140	991	17.4	8.8	296	7
2023-08-07T18:00	163	988	17.3	8.5	294	9
2023-08-07T18:00	180	986	17.1	8.5	293	10
2023-08-07T18:00	207	983	16.9	8.5	291	11
2023-08-07T18:00	232	980	16.6	8.4	290	12
2023-08-07T18:00	258	977	16.4	8.3	289	12
2023-08-07T18:00	285	974	16.2	8.2	289	13
2023-08-07T18:00	310	971	16.0	8.3	289	13
2023-08-07T18:00	337	968	15.8	7.9	289	13
2023-08-07T18:00	362	965	15.6	7.9	289	14
2023-08-07T18:00	390	962	15.3	7.8	288	14
2023-08-07T18:00	415	959	15.1	7.8	288	15
2023-08-07T18:00	441	956	14.8	7.8	287	15
2023-08-07T18:00	474	953	14.5	7.7	286	15
2023-08-07T18:00	499	950	14.3	7.7	285	15
2023-08-07T18:00	526	947	14.0	7.6	284	15
2023-08-07T18:00	559	944	13.7	7.5	284	15
2023-08-07T18:00	586	940	13.4	7.5	283	15
2023-08-07T18:00	617	937	13.1	7.5	282	15
2023-08-07T18:00	647	933	12.8	7.4	281	15
2023-08-07T18:00	679	930	12.5	7.3	280	15
2023-08-07T18:00	715	926	12.3	7.3	280	15
2023-08-07T18:00	743	923	12.0	7.1	280	15
2023-08-07T18:00	772	919	11.8	7.4	281	15
2023-08-07T18:00	802	916	11.5	7.2	281	15
2023-08-07T18:00	837	913	11.1	7.1	281	15
2023-08-07T18:00	863	909	10.9	7.0	280	16
2023-08-07T18:00	883	907	10.7	7.1	279	16
2023-08-07T18:00	908	905	10.4	7.0	277	16
2023-08-07T18:00	931	902	10.2	6.9	276	17
2023-08-07T18:00	953	900	10.0	6.9	275	17
2023-08-07T18:00	980	897	9.8	6.8	275	17
2023-08-07T18:00	1000	895	9.5	6.7	274	17
2023-08-07T18:00	1023	892	9.3	6.8	274	17
2023-08-07T18:00	1053	889	9.1	6.8	274	17
2023-08-07T18:00	1082	886	8.8	6.7	274	17
2023-08-07T18:00	1111	883	8.5	6.6	274	17
2023-08-07T18:00	1142	879	8.2	6.6	274	16
2023-08-07T18:00	1172	876	7.9	6.5	275	16
2023-08-07T18:00	1203	873	7.6	6.5	275	16
2023-08-07T18:00	1236	870	7.4	6.4	275	16
2023-08-07T18:00	1265	867	7.1	6.3	275	16
2023-08-07T18:00	1296	863	6.8	6.1	275	16
2023-08-07T18:00	1325	860	6.6	6.1	275	16
2023-08-07T18:00	1355	857	6.4	5.9	276	16
2023-08-07T18:00	1382	854	6.1	5.7	276	17
2023-08-07T18:00	1412	851	5.8	5.5	277	17
2023-08-07T18:00	1444	848	5.6	5.3	278	17
2023-08-07T18:00	1473	845	5.6	4.6	279	18
2023-08-07T18:00	1507	841	5.3	4.2	280	18
2023-08-07T18:00	1539	838	5.2	3.8	281	18
2023-08-07T18:00	1574	835	5.2	3.0	281	18
2023-08-07T18:00	1607	831	4.9	3.1	282	18
2023-08-07T18:00	1637	828	4.7	2.5	282	18
2023-08-07T18:00	1669	825	4.4	2.4	281	18
2023-08-07T18:00	1700	822	4.1	2.3	281	18
2023-08-07T18:00	1732	819	3.9	1.9	280	18
2023-08-07T18:00	1755	816	3.7	2.0	280	18
2023-08-07T18:00	1782	814	3.6	1.7	280	18
2023-08-07T18:00	1804	811	3.4	1.6	280	18
2023-08-07T18:00	1827	809	3.2	1.3	281	18
2023-08-07T18:00	1854	806	3.0	1.2	281	17
2023-08-07T18:00	1882	804	2.9	0.7	281	17
2023-08-07T18:00	1903	801	2.6	0.6	281	17
2023-08-07T18:00	1931	799	2.4	0.3	281	17
2023-08-07T18:00	1957	796	2.2	0.1	281	17
2023-08-07T18:00	1983	793	2.0	0.0	281	17
2023-08-07T18:00	2011	791	1.8	-0.1	280	17
2023-08-07T18:00	2034	788	1.6	-0.2	279	17
2023-08-07T18:00	2065	786	1.4	-0.4	278	17
2023-08-07T18:00	2092	783	1.2	-0.4	277	17
2023-08-07T18:00	2120	780	1.1	-0.6	277	17
2023-08-07T18:00	2147	777	0.9	-0.5	276	16
2023-08-07T18:00	2176	775	0.6	-0.8	276	16
2023-08-07T18:00	2198	773	0.5	-1.0	276	16
2023-08-07T18:00	2224	770	0.4	-1.1	276	15
2023-08-07T18:00	2251	768	0.3	-1.5	277	15
2023-08-07T18:00	2275	765	-0.1	-1.5	277	15
2023-08-07T18:00	2304	762	-0.1	-1.4	278	15
2023-08-07T18:00	2334	760	-0.4	-0.9	278	15
2023-08-07T18:00	2360	757	-0.5	-1.3	278	15
2023-08-07T18:00	2387	754	-0.8	-1.2	277	15
2023-08-07T18:00	2421	752	-0.8	-1.3	277	15
2023-08-07T18:00	2451	749	-1.3	-1.3	276	15
2023-08-07T18:00	2490	745	-1.3	-1.3	278	15
2023-08-07T18:00	2525	742	-1.7	-1.7	279	15
2023-08-07T18:00	2559	738	-2.0	-2.3	282	15
2023-08-07T18:00	2596	735	-2.3	-2.8	284	16
2023-08-07T18:00	2633	732	-2.0	-4.5	285	16
2023-08-07T18:00	2669	728	-1.5	-6.4	286	16
2023-08-07T18:00	2702	725	-1.6	-6.3	286	16
2023-08-07T18:00	2734	722	-1.7	-6.7	287	17
2023-08-07T18:00	2766	720	-2.0	-7.0	287	17
2023-08-07T18:00	2796	717	-2.0	-6.7	288	17
2023-08-07T18:00	2832	714	-2.3	-6.5	288	18
2023-08-07T18:00	2859	711	-2.5	-6.6	288	18
2023-08-07T18:00	2892	708	-2.8	-6.7	287	18
2023-08-07T18:00	2923	706	-3.0	-6.6	286	18
2023-08-07T18:00	2953	703	-3.0	-5.8	285	18
2023-08-07T18:00	2982	700	-3.2	-5.8	284	17
2023-08-07T18:00	3010	698	-3.5	-5.8	282	17
2023-08-07T18:00	3040	695	-3.7	-5.9	281	17
2023-08-07T18:00	3069	692	-3.6	-6.2	279	17
2023-08-07T18:00	3102	690	-3.7	-6.3	279	17
2023-08-07T18:00	3129	687	-4.0	-6.4	279	17
2023-08-07T18:00	3160	685	-4.2	-6.7	279	18
2023-08-07T18:00	3189	682	-4.0	-7.9	281	18
2023-08-07T18:00	3220	680	-3.9	-8.6	282	19
2023-08-07T18:00	3251	677	-4.1	-9.3	283	19
2023-08-07T18:00	3282	674	-4.0	-9.9	284	20
2023-08-07T18:00	3312	672	-3.9	-10.3	285	20
2023-08-07T18:00	3341	669	-3.8	-11.0	286	20
2023-08-07T18:00	3368	667	-3.6	-12.1	286	20
2023-08-07T18:00	3398	664	-3.8	-12.5	287	20
2023-08-07T18:00	3429	662	-3.8	-13.0	287	20
2023-08-07T18:00	3461	659	-4.1	-13.0	287	21
2023-08-07T18:00	3494	657	-4.3		287	21
2023-08-07T18:00	3518	654	-4.5	-13.1	286	21
2023-08-07T18:00	3550	652	-4.7	-13.0	285	21
2023-08-07T18:00	3578	649	-4.8	-13.1	284	21
2023-08-07T18:00	3607	647	-5.1	-13.3	284	21
2023-08-07T18:00	3635	644	-5.1	-13.6	284	21
2023-08-07T18:00	3667	642	-5.2	-13.9	284	21
2023-08-07T18:00	3697	640	-5.3	-14.4	283	21
2023-08-07T18:00	3726	637	-5.4	-15.4	283	20
2023-08-07T18:00	3757	635	-5.6	-15.5	284	20
2023-08-07T18:00	3784	632	-5.8	-15.7	285	20
2023-08-07T18:00	3816	630	-6.1	-16.0	286	20
2023-08-07T18:00	3849	627	-6.3	-16.2	287	20
2023-08-07T18:00	3879	625	-6.4	-16.5	288	20
2023-08-07T18:00	3910	623	-6.5	-17.5	288	20
2023-08-07T18:00	3941	620	-6.8	-17.3	288	20
2023-08-07T18:00	3969	618	-7.1	-17.1	287	20
2023-08-07T18:00	4002	615	-7.3	-17.3	287	20
2023-08-07T18:00	4032	613	-7.4	-17.7	287	20
2023-08-07T18:00	4062	611	-7.7	-18.0	287	20
2023-08-07T18:00	4091	608	-7.9	-18.2	287	20
2023-08-07T18:00	4118	606	-8.1	-18.4	287	19
2023-08-07T18:00	4148	604	-8.3	-18.8	287	19
2023-08-07T18:00	4178	601	-8.5	-19.0	287	19
2023-08-07T18:00	4207	599	-8.8	-19.2	286	19
2023-08-07T18:00	4238	597	-9.1	-19.5	286	19
2023-08-07T18:00	4266	594	-9.3	-19.6	285	18
2023-08-07T18:00	4299	592	-9.6	-19.6	285	18
2023-08-07T18:00	4330	590	-9.8	-19.4	284	18
2023-08-07T18:00	4359	587	-10.0	-19.5	284	18
2023-08-07T18:00	4389	585	-10.1	-20.3	284	17
2023-08-07T18:00	4416	583	-10.2	-20.6	285	17
2023-08-07T18:00	4449	581	-10.4	-20.9	285	17
2023-08-07T18:00	4480	578	-10.6	-21.5	285	17
2023-08-07T18:00	4509	576	-10.9	-21.7	286	17
2023-08-07T18:00	4539	574	-11.1	-22.6	286	17
2023-08-07T18:00	4570	572	-11.3	-23.1	286	17
2023-08-07T18:00	4600	569	-11.5	-23.4	285	17
2023-08-07T18:00	4630	567	-11.8	-23.4	285	16
2023-08-07T18:00	4659	565	-12.0	-23.5	285	16
2023-08-07T18:00	4688	563	-12.3	-23.6	285	16
2023-08-07T18:00	4717	561	-12.6	-23.7	285	17
2023-08-07T18:00	4748	558	-12.8	-23.7	285	17
2023-08-07T18:00	4778	556	-13.1	-23.8	285	17
2023-08-07T18:00	4803	554	-13.3	-23.7	285	17
2023-08-07T18:00	4827	553	-13.5	-23.8	284	18
2023-08-07T18:00	4855	551	-13.7	-24.5	284	18
2023-08-07T18:00	4884	548	-13.9	-24.8	283	19
2023-08-07T18:00	4913	546	-14.2	-25.1	282	19
2023-08-07T18:00	4941	544	-14.3	-26.1	282	19
2023-08-07T18:00	4970	542	-14.4	-26.9	282	20
2023-08-07T18:00	4996	540	-14.4	-27.6	283	20
2023-08-07T18:00	5027	538	-14.4	-28.5	284	20
2023-08-07T18:00	5055	536	-14.5	-29.4	286	20
2023-08-07T18:00	5083	534	-14.5	-31.4	287	20
2023-08-07T18:00	5113	532	-14.5	-32.2	287	20
2023-08-07T18:00	5139	530	-14.6	-33.6	288	19
2023-08-07T18:00	5170	528	-14.6	-34.7	288	19
2023-08-07T18:00	5199	526	-14.8	-33.5	288	19
2023-08-07T18:00	5231	524	-15.0	-33.4	288	19
2023-08-07T18:00	5257	522	-15.2	-33.6	288	19
2023-08-07T18:00	5286	520	-15.4	-33.2	288	19
2023-08-07T18:00	5317	518	-15.6	-33.3	289	19
2023-08-07T18:00	5349	516	-15.9	-33.5	289	19
2023-08-07T18:00	5380	514	-16.0	-34.2	289	19
2023-08-07T18:00	5410	512	-16.2	-34.5	288	19
2023-08-07T18:00	5440	510	-16.4	-32.9	288	19
2023-08-07T18:00	5472	508	-16.7	-32.7	287	18
2023-08-07T18:00	5499	505	-16.9	-32.4	287	18
2023-08-07T18:00	5534	503	-17.1	-33.5	286	18
2023-08-07T18:00	5565	501	-17.4	-34.0	287	18
2023-08-07T18:00	5596	499	-17.6	-34.2	287	18
2023-08-07T18:00	5628	497	-17.8	-33.2	288	18
2023-08-07T18:00	5658	495	-18.0	-34.2	288	18
2023-08-07T18:00	5689	493	-18.2	-34.0	289	18
2023-08-07T18:00	5719	491	-18.5	-33.5	289	17
2023-08-07T18:00	5748	489	-18.7	-34.0	288	17
2023-08-07T18:00	5781	487	-19.0	-34.5	288	17
2023-08-07T18:00	5813	485	-19.2	-34.8	287	17
2023-08-07T18:00	5846	483	-19.5	-34.8	287	17
2023-08-07T18:00	5878	481	-19.7	-34.9	286	17
2023-08-07T18:00	5905	479	-20.0	-34.9	286	17
2023-08-07T18:00	5937	477	-20.2	-34.9	285	17
2023-08-07T18:00	5967	475	-20.5	-34.6	285	17
2023-08-07T18:00	5998	473	-20.8	-34.1	285	17
2023-08-07T18:00	6030	471	-21.1	-34.3	285	17
2023-08-07T18:00	6062	469	-21.4	-34.4	284	17
2023-08-07T18:00	6094	467	-21.6	-34.9	284	17
2023-08-07T18:00	6118	465	-21.8	-35.6	284	17
2023-08-07T18:00	6136	464	-21.9	-36.1	284	17
2023-08-07T18:00	6167	462	-22.2	-36.3	285	17
2023-08-07T18:00	6197	460	-22.4	-36.8	285	18
2023-08-07T18:00	6226	458	-22.7	-37.0	285	18
2023-08-07T18:00	6257	457	-23.0	-36.5	285	18
2023-08-07T18:00	6285	455	-23.2	-36.4	284	17
2023-08-07T18:00	6312	453	-23.5	-36.3	284	17
2023-08-07T18:00	6346	451	-23.8	-36.8	284	17
2023-08-07T18:00	6374	449	-24.0	-37.2	284	17
2023-08-07T18:00	6406	447	-24.2	-37.6	284	17
2023-08-07T18:00	6433	446	-24.5	-37.7	285	17
2023-08-07T18:00	6468	444	-24.8	-37.7	285	18
2023-08-07T18:00	6496	442	-25.0	-38.0	286	18
2023-08-07T18:00	6523	440	-25.3	-38.1	286	18
2023-08-07T18:00	6547	439	-25.5	-38.0	286	19
2023-08-07T18:00	6575	437	-25.8	-38.2	287	19
2023-08-07T18:00	6606	435	-26.1	-38.5	287	19
2023-08-07T18:00	6636	433	-26.3	-38.7	288	19
2023-08-07T18:00	6665	432	-26.6	-38.9	288	18
2023-08-07T18:00	6697	430	-26.8	-36.8	289	18
2023-08-07T18:00	6723	428	-26.8	-38.8	290	17
2023-08-07T18:00	6743	427	-26.9		290	17
2023-08-07T18:00	6767	425	-27.2	-39.3	289	16
2023-08-07T18:00	6800	424	-27.4	-40.0	289	16
2023-08-07T18:00	6823	422	-27.6	-40.6	288	16
2023-08-07T18:00	6848	421	-27.8	-41.2	287	16
2023-08-07T18:00	6871	419	-28.0	-41.1	287	16
2023-08-07T18:00	6905	418	-28.3	-41.5	288	17
2023-08-07T18:00	6929	416	-28.4	-42.2	289	17
2023-08-07T18:00	6953	415	-28.6	-42.2	289	17
2023-08-07T18:00	6982	413	-28.8	-42.4	290	16
2023-08-07T18:00	7012	411	-29.0	-42.1	290	16
2023-08-07T18:00	7034	410	-29.2	-41.5	289	16
2023-08-07T18:00	7062	408	-29.4	-43.6	288	16
2023-08-07T18:00	7090	407	-29.6	-43.8	288	16
2023-08-07T18:00	7115	405	-29.9	-41.6	288	15
2023-08-07T18:00	7144	404	-30.2	-43.5	288	15
2023-08-07T18:00	7170	402	-30.4	-43.1	289	15
2023-08-07T18:00	7198	401	-30.7	-42.7	290	15
2023-08-07T18:00	7230	399	-31.0	-42.7	291	15
2023-08-07T18:00	7256	397	-31.3	-42.2	290	15
2023-08-07T18:00	7289	396	-31.5	-41.7	290	15
2023-08-07T18:00	7314	394	-31.8	-41.8	289	16
2023-08-07T18:00	7344	393	-32.1	-41.2	288	16
2023-08-07T18:00	7371	391	-32.3	-41.6	288	16
2023-08-07T18:00	7400	389	-32.6	-38.1	288	15
2023-08-07T18:00	7432	388	-32.8	-36.9	288	15
2023-08-07T18:00	7460	386	-32.9	-36.6	289	15
2023-08-07T18:00	7485	385	-33.2	-36.9	291	14
2023-08-07T18:00	7519	383	-33.3	-36.7	292	13
2023-08-07T18:00	7545	381	-33.4	-36.4	293	12
2023-08-07T18:00	7576	380	-33.5	-36.2	293	11
2023-08-07T18:00	7605	378	-33.6	-35.4	292	11
2023-08-07T18:00	7639	376	-33.6	-34.7	289	10
2023-08-07T18:00	7673	375	-33.5	-34.7	287	10
2023-08-07T18:00	7703	373	-33.7	-34.2	285	10
2023-08-07T18:00	7734	371	-33.8	-35.3	284	10
2023-08-07T18:00	7768	370	-33.8	-35.8	283	10
2023-08-07T18:00	7802	368	-33.9	-35.7	281	11
2023-08-07T18:00	7835	366	-33.9	-36.0	280	11
2023-08-07T18:00	7871	364	-34.1	-36.1	279	11
2023-08-07T18:00	7899	363	-34.3	-36.3	279	11
2023-08-07T18:00	7927	361	-34.6	-36.7	279	12
2023-08-07T18:00	7955	360	-34.8	-36.9	279	12
2023-08-07T18:00	7983	358	-35.0	-36.8	279	12
2023-08-07T18:00	8012	357	-35.2	-37.4	279	12
2023-08-07T18:00	8042	355	-35.4	-37.5	279	11
2023-08-07T18:00	8073	354	-35.6	-37.8	279	11
2023-08-07T18:00	8111	352	-36.0	-38.4	280	11
2023-08-07T18:00	8145	350	-36.2	-38.6	282	10
2023-08-07T18:00	8181	348	-36.3	-38.6	284	9
2023-08-07T18:00	8207	347	-36.4	-38.7	287	9
2023-08-07T18:00	8233	346	-36.6	-38.6	289	9
2023-08-07T18:00	8261	344	-36.8	-38.9	292	9
2023-08-07T18:00	8285	343	-36.9	-39.1	293	9
2023-08-07T18:00	8312	342	-37.1	-39.4	295	9
2023-08-07T18:00	8341	340	-37.4	-39.6	295	9
2023-08-07T18:00	8364	339	-37.6	-39.8	295	9
2023-08-07T18:00	8393	338	-37.7		294	8
2023-08-07T18:00	8418	336	-37.9	-40.0	292	8
2023-08-07T18:00	8448	335	-38.1	-40.2	289	8
2023-08-07T18:00	8476	334	-38.3	-40.9	286	7
2023-08-07T18:00	8503	332	-38.5	-40.8	283	7
2023-08-07T18:00	8529	331	-38.7	-40.9	282	6
2023-08-07T18:00	8555	330	-38.9	-40.4	282	6
2023-08-07T18:00	8582	329	-39.0	-40.8	282	6
2023-08-07T18:00	8604	327	-39.1	-41.5	281	6
2023-08-07T18:00	8635	326	-39.3	-41.4	280	6
2023-08-07T18:00	8659	325	-39.5	-41.7	280	6
2023-08-07T18:00	8683	324	-39.7	-42.1	280	6
2023-08-07T18:00	8713	322	-40.0	-42.4	281	6
2023-08-07T18:00	8734	321	-40.1	-42.8	282	6
2023-08-07T18:00	8757	320	-40.3	-43.2	282	6
2023-08-07T18:00	8780	319	-40.5	-43.6	282	7
2023-08-07T18:00	8813	318	-40.8	-43.8	282	7
2023-08-07T18:00	8839	316	-41.0	-44.1	282	7
2023-08-07T18:00	8867	315	-41.2	-44.0	283	7
2023-08-07T18:00	8895	314	-41.5	-44.1	285	7
2023-08-07T18:00	8919	313	-41.7	-44.5	288	7
2023-08-07T18:00	8941	312	-41.9	-44.7	291	7
2023-08-07T18:00	8966	311	-42.1	-45.0	294	8
2023-08-07T18:00	8992	309	-42.3	-45.4	295	8
2023-08-07T18:00	9021	308	-42.5	-45.7	295	8
2023-08-07T18:00	9044	307	-42.7	-46.2	296	8
2023-08-07T18:00	9069	306	-42.9	-47.1	297	7
2023-08-07T18:00	9099	305	-43.1	-47.3	299	7
2023-08-07T18:00	9123	303	-43.4	-47.0	301	7
2023-08-07T18:00	9147	302	-43.6	-47.2	302	7
2023-08-07T18:00	9179	301	-43.9	-46.7	302	7
2023-08-07T18:00	9200	300	-44.1	-45.9	300	7
2023-08-07T18:00	9229	299	-44.3	-45.8	298	7
2023-08-07T18:00	9253	298	-44.5	-46.5	295	7
2023-08-07T18:00	9279	296	-44.7	-48.2	293	7
2023-08-07T18:00	9303	295	-44.8	-47.6	292	7
2023-08-07T18:00	9327	294	-45.0	-47.2	292	7
2023-08-07T18:00	9351	293	-45.2	-47.1	291	7
2023-08-07T18:00	9374	292	-45.4	-47.2	290	7
2023-08-07T18:00	9398	291	-45.6	-47.4	289	7
2023-08-07T18:00	9424	290	-45.8	-47.8	288	7
2023-08-07T18:00	9448	289	-46.0	-48.2	288	8
2023-08-07T18:00	9475	288	-46.3	-48.9	289	8
2023-08-07T18:00	9497	287	-46.4	-49.2	290	8
2023-08-07T18:00	9520	286	-46.6	-49.2	292	9
2023-08-07T18:00	9541	285	-46.7	-49.6	294	9
2023-08-07T18:00	9568	284	-46.9	-50.1	296	9
2023-08-07T18:00	9593	283	-47.1	-50.4	296	9
2023-08-07T18:00	9617	282	-47.3	-50.3	296	10
2023-08-07T18:00	9641	281	-47.5	-50.5	296	10
2023-08-07T18:00	9660	280	-47.6	-51.0	297	10
2023-08-07T18:00	9684	279	-47.8	-51.3	297	10
2023-08-07T18:00	9706	278	-48.0	-51.5	299	9
2023-08-07T18:00	9731	277	-48.2	-51.4	300	9
2023-08-07T18:00	9759	276	-48.4	-51.4	302	9
2023-08-07T18:00	9784	275	-48.6	-51.7	304	9
2023-08-07T18:00	9809	274	-48.9	-52.2	306	9
2023-08-07T18:00	9833	273	-49.1	-52.5	308	10
2023-08-07T18:00	9861	271	-49.3	-52.6	309	10
2023-08-07T18:00	9889	270	-49.5	-52.6	311	11
2023-08-07T18:00	9910	269	-49.6	-52.8	312	11
2023-08-07T18:00	9934	268	-49.8	-53.2	312	11
2023-08-07T18:00	9960	267	-50.0	-53.3	313	11
2023-08-07T18:00	9989	266	-50.2	-53.3	313	11
2023-08-07T18:00	10014	265	-50.4	-53.5	313	10
2023-08-07T18:00	10046	264	-50.6	-53.7	312	10
2023-08-07T18:00	10077	263	-50.6	-53.9	310	9
2023-08-07T18:00	10101	262	-50.5	-53.9	305	8
2023-08-07T18:00	10130	261	-50.6	-53.8	297	7
2023-08-07T18:00	10161	259	-50.7	-54.0	287	6
2023-08-07T18:00	10187	258	-50.8	-55.1	276	5
2023-08-07T18:00	10212	257	-50.4	-59.1	264	5
2023-08-07T18:00	10238	256	-49.2	-71.7	252	4
2023-08-07T18:00	10271	255	-48.0	-84.6	239	3
2023-08-07T18:00	10303	254	-47.5	-84.3	224	3
2023-08-07T18:00	10324	253	-47.4	-74.9	213	3
2023-08-07T18:00	10346	252	-47.5	-72.2	208	3
2023-08-07T18:00	10370	251	-47.1	-71.6	208	3
2023-08-07T18:00	10392	250	-46.2	-71.4	209	3
2023-08-07T18:00	10413	250	-45.6	-71.5	210	4
2023-08-07T18:00	10435	249	-45.4	-71.8	209	4
2023-08-07T18:00	10458	248	-44.8	-72.3	207	4
2023-08-07T18:00	10481	247	-44.3	-72.2	204	4
2023-08-07T18:00	10502	246	-44.3	-72.5	200	4
2023-08-07T18:00	10523	246	-43.9	-72.5	195	4
2023-08-07T18:00	10543	245	-43.9	-72.5	190	4
2023-08-07T18:00	10569	244	-43.9	-72.5	186	4
2023-08-07T18:00	10591	243	-43.4	-72.4	183	4
2023-08-07T18:00	10611	242	-42.9	-72.3	183	4
2023-08-07T18:00	10632	242	-42.9	-72.7	184	4
2023-08-07T18:00	10654	241	-42.9	-72.7	186	4
2023-08-07T18:00	10675	240	-42.9	-72.7	189	4
2023-08-07T18:00	10700	239	-42.8	-73.0	193	4
2023-08-07T18:00	10731	238	-42.9	-73.0	195	4
2023-08-07T18:00	10756	237	-42.8	-73.0	196	4
2023-08-07T18:00	10779	236	-42.7	-72.9	194	4
2023-08-07T18:00	10800	236	-42.6	-73.2	191	4
2023-08-07T18:00	10825	235	-42.3	-73.3	187	4
2023-08-07T18:00	10848	234	-41.9	-73.9	183	4
2023-08-07T18:00	10873	233	-41.5	-73.6	179	4
2023-08-07T18:00	10898	232	-41.4	-74.0	175	4
2023-08-07T18:00	10923	231	-41.3	-73.5	172	4
2023-08-07T18:00	10945	231	-41.5	-73.6	169	4
2023-08-07T18:00	10968	230	-41.5	-73.6	169	4
2023-08-07T18:00	10989	229	-41.7	-73.8	171	3
2023-08-07T18:00	11015	228	-41.8	-73.8	175	3
2023-08-07T18:00	11035	228	-42.0	-74.0	182	3
2023-08-07T18:00	11060	227	-41.8	-73.8	189	3
2023-08-07T18:00	11083	226	-41.7	-74.2	195	3
2023-08-07T18:00	11105	225	-41.7	-74.2	199	3
2023-08-07T18:00	11130	224	-41.7	-74.2	199	3
2023-08-07T18:00	11154	224	-41.4	-74.0	198	4
2023-08-07T18:00	11178	223	-41.3	-73.9	194	4
2023-08-07T18:00	11201	222	-41.1	-73.8	190	4
2023-08-07T18:00	11226	221	-41.0	-73.7	185	4
2023-08-07T18:00	11257	220	-41.1	-73.8	178	4
2023-08-07T18:00	11279	220	-41.2	-73.9	169	4
2023-08-07T18:00	11303	219	-41.1	-73.8	161	4
2023-08-07T18:00	11330	218	-41.1	-74.3	156	5
2023-08-07T18:00	11353	217	-41.0	-74.2	155	5
2023-08-07T18:00	11377	216	-40.9	-74.2	156	5
2023-08-07T18:00	11397	216	-40.8	-74.1	160	6
2023-08-07T18:00	11421	215	-40.7	-74.0	165	6
2023-08-07T18:00	11444	214	-40.7	-74.0	170	6
2023-08-07T18:00	11469	213	-40.8	-74.1	174	6
2023-08-07T18:00	11490	213	-40.7	-74.0	178	7
2023-08-07T18:00	11515	212	-40.6	-73.9	180	7
2023-08-07T18:00	11543	211	-40.7	-74.0	182	7
2023-08-07T18:00	11565	210	-40.6	-73.9	182	7
2023-08-07T18:00	11589	210	-40.7	-74.0	182	6
2023-08-07T18:00	11622	209	-40.8	-74.1	181	6
2023-08-07T18:00	11651	208	-40.8	-74.1	177	6
2023-08-07T18:00	11673	207	-40.7	-74.0	172	5
2023-08-07T18:00	11696	206	-40.7	-74.0	166	5
2023-08-07T18:00	11718	206	-40.6	-73.9	161	5
2023-08-07T18:00	11741	205	-40.5	-74.4	159	5
2023-08-07T18:00	11768	204	-40.3	-74.3	161	4
2023-08-07T18:00	11792	204	-40.2	-74.2	164	4
2023-08-07T18:00	11813	203	-40.2	-74.2	168	4
2023-08-07T18:00	11834	202	-40.3	-74.3	172	4
2023-08-07T18:00	11856	202	-40.4	-74.4	176	4
2023-08-07T18:00	11879	201	-40.3	-74.3	180	4
2023-08-07T18:00	11900	200	-40.4	-74.4	185	5
2023-08-07T18:00	11923	200	-40.3	-74.3	190	5
2023-08-07T18:00	11946	199	-40.4	-74.4	196	5
2023-08-07T18:00	11969	198	-40.5	-74.4	200	5
2023-08-07T18:00	11992	198	-40.6	-74.5	203	6
2023-08-07T18:00	12015	197	-40.5	-74.4	205	6
2023-08-07T18:00	12034	196	-40.4	-74.4	205	7
2023-08-07T18:00	12057	196	-40.4	-75.0	204	7
2023-08-07T18:00	12080	195	-40.5	-74.4	203	7
2023-08-07T18:00	12105	194	-40.5	-74.4	201	7
2023-08-07T18:00	12133	194	-40.5	-74.4	200	7
2023-08-07T18:00	12154	193	-40.6	-74.5	197	6
2023-08-07T18:00	12177	192	-40.6	-75.1	193	6
2023-08-07T18:00	12204	192	-40.5	-75.0	189	6
2023-08-07T18:00	12229	191	-40.4	-75.0	185	6
2023-08-07T18:00	12252	190	-40.3	-74.9	182	6
2023-08-07T18:00	12278	190	-40.4	-75.0	181	6
2023-08-07T18:00	12297	189	-40.4	-74.4	180	6
2023-08-07T18:00	12323	188	-40.5	-74.4	180	7
2023-08-07T18:00	12344	188	-40.6	-74.5	180	7
2023-08-07T18:00	12365	187	-40.6	-74.5	179	7
2023-08-07T18:00	12387	187	-40.6	-74.5	178	8
2023-08-07T18:00	12412	186	-40.7	-74.6	177	9
2023-08-07T18:00	12432	185	-40.8	-74.7	175	9
2023-08-07T18:00	12455	185	-40.6	-74.5	173	9
2023-08-07T18:00	12475	184	-40.5	-75.0	170	9
2023-08-07T18:00	12499	184	-40.3	-74.9	167	9
2023-08-07T18:00	12521	183	-40.3	-74.9	165	8
2023-08-07T18:00	12544	182	-40.3	-74.9	163	7
2023-08-07T18:00	12567	182	-40.4	-75.0	162	7
2023-08-07T18:00	12594	181	-40.4	-75.0	162	6
2023-08-07T18:00	12619	180	-40.5	-75.0	163	5
2023-08-07T18:00	12644	180	-40.6	-74.5	163	5
2023-08-07T18:00	12667	179	-40.8	-74.7	162	5
2023-08-07T18:00	12689	178	-40.9	-74.7	161	4
2023-08-07T18:00	12712	178	-40.8	-74.7	161	4
2023-08-07T18:00	12737	177	-40.6	-75.1	160	4
2023-08-07T18:00	12761	177	-40.7	-75.2	159	4
2023-08-07T18:00	12784	176	-40.8	-75.3	157	5
2023-08-07T18:00	12805	175	-40.9	-75.3	156	5
2023-08-07T18:00	12829	175	-40.8	-75.3	154	5
2023-08-07T18:00	12850	174	-40.7	-75.2	153	6
2023-08-07T18:00	12877	174	-40.6	-75.1	153	7
2023-08-07T18:00	12900	173	-40.4	-75.0	154	8
2023-08-07T18:00	12925	172	-40.5	-75.0	155	8
2023-08-07T18:00	12950	172	-40.6	-75.1	156	9
2023-08-07T18:00	12972	171	-40.7	-75.2	157	10
2023-08-07T18:00	12994	171	-40.8	-75.3	156	10
2023-08-07T18:00	13018	170	-41.0	-75.4	156	11
2023-08-07T18:00	13044	169	-41.1	-75.5	155	11
2023-08-07T18:00	13067	169	-41.3	-75.6	154	11
2023-08-07T18:00	13090	168	-41.2	-75.6	153	11
2023-08-07T18:00	13113	168	-40.9	-75.3	153	11
2023-08-07T18:00	13140	167	-40.9	-75.3	154	11
2023-08-07T18:00	13160	167	-40.9	-75.3	155	10
2023-08-07T18:00	13187	166	-40.9	-75.3	156	10
2023-08-07T18:00	13208	165	-40.9	-75.3	156	9
2023-08-07T18:00	13234	165	-41.0	-75.4	156	9
2023-08-07T18:00	13257	164	-41.1	-75.5	155	9
2023-08-07T18:00	13281	164	-41.2	-75.6	154	9
2023-08-07T18:00	13304	163	-41.3	-75.6	153	9
2023-08-07T18:00	13327	163	-41.4	-75.7	152	8
2023-08-07T18:00	13350	162	-41.4	-75.7	151	8
2023-08-07T18:00	13371	161	-41.5	-75.8	151	8
2023-08-07T18:00	13397	161	-41.5	-75.8	151	8
2023-08-07T18:00	13419	160	-41.5	-75.8	152	8
2023-08-07T18:00	13444	160	-41.6	-75.8	153	8
2023-08-07T18:00	13465	159	-41.6	-75.8	155	8
2023-08-07T18:00	13491	159	-41.7	-75.9	157	8
2023-08-07T18:00	13513	158	-41.8	-76.0	158	7
2023-08-07T18:00	13535	158	-42.0	-76.1	160	7
2023-08-07T18:00	13560	157	-42.2	-76.3	162	7
2023-08-07T18:00	13585	156	-42.4	-76.4	164	7
2023-08-07T18:00	13606	156	-42.6	-76.0	164	7
2023-08-07T18:00	13628	155	-42.8	-76.1	163	7
2023-08-07T18:00	13651	155	-42.7	-76.6	161	7
2023-08-07T18:00	13673	154	-42.7	-76.6	157	6
2023-08-07T18:00	13694	154	-42.8	-76.7	153	7
2023-08-07T18:00	13716	153	-42.8	-76.7	151	7
2023-08-07T18:00	13739	153	-42.8	-76.7	151	7
2023-08-07T18:00	13761	152	-43.0	-76.9	153	8
2023-08-07T18:00	13783	152	-43.0	-76.9	155	8
2023-08-07T18:00	13803	151	-43.1	-76.9	156	9
2023-08-07T18:00	13824	151	-43.1	-76.9	158	9
2023-08-07T18:00	13847	150	-43.2	-77.0	158	10
2023-08-07T18:00	13870	150	-43.3	-77.1	158	10
2023-08-07T18:00	13890	150	-43.4	-77.2	157	10
2023-08-07T18:00	13911	149	-43.4	-76.6	156	10
2023-08-07T18:00	13931	149	-43.5	-76.6	156	10
2023-08-07T18:00	13952	148	-43.5	-76.6	155	10
2023-08-07T18:00	13973	148	-43.4	-77.2	155	10
2023-08-07T18:00	13993	147	-43.4	-76.6	157	9
2023-08-07T18:00	14014	147	-43.4	-76.6	160	9
2023-08-07T18:00	14036	146	-43.3	-77.1	164	9
2023-08-07T18:00	14059	146	-43.2	-77.0	168	8
2023-08-07T18:00	14083	145	-43.0	-76.9	171	8
2023-08-07T18:00	14108	145	-43.0	-76.9	174	8
2023-08-07T18:00	14127	144	-43.0	-76.9	175	9
2023-08-07T18:00	14151	144	-43.0	-76.9	176	9
2023-08-07T18:00	14173	143	-43.2	-76.4	176	10
2023-08-07T18:00	14199	143	-43.3	-76.5	175	10
2023-08-07T18:00	14220	142	-43.5	-76.6	174	11
2023-08-07T18:00	14242	142	-43.6	-76.7	174	12
2023-08-07T18:00	14269	141	-43.6	-76.7	174	13
2023-08-07T18:00	14290	141	-43.6	-76.7	173	13
2023-08-07T18:00	14314	140	-43.6	-76.7	174	14
2023-08-07T18:00	14338	140	-43.6	-76.7	174	15
2023-08-07T18:00	14358	139	-43.7	-76.8	175	15
2023-08-07T18:00	14383	139	-43.8	-76.9	176	16
2023-08-07T18:00	14409	138	-43.9	-76.9	178	16
2023-08-07T18:00	14433	138	-44.1	-77.1	179	17
2023-08-07T18:00	14454	137	-44.2	-77.1	181	17
2023-08-07T18:00	14481	137	-44.3	-77.2	183	17
2023-08-07T18:00	14501	136	-44.4	-77.3	185	17
2023-08-07T18:00	14526	136	-44.2	-77.1	186	16
2023-08-07T18:00	14552	135	-44.4	-77.3	188	16
2023-08-07T18:00	14576	135	-44.4	-77.3	189	16
2023-08-07T18:00	14599	135	-44.1	-77.7	190	17
2023-08-07T18:00	14624	134	-43.9	-77.5	191	17
2023-08-07T18:00	14649	134	-44.0	-77.6	192	16
2023-08-07T18:00	14673	133	-44.1	-77.1	193	16
2023-08-07T18:00	14697	133	-44.2	-77.1	193	16
2023-08-07T18:00	14727	132	-44.3	-77.2	194	15
2023-08-07T18:00	14751	132	-44.4	-77.3	193	14
2023-08-07T18:00	14774	131	-44.2	-77.7	192	13
2023-08-07T18:00	14796	131	-43.8	-77.4	190	13
2023-08-07T18:00	14820	130	-43.8	-77.4	188	12
2023-08-07T18:00	14844	130	-43.9	-77.5	185	12
2023-08-07T18:00	14869	129	-43.9	-77.5	183	12
2023-08-07T18:00	14891	129	-43.8	-77.4	181	12
2023-08-07T18:00	14919	128	-43.9	-77.5	180	11
2023-08-07T18:00	14944	128	-44.0	-77.6	179	11
2023-08-07T18:00	14965	127	-44.2	-77.7	178	11
2023-08-07T18:00	14992	127	-44.4	-77.3	176	11
2023-08-07T18:00	15014	126	-44.6	-77.4	174	11
2023-08-07T18:00	15040	126	-44.8	-77.6	172	11
2023-08-07T18:00	15066	125	-44.9	-77.7	169	11
2023-08-07T18:00	15092	125	-44.9	-77.7	167	11
2023-08-07T18:00	15116	125	-45.0	-77.7	164	11
2023-08-07T18:00	15143	124	-45.2	-77.9	161	11
2023-08-07T18:00	15174	124	-45.4	-78.0	159	11
2023-08-07T18:00	15200	123	-45.7	-78.2	156	10
2023-08-07T18:00	15226	123	-45.9	-78.4	154	10
2023-08-07T18:00	15250	122	-46.0	-78.5	152	10
2023-08-07T18:00	15271	122	-45.9	-78.4	150	10
2023-08-07T18:00	15296	121	-45.9	-78.4	149	10
2023-08-07T18:00	15318	121	-46.0	-78.5	147	10
2023-08-07T18:00	15342	120	-46.1	-78.5	146	10
2023-08-07T18:00	15367	120	-46.2	-78.6	146	9
2023-08-07T18:00	15388	120	-46.1	-78.5	146	9
2023-08-07T18:00	15412	119	-46.1	-78.5	146	9
2023-08-07T18:00	15437	119	-46.3	-78.7	147	9
2023-08-07T18:00	15459	118	-46.4	-78.8	148	9
2023-08-07T18:00	15480	118	-46.6	-78.9	148	8
2023-08-07T18:00	15507	117	-46.8	-79.1	149	8
2023-08-07T18:00	15524	117	-47.1	-78.7	149	8
2023-08-07T18:00	15555	117	-47.3	-78.9	149	8
2023-08-07T18:00	15576	116	-47.5	-79.0	148	7
2023-08-07T18:00	15598	116	-47.6	-79.1	148	7
2023-08-07T18:00	15622	115	-47.7		149	7
2023-08-07T18:00	15646	115	-47.9	-79.3	150	7
2023-08-07T18:00	15667	115	-48.1	-79.5	151	7
2023-08-07T18:00	15692	114	-48.3	-79.6	153	7
2023-08-07T18:00	15716	114	-48.5	-79.8	155	7
2023-08-07T18:00	15741	113	-48.6	-79.9	157	7
2023-08-07T18:00	15765	113	-48.8	-79.5	160	7
2023-08-07T18:00	15788	113	-49.0	-79.7	163	7
2023-08-07T18:00	15811	112	-49.2	-79.8	167	7
2023-08-07T18:00	15836	112	-49.2	-79.8	170	7
2023-08-07T18:00	15862	111	-49.2	-79.8	172	6
2023-08-07T18:00	15888	111	-49.3	-79.9	174	6
2023-08-07T18:00	15911	110	-49.4	-80.0	176	6
2023-08-07T18:00	15934	110	-49.4	-80.0	178	6
2023-08-07T18:00	15958	110	-49.5	-80.5	179	6
2023-08-07T18:00	15985	109	-49.4	-80.5	179	5
2023-08-07T18:00	16008	109	-49.4	-80.0	180	5
2023-08-07T18:00	16032	108	-49.6	-80.1	179	5
2023-08-07T18:00	16055	108	-49.8	-80.3	178	5
2023-08-07T18:00	16079	108	-50.0	-80.4	175	5
2023-08-07T18:00	16101	107	-50.1	-80.5	172	4
2023-08-07T18:00	16122	107	-50.1	-80.5	167	4
2023-08-07T18:00	16148	107	-50.0	-80.4	162	4
2023-08-07T18:00	16173	106	-50.0	-80.9	157	4
2023-08-07T18:00	16193	106	-49.8	-80.8	152	5
2023-08-07T18:00	16218	105	-49.6	-80.6	149	5
2023-08-07T18:00	16243	105	-49.5	-80.5	147	5
2023-08-07T18:00	16266	105	-49.7	-80.7	146	6
2023-08-07T18:00	16291	104	-49.9	-80.8	147	6
2023-08-07T18:00	16313	104	-50.0	-80.9	148	7
2023-08-07T18:00	16340	103	-50.2	-81.0	150	7
2023-08-07T18:00	16360	103	-50.2	-81.0	152	7
2023-08-07T18:00	16384	103	-50.0	-80.9	155	6
2023-08-07T18:00	16405	102	-49.9	-80.8	159	6
2023-08-07T18:00	16429	102	-50.0	-80.9	161	6
2023-08-07T18:00	16453	102	-50.1	-81.0	163	6
2023-08-07T18:00	16477	101	-50.0	-80.9	161	5
2023-08-07T18:00	16499	101	-49.6	-80.6	158	5
2023-08-07T18:00	16522	101	-49.5	-81.1	152	5
2023-08-07T18:00	16542	100	-49.5	-81.1	147	5
2023-08-07T18:00	16570	100	-49.4	-81.0	143	5
2023-08-07T18:00	16590	100	-49.3	-80.9	141	6
2023-08-07T18:00	16610	99	-49.2	-80.8	141	6
2023-08-07T18:00	16634	99	-49.1	-80.8	141	6
2023-08-07T18:00	16656	99	-49.3	-80.9	141	6
2023-08-07T18:00	16679	98	-49.4	-81.0	141	7
2023-08-07T18:00	16704	98	-49.5	-80.5	142	7
2023-08-07T18:00	16725	98	-49.5	-80.5	143	7
2023-08-07T18:00	16750	97	-49.5	-80.5	144	7
2023-08-07T18:00	16774	97	-49.6	-80.6	145	7
2023-08-07T18:00	16797	96	-49.7	-80.7	146	7
2023-08-07T18:00	16820	96	-49.9	-80.8	146	8
2023-08-07T18:00	16847	96	-50.0	-80.9	146	8
2023-08-07T18:00	16864	95	-50.0	-80.9	146	9
2023-08-07T18:00	16889	95	-49.8	-81.3	145	9
2023-08-07T18:00	16916	95	-49.6	-81.1	145	9
2023-08-07T18:00	16942	94	-49.4	-81.0	143	10
2023-08-07T18:00	16960	94	-49.3	-80.9	142	9
2023-08-07T18:00	16986	94	-49.1	-80.8	140	9
2023-08-07T18:00	17008	93	-48.9	-80.6	139	9
2023-08-07T18:00	17034	93	-49.0	-80.7	138	9
2023-08-07T18:00	17055	93	-49.0	-80.7	138	8
2023-08-07T18:00	17084	92	-49.1	-80.8	138	8
2023-08-07T18:00	17109	92	-49.3	-80.9	139	8
2023-08-07T18:00	17134	92	-49.5	-80.5	140	7
2023-08-07T18:00	17156	91	-49.7	-80.7	140	7
2023-08-07T18:00	17186	91	-49.9	-80.8	140	7
2023-08-07T18:00	17208	91	-50.0	-80.9	140	7
2023-08-07T18:00	17236	90	-50.1	-81.0	138	7
2023-08-07T18:00	17262	90	-50.2	-81.0	137	7
2023-08-07T18:00	17289	89	-50.3	-81.1	135	7
2023-08-07T18:00	17311	89	-50.5	-81.3	134	7
2023-08-07T18:00	17337	89	-50.7	-81.4	133	7
2023-08-07T18:00	17370	88	-50.8	-81.0	132	7
2023-08-07T18:00	17394	88	-50.9	-81.1	130	7
2023-08-07T18:00	17421	88	-51.1	-81.2	129	7
2023-08-07T18:00	17447	87	-51.3	-81.4	127	7
2023-08-07T18:00	17473	87	-51.6	-81.6	127	7
2023-08-07T18:00	17501	87	-51.8	-81.8	128	7
2023-08-07T18:00	17531	86	-51.9	-81.8	131	6
2023-08-07T18:00	17557	86	-51.8	-81.8	136	6
2023-08-07T18:00	17586	86	-51.4	-81.5	142	6
2023-08-07T18:00	17610	85	-51.5	-82.0	147	6
2023-08-07T18:00	17637	85	-51.5	-82.0	152	6
2023-08-07T18:00	17663	84	-51.7	-81.7	155	6
2023-08-07T18:00	17688	84	-51.8	-81.8	157	6
2023-08-07T18:00	17716	84	-52.0	-81.9	159	6
2023-08-07T18:00	17739	83	-52.2	-82.1	160	5
2023-08-07T18:00	17767	83	-52.4	-82.2	159	5
2023-08-07T18:00	17793	83	-52.5	-82.3	158	5
2023-08-07T18:00	17815	83	-52.6	-81.9	154	4
2023-08-07T18:00	17838	82	-52.5	-81.8	148	4
2023-08-07T18:00	17867	82	-52.7	-82.4	141	4
2023-08-07T18:00	17891	82	-52.9	-82.6	136	4
2023-08-07T18:00	17914	81	-53.0	-82.7	134	4
2023-08-07T18:00	17937	81	-53.0	-82.7	134	5
2023-08-07T18:00	17964	81	-53.1	-82.3	137	5
2023-08-07T18:00	17988	80	-53.2	-82.4	141	5
2023-08-07T18:00	18013	80	-53.2	-82.4	146	5
2023-08-07T18:00	18035	80	-53.3	-82.9	150	6
2023-08-07T18:00	18058	79	-53.3	-82.9	155	6
2023-08-07T18:00	18082	79	-53.1	-82.7	159	6
2023-08-07T18:00	18103	79	-52.9	-82.6	164	6
2023-08-07T18:00	18130	79	-52.8	-82.5	169	5
2023-08-07T18:00	18149	78	-52.8	-82.5	174	5
2023-08-07T18:00	18171	78	-52.7	-82.4	177	5
2023-08-07T18:00	18195	78	-52.6	-82.4	178	5
2023-08-07T18:00	18214	78	-52.7	-82.4	177	6
2023-08-07T18:00	18241	77	-52.8	-82.5	175	6
2023-08-07T18:00	18257	77	-52.8	-82.5	174	6
2023-08-07T18:00	18281	77	-52.8	-82.5	174	6
2023-08-07T18:00	18302	76	-52.7	-82.4	176	7
2023-08-07T18:00	18327	76	-52.6	-82.8	180	7
2023-08-07T18:00	18352	76	-52.4	-82.7	184	7
2023-08-07T18:00	18372	76	-52.3	-82.6	188	8
2023-08-07T18:00	18397	75	-52.1	-82.5	191	8
2023-08-07T18:00	18420	75	-52.1	-82.5	193	8
2023-08-07T18:00	18440	75	-52.0	-82.4	196	8
2023-08-07T18:00	18467	75	-52.0	-82.4	197	9
2023-08-07T18:00	18487	74	-51.7	-82.7	198	9
2023-08-07T18:00	18514	74	-51.4	-82.5	198	9
2023-08-07T18:00	18538	74	-51.4	-82.5	198	9
2023-08-07T18:00	18558	74	-51.2	-82.3	198	10
2023-08-07T18:00	18581	73	-51.1	-82.2	199	10
2023-08-07T18:00	18609	73	-51.1	-82.2	200	9
2023-08-07T18:00	18631	73	-51.0	-82.2	201	9
2023-08-07T18:00	18652	72	-50.7		202	8
2023-08-07T18:00	18676	72	-50.4	-81.7	202	7
2023-08-07T18:00	18704	72	-50.4	-81.7	201	7
2023-08-07T18:00	18729	72	-50.4	-81.7	198	6
2023-08-07T18:00	18754	71	-50.4	-81.7	194	5
2023-08-07T18:00	18774	71	-50.5	-81.8	191	5
2023-08-07T18:00	18804	71	-50.6	-81.9	188	5
2023-08-07T18:00	18824	71	-50.6	-81.9	187	4
2023-08-07T18:00	18853	70	-50.7		187	4
2023-08-07T18:00	18874	70	-50.8	-81.5	187	3
2023-08-07T18:00	18901	70	-50.9	-81.6	189	3
2023-08-07T18:00	18925	70	-50.9	-81.6	191	2
2023-08-07T18:00	18952	69	-51.0	-81.6	194	2
2023-08-07T18:00	18973	69	-51.1	-81.7	197	2
2023-08-07T18:00	19001	69	-51.3	-81.9	201	1
2023-08-07T18:00	19026	68	-51.4	-81.9	207	1
2023-08-07T18:00	19053	68	-51.6	-82.1	220	1
2023-08-07T18:00	19077	68	-51.8	-81.8	241	1
2023-08-07T18:00	19102	68	-52.0	-81.9	267	1
2023-08-07T18:00	19126	67	-52.1	-82.0	289	1
2023-08-07T18:00	19150	67	-52.3	-82.1	309	1
2023-08-07T18:00	19176	67	-52.4	-82.2	333	1
2023-08-07T18:00	19211	67	-52.5	-82.3	3	1
2023-08-07T18:00	19238	66	-52.7	-82.4	29	2
2023-08-07T18:00	19276	66	-52.8	-82.5	45	3
2023-08-07T18:00	19302	66	-52.6	-82.4	52	4
2023-08-07T18:00	19333	65	-52.4	-82.7	55	5
2023-08-07T18:00	19370	65	-52.5	-82.8	56	6
2023-08-07T18:00	19394	65	-52.3	-82.6	57	7
2023-08-07T18:00	19419	64	-52.4	-82.7	60	7
2023-08-07T18:00	19440	64	-52.3	-82.6	63	8
2023-08-07T18:00	19472	64	-52.2	-82.5	68	8
2023-08-07T18:00	19500	64	-52.2	-82.5	73	8
2023-08-07T18:00	19520	63	-52.5	-82.8	79	8
2023-08-07T18:00	19553	63	-52.6	-82.4	85	8
2023-08-07T18:00	19577	63	-52.7	-82.4	90	8
2023-08-07T18:00	19606	63	-53.0	-82.7	96	9
2023-08-07T18:00	19636	62	-53.1	-82.7	101	9
2023-08-07T18:00	19665	62	-53.2	-82.8	105	9
2023-08-07T18:00	19691	62	-53.4	-83.0	109	10
2023-08-07T18:00	19721	61	-53.5	-82.6	113	10
2023-08-07T18:00	19748	61	-53.7	-82.8	116	10
2023-08-07T18:00	19775	61	-53.8	-82.8	120	10
2023-08-07T18:00	19802	61	-53.8	-82.8	123	10
2023-08-07T18:00	19825	60	-53.8	-82.8	126	10
2023-08-07T18:00	19849	60	-53.9	-82.9	129	9
2023-08-07T18:00	19879	60	-54.0	-83.0	131	9
2023-08-07T18:00	19907	60	-54.1	-83.1	133	9
2023-08-07T18:00	19927	60	-54.3	-83.2	136	8
2023-08-07T18:00	19953	59	-54.4	-83.3	139	8
2023-08-07T18:00	19984	59	-54.5	-83.4	143	7
2023-08-07T18:00	20002	59	-54.5	-83.4	148	7
2023-08-07T18:00	20030	59	-54.7	-83.5	153	7
2023-08-07T18:00	20055	58	-54.8	-83.6	157	6
2023-08-07T18:00	20078	58	-54.7	-83.5	158	6
2023-08-07T18:00	20104	58	-54.7	-83.5	155	5
2023-08-07T18:00	20126	58	-54.6	-83.4	149	5
2023-08-07T18:00	20154	57	-54.5	-83.4	141	5
2023-08-07T18:00	20179	57	-54.5	-83.4	133	5
2023-08-07T18:00	20205	57	-54.6	-83.4	127	6
2023-08-07T18:00	20229	57	-54.6	-83.4	125	7
2023-08-07T18:00	20255	57	-54.7	-83.9	124	8
2023-08-07T18:00	20273	56	-54.4	-83.7	125	9
2023-08-07T18:00	20298	56	-53.8	-83.3	126	10
2023-08-07T18:00	20327	56	-53.6	-83.6	127	10
2023-08-07T18:00	20351	56	-53.6	-83.6	129	11
2023-08-07T18:00	20373	56	-53.6	-83.6	132	11
2023-08-07T18:00	20399	55	-53.6	-83.6	135	11
2023-08-07T18:00	20418	55	-53.6	-83.6	138	10
2023-08-07T18:00	20446	55	-53.5	-83.5	142	10
2023-08-07T18:00	20473	55	-53.3		146	9
2023-08-07T18:00	20500	54	-53.2	-83.3	150	8
2023-08-07T18:00	20521	54	-53.2	-83.3	154	8
2023-08-07T18:00	20548	54	-53.1	-83.2	159	7
2023-08-07T18:00	20571	54	-52.8	-83.0	166	6
2023-08-07T18:00	20595	54	-52.5	-82.8	174	5
2023-08-07T18:00	20620	53	-52.5	-82.8	184	4
2023-08-07T18:00	20643	53	-52.5	-82.8	196	4
2023-08-07T18:00	20668	53	-52.5	-82.8	209	4
2023-08-07T18:00	20698	53	-52.5	-82.8	221	3
2023-08-07T18:00	20722	53	-52.5	-82.8	232	3
2023-08-07T18:00	20748	52	-52.6	-82.8	240	2
2023-08-07T18:00	20775	52	-52.6	-82.8	240	2
2023-08-07T18:00	20799	52	-52.6	-82.8	215	1
2023-08-07T18:00	20825	52	-52.4	-82.7	164	1
2023-08-07T18:00	20857	52	-52.0	-82.4	144	2
2023-08-07T18:00	20879	51	-51.7	-82.7	140	3
2023-08-07T18:00	20906	51	-51.7	-82.2	139	4
2023-08-07T18:00	20932	51	-51.9	-82.3	140	4
2023-08-07T18:00	20966	51	-52.1	-82.5	140	5
2023-08-07T18:00	20988	50	-52.4	-82.2	141	6
2023-08-07T18:00	21012	50	-52.6	-82.4	143	7
2023-08-07T18:00	21039	50	-52.8	-82.5	144	7
2023-08-07T18:00	21066	50	-53.0	-82.7	146	8
2023-08-07T18:00	21089	50	-53.2	-82.8	147	8
2023-08-07T18:00	21113	50	-53.3	-82.9	148	8
2023-08-07T18:00	21137	49	-53.1	-82.7	148	8
2023-08-07T18:00	21163	49	-52.6	-82.8	148	7
2023-08-07T18:00	21193	49	-52.4	-82.7	148	6
2023-08-07T18:00	21218	49	-52.4	-82.7	149	5
2023-08-07T18:00	21244	49	-52.3	-82.6	150	4
2023-08-07T18:00	21268	48	-52.3	-82.6	152	4
2023-08-07T18:00	21303	48	-52.2	-82.5	155	4
2023-08-07T18:00	21325	48	-52.0	-82.4	157	3
2023-08-07T18:00	21349	48	-52.0	-82.4	159	3
2023-08-07T18:00	21375	48	-52.0	-82.4	158	3
2023-08-07T18:00	21399	47	-52.0	-82.4	155	3
2023-08-07T18:00	21430	47	-52.2	-82.5	149	3
2023-08-07T18:00	21456	47	-52.1	-82.5	142	3
2023-08-07T18:00	21478	47	-52.1	-82.5	137	3
2023-08-07T18:00	21503	47	-52.2	-82.5	135	4
2023-08-07T18:00	21537	46	-52.3	-82.6	136	4
2023-08-07T18:00	21558	46	-52.2	-82.5	138	4
2023-08-07T18:00	21585	46	-52.1	-82.5	141	4
2023-08-07T18:00	21616	46	-52.1	-82.5	144	4
2023-08-07T18:00	21638	46	-52.3	-82.6	146	4
2023-08-07T18:00	21659	45	-52.5	-82.8	145	4
2023-08-07T18:00	21687	45	-52.4	-82.7	139	3
2023-08-07T18:00	21717	45	-52.2	-82.5	127	3
2023-08-07T18:00	21745	45	-52.2	-82.5	109	3
2023-08-07T18:00	21764	45	-52.0	-82.4	92	3
2023-08-07T18:00	21797	45	-52.0	-82.4	79	4
2023-08-07T18:00	21821	44	-51.9	-82.3	73	5
2023-08-07T18:00	21845	44	-51.7	-82.7	70	6
2023-08-07T18:00	21873	44	-51.6	-82.6	69	6
2023-08-07T18:00	21897	44	-51.3	-82.4	69	7
2023-08-07T18:00	21928	44	-51.2	-82.3	70	7
2023-08-07T18:00	21951	44	-51.3	-82.4	71	7
2023-08-07T18:00	21977	43	-51.3	-82.4	71	8
2023-08-07T18:00	22002	43	-51.1	-82.2	71	8
2023-08-07T18:00	22028	43	-51.1	-82.2	71	9
2023-08-07T18:00	22056	43	-51.1	-82.2	71	10
2023-08-07T18:00	22084	43	-51.2	-81.8	71	11
2023-08-07T18:00	22108	42	-51.3	-81.9	71	11
2023-08-07T18:00	22135	42	-51.4	-81.9	73	12
2023-08-07T18:00	22159	42	-51.5	-82.0	74	12
2023-08-07T18:00	22184	42	-51.6	-82.1	76	11
2023-08-07T18:00	22210	42	-51.7	-82.2	78	11
2023-08-07T18:00	22242	42	-51.5	-82.0	81	10
2023-08-07T18:00	22268	41	-51.5	-82.0	84	10
2023-08-07T18:00	22293	41	-51.6	-82.1	86	10
2023-08-07T18:00	22323	41	-51.8	-82.2	88	9
2023-08-07T18:00	22341	41	-51.8	-82.2	89	9
2023-08-07T18:00	22375	41	-51.9	-82.3	90	9
2023-08-07T18:00	22398	41	-52.2	-82.5	91	9
2023-08-07T18:00	22425	40	-52.2	-82.5	91	9
2023-08-07T18:00	22454	40	-52.0	-82.4	92	9
2023-08-07T18:00	22484	40	-52.1	-82.5	93	10
2023-08-07T18:00	22504	40	-52.1	-82.5	94	10
2023-08-07T18:00	22533	40	-52.1	-82.5	95	11
2023-08-07T18:00	22569	40	-51.9	-82.3	95	11
2023-08-07T18:00	22593	39	-51.9	-82.3	96	12
2023-08-07T18:00	22620	39	-52.1	-82.0	96	12
2023-08-07T18:00	22654	39	-52.2	-82.1	96	13
2023-08-07T18:00	22679	39	-52.3	-82.1	97	13
2023-08-07T18:00	22705	39	-52.4	-82.2	98	13
2023-08-07T18:00	22736	39	-52.4	-82.2	99	13
2023-08-07T18:00	22761	38	-52.5	-82.3	100	12
2023-08-07T18:00	22790	38	-52.5	-82.3	101	11
2023-08-07T18:00	22820	38	-52.6	-82.4	101	11
2023-08-07T18:00	22838	38	-52.6	-82.8	100	10
2023-08-07T18:00	22870	38	-52.5	-82.8	99	10
2023-08-07T18:00	22893	38	-52.3	-82.6	97	9
2023-08-07T18:00	22931	37	-52.3	-82.6	96	9
2023-08-07T18:00	22953	37	-52.3	-82.6	95	8
2023-08-07T18:00	22989	37	-52.1	-82.5	96	8
2023-08-07T18:00	23005	37	-52.0	-82.4	97	8
2023-08-07T18:00	23035	37	-51.9	-82.3	100	8
2023-08-07T18:00	23058	37	-51.9	-82.3	102	8
2023-08-07T18:00	23085	36	-52.0	-82.4	104	8
2023-08-07T18:00	23118	36	-52.2	-82.5	105	8
2023-08-07T18:00	23149	36	-52.3	-82.6	107	8
2023-08-07T18:00	23168	36	-52.3	-82.6	109	8
2023-08-07T18:00	23200	36	-52.4	-82.2	111	8
2023-08-07T18:00	23228	36	-52.5	-82.3	113	8
2023-08-07T18:00	23256	36	-52.6	-82.4	114	7
2023-08-07T18:00	23280	35	-52.7	-82.4	113	7
2023-08-07T18:00	23308	35	-52.7	-82.9	111	6
2023-08-07T18:00	23339	35	-52.6	-82.8	106	6
2023-08-07T18:00	23366	35	-52.4	-82.7	100	6
2023-08-07T18:00	23398	35	-52.2	-82.5	95	6
2023-08-07T18:00	23426	35	-51.9	-82.8	93	6
2023-08-07T18:00	23455	34	-51.8	-82.8	95	7
2023-08-07T18:00	23488	34	-51.9	-82.8	98	8
2023-08-07T18:00	23514	34	-51.6	-82.6	102	8
2023-08-07T18:00	23544	34	-51.4	-82.5	105	9
2023-08-07T18:00	23568	34	-51.3	-82.4	108	9
2023-08-07T18:00	23598	34	-51.3	-82.4	111	9
2023-08-07T18:00	23629	34	-51.4	-81.9	113	9
2023-08-07T18:00	23663	33	-51.6	-82.1	115	8
2023-08-07T18:00	23686	33	-51.7	-82.2	118	8
2023-08-07T18:00	23717	33	-51.8	-82.2	119	7
2023-08-07T18:00	23743	33	-51.9	-82.3	119	7
2023-08-07T18:00	23771	33	-52.0	-82.4	117	7
2023-08-07T18:00	23799	33	-51.9	-82.3	114	7
2023-08-07T18:00	23830	33	-51.7	-82.2	109	7
2023-08-07T18:00	23860	32	-51.6	-82.1	104	8
2023-08-07T18:00	23890	32	-51.5	-82.5	100	8
2023-08-07T18:00	23918	32	-51.5	-82.5	96	8
2023-08-07T18:00	23948	32	-51.4	-82.5	94	8
2023-08-07T18:00	23972	32	-51.3	-82.4	92	8
2023-08-07T18:00	24007	32	-51.2	-82.3	90	8
2023-08-07T18:00	24035	32	-51.2	-82.3	87	8
2023-08-07T18:00	24063	31	-51.2	-82.3	83	7
2023-08-07T18:00	24094	31	-51.1	-82.2	79	7
2023-08-07T18:00	24119	31	-51.2	-82.3	74	7
2023-08-07T18:00	24144	31	-51.2	-82.3	70	7
2023-08-07T18:00	24174	31	-51.3	-82.4	69	7
2023-08-07T18:00	24202	31	-51.3	-81.9	69	8
2023-08-07T18:00	24238	31	-51.3	-81.9	70	8
2023-08-07T18:00	24264	30	-51.1	-82.2	72	9
2023-08-07T18:00	24283	30	-51.0	-82.2	75	10
2023-08-07T18:00	24316	30	-51.1	-82.2	77	11
2023-08-07T18:00	24345	30	-51.1	-82.2	78	12
2023-08-07T18:00	24374	30	-51.1	-81.7	79	12
2023-08-07T18:00	24400	30	-51.2	-81.8	80	13
2023-08-07T18:00	24429	30	-51.4	-81.9	81	13
2023-08-07T18:00	24455	30	-51.4	-81.9	82	13
2023-08-07T18:00	24483	29	-51.4	-81.9	83	13
2023-08-07T18:00	24515	29	-51.3	-82.4	85	13
2023-08-07T18:00	24540	29	-51.2	-82.3	87	13
2023-08-07T18:00	24574	29	-51.2	-82.3	90	13
2023-08-07T18:00	24593	29	-51.1	-82.2	92	13
2023-08-07T18:00	24625	29	-51.2	-82.3	95	13
2023-08-07T18:00	24658	29	-51.3	-81.9	97	13
2023-08-07T18:00	24681	29	-51.4	-81.9	99	13
2023-08-07T18:00	24698	28	-51.5	-82.0	100	13
2023-08-07T18:00	24735	28	-51.8	-82.2	101	13
2023-08-07T18:00	24755	28	-51.8	-82.2	101	12
2023-08-07T18:00	24793	28	-51.7	-82.2	101	12
2023-08-07T18:00	24804	28	-51.8	-82.2	102	11
2023-08-07T18:00	24838	28	-51.8	-82.2	103	11
2023-08-07T18:00	24866	28	-51.8	-82.2	105	11
2023-08-07T18:00	24892	28	-51.8	-82.2	107	10
2023-08-07T18:00	24920	28	-51.7	-82.2	109	10
2023-08-07T18:00	24946	27	-51.8	-82.2	110	10
2023-08-07T18:00	24975	27	-51.9	-82.3	109	10
2023-08-07T18:00	25006	27	-51.7	-82.2	107	9
2023-08-07T18:00	25029	27	-51.7	-82.2	105	9
2023-08-07T18:00	25055	27	-51.8	-82.8	102	8
2023-08-07T18:00	25090	27	-51.8	-82.8	99	8
2023-08-07T18:00	25112	27	-51.6	-82.6	97	8
2023-08-07T18:00	25141	27	-51.6	-82.6	95	8
2023-08-07T18:00	25177	26	-51.6	-82.6	95	8
2023-08-07T18:00	25202	26	-51.5	-82.5	96	9
2023-08-07T18:00	25239	26	-51.3	-82.4	98	9
2023-08-07T18:00	25255	26	-51.1	-82.2	99	9
2023-08-07T18:00	25285	26	-50.9	-82.7	99	9
2023-08-07T18:00	25308	26	-50.7	-82.5	99	9
2023-08-07T18:00	25348	26	-50.4	-82.3	97	8
2023-08-07T18:00	25382	26	-50.0	-82.0	95	8
2023-08-07T18:00	25408	26	-49.8	-81.8	91	8
2023-08-07T18:00	25429	25	-49.6	-81.7	86	9
2023-08-07T18:00	25461	25	-49.6	-81.7	80	9
2023-08-07T18:00	25488	25	-49.4	-81.6	76	9
2023-08-07T18:00	25524	25	-49.3	-81.5	73	10
2023-08-07T18:00	25550	25	-49.4	-81.6	72	11
2023-08-07T18:00	25585	25	-49.4	-81.6	73	11
2023-08-07T18:00	25619	25	-49.3	-81.5	75	12
2023-08-07T18:00	25642	25	-49.4	-81.6	77	12
2023-08-07T18:00	25678	25	-49.4	-81.6	80	12
2023-08-07T18:00	25693	24	-49.5	-81.6	82	12
2023-08-07T18:00	25730	24	-49.6	-81.1	85	12
2023-08-07T18:00	25763	24	-49.7	-81.2	87	12
2023-08-07T18:00	25796	24	-49.9	-81.3	89	11
2023-08-07T18:00	25827	24	-50.0	-81.4	90	11
2023-08-07T18:00	25862	24	-50.2		90	10
2023-08-07T18:00	25889	24	-50.0	-81.4	91	10
2023-08-07T18:00	25919	24	-49.8	-81.3	92	10
2023-08-07T18:00	25951	24	-49.8	-81.3	94	9
2023-08-07T18:00	25981	23	-50.0	-81.4	96	8
2023-08-07T18:00	26024	23	-50.1	-81.5	99	8
2023-08-07T18:00	26046	23	-50.1	-81.5	101	7
2023-08-07T18:00	26052	23	-50.2		103	7
2023-08-07T18:00	26104	23	-50.2		103	7
2023-08-07T18:00	26128	23	-50.3	-81.6	103	7
2023-08-07T18:00	26160	23	-50.3	-81.6	103	7
2023-08-07T18:00	26188	23	-50.3	-81.6	104	6
2023-08-07T18:00	26234	23	-50.3	-81.6	105	6
2023-08-07T18:00	26250	22	-50.3	-81.6	106	6
2023-08-07T18:00	26285	22	-50.3	-81.6	108	6
2023-08-07T18:00	26302	22	-50.3	-81.6	109	6
2023-08-07T18:00	26332	22	-50.3	-81.6	111	6
2023-08-07T18:00	26370	22	-50.3	-82.2	111	6
2023-08-07T18:00	26394	22	-50.2	-82.1	110	6
2023-08-07T18:00	26418	22	-50.0	-82.0	110	6
2023-08-07T18:00	26455	22	-49.8	-81.8	110	5
2023-08-07T18:00	26481	22	-49.7	-81.8	111	5
2023-08-07T18:00	26508	22	-49.5	-81.6	112	5
2023-08-07T18:00	26526	22	-49.4	-81.6	111	5
2023-08-07T18:00	26562	21	-49.5	-81.6	107	5
2023-08-07T18:00	26596	21	-49.5	-81.6	101	5
2023-08-07T18:00	26615	21	-49.3	-81.5	96	5
2023-08-07T18:00	26650	21	-49.1	-82.0	93	5
2023-08-07T18:00	26670	21	-48.8	-81.7	92	5
2023-08-07T18:00	26695	21	-48.5	-81.5	92	5
2023-08-07T18:00	26728	21	-48.5	-81.5	89	5
2023-08-07T18:00	26755	21	-48.6	-81.6	85	5
2023-08-07T18:00	26776	21	-48.5	-81.5	79	6
2023-08-07T18:00	26805	21	-48.3	-81.4	74	6
2023-08-07T18:00	26832	21	-48.2	-81.3	70	7
2023-08-07T18:00	26865	20	-48.2	-81.3	68	8
2023-08-07T18:00	26890	20	-48.3	-81.4	67	9
2023-08-07T18:00	26910	20	-48.5	-81.5	68	9
2023-08-07T18:00	26941	20	-48.5	-80.9	69	10
2023-08-07T18:00	26949	20	-48.3	-80.7	71	10
2023-08-07T18:00	26994	20	-48.2	-81.3	72	11
2023-08-07T18:00	27018	20	-48.1	-81.2	74	11
2023-08-07T18:00	27044	20	-48.1	-81.2	76	11
2023-08-07T18:00	27066	20	-48.2	-81.3	78	10
2023-08-07T18:00	27105	20	-48.3	-81.4	80	10
2023-08-07T18:00	27129	20	-48.3	-81.4	82	9
2023-08-07T18:00	27161	20	-48.3	-81.4	83	8
2023-08-07T18:00	27201	19	-48.2	-81.3	83	8
2023-08-07T18:00	27220	19	-48.1	-81.2	83	8
2023-08-07T18:00	27254	19	-48.0	-81.2	83	8
2023-08-07T18:00	27277	19	-47.8	-81.0	85	8
2023-08-07T18:00	27315	19	-47.7	-80.9	87	9
2023-08-07T18:00	27338	19	-47.6	-80.9	90	9
2023-08-07T18:00	27364	19	-47.7	-80.9	93	9
2023-08-07T18:00	27398	19	-47.8	-81.0	96	10
2023-08-07T18:00	27433	19	-47.7	-80.9	98	10
2023-08-07T18:00	27468	19	-47.4	-80.7	100	9
2023-08-07T18:00	27491	19	-47.0	-81.1	100	9
2023-08-07T18:00	27516	19	-46.8	-81.0	98	8
2023-08-07T18:00	27568	18	-46.6	-80.9	95	7
2023-08-07T18:00	27584	18	-46.4	-80.7	90	7
2023-08-07T18:00	27606	18	-46.4	-80.7	84	6
2023-08-07T18:00	27648	18	-46.3	-80.6	79	6
2023-08-07T18:00	27675	18	-46.2	-80.6	73	6
2023-08-07T18:00	27694	18	-46.2	-80.6	69	6
2023-08-07T18:00	27735	18	-46.0	-80.4	65	7
2023-08-07T18:00	27768	18	-45.8	-80.3	63	7
2023-08-07T18:00	27792	18	-45.8	-80.3	62	8
2023-08-07T18:00	27829	18	-45.7	-80.2	60	9
2023-08-07T18:00	27862	18	-45.6	-80.1	59	9
2023-08-07T18:00	27891	18	-45.4	-80.0	58	10
2023-08-07T18:00	27927	17	-45.4	-80.0	57	10
2023-08-07T18:00	27960	17	-45.4	-80.0	55	9
2023-08-07T18:00	27975	17	-45.3	-79.9	54	9
2023-08-07T18:00	28022	17	-45.4	-80.0	52	8
2023-08-07T18:00	28054	17	-45.4	-80.0	51	8
2023-08-07T18:00	28077	17	-45.2	-79.8	50	7
2023-08-07T18:00	28104	17	-45.1	-79.8	50	7
2023-08-07T18:00	28142	17	-45.0	-79.7	51	7
2023-08-07T18:00	28171	17	-45.0	-79.7	52	7
2023-08-07T18:00	28207	17	-44.9	-79.6	54	7
2023-08-07T18:00	28232	17	-44.9	-79.6	55	8
2023-08-07T18:00	28274	17	-44.9	-79.6	55	8
2023-08-07T18:00	28291	16	-44.9	-79.6	54	9
2023-08-07T18:00	28327	16	-44.9	-79.6	53	9
2023-08-07T18:00	28361	16	-45.0	-79.7	52	9
2023-08-07T18:00	28389	16	-45.2	-79.8	53	10
2023-08-07T18:00	28429	16	-45.3	-79.9	55	10
2023-08-07T18:00	28453	16	-45.3	-79.9	58	10
2023-08-07T18:00	28487	16	-45.5	-80.1	61	10
2023-08-07T18:00	28509	16	-45.5	-80.1	64	11
2023-08-07T18:00	28540	16	-45.7	-80.2	66	11
2023-08-07T18:00	28564	16	-45.7	-80.2	68	12
2023-08-07T18:00	28598	16	-45.7	-80.2	69	12
2023-08-07T18:00	28626	16	-45.7	-80.2	70	12
2023-08-07T18:00	28643	16	-45.8	-80.3	72	12
2023-08-07T18:00	28690	16	-46.0	-80.4	74	11
2023-08-07T18:00	28702	16	-45.9	-80.3	77	11
2023-08-07T18:00	28738	15	-45.9	-80.3	79	10
2023-08-07T18:00	28772	15	-45.8	-80.3	82	10
2023-08-07T18:00	28796	15	-45.6	-80.1	83	9
2023-08-07T18:00	28833	15	-45.5	-80.1	85	9
2023-08-07T18:00	28857	15	-45.3	-79.9	87	9
2023-08-07T18:00	28872	15	-45.2	-79.8	89	9
2023-08-07T18:00	28904	15	-45.1	-80.6	92	9
2023-08-07T18:00	28928	15	-45.1	-80.6	93	9
2023-08-07T18:00	28961	15	-45.0	-80.5	94	9
2023-08-07T18:00	28978	15	-44.9	-80.4	93	8
2023-08-07T18:00	29021	15	-44.8	-80.4	90	8
2023-08-07T18:00	29034	15	-44.8	-80.4	86	8
2023-08-07T18:00	29075	15	-44.7	-80.3	80	8
2023-08-07T18:00	29095	15	-44.6	-80.2	74	8
2023-08-07T18:00	29132	15	-44.6	-80.2	69	8
2023-08-07T18:00	29149	15	-44.4	-80.1	66	9
2023-08-07T18:00	29180	14	-44.2	-79.9	65	9
2023-08-07T18:00	29207	14	-44.1	-79.9	66	10
2023-08-07T18:00	29235	14	-43.9	-79.7	67	11
2023-08-07T18:00	29254	14	-43.8	-79.6	68	12
2023-08-07T18:00	29298	14	-43.7	-79.6	70	13
2023-08-07T18:00	29319	14	-43.7	-79.6	71	13
2023-08-07T18:00	29349	14	-43.7	-79.6	73	13
2023-08-07T18:00	29379	14	-43.7	-79.6	76	12
2023-08-07T18:00	29407	14	-43.7	-79.6	78	11
2023-08-07T18:00	29433	14	-43.6	-79.5	80	11
2023-08-07T18:00	29454	14	-43.5	-79.4	82	10
2023-08-07T18:00	29500	14	-43.5	-79.4	84	9
2023-08-07T18:00	29516	14	-43.3	-79.3	85	9
2023-08-07T18:00	29554	14	-43.2	-79.2	86	9
2023-08-07T18:00	29574	14	-43.1		87	9
2023-08-07T18:00	29602	14	-43.0	-79.1	89	9
2023-08-07T18:00	29634	14	-43.1		90	9
2023-08-07T18:00	29656	13	-43.1		92	10
2023-08-07T18:00	29680	13	-43.0	-79.1	93	11
2023-08-07T18:00	29714	13	-42.9	-79.0	95	11
2023-08-07T18:00	29752	13	-42.6	-78.8	95	12
2023-08-07T18:00	29781	13	-42.6	-78.8	95	12
2023-08-07T18:00	29813	13	-42.6	-78.8	94	12
2023-08-07T18:00	29846	13	-42.6	-78.8	93	11
2023-08-07T18:00	29876	13	-42.4	-78.7	91	10
2023-08-07T18:00	29905	13	-42.2	-79.5	90	10
2023-08-07T18:00	29940	13	-42.0	-79.3	90	9
2023-08-07T18:00	29963	13	-41.9	-79.2	91	9
2023-08-07T18:00	29986	13	-41.9	-79.2	93	8
2023-08-07T18:00	30041	13	-42.1	-79.4	95	9
2023-08-07T18:00	30056	13	-42.1	-79.4	96	9
2023-08-07T18:00	30099	13	-42.1	-79.4	97	9
2023-08-07T18:00	30135	13	-41.9	-79.2	97	10
2023-08-07T18:00	30146	13	-41.5	-79.0	97	10
2023-08-07T18:00	30194	12	-41.3	-78.8	97	11
2023-08-07T18:00	30233	12	-41.2	-78.8	97	10
2023-08-07T18:00	30250	12	-41.1	-78.7	97	10
2023-08-07T18:00	30294	12	-41.0	-78.6	97	10
2023-08-07T18:00	30325	12	-41.0	-78.6	95	9
2023-08-07T18:00	30355	12	-41.0	-78.6	92	8
2023-08-07T18:00	30384	12	-40.8	-78.5	87	8
2023-08-07T18:00	30418	12	-40.7	-78.4	81	8
2023-08-07T18:00	30458	12	-40.5	-78.3	76	8
2023-08-07T18:00	30513	12	-40.2	-78.0	73	10
2023-08-07T18:00	30542	12	-39.9	-77.8	76	11
2023-08-07T18:00	30572	12	-39.9	-77.8	79	12
2023-08-07T18:00	30625	12	-39.9	-77.8	83	13
2023-08-07T18:00	30636	12	-40.0	-77.9	87	14
2023-08-07T18:00	30678	12	-40.0	-77.9	90	15
2023-08-07T18:00	30704	12	-40.0	-77.9	92	15
2023-08-07T18:00	30754	11	-40.1	-78.0	94	16
2023-08-07T18:00	30788	11	-40.0	-77.9	94	16
2023-08-07T18:00	30814	11	-39.8	-77.8	94	15
2023-08-07T18:00	30867	11	-39.5	-77.6	93	15
2023-08-07T18:00	30892	11	-39.5	-77.6	93	14
2023-08-07T18:00	30907	11	-39.5	-77.6	92	14
2023-08-07T18:00	30937	11	-39.5	-77.6	92	14
2023-08-07T18:00	30957	11	-39.5	-77.6	91	13
2023-08-07T18:00	30997	11	-39.4	-77.5	89	13
2023-08-07T18:00	31035	11	-39.2	-77.3	87	13
2023-08-07T18:00	31063	11	-39.1	-77.3	85	13
2023-08-07T18:00	31088	11	-39.1	-77.3	83	13
2023-08-07T18:00	31126	11	-39.0	-77.2	81	13
2023-08-07T18:00	31139	11	-39.0	-77.2	80	13
2023-08-07T18:00	31174	11	-39.1	-77.3	79	13
2023-08-07T18:00	31208	11	-39.0	-77.2	81	14
2023-08-07T18:00	31224	11	-38.8	-77.1	83	14
2023-08-07T18:00	31235	11	-38.7	-77.0	87	14
2023-08-07T18:00	31286	11	-38.9	-77.1	90	14
2023-08-07T18:00	31307	11	-39.0	-77.2	94	15
2023-08-07T18:00	31327	11	-39.1	-77.3	97	15
2023-08-07T18:00	31333	11	-39.2	-77.3	101	16
2023-08-07T18:00	31380	10	-39.2	-77.3	103	16
2023-08-07T18:00	31393	10	-39.1	-77.3	106	16
2023-08-07T18:00	31454	10	-39.1	-77.3	109	16
2023-08-07T18:00	31472	10	-39.2	-77.3	112	16
2023-08-07T18:00	31475	10	-39.2	-77.3	115	16
2023-08-07T18:00	31518	10	-39.2	-77.3	118	16
2023-08-07T18:00	31560	10	-39.0	-77.2	122	15
2023-08-07T18:00	31585	10	-38.8	-78.2	124	14
2023-08-07T18:00	31628	10	-38.5	-78.0	126	14
2023-08-07T18:00	31644	10	-38.3	-77.9	126	13
2023-08-07T18:00	31660	10	-38.3	-77.9	126	12
2023-08-07T18:00	31713	10	-38.2	-77.8	126	11
2023-08-07T18:00	31749	10	-37.9	-77.6	126	10
2023-08-07T18:00	31785	10	-37.8	-77.5	125	10
2023-08-07T18:00	31791	10	-37.8	-77.5	124	9
2023-08-07T18:00	31848	10	-37.7	-77.4	122	8
2023-08-07T18:00	31888	10	-37.8	-77.5	118	7
2023-08-07T18:00	31897	10	-37.7	-77.4	112	7
2023-08-07T18:00	31934	10	-37.6	-77.4	104	7
2023-08-07T18:00	31967	10	-37.6	-77.4	95	7
2023-08-07T18:00	32010	10	-37.6	-77.4	87	7
2023-08-07T18:00	32027	10	-37.5	-77.3	81	8
2023-08-07T18:00	32055	9	-37.4	-77.2	78	8
2023-08-07T18:00	32103	9	-37.4	-77.2	76	9
2023-08-07T18:00	32165	9	-37.5	-77.3	75	9
2023-08-07T18:00	32186	9	-37.7	-77.4	76	9
2023-08-07T18:00	32218	9	-37.8	-77.5	77	8
2023-08-07T18:00	32258	9	-38.1	-76.6	78	8
2023-08-07T18:00	32291	9	-38.3	-76.7	79	8
2023-08-07T18:00	32324	9	-38.5	-76.9	80	8
2023-08-07T18:00	32351	9	-38.6	-76.9	80	8
2023-08-07T18:00	32404	9	-38.6	-76.9	81	8
2023-08-07T18:00	32428	9	-38.5	-76.9	80	8
2023-08-07T18:00	32473	9	-38.4	-76.8	80	8
2023-08-07T18:00	32481	9	-38.5	-76.9	78	8
2023-08-07T18:00	32533	9	-38.5	-76.9	76	8
2023-08-07T18:00	32567	9	-38.6	-76.9	74	7
2023-08-07T18:00	32600	9	-38.7	-77.0	71	7
2023-08-07T18:00	32620	9	-38.9	-77.1	68	7
2023-08-07T18:00	32666	9	-39.0	-77.2	67	7
2023-08-07T18:00	32706	9	-39.1	-77.3	67	8
2023-08-07T18:00	32745	9	-39.1	-77.3	68	9
2023-08-07T18:00	32761	9	-39.1	-77.3	70	9
2023-08-07T18:00	32799	9	-39.0	-77.2	72	10
2023-08-07T18:00	32827	8	-38.9	-78.3	74	10
2023-08-07T18:00	32863	8	-38.7	-78.1	73	10
2023-08-07T18:00	32866	8	-38.4	-77.9	72	10
2023-08-07T18:00	32912	8	-38.2	-77.8	70	10
2023-08-07T18:00	32941	8	-38.1	-77.7	67	10
2023-08-07T18:00	32958	8	-38.0	-77.6	64	10
2023-08-07T18:00	32982	8	-37.9	-77.6	61	11
2023-08-07T18:00	33010	8	-37.8	-77.5	60	11
2023-08-07T18:00	33050	8	-37.7	-77.4	59	11
2023-08-07T18:00	33067	8	-37.7	-77.4	59	12
2023-08-07T18:00	33090	8	-37.8	-77.5	60	12
2023-08-07T18:00	33115	8	-37.7	-77.4	62	12
2023-08-07T18:00	33154	8	-37.6	-77.4	65	13
2023-08-07T18:00	33165	8	-37.6	-77.4	68	13
2023-08-07T18:00	33211	8	-37.5	-77.3	72	13
2023-08-07T18:00	33222	8	-37.4	-77.2	76	13
2023-08-07T18:00	33229	8	-37.4	-77.2	80	13
2023-08-07T18:00	33271	8	-37.4	-77.2	84	13
2023-08-07T18:00	33307	8	-37.5	-77.3	88	13
2023-08-07T18:00	33329	8	-37.5	-77.3	92	12
2023-08-07T18:00	33369	8	-37.5	-77.3	99	11
2023-08-07T18:00	33387	8	-37.3	-77.2	102	10
2023-08-07T18:00	33445	8	-37.2	-77.1	103	9
2023-08-07T18:00	33476	8	-36.1	-76.3	99	7
2023-08-07T18:00	33525	8	-35.7	-76.1	92	7
2023-08-07T18:00	33546	8	-35.5	-75.9	84	7
2023-08-07T18:00	33578	8	-34.9	-75.5	76	8
2023-08-07T18:00	33622	8	-34.8	-75.4	76	8
2023-08-07T18:00	33674	8	-34.9	-75.5	78	9
2023-08-07T18:00	33677	8	-34.9	-75.5	82	9
2023-08-07T18:00	33737	7	-35.0	-75.6	87	10
2023-08-07T18:00	33742	7	-35.0	-75.6	91	10
2023-08-07T18:00	33791	7	-35.0	-75.6	93	10
2023-08-07T18:00	33827	7	-35.1	-75.6	94	10
2023-08-07T18:00	33852	7	-35.0	-75.6	93	10
2023-08-07T18:00	33894	7	-34.7	-75.4	91	10
2023-08-07T18:00	33946	7	-34.3	-75.1	89	10
2023-08-08T00:00	-999					
2023-08-08T00:00	134	995	14.0	8.9	265	4
2023-08-08T00:00	160	991	13.9	8.7	263	6
2023-08-08T00:00	194	988	13.6	8.5	261	7
2023-08-08T00:00	223	984	13.4	8.6	260	8
2023-08-08T00:00	256	980	13.0	8.5	258	9
2023-08-08T00:00	284	977	12.8	8.5	257	11
2023-08-08T00:00	309	974	12.5	8.4	257	12
2023-08-08T00:00	341	970	12.2	8.3	258	13
2023-08-08T00:00	370	967	12.0	8.3	260	14
2023-08-08T00:00	393	965	11.8	8.2	261	14
2023-08-08T00:00	407	963	11.7	8.2	264	15
2023-08-08T00:00	426	961	11.5	8.0	265	15
2023-08-08T00:00	446	958	11.3	8.0	267	14
2023-08-08T00:00	476	955	11.0	7.9	268	14
2023-08-08T00:00	499	952	10.8	7.7	270	14
2023-08-08T00:00	525	949	10.6	7.6	270	15
2023-08-08T00:00	549	947	10.4	7.7	271	15
2023-08-08T00:00	573	944	10.2	7.6	271	15
2023-08-08T00:00	596	941	10.0	7.5	272	15
2023-08-08T00:00	620	938	9.8	7.5	272	16
2023-08-08T00:00	655	935	9.4	7.4	272	16
2023-08-08T00:00	682	932	9.1	7.4	272	16
2023-08-08T00:00	708	929	8.9	7.2	272	17
2023-08-08T00:00	735	926	8.7	7.0	272	17
2023-08-08T00:00	756	923	8.5	7.1	273	17
2023-08-08T00:00	782	921	8.2	7.1	275	18
2023-08-08T00:00	804	918	8.1	6.9	277	19
2023-08-08T00:00	826	915	7.9	6.6	280	20
2023-08-08T00:00	854	912	7.7	6.5	282	21
2023-08-08T00:00	876	910	7.5	6.2	283	21
2023-08-08T00:00	898	907	7.3	6.2	284	21
2023-08-08T00:00	925	905	7.1	6.0	285	21
2023-08-08T00:00	945	902	7.0	5.8	285	21
2023-08-08T00:00	966	900	6.8	5.8	286	21
2023-08-08T00:00	988	898	6.6	5.8	286	21
2023-08-08T00:00	1015	895	6.3	5.7	286	21
2023-08-08T00:00	1044	892	6.1	5.5	287	22
2023-08-08T00:00	1071	889	6.0	5.1	288	22
2023-08-08T00:00	1094	886	5.9	4.7	289	22
2023-08-08T00:00	1117	884	5.9	4.3	290	22
2023-08-08T00:00	1137	881	5.8	4.0	291	22
2023-08-08T00:00	1163	879	5.7	3.6	292	22
2023-08-08T00:00	1182	877	5.7		292	22
2023-08-08T00:00	1210	874	5.6	2.8	293	22
2023-08-08T00:00	1235	871	5.5	2.0	293	22
2023-08-08T00:00	1258	869	5.7	0.9	292	22
2023-08-08T00:00	1281	866	5.7	0.6	292	21
2023-08-08T00:00	1307	863	5.6	0.9	291	21
2023-08-08T00:00	1333	861	5.4	1.2	290	21
2023-08-08T00:00	1356	858	5.2	1.2	289	20
2023-08-08T00:00	1378	856	5.0	1.2	287	20
2023-08-08T00:00	1402	853	4.9	1.4	286	20
2023-08-08T00:00	1430	851	4.7	1.3	285	20
2023-08-08T00:00	1460	847	4.4	1.3	283	20
2023-08-08T00:00	1492	844	4.2	1.2	282	21
2023-08-08T00:00	1522	841	4.0	1.0	281	21
2023-08-08T00:00	1547	838	3.8	1.0	281	21
2023-08-08T00:00	1573	836	3.5	0.9	280	21
2023-08-08T00:00	1601	833	3.4	0.5	279	21
2023-08-08T00:00	1626	830	3.2	0.2	278	21
2023-08-08T00:00	1652	828	3.0	-0.1	276	21
2023-08-08T00:00	1672	826	2.8	-0.1	276	21
2023-08-08T00:00	1693	824	2.6	-0.3	275	21
2023-08-08T00:00	1709	822	2.4	-0.4	276	20
2023-08-08T00:00	1735	819	2.2	-0.3	277	20
2023-08-08T00:00	1758	817	1.9	-0.5	279	21
2023-08-08T00:00	1782	814	1.7	-0.6	280	21
2023-08-08T00:00	1812	811	1.5	-0.5	281	21
2023-08-08T00:00	1844	808	1.1	-0.6	281	20
2023-08-08T00:00	1876	805	0.8	-0.7	281	20
2023-08-08T00:00	1907	802	0.5	-0.7	281	20
2023-08-08T00:00	1940	799	0.2	-1.0	281	20
2023-08-08T00:00	1966	796	0.0	-0.8	281	20
2023-08-08T00:00	1998	793	-0.3	-1.1	282	20
2023-08-08T00:00	2026	790	-0.6	-1.1	282	21
2023-08-08T00:00	2054	787	-0.9	-1.4	283	21
2023-08-08T00:00	2082	784	-1.1	-1.5	283	21
2023-08-08T00:00	2112	782	-1.4	-1.7	283	21
2023-08-08T00:00	2139	779	-1.6	-1.7	282	21
2023-08-08T00:00	2163	777	-1.8	-1.9	281	21
2023-08-08T00:00	2189	774	-2.0	-2.0	280	20
2023-08-08T00:00	2219	771	-2.2	-2.2	279	20
2023-08-08T00:00	2251	768	-2.4	-2.4	278	19
2023-08-08T00:00	2279	765	-2.5	-2.5	277	19
2023-08-08T00:00	2317	762	-2.8	-2.8	276	18
2023-08-08T00:00	2345	759	-2.2	-6.3	276	17
2023-08-08T00:00	2377	756	-1.1	-10.0	275	17
2023-08-08T00:00	2405	753	-0.8	-9.3	275	17
2023-08-08T00:00	2436	751	-1.0	-9.2	274	17
2023-08-08T00:00	2455	748	-1.1	-9.2	274	18
2023-08-08T00:00	2482	746	-1.1	-10.7	274	18
2023-08-08T00:00	2507	744	-1.2	-9.2	274	19
2023-08-08T00:00	2529	742	-1.4	-8.6	275	19
2023-08-08T00:00	2552	740	-1.3	-11.6	275	18
2023-08-08T00:00	2573	738	-1.3	-11.7	276	18
2023-08-08T00:00	2597	736	-1.5	-11.1	277	17
2023-08-08T00:00	2616	734	-1.6	-9.8	279	17
2023-08-08T00:00	2638	732	-1.8	-9.9	280	17
2023-08-08T00:00	2659	730	-1.9	-10.3	281	17
2023-08-08T00:00	2681	727	-1.9	-12.2	282	18
2023-08-08T00:00	2714	725	-2.1	-12.5	283	18
2023-08-08T00:00	2741	722	-2.2	-13.1	283	18
2023-08-08T00:00	2768	720	-2.5	-13.2	283	18
2023-08-08T00:00	2797	717	-2.7	-13.4	283	17
2023-08-08T00:00	2826	715	-2.8	-13.8	282	17
2023-08-08T00:00	2851	712	-3.0	-13.9	282	17
2023-08-08T00:00	2883	710	-3.2	-14.0	282	17
2023-08-08T00:00	2910	707	-3.4	-14.0	283	17
2023-08-08T00:00	2940	704	-3.6	-15.9	285	17
2023-08-08T00:00	2961	702	-3.6	-17.4	287	17
2023-08-08T00:00	2990	700	-3.9	-10.0	287	16
2023-08-08T00:00	3015	698	-4.0	-10.5	287	16
2023-08-08T00:00	3049	695	-4.1	-12.1	287	16
2023-08-08T00:00	3077	692	-4.4	-12.5	287	16
2023-08-08T00:00	3102	690	-4.5	-15.3	287	16
2023-08-08T00:00	3127	688	-4.7	-14.0	287	16
2023-08-08T00:00	3147	686	-4.9	-12.6	286	16
2023-08-08T00:00	3172	684	-5.0	-13.1	285	16
2023-08-08T00:00	3200	681	-5.0	-16.0	283	17
2023-08-08T00:00	3235	679	-5.2	-16.7	281	17
2023-08-08T00:00	3261	676	-5.5	-16.8	280	17
2023-08-08T00:00	3288	674	-5.7	-16.9	280	17
2023-08-08T00:00	3312	672	-5.7	-17.5	280	18
2023-08-08T00:00	3335	670	-5.8	-18.0	281	17
2023-08-08T00:00	3361	667	-6.0	-18.2	282	17
2023-08-08T00:00	3393	665	-6.3	-18.4	282	17
2023-08-08T00:00	3428	662	-6.5	-19.1	283	16
2023-08-08T00:00	3452	660	-6.5	-19.8	283	16
2023-08-08T00:00	3467	658	-6.4	-20.4	283	16
2023-08-08T00:00	3492	656	-6.5	-20.3	283	17
2023-08-08T00:00	3515	655	-6.6	-20.3	283	17
2023-08-08T00:00	3538	653	-6.7	-20.3	282	17
2023-08-08T00:00	3561	651	-6.9	-20.2	281	17
2023-08-08T00:00	3584	649	-7.0	-19.5	280	17
2023-08-08T00:00	3615	646	-7.2	-19.4	278	17
2023-08-08T00:00	3640	644	-7.3	-19.5	276	16
2023-08-08T00:00	3663	642	-7.3	-19.6	274	16
2023-08-08T00:00	3688	640	-7.4	-19.9	273	17
2023-08-08T00:00	3708	639	-7.4	-20.5	271	17
2023-08-08T00:00	3733	637	-7.6	-20.8	270	17
2023-08-08T00:00	3756	635	-7.9	-21.2	270	17
2023-08-08T00:00	3774	633	-8.0	-21.3	270	17
2023-08-08T00:00	3796	631	-8.2	-21.5	270	17
2023-08-08T00:00	3823	629	-8.4	-21.7	270	16
2023-08-08T00:00	3850	627	-8.5	-23.1	270	16
2023-08-08T00:00	3882	625	-8.7	-23.5	270	16
2023-08-08T00:00	3902	623	-8.8	-22.2	270	16
2023-08-08T00:00	3929	621	-8.9	-21.3	270	16
2023-08-08T00:00	3947	619	-8.9	-21.8	271	16
2023-08-08T00:00	3965	618	-9.0	-22.0	272	16
2023-08-08T00:00	3980	617	-9.1	-21.5	272	16
2023-08-08T00:00	3998	615	-9.3	-21.4	272	15
2023-08-08T00:00	4025	613	-9.5	-21.7	271	15
2023-08-08T00:00	4050	611	-9.7	-22.2	270	14
2023-08-08T00:00	4073	609	-9.9	-22.3	269	15
2023-08-08T00:00	4107	607	-10.2	-22.3	269	15
2023-08-08T00:00	4129	605	-10.4	-22.3	269	15
2023-08-08T00:00	4146	603	-10.5	-22.6	270	16
2023-08-08T00:00	4173	601	-10.6	-22.9	270	16
2023-08-08T00:00	4195	599	-10.8	-22.9	271	16
2023-08-08T00:00	4218	598	-11.0	-22.7	272	16
2023-08-08T00:00	4236	596	-11.1	-22.2	273	16
2023-08-08T00:00	4263	594	-11.3	-22.2	273	16
2023-08-08T00:00	4291	592	-11.5	-22.1	272	16
2023-08-08T00:00	4319	590	-11.6	-22.1	271	16
2023-08-08T00:00	4350	588	-11.9	-22.5	270	16
2023-08-08T00:00	4376	586	-12.1	-22.7	269	17
2023-08-08T00:00	4393	584	-12.2	-22.9	268	17
2023-08-08T00:00	4422	582	-12.4	-23.7	268	17
2023-08-08T00:00	4443	580	-12.6	-23.8	268	16
2023-08-08T00:00	4471	578	-12.8	-23.9	269	16
2023-08-08T00:00	4496	577	-12.7	-24.3	269	16
2023-08-08T00:00	4520	575	-12.9	-24.2	270	16
2023-08-08T00:00	4546	573	-13.1	-24.1	271	16
2023-08-08T00:00	4566	571	-13.3	-24.3	270	16
2023-08-08T00:00	4584	570	-13.4	-24.9	270	17
2023-08-08T00:00	4603	568	-13.5	-25.0	270	17
2023-08-08T00:00	4626	567	-13.7	-25.1	271	17
2023-08-08T00:00	4651	565	-13.8	-25.9	273	17
2023-08-08T00:00	4681	563	-13.9	-26.2	274	16
2023-08-08T00:00	4707	561	-14.1	-26.3	276	16
2023-08-08T00:00	4722	560	-14.2	-26.4	277	15
2023-08-08T00:00	4740	558	-14.3	-26.2	277	15
2023-08-08T00:00	4760	557	-14.5	-26.3	278	15
2023-08-08T00:00	4779	555	-14.6	-26.5	278	15
2023-08-08T00:00	4797	554	-14.7	-26.7	278	15
2023-08-08T00:00	4820	552	-14.8	-26.9	279	15
2023-08-08T00:00	4841	551	-14.9	-27.8	279	15
2023-08-08T00:00	4862	549	-15.0	-28.3	278	15
2023-08-08T00:00	4886	548	-15.2	-29.1	276	15
2023-08-08T00:00	4909	546	-15.3	-30.0	274	16
2023-08-08T00:00	4932	544	-15.4	-30.9	272	16
2023-08-08T00:00	4964	542	-15.6	-31.5	270	16
2023-08-08T00:00	4983	541	-15.5	-32.0	270	16
2023-08-08T00:00	5002	539	-15.6	-32.4	271	16
2023-08-08T00:00	5029	537	-15.8	-34.7	272	16
2023-08-08T00:00	5062	535	-15.9	-33.5	274	16
2023-08-08T00:00	5088	533	-16.1	-33.3	276	15
2023-08-08T00:00	5109	532	-16.3	-33.3	278	15
2023-08-08T00:00	5132	530	-16.5	-33.6	280	15
2023-08-08T00:00	5163	528	-16.7	-32.8	281	15
2023-08-08T00:00	5190	526	-16.9	-33.4	281	14
2023-08-08T00:00	5212	524	-17.1	-33.6	281	14
2023-08-08T00:00	5229	523	-17.2	-33.9	280	14
2023-08-08T00:00	5252	522	-17.4	-35.2	278	14
2023-08-08T00:00	5280	520	-17.6	-37.4	276	14
2023-08-08T00:00	5311	518	-17.5	-39.6	275	14
2023-08-08T00:00	5332	516	-17.5	-40.9	273	13
2023-08-08T00:00	5360	514	-17.7	-41.8	273	13
2023-08-08T00:00	5381	513	-17.9	-41.9	272	12
2023-08-08T00:00	5403	511	-18.1	-42.1	272	12
2023-08-08T00:00	5434	509	-18.3	-42.7	272	11
2023-08-08T00:00	5457	507	-18.5	-43.3	272	11
2023-08-08T00:00	5477	506	-18.6	-44.1	273	11
2023-08-08T00:00	5501	504	-18.6	-43.5	274	11
2023-08-08T00:00	5527	503	-18.8	-43.3	274	11
2023-08-08T00:00	5563	500	-19.1	-42.3	274	12
2023-08-08T00:00	5598	498	-19.4	-42.0	274	12
2023-08-08T00:00	5619	497	-19.5	-41.7	273	12
2023-08-08T00:00	5642	495	-19.5	-41.3	272	12
2023-08-08T00:00	5667	493	-19.7	-42.2	271	13
2023-08-08T00:00	5699	491	-19.9	-42.2	269	13
2023-08-08T00:00	5730	489	-20.2	-42.3	268	13
2023-08-08T00:00	5756	487	-20.5	-42.2	267	13
2023-08-08T00:00	5791	485	-20.7	-41.7	266	13
2023-08-08T00:00	5814	484	-20.9	-41.4	267	13
2023-08-08T00:00	5834	482	-21.0	-40.8	268	13
2023-08-08T00:00	5858	481	-21.3	-40.6	269	13
2023-08-08T00:00	5890	479	-21.6	-40.3	269	14
2023-08-08T00:00	5926	477	-21.9	-39.5	270	14
2023-08-08T00:00	5946	475	-22.0	-40.1	269	14
2023-08-08T00:00	5964	474	-22.2	-40.5	269	13
2023-08-08T00:00	5984	473	-22.3	-40.6	268	13
2023-08-08T00:00	6006	471	-22.5	-41.1	267	12
2023-08-08T00:00	6036	469	-22.6	-41.6	267	12
2023-08-08T00:00	6053	468	-22.8	-41.8	266	12
2023-08-08T00:00	6076	467	-22.9	-41.9	266	13
2023-08-08T00:00	6097	465	-23.1	-42.3	266	13
2023-08-08T00:00	6124	464	-23.2	-42.6	266	13
2023-08-08T00:00	6155	462	-23.4	-42.8	266	14
2023-08-08T00:00	6183	460	-23.6	-43.1	267	14
2023-08-08T00:00	6210	458	-23.8	-43.3	268	14
2023-08-08T00:00	6240	456	-23.9	-43.4	269	14
2023-08-08T00:00	6275	454	-24.2	-43.5	271	14
2023-08-08T00:00	6293	453	-24.3	-43.7	272	13
2023-08-08T00:00	6313	452	-24.4	-43.7	272	13
2023-08-08T00:00	6334	451	-24.6	-43.8	273	13
2023-08-08T00:00	6357	449	-24.7	-44.1	273	13
2023-08-08T00:00	6391	447	-24.9	-44.5	274	14
2023-08-08T00:00	6418	445	-25.1	-44.6	274	14
2023-08-08T00:00	6439	444	-25.3	-44.7	275	14
2023-08-08T00:00	6460	443	-25.5	-44.7	275	14
2023-08-08T00:00	6482	441	-25.6	-44.7	275	14
2023-08-08T00:00	6509	440	-25.8	-45.0	275	14
2023-08-08T00:00	6540	438	-26.0	-45.0	274	14
2023-08-08T00:00	6574	436	-26.3	-45.5	274	14
2023-08-08T00:00	6605	434	-26.6	-45.6	273	14
2023-08-08T00:00	6622	433	-26.7	-45.5	273	14
2023-08-08T00:00	6641	432	-26.9	-45.3	273	13
2023-08-08T00:00	6661	431	-27.0	-45.8	274	13
2023-08-08T00:00	6679	430	-27.1	-45.7	275	13
2023-08-08T00:00	6699	428	-27.3	-45.8	276	12
2023-08-08T00:00	6718	427	-27.5	-46.0	276	12
2023-08-08T00:00	6736	426	-27.6	-45.9	275	12
2023-08-08T00:00	6757	425	-27.8		274	12
2023-08-08T00:00	6778	424	-27.9	-46.7	272	11
2023-08-08T00:00	6804	422	-28.1	-46.8	270	11
2023-08-08T00:00	6831	420	-28.3	-47.4	269	11
2023-08-08T00:00	6862	419	-28.6	-47.7	268	11
2023-08-08T00:00	6892	417	-28.9	-47.5	268	11
2023-08-08T00:00	6919	415	-29.1	-47.4	268	11
2023-08-08T00:00	6955	414	-29.4	-47.4	267	11
2023-08-08T00:00	6973	412	-29.6	-47.7	267	11
2023-08-08T00:00	6994	411	-29.7	-48.1	266	11
2023-08-08T00:00	7011	410	-29.8	-48.6	267	12
2023-08-08T00:00	7035	409	-30.0	-49.1	269	12
2023-08-08T00:00	7058	407	-30.1	-49.1	271	12
2023-08-08T00:00	7087	406	-30.4	-49.4	273	13
2023-08-08T00:00	7118	404	-30.5	-50.5	274	13
2023-08-08T00:00	7150	402	-30.7	-52.0	273	13
2023-08-08T00:00	7165	401	-30.8	-51.8	272	13
2023-08-08T00:00	7182	400	-30.9	-52.1	269	13
2023-08-08T00:00	7200	399	-31.0	-52.3	266	13
2023-08-08T00:00	7220	398	-31.1	-52.1	264	13
2023-08-08T00:00	7239	397	-31.1	-52.3	261	13
2023-08-08T00:00	7260	396	-31.1	-52.3	259	14
2023-08-08T00:00	7281	395	-30.9	-52.9	256	14
2023-08-08T00:00	7310	393	-30.9	-53.5	253	14
2023-08-08T00:00	7346	391	-30.2	-54.2	250	14
2023-08-08T00:00	7374	390	-30.3	-54.2	247	14
2023-08-08T00:00	7393	389	-30.3	-54.6	245	14
2023-08-08T00:00	7410	388	-30.0	-53.8	244	14
2023-08-08T00:00	7429	387	-29.6	-52.6	243	14
2023-08-08T00:00	7449	386	-29.3	-50.4	243	15
2023-08-08T00:00	7470	384	-29.2	-49.1	243	15
2023-08-08T00:00	7493	383	-29.3	-48.8	244	15
2023-08-08T00:00	7518	382	-29.5	-48.9	244	15
2023-08-08T00:00	7541	381	-29.7	-48.8	243	15
2023-08-08T00:00	7568	379	-29.9	-48.8	243	15
2023-08-08T00:00	7597	378	-30.2	-48.9	243	15
2023-08-08T00:00	7629	376	-30.5	-49.0	243	15
2023-08-08T00:00	7660	374	-30.7	-49.1	245	15
2023-08-08T00:00	7685	373	-30.8	-49.2	247	14
2023-08-08T00:00	7709	372	-31.0	-49.5	250	14
2023-08-08T00:00	7739	370	-31.2	-49.6	253	14
2023-08-08T00:00	7766	369	-31.4		256	13
2023-08-08T00:00	7793	367	-31.6	-49.2	257	13
2023-08-08T00:00	7819	366	-31.8	-48.9	258	12
2023-08-08T00:00	7851	364	-32.1	-48.3	258	11
2023-08-08T00:00	7877	363	-32.3	-48.2	258	11
2023-08-08T00:00	7905	362	-32.6	-48.2	258	10
2023-08-08T00:00	7937	360	-32.9	-48.0	259	10
2023-08-08T00:00	7965	359	-33.0	-47.8	262	10
2023-08-08T00:00	7993	357	-33.2	-47.7	265	10
2023-08-08T00:00	8022	356	-33.5	-47.5	268	10
2023-08-08T00:00	8055	354	-33.7	-46.7	270	10
2023-08-08T00:00	8094	352	-34.1	-46.8	270	10
2023-08-08T00:00	8115	351	-34.3	-47.0	269	10
2023-08-08T00:00	8133	350	-34.5	-46.8	268	10
2023-08-08T00:00	8154	349	-34.7	-46.6	268	10
2023-08-08T00:00	8173	348	-34.8	-45.8	270	10
2023-08-08T00:00	8198	347	-35.1	-46.0	273	10
2023-08-08T00:00	8228	345	-35.3	-45.9	276	10
2023-08-08T00:00	8255	344	-35.6	-45.7	279	10
2023-08-08T00:00	8278	343	-35.8	-45.6	279	10
2023-08-08T00:00	8302	342	-36.0	-44.6	278	10
2023-08-08T00:00	8321	341	-36.1	-44.4	277	10
2023-08-08T00:00	8341	340	-36.3	-44.4	276	10
2023-08-08T00:00	8362	339	-36.5	-44.5	275	9
2023-08-08T00:00	8384	338	-36.7	-45.1	274	9
2023-08-08T00:00	8404	337	-36.9	-45.2	274	9
2023-08-08T00:00	8426	336	-37.1	-45.6	273	10
2023-08-08T00:00	8451	334	-37.2	-46.1	272	10
2023-08-08T00:00	8478	333	-37.5	-45.8	271	10
2023-08-08T00:00	8507	332	-37.7	-45.9	271	10
2023-08-08T00:00	8538	330	-38.0	-46.6	272	10
2023-08-08T00:00	8565	329	-38.2	-46.7	273	10
2023-08-08T00:00	8597	327	-38.5	-46.5	275	10
2023-08-08T00:00	8624	326	-38.7	-46.5	276	10
2023-08-08T00:00	8652	325	-39.0	-46.6	277	10
2023-08-08T00:00	8684	323	-39.3	-46.3	277	10
2023-08-08T00:00	8709	322	-39.5	-46.1	275	10
2023-08-08T00:00	8734	321	-39.8	-46.0	273	10
2023-08-08T00:00	8761	320	-40.0	-46.1	271	10
2023-08-08T00:00	8788	318	-40.2	-46.8	270	9
2023-08-08T00:00	8819	317	-40.5	-47.1	270	9
2023-08-08T00:00	8848	316	-40.7	-47.0	271	9
2023-08-08T00:00	8883	314	-41.0	-46.9	273	9
2023-08-08T00:00	8908	313	-41.3	-47.1	275	9
2023-08-08T00:00	8932	312	-41.5	-46.9	277	9
2023-08-08T00:00	8956	311	-41.8	-47.1	277	9
2023-08-08T00:00	8984	309	-42.0	-47.1	277	9
2023-08-08T00:00	9009	308	-42.2	-47.6	276	9
2023-08-08T00:00	9040	307	-42.5	-48.2	275	9
2023-08-08T00:00	9067	306	-42.7	-48.3	274	9
2023-08-08T00:00	9093	304	-43.0	-48.3	272	8
2023-08-08T00:00	9121	303	-43.2	-48.3	270	8
2023-08-08T00:00	9148	302	-43.4	-48.2	267	8
2023-08-08T00:00	9175	301	-43.7	-48.3	265	8
2023-08-08T00:00	9205	299	-43.9	-47.8	264	8
2023-08-08T00:00	9230	298	-44.2	-48.0	265	8
2023-08-08T00:00	9257	297	-44.4	-48.2	267	9
2023-08-08T00:00	9284	296	-44.6	-48.5	270	9
2023-08-08T00:00	9304	295	-44.8	-48.5	272	9
2023-08-08T00:00	9329	294	-45.1	-48.6	274	9
2023-08-08T00:00	9349	293	-45.3	-48.8	276	9
2023-08-08T00:00	9369	292	-45.4	-49.0	277	9
2023-08-08T00:00	9389	291	-45.6	-49.5	279	9
2023-08-08T00:00	9408	290	-45.7	-50.0	280	9
2023-08-08T00:00	9428	289	-45.9	-50.3	281	9
2023-08-08T00:00	9450	289	-46.1	-50.7	282	9
2023-08-08T00:00	9470	288	-46.3	-51.3	284	9
2023-08-08T00:00	9490	287	-46.4	-51.4	285	9
2023-08-08T00:00	9510	286	-46.6	-51.1	288	8
2023-08-08T00:00	9531	285	-46.7	-50.8	290	8
2023-08-08T00:00	9553	284	-46.8	-51.2	292	8
2023-08-08T00:00	9573	283	-46.9	-51.5	293	7
2023-08-08T00:00	9594	282	-47.0	-51.4	293	7
2023-08-08T00:00	9614	281	-47.1	-51.3	294	7
2023-08-08T00:00	9635	281	-47.3	-51.3	294	7
2023-08-08T00:00	9655	280	-47.5	-51.4	294	7
2023-08-08T00:00	9676	279	-47.7	-51.4	294	7
2023-08-08T00:00	9698	278	-47.9	-51.4	295	7
2023-08-08T00:00	9719	277	-48.1	-51.4	295	7
2023-08-08T00:00	9739	276	-48.3	-51.5	295	7
2023-08-08T00:00	9761	275	-48.5	-51.6	296	6
2023-08-08T00:00	9783	274	-48.7	-51.8	297	6
2023-08-08T00:00	9803	274	-48.9	-52.3	299	6
2023-08-08T00:00	9825	273	-49.0	-52.7	301	6
2023-08-08T00:00	9845	272	-49.1	-52.7	304	5
2023-08-08T00:00	9866	271	-49.3	-52.6	306	5
2023-08-08T00:00	9889	270	-49.5	-52.6	307	5
2023-08-08T00:00	9912	269	-49.7		308	5
2023-08-08T00:00	9932	268	-49.8	-52.9	308	6
2023-08-08T00:00	9951	267	-50.0	-52.9	307	6
2023-08-08T00:00	9975	266	-50.1	-53.1	305	6
2023-08-08T00:00	9993	266	-50.3	-53.4	301	6
2023-08-08T00:00	10014	265	-50.4	-53.5	297	6
2023-08-08T00:00	10036	264	-50.6	-53.6	291	6
2023-08-08T00:00	10057	263	-50.7	-53.8	285	6
2023-08-08T00:00	10074	262	-50.8	-54.0	278	6
2023-08-08T00:00	10094	262	-50.9	-54.3	273	7
2023-08-08T00:00	10118	261	-50.1	-54.5	268	8
2023-08-08T00:00	10141	260	-50.0	-55.3	266	8
2023-08-08T00:00	10162	259	-49.9	-55.3	264	9
2023-08-08T00:00	10184	258	-49.9	-55.3	264	10
2023-08-08T00:00	10204	257	-50.0	-55.4	266	10
2023-08-08T00:00	10227	256	-50.1	-55.5	269	11
2023-08-08T00:00	10249	255	-50.2	-55.4	273	11
2023-08-08T00:00	10275	254	-50.3	-55.3	279	11
2023-08-08T00:00	10303	253	-50.4	-55.6	284	12
2023-08-08T00:00	10323	253	-50.3	-55.9	289	12
2023-08-08T00:00	10345	252	-50.2	-56.1	293	13
2023-08-08T00:00	10369	251	-50.1	-56.4	296	13
2023-08-08T00:00	10389	250	-50.0	-56.9	297	12
2023-08-08T00:00	10409	249	-49.6	-58.0	296	11
2023-08-08T00:00	10435	248	-49.0	-59.6	291	10
2023-08-08T00:00	10468	247	-47.9	-62.4	282	9
2023-08-08T00:00	10493	246	-46.7	-66.1	272	8
2023-08-08T00:00	10522	245	-46.2	-68.5	265	8
2023-08-08T00:00	10549	244	-45.7	-69.9	261	8
2023-08-08T00:00	10566	243	-45.4	-71.2	261	8
2023-08-08T00:00	10584	243	-45.2	-72.4	263	7
2023-08-08T00:00	10603	242	-44.6	-74.3	267	7
2023-08-08T00:00	10621	241	-44.2	-75.2	273	6
2023-08-08T00:00	10641	241	-44.1	-75.1	278	6
2023-08-08T00:00	10661	240	-43.6	-74.7	283	5
2023-08-08T00:00	10680	239	-43.5	-75.1	286	5
2023-08-08T00:00	10699	239	-43.4	-75.0	285	5
2023-08-08T00:00	10718	238	-43.1	-74.8	280	5
2023-08-08T00:00	10738	237	-42.9	-74.7	273	4
2023-08-08T00:00	10757	237	-42.7	-75.0	266	4
2023-08-08T00:00	10777	236	-42.6	-74.9	259	4
2023-08-08T00:00	10795	235	-42.6	-74.9	254	5
2023-08-08T00:00	10815	235	-42.5	-74.8	252	5
2023-08-08T00:00	10835	234	-42.2	-74.6	253	5
2023-08-08T00:00	10854	233	-41.9	-74.9	256	5
2023-08-08T00:00	10875	233	-41.5	-75.2	259	5
2023-08-08T00:00	10896	232	-41.4	-75.1	262	6
2023-08-08T00:00	10915	231	-41.4	-75.1	265	5
2023-08-08T00:00	10935	230	-41.4	-75.1	268	5
2023-08-08T00:00	10957	230	-41.2	-74.9	270	5
2023-08-08T00:00	10977	229	-41.2	-74.9	272	4
2023-08-08T00:00	10997	228	-41.3	-75.0	274	4
2023-08-08T00:00	11016	228	-41.4	-75.1	275	4
2023-08-08T00:00	11038	227	-41.3	-75.6	275	4
2023-08-08T00:00	11057	226	-41.3	-75.6	274	4
2023-08-08T00:00	11079	226	-41.2	-75.6	271	5
2023-08-08T00:00	11102	225	-40.9	-75.3	269	6
2023-08-08T00:00	11124	224	-40.9	-75.3	267	6
2023-08-08T00:00	11148	223	-40.9	-75.3	266	7
2023-08-08T00:00	11167	223	-41.1	-75.5	264	7
2023-08-08T00:00	11188	222	-41.2	-75.6	263	8
2023-08-08T00:00	11209	221	-41.3	-75.6	262	8
2023-08-08T00:00	11228	221	-41.4	-75.7	261	8
2023-08-08T00:00	11247	220	-41.5	-75.8	260	7
2023-08-08T00:00	11269	219	-41.2	-75.6	259	7
2023-08-08T00:00	11289	219	-41.2	-75.6	257	7
2023-08-08T00:00	11310	218	-41.1	-75.5	254	7
2023-08-08T00:00	11327	218	-41.1	-76.1	251	6
2023-08-08T00:00	11349	217	-40.9	-76.0	248	6
2023-08-08T00:00	11369	216	-40.9	-76.0	245	6
2023-08-08T00:00	11391	216	-40.8	-75.9	241	5
2023-08-08T00:00	11410	215	-40.8	-75.9	237	5
2023-08-08T00:00	11427	214	-40.9	-76.0	234	5
2023-08-08T00:00	11449	214	-40.9	-76.0	232	5
2023-08-08T00:00	11468	213	-40.9	-76.0	232	5
2023-08-08T00:00	11488	212	-40.8	-75.9	232	5
2023-08-08T00:00	11505	212	-40.6	-75.8	232	5
2023-08-08T00:00	11528	211	-40.7	-76.6	231	5
2023-08-08T00:00	11549	211	-40.5	-76.5	228	5
2023-08-08T00:00	11570	210	-40.4	-76.4	224	5
2023-08-08T00:00	11590	209	-40.5	-76.5	220	5
2023-08-08T00:00	11611	209	-40.7	-76.6	215	5
2023-08-08T00:00	11628	208	-40.8	-76.7	212	5
2023-08-08T00:00	11649	208	-40.9	-76.7	211	5
2023-08-08T00:00	11668	207	-41.0	-76.8	211	5
2023-08-08T00:00	11687	206	-41.1	-76.1	210	5
2023-08-08T00:00	11708	206	-41.1	-76.1	210	6
2023-08-08T00:00	11727	205	-41.2	-77.0	209	6
2023-08-08T00:00	11745	205	-41.3	-76.3	208	6
2023-08-08T00:00	11762	204	-41.3	-77.0	207	6
2023-08-08T00:00	11783	203	-41.2	-77.0	208	6
2023-08-08T00:00	11802	203	-41.3	-77.0	208	6
2023-08-08T00:00	11822	202	-41.2	-77.0	210	6
2023-08-08T00:00	11840	202	-41.1	-76.9	212	5
2023-08-08T00:00	11855	201	-40.9	-76.7	214	5
2023-08-08T00:00	11878	201	-40.7	-76.6	219	5
2023-08-08T00:00	11898	200	-40.8	-76.7	226	4
2023-08-08T00:00	11919	199	-40.9	-76.7	234	4
2023-08-08T00:00	11939	199	-41.0	-76.8	242	4
2023-08-08T00:00	11958	198	-41.2	-77.0	249	4
2023-08-08T00:00	11978	198	-41.3	-77.0	253	4
2023-08-08T00:00	11999	197	-41.5	-77.2	255	4
2023-08-08T00:00	12018	197	-41.6	-77.3	253	4
2023-08-08T00:00	12037	196	-41.5	-77.2	247	4
2023-08-08T00:00	12057	195	-41.2	-77.0	239	4
2023-08-08T00:00	12080	195	-41.0	-76.8	232	4
2023-08-08T00:00	12104	194	-41.0	-76.8	226	4
2023-08-08T00:00	12126	193	-41.1	-76.9	222	4
2023-08-08T00:00	12147	193	-41.2	-77.0	219	5
2023-08-08T00:00	12168	192	-41.4	-77.1	216	5
2023-08-08T00:00	12190	192	-41.5	-77.2	213	5
2023-08-08T00:00	12211	191	-41.4	-77.1	209	5
2023-08-08T00:00	12230	190	-41.4	-77.1	207	6
2023-08-08T00:00	12250	190	-41.1	-77.7	206	6
2023-08-08T00:00	12271	189	-41.1	-77.7	206	6
2023-08-08T00:00	12291	189	-41.1	-77.7	207	6
2023-08-08T00:00	12312	188	-41.1	-77.7	209	6
2023-08-08T00:00	12334	188	-41.0	-77.7	211	5
2023-08-08T00:00	12352	187	-40.8	-77.5	213	5
2023-08-08T00:00	12375	186	-40.7	-77.4	215	5
2023-08-08T00:00	12395	186	-40.7	-77.4	217	5
2023-08-08T00:00	12416	185	-40.6	-77.4	219	5
2023-08-08T00:00	12434	185	-40.4	-77.2	221	4
2023-08-08T00:00	12456	184	-40.5		222	4
2023-08-08T00:00	12477	184	-40.5		220	4
2023-08-08T00:00	12495	183	-40.5		215	4
2023-08-08T00:00	12514	183	-40.4	-77.2	210	4
2023-08-08T00:00	12536	182	-40.3	-77.2	204	4
2023-08-08T00:00	12557	182	-40.2	-77.1	198	4
2023-08-08T00:00	12578	181	-40.0	-76.9	192	4
2023-08-08T00:00	12596	180	-40.0	-76.9	186	3
2023-08-08T00:00	12618	180	-40.1	-77.0	181	3
2023-08-08T00:00	12633	179	-40.2	-77.1	175	3
2023-08-08T00:00	12655	179	-40.3	-77.2	170	3
2023-08-08T00:00	12675	178	-40.4	-77.2	166	3
2023-08-08T00:00	12693	178	-40.5		161	3
2023-08-08T00:00	12713	177	-40.7	-77.4	156	3
2023-08-08T00:00	12730	177	-40.9	-77.6	152	3
2023-08-08T00:00	12751	176	-41.0	-77.7	150	3
2023-08-08T00:00	12770	176	-41.1	-77.7	150	3
2023-08-08T00:00	12789	175	-41.0	-77.7	152	4
2023-08-08T00:00	12809	175	-41.1	-77.7	155	4
2023-08-08T00:00	12830	174	-41.2	-77.8	159	5
2023-08-08T00:00	12848	174	-41.3	-77.9	163	5
2023-08-08T00:00	12867	173	-41.3	-77.9	168	5
2023-08-08T00:00	12887	173	-41.4	-77.9	173	5
2023-08-08T00:00	12908	172	-41.5	-78.0	178	5
2023-08-08T00:00	12928	172	-41.7	-78.2	182	5
2023-08-08T00:00	12946	171	-41.6	-78.1	185	5
2023-08-08T00:00	12967	171	-41.7	-78.2	187	5
2023-08-08T00:00	12987	170	-41.7	-78.2	188	5
2023-08-08T00:00	13008	170	-41.6	-78.1	190	4
2023-08-08T00:00	13027	169	-41.7	-78.2	193	4
2023-08-08T00:00	13048	169	-41.4	-77.9	195	4
2023-08-08T00:00	13068	168	-41.3	-77.9	196	4
2023-08-08T00:00	13089	168	-41.3	-77.9	194	5
2023-08-08T00:00	13112	167	-41.1	-77.7	191	5
2023-08-08T00:00	13130	167	-41.1	-78.7	188	6
2023-08-08T00:00	13151	166	-41.0	-78.6	184	6
2023-08-08T00:00	13171	166	-40.8	-78.5	180	6
2023-08-08T00:00	13195	165	-40.8	-78.5	176	7
2023-08-08T00:00	13216	165	-40.9		173	7
2023-08-08T00:00	13240	164	-41.0	-77.7	170	7
2023-08-08T00:00	13261	164	-41.1	-77.7	167	7
2023-08-08T00:00	13285	163	-41.1	-77.7	165	7
2023-08-08T00:00	13305	163	-41.2	-77.8	164	7
2023-08-08T00:00	13331	162	-41.4	-77.9	165	7
2023-08-08T00:00	13352	161	-41.4	-77.9	166	7
2023-08-08T00:00	13376	161	-41.3	-77.9	167	7
2023-08-08T00:00	13398	160	-41.5	-78.0	167	8
2023-08-08T00:00	13420	160	-41.5	-78.0	166	8
2023-08-08T00:00	13445	159	-41.6	-78.1	165	8
2023-08-08T00:00	13465	159	-41.6	-78.1	164	9
2023-08-08T00:00	13488	158	-41.6	-78.1	164	9
2023-08-08T00:00	13511	158	-41.6	-78.1	164	9
2023-08-08T00:00	13530	157	-41.6	-78.1	164	9
2023-08-08T00:00	13551	157	-41.7	-78.2	166	10
2023-08-08T00:00	13574	156	-41.8	-78.2	167	10
2023-08-08T00:00	13600	156	-41.9	-78.3	170	10
2023-08-08T00:00	13621	155	-42.0	-78.4	172	10
2023-08-08T00:00	13643	155	-42.1	-78.4	174	10
2023-08-08T00:00	13664	154	-42.1	-78.4	176	10
2023-08-08T00:00	13689	154	-42.0	-79.3	176	11
2023-08-08T00:00	13709	153	-41.7	-79.1	176	11
2023-08-08T00:00	13732	153	-41.7	-79.1	175	11
2023-08-08T00:00	13753	152	-41.9	-78.3	174	12
2023-08-08T00:00	13775	152	-42.1	-78.4	174	12
2023-08-08T00:00	13797	151	-42.2	-78.5	173	12
2023-08-08T00:00	13818	151	-42.4	-78.7	173	11
2023-08-08T00:00	13840	150	-42.2	-78.5	173	11
2023-08-08T00:00	13860	150	-42.2	-78.5	172	11
2023-08-08T00:00	13882	149	-42.2	-78.5	172	11
2023-08-08T00:00	13902	149	-42.3		170	11
2023-08-08T00:00	13922	148	-42.3		169	11
2023-08-08T00:00	13945	148	-42.4	-78.7	167	11
2023-08-08T00:00	13970	147	-42.5	-78.7	164	11
2023-08-08T00:00	13991	147	-42.6	-78.8	162	11
2023-08-08T00:00	14011	147	-42.5	-78.7	159	11
2023-08-08T00:00	14033	146	-42.6	-78.8	158	11
2023-08-08T00:00	14052	146	-42.7	-78.9	156	12
2023-08-08T00:00	14074	145	-42.6	-78.8	155	11
2023-08-08T00:00	14095	145	-42.6	-78.8	154	11
2023-08-08T00:00	14119	144	-42.7	-78.9	153	11
2023-08-08T00:00	14137	144	-42.8	-78.9	152	10
2023-08-08T00:00	14158	143	-42.9	-79.0	152	10
2023-08-08T00:00	14180	143	-43.0	-79.1	152	9
2023-08-08T00:00	14201	142	-43.2	-79.2	154	9
2023-08-08T00:00	14222	142	-43.3	-79.3	156	8
2023-08-08T00:00	14239	142	-43.4	-79.4	159	8
2023-08-08T00:00	14262	141	-43.5	-79.4	162	8
2023-08-08T00:00	14283	141	-43.6	-79.5	165	8
2023-08-08T00:00	14301	140	-43.7	-79.6	167	8
2023-08-08T00:00	14325	140	-43.9	-78.9	169	8
2023-08-08T00:00	14344	139	-44.0	-79.0	171	8
2023-08-08T00:00	14363	139	-44.2	-79.1	174	8
2023-08-08T00:00	14386	139	-44.4	-79.3	176	7
2023-08-08T00:00	14404	138	-44.5	-79.3	179	7
2023-08-08T00:00	14423	138	-44.5	-79.3	181	7
2023-08-08T00:00	14442	137	-44.5	-79.3	183	7
2023-08-08T00:00	14461	137	-44.6	-79.4	186	6
2023-08-08T00:00	14480	137	-44.8	-79.6	188	6
2023-08-08T00:00	14500	136	-44.9	-79.6	191	6
2023-08-08T00:00	14521	136	-45.0	-79.7	195	6
2023-08-08T00:00	14540	135	-45.2	-79.8	199	6
2023-08-08T00:00	14560	135	-45.3	-79.9	203	5
2023-08-08T00:00	14580	135	-45.3	-79.9	206	5
2023-08-08T00:00	14599	134	-45.4	-80.0	207	5
2023-08-08T00:00	14619	134	-45.5	-80.1	206	4
2023-08-08T00:00	14643	133	-45.5	-80.1	202	4
2023-08-08T00:00	14661	133	-45.4	-80.0	194	3
2023-08-08T00:00	14680	133	-45.3	-79.9	184	3
2023-08-08T00:00	14702	132	-45.3	-79.9	174	3
2023-08-08T00:00	14723	132	-45.4	-80.0	164	3
2023-08-08T00:00	14745	131	-45.5	-80.1	155	4
2023-08-08T00:00	14764	131	-45.6	-80.1	147	4
2023-08-08T00:00	14785	131	-45.8	-80.3	142	4
2023-08-08T00:00	14812	130	-46.0	-80.4	139	5
2023-08-08T00:00	14840	129	-46.2	-80.6	138	6
2023-08-08T00:00	14861	129	-46.4	-80.7	139	6
2023-08-08T00:00	14889	129	-46.5	-80.8	140	7
2023-08-08T00:00	14909	128	-46.7	-80.2	142	7
2023-08-08T00:00	14929	128	-46.8	-80.3	144	8
2023-08-08T00:00	14948	127	-46.9	-80.4	146	8
2023-08-08T00:00	14969	127	-47.0	-80.4	149	8
2023-08-08T00:00	14991	127	-47.2	-80.6	151	9
2023-08-08T00:00	15014	126	-47.4	-80.7	153	9
2023-08-08T00:00	15029	126	-47.5	-80.8	155	9
2023-08-08T00:00	15048	125	-47.6	-80.9	156	9
2023-08-08T00:00	15070	125	-47.8	-81.0	155	8
2023-08-08T00:00	15089	125	-47.5	-81.5	154	8
2023-08-08T00:00	15109	124	-47.2	-81.3	152	8
2023-08-08T00:00	15132	124	-46.8	-81.0	148	8
2023-08-08T00:00	15152	124	-46.5	-80.8	145	8
2023-08-08T00:00	15173	123	-46.6	-80.9	143	8
2023-08-08T00:00	15192	123	-46.7	-80.9	141	8
2023-08-08T00:00	15216	122	-46.6	-80.9	141	9
2023-08-08T00:00	15238	122	-46.6	-80.9	140	9
2023-08-08T00:00	15258	122	-46.5	-81.6	139	10
2023-08-08T00:00	15279	121	-46.5	-81.6	138	10
2023-08-08T00:00	15300	121	-46.2	-81.4	137	10
2023-08-08T00:00	15324	120	-46.1	-81.3	137	11
2023-08-08T00:00	15344	120	-46.2	-81.4	138	11
2023-08-08T00:00	15365	120	-46.0	-81.2	140	10
2023-08-08T00:00	15388	119	-45.9	-81.2	142	10
2023-08-08T00:00	15411	119	-45.9	-81.2	144	10
2023-08-08T00:00	15433	118	-46.1	-81.3	147	10
2023-08-08T00:00	15454	118	-46.2	-81.4	149	10
2023-08-08T00:00	15476	118	-46.3	-81.4	151	10
2023-08-08T00:00	15498	117	-46.4	-81.5	153	11
2023-08-08T00:00	15519	117	-46.4	-81.5	154	11
2023-08-08T00:00	15540	117	-46.3	-81.4	155	10
2023-08-08T00:00	15562	116	-46.1	-81.3	156	10
2023-08-08T00:00	15584	116	-46.1	-81.3	158	10
2023-08-08T00:00	15607	115	-46.1	-81.3	161	10
2023-08-08T00:00	15630	115	-46.1	-81.3	163	10
2023-08-08T00:00	15651	115	-46.1	-81.3	165	9
2023-08-08T00:00	15672	114	-46.2	-81.4	167	9
2023-08-08T00:00	15694	114	-46.3	-81.4	169	9
2023-08-08T00:00	15716	113	-46.6	-81.7	172	9
2023-08-08T00:00	15737	113	-46.7	-81.7	174	9
2023-08-08T00:00	15758	113	-46.9	-81.9	175	9
2023-08-08T00:00	15780	112	-46.9	-81.1	177	9
2023-08-08T00:00	15804	112	-47.0	-81.1	178	9
2023-08-08T00:00	15823	112	-47.2	-81.3	178	9
2023-08-08T00:00	15843	111	-47.4	-81.4	179	9
2023-08-08T00:00	15867	111	-47.5	-81.5	180	8
2023-08-08T00:00	15888	111	-47.7	-81.6	181	8
2023-08-08T00:00	15912	110	-47.9	-81.8	181	8
2023-08-08T00:00	15933	110	-48.0	-81.9	183	7
2023-08-08T00:00	15952	109	-48.1	-81.9	184	7
2023-08-08T00:00	15977	109	-48.3	-82.1	186	7
2023-08-08T00:00	15998	109	-48.4	-82.2	187	6
2023-08-08T00:00	16017	108	-48.4	-82.2	186	6
2023-08-08T00:00	16040	108	-48.1	-81.9	184	6
2023-08-08T00:00	16063	108	-47.9	-82.6	179	5
2023-08-08T00:00	16084	107	-47.8	-82.5	175	5
2023-08-08T00:00	16103	107	-47.8	-82.5	170	5
2023-08-08T00:00	16126	107	-47.7	-82.4	167	5
2023-08-08T00:00	16151	106	-47.8	-82.5	164	5
2023-08-08T00:00	16173	106	-47.9	-81.8	163	5
2023-08-08T00:00	16194	106	-48.1	-81.9	161	6
2023-08-08T00:00	16216	105	-48.3	-82.1	161	5
2023-08-08T00:00	16240	105	-48.5	-82.2	160	5
2023-08-08T00:00	16260	104	-48.7	-82.4	159	5
2023-08-08T00:00	16284	104	-48.9	-82.5	157	5
2023-08-08T00:00	16306	104	-49.1	-82.7	153	5
2023-08-08T00:00	16328	103	-49.3	-82.1	148	5
2023-08-08T00:00	16349	103	-49.4	-82.9	141	5
2023-08-08T00:00	16371	103	-49.4	-82.9	135	5
2023-08-08T00:00	16391	102	-49.5	-82.9	132	5
2023-08-08T00:00	16411	102	-49.5	-82.9	131	5
2023-08-08T00:00	16434	102	-49.6	-83.0	132	5
2023-08-08T00:00	16456	101	-49.7	-83.1	135	6
2023-08-08T00:00	16477	101	-49.6	-83.0	139	6
2023-08-08T00:00	16500	101	-49.7	-83.1	143	6
2023-08-08T00:00	16523	100	-49.7	-83.1	146	5
2023-08-08T00:00	16542	100	-49.8	-83.2	150	5
2023-08-08T00:00	16566	100	-49.6	-83.0	154	5
2023-08-08T00:00	16588	99	-49.3	-82.8	159	5
2023-08-08T00:00	16609	99	-49.5	-82.9	164	5
2023-08-08T00:00	16633	99	-49.7	-83.1	170	4
2023-08-08T00:00	16655	98	-49.8	-83.2	176	4
2023-08-08T00:00	16675	98	-49.9	-83.2	184	4
2023-08-08T00:00	16701	98	-49.9	-83.2	193	3
2023-08-08T00:00	16721	97	-49.8	-83.2	204	3
2023-08-08T00:00	16740	97	-49.8	-83.2	213	3
2023-08-08T00:00	16765	97	-49.5	-82.9	220	3
2023-08-08T00:00	16786	96	-49.5	-82.9	223	3
2023-08-08T00:00	16805	96	-49.6	-83.0	223	3
2023-08-08T00:00	16828	96	-49.5	-82.9	221	3
2023-08-08T00:00	16852	95	-49.7	-83.1	220	3
2023-08-08T00:00	16871	95	-49.7	-83.1	219	3
2023-08-08T00:00	16894	95	-49.4	-82.9	222	3
2023-08-08T00:00	16915	95	-49.3	-82.8	227	2
2023-08-08T00:00	16936	94	-49.4	-82.9	234	2
2023-08-08T00:00	16956	94	-49.5	-82.9	243	2
2023-08-08T00:00	16979	94	-49.7	-83.1	254	2
2023-08-08T00:00	17003	93	-49.8	-83.2	265	2
2023-08-08T00:00	17024	93	-50.0	-83.3	277	2
2023-08-08T00:00	17048	93	-50.2	-83.5	289	2
2023-08-08T00:00	17073	92	-50.4	-83.6	301	2
2023-08-08T00:00	17098	92	-50.5	-83.7	314	1
2023-08-08T00:00	17121	92	-50.3	-83.5	327	1
2023-08-08T00:00	17143	91	-50.1	-83.4	345	1
2023-08-08T00:00	17166	91	-50.3	-83.5	28	0
2023-08-08T00:00	17189	91	-50.4	-83.6	114	0
2023-08-08T00:00	17214	90	-50.7	-83.8	141	1
2023-08-08T00:00	17239	90	-50.8	-83.2	150	1
2023-08-08T00:00	17260	90	-51.0	-83.3	154	2
2023-08-08T00:00	17283	89	-51.2	-83.5	153	2
2023-08-08T00:00	17307	89	-51.2	-83.5	150	2
2023-08-08T00:00	17331	89	-51.3	-83.6	145	2
2023-08-08T00:00	17354	88	-51.1	-84.1	139	2
2023-08-08T00:00	17376	88	-50.9	-84.0	133	2
2023-08-08T00:00	17399	88	-50.4	-83.6	129	3
2023-08-08T00:00	17424	87	-50.1	-83.4	127	3
2023-08-08T00:00	17448	87	-50.2	-83.5	127	3
2023-08-08T00:00	17477	87	-50.3	-83.5	128	4
2023-08-08T00:00	17498	86	-50.5	-83.7	129	4
2023-08-08T00:00	17526	86	-50.7	-83.8	131	4
2023-08-08T00:00	17549	86	-50.9	-84.0	133	4
2023-08-08T00:00	17573	85	-51.1	-83.4	135	5
2023-08-08T00:00	17594	85	-51.3	-83.6	137	5
2023-08-08T00:00	17619	85	-51.5	-83.7	139	5
2023-08-08T00:00	17642	85	-51.7	-83.9	142	5
2023-08-08T00:00	17664	84	-51.9	-84.0	145	5
2023-08-08T00:00	17688	84	-52.1	-84.2	147	5
2023-08-08T00:00	17706	84	-52.3	-83.7	148	5
2023-08-08T00:00	17730	83	-52.5	-84.4	146	5
2023-08-08T00:00	17753	83	-52.6	-84.5	143	5
2023-08-08T00:00	17776	83	-52.7	-84.6	137	5
2023-08-08T00:00	17797	83	-52.4	-84.4	132	4
2023-08-08T00:00	17821	82	-52.3	-84.3	128	4
2023-08-08T00:00	17842	82	-52.0	-84.1	127	4
2023-08-08T00:00	17866	82	-51.9	-84.7	129	4
2023-08-08T00:00	17885	81	-51.8	-84.6	130	5
2023-08-08T00:00	17908	81	-51.7	-84.5	130	5
2023-08-08T00:00	17929	81	-51.7	-84.5	128	5
2023-08-08T00:00	17952	81	-51.8	-84.6	122	4
2023-08-08T00:00	17974	80	-51.7	-84.5	113	4
2023-08-08T00:00	17998	80	-51.5	-84.4	102	4
2023-08-08T00:00	18023	80	-51.5	-84.4	91	4
2023-08-08T00:00	18040	80	-51.5	-84.4	84	4
2023-08-08T00:00	18062	79	-50.8	-83.9	79	4
2023-08-08T00:00	18089	79	-50.7	-84.6	76	5
2023-08-08T00:00	18109	79	-50.5	-84.5	75	5
2023-08-08T00:00	18132	78	-50.4	-84.4	75	5
2023-08-08T00:00	18159	78	-50.4	-84.4	75	6
2023-08-08T00:00	18182	78	-50.5	-84.5	74	6
2023-08-08T00:00	18203	78	-50.6	-84.5	73	6
2023-08-08T00:00	18230	77	-50.6	-83.7	72	6
2023-08-08T00:00	18254	77	-50.7	-83.8	70	7
2023-08-08T00:00	18278	77	-50.7	-83.8	69	7
2023-08-08T00:00	18300	76	-50.8	-83.9	67	7
2023-08-08T00:00	18328	76	-51.0	-84.0	66	7
2023-08-08T00:00	18353	76	-51.1	-84.1	65	7
2023-08-08T00:00	18377	76	-51.2	-84.2	64	7
2023-08-08T00:00	18399	75	-51.3	-84.3	64	7
2023-08-08T00:00	18426	75	-51.3	-84.3	65	7
2023-08-08T00:00	18451	75	-51.3	-84.3	66	7
2023-08-08T00:00	18475	74	-51.3	-84.3	68	7
2023-08-08T00:00	18506	74	-51.5	-84.4	71	6
2023-08-08T00:00	18530	74	-51.7	-84.5	73	6
2023-08-08T00:00	18553	73	-51.9	-84.7	74	6
2023-08-08T00:00	18583	73	-52.1	-84.8	75	5
2023-08-08T00:00	18607	73	-52.1	-84.8	77	5
2023-08-08T00:00	18633	73	-51.7	-84.5	80	5
2023-08-08T00:00	18660	72	-51.7	-84.5	85	5
2023-08-08T00:00	18692	72	-51.8	-84.6	91	6
2023-08-08T00:00	18714	72	-51.8	-84.6	96	6
2023-08-08T00:00	18744	71	-51.7	-84.5	100	7
2023-08-08T00:00	18771	71	-51.8	-84.6	102	8
2023-08-08T00:00	18799	71	-51.9	-84.7	104	8
2023-08-08T00:00	18823	70	-52.1	-84.8	105	8
2023-08-08T00:00	18850	70	-52.3	-84.3	107	9
2023-08-08T00:00	18883	70	-52.5	-84.4	108	9
2023-08-08T00:00	18911	70	-52.8	-84.7	110	10
2023-08-08T00:00	18937	69	-53.0	-84.8	112	10
2023-08-08T00:00	18965	69	-53.2	-85.0	114	11
2023-08-08T00:00	18993	69	-53.5	-85.2	116	11
2023-08-08T00:00	19013	68	-53.7	-84.7	118	12
2023-08-08T00:00	19045	68	-53.9	-84.9	119	13
2023-08-08T00:00	19068	68	-54.1	-85.0	121	13
2023-08-08T00:00	19096	68	-54.3	-85.2	123	14
2023-08-08T00:00	19119	67	-54.5	-85.3	125	14
2023-08-08T00:00	19141	67	-54.6	-85.4	127	14
2023-08-08T00:00	19168	67	-54.7	-85.5	129	13
2023-08-08T00:00	19188	67	-54.8	-85.5	132	13
2023-08-08T00:00	19216	66	-54.7	-85.5	135	12
2023-08-08T00:00	19236	66	-54.5	-85.9	138	11
2023-08-08T00:00	19258	66	-54.5	-85.9	142	11
2023-08-08T00:00	19281	66	-54.2	-85.7	146	11
2023-08-08T00:00	19301	65	-54.1	-85.6	150	11
2023-08-08T00:00	19328	65	-54.0	-85.5	154	10
2023-08-08T00:00	19349	65	-53.9	-85.5	158	10
2023-08-08T00:00	19375	65	-54.0	-85.5	162	9
2023-08-08T00:00	19397	64	-54.0	-86.2	167	9
2023-08-08T00:00	19418	64	-53.9	-86.2	172	8
2023-08-08T00:00	19444	64	-53.6		178	7
2023-08-08T00:00	19465	64	-53.4	-85.8	185	6
2023-08-08T00:00	19489	64	-53.3	-85.7	194	6
2023-08-08T00:00	19511	63	-53.2	-85.6	202	5
2023-08-08T00:00	19534	63	-53.3	-85.7	210	5
2023-08-08T00:00	19557	63	-53.0	-85.5	216	4
2023-08-08T00:00	19580	63	-52.8	-85.3	218	4
2023-08-08T00:00	19606	62	-52.8	-85.3	216	3
2023-08-08T00:00	19623	62	-52.7	-85.3	209	3
2023-08-08T00:00	19643	62	-52.5	-85.1	190	2
2023-08-08T00:00	19668	62	-52.4	-85.1	158	2
2023-08-08T00:00	19693	62	-52.3	-85.8	136	3
2023-08-08T00:00	19721	61	-52.2	-85.7	128	4
2023-08-08T00:00	19742	61	-51.9	-85.5	127	5
2023-08-08T00:00	19773	61	-51.7	-85.3	127	6
2023-08-08T00:00	19797	61	-51.7	-85.3	128	7
2023-08-08T00:00	19825	60	-51.7	-85.3	131	7
2023-08-08T00:00	19850	60	-51.7	-85.3	134	8
2023-08-08T00:00	19874	60	-51.8	-85.4	139	8
2023-08-08T00:00	19900	60	-51.9	-85.5	145	8
2023-08-08T00:00	19926	59	-51.8	-85.4	151	8
2023-08-08T00:00	19949	59	-51.2	-85.0	157	8
2023-08-08T00:00	19970	59	-51.0	-84.8	161	8
2023-08-08T00:00	19995	59	-50.9	-84.7	163	7
2023-08-08T00:00	20019	59	-50.8	-84.7	164	7
2023-08-08T00:00	20043	58	-50.8	-84.7	163	7
2023-08-08T00:00	20068	58	-50.8	-84.7	162	6
2023-08-08T00:00	20089	58	-50.8	-84.7	161	6
2023-08-08T00:00	20113	58	-50.9	-84.7	160	6
2023-08-08T00:00	20142	57	-50.8	-84.7	159	5
2023-08-08T00:00	20163	57	-50.9	-84.7	159	5
2023-08-08T00:00	20185	57	-50.9	-84.7	159	4
2023-08-08T00:00	20207	57	-50.7	-84.6	159	4
2023-08-08T00:00	20231	57	-50.5	-84.5	159	3
2023-08-08T00:00	20253	56	-50.5	-84.5	159	3
2023-08-08T00:00	20279	56	-50.6	-84.5	157	2
2023-08-08T00:00	20299	56	-50.6	-84.5	154	2
2023-08-08T00:00	20322	56	-50.6	-84.5	149	2
2023-08-08T00:00	20343	56	-50.6	-84.5	142	2
2023-08-08T00:00	20367	56	-50.5	-84.5	134	2
2023-08-08T00:00	20391	55	-50.6	-84.5	126	2
2023-08-08T00:00	20415	55	-50.6	-84.5	121	2
2023-08-08T00:00	20438	55	-50.4	-84.4	120	2
2023-08-08T00:00	20466	55	-50.4	-84.4	124	2
2023-08-08T00:00	20484	55	-50.3	-84.3	129	2
2023-08-08T00:00	20508	54	-50.3	-84.3	134	3
2023-08-08T00:00	20531	54	-50.4	-84.4	137	3
2023-08-08T00:00	20557	54	-50.6	-84.5	139	3
2023-08-08T00:00	20584	54	-50.8	-84.7	140	4
2023-08-08T00:00	20603	54	-51.0	-84.8	142	4
2023-08-08T00:00	20630	53	-51.2	-85.0	146	5
2023-08-08T00:00	20653	53	-51.3	-85.0	152	5
2023-08-08T00:00	20675	53	-51.4	-85.1	157	5
2023-08-08T00:00	20700	53	-51.4	-85.1	163	5
2023-08-08T00:00	20723	53	-51.4	-85.1	168	5
2023-08-08T00:00	20749	52	-51.6	-84.5	172	5
2023-08-08T00:00	20769	52	-51.7	-84.5	175	4
2023-08-08T00:00	20791	52	-51.8	-84.6	178	4
2023-08-08T00:00	20815	52	-52.0	-84.8	180	4
2023-08-08T00:00	20840	52	-52.1	-84.8	182	3
2023-08-08T00:00	20866	51	-52.2	-84.9	183	3
2023-08-08T00:00	20891	51	-52.1	-84.8	183	2
2023-08-08T00:00	20914	51	-52.1	-84.8	178	2
2023-08-08T00:00	20940	51	-52.2	-84.9	162	1
2023-08-08T00:00	20967	51	-52.2	-84.9	121	1
2023-08-08T00:00	20986	50	-52.3	-85.0	86	1
2023-08-08T00:00	21011	50	-52.1	-85.6	73	2
2023-08-08T00:00	21035	50	-51.9	-85.5	68	3
2023-08-08T00:00	21059	50	-51.8	-85.4	66	4
2023-08-08T00:00	21081	50	-51.7	-85.3	66	5
2023-08-08T00:00	21108	50	-51.8	-85.4	66	5
2023-08-08T00:00	21131	49	-51.9	-85.5	68	6
2023-08-08T00:00	21156	49	-52.1	-84.8	71	7
2023-08-08T00:00	21179	49	-52.2	-84.9	74	7
2023-08-08T00:00	21211	49	-52.4	-85.1	78	8
2023-08-08T00:00	21234	49	-52.4	-85.1	82	8
2023-08-08T00:00	21261	48	-52.4	-85.1	88	7
2023-08-08T00:00	21282	48	-52.1	-84.8	94	7
2023-08-08T00:00	21310	48	-52.2	-84.9	101	7
2023-08-08T00:00	21334	48	-52.4	-85.1	106	6
2023-08-08T00:00	21355	48	-52.4	-85.1	109	6
2023-08-08T00:00	21379	48	-52.2	-84.9	108	6
2023-08-08T00:00	21400	47	-52.3	-85.0	104	6
2023-08-08T00:00	21431	47	-52.3	-85.8	100	7
2023-08-08T00:00	21455	47	-52.2	-85.7	97	8
2023-08-08T00:00	21480	47	-52.1	-85.6	95	9
2023-08-08T00:00	21505	47	-52.0	-85.5	94	10
2023-08-08T00:00	21527	46	-52.2	-85.7	94	11
2023-08-08T00:00	21554	46	-52.2	-85.7	94	12
2023-08-08T00:00	21579	46	-52.3	-85.8	94	12
2023-08-08T00:00	21599	46	-52.3	-85.8	95	13
2023-08-08T00:00	21622	46	-52.2	-85.7	95	13
2023-08-08T00:00	21644	46	-52.2	-85.7	97	13
2023-08-08T00:00	21676	45	-52.1	-85.6	99	13
2023-08-08T00:00	21694	45	-52.1	-85.6	102	12
2023-08-08T00:00	21719	45	-52.2	-84.9	105	12
2023-08-08T00:00	21750	45	-52.4	-85.1	108	12
2023-08-08T00:00	21770	45	-52.5	-85.1	112	12
2023-08-08T00:00	21795	45	-52.6	-85.2	114	12
2023-08-08T00:00	21816	44	-52.7	-85.3	115	12
2023-08-08T00:00	21834	44	-52.7	-85.3	114	12
2023-08-08T00:00	21860	44	-52.7	-85.3	113	12
2023-08-08T00:00	21888	44	-52.5	-85.1	111	12
2023-08-08T00:00	21904	44	-52.6	-85.2	108	12
2023-08-08T00:00	21929	44	-52.7	-85.3	107	12
2023-08-08T00:00	21951	43	-52.6		106	12
2023-08-08T00:00	21970	43	-52.6		107	12
2023-08-08T00:00	21997	43	-52.6		108	12
2023-08-08T00:00	22015	43	-52.4	-85.8	109	12
2023-08-08T00:00	22039	43	-52.4	-85.8	111	12
2023-08-08T00:00	22064	43	-52.5	-85.1	112	11
2023-08-08T00:00	22080	43	-52.6	-85.2	114	11
2023-08-08T00:00	22108	42	-52.7	-85.3	116	11
2023-08-08T00:00	22129	42	-52.9	-85.4	119	10
2023-08-08T00:00	22150	42	-53.0	-85.5	122	10
2023-08-08T00:00	22178	42	-53.2	-85.6	126	10
2023-08-08T00:00	22197	42	-53.2	-85.6	129	9
2023-08-08T00:00	22213	42	-52.9	-85.4	134	9
2023-08-08T00:00	22239	42	-52.8	-85.3	138	9
2023-08-08T00:00	22266	41	-52.8	-86.1	144	9
2023-08-08T00:00	22286	41	-52.8	-86.1	149	8
2023-08-08T00:00	22311	41	-52.6		154	7
2023-08-08T00:00	22337	41	-52.5	-85.9	158	7
2023-08-08T00:00	22362	41	-52.4	-85.8	162	6
2023-08-08T00:00	22383	41	-52.2	-85.7	164	6
2023-08-08T00:00	22406	41	-52.1	-85.6	163	5
2023-08-08T00:00	22424	40	-52.0	-85.5	158	4
2023-08-08T00:00	22454	40	-52.0	-85.5	147	4
2023-08-08T00:00	22479	40	-51.4	-86.0	131	4
2023-08-08T00:00	22504	40	-51.0	-85.7	113	4
2023-08-08T00:00	22524	40	-50.9	-85.6	97	4
2023-08-08T00:00	22547	40	-50.8	-85.6	87	5
2023-08-08T00:00	22579	39	-50.8	-85.6	81	6
2023-08-08T00:00	22595	39	-50.8	-84.7	78	7
2023-08-08T00:00	22624	39	-50.8	-84.7	76	7
2023-08-08T00:00	22646	39	-50.8	-84.7	76	8
2023-08-08T00:00	22670	39	-50.8	-84.7	76	8
2023-08-08T00:00	22694	39	-50.9	-84.7	76	8
2023-08-08T00:00	22721	39	-50.6	-84.5	76	7
2023-08-08T00:00	22745	38	-50.6	-84.5	76	7
2023-08-08T00:00	22769	38	-50.7	-84.6	76	6
2023-08-08T00:00	22799	38	-50.7	-84.6	75	6
2023-08-08T00:00	22822	38	-50.8	-84.7	74	6
2023-08-08T00:00	22844	38	-50.9	-84.7	73	5
2023-08-08T00:00	22869	38	-50.9	-84.7	71	5
2023-08-08T00:00	22891	38	-51.0	-84.8	69	5
2023-08-08T00:00	22920	37	-51.1	-84.9	67	6
2023-08-08T00:00	22946	37	-51.2	-85.0	66	6
2023-08-08T00:00	22965	37	-51.2	-85.0	66	7
2023-08-08T00:00	22996	37	-51.4	-85.1	65	7
2023-08-08T00:00	23024	37	-51.4	-85.1	65	8
2023-08-08T00:00	23051	37	-51.5	-85.2	65	8
2023-08-08T00:00	23076	37	-51.6	-85.2	67	9
2023-08-08T00:00	23100	36	-51.6	-85.2	68	9
2023-08-08T00:00	23126	36	-51.6	-85.2	70	10
2023-08-08T00:00	23149	36	-51.6	-85.2	72	10
2023-08-08T00:00	23177	36	-51.6	-85.2	74	11
2023-08-08T00:00	23200	36	-51.7	-85.3	75	11
2023-08-08T00:00	23225	36	-51.8	-85.4	76	11
2023-08-08T00:00	23254	36	-51.9	-85.5	77	11
2023-08-08T00:00	23275	35	-52.0	-85.5	79	11
2023-08-08T00:00	23302	35	-52.0	-85.5	80	11
2023-08-08T00:00	23323	35	-52.1	-85.6	82	10
2023-08-08T00:00	23347	35	-52.1	-85.6	83	10
2023-08-08T00:00	23378	35	-52.1	-85.6	84	9
2023-08-08T00:00	23399	35	-52.2	-85.7	84	9
2023-08-08T00:00	23422	35	-52.3	-85.8	84	9
2023-08-08T00:00	23452	35	-52.3	-85.8	84	10
2023-08-08T00:00	23473	34	-52.4	-85.8	84	10
2023-08-08T00:00	23500	34	-52.5	-85.9	82	10
2023-08-08T00:00	23527	34	-52.7	-86.0	80	10
2023-08-08T00:00	23549	34	-52.5	-85.9	77	10
2023-08-08T00:00	23568	34	-52.4	-85.8	75	10
2023-08-08T00:00	23605	34	-52.3	-85.8	73	11
2023-08-08T00:00	23624	34	-52.2	-85.7	72	11
2023-08-08T00:00	23648	33	-52.1	-85.6	72	12
2023-08-08T00:00	23680	33	-52.1	-85.6	72	12
2023-08-08T00:00	23700	33	-51.9	-85.5	74	13
2023-08-08T00:00	23735	33	-52.0	-85.5	75	13
2023-08-08T00:00	23756	33	-52.0	-85.5	77	13
2023-08-08T00:00	23781	33	-51.9	-85.5	79	13
2023-08-08T00:00	23812	33	-51.9	-85.5	81	12
2023-08-08T00:00	23830	33	-52.1	-85.6	83	12
2023-08-08T00:00	23862	32	-52.2	-85.7	85	12
2023-08-08T00:00	23891	32	-52.1	-85.6	85	12
2023-08-08T00:00	23915	32	-52.1	-85.6	85	12
2023-08-08T00:00	23944	32	-52.1	-85.6	84	11
2023-08-08T00:00	23973	32	-52.2	-85.7	84	11
2023-08-08T00:00	24000	32	-52.1	-85.6	83	11
2023-08-08T00:00	24025	32	-52.0	-85.5	83	11
2023-08-08T00:00	24054	31	-52.0	-85.5	83	10
2023-08-08T00:00	24078	31	-52.1	-85.6	82	9
2023-08-08T00:00	24106	31	-52.2	-85.7	82	9
2023-08-08T00:00	24137	31	-52.3	-85.8	84	8
2023-08-08T00:00	24162	31	-52.3	-85.8	86	8
2023-08-08T00:00	24184	31	-52.2	-85.7	89	8
2023-08-08T00:00	24211	31	-52.2	-85.7	92	8
2023-08-08T00:00	24240	31	-52.3	-85.8	94	9
2023-08-08T00:00	24268	30	-52.3	-85.8	95	10
2023-08-08T00:00	24297	30	-52.2	-85.7	95	10
2023-08-08T00:00	24317	30	-52.2	-85.7	94	11
2023-08-08T00:00	24346	30	-52.4	-85.8	94	11
2023-08-08T00:00	24369	30	-52.5	-85.9	93	12
2023-08-08T00:00	24393	30	-52.5	-85.9	92	12
2023-08-08T00:00	24418	30	-52.5	-85.9	91	11
2023-08-08T00:00	24445	30	-52.5	-85.9	91	11
2023-08-08T00:00	24470	29	-52.4	-85.8	90	10
2023-08-08T00:00	24493	29	-52.5	-85.9	89	10
2023-08-08T00:00	24521	29	-52.4	-85.8	88	9
2023-08-08T00:00	24546	29	-52.4	-85.8	86	8
2023-08-08T00:00	24565	29	-52.4	-85.8	84	8
2023-08-08T00:00	24584	29	-52.4	-85.8	81	8
2023-08-08T00:00	24613	29	-52.4	-85.8	77	8
2023-08-08T00:00	24631	29	-52.2	-85.7	74	8
2023-08-08T00:00	24659	29	-52.2	-85.7	72	8
2023-08-08T00:00	24678	29	-51.9	-85.5	71	8
2023-08-08T00:00	24704	28	-51.7	-86.2	72	9
2023-08-08T00:00	24735	28	-51.3	-85.9	74	9
2023-08-08T00:00	24755	28	-51.0	-85.7	76	10
2023-08-08T00:00	24776	28	-50.9	-85.6	80	10
2023-08-08T00:00	24795	28	-50.9	-85.6	83	10
2023-08-08T00:00	24814	28	-50.7	-85.5	86	11
2023-08-08T00:00	24846	28	-50.7	-85.5	89	11
2023-08-08T00:00	24864	28	-50.7	-85.5	92	11
2023-08-08T00:00	24885	28	-50.8	-85.6	95	12
2023-08-08T00:00	24909	28	-50.9	-85.6	97	12
2023-08-08T00:00	24936	27	-51.0	-84.8	100	12
2023-08-08T00:00	24959	27	-51.1	-84.9	102	12
2023-08-08T00:00	24982	27	-51.1	-84.9	103	12
2023-08-08T00:00	25008	27	-51.0	-85.7	105	11
2023-08-08T00:00	25036	27	-50.8	-85.6	105	11
2023-08-08T00:00	25059	27	-50.6	-85.4	105	10
2023-08-08T00:00	25084	27	-50.4	-85.3	103	9
2023-08-08T00:00	25111	27	-50.1	-85.1	101	8
2023-08-08T00:00	25139	27	-49.9	-84.9	97	7
2023-08-08T00:00	25159	27	-49.8	-84.8	94	7
2023-08-08T00:00	25188	26	-49.7	-84.8	92	7
2023-08-08T00:00	25210	26	-49.7	-84.8	92	7
2023-08-08T00:00	25233	26	-49.7	-84.8	94	6
2023-08-08T00:00	25265	26	-49.8	-84.8	95	6
2023-08-08T00:00	25291	26	-49.9	-84.9	97	5
2023-08-08T00:00	25327	26	-50.0	-85.0	97	5
2023-08-08T00:00	25345	26	-50.1	-85.1	96	4
2023-08-08T00:00	25376	26	-50.0	-85.0	95	4
2023-08-08T00:00	25406	26	-49.9	-84.9	94	4
2023-08-08T00:00	25437	25	-49.6	-84.7	95	4
2023-08-08T00:00	25465	25	-49.4	-84.6	96	4
2023-08-08T00:00	25489	25	-49.4	-84.6	97	4
2023-08-08T00:00	25526	25	-49.5	-84.6	96	3
2023-08-08T00:00	25553	25	-49.3	-84.5	93	3
2023-08-08T00:00	25583	25	-49.4	-84.6	87	2
2023-08-08T00:00	25608	25	-49.5	-84.6	78	2
2023-08-08T00:00	25639	25	-49.6	-84.7	70	2
2023-08-08T00:00	25668	25	-49.7	-84.8	64	2
2023-08-08T00:00	25704	24	-49.7	-84.8	62	3
2023-08-08T00:00	25727	24	-49.7	-84.8	63	3
2023-08-08T00:00	25758	24	-49.7	-84.8	66	4
2023-08-08T00:00	25784	24	-49.7	-84.8	69	4
2023-08-08T00:00	25816	24	-49.6	-84.7	72	5
2023-08-08T00:00	25843	24	-49.7	-84.8	74	5
2023-08-08T00:00	25874	24	-49.8	-84.8	76	6
2023-08-08T00:00	25898	24	-49.9	-84.9	78	6
2023-08-08T00:00	25927	24	-50.0	-85.0	79	7
2023-08-08T00:00	25951	23	-50.0	-85.0	80	7
2023-08-08T00:00	25984	23	-50.1	-85.1	80	7
2023-08-08T00:00	26002	23	-50.2	-85.1	81	7
2023-08-08T00:00	26025	23	-50.0	-85.0	80	8
2023-08-08T00:00	26065	23	-49.9	-84.9	80	8
2023-08-08T00:00	26088	23	-50.0	-85.0	79	8
2023-08-08T00:00	26105	23	-50.1	-85.1	78	9
2023-08-08T00:00	26130	23	-50.0	-85.0	77	9
2023-08-08T00:00	26161	23	-49.8	-84.8	76	10
2023-08-08T00:00	26183	23	-49.8	-84.8	75	10
2023-08-08T00:00	26216	23	-49.8	-84.8	74	10
2023-08-08T00:00	26236	23	-49.9	-84.9	73	11
2023-08-08T00:00	26264	22	-49.9	-84.9	73	11
2023-08-08T00:00	26281	22	-50.0	-85.0	73	11
2023-08-08T00:00	26306	22	-50.0	-85.0	73	11
2023-08-08T00:00	26331	22	-49.9	-84.9	75	12
2023-08-08T00:00	26354	22	-49.9	-84.9	77	12
2023-08-08T00:00	26386	22	-49.8	-84.8	78	13
2023-08-08T00:00	26411	22	-49.9	-84.9	79	13
2023-08-08T00:00	26431	22	-49.8	-84.8	79	14
2023-08-08T00:00	26451	22	-49.8	-84.8	78	14
2023-08-08T00:00	26484	22	-49.7	-84.8	76	14
2023-08-08T00:00	26509	22	-49.7	-84.8	74	14
2023-08-08T00:00	26535	22	-49.7	-84.8	73	14
2023-08-08T00:00	26555	21	-49.6	-84.7	72	14
2023-08-08T00:00	26577	21	-49.7	-84.8	72	14
2023-08-08T00:00	26607	21	-49.8	-84.8	73	13
2023-08-08T00:00	26634	21	-49.9	-84.9	75	13
2023-08-08T00:00	26675	21	-49.8	-84.8	78	13
2023-08-08T00:00	26695	21	-49.6	-84.7	81	12
2023-08-08T00:00	26720	21	-49.6	-84.7	84	12
2023-08-08T00:00	26753	21	-49.6	-84.7	86	12
2023-08-08T00:00	26779	21	-49.6	-84.7	87	12
2023-08-08T00:00	26799	21	-49.5	-84.6	87	12
2023-08-08T00:00	26822	21	-49.4	-84.6	86	12
2023-08-08T00:00	26852	20	-49.4	-84.6	85	12
2023-08-08T00:00	26890	20	-49.4	-84.6	84	12
2023-08-08T00:00	26924	20	-49.3	-84.5	85	12
2023-08-08T00:00	26946	20	-49.2	-84.4	86	12
2023-08-08T00:00	26978	20	-49.1	-84.3	87	12
2023-08-08T00:00	27009	20	-49.2	-84.4	89	12
2023-08-08T00:00	27040	20	-49.3	-84.5	90	11
2023-08-08T00:00	27079	20	-49.4	-84.6	92	11
2023-08-08T00:00	27097	20	-49.5	-84.6	94	11
2023-08-08T00:00	27134	20	-49.7	-84.8	97	11
2023-08-08T00:00	27169	20	-49.7	-84.8	101	11
2023-08-08T00:00	27197	19	-49.5	-84.6	104	12
2023-08-08T00:00	27225	19	-49.6	-84.7	106	12
2023-08-08T00:00	27261	19	-49.7	-84.8	108	12
2023-08-08T00:00	27281	19	-49.8	-84.8	110	12
2023-08-08T00:00	27325	19	-49.6	-84.7	110	11
2023-08-08T00:00	27348	19	-49.7	-84.8	111	11
2023-08-08T00:00	27389	19	-49.7	-84.8	110	11
2023-08-08T00:00	27409	19	-49.3	-84.5	110	11
2023-08-08T00:00	27441	19	-49.3	-84.5	109	11
2023-08-08T00:00	27477	19	-49.2	-84.4	107	11
2023-08-08T00:00	27503	19	-49.2	-84.4	106	11
2023-08-08T00:00	27540	18	-49.2	-84.4	103	10
2023-08-08T00:00	27563	18	-49.2	-84.4	99	10
2023-08-08T00:00	27592	18	-49.3	-84.5	95	10
2023-08-08T00:00	27618	18	-49.2	-85.5	92	10
2023-08-08T00:00	27652	18	-49.3	-85.5	89	11
2023-08-08T00:00	27685	18	-49.3	-85.5	89	11
2023-08-08T00:00	27710	18	-49.1	-85.4	90	12
2023-08-08T00:00	27743	18	-48.6	-85.0	92	12
2023-08-08T00:00	27765	18	-48.6	-85.0	96	13
2023-08-08T00:00	27793	18	-48.8	-85.2	99	13
2023-08-08T00:00	27833	18	-48.9	-84.2	102	13
2023-08-08T00:00	27855	18	-49.1	-84.3	104	13
2023-08-08T00:00	27875	18	-49.2	-84.4	106	13
2023-08-08T00:00	27907	17	-49.2	-84.4	108	13
2023-08-08T00:00	27930	17	-49.3	-84.5	109	12
2023-08-08T00:00	27962	17	-49.4	-85.6	110	12
2023-08-08T00:00	27986	17	-49.4	-85.6	111	12
2023-08-08T00:00	28012	17	-48.8	-85.2	112	11
2023-08-08T00:00	28045	17	-48.3	-84.8	113	11
2023-08-08T00:00	28070	17	-47.9	-84.6	112	11
2023-08-08T00:00	28088	17	-47.8	-84.5	111	10
2023-08-08T00:00	28120	17	-47.6	-84.3	108	10
2023-08-08T00:00	28145	17	-47.4	-84.2	104	10
2023-08-08T00:00	28167	17	-47.4	-84.2	100	11
2023-08-08T00:00	28199	17	-47.3	-84.1	97	11
2023-08-08T00:00	28213	17	-47.2	-84.1	93	11
2023-08-08T00:00	28249	17	-47.2	-84.1	90	11
2023-08-08T00:00	28265	17	-47.1	-84.0	88	11
2023-08-08T00:00	28282	16	-46.9	-83.9	88	11
2023-08-08T00:00	28312	16	-46.7	-83.7	88	11
2023-08-08T00:00	28346	16	-46.7	-83.7	90	10
2023-08-08T00:00	28369	16	-46.6	-83.6	92	10
2023-08-08T00:00	28388	16	-46.7	-83.7	94	9
2023-08-08T00:00	28416	16	-46.9	-83.9	96	9
2023-08-08T00:00	28438	16	-47.1	-84.0	99	9
2023-08-08T00:00	28461	16	-46.9	-83.9	101	9
2023-08-08T00:00	28490	16	-46.9	-83.9	104	9
2023-08-08T00:00	28507	16	-46.8	-83.8	104	9
2023-08-08T00:00	28546	16	-46.8	-83.8	104	9
2023-08-08T00:00	28558	16	-46.9	-83.9	101	9
2023-08-08T00:00	28585	16	-46.8	-83.8	98	10
2023-08-08T00:00	28603	16	-46.7	-83.7	95	10
2023-08-08T00:00	28637	16	-46.6	-83.6	93	11
2023-08-08T00:00	28662	16	-46.6	-83.6	90	11
2023-08-08T00:00	28676	16	-46.5	-83.6	89	11
2023-08-08T00:00	28702	15	-46.2	-83.4	89	11
2023-08-08T00:00	28729	15	-46.1	-83.3	90	12
2023-08-08T00:00	28743	15	-45.9	-83.2	93	12
2023-08-08T00:00	28760	15	-45.6	-82.9	96	12
2023-08-08T00:00	28805	15	-45.4	-82.8	100	12
2023-08-08T00:00	28817	15	-45.2	-82.7	103	13
2023-08-08T00:00	28843	15	-44.5	-82.2	105	13
2023-08-08T00:00	28849	15	-43.9	-81.8	105	13
2023-08-08T00:00	28880	15	-43.6	-81.5	105	12
2023-08-08T00:00	28907	15	-43.4	-81.4	105	12
2023-08-08T00:00	28926	15	-43.2	-81.3	107	11
2023-08-08T00:00	28950	15	-43.2	-81.3	109	11
2023-08-08T00:00	28982	15	-43.2	-81.3	112	11
2023-08-08T00:00	28994	15	-43.3	-81.3	115	10
2023-08-08T00:00	29021	15	-43.3	-81.3	118	10
2023-08-08T00:00	29051	15	-43.3	-81.3	121	10
2023-08-08T00:00	29070	15	-43.4	-81.4	121	9
2023-08-08T00:00	29091	15	-43.4	-81.4	120	9
2023-08-08T00:00	29120	15	-43.3	-81.3	116	8
2023-08-08T00:00	29145	14	-42.7	-80.9	110	8
2023-08-08T00:00	29167	14	-42.5	-80.8	104	8
2023-08-08T00:00	29197	14	-42.3	-80.6	100	8
2023-08-08T00:00	29209	14	-41.9	-80.4	96	9
2023-08-08T00:00	29236	14	-41.9	-80.4	94	9
2023-08-08T00:00	29269	14	-41.9	-80.4	93	9
2023-08-08T00:00	29272	14	-41.8	-80.3	92	8
2023-08-08T00:00	29321	14	-41.5	-80.1	92	8
2023-08-08T00:00	29343	14	-41.2	-79.9	93	8
2023-08-08T00:00	29368	14	-41.0	-79.7	93	8
2023-08-08T00:00	29383	14	-40.9	-79.7	94	7
2023-08-08T00:00	29413	14	-40.7	-79.5	93	7
2023-08-08T00:00	29439	14	-40.8	-79.6	91	7
2023-08-08T00:00	29477	14	-40.9	-79.7	88	7
2023-08-08T00:00	29511	14	-40.8	-79.6	85	7
2023-08-08T00:00	29526	14	-40.7	-79.5	83	8
2023-08-08T00:00	29556	14	-40.6	-79.5	83	8
2023-08-08T00:00	29581	14	-40.5	-79.4	85	8
2023-08-08T00:00	29624	14	-40.5	-79.4	88	8
2023-08-08T00:00	29650	13	-40.6	-79.5	91	9
2023-08-08T00:00	29663	13	-40.7	-79.5	93	9
2023-08-08T00:00	29707	13	-40.7	-79.5	93	9
2023-08-08T00:00	29709	13	-40.7	-79.5	92	9
2023-08-08T00:00	29761	13	-40.8	-79.6	91	9
2023-08-08T00:00	29797	13	-40.8	-79.6	89	9
2023-08-08T00:00	29832	13	-40.7	-79.5	88	9
2023-08-08T00:00	29837	13	-40.8	-79.6	87	10
2023-08-08T00:00	29881	13	-40.7	-79.5	87	10
2023-08-08T00:00	29900	13	-40.7	-79.5	87	11
2023-08-08T00:00	29942	13	-40.8	-79.6	88	12
2023-08-08T00:00	29975	13	-40.9	-79.7	89	13
2023-08-08T00:00	30004	13	-40.6	-79.5	90	13
2023-08-08T00:00	30016	13	-40.5	-79.4	92	13
2023-08-08T00:00	30051	13	-40.4	-79.3	94	13
2023-08-08T00:00	30092	13	-40.3	-79.2	96	13
2023-08-08T00:00	30129	13	-40.3	-79.2	98	12
2023-08-08T00:00	30160	12	-40.4	-79.3	101	12
2023-08-08T00:00	30189	12	-40.4	-79.3	104	11
2023-08-08T00:00	30219	12	-40.4	-79.3	107	11
2023-08-08T00:00	30260	12	-40.3	-79.2	111	10
2023-08-08T00:00	30280	12	-40.3	-79.2	115	9
2023-08-08T00:00	30315	12	-40.3	-79.2	119	9
2023-08-08T00:00	30366	12	-40.2	-79.2	122	8
2023-08-08T00:00	30395	12	-39.9	-79.0	122	8
2023-08-08T00:00	30420	12	-39.7	-78.8	120	8
2023-08-08T00:00	30437	12	-39.7	-78.8	117	7
2023-08-08T00:00	30467	12	-39.7	-78.8	115	7
2023-08-08T00:00	30511	12	-39.7	-78.8	112	7
2023-08-08T00:00	30517	12	-39.7	-78.8	110	7
2023-08-08T00:00	30541	12	-39.7	-78.8	108	7
2023-08-08T00:00	30573	12	-39.8	-78.9	108	7
2023-08-08T00:00	30615	12	-39.9	-79.0	108	8
2023-08-08T00:00	30629	12	-39.7	-78.8	108	8
2023-08-08T00:00	30656	12	-39.7	-78.8	108	8
2023-08-08T00:00	30707	12	-39.6	-78.8	107	8
2023-08-08T00:00	30728	11	-39.6	-78.8	104	8
2023-08-08T00:00	30736	11	-39.6	-78.8	100	8
2023-08-08T00:00	30775	11	-39.6	-78.8	95	8
2023-08-08T00:00	30798	11	-39.6	-78.8	91	8
2023-08-08T00:00	30832	11	-39.6	-78.8	87	8
2023-08-08T00:00	30850	11	-39.5	-78.7	84	8
2023-08-08T00:00	30884	11	-39.4	-78.6	79	8
2023-08-08T00:00	30894	11	-39.0	-78.3	74	7
2023-08-08T00:00	30939	11	-38.9	-78.3	69	7
2023-08-08T00:00	30950	11	-38.9	-78.3	65	7
2023-08-08T00:00	30963	11	-38.9	-78.3	63	7
2023-08-08T00:00	31015	11	-38.8	-78.2	61	7
2023-08-08T00:00	31035	11	-38.7	-78.1	61	7
2023-08-08T00:00	31060	11	-38.6	-78.1	60	7
2023-08-08T00:00	31110	11	-38.7	-78.1	59	7
2023-08-08T00:00	31113	11	-38.8	-78.2	56	7
2023-08-08T00:00	31146	11	-38.8	-78.2	53	8
2023-08-08T00:00	31178	11	-38.8	-78.2	50	8
2023-08-08T00:00	31187	11	-38.7	-78.1	48	9
2023-08-08T00:00	31213	11	-38.8	-78.2	46	9
2023-08-08T00:00	31249	11	-39.0	-78.3	44	10
2023-08-08T00:00	31272	11	-39.1	-78.4	43	10
2023-08-08T00:00	31297	11	-39.1	-78.4	42	11
2023-08-08T00:00	31311	11	-39.0	-78.3	42	12
2023-08-08T00:00	31354	10	-39.0	-78.3	42	12
2023-08-08T00:00	31388	10	-39.0	-78.3	42	13
2023-08-08T00:00	31415	10	-38.9	-78.3	42	14
2023-08-08T00:00	31450	10	-38.9	-78.3	42	14
2023-08-08T00:00	31462	10	-39.0	-78.3	43	15
2023-08-08T00:00	31481	10	-39.1	-78.4	45	15
2023-08-08T00:00	31529	10	-39.1	-78.4	47	16
2023-08-08T00:00	31549	10	-39.2	-78.5	49	16
2023-08-08T00:00	31595	10	-39.4	-78.6	51	16
2023-08-08T00:00	31606	10	-39.6	-78.8	54	16
2023-08-08T00:00	31622	10	-39.8	-78.9	56	16
2023-08-08T00:00	31676	10	-39.8	-78.9	58	16
2023-08-08T00:00	31694	10	-39.9	-79.0	61	16
2023-08-08T00:00	31742	10	-39.9	-79.0	63	16
2023-08-08T00:00	31751	10	-39.9	-79.0	65	16
2023-08-08T00:00	31781	10	-40.0	-79.0	68	16
2023-08-08T00:00	31813	10	-40.1	-79.1	70	16
2023-08-08T00:00	31836	10	-40.2	-79.2	73	16
2023-08-08T00:00	31857	10	-40.3	-79.2	76	16
2023-08-08T00:00	31896	10	-40.5	-79.4	78	16
2023-08-08T00:00	31920	10	-40.6	-79.5	80	16
2023-08-08T00:00	31943	10	-40.6	-79.5	81	16
2023-08-08T00:00	31973	10	-40.5	-79.4	81	16
2023-08-08T00:00	31997	10	-40.5	-79.4	81	16
2023-08-08T00:00	32020	10	-40.3	-79.2	80	16
2023-08-08T00:00	32062	9	-40.2	-79.2	79	15
2023-08-08T00:00	32110	9	-40.2	-79.2	79	16
2023-08-08T00:00	32141	9	-39.8	-78.9	81	17
2023-08-08T00:00	32165	9	-39.7	-78.8	82	17
2023-08-08T00:00	32188	9	-39.7	-78.8	83	18
2023-08-08T00:00	32216	9	-39.7	-78.8	85	18
2023-08-08T00:00	32235	9	-39.5	-78.7	86	18
2023-08-08T00:00	32252	9	-39.2	-78.5	88	19
2023-08-08T00:00	32266	9	-38.9	-78.3	90	19
2023-08-08T00:00	32281	9	-38.7	-78.1	91	19
2023-08-08T00:00	32317	9	-38.5	-78.0	93	18
2023-08-08T00:00	32332	9	-38.5	-78.0	95	18
2023-08-08T00:00	32347	9	-38.6	-78.1	96	18
2023-08-08T00:00	32364	9	-38.3	-77.9	98	17
2023-08-08T00:00	32377	9	-38.1	-77.7	100	16
2023-08-08T00:00	32413	9	-38.1	-77.7	101	16
2023-08-08T00:00	32430	9	-37.9	-77.6	103	15
2023-08-08T00:00	32439	9	-37.6	-77.4	104	14
2023-08-08T00:00	32472	9	-37.3	-77.2	105	13
2023-08-08T00:00	32500	9	-37.1	-77.0	106	12
2023-08-08T00:00	32527	9	-36.8	-76.8	107	12
2023-08-08T00:00	32541	9	-36.7	-76.7	107	11
2023-08-08T00:00	32564	9	-36.4	-76.5	106	10
2023-08-08T00:00	32588	9	-36.3	-76.5	104	10
2023-08-08T00:00	32589	9	-36.2	-76.4	101	10
2023-08-08T00:00	32626	9	-36.0	-76.3	98	10
2023-08-08T00:00	32665	9	-35.9	-76.2	96	10
2023-08-08T00:00	32690	9	-35.9	-76.2	93	10
2023-08-08T00:00	32712	9	-35.9	-76.2	90	10
2023-08-08T00:00	32714	9	-35.9	-76.2	88	11
2023-08-08T00:00	32753	9	-35.8	-76.1	86	11
2023-08-08T00:00	32775	9	-35.7	-76.1	85	12
2023-08-08T00:00	32802	9	-35.6	-76.0	84	12
2023-08-08T00:00	32815	8	-35.4	-75.8	83	13
2023-08-08T00:00	32833	8	-35.4	-75.8	83	13
2023-08-08T00:00	32882	8	-35.4	-75.8	82	14
2023-08-08T00:00	32903	8	-35.4	-75.8	82	14
2023-08-08T00:00	32932	8	-35.5	-75.9	83	14
2023-08-08T00:00	32945	8	-35.6	-76.0	84	14
2023-08-08T00:00	32971	8	-35.6	-76.0	86	14
2023-08-08T00:00	32991	8	-35.6	-76.0	87	14
2023-08-08T00:00	33028	8	-35.7	-76.1	89	14
2023-08-08T00:00	33045	8	-35.8	-76.1	91	14
2023-08-08T00:00	33085	8	-36.0	-76.3	94	14
2023-08-08T00:00	33116	8	-35.9	-76.2	96	13
2023-08-08T00:00	33149	8	-35.7	-76.1	99	13
2023-08-08T00:00	33170	8	-35.8	-76.1	102	13
2023-08-08T00:00	33211	8	-35.9	-76.2	105	13
2023-08-08T00:00	33233	8	-36.0	-76.3	111	12
2023-08-08T00:00	33257	8	-35.9	-76.2	114	12
2023-08-08T00:00	33300	8	-35.9	-76.2	116	12
2023-08-08T00:00	33338	8	-36.0	-76.3	117	11
2023-08-08T00:00	33370	8	-36.2	-76.4	114	10
2023-08-08T00:00	33402	8	-36.2	-76.4	111	9
2023-08-08T00:00	33443	8	-36.1	-76.3	107	9
2023-08-08T00:00	33458	8	-36.1	-76.3	102	9
2023-08-08T00:00	33473	8	-36.0	-76.3	98	8
2023-08-08T00:00	33510	8	-35.9	-76.2	94	8
2023-08-08T00:00	33535	8	-36.0	-76.3	92	8
2023-08-08T00:00	33539	8	-36.0	-76.3	91	8
2023-08-08T00:00	33578	8	-35.9	-76.2	92	7
2023-08-08T00:00	33609	8	-35.8	-76.1	94	7
2023-08-08T00:00	33624	8	-35.7	-76.1	100	7
2023-08-08T00:00	33687	8	-35.7	-76.1	103	7
2023-08-08T00:00	33695	7	-35.9	-76.2	103	7
2023-08-08T00:00	33720	7	-35.9	-76.2	102	7
2023-08-08T00:00	33738	7	-35.7	-76.1	101	7
2023-08-08T00:00	33773	7	-35.5	-75.9	99	7
2023-08-08T00:00	33807	7	-35.4	-75.8	98	7
2023-08-08T00:00	33832	7	-35.3	-75.8	97	7
2023-08-08T00:00	33851	7	-35.1	-75.6	96	7
2023-08-08T00:00	33854	7	-34.9	-75.5	94	7
2023-08-08T00:00	33880	7	-34.7	-75.4	91	8
2023-08-08T00:00	33930	7	-34.4	-75.2	86	8
2023-08-08T00:00	33939	7	-34.3	-75.1	83	7
2023-08-08T00:00	33989	7	-34.0	-74.9	79	7
2023-08-08T00:00	33999	7	-33.8	-74.7	78	6
2023-08-08T00:00	34013	7	-33.4	-74.5	78	5
2023-08-08T00:00	34039	7	-33.3	-74.4	76	5
2023-08-08T00:00	34056	7	-33.3	-74.4	74	5
2023-08-08T00:00	34098	7	-33.0	-74.2	69	5
2023-08-08T00:00	34124	7	-32.9	-74.1	69	6
2023-08-08T00:00	34142	7	-32.9	-74.1	69	6
2023-08-08T00:00	34143	7	-32.8	-74.1	71	7
2023-08-08T00:00	34172	7	-32.7	-74.0	74	7
2023-08-08T00:00	34180	7	-32.7	-74.0	76	8
2023-08-08T00:00	34194	7	-32.7	-74.0	81	8
2023-08-08T00:00	34219	7	-32.5	-73.8	83	8
2023-08-08T00:00	34246	7	-32.5	-73.8	85	7
2023-08-08T00:00	34270	7	-32.4	-73.8	87	7
2023-08-08T00:00	34287	7	-32.4	-73.8	88	7
2023-08-08T00:00	34298	7	-32.4	-73.8	87	7
2023-08-08T00:00	34340	7	-32.1	-73.6	82	8
2023-08-08T00:00	34350	7	-31.8	-73.4	79	9
2023-08-08T00:00	34358	7	-31.5	-73.2	78	10
2023-08-08T00:00	34385	7	-31.3	-73.0	77	11
2023-08-08T00:00	34396	7	-31.0	-72.8	76	11
2023-08-08T00:00	34421	7	-30.9	-72.8	76	12
2023-08-08T00:00	34426	7	-30.8	-72.7	76	12
2023-08-08T00:00	34437	7	-30.6	-72.5	75	13
2023-08-08T00:00	34457	7	-30.6	-72.5	75	13
2023-08-08T00:00	34461	7	-30.6	-72.5	74	13
2023-08-08T00:00	34480	7	-30.6	-72.5	75	13
2023-08-08T00:00	34511	7	-30.5	-72.5	75	14
2023-08-08T00:00	34539	7	-30.4	-72.4	77	14
2023-08-08T00:00	34581	7	-30.2	-72.3	80	14
2023-08-08T00:00	34599	7	-29.9	-72.1	86	14
2023-08-08T00:00	34614	7	-29.8	-72.0	92	12
2023-08-08T06:00	118	996	11.8	8.7	248	5
2023-08-08T06:00	147	993	11.7	8.2	245	6
2023-08-08T06:00	171	990	11.4	8.0	246	8
2023-08-08T06:00	202	986	11.2	8.0	246	9
2023-08-08T06:00	231	983	10.9	7.8	247	10
2023-08-08T06:00	259	980	10.7	7.8	248	10
2023-08-08T06:00	285	976	10.4	7.9	249	11
2023-08-08T06:00	315	973	10.4	7.8	250	12
2023-08-08T06:00	337	970	10.2	7.7	252	13
2023-08-08T06:00	360	968	10.2	7.7	255	14
2023-08-08T06:00	379	965	10.1	7.7	257	15
2023-08-08T06:00	404	963	9.8	7.6	260	16
2023-08-08T06:00	428	960	9.9	7.5	262	17
2023-08-08T06:00	452	957	9.9	7.5	264	18
2023-08-08T06:00	476	955	9.7	7.5	266	18
2023-08-08T06:00	497	952	9.6	7.5	268	18
2023-08-08T06:00	522	949	9.6	7.5	270	19
2023-08-08T06:00	542	947	9.5	7.5	271	19
2023-08-08T06:00	565	944	9.3	7.5	273	19
2023-08-08T06:00	588	942	9.2	7.4	275	20
2023-08-08T06:00	614	939	8.9	7.3	276	20
2023-08-08T06:00	638	936	8.7	7.4	278	21
2023-08-08T06:00	663	933	8.7	7.3	279	21
2023-08-08T06:00	688	930	8.7	7.3	280	22
2023-08-08T06:00	714	927	8.5	6.9	282	22
2023-08-08T06:00	740	925	8.4	6.6	283	21
2023-08-08T06:00	761	922	8.3	6.3	284	21
2023-08-08T06:00	790	919	8.2	5.8	285	20
2023-08-08T06:00	815	916	8.2	4.9	285	20
2023-08-08T06:00	844	913	8.2	4.5	286	19
2023-08-08T06:00	874	910	8.1	3.9	286	19
2023-08-08T06:00	902	907	8.0	3.5	286	19
2023-08-08T06:00	930	904	7.8	3.3	286	19
2023-08-08T06:00	957	901	7.6	3.2	285	19
2023-08-08T06:00	984	898	7.3	3.1	285	19
2023-08-08T06:00	1011	895	7.1	2.9	285	19
2023-08-08T06:00	1038	892	6.9	2.8	286	19
2023-08-08T06:00	1063	889	6.7	2.7	286	19
2023-08-08T06:00	1089	886	6.4	2.6	286	19
2023-08-08T06:00	1116	883	6.2	2.4	286	19
2023-08-08T06:00	1139	881	6.1	2.2	286	20
2023-08-08T06:00	1161	878	5.9	2.1	286	20
2023-08-08T06:00	1184	876	5.7	2.0	285	20
2023-08-08T06:00	1209	873	5.5	2.0	285	20
2023-08-08T06:00	1240	870	5.2	1.8	285	21
2023-08-08T06:00	1272	867	5.0	1.7	285	21
2023-08-08T06:00	1296	864	4.8	1.4	285	21
2023-08-08T06:00	1322	861	4.6	1.3	285	20
2023-08-08T06:00	1346	859	4.3	1.2	285	20
2023-08-08T06:00	1368	856	4.1	1.0	286	20
2023-08-08T06:00	1391	854	3.9	0.8	286	19
2023-08-08T06:00	1414	852	3.7	0.7	287	19
2023-08-08T06:00	1438	849	3.6	0.8	287	19
2023-08-08T06:00	1456	847	3.5	0.6	287	18
2023-08-08T06:00	1473	845	3.3	0.2	286	18
2023-08-08T06:00	1493	843	3.3	-0.1	285	18
2023-08-08T06:00	1512	841	3.2	-0.1	285	17
2023-08-08T06:00	1536	839	3.0	-0.3	285	18
2023-08-08T06:00	1557	837	2.9	-0.5	287	18
2023-08-08T06:00	1577	835	2.8	-0.6	287	18
2023-08-08T06:00	1602	832	2.6	-0.8	287	18
2023-08-08T06:00	1632	829	2.3	-1.0	286	18
2023-08-08T06:00	1655	827	2.1	-0.8	284	18
2023-08-08T06:00	1677	824	1.9	-0.9	282	18
2023-08-08T06:00	1701	822	1.7	-0.6	281	18
2023-08-08T06:00	1718	820	1.5	-0.8	282	19
2023-08-08T06:00	1739	818	1.3	-1.0	283	19
2023-08-08T06:00	1771	815	1.0	-1.3	284	19
2023-08-08T06:00	1797	812	0.8	-1.5	285	18
2023-08-08T06:00	1817	810	0.6	-1.4	285	18
2023-08-08T06:00	1841	808	0.4	-1.5	285	17
2023-08-08T06:00	1866	805	0.2	-1.5	284	17
2023-08-08T06:00	1891	803	0.2	-1.5	284	16
2023-08-08T06:00	1916	800	0.0	-1.6	285	16
2023-08-08T06:00	1940	798	-0.2	-1.5	285	17
2023-08-08T06:00	1962	796	-0.4	-1.5	285	17
2023-08-08T06:00	1986	793	-0.7	-1.6	285	17
2023-08-08T06:00	2011	791	-0.9	-1.8	284	17
2023-08-08T06:00	2033	789	-1.0	-1.7	283	17
2023-08-08T06:00	2062	786	-1.3	-1.9	281	17
2023-08-08T06:00	2086	783	-1.5	-2.0	280	16
2023-08-08T06:00	2111	781	-1.6	-2.4	280	16
2023-08-08T06:00	2134	779	-1.7	-3.0	280	17
2023-08-08T06:00	2161	776	-1.7	-3.5	280	17
2023-08-08T06:00	2185	774	-1.5	-4.6	281	17
2023-08-08T06:00	2213	771	-1.5	-4.1	281	18
2023-08-08T06:00	2236	769	-1.6	-4.3	282	18
2023-08-08T06:00	2259	766	-1.7	-4.5	282	18
2023-08-08T06:00	2294	763	-1.8	-5.2	282	18
2023-08-08T06:00	2319	761	-1.8	-5.5	282	18
2023-08-08T06:00	2347	758	-1.8	-6.5	282	18
2023-08-08T06:00	2377	756	-2.0	-6.4	282	18
2023-08-08T06:00	2398	753	-2.2	-6.4	281	19
2023-08-08T06:00	2420	751	-2.4	-6.5	281	19
2023-08-08T06:00	2449	749	-2.4	-6.8	281	19
2023-08-08T06:00	2474	746	-2.3	-7.0	281	19
2023-08-08T06:00	2502	744	-2.3	-8.4	282	19
2023-08-08T06:00	2525	741	-2.2	-11.5	283	19
2023-08-08T06:00	2548	739	-2.3	-13.2	284	19
2023-08-08T06:00	2573	737	-2.3	-13.6	284	19
2023-08-08T06:00	2598	735	-2.5	-13.9	283	19
2023-08-08T06:00	2620	733	-2.7	-14.0	282	19
2023-08-08T06:00	2645	730	-2.8	-14.1	281	19
2023-08-08T06:00	2668	728	-2.9	-14.7	281	19
2023-08-08T06:00	2691	726	-3.0	-14.9	281	18
2023-08-08T06:00	2716	724	-3.2	-15.4	282	18
2023-08-08T06:00	2743	721	-3.1	-17.5	282	18
2023-08-08T06:00	2765	719	-3.0	-18.4	283	18
2023-08-08T06:00	2793	717	-3.2	-18.6	282	18
2023-08-08T06:00	2816	715	-3.4	-17.8	282	18
2023-08-08T06:00	2839	713	-3.5	-18.1	282	18
2023-08-08T06:00	2866	710	-3.6	-18.4	282	18
2023-08-08T06:00	2893	708	-3.8	-19.3	281	18
2023-08-08T06:00	2913	706	-4.0	-19.4	280	19
2023-08-08T06:00	2935	704	-4.1	-18.6	279	19
2023-08-08T06:00	2961	702	-4.3	-16.9	278	19
2023-08-08T06:00	2983	700	-4.4	-17.1	277	20
2023-08-08T06:00	3015	697	-4.5	-21.2	276	20
2023-08-08T06:00	3038	695	-4.7	-21.5	277	20
2023-08-08T06:00	3060	693	-4.9	-21.7	277	20
2023-08-08T06:00	3084	691	-5.0	-19.7	278	20
2023-08-08T06:00	3106	689	-5.3	-18.1	279	20
2023-08-08T06:00	3133	687	-5.5	-16.4	279	20
2023-08-08T06:00	3156	684	-5.7	-16.5	279	20
2023-08-08T06:00	3189	682	-5.8	-18.2	279	21
2023-08-08T06:00	3215	679	-5.9	-18.7	279	21
2023-08-08T06:00	3241	677	-6.2	-18.4	279	21
2023-08-08T06:00	3265	675	-6.3	-18.3	279	22
2023-08-08T06:00	3298	672	-6.5	-18.8	279	21
2023-08-08T06:00	3320	670	-6.7	-18.9	278	21
2023-08-08T06:00	3343	668	-6.8	-18.9	278	21
2023-08-08T06:00	3369	666	-7.0	-19.2	278	21
2023-08-08T06:00	3390	664	-7.2	-19.2	278	20
2023-08-08T06:00	3413	662	-7.4	-19.4	279	20
2023-08-08T06:00	3435	660	-7.6	-19.6	279	20
2023-08-08T06:00	3466	658	-7.8	-19.7	278	20
2023-08-08T06:00	3490	656	-7.9	-20.1	278	20
2023-08-08T06:00	3511	654	-8.1	-20.3	277	20
2023-08-08T06:00	3541	652	-8.3	-20.8	278	21
2023-08-08T06:00	3566	649	-8.3	-21.7	278	21
2023-08-08T06:00	3592	647	-8.4	-23.6	279	21
2023-08-08T06:00	3621	645	-8.6		279	22
2023-08-08T06:00	3651	642	-8.8	-22.9	280	22
2023-08-08T06:00	3675	640	-9.0	-22.1	280	22
2023-08-08T06:00	3699	638	-9.2	-22.0	279	22
2023-08-08T06:00	3723	636	-9.4	-21.9	279	22
2023-08-08T06:00	3748	634	-9.5	-21.8	278	21
2023-08-08T06:00	3767	633	-9.6	-22.7	277	21
2023-08-08T06:00	3793	631	-9.7	-23.0	277	20
2023-08-08T06:00	3814	629	-9.8	-23.4	276	19
2023-08-08T06:00	3838	627	-9.9	-23.8	275	19
2023-08-08T06:00	3866	625	-9.7	-25.5	275	19
2023-08-08T06:00	3888	623	-9.7	-26.0	275	18
2023-08-08T06:00	3912	621	-9.6	-27.4	277	18
2023-08-08T06:00	3936	619	-9.4		279	18
2023-08-08T06:00	3958	617	-9.5	-29.1	281	18
2023-08-08T06:00	3981	615	-9.7	-29.4	283	18
2023-08-08T06:00	4009	613	-9.9	-29.6	285	19
2023-08-08T06:00	4029	612	-10.0	-29.7	287	19
2023-08-08T06:00	4051	610	-10.1	-29.8	288	19
2023-08-08T06:00	4076	608	-10.0	-30.6	289	19
2023-08-08T06:00	4099	606	-10.0	-31.1	289	19
2023-08-08T06:00	4120	604	-10.1	-31.3	289	19
2023-08-08T06:00	4143	603	-10.3	-31.5	289	20
2023-08-08T06:00	4168	601	-10.5	-31.5	287	20
2023-08-08T06:00	4188	599	-10.7	-31.6	286	20
2023-08-08T06:00	4217	597	-10.9	-31.5	285	20
2023-08-08T06:00	4242	595	-11.1	-31.6	283	20
2023-08-08T06:00	4258	594	-11.3	-31.9	283	20
2023-08-08T06:00	4279	592	-11.3	-32.5	282	20
2023-08-08T06:00	4300	590	-11.3	-33.6	281	20
2023-08-08T06:00	4325	588	-11.4	-35.8	281	20
2023-08-08T06:00	4352	586	-11.5	-35.4	280	20
2023-08-08T06:00	4373	585	-11.6	-35.0	280	20
2023-08-08T06:00	4398	583	-11.7	-35.6	281	20
2023-08-08T06:00	4428	581	-11.9	-35.7	281	20
2023-08-08T06:00	4454	579	-12.1	-36.0	282	20
2023-08-08T06:00	4479	577	-12.2	-35.3	283	20
2023-08-08T06:00	4504	575	-12.4	-35.7	284	20
2023-08-08T06:00	4530	573	-12.5	-36.5	285	20
2023-08-08T06:00	4560	571	-12.6	-36.9	286	20
2023-08-08T06:00	4582	569	-12.7	-37.6	288	20
2023-08-08T06:00	4608	567	-12.9	-37.9	289	20
2023-08-08T06:00	4636	565	-13.1	-38.2	290	19
2023-08-08T06:00	4656	563	-13.2	-38.3	290	19
2023-08-08T06:00	4683	562	-13.2	-40.3	291	19
2023-08-08T06:00	4701	560	-13.3	-40.2	291	19
2023-08-08T06:00	4728	558	-13.5	-40.1	292	20
2023-08-08T06:00	4757	556	-13.7	-40.0	293	20
2023-08-08T06:00	4780	555	-13.9	-40.0	294	21
2023-08-08T06:00	4800	553	-14.1	-40.1	293	21
2023-08-08T06:00	4829	551	-14.4	-40.2	293	21
2023-08-08T06:00	4857	549	-14.6	-40.4	292	21
2023-08-08T06:00	4875	548	-14.7	-40.4	291	21
2023-08-08T06:00	4897	546	-14.9	-40.6	290	20
2023-08-08T06:00	4924	544	-15.1	-41.8	289	20
2023-08-08T06:00	4944	542	-15.3	-42.1	289	20
2023-08-08T06:00	4968	541	-15.4	-43.0	290	20
2023-08-08T06:00	4995	539	-15.6	-42.2	289	20
2023-08-08T06:00	5020	537	-15.6	-42.6	289	21
2023-08-08T06:00	5053	535	-15.6	-43.2	288	21
2023-08-08T06:00	5077	533	-15.7	-42.7	287	20
2023-08-08T06:00	5102	531	-15.6	-37.6	285	20
2023-08-08T06:00	5130	529	-15.6	-32.7	283	20
2023-08-08T06:00	5156	527	-15.8	-31.1	281	20
2023-08-08T06:00	5187	525	-16.1	-31.0	281	20
2023-08-08T06:00	5216	523	-16.3	-29.6	281	21
2023-08-08T06:00	5259	521	-16.5	-27.1	281	21
2023-08-08T06:00	5282	519	-16.6	-26.3	282	21
2023-08-08T06:00	5305	517	-16.8	-26.2	282	20
2023-08-08T06:00	5337	515	-17.1	-26.3	283	21
2023-08-08T06:00	5363	513	-17.3	-26.6	283	21
2023-08-08T06:00	5386	512	-17.5	-26.8	282	21
2023-08-08T06:00	5415	510	-17.7	-26.9	282	21
2023-08-08T06:00	5439	508	-18.0	-27.1	282	21
2023-08-08T06:00	5470	506	-18.3	-26.9	282	21
2023-08-08T06:00	5495	504	-18.5	-26.8	282	21
2023-08-08T06:00	5518	503	-18.7	-25.5	281	21
2023-08-08T06:00	5541	501	-18.9	-26.2	280	21
2023-08-08T06:00	5567	499	-19.2	-26.4	279	21
2023-08-08T06:00	5591	498	-19.4	-26.3	278	21
2023-08-08T06:00	5611	496	-19.6	-25.7	278	21
2023-08-08T06:00	5642	494	-19.9	-25.2	279	21
2023-08-08T06:00	5669	493	-20.2	-24.8	279	21
2023-08-08T06:00	5696	491	-20.3	-23.9	280	20
2023-08-08T06:00	5714	489	-20.5	-23.9	281	19
2023-08-08T06:00	5738	488	-20.6	-23.8	281	19
2023-08-08T06:00	5768	486	-20.7	-23.6	282	18
2023-08-08T06:00	5798	484	-21.0	-23.9	282	18
2023-08-08T06:00	5826	482	-21.1	-24.1	282	18
2023-08-08T06:00	5844	481	-21.1	-23.7	282	18
2023-08-08T06:00	5864	480	-21.2	-23.7	282	19
2023-08-08T06:00	5885	478	-21.3	-23.8	282	19
2023-08-08T06:00	5907	477	-21.5	-23.7	281	19
2023-08-08T06:00	5929	475	-21.5	-23.6	280	20
2023-08-08T06:00	5955	474	-21.5	-23.6	279	20
2023-08-08T06:00	5980	472	-21.6	-23.5	279	20
2023-08-08T06:00	6005	471	-21.7	-23.7	278	20
2023-08-08T06:00	6036	469	-21.7	-24.1	278	20
2023-08-08T06:00	6060	467	-21.9	-24.1	278	20
2023-08-08T06:00	6087	465	-22.2	-24.5	277	20
2023-08-08T06:00	6114	464	-22.3	-24.5	277	21
2023-08-08T06:00	6142	462	-22.6	-24.4	276	21
2023-08-08T06:00	6166	460	-22.7	-24.2	276	21
2023-08-08T06:00	6188	459	-22.9	-24.5	276	21
2023-08-08T06:00	6208	458	-23.1	-25.2	277	21
2023-08-08T06:00	6232	456	-23.3	-25.6	278	21
2023-08-08T06:00	6255	455	-23.4	-26.1	279	21
2023-08-08T06:00	6279	453	-23.6	-26.2	279	21
2023-08-08T06:00	6306	452	-23.9	-26.2	280	21
2023-08-08T06:00	6329	450	-24.1	-26.4	280	21
2023-08-08T06:00	6353	449	-24.3	-26.3	280	21
2023-08-08T06:00	6386	447	-24.5	-26.3	279	21
2023-08-08T06:00	6412	445	-24.7	-26.5	279	21
2023-08-08T06:00	6434	444	-25.0	-26.7	278	21
2023-08-08T06:00	6463	442	-25.2	-26.4	278	20
2023-08-08T06:00	6489	441	-25.5	-26.7	278	20
2023-08-08T06:00	6513	439	-25.7	-27.0	278	20
2023-08-08T06:00	6540	437	-25.9	-27.1	279	20
2023-08-08T06:00	6571	436	-26.1	-28.4	280	20
2023-08-08T06:00	6598	434	-26.3	-29.0	280	20
2023-08-08T06:00	6626	432	-26.5	-29.0	280	20
2023-08-08T06:00	6659	430	-26.6	-29.3	280	20
2023-08-08T06:00	6682	429	-26.7	-29.1	279	20
2023-08-08T06:00	6705	428	-26.8	-29.3	278	20
2023-08-08T06:00	6728	426	-26.8	-29.2	277	20
2023-08-08T06:00	6750	425	-27.0	-29.4	277	19
2023-08-08T06:00	6773	424	-27.2	-29.7	277	19
2023-08-08T06:00	6794	422	-27.4	-29.8	277	19
2023-08-08T06:00	6816	421	-27.5	-30.1	277	19
2023-08-08T06:00	6840	420	-27.6	-30.6	276	19
2023-08-08T06:00	6869	418	-27.8	-31.0	275	19
2023-08-08T06:00	6899	416	-28.0	-30.7	274	19
2023-08-08T06:00	6926	415	-28.1	-31.5	274	20
2023-08-08T06:00	6948	413	-28.1	-31.9	275	20
2023-08-08T06:00	6973	412	-28.1	-31.6	276	20
2023-08-08T06:00	6999	410	-28.4	-32.0	277	20
2023-08-08T06:00	7031	409	-28.5	-32.1	278	20
2023-08-08T06:00	7061	407	-28.7	-32.4	278	19
2023-08-08T06:00	7082	406	-28.9	-32.4	278	19
2023-08-08T06:00	7104	404	-29.1	-32.5	278	19
2023-08-08T06:00	7126	403	-29.2	-32.6	278	19
2023-08-08T06:00	7152	402	-29.4	-33.0	278	19
2023-08-08T06:00	7186	400	-29.6	-33.3	279	19
2023-08-08T06:00	7218	398	-29.8	-33.5	279	18
2023-08-08T06:00	7246	396	-30.0	-33.4	280	18
2023-08-08T06:00	7273	395	-30.2	-33.6	279	18
2023-08-08T06:00	7300	393	-30.4	-33.6	279	18
2023-08-08T06:00	7336	392	-30.7	-33.6	278	17
2023-08-08T06:00	7358	390	-30.9	-33.7	277	17
2023-08-08T06:00	7374	389	-31.1	-34.5	278	17
2023-08-08T06:00	7397	388	-31.2	-34.5	278	17
2023-08-08T06:00	7419	387	-31.4	-34.6	279	17
2023-08-08T06:00	7440	386	-31.6	-34.7	280	17
2023-08-08T06:00	7462	385	-31.8	-34.8	281	17
2023-08-08T06:00	7484	383	-32.0	-34.9	281	17
2023-08-08T06:00	7507	382	-32.2	-35.1	281	17
2023-08-08T06:00	7528	381	-32.4	-35.3	281	17
2023-08-08T06:00	7551	380	-32.7	-35.4	281	17
2023-08-08T06:00	7574	379	-32.9	-35.5	281	17
2023-08-08T06:00	7596	377	-33.1	-35.6	282	17
2023-08-08T06:00	7623	376	-33.4	-35.7	282	17
2023-08-08T06:00	7650	375	-33.6	-36.1	282	17
2023-08-08T06:00	7672	373	-33.8	-36.5	282	17
2023-08-08T06:00	7691	372	-34.0	-36.3	282	17
2023-08-08T06:00	7714	371	-34.1	-37.9	282	17
2023-08-08T06:00	7739	370	-34.3	-38.0	282	17
2023-08-08T06:00	7767	368	-34.5	-38.3	282	17
2023-08-08T06:00	7793	367	-34.7	-38.7	282	17
2023-08-08T06:00	7825	365	-35.0	-38.9	282	17
2023-08-08T06:00	7852	364	-35.2	-39.0	281	17
2023-08-08T06:00	7872	363	-35.4	-39.2	279	17
2023-08-08T06:00	7894	361	-35.6	-39.1	278	16
2023-08-08T06:00	7922	360	-35.8	-39.4	277	16
2023-08-08T06:00	7949	359	-36.0	-40.1	276	16
2023-08-08T06:00	7976	357	-36.2	-39.8	275	16
2023-08-08T06:00	8001	356	-36.5	-39.8	274	16
2023-08-08T06:00	8027	355	-36.7		273	16
2023-08-08T06:00	8054	353	-36.9	-40.2	271	16
2023-08-08T06:00	8080	352	-37.1	-40.0	270	17
2023-08-08T06:00	8106	351	-37.3	-42.3	269	17
2023-08-08T06:00	8139	349	-37.4	-42.3	268	18
2023-08-08T06:00	8165	348	-37.7	-41.7	267	18
2023-08-08T06:00	8187	347	-37.9	-41.9	267	18
2023-08-08T06:00	8209	345	-38.1	-41.9	266	18
2023-08-08T06:00	8236	344	-38.4	-42.0	267	18
2023-08-08T06:00	8267	343	-38.6	-42.7	267	18
2023-08-08T06:00	8297	341	-38.9	-43.0	268	18
2023-08-08T06:00	8324	340	-39.1	-43.4	268	18
2023-08-08T06:00	8352	338	-39.4	-43.0	268	18
2023-08-08T06:00	8382	337	-39.7	-43.4	268	18
2023-08-08T06:00	8411	336	-39.9	-44.7	268	18
2023-08-08T06:00	8436	334	-40.1	-45.5	268	18
2023-08-08T06:00	8463	333	-40.4	-45.7	267	18
2023-08-08T06:00	8485	332	-40.6	-45.9	266	17
2023-08-08T06:00	8509	331	-40.8	-45.7	265	17
2023-08-08T06:00	8532	330	-41.0	-45.6	265	17
2023-08-08T06:00	8554	328	-41.2	-45.7	264	17
2023-08-08T06:00	8576	327	-41.4	-45.3	264	17
2023-08-08T06:00	8597	326	-41.6	-45.3	264	17
2023-08-08T06:00	8617	325	-41.8	-45.6	264	17
2023-08-08T06:00	8639	324	-42.0	-45.9	264	17
2023-08-08T06:00	8661	323	-42.2	-46.2	263	17
2023-08-08T06:00	8682	322	-42.4	-46.7	263	17
2023-08-08T06:00	8702	321	-42.6	-46.1	263	17
2023-08-08T06:00	8722	320	-42.8	-46.1	263	17
2023-08-08T06:00	8744	319	-43.0	-46.3	263	17
2023-08-08T06:00	8764	318	-43.2	-46.7	263	17
2023-08-08T06:00	8782	318	-43.4	-47.3	263	17
2023-08-08T06:00	8804	317	-43.5	-47.6	263	17
2023-08-08T06:00	8824	316	-43.7	-47.9	263	16
2023-08-08T06:00	8845	315	-43.9	-48.1	262	16
2023-08-08T06:00	8867	314	-44.0	-49.0	261	16
2023-08-08T06:00	8888	313	-43.9	-52.4	260	16
2023-08-08T06:00	8909	312	-43.6	-57.9	258	16
2023-08-08T06:00	8930	311	-43.4	-58.4	257	16
2023-08-08T06:00	8954	310	-43.6	-56.4	255	16
2023-08-08T06:00	8979	308	-43.7	-56.0	255	16
2023-08-08T06:00	9002	307	-43.9	-55.7	255	16
2023-08-08T06:00	9025	306	-44.1	-56.0	255	16
2023-08-08T06:00	9051	305	-44.3	-56.6	255	17
2023-08-08T06:00	9074	304	-44.4	-56.3	255	17
2023-08-08T06:00	9098	303	-44.7	-56.4	255	17
2023-08-08T06:00	9127	302	-45.0	-56.5	253	17
2023-08-08T06:00	9156	300	-45.2	-56.4	252	17
2023-08-08T06:00	9176	299	-45.5	-56.5	251	18
2023-08-08T06:00	9199	298	-45.6	-56.6	251	18
2023-08-08T06:00	9220	298	-45.8		252	19
2023-08-08T06:00	9242	297	-45.9	-57.7	253	19
2023-08-08T06:00	9266	295	-45.8	-59.0	254	20
2023-08-08T06:00	9298	294	-45.9	-58.9	255	20
2023-08-08T06:00	9316	293	-46.0	-59.1	255	20
2023-08-08T06:00	9338	292	-46.0	-59.7	256	20
2023-08-08T06:00	9359	291	-46.0	-59.4	257	20
2023-08-08T06:00	9379	290	-46.2	-59.2	257	20
2023-08-08T06:00	9402	289	-46.4	-59.4	258	20
2023-08-08T06:00	9423	289	-46.6	-59.5	259	20
2023-08-08T06:00	9447	288	-46.8	-59.4	260	20
2023-08-08T06:00	9467	287	-47.0	-59.4	260	20
2023-08-08T06:00	9491	286	-47.1	-60.0	261	20
2023-08-08T06:00	9512	285	-47.3	-60.6	261	20
2023-08-08T06:00	9533	284	-47.5	-60.7	261	19
2023-08-08T06:00	9554	283	-47.6	-60.8	262	19
2023-08-08T06:00	9575	282	-47.7	-60.8	262	19
2023-08-08T06:00	9598	281	-47.8	-60.9	263	18
2023-08-08T06:00	9617	280	-47.9	-61.1	263	18
2023-08-08T06:00	9639	279	-48.0	-61.1	264	17
2023-08-08T06:00	9660	278	-48.2	-61.2	264	17
2023-08-08T06:00	9680	278	-48.2	-61.3	263	16
2023-08-08T06:00	9704	276	-48.3	-61.7	262	16
2023-08-08T06:00	9738	275	-48.4	-61.3	261	16
2023-08-08T06:00	9758	274	-48.6	-61.4	260	16
2023-08-08T06:00	9779	273	-48.7	-61.5	259	16
2023-08-08T06:00	9800	273	-48.9	-61.4	259	16
2023-08-08T06:00	9821	272	-49.1	-61.2	259	17
2023-08-08T06:00	9840	271	-49.2	-61.2	260	17
2023-08-08T06:00	9861	270	-49.3	-61.4	261	17
2023-08-08T06:00	9882	269	-49.4	-61.6	261	17
2023-08-08T06:00	9902	268	-49.5	-61.7	262	17
2023-08-08T06:00	9920	268	-49.7	-61.7	262	18
2023-08-08T06:00	9939	267	-49.6	-61.7	262	18
2023-08-08T06:00	9961	266	-49.6	-61.8	263	18
2023-08-08T06:00	9982	265	-49.7	-62.0	264	18
2023-08-08T06:00	10001	264	-49.6	-62.3	265	18
2023-08-08T06:00	10025	263	-49.2	-63.1	267	17
2023-08-08T06:00	10045	262	-48.2	-63.7	268	17
2023-08-08T06:00	10067	262	-47.8	-64.4	268	17
2023-08-08T06:00	10092	261	-47.0	-64.6	268	16
2023-08-08T06:00	10111	260	-47.1	-64.8	268	16
2023-08-08T06:00	10133	259	-47.3	-65.0	268	16
2023-08-08T06:00	10156	258	-47.2	-65.6	267	16
2023-08-08T06:00	10176	257	-47.1	-67.3	267	17
2023-08-08T06:00	10195	257	-46.5	-69.2	267	17
2023-08-08T06:00	10218	256	-46.3	-69.5	268	17
2023-08-08T06:00	10237	255	-46.2	-69.5	269	18
2023-08-08T06:00	10259	254	-46.0	-69.4	269	18
2023-08-08T06:00	10280	253	-45.9	-69.1	270	18
2023-08-08T06:00	10301	253	-45.9	-69.4	272	18
2023-08-08T06:00	10325	252	-46.1	-69.3	273	17
2023-08-08T06:00	10349	251	-46.1	-68.9	275	17
2023-08-08T06:00	10368	250	-46.0	-69.1	277	16
2023-08-08T06:00	10390	249	-45.7	-69.8	279	16
2023-08-08T06:00	10414	248	-45.3	-70.1	280	16
2023-08-08T06:00	10435	248	-45.1	-69.6	282	16
2023-08-08T06:00	10457	247	-44.8	-69.9	283	15
2023-08-08T06:00	10477	246	-44.7	-70.4	284	15
2023-08-08T06:00	10500	245	-44.6	-71.2	286	15
2023-08-08T06:00	10526	244	-44.5	-72.4	288	14
2023-08-08T06:00	10551	243	-44.3	-73.1	290	13
2023-08-08T06:00	10578	242	-44.2	-73.0	291	12
2023-08-08T06:00	10603	241	-44.1	-72.1	291	12
2023-08-08T06:00	10624	241	-43.6	-70.4	291	11
2023-08-08T06:00	10645	240	-43.7	-70.0	289	11
2023-08-08T06:00	10667	239	-43.8	-70.3	287	10
2023-08-08T06:00	10687	238	-43.8	-71.0	285	10
2023-08-08T06:00	10708	238	-43.4	-71.5	283	10
2023-08-08T06:00	10728	237	-43.2	-71.9	282	9
2023-08-08T06:00	10749	236	-43.0	-71.8	280	9
2023-08-08T06:00	10771	235	-42.9	-71.4	278	8
2023-08-08T06:00	10795	235	-42.9	-70.9	276	8
2023-08-08T06:00	10817	234	-43.1	-70.8	274	8
2023-08-08T06:00	10836	233	-43.2	-70.6	273	8
2023-08-08T06:00	10857	232	-43.4	-70.7	273	8
2023-08-08T06:00	10878	232	-43.5	-70.8	273	9
2023-08-08T06:00	10899	231	-43.4	-71.0	274	9
2023-08-08T06:00	10919	230	-43.4	-71.0	275	10
2023-08-08T06:00	10938	230	-43.4	-71.2	275	10
2023-08-08T06:00	10960	229	-43.4	-71.2	275	10
2023-08-08T06:00	10982	228	-43.4	-71.5	276	10
2023-08-08T06:00	11003	227	-43.4	-71.8	277	11
2023-08-08T06:00	11026	227	-43.3	-72.0	278	11
2023-08-08T06:00	11047	226	-43.2	-72.9	278	11
2023-08-08T06:00	11068	225	-43.0	-73.5	278	11
2023-08-08T06:00	11089	225	-42.5	-74.4	278	11
2023-08-08T06:00	11112	224	-42.1	-74.5	278	11
2023-08-08T06:00	11135	223	-42.1	-75.0	278	11
2023-08-08T06:00	11158	222	-42.1	-74.5	279	11
2023-08-08T06:00	11179	222	-42.2	-74.6	281	12
2023-08-08T06:00	11205	221	-42.3	-74.7	282	12
2023-08-08T06:00	11228	220	-42.4	-74.8	282	12
2023-08-08T06:00	11249	219	-42.5	-74.8	282	12
2023-08-08T06:00	11276	218	-42.6	-75.4	281	12
2023-08-08T06:00	11304	218	-42.5	-75.3	278	11
2023-08-08T06:00	11328	217	-42.5	-75.3	276	11
2023-08-08T06:00	11351	216	-42.6	-75.4	274	11
2023-08-08T06:00	11377	215	-42.5	-75.3	272	11
2023-08-08T06:00	11399	214	-42.5	-75.3	271	10
2023-08-08T06:00	11423	214	-42.5	-75.3	272	10
2023-08-08T06:00	11445	213	-42.4	-75.3	273	10
2023-08-08T06:00	11467	212	-42.3	-75.8	274	10
2023-08-08T06:00	11490	212	-42.1	-75.6	275	9
2023-08-08T06:00	11511	211	-42.0	-75.5	276	9
2023-08-08T06:00	11536	210	-41.9	-75.5	276	9
2023-08-08T06:00	11557	210	-41.8	-75.4	275	9
2023-08-08T06:00	11577	209	-41.7	-75.3	273	9
2023-08-08T06:00	11599	208	-41.7	-75.9	271	9
2023-08-08T06:00	11622	208	-41.7	-75.9	270	8
2023-08-08T06:00	11644	207	-41.6	-75.8	269	8
2023-08-08T06:00	11667	206	-41.5	-75.8	268	8
2023-08-08T06:00	11688	206	-41.4	-75.7	268	8
2023-08-08T06:00	11708	205	-41.5	-75.8	269	8
2023-08-08T06:00	11728	204	-41.5	-75.8	270	8
2023-08-08T06:00	11750	204	-41.5	-75.8	271	8
2023-08-08T06:00	11769	203	-41.5	-75.8	273	8
2023-08-08T06:00	11790	203	-41.5	-75.8	275	9
2023-08-08T06:00	11809	202	-41.6	-75.8	276	9
2023-08-08T06:00	11830	201	-41.6	-75.8	277	9
2023-08-08T06:00	11850	201	-41.6	-75.8	278	9
2023-08-08T06:00	11870	200	-41.7	-75.9	278	9
2023-08-08T06:00	11891	199	-41.7	-75.9	277	8
2023-08-08T06:00	11913	199	-41.6	-75.8	276	8
2023-08-08T06:00	11932	198	-41.3	-76.3	274	7
2023-08-08T06:00	11952	198	-41.3	-75.6	271	7
2023-08-08T06:00	11973	197	-41.5	-75.8	267	7
2023-08-08T06:00	11995	196	-41.6	-75.8	261	6
2023-08-08T06:00	12014	196	-41.8	-76.0	255	6
2023-08-08T06:00	12035	195	-42.0	-76.1	251	6
2023-08-08T06:00	12053	195	-42.0	-76.1	249	6
2023-08-08T06:00	12073	194	-42.0	-76.1	250	7
2023-08-08T06:00	12092	194	-42.0	-76.1	253	7
2023-08-08T06:00	12110	193	-41.8	-76.0	257	7
2023-08-08T06:00	12129	193	-41.7	-75.9	259	7
2023-08-08T06:00	12150	192	-41.6	-75.8	260	7
2023-08-08T06:00	12169	191	-41.5	-75.8	259	7
2023-08-08T06:00	12187	191	-41.5	-75.8	257	6
2023-08-08T06:00	12207	190	-41.5	-75.8	254	6
2023-08-08T06:00	12227	190	-41.5	-75.8	252	6
2023-08-08T06:00	12247	189	-41.5	-76.4	250	5
2023-08-08T06:00	12267	189	-41.4	-76.4	249	5
2023-08-08T06:00	12294	188	-41.3	-76.3	247	5
2023-08-08T06:00	12318	187	-41.4	-76.4	244	4
2023-08-08T06:00	12345	187	-41.6	-76.5	242	4
2023-08-08T06:00	12368	186	-41.9	-76.1	240	4
2023-08-08T06:00	12389	185	-42.0	-76.1	241	4
2023-08-08T06:00	12410	185	-42.1	-76.2	242	3
2023-08-08T06:00	12433	184	-42.3	-76.4	244	3
2023-08-08T06:00	12455	184	-42.2	-76.3	246	3
2023-08-08T06:00	12477	183	-42.2	-76.3	244	3
2023-08-08T06:00	12498	182	-42.2	-76.3	240	3
2023-08-08T06:00	12520	182	-42.4	-76.4	234	3
2023-08-08T06:00	12545	181	-42.5	-76.5	228	3
2023-08-08T06:00	12567	181	-42.3	-76.4	223	3
2023-08-08T06:00	12591	180	-42.4	-76.4	221	4
2023-08-08T06:00	12611	179	-42.4	-77.1	222	4
2023-08-08T06:00	12634	179	-42.2	-76.9	224	4
2023-08-08T06:00	12654	178	-42.1	-76.9	227	4
2023-08-08T06:00	12678	178	-42.2	-76.9	229	4
2023-08-08T06:00	12701	177	-42.3	-77.0	229	4
2023-08-08T06:00	12724	176	-42.0	-76.8	227	4
2023-08-08T06:00	12745	176	-41.8	-76.7	223	4
2023-08-08T06:00	12769	175	-41.9	-76.7	219	4
2023-08-08T06:00	12793	175	-41.8	-76.7	215	4
2023-08-08T06:00	12814	174	-41.8	-76.7	211	5
2023-08-08T06:00	12837	173	-41.8	-76.7	208	5
2023-08-08T06:00	12861	173	-41.8	-76.7	206	5
2023-08-08T06:00	12885	172	-41.8	-76.7	206	6
2023-08-08T06:00	12908	172	-41.8	-76.7	207	6
2023-08-08T06:00	12932	171	-41.9	-76.7	208	6
2023-08-08T06:00	12956	170	-42.0	-76.8	210	6
2023-08-08T06:00	12981	170	-42.1	-76.9	213	7
2023-08-08T06:00	13004	169	-42.1	-76.9	215	7
2023-08-08T06:00	13030	169	-42.1	-76.9	218	6
2023-08-08T06:00	13053	168	-42.2	-76.9	221	6
2023-08-08T06:00	13075	167	-42.2	-76.9	223	6
2023-08-08T06:00	13098	167	-42.1	-76.9	227	6
2023-08-08T06:00	13119	166	-42.1	-76.9	230	5
2023-08-08T06:00	13142	166	-42.2	-76.9	233	5
2023-08-08T06:00	13163	165	-42.2	-76.9	236	5
2023-08-08T06:00	13186	165	-42.3	-77.0	237	5
2023-08-08T06:00	13208	164	-42.4	-77.1	237	5
2023-08-08T06:00	13231	164	-42.5	-77.2	237	5
2023-08-08T06:00	13253	163	-42.5	-77.2	237	4
2023-08-08T06:00	13273	163	-42.5	-77.2	237	4
2023-08-08T06:00	13296	162	-42.5	-77.2	238	4
2023-08-08T06:00	13320	162	-42.6	-77.2	240	3
2023-08-08T06:00	13342	161	-42.7	-77.3	243	3
2023-08-08T06:00	13363	161	-42.6	-77.2	246	3
2023-08-08T06:00	13383	160	-42.4	-77.1	249	2
2023-08-08T06:00	13407	159	-42.4	-77.1	251	2
2023-08-08T06:00	13429	159	-42.4	-77.1	252	2
2023-08-08T06:00	13451	158	-42.5	-77.2	251	2
2023-08-08T06:00	13472	158	-42.7	-77.3	249	2
2023-08-08T06:00	13495	157	-42.9	-77.5	247	2
2023-08-08T06:00	13515	157	-42.8	-77.4	243	2
2023-08-08T06:00	13534	156	-42.9	-77.5	238	3
2023-08-08T06:00	13556	156	-43.0	-77.5	233	3
2023-08-08T06:00	13577	156	-42.9	-77.5	228	3
2023-08-08T06:00	13597	155	-43.0	-77.5	224	4
2023-08-08T06:00	13618	155	-43.1	-77.6	222	4
2023-08-08T06:00	13639	154	-42.9	-77.5	221	4
2023-08-08T06:00	13660	154	-42.5	-77.9	222	4
2023-08-08T06:00	13683	153	-42.4	-77.8	223	4
2023-08-08T06:00	13705	153	-42.3	-77.8	223	4
2023-08-08T06:00	13726	152	-42.2	-77.7	222	4
2023-08-08T06:00	13746	152	-42.1	-77.6	219	4
2023-08-08T06:00	13767	151	-41.9	-77.5	215	4
2023-08-08T06:00	13789	151	-41.9	-77.5	210	3
2023-08-08T06:00	13812	150	-42.1	-77.6	206	4
2023-08-08T06:00	13833	150	-42.3	-77.8	202	4
2023-08-08T06:00	13857	149	-42.5	-77.9	199	4
2023-08-08T06:00	13879	149	-42.4	-77.8	197	4
2023-08-08T06:00	13901	148	-42.4	-77.1	193	4
2023-08-08T06:00	13926	148	-42.5	-77.2	189	4
2023-08-08T06:00	13948	147	-42.7	-77.3	184	4
2023-08-08T06:00	13969	147	-42.7	-77.3	179	4
2023-08-08T06:00	13993	146	-42.7	-77.3	175	4
2023-08-08T06:00	14012	146	-42.8	-77.4	173	4
2023-08-08T06:00	14038	145	-43.0	-77.5	171	4
2023-08-08T06:00	14060	145	-43.1	-77.6	170	5
2023-08-08T06:00	14084	144	-43.3	-77.7	168	5
2023-08-08T06:00	14110	144	-43.4	-77.8	167	5
2023-08-08T06:00	14132	143	-43.4	-77.8	166	6
2023-08-08T06:00	14156	143	-43.4	-77.8	165	6
2023-08-08T06:00	14181	142	-43.1	-77.6	165	7
2023-08-08T06:00	14204	142	-43.0	-77.5	163	7
2023-08-08T06:00	14228	141	-43.1	-77.6	161	7
2023-08-08T06:00	14254	141	-43.3	-77.7	157	7
2023-08-08T06:00	14278	140	-43.4	-77.8	153	7
2023-08-08T06:00	14303	140	-43.5	-77.9	148	7
2023-08-08T06:00	14328	139	-43.6	-78.0	143	7
2023-08-08T06:00	14358	139	-43.8	-78.1	139	7
2023-08-08T06:00	14386	138	-44.0	-77.6	135	7
2023-08-08T06:00	14411	137	-44.3	-77.8	132	8
2023-08-08T06:00	14440	137	-44.4	-77.9	130	8
2023-08-08T06:00	14463	136	-44.7	-78.1	130	8
2023-08-08T06:00	14489	136	-44.9	-78.3	130	9
2023-08-08T06:00	14513	135	-45.2	-78.5	131	9
2023-08-08T06:00	14536	135	-45.3	-78.5	132	10
2023-08-08T06:00	14559	134	-45.4	-78.6	134	10
2023-08-08T06:00	14586	134	-45.3	-78.5	135	10
2023-08-08T06:00	14610	133	-45.3	-78.5	135	10
2023-08-08T06:00	14634	133	-45.3	-78.5	136	10
2023-08-08T06:00	14657	132	-45.4	-78.6	135	10
2023-08-08T06:00	14680	132	-45.1	-78.4	135	10
2023-08-08T06:00	14704	131	-45.2	-78.5	134	9
2023-08-08T06:00	14727	131	-45.3	-78.5	135	9
2023-08-08T06:00	14753	131	-45.5	-78.7	137	9
2023-08-08T06:00	14778	130	-45.6	-78.8	140	8
2023-08-08T06:00	14801	130	-45.8	-78.9	144	8
2023-08-08T06:00	14828	129	-46.0	-79.1	148	8
2023-08-08T06:00	14853	129	-46.2	-79.2	151	8
2023-08-08T06:00	14874	128	-46.3	-78.7	154	7
2023-08-08T06:00	14901	128	-46.5	-79.4	155	7
2023-08-08T06:00	14925	127	-46.4	-79.3	154	7
2023-08-08T06:00	14949	127	-45.9	-79.0	151	7
2023-08-08T06:00	14974	126	-45.6		147	7
2023-08-08T06:00	15001	126	-45.6		144	7
2023-08-08T06:00	15022	125	-45.8	-78.9	142	7
2023-08-08T06:00	15050	125	-45.9	-79.0	141	8
2023-08-08T06:00	15073	124	-46.1	-79.1	141	8
2023-08-08T06:00	15096	124	-46.4	-79.3	142	8
2023-08-08T06:00	15118	124	-46.6	-79.5	143	7
2023-08-08T06:00	15143	123	-46.7	-79.6	145	7
2023-08-08T06:00	15166	123	-46.7	-79.6	148	7
2023-08-08T06:00	15188	122	-46.7	-79.6	150	6
2023-08-08T06:00	15208	122	-46.8	-79.6	152	6
2023-08-08T06:00	15233	121	-46.6	-79.5	154	6
2023-08-08T06:00	15254	121	-46.4	-79.3	156	5
2023-08-08T06:00	15278	121	-46.3	-79.3	158	5
2023-08-08T06:00	15298	120	-46.4	-80.0	162	5
2023-08-08T06:00	15321	120	-46.3	-79.9	165	5
2023-08-08T06:00	15341	119	-46.3	-79.9	169	6
2023-08-08T06:00	15365	119	-46.2	-79.8	172	6
2023-08-08T06:00	15389	119	-46.0	-79.7	174	6
2023-08-08T06:00	15410	118	-46.1	-79.8	175	6
2023-08-08T06:00	15431	118	-46.1	-79.8	174	6
2023-08-08T06:00	15454	117	-46.2	-79.8	172	6
2023-08-08T06:00	15476	117	-46.2	-79.8	170	6
2023-08-08T06:00	15498	117	-46.4	-80.0	166	6
2023-08-08T06:00	15520	116	-46.4	-80.0	163	5
2023-08-08T06:00	15545	116	-46.5	-80.1	161	5
2023-08-08T06:00	15567	115	-46.7	-79.6	159	5
2023-08-08T06:00	15590	115	-46.8	-79.6	159	5
2023-08-08T06:00	15612	115	-47.0	-79.8	159	5
2023-08-08T06:00	15634	114	-47.1	-79.9	159	5
2023-08-08T06:00	15657	114	-47.2	-79.9	159	5
2023-08-08T06:00	15680	114	-47.3	-80.0	160	5
2023-08-08T06:00	15704	113	-47.4	-80.1	161	5
2023-08-08T06:00	15728	113	-47.5	-80.2	163	5
2023-08-08T06:00	15750	112	-47.6	-80.2	166	5
2023-08-08T06:00	15772	112	-47.7	-80.3	169	5
2023-08-08T06:00	15795	112	-47.8	-80.4	171	5
2023-08-08T06:00	15818	111	-48.0	-80.5	172	6
2023-08-08T06:00	15840	111	-48.1	-80.6	172	6
2023-08-08T06:00	15860	110	-48.2	-80.7	171	6
2023-08-08T06:00	15884	110	-48.2	-80.7	170	6
2023-08-08T06:00	15906	110	-48.2	-80.7	168	6
2023-08-08T06:00	15934	109	-48.4	-80.8	166	6
2023-08-08T06:00	15954	109	-48.5	-80.9	164	6
2023-08-08T06:00	15978	109	-48.6	-80.4	163	5
2023-08-08T06:00	16000	108	-48.7	-80.5	162	5
2023-08-08T06:00	16023	108	-48.8	-80.5	162	5
2023-08-08T06:00	16049	107	-48.9	-80.6	162	5
2023-08-08T06:00	16071	107	-49.1	-80.8	161	6
2023-08-08T06:00	16095	107	-49.3	-80.9	159	6
2023-08-08T06:00	16118	106	-49.4	-81.0	155	6
2023-08-08T06:00	16143	106	-49.6	-81.1	150	6
2023-08-08T06:00	16169	105	-49.7	-81.2	145	7
2023-08-08T06:00	16192	105	-49.9	-81.3	141	7
2023-08-08T06:00	16214	105	-49.7	-81.8	138	7
2023-08-08T06:00	16239	104	-49.2	-81.4	137	8
2023-08-08T06:00	16264	104	-49.3	-81.5	138	8
2023-08-08T06:00	16288	104	-49.4	-81.0	138	8
2023-08-08T06:00	16312	103	-49.6	-81.1	139	8
2023-08-08T06:00	16334	103	-49.8	-81.3	140	8
2023-08-08T06:00	16360	102	-50.1	-81.5	142	8
2023-08-08T06:00	16383	102	-50.3	-81.6	143	8
2023-08-08T06:00	16409	102	-50.5	-81.3	145	8
2023-08-08T06:00	16435	101	-50.7	-81.4	147	8
2023-08-08T06:00	16459	101	-50.9	-81.6	149	8
2023-08-08T06:00	16485	100	-51.2	-81.8	152	8
2023-08-08T06:00	16507	100	-51.2	-81.8	156	8
2023-08-08T06:00	16532	100	-51.0	-82.2	161	7
2023-08-08T06:00	16557	99	-50.9	-82.1	166	7
2023-08-08T06:00	16584	99	-50.9	-82.1	172	6
2023-08-08T06:00	16603	99	-50.8	-82.0	178	6
2023-08-08T06:00	16627	98	-50.8	-82.0	184	6
2023-08-08T06:00	16650	98	-50.6	-81.9	189	6
2023-08-08T06:00	16676	98	-50.7		192	6
2023-08-08T06:00	16698	97	-50.9	-82.1	195	5
2023-08-08T06:00	16725	97	-51.0	-82.2	196	5
2023-08-08T06:00	16743	97	-50.8	-82.0	196	4
2023-08-08T06:00	16769	96	-50.7	-82.5	193	3
2023-08-08T06:00	16793	96	-50.5		185	3
2023-08-08T06:00	16816	95	-50.0	-82.0	169	2
2023-08-08T06:00	16839	95	-49.9	-81.9	149	2
2023-08-08T06:00	16862	95	-50.0	-82.0	132	2
2023-08-08T06:00	16884	94	-50.1	-82.1	123	2
2023-08-08T06:00	16909	94	-50.1	-82.1	118	2
2023-08-08T06:00	16931	94	-50.0	-82.0	116	3
2023-08-08T06:00	16953	93	-49.8	-81.8	116	3
2023-08-08T06:00	16975	93	-49.7	-81.8	117	3
2023-08-08T06:00	17001	93	-49.6	-81.7	118	4
2023-08-08T06:00	17027	92	-49.8	-81.8	119	4
2023-08-08T06:00	17050	92	-49.9	-81.9	121	5
2023-08-08T06:00	17073	92	-50.1	-82.1	122	5
2023-08-08T06:00	17094	91	-50.3	-82.2	124	6
2023-08-08T06:00	17119	91	-50.4	-81.7	126	6
2023-08-08T06:00	17142	91	-50.6	-81.9	129	6
2023-08-08T06:00	17165	90	-50.8	-82.0	133	6
2023-08-08T06:00	17189	90	-51.0	-82.2	138	6
2023-08-08T06:00	17211	90	-50.9	-82.1	143	6
2023-08-08T06:00	17235	90	-50.6	-81.9	147	6
2023-08-08T06:00	17257	89	-50.6	-82.4	152	5
2023-08-08T06:00	17283	89	-50.6	-82.4	155	5
2023-08-08T06:00	17306	89	-50.7	-82.5	156	4
2023-08-08T06:00	17328	88	-50.6	-82.4	157	3
2023-08-08T06:00	17353	88	-50.5		155	3
2023-08-08T06:00	17377	88	-50.5		150	2
2023-08-08T06:00	17399	87	-50.5		142	2
2023-08-08T06:00	17424	87	-50.5		129	1
2023-08-08T06:00	17446	87	-50.6	-82.4	117	1
2023-08-08T06:00	17469	86	-50.7	-82.5	109	1
2023-08-08T06:00	17493	86	-50.8	-82.6	108	2
2023-08-08T06:00	17517	86	-50.8	-82.6	110	2
2023-08-08T06:00	17543	85	-50.7	-82.5	110	2
2023-08-08T06:00	17564	85	-50.7	-82.5	108	2
2023-08-08T06:00	17587	85	-50.8	-82.6	101	2
2023-08-08T06:00	17612	84	-50.8	-82.6	92	2
2023-08-08T06:00	17636	84	-50.7	-82.5	79	2
2023-08-08T06:00	17661	84	-50.6	-82.4	68	2
2023-08-08T06:00	17682	84	-50.3	-82.2	62	2
2023-08-08T06:00	17708	83	-50.1	-82.7	64	2
2023-08-08T06:00	17734	83	-49.9	-82.5	71	3
2023-08-08T06:00	17761	83	-49.6	-82.3	79	3
2023-08-08T06:00	17787	82	-49.4	-82.2	84	4
2023-08-08T06:00	17813	82	-49.5	-82.3	87	5
2023-08-08T06:00	17842	82	-49.6	-82.3	89	5
2023-08-08T06:00	17867	81	-49.8	-81.8	91	6
2023-08-08T06:00	17892	81	-50.0	-82.0	93	6
2023-08-08T06:00	17920	81	-50.3	-82.2	96	7
2023-08-08T06:00	17946	80	-50.5		100	7
2023-08-08T06:00	17973	80	-50.7	-82.5	105	7
2023-08-08T06:00	17999	80	-50.8	-82.0	109	7
2023-08-08T06:00	18026	79	-50.8	-82.0	113	7
2023-08-08T06:00	18049	79	-50.9	-82.1	116	7
2023-08-08T06:00	18075	79	-50.9	-82.1	120	7
2023-08-08T06:00	18099	78	-51.1	-82.2	124	6
2023-08-08T06:00	18127	78	-51.2	-82.3	129	6
2023-08-08T06:00	18156	78	-51.3	-82.4	134	6
2023-08-08T06:00	18178	77	-51.5	-82.5	140	6
2023-08-08T06:00	18205	77	-51.7	-82.7	147	6
2023-08-08T06:00	18231	77	-51.7	-82.7	154	6
2023-08-08T06:00	18256	77	-51.7	-82.7	162	6
2023-08-08T06:00	18280	76	-51.8	-82.8	170	6
2023-08-08T06:00	18309	76	-51.9	-82.8	177	6
2023-08-08T06:00	18333	76	-51.7	-82.7	184	6
2023-08-08T06:00	18363	75	-51.7	-82.7	189	6
2023-08-08T06:00	18387	75	-51.8	-82.8	193	6
2023-08-08T06:00	18410	75	-52.0	-82.9	197	6
2023-08-08T06:00	18436	74	-52.0	-82.9	201	6
2023-08-08T06:00	18462	74	-52.1	-83.0	205	6
2023-08-08T06:00	18488	74	-52.0	-82.9	209	5
2023-08-08T06:00	18511	74	-51.8	-83.3	213	5
2023-08-08T06:00	18537	73	-51.7	-83.2	215	5
2023-08-08T06:00	18562	73	-51.8	-83.3	217	5
2023-08-08T06:00	18588	73	-51.7	-83.2	219	5
2023-08-08T06:00	18610	72	-51.8	-83.3	221	5
2023-08-08T06:00	18637	72	-51.7	-83.2	224	5
2023-08-08T06:00	18660	72	-51.8	-83.3	229	4
2023-08-08T06:00	18686	72	-51.7	-83.2	237	4
2023-08-08T06:00	18713	71	-51.5	-83.1	249	4
2023-08-08T06:00	18734	71	-51.6	-83.2	262	3
2023-08-08T06:00	18758	71	-51.7	-83.2	275	3
2023-08-08T06:00	18783	71	-51.7	-83.2	285	4
2023-08-08T06:00	18809	70	-51.5	-83.1	292	4
2023-08-08T06:00	18829	70	-51.5	-83.1	297	4
2023-08-08T06:00	18856	70	-51.4	-83.0	301	4
2023-08-08T06:00	18879	70	-51.4	-83.0	303	4
2023-08-08T06:00	18903	69	-51.3	-82.9	307	4
2023-08-08T06:00	18928	69	-51.0	-82.7	310	3
2023-08-08T06:00	18949	69	-50.9	-82.7	316	3
2023-08-08T06:00	18975	69	-51.0	-82.7	325	2
2023-08-08T06:00	18998	68	-51.2	-82.9	337	2
2023-08-08T06:00	19021	68	-51.3	-82.9	353	2
2023-08-08T06:00	19045	68	-51.4	-83.0	5	2
2023-08-08T06:00	19071	68	-51.5	-83.1	13	3
2023-08-08T06:00	19094	67	-51.5	-83.1	18	4
2023-08-08T06:00	19118	67	-51.5	-83.1	20	4
2023-08-08T06:00	19141	67	-51.6	-83.2	22	5
2023-08-08T06:00	19168	66	-51.6	-83.2	24	5
2023-08-08T06:00	19195	66	-51.5	-83.1	27	6
2023-08-08T06:00	19219	66	-51.6	-83.2	31	6
2023-08-08T06:00	19245	66	-51.8	-82.8	35	6
2023-08-08T06:00	19270	65	-51.9	-82.8	40	7
2023-08-08T06:00	19294	65	-52.1	-83.0	45	7
2023-08-08T06:00	19320	65	-52.3	-83.1	50	8
2023-08-08T06:00	19353	65	-52.4	-83.2	56	8
2023-08-08T06:00	19378	64	-52.4	-83.2	61	8
2023-08-08T06:00	19405	64	-52.5	-83.3	67	9
2023-08-08T06:00	19432	64	-52.7	-83.4	72	9
2023-08-08T06:00	19459	64	-52.8	-83.5	77	9
2023-08-08T06:00	19485	63	-53.0	-83.6	82	9
2023-08-08T06:00	19513	63	-53.0	-83.6	85	9
2023-08-08T06:00	19538	63	-52.8	-83.5	87	8
2023-08-08T06:00	19566	63	-52.6	-83.3	88	7
2023-08-08T06:00	19598	62	-52.5	-83.3	89	7
2023-08-08T06:00	19625	62	-52.6	-83.3	89	6
2023-08-08T06:00	19653	62	-52.7	-83.4	89	5
2023-08-08T06:00	19680	61	-52.8	-83.5	88	4
2023-08-08T06:00	19707	61	-52.9	-83.6	87	3
2023-08-08T06:00	19734	61	-53.0	-83.6	87	2
2023-08-08T06:00	19764	61	-53.1	-83.7	89	2
2023-08-08T06:00	19789	60	-53.2	-83.8	102	1
2023-08-08T06:00	19815	60	-53.3	-83.9	189	0
2023-08-08T06:00	19846	60	-53.4	-83.9	240	1
2023-08-08T06:00	19872	60	-53.5	-84.0	254	1
2023-08-08T06:00	19903	59	-53.5	-84.0	267	1
2023-08-08T06:00	19930	59	-53.2	-83.8	286	1
2023-08-08T06:00	19956	59	-53.0	-83.6	314	1
2023-08-08T06:00	19984	59	-52.7	-84.0	348	2
2023-08-08T06:00	20014	58	-52.7	-84.0	13	2
2023-08-08T06:00	20039	58	-52.6	-83.9	29	3
2023-08-08T06:00	20066	58	-52.7	-84.0	40	4
2023-08-08T06:00	20093	58	-52.8	-83.5	48	5
2023-08-08T06:00	20125	57	-52.8	-83.5	56	6
2023-08-08T06:00	20152	57	-52.8	-83.5	62	6
2023-08-08T06:00	20180	57	-52.8	-83.5	69	7
2023-08-08T06:00	20205	57	-52.9	-83.6	74	7
2023-08-08T06:00	20235	56	-52.9	-83.6	79	7
2023-08-08T06:00	20264	56	-53.1	-83.7	83	7
2023-08-08T06:00	20291	56	-53.2	-83.3	87	8
2023-08-08T06:00	20319	56	-53.5	-83.5	90	8
2023-08-08T06:00	20347	55	-53.7	-83.7	94	8
2023-08-08T06:00	20372	55	-53.9	-83.8	98	9
2023-08-08T06:00	20396	55	-54.1	-84.0	101	9
2023-08-08T06:00	20423	55	-54.2	-84.0	104	9
2023-08-08T06:00	20448	55	-54.3	-84.1	105	10
2023-08-08T06:00	20474	54	-54.1	-84.0	106	10
2023-08-08T06:00	20502	54	-54.1	-84.0	105	10
2023-08-08T06:00	20523	54	-54.0	-84.4	104	10
2023-08-08T06:00	20550	54	-53.7	-84.2	101	10
2023-08-08T06:00	20574	53	-53.7	-84.2	98	9
2023-08-08T06:00	20597	53	-53.6	-84.1	96	9
2023-08-08T06:00	20621	53	-53.6	-84.1	95	9
2023-08-08T06:00	20648	53	-53.5	-84.0	95	9
2023-08-08T06:00	20668	53	-53.2	-84.4	95	9
2023-08-08T06:00	20694	52	-52.9	-84.1	96	9
2023-08-08T06:00	20717	52	-52.6	-83.9	97	9
2023-08-08T06:00	20742	52	-52.6	-83.9	100	9
2023-08-08T06:00	20766	52	-52.6	-83.9	102	9
2023-08-08T06:00	20788	52	-52.6	-83.9	105	9
2023-08-08T06:00	20814	52	-52.6	-83.9	107	10
2023-08-08T06:00	20834	51	-52.6	-83.3	108	10
2023-08-08T06:00	20859	51	-52.7	-83.4	107	10
2023-08-08T06:00	20880	51	-52.7	-83.4	106	10
2023-08-08T06:00	20906	51	-52.6	-83.3	104	10
2023-08-08T06:00	20932	51	-52.5	-83.8	103	10
2023-08-08T06:00	20952	50	-52.4	-83.8	101	10
2023-08-08T06:00	20977	50	-52.2	-83.6	101	10
2023-08-08T06:00	20998	50	-52.0	-83.5	100	9
2023-08-08T06:00	21025	50	-51.9	-83.4	101	9
2023-08-08T06:00	21052	50	-51.8	-83.3	102	9
2023-08-08T06:00	21075	49	-51.8	-83.3	102	8
2023-08-08T06:00	21100	49	-51.7	-83.2	103	8
2023-08-08T06:00	21127	49	-51.7	-83.2	104	8
2023-08-08T06:00	21147	49	-51.7	-83.2	105	8
2023-08-08T06:00	21176	49	-51.7	-83.2	105	8
2023-08-08T06:00	21200	49	-51.7	-83.2	105	7
2023-08-08T06:00	21227	48	-51.6	-83.2	103	7
2023-08-08T06:00	21254	48	-51.5	-83.1	102	7
2023-08-08T06:00	21278	48	-51.6	-83.2	102	7
2023-08-08T06:00	21302	48	-51.3	-82.9	102	7
2023-08-08T06:00	21332	48	-51.4	-83.0	104	7
2023-08-08T06:00	21355	47	-51.4	-83.0	107	7
2023-08-08T06:00	21382	47	-51.5	-83.1	110	7
2023-08-08T06:00	21411	47	-51.7	-83.2	112	6
2023-08-08T06:00	21435	47	-51.8	-83.3	112	6
2023-08-08T06:00	21466	47	-51.6	-83.2	110	6
2023-08-08T06:00	21492	46	-51.4	-83.0	106	6
2023-08-08T06:00	21519	46	-51.3	-82.9	103	6
2023-08-08T06:00	21549	46	-51.1	-83.4	101	7
2023-08-08T06:00	21573	46	-51.1	-83.4	100	7
2023-08-08T06:00	21604	46	-51.2	-83.5	100	8
2023-08-08T06:00	21631	45	-51.2	-83.5	101	8
2023-08-08T06:00	21661	45	-50.9	-83.3	102	8
2023-08-08T06:00	21686	45	-50.7	-83.1	104	7
2023-08-08T06:00	21716	45	-50.7	-83.1	107	7
2023-08-08T06:00	21744	45	-50.6	-83.1	111	7
2023-08-08T06:00	21772	44	-50.5	-83.0	115	6
2023-08-08T06:00	21801	44	-50.6	-83.1	121	6
2023-08-08T06:00	21828	44	-50.6	-83.1	126	6
2023-08-08T06:00	21856	44	-50.7	-83.1	129	6
2023-08-08T06:00	21887	44	-50.9	-82.7	129	6
2023-08-08T06:00	21915	43	-50.8	-82.6	127	5
2023-08-08T06:00	21945	43	-50.6	-82.4	121	5
2023-08-08T06:00	21968	43	-50.7	-82.5	112	5
2023-08-08T06:00	21994	43	-50.8	-82.6	102	5
2023-08-08T06:00	22024	43	-51.0	-82.7	92	5
2023-08-08T06:00	22051	43	-51.1	-82.8	84	6
2023-08-08T06:00	22083	42	-51.2	-82.9	78	6
2023-08-08T06:00	22110	42	-51.3	-82.9	75	7
2023-08-08T06:00	22135	42	-51.4	-83.0	74	7
2023-08-08T06:00	22163	42	-51.2	-82.9	76	8
2023-08-08T06:00	22191	42	-51.0	-82.7	79	8
2023-08-08T06:00	22222	42	-51.1	-82.8	82	9
2023-08-08T06:00	22245	41	-51.2	-82.9	85	10
2023-08-08T06:00	22278	41	-51.3	-82.9	88	10
2023-08-08T06:00	22304	41	-51.4	-83.0	91	11
2023-08-08T06:00	22335	41	-51.6	-82.6	92	12
2023-08-08T06:00	22357	41	-51.9	-82.8	94	12
2023-08-08T06:00	22386	40	-52.1	-83.0	95	13
2023-08-08T06:00	22409	40	-52.3	-83.1	96	13
2023-08-08T06:00	22443	40	-52.5	-83.3	96	14
2023-08-08T06:00	22467	40	-52.6	-83.3	98	14
2023-08-08T06:00	22494	40	-52.3	-83.1	99	13
2023-08-08T06:00	22519	40	-52.3	-83.1	99	12
2023-08-08T06:00	22548	39	-52.3	-83.1	100	12
2023-08-08T06:00	22577	39	-52.4	-83.2	100	11
2023-08-08T06:00	22600	39	-52.4	-83.2	101	10
2023-08-08T06:00	22630	39	-52.6	-83.3	101	10
2023-08-08T06:00	22658	39	-52.9	-83.6	102	9
2023-08-08T06:00	22682	39	-53.0	-83.6	104	9
2023-08-08T06:00	22708	38	-53.1	-83.7	105	8
2023-08-08T06:00	22734	38	-53.0	-83.6	106	8
2023-08-08T06:00	22764	38	-53.0	-83.6	106	8
2023-08-08T06:00	22787	38	-53.0	-83.6	106	8
2023-08-08T06:00	22810	38	-53.1	-83.7	106	8
2023-08-08T06:00	22841	38	-53.2	-83.8	105	8
2023-08-08T06:00	22866	38	-53.2	-83.8	105	8
2023-08-08T06:00	22893	37	-53.3	-83.9	105	8
2023-08-08T06:00	22922	37	-53.3	-83.9	104	8
2023-08-08T06:00	22950	37	-53.3	-83.9	103	8
2023-08-08T06:00	22976	37	-53.3	-83.9	101	8
2023-08-08T06:00	23005	37	-53.4	-83.9	98	7
2023-08-08T06:00	23025	37	-53.4	-83.9	95	7
2023-08-08T06:00	23058	36	-53.4	-83.9	93	7
2023-08-08T06:00	23088	36	-53.4	-83.9	93	7
2023-08-08T06:00	23121	36	-53.4	-83.9	94	7
2023-08-08T06:00	23140	36	-53.3	-83.9	97	8
2023-08-08T06:00	23171	36	-53.2	-83.8	99	8
2023-08-08T06:00	23200	36	-53.1	-83.7	102	9
2023-08-08T06:00	23229	36	-53.2	-83.8	104	9
2023-08-08T06:00	23254	35	-53.2	-83.8	105	9
2023-08-08T06:00	23285	35	-53.3	-83.9	106	9
2023-08-08T06:00	23316	35	-53.4	-83.9	106	9
2023-08-08T06:00	23344	35	-53.4	-83.9	106	9
2023-08-08T06:00	23374	35	-53.2	-83.8	105	8
2023-08-08T06:00	23397	35	-53.2	-83.8	102	7
2023-08-08T06:00	23430	34	-53.3	-83.9	99	7
2023-08-08T06:00	23461	34	-53.5	-84.0	96	6
2023-08-08T06:00	23484	34	-53.6	-84.1	94	6
2023-08-08T06:00	23514	34	-53.6	-84.1	94	6
2023-08-08T06:00	23549	34	-53.3	-83.9	95	6
2023-08-08T06:00	23576	34	-53.0	-83.6	99	6
2023-08-08T06:00	23604	34	-53.1	-83.7	102	6
2023-08-08T06:00	23633	33	-53.2	-83.8	104	6
2023-08-08T06:00	23663	33	-53.3	-83.9	104	6
2023-08-08T06:00	23689	33	-53.3	-83.9	103	6
2023-08-08T06:00	23717	33	-53.4	-84.5	101	5
2023-08-08T06:00	23744	33	-53.2	-84.4	96	5
2023-08-08T06:00	23774	33	-53.1	-84.3	88	5
2023-08-08T06:00	23798	32	-52.9	-84.1	81	5
2023-08-08T06:00	23830	32	-52.7	-84.0	76	5
2023-08-08T06:00	23857	32	-52.7	-84.0	74	6
2023-08-08T06:00	23889	32	-52.6	-83.9	75	7
2023-08-08T06:00	23916	32	-52.4	-83.8	77	7
2023-08-08T06:00	23942	32	-52.4	-83.8	79	8
2023-08-08T06:00	23970	32	-52.6	-83.9	80	8
2023-08-08T06:00	23996	32	-52.4	-83.8	80	8
2023-08-08T06:00	24025	31	-52.3	-83.7	80	8
2023-08-08T06:00	24053	31	-52.5	-83.8	81	9
2023-08-08T06:00	24080	31	-52.5	-83.8	81	9
2023-08-08T06:00	24107	31	-52.5	-83.8	83	9
2023-08-08T06:00	24139	31	-52.4	-83.8	85	10
2023-08-08T06:00	24161	31	-52.2	-83.6	88	10
2023-08-08T06:00	24189	31	-52.3	-83.7	92	10
2023-08-08T06:00	24217	30	-52.3	-83.7	95	10
2023-08-08T06:00	24243	30	-52.4	-83.8	98	11
2023-08-08T06:00	24271	30	-52.5	-83.8	101	11
2023-08-08T06:00	24298	30	-52.4	-83.8	104	11
2023-08-08T06:00	24323	30	-52.2	-83.6	107	11
2023-08-08T06:00	24349	30	-52.1	-83.5	109	11
2023-08-08T06:00	24378	30	-52.2	-83.6	110	11
2023-08-08T06:00	24405	30	-52.2	-83.6	111	11
2023-08-08T06:00	24434	29	-52.1	-83.5	110	11
2023-08-08T06:00	24458	29	-52.0	-83.5	108	10
2023-08-08T06:00	24485	29	-52.0	-83.5	106	10
2023-08-08T06:00	24509	29	-51.9	-84.0	105	9
2023-08-08T06:00	24535	29	-51.7	-83.9	105	9
2023-08-08T06:00	24561	29	-51.5	-83.7	107	8
2023-08-08T06:00	24592	29	-51.6	-83.8	111	7
2023-08-08T06:00	24609	29	-51.6	-83.8	113	7
2023-08-08T06:00	24644	29	-51.5	-83.7	114	6
2023-08-08T06:00	24668	28	-51.2	-83.5	112	6
2023-08-08T06:00	24700	28	-51.0	-83.3	107	6
2023-08-08T06:00	24724	28	-50.7	-83.1	101	6
2023-08-08T06:00	24749	28	-50.5	-83.0	94	6
2023-08-08T06:00	24779	28	-50.3	-82.8	88	6
2023-08-08T06:00	24804	28	-50.3	-82.8	83	7
2023-08-08T06:00	24830	28	-50.2	-82.8	78	7
2023-08-08T06:00	24855	28	-50.1	-82.7	73	8
2023-08-08T06:00	24889	27	-50.2	-82.8	70	8
2023-08-08T06:00	24911	27	-50.2	-82.8	67	9
2023-08-08T06:00	24937	27	-50.1	-82.7	66	10
2023-08-08T06:00	24970	27	-50.0	-82.6	65	10
2023-08-08T06:00	24992	27	-50.0	-82.6	66	11
2023-08-08T06:00	25023	27	-50.2	-82.8	67	11
2023-08-08T06:00	25057	27	-50.3	-82.8	69	12
2023-08-08T06:00	25075	27	-50.4	-82.9	71	12
2023-08-08T06:00	25111	27	-50.5	-83.0	73	13
2023-08-08T06:00	25138	26	-50.6	-83.1	74	13
2023-08-08T06:00	25171	26	-50.8	-83.2	76	13
2023-08-08T06:00	25201	26	-50.9	-83.3	77	13
2023-08-08T06:00	25230	26	-50.9	-83.3	79	13
2023-08-08T06:00	25261	26	-50.8	-83.2	80	12
2023-08-08T06:00	25298	26	-50.7	-83.1	82	12
2023-08-08T06:00	25323	26	-50.6	-83.1	84	11
2023-08-08T06:00	25359	26	-50.4	-82.9	86	11
2023-08-08T06:00	25388	25	-50.4	-82.9	88	12
2023-08-08T06:00	25421	25	-50.3	-82.8	90	12
2023-08-08T06:00	25451	25	-50.5	-83.0	91	12
2023-08-08T06:00	25475	25	-50.6	-83.1	92	12
2023-08-08T06:00	25509	25	-50.8	-83.2	93	13
2023-08-08T06:00	25542	25	-50.9	-83.3	92	13
2023-08-08T06:00	25568	25	-50.9	-83.3	92	13
2023-08-08T06:00	25601	25	-50.8	-83.2	92	13
2023-08-08T06:00	25632	25	-50.7	-83.1	93	13
2023-08-08T06:00	25670	24	-50.6	-83.1	93	13
2023-08-08T06:00	25694	24	-50.7	-83.1	94	12
2023-08-08T06:00	25725	24	-50.7	-83.1	95	12
2023-08-08T06:00	25757	24	-50.7	-83.1	96	12
2023-08-08T06:00	25783	24	-50.7	-83.1	98	11
2023-08-08T06:00	25811	24	-50.6	-83.1	100	11
2023-08-08T06:00	25843	24	-50.4	-82.9	102	11
2023-08-08T06:00	25872	24	-50.4	-82.9	104	11
2023-08-08T06:00	25899	24	-50.3	-82.8	104	11
2023-08-08T06:00	25925	23	-50.4	-82.9	103	11
2023-08-08T06:00	25957	23	-50.4	-82.9	101	11
2023-08-08T06:00	25984	23	-50.5	-83.0	99	11
2023-08-08T06:00	26009	23	-50.5	-83.0	97	11
2023-08-08T06:00	26038	23	-50.4	-82.9	96	11
2023-08-08T06:00	26062	23	-50.4	-82.9	96	11
2023-08-08T06:00	26095	23	-50.4	-82.9	97	11
2023-08-08T06:00	26121	23	-50.4	-82.9	99	11
2023-08-08T06:00	26140	23	-50.4	-82.9	102	11
2023-08-08T06:00	26176	23	-50.3	-82.8	106	11
2023-08-08T06:00	26200	22	-50.2	-82.8	110	11
2023-08-08T06:00	26230	22	-50.0	-82.6	113	10
2023-08-08T06:00	26255	22	-49.8	-83.2	115	10
2023-08-08T06:00	26275	22	-49.6	-83.0	115	9
2023-08-08T06:00	26306	22	-49.6	-83.0	115	9
2023-08-08T06:00	26335	22	-49.6	-83.0	113	9
2023-08-08T06:00	26365	22	-49.5	-82.9	110	8
2023-08-08T06:00	26390	22	-49.6	-83.0	107	8
2023-08-08T06:00	26414	22	-49.5	-82.9	104	8
2023-08-08T06:00	26453	22	-49.2	-82.7	100	8
2023-08-08T06:00	26473	22	-49.0	-82.6	95	8
2023-08-08T06:00	26509	21	-48.8	-82.4	91	8
2023-08-08T06:00	26521	21	-48.8	-82.4	86	8
2023-08-08T06:00	26553	21	-48.7	-82.4	82	9
2023-08-08T06:00	26584	21	-48.5	-82.2	80	9
2023-08-08T06:00	26604	21	-48.3	-82.1	79	9
2023-08-08T06:00	26638	21	-48.0	-81.9	79	9
2023-08-08T06:00	26663	21	-47.9	-81.8	80	9
2023-08-08T06:00	26690	21	-47.9	-81.8	83	8
2023-08-08T06:00	26721	21	-47.8	-82.5	85	8
2023-08-08T06:00	26751	21	-47.7	-82.4	88	8
2023-08-08T06:00	26785	21	-47.5	-82.3	89	8
2023-08-08T06:00	26812	20	-47.3	-82.2	89	9
2023-08-08T06:00	26843	20	-47.3	-82.2	89	9
2023-08-08T06:00	26875	20	-47.4	-81.4	89	10
2023-08-08T06:00	26899	20	-47.5	-81.5	89	10
2023-08-08T06:00	26938	20	-47.6	-81.6	90	10
2023-08-08T06:00	26974	20	-47.6	-81.6	92	10
2023-08-08T06:00	26997	20	-47.4	-81.4	93	10
2023-08-08T06:00	27025	20	-47.4	-81.4	94	10
2023-08-08T06:00	27054	20	-47.4	-81.4	94	10
2023-08-08T06:00	27077	20	-47.2	-81.3	94	10
2023-08-08T06:00	27114	20	-47.1	-81.2	93	11
2023-08-08T06:00	27139	19	-47.1	-81.2	92	11
2023-08-08T06:00	27172	19	-47.2	-81.3	91	12
2023-08-08T06:00	27204	19	-47.4	-81.4	91	12
2023-08-08T06:00	27228	19	-47.6	-81.6	91	12
2023-08-08T06:00	27262	19	-47.7	-81.6	91	12
2023-08-08T06:00	27296	19	-47.6	-81.6	92	12
2023-08-08T06:00	27327	19	-47.5	-81.5	93	12
2023-08-08T06:00	27353	19	-47.4	-81.4	94	11
2023-08-08T06:00	27386	19	-47.5	-81.5	96	11
2023-08-08T06:00	27416	19	-47.5	-81.5	97	11
2023-08-08T06:00	27447	19	-47.6	-81.6	99	10
2023-08-08T06:00	27481	19	-47.7	-81.6	100	10
2023-08-08T06:00	27505	18	-47.7	-81.6	102	10
2023-08-08T06:00	27549	18	-47.7	-81.6	103	9
2023-08-08T06:00	27579	18	-47.5	-82.3	102	9
2023-08-08T06:00	27607	18	-47.2	-82.1	101	8
2023-08-08T06:00	27635	18	-46.8	-81.8	98	8
2023-08-08T06:00	27664	18	-46.3	-81.4	95	7
2023-08-08T06:00	27697	18	-46.2	-81.4	90	7
2023-08-08T06:00	27723	18	-46.3	-81.4	86	8
2023-08-08T06:00	27760	18	-46.4	-81.5	83	8
2023-08-08T06:00	27790	18	-46.4	-81.5	81	8
2023-08-08T06:00	27816	18	-46.4	-81.5	80	9
2023-08-08T06:00	27842	18	-46.3	-81.4	81	9
2023-08-08T06:00	27889	17	-46.3	-81.4	82	10
2023-08-08T06:00	27906	17	-46.2	-81.4	85	10
2023-08-08T06:00	27937	17	-46.0	-81.2	89	11
2023-08-08T06:00	27980	17	-46.0	-81.2	93	11
2023-08-08T06:00	28009	17	-45.9	-81.2	97	11
2023-08-08T06:00	28032	17	-45.7	-81.0	100	11
2023-08-08T06:00	28063	17	-45.5	-80.9	101	11
2023-08-08T06:00	28100	17	-45.3	-81.6	102	11
2023-08-08T06:00	28117	17	-44.9	-81.4	103	11
2023-08-08T06:00	28160	17	-44.5	-81.1	103	10
2023-08-08T06:00	28187	17	-44.3	-80.9	103	10
2023-08-08T06:00	28212	17	-44.3	-80.9	103	9
2023-08-08T06:00	28246	16	-44.3	-80.9	103	8
2023-08-08T06:00	28287	16	-44.4	-81.0	103	8
2023-08-08T06:00	28307	16	-44.5	-81.1	103	8
2023-08-08T06:00	28344	16	-44.4	-81.0	104	8
2023-08-08T06:00	28378	16	-44.2	-80.9	106	8
2023-08-08T06:00	28414	16	-44.1	-80.8	108	8
2023-08-08T06:00	28437	16	-44.2	-80.9	109	8
2023-08-08T06:00	28476	16	-44.1	-80.8	110	9
2023-08-08T06:00	28495	16	-44.1	-80.8	109	9
2023-08-08T06:00	28534	16	-44.1	-80.8	107	9
2023-08-08T06:00	28571	16	-44.0	-80.7	103	9
2023-08-08T06:00	28606	16	-44.0	-80.7	99	8
2023-08-08T06:00	28632	16	-44.0	-80.7	94	8
2023-08-08T06:00	28659	16	-43.9	-80.7	89	8
2023-08-08T06:00	28699	15	-43.9	-80.7	83	8
2023-08-08T06:00	28724	15	-43.9	-80.7	77	7
2023-08-08T06:00	28765	15	-43.9	-80.7	71	8
2023-08-08T06:00	28791	15	-43.9	-80.7	66	8
2023-08-08T06:00	28820	15	-43.8	-80.6	62	8
2023-08-08T06:00	28849	15	-43.7	-80.5	59	9
2023-08-08T06:00	28895	15	-43.7	-80.5	57	9
2023-08-08T06:00	28910	15	-43.7	-80.5	57	9
2023-08-08T06:00	28939	15	-43.8	-80.6	57	9
2023-08-08T06:00	28980	15	-43.8	-80.6	57	9
2023-08-08T06:00	29009	15	-43.9	-80.7	58	9
2023-08-08T06:00	29038	15	-43.9	-80.7	58	9
2023-08-08T06:00	29069	15	-43.9	-80.7	58	10
2023-08-08T06:00	29105	15	-43.8	-80.6	58	10
2023-08-08T06:00	29118	14	-43.8	-80.6	59	10
2023-08-08T06:00	29159	14	-43.7	-80.5	60	11
2023-08-08T06:00	29193	14	-43.6	-80.4	63	11
2023-08-08T06:00	29208	14	-43.5	-80.4	66	11
2023-08-08T06:00	29237	14	-43.3	-80.2	70	12
2023-08-08T06:00	29281	14	-43.3	-80.2	74	12
2023-08-08T06:00	29310	14	-43.4	-80.3	78	12
2023-08-08T06:00	29341	14	-43.5	-80.4	82	13
2023-08-08T06:00	29367	14	-43.5	-80.4	85	13
2023-08-08T06:00	29394	14	-43.6	-80.4	87	13
2023-08-08T06:00	29428	14	-43.7	-80.5	87	14
2023-08-08T06:00	29462	14	-43.9	-80.7	87	14
2023-08-08T06:00	29492	14	-43.9	-80.7	86	14
2023-08-08T06:00	29525	14	-43.8	-80.6	85	14
2023-08-08T06:00	29560	14	-43.6	-80.4	84	14
2023-08-08T06:00	29583	14	-43.5	-80.4	82	14
2023-08-08T06:00	29608	13	-43.5	-80.4	81	14
2023-08-08T06:00	29639	13	-43.5	-80.4	79	13
2023-08-08T06:00	29679	13	-43.5	-80.4	78	13
2023-08-08T06:00	29712	13	-43.3	-80.2	78	13
2023-08-08T06:00	29740	13	-43.1	-80.1	80	12
2023-08-08T06:00	29776	13	-43.0	-80.0	82	12
2023-08-08T06:00	29799	13	-43.0	-80.0	86	12
2023-08-08T06:00	29839	13	-43.2	-80.2	89	11
2023-08-08T06:00	29878	13	-43.2	-80.2	91	11
2023-08-08T06:00	29918	13	-43.2	-80.2	92	11
2023-08-08T06:00	29935	13	-43.2	-80.2	93	11
2023-08-08T06:00	29955	13	-43.2	-80.2	92	11
2023-08-08T06:00	30020	13	-43.2	-80.2	91	11
2023-08-08T06:00	30044	13	-43.2	-80.2	89	10
2023-08-08T06:00	30067	13	-43.0	-80.0	86	10
2023-08-08T06:00	30108	13	-42.8	-79.9	82	10
2023-08-08T06:00	30141	12	-42.7	-79.8	79	10
2023-08-08T06:00	30170	12	-42.6	-79.7	75	10
2023-08-08T06:00	30200	12	-42.5	-79.7	71	10
2023-08-08T06:00	30243	12	-42.5	-79.7	67	10
2023-08-08T06:00	30263	12	-42.5	-79.7	64	11
2023-08-08T06:00	30293	12	-42.5	-79.7	63	11
2023-08-08T06:00	30355	12	-42.4	-79.6	62	12
2023-08-08T06:00	30368	12	-42.4	-79.6	63	12
2023-08-08T06:00	30402	12	-42.3	-79.5	64	12
2023-08-08T06:00	30426	12	-42.2	-79.5	66	12
2023-08-08T06:00	30468	12	-42.2	-79.5	68	13
2023-08-08T06:00	30499	12	-42.4	-79.6	69	13
2023-08-08T06:00	30528	12	-42.5	-79.7	71	13
2023-08-08T06:00	30557	12	-42.5	-79.7	73	13
2023-08-08T06:00	30608	12	-42.4	-79.6	75	14
2023-08-08T06:00	30633	12	-42.2	-79.5	77	14
2023-08-08T06:00	30650	12	-42.2	-79.5	78	14
2023-08-08T06:00	30692	11	-42.2	-79.5	78	14
2023-08-08T06:00	30729	11	-42.1	-79.4	77	14
2023-08-08T06:00	30774	11	-42.0	-79.3	75	14
2023-08-08T06:00	30801	11	-42.0	-79.3	74	15
2023-08-08T06:00	30815	11	-42.0	-79.3	73	16
2023-08-08T06:00	30856	11	-42.1	-79.4	74	16
2023-08-08T06:00	30881	11	-42.0	-79.3	75	17
2023-08-08T06:00	30922	11	-41.9	-80.4	77	18
2023-08-08T06:00	30951	11	-41.8	-80.3	80	18
2023-08-08T06:00	30967	11	-41.8	-80.3	83	19
2023-08-08T06:00	31012	11	-41.7	-80.2	87	19
2023-08-08T06:00	31037	11	-41.5	-80.1	90	20
2023-08-08T06:00	31058	11	-41.3	-79.9	93	20
2023-08-08T06:00	31101	11	-41.1	-79.8	95	20
2023-08-08T06:00	31121	11	-41.1	-79.8	97	20
2023-08-08T06:00	31143	11	-41.1	-79.8	98	20
2023-08-08T06:00	31191	11	-41.2	-79.9	99	19
2023-08-08T06:00	31211	11	-41.1	-79.8	100	19
2023-08-08T06:00	31265	11	-40.9	-79.7	100	19
2023-08-08T06:00	31288	11	-40.7	-79.5	100	19
2023-08-08T06:00	31314	10	-40.5	-79.4	101	18
2023-08-08T06:00	31349	10	-40.4	-79.3	101	17
2023-08-08T06:00	31369	10	-40.5	-79.4	102	16
2023-08-08T06:00	31398	10	-40.6	-79.5	104	15
2023-08-08T06:00	31430	10	-40.5	-79.4	106	14
2023-08-08T06:00	31460	10	-40.2	-79.2	108	14
2023-08-08T06:00	31481	10	-39.9	-79.0	110	13
2023-08-08T06:00	31530	10	-39.6	-78.8	111	13
2023-08-08T06:00	31553	10	-39.3	-78.5	112	14
2023-08-08T06:00	31591	10	-39.0	-78.3	113	14
2023-08-08T06:00	31598	10	-38.9	-78.3	113	14
2023-08-08T06:00	31646	10	-38.8	-78.2	114	15
2023-08-08T06:00	31663	10	-38.7	-78.1	114	15
2023-08-08T06:00	31702	10	-38.7	-78.1	114	15
2023-08-08T06:00	31730	10	-38.7	-78.1	114	15
2023-08-08T06:00	31765	10	-38.8	-78.2	113	15
2023-08-08T06:00	31794	10	-38.8	-78.2	113	14
2023-08-08T06:00	31842	10	-38.9	-78.3	112	14
2023-08-08T06:00	31866	10	-39.0	-78.3	112	13
2023-08-08T06:00	31920	10	-39.1	-78.4	112	12
2023-08-08T06:00	31947	10	-39.0	-78.3	114	11
2023-08-08T06:00	31991	10	-39.0	-78.3	115	11
2023-08-08T06:00	32023	9	-38.9	-78.3	115	10
2023-08-08T06:00	32083	9	-38.9	-78.3	115	10
2023-08-08T06:00	32101	9	-38.9	-78.3	113	10
2023-08-08T06:00	32128	9	-38.9	-78.3	110	9
2023-08-08T06:00	32169	9	-38.9	-78.3	106	9
2023-08-08T06:00	32172	9	-38.8	-78.2	101	10
2023-08-08T06:00	32215	9	-38.5	-78.0	97	10
2023-08-08T06:00	32241	9	-38.3	-77.9	93	10
2023-08-08T06:00	32299	9	-38.1	-77.7	91	11
2023-08-08T06:00	32303	9	-38.0	-77.6	89	11
2023-08-08T06:00	32328	9	-38.0	-77.6	89	11
2023-08-08T06:00	32379	9	-37.9	-77.6	90	11
2023-08-08T06:00	32382	9	-37.7	-77.4	91	11
2023-08-08T06:00	32436	9	-37.6	-77.4	94	11
2023-08-08T06:00	32456	9	-37.6	-77.4	96	12
2023-08-08T06:00	32505	9	-37.7	-77.4	99	12
2023-08-08T06:00	32529	9	-37.7	-77.4	100	12
2023-08-08T06:00	32571	9	-37.6	-77.4	101	13
2023-08-08T06:00	32593	9	-37.5	-77.3	101	13
2023-08-08T06:00	32620	9	-37.3	-77.2	101	13
2023-08-08T06:00	32659	9	-37.2	-77.1	101	13
2023-08-08T06:00	32699	9	-37.0	-77.0	101	12
2023-08-08T06:00	32715	9	-37.0	-77.0	102	12
2023-08-08T06:00	32760	9	-37.1	-77.0	103	12
2023-08-08T06:00	32774	8	-37.2	-77.1	105	11
2023-08-08T06:00	32812	8	-37.2	-77.1	107	11
2023-08-08T06:00	32843	8	-37.2	-77.1	110	11
2023-08-08T06:00	32870	8	-37.2	-77.1	111	10
2023-08-08T06:00	32915	8	-37.2	-77.1	112	10
2023-08-08T06:00	32939	8	-37.1	-77.0	112	10
2023-08-08T06:00	32958	8	-36.8	-76.8	110	10
2023-08-08T06:00	32986	8	-36.5	-76.6	107	10
2023-08-08T06:00	33030	8	-36.4	-76.5	102	10
2023-08-08T06:00	33051	8	-36.4	-76.5	97	10
2023-08-08T06:00	33106	8	-36.4	-76.5	92	11
2023-08-08T06:00	33118	8	-36.5	-76.6	87	11
2023-08-08T06:00	33170	8	-36.5	-76.6	83	12
2023-08-08T06:00	33189	8	-36.6	-76.7	81	13
2023-08-08T06:00	33231	8	-36.5	-76.6	81	13
2023-08-08T06:00	33244	8	-36.5	-76.6	83	14
2023-08-08T12:00	114	996	17.2	9.2	243	4
2023-08-08T12:00	144	993	16.8	8.8	238	5
2023-08-08T12:00	179	989	16.3	8.5	234	6
2023-08-08T12:00	207	985	16.0	8.4	231	8
2023-08-08T12:00	233	983	15.7	8.5	229	9
2023-08-08T12:00	257	980	15.4	8.5	228	10
2023-08-08T12:00	281	977	15.1	8.4	229	11
2023-08-08T12:00	300	975	14.9	8.4	230	11
2023-08-08T12:00	321	972	14.7	8.3	232	11
2023-08-08T12:00	344	969	14.5	8.3	235	11
2023-08-08T12:00	370	967	14.2	8.2	238	11
2023-08-08T12:00	398	964	14.0	8.2	240	11
2023-08-08T12:00	420	961	13.8	8.3	240	10
2023-08-08T12:00	448	958	13.5	8.1	239	11
2023-08-08T12:00	476	955	13.2	8.0	237	11
2023-08-08T12:00	502	952	13.0	7.9	235	12
2023-08-08T12:00	530	949	12.8	7.8	234	12
2023-08-08T12:00	557	946	12.5	7.5	234	12
2023-08-08T12:00	579	943	12.3	7.6	234	12
2023-08-08T12:00	607	940	12.0	7.5	233	12
2023-08-08T12:00	628	937	11.7	7.6	233	12
2023-08-08T12:00	653	935	11.5	7.4	232	11
2023-08-08T12:00	676	932	11.4	7.3	230	11
2023-08-08T12:00	700	930	11.2	7.4	229	12
2023-08-08T12:00	719	927	10.9	7.4	227	12
2023-08-08T12:00	734	926	10.6	7.2	226	12
2023-08-08T12:00	753	924	10.5	7.3	225	12
2023-08-08T12:00	766	922	10.5	7.3	224	11
2023-08-08T12:00	783	920	10.4	7.3	225	11
2023-08-08T12:00	800	918	10.2	6.9	226	11
2023-08-08T12:00	817	917	10.1	6.9	227	11
2023-08-08T12:00	833	915	10.0	6.7	229	11
2023-08-08T12:00	849	913	9.9	6.7	229	12
2023-08-08T12:00	868	911	9.7	6.7	230	12
2023-08-08T12:00	898	908	9.4	6.2	232	12
2023-08-08T12:00	923	905	9.3	6.0	234	12
2023-08-08T12:00	949	902	9.1		236	11
2023-08-08T12:00	974	899	8.9	5.5	239	11
2023-08-08T12:00	1005	896	8.5	5.7	242	10
2023-08-08T12:00	1042	892	8.2	5.8	246	10
2023-08-08T12:00	1076	889	7.8	5.9	249	10
2023-08-08T12:00	1100	886	7.5	5.9	253	10
2023-08-08T12:00	1127	883	7.3	5.7	257	10
2023-08-08T12:00	1162	879	7.2	4.0	258	9
2023-08-08T12:00	1199	875	6.7	5.5	258	9
2023-08-08T12:00	1228	872	6.3	5.6	256	9
2023-08-08T12:00	1254	869	6.1	5.1	253	9
2023-08-08T12:00	1287	866	6.1	4.2	249	10
2023-08-08T12:00	1314	863	5.9	3.8	246	11
2023-08-08T12:00	1346	860	5.7	3.5	244	12
2023-08-08T12:00	1373	857	5.4	3.5	244	13
2023-08-08T12:00	1411	853	4.9	3.6	246	14
2023-08-08T12:00	1433	850	4.8	3.2	248	14
2023-08-08T12:00	1462	847	4.4	3.4	252	15
2023-08-08T12:00	1495	844	4.2	3.3	255	15
2023-08-08T12:00	1531	840	3.8	2.9	259	16
2023-08-08T12:00	1568	837	3.4	3.4	261	16
2023-08-08T12:00	1603	833	3.1	3.1	263	16
2023-08-08T12:00	1631	830	2.9	2.4	264	16
2023-08-08T12:00	1658	827	2.8	2.1	265	16
2023-08-08T12:00	1687	824	2.6	2.1	265	16
2023-08-08T12:00	1719	821	2.6	0.6	265	15
2023-08-08T12:00	1745	818	2.6	0.3	265	15
2023-08-08T12:00	1777	815	2.2	0.3	264	15
2023-08-08T12:00	1801	813	2.0	0.5	262	16
2023-08-08T12:00	1823	811	1.8	-0.1	262	16
2023-08-08T12:00	1847	808	2.0	-0.8	261	16
2023-08-08T12:00	1871	806	1.7	-0.8	262	15
2023-08-08T12:00	1898	803	1.6	-1.3	262	15
2023-08-08T12:00	1927	800	1.4	-1.4	263	14
2023-08-08T12:00	1954	797	1.2	-1.6	264	13
2023-08-08T12:00	1985	795	1.0	-2.1	264	13
2023-08-08T12:00	2008	792	0.9	-2.1	265	13
2023-08-08T12:00	2033	790	0.7	-2.1	265	13
2023-08-08T12:00	2056	788	0.6	-2.3	266	13
2023-08-08T12:00	2076	786	0.4	-2.3	267	13
2023-08-08T12:00	2098	783	0.2	-2.2	267	13
2023-08-08T12:00	2123	781	-0.1	-2.3	267	13
2023-08-08T12:00	2155	778	-0.4	-2.3	267	13
2023-08-08T12:00	2183	775	-0.7	-2.5	267	12
2023-08-08T12:00	2209	773	-0.9		267	12
2023-08-08T12:00	2231	770	-1.1	-2.7	267	12
2023-08-08T12:00	2255	768	-1.3	-2.8	266	13
2023-08-08T12:00	2277	766	-1.5	-2.9	265	13
2023-08-08T12:00	2302	764	-1.8	-3.0	263	13
2023-08-08T12:00	2329	761	-2.0	-3.1	262	14
2023-08-08T12:00	2354	759	-2.3	-3.1	260	14
2023-08-08T12:00	2377	756	-2.5	-3.3	258	14
2023-08-08T12:00	2408	754	-2.8	-3.3	258	14
2023-08-08T12:00	2429	751	-3.0	-3.6	258	14
2023-08-08T12:00	2455	749	-3.2	-3.6	259	14
2023-08-08T12:00	2480	747	-3.3	-4.0	261	14
2023-08-08T12:00	2511	744	-3.5	-4.1	263	14
2023-08-08T12:00	2547	741	-3.8	-4.3	263	14
2023-08-08T12:00	2569	738	-4.0	-4.7	264	14
2023-08-08T12:00	2596	736	-4.2	-4.9	264	14
2023-08-08T12:00	2626	733	-4.5	-4.9	264	14
2023-08-08T12:00	2649	731	-4.7	-5.3	264	15
2023-08-08T12:00	2676	728	-4.8	-5.6	265	15
2023-08-08T12:00	2704	726	-5.0	-5.8	265	16
2023-08-08T12:00	2733	723	-5.0	-6.8	264	16
2023-08-08T12:00	2752	721	-4.7	-8.5	263	16
2023-08-08T12:00	2780	719	-5.0	-8.2	261	16
2023-08-08T12:00	2803	717	-5.0	-9.0	258	16
2023-08-08T12:00	2822	715	-5.2	-9.0	257	16
2023-08-08T12:00	2844	713	-5.5	-9.2	256	15
2023-08-08T12:00	2876	710	-5.6	-10.2	256	15
2023-08-08T12:00	2902	708	-5.5	-11.0	257	14
2023-08-08T12:00	2925	706	-5.2	-12.7	257	13
2023-08-08T12:00	2948	703	-5.1	-14.1	257	13
2023-08-08T12:00	2977	701	-5.2	-15.0	258	12
2023-08-08T12:00	2996	699	-4.9	-18.5	259	11
2023-08-08T12:00	3016	698	-5.0	-18.8	262	11
2023-08-08T12:00	3038	696	-4.9	-20.0	265	11
2023-08-08T12:00	3061	694	-4.9	-20.6	268	11
2023-08-08T12:00	3083	692	-4.9	-21.6	269	12
2023-08-08T12:00	3108	689	-5.0	-22.4	269	13
2023-08-08T12:00	3135	687	-5.0	-22.7	268	13
2023-08-08T12:00	3159	685	-5.1	-22.1	267	14
2023-08-08T12:00	3185	683	-5.2	-21.2	268	14
2023-08-08T12:00	3206	681	-5.2	-20.1	269	15
2023-08-08T12:00	3227	679	-5.4	-19.5	270	15
2023-08-08T12:00	3249	677	-5.5	-19.7	270	14
2023-08-08T12:00	3276	675	-5.6	-20.3	269	15
2023-08-08T12:00	3294	673	-5.7	-20.7	268	15
2023-08-08T12:00	3320	671	-5.9	-21.1	267	15
2023-08-08T12:00	3346	669	-6.0	-20.9	266	16
2023-08-08T12:00	3368	667	-6.0	-21.2	267	16
2023-08-08T12:00	3398	664	-6.2	-21.2	268	16
2023-08-08T12:00	3427	662	-6.5	-21.3	270	15
2023-08-08T12:00	3455	659	-6.7	-21.3	272	15
2023-08-08T12:00	3497	656	-6.9	-21.0	273	14
2023-08-08T12:00	3522	654	-7.0	-20.8	274	14
2023-08-08T12:00	3547	652	-7.2	-20.8	275	14
2023-08-08T12:00	3583	649	-7.4	-21.2	276	15
2023-08-08T12:00	3608	647	-7.6	-21.6	277	15
2023-08-08T12:00	3635	645	-7.7	-21.7	279	15
2023-08-08T12:00	3657	643	-7.9	-21.9	281	15
2023-08-08T12:00	3684	640	-8.2	-22.1	283	15
2023-08-08T12:00	3709	638	-8.4	-22.2	285	15
2023-08-08T12:00	3730	637	-8.6	-22.3	286	15
2023-08-08T12:00	3755	635	-8.8	-22.2	287	15
2023-08-08T12:00	3784	632	-9.1	-22.3	287	15
2023-08-08T12:00	3805	630	-9.3	-22.2	288	15
2023-08-08T12:00	3831	628	-9.5	-21.7	288	16
2023-08-08T12:00	3858	626	-9.6	-20.5	289	17
2023-08-08T12:00	3883	624	-9.7	-20.8	288	18
2023-08-08T12:00	3910	622	-9.9	-20.5	287	18
2023-08-08T12:00	3929	620	-9.8	-18.8	285	18
2023-08-08T12:00	3948	619	-9.7	-17.5	284	18
2023-08-08T12:00	3971	617	-9.7	-18.2	283	17
2023-08-08T12:00	3992	615	-9.8	-18.0	283	17
2023-08-08T12:00	4020	613	-10.1	-18.6	282	16
2023-08-08T12:00	4049	611	-10.4	-19.1	282	16
2023-08-08T12:00	4070	609	-10.6	-18.5	282	15
2023-08-08T12:00	4099	607	-10.8	-18.9	282	15
2023-08-08T12:00	4120	605	-11.0	-19.4	283	16
2023-08-08T12:00	4146	603	-11.2	-19.7	284	16
2023-08-08T12:00	4167	602	-11.4	-20.5	285	16
2023-08-08T12:00	4189	600	-11.5	-22.5	285	17
2023-08-08T12:00	4219	598	-11.6	-24.1	285	18
2023-08-08T12:00	4241	596	-11.7	-24.9	283	19
2023-08-08T12:00	4261	594	-11.8	-24.6	282	20
2023-08-08T12:00	4292	592	-11.7	-15.9	281	20
2023-08-08T12:00	4319	590	-12.0	-15.4	281	21
2023-08-08T12:00	4350	587	-12.2	-15.1	281	21
2023-08-08T12:00	4379	585	-12.5	-15.0	280	21
2023-08-08T12:00	4404	583	-12.7	-15.1	278	21
2023-08-08T12:00	4423	582	-12.9	-15.1	277	21
2023-08-08T12:00	4449	580	-13.1	-15.2	275	21
2023-08-08T12:00	4472	578	-13.3	-15.5	274	21
2023-08-08T12:00	4492	576	-13.5	-15.9	274	21
2023-08-08T12:00	4517	575	-13.7	-16.0	274	21
2023-08-08T12:00	4541	573	-13.8	-15.7	275	21
2023-08-08T12:00	4565	571	-13.9	-16.0	276	21
2023-08-08T12:00	4590	569	-14.0	-17.7	277	21
2023-08-08T12:00	4613	567	-14.1		278	21
2023-08-08T12:00	4634	566	-14.2	-20.8	279	21
2023-08-08T12:00	4654	564	-14.2	-21.4	279	21
2023-08-08T12:00	4679	563	-14.5	-18.7	279	21
2023-08-08T12:00	4707	561	-14.7	-17.8	278	21
2023-08-08T12:00	4731	559	-14.9	-17.8	278	21
2023-08-08T12:00	4749	557	-15.1	-17.8	279	22
2023-08-08T12:00	4764	556	-15.2	-17.8	279	22
2023-08-08T12:00	4785	555	-15.5	-18.1	280	22
2023-08-08T12:00	4810	553	-15.6	-18.7	281	22
2023-08-08T12:00	4829	552	-15.8		280	22
2023-08-08T12:00	4844	550	-15.9	-19.0	280	21
2023-08-08T12:00	4859	549	-16.1	-19.0	278	21
2023-08-08T12:00	4878	548	-16.2	-18.9	277	21
2023-08-08T12:00	4897	546	-16.4	-19.2	275	20
2023-08-08T12:00	4924	545	-16.6	-19.8	275	20
2023-08-08T12:00	4942	543	-16.7	-20.1	275	20
2023-08-08T12:00	4964	542	-16.9	-20.1	277	19
2023-08-08T12:00	4983	540	-17.1	-20.0	279	19
2023-08-08T12:00	5008	538	-17.3	-20.2	280	19
2023-08-08T12:00	5032	537	-17.5	-20.7	281	18
2023-08-08T12:00	5045	536	-17.7	-20.6	280	18
2023-08-08T12:00	5061	535	-17.8	-20.8	280	18
2023-08-08T12:00	5073	534	-17.9	-20.8	279	19
2023-08-08T12:00	5089	533	-18.1	-20.9	278	19
2023-08-08T12:00	5108	531	-18.2	-21.3	278	19
2023-08-08T12:00	5129	530	-18.4	-21.6	278	18
2023-08-08T12:00	5155	528	-18.6	-22.1	278	18
2023-08-08T12:00	5166	527	-18.7	-22.0	279	18
2023-08-08T12:00	5188	526	-19.0	-22.0	280	18
2023-08-08T12:00	5214	524	-19.2	-22.6	281	18
2023-08-08T12:00	5227	523	-19.3	-23.1	282	18
2023-08-08T12:00	5241	522	-19.4	-23.2	283	18
2023-08-08T12:00	5258	521	-19.5	-23.2	284	18
2023-08-08T12:00	5282	519	-19.8	-23.3	285	18
2023-08-08T12:00	5303	517	-20.0	-23.5	285	18
2023-08-08T12:00	5329	516	-20.2	-23.6	286	18
2023-08-08T12:00	5344	515	-20.4	-23.6	285	18
2023-08-08T12:00	5369	513	-20.6	-23.6	284	19
2023-08-08T12:00	5391	511	-20.8	-24.9	283	19
2023-08-08T12:00	5418	510	-20.5	-31.7	283	20
2023-08-08T12:00	5435	508	-20.4	-31.6	283	20
2023-08-08T12:00	5455	507	-20.6	-32.0	283	21
2023-08-08T12:00	5484	505	-20.8	-32.7	283	21
2023-08-08T12:00	5495	504	-20.9	-33.0	284	21
2023-08-08T12:00	5511	503	-21.0	-33.2	284	21
2023-08-08T12:00	5526	502	-21.1	-33.1	284	21
2023-08-08T12:00	5547	501	-21.3	-33.1	284	20
2023-08-08T12:00	5570	499	-21.5	-33.5	284	20
2023-08-08T12:00	5589	498	-21.6	-34.7	284	20
2023-08-08T12:00	5615	496	-21.8	-36.1	285	20
2023-08-08T12:00	5648	494	-22.0	-38.2	286	19
2023-08-08T12:00	5669	493	-22.1	-38.8	287	19
2023-08-08T12:00	5686	491	-22.2	-39.6	288	20
2023-08-08T12:00	5702	490	-22.3	-39.9	288	20
2023-08-08T12:00	5720	489	-22.4	-41.2	288	20
2023-08-08T12:00	5737	488	-22.5	-42.4	288	20
2023-08-08T12:00	5754	487	-22.6	-44.2	288	20
2023-08-08T12:00	5774	485	-22.7	-45.6	287	20
2023-08-08T12:00	5805	484	-22.9	-45.9	285	20
2023-08-08T12:00	5831	482	-23.0	-46.2	284	20
2023-08-08T12:00	5855	480	-23.2	-45.6	283	20
2023-08-08T12:00	5879	479	-23.3	-45.4	282	20
2023-08-08T12:00	5906	477	-23.4	-45.9	281	20
2023-08-08T12:00	5926	476	-23.5	-46.4	281	20
2023-08-08T12:00	5945	474	-23.5	-46.9	282	20
2023-08-08T12:00	5964	473	-23.7	-47.2	282	20
2023-08-08T12:00	5981	472	-23.7	-47.0	283	20
2023-08-08T12:00	6000	471	-23.8	-46.1	283	20
2023-08-08T12:00	6016	470	-24.0	-45.3	283	20
2023-08-08T12:00	6034	469	-24.1	-45.0	283	19
2023-08-08T12:00	6055	467	-24.3	-44.5	283	19
2023-08-08T12:00	6081	466	-24.5	-43.9	283	19
2023-08-08T12:00	6113	464	-24.8	-43.6	283	20
2023-08-08T12:00	6145	462	-25.1	-42.8	283	20
2023-08-08T12:00	6169	460	-25.3	-42.6	284	20
2023-08-08T12:00	6188	459	-25.5	-42.6	285	20
2023-08-08T12:00	6208	457	-25.6	-42.3	285	20
2023-08-08T12:00	6228	456	-25.8	-42.4	286	20
2023-08-08T12:00	6248	455	-26.0	-42.5	286	20
2023-08-08T12:00	6267	454	-26.2	-42.4	286	20
2023-08-08T12:00	6287	453	-26.4	-42.2	286	20
2023-08-08T12:00	6311	451	-26.6	-42.0	285	21
2023-08-08T12:00	6334	450	-26.8	-41.8	285	21
2023-08-08T12:00	6357	448	-27.0	-42.0	286	21
2023-08-08T12:00	6387	446	-27.3	-41.9	286	21
2023-08-08T12:00	6417	444	-27.5	-42.3	286	21
2023-08-08T12:00	6452	442	-27.8	-43.4	287	22
2023-08-08T12:00	6478	441	-28.0	-43.5	287	22
2023-08-08T12:00	6502	439	-28.1	-43.9	288	23
2023-08-08T12:00	6529	437	-28.3	-44.8	287	23
2023-08-08T12:00	6567	435	-28.6	-44.8	286	23
2023-08-08T12:00	6590	434	-28.8	-44.9	286	22
2023-08-08T12:00	6612	432	-29.0	-45.3	285	22
2023-08-08T12:00	6639	431	-29.1	-46.2	284	23
2023-08-08T12:00	6677	429	-29.3	-47.2	284	23
2023-08-08T12:00	6706	427	-29.4	-47.4	284	23
2023-08-08T12:00	6723	426	-29.6	-47.5	285	24
2023-08-08T12:00	6743	425	-29.8	-47.5	285	24
2023-08-08T12:00	6769	423	-29.9	-47.8	286	24
2023-08-08T12:00	6801	421	-30.2	-48.1	287	25
2023-08-08T12:00	6837	419	-30.4	-48.5	288	25
2023-08-08T12:00	6862	418	-30.5	-49.0	288	25
2023-08-08T12:00	6888	416	-30.6	-49.3	287	25
2023-08-08T12:00	6908	415	-30.7	-49.3	286	25
2023-08-08T12:00	6928	414	-30.9	-49.6	286	24
2023-08-08T12:00	6946	413	-31.0	-49.8	285	24
2023-08-08T12:00	6965	412	-31.1	-50.0	285	23
2023-08-08T12:00	6985	410	-31.2	-50.2	285	23
2023-08-08T12:00	7010	409	-31.4	-50.2	286	23
2023-08-08T12:00	7043	407	-31.7	-50.5	286	24
2023-08-08T12:00	7058	406	-31.8	-50.4	287	24
2023-08-08T12:00	7077	405	-32.0	-50.4	287	24
2023-08-08T12:00	7097	404	-32.1	-50.5	287	25
2023-08-08T12:00	7114	403	-32.3	-50.9	287	25
2023-08-08T12:00	7133	402	-32.4	-51.3	287	25
2023-08-08T12:00	7152	401	-32.5	-52.6	288	26
2023-08-08T12:00	7171	400	-32.5	-53.9	289	26
2023-08-08T12:00	7198	398	-32.6	-54.1	290	26
2023-08-08T12:00	7229	397	-32.6	-54.6	291	26
2023-08-08T12:00	7252	395	-32.7	-55.1	291	27
2023-08-08T12:00	7268	394	-32.8	-54.9	291	27
2023-08-08T12:00	7286	393	-32.9	-55.1	291	28
2023-08-08T12:00	7303	392	-33.0	-55.4	291	28
2023-08-08T12:00	7321	391	-33.0	-55.6	290	28
2023-08-08T12:00	7339	390	-33.0	-55.7	290	29
2023-08-08T12:00	7357	389	-33.1	-55.8	290	29
2023-08-08T12:00	7375	388	-33.2	-55.9	290	29
2023-08-08T12:00	7390	387	-33.2	-55.9	290	29
2023-08-08T12:00	7408	387	-33.3	-55.8	291	29
2023-08-08T12:00	7424	386	-33.3	-55.8	291	30
2023-08-08T12:00	7442	385	-33.4	-55.8	292	30
2023-08-08T12:00	7459	384	-33.4	-55.7	293	30
2023-08-08T12:00	7477	383	-33.4	-55.8	293	30
2023-08-08T12:00	7493	382	-33.4	-55.9	294	30
2023-08-08T12:00	7510	381	-33.3	-56.0	294	31
2023-08-08T12:00	7527	380	-33.4	-56.0	295	31
2023-08-08T12:00	7545	379	-33.4	-56.0	295	32
2023-08-08T12:00	7563	378	-33.4	-56.0	296	32
2023-08-08T12:00	7580	377	-33.5	-56.1	296	33
2023-08-08T12:00	7597	376	-33.4	-56.3	297	33
2023-08-08T12:00	7615	375	-33.2	-56.2	298	34
2023-08-08T12:00	7631	374	-33.1	-56.1	299	34
2023-08-08T12:00	7644	374	-33.1	-56.1	300	35
2023-08-08T12:00	7663	373	-33.1	-56.0	300	35
2023-08-08T12:00	7687	372	-33.1	-56.0	301	36
2023-08-08T12:00	7713	370	-33.2	-56.1	302	37
2023-08-08T12:00	7737	369	-33.2	-56.0	302	38
2023-08-08T12:00	7763	367	-33.4	-56.0	303	38
2023-08-08T12:00	7789	366	-33.5	-56.0	303	38
2023-08-08T12:00	7821	365	-33.7	-56.0	302	38
2023-08-08T12:00	7847	363	-33.7	-56.1	302	37
2023-08-08T12:00	7871	362	-33.8	-56.3	302	37
2023-08-08T12:00	7898	361	-33.9	-56.2	302	36
2023-08-08T12:00	7924	359	-34.0	-56.4	302	36
2023-08-08T12:00	7949	358	-34.1	-56.4	302	36
2023-08-08T12:00	7974	357	-34.3	-56.7	302	36
2023-08-08T12:00	7997	355	-34.4	-56.7	301	37
2023-08-08T12:00	8020	354	-34.5	-56.7	301	37
2023-08-08T12:00	8051	353	-34.5	-56.5	301	38
2023-08-08T12:00	8084	351	-34.7	-56.8	301	39
2023-08-08T12:00	8108	350	-34.9	-56.9	301	40
2023-08-08T12:00	8132	349	-35.0	-57.0	301	40
2023-08-08T12:00	8156	347	-35.1	-57.3	302	41
2023-08-08T12:00	8187	346	-35.2	-57.5	302	41
2023-08-08T12:00	8217	344	-35.3	-57.3	302	41
2023-08-08T12:00	8247	343	-35.5	-57.3	302	42
2023-08-08T12:00	8276	341	-35.6	-57.1	302	42
2023-08-08T12:00	8304	340	-35.6	-57.3	302	42
2023-08-08T12:00	8329	339	-35.7	-57.5	302	42
2023-08-08T12:00	8360	337	-35.7	-57.3	302	43
2023-08-08T12:00	8390	336	-35.9	-57.3	302	43
2023-08-08T12:00	8419	335	-35.9	-57.1	302	44
2023-08-08T12:00	8446	333	-35.8	-55.3	302	44
2023-08-08T12:00	8473	332	-35.9	-54.9	302	44
2023-08-08T12:00	8502	331	-36.0	-56.4	303	44
2023-08-08T12:00	8533	329	-36.3	-56.7	303	43
2023-08-08T12:00	8565	328	-36.5	-57.4	303	43
2023-08-08T12:00	8593	326	-36.6	-53.6	303	43
2023-08-08T12:00	8621	325	-36.8	-49.2	303	42
2023-08-08T12:00	8648	324	-37.0	-51.6	304	42
2023-08-08T12:00	8676	322	-37.1	-53.2	304	42
2023-08-08T12:00	8701	321	-37.3	-51.5	304	42
2023-08-08T12:00	8732	320	-37.6	-50.4	304	42
2023-08-08T12:00	8764	318	-37.9	-49.5	304	42
2023-08-08T12:00	8791	317	-38.1	-49.8	304	42
2023-08-08T12:00	8819	316	-38.3	-50.0	303	42
2023-08-08T12:00	8845	315	-38.6	-49.3	303	42
2023-08-08T12:00	8869	313	-38.8	-48.9	303	42
2023-08-08T12:00	8889	313	-39.0	-48.6	303	42
2023-08-08T12:00	8908	312	-39.1	-48.9	303	42
2023-08-08T12:00	8927	311	-39.2	-48.6	303	43
2023-08-08T12:00	8947	310	-39.3	-48.6	303	43
2023-08-08T12:00	8965	309	-39.5	-50.1	303	43
2023-08-08T12:00	8988	308	-39.6	-51.1	303	43
2023-08-08T12:00	9013	307	-39.7	-51.3	302	43
2023-08-08T12:00	9041	306	-39.9	-51.5	302	43
2023-08-08T12:00	9063	305	-40.0	-50.9	302	43
2023-08-08T12:00	9087	304	-40.2	-50.5	302	43
2023-08-08T12:00	9113	302	-40.4	-51.7	302	43
2023-08-08T12:00	9135	301	-40.6	-52.0	302	43
2023-08-08T12:00	9158	300	-40.8	-52.1	302	43
2023-08-08T12:00	9180	299	-41.0	-52.3	302	43
2023-08-08T12:00	9204	298	-41.2	-52.6	302	43
2023-08-08T12:00	9228	297	-41.4	-52.7	302	44
2023-08-08T12:00	9256	296	-41.5	-52.3	302	44
2023-08-08T12:00	9279	295	-41.7	-51.5	302	44
2023-08-08T12:00	9301	294	-41.9	-51.6	302	43
2023-08-08T12:00	9323	293	-42.1	-51.7	302	43
2023-08-08T12:00	9342	292	-42.2	-51.8	302	43
2023-08-08T12:00	9363	292	-42.4	-52.0	302	43
2023-08-08T12:00	9385	291	-42.7	-52.4	302	43
2023-08-08T12:00	9408	290	-42.8	-53.0	302	42
2023-08-08T12:00	9432	289	-43.0	-54.2	301	42
2023-08-08T12:00	9454	288	-43.3	-54.4	301	42
2023-08-08T12:00	9473	287	-43.5	-54.1	301	41
2023-08-08T12:00	9494	286	-43.6	-54.2	301	41
2023-08-08T12:00	9517	285	-43.8	-54.6	301	41
2023-08-08T12:00	9537	284	-43.9	-55.4	301	41
2023-08-08T12:00	9558	283	-44.0	-55.5	301	41
2023-08-08T12:00	9577	282	-44.2	-55.1	301	41
2023-08-08T12:00	9599	282	-44.3	-55.2	301	41
2023-08-08T12:00	9618	281	-44.5	-55.4	301	41
2023-08-08T12:00	9637	280	-44.6	-55.3	301	41
2023-08-08T12:00	9657	279	-44.8	-55.6	300	41
2023-08-08T12:00	9678	278	-44.9	-55.6	300	41
2023-08-08T12:00	9697	277	-45.1	-55.8	300	41
2023-08-08T12:00	9718	277	-45.3	-55.9	300	41
2023-08-08T12:00	9734	276	-45.4	-56.1	300	42
2023-08-08T12:00	9753	275	-45.5	-56.5	300	42
2023-08-08T12:00	9771	274	-45.7	-57.8	300	42
2023-08-08T12:00	9792	273	-45.8	-58.4	301	42
2023-08-08T12:00	9812	273	-45.9	-57.8	301	42
2023-08-08T12:00	9829	272	-46.0	-57.0	301	42
2023-08-08T12:00	9850	271	-46.2	-55.8	301	42
2023-08-08T12:00	9868	270	-46.3	-55.0	301	42
2023-08-08T12:00	9888	270	-46.4	-56.2	301	41
2023-08-08T12:00	9908	269	-46.6	-56.9	301	41
2023-08-08T12:00	9928	268	-46.7	-57.4	301	41
2023-08-08T12:00	9951	267	-46.8	-58.0	301	41
2023-08-08T12:00	9973	266	-46.9	-58.4	302	40
2023-08-08T12:00	9993	265	-47.0	-58.5	303	40
2023-08-08T12:00	10013	264	-47.2	-58.8	304	39
2023-08-08T12:00	10035	264	-47.1	-59.8	304	39
2023-08-08T12:00	10055	263	-47.0	-60.1	305	38
2023-08-08T12:00	10076	262	-47.1	-59.7	305	38
2023-08-08T12:00	10106	261	-47.1	-60.4	305	37
2023-08-08T12:00	10131	260	-47.0	-62.0	306	36
2023-08-08T12:00	10166	258	-47.3	-62.5	306	36
2023-08-08T12:00	10196	257	-47.6	-62.5	307	35
2023-08-08T12:00	10214	257	-47.7	-62.9	307	34
2023-08-08T12:00	10232	256	-47.8	-63.7	307	34
2023-08-08T12:00	10252	255	-47.8	-64.1	306	34
2023-08-08T12:00	10271	254	-47.7	-64.3	306	33
2023-08-08T12:00	10290	254	-47.5	-64.7	305	33
2023-08-08T12:00	10310	253	-47.4	-65.2	305	33
2023-08-08T12:00	10328	252	-47.4	-65.4	304	33
2023-08-08T12:00	10348	251	-47.5	-65.5	303	32
2023-08-08T12:00	10370	251	-47.5	-65.6	302	32
2023-08-08T12:00	10392	250	-47.6	-66.0	301	32
2023-08-08T12:00	10412	249	-47.6	-66.2	300	32
2023-08-08T12:00	10433	248	-47.6	-66.7	299	32
2023-08-08T12:00	10453	247	-47.5	-67.3	298	31
2023-08-08T12:00	10475	247	-47.4	-67.8	297	31
2023-08-08T12:00	10495	246	-47.4	-68.3	296	31
2023-08-08T12:00	10517	245	-47.4	-69.0	295	31
2023-08-08T12:00	10537	244	-47.4	-69.7	295	30
2023-08-08T12:00	10558	244	-47.3	-70.6	295	30
2023-08-08T12:00	10582	243	-47.2	-71.6	295	30
2023-08-08T12:00	10602	242	-47.0	-72.4	295	29
2023-08-08T12:00	10624	241	-46.5	-72.5	295	29
2023-08-08T12:00	10644	240	-46.1	-72.1	295	28
2023-08-08T12:00	10664	240	-46.1	-72.1	294	28
2023-08-08T12:00	10686	239	-46.0	-72.3	294	27
2023-08-08T12:00	10706	238	-46.0	-72.5	293	26
2023-08-08T12:00	10727	237	-46.0	-72.5	291	26
2023-08-08T12:00	10747	237	-46.0	-72.8	290	26
2023-08-08T12:00	10767	236	-46.0	-73.3	289	25
2023-08-08T12:00	10786	235	-46.0	-73.5	288	25
2023-08-08T12:00	10804	235	-46.0	-73.8	288	25
2023-08-08T12:00	10822	234	-46.0	-74.1	288	25
2023-08-08T12:00	10841	233	-45.8	-74.2	289	24
2023-08-08T12:00	10862	233	-45.3	-74.5	290	24
2023-08-08T12:00	10880	232	-45.0	-74.3	292	23
2023-08-08T12:00	10900	231	-44.7	-74.4	292	23
2023-08-08T12:00	10920	231	-44.4	-74.5	293	22
2023-08-08T12:00	10939	230	-43.9	-74.5	292	22
2023-08-08T12:00	10957	229	-43.8	-74.5	292	21
2023-08-08T12:00	10977	229	-43.7	-74.8	291	21
2023-08-08T12:00	10995	228	-43.6	-74.7	290	21
2023-08-08T12:00	11012	228	-43.6	-74.7	290	21
2023-08-08T12:00	11029	227	-43.6	-74.7	289	21
2023-08-08T12:00	11048	226	-43.8	-74.9	288	21
2023-08-08T12:00	11076	225	-43.8	-74.9	288	21
2023-08-08T12:00	11102	225	-43.7	-74.8	288	21
2023-08-08T12:00	11117	224	-43.9	-74.5	289	20
2023-08-08T12:00	11137	223	-44.0	-74.6	289	20
2023-08-08T12:00	11156	223	-43.9	-74.5	290	20
2023-08-08T12:00	11175	222	-43.9	-75.0	290	19
2023-08-08T12:00	11192	221	-43.9	-75.0	290	19
2023-08-08T12:00	11212	221	-43.9	-74.5	289	19
2023-08-08T12:00	11232	220	-44.1	-74.7	289	19
2023-08-08T12:00	11250	220	-44.2	-74.8	289	19
2023-08-08T12:00	11271	219	-44.3	-74.8	288	18
2023-08-08T12:00	11290	218	-44.3	-74.5	288	18
2023-08-08T12:00	11307	218	-44.2	-74.4	287	18
2023-08-08T12:00	11327	217	-44.0	-74.2	287	17
2023-08-08T12:00	11347	216	-44.0	-74.6	286	17
2023-08-08T12:00	11365	216	-43.8	-74.9	286	17
2023-08-08T12:00	11383	215	-43.5	-75.1	287	16
2023-08-08T12:00	11404	215	-43.2	-75.4	288	16
2023-08-08T12:00	11423	214	-43.2	-75.4	290	16
2023-08-08T12:00	11443	213	-43.1	-75.8	290	16
2023-08-08T12:00	11463	213	-42.9	-75.6	291	16
2023-08-08T12:00	11482	212	-42.6	-75.4	291	16
2023-08-08T12:00	11501	212	-42.4	-75.3	290	16
2023-08-08T12:00	11520	211	-42.5	-75.3	290	16
2023-08-08T12:00	11538	210	-42.6	-75.4	289	16
2023-08-08T12:00	11556	210	-42.7	-75.5	288	16
2023-08-08T12:00	11576	209	-42.7	-75.5	286	15
2023-08-08T12:00	11591	209	-42.6	-75.4	285	15
2023-08-08T12:00	11613	208	-42.6	-76.0	283	15
2023-08-08T12:00	11629	208	-42.3	-75.8	282	15
2023-08-08T12:00	11647	207	-42.1	-75.6	281	15
2023-08-08T12:00	11666	206	-42.1	-75.6	280	15
2023-08-08T12:00	11684	206	-42.2	-75.7	279	15
2023-08-08T12:00	11702	205	-42.3	-75.8	278	15
2023-08-08T12:00	11719	205	-42.4	-75.8	278	15
2023-08-08T12:00	11737	204	-42.4	-75.8	279	15
2023-08-08T12:00	11756	204	-42.3	-75.8	280	15
2023-08-08T12:00	11776	203	-42.3	-75.8	282	15
2023-08-08T12:00	11792	203	-42.4	-75.8	284	15
2023-08-08T12:00	11811	202	-42.2	-75.7	285	15
2023-08-08T12:00	11831	201	-42.1	-75.6	286	15
2023-08-08T12:00	11849	201	-42.1	-75.6	286	15
2023-08-08T12:00	11869	200	-42.0	-75.5	286	15
2023-08-08T12:00	11888	200	-41.9	-76.1	286	14
2023-08-08T12:00	11906	199	-41.7	-75.9	286	14
2023-08-08T12:00	11928	199	-41.5	-75.8	287	14
2023-08-08T12:00	11948	198	-41.6	-75.8	289	13
2023-08-08T12:00	11965	197	-41.7	-75.9	290	13
2023-08-08T12:00	11984	197	-41.8	-76.0	290	13
2023-08-08T12:00	12005	196	-41.7	-75.9	290	13
2023-08-08T12:00	12023	196	-41.6	-75.8	290	13
2023-08-08T12:00	12042	195	-41.6	-75.8	290	12
2023-08-08T12:00	12062	195	-41.7	-75.9	289	12
2023-08-08T12:00	12082	194	-41.7	-75.9	288	12
2023-08-08T12:00	12101	194	-41.6	-75.8	287	12
2023-08-08T12:00	12122	193	-41.7	-75.9	287	12
2023-08-08T12:00	12141	192	-41.9	-76.1	287	12
2023-08-08T12:00	12160	192	-42.0	-76.1	287	12
2023-08-08T12:00	12182	191	-42.1	-76.2	288	11
2023-08-08T12:00	12203	191	-42.0	-76.1	290	11
2023-08-08T12:00	12226	190	-41.9	-76.7	291	11
2023-08-08T12:00	12246	189	-42.0	-76.8	292	10
2023-08-08T12:00	12266	189	-42.2	-76.9	292	10
2023-08-08T12:00	12290	188	-42.2	-76.9	291	9
2023-08-08T12:00	12311	188	-42.3	-77.0	289	9
2023-08-08T12:00	12331	187	-42.4	-76.4	287	9
2023-08-08T12:00	12354	187	-42.5	-76.5	284	9
2023-08-08T12:00	12374	186	-42.7	-76.6	282	9
2023-08-08T12:00	12394	185	-42.8	-76.7	279	8
2023-08-08T12:00	12415	185	-42.8	-77.4	277	8
2023-08-08T12:00	12435	184	-42.7	-77.3	275	8
2023-08-08T12:00	12459	184	-42.9	-77.5	274	8
2023-08-08T12:00	12481	183	-43.1	-76.9	275	8
2023-08-08T12:00	12502	182	-43.2	-77.0	276	8
2023-08-08T12:00	12524	182	-43.1	-76.9	277	8
2023-08-08T12:00	12545	181	-43.1	-76.9	278	8
2023-08-08T12:00	12567	181	-43.3	-77.1	279	8
2023-08-08T12:00	12588	180	-43.3	-77.1	280	8
2023-08-08T12:00	12609	180	-43.3	-77.7	280	8
2023-08-08T12:00	12630	179	-43.4	-77.2	281	8
2023-08-08T12:00	12651	178	-43.6	-78.0	281	8
2023-08-08T12:00	12675	178	-43.5	-77.9	281	9
2023-08-08T12:00	12698	177	-43.4	-77.8	281	9
2023-08-08T12:00	12717	177	-43.4	-77.8	281	9
2023-08-08T12:00	12740	176	-43.5	-77.9	280	9
2023-08-08T12:00	12759	176	-43.5	-77.9	279	9
2023-08-08T12:00	12780	175	-43.5	-77.9	278	8
2023-08-08T12:00	12802	174	-43.6	-78.0	276	8
2023-08-08T12:00	12824	174	-43.6	-78.0	275	8
2023-08-08T12:00	12847	173	-43.7	-78.0	275	8
2023-08-08T12:00	12868	173	-43.8	-78.1	276	7
2023-08-08T12:00	12888	172	-43.7	-78.0	277	7
2023-08-08T12:00	12909	172	-43.4	-77.8	279	7
2023-08-08T12:00	12932	171	-43.1	-77.6	281	6
2023-08-08T12:00	12951	171	-43.1	-77.6	281	6
2023-08-08T12:00	12973	170	-43.3	-77.7	279	5
2023-08-08T12:00	12994	170	-43.3	-77.7	276	5
2023-08-08T12:00	13015	169	-43.4	-77.8	271	5
2023-08-08T12:00	13032	169	-43.4	-77.8	266	5
2023-08-08T12:00	13053	168	-43.4	-77.8	262	5
2023-08-08T12:00	13075	168	-43.5	-77.9	260	5
2023-08-08T12:00	13097	167	-43.5	-77.9	258	6
2023-08-08T12:00	13116	167	-43.7	-78.0	257	6
2023-08-08T12:00	13137	166	-43.7	-78.0	255	7
2023-08-08T12:00	13156	165	-43.6	-78.0	253	7
2023-08-08T12:00	13179	165	-43.6	-78.0	251	7
2023-08-08T12:00	13201	164	-43.6	-78.0	248	7
2023-08-08T12:00	13221	164	-43.6	-78.0	246	6
2023-08-08T12:00	13245	163	-43.3	-77.7	245	6
2023-08-08T12:00	13268	163	-43.4	-77.8	244	6
2023-08-08T12:00	13290	162	-43.6	-78.0	243	6
2023-08-08T12:00	13315	162	-43.8	-78.1	241	6
2023-08-08T12:00	13337	161	-44.0	-78.2	239	6
2023-08-08T12:00	13360	161	-44.2	-77.7	237	6
2023-08-08T12:00	13382	160	-44.5	-78.0	236	6
2023-08-08T12:00	13401	160	-44.6	-78.0	236	6
2023-08-08T12:00	13423	159	-44.6	-78.0	238	6
2023-08-08T12:00	13444	159	-44.4	-77.9	239	6
2023-08-08T12:00	13464	158	-44.3	-78.5	240	7
2023-08-08T12:00	13485	158	-44.4	-78.5	238	7
2023-08-08T12:00	13505	157	-44.5	-78.6	236	7
2023-08-08T12:00	13528	157	-44.5	-78.6	232	7
2023-08-08T12:00	13549	156	-44.5	-78.6	228	7
2023-08-08T12:00	13571	156	-44.4	-78.5	222	7
2023-08-08T12:00	13591	155	-44.4	-78.5	216	7
2023-08-08T12:00	13613	155	-44.4	-78.5	209	7
2023-08-08T12:00	13635	154	-44.5	-78.6	202	7
2023-08-08T12:00	13656	154	-44.2	-78.4	198	7
2023-08-08T12:00	13675	153	-43.7	-78.0	196	7
2023-08-08T12:00	13697	153	-43.5	-77.9	198	7
2023-08-08T12:00	13716	152	-43.6	-78.0	201	7
2023-08-08T12:00	13737	152	-43.6	-78.0	205	8
2023-08-08T12:00	13756	151	-43.7	-77.4	210	8
2023-08-08T12:00	13779	151	-43.8	-77.4	214	8
2023-08-08T12:00	13802	150	-43.8	-77.4	217	8
2023-08-08T12:00	13822	150	-43.8	-78.1	219	8
2023-08-08T12:00	13842	149	-43.7	-78.0	219	8
2023-08-08T12:00	13861	149	-43.8	-78.1	219	8
2023-08-08T12:00	13885	149	-43.7	-78.0	218	8
2023-08-08T12:00	13907	148	-43.8	-78.1	218	8
2023-08-08T12:00	13926	148	-43.7	-78.0	219	7
2023-08-08T12:00	13947	147	-43.8	-78.1	220	7
2023-08-08T12:00	13968	147	-43.8	-77.4	221	7
2023-08-08T12:00	13989	146	-44.0	-77.6	221	7
2023-08-08T12:00	14011	146	-44.1	-77.7	220	7
2023-08-08T12:00	14031	145	-44.2	-77.7	220	7
2023-08-08T12:00	14051	145	-44.2	-77.7	220	7
2023-08-08T12:00	14072	144	-44.3	-77.8	220	6
2023-08-08T12:00	14091	144	-44.3	-77.8	221	6
2023-08-08T12:00	14112	144	-44.3	-77.8	221	6
2023-08-08T12:00	14131	143	-44.2	-78.4	220	6
2023-08-08T12:00	14151	143	-44.1	-78.3	218	5
2023-08-08T12:00	14172	142	-44.0	-78.2	215	6
2023-08-08T12:00	14193	142	-43.8	-78.1	212	6
2023-08-08T12:00	14211	141	-43.8	-78.1	210	6
2023-08-08T12:00	14233	141	-43.8	-78.1	209	6
2023-08-08T12:00	14254	141	-43.9	-78.2	210	6
2023-08-08T12:00	14273	140	-44.0	-78.2	212	7
2023-08-08T12:00	14291	140	-44.1	-78.3	215	7
2023-08-08T12:00	14311	139	-44.3	-78.5	218	7
2023-08-08T12:00	14330	139	-44.4	-78.5	220	7
2023-08-08T12:00	14350	139	-44.5	-78.6	222	7
2023-08-08T12:00	14370	138	-44.6	-78.7	224	8
2023-08-08T12:00	14387	138	-44.8	-78.8	226	8
2023-08-08T12:00	14404	137	-44.8	-78.8	228	8
2023-08-08T12:00	14425	137	-44.8	-78.8	230	8
2023-08-08T12:00	14445	137	-44.6	-78.7	233	8
2023-08-08T12:00	14463	136	-44.6	-78.7	236	8
2023-08-08T12:00	14485	136	-44.6	-78.7	240	8
2023-08-08T12:00	14505	135	-44.5	-78.6	245	7
2023-08-08T12:00	14523	135	-44.4	-78.5	249	7
2023-08-08T12:00	14541	135	-44.3	-78.5	254	6
2023-08-08T12:00	14559	134	-44.3	-78.5	257	6
2023-08-08T12:00	14580	134	-44.3	-78.5	260	6
2023-08-08T12:00	14600	133	-44.2	-78.4	261	6
2023-08-08T12:00	14621	133	-44.3	-78.5	263	6
2023-08-08T12:00	14639	133	-44.3	-78.5	266	5
2023-08-08T12:00	14661	132	-44.4	-78.5	270	5
2023-08-08T12:00	14684	132	-44.5	-78.6	276	4
2023-08-08T12:00	14705	131	-44.5	-78.6	282	4
2023-08-08T12:00	14729	131	-44.5	-78.6	287	3
2023-08-08T12:00	14752	130	-44.5	-78.6	289	3
2023-08-08T12:00	14774	130	-44.5	-78.6	288	3
2023-08-08T12:00	14795	130	-44.6	-78.7	285	3
2023-08-08T12:00	14818	129	-44.6	-78.7	281	3
2023-08-08T12:00	14840	129	-44.6	-78.7	278	3
2023-08-08T12:00	14864	128	-44.7	-78.8	276	3
2023-08-08T12:00	14885	128	-44.7	-78.8	275	3
2023-08-08T12:00	14908	127	-44.8	-78.8	274	3
2023-08-08T12:00	14931	127	-44.9	-78.9	271	3
2023-08-08T12:00	14954	127	-45.0	-79.0	265	3
2023-08-08T12:00	14976	126	-45.1	-79.0	256	3
2023-08-08T12:00	14998	126	-45.2	-79.1	243	3
2023-08-08T12:00	15021	125	-45.3	-79.2	231	3
2023-08-08T12:00	15044	125	-45.3	-79.2	222	3
2023-08-08T12:00	15067	124	-45.3	-79.2	214	4
2023-08-08T12:00	15088	124	-45.4	-79.3	207	4
2023-08-08T12:00	15112	124	-45.4	-79.3	201	4
2023-08-08T12:00	15136	123	-45.3	-79.2	193	4
2023-08-08T12:00	15160	123	-45.3	-79.2	183	4
2023-08-08T12:00	15185	122	-45.3	-79.2	172	3
2023-08-08T12:00	15209	122	-45.5	-79.3	161	3
2023-08-08T12:00	15234	121	-45.6		151	3
2023-08-08T12:00	15254	121	-45.6		142	3
2023-08-08T12:00	15276	121	-45.8	-79.6	136	3
2023-08-08T12:00	15300	120	-46.0	-79.7	131	3
2023-08-08T12:00	15320	120	-46.1	-79.8	128	4
2023-08-08T12:00	15343	119	-46.3	-79.9	125	4
2023-08-08T12:00	15365	119	-46.5	-79.4	124	4
2023-08-08T12:00	15387	119	-46.6	-80.1	124	4
2023-08-08T12:00	15410	118	-46.6	-80.1	126	5
2023-08-08T12:00	15428	118	-46.7	-80.2	128	5
2023-08-08T12:00	15451	117	-46.7	-80.2	132	5
2023-08-08T12:00	15471	117	-46.7	-80.2	136	6
2023-08-08T12:00	15493	117	-46.7	-80.2	140	6
2023-08-08T12:00	15512	116	-46.7	-80.2	144	6
2023-08-08T12:00	15533	116	-46.7	-80.2	147	6
2023-08-08T12:00	15553	116	-46.8	-80.3	151	6
2023-08-08T12:00	15574	115	-46.8	-80.3	154	5
2023-08-08T12:00	15595	115	-46.7	-80.2	157	5
2023-08-08T12:00	15613	115	-46.8	-80.3	159	5
2023-08-08T12:00	15636	114	-46.8	-80.3	162	4
2023-08-08T12:00	15655	114	-46.9	-80.4	164	4
2023-08-08T12:00	15676	114	-47.0	-80.4	167	4
2023-08-08T12:00	15698	113	-47.1	-80.5	171	4
2023-08-08T12:00	15715	113	-47.2	-80.6	177	3
2023-08-08T12:00	15736	113	-47.3	-80.6	185	3
2023-08-08T12:00	15758	112	-47.4	-80.7	194	3
2023-08-08T12:00	15780	112	-47.3	-80.6	202	3
2023-08-08T12:00	15800	111	-47.2	-80.6	208	3
2023-08-08T12:00	15822	111	-47.2	-80.6	211	4
2023-08-08T12:00	15844	111	-47.1	-80.5	213	4
2023-08-08T12:00	15863	110	-46.9	-80.4	215	4
2023-08-08T12:00	15884	110	-47.0	-80.4	216	4
2023-08-08T12:00	15904	110	-47.1	-80.5	219	4
2023-08-08T12:00	15925	109	-47.3	-80.6	222	4
2023-08-08T12:00	15948	109	-47.4	-80.7	225	4
2023-08-08T12:00	15967	109	-47.6	-80.9	229	4
2023-08-08T12:00	15989	108	-47.8	-80.4	232	5
2023-08-08T12:00	16011	108	-47.9	-80.4	236	5
2023-08-08T12:00	16032	108	-48.0	-81.2	240	5
2023-08-08T12:00	16055	107	-48.1	-81.2	244	5
2023-08-08T12:00	16078	107	-48.0	-81.2	247	5
2023-08-08T12:00	16100	107	-47.7	-80.9	250	5
2023-08-08T12:00	16121	106	-47.3	-80.6	251	6
2023-08-08T12:00	16143	106	-47.2	-80.6	252	5
2023-08-08T12:00	16168	105	-47.3	-80.6	251	5
2023-08-08T12:00	16189	105	-47.4	-80.7	249	5
2023-08-08T12:00	16212	105	-47.5	-80.8	246	5
2023-08-08T12:00	16234	104	-47.6	-80.9	242	5
2023-08-08T12:00	16256	104	-47.6	-80.9	238	4
2023-08-08T12:00	16277	104	-47.4	-80.7	235	4
2023-08-08T12:00	16298	103	-47.4	-80.7	232	4
2023-08-08T12:00	16320	103	-47.5	-80.8	232	3
2023-08-08T12:00	16342	103	-47.5	-80.8	235	3
2023-08-08T12:00	16363	102	-47.3	-80.6	240	2
2023-08-08T12:00	16386	102	-47.2	-80.6	247	2
2023-08-08T12:00	16405	102	-47.2	-80.6	253	2
2023-08-08T12:00	16428	101	-47.4	-80.7	261	2
2023-08-08T12:00	16449	101	-47.6	-80.9	270	2
2023-08-08T12:00	16474	101	-47.8	-81.0	284	2
2023-08-08T12:00	16492	100	-47.9	-81.1	301	2
2023-08-08T12:00	16515	100	-48.1	-81.2	321	2
2023-08-08T12:00	16538	100	-48.2	-81.3	338	2
2023-08-08T12:00	16561	99	-48.3	-81.4	350	2
2023-08-08T12:00	16581	99	-48.4	-81.4	359	2
2023-08-08T12:00	16602	99	-48.5	-81.5	7	2
2023-08-08T12:00	16627	98	-48.6	-81.6	15	2
2023-08-08T12:00	16647	98	-48.5	-81.5	26	2
2023-08-08T12:00	16668	98	-48.6	-81.6	40	2
2023-08-08T12:00	16692	97	-48.7	-81.0	56	1
2023-08-08T12:00	16715	97	-48.8		72	1
2023-08-08T12:00	16739	97	-49.0	-81.3	87	1
2023-08-08T12:00	16757	96	-49.1	-81.3	102	1
2023-08-08T12:00	16778	96	-49.3	-81.5	114	1
2023-08-08T12:00	16801	96	-49.5	-81.6	123	1
2023-08-08T12:00	16824	95	-49.6	-81.7	128	1
2023-08-08T12:00	16844	95	-49.8	-81.8	129	1
2023-08-08T12:00	16865	95	-49.8	-81.8	127	1
2023-08-08T12:00	16887	95	-50.0	-82.0	124	2
2023-08-08T12:00	16909	94	-50.1	-82.1	124	2
2023-08-08T12:00	16928	94	-50.2	-82.1	127	2
2023-08-08T12:00	16950	94	-50.3	-82.2	134	2
2023-08-08T12:00	16971	93	-50.5	-81.8	147	2
2023-08-08T12:00	16996	93	-50.7		167	2
2023-08-08T12:00	17018	93	-50.8	-82.0	188	2
2023-08-08T12:00	17040	92	-51.0	-82.2	208	2
2023-08-08T12:00	17061	92	-51.1	-82.2	222	2
2023-08-08T12:00	17084	92	-51.1	-82.2	232	3
2023-08-08T12:00	17107	91	-51.1	-82.2	240	3
2023-08-08T12:00	17127	91	-51.2	-82.3	247	3
2023-08-08T12:00	17152	91	-51.2	-82.9	254	3
2023-08-08T12:00	17171	90	-51.2	-82.9	260	4
2023-08-08T12:00	17194	90	-51.2	-82.9	267	4
2023-08-08T12:00	17219	90	-51.2	-82.9	274	4
2023-08-08T12:00	17241	90	-51.1	-82.8	282	4
2023-08-08T12:00	17266	89	-51.1	-82.8	291	4
2023-08-08T12:00	17287	89	-51.2	-82.3	299	4
2023-08-08T12:00	17310	89	-51.4	-82.5	309	4
2023-08-08T12:00	17333	88	-51.4	-82.5	319	4
2023-08-08T12:00	17357	88	-51.4	-83.0	329	4
2023-08-08T12:00	17383	88	-51.5	-83.1	341	4
2023-08-08T12:00	17402	87	-51.5	-82.5	352	4
2023-08-08T12:00	17425	87	-51.5	-82.5	2	4
2023-08-08T12:00	17449	87	-51.5	-82.5	12	4
2023-08-08T12:00	17471	86	-51.7	-82.7	21	3
2023-08-08T12:00	17494	86	-51.9	-82.8	31	3
2023-08-08T12:00	17520	86	-51.8	-82.8	43	3
2023-08-08T12:00	17541	85	-51.7	-82.7	57	3
2023-08-08T12:00	17563	85	-51.7	-82.7	73	2
2023-08-08T12:00	17587	85	-51.7	-82.7	92	2
2023-08-08T12:00	17609	85	-51.8	-82.8	110	2
2023-08-08T12:00	17632	84	-51.8	-83.3	124	2
2023-08-08T12:00	17654	84	-51.8	-83.3	133	2
2023-08-08T12:00	17678	84	-51.8	-83.3	140	2
2023-08-08T12:00	17702	83	-51.6	-83.2	146	2
2023-08-08T12:00	17726	83	-51.3	-82.9	148	2
2023-08-08T12:00	17748	83	-51.3	-82.9	147	2
2023-08-08T12:00	17768	83	-51.1	-82.8	143	2
2023-08-08T12:00	17791	82	-51.1	-82.8	140	2
2023-08-08T12:00	17813	82	-51.2	-82.9	139	3
2023-08-08T12:00	17836	82	-51.4	-83.0	140	4
2023-08-08T12:00	17859	81	-51.5	-83.1	142	4
2023-08-08T12:00	17881	81	-51.7	-83.2	144	5
2023-08-08T12:00	17907	81	-51.6	-83.2	146	5
2023-08-08T12:00	17925	81	-51.4	-83.0	147	6
2023-08-08T12:00	17949	80	-51.4	-83.0	147	6
2023-08-08T12:00	17970	80	-51.5	-83.1	148	6
2023-08-08T12:00	17992	80	-51.5	-83.1	148	5
2023-08-08T12:00	18015	79	-51.6	-83.2	147	5
2023-08-08T12:00	18037	79	-51.7	-83.2	146	4
2023-08-08T12:00	18060	79	-51.8	-83.3	144	4
2023-08-08T12:00	18082	79	-51.8	-83.3	141	3
2023-08-08T12:00	18108	78	-51.9	-83.4	136	3
2023-08-08T12:00	18132	78	-51.9	-83.4	128	2
2023-08-08T12:00	18153	78	-51.9	-83.4	116	2
2023-08-08T12:00	18176	78	-52.0	-83.5	97	2
2023-08-08T12:00	18199	77	-52.1	-83.5	78	2
2023-08-08T12:00	18220	77	-52.1	-83.5	64	2
2023-08-08T12:00	18243	77	-52.1	-83.5	57	2
2023-08-08T12:00	18265	76	-52.2	-83.6	55	2
2023-08-08T12:00	18289	76	-52.4	-83.2	55	3
2023-08-08T12:00	18310	76	-52.4	-83.2	57	3
2023-08-08T12:00	18334	76	-52.4	-83.2	59	3
2023-08-08T12:00	18356	75	-52.5	-83.3	61	3
2023-08-08T12:00	18378	75	-52.6	-83.3	64	3
2023-08-08T12:00	18399	75	-52.8	-83.5	67	4
2023-08-08T12:00	18420	75	-52.9	-83.6	70	4
2023-08-08T12:00	18446	74	-53.1	-83.7	72	4
2023-08-08T12:00	18466	74	-53.2	-83.8	74	5
2023-08-08T12:00	18490	74	-53.3	-83.9	75	5
2023-08-08T12:00	18511	74	-53.4	-83.9	76	6
2023-08-08T12:00	18534	73	-53.5	-84.0	77	6
2023-08-08T12:00	18559	73	-53.6	-84.1	79	6
2023-08-08T12:00	18581	73	-53.8	-83.7	80	7
2023-08-08T12:00	18600	73	-53.9	-84.3	83	7
2023-08-08T12:00	18622	72	-53.9	-84.3	85	8
2023-08-08T12:00	18644	72	-53.9	-84.3	88	8
2023-08-08T12:00	18667	72	-53.8	-84.2	91	8
2023-08-08T12:00	18689	72	-53.5	-84.6	95	9
2023-08-08T12:00	18712	71	-53.0	-84.2	98	9
2023-08-08T12:00	18734	71	-52.8	-84.1	100	9
2023-08-08T12:00	18755	71	-52.6	-83.9	103	9
2023-08-08T12:00	18776	71	-52.6	-83.9	105	9
2023-08-08T12:00	18800	70	-52.7	-84.0	108	9
2023-08-08T12:00	18821	70	-52.8	-84.1	111	9
2023-08-08T12:00	18843	70	-52.8	-84.1	114	9
2023-08-08T12:00	18866	70	-52.7	-84.0	118	9
2023-08-08T12:00	18886	69	-52.8	-84.1	122	9
2023-08-08T12:00	18910	69	-52.8	-84.1	125	9
2023-08-08T12:00	18932	69	-52.8	-84.1	128	9
2023-08-08T12:00	18955	69	-53.0	-83.6	131	9
2023-08-08T12:00	18980	68	-53.2	-83.8	133	8
2023-08-08T12:00	19003	68	-53.0	-84.2	135	8
2023-08-08T12:00	19026	68	-53.0	-84.2	137	8
2023-08-08T12:00	19050	68	-52.9	-84.1	138	7
2023-08-08T12:00	19076	67	-52.6	-83.9	139	6
2023-08-08T12:00	19098	67	-52.4	-84.4	139	6
2023-08-08T12:00	19120	67	-52.1	-84.2	139	5
2023-08-08T12:00	19143	67	-51.9	-84.0	140	5
2023-08-08T12:00	19168	66	-51.9	-84.0	141	5
2023-08-08T12:00	19193	66	-51.9	-84.0	144	4
2023-08-08T12:00	19217	66	-51.9	-84.0	149	4
2023-08-08T12:00	19240	66	-51.8	-83.3	156	3
2023-08-08T12:00	19262	65	-51.9	-83.4	165	3
2023-08-08T12:00	19287	65	-52.0	-83.5	171	3
2023-08-08T12:00	19314	65	-52.0	-84.1	175	3
2023-08-08T12:00	19336	65	-51.8	-83.9	177	3
2023-08-08T12:00	19364	64	-51.4	-83.6	176	3
2023-08-08T12:00	19387	64	-51.1	-83.4	172	3
2023-08-08T12:00	19411	64	-51.0	-83.3	165	3
2023-08-08T12:00	19435	64	-51.1	-83.4	155	2
2023-08-08T12:00	19454	64	-51.3	-83.6	147	3
2023-08-08T12:00	19479	63	-51.3	-83.6	140	3
2023-08-08T12:00	19506	63	-51.4	-83.6	135	3
2023-08-08T12:00	19528	63	-51.6	-83.2	132	3
2023-08-08T12:00	19552	63	-51.7	-83.2	130	4
2023-08-08T12:00	19579	62	-51.8	-83.3	128	4
2023-08-08T12:00	19601	62	-52.0	-83.5	125	5
2023-08-08T12:00	19628	62	-52.1	-83.5	122	5
2023-08-08T12:00	19652	62	-52.0	-83.5	118	6
2023-08-08T12:00	19671	61	-51.9	-83.4	113	6
2023-08-08T12:00	19697	61	-51.9	-84.0	110	7
2023-08-08T12:00	19719	61	-51.8	-83.9	108	7
2023-08-08T12:00	19742	61	-51.6	-83.8	108	6
2023-08-08T12:00	19767	61	-51.6	-83.8	110	6
2023-08-08T12:00	19791	60	-51.5	-83.7	114	6
2023-08-08T12:00	19815	60	-51.4	-83.6	120	5
2023-08-08T12:00	19838	60	-51.4	-83.6	128	5
2023-08-08T12:00	19860	60	-51.3	-83.6	135	5
2023-08-08T12:00	19886	60	-51.3	-83.6	141	5
2023-08-08T12:00	19905	59	-51.2	-83.5	146	5
2023-08-08T12:00	19931	59	-51.3	-83.6	150	5
2023-08-08T12:00	19952	59	-51.4	-83.6	155	5
2023-08-08T12:00	19979	59	-51.5	-83.7	159	5
2023-08-08T12:00	20000	58	-51.6	-83.2	163	5
2023-08-08T12:00	20025	58	-51.7	-83.2	166	6
2023-08-08T12:00	20049	58	-51.7	-83.2	166	6
2023-08-08T12:00	20072	58	-51.7	-83.9	165	6
2023-08-08T12:00	20095	58	-51.7	-83.9	161	6
2023-08-08T12:00	20116	57	-51.7	-83.9	155	5
2023-08-08T12:00	20139	57	-51.4	-83.6	148	5
2023-08-08T12:00	20162	57	-51.1	-83.4	141	5
2023-08-08T12:00	20187	57	-51.0	-83.3	134	5
2023-08-08T12:00	20208	57	-51.0	-83.3	128	5
2023-08-08T12:00	20233	56	-51.0	-83.3	122	5
2023-08-08T12:00	20255	56	-51.1	-83.4	116	6
2023-08-08T12:00	20282	56	-51.2	-83.5	112	6
2023-08-08T12:00	20306	56	-51.3	-83.6	109	6
2023-08-08T12:00	20329	56	-51.1	-83.4	108	7
2023-08-08T12:00	20352	55	-50.9	-83.3	109	7
2023-08-08T12:00	20376	55	-50.7	-83.1	111	7
2023-08-08T12:00	20396	55	-50.7	-83.1	113	6
2023-08-08T12:00	20422	55	-50.7	-83.1	115	6
2023-08-08T12:00	20447	55	-50.6	-83.1	117	6
2023-08-08T12:00	20472	54	-50.4	-82.9	119	5
2023-08-08T12:00	20494	54	-50.4	-82.9	121	5
2023-08-08T12:00	20520	54	-50.4	-82.9	122	5
2023-08-08T12:00	20543	54	-50.4	-82.9	122	5
2023-08-08T12:00	20569	54	-50.4	-82.9	122	5
2023-08-08T12:00	20591	53	-50.3	-82.8	121	6
2023-08-08T12:00	20617	53	-50.1	-82.7	120	7
2023-08-08T12:00	20641	53	-50.2	-82.8	119	8
2023-08-08T12:00	20663	53	-50.3	-82.8	119	8
2023-08-08T12:00	20685	53	-50.2	-82.8	120	8
2023-08-08T12:00	20715	52	-50.1	-82.7	121	8
2023-08-08T12:00	20737	52	-50.1	-82.7	122	8
2023-08-08T12:00	20760	52	-50.2	-82.8	123	7
2023-08-08T12:00	20786	52	-50.3	-82.8	124	7
2023-08-08T12:00	20808	52	-50.3	-82.8	123	6
2023-08-08T12:00	20836	51	-50.1	-82.7	122	6
2023-08-08T12:00	20863	51	-50.0	-82.6	121	6
2023-08-08T12:00	20884	51	-50.1	-82.7	120	6
2023-08-08T12:00	20906	51	-50.2	-82.8	118	6
2023-08-08T12:00	20932	51	-50.2	-82.8	116	5
2023-08-08T12:00	20960	50	-50.4	-82.9	114	5
2023-08-08T12:00	20983	50	-50.6	-83.1	112	5
2023-08-08T12:00	21006	50	-50.7	-83.1	109	5
2023-08-08T12:00	21028	50	-50.8	-83.2	106	5
2023-08-08T12:00	21051	50	-50.9	-83.3	103	5
2023-08-08T12:00	21080	50	-51.0	-83.3	99	5
2023-08-08T12:00	21103	49	-51.1	-83.4	97	6
2023-08-08T12:00	21125	49	-51.1	-83.4	95	6
2023-08-08T12:00	21146	49	-51.1	-83.4	95	6
2023-08-08T12:00	21173	49	-51.1	-83.4	96	7
2023-08-08T12:00	21194	49	-51.1	-83.4	97	7
2023-08-08T12:00	21219	48	-51.1	-83.4	99	7
2023-08-08T12:00	21246	48	-51.2	-83.5	102	7
2023-08-08T12:00	21271	48	-51.3	-83.6	104	8
2023-08-08T12:00	21294	48	-51.4	-83.0	107	8
2023-08-08T12:00	21315	48	-51.6	-83.2	109	8
2023-08-08T12:00	21341	48	-51.7	-83.2	111	8
2023-08-08T12:00	21364	47	-51.8	-83.3	112	8
2023-08-08T12:00	21390	47	-51.7	-83.2	115	8
2023-08-08T12:00	21412	47	-51.7	-83.2	118	8
2023-08-08T12:00	21438	47	-51.7	-83.2	122	8
2023-08-08T12:00	21460	47	-51.7	-83.9	126	8
2023-08-08T12:00	21487	47	-51.7	-83.9	129	8
2023-08-08T12:00	21509	46	-51.7	-83.9	132	8
2023-08-08T12:00	21534	46	-51.8	-83.9	133	8
2023-08-08T12:00	21555	46	-51.9	-84.0	132	7
2023-08-08T12:00	21582	46	-51.8	-83.9	131	6
2023-08-08T12:00	21606	46	-51.7	-83.9	130	5
2023-08-08T12:00	21632	46	-51.6	-83.8	128	5
2023-08-08T12:00	21654	45	-51.6	-83.8	125	4
2023-08-08T12:00	21678	45	-51.6	-83.8	119	3
2023-08-08T12:00	21704	45	-51.7	-83.9	108	3
2023-08-08T12:00	21728	45	-51.7	-83.9	91	3
2023-08-08T12:00	21755	45	-51.8	-83.9	73	3
2023-08-08T12:00	21778	44	-51.8	-83.9	61	3
2023-08-08T12:00	21804	44	-51.8	-83.3	54	4
2023-08-08T12:00	21831	44	-52.0	-83.5	51	5
2023-08-08T12:00	21851	44	-52.2	-83.6	50	6
2023-08-08T12:00	21882	44	-52.3	-83.7	51	7
2023-08-08T12:00	21905	44	-52.2	-83.6	53	8
2023-08-08T12:00	21924	43	-52.2	-83.6	55	8
2023-08-08T12:00	21951	43	-52.3	-83.7	59	8
2023-08-08T12:00	21977	43	-52.4	-83.8	62	8
2023-08-08T12:00	22000	43	-52.2	-84.2	67	8
2023-08-08T12:00	22023	43	-52.0	-84.1	71	8
2023-08-08T12:00	22055	43	-52.0	-84.1	77	7
2023-08-08T12:00	22079	42	-52.1	-83.5	83	7
2023-08-08T12:00	22106	42	-52.4	-83.8	90	6
2023-08-08T12:00	22132	42	-52.5	-83.8	98	6
2023-08-08T12:00	22159	42	-52.6	-83.9	106	6
2023-08-08T12:00	22186	42	-52.8	-84.1	113	6
2023-08-08T12:00	22213	42	-52.9	-84.1	120	6
2023-08-08T12:00	22236	41	-52.7	-84.0	125	6
2023-08-08T12:00	22263	41	-52.7	-84.0	128	6
2023-08-08T12:00	22291	41	-52.7	-84.0	130	6
2023-08-08T12:00	22315	41	-52.7	-84.6	130	5
2023-08-08T12:00	22344	41	-52.4	-84.4	127	4
2023-08-08T12:00	22370	41	-52.1	-84.2	120	4
2023-08-08T12:00	22392	40	-51.7	-83.9	107	4
2023-08-08T12:00	22416	40	-51.4	-84.3	91	4
2023-08-08T12:00	22447	40	-51.2	-84.2	77	4
2023-08-08T12:00	22474	40	-51.0	-84.0	68	5
2023-08-08T12:00	22499	40	-50.9	-84.0	64	6
2023-08-08T12:00	22529	40	-50.9	-84.0	61	6
2023-08-08T12:00	22556	39	-50.8	-83.9	60	7
2023-08-08T12:00	22585	39	-50.5	-83.7	60	7
2023-08-08T12:00	22607	39	-50.6	-83.7	60	8
2023-08-08T12:00	22633	39	-50.7	-83.1	62	8
2023-08-08T12:00	22661	39	-50.8	-83.2	64	9
2023-08-08T12:00	22687	39	-50.8	-83.2	66	9
2023-08-08T12:00	22715	39	-50.8	-83.2	67	10
2023-08-08T12:00	22742	38	-50.9	-83.3	69	10
2023-08-08T12:00	22767	38	-50.9	-83.3	70	10
2023-08-08T12:00	22790	38	-51.0	-83.3	72	10
2023-08-08T12:00	22821	38	-51.2	-83.5	75	10
2023-08-08T12:00	22848	38	-51.3	-83.6	78	10
2023-08-08T12:00	22873	38	-51.4	-83.6	81	10
2023-08-08T12:00	22901	37	-51.5	-83.7	85	10
2023-08-08T12:00	22924	37	-51.7	-83.2	88	10
2023-08-08T12:00	22948	37	-51.9	-83.4	90	10
2023-08-08T12:00	22968	37	-52.1	-83.5	93	10
2023-08-08T12:00	22999	37	-52.2	-83.6	94	9
2023-08-08T12:00	23020	37	-52.2	-83.6	94	9
2023-08-08T12:00	23045	37	-52.1	-83.5	94	9
2023-08-08T12:00	23068	36	-52.1	-84.2	92	8
2023-08-08T12:00	23095	36	-52.0	-84.1	89	8
2023-08-08T12:00	23117	36	-51.9	-84.0	86	8
2023-08-08T12:00	23148	36	-52.0	-84.1	83	7
2023-08-08T12:00	23171	36	-52.1	-84.2	80	7
2023-08-08T12:00	23193	36	-52.0	-84.1	78	7
2023-08-08T12:00	23221	36	-52.0	-84.1	78	8
2023-08-08T12:00	23245	36	-51.9	-84.0	78	9
2023-08-08T12:00	23266	35	-51.8	-83.9	80	10
2023-08-08T12:00	23288	35	-51.8	-83.9	82	10
2023-08-08T12:00	23313	35	-51.8	-83.9	84	11
2023-08-08T12:00	23341	35	-51.7	-83.9	87	12
2023-08-08T12:00	23363	35	-51.6	-83.8	89	12
2023-08-08T12:00	23392	35	-51.7	-83.9	90	13
2023-08-08T12:00	23413	35	-51.6	-83.8	92	13
2023-08-08T12:00	23429	34	-51.5	-83.7	93	13
2023-08-08T12:00	23459	34	-51.3	-83.6	94	13
2023-08-08T12:00	23483	34	-51.0	-83.3	95	13
2023-08-08T12:00	23510	34	-51.0	-83.3	98	13
2023-08-08T12:00	23536	34	-51.1	-83.4	101	13
2023-08-08T12:00	23559	34	-51.3	-83.6	105	12
2023-08-08T12:00	23585	34	-51.3	-83.6	108	12
2023-08-08T12:00	23608	34	-51.2	-83.5	112	12
2023-08-08T12:00	23636	33	-51.2	-83.5	116	12
2023-08-08T12:00	23659	33	-51.3	-83.6	118	11
2023-08-08T12:00	23685	33	-51.4	-83.6	120	11
2023-08-08T12:00	23708	33	-51.5	-83.7	121	11
2023-08-08T12:00	23732	33	-51.3	-83.6	120	11
2023-08-08T12:00	23760	33	-51.0	-83.3	118	10
2023-08-08T12:00	23789	33	-50.9	-83.3	116	10
2023-08-08T12:00	23817	33	-50.9	-83.3	114	10
2023-08-08T12:00	23845	32	-51.0	-83.3	113	10
2023-08-08T12:00	23875	32	-51.0	-83.3	112	10
2023-08-08T12:00	23898	32	-51.1	-83.4	113	10
2023-08-08T12:00	23927	32	-51.3	-83.6	114	10
2023-08-08T12:00	23948	32	-51.3	-83.6	115	10
2023-08-08T12:00	23977	32	-51.2	-83.5	117	10
2023-08-08T12:00	24007	32	-50.9	-84.0	119	10
2023-08-08T12:00	24031	31	-50.7	-83.8	121	10
2023-08-08T12:00	24057	31	-50.7	-83.8	123	9
2023-08-08T12:00	24085	31	-50.7	-83.8	125	9
2023-08-08T12:00	24117	31	-50.5	-83.7	125	9
2023-08-08T12:00	24142	31	-50.3	-83.5	123	8
2023-08-08T12:00	24166	31	-50.1	-83.4	120	8
2023-08-08T12:00	24197	31	-49.9	-83.2	116	8
2023-08-08T12:00	24218	31	-50.0	-83.3	113	8
2023-08-08T12:00	24252	30	-50.1	-83.4	112	9
2023-08-08T12:00	24278	30	-50.3	-83.5	110	9
2023-08-08T12:00	24301	30	-50.4	-82.9	109	9
2023-08-08T12:00	24331	30	-50.5	-83.0	108	9
2023-08-08T12:00	24357	30	-50.6	-83.1	107	9
2023-08-08T12:00	24386	30	-50.7	-83.1	106	10
2023-08-08T12:00	24411	30	-50.7	-83.1	105	10
2023-08-08T12:00	24443	30	-50.7	-83.1	106	10
2023-08-08T12:00	24469	29	-50.7	-83.1	107	10
2023-08-08T12:00	24497	29	-50.6	-83.1	109	10
2023-08-08T12:00	24524	29	-50.6	-83.7	112	10
2023-08-08T12:00	24552	29	-50.7	-83.1	116	10
2023-08-08T12:00	24574	29	-50.7	-83.1	120	10
2023-08-08T12:00	24596	29	-50.8	-83.2	124	9
2023-08-08T12:00	24627	29	-50.9	-83.3	128	9
2023-08-08T12:00	24649	29	-51.0	-83.3	132	9
2023-08-08T12:00	24681	28	-51.0	-83.3	135	9
2023-08-08T12:00	24705	28	-51.1	-83.4	137	9
2023-08-08T12:00	24731	28	-51.1	-83.4	138	9
2023-08-08T12:00	24760	28	-51.0	-84.0	138	9
2023-08-08T12:00	24784	28	-50.8	-83.9	139	9
2023-08-08T12:00	24813	28	-50.7	-83.8	140	9
2023-08-08T12:00	24837	28	-50.7	-83.8	141	9
2023-08-08T12:00	24864	28	-50.7	-83.8	143	9
2023-08-08T12:00	24880	28	-50.8	-83.2	144	9
2023-08-08T12:00	24921	27	-50.9	-83.3	146	9
2023-08-08T12:00	24939	27	-51.0	-83.3	147	9
2023-08-08T12:00	24974	27	-51.1	-83.4	148	9
2023-08-08T12:00	24999	27	-51.3	-83.6	148	8
2023-08-08T12:00	25025	27	-51.4	-83.6	148	8
2023-08-08T12:00	25052	27	-51.4	-83.6	146	7
2023-08-08T12:00	25081	27	-51.4	-83.6	141	6
2023-08-08T12:00	25105	27	-51.4	-83.6	133	5
2023-08-08T12:00	25129	27	-51.3	-83.6	123	5
2023-08-08T12:00	25159	26	-51.1	-84.1	112	5
2023-08-08T12:00	25184	26	-50.9	-84.0	105	6
2023-08-08T12:00	25212	26	-50.9	-84.0	100	6
2023-08-08T12:00	25240	26	-51.0	-84.0	99	7
2023-08-08T12:00	25269	26	-51.0	-83.3	99	7
2023-08-08T12:00	25295	26	-51.0	-83.3	100	8
2023-08-08T12:00	25321	26	-51.1	-83.4	103	8
2023-08-08T12:00	25352	26	-51.2	-83.5	106	8
2023-08-08T12:00	25375	26	-51.3	-83.6	108	8
2023-08-08T12:00	25401	25	-51.4	-83.6	110	8
2023-08-08T12:00	25427	25	-51.3	-83.6	111	9
2023-08-08T12:00	25460	25	-51.1	-84.1	110	9
2023-08-08T12:00	25487	25	-50.9	-84.0	110	8
2023-08-08T12:00	25512	25	-50.9	-84.0	110	8
2023-08-08T12:00	25540	25	-50.7	-83.8	111	8
2023-08-08T12:00	25563	25	-50.7	-83.8	114	8
2023-08-08T12:00	25593	25	-50.7	-83.8	117	7
2023-08-08T12:00	25617	25	-50.7	-83.8	120	7
2023-08-08T12:00	25651	25	-50.7	-83.8	120	6
2023-08-08T12:00	25675	24	-50.7	-83.8	118	6
2023-08-08T12:00	25701	24	-50.7	-83.8	114	6
2023-08-08T12:00	25736	24	-50.7	-83.8	109	6
2023-08-08T12:00	25756	24	-50.7	-83.8	103	5
2023-08-08T12:00	25781	24	-50.7	-83.8	98	5
2023-08-08T12:00	25817	24	-50.8	-83.9	93	5
2023-08-08T12:00	25849	24	-50.9	-84.0	89	5
2023-08-08T12:00	25873	24	-51.1	-83.4	85	5
2023-08-08T12:00	25909	24	-51.3	-83.6	82	5
2023-08-08T12:00	25932	23	-51.2	-84.2	81	6
2023-08-08T12:00	25963	23	-51.0	-84.0	82	7
2023-08-08T12:00	25996	23	-50.8	-83.9	84	7
2023-08-08T12:00	26026	23	-50.6	-83.7	88	8
2023-08-08T12:00	26050	23	-50.6	-83.7	92	8
2023-08-08T12:00	26082	23	-50.7	-83.8	96	9
2023-08-08T12:00	26104	23	-50.8	-83.9	99	9
2023-08-08T12:00	26135	23	-50.9	-84.0	101	9
2023-08-08T12:00	26161	23	-50.8	-83.9	101	9
2023-08-08T12:00	26188	23	-50.7	-83.8	98	8
2023-08-08T12:00	26219	22	-50.5	-83.7	92	8
2023-08-08T12:00	26243	22	-50.2	-83.5	84	8
2023-08-08T12:00	26272	22	-50.0	-83.3	76	8
2023-08-08T12:00	26300	22	-49.9	-84.0	69	8
2023-08-08T12:00	26326	22	-49.8	-84.0	65	9
2023-08-08T12:00	26350	22	-49.8	-84.0	62	9
2023-08-08T12:00	26380	22	-49.7	-83.1	62	10
2023-08-08T12:00	26406	22	-49.8	-83.2	62	10
2023-08-08T12:00	26437	22	-49.7	-83.1	64	10
2023-08-08T12:00	26462	22	-49.7	-83.1	67	10
2023-08-08T12:00	26494	22	-49.6	-83.0	71	10
2023-08-08T12:00	26508	21	-49.5	-83.7	74	10
2023-08-08T12:00	26535	21	-49.4	-82.9	78	10
2023-08-08T12:00	26567	21	-49.4	-82.9	82	10
2023-08-08T12:00	26589	21	-49.5	-82.9	85	10
2023-08-08T12:00	26606	21	-49.6	-83.0	89	9
2023-08-08T12:00	26642	21	-49.6	-83.0	93	9
2023-08-08T12:00	26660	21	-49.6	-83.0	95	9
2023-08-08T12:00	26684	21	-49.6	-83.0	97	9
2023-08-08T12:00	26712	21	-49.4	-83.7	99	9
2023-08-08T12:00	26740	21	-49.3	-83.6	100	10
2023-08-08T12:00	26765	21	-49.2	-83.5	100	10
2023-08-08T12:00	26795	21	-49.2	-83.5	101	10
2023-08-08T12:00	26825	21	-49.2	-83.5	101	10
2023-08-08T12:00	26848	20	-49.3	-83.6	102	10
2023-08-08T12:00	26868	20	-49.3	-82.8	102	10
2023-08-08T12:00	26903	20	-49.3	-82.8	103	9
2023-08-08T12:00	26926	20	-49.2	-82.7	102	9
2023-08-08T12:00	26961	20	-49.4	-82.9	101	9
2023-08-08T12:00	26977	20	-49.5	-82.9	98	9
2023-08-08T12:00	27003	20	-49.4	-82.9	95	9
2023-08-08T12:00	27037	20	-49.2	-83.5	93	9
2023-08-08T12:00	27062	20	-49.1	-83.4	92	9
2023-08-08T12:00	27093	20	-49.2	-83.5	93	9
2023-08-08T12:00	27119	20	-49.2	-83.5	95	9
2023-08-08T12:00	27146	20	-49.2	-83.5	96	9
2023-08-08T12:00	27166	19	-49.1	-83.4	97	9
2023-08-08T12:00	27204	19	-49.0	-83.4	98	9
2023-08-08T12:00	27222	19	-49.0	-83.4	99	9
2023-08-08T12:00	27251	19	-49.1	-83.4	100	9
2023-08-08T12:00	27268	19	-49.1	-82.7	102	9
2023-08-08T12:00	27301	19	-49.2	-82.7	105	9
2023-08-08T12:00	27333	19	-49.1	-82.7	109	9
2023-08-08T12:00	27358	19	-49.1	-83.4	112	9
2023-08-08T12:00	27381	19	-49.1	-83.4	116	9
2023-08-08T12:00	27420	19	-49.0	-83.4	119	9
2023-08-08T12:00	27453	19	-49.0	-83.4	121	8
2023-08-08T12:00	27468	19	-49.0	-83.4	121	7
2023-08-08T12:00	27492	19	-49.0	-83.4	120	6
2023-08-08T12:00	27524	18	-48.9	-83.3	116	6
2023-08-08T12:00	27554	18	-48.8	-83.2	109	5
2023-08-08T12:00	27584	18	-48.6	-83.1	101	5
2023-08-08T12:00	27601	18	-48.5	-83.0	93	5
2023-08-08T12:00	27632	18	-48.5	-83.0	85	6
2023-08-08T12:00	27671	18	-48.6	-83.1	79	6
2023-08-08T12:00	27705	18	-48.7	-83.2	75	7
2023-08-08T12:00	27719	18	-48.7	-83.2	72	8
2023-08-08T12:00	27757	18	-48.5	-83.0	71	9
2023-08-08T12:00	27779	18	-48.3	-82.9	70	10
2023-08-08T12:00	27803	18	-48.3	-82.9	71	10
2023-08-08T12:00	27838	18	-48.2	-82.8	72	11
2023-08-08T12:00	27862	18	-48.2	-82.8	74	12
2023-08-08T12:00	27887	17	-48.3	-82.9	76	12
2023-08-08T12:00	27914	17	-48.2	-82.8	79	12
2023-08-08T12:00	27945	17	-48.1	-82.7	83	11
2023-08-08T12:00	27975	17	-48.1	-82.7	88	11
2023-08-08T12:00	27994	17	-48.1	-82.7	92	11
2023-08-08T12:00	28025	17	-48.0	-82.7	95	10
2023-08-08T12:00	28052	17	-47.7	-83.4	96	10
2023-08-08T12:00	28080	17	-47.4	-83.1	96	10
2023-08-08T12:00	28104	17	-47.1	-82.9	94	9
2023-08-08T12:00	28125	17	-46.9	-82.8	92	9
2023-08-08T12:00	28159	17	-46.8	-82.7	90	9
2023-08-08T12:00	28193	17	-46.6	-82.6	88	9
2023-08-08T12:00	28221	17	-46.5	-82.5	87	9
2023-08-08T12:00	28243	17	-46.4	-82.4	87	10
2023-08-08T12:00	28266	16	-46.3	-82.4	87	10
2023-08-08T12:00	28295	16	-46.2	-82.3	87	11
2023-08-08T12:00	28326	16	-46.2	-82.3	88	12
2023-08-08T12:00	28347	16	-46.1	-82.2	88	13
2023-08-08T12:00	28370	16	-46.0	-82.1	88	13
2023-08-08T12:00	28400	16	-45.9	-82.1	88	14
2023-08-08T12:00	28432	16	-45.8	-82.0	89	14
2023-08-08T12:00	28463	16	-45.7	-81.9	89	14
2023-08-08T12:00	28496	16	-45.5	-81.8	91	14
2023-08-08T12:00	28524	16	-45.0	-81.4	93	14
2023-08-08T12:00	28541	16	-44.7	-81.2	96	14
2023-08-08T12:00	28579	16	-44.6	-81.2	99	14
2023-08-08T12:00	28595	16	-44.6	-81.2	102	14
2023-08-08T12:00	28621	16	-44.6	-81.2	104	14
2023-08-08T12:00	28662	16	-44.5	-81.1	106	15
2023-08-08T12:00	28678	15	-44.5	-81.1	107	15
2023-08-08T12:00	28711	15	-44.5	-81.1	108	15
2023-08-08T12:00	28728	15	-44.4	-81.0	108	15
2023-08-08T12:00	28767	15	-44.3	-80.9	109	14
2023-08-08T12:00	28798	15	-44.2	-80.9	109	14
2023-08-08T12:00	28831	15	-44.3	-80.9	109	14
2023-08-08T12:00	28850	15	-44.3	-80.9	110	13
2023-08-08T12:00	28877	15	-44.3	-80.9	111	13
2023-08-08T12:00	28908	15	-44.2	-80.9	112	13
2023-08-08T12:00	28930	15	-44.2	-80.9	113	14
2023-08-08T12:00	28957	15	-44.2	-80.9	114	14
2023-08-08T12:00	28988	15	-44.2	-80.9	114	14
2023-08-08T12:00	29006	15	-44.3	-80.9	114	14
2023-08-08T12:00	29047	15	-44.3	-80.9	113	14
2023-08-08T12:00	29068	15	-44.2	-80.9	111	15
2023-08-08T12:00	29107	15	-44.0	-80.7	108	14
2023-08-08T12:00	29129	14	-43.8	-81.7	106	14
2023-08-08T12:00	29164	14	-43.7	-81.6	105	14
2023-08-08T12:00	29174	14	-43.5	-81.5	104	14
2023-08-08T12:00	29217	14	-43.4	-81.4	104	14
2023-08-08T12:00	29243	14	-43.2	-81.3	104	13
2023-08-08T12:00	29256	14	-43.2	-81.3	104	13
2023-08-08T12:00	29300	14	-43.2	-81.3	104	13
2023-08-08T12:00	29322	14	-43.0	-81.1	103	13
2023-08-08T12:00	29346	14	-42.8	-81.0	103	12
2023-08-08T12:00	29377	14	-42.6	-80.8	103	12
2023-08-08T12:00	29407	14	-42.4	-80.7	103	12
2023-08-08T12:00	29433	14	-42.2	-80.6	103	12
2023-08-08T12:00	29469	14	-42.1	-80.5	104	12
2023-08-08T12:00	29483	14	-42.0	-80.4	105	12
2023-08-08T12:00	29518	14	-42.0	-80.4	106	12
2023-08-08T12:00	29547	14	-41.9	-80.4	106	13
2023-08-08T12:00	29575	14	-41.7	-80.2	106	13
2023-08-08T12:00	29586	14	-41.6	-80.1	106	14
2023-08-08T12:00	29625	13	-41.6	-80.1	105	14
2023-08-08T12:00	29644	13	-41.6	-80.1	105	14
2023-08-08T12:00	29675	13	-41.7	-80.2	106	14
2023-08-08T12:00	29701	13	-41.8	-80.3	106	14
2023-08-08T12:00	29731	13	-41.9	-80.4	106	14
2023-08-08T12:00	29751	13	-42.1	-80.5	106	14
2023-08-08T12:00	29799	13	-42.2	-80.6	106	14
2023-08-08T12:00	29834	13	-42.2	-80.6	105	15
2023-08-08T12:00	29859	13	-42.2	-80.6	104	15
2023-08-08T12:00	29885	13	-42.1	-80.5	104	16
2023-08-08T12:00	29910	13	-42.1	-80.5	104	16
2023-08-08T12:00	29942	13	-42.1	-80.5	105	16
2023-08-08T12:00	29969	13	-42.1	-80.5	106	17
2023-08-08T12:00	29991	13	-42.1	-80.5	107	17
2023-08-08T12:00	30030	13	-42.0	-80.4	109	16
2023-08-08T12:00	30060	13	-41.9	-80.4	111	16
2023-08-08T12:00	30080	13	-41.8	-80.3	113	16
2023-08-08T12:00	30112	13	-41.7	-80.2	116	15
2023-08-08T12:00	30141	12	-41.7	-80.2	118	15
2023-08-08T12:00	30168	12	-41.8	-80.3	121	15
2023-08-08T12:00	30202	12	-41.9	-80.4	124	14
2023-08-08T12:00	30223	12	-41.9	-80.4	126	14
2023-08-08T12:00	30255	12	-41.9	-80.4	128	14
2023-08-08T12:00	30287	12	-41.9	-80.4	131	13
2023-08-08T12:00	30311	12	-41.9	-80.4	133	13
2023-08-08T12:00	30337	12	-41.9	-80.4	134	12
2023-08-08T12:00	30367	12	-41.9	-80.4	134	11
2023-08-08T12:00	30395	12	-41.9	-80.4	134	11
2023-08-08T12:00	30420	12	-41.8	-80.3	133	11
2023-08-08T12:00	30442	12	-41.6	-80.1	132	10
2023-08-08T12:00	30479	12	-41.5	-80.1	132	10
2023-08-08T12:00	30502	12	-41.4	-80.0	132	10
2023-08-08T12:00	30527	12	-41.5	-80.1	132	11
2023-08-08T12:00	30562	12	-41.5	-80.1	132	11
2023-08-08T12:00	30589	12	-41.5	-80.1	132	11
2023-08-08T12:00	30615	12	-41.4	-80.0	132	11
2023-08-08T12:00	30642	12	-41.4	-80.0	131	12
2023-08-08T12:00	30670	12	-41.4	-80.0	130	12
2023-08-08T12:00	30705	11	-41.3	-79.9	128	12
2023-08-08T12:00	30721	11	-41.2	-79.9	127	12
2023-08-08T12:00	30765	11	-41.0	-79.7	127	12
2023-08-08T12:00	30772	11	-40.8	-79.6	128	11
2023-08-08T12:00	30801	11	-40.5	-79.4	131	11
2023-08-08T12:00	30828	11	-40.2	-79.2	134	10
2023-08-08T12:00	30846	11	-39.9	-79.0	138	9
2023-08-08T12:00	30877	11	-39.6	-78.8	141	9
2023-08-08T12:00	30920	11	-39.4	-78.6	145	8
2023-08-08T12:00	30939	11	-39.2	-78.5	148	7
2023-08-08T12:00	30958	11	-39.0	-78.3	151	7
2023-08-08T12:00	30994	11	-38.9	-78.3	154	6
2023-08-08T12:00	31022	11	-38.8	-78.2	156	6
2023-08-08T12:00	31048	11	-38.6	-78.1	157	5
2023-08-08T12:00	31060	11	-38.4	-77.9	153	5
2023-08-08T12:00	31090	11	-38.4	-77.9	145	4
2023-08-08T12:00	31121	11	-38.2	-77.8	133	4
2023-08-08T12:00	31147	11	-37.8	-77.5	119	5
2023-08-08T12:00	31168	11	-37.6	-77.4	108	5
2023-08-08T12:00	31189	11	-37.4	-77.2	99	6
2023-08-08T12:00	31210	11	-37.2	-77.1	92	6
2023-08-08T12:00	31245	11	-37.0	-77.0	86	6
2023-08-08T12:00	31277	11	-36.7	-76.7	80	6
2023-08-08T12:00	31295	11	-36.5	-76.6	76	5
2023-08-08T12:00	31324	11	-36.4	-76.5	72	5
2023-08-08T12:00	31348	10	-36.3	-76.5	71	5
2023-08-08T12:00	31362	10	-36.3	-76.5	72	4
2023-08-08T12:00	31384	10	-36.3	-76.5	73	4
2023-08-08T12:00	31421	10	-36.3	-76.5	74	4
2023-08-08T12:00	31449	10	-36.3	-76.5	73	3
2023-08-08T12:00	31474	10	-36.3	-76.5	69	3
2023-08-08T12:00	31511	10	-36.1	-76.3	65	4
2023-08-08T12:00	31530	10	-35.9	-76.2	63	4
2023-08-08T12:00	31555	10	-35.6	-76.0	63	4
2023-08-08T12:00	31589	10	-35.3	-75.8	66	5
2023-08-08T12:00	31603	10	-35.3	-75.8	69	5
2023-08-08T12:00	31635	10	-35.2	-75.7	71	6
2023-08-08T12:00	31662	10	-35.2	-75.7	73	7
2023-08-08T12:00	31687	10	-35.2	-75.7	73	7
2023-08-08T12:00	31731	10	-35.3	-75.8	73	8
2023-08-08T12:00	31757	10	-35.4	-75.8	74	8
2023-08-08T12:00	31788	10	-35.5	-75.9	75	9
2023-08-08T12:00	31811	10	-35.6	-76.0	77	9
2023-08-08T12:00	31839	10	-35.6	-76.0	80	10
2023-08-08T12:00	31870	10	-35.6	-76.0	83	11
2023-08-08T12:00	31900	10	-35.6	-76.0	85	11
2023-08-08T12:00	31923	10	-35.6	-76.0	88	12
2023-08-08T12:00	31946	10	-35.7	-76.1	91	12
2023-08-08T12:00	31983	10	-35.8	-76.1	93	13
2023-08-08T12:00	32020	10	-35.8	-76.1	95	13
2023-08-08T12:00	32041	9	-35.8	-76.1	97	13
2023-08-08T12:00	32052	9	-35.6	-76.0	99	13
2023-08-08T12:00	32120	9	-35.5	-75.9	101	14
2023-08-08T12:00	32141	9	-35.5	-75.9	104	14
2023-08-08T12:00	32161	9	-35.6	-76.0	107	14
2023-08-08T12:00	32195	9	-35.7	-76.1	110	14
2023-08-08T12:00	32217	9	-35.7	-76.1	113	13
2023-08-08T12:00	32247	9	-35.5	-75.9	116	13
2023-08-08T12:00	32281	9	-35.3	-75.8	117	12
2023-08-08T12:00	32311	9	-35.3	-75.8	118	12
2023-08-08T12:00	32319	9	-35.2	-75.7	119	11
2023-08-08T12:00	32366	9	-35.1	-75.6	120	11
2023-08-08T12:00	32378	9	-35.0	-75.6	121	11
2023-08-08T12:00	32409	9	-35.0	-75.6	122	11
2023-08-08T12:00	32431	9	-34.9	-75.5	123	11
2023-08-08T12:00	32458	9	-34.7	-75.4	122	10
2023-08-08T12:00	32482	9	-34.5	-75.2	121	10
2023-08-08T12:00	32510	9	-34.5	-75.2	117	9
2023-08-08T12:00	32559	9	-34.6	-75.3	112	9
2023-08-08T12:00	32593	9	-34.4	-75.2	98	8
2023-08-08T12:00	32625	9	-34.3	-75.1	92	8
2023-08-08T12:00	32653	9	-34.2	-75.0	87	9
2023-08-08T12:00	32663	9	-34.1	-75.0	83	9
2023-08-08T12:00	32718	9	-34.1	-75.0	80	10
2023-08-08T12:00	32735	9	-34.2	-75.0	77	10
2023-08-08T12:00	32773	9	-34.4	-75.2	76	11
2023-08-08T12:00	32786	9	-34.4	-75.2	75	12
2023-08-08T12:00	32810	8	-34.5	-75.2	75	13
2023-08-08T12:00	32834	8	-34.5	-75.2	76	13
2023-08-08T12:00	32882	8	-34.4	-75.2	79	14
2023-08-08T12:00	32900	8	-34.3	-75.1	82	14
2023-08-08T12:00	32939	8	-34.3	-75.1	86	14
2023-08-08T12:00	32959	8	-34.4	-75.2	90	14
2023-08-08T12:00	33001	8	-34.4	-75.2	94	14
2023-08-08T12:00	33014	8	-34.4	-75.2	97	14
2023-08-08T12:00	33050	8	-34.4	-75.2	101	14
2023-08-08T12:00	33072	8	-34.5	-75.2	105	14
2023-08-08T12:00	33097	8	-34.6	-75.3	108	14
2023-08-08T12:00	33148	8	-34.6	-75.3	111	14
2023-08-08T12:00	33159	8	-34.6	-75.3	113	13
2023-08-08T12:00	33182	8	-34.6	-75.3	115	13
2023-08-08T12:00	33203	8	-34.5	-75.2	117	13
2023-08-08T12:00	33241	8	-34.4	-75.2	118	13
2023-08-08T12:00	33266	8	-34.3	-75.1	118	13
2023-08-08T12:00	33298	8	-34.4	-75.2	119	13
2023-08-08T12:00	33331	8	-34.5	-75.2	118	13
2023-08-08T12:00	33358	8	-34.6	-75.3	117	14
2023-08-08T12:00	33416	8	-34.6	-75.3	116	14
2023-08-08T12:00	33420	8	-34.5	-75.2	114	14
2023-08-08T12:00	33449	8	-34.4	-75.2	112	14
2023-08-08T12:00	33485	8	-34.4	-75.2	111	13
2023-08-08T12:00	33509	8	-34.4	-75.2	109	13
2023-08-08T12:00	33513	8	-34.4	-75.2	107	13
2023-08-08T12:00	33579	8	-34.5	-75.2	105	13
2023-08-08T12:00	33580	8	-34.4	-75.2	103	13
2023-08-08T12:00	33637	8	-34.3	-75.1	102	13
2023-08-08T12:00	33663	8	-34.4	-75.2	102	13
2023-08-08T12:00	33687	7	-34.5	-75.2	103	13
2023-08-08T12:00	33726	7	-34.4	-75.2	105	13
2023-08-08T12:00	33781	7	-34.3	-75.1	110	12
2023-08-08T12:00	33817	7	-34.3	-75.1	114	12
2023-08-08T12:00	33840	7	-34.4	-75.2	116	12
2023-08-08T12:00	33852	7	-34.4	-75.2	118	12
2023-08-08T12:00	33915	7	-34.2	-75.0	120	12
2023-08-08T18:00	-999					
2023-08-08T18:00	135	994	17.7	9.5	243	5
2023-08-08T18:00	168	990	17.4	9.0	242	7
2023-08-08T18:00	193	987	17.2	8.6	242	8
2023-08-08T18:00	213	985	17.0	8.7	243	9
2023-08-08T18:00	241	982	16.8	8.9	245	9
2023-08-08T18:00	262	979	16.6	8.9	247	9
2023-08-08T18:00	286	977	16.3	8.7	249	9
2023-08-08T18:00	308	974	16.1	8.7	251	10
2023-08-08T18:00	330	971	15.9	8.6	251	10
2023-08-08T18:00	353	969	15.7	8.5	250	10
2023-08-08T18:00	376	966	15.5	8.3	248	11
2023-08-08T18:00	395	964	15.2	8.3	246	11
2023-08-08T18:00	424	961	15.0	8.3	244	11
2023-08-08T18:00	444	959	14.8	8.3	243	12
2023-08-08T18:00	461	956	14.6	8.2	244	12
2023-08-08T18:00	488	954	14.4	8.2	245	12
2023-08-08T18:00	509	951	14.2	7.9	246	13
2023-08-08T18:00	527	949	14.1	8.0	247	13
2023-08-08T18:00	554	946	13.8	7.8	248	13
2023-08-08T18:00	581	943	13.5	7.7	248	14
2023-08-08T18:00	610	940	13.3	7.8	249	14
2023-08-08T18:00	634	937	13.1	7.6	250	14
2023-08-08T18:00	658	934	12.9	7.5	252	14
2023-08-08T18:00	684	931	12.7	7.4	254	14
2023-08-08T18:00	713	928	12.4	7.4	256	14
2023-08-08T18:00	740	925	12.1	7.3	257	14
2023-08-08T18:00	771	922	11.9	7.1	257	14
2023-08-08T18:00	797	919	11.7	7.1	256	14
2023-08-08T18:00	827	916	11.4	7.1	256	15
2023-08-08T18:00	854	913	11.1	7.0	255	15
2023-08-08T18:00	883	910	10.8	6.8	254	15
2023-08-08T18:00	908	907	10.6	6.8	254	15
2023-08-08T18:00	935	904	10.3	6.8	255	15
2023-08-08T18:00	962	901	10.1	6.8	255	15
2023-08-08T18:00	992	898	9.8		256	16
2023-08-08T18:00	1020	895	9.6	6.6	257	16
2023-08-08T18:00	1046	892	9.3	6.6	257	16
2023-08-08T18:00	1072	889	9.1	6.4	258	16
2023-08-08T18:00	1101	886	8.8	6.3	259	16
2023-08-08T18:00	1127	883	8.6	6.3	259	16
2023-08-08T18:00	1152	881	8.4	6.2	260	16
2023-08-08T18:00	1172	879	8.2	6.1	260	16
2023-08-08T18:00	1195	876	8.0	6.1	260	16
2023-08-08T18:00	1221	874	7.8	5.9	261	16
2023-08-08T18:00	1244	871	7.6	5.7	261	15
2023-08-08T18:00	1265	869	7.4	5.8	263	15
2023-08-08T18:00	1287	867	7.3	5.5	264	15
2023-08-08T18:00	1307	864	7.1	5.5	266	15
2023-08-08T18:00	1329	862	7.0	5.2	267	16
2023-08-08T18:00	1358	859	6.7	5.0	268	16
2023-08-08T18:00	1381	857	6.5	4.8	268	16
2023-08-08T18:00	1402	854	6.4	4.9	268	16
2023-08-08T18:00	1427	852	6.1	4.7	269	17
2023-08-08T18:00	1451	849	5.9	4.8	269	17
2023-08-08T18:00	1469	847	5.6	4.8	269	17
2023-08-08T18:00	1494	845	5.5	4.7	269	17
2023-08-08T18:00	1520	842	5.2	4.7	269	17
2023-08-08T18:00	1545	840	5.0	4.6	269	17
2023-08-08T18:00	1570	837	4.8	4.2	269	17
2023-08-08T18:00	1595	834	4.6	3.8	270	17
2023-08-08T18:00	1625	831	4.4	3.8	270	17
2023-08-08T18:00	1656	828	4.1	3.8	270	17
2023-08-08T18:00	1683	826	3.8	3.6	270	17
2023-08-08T18:00	1713	823	3.6	3.6	270	17
2023-08-08T18:00	1739	820	3.4	3.4	271	17
2023-08-08T18:00	1767	817	3.2	3.2	272	17
2023-08-08T18:00	1791	815	3.1	3.1	274	18
2023-08-08T18:00	1818	812	2.9	2.9	276	18
2023-08-08T18:00	1844	809	2.8	2.8	278	18
2023-08-08T18:00	1869	807	2.6	2.6	280	19
2023-08-08T18:00	1892	805	2.5	2.5	281	19
2023-08-08T18:00	1911	803	2.3	2.3	282	19
2023-08-08T18:00	1929	801	2.1	2.1	281	19
2023-08-08T18:00	1947	799	1.9	1.9	280	19
2023-08-08T18:00	1963	797	1.8	1.5	278	19
2023-08-08T18:00	1982	795	1.7	1.4	278	19
2023-08-08T18:00	2011	793	1.6	1.3	277	19
2023-08-08T18:00	2029	791	1.5	1.4	277	19
2023-08-08T18:00	2050	789	1.3	1.1	277	19
2023-08-08T18:00	2070	787	1.2	0.9	277	19
2023-08-08T18:00	2087	785	1.1	0.8	276	19
2023-08-08T18:00	2107	783	1.0	0.6	275	20
2023-08-08T18:00	2133	781	0.8	0.5	275	20
2023-08-08T18:00	2150	779	0.7	0.4	275	20
2023-08-08T18:00	2170	777	0.6	0.3	275	20
2023-08-08T18:00	2191	775	0.5	0.2	276	20
2023-08-08T18:00	2212	773	0.4	0.0	277	20
2023-08-08T18:00	2233	771	0.2	-0.5	278	21
2023-08-08T18:00	2255	769	0.2	-0.9	279	21
2023-08-08T18:00	2274	767	0.2	-1.3	280	21
2023-08-08T18:00	2301	765	0.2	-1.7	279	21
2023-08-08T18:00	2326	762	0.1	-1.7	278	21
2023-08-08T18:00	2352	760	0.0	-1.8	277	21
2023-08-08T18:00	2375	758	-0.2	-2.0	276	21
2023-08-08T18:00	2397	755	-0.3	-2.0	276	20
2023-08-08T18:00	2427	753	-0.5	-2.4	276	20
2023-08-08T18:00	2453	750	-0.6	-2.5	276	20
2023-08-08T18:00	2475	748	-0.8	-2.6	277	20
2023-08-08T18:00	2501	746	-0.9	-2.8	277	20
2023-08-08T18:00	2526	744	-1.1	-3.0	277	20
2023-08-08T18:00	2549	741	-1.3	-3.1	277	20
2023-08-08T18:00	2569	739	-1.5	-3.2	276	20
2023-08-08T18:00	2595	737	-1.6	-3.4	276	20
2023-08-08T18:00	2625	735	-1.9	-3.5	276	19
2023-08-08T18:00	2651	732	-2.2	-3.7	276	19
2023-08-08T18:00	2675	730	-2.4	-3.7	275	19
2023-08-08T18:00	2703	727	-2.7	-3.8	274	19
2023-08-08T18:00	2733	725	-2.9	-3.9	273	19
2023-08-08T18:00	2756	722	-3.1	-4.1	272	19
2023-08-08T18:00	2780	720	-3.3	-4.0	272	18
2023-08-08T18:00	2803	718	-3.5	-4.1	273	18
2023-08-08T18:00	2826	716	-3.7	-4.2	274	17
2023-08-08T18:00	2846	714	-3.9	-4.3	274	16
2023-08-08T18:00	2866	712	-4.1	-4.4	274	16
2023-08-08T18:00	2887	710	-4.2	-4.3	273	16
2023-08-08T18:00	2910	708	-4.4	-4.5	272	16
2023-08-08T18:00	2938	706	-4.6	-4.6	270	17
2023-08-08T18:00	2956	704	-4.8	-5.0	269	17
2023-08-08T18:00	2980	702	-5.0	-5.1	268	18
2023-08-08T18:00	3000	700	-5.1	-5.2	268	18
2023-08-08T18:00	3028	698	-5.3	-5.6	267	18
2023-08-08T18:00	3050	696	-5.5	-5.7	267	18
2023-08-08T18:00	3076	694	-5.7	-6.0	267	18
2023-08-08T18:00	3102	691	-5.8	-6.0	267	18
2023-08-08T18:00	3129	689	-6.0	-6.0	267	18
2023-08-08T18:00	3158	687	-6.2	-6.2	267	18
2023-08-08T18:00	3183	684	-6.4	-6.4	267	18
2023-08-08T18:00	3208	682	-6.6	-6.6	266	19
2023-08-08T18:00	3239	679	-6.9	-6.9	265	19
2023-08-08T18:00	3269	677	-7.1	-7.2	264	19
2023-08-08T18:00	3298	674	-7.3	-7.3	263	19
2023-08-08T18:00	3322	672	-7.4	-7.4	262	18
2023-08-08T18:00	3348	670	-7.6	-7.6	261	18
2023-08-08T18:00	3369	668	-7.8	-7.8	260	18
2023-08-08T18:00	3403	665	-8.3	-10.0	261	18
2023-08-08T18:00	3429	663	-8.3	-10.4	261	18
2023-08-08T18:00	3464	660	-8.3	-11.6	262	18
2023-08-08T18:00	3498	657	-8.6	-12.8	263	18
2023-08-08T18:00	3525	655	-8.6	-14.7	264	18
2023-08-08T18:00	3551	652	-8.2	-18.9	264	18
2023-08-08T18:00	3585	650	-8.4	-18.8	264	18
2023-08-08T18:00	3610	648	-8.6	-19.1	265	18
2023-08-08T18:00	3641	645	-8.3	-20.0	266	19
2023-08-08T18:00	3671	643	-8.4	-17.5	268	19
2023-08-08T18:00	3702	640	-8.5	-15.1	270	20
2023-08-08T18:00	3727	638	-8.8	-15.2	271	20
2023-08-08T18:00	3755	636	-8.9	-15.6	272	20
2023-08-08T18:00	3789	633	-9.1	-15.7	272	20
2023-08-08T18:00	3823	630	-9.3	-16.5	272	19
2023-08-08T18:00	3851	628	-9.7	-16.7	271	19
2023-08-08T18:00	3876	626	-9.9	-18.0	270	18
2023-08-08T18:00	3900	624	-10.0	-17.7	269	19
2023-08-08T18:00	3927	622	-10.1	-15.2	269	19
2023-08-08T18:00	3954	620	-10.2	-14.7	269	19
2023-08-08T18:00	3977	618	-10.1	-13.3	269	19
2023-08-08T18:00	4003	615	-10.2	-13.2	271	19
2023-08-08T18:00	4030	614	-10.0	-11.9	272	18
2023-08-08T18:00	4051	612	-10.2	-12.0	274	19
2023-08-08T18:00	4073	610	-10.1	-11.5	275	19
2023-08-08T18:00	4094	608	-10.3	-11.5	276	20
2023-08-08T18:00	4118	607	-10.4	-11.5	277	21
2023-08-08T18:00	4137	605	-10.4	-11.6	277	22
2023-08-08T18:00	4160	603	-10.7	-11.7	278	23
2023-08-08T18:00	4184	601	-10.7	-11.9	278	24
2023-08-08T18:00	4211	599	-11.0	-11.9	278	24
2023-08-08T18:00	4238	597	-11.1		278	25
2023-08-08T18:00	4261	595	-11.3	-12.6	278	25
2023-08-08T18:00	4278	594	-11.4	-12.8	279	25
2023-08-08T18:00	4299	592	-11.5	-14.4	280	24
2023-08-08T18:00	4320	591	-11.7	-14.6	281	24
2023-08-08T18:00	4341	589	-11.8	-14.4	282	23
2023-08-08T18:00	4362	587	-12.0	-14.6	283	23
2023-08-08T18:00	4384	586	-12.0	-15.0	284	22
2023-08-08T18:00	4404	584	-12.2	-15.1	284	22
2023-08-08T18:00	4424	583	-12.2	-15.1	285	22
2023-08-08T18:00	4450	581	-12.2	-15.2	285	22
2023-08-08T18:00	4478	579	-12.5	-15.2	286	22
2023-08-08T18:00	4495	577	-12.7	-15.3	286	22
2023-08-08T18:00	4519	576	-12.8	-15.8	286	22
2023-08-08T18:00	4539	574	-13.0	-16.3	286	22
2023-08-08T18:00	4563	572	-13.1	-16.2	286	22
2023-08-08T18:00	4586	571	-13.3	-16.2	285	22
2023-08-08T18:00	4610	569	-13.5	-16.3	284	22
2023-08-08T18:00	4636	567	-13.7	-16.7	284	22
2023-08-08T18:00	4658	565	-13.8	-16.7	283	22
2023-08-08T18:00	4683	563	-13.7	-17.2	282	22
2023-08-08T18:00	4710	561	-14.1	-17.3	281	21
2023-08-08T18:00	4739	559	-14.2	-17.4	281	21
2023-08-08T18:00	4771	557	-14.4	-17.1	280	21
2023-08-08T18:00	4794	555	-14.3	-18.0	280	21
2023-08-08T18:00	4816	553	-14.7	-17.3	280	21
2023-08-08T18:00	4837	552	-14.6	-18.3	281	21
2023-08-08T18:00	4863	550	-14.9	-18.2	281	21
2023-08-08T18:00	4891	548	-14.9	-18.6	282	21
2023-08-08T18:00	4914	546	-15.3	-18.4	282	21
2023-08-08T18:00	4937	545	-15.4	-18.5	283	21
2023-08-08T18:00	4962	543	-15.5	-19.1	283	21
2023-08-08T18:00	4982	541	-15.7	-19.2	283	20
2023-08-08T18:00	5001	540	-15.8	-19.2	283	20
2023-08-08T18:00	5018	539	-15.9	-19.4	283	20
2023-08-08T18:00	5045	537	-16.3	-19.1	283	19
2023-08-08T18:00	5064	536	-16.5	-19.3	283	19
2023-08-08T18:00	5082	534	-16.7	-19.6	283	19
2023-08-08T18:00	5103	533	-16.9	-19.6	284	19
2023-08-08T18:00	5118	532	-17.0	-19.6	286	19
2023-08-08T18:00	5138	530	-17.1	-19.5	287	19
2023-08-08T18:00	5160	529	-17.4	-19.7	288	19
2023-08-08T18:00	5181	527	-17.6	-19.7	287	19
2023-08-08T18:00	5208	526	-17.7	-20.2	285	19
2023-08-08T18:00	5230	524	-17.9	-20.4	284	19
2023-08-08T18:00	5261	522	-18.1	-20.4	283	20
2023-08-08T18:00	5284	520	-18.3	-20.5	283	20
2023-08-08T18:00	5312	518	-18.6	-20.7	284	20
2023-08-08T18:00	5338	516	-18.7	-20.9	285	21
2023-08-08T18:00	5364	515	-18.6	-21.7	286	21
2023-08-08T18:00	5390	513	-18.7	-21.9	287	21
2023-08-08T18:00	5422	511	-19.0	-21.6	287	21
2023-08-08T18:00	5449	509	-19.2	-22.1	287	22
2023-08-08T18:00	5472	507	-19.4	-22.0	286	23
2023-08-08T18:00	5501	505	-19.7	-22.1	286	23
2023-08-08T18:00	5524	504	-20.0	-22.0	285	24
2023-08-08T18:00	5541	502	-20.0	-22.9	285	24
2023-08-08T18:00	5567	501	-20.1	-23.2	285	24
2023-08-08T18:00	5588	499	-20.3	-23.4	285	24
2023-08-08T18:00	5612	498	-20.5	-23.6	285	23
2023-08-08T18:00	5634	496	-20.7	-23.7	285	23
2023-08-08T18:00	5657	495	-20.7	-23.9	285	23
2023-08-08T18:00	5683	493	-20.9	-24.6	285	23
2023-08-08T18:00	5710	491	-21.1	-26.2	284	23
2023-08-08T18:00	5736	489	-21.4	-25.8	283	24
2023-08-08T18:00	5763	488	-21.6	-26.3	283	24
2023-08-08T18:00	5794	486	-21.8	-28.0	283	24
2023-08-08T18:00	5820	484	-22.0	-28.9	284	24
2023-08-08T18:00	5845	482	-22.3	-28.6	284	24
2023-08-08T18:00	5871	480	-22.5	-29.0	284	24
2023-08-08T18:00	5898	479	-22.7	-29.5	284	24
2023-08-08T18:00	5923	477	-22.9	-30.6	282	24
2023-08-08T18:00	5948	475	-23.1	-30.8	282	24
2023-08-08T18:00	5980	473	-23.3	-31.5	281	24
2023-08-08T18:00	6009	472	-23.6	-31.7	281	24
2023-08-08T18:00	6040	470	-23.9	-32.0	282	24
2023-08-08T18:00	6067	468	-24.1	-32.6	282	24
2023-08-08T18:00	6094	466	-24.2	-34.1	282	25
2023-08-08T18:00	6125	464	-24.4	-35.7	282	26
2023-08-08T18:00	6155	462	-24.6	-39.3	281	27
2023-08-08T18:00	6184	460	-24.8	-40.5	280	27
2023-08-08T18:00	6211	459	-25.0	-40.9	280	28
2023-08-08T18:00	6238	457	-25.2	-44.2	280	28
2023-08-08T18:00	6266	455	-25.5	-44.0	280	29
2023-08-08T18:00	6293	453	-25.7	-44.9	281	29
2023-08-08T18:00	6325	452	-25.7	-50.3	281	29
2023-08-08T18:00	6351	450	-25.6	-45.5	281	29
2023-08-08T18:00	6380	448	-25.8	-44.4	281	30
2023-08-08T18:00	6409	446	-26.0	-39.4	281	30
2023-08-08T18:00	6432	445	-26.0	-36.2	281	31
2023-08-08T18:00	6456	443	-25.7	-33.2	282	31
2023-08-08T18:00	6477	442	-25.6	-30.1	282	31
2023-08-08T18:00	6499	441	-25.7	-29.2	282	31
2023-08-08T18:00	6522	439	-25.9	-29.3	282	31
2023-08-08T18:00	6548	438	-26.1	-29.4	282	30
2023-08-08T18:00	6575	436	-26.4	-29.0	282	30
2023-08-08T18:00	6604	435	-26.6	-29.1	281	30
2023-08-08T18:00	6624	433	-26.6	-30.1	281	30
2023-08-08T18:00	6645	432	-26.7	-30.9	281	30
2023-08-08T18:00	6668	431	-26.9	-30.7	281	30
2023-08-08T18:00	6700	429	-27.2	-31.0	281	30
2023-08-08T18:00	6724	427	-27.4	-31.2	281	30
2023-08-08T18:00	6750	426	-27.6	-31.9	281	30
2023-08-08T18:00	6773	424	-27.7	-32.2	281	31
2023-08-08T18:00	6791	423	-27.8	-32.1	281	31
2023-08-08T18:00	6813	422	-28.0	-33.0	281	31
2023-08-08T18:00	6833	421	-28.1	-33.8	281	31
2023-08-08T18:00	6855	420	-28.2	-32.7	281	30
2023-08-08T18:00	6875	418	-28.3	-32.5	282	30
2023-08-08T18:00	6894	417	-28.4	-32.4	282	31
2023-08-08T18:00	6914	416	-28.5	-32.8	282	31
2023-08-08T18:00	6932	415	-28.6	-33.0	282	31
2023-08-08T18:00	6953	414	-28.7	-33.0	281	31
2023-08-08T18:00	6978	412	-28.9	-32.9	281	31
2023-08-08T18:00	7008	411	-29.1	-32.3	281	32
2023-08-08T18:00	7027	410	-29.3	-32.8	282	31
2023-08-08T18:00	7044	408	-29.4	-32.7	282	31
2023-08-08T18:00	7069	407	-29.5	-33.4	282	31
2023-08-08T18:00	7094	406	-29.7	-32.9	283	31
2023-08-08T18:00	7125	404	-29.7	-33.7	282	31
2023-08-08T18:00	7154	402	-29.8	-34.9	282	30
2023-08-08T18:00	7186	401	-29.8	-34.9	282	30
2023-08-08T18:00	7206	399	-29.9	-35.1	282	30
2023-08-08T18:00	7225	398	-30.1	-35.3	282	31
2023-08-08T18:00	7242	397	-30.1	-35.5	282	31
2023-08-08T18:00	7261	396	-30.3	-35.6	282	30
2023-08-08T18:00	7281	395	-30.4	-35.4	281	30
2023-08-08T18:00	7300	394	-30.5	-35.5	281	30
2023-08-08T18:00	7319	393	-30.7	-35.6	281	31
2023-08-08T18:00	7340	392	-30.8	-35.9	282	31
2023-08-08T18:00	7363	391	-31.0	-35.7	282	31
2023-08-08T18:00	7388	389	-31.2	-35.7	281	31
2023-08-08T18:00	7407	388	-31.3	-35.7	281	31
2023-08-08T18:00	7427	387	-31.4	-35.6	280	31
2023-08-08T18:00	7449	386	-31.5	-36.0	280	31
2023-08-08T18:00	7479	384	-31.6	-36.6	279	30
2023-08-08T18:00	7509	383	-31.7	-36.9	278	30
2023-08-08T18:00	7535	381	-31.8	-36.6	278	30
2023-08-08T18:00	7569	380	-31.5	-37.0	277	29
2023-08-08T18:00	7588	378	-31.6	-37.1	277	29
2023-08-08T18:00	7610	377	-31.8	-36.9	276	30
2023-08-08T18:00	7642	376	-32.0	-36.5	276	30
2023-08-08T18:00	7665	374	-32.0	-36.2	276	30
2023-08-08T18:00	7683	373	-32.1	-36.4	276	30
2023-08-08T18:00	7704	372	-32.3	-36.8	276	29
2023-08-08T18:00	7724	371	-32.4	-37.3	276	29
2023-08-08T18:00	7744	370	-32.5	-37.3	276	29
2023-08-08T18:00	7770	369	-32.7	-37.5	276	29
2023-08-08T18:00	7801	367	-32.9	-38.0	277	29
2023-08-08T18:00	7829	366	-33.1	-38.2	277	29
2023-08-08T18:00	7852	364	-33.3	-38.6	278	29
2023-08-08T18:00	7880	363	-33.4	-39.2	278	29
2023-08-08T18:00	7909	362	-33.5	-39.3	279	29
2023-08-08T18:00	7932	360	-33.6	-39.5	278	29
2023-08-08T18:00	7952	359	-33.7	-40.0	278	29
2023-08-08T18:00	7973	358	-33.8	-39.9	277	29
2023-08-08T18:00	7997	357	-34.0	-39.5	277	30
2023-08-08T18:00	8023	356	-34.0	-39.4	276	30
2023-08-08T18:00	8049	354	-34.2	-38.8	276	31
2023-08-08T18:00	8078	353	-34.4	-38.2	276	31
2023-08-08T18:00	8108	352	-34.6	-38.2	276	31
2023-08-08T18:00	8133	350	-34.8	-38.0	277	31
2023-08-08T18:00	8163	349	-35.0	-37.8	277	31
2023-08-08T18:00	8191	347	-35.1	-38.1	277	32
2023-08-08T18:00	8220	346	-35.0	-39.1	277	32
2023-08-08T18:00	8243	345	-35.1	-39.4	277	32
2023-08-08T18:00	8268	343	-35.3	-39.9	277	32
2023-08-08T18:00	8294	342	-35.4	-40.5	277	32
2023-08-08T18:00	8321	341	-35.5	-40.5	277	32
2023-08-08T18:00	8351	339	-35.8	-40.9	277	32
2023-08-08T18:00	8387	338	-35.9	-41.9	277	32
2023-08-08T18:00	8407	337	-36.1	-42.0	277	32
2023-08-08T18:00	8428	336	-36.3	-41.9	277	32
2023-08-08T18:00	8452	335	-36.5	-42.1	277	32
2023-08-08T18:00	8474	333	-36.7	-42.1	277	32
2023-08-08T18:00	8497	332	-36.8	-43.0	277	33
2023-08-08T18:00	8519	331	-37.0	-43.1	277	33
2023-08-08T18:00	8539	330	-37.2	-42.9	276	33
2023-08-08T18:00	8560	329	-37.4	-42.9	276	33
2023-08-08T18:00	8580	328	-37.5	-43.3	276	33
2023-08-08T18:00	8599	327	-37.6	-44.0	276	33
2023-08-08T18:00	8619	327	-37.7	-45.0	276	33
2023-08-08T18:00	8640	326	-37.9	-44.7	276	33
2023-08-08T18:00	8660	325	-38.0	-43.7	275	33
2023-08-08T18:00	8687	323	-38.3	-43.4	275	33
2023-08-08T18:00	8706	322	-38.5	-43.4	276	33
2023-08-08T18:00	8732	321	-38.7	-42.8	276	33
2023-08-08T18:00	8757	320	-38.8		276	34
2023-08-08T18:00	8781	319	-39.0	-44.0	277	34
2023-08-08T18:00	8807	318	-39.2	-44.5	277	34
2023-08-08T18:00	8832	317	-39.4	-45.0	277	34
2023-08-08T18:00	8855	315	-39.6	-44.7	277	34
2023-08-08T18:00	8883	314	-39.9	-44.3	277	34
2023-08-08T18:00	8902	313	-40.0	-44.3	277	35
2023-08-08T18:00	8918	313	-40.2	-44.5	277	35
2023-08-08T18:00	8934	312	-40.3	-44.9	277	35
2023-08-08T18:00	8952	311	-40.5	-45.0	277	35
2023-08-08T18:00	8968	310	-40.6	-44.3	277	35
2023-08-08T18:00	8986	309	-40.8	-44.1	276	35
2023-08-08T18:00	9002	309	-40.9	-44.2	276	35
2023-08-08T18:00	9017	308	-41.1	-44.8	276	35
2023-08-08T18:00	9036	307	-41.2	-44.9	276	35
2023-08-08T18:00	9053	307	-41.4	-45.3	275	35
2023-08-08T18:00	9069	306	-41.5	-45.4	275	35
2023-08-08T18:00	9085	305	-41.7	-45.2	275	35
2023-08-08T18:00	9103	304	-41.8	-45.0	275	35
2023-08-08T18:00	9119	304	-42.0	-45.0	275	35
2023-08-08T18:00	9135	303	-42.1	-44.9	275	35
2023-08-08T18:00	9152	302	-42.3	-44.8	275	35
2023-08-08T18:00	9169	301	-42.5	-45.0	275	35
2023-08-08T18:00	9186	300	-42.6	-45.2	275	35
2023-08-08T18:00	9204	300	-42.8	-45.4	275	35
2023-08-08T18:00	9222	299	-43.0		274	35
2023-08-08T18:00	9241	298	-43.1	-45.7	274	35
2023-08-08T18:00	9261	297	-43.3	-47.5	273	35
2023-08-08T18:00	9282	296	-43.3	-50.5	273	35
2023-08-08T18:00	9300	295	-43.2	-49.3	272	35
2023-08-08T18:00	9324	294	-43.4	-47.7	272	35
2023-08-08T18:00	9348	293	-43.6	-46.9	272	35
2023-08-08T18:00	9371	292	-43.7	-47.9	273	35
2023-08-08T18:00	9392	291	-43.8	-49.1	273	35
2023-08-08T18:00	9416	290	-44.0	-50.9	274	35
2023-08-08T18:00	9438	289	-44.1	-53.1	274	34
2023-08-08T18:00	9460	288	-44.2	-54.6	275	34
2023-08-08T18:00	9483	288	-44.4	-55.7	275	34
2023-08-08T18:00	9504	287	-44.6	-55.7	275	34
2023-08-08T18:00	9531	285	-44.8	-57.1	275	33
2023-08-08T18:00	9558	284	-44.9	-58.2	275	33
2023-08-08T18:00	9586	283	-45.1	-57.5	275	32
2023-08-08T18:00	9615	282	-45.0	-57.8	276	32
2023-08-08T18:00	9642	281	-44.9	-59.5	276	33
2023-08-08T18:00	9671	280	-44.7	-60.7	277	33
2023-08-08T18:00	9695	279	-44.8	-60.7	278	33
2023-08-08T18:00	9719	278	-45.0	-60.5	279	33
2023-08-08T18:00	9743	277	-45.2	-60.4	279	33
2023-08-08T18:00	9766	276	-45.4	-60.2	279	32
2023-08-08T18:00	9789	275	-45.6	-59.9	280	32
2023-08-08T18:00	9814	274	-45.8	-59.8	280	31
2023-08-08T18:00	9835	273	-46.0	-59.7	280	31
2023-08-08T18:00	9860	272	-46.2	-59.5	280	31
2023-08-08T18:00	9881	271	-46.4	-59.2	280	30
2023-08-08T18:00	9904	270	-46.6	-58.9	280	30
2023-08-08T18:00	9926	269	-46.7	-59.1	280	30
2023-08-08T18:00	9948	268	-46.8	-59.6	280	29
2023-08-08T18:00	9973	267	-47.0	-60.0	280	29
2023-08-08T18:00	9995	266	-47.0	-60.3	280	29
2023-08-08T18:00	10019	265	-47.0	-60.8	281	29
2023-08-08T18:00	10043	264	-47.1	-61.5	281	29
2023-08-08T18:00	10066	263	-47.2	-61.9	281	28
2023-08-08T18:00	10089	263	-47.4	-62.0	282	28
2023-08-08T18:00	10112	262	-47.6	-62.1	282	28
2023-08-08T18:00	10135	261	-47.7	-62.1	281	28
2023-08-08T18:00	10158	260	-47.8	-62.0	281	28
2023-08-08T18:00	10180	259	-48.1	-62.1	281	28
2023-08-08T18:00	10202	258	-48.3	-62.3	280	28
2023-08-08T18:00	10227	257	-48.3	-62.3	280	28
2023-08-08T18:00	10248	256	-48.4	-62.6	280	28
2023-08-08T18:00	10271	255	-48.4		280	28
2023-08-08T18:00	10294	254	-48.5	-63.6	280	28
2023-08-08T18:00	10317	254	-48.3	-63.9	280	27
2023-08-08T18:00	10340	253	-48.4	-64.1	279	27
2023-08-08T18:00	10364	252	-48.5	-64.1	279	27
2023-08-08T18:00	10388	251	-48.6	-64.1	278	27
2023-08-08T18:00	10411	250	-48.5	-63.9	276	26
2023-08-08T18:00	10436	249	-48.6	-64.0	275	26
2023-08-08T18:00	10456	248	-48.8	-64.4	273	26
2023-08-08T18:00	10477	247	-48.5	-64.9	272	26
2023-08-08T18:00	10498	247	-48.3	-65.6	271	26
2023-08-08T18:00	10520	246	-48.2	-65.8	270	26
2023-08-08T18:00	10541	245	-48.2	-65.8	270	26
2023-08-08T18:00	10560	244	-48.2	-65.9	270	26
2023-08-08T18:00	10580	244	-48.2	-65.9	270	26
2023-08-08T18:00	10600	243	-48.2	-65.9	271	26
2023-08-08T18:00	10621	242	-48.3	-66.1	271	26
2023-08-08T18:00	10642	241	-48.3	-66.2	271	26
2023-08-08T18:00	10662	241	-48.4	-66.5	271	26
2023-08-08T18:00	10684	240	-48.3	-66.6	271	27
2023-08-08T18:00	10705	239	-48.4	-66.7	270	27
2023-08-08T18:00	10725	238	-48.4	-66.7	270	27
2023-08-08T18:00	10747	238	-48.5	-66.7	271	27
2023-08-08T18:00	10769	237	-48.6	-66.9	271	26
2023-08-08T18:00	10788	236	-48.7	-67.2	271	26
2023-08-08T18:00	10810	235	-48.8	-67.3	271	26
2023-08-08T18:00	10832	234	-48.9	-67.5	272	26
2023-08-08T18:00	10855	234	-48.9	-67.3	272	25
2023-08-08T18:00	10876	233	-48.8	-66.5	272	25
2023-08-08T18:00	10896	232	-48.8	-65.9	273	25
2023-08-08T18:00	10918	231	-48.8	-66.2	272	24
2023-08-08T18:00	10938	231	-48.4	-67.6	272	24
2023-08-08T18:00	10960	230	-48.1	-69.2	272	24
2023-08-08T18:00	10979	229	-48.0	-69.4	272	25
2023-08-08T18:00	11000	229	-48.1	-69.4	272	25
2023-08-08T18:00	11019	228	-48.2	-69.3	272	26
2023-08-08T18:00	11038	227	-48.3	-69.5	273	26
2023-08-08T18:00	11058	227	-48.2	-69.4	273	27
2023-08-08T18:00	11076	226	-48.1	-69.5	274	27
2023-08-08T18:00	11097	225	-48.0	-69.5	275	27
2023-08-08T18:00	11118	224	-48.1	-69.7	276	27
2023-08-08T18:00	11141	224	-47.9	-69.9	277	27
2023-08-08T18:00	11166	223	-47.7	-70.4	278	27
2023-08-08T18:00	11194	222	-47.4	-70.8	280	26
2023-08-08T18:00	11220	221	-47.1	-71.2	282	26
2023-08-08T18:00	11241	220	-46.8	-71.5	283	25
2023-08-08T18:00	11261	220	-46.7	-71.6	284	24
2023-08-08T18:00	11282	219	-46.8	-71.9	284	24
2023-08-08T18:00	11306	218	-46.9	-72.0	283	23
2023-08-08T18:00	11327	218	-47.0	-72.0	283	23
2023-08-08T18:00	11350	217	-47.1	-72.1	282	23
2023-08-08T18:00	11370	216	-47.3	-72.3	282	23
2023-08-08T18:00	11391	215	-47.3	-72.7	281	23
2023-08-08T18:00	11412	215	-47.3	-73.3	281	23
2023-08-08T18:00	11432	214	-46.6	-73.7	281	23
2023-08-08T18:00	11454	213	-46.3	-74.3	281	22
2023-08-08T18:00	11475	213	-45.8	-74.9	281	22
2023-08-08T18:00	11497	212	-45.3	-75.6	281	22
2023-08-08T18:00	11519	211	-44.5	-75.8	282	21
2023-08-08T18:00	11543	211	-44.3	-76.2	283	20
2023-08-08T18:00	11578	210	-44.2	-76.6	284	19
2023-08-08T18:00	11601	209	-43.6	-76.2	286	18
2023-08-08T18:00	11627	208	-43.3	-75.9	287	18
2023-08-08T18:00	11659	207	-43.4	-76.0	287	18
2023-08-08T18:00	11683	206	-43.4	-76.0	287	17
2023-08-08T18:00	11705	206	-43.7	-76.2	286	17
2023-08-08T18:00	11729	205	-43.6	-76.2	285	17
2023-08-08T18:00	11754	204	-43.6	-76.7	285	16
2023-08-08T18:00	11778	203	-43.8	-76.9	285	16
2023-08-08T18:00	11802	203	-43.9	-76.4	284	16
2023-08-08T18:00	11825	202	-44.1	-76.5	283	16
2023-08-08T18:00	11848	201	-44.3	-76.7	282	16
2023-08-08T18:00	11872	201	-44.5	-76.8	281	16
2023-08-08T18:00	11891	200	-44.8	-77.0	281	15
2023-08-08T18:00	11917	199	-44.9	-77.1	280	15
2023-08-08T18:00	11939	199	-44.7	-77.5	280	14
2023-08-08T18:00	11959	198	-44.2	-77.1	279	14
2023-08-08T18:00	11979	197	-43.9	-76.9	278	13
2023-08-08T18:00	12002	197	-44.0	-77.0	277	13
2023-08-08T18:00	12025	196	-44.2	-76.6	275	13
2023-08-08T18:00	12046	195	-44.3	-76.7	274	14
2023-08-08T18:00	12068	195	-44.5	-76.8	273	14
2023-08-08T18:00	12091	194	-44.5	-76.8	273	15
2023-08-08T18:00	12112	193	-44.5	-76.8	272	15
2023-08-08T18:00	12132	193	-44.6	-76.9	272	15
2023-08-08T18:00	12154	192	-44.6	-76.9	272	15
2023-08-08T18:00	12175	192	-44.4	-76.7	272	15
2023-08-08T18:00	12198	191	-44.3	-76.7	272	15
2023-08-08T18:00	12219	190	-44.3	-76.7	272	15
2023-08-08T18:00	12241	190	-44.2	-77.1	272	15
2023-08-08T18:00	12262	189	-44.2	-77.1	271	15
2023-08-08T18:00	12284	189	-44.0	-77.0	270	15
2023-08-08T18:00	12307	188	-44.0	-77.0	269	16
2023-08-08T18:00	12327	187	-43.9	-76.9	269	16
2023-08-08T18:00	12352	187	-44.0	-77.0	269	16
2023-08-08T18:00	12373	186	-44.2	-77.1	271	16
2023-08-08T18:00	12396	185	-44.4	-77.3	273	16
2023-08-08T18:00	12421	185	-44.1	-77.7	276	15
2023-08-08T18:00	12449	184	-43.3	-77.7	279	14
2023-08-08T18:00	12469	183	-42.8	-77.4	281	14
2023-08-08T18:00	12494	183	-42.5	-77.2	282	13
2023-08-08T18:00	12518	182	-42.6	-77.2	283	12
2023-08-08T18:00	12547	181	-42.9	-77.5	284	12
2023-08-08T18:00	12572	181	-43.1	-77.6	284	11
2023-08-08T18:00	12596	180	-43.3	-77.1	284	10
2023-08-08T18:00	12620	179	-43.5	-77.2	284	10
2023-08-08T18:00	12643	179	-43.6	-77.3	285	10
2023-08-08T18:00	12663	178	-43.8	-77.4	286	10
2023-08-08T18:00	12682	178	-44.0	-77.6	286	10
2023-08-08T18:00	12705	177	-44.0	-77.6	287	11
2023-08-08T18:00	12725	177	-43.8	-77.4	287	11
2023-08-08T18:00	12745	176	-43.8	-78.1	287	11
2023-08-08T18:00	12768	175	-43.7	-78.0	287	11
2023-08-08T18:00	12791	175	-43.6	-78.0	287	11
2023-08-08T18:00	12808	174	-43.6	-78.0	286	11
2023-08-08T18:00	12829	174	-43.7	-78.0	285	10
2023-08-08T18:00	12847	173	-43.9	-77.5	285	10
2023-08-08T18:00	12865	173	-44.0	-77.6	285	10
2023-08-08T18:00	12889	172	-44.0	-77.6	285	9
2023-08-08T18:00	12910	172	-43.7	-78.0	285	9
2023-08-08T18:00	12932	171	-43.5	-77.9	285	8
2023-08-08T18:00	12957	171	-43.6	-78.0	283	8
2023-08-08T18:00	12975	170	-43.8	-78.1	281	8
2023-08-08T18:00	12995	170	-43.6	-78.0	279	8
2023-08-08T18:00	13015	169	-43.6	-78.0	277	8
2023-08-08T18:00	13034	169	-43.7	-78.0	275	8
2023-08-08T18:00	13052	168	-43.8	-78.1	272	8
2023-08-08T18:00	13073	168	-44.0	-78.2	269	8
2023-08-08T18:00	13092	167	-44.0	-78.2	265	8
2023-08-08T18:00	13113	167	-44.0	-78.2	261	8
2023-08-08T18:00	13135	166	-44.1	-78.3	258	8
2023-08-08T18:00	13154	166	-44.2	-78.4	254	8
2023-08-08T18:00	13175	165	-44.2	-78.4	253	8
2023-08-08T18:00	13195	165	-43.3	-77.7	252	8
2023-08-08T18:00	13215	164	-43.3	-77.7	252	8
2023-08-08T18:00	13236	164	-43.4	-77.8	252	8
2023-08-08T18:00	13256	163	-43.5	-77.9	252	8
2023-08-08T18:00	13278	163	-43.7	-78.0	253	8
2023-08-08T18:00	13300	162	-43.8	-78.1	254	8
2023-08-08T18:00	13321	162	-43.8	-78.1	256	8
2023-08-08T18:00	13341	161	-43.9	-78.2	258	8
2023-08-08T18:00	13362	161	-43.9	-78.2	260	8
2023-08-08T18:00	13383	160	-44.1	-78.3	262	8
2023-08-08T18:00	13406	160	-44.2	-78.4	263	8
2023-08-08T18:00	13428	159	-44.2	-78.4	265	8
2023-08-08T18:00	13449	159	-44.2	-78.4	266	8
2023-08-08T18:00	13471	158	-44.2	-78.4	266	8
2023-08-08T18:00	13493	157	-44.2	-78.4	266	8
2023-08-08T18:00	13515	157	-44.3	-79.2	267	8
2023-08-08T18:00	13538	156	-44.0	-79.0	267	9
2023-08-08T18:00	13561	156	-43.8	-78.8	267	9
2023-08-08T18:00	13580	155	-43.8	-78.8	267	9
2023-08-08T18:00	13603	155	-43.8	-78.8	268	9
2023-08-08T18:00	13626	154	-43.7	-78.8	268	9
2023-08-08T18:00	13648	154	-43.6	-78.7	269	9
2023-08-08T18:00	13669	153	-43.8	-78.8	271	9
2023-08-08T18:00	13690	153	-43.9	-78.9	274	9
2023-08-08T18:00	13716	152	-43.9	-78.9	278	9
2023-08-08T18:00	13739	152	-43.7	-78.8	283	8
2023-08-08T18:00	13761	151	-43.8	-78.8	287	8
2023-08-08T18:00	13781	151	-43.7	-78.8	291	7
2023-08-08T18:00	13807	150	-43.7	-78.8	294	7
2023-08-08T18:00	13831	150	-43.8	-78.8	297	6
2023-08-08T18:00	13857	149	-43.9	-78.9	299	5
2023-08-08T18:00	13883	149	-44.1	-79.0	301	5
2023-08-08T18:00	13907	148	-44.2	-79.1	303	4
2023-08-08T18:00	13930	148	-44.2	-79.1	305	3
2023-08-08T18:00	13953	147	-44.3	-78.5	307	3
2023-08-08T18:00	13975	147	-44.5	-78.6	310	3
2023-08-08T18:00	13998	146	-44.7	-78.8	314	2
2023-08-08T18:00	14019	146	-44.8	-78.8	319	2
2023-08-08T18:00	14044	145	-44.6	-79.4	326	1
2023-08-08T18:00	14064	145	-44.4	-79.3	338	1
2023-08-08T18:00	14086	144	-44.2	-79.1	11	0
2023-08-08T18:00	14107	144	-44.2	-79.1	102	0
2023-08-08T18:00	14129	143	-44.2	-79.1	131	1
2023-08-08T18:00	14151	143	-44.3	-79.2	142	1
2023-08-08T18:00	14173	142	-44.4	-78.5	150	1
2023-08-08T18:00	14195	142	-44.5	-78.6	157	1
2023-08-08T18:00	14217	141	-44.6	-78.7	163	2
2023-08-08T18:00	14243	141	-44.7	-78.8	166	2
2023-08-08T18:00	14264	140	-44.8	-78.8	168	2
2023-08-08T18:00	14284	140	-45.0	-79.0	170	3
2023-08-08T18:00	14307	139	-45.1	-79.0	170	3
2023-08-08T18:00	14331	139	-45.3	-79.2	171	3
2023-08-08T18:00	14350	139	-45.4	-79.3	172	4
2023-08-08T18:00	14374	138	-45.6		173	4
2023-08-08T18:00	14398	138	-45.7	-79.5	174	4
2023-08-08T18:00	14420	137	-45.9	-79.6	175	5
2023-08-08T18:00	14441	137	-46.0	-79.7	174	5
2023-08-08T18:00	14461	136	-46.1	-79.8	173	4
2023-08-08T18:00	14483	136	-46.1	-79.8	170	4
2023-08-08T18:00	14507	135	-46.0	-79.7	167	4
2023-08-08T18:00	14528	135	-45.8	-79.6	164	3
2023-08-08T18:00	14549	134	-45.7	-79.5	163	3
2023-08-08T18:00	14571	134	-45.6		165	3
2023-08-08T18:00	14591	134	-45.4	-79.3	167	3
2023-08-08T18:00	14612	133	-45.5	-79.3	169	3
2023-08-08T18:00	14634	133	-45.5	-79.3	170	3
2023-08-08T18:00	14657	132	-45.6		170	3
2023-08-08T18:00	14680	132	-45.8	-79.6	170	4
2023-08-08T18:00	14701	131	-45.9	-79.6	170	4
2023-08-08T18:00	14723	131	-46.0	-79.7	171	4
2023-08-08T18:00	14745	131	-46.1	-79.8	174	4
2023-08-08T18:00	14765	130	-46.1	-79.8	179	4
2023-08-08T18:00	14791	130	-46.0	-79.7	184	4
2023-08-08T18:00	14812	129	-46.1	-79.8	189	5
2023-08-08T18:00	14831	129	-46.3	-79.9	194	5
2023-08-08T18:00	14851	129	-46.3	-79.9	199	5
2023-08-08T18:00	14871	128	-46.1	-79.8	203	5
2023-08-08T18:00	14895	128	-46.0	-79.7	206	6
2023-08-08T18:00	14916	127	-46.0	-79.7	209	6
2023-08-08T18:00	14937	127	-46.1	-79.8	211	6
2023-08-08T18:00	14961	126	-46.3	-79.9	213	7
2023-08-08T18:00	14982	126	-46.4	-80.0	215	7
2023-08-08T18:00	15004	126	-46.4	-80.0	217	7
2023-08-08T18:00	15027	125	-46.4	-80.0	218	7
2023-08-08T18:00	15046	125	-46.6	-79.5	218	7
2023-08-08T18:00	15067	124	-46.7	-79.6	219	8
2023-08-08T18:00	15092	124	-46.7	-79.6	221	7
2023-08-08T18:00	15112	124	-46.8	-79.6	223	7
2023-08-08T18:00	15134	123	-46.9	-79.7	226	7
2023-08-08T18:00	15155	123	-46.9	-80.4	229	7
2023-08-08T18:00	15177	122	-46.6	-80.1	232	7
2023-08-08T18:00	15197	122	-46.5	-80.1	234	7
2023-08-08T18:00	15217	122	-46.6	-80.1	236	7
2023-08-08T18:00	15240	121	-46.7	-80.2	237	7
2023-08-08T18:00	15260	121	-46.6	-80.1	237	7
2023-08-08T18:00	15282	120	-46.3	-79.9	237	7
2023-08-08T18:00	15302	120	-46.2	-79.8	236	7
2023-08-08T18:00	15324	120	-46.1	-79.8	236	7
2023-08-08T18:00	15343	119	-46.1	-80.5	236	7
2023-08-08T18:00	15362	119	-46.0	-80.4	236	8
2023-08-08T18:00	15386	119	-46.0	-80.4	235	8
2023-08-08T18:00	15404	118	-46.1	-80.5	235	8
2023-08-08T18:00	15426	118	-46.0	-80.4	234	7
2023-08-08T18:00	15448	117	-45.9	-80.3	233	7
2023-08-08T18:00	15469	117	-46.0	-80.4	233	7
2023-08-08T18:00	15493	117	-46.0	-80.4	234	6
2023-08-08T18:00	15512	116	-46.0	-80.4	237	6
2023-08-08T18:00	15534	116	-45.6	-80.1	242	5
2023-08-08T18:00	15557	116	-45.2	-79.8	248	5
2023-08-08T18:00	15576	115	-45.2	-80.7	253	5
2023-08-08T18:00	15598	115	-45.1	-79.8	257	5
2023-08-08T18:00	15620	114	-45.1	-79.8	261	5
2023-08-08T18:00	15639	114	-45.0	-79.7	263	5
2023-08-08T18:00	15661	114	-45.1	-79.8	265	5
2023-08-08T18:00	15685	113	-45.3	-79.9	267	5
2023-08-08T18:00	15705	113	-45.5	-80.1	268	5
2023-08-08T18:00	15727	113	-45.7	-80.2	270	6
2023-08-08T18:00	15749	112	-45.9	-80.3	272	6
2023-08-08T18:00	15770	112	-46.1	-80.5	274	6
2023-08-08T18:00	15793	112	-46.2	-80.6	276	6
2023-08-08T18:00	15815	111	-46.2	-80.6	277	6
2023-08-08T18:00	15837	111	-46.2	-80.6	278	6
2023-08-08T18:00	15857	110	-46.2	-80.6	278	6
2023-08-08T18:00	15879	110	-46.4	-80.7	278	5
2023-08-08T18:00	15904	110	-46.5	-80.8	278	5
2023-08-08T18:00	15927	109	-46.6	-80.9	277	4
2023-08-08T18:00	15948	109	-46.7	-80.9	277	3
2023-08-08T18:00	15971	109	-46.7	-80.2	275	3
2023-08-08T18:00	15996	108	-46.8	-80.3	272	3
2023-08-08T18:00	16018	108	-47.0	-80.4	268	2
2023-08-08T18:00	16042	107	-47.2	-80.6	261	2
2023-08-08T18:00	16064	107	-47.4	-80.7	251	2
2023-08-08T18:00	16089	107	-47.6	-80.9	234	1
2023-08-08T18:00	16112	106	-47.8	-81.0	205	1
2023-08-08T18:00	16135	106	-48.0	-81.2	177	1
2023-08-08T18:00	16158	106	-48.0	-81.2	165	2
2023-08-08T18:00	16181	105	-48.1	-81.2	164	2
2023-08-08T18:00	16205	105	-48.0	-81.2	168	3
2023-08-08T18:00	16232	104	-48.1	-81.2	176	3
2023-08-08T18:00	16254	104	-48.1	-81.2	185	3
2023-08-08T18:00	16277	104	-48.0	-81.2	195	3
2023-08-08T18:00	16297	103	-47.9	-81.1	204	3
2023-08-08T18:00	16321	103	-48.1	-81.2	212	3
2023-08-08T18:00	16344	103	-48.2	-81.3	218	4
2023-08-08T18:00	16369	102	-48.2	-81.3	222	4
2023-08-08T18:00	16393	102	-48.3	-81.4	224	4
2023-08-08T18:00	16415	102	-48.4	-81.4	223	5
2023-08-08T18:00	16438	101	-48.2	-81.3	222	5
2023-08-08T18:00	16460	101	-48.0	-81.2	220	5
2023-08-08T18:00	16483	100	-48.1	-81.2	217	5
2023-08-08T18:00	16505	100	-48.2	-81.3	215	5
2023-08-08T18:00	16528	100	-48.4	-81.4	214	5
2023-08-08T18:00	16551	99	-48.5	-81.5	214	5
2023-08-08T18:00	16575	99	-48.6	-81.6	214	5
2023-08-08T18:00	16597	99	-48.6	-81.6	216	5
2023-08-08T18:00	16619	98	-48.7	-81.7	219	4
2023-08-08T18:00	16644	98	-48.5	-81.5	224	4
2023-08-08T18:00	16666	98	-48.5	-81.5	231	3
2023-08-08T18:00	16686	97	-48.5	-81.5	240	3
2023-08-08T18:00	16710	97	-48.5	-81.5	251	2
2023-08-08T18:00	16733	97	-48.5	-81.5	262	2
2023-08-08T18:00	16756	96	-48.5	-81.5	273	2
2023-08-08T18:00	16776	96	-48.4	-81.4	285	2
2023-08-08T18:00	16800	96	-48.5	-81.5	297	3
2023-08-08T18:00	16823	95	-48.4	-81.4	307	3
2023-08-08T18:00	16845	95	-48.5	-81.5	315	3
2023-08-08T18:00	16868	95	-48.6	-81.6	320	3
2023-08-08T18:00	16891	94	-48.6	-81.6	324	3
2023-08-08T18:00	16916	94	-48.7	-81.7	326	3
2023-08-08T18:00	16937	94	-48.6	-81.6	328	2
2023-08-08T18:00	16957	93	-48.6	-81.6	329	2
2023-08-08T18:00	16980	93	-48.7	-81.7	330	1
2023-08-08T18:00	17003	93	-48.9	-81.8	330	1
2023-08-08T18:00	17026	93	-49.0	-81.9	329	0
2023-08-08T18:00	17048	92	-49.2	-82.0	204	0
2023-08-08T18:00	17069	92	-49.3	-82.1	165	1
2023-08-08T18:00	17093	92	-49.4	-82.2	166	1
2023-08-08T18:00	17114	91	-49.5	-82.3	168	1
2023-08-08T18:00	17141	91	-49.7	-82.4	170	2
2023-08-08T18:00	17161	91	-49.8	-82.5	170	2
2023-08-08T18:00	17182	90	-50.0	-82.6	170	2
2023-08-08T18:00	17209	90	-49.8	-82.5	170	3
2023-08-08T18:00	17231	90	-49.6	-82.3	170	3
2023-08-08T18:00	17253	89	-49.5	-82.3	171	3
2023-08-08T18:00	17277	89	-49.5	-82.3	174	2
2023-08-08T18:00	17298	89	-49.4	-82.2	179	2
2023-08-08T18:00	17319	88	-49.5	-82.3	186	2
2023-08-08T18:00	17344	88	-49.6	-82.3	197	2
2023-08-08T18:00	17366	88	-49.8	-82.5	211	2
2023-08-08T18:00	17388	88	-49.9	-82.5	226	2
2023-08-08T18:00	17411	87	-50.0	-82.6	237	2
2023-08-08T18:00	17433	87	-50.2	-82.8	243	2
2023-08-08T18:00	17458	87	-50.3	-82.8	243	3
2023-08-08T18:00	17481	86	-50.4	-82.9	241	3
2023-08-08T18:00	17506	86	-50.4	-82.9	237	3
2023-08-08T18:00	17526	86	-50.4	-82.9	235	3
2023-08-08T18:00	17546	85	-50.4	-82.9	235	3
2023-08-08T18:00	17570	85	-50.5	-83.0	240	3
2023-08-08T18:00	17591	85	-50.4	-82.9	248	2
2023-08-08T18:00	17615	85	-50.5	-83.0	260	2
2023-08-08T18:00	17637	84	-50.7	-83.1	271	2
2023-08-08T18:00	17660	84	-50.8	-83.2	281	2
2023-08-08T18:00	17683	84	-50.9	-83.3	287	1
2023-08-08T18:00	17707	83	-50.9	-83.3	292	1
2023-08-08T18:00	17730	83	-51.0	-83.3	294	1
2023-08-08T18:00	17753	83	-51.0	-83.3	288	1
2023-08-08T18:00	17776	83	-51.0	-83.3	267	0
2023-08-08T18:00	17796	82	-50.9	-83.3	247	1
2023-08-08T18:00	17820	82	-50.7	-83.1	240	1
2023-08-08T18:00	17844	82	-50.8	-83.2	237	1
2023-08-08T18:00	17868	81	-50.9	-83.3	236	1
2023-08-08T18:00	17888	81	-50.9	-83.3	235	1
2023-08-08T18:00	17914	81	-50.6	-83.1	232	1
2023-08-08T18:00	17937	80	-50.5	-83.0	226	1
2023-08-08T18:00	17961	80	-50.3	-82.8	192	0
2023-08-08T18:00	17987	80	-50.2	-82.8	95	1
2023-08-08T18:00	18013	80	-50.4	-82.9	82	1
2023-08-08T18:00	18038	79	-50.6	-83.1	82	2
2023-08-08T18:00	18058	79	-50.7	-83.1	86	3
2023-08-08T18:00	18085	79	-50.6	-83.1	92	3
2023-08-08T18:00	18110	78	-50.3	-82.8	99	3
2023-08-08T18:00	18130	78	-50.2	-82.8	108	3
2023-08-08T18:00	18157	78	-50.3	-82.8	116	3
2023-08-08T18:00	18178	78	-50.3	-82.8	124	3
2023-08-08T18:00	18203	77	-50.2	-82.8	132	3
2023-08-08T18:00	18229	77	-50.2	-82.8	140	3
2023-08-08T18:00	18253	77	-50.2	-82.8	150	3
2023-08-08T18:00	18275	76	-50.2	-82.8	162	2
2023-08-08T18:00	18300	76	-50.1	-82.7	176	2
2023-08-08T18:00	18321	76	-50.1	-82.7	188	2
2023-08-08T18:00	18345	76	-50.1	-82.7	198	3
2023-08-08T18:00	18371	75	-50.1	-82.7	206	3
2023-08-08T18:00	18396	75	-50.2	-82.8	212	3
2023-08-08T18:00	18418	75	-50.3	-82.8	219	3
2023-08-08T18:00	18443	74	-50.5	-83.0	226	3
2023-08-08T18:00	18469	74	-50.6	-83.1	234	3
2023-08-08T18:00	18492	74	-50.5	-83.0	243	3
2023-08-08T18:00	18517	74	-50.4	-82.9	251	3
2023-08-08T18:00	18540	73	-50.4	-82.9	257	3
2023-08-08T18:00	18567	73	-50.6	-83.1	260	4
2023-08-08T18:00	18592	73	-50.7	-83.1	260	4
2023-08-08T18:00	18618	73	-50.8	-83.2	259	4
2023-08-08T18:00	18643	72	-51.1	-83.4	258	4
2023-08-08T18:00	18668	72	-51.2	-83.5	259	5
2023-08-08T18:00	18696	72	-51.3	-83.6	263	5
2023-08-08T18:00	18721	71	-51.5	-83.7	268	5
2023-08-08T18:00	18747	71	-51.6	-83.8	276	4
2023-08-08T18:00	18771	71	-51.5	-83.7	286	4
2023-08-08T18:00	18798	71	-51.5	-83.7	296	4
2023-08-08T18:00	18820	70	-51.7	-83.9	304	4
2023-08-08T18:00	18847	70	-51.9	-84.0	311	4
2023-08-08T18:00	18874	70	-51.8	-83.9	316	4
2023-08-08T18:00	18897	69	-51.9	-84.0	319	4
2023-08-08T18:00	18925	69	-51.9	-84.0	321	4
2023-08-08T18:00	18947	69	-51.8	-83.9	323	4
2023-08-08T18:00	18975	69	-51.9	-83.4	324	4
2023-08-08T18:00	19001	68	-52.1	-83.5	327	4
2023-08-08T18:00	19027	68	-52.2	-84.2	331	3
2023-08-08T18:00	19052	68	-52.2	-84.2	338	3
2023-08-08T18:00	19076	68	-52.1	-84.2	348	3
2023-08-08T18:00	19100	67	-52.2	-84.2	359	3
2023-08-08T18:00	19125	67	-52.3	-84.3	10	3
2023-08-08T18:00	19148	67	-52.3	-84.3	21	3
2023-08-08T18:00	19171	67	-52.4	-84.4	31	3
2023-08-08T18:00	19197	66	-52.5	-84.4	40	3
2023-08-08T18:00	19219	66	-52.5	-84.4	49	3
2023-08-08T18:00	19245	66	-52.4	-84.4	57	4
2023-08-08T18:00	19271	66	-52.3	-84.3	63	4
2023-08-08T18:00	19292	65	-52.2	-84.2	65	4
2023-08-08T18:00	19314	65	-52.0	-84.1	64	5
2023-08-08T18:00	19340	65	-52.0	-84.1	62	5
2023-08-08T18:00	19364	65	-52.0	-84.1	58	5
2023-08-08T18:00	19391	64	-52.1	-84.2	55	5
2023-08-08T18:00	19414	64	-52.1	-84.2	54	5
2023-08-08T18:00	19438	64	-52.1	-84.2	54	5
2023-08-08T18:00	19459	64	-52.1	-84.2	56	5
2023-08-08T18:00	19483	63	-52.1	-84.2	60	6
2023-08-08T18:00	19504	63	-52.1	-84.2	63	6
2023-08-08T18:00	19529	63	-52.0	-84.1	66	6
2023-08-08T18:00	19548	63	-52.0	-84.1	69	6
2023-08-08T18:00	19572	63	-52.0	-84.1	71	7
2023-08-08T18:00	19594	62	-52.1	-84.2	74	7
2023-08-08T18:00	19617	62	-52.1	-84.2	77	7
2023-08-08T18:00	19641	62	-51.9	-84.0	80	7
2023-08-08T18:00	19665	62	-52.0	-84.1	83	7
2023-08-08T18:00	19687	61	-52.0	-84.1	86	7
2023-08-08T18:00	19711	61	-51.9	-84.0	89	7
2023-08-08T18:00	19731	61	-51.9	-84.0	92	6
2023-08-08T18:00	19757	61	-52.1	-84.2	96	6
2023-08-08T18:00	19784	61	-52.3	-84.3	100	5
2023-08-08T18:00	19808	60	-52.4	-84.4	103	5
2023-08-08T18:00	19831	60	-52.3	-84.3	103	5
2023-08-08T18:00	19854	60	-52.1	-84.2	100	5
2023-08-08T18:00	19875	60	-51.8	-84.6	95	5
2023-08-08T18:00	19902	59	-51.6	-84.5	89	5
2023-08-08T18:00	19925	59	-51.6	-84.5	82	5
2023-08-08T18:00	19947	59	-51.7	-84.5	76	5
2023-08-08T18:00	19969	59	-51.8	-83.9	72	5
2023-08-08T18:00	19993	59	-51.9	-84.0	71	5
2023-08-08T18:00	20020	58	-51.9	-84.0	71	5
2023-08-08T18:00	20043	58	-51.9	-84.0	72	5
2023-08-08T18:00	20067	58	-51.8	-84.6	74	4
2023-08-08T18:00	20090	58	-51.4	-84.3	75	4
2023-08-08T18:00	20116	58	-51.3	-84.3	78	3
2023-08-08T18:00	20142	57	-51.3	-84.3	86	3
2023-08-08T18:00	20162	57	-51.2	-84.2	101	2
2023-08-08T18:00	20189	57	-51.3	-84.3	120	3
2023-08-08T18:00	20216	57	-51.4	-83.6	134	3
2023-08-08T18:00	20244	56	-51.6	-83.8	142	4
2023-08-08T18:00	20264	56	-51.5	-83.7	148	5
2023-08-08T18:00	20288	56	-51.5	-83.7	152	5
2023-08-08T18:00	20312	56	-51.6	-83.8	156	5
2023-08-08T18:00	20337	56	-51.7	-83.9	160	5
2023-08-08T18:00	20365	55	-51.8	-83.9	164	5
2023-08-08T18:00	20391	55	-51.8	-83.9	169	4
2023-08-08T18:00	20414	55	-51.6	-83.8	174	3
2023-08-08T18:00	20440	55	-51.7	-83.9	179	2
2023-08-08T18:00	20470	55	-51.8	-83.9	179	2
2023-08-08T18:00	20491	54	-51.8	-83.9	170	1
2023-08-08T18:00	20512	54	-51.8	-83.9	146	1
2023-08-08T18:00	20541	54	-51.9	-84.0	117	1
2023-08-08T18:00	20565	54	-51.9	-84.0	99	2
2023-08-08T18:00	20592	53	-51.8	-83.9	91	2
2023-08-08T18:00	20616	53	-51.6	-83.8	87	3
2023-08-08T18:00	20642	53	-51.6	-83.8	86	3
2023-08-08T18:00	20668	53	-51.7	-83.9	86	3
2023-08-08T18:00	20695	53	-51.8	-83.9	85	3
2023-08-08T18:00	20721	52	-51.8	-83.9	84	3
2023-08-08T18:00	20745	52	-52.0	-84.1	82	3
2023-08-08T18:00	20770	52	-52.0	-84.1	78	3
2023-08-08T18:00	20799	52	-51.9	-84.0	74	3
2023-08-08T18:00	20823	52	-52.0	-84.1	70	4
2023-08-08T18:00	20846	51	-52.0	-84.1	66	4
2023-08-08T18:00	20871	51	-52.0	-84.1	62	4
2023-08-08T18:00	20899	51	-52.1	-84.2	58	4
2023-08-08T18:00	20928	51	-52.3	-84.3	56	5
2023-08-08T18:00	20950	51	-52.5	-84.4	56	5
2023-08-08T18:00	20977	50	-52.7	-84.6	57	5
2023-08-08T18:00	21003	50	-52.5	-84.4	60	6
2023-08-08T18:00	21026	50	-52.3	-84.3	64	6
2023-08-08T18:00	21052	50	-52.3	-84.3	69	6
2023-08-08T18:00	21075	50	-52.4	-84.4	74	6
2023-08-08T18:00	21101	49	-52.5	-84.4	79	5
2023-08-08T18:00	21128	49	-52.4	-84.4	83	5
2023-08-08T18:00	21154	49	-52.4	-84.4	87	5
2023-08-08T18:00	21179	49	-52.5	-84.4	88	5
2023-08-08T18:00	21202	49	-52.4	-84.4	88	6
2023-08-08T18:00	21226	48	-52.3	-84.3	87	6
2023-08-08T18:00	21249	48	-52.3	-84.3	86	7
2023-08-08T18:00	21274	48	-52.2	-84.2	84	7
2023-08-08T18:00	21301	48	-52.0	-84.1	82	7
2023-08-08T18:00	21321	48	-52.0	-84.1	81	7
2023-08-08T18:00	21350	48	-52.0	-84.1	80	7
2023-08-08T18:00	21376	47	-52.0	-84.1	79	6
2023-08-08T18:00	21396	47	-51.9	-84.0	78	6
2023-08-08T18:00	21423	47	-52.0	-84.1	78	6
2023-08-08T18:00	21449	47	-52.1	-84.2	78	6
2023-08-08T18:00	21472	47	-52.2	-84.2	79	7
2023-08-08T18:00	21497	47	-52.1	-84.2	79	7
2023-08-08T18:00	21520	46	-52.1	-84.2	79	7
2023-08-08T18:00	21540	46	-52.2	-84.2	78	8
2023-08-08T18:00	21568	46	-52.1	-84.2	78	8
2023-08-08T18:00	21592	46	-52.2	-84.2	78	9
2023-08-08T18:00	21615	46	-52.4	-84.4	79	9
2023-08-08T18:00	21641	45	-52.5	-84.4	80	9
2023-08-08T18:00	21667	45	-52.6	-84.5	83	10
2023-08-08T18:00	21691	45	-52.4	-84.4	85	10
2023-08-08T18:00	21712	45	-52.2	-84.2	88	10
2023-08-08T18:00	21738	45	-52.1	-84.2	90	9
2023-08-08T18:00	21765	45	-52.1	-84.2	93	9
2023-08-08T18:00	21788	44	-52.0	-84.1	95	8
2023-08-08T18:00	21811	44	-52.0	-84.1	97	7
2023-08-08T18:00	21835	44	-52.1	-84.2	99	7
2023-08-08T18:00	21856	44	-52.2	-84.2	101	6
2023-08-08T18:00	21881	44	-52.2	-84.2	101	6
2023-08-08T18:00	21911	44	-52.3	-84.3	101	5
2023-08-08T18:00	21934	43	-52.3	-84.3	98	5
2023-08-08T18:00	21959	43	-52.4	-84.4	94	5
2023-08-08T18:00	21985	43	-52.4	-84.4	88	5
2023-08-08T18:00	22007	43	-52.3	-84.3	83	5
2023-08-08T18:00	22034	43	-52.1	-84.2	80	5
2023-08-08T18:00	22056	43	-52.0	-84.8	78	6
2023-08-08T18:00	22082	42	-51.8	-84.6	77	7
2023-08-08T18:00	22107	42	-51.6	-84.5	76	7
2023-08-08T18:00	22139	42	-51.4	-84.3	75	8
2023-08-08T18:00	22164	42	-51.4	-84.3	74	9
2023-08-08T18:00	22188	42	-51.5	-84.4	74	9
2023-08-08T18:00	22216	42	-51.7	-83.9	76	10
2023-08-08T18:00	22243	41	-51.9	-84.0	78	10
2023-08-08T18:00	22264	41	-52.0	-84.1	81	11
2023-08-08T18:00	22290	41	-51.9	-84.0	84	11
2023-08-08T18:00	22322	41	-51.8	-83.9	88	11
2023-08-08T18:00	22349	41	-52.0	-84.1	91	11
2023-08-08T18:00	22370	41	-52.1	-84.2	94	10
2023-08-08T18:00	22400	40	-52.2	-84.2	96	10
2023-08-08T18:00	22423	40	-52.2	-84.2	98	10
2023-08-08T18:00	22445	40	-52.2	-84.2	98	10
2023-08-08T18:00	22473	40	-52.0	-84.1	99	10
2023-08-08T18:00	22502	40	-52.1	-84.2	99	10
2023-08-08T18:00	22526	40	-51.9	-84.7	100	9
2023-08-08T18:00	22550	40	-51.8	-84.6	100	9
2023-08-08T18:00	22577	39	-51.6	-84.5	100	8
2023-08-08T18:00	22600	39	-51.5	-84.4	99	7
2023-08-08T18:00	22626	39	-51.6	-84.5	98	7
2023-08-08T18:00	22651	39	-51.6	-84.5	97	7
2023-08-08T18:00	22675	39	-51.5	-84.4	95	7
2023-08-08T18:00	22698	39	-51.5	-84.4	94	7
2023-08-08T18:00	22721	38	-51.5	-84.4	93	7
2023-08-08T18:00	22751	38	-51.5	-84.4	92	7
2023-08-08T18:00	22776	38	-51.5	-84.4	92	7
2023-08-08T18:00	22802	38	-51.6	-84.5	93	7
2023-08-08T18:00	22821	38	-51.7	-84.5	95	7
2023-08-08T18:00	22852	38	-51.6	-84.5	96	8
2023-08-08T18:00	22870	38	-51.7	-83.9	98	8
2023-08-08T18:00	22899	37	-51.8	-83.9	100	8
2023-08-08T18:00	22918	37	-51.9	-84.0	103	8
2023-08-08T18:00	22951	37	-52.0	-84.1	105	9
2023-08-08T18:00	22972	37	-52.1	-84.2	108	9
2023-08-08T18:00	22997	37	-52.0	-84.1	110	9
2023-08-08T18:00	23021	37	-51.9	-84.0	112	9
2023-08-08T18:00	23044	37	-52.0	-84.1	113	9
2023-08-08T18:00	23071	36	-52.1	-84.8	113	8
2023-08-08T18:00	23098	36	-52.0	-84.8	111	8
2023-08-08T18:00	23125	36	-51.8	-84.6	109	7
2023-08-08T18:00	23149	36	-51.4	-84.3	106	6
2023-08-08T18:00	23173	36	-51.3	-84.3	103	6
2023-08-08T18:00	23194	36	-51.2	-84.2	100	6
2023-08-08T18:00	23223	36	-51.1	-84.1	98	6
2023-08-08T18:00	23247	36	-50.9	-84.0	96	6
2023-08-08T18:00	23276	35	-50.8	-83.9	93	6
2023-08-08T18:00	23300	35	-50.8	-83.9	91	6
2023-08-08T18:00	23324	35	-50.9	-84.0	87	6
2023-08-08T18:00	23355	35	-51.1	-84.1	84	6
2023-08-08T18:00	23377	35	-51.1	-84.1	80	6
2023-08-08T18:00	23404	35	-51.2	-84.2	77	6
2023-08-08T18:00	23427	35	-51.1	-84.1	74	6
2023-08-08T18:00	23456	34	-51.0	-84.0	73	6
2023-08-08T18:00	23484	34	-51.1	-84.1	74	6
2023-08-08T18:00	23513	34	-51.0	-84.0	77	6
2023-08-08T18:00	23537	34	-50.8	-83.9	80	6
2023-08-08T18:00	23567	34	-50.8	-83.9	83	6
2023-08-08T18:00	23593	34	-50.9	-84.0	84	6
2023-08-08T18:00	23619	34	-50.9	-84.0	84	6
2023-08-08T18:00	23651	33	-51.0	-84.0	82	6
2023-08-08T18:00	23669	33	-50.9	-84.0	79	6
2023-08-08T18:00	23705	33	-50.9	-84.0	75	5
2023-08-08T18:00	23732	33	-50.9	-84.0	70	5
2023-08-08T18:00	23763	33	-50.9	-84.0	64	5
2023-08-08T18:00	23790	33	-50.8	-83.9	59	5
2023-08-08T18:00	23819	33	-50.6	-83.7	55	5
2023-08-08T18:00	23845	32	-50.3	-83.5	53	5
2023-08-08T18:00	23873	32	-50.3	-84.3	53	6
2023-08-08T18:00	23898	32	-50.4	-84.4	54	6
2023-08-08T18:00	23929	32	-50.3	-83.5	57	7
2023-08-08T18:00	23951	32	-50.3	-83.5	60	7
2023-08-08T18:00	23985	32	-50.4	-83.6	65	7
2023-08-08T18:00	24017	32	-50.5	-83.7	71	7
2023-08-08T18:00	24048	31	-50.6	-83.7	76	6
2023-08-08T18:00	24070	31	-50.7	-83.8	81	6
2023-08-08T18:00	24104	31	-50.6	-83.7	86	6
2023-08-08T18:00	24127	31	-50.7	-83.8	90	6
2023-08-08T18:00	24160	31	-50.9	-84.0	93	5
2023-08-08T18:00	24180	31	-51.2	-84.2	97	5
2023-08-08T18:00	24215	31	-51.2	-84.2	101	5
2023-08-08T18:00	24243	30	-51.1	-84.1	105	4
2023-08-08T18:00	24270	30	-51.2	-84.2	108	4
2023-08-08T18:00	24294	30	-51.4	-84.3	108	4
2023-08-08T18:00	24324	30	-51.5	-84.4	105	5
2023-08-08T18:00	24356	30	-51.6	-84.5	99	5
2023-08-08T18:00	24386	30	-51.4	-84.3	91	5
2023-08-08T18:00	24406	30	-51.4	-84.3	84	6
2023-08-08T18:00	24433	30	-51.6	-84.5	78	7
2023-08-08T18:00	24463	29	-51.8	-84.6	73	8
2023-08-08T18:00	24488	29	-51.9	-84.7	70	8
2023-08-08T18:00	24519	29	-51.8	-84.6	67	9
2023-08-08T18:00	24539	29	-51.7	-84.5	66	9
2023-08-08T18:00	24564	29	-51.6	-84.5	65	9
2023-08-08T18:00	24595	29	-51.6	-84.5	65	10
2023-08-08T18:00	24621	29	-51.6	-84.5	66	10
2023-08-08T18:00	24644	29	-51.5	-84.4	67	10
2023-08-08T18:00	24672	29	-51.4	-84.3	68	10
2023-08-08T18:00	24690	28	-51.4	-84.3	68	9
2023-08-08T18:00	24723	28	-51.4	-84.3	69	9
2023-08-08T18:00	24737	28	-51.2	-84.2	68	9
2023-08-08T18:00	24762	28	-51.1	-84.1	67	8
2023-08-08T18:00	24795	28	-51.2	-84.2	65	8
2023-08-08T18:00	24821	28	-51.2	-84.2	63	8
2023-08-08T18:00	24843	28	-51.2	-84.2	62	8
2023-08-08T18:00	24866	28	-51.2	-84.2	62	8
2023-08-08T18:00	24895	28	-51.2	-84.2	63	8
2023-08-08T18:00	24917	27	-51.4	-84.3	64	8
2023-08-08T18:00	24943	27	-51.4	-84.3	66	9
2023-08-08T18:00	24968	27	-51.4	-84.3	68	9
2023-08-08T18:00	24992	27	-51.5	-84.4	69	9
2023-08-08T18:00	25015	27	-51.4	-84.3	71	10
2023-08-08T18:00	25042	27	-51.4	-84.3	72	10
2023-08-08T18:00	25071	27	-51.3	-84.3	75	11
2023-08-08T18:00	25092	27	-51.1	-84.1	77	11
2023-08-08T18:00	25114	27	-51.1	-84.1	80	12
2023-08-08T18:00	25140	27	-51.0	-84.0	82	12
2023-08-08T18:00	25168	26	-51.0	-84.0	84	12
2023-08-08T18:00	25191	26	-51.1	-84.1	85	11
2023-08-08T18:00	25221	26	-51.0	-84.0	86	11
2023-08-08T18:00	25251	26	-50.9	-84.0	85	11
2023-08-08T18:00	25270	26	-50.8	-83.9	84	10
2023-08-08T18:00	25299	26	-50.6	-84.5	83	10
2023-08-08T18:00	25329	26	-50.6	-84.5	83	10
2023-08-08T18:00	25354	26	-50.5	-84.5	82	10
2023-08-08T18:00	25385	26	-50.5	-84.5	81	10
2023-08-08T18:00	25415	25	-50.5	-84.5	80	10
2023-08-08T18:00	25440	25	-50.4	-84.4	80	10
2023-08-08T18:00	25463	25	-50.0	-84.1	79	10
2023-08-08T18:00	25495	25	-49.7	-83.9	80	10
2023-08-08T18:00	25521	25	-49.2	-83.5	82	11
2023-08-08T18:00	25560	25	-49.0	-83.4	84	11
2023-08-08T18:00	25587	25	-49.1	-83.4	86	11
2023-08-08T18:00	25611	25	-49.2	-83.5	88	11
2023-08-08T18:00	25648	25	-49.2	-83.5	90	11
2023-08-08T18:00	25670	24	-49.2	-83.5	92	11
2023-08-08T18:00	25687	24	-49.3	-83.6	94	11
2023-08-08T18:00	25725	24	-49.3	-83.6	97	11
2023-08-08T18:00	25752	24	-49.3	-83.6	100	11
2023-08-08T18:00	25780	24	-49.1	-83.4	103	11
2023-08-08T18:00	25809	24	-48.8	-83.2	106	11
2023-08-08T18:00	25832	24	-48.5	-83.0	108	11
2023-08-08T18:00	25865	24	-48.4	-83.8	110	10
2023-08-08T18:00	25895	24	-48.3	-83.8	110	10
2023-08-08T18:00	25919	24	-48.3	-83.8	110	9
2023-08-08T18:00	25948	23	-48.4	-83.8	109	8
2023-08-08T18:00	25976	23	-48.4	-83.8	107	8
2023-08-08T18:00	26010	23	-48.3	-82.9	104	7
2023-08-08T18:00	26033	23	-48.2	-82.8	101	6
2023-08-08T18:00	26065	23	-48.2	-82.8	98	6
2023-08-08T18:00	26088	23	-48.0	-83.6	96	6
2023-08-08T18:00	26119	23	-47.8	-83.4	95	6
2023-08-08T18:00	26145	23	-47.9	-83.5	94	7
2023-08-08T18:00	26176	23	-47.8	-83.4	93	7
2023-08-08T18:00	26202	23	-47.6	-83.3	93	8
2023-08-08T18:00	26227	22	-47.7	-83.4	92	8
2023-08-08T18:00	26259	22	-47.8	-83.4	92	8
2023-08-08T18:00	26288	22	-47.7	-83.4	92	8
2023-08-08T18:00	26315	22	-47.5	-83.2	92	8
2023-08-08T18:00	26341	22	-47.5	-83.2	92	7
2023-08-08T18:00	26363	22	-47.5	-83.2	91	7
2023-08-08T18:00	26396	22	-47.5	-83.2	89	6
2023-08-08T18:00	26429	22	-47.4	-83.1	85	6
2023-08-08T18:00	26452	22	-47.3	-83.1	80	5
2023-08-08T18:00	26475	22	-47.4	-83.1	74	5
2023-08-08T18:00	26513	22	-47.5	-83.2	68	5
2023-08-08T18:00	26547	21	-47.5	-83.2	63	5
2023-08-08T18:00	26569	21	-47.6	-83.3	61	5
2023-08-08T18:00	26597	21	-47.6	-83.3	61	5
2023-08-08T18:00	26632	21	-47.7	-82.4	63	5
2023-08-08T18:00	26656	21	-47.7	-82.4	66	6
2023-08-08T18:00	26689	21	-47.7	-82.4	69	6
2023-08-08T18:00	26711	21	-47.7	-83.4	72	7
2023-08-08T18:00	26745	21	-47.6	-83.3	73	7
2023-08-08T18:00	26765	21	-47.6	-83.3	75	7
2023-08-08T18:00	26803	21	-47.5	-83.2	75	8
2023-08-08T18:00	26825	21	-47.4	-83.1	75	8
2023-08-08T18:00	26858	20	-47.3	-83.1	74	8
2023-08-08T18:00	26886	20	-47.2	-83.0	73	9
2023-08-08T18:00	26912	20	-47.2	-83.0	71	9
2023-08-08T18:00	26945	20	-47.1	-82.9	70	9
2023-08-08T18:00	26971	20	-47.1	-82.9	68	10
2023-08-08T18:00	27007	20	-47.0	-82.9	68	10
2023-08-08T18:00	27041	20	-47.1	-82.9	68	11
2023-08-08T18:00	27071	20	-47.3	-83.1	69	11
2023-08-08T18:00	27100	20	-47.2	-83.0	70	12
2023-08-08T18:00	27126	20	-47.0	-82.9	72	12
2023-08-08T18:00	27150	20	-46.9	-82.8	74	12
2023-08-08T18:00	27180	19	-47.0	-82.9	76	13
2023-08-08T18:00	27205	19	-47.0	-82.9	79	13
2023-08-08T18:00	27229	19	-47.2	-83.0	81	13
2023-08-08T18:00	27256	19	-47.3	-83.1	85	13
2023-08-08T18:00	27283	19	-47.5	-83.2	88	13
2023-08-08T18:00	27303	19	-47.5	-83.2	92	13
2023-08-08T18:00	27332	19	-47.6	-83.3	96	13
2023-08-08T18:00	27373	19	-47.6	-83.3	100	13
2023-08-08T18:00	27395	19	-47.6	-83.3	104	13
2023-08-08T18:00	27432	19	-47.5	-83.2	108	13
2023-08-08T18:00	27449	19	-47.3	-83.1	111	13
2023-08-08T18:00	27470	19	-47.1	-82.9	114	12
2023-08-08T18:00	27511	19	-47.1	-82.9	117	12
2023-08-08T18:00	27540	18	-47.2	-83.0	119	11
2023-08-08T18:00	27568	18	-47.1	-82.9	121	11
2023-08-08T18:00	27586	18	-46.8	-82.7	121	10
2023-08-08T18:00	27608	18	-46.6	-82.6	120	9
2023-08-08T18:00	27649	18	-46.5	-82.5	118	9
2023-08-08T18:00	27670	18	-46.5	-82.5	115	8
2023-08-08T18:00	27693	18	-46.4	-82.4	111	8
2023-08-08T18:00	27722	18	-46.3	-82.4	108	8
2023-08-08T18:00	27751	18	-46.3	-82.4	105	8
2023-08-08T18:00	27779	18	-46.3	-82.4	103	8
2023-08-08T18:00	27807	18	-46.3	-82.4	100	8
2023-08-08T18:00	27833	18	-46.3	-82.4	97	8
2023-08-08T18:00	27865	18	-46.3	-82.4	94	9
2023-08-08T18:00	27890	18	-46.2	-82.3	91	9
2023-08-08T18:00	27914	17	-46.2	-82.3	90	10
2023-08-08T18:00	27946	17	-46.1	-82.2	90	10
2023-08-08T18:00	27956	17	-46.0	-82.1	90	10
2023-08-08T18:00	27991	17	-45.8	-82.0	92	11
2023-08-08T18:00	28018	17	-45.7	-81.9	94	11
2023-08-08T18:00	28056	17	-45.7	-81.9	96	12
2023-08-08T18:00	28067	17	-45.8	-82.0	100	12
2023-08-08T18:00	28107	17	-45.9	-82.1	104	12
2023-08-08T18:00	28121	17	-45.9	-82.1	108	12
2023-08-08T18:00	28160	17	-45.7	-81.9	113	12
2023-08-08T18:00	28186	17	-45.7	-81.9	118	12
2023-08-08T18:00	28218	17	-45.7	-81.9	122	12
2023-08-08T18:00	28246	17	-45.7	-81.9	126	12
2023-08-08T18:00	28273	17	-45.7	-81.9	130	12
2023-08-08T18:00	28296	16	-45.7	-81.9	132	11
2023-08-08T18:00	28323	16	-45.8	-82.0	134	11
2023-08-08T18:00	28361	16	-45.9	-82.1	133	10
2023-08-08T18:00	28389	16	-45.7	-81.9	132	10
2023-08-08T18:00	28411	16	-45.6	-82.9	130	9
2023-08-08T18:00	28447	16	-45.4	-82.8	128	8
2023-08-08T18:00	28478	16	-45.0	-82.5	125	8
2023-08-08T18:00	28513	16	-44.7	-82.3	122	7
2023-08-08T18:00	28537	16	-44.5	-82.2	119	6
2023-08-08T18:00	28580	16	-44.4	-82.1	115	6
2023-08-08T18:00	28590	16	-44.1	-81.9	112	5
2023-08-08T18:00	28629	16	-43.9	-81.8	110	4
2023-08-08T18:00	28666	16	-43.9	-81.8	109	4
2023-08-08T18:00	28688	16	-43.8	-81.7	108	3
2023-08-08T18:00	28732	15	-43.8	-81.7	103	2
2023-08-08T18:00	28746	15	-43.7	-81.6	91	2
2023-08-08T18:00	28772	15	-43.7	-81.6	72	2
2023-08-08T18:00	28809	15	-43.5	-81.5	62	2
2023-08-08T18:00	28840	15	-43.5	-81.5	65	2
2023-08-08T18:00	28874	15	-43.1	-81.2	74	3
2023-08-08T18:00	28911	15	-42.9	-81.1	86	4
2023-08-08T18:00	28934	15	-43.1	-81.2	95	4
2023-08-08T18:00	28965	15	-43.2	-81.3	103	5
2023-08-08T18:00	28996	15	-43.2	-81.3	108	6
2023-08-08T18:00	29039	15	-43.3	-81.3	111	7
2023-08-08T18:00	29048	15	-43.3	-81.3	111	8
2023-08-08T18:00	29081	15	-43.2	-81.3	110	8
2023-08-08T18:00	29119	15	-43.1	-81.2	108	8
2023-08-08T18:00	29145	15	-42.7	-80.9	106	8
2023-08-08T18:00	29171	14	-42.6	-80.8	106	8
2023-08-08T18:00	29199	14	-42.4	-80.7	107	9
2023-08-08T18:00	29234	14	-42.3	-80.6	107	9
2023-08-08T18:00	29254	14	-42.2	-80.6	107	9
2023-08-08T18:00	29293	14	-42.1	-80.5	105	9
2023-08-08T18:00	29332	14	-42.0	-80.4	102	9
2023-08-08T18:00	29359	14	-41.9	-80.4	97	9
2023-08-08T18:00	29373	14	-41.7	-80.2	92	8
2023-08-08T18:00	29405	14	-41.5	-80.1	87	8
2023-08-08T18:00	29442	14	-41.5	-80.1	81	7
2023-08-08T18:00	29459	14	-41.4	-80.0	77	6
2023-08-08T18:00	29501	14	-41.3	-79.9	73	6
2023-08-08T18:00	29526	14	-41.3	-79.9	70	6
2023-08-08T18:00	29558	14	-41.3	-79.9	69	5
2023-08-08T18:00	29583	14	-41.2	-79.9	71	5
2023-08-08T18:00	29612	14	-41.1	-79.8	75	5
2023-08-08T18:00	29643	13	-41.1	-79.8	81	5
2023-08-08T18:00	29669	13	-41.2	-79.9	86	5
2023-08-08T18:00	29699	13	-41.2	-79.9	89	6
2023-08-08T18:00	29729	13	-41.1	-79.8	89	6
2023-08-08T18:00	29758	13	-40.9	-79.7	88	6
2023-08-08T18:00	29795	13	-40.8	-79.6	84	7
2023-08-08T18:00	29806	13	-40.7	-79.5	81	7
2023-08-08T18:00	29840	13	-40.6	-79.5	77	8
2023-08-08T18:00	29863	13	-40.6	-79.5	74	8
2023-08-08T18:00	29894	13	-40.6	-79.5	72	8
2023-08-08T18:00	29929	13	-40.6	-79.5	70	8
2023-08-08T18:00	29951	13	-40.7	-79.5	68	9
2023-08-08T18:00	29988	13	-40.7	-79.5	65	9
2023-08-08T18:00	30017	13	-40.8	-79.6	63	10
2023-08-08T18:00	30045	13	-40.8	-79.6	61	10
2023-08-08T18:00	30081	13	-40.9	-79.7	59	11
2023-08-08T18:00	30112	13	-40.9	-79.7	58	11
2023-08-08T18:00	30135	13	-40.9	-79.7	58	12
2023-08-08T18:00	30171	12	-40.9	-79.7	60	12
2023-08-08T18:00	30217	12	-40.8	-79.6	62	12
2023-08-08T18:00	30235	12	-40.7	-79.5	66	12
2023-08-08T18:00	30266	12	-40.6	-79.5	70	12
2023-08-08T18:00	30295	12	-40.7	-79.5	74	12
2023-08-08T18:00	30326	12	-40.9	-79.7	79	11
2023-08-08T18:00	30368	12	-41.0	-79.7	82	11
2023-08-08T18:00	30391	12	-41.2	-79.9	84	10
2023-08-08T18:00	30416	12	-41.3	-79.9	84	10
2023-08-08T18:00	30449	12	-41.2	-79.9	82	10
2023-08-08T18:00	30475	12	-40.9	-79.7	78	10
2023-08-08T18:00	30513	12	-40.7	-79.5	74	10
2023-08-08T18:00	30543	12	-40.7	-79.5	70	10
2023-08-08T18:00	30565	12	-40.7	-79.5	69	10
2023-08-08T18:00	30613	12	-40.6	-79.5	69	11
2023-08-08T18:00	30635	12	-40.5	-79.4	70	12
2023-08-08T18:00	30658	12	-40.5	-79.4	72	13
2023-08-08T18:00	30699	12	-40.4	-79.3	74	14
2023-08-08T18:00	30722	12	-40.2	-79.2	75	14
2023-08-08T18:00	30759	11	-39.9	-79.0	76	15
2023-08-08T18:00	30791	11	-39.5	-78.7	77	16
2023-08-08T18:00	30822	11	-39.3	-78.5	78	16
2023-08-08T18:00	30849	11	-39.2	-78.5	80	16
2023-08-08T18:00	30882	11	-39.2	-78.5	83	17
2023-08-08T18:00	30894	11	-39.3	-78.5	85	17
2023-08-08T18:00	30946	11	-39.3	-78.5	87	17
2023-08-08T18:00	30971	11	-39.4	-78.6	88	18
2023-08-08T18:00	31013	11	-39.5	-78.7	89	18
2023-08-08T18:00	31036	11	-39.7	-78.8	90	17
2023-08-08T18:00	31056	11	-39.8	-78.9	90	17
2023-08-08T18:00	31089	11	-39.9	-79.0	91	16
2023-08-08T18:00	31123	11	-39.8	-78.9	93	15
2023-08-08T18:00	31174	11	-39.7	-78.8	95	15
2023-08-08T18:00	31192	11	-39.7	-78.8	96	14
2023-08-08T18:00	31233	11	-39.6	-78.8	98	14
2023-08-08T18:00	31243	11	-39.6	-78.8	98	13
2023-08-08T18:00	31293	11	-39.5	-78.7	98	13
2023-08-08T18:00	31312	11	-39.4	-78.6	97	12
2023-08-08T18:00	31353	11	-39.4	-78.6	96	12
2023-08-08T18:00	31374	10	-39.4	-78.6	95	12
2023-08-08T18:00	31393	10	-39.4	-78.6	93	12
2023-08-08T18:00	31444	10	-39.3	-78.5	90	13
2023-08-08T18:00	31474	10	-39.2	-78.5	87	13
2023-08-08T18:00	31503	10	-39.2	-78.5	85	13
2023-08-08T18:00	31535	10	-39.3	-78.5	82	13
2023-08-08T18:00	31558	10	-39.1	-78.4	81	14
2023-08-08T18:00	31595	10	-38.8	-78.2	81	14
2023-08-08T18:00	31622	10	-38.5	-78.0	83	14
2023-08-08T18:00	31663	10	-38.5	-78.0	85	13
2023-08-08T18:00	31696	10	-38.6	-78.1	87	13
2023-08-08T18:00	31707	10	-38.5	-78.0	90	12
2023-08-08T18:00	31739	10	-38.5	-78.0	93	12
2023-08-08T18:00	31751	10	-38.5	-78.0	96	12
2023-08-08T18:00	31783	10	-38.5	-78.0	99	12
2023-08-08T18:00	31817	10	-38.5	-78.0	102	12
2023-08-08T18:00	31844	10	-38.6	-78.1	104	13
2023-08-08T18:00	31876	10	-38.6	-78.1	106	13
2023-08-08T18:00	31899	10	-38.4	-77.9	108	12
2023-08-08T18:00	31932	10	-38.2	-77.8	109	12
2023-08-08T18:00	31979	10	-38.1	-77.7	110	12
2023-08-08T18:00	31989	10	-38.0	-77.6	110	11
2023-08-08T18:00	32029	10	-37.7	-77.4	110	11
2023-08-08T18:00	32042	10	-37.4	-77.2	109	11
2023-08-08T18:00	32087	9	-37.3	-77.2	107	10
2023-08-08T18:00	32096	9	-37.1	-77.0	105	10
2023-08-08T18:00	32131	9	-37.0	-77.0	102	10
2023-08-08T18:00	32169	9	-36.8	-76.8	99	10
2023-08-08T18:00	32195	9	-36.6	-76.7	97	10
2023-08-08T18:00	32214	9	-36.4	-76.5	96	10
2023-08-08T18:00	32252	9	-36.1	-76.3	96	10
2023-08-08T18:00	32278	9	-36.0	-76.3	97	11
2023-08-08T18:00	32308	9	-35.8	-76.1	97	11
2023-08-08T18:00	32341	9	-35.8	-76.1	98	11
2023-08-08T18:00	32363	9	-35.8	-76.1	98	11
2023-08-08T18:00	32410	9	-35.8	-76.1	98	11
2023-08-08T18:00	32432	9	-35.7	-76.1	99	11
2023-08-08T18:00	32451	9	-35.6	-76.0	100	11
2023-08-08T18:00	32483	9	-35.6	-76.0	102	11
2023-08-08T18:00	32510	9	-35.7	-76.1	104	12
2023-08-08T18:00	32557	9	-35.8	-76.1	107	12
2023-08-08T18:00	32574	9	-35.8	-76.1	110	12
2023-08-08T18:00	32598	9	-35.7	-76.1	112	13
2023-08-08T18:00	32633	9	-35.7	-76.1	115	13
2023-08-08T18:00	32679	9	-35.7	-76.1	117	13
2023-08-08T18:00	32682	9	-35.6	-76.0	118	13
2023-08-08T18:00	32727	9	-35.6	-76.0	119	13
2023-08-08T18:00	32751	9	-35.6	-76.0	120	12
2023-08-08T18:00	32797	9	-35.6	-76.0	120	12
2023-08-08T18:00	32816	9	-35.5	-75.9	119	12
2023-08-08T18:00	32844	8	-35.4	-75.8	117	11
2023-08-08T18:00	32900	8	-35.2	-75.7	115	11
2023-08-08T18:00	32916	8	-35.1	-75.6	113	11
2023-08-08T18:00	32933	8	-35.0	-75.6	111	10
2023-08-08T18:00	32980	8	-34.9	-75.5	109	10
2023-08-08T18:00	33022	8	-34.7	-75.4	107	10
2023-08-08T18:00	33053	8	-34.6	-75.3	106	10
2023-08-08T18:00	33078	8	-34.5	-75.2	105	10
2023-08-08T18:00	33133	8	-34.5	-75.2	106	9
2023-08-08T18:00	33187	8	-34.5	-75.2	107	9
2023-08-08T18:00	33195	8	-34.4	-75.2	110	9
2023-08-08T18:00	33232	8	-34.4	-75.2	114	9
2023-08-08T18:00	33265	8	-34.6	-75.3	118	9
2023-08-08T18:00	33266	8	-34.7	-75.4	122	10
2023-08-08T18:00	33314	8	-34.8	-75.4	125	10
2023-08-08T18:00	33372	8	-34.8	-75.4	127	10
2023-08-08T18:00	33406	8	-34.8	-75.4	127	10
2023-08-08T18:00	33440	8	-34.8	-75.4	126	10
2023-08-08T18:00	33468	8	-34.8	-75.4	124	10
2023-08-08T18:00	33502	8	-34.9	-75.5	123	10
2023-08-08T18:00	33528	8	-35.0	-75.6	122	10
2023-08-08T18:00	33551	8	-35.0	-75.6	123	9
2023-08-08T18:00	33603	8	-35.0	-75.6	124	9
2023-08-08T18:00	33624	8	-35.0	-75.6	125	8
2023-08-08T18:00	33660	8	-35.0	-75.6	126	8
2023-08-08T18:00	33663	8	-35.0	-75.6	127	7
2023-08-08T18:00	33735	7	-35.1	-75.6	127	7
2023-08-08T18:00	33758	7	-35.3	-75.8	125	7
2023-08-08T18:00	33770	7	-35.5	-75.9	123	7
2023-08-08T18:00	33817	7	-35.6	-76.0	120	7
2023-08-08T18:00	33841	7	-35.8	-76.1	116	7
2023-08-08T18:00	33852	7	-35.8	-76.1	114	7
2023-08-08T18:00	33886	7	-35.8	-76.1	112	7
2023-08-08T18:00	33936	7	-36.0	-76.3	111	8
2023-08-08T18:00	33941	7	-35.9	-76.2	110	8
2023-08-08T18:00	33943	7	-35.9	-76.2	110	8
2023-08-08T18:00	34028	7	-35.8	-76.1	110	7
2023-08-08T18:00	34047	7	-35.6	-76.0	109	7
2023-08-08T18:00	34066	7	-35.5	-75.9	106	6
2023-08-08T18:00	34092	7	-35.6	-76.0	103	6
2023-08-08T18:00	34129	7	-35.5	-75.9	98	6
2023-08-08T18:00	34148	7	-35.4	-75.8	95	7
2023-08-08T18:00	34173	7	-35.2	-75.7	93	8
2023-08-08T18:00	34183	7	-35.1	-75.6	92	9
2023-08-08T18:00	34221	7	-35.0	-75.6	93	10
2023-08-08T18:00	34257	7	-35.1	-75.6	94	11
2023-08-08T18:00	34261	7	-35.1	-75.6	97	12
2023-08-08T18:00	34321	7	-35.2	-75.7	99	12
2023-08-08T18:00	34322	7	-35.2	-75.7	101	13
2023-08-08T18:00	34364	7	-35.1	-75.6	102	13
2023-08-08T18:00	34373	7	-35.1	-75.6	103	14
2023-08-09T00:00	112	998	12.8	11.5	240	6
2023-08-09T00:00	142	995	13.0	11.2	242	6
2023-08-09T00:00	165	992	12.9	11.0	244	8
2023-08-09T00:00	200	988	12.9	10.5	246	10
2023-08-09T00:00	219	986	12.9	10.5	248	11
2023-08-09T00:00	248	983	12.6	10.3	250	12
2023-08-09T00:00	272	980	12.4	10.3	251	13
2023-08-09T00:00	300	976	12.4	10.0	251	13
2023-08-09T00:00	328	973	12.3	9.7	252	14
2023-08-09T00:00	353	970	12.2	9.5	253	14
2023-08-09T00:00	374	968	12.1	9.3	256	14
2023-08-09T00:00	401	965	12.2	9.1	261	14
2023-08-09T00:00	424	962	12.4	8.9	267	14
2023-08-09T00:00	448	959	12.3	8.9	273	13
2023-08-09T00:00	469	957	12.2	8.7	277	13
2023-08-09T00:00	494	954	12.4	8.5	279	13
2023-08-09T00:00	518	951	12.2	8.5	279	13
2023-08-09T00:00	543	949	12.1	8.2	278	13
2023-08-09T00:00	567	946	11.9	7.8	276	13
2023-08-09T00:00	589	943	11.7	7.8	274	13
2023-08-09T00:00	615	940	11.5	7.7	274	13
2023-08-09T00:00	641	937	11.2	7.5	275	13
2023-08-09T00:00	665	935	11.0	7.6	277	13
2023-08-09T00:00	694	932	10.7	7.4	279	13
2023-08-09T00:00	721	929	10.5	7.2	282	12
2023-08-09T00:00	747	926	10.2	7.2	284	12
2023-08-09T00:00	773	923	10.0	7.2	286	12
2023-08-09T00:00	796	920	9.8	7.1	286	12
2023-08-09T00:00	816	918	9.6	7.2	286	12
2023-08-09T00:00	839	916	9.4	7.1	285	12
2023-08-09T00:00	858	913	9.2	7.0	284	12
2023-08-09T00:00	878	911	9.1	7.0	283	12
2023-08-09T00:00	900	909	9.0	6.6	282	12
2023-08-09T00:00	922	906	8.9	6.6	280	12
2023-08-09T00:00	947	904	8.7	6.3	279	12
2023-08-09T00:00	974	901	8.6	5.8	278	12
2023-08-09T00:00	1000	898	8.5	5.5	278	12
2023-08-09T00:00	1027	895	8.2	5.2	279	13
2023-08-09T00:00	1053	892	8.0	4.7	280	13
2023-08-09T00:00	1082	889	7.9	4.4	282	13
2023-08-09T00:00	1108	886	7.7	4.1	283	13
2023-08-09T00:00	1137	883	7.6	3.8	283	13
2023-08-09T00:00	1164	880	7.4	3.7	284	13
2023-08-09T00:00	1193	877	7.3	3.5	284	13
2023-08-09T00:00	1221	874	7.0	3.4	284	13
2023-08-09T00:00	1254	871	6.7	3.1	285	13
2023-08-09T00:00	1282	868	6.5	2.9	284	14
2023-08-09T00:00	1314	864	6.3	2.4	284	14
2023-08-09T00:00	1342	861	6.1	2.2	283	15
2023-08-09T00:00	1374	858	5.9	2.0	282	15
2023-08-09T00:00	1402	855	5.7	1.6	282	15
2023-08-09T00:00	1431	852	5.5	1.5	283	15
2023-08-09T00:00	1461	849	5.2	1.4	283	15
2023-08-09T00:00	1491	846	4.9	1.4	283	16
2023-08-09T00:00	1523	843	4.7	1.3	283	16
2023-08-09T00:00	1550	840	4.5	0.9	283	16
2023-08-09T00:00	1581	837	4.3	0.6	283	17
2023-08-09T00:00	1610	834	4.1	0.2	282	17
2023-08-09T00:00	1640	830	3.9	-0.1	282	17
2023-08-09T00:00	1672	827	3.7	0.0	281	18
2023-08-09T00:00	1700	825	3.5	-0.2	280	18
2023-08-09T00:00	1723	822	3.3	-0.2	279	19
2023-08-09T00:00	1744	820	3.1	-0.8	278	19
2023-08-09T00:00	1768	817	2.9	-1.1	277	19
2023-08-09T00:00	1795	815	2.6	-1.3	277	19
2023-08-09T00:00	1815	813	2.4	-1.4	277	19
2023-08-09T00:00	1834	811	2.2	-1.5	278	19
2023-08-09T00:00	1851	809	2.1	-1.5	279	19
2023-08-09T00:00	1874	807	1.9	-1.5	279	19
2023-08-09T00:00	1892	805	1.7	-1.0	278	19
2023-08-09T00:00	1911	803	1.5	-1.0	277	19
2023-08-09T00:00	1929	801	1.4	-0.7	276	19
2023-08-09T00:00	1951	799	1.2	-0.6	276	19
2023-08-09T00:00	1970	797	1.0	-0.6	275	18
2023-08-09T00:00	1986	796	1.0	-0.2	275	18
2023-08-09T00:00	2007	794	0.8	-0.3	275	18
2023-08-09T00:00	2027	792	0.8	-0.5	274	18
2023-08-09T00:00	2046	790	0.7	-0.7	272	18
2023-08-09T00:00	2060	788	0.6	-0.5	270	19
2023-08-09T00:00	2086	786	0.4	-1.8	268	19
2023-08-09T00:00	2112	784	0.7	-1.0	266	20
2023-08-09T00:00	2130	782	0.6	-1.0	265	20
2023-08-09T00:00	2148	780	0.5	-1.0	265	20
2023-08-09T00:00	2174	777	0.3	-1.2	265	20
2023-08-09T00:00	2192	776	0.2	-1.2	265	19
2023-08-09T00:00	2207	774	0.1	-1.1	264	19
2023-08-09T00:00	2230	772	0.0	-1.3	262	19
2023-08-09T00:00	2251	770	-0.1	-1.5	261	19
2023-08-09T00:00	2270	768	-0.2	-1.5	261	19
2023-08-09T00:00	2292	766	-0.3	-1.6	261	19
2023-08-09T00:00	2316	764	-0.5	-1.7	262	19
2023-08-09T00:00	2336	762	-0.7	-1.8	262	19
2023-08-09T00:00	2354	760	-0.8	-1.8	262	19
2023-08-09T00:00	2376	758	-1.0	-1.9	262	19
2023-08-09T00:00	2398	756	-1.2	-2.0	262	20
2023-08-09T00:00	2420	754	-1.4	-2.1	262	20
2023-08-09T00:00	2447	751	-1.5	-2.1	262	20
2023-08-09T00:00	2469	749	-1.7	-2.3	262	21
2023-08-09T00:00	2487	747	-1.8	-2.3	262	21
2023-08-09T00:00	2512	745	-2.0	-2.5	261	21
2023-08-09T00:00	2529	744	-2.1	-2.5	260	21
2023-08-09T00:00	2546	742	-2.1	-2.5	260	20
2023-08-09T00:00	2564	740	-2.3	-2.5	260	19
2023-08-09T00:00	2584	738	-2.5	-2.6	260	19
2023-08-09T00:00	2613	736	-2.6	-2.6	262	18
2023-08-09T00:00	2639	733	-2.8	-2.8	263	18
2023-08-09T00:00	2667	731	-3.0	-3.0	265	18
2023-08-09T00:00	2688	729	-3.1	-3.1	267	18
2023-08-09T00:00	2718	726	-3.3	-3.3	268	18
2023-08-09T00:00	2743	724	-3.5	-3.5	268	18
2023-08-09T00:00	2768	721	-3.6	-3.6	268	19
2023-08-09T00:00	2797	719	-3.7	-3.7	266	19
2023-08-09T00:00	2823	717	-3.9	-3.9	264	19
2023-08-09T00:00	2848	714	-4.0	-4.0	262	19
2023-08-09T00:00	2874	712	-4.1	-4.1	261	18
2023-08-09T00:00	2901	709	-4.4	-4.4	259	18
2023-08-09T00:00	2931	707	-4.4	-4.4	258	18
2023-08-09T00:00	2963	704	-4.6	-4.6	257	17
2023-08-09T00:00	2992	701	-4.7	-4.7	256	17
2023-08-09T00:00	3018	699	-4.9	-5.0	256	17
2023-08-09T00:00	3042	697	-4.9	-5.0	257	17
2023-08-09T00:00	3069	695	-5.1	-5.3	259	17
2023-08-09T00:00	3093	692	-5.2	-5.4	260	17
2023-08-09T00:00	3123	690	-5.4	-5.6	261	18
2023-08-09T00:00	3148	687	-5.5	-5.6	261	18
2023-08-09T00:00	3175	685	-5.7	-5.8	261	19
2023-08-09T00:00	3203	683	-5.9	-6.1	261	20
2023-08-09T00:00	3219	681	-6.1	-6.3	261	21
2023-08-09T00:00	3239	680	-6.3	-6.6	261	21
2023-08-09T00:00	3260	678	-6.5	-6.8	261	21
2023-08-09T00:00	3276	676	-6.5	-6.7	261	21
2023-08-09T00:00	3291	675	-6.6	-6.9	261	21
2023-08-09T00:00	3312	673	-7.0	-7.4	261	20
2023-08-09T00:00	3333	671	-7.1	-7.4	262	20
2023-08-09T00:00	3350	670	-7.4	-7.9	262	19
2023-08-09T00:00	3375	668	-7.3	-7.7	263	19
2023-08-09T00:00	3400	666	-7.3	-7.7	263	18
2023-08-09T00:00	3423	664	-7.4	-7.7	264	18
2023-08-09T00:00	3444	662	-7.7	-8.1	265	18
2023-08-09T00:00	3467	660	-7.8	-8.2	264	18
2023-08-09T00:00	3488	658	-8.0	-8.3	263	18
2023-08-09T00:00	3518	656	-7.9	-8.2	261	19
2023-08-09T00:00	3545	653	-9.4	-13.5	260	19
2023-08-09T00:00	3577	651	-9.8	-13.9	259	19
2023-08-09T00:00	3610	648	-9.7	-13.2	260	19
2023-08-09T00:00	3635	646	-9.2	-11.2	260	20
2023-08-09T00:00	3664	643	-9.4	-11.8	261	20
2023-08-09T00:00	3693	641	-9.6	-11.8	261	20
2023-08-09T00:00	3720	639	-9.4	-10.7	260	20
2023-08-09T00:00	3752	636	-9.2	-10.0	259	20
2023-08-09T00:00	3780	634	-9.2	-9.7	257	20
2023-08-09T00:00	3803	632	-9.5	-9.9	256	20
2023-08-09T00:00	3829	630	-9.6	-10.0	256	20
2023-08-09T00:00	3857	628	-9.9	-10.2	257	21
2023-08-09T00:00	3883	625	-10.1	-10.4	259	21
2023-08-09T00:00	3910	623	-10.2	-10.6	260	22
2023-08-09T00:00	3937	621	-10.6	-11.6	261	23
2023-08-09T00:00	3967	619	-10.8	-11.6	261	23
2023-08-09T00:00	3993	617	-11.1	-12.1	261	23
2023-08-09T00:00	4019	614	-11.3	-12.6	260	23
2023-08-09T00:00	4051	612	-11.5	-12.8	260	23
2023-08-09T00:00	4079	610	-11.7	-12.9	260	23
2023-08-09T00:00	4106	607	-11.8	-12.9	260	22
2023-08-09T00:00	4137	605	-11.9	-13.0	260	22
2023-08-09T00:00	4167	603	-12.1	-13.2	261	22
2023-08-09T00:00	4197	600	-12.4	-13.7	262	22
2023-08-09T00:00	4227	598	-12.6	-14.1	263	22
2023-08-09T00:00	4255	596	-12.9	-14.5	263	22
2023-08-09T00:00	4286	593	-13.1	-14.7	263	21
2023-08-09T00:00	4318	591	-13.4	-15.3	263	22
2023-08-09T00:00	4346	589	-13.7	-15.5	262	22
2023-08-09T00:00	4371	587	-14.0	-16.1	262	22
2023-08-09T00:00	4400	585	-14.1	-15.9	262	21
2023-08-09T00:00	4429	582	-14.7	-17.7	263	21
2023-08-09T00:00	4458	580	-14.7	-17.0	264	21
2023-08-09T00:00	4484	578	-15.0	-18.0	264	21
2023-08-09T00:00	4511	576	-15.4	-19.1	264	21
2023-08-09T00:00	4536	574	-15.7	-19.6	263	21
2023-08-09T00:00	4562	572	-15.8	-19.5	263	20
2023-08-09T00:00	4586	570	-15.9	-19.5	263	20
2023-08-09T00:00	4615	568	-16.3	-20.2	263	20
2023-08-09T00:00	4641	566	-16.4	-19.6	263	20
2023-08-09T00:00	4677	564	-16.5	-19.6	263	21
2023-08-09T00:00	4707	561	-16.6	-19.3	263	21
2023-08-09T00:00	4735	559	-17.1	-20.5	263	21
2023-08-09T00:00	4767	557	-17.5	-21.7	263	21
2023-08-09T00:00	4797	555	-18.0	-24.1	263	21
2023-08-09T00:00	4825	553	-18.5	-27.0	263	21
2023-08-09T00:00	4850	551	-18.9	-29.1	263	21
2023-08-09T00:00	4874	549	-19.1	-29.0	263	20
2023-08-09T00:00	4900	547	-19.3	-31.0	264	20
2023-08-09T00:00	4926	545	-19.6	-33.2	265	20
2023-08-09T00:00	4953	543	-19.8	-34.0	266	20
2023-08-09T00:00	4980	541	-20.0	-34.6	267	19
2023-08-09T00:00	5003	539	-20.1	-34.8	269	20
2023-08-09T00:00	5032	538	-20.2	-34.5	270	20
2023-08-09T00:00	5055	536	-20.4	-34.9	271	21
2023-08-09T00:00	5081	534	-20.6	-34.8	272	21
2023-08-09T00:00	5106	532	-20.6	-35.1	273	22
2023-08-09T00:00	5139	530	-20.6	-32.9	274	22
2023-08-09T00:00	5168	528	-20.5	-31.4	275	22
2023-08-09T00:00	5192	526	-20.6	-31.3	275	22
2023-08-09T00:00	5223	524	-20.8	-30.8	275	22
2023-08-09T00:00	5249	522	-20.8	-30.6	275	22
2023-08-09T00:00	5275	520	-20.9	-29.9	275	22
2023-08-09T00:00	5299	518	-21.0	-29.1	275	22
2023-08-09T00:00	5325	517	-21.1	-28.3	275	23
2023-08-09T00:00	5347	515	-21.1	-27.8	274	23
2023-08-09T00:00	5369	513	-21.3	-28.4	274	23
2023-08-09T00:00	5399	511	-21.4	-27.7	273	23
2023-08-09T00:00	5429	509	-21.4	-25.1	274	23
2023-08-09T00:00	5456	507	-21.3	-22.8	274	23
2023-08-09T00:00	5481	506	-21.4	-22.7	275	24
2023-08-09T00:00	5507	504	-21.6	-23.1	276	24
2023-08-09T00:00	5537	502	-21.9	-23.4	277	25
2023-08-09T00:00	5567	500	-22.1	-23.6	278	26
2023-08-09T00:00	5593	498	-22.3	-23.4	278	27
2023-08-09T00:00	5619	496	-22.3	-22.7	278	27
2023-08-09T00:00	5647	494	-22.4	-22.8	278	28
2023-08-09T00:00	5675	492	-22.4	-23.1	278	28
2023-08-09T00:00	5704	491	-22.7	-28.1	278	29
2023-08-09T00:00	5725	489	-23.3	-41.4	278	29
2023-08-09T00:00	5750	488	-23.3	-37.2	278	29
2023-08-09T00:00	5774	486	-23.2	-34.6	278	29
2023-08-09T00:00	5801	484	-23.3	-32.9	277	29
2023-08-09T00:00	5827	482	-23.3	-30.7	277	29
2023-08-09T00:00	5853	481	-23.4	-33.4	277	29
2023-08-09T00:00	5877	479	-23.7	-35.7	278	30
2023-08-09T00:00	5900	478	-23.9	-41.0	278	30
2023-08-09T00:00	5927	476	-24.0	-39.6	278	30
2023-08-09T00:00	5952	474	-24.1	-39.0	278	31
2023-08-09T00:00	5971	473	-24.2	-38.0	278	31
2023-08-09T00:00	5997	471	-24.2	-33.9	278	31
2023-08-09T00:00	6022	470	-24.3	-32.0	278	32
2023-08-09T00:00	6045	468	-24.3	-31.0	277	32
2023-08-09T00:00	6064	467	-24.5	-31.7	277	32
2023-08-09T00:00	6084	466	-24.6	-31.2	276	32
2023-08-09T00:00	6113	464	-24.6	-27.7	276	33
2023-08-09T00:00	6135	462	-24.7	-27.6	275	33
2023-08-09T00:00	6158	461	-24.8	-27.7	275	33
2023-08-09T00:00	6182	459	-24.9	-27.8	275	33
2023-08-09T00:00	6212	458	-25.1	-29.0	275	33
2023-08-09T00:00	6237	456	-25.3	-29.3	275	33
2023-08-09T00:00	6262	454	-25.4	-30.4	275	33
2023-08-09T00:00	6285	453	-25.4	-32.9	275	33
2023-08-09T00:00	6308	452	-25.5	-31.0	275	33
2023-08-09T00:00	6329	450	-25.6	-30.0	275	32
2023-08-09T00:00	6357	449	-25.8	-29.9	275	32
2023-08-09T00:00	6384	447	-26.0	-32.3	275	31
2023-08-09T00:00	6404	446	-26.1	-30.3	275	31
2023-08-09T00:00	6430	444	-26.3	-31.3	276	31
2023-08-09T00:00	6454	442	-26.4	-30.7	277	31
2023-08-09T00:00	6482	441	-26.6	-33.5	278	32
2023-08-09T00:00	6506	439	-26.8	-32.7	278	32
2023-08-09T00:00	6526	438	-26.8	-31.2	278	32
2023-08-09T00:00	6548	437	-26.9	-32.7	279	32
2023-08-09T00:00	6573	435	-27.1	-35.1	279	32
2023-08-09T00:00	6596	434	-27.2	-45.2	279	31
2023-08-09T00:00	6623	432	-27.2	-50.0	279	31
2023-08-09T00:00	6645	431	-27.2	-48.0	279	31
2023-08-09T00:00	6669	430	-27.2	-47.9	280	31
2023-08-09T00:00	6692	428	-27.2	-48.9	280	31
2023-08-09T00:00	6721	427	-27.3	-48.7	281	31
2023-08-09T00:00	6748	425	-27.5	-49.1	282	31
2023-08-09T00:00	6781	423	-27.5	-48.1	282	31
2023-08-09T00:00	6805	421	-27.7	-49.8	282	31
2023-08-09T00:00	6831	420	-27.8	-49.8	283	31
2023-08-09T00:00	6856	418	-27.8	-48.4	283	31
2023-08-09T00:00	6884	417	-28.0	-45.1	283	31
2023-08-09T00:00	6910	415	-28.2	-43.4	283	31
2023-08-09T00:00	6933	414	-28.4	-43.5	284	31
2023-08-09T00:00	6961	412	-28.7	-42.5	284	32
2023-08-09T00:00	6984	411	-28.9	-40.9	284	32
2023-08-09T00:00	7011	410	-29.1	-39.8	284	32
2023-08-09T00:00	7037	408	-29.4	-39.4	284	32
2023-08-09T00:00	7069	406	-29.6	-38.3	284	32
2023-08-09T00:00	7097	405	-29.8	-38.6	283	32
2023-08-09T00:00	7128	403	-30.1	-39.0	282	32
2023-08-09T00:00	7157	401	-30.3	-39.2	282	32
2023-08-09T00:00	7186	400	-30.6	-39.8	281	32
2023-08-09T00:00	7216	398	-30.8	-39.4	281	32
2023-08-09T00:00	7245	396	-31.0	-39.2	281	32
2023-08-09T00:00	7276	395	-31.2	-38.8	280	32
2023-08-09T00:00	7304	393	-31.4	-38.3	280	32
2023-08-09T00:00	7336	391	-31.6	-38.1	280	32
2023-08-09T00:00	7364	390	-31.9	-37.7	280	32
2023-08-09T00:00	7392	388	-32.1	-37.5	280	32
2023-08-09T00:00	7421	387	-32.3	-37.0	280	32
2023-08-09T00:00	7451	385	-32.4	-36.7	280	32
2023-08-09T00:00	7482	383	-32.6	-37.5	280	32
2023-08-09T00:00	7510	382	-32.8	-37.7	280	32
2023-08-09T00:00	7539	380	-32.9	-38.1	280	32
2023-08-09T00:00	7571	378	-33.2	-38.3	280	32
2023-08-09T00:00	7599	377	-33.4	-38.2	280	32
2023-08-09T00:00	7628	375	-33.6	-39.1	280	32
2023-08-09T00:00	7655	374	-33.8	-38.7	280	32
2023-08-09T00:00	7689	372	-34.1	-37.5	281	32
2023-08-09T00:00	7718	371	-34.4	-37.8	281	32
2023-08-09T00:00	7746	369	-34.6	-38.3	281	32
2023-08-09T00:00	7775	368	-34.7	-38.2	281	32
2023-08-09T00:00	7802	366	-34.9	-38.7	281	32
2023-08-09T00:00	7832	365	-35.1	-38.7	281	32
2023-08-09T00:00	7861	363	-35.3	-39.0	281	32
2023-08-09T00:00	7889	362	-35.4	-39.8	281	32
2023-08-09T00:00	7915	360	-35.5	-40.1	280	32
2023-08-09T00:00	7945	359	-35.7	-39.9	280	32
2023-08-09T00:00	7975	357	-36.0	-39.9	280	32
2023-08-09T00:00	8003	356	-36.2	-39.8	280	32
2023-08-09T00:00	8031	354	-36.5	-39.9	281	33
2023-08-09T00:00	8056	353	-36.6	-40.1	281	33
2023-08-09T00:00	8082	352	-36.8	-40.3	282	33
2023-08-09T00:00	8104	351	-37.0	-41.0	282	33
2023-08-09T00:00	8128	349	-37.2	-41.4	282	33
2023-08-09T00:00	8154	348	-37.4	-41.7	282	32
2023-08-09T00:00	8178	347	-37.6	-41.5	281	32
2023-08-09T00:00	8201	346	-37.7	-41.4	282	32
2023-08-09T00:00	8224	344	-37.9	-41.2	282	32
2023-08-09T00:00	8250	343	-38.1	-41.4	283	32
2023-08-09T00:00	8279	342	-38.3	-41.9	283	32
2023-08-09T00:00	8308	340	-38.6	-42.2	283	33
2023-08-09T00:00	8334	339	-38.8	-42.5	284	33
2023-08-09T00:00	8361	338	-38.9	-43.0	284	33
2023-08-09T00:00	8385	337	-39.1	-43.3	285	33
2023-08-09T00:00	8410	335	-39.2	-43.5	285	33
2023-08-09T00:00	8436	334	-39.1	-45.4	285	33
2023-08-09T00:00	8464	333	-39.2	-45.5	285	32
2023-08-09T00:00	8493	331	-39.3	-45.0	285	32
2023-08-09T00:00	8519	330	-39.4	-44.9	285	32
2023-08-09T00:00	8544	329	-39.7	-45.2	284	32
2023-08-09T00:00	8568	328	-39.9	-45.7	284	32
2023-08-09T00:00	8594	326	-40.1	-46.3	284	32
2023-08-09T00:00	8618	325	-40.3	-47.2	285	32
2023-08-09T00:00	8642	324	-40.5	-48.5	285	32
2023-08-09T00:00	8668	323	-40.7	-50.0	285	32
2023-08-09T00:00	8691	322	-40.9	-51.3	284	31
2023-08-09T00:00	8716	321	-41.0	-48.3	284	31
2023-08-09T00:00	8739	320	-41.2	-47.8	284	31
2023-08-09T00:00	8762	318	-41.3	-47.7	284	31
2023-08-09T00:00	8787	317	-41.5	-50.4	284	31
2023-08-09T00:00	8810	316	-41.6	-52.6	284	31
2023-08-09T00:00	8839	315	-41.8	-50.6	284	31
2023-08-09T00:00	8862	314	-42.0	-50.6	284	31
2023-08-09T00:00	8891	313	-41.7	-53.7	284	31
2023-08-09T00:00	8912	311	-41.8	-50.5	284	31
2023-08-09T00:00	8940	310	-42.0	-48.9	285	31
2023-08-09T00:00	8966	309	-42.2	-47.3	286	31
2023-08-09T00:00	8993	308	-42.4	-48.2	286	31
2023-08-09T00:00	9019	307	-42.5	-51.9	287	32
2023-08-09T00:00	9045	305	-42.6	-56.0	288	32
2023-08-09T00:00	9070	304	-42.8	-51.4	288	32
2023-08-09T00:00	9094	303	-43.0	-49.9	288	32
2023-08-09T00:00	9121	302	-43.2	-49.2	289	32
2023-08-09T00:00	9146	301	-43.3		289	32
2023-08-09T00:00	9171	300	-43.4	-50.2	289	32
2023-08-09T00:00	9201	298	-43.6	-50.7	289	32
2023-08-09T00:00	9232	297	-43.8	-51.2	289	32
2023-08-09T00:00	9259	296	-43.9	-55.4	289	33
2023-08-09T00:00	9291	294	-43.9	-59.2	290	33
2023-08-09T00:00	9323	293	-44.1	-59.8	291	33
2023-08-09T00:00	9347	292	-44.2	-58.7	292	33
2023-08-09T00:00	9375	291	-44.1	-59.1	293	33
2023-08-09T00:00	9404	290	-44.2	-58.7	293	33
2023-08-09T00:00	9431	288	-44.3	-57.3	293	33
2023-08-09T00:00	9458	287	-44.5	-56.6	292	33
2023-08-09T00:00	9490	286	-44.7	-58.4	292	32
2023-08-09T00:00	9520	285	-44.9	-59.9	291	32
2023-08-09T00:00	9549	283	-45.2	-59.7	290	32
2023-08-09T00:00	9579	282	-45.3	-59.6	290	32
2023-08-09T00:00	9609	281	-45.5	-59.6	290	32
2023-08-09T00:00	9637	280	-45.8	-59.6	290	31
2023-08-09T00:00	9665	278	-45.8	-59.7	289	31
2023-08-09T00:00	9685	278	-45.9	-59.9	288	31
2023-08-09T00:00	9707	277	-46.0	-59.7	288	31
2023-08-09T00:00	9736	275	-46.2	-59.4	287	31
2023-08-09T00:00	9765	274	-46.3	-58.6	287	30
2023-08-09T00:00	9790	273	-46.3	-58.4	286	30
2023-08-09T00:00	9817	272	-46.4	-58.1	286	30
2023-08-09T00:00	9847	271	-46.4	-58.0	285	30
2023-08-09T00:00	9882	270	-46.6	-58.8	284	30
2023-08-09T00:00	9910	268	-46.8	-59.4	284	30
2023-08-09T00:00	9942	267	-46.7	-60.4	284	30
2023-08-09T00:00	9970	266	-46.8	-61.9	284	31
2023-08-09T00:00	9997	265	-47.0	-62.5	283	31
2023-08-09T00:00	10025	264	-46.9	-62.1	282	31
2023-08-09T00:00	10051	263	-46.9	-62.1	281	31
2023-08-09T00:00	10080	262	-46.7	-62.4	280	32
2023-08-09T00:00	10111	260	-46.4	-62.9	279	32
2023-08-09T00:00	10138	259	-46.3	-63.3	279	32
2023-08-09T00:00	10162	258	-46.4	-63.0	279	32
2023-08-09T00:00	10192	257	-46.5	-62.6	279	32
2023-08-09T00:00	10223	256	-46.7		280	32
2023-08-09T00:00	10252	255	-46.7	-62.2	281	32
2023-08-09T00:00	10281	254	-46.8	-61.7	282	31
2023-08-09T00:00	10311	253	-46.8	-61.0	283	31
2023-08-09T00:00	10339	252	-47.0	-60.8	284	30
2023-08-09T00:00	10369	250	-47.2	-61.0	286	29
2023-08-09T00:00	10401	249	-47.4	-61.6	287	29
2023-08-09T00:00	10429	248	-47.3	-62.4	287	29
2023-08-09T00:00	10451	247	-47.3	-63.3	286	29
2023-08-09T00:00	10481	246	-47.2	-64.2	283	28
2023-08-09T00:00	10511	245	-47.0	-65.1	281	28
2023-08-09T00:00	10542	244	-46.9	-65.6	279	27
2023-08-09T00:00	10571	243	-46.8	-65.8	278	27
2023-08-09T00:00	10600	242	-46.7	-65.9	279	27
2023-08-09T00:00	10626	241	-46.7	-66.0	280	27
2023-08-09T00:00	10651	240	-46.6	-66.0	282	27
2023-08-09T00:00	10677	239	-46.5	-66.2	283	28
2023-08-09T00:00	10703	238	-46.5	-66.6	283	27
2023-08-09T00:00	10732	237	-46.3	-66.9	284	27
2023-08-09T00:00	10763	236	-45.9	-67.2	284	26
2023-08-09T00:00	10790	235	-45.5	-67.7	284	25
2023-08-09T00:00	10820	234	-44.9	-68.5	284	23
2023-08-09T00:00	10846	233	-44.6	-69.7	283	22
2023-08-09T00:00	10875	232	-44.7	-70.2	282	22
2023-08-09T00:00	10900	231	-44.8	-70.3	282	21
2023-08-09T00:00	10928	230	-44.8	-70.7	283	21
2023-08-09T00:00	10962	229	-44.5	-70.9	286	21
2023-08-09T00:00	10992	228	-44.2	-71.1	288	20
2023-08-09T00:00	11022	227	-43.7	-70.5	289	20
2023-08-09T00:00	11056	226	-43.0	-69.9	289	19
2023-08-09T00:00	11087	225	-43.0	-69.9	288	18
2023-08-09T00:00	11113	224	-43.1	-70.3	287	17
2023-08-09T00:00	11139	223	-43.2	-70.3	286	17
2023-08-09T00:00	11167	222	-43.1	-69.8	285	16
2023-08-09T00:00	11190	221	-43.2	-70.3	285	16
2023-08-09T00:00	11211	221	-43.4	-71.0	283	17
2023-08-09T00:00	11233	220	-43.3	-70.7	282	17
2023-08-09T00:00	11258	219	-43.1	-69.6	281	17
2023-08-09T00:00	11283	218	-43.3	-69.5	279	17
2023-08-09T00:00	11303	218	-43.4	-71.0	278	18
2023-08-09T00:00	11333	217	-43.5	-72.2	278	18
2023-08-09T00:00	11360	216	-43.2	-71.4	277	18
2023-08-09T00:00	11383	215	-43.3	-70.9	277	18
2023-08-09T00:00	11404	214	-43.3	-70.9	278	18
2023-08-09T00:00	11426	214	-43.4	-71.2	278	17
2023-08-09T00:00	11457	213	-43.5	-71.6	279	16
2023-08-09T00:00	11485	212	-43.7	-72.0	280	16
2023-08-09T00:00	11517	211	-43.6	-72.2	282	15
2023-08-09T00:00	11550	210	-43.7	-72.3	282	15
2023-08-09T00:00	11581	209	-43.4	-72.1	282	15
2023-08-09T00:00	11605	208	-43.5	-71.9	282	16
2023-08-09T00:00	11622	208	-43.6	-72.0	281	16
2023-08-09T00:00	11642	207	-43.6	-72.0	281	16
2023-08-09T00:00	11665	206	-43.5	-70.6	281	16
2023-08-09T00:00	11697	205	-43.3	-70.0	281	16
2023-08-09T00:00	11722	205	-43.1	-69.8	282	16
2023-08-09T00:00	11743	204	-42.9	-69.6	282	16
2023-08-09T00:00	11765	203	-43.1	-69.8	282	15
2023-08-09T00:00	11783	203	-43.1	-70.8	282	15
2023-08-09T00:00	11806	202	-43.1	-71.9	281	14
2023-08-09T00:00	11828	201	-43.0	-71.8	281	14
2023-08-09T00:00	11847	201	-42.8	-71.3	280	14
2023-08-09T00:00	11868	200	-42.7	-71.3	279	13
2023-08-09T00:00	11889	200	-42.8	-71.1	278	13
2023-08-09T00:00	11909	199	-42.9	-71.1	277	13
2023-08-09T00:00	11931	198	-42.9	-71.1	275	13
2023-08-09T00:00	11951	198	-43.1	-71.3	274	13
2023-08-09T00:00	11973	197	-43.2	-71.6	272	13
2023-08-09T00:00	11993	196	-43.2	-71.6	270	13
2023-08-09T00:00	12016	196	-43.1	-71.6	269	14
2023-08-09T00:00	12036	195	-43.1	-71.6	269	14
2023-08-09T00:00	12059	195	-43.0	-71.5	269	14
2023-08-09T00:00	12082	194	-42.8	-71.6	269	13
2023-08-09T00:00	12111	193	-43.0	-72.4	270	13
2023-08-09T00:00	12146	192	-43.2	-72.6	271	12
2023-08-09T00:00	12174	191	-43.3	-72.3	272	12
2023-08-09T00:00	12195	191	-43.4	-71.8	273	12
2023-08-09T00:00	12214	190	-43.5	-71.3	273	12
2023-08-09T00:00	12235	190	-43.5	-71.3	272	13
2023-08-09T00:00	12257	189	-43.4	-71.8	271	14
2023-08-09T00:00	12283	188	-43.6	-72.6	271	14
2023-08-09T00:00	12317	187	-43.8	-73.0	271	14
2023-08-09T00:00	12349	186	-44.1	-72.9	271	14
2023-08-09T00:00	12380	186	-44.2	-72.7	272	14
2023-08-09T00:00	12395	185	-44.2	-72.4	273	14
2023-08-09T00:00	12417	185	-43.9	-72.5	273	14
2023-08-09T00:00	12439	184	-43.7	-72.3	273	13
2023-08-09T00:00	12461	183	-43.8	-72.4	273	13
2023-08-09T00:00	12487	183	-43.9	-72.8	273	13
2023-08-09T00:00	12512	182	-43.8	-73.0	273	12
2023-08-09T00:00	12536	181	-43.9	-73.1	273	12
2023-08-09T00:00	12557	181	-43.9	-73.1	274	12
2023-08-09T00:00	12579	180	-44.0	-73.2	275	12
2023-08-09T00:00	12599	180	-43.4	-72.7	277	12
2023-08-09T00:00	12617	179	-43.4	-72.4	279	12
2023-08-09T00:00	12642	178	-43.5	-72.5	281	12
2023-08-09T00:00	12660	178	-43.4	-72.7	282	12
2023-08-09T00:00	12680	177	-43.1	-72.5	282	12
2023-08-09T00:00	12700	177	-43.2	-72.2	282	12
2023-08-09T00:00	12723	176	-43.2	-72.6	281	11
2023-08-09T00:00	12750	176	-43.0	-72.8	279	11
2023-08-09T00:00	12778	175	-43.0	-73.1	277	10
2023-08-09T00:00	12801	174	-43.1	-73.2	276	10
2023-08-09T00:00	12818	174	-43.1	-72.8	275	10
2023-08-09T00:00	12837	173	-43.2	-72.9	274	10
2023-08-09T00:00	12860	173	-43.1	-72.8	273	10
2023-08-09T00:00	12878	172	-43.0	-73.1	273	11
2023-08-09T00:00	12895	172	-42.8	-73.0	272	11
2023-08-09T00:00	12916	171	-42.9	-73.0	272	11
2023-08-09T00:00	12937	171	-43.0	-73.1	271	12
2023-08-09T00:00	12959	170	-43.1	-73.2	271	12
2023-08-09T00:00	12976	170	-42.9	-72.7	271	12
2023-08-09T00:00	12997	169	-42.9	-72.7	273	12
2023-08-09T00:00	13017	169	-43.1	-73.2	274	11
2023-08-09T00:00	13041	168	-42.8	-73.0	276	11
2023-08-09T00:00	13060	168	-42.8	-73.0	277	11
2023-08-09T00:00	13081	167	-43.0	-73.5	279	10
2023-08-09T00:00	13101	167	-43.0	-73.5	280	10
2023-08-09T00:00	13126	166	-43.2	-73.6	283	10
2023-08-09T00:00	13138	166	-43.0	-73.5	286	9
2023-08-09T00:00	13162	165	-43.1	-73.6	289	9
2023-08-09T00:00	13184	165	-43.0	-73.5	292	9
2023-08-09T00:00	13204	164	-43.1	-73.6	295	9
2023-08-09T00:00	13223	164	-43.1	-73.6	297	9
2023-08-09T00:00	13245	163	-43.1	-73.9	299	9
2023-08-09T00:00	13269	163	-43.0	-73.9	299	9
2023-08-09T00:00	13285	162	-43.0	-73.9	298	9
2023-08-09T00:00	13306	162	-43.0	-73.9	296	9
2023-08-09T00:00	13323	161	-43.1	-73.9	295	9
2023-08-09T00:00	13342	161	-43.3	-74.1	293	9
2023-08-09T00:00	13364	160	-43.4	-74.2	292	8
2023-08-09T00:00	13387	160	-43.6	-74.3	291	8
2023-08-09T00:00	13409	159	-43.8	-74.5	290	8
2023-08-09T00:00	13433	159	-44.0	-74.6	289	8
2023-08-09T00:00	13454	158	-44.2	-74.8	288	7
2023-08-09T00:00	13473	158	-44.4	-74.9	287	7
2023-08-09T00:00	13498	157	-44.5	-75.0	287	7
2023-08-09T00:00	13519	157	-44.5	-75.0	287	7
2023-08-09T00:00	13541	156	-44.6	-75.1	287	7
2023-08-09T00:00	13560	156	-44.7	-75.1	287	7
2023-08-09T00:00	13580	155	-44.7	-75.1	287	7
2023-08-09T00:00	13601	155	-44.3	-74.8	287	7
2023-08-09T00:00	13618	154	-44.4	-74.9	287	8
2023-08-09T00:00	13640	154	-44.5	-75.0	287	8
2023-08-09T00:00	13665	153	-44.3	-74.8	286	8
2023-08-09T00:00	13687	153	-44.3	-75.3	284	8
2023-08-09T00:00	13707	152	-44.3	-75.3	281	7
2023-08-09T00:00	13725	152	-44.4	-75.3	278	7
2023-08-09T00:00	13748	151	-44.6	-75.5	274	7
2023-08-09T00:00	13771	151	-44.7	-75.1	270	7
2023-08-09T00:00	13791	150	-44.8	-75.2	266	7
2023-08-09T00:00	13809	150	-44.9	-75.3	263	7
2023-08-09T00:00	13827	150	-45.0	-75.4	261	7
2023-08-09T00:00	13848	149	-44.9	-75.7	260	7
2023-08-09T00:00	13870	149	-45.0	-75.8	259	7
2023-08-09T00:00	13892	148	-45.0	-75.8	259	7
2023-08-09T00:00	13911	148	-45.1	-75.9	260	8
2023-08-09T00:00	13931	147	-45.2	-75.9	262	8
2023-08-09T00:00	13950	147	-45.3	-76.0	265	8
2023-08-09T00:00	13972	146	-45.4	-76.1	267	8
2023-08-09T00:00	13993	146	-45.3	-76.4	269	8
2023-08-09T00:00	14013	145	-44.8	-76.1	270	8
2023-08-09T00:00	14034	145	-44.5	-75.8	270	8
2023-08-09T00:00	14053	145	-44.5	-75.8	269	7
2023-08-09T00:00	14077	144	-44.5	-75.8	267	7
2023-08-09T00:00	14098	144	-44.3	-75.7	263	6
2023-08-09T00:00	14118	143	-44.2	-76.1	258	6
2023-08-09T00:00	14138	143	-44.2	-76.1	253	6
2023-08-09T00:00	14158	142	-44.3	-76.2	250	5
2023-08-09T00:00	14176	142	-44.3	-76.2	247	5
2023-08-09T00:00	14199	141	-44.2	-76.1	246	5
2023-08-09T00:00	14220	141	-44.3	-76.2	247	5
2023-08-09T00:00	14241	141	-44.4	-76.2	248	6
2023-08-09T00:00	14261	140	-44.4	-76.2	252	6
2023-08-09T00:00	14284	140	-44.4	-76.2	256	7
2023-08-09T00:00	14304	139	-44.6	-76.4	260	7
2023-08-09T00:00	14327	139	-44.6	-76.4	264	8
2023-08-09T00:00	14348	138	-44.3	-76.2	268	8
2023-08-09T00:00	14370	138	-44.3	-76.7	270	8
2023-08-09T00:00	14391	137	-44.2	-76.6	271	8
2023-08-09T00:00	14414	137	-44.3	-76.7	270	9
2023-08-09T00:00	14435	137	-44.4	-76.7	269	9
2023-08-09T00:00	14455	136	-44.4	-76.2	267	9
2023-08-09T00:00	14477	136	-44.6	-76.4	267	9
2023-08-09T00:00	14497	135	-44.7	-76.5	267	9
2023-08-09T00:00	14517	135	-44.8	-76.5	268	9
2023-08-09T00:00	14538	134	-44.9	-77.1	269	9
2023-08-09T00:00	14555	134	-44.9	-77.1	270	9
2023-08-09T00:00	14575	134	-44.6	-76.9	272	9
2023-08-09T00:00	14597	133	-44.7	-77.0	275	9
2023-08-09T00:00	14618	133	-44.7	-77.0	279	9
2023-08-09T00:00	14638	132	-44.8	-77.0	283	9
2023-08-09T00:00	14657	132	-44.8	-76.5	286	9
2023-08-09T00:00	14677	132	-44.9	-77.1	287	9
2023-08-09T00:00	14694	131	-45.0	-77.2	288	9
2023-08-09T00:00	14715	131	-45.0	-77.2	288	9
2023-08-09T00:00	14734	131	-45.0	-77.2	288	9
2023-08-09T00:00	14753	130	-44.9	-77.1	288	9
2023-08-09T00:00	14772	130	-44.9	-77.1	289	9
2023-08-09T00:00	14798	129	-45.0	-77.7	290	9
2023-08-09T00:00	14818	129	-45.1	-77.8	291	9
2023-08-09T00:00	14840	129	-45.3	-77.4	292	9
2023-08-09T00:00	14862	128	-45.5	-77.6	293	9
2023-08-09T00:00	14884	128	-45.6	-77.6	293	9
2023-08-09T00:00	14904	127	-45.7	-77.7	294	8
2023-08-09T00:00	14930	127	-45.8	-77.8	294	8
2023-08-09T00:00	14952	126	-45.7	-77.7	295	7
2023-08-09T00:00	14981	126	-45.6	-77.6	297	7
2023-08-09T00:00	15004	125	-45.3	-77.4	301	6
2023-08-09T00:00	15033	125	-45.1	-77.3	308	5
2023-08-09T00:00	15062	124	-45.4	-77.5	314	5
2023-08-09T00:00	15104	124	-45.8	-77.8	318	4
2023-08-09T00:00	15130	123	-46.1	-78.0	319	4
2023-08-09T00:00	15149	123	-46.3	-77.7	315	3
2023-08-09T00:00	15172	122	-46.4	-78.2	307	3
2023-08-09T00:00	15191	122	-46.3	-78.2	299	3
2023-08-09T00:00	15215	122	-46.5	-78.3	292	3
2023-08-09T00:00	15238	121	-46.7	-79.0	288	2
2023-08-09T00:00	15258	121	-46.9	-79.1	284	2
2023-08-09T00:00	15278	120	-47.0	-78.7	281	2
2023-08-09T00:00	15298	120	-47.2	-78.8	277	2
2023-08-09T00:00	15322	120	-47.4	-79.0	272	2
2023-08-09T00:00	15343	119	-47.4	-79.0	265	2
2023-08-09T00:00	15366	119	-47.5	-79.0	257	1
2023-08-09T00:00	15385	118	-47.6	-79.1	249	1
2023-08-09T00:00	15407	118	-47.7		243	2
2023-08-09T00:00	15425	118	-47.8	-79.3	240	2
2023-08-09T00:00	15445	117	-48.0	-79.4	239	2
2023-08-09T00:00	15465	117	-47.9	-79.3	237	2
2023-08-09T00:00	15485	117	-47.8	-79.3	232	1
2023-08-09T00:00	15507	116	-47.8	-79.3	222	1
2023-08-09T00:00	15528	116	-47.8	-79.8	201	1
2023-08-09T00:00	15549	116	-47.3	-79.4	179	1
2023-08-09T00:00	15572	115	-47.2	-79.4	171	1
2023-08-09T00:00	15591	115	-47.4	-79.5	178	1
2023-08-09T00:00	15610	114	-47.5	-79.6	192	1
2023-08-09T00:00	15633	114	-47.6	-79.1	204	2
2023-08-09T00:00	15655	114	-47.8	-79.8	215	2
2023-08-09T00:00	15675	113	-47.6	-79.6	225	2
2023-08-09T00:00	15694	113	-47.5	-79.6	234	2
2023-08-09T00:00	15717	113	-47.6	-79.6	240	2
2023-08-09T00:00	15737	112	-47.6	-79.6	244	2
2023-08-09T00:00	15760	112	-47.7	-79.7	246	3
2023-08-09T00:00	15785	112	-47.8	-79.8	247	3
2023-08-09T00:00	15803	111	-48.0	-79.9	249	3
2023-08-09T00:00	15825	111	-48.1	-80.0	253	3
2023-08-09T00:00	15843	110	-48.1	-80.0	257	3
2023-08-09T00:00	15864	110	-48.3	-80.2	261	4
2023-08-09T00:00	15887	110	-48.1	-80.0	263	4
2023-08-09T00:00	15907	109	-47.9	-79.9	262	4
2023-08-09T00:00	15929	109	-47.9	-79.9	261	4
2023-08-09T00:00	15947	109	-48.1	-80.0	259	4
2023-08-09T00:00	15967	108	-48.2	-80.1	257	4
2023-08-09T00:00	15986	108	-48.4	-80.2	256	4
2023-08-09T00:00	16006	108	-48.5	-80.3	255	5
2023-08-09T00:00	16026	107	-48.6	-80.4	255	5
2023-08-09T00:00	16047	107	-48.5	-80.3	255	5
2023-08-09T00:00	16066	107	-48.5	-80.3	255	6
2023-08-09T00:00	16087	106	-48.5	-80.3	254	6
2023-08-09T00:00	16106	106	-48.5	-80.3	254	7
2023-08-09T00:00	16131	106	-48.3	-80.2	255	7
2023-08-09T00:00	16148	106	-48.3	-80.2	256	7
2023-08-09T00:00	16168	105	-48.2	-80.1	257	7
2023-08-09T00:00	16186	105	-48.1	-80.0	260	7
2023-08-09T00:00	16206	105	-48.0	-80.5	262	7
2023-08-09T00:00	16226	104	-47.9	-80.4	265	6
2023-08-09T00:00	16251	104	-47.8	-80.4	267	6
2023-08-09T00:00	16270	104	-48.0	-79.9	270	5
2023-08-09T00:00	16289	103	-48.1	-80.0	273	5
2023-08-09T00:00	16310	103	-48.0	-79.9	274	5
2023-08-09T00:00	16331	103	-48.0	-80.5	275	5
2023-08-09T00:00	16354	102	-47.9	-80.4	274	4
2023-08-09T00:00	16370	102	-47.8	-80.4	273	4
2023-08-09T00:00	16392	102	-47.6	-80.2	271	4
2023-08-09T00:00	16415	101	-47.4	-80.1	271	4
2023-08-09T00:00	16434	101	-47.3	-80.0	272	4
2023-08-09T00:00	16455	101	-47.2	-79.9	275	4
2023-08-09T00:00	16473	100	-47.2	-79.9	279	4
2023-08-09T00:00	16494	100	-47.3	-80.0	284	4
2023-08-09T00:00	16518	100	-47.4	-80.1	288	4
2023-08-09T00:00	16536	99	-47.3	-80.0	293	4
2023-08-09T00:00	16555	99	-47.4	-80.1	298	3
2023-08-09T00:00	16575	99	-47.4	-80.1	301	3
2023-08-09T00:00	16595	99	-47.3	-80.0	302	3
2023-08-09T00:00	16616	98	-47.4	-80.1	298	2
2023-08-09T00:00	16636	98	-47.5	-80.2	289	2
2023-08-09T00:00	16656	98	-47.4	-80.1	276	2
2023-08-09T00:00	16678	97	-47.5	-80.2	261	2
2023-08-09T00:00	16705	97	-47.6	-80.2	247	2
2023-08-09T00:00	16725	97	-47.8	-80.4	235	1
2023-08-09T00:00	16745	96	-48.0	-80.5	223	2
2023-08-09T00:00	16769	96	-48.2	-80.7	213	2
2023-08-09T00:00	16791	96	-48.3	-80.7	205	2
2023-08-09T00:00	16814	95	-48.6	-80.4	199	2
2023-08-09T00:00	16833	95	-48.7	-80.5	193	2
2023-08-09T00:00	16851	95	-48.9	-80.6	186	2
2023-08-09T00:00	16874	94	-49.1	-80.8	182	3
2023-08-09T00:00	16897	94	-49.3	-80.9	179	3
2023-08-09T00:00	16917	94	-49.5	-81.1	180	3
2023-08-09T00:00	16938	94	-49.6	-81.1	184	3
2023-08-09T00:00	16960	93	-49.2	-80.8	194	2
2023-08-09T00:00	16983	93	-49.2	-80.8	208	2
2023-08-09T00:00	17006	93	-49.2	-81.4	225	2
2023-08-09T00:00	17026	92	-49.3	-81.5	243	2
2023-08-09T00:00	17045	92	-49.4	-81.0	258	3
2023-08-09T00:00	17071	92	-49.6	-81.1	269	3
2023-08-09T00:00	17093	91	-49.7	-81.2	277	4
2023-08-09T00:00	17116	91	-49.8	-81.3	283	4
2023-08-09T00:00	17138	91	-49.9	-81.3	288	5
2023-08-09T00:00	17156	91	-49.8	-81.3	293	5
2023-08-09T00:00	17179	90	-49.9	-81.3	298	6
2023-08-09T00:00	17199	90	-49.9	-81.3	304	6
2023-08-09T00:00	17221	90	-49.9	-81.3	309	6
2023-08-09T00:00	17242	89	-49.8	-81.3	315	5
2023-08-09T00:00	17265	89	-49.8	-81.3	319	5
2023-08-09T00:00	17286	89	-49.9	-81.3	323	5
2023-08-09T00:00	17305	88	-49.9	-81.3	325	5
2023-08-09T00:00	17327	88	-50.0	-80.9	327	4
2023-08-09T00:00	17350	88	-50.1	-81.0	330	4
2023-08-09T00:00	17369	88	-50.2	-81.0	336	3
2023-08-09T00:00	17391	87	-50.4	-80.7	344	3
2023-08-09T00:00	17414	87	-50.5	-80.8	355	3
2023-08-09T00:00	17435	87	-50.7	-80.9	6	3
2023-08-09T00:00	17456	86	-50.9	-80.6	15	3
2023-08-09T00:00	17477	86	-50.9	-81.1	19	3
2023-08-09T00:00	17500	86	-50.8	-81.0	20	3
2023-08-09T00:00	17521	86	-50.8	-81.0	18	3
2023-08-09T00:00	17539	85	-50.8	-81.0	15	3
2023-08-09T00:00	17564	85	-50.7	-81.4	12	2
2023-08-09T00:00	17584	85	-50.4	-81.7	10	2
2023-08-09T00:00	17606	84	-50.2		8	2
2023-08-09T00:00	17629	84	-50.4	-81.7	7	2
2023-08-09T00:00	17649	84	-50.5	-81.8	7	1
2023-08-09T00:00	17674	84	-50.6	-81.9	7	1
2023-08-09T00:00	17694	83	-50.7		9	2
2023-08-09T00:00	17717	83	-50.8	-82.0	12	2
2023-08-09T00:00	17737	83	-51.0	-82.2	17	2
2023-08-09T00:00	17760	83	-51.2	-82.3	27	2
2023-08-09T00:00	17783	82	-51.3	-82.4	39	2
2023-08-09T00:00	17803	82	-51.2	-82.3	50	2
2023-08-09T00:00	17824	82	-51.4	-82.5	58	2
2023-08-09T00:00	17845	81	-51.4	-81.9	63	3
2023-08-09T00:00	17863	81	-51.6	-82.1	66	3
2023-08-09T00:00	17886	81	-51.7	-82.2	69	4
2023-08-09T00:00	17910	81	-51.8	-82.2	72	4
2023-08-09T00:00	17930	80	-51.8	-82.8	75	4
2023-08-09T00:00	17954	80	-51.9	-82.8	78	4
2023-08-09T00:00	17977	80	-51.7	-82.7	81	4
2023-08-09T00:00	17995	80	-51.6	-82.6	84	3
2023-08-09T00:00	18018	79	-51.6	-82.6	87	3
2023-08-09T00:00	18043	79	-51.5	-82.5	93	2
2023-08-09T00:00	18063	79	-51.6	-82.6	102	2
2023-08-09T00:00	18087	78	-51.5	-82.5	117	2
2023-08-09T00:00	18110	78	-51.3	-82.4	134	2
2023-08-09T00:00	18131	78	-51.4	-81.9	151	2
2023-08-09T00:00	18150	78	-51.4	-81.9	165	2
2023-08-09T00:00	18172	77	-51.5	-82.0	177	2
2023-08-09T00:00	18194	77	-51.7	-82.7	189	2
2023-08-09T00:00	18216	77	-51.8	-82.8	199	2
2023-08-09T00:00	18236	77	-51.8	-82.8	210	2
2023-08-09T00:00	18259	76	-51.8	-82.8	220	2
2023-08-09T00:00	18280	76	-51.9	-82.8	229	2
2023-08-09T00:00	18303	76	-51.9	-82.8	238	2
2023-08-09T00:00	18322	76	-51.7	-82.7	247	1
2023-08-09T00:00	18342	75	-51.7	-82.7	266	1
2023-08-09T00:00	18364	75	-51.8	-82.8	333	0
2023-08-09T00:00	18384	75	-52.0	-82.9	21	1
2023-08-09T00:00	18405	75	-52.0	-82.9	32	2
2023-08-09T00:00	18428	74	-52.2	-83.1	37	2
2023-08-09T00:00	18450	74	-52.2	-83.1	40	3
2023-08-09T00:00	18473	74	-52.1	-83.0	44	4
2023-08-09T00:00	18494	74	-52.1	-83.0	48	4
2023-08-09T00:00	18512	73	-52.0	-82.9	52	5
2023-08-09T00:00	18536	73	-52.0	-82.9	56	6
2023-08-09T00:00	18556	73	-51.8	-83.3	60	6
2023-08-09T00:00	18580	73	-51.2	-82.9	63	7
2023-08-09T00:00	18600	73	-51.2	-82.9	67	7
2023-08-09T00:00	18619	72	-51.2	-82.9	70	8
2023-08-09T00:00	18644	72	-51.2	-82.9	73	8
2023-08-09T00:00	18660	72	-51.2	-82.9	76	8
2023-08-09T00:00	18685	72	-51.3	-82.4	79	8
2023-08-09T00:00	18706	71	-51.3	-82.4	81	8
2023-08-09T00:00	18727	71	-51.3	-82.4	82	7
2023-08-09T00:00	18750	71	-51.2	-82.9	82	6
2023-08-09T00:00	18773	71	-50.5		81	6
2023-08-09T00:00	18798	70	-50.4	-82.3	80	6
2023-08-09T00:00	18819	70	-50.5		78	5
2023-08-09T00:00	18840	70	-50.4	-82.3	78	5
2023-08-09T00:00	18861	70	-50.4	-82.3	78	5
2023-08-09T00:00	18882	69	-50.4	-82.3	78	5
2023-08-09T00:00	18906	69	-50.5	-81.8	79	5
2023-08-09T00:00	18929	69	-50.6	-81.9	79	4
2023-08-09T00:00	18952	69	-50.7		79	4
2023-08-09T00:00	18972	68	-50.7	-82.5	78	5
2023-08-09T00:00	18992	68	-50.7	-82.5	78	5
2023-08-09T00:00	19019	68	-50.8	-82.6	78	4
2023-08-09T00:00	19042	68	-50.8	-82.6	80	4
2023-08-09T00:00	19065	68	-50.8	-82.0	83	4
2023-08-09T00:00	19086	67	-50.7		87	3
2023-08-09T00:00	19106	67	-50.6	-81.9	94	3
2023-08-09T00:00	19127	67	-50.5	-81.3	101	3
2023-08-09T00:00	19148	67	-50.5	-81.8	109	2
2023-08-09T00:00	19172	66	-50.5	-81.8	117	2
2023-08-09T00:00	19193	66	-50.6	-81.9	126	2
2023-08-09T00:00	19216	66	-50.7	-82.5	134	2
2023-08-09T00:00	19243	66	-50.8	-82.6	143	2
2023-08-09T00:00	19261	66	-50.9	-82.7	153	2
2023-08-09T00:00	19287	65	-51.1	-82.8	162	2
2023-08-09T00:00	19301	65	-51.2	-82.9	170	2
2023-08-09T00:00	19328	65	-51.2	-82.9	177	2
2023-08-09T00:00	19351	65	-51.3	-82.9	184	2
2023-08-09T00:00	19369	64	-51.1	-82.8	189	2
2023-08-09T00:00	19394	64	-51.2	-82.9	193	1
2023-08-09T00:00	19415	64	-51.2	-82.9	197	1
2023-08-09T00:00	19437	64	-51.2	-82.9	205	1
2023-08-09T00:00	19459	64	-51.2	-82.9	240	0
2023-08-09T00:00	19481	63	-51.0	-82.7	337	0
2023-08-09T00:00	19505	63	-51.0	-82.7	3	1
2023-08-09T00:00	19526	63	-51.0	-82.7	16	1
2023-08-09T00:00	19549	63	-50.9	-82.7	24	1
2023-08-09T00:00	19570	62	-50.8	-82.6	29	2
2023-08-09T00:00	19593	62	-50.8	-82.6	31	2
2023-08-09T00:00	19613	62	-50.7	-82.5	32	3
2023-08-09T00:00	19637	62	-50.8	-82.6	33	3
2023-08-09T00:00	19657	62	-50.9	-82.7	33	3
2023-08-09T00:00	19682	61	-51.0	-82.7	33	3
2023-08-09T00:00	19706	61	-51.0	-82.7	34	3
2023-08-09T00:00	19726	61	-50.9	-82.7	36	3
2023-08-09T00:00	19751	61	-50.9	-82.7	40	3
2023-08-09T00:00	19774	61	-50.8	-82.6	45	4
2023-08-09T00:00	19797	60	-50.9	-82.1	49	5
2023-08-09T00:00	19821	60	-50.7		54	5
2023-08-09T00:00	19843	60	-50.5	-81.8	58	6
2023-08-09T00:00	19867	60	-50.5	-81.3	61	7
2023-08-09T00:00	19886	60	-50.3	-81.6	64	7
2023-08-09T00:00	19907	59	-50.3	-81.6	67	8
2023-08-09T00:00	19927	59	-50.3	-81.6	70	8
2023-08-09T00:00	19948	59	-50.4	-82.3	73	8
2023-08-09T00:00	19973	59	-50.5		76	7
2023-08-09T00:00	19994	59	-50.6	-82.4	78	7
2023-08-09T00:00	20013	58	-50.7	-82.5	78	7
2023-08-09T00:00	20038	58	-50.7	-82.5	76	7
2023-08-09T00:00	20060	58	-50.8	-82.6	72	7
2023-08-09T00:00	20083	58	-50.8	-82.6	66	7
2023-08-09T00:00	20103	58	-50.8	-82.6	62	7
2023-08-09T00:00	20127	57	-50.8	-82.6	59	7
2023-08-09T00:00	20152	57	-50.8	-82.6	58	8
2023-08-09T00:00	20175	57	-50.9	-82.7	60	8
2023-08-09T00:00	20197	57	-50.9	-82.7	62	9
2023-08-09T00:00	20224	57	-50.6	-82.4	66	9
2023-08-09T00:00	20248	56	-50.8	-82.6	69	9
2023-08-09T00:00	20267	56	-51.0	-82.7	73	9
2023-08-09T00:00	20290	56	-51.2	-82.9	76	9
2023-08-09T00:00	20314	56	-50.9	-82.7	79	9
2023-08-09T00:00	20340	55	-51.0	-82.7	82	10
2023-08-09T00:00	20364	55	-51.2	-82.9	84	10
2023-08-09T00:00	20386	55	-51.4	-82.5	87	10
2023-08-09T00:00	20410	55	-51.6	-82.6	90	10
2023-08-09T00:00	20433	55	-51.7	-82.7	92	10
2023-08-09T00:00	20459	54	-51.8	-82.8	93	10
2023-08-09T00:00	20479	54	-51.8	-82.8	93	10
2023-08-09T00:00	20505	54	-51.8	-82.8	92	10
2023-08-09T00:00	20530	54	-51.7	-82.7	90	10
2023-08-09T00:00	20552	54	-51.7	-83.2	87	9
2023-08-09T00:00	20576	54	-51.8	-83.3	85	9
2023-08-09T00:00	20598	53	-51.8	-83.3	84	8
2023-08-09T00:00	20623	53	-51.8	-83.3	84	8
2023-08-09T00:00	20648	53	-51.6	-83.2	85	8
2023-08-09T00:00	20671	53	-51.1	-83.4	85	7
2023-08-09T00:00	20694	53	-50.6	-83.1	84	7
2023-08-09T00:00	20714	52	-50.4	-82.9	82	6
2023-08-09T00:00	20741	52	-50.2	-82.8	79	6
2023-08-09T00:00	20763	52	-50.2	-82.8	77	6
2023-08-09T00:00	20781	52	-50.3	-82.8	76	6
2023-08-09T00:00	20806	52	-50.2	-82.8	75	6
2023-08-09T00:00	20834	51	-50.3	-82.8	75	6
2023-08-09T00:00	20855	51	-50.4	-82.9	73	6
2023-08-09T00:00	20876	51	-50.5	-83.0	71	5
2023-08-09T00:00	20899	51	-50.2	-82.8	69	5
2023-08-09T00:00	20921	51	-50.2	-82.8	68	4
2023-08-09T00:00	20939	51	-50.3	-82.8	68	4
2023-08-09T00:00	20967	50	-50.2	-82.8	72	4
2023-08-09T00:00	20990	50	-50.3	-82.8	78	3
2023-08-09T00:00	21004	50	-50.4	-82.3	87	3
2023-08-09T00:00	21032	50	-50.5		99	3
2023-08-09T00:00	21054	50	-50.6	-82.4	112	3
2023-08-09T00:00	21075	50	-50.7	-82.5	122	4
2023-08-09T00:00	21103	49	-50.7	-82.5	128	4
2023-08-09T00:00	21119	49	-50.7	-82.5	131	5
2023-08-09T00:00	21140	49	-50.8	-82.6	132	5
2023-08-09T00:00	21165	49	-50.9	-82.7	132	6
2023-08-09T00:00	21188	49	-51.0	-82.7	131	6
2023-08-09T00:00	21208	49	-51.1	-82.8	130	6
2023-08-09T00:00	21233	48	-51.2	-82.9	130	7
2023-08-09T00:00	21252	48	-51.4	-83.0	130	7
2023-08-09T00:00	21273	48	-51.4	-83.0	131	6
2023-08-09T00:00	21297	48	-51.5	-83.1	134	6
2023-08-09T00:00	21318	48	-51.5	-83.1	137	5
2023-08-09T00:00	21341	48	-51.3	-82.9	142	5
2023-08-09T00:00	21364	47	-51.2	-82.9	147	4
2023-08-09T00:00	21384	47	-51.3	-82.9	153	4
2023-08-09T00:00	21399	47	-51.3	-82.9	158	3
2023-08-09T00:00	21424	47	-51.4	-83.0	162	2
2023-08-09T00:00	21451	47	-51.3	-82.9	164	2
2023-08-09T00:00	21470	47	-51.3	-82.9	159	1
2023-08-09T00:00	21494	46	-51.3	-82.9	113	0
2023-08-09T00:00	21516	46	-51.3	-82.9	38	1
2023-08-09T00:00	21538	46	-51.3	-82.9	27	2
2023-08-09T00:00	21561	46	-51.4	-83.0	26	2
2023-08-09T00:00	21584	46	-51.5	-82.5	28	3
2023-08-09T00:00	21606	46	-51.5	-82.5	32	4
2023-08-09T00:00	21629	46	-51.5	-82.5	36	5
2023-08-09T00:00	21649	45	-51.5	-82.5	40	5
2023-08-09T00:00	21675	45	-51.5	-82.5	44	6
2023-08-09T00:00	21697	45	-51.5	-82.5	48	6
2023-08-09T00:00	21720	45	-51.4	-82.5	53	7
2023-08-09T00:00	21742	45	-51.6	-83.2	58	7
2023-08-09T00:00	21770	45	-51.7	-83.2	63	7
2023-08-09T00:00	21788	44	-51.8	-83.3	68	8
2023-08-09T00:00	21810	44	-51.8	-83.3	73	8
2023-08-09T00:00	21834	44	-51.9	-82.8	76	8
2023-08-09T00:00	21860	44	-52.0	-82.9	79	8
2023-08-09T00:00	21881	44	-52.2	-83.1	81	8
2023-08-09T00:00	21906	44	-52.4	-83.2	84	7
2023-08-09T00:00	21923	43	-52.5	-83.3	87	7
2023-08-09T00:00	21949	43	-52.6	-83.3	92	6
2023-08-09T00:00	21972	43	-52.5	-83.3	98	5
2023-08-09T00:00	21995	43	-52.6	-83.3	105	5
2023-08-09T00:00	22018	43	-52.7	-83.4	113	5
2023-08-09T00:00	22037	43	-52.8	-83.5	122	5
2023-08-09T00:00	22069	43	-53.0	-83.6	131	5
2023-08-09T00:00	22100	42	-53.2	-83.8	139	6
2023-08-09T00:00	22116	42	-53.3	-83.9	146	6
2023-08-09T00:00	22140	42	-53.2	-83.8	152	6
2023-08-09T00:00	22168	42	-53.1	-83.7	157	5
2023-08-09T00:00	22192	42	-52.8	-83.5	161	4
2023-08-09T00:00	22213	42	-52.7	-83.4	163	4
2023-08-09T00:00	22232	41	-52.7	-83.4	164	3
2023-08-09T00:00	22255	41	-52.8	-83.5	163	3
2023-08-09T00:00	22280	41	-52.9	-83.6	162	2
2023-08-09T00:00	22302	41	-53.0	-83.6	161	1
2023-08-09T00:00	22327	41	-53.0	-83.6	165	1
2023-08-09T00:00	22354	41	-53.0	-83.6	198	0
2023-08-09T00:00	22376	41	-53.0	-83.6	296	1
2023-08-09T00:00	22403	40	-53.0	-83.6	313	1
2023-08-09T00:00	22422	40	-53.0	-83.6	324	1
2023-08-09T00:00	22449	40	-52.9	-83.6	343	1
2023-08-09T00:00	22474	40	-52.9	-83.6	19	1
2023-08-09T00:00	22491	40	-52.7	-83.4	51	1
2023-08-09T00:00	22518	40	-52.6	-83.9	64	2
2023-08-09T00:00	22533	40	-52.5	-83.8	68	3
2023-08-09T00:00	22565	39	-52.6	-83.9	67	3
2023-08-09T00:00	22578	39	-52.4	-83.8	65	3
2023-08-09T00:00	22615	39	-52.5	-83.8	63	3
2023-08-09T00:00	22632	39	-52.6	-83.9	62	4
2023-08-09T00:00	22656	39	-52.7	-84.0	62	4
2023-08-09T00:00	22676	39	-52.7	-84.0	62	5
2023-08-09T00:00	22706	39	-52.7	-84.0	62	5
2023-08-09T00:00	22733	38	-52.6	-83.9	61	5
2023-08-09T00:00	22752	38	-52.4	-83.8	60	5
2023-08-09T00:00	22775	38	-52.3	-83.7	60	5
2023-08-09T00:00	22795	38	-52.1	-83.5	59	5
2023-08-09T00:00	22818	38	-52.2	-83.6	59	5
2023-08-09T00:00	22850	38	-52.2	-83.6	59	4
2023-08-09T00:00	22868	38	-52.3	-83.7	58	4
2023-08-09T00:00	22893	37	-52.4	-83.8	57	4
2023-08-09T00:00	22913	37	-52.5	-83.8	55	4
2023-08-09T00:00	22942	37	-52.5	-83.8	53	4
2023-08-09T00:00	22964	37	-52.4	-83.8	52	4
2023-08-09T00:00	22989	37	-52.4	-83.8	53	5
2023-08-09T00:00	23008	37	-52.3	-83.7	54	5
2023-08-09T00:00	23033	37	-52.5	-83.8	56	5
2023-08-09T00:00	23058	36	-52.5	-83.8	57	6
2023-08-09T00:00	23087	36	-52.4	-83.8	59	6
2023-08-09T00:00	23110	36	-52.5	-83.8	62	6
2023-08-09T00:00	23131	36	-52.6	-83.9	65	6
2023-08-09T00:00	23157	36	-52.3	-83.7	68	6
2023-08-09T00:00	23177	36	-52.3	-83.7	71	7
2023-08-09T00:00	23201	36	-52.3	-83.7	73	7
2023-08-09T00:00	23226	36	-52.4	-83.8	74	7
2023-08-09T00:00	23255	35	-52.4	-83.8	73	7
2023-08-09T00:00	23271	35	-52.4	-83.8	71	7
2023-08-09T00:00	23302	35	-52.3	-83.7	69	7
2023-08-09T00:00	23324	35	-52.3	-83.7	66	7
2023-08-09T00:00	23346	35	-52.1	-83.5	65	7
2023-08-09T00:00	23368	35	-52.1	-83.5	65	7
2023-08-09T00:00	23395	35	-51.8	-83.3	66	7
2023-08-09T00:00	23421	35	-51.8	-83.3	68	8
2023-08-09T00:00	23448	34	-51.8	-83.3	69	8
2023-08-09T00:00	23474	34	-51.9	-83.4	70	8
2023-08-09T00:00	23494	34	-51.8	-83.3	70	8
2023-08-09T00:00	23515	34	-51.9	-83.4	70	8
2023-08-09T00:00	23543	34	-51.9	-83.4	70	8
2023-08-09T00:00	23567	34	-51.8	-83.3	70	9
2023-08-09T00:00	23589	34	-51.7	-83.2	70	9
2023-08-09T00:00	23618	33	-51.6	-83.2	69	10
2023-08-09T00:00	23645	33	-51.7	-83.2	69	10
2023-08-09T00:00	23668	33	-51.7	-83.2	69	10
2023-08-09T00:00	23690	33	-51.8	-83.3	68	11
2023-08-09T00:00	23717	33	-51.9	-83.4	69	11
2023-08-09T00:00	23745	33	-52.0	-83.5	70	11
2023-08-09T00:00	23759	33	-52.1	-83.5	72	11
2023-08-09T00:00	23789	33	-52.2	-83.6	74	11
2023-08-09T00:00	23813	32	-52.3	-83.7	77	11
2023-08-09T00:00	23841	32	-51.9	-83.4	80	11
2023-08-09T00:00	23864	32	-51.9	-83.4	82	11
2023-08-09T00:00	23885	32	-51.9	-84.0	84	11
2023-08-09T00:00	23908	32	-51.6	-83.8	85	11
2023-08-09T00:00	23935	32	-51.5	-83.7	85	11
2023-08-09T00:00	23957	32	-51.2	-83.5	85	11
2023-08-09T00:00	23984	32	-51.1	-83.4	85	10
2023-08-09T00:00	24007	32	-51.2	-83.5	85	10
2023-08-09T00:00	24036	31	-51.3	-83.6	84	9
2023-08-09T00:00	24058	31	-51.2	-83.5	83	9
2023-08-09T00:00	24078	31	-51.3	-83.6	81	9
2023-08-09T00:00	24104	31	-51.3	-83.6	80	9
2023-08-09T00:00	24125	31	-51.4	-83.6	79	10
2023-08-09T00:00	24153	31	-51.3	-83.6	79	10
2023-08-09T00:00	24173	31	-51.1	-83.4	80	11
2023-08-09T00:00	24195	31	-51.0	-83.3	81	12
2023-08-09T00:00	24219	31	-51.1	-83.4	82	12
2023-08-09T00:00	24249	30	-51.2	-83.5	84	12
2023-08-09T00:00	24268	30	-51.2	-83.5	86	13
2023-08-09T00:00	24293	30	-51.3	-83.6	88	13
2023-08-09T00:00	24317	30	-51.4	-83.0	90	13
2023-08-09T00:00	24350	30	-51.5	-83.1	91	14
2023-08-09T00:00	24365	30	-51.5	-83.1	92	14
2023-08-09T00:00	24396	30	-51.5	-83.1	92	15
2023-08-09T00:00	24418	30	-51.5	-83.1	93	15
2023-08-09T00:00	24441	29	-51.6	-83.2	94	15
2023-08-09T00:00	24475	29	-51.7	-83.2	95	15
2023-08-09T00:00	24491	29	-51.8	-83.3	96	15
2023-08-09T00:00	24520	29	-51.7	-83.2	97	14
2023-08-09T00:00	24545	29	-51.5	-83.7	99	14
2023-08-09T00:00	24568	29	-51.6	-83.8	100	13
2023-08-09T00:00	24593	29	-51.6	-83.8	101	13
2023-08-09T00:00	24621	29	-51.5	-83.7	102	12
2023-08-09T00:00	24649	29	-51.6	-83.8	103	12
2023-08-09T00:00	24673	28	-51.2	-83.5	103	12
2023-08-09T00:00	24702	28	-51.0	-83.3	103	12
2023-08-09T00:00	24729	28	-51.1	-83.4	103	12
2023-08-09T00:00	24749	28	-51.1	-83.4	104	12
2023-08-09T00:00	24777	28	-51.0	-83.3	105	13
2023-08-09T00:00	24802	28	-50.8	-83.2	106	13
2023-08-09T00:00	24823	28	-50.6	-83.1	107	14
2023-08-09T00:00	24852	28	-50.6	-83.1	109	15
2023-08-09T00:00	24878	28	-50.6	-83.1	111	16
2023-08-09T00:00	24904	27	-50.6	-83.1	112	16
2023-08-09T00:00	24930	27	-50.8	-83.2	113	16
2023-08-09T00:00	24949	27	-50.8	-83.2	114	16
2023-08-09T00:00	24976	27	-50.7	-83.1	115	15
2023-08-09T00:00	25002	27	-50.1	-82.7	116	15
2023-08-09T00:00	25029	27	-50.2	-82.8	117	14
2023-08-09T00:00	25046	27	-50.2	-83.5	118	13
2023-08-09T00:00	25079	27	-50.2	-82.8	118	12
2023-08-09T00:00	25097	27	-50.2	-82.8	119	11
2023-08-09T00:00	25124	27	-50.2	-82.8	119	11
2023-08-09T00:00	25158	26	-50.2	-82.8	119	11
2023-08-09T00:00	25183	26	-50.3	-82.8	118	11
2023-08-09T00:00	25201	26	-50.3	-82.8	118	11
2023-08-09T00:00	25233	26	-50.2	-82.8	118	11
2023-08-09T00:00	25244	26	-50.1	-82.7	120	11
2023-08-09T00:00	25279	26	-50.1	-83.4	123	11
2023-08-09T00:00	25298	26	-49.9	-83.2	127	11
2023-08-09T00:00	25321	26	-49.7	-83.1	133	11
2023-08-09T00:00	25351	26	-49.5	-82.9	138	10
2023-08-09T00:00	25379	26	-49.5	-82.9	142	10
2023-08-09T00:00	25397	25	-49.2	-82.7	146	9
2023-08-09T00:00	25426	25	-48.9	-82.5	148	9
2023-08-09T00:00	25448	25	-48.8	-82.4	150	8
2023-08-09T00:00	25475	25	-48.8	-82.4	151	8
2023-08-09T00:00	25496	25	-48.8	-82.4	152	7
2023-08-09T00:00	25524	25	-48.8	-82.4	151	6
2023-08-09T00:00	25544	25	-48.8	-82.4	149	6
2023-08-09T00:00	25573	25	-48.7	-82.4	145	5
2023-08-09T00:00	25602	25	-48.3	-82.1	140	5
2023-08-09T00:00	25622	25	-48.3	-82.1	133	5
2023-08-09T00:00	25655	25	-48.5	-82.2	128	5
2023-08-09T00:00	25679	24	-48.6	-82.3	125	5
2023-08-09T00:00	25697	24	-48.8	-82.4	125	4
2023-08-09T00:00	25721	24	-48.7	-82.4	126	4
2023-08-09T00:00	25754	24	-48.5	-82.2	128	4
2023-08-09T00:00	25783	24	-48.4	-82.2	128	4
2023-08-09T00:00	25808	24	-48.6	-82.3	123	3
2023-08-09T00:00	25830	24	-48.7	-82.4	114	3
2023-08-09T00:00	25858	24	-48.6	-82.3	102	4
2023-08-09T00:00	25887	24	-48.6	-82.3	93	4
2023-08-09T00:00	25913	24	-48.7	-82.4	87	5
2023-08-09T00:00	25932	23	-48.8	-82.4	84	6
2023-08-09T00:00	25960	23	-48.9	-82.5	82	6
2023-08-09T00:00	25986	23	-49.0	-82.6	80	7
2023-08-09T00:00	26021	23	-49.2	-82.0	79	8
2023-08-09T00:00	26043	23	-49.4	-82.2	77	8
2023-08-09T00:00	26070	23	-49.6	-82.3	76	9
2023-08-09T00:00	26103	23	-49.7	-82.4	76	9
2023-08-09T00:00	26127	23	-49.7	-82.4	77	9
2023-08-09T00:00	26149	23	-49.8	-82.5	79	9
2023-08-09T00:00	26172	23	-49.7	-82.4	82	9
2023-08-09T00:00	26195	23	-49.6	-83.0	87	8
2023-08-09T00:00	26224	22	-49.6	-83.0	92	8
2023-08-09T00:00	26256	22	-49.5	-82.9	96	8
2023-08-09T00:00	26277	22	-49.4	-82.9	101	8
2023-08-09T00:00	26295	22	-49.5	-82.9	104	7
2023-08-09T00:00	26333	22	-49.5	-82.9	107	7
2023-08-09T00:00	26356	22	-49.4	-82.9	110	7
2023-08-09T00:00	26386	22	-49.4	-82.9	114	7
2023-08-09T00:00	26403	22	-49.5	-82.9	116	7
2023-08-09T00:00	26433	22	-49.6	-83.0	118	7
2023-08-09T00:00	26460	22	-49.7	-83.1	119	7
2023-08-09T00:00	26474	22	-49.7	-83.1	118	7
2023-08-09T00:00	26506	22	-49.5	-82.9	117	7
2023-08-09T00:00	26524	21	-49.4	-82.9	115	8
2023-08-09T00:00	26552	21	-49.5	-82.9	113	8
2023-08-09T00:00	26575	21	-49.5	-82.9	110	8
2023-08-09T00:00	26600	21	-49.5	-82.9	106	8
2023-08-09T00:00	26630	21	-49.5	-82.9	100	9
2023-08-09T00:00	26648	21	-49.4	-82.9	94	9
2023-08-09T00:00	26670	21	-49.5	-82.9	90	10
2023-08-09T00:00	26699	21	-49.6	-83.0	86	10
2023-08-09T00:00	26727	21	-49.5	-82.9	85	10
2023-08-09T00:00	26751	21	-49.3	-82.8	85	10
2023-08-09T00:00	26780	21	-49.2	-82.7	87	9
2023-08-09T00:00	26799	21	-48.7	-82.4	91	9
2023-08-09T00:00	26821	21	-48.4	-82.2	96	8
2023-08-09T00:00	26859	20	-48.4	-82.2	102	8
2023-08-09T00:00	26872	20	-48.4	-82.2	107	8
2023-08-09T00:00	26896	20	-48.5	-82.2	110	8
2023-08-09T00:00	26921	20	-48.6	-82.3	112	8
2023-08-09T00:00	26939	20	-48.7	-82.4	112	7
2023-08-09T00:00	26969	20	-48.6	-82.3	111	7
2023-08-09T00:00	26985	20	-48.5	-82.2	109	6
2023-08-09T00:00	27011	20	-48.3	-82.1	107	6
2023-08-09T00:00	27035	20	-48.2	-82.8	104	5
2023-08-09T00:00	27066	20	-48.0	-82.7	100	5
2023-08-09T00:00	27088	20	-48.0	-82.7	96	5
2023-08-09T00:00	27115	20	-47.7	-82.4	91	5
2023-08-09T00:00	27147	20	-47.5	-82.3	86	5
2023-08-09T00:00	27169	19	-47.4	-82.2	79	5
2023-08-09T00:00	27185	19	-47.3	-82.2	73	5
2023-08-09T00:00	27215	19	-47.2	-82.1	67	5
2023-08-09T00:00	27240	19	-47.2	-82.1	64	6
2023-08-09T00:00	27260	19	-47.1	-82.0	64	7
2023-08-09T00:00	27295	19	-46.6	-81.7	66	8
2023-08-09T00:00	27303	19	-46.3	-81.4	69	10
2023-08-09T00:00	27346	19	-46.1	-82.2	73	11
2023-08-09T00:00	27359	19	-46.0	-82.1	76	11
2023-08-09T00:00	27389	19	-45.8	-82.0	79	12
2023-08-09T00:00	27401	19	-45.7	-81.9	82	12
2023-08-09T00:00	27429	19	-45.5	-81.8	84	12
2023-08-09T00:00	27465	19	-45.5	-80.9	86	13
2023-08-09T00:00	27492	19	-45.6	-80.9	89	13
2023-08-09T00:00	27507	18	-45.7	-81.0	91	13
2023-08-09T00:00	27537	18	-45.8	-81.1	94	13
2023-08-09T00:00	27565	18	-45.9	-81.2	97	13
2023-08-09T00:00	27587	18	-45.8	-81.1	99	13
2023-08-09T00:00	27609	18	-45.6	-80.9	102	13
2023-08-09T00:00	27635	18	-45.2	-80.7	103	12
2023-08-09T00:00	27656	18	-45.2	-81.6	104	11
2023-08-09T00:00	27684	18	-45.3	-81.6	104	11
2023-08-09T00:00	27729	18	-45.2	-81.6	103	10
2023-08-09T00:00	27764	18	-44.7	-81.2	99	9
2023-08-09T00:00	27786	18	-44.6	-81.2	95	8
2023-08-09T00:00	27812	18	-44.5	-81.1	89	8
2023-08-09T00:00	27843	18	-44.4	-81.0	83	8
2023-08-09T00:00	27863	18	-44.1	-80.8	75	8
2023-08-09T00:00	27887	17	-44.1	-80.8	68	8
2023-08-09T00:00	27908	17	-44.1	-80.8	61	8
2023-08-09T00:00	27932	17	-44.3	-80.9	54	8
2023-08-09T00:00	27951	17	-44.5	-81.1	48	8
2023-08-09T00:00	27981	17	-44.5	-81.1	42	9
2023-08-09T00:00	28015	17	-44.5	-81.1	39	9
2023-08-09T00:00	28032	17	-44.3	-80.9	38	9
2023-08-09T00:00	28065	17	-44.3	-80.9	39	9
2023-08-09T00:00	28086	17	-44.2	-80.9	42	9
2023-08-09T00:00	28116	17	-44.0	-80.7	45	9
2023-08-09T00:00	28133	17	-44.1	-80.8	48	9
2023-08-09T00:00	28160	17	-44.2	-80.9	51	8
2023-08-09T00:00	28181	17	-44.1	-80.8	53	8
2023-08-09T00:00	28212	17	-44.1	-80.8	54	8
2023-08-09T00:00	28240	17	-44.2	-80.9	56	8
2023-08-09T00:00	28258	17	-44.0	-80.7	58	9
2023-08-09T00:00	28285	16	-44.1	-80.8	60	9
2023-08-09T00:00	28309	16	-43.9	-80.7	61	10
2023-08-09T00:00	28340	16	-44.0	-80.7	62	10
2023-08-09T00:00	28356	16	-44.1	-80.8	63	10
2023-08-09T00:00	28379	16	-44.3	-80.9	65	11
2023-08-09T00:00	28414	16	-44.5	-81.1	68	11
2023-08-09T00:00	28441	16	-44.6	-81.2	71	11
2023-08-09T00:00	28460	16	-44.7	-80.3	76	11
2023-08-09T00:00	28491	16	-44.7	-80.3	81	11
2023-08-09T00:00	28509	16	-44.7	-81.2	85	11
2023-08-09T00:00	28545	16	-44.7	-81.2	88	11
2023-08-09T00:00	28563	16	-44.7	-81.2	90	11
2023-08-09T00:00	28589	16	-44.7	-81.2	91	11
2023-08-09T00:00	28615	16	-44.8	-81.3	92	11
2023-08-09T00:00	28642	16	-44.8	-81.3	92	11
2023-08-09T00:00	28666	16	-44.8	-81.3	91	10
2023-08-09T00:00	28697	16	-44.8	-81.3	90	10
2023-08-09T00:00	28708	15	-44.8	-81.3	88	10
2023-08-09T00:00	28740	15	-44.7	-81.2	85	9
2023-08-09T00:00	28761	15	-44.8	-81.3	84	9
2023-08-09T00:00	28785	15	-44.8	-81.3	83	9
2023-08-09T00:00	28806	15	-44.7	-81.2	82	9
2023-08-09T00:00	28843	15	-44.5	-81.1	81	9
2023-08-09T00:00	28869	15	-44.3	-80.9	80	8
2023-08-09T00:00	28889	15	-44.2	-80.9	77	8
2023-08-09T00:00	28909	15	-44.1	-80.8	75	8
2023-08-09T00:00	28936	15	-44.0	-80.7	74	7
2023-08-09T00:00	28975	15	-44.0	-80.7	74	7
2023-08-09T00:00	28997	15	-43.9	-80.7	75	7
2023-08-09T00:00	29025	15	-43.9	-80.7	77	7
2023-08-09T00:00	29041	15	-43.8	-80.6	77	7
2023-08-09T00:00	29056	15	-43.8	-80.6	76	7
2023-08-09T00:00	29091	15	-43.8	-80.6	74	7
2023-08-09T00:00	29113	15	-43.6	-80.4	71	7
2023-08-09T00:00	29135	15	-43.4	-80.3	68	7
2023-08-09T00:00	29161	14	-43.4	-80.3	64	7
2023-08-09T00:00	29190	14	-43.4	-80.3	62	8
2023-08-09T00:00	29202	14	-43.3	-80.2	61	8
2023-08-09T00:00	29238	14	-43.2	-80.2	61	9
2023-08-09T00:00	29256	14	-43.0	-80.0	63	10
2023-08-09T00:00	29278	14	-42.8	-81.0	65	11
2023-08-09T00:00	29306	14	-42.8	-81.0	67	12
2023-08-09T00:00	29331	14	-42.6	-80.8	70	13
2023-08-09T00:00	29347	14	-42.6	-80.8	72	14
2023-08-09T00:00	29369	14	-42.6	-80.8	73	14
2023-08-09T00:00	29401	14	-42.7	-80.9	75	15
2023-08-09T00:00	29423	14	-42.8	-81.0	75	14
2023-08-09T00:00	29442	14	-42.7	-80.9	75	14
2023-08-09T00:00	29475	14	-42.3	-80.6	74	13
2023-08-09T00:00	29485	14	-41.9	-80.4	73	13
2023-08-09T00:00	29523	14	-41.8	-80.3	74	12
2023-08-09T00:00	29553	14	-41.7	-80.2	75	12
2023-08-09T00:00	29583	14	-41.4	-80.0	77	12
2023-08-09T00:00	29594	14	-41.2	-79.9	79	12
2023-08-09T00:00	29639	13	-41.3	-79.9	82	13
2023-08-09T00:00	29662	13	-41.3	-79.9	84	13
2023-08-09T00:00	29681	13	-41.4	-80.0	87	14
2023-08-09T00:00	29700	13	-41.4	-80.0	90	14
2023-08-09T00:00	29736	13	-41.6	-80.1	93	14
2023-08-09T00:00	29770	13	-41.6	-80.1	96	14
2023-08-09T00:00	29786	13	-41.4	-80.0	100	14
2023-08-09T00:00	29804	13	-41.3	-79.9	105	13
2023-08-09T00:00	29844	13	-41.3	-79.9	110	13
2023-08-09T00:00	29869	13	-41.3	-79.9	115	12
2023-08-09T00:00	29891	13	-41.4	-80.0	119	12
2023-08-09T00:00	29926	13	-41.4	-80.0	122	12
2023-08-09T00:00	29947	13	-41.4	-80.0	124	11
2023-08-09T00:00	29994	13	-41.3	-79.9	123	11
2023-08-09T00:00	30016	13	-41.2	-79.9	122	11
2023-08-09T00:00	30025	13	-40.9	-79.7	120	11
2023-08-09T00:00	30057	13	-40.9	-79.7	118	11
2023-08-09T00:00	30086	13	-40.8	-79.6	117	11
2023-08-09T00:00	30114	13	-40.8	-79.6	117	11
2023-08-09T00:00	30141	13	-40.8	-79.6	116	11
2023-08-09T00:00	30163	12	-40.5	-79.4	115	11
2023-08-09T00:00	30205	12	-40.4	-79.3	114	12
2023-08-09T00:00	30240	12	-40.3	-79.2	114	12
2023-08-09T00:00	30251	12	-40.2	-79.2	114	13
2023-08-09T00:00	30283	12	-40.3	-79.2	114	13
2023-08-09T00:00	30308	12	-40.4	-79.3	115	13
2023-08-09T00:00	30345	12	-40.5	-79.4	116	14
2023-08-09T00:00	30353	12	-40.6	-79.5	117	13
2023-08-09T00:00	30390	12	-40.6	-79.5	119	13
2023-08-09T00:00	30429	12	-40.7	-79.5	121	13
2023-08-09T00:00	30447	12	-40.7	-79.5	122	13
2023-08-09T00:00	30450	12	-40.8	-79.6	124	13
2023-08-09T00:00	30499	12	-40.8	-79.6	126	12
2023-08-09T00:00	30533	12	-40.8	-79.6	128	12
2023-08-09T00:00	30563	12	-40.9	-79.7	130	11
2023-08-09T00:00	30601	12	-40.6	-79.5	132	11
2023-08-09T00:00	30611	12	-40.1	-79.1	135	10
2023-08-09T00:00	30626	12	-39.6	-78.8	137	9
2023-08-09T00:00	30651	12	-39.2	-78.5	138	9
2023-08-09T00:00	30674	12	-39.2	-78.5	137	8
2023-08-09T00:00	30706	12	-39.2	-78.5	134	7
2023-08-09T00:00	30733	11	-39.3	-78.5	128	6
2023-08-09T00:00	30753	11	-38.9	-78.3	121	6
2023-08-09T00:00	30779	11	-38.4	-77.9	112	6
2023-08-09T00:00	30806	11	-38.2	-77.8	105	6
2023-08-09T00:00	30826	11	-38.1	-77.7	100	7
2023-08-09T00:00	30848	11	-38.0	-77.6	96	8
2023-08-09T00:00	30862	11	-37.9	-77.6	94	8
2023-08-09T00:00	30893	11	-37.9	-77.6	94	9
2023-08-09T00:00	30915	11	-38.0	-77.6	93	10
2023-08-09T00:00	30941	11	-38.0	-77.6	94	10
2023-08-09T00:00	30946	11	-38.1	-77.7	95	11
2023-08-09T00:00	30975	11	-38.0	-77.6	96	11
2023-08-09T00:00	31003	11	-38.0	-77.6	97	11
2023-08-09T00:00	31039	11	-38.0	-77.6	98	11
2023-08-09T00:00	31060	11	-38.0	-77.6	99	11
2023-08-09T00:00	31081	11	-38.0	-77.6	101	12
2023-08-09T00:00	31100	11	-38.1	-77.7	103	12
2023-08-09T00:00	31130	11	-38.0	-77.6	104	13
2023-08-09T00:00	31155	11	-38.1	-77.7	105	13
2023-08-09T00:00	31180	11	-38.1	-77.7	105	14
2023-08-09T00:00	31200	11	-38.1	-77.7	106	14
2023-08-09T00:00	31240	11	-38.1	-77.7	107	14
2023-08-09T00:00	31253	11	-38.1	-77.7	108	13
2023-08-09T00:00	31284	11	-38.0	-77.6	111	12
2023-08-09T00:00	31314	11	-37.9	-77.6	113	11
2023-08-09T00:00	31348	11	-37.7	-77.4	117	10
2023-08-09T00:00	31365	10	-37.5	-77.3	121	9
2023-08-09T00:00	31391	10	-37.3	-77.2	125	9
2023-08-09T00:00	31411	10	-37.0	-77.0	129	8
2023-08-09T00:00	31439	10	-36.9	-76.9	132	8
2023-08-09T00:00	31496	10	-36.7	-76.7	134	7
2023-08-09T00:00	31507	10	-36.6	-76.7	135	7
2023-08-09T00:00	31535	10	-36.4	-76.5	135	7
2023-08-09T00:00	31568	10	-36.3	-76.5	133	7
2023-08-09T00:00	31607	10	-36.1	-76.3	131	8
2023-08-09T00:00	31626	10	-36.1	-76.3	129	8
2023-08-09T00:00	31645	10	-36.2	-76.4	127	8
2023-08-09T00:00	31683	10	-36.3	-76.5	125	8
2023-08-09T00:00	31710	10	-36.4	-76.5	123	8
2023-08-09T00:00	31734	10	-36.6	-76.7	122	9
2023-08-09T00:00	31759	10	-36.7	-76.7	122	9
2023-08-09T00:00	31785	10	-36.8	-76.8	121	9
2023-08-09T00:00	31824	10	-36.9	-76.9	121	10
2023-08-09T00:00	31831	10	-36.9	-76.9	121	10
2023-08-09T00:00	31867	10	-37.0	-77.0	120	10
2023-08-09T00:00	31911	10	-37.0	-77.0	120	9
2023-08-09T00:00	31918	10	-37.1	-77.0	121	9
2023-08-09T00:00	31959	10	-37.3	-77.2	122	8
2023-08-09T00:00	31967	10	-37.3	-77.2	125	8
2023-08-09T00:00	31997	10	-37.3	-77.2	129	7
2023-08-09T00:00	32026	10	-37.2	-77.1	133	7
2023-08-09T00:00	32042	9	-36.9	-76.9	135	7
2023-08-09T00:00	32081	9	-36.8	-76.8	136	7
2023-08-09T00:00	32104	9	-36.6	-76.7	136	8
2023-08-09T00:00	32122	9	-36.6	-76.7	136	8
2023-08-09T00:00	32171	9	-36.5	-76.6	136	7
2023-08-09T00:00	32211	9	-36.4	-76.5	138	7
2023-08-09T00:00	32234	9	-36.5	-76.6	139	6
2023-08-09T00:00	32263	9	-36.2	-76.4	138	5
2023-08-09T00:00	32270	9	-36.1	-76.3	135	5
2023-08-09T00:00	32290	9	-35.8	-76.1	130	4
2023-08-09T00:00	32333	9	-35.7	-76.1	124	4
2023-08-09T00:00	32376	9	-35.8	-76.1	110	4
2023-08-09T00:00	32394	9	-35.9	-76.2	103	4
2023-08-09T00:00	32409	9	-35.9	-76.2	98	4
2023-08-09T00:00	32427	9	-35.9	-76.2	93	4
2023-08-09T00:00	32452	9	-35.8	-76.1	90	5
2023-08-09T00:00	32491	9	-35.6	-76.0	86	6
2023-08-09T00:00	32529	9	-35.3	-75.8	83	6
2023-08-09T00:00	32539	9	-35.3	-75.8	81	7
2023-08-09T00:00	32549	9	-35.3	-75.8	78	8
2023-08-09T00:00	32575	9	-35.3	-75.8	76	8
2023-08-09T00:00	32581	9	-35.3	-75.8	74	9
2023-08-09T00:00	32628	9	-35.4	-75.8	74	10
2023-08-09T00:00	32661	9	-35.5	-75.9	74	11
2023-08-09T00:00	32697	9	-35.4	-75.8	78	12
2023-08-09T00:00	32709	9	-35.4	-75.8	80	12
2023-08-09T00:00	32750	9	-35.4	-75.8	82	12
2023-08-09T00:00	32766	9	-35.3	-75.8	83	12
2023-08-09T00:00	32780	9	-35.2	-75.7	84	12
2023-08-09T00:00	32806	9	-35.2	-75.7	85	12
2023-08-09T00:00	32859	8	-35.2	-75.7	86	12
2023-08-09T00:00	32895	8	-35.0	-75.6	89	11
2023-08-09T00:00	32910	8	-35.0	-75.6	91	11
2023-08-09T00:00	32948	8	-35.1	-75.6	92	10
2023-08-09T00:00	32963	8	-35.0	-75.6	93	10
2023-08-09T00:00	32992	8	-35.1	-75.6	94	10
2023-08-09T00:00	33041	8	-35.3	-75.8	93	9
2023-08-09T00:00	33061	8	-35.3	-75.8	91	9
2023-08-09T00:00	33088	8	-35.4	-75.8	84	9
2023-08-09T00:00	33112	8	-35.3	-75.8	79	10
2023-08-09T00:00	33145	8	-35.2	-75.7	76	10
2023-08-09T00:00	33196	8	-35.0	-75.6	71	11
2023-08-09T06:00	-999					
2023-08-09T06:00	130	997	11.5	11.3	250	2
2023-08-09T06:00	157	994	11.4	11.1	245	3
2023-08-09T06:00	183	991	11.1	10.8	244	5
2023-08-09T06:00	207	988	10.9	10.7	244	6
2023-08-09T06:00	233	985	10.9	10.6	245	7
2023-08-09T06:00	258	982	11.1	10.6	247	8
2023-08-09T06:00	283	979	10.8	10.3	250	9
2023-08-09T06:00	308	976	10.7	10.1	254	9
2023-08-09T06:00	333	973	10.6	10.0	258	9
2023-08-09T06:00	353	970	11.4	9.1	262	9
2023-08-09T06:00	377	968	11.2	9.2	265	9
2023-08-09T06:00	401	965	11.0	9.0	269	8
2023-08-09T06:00	426	962	10.9	8.7	271	8
2023-08-09T06:00	446	960	10.7	8.7	274	8
2023-08-09T06:00	469	957	10.5	8.7	275	8
2023-08-09T06:00	491	955	10.3	8.6	276	7
2023-08-09T06:00	515	952	10.1	8.6	277	7
2023-08-09T06:00	540	949	9.9	8.6	278	7
2023-08-09T06:00	562	947	9.6	8.5	278	7
2023-08-09T06:00	583	944	9.4	8.3	279	7
2023-08-09T06:00	606	941	9.3	8.1	279	7
2023-08-09T06:00	629	939	9.1	8.1	280	7
2023-08-09T06:00	654	936	8.9	8.1	280	7
2023-08-09T06:00	681	933	8.7	8.0	281	7
2023-08-09T06:00	704	930	8.4	7.9	282	7
2023-08-09T06:00	726	928	8.3	7.8	283	7
2023-08-09T06:00	749	926	8.0	7.7	284	6
2023-08-09T06:00	770	923	7.9	6.8	283	6
2023-08-09T06:00	794	920	7.8	6.1	281	6
2023-08-09T06:00	820	918	7.6	6.2	277	6
2023-08-09T06:00	845	915	7.4	6.1	273	6
2023-08-09T06:00	876	911	7.4	5.6	270	7
2023-08-09T06:00	903	908	7.2	6.0	268	7
2023-08-09T06:00	929	906	7.0	6.1	267	7
2023-08-09T06:00	957	902	6.8	5.8	267	7
2023-08-09T06:00	989	899	6.6	5.5	267	7
2023-08-09T06:00	1013	896	6.4	5.4	267	8
2023-08-09T06:00	1037	894	6.4	4.7	267	8
2023-08-09T06:00	1066	891	6.3	4.9	267	8
2023-08-09T06:00	1091	888	6.1	4.9	268	8
2023-08-09T06:00	1118	885	5.8	4.7	268	9
2023-08-09T06:00	1146	882	5.7	4.6	269	9
2023-08-09T06:00	1172	879	5.5	4.3	269	9
2023-08-09T06:00	1197	876	5.3	3.9	268	9
2023-08-09T06:00	1224	873	5.1	3.8	268	9
2023-08-09T06:00	1255	870	4.9	3.8	267	9
2023-08-09T06:00	1284	867	4.6	3.5	267	10
2023-08-09T06:00	1311	864	4.3	3.7	267	10
2023-08-09T06:00	1340	861	4.0	3.6	266	10
2023-08-09T06:00	1364	859	4.0	3.0	265	10
2023-08-09T06:00	1389	856	4.0	2.6	264	10
2023-08-09T06:00	1415	853	3.9	2.6	263	10
2023-08-09T06:00	1441	851	4.1	2.3	261	10
2023-08-09T06:00	1468	848	3.9	2.0	260	10
2023-08-09T06:00	1493	845	3.8	1.9	260	10
2023-08-09T06:00	1523	842	3.5	1.8	260	10
2023-08-09T06:00	1555	839	3.2	1.7	259	10
2023-08-09T06:00	1583	836	3.1	1.9	259	10
2023-08-09T06:00	1611	833	2.8	1.9	257	10
2023-08-09T06:00	1644	830	2.6	1.9	255	11
2023-08-09T06:00	1677	826	2.4	1.8	253	11
2023-08-09T06:00	1709	823	2.2	1.6	252	11
2023-08-09T06:00	1740	820	1.9	1.7	251	11
2023-08-09T06:00	1772	817	1.6	1.6	250	12
2023-08-09T06:00	1804	813	1.3	1.3	249	12
2023-08-09T06:00	1835	810	1.2	1.2	248	12
2023-08-09T06:00	1868	807	1.0	1.0	246	12
2023-08-09T06:00	1896	804	0.9	0.9	244	13
2023-08-09T06:00	1927	801	0.7	0.7	242	13
2023-08-09T06:00	1959	798	0.5	0.5	241	13
2023-08-09T06:00	1987	795	0.4	0.4	240	13
2023-08-09T06:00	2020	792	0.2	0.2	239	13
2023-08-09T06:00	2050	789	0.1	0.1	239	13
2023-08-09T06:00	2079	786	-0.1	-0.1	239	13
2023-08-09T06:00	2110	783	-0.3	-0.3	238	13
2023-08-09T06:00	2138	780	-0.4	-0.4	238	14
2023-08-09T06:00	2172	777	-0.6	-0.6	238	14
2023-08-09T06:00	2200	774	-0.8	-0.8	239	14
2023-08-09T06:00	2227	771	-1.0	-1.0	240	15
2023-08-09T06:00	2262	768	-1.2	-1.2	243	15
2023-08-09T06:00	2294	765	-1.4	-1.4	246	15
2023-08-09T06:00	2325	762	-1.8	-1.8	249	16
2023-08-09T06:00	2355	759	-2.0	-2.0	250	16
2023-08-09T06:00	2383	757	-2.3	-2.3	251	16
2023-08-09T06:00	2411	754	-2.6	-2.6	251	16
2023-08-09T06:00	2438	751	-2.7	-2.7	252	16
2023-08-09T06:00	2470	748	-2.9	-3.1	252	16
2023-08-09T06:00	2498	746	-3.1	-4.0	253	16
2023-08-09T06:00	2530	743	-3.4	-4.9	254	16
2023-08-09T06:00	2558	740	-3.7	-5.9	254	16
2023-08-09T06:00	2587	737	-3.9	-6.4	254	16
2023-08-09T06:00	2617	735	-4.1	-6.8	254	15
2023-08-09T06:00	2649	732	-4.2	-7.0	253	15
2023-08-09T06:00	2676	729	-4.4	-7.2	253	15
2023-08-09T06:00	2709	726	-4.6	-7.5	253	15
2023-08-09T06:00	2737	724	-4.8	-8.1	253	16
2023-08-09T06:00	2763	721	-5.0	-8.1	254	16
2023-08-09T06:00	2787	719	-5.1	-8.3	255	15
2023-08-09T06:00	2811	717	-5.2	-8.4	257	15
2023-08-09T06:00	2832	715	-5.4	-8.5	258	16
2023-08-09T06:00	2864	712	-5.4	-8.5	260	16
2023-08-09T06:00	2890	710	-5.6	-8.7	261	16
2023-08-09T06:00	2909	708	-5.7	-8.8	261	16
2023-08-09T06:00	2933	706	-5.8	-8.9	262	16
2023-08-09T06:00	2955	704	-5.9	-9.2	264	16
2023-08-09T06:00	2980	702	-6.0	-9.8	265	16
2023-08-09T06:00	3000	700	-6.1	-10.2	268	15
2023-08-09T06:00	3024	698	-6.2	-10.8	270	15
2023-08-09T06:00	3049	695	-6.2	-11.7	273	15
2023-08-09T06:00	3074	693	-6.4	-12.1	276	16
2023-08-09T06:00	3103	691	-6.3	-13.2	278	17
2023-08-09T06:00	3129	688	-6.5	-13.2	279	18
2023-08-09T06:00	3159	686	-6.6		280	19
2023-08-09T06:00	3188	683	-6.7	-14.3	281	19
2023-08-09T06:00	3218	681	-7.0	-14.1	281	20
2023-08-09T06:00	3242	679	-7.0	-14.3	282	20
2023-08-09T06:00	3257	677	-7.2	-14.1	283	20
2023-08-09T06:00	3277	675	-7.4	-14.1	284	20
2023-08-09T06:00	3309	673	-7.8	-14.1	284	20
2023-08-09T06:00	3336	670	-7.9	-14.0	284	20
2023-08-09T06:00	3358	668	-8.2	-13.7	284	20
2023-08-09T06:00	3376	667	-8.3	-14.0	283	20
2023-08-09T06:00	3387	666	-8.5	-13.9	282	20
2023-08-09T06:00	3405	664	-8.7	-14.0	282	20
2023-08-09T06:00	3424	663	-9.0	-13.6	283	19
2023-08-09T06:00	3449	660	-9.2	-13.3	285	19
2023-08-09T06:00	3475	658	-9.3	-13.3	287	19
2023-08-09T06:00	3506	656	-9.5	-13.4	288	19
2023-08-09T06:00	3534	653	-9.7	-13.7	289	20
2023-08-09T06:00	3568	650	-9.6	-12.7	288	21
2023-08-09T06:00	3602	648	-10.3	-13.8	286	23
2023-08-09T06:00	3628	645	-10.1	-12.6	283	25
2023-08-09T06:00	3658	643	-10.0	-12.1	281	27
2023-08-09T06:00	3687	640	-9.8	-11.4	278	28
2023-08-09T06:00	3715	638	-9.3	-10.7	276	30
2023-08-09T06:00	3742	636	-9.0	-10.3	274	31
2023-08-09T06:00	3767	634	-9.0	-10.1	273	32
2023-08-09T06:00	3788	632	-9.1	-10.3	272	32
2023-08-09T06:00	3809	630	-9.1	-10.2	271	32
2023-08-09T06:00	3828	629	-9.2	-10.3	270	33
2023-08-09T06:00	3847	627	-9.3	-10.4	270	33
2023-08-09T06:00	3869	626	-9.4	-10.5	269	33
2023-08-09T06:00	3888	624	-9.5	-10.6	268	33
2023-08-09T06:00	3910	622	-9.7	-10.8	267	34
2023-08-09T06:00	3930	621	-9.8	-10.9	266	34
2023-08-09T06:00	3950	619	-9.7	-10.8	265	33
2023-08-09T06:00	3971	617	-9.8	-10.8	263	32
2023-08-09T06:00	3990	616	-9.8	-11.0	262	31
2023-08-09T06:00	4022	613	-9.9	-11.2	261	30
2023-08-09T06:00	4047	611	-9.8	-11.3	261	29
2023-08-09T06:00	4073	609	-10.1	-11.3	262	28
2023-08-09T06:00	4094	608	-10.2	-11.4	263	27
2023-08-09T06:00	4111	606	-10.3	-11.6	263	27
2023-08-09T06:00	4130	605	-10.3	-11.6	262	26
2023-08-09T06:00	4145	604	-10.6	-11.7	260	26
2023-08-09T06:00	4159	602	-10.7	-11.7	257	26
2023-08-09T06:00	4186	600	-10.8	-11.9	255	26
2023-08-09T06:00	4211	598	-11.0	-12.1	253	26
2023-08-09T06:00	4237	596	-11.2	-12.2	252	26
2023-08-09T06:00	4262	594	-11.4	-12.2	251	25
2023-08-09T06:00	4286	593	-11.5	-12.5	251	25
2023-08-09T06:00	4313	591	-11.6	-13.1	252	24
2023-08-09T06:00	4333	589	-11.6	-13.1	252	23
2023-08-09T06:00	4347	588	-11.8	-13.2	253	23
2023-08-09T06:00	4366	586	-11.9	-13.2	254	22
2023-08-09T06:00	4383	585	-12.0	-13.6	255	22
2023-08-09T06:00	4406	583	-12.2	-13.7	255	22
2023-08-09T06:00	4436	581	-12.5	-14.1	255	22
2023-08-09T06:00	4464	579	-12.7	-14.1	253	22
2023-08-09T06:00	4497	577	-13.1	-14.7	251	22
2023-08-09T06:00	4522	574	-13.3	-14.7	250	21
2023-08-09T06:00	4558	572	-13.5	-14.5	248	20
2023-08-09T06:00	4594	569	-13.9	-14.7	247	20
2023-08-09T06:00	4622	567	-14.4	-15.7	247	20
2023-08-09T06:00	4651	565	-14.8	-15.6	247	19
2023-08-09T06:00	4682	563	-15.0	-15.7	247	19
2023-08-09T06:00	4715	560	-15.3	-16.0	247	19
2023-08-09T06:00	4742	558	-15.4	-16.3	247	18
2023-08-09T06:00	4780	555	-15.6	-16.7	247	18
2023-08-09T06:00	4807	553	-15.9	-16.9	247	19
2023-08-09T06:00	4838	551	-16.1	-17.1	247	19
2023-08-09T06:00	4866	549	-16.3	-17.2	248	20
2023-08-09T06:00	4898	547	-16.5	-17.3	248	20
2023-08-09T06:00	4928	545	-16.7	-17.6	248	21
2023-08-09T06:00	4956	543	-16.9	-17.7	247	21
2023-08-09T06:00	4984	541	-17.1	-17.9	247	21
2023-08-09T06:00	5009	539	-17.3	-18.2	247	21
2023-08-09T06:00	5037	537	-17.5	-18.3	248	21
2023-08-09T06:00	5064	535	-17.7	-18.4	249	21
2023-08-09T06:00	5097	533	-17.9	-18.6	250	21
2023-08-09T06:00	5124	531	-18.1	-18.9	252	21
2023-08-09T06:00	5148	529	-18.3	-19.5	253	21
2023-08-09T06:00	5174	527	-18.4	-19.7	254	22
2023-08-09T06:00	5204	525	-18.5	-20.0	255	22
2023-08-09T06:00	5228	523	-18.5	-20.5	255	23
2023-08-09T06:00	5251	521	-18.7	-20.4	255	23
2023-08-09T06:00	5277	520	-18.8	-20.6	255	24
2023-08-09T06:00	5299	518	-19.0	-20.8	255	24
2023-08-09T06:00	5322	517	-19.2	-20.9	255	25
2023-08-09T06:00	5344	515	-19.3	-21.0	256	25
2023-08-09T06:00	5371	513	-19.3	-21.0	257	25
2023-08-09T06:00	5395	511	-19.4	-21.2	258	24
2023-08-09T06:00	5416	510	-19.5	-21.2	259	24
2023-08-09T06:00	5436	509	-19.6	-21.5	259	24
2023-08-09T06:00	5458	507	-19.7	-21.6	259	25
2023-08-09T06:00	5479	506	-19.9	-21.8	258	25
2023-08-09T06:00	5501	504	-20.1	-22.1	256	26
2023-08-09T06:00	5521	503	-20.2	-22.2	255	26
2023-08-09T06:00	5550	501	-20.4	-22.5	254	26
2023-08-09T06:00	5574	499	-20.6	-22.6	253	26
2023-08-09T06:00	5599	498	-20.7	-22.6	253	26
2023-08-09T06:00	5620	496	-20.8	-22.7	252	25
2023-08-09T06:00	5647	495	-21.1	-22.9	252	25
2023-08-09T06:00	5670	493	-21.2	-23.0	251	25
2023-08-09T06:00	5694	491	-21.4	-23.2	249	25
2023-08-09T06:00	5721	490	-21.6	-23.4	247	25
2023-08-09T06:00	5748	488	-21.8	-23.5	246	25
2023-08-09T06:00	5780	486	-22.0	-23.6	245	26
2023-08-09T06:00	5810	484	-22.2	-23.9	245	26
2023-08-09T06:00	5836	482	-22.3	-24.0	245	26
2023-08-09T06:00	5864	480	-22.5	-24.2	246	26
2023-08-09T06:00	5890	478	-22.7	-24.5	247	26
2023-08-09T06:00	5915	477	-22.8	-24.6	248	27
2023-08-09T06:00	5942	475	-23.0	-24.8	249	27
2023-08-09T06:00	5970	473	-23.2	-24.9	249	28
2023-08-09T06:00	5999	471	-23.5	-25.2	249	28
2023-08-09T06:00	6026	470	-23.7	-25.4	249	29
2023-08-09T06:00	6054	468	-23.9	-25.6	249	29
2023-08-09T06:00	6081	466	-24.1	-25.7	249	29
2023-08-09T06:00	6113	464	-24.3	-25.8	250	29
2023-08-09T06:00	6148	462	-24.6	-26.2	250	29
2023-08-09T06:00	6182	460	-24.9	-26.3	250	29
2023-08-09T06:00	6214	458	-25.1	-26.4	250	29
2023-08-09T06:00	6246	456	-25.4	-26.7	249	29
2023-08-09T06:00	6280	453	-25.6	-27.0	249	29
2023-08-09T06:00	6316	451	-25.9	-27.2	248	29
2023-08-09T06:00	6351	449	-26.2	-27.5	248	29
2023-08-09T06:00	6384	447	-26.5	-27.7	248	29
2023-08-09T06:00	6418	445	-26.7	-28.0	248	29
2023-08-09T06:00	6448	443	-27.0	-27.8	248	30
2023-08-09T06:00	6483	441	-27.3	-28.3	248	30
2023-08-09T06:00	6513	439	-27.6	-28.4	249	30
2023-08-09T06:00	6547	437	-27.9	-28.8	249	30
2023-08-09T06:00	6576	435	-28.2	-29.8	250	30
2023-08-09T06:00	6601	434	-28.4	-29.9	250	29
2023-08-09T06:00	6631	432	-28.6	-30.2	250	29
2023-08-09T06:00	6653	431	-28.8	-30.1	250	29
2023-08-09T06:00	6681	429	-29.1	-30.8	250	29
2023-08-09T06:00	6708	427	-29.3	-31.2	250	29
2023-08-09T06:00	6732	426	-29.4	-31.0	249	29
2023-08-09T06:00	6761	424	-29.7	-31.6	249	29
2023-08-09T06:00	6785	423	-29.9	-31.9	249	29
2023-08-09T06:00	6813	421	-30.1	-32.3	248	29
2023-08-09T06:00	6842	419	-30.3	-32.7	247	29
2023-08-09T06:00	6865	418	-30.5	-32.8	246	29
2023-08-09T06:00	6896	416	-30.7	-33.1	246	29
2023-08-09T06:00	6927	414	-31.0	-33.1	246	29
2023-08-09T06:00	6957	413	-31.2	-33.1	246	28
2023-08-09T06:00	6986	411	-31.5	-33.2	246	28
2023-08-09T06:00	7014	409	-31.7	-33.8	246	28
2023-08-09T06:00	7040	408	-31.9	-34.0	247	27
2023-08-09T06:00	7066	406	-32.2	-34.4	248	28
2023-08-09T06:00	7092	405	-32.3	-34.2	249	28
2023-08-09T06:00	7124	403	-32.6	-34.7	249	28
2023-08-09T06:00	7157	401	-32.9	-34.7	250	28
2023-08-09T06:00	7189	399	-33.2	-35.0	250	29
2023-08-09T06:00	7218	398	-33.5	-35.4	250	29
2023-08-09T06:00	7246	396	-33.7	-35.5	249	29
2023-08-09T06:00	7270	395	-33.9	-35.8	249	29
2023-08-09T06:00	7300	393	-34.2	-36.3	249	29
2023-08-09T06:00	7334	391	-34.5	-36.7	249	29
2023-08-09T06:00	7366	389	-34.8	-37.4	249	29
2023-08-09T06:00	7397	388	-35.2	-37.9	249	29
2023-08-09T06:00	7424	386	-35.5	-38.5	249	29
2023-08-09T06:00	7451	385	-35.7	-38.7	249	29
2023-08-09T06:00	7478	383	-36.0	-39.2	249	29
2023-08-09T06:00	7506	381	-36.2	-39.4	249	29
2023-08-09T06:00	7533	380	-36.4	-39.5	249	29
2023-08-09T06:00	7563	378	-36.6	-40.8	249	29
2023-08-09T06:00	7589	377	-36.8	-41.3	250	30
2023-08-09T06:00	7611	376	-37.0	-41.0	251	30
2023-08-09T06:00	7635	375	-37.2	-41.0	251	31
2023-08-09T06:00	7656	373	-37.4	-41.2	252	31
2023-08-09T06:00	7681	372	-37.6	-42.1	252	31
2023-08-09T06:00	7701	371	-37.8	-42.1	252	31
2023-08-09T06:00	7733	369	-38.1	-42.4	251	31
2023-08-09T06:00	7756	368	-38.3	-43.1	251	31
2023-08-09T06:00	7778	367	-38.5	-43.3	250	30
2023-08-09T06:00	7806	365	-38.7	-42.9	250	29
2023-08-09T06:00	7836	364	-38.9	-43.0	251	29
2023-08-09T06:00	7865	362	-39.1	-43.1	252	28
2023-08-09T06:00	7896	361	-39.2	-44.2	254	27
2023-08-09T06:00	7927	359	-39.0	-46.1	257	27
2023-08-09T06:00	7952	358	-39.0	-46.4	259	27
2023-08-09T06:00	7984	356	-39.3	-46.0	260	26
2023-08-09T06:00	8018	354	-39.4	-47.4	262	26
2023-08-09T06:00	8047	353	-39.5	-48.1	263	26
2023-08-09T06:00	8075	351	-39.7	-48.2	265	25
2023-08-09T06:00	8110	350	-39.9	-48.8	267	25
2023-08-09T06:00	8141	348	-40.1	-49.6	269	25
2023-08-09T06:00	8171	346	-40.2	-50.1	271	25
2023-08-09T06:00	8192	345	-40.3	-50.3	273	25
2023-08-09T06:00	8220	344	-40.4	-51.0	275	25
2023-08-09T06:00	8249	342	-40.6	-52.0	276	25
2023-08-09T06:00	8278	341	-40.7	-52.5	276	25
2023-08-09T06:00	8302	340	-40.9	-53.0	276	25
2023-08-09T06:00	8329	338	-41.1	-53.3	276	24
2023-08-09T06:00	8355	337	-41.1	-53.8	275	24
2023-08-09T06:00	8382	336	-41.2	-53.4	275	23
2023-08-09T06:00	8404	335	-41.3	-52.7	275	23
2023-08-09T06:00	8428	333	-41.5	-52.4	276	23
2023-08-09T06:00	8457	332	-41.6	-52.3	278	23
2023-08-09T06:00	8482	331	-41.6	-53.8	279	23
2023-08-09T06:00	8506	330	-41.5	-55.2	279	23
2023-08-09T06:00	8532	328	-41.6	-56.4	280	22
2023-08-09T06:00	8560	327	-41.6	-57.8	280	22
2023-08-09T06:00	8584	326	-41.7		281	21
2023-08-09T06:00	8608	325	-41.8	-59.2	282	21
2023-08-09T06:00	8636	323	-41.9	-60.6	284	20
2023-08-09T06:00	8657	322	-42.0	-60.9	285	20
2023-08-09T06:00	8677	321	-42.1	-61.6	286	19
2023-08-09T06:00	8698	320	-42.2	-62.0	286	19
2023-08-09T06:00	8717	320	-42.3	-61.9	285	19
2023-08-09T06:00	8738	319	-42.3	-62.0	284	19
2023-08-09T06:00	8756	318	-42.3	-61.9	283	19
2023-08-09T06:00	8776	317	-42.4	-61.9	283	19
2023-08-09T06:00	8797	316	-42.5	-62.0	282	19
2023-08-09T06:00	8816	315	-42.5	-62.0	282	19
2023-08-09T06:00	8836	314	-42.6	-62.2	282	19
2023-08-09T06:00	8857	313	-42.6	-62.4	283	19
2023-08-09T06:00	8876	312	-42.7	-62.6	283	18
2023-08-09T06:00	8896	311	-42.8	-62.7	284	18
2023-08-09T06:00	8915	310	-42.6	-63.1	284	18
2023-08-09T06:00	8938	309	-42.5	-63.4	283	18
2023-08-09T06:00	8962	308	-42.5	-63.7	282	18
2023-08-09T06:00	8985	307	-42.3	-64.2	281	18
2023-08-09T06:00	9007	306	-42.4	-64.3	280	18
2023-08-09T06:00	9027	305	-42.6	-64.5	279	18
2023-08-09T06:00	9048	304	-42.7	-64.6	280	18
2023-08-09T06:00	9068	303	-42.8	-64.7	280	18
2023-08-09T06:00	9091	302	-42.9	-64.6	281	18
2023-08-09T06:00	9114	301	-43.0	-64.7	282	19
2023-08-09T06:00	9133	300	-43.1	-64.9	282	19
2023-08-09T06:00	9156	299	-43.3	-65.2	282	19
2023-08-09T06:00	9179	298	-43.4	-65.3	281	19
2023-08-09T06:00	9202	297	-43.5	-65.2	281	19
2023-08-09T06:00	9224	296	-43.6	-65.4	281	19
2023-08-09T06:00	9247	295	-43.7	-65.6	282	19
2023-08-09T06:00	9271	294	-43.7	-66.0	283	19
2023-08-09T06:00	9298	293	-43.6	-65.9	284	19
2023-08-09T06:00	9323	292	-43.7	-66.0	284	20
2023-08-09T06:00	9348	291	-43.9	-66.2	283	20
2023-08-09T06:00	9370	290	-44.1	-66.2	283	20
2023-08-09T06:00	9391	289	-43.9	-66.3	282	20
2023-08-09T06:00	9415	288	-43.8	-66.5	281	20
2023-08-09T06:00	9439	287	-43.9	-66.5	280	20
2023-08-09T06:00	9460	286	-44.0	-66.6	280	19
2023-08-09T06:00	9480	285	-44.2	-66.8	279	19
2023-08-09T06:00	9500	284	-44.3	-66.7	279	18
2023-08-09T06:00	9521	284	-44.4	-66.7	279	18
2023-08-09T06:00	9542	283	-44.4	-67.1	280	18
2023-08-09T06:00	9562	282	-44.2	-67.3	281	18
2023-08-09T06:00	9584	281	-44.2	-67.1	281	17
2023-08-09T06:00	9605	280	-44.3	-66.9	281	17
2023-08-09T06:00	9625	279	-44.2	-66.8	281	17
2023-08-09T06:00	9646	278	-44.2	-67.2	281	17
2023-08-09T06:00	9666	278	-44.0	-67.6	280	16
2023-08-09T06:00	9688	277	-44.1	-67.8	280	16
2023-08-09T06:00	9707	276	-44.0	-67.9	280	16
2023-08-09T06:00	9728	275	-44.0	-68.2	281	16
2023-08-09T06:00	9751	274	-44.0	-68.4	282	16
2023-08-09T06:00	9771	273	-44.1	-68.5	282	16
2023-08-09T06:00	9790	272	-44.3	-68.6	282	16
2023-08-09T06:00	9812	272	-44.4	-68.7	282	16
2023-08-09T06:00	9830	271	-44.5	-68.8	281	16
2023-08-09T06:00	9852	270	-44.7	-68.9	280	16
2023-08-09T06:00	9871	269	-44.7	-69.1	278	16
2023-08-09T06:00	9892	268	-44.5	-69.3	277	16
2023-08-09T06:00	9914	267	-44.4	-69.4	275	16
2023-08-09T06:00	9936	267	-44.2	-69.6	274	16
2023-08-09T06:00	9958	266	-44.4	-69.6	274	16
2023-08-09T06:00	9979	265	-44.6	-69.7	276	16
2023-08-09T06:00	9998	264	-44.5	-69.7	278	16
2023-08-09T06:00	10021	263	-44.4	-69.4	281	16
2023-08-09T06:00	10043	262	-44.3	-68.0	284	17
2023-08-09T06:00	10067	261	-44.0	-66.1	286	17
2023-08-09T06:00	10088	261	-44.0	-66.4	287	18
2023-08-09T06:00	10107	260	-44.1	-66.8	286	17
2023-08-09T06:00	10128	259	-44.0	-67.2	286	17
2023-08-09T06:00	10146	258	-43.7	-67.5	285	17
2023-08-09T06:00	10164	258	-43.8	-67.9	284	17
2023-08-09T06:00	10184	257	-43.7	-67.8	283	16
2023-08-09T06:00	10203	256	-43.5	-68.2	282	16
2023-08-09T06:00	10223	255	-43.3	-70.0	282	16
2023-08-09T06:00	10242	255	-42.8	-71.9	281	16
2023-08-09T06:00	10261	254	-42.8	-71.9	281	16
2023-08-09T06:00	10283	253	-42.8	-71.9	281	16
2023-08-09T06:00	10302	252	-42.6	-72.4	281	15
2023-08-09T06:00	10322	252	-42.5	-72.4	281	15
2023-08-09T06:00	10342	251	-42.7	-72.5	282	15
2023-08-09T06:00	10363	250	-42.6	-72.4	283	15
2023-08-09T06:00	10384	249	-42.7	-72.5	283	16
2023-08-09T06:00	10405	249	-42.7	-72.9	284	16
2023-08-09T06:00	10428	248	-42.6	-72.8	285	15
2023-08-09T06:00	10448	247	-42.6	-72.8	286	15
2023-08-09T06:00	10470	246	-42.8	-73.0	287	15
2023-08-09T06:00	10493	245	-42.9	-73.0	288	15
2023-08-09T06:00	10513	245	-43.0	-73.1	289	14
2023-08-09T06:00	10537	244	-43.1	-73.2	291	14
2023-08-09T06:00	10558	243	-43.0	-73.1	293	14
2023-08-09T06:00	10577	242	-42.6	-72.8	294	14
2023-08-09T06:00	10600	242	-42.5	-72.7	295	14
2023-08-09T06:00	10623	241	-42.5	-72.7	296	14
2023-08-09T06:00	10644	240	-42.7	-72.9	296	14
2023-08-09T06:00	10666	239	-42.6	-73.2	296	14
2023-08-09T06:00	10688	238	-42.3	-72.9	296	14
2023-08-09T06:00	10711	238	-42.3	-73.3	295	14
2023-08-09T06:00	10734	237	-42.4	-73.4	294	14
2023-08-09T06:00	10755	236	-42.5	-73.5	293	14
2023-08-09T06:00	10779	235	-42.5	-73.9	292	14
2023-08-09T06:00	10802	234	-42.6	-74.0	291	14
2023-08-09T06:00	10824	234	-42.6	-74.0	289	13
2023-08-09T06:00	10846	233	-42.8	-74.1	288	13
2023-08-09T06:00	10868	232	-42.8	-74.1	288	13
2023-08-09T06:00	10890	231	-42.6	-74.0	288	12
2023-08-09T06:00	10911	231	-42.6	-74.4	288	12
2023-08-09T06:00	10933	230	-42.4	-74.3	289	12
2023-08-09T06:00	10953	229	-42.4	-74.3	290	12
2023-08-09T06:00	10974	229	-42.4	-74.3	291	12
2023-08-09T06:00	10995	228	-42.5	-74.4	292	12
2023-08-09T06:00	11017	227	-42.6	-74.4	294	12
2023-08-09T06:00	11038	226	-42.5	-74.4	295	12
2023-08-09T06:00	11060	226	-42.5	-74.4	295	12
2023-08-09T06:00	11081	225	-42.6	-74.4	295	12
2023-08-09T06:00	11102	224	-42.6	-74.4	295	12
2023-08-09T06:00	11123	224	-42.7	-74.5	294	12
2023-08-09T06:00	11144	223	-42.6	-74.9	294	12
2023-08-09T06:00	11165	222	-42.6	-74.9	294	12
2023-08-09T06:00	11186	221	-42.7	-75.0	294	12
2023-08-09T06:00	11205	221	-42.5	-74.8	294	12
2023-08-09T06:00	11225	220	-42.4	-74.8	294	12
2023-08-09T06:00	11245	220	-42.2	-74.6	294	12
2023-08-09T06:00	11266	219	-42.3	-74.7	294	12
2023-08-09T06:00	11284	218	-42.5	-74.8	294	12
2023-08-09T06:00	11306	218	-42.6	-74.9	294	12
2023-08-09T06:00	11324	217	-42.6	-74.9	295	12
2023-08-09T06:00	11342	216	-42.6	-74.9	294	12
2023-08-09T06:00	11360	216	-42.6	-74.9	294	12
2023-08-09T06:00	11380	215	-42.7	-75.0	293	12
2023-08-09T06:00	11399	215	-42.4	-75.3	292	12
2023-08-09T06:00	11416	214	-42.4	-75.3	292	13
2023-08-09T06:00	11437	213	-42.3	-75.2	292	13
2023-08-09T06:00	11455	213	-42.4	-75.3	292	13
2023-08-09T06:00	11474	212	-42.5	-74.8	293	14
2023-08-09T06:00	11494	212	-42.7	-75.0	294	14
2023-08-09T06:00	11512	211	-42.7	-75.0	294	15
2023-08-09T06:00	11532	210	-42.6	-74.9	295	15
2023-08-09T06:00	11550	210	-42.6	-75.4	295	16
2023-08-09T06:00	11567	209	-42.7	-75.5	295	16
2023-08-09T06:00	11586	209	-42.7	-75.5	294	16
2023-08-09T06:00	11606	208	-42.7	-75.5	294	15
2023-08-09T06:00	11626	207	-42.5	-75.3	293	15
2023-08-09T06:00	11645	207	-42.4	-75.8	293	14
2023-08-09T06:00	11664	206	-42.4	-75.8	292	14
2023-08-09T06:00	11682	206	-42.4	-75.8	292	14
2023-08-09T06:00	11703	205	-42.5	-75.3	291	13
2023-08-09T06:00	11721	205	-42.6	-75.4	290	14
2023-08-09T06:00	11741	204	-42.6	-76.0	289	14
2023-08-09T06:00	11760	203	-42.6	-76.0	288	14
2023-08-09T06:00	11780	203	-42.6	-76.0	288	15
2023-08-09T06:00	11801	202	-42.5	-75.9	289	15
2023-08-09T06:00	11823	202	-42.7	-76.0	291	15
2023-08-09T06:00	11843	201	-42.7	-76.0	293	15
2023-08-09T06:00	11863	200	-42.7	-76.0	296	15
2023-08-09T06:00	11884	200	-42.5	-75.9	299	15
2023-08-09T06:00	11903	199	-42.4	-75.8	301	15
2023-08-09T06:00	11924	198	-42.5	-75.9	303	15
2023-08-09T06:00	11946	198	-42.4	-76.4	305	14
2023-08-09T06:00	11967	197	-42.3	-76.4	306	14
2023-08-09T06:00	11985	197	-42.3	-76.4	307	13
2023-08-09T06:00	12008	196	-42.3	-76.4	307	13
2023-08-09T06:00	12027	195	-42.2	-76.3	307	13
2023-08-09T06:00	12050	195	-42.1	-76.2	308	13
2023-08-09T06:00	12070	194	-42.2	-76.3	308	12
2023-08-09T06:00	12091	194	-42.2	-76.3	308	12
2023-08-09T06:00	12113	193	-42.2	-76.3	308	13
2023-08-09T06:00	12135	192	-42.2	-76.3	308	13
2023-08-09T06:00	12156	192	-42.2	-76.3	308	13
2023-08-09T06:00	12180	191	-42.3	-76.4	308	14
2023-08-09T06:00	12201	191	-42.4	-76.4	308	14
2023-08-09T06:00	12223	190	-42.5	-76.5	309	15
2023-08-09T06:00	12244	189	-42.4	-76.4	309	15
2023-08-09T06:00	12265	189	-42.3	-76.4	309	15
2023-08-09T06:00	12287	188	-42.3	-76.4	310	15
2023-08-09T06:00	12309	188	-42.4	-76.4	310	15
2023-08-09T06:00	12330	187	-42.4	-76.4	309	14
2023-08-09T06:00	12351	186	-42.4	-76.4	308	14
2023-08-09T06:00	12372	186	-42.3	-76.4	307	14
2023-08-09T06:00	12396	185	-42.4	-76.4	306	14
2023-08-09T06:00	12413	185	-42.3	-76.4	305	14
2023-08-09T06:00	12434	184	-42.4	-76.4	305	14
2023-08-09T06:00	12454	184	-42.7	-76.6	306	14
2023-08-09T06:00	12477	183	-42.6	-76.6	307	13
2023-08-09T06:00	12500	182	-42.3	-77.0	310	13
2023-08-09T06:00	12522	182	-42.3	-77.0	313	13
2023-08-09T06:00	12543	181	-42.4	-77.1	316	12
2023-08-09T06:00	12564	181	-42.3	-77.0	318	12
2023-08-09T06:00	12585	180	-42.2	-76.9	320	11
2023-08-09T06:00	12605	179	-42.0	-76.8	320	11
2023-08-09T06:00	12626	179	-42.0	-76.8	320	11
2023-08-09T06:00	12647	178	-42.1	-76.9	319	11
2023-08-09T06:00	12668	178	-42.2	-76.9	318	10
2023-08-09T06:00	12689	177	-42.2	-76.9	316	11
2023-08-09T06:00	12711	177	-42.3	-77.0	315	11
2023-08-09T06:00	12733	176	-42.4	-77.1	314	11
2023-08-09T06:00	12754	176	-42.3	-77.0	314	11
2023-08-09T06:00	12774	175	-42.3	-77.0	314	11
2023-08-09T06:00	12797	174	-42.2	-76.9	314	11
2023-08-09T06:00	12818	174	-42.2	-76.9	314	10
2023-08-09T06:00	12840	173	-42.2	-76.9	315	10
2023-08-09T06:00	12867	173	-42.2	-76.9	315	9
2023-08-09T06:00	12893	172	-42.3	-77.0	316	8
2023-08-09T06:00	12918	171	-42.2	-76.9	317	7
2023-08-09T06:00	12947	171	-42.3	-77.0	318	6
2023-08-09T06:00	12969	170	-42.4	-77.1	319	6
2023-08-09T06:00	12998	169	-42.6	-77.2	319	5
2023-08-09T06:00	13022	169	-42.8	-77.4	318	5
2023-08-09T06:00	13041	168	-43.0	-77.5	315	5
2023-08-09T06:00	13063	168	-43.1	-77.6	311	5
2023-08-09T06:00	13083	167	-43.2	-77.7	308	5
2023-08-09T06:00	13103	167	-43.2	-77.7	304	6
2023-08-09T06:00	13124	166	-43.2	-77.7	302	6
2023-08-09T06:00	13145	166	-43.2	-77.7	301	6
2023-08-09T06:00	13166	165	-43.3	-77.7	301	6
2023-08-09T06:00	13188	165	-43.4	-77.8	302	7
2023-08-09T06:00	13207	164	-43.4	-77.8	304	7
2023-08-09T06:00	13232	164	-43.6	-78.0	306	7
2023-08-09T06:00	13252	163	-43.7	-78.0	307	7
2023-08-09T06:00	13275	163	-43.8	-78.1	308	8
2023-08-09T06:00	13292	162	-44.0	-77.6	309	8
2023-08-09T06:00	13311	162	-44.1	-77.7	310	8
2023-08-09T06:00	13331	161	-44.2	-77.7	311	8
2023-08-09T06:00	13352	161	-44.3	-77.8	312	8
2023-08-09T06:00	13372	160	-44.4	-77.9	315	8
2023-08-09T06:00	13394	160	-44.4	-77.9	317	8
2023-08-09T06:00	13413	159	-44.3	-78.5	320	8
2023-08-09T06:00	13433	159	-44.3	-78.5	322	8
2023-08-09T06:00	13453	158	-44.3	-78.5	323	8
2023-08-09T06:00	13474	158	-44.3	-78.5	322	8
2023-08-09T06:00	13493	157	-44.3	-78.5	321	8
2023-08-09T06:00	13513	157	-44.3	-78.5	318	7
2023-08-09T06:00	13533	156	-44.4	-78.5	314	7
2023-08-09T06:00	13552	156	-44.4	-78.5	309	7
2023-08-09T06:00	13569	155	-44.3	-78.5	305	7
2023-08-09T06:00	13591	155	-44.4	-78.5	302	7
2023-08-09T06:00	13612	155	-44.5	-78.6	301	7
2023-08-09T06:00	13631	154	-44.6	-78.7	302	7
2023-08-09T06:00	13652	154	-44.5	-78.6	305	7
2023-08-09T06:00	13670	153	-44.3	-78.5	308	8
2023-08-09T06:00	13691	153	-44.2	-78.4	310	8
2023-08-09T06:00	13712	152	-44.2	-78.4	312	8
2023-08-09T06:00	13731	152	-44.1	-78.3	313	8
2023-08-09T06:00	13753	151	-44.0	-79.0	314	8
2023-08-09T06:00	13773	151	-43.9	-78.9	315	7
2023-08-09T06:00	13795	150	-43.8	-78.8	316	7
2023-08-09T06:00	13816	150	-43.7	-78.8	317	7
2023-08-09T06:00	13837	149	-43.8	-78.8	318	6
2023-08-09T06:00	13860	149	-43.9	-78.2	319	6
2023-08-09T06:00	13880	149	-44.0	-78.2	319	5
2023-08-09T06:00	13901	148	-44.0	-78.2	319	5
2023-08-09T06:00	13926	147	-44.1	-78.3	319	5
2023-08-09T06:00	13949	147	-44.1	-78.3	318	4
2023-08-09T06:00	13971	146	-44.2	-78.4	317	4
2023-08-09T06:00	13993	146	-44.4	-78.5	317	5
2023-08-09T06:00	14016	146	-44.5	-78.6	316	5
2023-08-09T06:00	14036	145	-44.5	-78.6	316	5
2023-08-09T06:00	14058	145	-44.4	-78.5	317	6
2023-08-09T06:00	14079	144	-44.5	-78.6	317	6
2023-08-09T06:00	14101	144	-44.5	-78.6	317	6
2023-08-09T06:00	14121	143	-44.7	-78.8	318	6
2023-08-09T06:00	14144	143	-44.9	-78.9	321	7
2023-08-09T06:00	14167	142	-45.0	-79.0	324	7
2023-08-09T06:00	14187	142	-45.1	-79.0	327	7
2023-08-09T06:00	14209	141	-45.1	-79.0	329	7
2023-08-09T06:00	14232	141	-45.1	-79.0	330	7
2023-08-09T06:00	14253	140	-45.0	-79.0	329	6
2023-08-09T06:00	14276	140	-45.1	-79.0	328	6
2023-08-09T06:00	14298	140	-45.1	-79.0	327	6
2023-08-09T06:00	14322	139	-45.2	-79.1	329	6
2023-08-09T06:00	14345	139	-45.0	-79.0	332	5
2023-08-09T06:00	14367	138	-44.6	-79.4	335	5
2023-08-09T06:00	14389	138	-44.2	-79.1	339	5
2023-08-09T06:00	14412	137	-43.9	-78.9	340	4
2023-08-09T06:00	14434	137	-44.0	-79.0	339	4
2023-08-09T06:00	14457	136	-44.2	-79.1	337	4
2023-08-09T06:00	14482	136	-44.3	-78.5	333	4
2023-08-09T06:00	14504	135	-44.4	-78.5	327	4
2023-08-09T06:00	14527	135	-44.7	-78.8	321	3
2023-08-09T06:00	14550	134	-44.8	-78.8	313	4
2023-08-09T06:00	14573	134	-45.0	-79.0	305	4
2023-08-09T06:00	14594	133	-45.0	-79.0	299	4
2023-08-09T06:00	14618	133	-45.0	-79.0	293	4
2023-08-09T06:00	14640	133	-45.1	-79.0	290	4
2023-08-09T06:00	14661	132	-45.2	-79.1	288	3
2023-08-09T06:00	14682	132	-45.2	-79.1	288	3
2023-08-09T06:00	14705	131	-45.3	-79.2	291	2
2023-08-09T06:00	14727	131	-45.2	-79.1	296	2
2023-08-09T06:00	14748	130	-45.2	-79.1	302	2
2023-08-09T06:00	14768	130	-45.4	-79.3	309	2
2023-08-09T06:00	14791	130	-45.5	-79.3	314	2
2023-08-09T06:00	14813	129	-45.4	-79.3	317	2
2023-08-09T06:00	14833	129	-45.4	-79.3	320	2
2023-08-09T06:00	14854	128	-45.4	-79.3	321	2
2023-08-09T06:00	14874	128	-45.6		322	2
2023-08-09T06:00	14893	128	-45.7	-79.5	322	2
2023-08-09T06:00	14915	127	-45.9	-79.6	320	2
2023-08-09T06:00	14936	127	-46.0	-79.7	315	2
2023-08-09T06:00	14960	126	-46.1	-79.8	307	2
2023-08-09T06:00	14980	126	-46.2	-79.8	301	2
2023-08-09T06:00	15000	126	-46.2	-79.8	297	2
2023-08-09T06:00	15021	125	-46.3	-79.9	296	3
2023-08-09T06:00	15041	125	-46.4	-80.0	296	4
2023-08-09T06:00	15064	124	-46.4	-80.0	298	4
2023-08-09T06:00	15088	124	-46.3	-79.9	300	5
2023-08-09T06:00	15108	124	-46.1	-79.8	303	5
2023-08-09T06:00	15129	123	-46.1	-79.8	306	5
2023-08-09T06:00	15152	123	-46.0	-79.7	308	6
2023-08-09T06:00	15175	122	-46.2	-79.8	310	6
2023-08-09T06:00	15197	122	-46.2	-79.8	311	6
2023-08-09T06:00	15218	122	-46.1	-79.8	312	6
2023-08-09T06:00	15240	121	-46.1	-79.8	313	6
2023-08-09T06:00	15262	121	-46.1	-79.8	315	6
2023-08-09T06:00	15287	120	-46.2	-79.8	316	6
2023-08-09T06:00	15309	120	-46.2	-79.8	317	6
2023-08-09T06:00	15332	119	-46.3	-79.9	316	6
2023-08-09T06:00	15357	119	-46.4	-80.0	315	6
2023-08-09T06:00	15380	119	-46.4	-80.0	313	6
2023-08-09T06:00	15398	118	-46.5	-80.1	312	6
2023-08-09T06:00	15422	118	-46.3	-79.9	313	5
2023-08-09T06:00	15446	117	-46.2	-79.8	316	5
2023-08-09T06:00	15468	117	-46.0	-79.7	320	5
2023-08-09T06:00	15490	117	-46.0	-79.7	325	5
2023-08-09T06:00	15514	116	-46.1	-79.8	329	5
2023-08-09T06:00	15536	116	-46.3	-79.9	332	5
2023-08-09T06:00	15560	115	-46.2	-79.8	333	5
2023-08-09T06:00	15583	115	-46.0	-79.7	333	5
2023-08-09T06:00	15606	115	-46.2	-79.8	333	5
2023-08-09T06:00	15627	114	-46.2	-79.8	332	6
2023-08-09T06:00	15649	114	-46.3	-79.9	331	6
2023-08-09T06:00	15670	114	-46.5	-80.1	331	6
2023-08-09T06:00	15692	113	-46.7	-80.2	330	6
2023-08-09T06:00	15716	113	-46.8	-80.3	330	6
2023-08-09T06:00	15740	112	-47.0	-80.4	332	6
2023-08-09T06:00	15761	112	-47.1	-80.5	334	6
2023-08-09T06:00	15784	112	-47.3	-80.6	338	5
2023-08-09T06:00	15809	111	-47.4	-80.7	342	5
2023-08-09T06:00	15832	111	-47.5	-80.8	346	4
2023-08-09T06:00	15856	110	-47.5	-80.2	350	4
2023-08-09T06:00	15878	110	-47.8	-80.4	354	4
2023-08-09T06:00	15902	110	-48.0	-80.5	358	4
2023-08-09T06:00	15926	109	-48.1	-80.6	3	4
2023-08-09T06:00	15947	109	-48.2	-80.7	8	4
2023-08-09T06:00	15971	109	-48.3	-80.7	14	4
2023-08-09T06:00	15992	108	-48.5	-80.9	22	3
2023-08-09T06:00	16016	108	-48.6	-81.0	32	3
2023-08-09T06:00	16038	107	-48.6	-81.0	44	2
2023-08-09T06:00	16063	107	-48.6	-81.0	57	2
2023-08-09T06:00	16086	107	-48.6	-81.0	68	2
2023-08-09T06:00	16108	106	-48.5	-80.9	73	2
2023-08-09T06:00	16129	106	-48.7	-81.0	72	2
2023-08-09T06:00	16151	106	-48.7	-81.0	67	2
2023-08-09T06:00	16173	105	-48.8		60	2
2023-08-09T06:00	16194	105	-48.9	-81.2	53	2
2023-08-09T06:00	16218	104	-48.9	-81.2	45	2
2023-08-09T06:00	16242	104	-48.9	-81.2	35	2
2023-08-09T06:00	16264	104	-48.9	-81.2	23	2
2023-08-09T06:00	16288	103	-48.9	-81.2	11	2
2023-08-09T06:00	16308	103	-48.9	-81.2	357	2
2023-08-09T06:00	16332	103	-48.9	-81.2	343	2
2023-08-09T06:00	16355	102	-49.0	-81.3	328	2
2023-08-09T06:00	16376	102	-49.1	-81.3	314	2
2023-08-09T06:00	16395	102	-49.2	-81.4	299	2
2023-08-09T06:00	16419	101	-49.0	-81.3	285	2
2023-08-09T06:00	16441	101	-48.9	-81.2	272	2
2023-08-09T06:00	16461	101	-49.0	-81.3	263	3
2023-08-09T06:00	16484	100	-49.1	-81.3	258	3
2023-08-09T06:00	16504	100	-49.0	-81.3	257	3
2023-08-09T06:00	16526	100	-49.1	-82.0	259	3
2023-08-09T06:00	16547	99	-49.0	-81.9	262	3
2023-08-09T06:00	16568	99	-48.7	-81.7	268	4
2023-08-09T06:00	16589	99	-48.8	-81.7	275	3
2023-08-09T06:00	16611	98	-48.8	-81.7	283	3
2023-08-09T06:00	16633	98	-48.6	-81.6	293	4
2023-08-09T06:00	16653	98	-48.3	-81.4	302	4
2023-08-09T06:00	16679	97	-48.3	-81.4	310	4
2023-08-09T06:00	16700	97	-48.2	-81.3	316	4
2023-08-09T06:00	16722	97	-48.3	-81.4	322	4
2023-08-09T06:00	16743	96	-48.2	-81.3	327	5
2023-08-09T06:00	16763	96	-48.2	-81.3	331	5
2023-08-09T06:00	16787	96	-48.4	-81.4	336	5
2023-08-09T06:00	16809	95	-48.5	-81.5	341	5
2023-08-09T06:00	16833	95	-48.7	-81.7	346	5
2023-08-09T06:00	16854	95	-48.9	-81.2	350	6
2023-08-09T06:00	16875	95	-48.9	-81.2	355	6
2023-08-09T06:00	16899	94	-49.0	-81.3	358	6
2023-08-09T06:00	16922	94	-49.0	-81.3	2	6
2023-08-09T06:00	16946	94	-49.0	-81.3	5	5
2023-08-09T06:00	16966	93	-49.1	-81.3	9	5
2023-08-09T06:00	16992	93	-49.2	-81.4	13	5
2023-08-09T06:00	17015	93	-49.3	-81.5	17	4
2023-08-09T06:00	17039	92	-49.4	-81.6	22	4
2023-08-09T06:00	17065	92	-49.5	-81.6	30	3
2023-08-09T06:00	17084	92	-49.6	-81.7	41	3
2023-08-09T06:00	17110	91	-49.7	-81.8	54	3
2023-08-09T06:00	17130	91	-49.8	-81.8	68	3
2023-08-09T06:00	17156	91	-49.9	-81.9	79	3
2023-08-09T06:00	17180	90	-50.0	-82.0	88	3
2023-08-09T06:00	17204	90	-50.3	-82.2	96	3
2023-08-09T06:00	17227	90	-50.4	-82.3	104	3
2023-08-09T06:00	17253	89	-50.4	-82.3	113	3
2023-08-09T06:00	17276	89	-50.4	-82.3	123	3
2023-08-09T06:00	17296	89	-50.3	-82.2	132	3
2023-08-09T06:00	17321	88	-50.2	-82.1	142	3
2023-08-09T06:00	17345	88	-50.3	-82.2	150	2
2023-08-09T06:00	17368	88	-50.3	-82.2	158	2
2023-08-09T06:00	17390	87	-50.4	-82.3	166	2
2023-08-09T06:00	17411	87	-50.5		179	2
2023-08-09T06:00	17434	87	-50.7	-82.5	195	2
2023-08-09T06:00	17457	86	-50.8	-82.6	212	2
2023-08-09T06:00	17480	86	-50.9	-82.7	225	2
2023-08-09T06:00	17505	86	-50.9	-82.7	231	2
2023-08-09T06:00	17527	86	-51.0	-82.7	235	1
2023-08-09T06:00	17550	85	-51.1	-82.8	239	1
2023-08-09T06:00	17571	85	-51.2	-82.9	262	0
2023-08-09T06:00	17597	85	-51.0	-82.7	3	0
2023-08-09T06:00	17616	84	-50.5		11	1
2023-08-09T06:00	17640	84	-50.5		0	1
2023-08-09T06:00	17666	84	-50.3	-82.8	345	2
2023-08-09T06:00	17689	83	-50.2	-82.8	332	2
2023-08-09T06:00	17712	83	-50.4	-82.9	324	3
2023-08-09T06:00	17733	83	-50.1	-82.7	322	3
2023-08-09T06:00	17757	83	-49.8	-82.5	324	3
2023-08-09T06:00	17779	82	-49.8	-82.5	329	4
2023-08-09T06:00	17806	82	-49.9	-82.5	336	4
2023-08-09T06:00	17827	82	-50.0	-82.6	343	4
2023-08-09T06:00	17854	81	-50.0	-82.0	351	4
2023-08-09T06:00	17880	81	-50.2	-82.1	359	5
2023-08-09T06:00	17904	81	-50.4	-82.3	6	5
2023-08-09T06:00	17923	80	-50.5		12	6
2023-08-09T06:00	17949	80	-50.5		17	6
2023-08-09T06:00	17971	80	-50.7	-82.5	21	7
2023-08-09T06:00	17999	80	-50.5		24	7
2023-08-09T06:00	18019	79	-50.4	-82.3	27	7
2023-08-09T06:00	18041	79	-50.6	-82.4	29	7
2023-08-09T06:00	18065	79	-50.8	-82.6	31	7
2023-08-09T06:00	18089	79	-51.0	-82.7	33	7
2023-08-09T06:00	18113	78	-51.1	-82.8	35	6
2023-08-09T06:00	18136	78	-51.3	-82.4	37	6
2023-08-09T06:00	18162	78	-51.3	-82.4	39	5
2023-08-09T06:00	18189	77	-51.5	-82.5	41	5
2023-08-09T06:00	18209	77	-51.6	-82.6	42	4
2023-08-09T06:00	18234	77	-51.7	-82.7	43	4
2023-08-09T06:00	18259	76	-51.7	-82.7	42	4
2023-08-09T06:00	18282	76	-51.8	-83.3	41	4
2023-08-09T06:00	18308	76	-51.6	-83.2	41	3
2023-08-09T06:00	18330	76	-51.4	-83.0	42	3
2023-08-09T06:00	18356	75	-51.3	-82.9	45	3
2023-08-09T06:00	18382	75	-51.2	-82.9	48	4
2023-08-09T06:00	18403	75	-51.2	-82.9	52	4
2023-08-09T06:00	18427	75	-51.2	-82.9	54	4
2023-08-09T06:00	18452	74	-51.3	-82.9	55	4
2023-08-09T06:00	18476	74	-51.4	-83.0	55	4
2023-08-09T06:00	18501	74	-51.5	-83.1	54	3
2023-08-09T06:00	18524	73	-51.6	-83.2	52	3
2023-08-09T06:00	18545	73	-51.8	-83.3	48	3
2023-08-09T06:00	18570	73	-51.9	-82.8	44	3
2023-08-09T06:00	18593	73	-52.0	-82.9	37	2
2023-08-09T06:00	18616	72	-52.0	-82.9	29	2
2023-08-09T06:00	18639	72	-52.0	-82.9	19	2
2023-08-09T06:00	18661	72	-52.0	-82.9	9	2
2023-08-09T06:00	18684	72	-52.1	-83.5	1	2
2023-08-09T06:00	18707	71	-52.1	-83.5	354	2
2023-08-09T06:00	18726	71	-52.2	-83.6	350	3
2023-08-09T06:00	18752	71	-52.1	-83.5	347	3
2023-08-09T06:00	18776	71	-52.0	-83.5	346	3
2023-08-09T06:00	18797	70	-51.8	-83.3	345	4
2023-08-09T06:00	18822	70	-51.9	-83.4	346	4
2023-08-09T06:00	18845	70	-52.0	-83.5	349	4
2023-08-09T06:00	18866	70	-52.0	-83.5	352	4
2023-08-09T06:00	18890	69	-52.2	-83.6	356	4
2023-08-09T06:00	18914	69	-52.3	-83.7	1	4
2023-08-09T06:00	18935	69	-52.4	-83.8	5	5
2023-08-09T06:00	18957	69	-52.5	-83.8	9	5
2023-08-09T06:00	18983	68	-52.4	-83.8	13	5
2023-08-09T06:00	19009	68	-52.3	-83.7	16	5
2023-08-09T06:00	19029	68	-52.4	-83.2	20	6
2023-08-09T06:00	19051	68	-52.5	-83.3	24	6
2023-08-09T06:00	19081	67	-52.6	-83.9	29	5
2023-08-09T06:00	19104	67	-52.4	-83.8	34	5
2023-08-09T06:00	19128	67	-52.4	-83.8	41	5
2023-08-09T06:00	19155	67	-52.4	-83.8	47	5
2023-08-09T06:00	19176	66	-52.3	-83.7	51	5
2023-08-09T06:00	19203	66	-52.1	-83.5	55	5
2023-08-09T06:00	19224	66	-52.2	-83.6	57	6
2023-08-09T06:00	19247	66	-52.1	-83.5	58	6
2023-08-09T06:00	19276	65	-52.2	-83.6	58	6
2023-08-09T06:00	19295	65	-52.3	-83.7	58	7
2023-08-09T06:00	19323	65	-52.1	-83.5	57	7
2023-08-09T06:00	19350	65	-51.9	-83.4	57	8
2023-08-09T06:00	19376	64	-52.0	-83.5	56	8
2023-08-09T06:00	19400	64	-51.9	-83.4	56	8
2023-08-09T06:00	19424	64	-51.9	-83.4	56	8
2023-08-09T06:00	19449	64	-51.8	-83.3	57	8
2023-08-09T06:00	19473	63	-51.7	-83.2	58	8
2023-08-09T06:00	19496	63	-51.7	-83.2	60	8
2023-08-09T06:00	19522	63	-51.7	-83.2	64	7
2023-08-09T06:00	19548	63	-51.8	-83.3	67	7
2023-08-09T06:00	19574	62	-51.7	-83.2	71	7
2023-08-09T06:00	19595	62	-51.6	-83.2	74	7
2023-08-09T06:00	19622	62	-51.7	-83.2	78	7
2023-08-09T06:00	19648	62	-51.7	-83.2	82	7
2023-08-09T06:00	19669	61	-51.8	-83.3	86	7
2023-08-09T06:00	19699	61	-51.8	-83.3	91	7
2023-08-09T06:00	19721	61	-51.9	-83.4	96	7
2023-08-09T06:00	19749	61	-52.0	-83.5	101	7
2023-08-09T06:00	19771	61	-51.9	-83.4	106	7
2023-08-09T06:00	19797	60	-51.9	-83.4	111	7
2023-08-09T06:00	19825	60	-52.1	-83.5	114	7
2023-08-09T06:00	19848	60	-52.2	-83.6	116	7
2023-08-09T06:00	19872	60	-52.3	-83.7	116	6
2023-08-09T06:00	19895	59	-52.2	-83.6	114	6
2023-08-09T06:00	19920	59	-52.3	-83.7	111	6
2023-08-09T06:00	19944	59	-52.3	-83.7	107	5
2023-08-09T06:00	19970	59	-52.3	-83.7	104	5
2023-08-09T06:00	19995	59	-52.0	-83.5	103	5
2023-08-09T06:00	20019	58	-51.7	-83.2	104	4
2023-08-09T06:00	20045	58	-51.6	-83.2	106	4
2023-08-09T06:00	20071	58	-51.5	-83.7	110	3
2023-08-09T06:00	20097	58	-51.4	-83.6	116	3
2023-08-09T06:00	20120	57	-51.5	-83.7	123	2
2023-08-09T06:00	20146	57	-51.5	-83.1	128	2
2023-08-09T06:00	20171	57	-51.6	-83.2	127	1
2023-08-09T06:00	20196	57	-51.7	-83.2	109	1
2023-08-09T06:00	20223	56	-51.7	-83.2	72	1
2023-08-09T06:00	20248	56	-51.7	-83.2	47	1
2023-08-09T06:00	20275	56	-51.8	-83.3	36	2
2023-08-09T06:00	20299	56	-51.7	-83.2	33	2
2023-08-09T06:00	20321	56	-51.7	-83.2	33	3
2023-08-09T06:00	20348	55	-51.6	-83.2	36	3
2023-08-09T06:00	20371	55	-51.4	-83.6	42	3
2023-08-09T06:00	20394	55	-51.0	-83.3	50	4
2023-08-09T06:00	20420	55	-51.0	-83.3	57	4
2023-08-09T06:00	20447	55	-51.2	-83.5	64	5
2023-08-09T06:00	20474	54	-51.3	-83.6	68	5
2023-08-09T06:00	20494	54	-51.2	-82.9	73	6
2023-08-09T06:00	20522	54	-51.3	-82.9	76	6
2023-08-09T06:00	20543	54	-51.5	-83.1	80	7
2023-08-09T06:00	20565	54	-51.4	-83.0	83	7
2023-08-09T06:00	20589	53	-51.4	-83.0	86	7
2023-08-09T06:00	20613	53	-51.5	-83.1	89	7
2023-08-09T06:00	20638	53	-51.4	-83.0	91	7
2023-08-09T06:00	20659	53	-51.5	-83.1	93	7
2023-08-09T06:00	20682	53	-51.5	-83.1	94	6
2023-08-09T06:00	20709	52	-51.4	-83.0	93	6
2023-08-09T06:00	20730	52	-51.4	-83.0	92	5
2023-08-09T06:00	20752	52	-51.5	-83.1	90	4
2023-08-09T06:00	20775	52	-51.6	-83.2	86	4
2023-08-09T06:00	20801	52	-51.7	-83.2	84	3
2023-08-09T06:00	20824	52	-51.8	-83.3	83	3
2023-08-09T06:00	20845	51	-51.9	-83.4	84	3
2023-08-09T06:00	20869	51	-51.9	-83.4	85	3
2023-08-09T06:00	20894	51	-51.9	-83.4	85	3
2023-08-09T06:00	20916	51	-51.8	-83.3	83	4
2023-08-09T06:00	20941	51	-51.8	-83.3	81	4
2023-08-09T06:00	20962	50	-51.7	-83.2	79	5
2023-08-09T06:00	20988	50	-51.5	-83.1	76	6
2023-08-09T06:00	21010	50	-51.5	-83.1	73	6
2023-08-09T06:00	21031	50	-51.4	-83.0	69	7
2023-08-09T06:00	21059	50	-51.3	-82.9	65	7
2023-08-09T06:00	21084	49	-51.4	-83.0	61	7
2023-08-09T06:00	21108	49	-51.5	-83.1	56	7
2023-08-09T06:00	21131	49	-51.5	-83.1	53	8
2023-08-09T06:00	21158	49	-51.4	-83.0	50	8
2023-08-09T06:00	21182	49	-51.5	-83.1	48	8
2023-08-09T06:00	21206	49	-51.6	-83.2	47	8
2023-08-09T06:00	21231	48	-51.6	-83.2	47	9
2023-08-09T06:00	21254	48	-51.5	-83.1	49	9
2023-08-09T06:00	21279	48	-51.4	-83.0	52	9
2023-08-09T06:00	21303	48	-51.2	-82.9	55	9
2023-08-09T06:00	21337	48	-51.3	-82.9	59	9
2023-08-09T06:00	21355	47	-51.5	-83.1	64	9
2023-08-09T06:00	21384	47	-51.4	-83.0	69	9
2023-08-09T06:00	21403	47	-51.3	-82.9	74	9
2023-08-09T06:00	21431	47	-51.4	-83.0	78	9
2023-08-09T06:00	21459	47	-51.3	-82.9	81	9
2023-08-09T06:00	21483	47	-51.4	-83.0	83	9
2023-08-09T06:00	21511	46	-51.4	-83.6	85	9
2023-08-09T06:00	21533	46	-51.2	-83.5	86	9
2023-08-09T06:00	21559	46	-51.1	-83.4	88	9
2023-08-09T06:00	21588	46	-51.1	-83.4	89	9
2023-08-09T06:00	21614	46	-51.1	-83.4	90	8
2023-08-09T06:00	21641	45	-51.0	-83.3	90	8
2023-08-09T06:00	21664	45	-51.1	-83.4	88	7
2023-08-09T06:00	21693	45	-51.4	-83.0	84	7
2023-08-09T06:00	21720	45	-51.4	-83.0	80	6
2023-08-09T06:00	21747	45	-51.5	-83.1	75	6
2023-08-09T06:00	21775	44	-51.6	-83.2	70	6
2023-08-09T06:00	21801	44	-51.8	-83.3	66	5
2023-08-09T06:00	21829	44	-51.9	-83.4	62	5
2023-08-09T06:00	21858	44	-52.0	-83.5	57	6
2023-08-09T06:00	21887	44	-52.1	-83.5	54	6
2023-08-09T06:00	21911	44	-52.1	-83.5	52	6
2023-08-09T06:00	21939	43	-51.9	-83.4	51	7
2023-08-09T06:00	21963	43	-52.0	-83.5	52	8
2023-08-09T06:00	21990	43	-52.1	-83.5	53	9
2023-08-09T06:00	22015	43	-52.1	-83.5	55	9
2023-08-09T06:00	22041	43	-52.2	-83.6	57	10
2023-08-09T06:00	22069	43	-52.2	-83.6	60	11
2023-08-09T06:00	22094	42	-52.4	-83.8	62	11
2023-08-09T06:00	22120	42	-52.5	-83.8	65	12
2023-08-09T06:00	22149	42	-52.5	-83.8	69	12
2023-08-09T06:00	22180	42	-52.5	-83.8	72	12
2023-08-09T06:00	22202	42	-52.6	-83.9	76	13
2023-08-09T06:00	22232	41	-52.5	-83.8	79	13
2023-08-09T06:00	22256	41	-52.5	-83.8	82	12
2023-08-09T06:00	22281	41	-52.7	-84.0	85	12
2023-08-09T06:00	22306	41	-52.7	-84.0	88	12
2023-08-09T06:00	22333	41	-52.8	-84.1	89	11
2023-08-09T06:00	22359	41	-52.7	-84.0	90	11
2023-08-09T06:00	22390	40	-52.6	-83.9	91	10
2023-08-09T06:00	22418	40	-52.6	-83.9	92	10
2023-08-09T06:00	22443	40	-52.6	-83.9	92	10
2023-08-09T06:00	22467	40	-52.6	-83.9	92	10
2023-08-09T06:00	22491	40	-52.6	-83.9	91	10
2023-08-09T06:00	22518	40	-52.6	-83.9	91	10
2023-08-09T06:00	22548	39	-52.5	-83.8	90	10
2023-08-09T06:00	22570	39	-52.5	-83.8	90	10
2023-08-09T06:00	22599	39	-52.4	-83.8	89	10
2023-08-09T06:00	22623	39	-52.5	-83.8	89	10
2023-08-09T06:00	22648	39	-52.6	-83.9	89	10
2023-08-09T06:00	22675	39	-52.6	-83.9	90	10
2023-08-09T06:00	22702	39	-52.7	-84.0	90	11
2023-08-09T06:00	22727	38	-52.7	-84.0	92	11
2023-08-09T06:00	22750	38	-52.6	-83.9	93	11
2023-08-09T06:00	22777	38	-52.6	-83.9	94	11
2023-08-09T06:00	22801	38	-52.5	-83.8	95	11
2023-08-09T06:00	22823	38	-52.4	-83.8	96	10
2023-08-09T06:00	22851	38	-52.3	-83.7	97	10
2023-08-09T06:00	22877	38	-52.2	-83.6	98	10
2023-08-09T06:00	22902	37	-52.2	-83.6	100	10
2023-08-09T06:00	22926	37	-52.2	-83.6	103	10
2023-08-09T06:00	22950	37	-52.0	-83.5	106	10
2023-08-09T06:00	22973	37	-52.0	-83.5	108	11
2023-08-09T06:00	23003	37	-52.1	-83.5	110	11
2023-08-09T06:00	23027	37	-52.0	-83.5	112	11
2023-08-09T06:00	23053	37	-52.0	-83.5	114	11
2023-08-09T06:00	23074	36	-52.0	-83.5	115	10
2023-08-09T06:00	23096	36	-51.9	-83.4	117	10
2023-08-09T06:00	23125	36	-52.1	-83.5	118	9
2023-08-09T06:00	23148	36	-52.0	-83.5	117	8
2023-08-09T06:00	23169	36	-51.9	-83.4	116	8
2023-08-09T06:00	23199	36	-51.8	-83.9	113	7
2023-08-09T06:00	23219	36	-51.8	-83.9	109	7
2023-08-09T06:00	23249	35	-51.8	-83.9	106	7
2023-08-09T06:00	23274	35	-51.8	-83.9	104	7
2023-08-09T06:00	23302	35	-51.6	-83.8	104	8
2023-08-09T06:00	23323	35	-51.3	-83.6	104	8
2023-08-09T06:00	23343	35	-51.2	-83.5	106	8
2023-08-09T06:00	23375	35	-51.1	-83.4	108	9
2023-08-09T06:00	23397	35	-51.0	-83.3	110	9
2023-08-09T06:00	23422	34	-51.0	-83.3	111	9
2023-08-09T06:00	23452	34	-51.0	-83.3	111	9
2023-08-09T06:00	23477	34	-51.2	-83.5	111	9
2023-08-09T06:00	23504	34	-51.3	-83.6	110	8
2023-08-09T06:00	23532	34	-50.8	-83.2	110	8
2023-08-09T06:00	23555	34	-50.1	-83.4	110	8
2023-08-09T06:00	23582	34	-49.8	-83.2	111	8
2023-08-09T06:00	23605	34	-49.7	-83.1	113	8
2023-08-09T06:00	23631	33	-49.8	-83.2	114	8
2023-08-09T06:00	23660	33	-50.0	-83.3	114	8
2023-08-09T06:00	23682	33	-50.1	-83.4	113	9
2023-08-09T06:00	23711	33	-50.1	-83.4	111	9
2023-08-09T06:00	23737	33	-50.0	-83.3	107	9
2023-08-09T06:00	23762	33	-49.8	-83.2	103	9
2023-08-09T06:00	23785	33	-49.7	-83.1	100	9
2023-08-09T06:00	23813	32	-49.6	-83.0	98	9
2023-08-09T06:00	23842	32	-49.4	-82.9	98	8
2023-08-09T06:00	23868	32	-49.2	-82.7	99	8
2023-08-09T06:00	23890	32	-49.2	-82.7	102	8
2023-08-09T06:00	23921	32	-49.1	-82.7	105	8
2023-08-09T06:00	23950	32	-49.1	-82.7	108	7
2023-08-09T06:00	23980	32	-49.1	-82.7	111	7
2023-08-09T06:00	24005	32	-49.2	-82.7	115	7
2023-08-09T06:00	24036	31	-49.4	-82.9	120	6
2023-08-09T06:00	24062	31	-49.4	-82.9	125	6
2023-08-09T06:00	24084	31	-49.5	-82.3	131	6
2023-08-09T06:00	24113	31	-49.7	-82.4	136	6
2023-08-09T06:00	24140	31	-49.9	-82.5	140	6
2023-08-09T06:00	24170	31	-50.0	-82.6	143	6
2023-08-09T06:00	24198	31	-50.1	-82.7	143	6
2023-08-09T06:00	24227	31	-50.0	-82.6	142	5
2023-08-09T06:00	24252	30	-49.9	-83.2	138	5
2023-08-09T06:00	24281	30	-49.8	-83.2	133	4
2023-08-09T06:00	24306	30	-49.7	-83.1	126	4
2023-08-09T06:00	24337	30	-49.5	-82.9	117	4
2023-08-09T06:00	24367	30	-49.4	-82.9	108	4
2023-08-09T06:00	24397	30	-49.5	-82.9	99	4
2023-08-09T06:00	24421	30	-49.7	-83.1	93	4
2023-08-09T06:00	24442	29	-49.7	-83.1	91	4
2023-08-09T06:00	24480	29	-49.6	-83.0	91	4
2023-08-09T06:00	24507	29	-49.5	-82.9	93	4
2023-08-09T06:00	24538	29	-49.4	-82.9	97	4
2023-08-09T06:00	24562	29	-49.5	-82.9	100	3
2023-08-09T06:00	24588	29	-49.6	-83.0	102	3
2023-08-09T06:00	24622	29	-49.7	-82.4	101	3
2023-08-09T06:00	24650	29	-49.9	-82.5	97	3
2023-08-09T06:00	24677	28	-50.0	-83.3	88	2
2023-08-09T06:00	24706	28	-49.8	-83.2	75	2
2023-08-09T06:00	24730	28	-49.6	-83.0	61	2
2023-08-09T06:00	24763	28	-49.6	-83.0	49	3
2023-08-09T06:00	24783	28	-49.7	-83.1	42	3
2023-08-09T06:00	24815	28	-49.8	-83.2	39	3
2023-08-09T06:00	24842	28	-49.9	-83.2	39	4
2023-08-09T06:00	24869	28	-49.9	-83.2	41	4
2023-08-09T06:00	24900	28	-49.8	-83.2	45	4
2023-08-09T06:00	24923	27	-49.8	-83.2	50	5
2023-08-09T06:00	24956	27	-49.7	-83.1	53	5
2023-08-09T06:00	24979	27	-49.8	-83.2	55	5
2023-08-09T06:00	25005	27	-49.8	-83.2	56	6
2023-08-09T06:00	25032	27	-49.8	-83.2	57	7
2023-08-09T06:00	25053	27	-49.9	-82.5	58	7
2023-08-09T06:00	25083	27	-50.0	-82.6	60	8
2023-08-09T06:00	25108	27	-50.1	-82.7	62	8
2023-08-09T06:00	25135	27	-50.1	-83.4	63	9
2023-08-09T06:00	25154	26	-50.0	-83.3	64	9
2023-08-09T06:00	25192	26	-49.9	-83.2	65	9
2023-08-09T06:00	25207	26	-49.9	-83.2	66	9
2023-08-09T06:00	25240	26	-49.9	-83.2	67	9
2023-08-09T06:00	25259	26	-50.0	-83.3	67	8
2023-08-09T06:00	25293	26	-50.1	-83.4	67	8
2023-08-09T06:00	25308	26	-50.2	-83.5	66	8
2023-08-09T06:00	25331	26	-50.1	-82.7	65	9
2023-08-09T06:00	25362	26	-50.2	-82.8	64	9
2023-08-09T06:00	25389	26	-50.3	-82.8	63	9
2023-08-09T06:00	25414	25	-50.5	-83.0	62	10
2023-08-09T06:00	25437	25	-50.7	-83.1	61	10
2023-08-09T06:00	25458	25	-50.8	-83.2	61	10
2023-08-09T06:00	25485	25	-50.7	-83.1	60	10
2023-08-09T06:00	25506	25	-50.6	-83.1	60	10
2023-08-09T06:00	25532	25	-50.5	-83.0	60	10
2023-08-09T06:00	25558	25	-50.5	-83.0	60	11
2023-08-09T06:00	25587	25	-50.4	-82.9	61	11
2023-08-09T06:00	25612	25	-50.5	-83.0	63	12
2023-08-09T06:00	25640	25	-50.6	-83.7	65	12
2023-08-09T06:00	25661	24	-50.6	-83.7	68	12
2023-08-09T06:00	25688	24	-50.5	-83.7	70	12
2023-08-09T06:00	25709	24	-50.4	-83.6	72	12
2023-08-09T06:00	25741	24	-50.3	-83.5	74	12
2023-08-09T06:00	25761	24	-50.2	-83.5	77	12
2023-08-09T06:00	25788	24	-50.0	-83.3	81	12
2023-08-09T06:00	25813	24	-50.0	-83.3	84	12
2023-08-09T06:00	25837	24	-50.0	-83.3	88	12
2023-08-09T06:00	25862	24	-49.9	-83.2	91	12
2023-08-09T06:00	25889	24	-49.9	-83.2	94	12
2023-08-09T06:00	25921	24	-49.9	-83.2	96	12
2023-08-09T06:00	25952	23	-50.0	-83.3	97	12
2023-08-09T06:00	25984	23	-50.1	-83.4	98	12
2023-08-09T06:00	26015	23	-50.3	-83.5	98	12
2023-08-09T06:00	26047	23	-50.2	-83.5	98	12
2023-08-09T06:00	26071	23	-50.1	-83.4	96	12
2023-08-09T06:00	26100	23	-49.8	-83.2	95	11
2023-08-09T06:00	26135	23	-49.7	-83.1	93	11
2023-08-09T06:00	26161	23	-49.7	-83.1	91	11
2023-08-09T06:00	26193	23	-49.7	-83.1	89	11
2023-08-09T06:00	26228	22	-49.7	-83.1	87	10
2023-08-09T06:00	26254	22	-49.6	-83.0	84	9
2023-08-09T06:00	26290	22	-49.6	-83.0	80	9
2023-08-09T06:00	26323	22	-49.6	-83.0	76	8
2023-08-09T06:00	26354	22	-49.5	-82.9	71	8
2023-08-09T06:00	26380	22	-49.6	-83.0	68	8
2023-08-09T06:00	26411	22	-49.4	-82.9	67	8
2023-08-09T06:00	26452	22	-49.1	-82.7	67	8
2023-08-09T06:00	26482	22	-48.9	-82.5	70	9
2023-08-09T06:00	26509	22	-48.7	-82.4	74	9
2023-08-09T06:00	26547	21	-48.7	-82.4	79	10
2023-08-09T06:00	26576	21	-48.8	-82.4	83	10
2023-08-09T06:00	26606	21	-48.9	-82.5	86	11
2023-08-09T06:00	26645	21	-48.8	-83.2	89	11
2023-08-09T06:00	26669	21	-48.5	-83.0	90	11
2023-08-09T06:00	26701	21	-48.4	-82.9	91	10
2023-08-09T06:00	26735	21	-48.3	-82.9	91	10
2023-08-09T06:00	26760	21	-48.2	-82.8	90	10
2023-08-09T06:00	26799	21	-48.2	-82.8	90	9
2023-08-09T06:00	26824	21	-48.2	-82.8	89	9
2023-08-09T06:00	26864	20	-48.3	-82.9	89	9
2023-08-09T06:00	26885	20	-48.3	-82.9	89	9
2023-08-09T06:00	26918	20	-48.3	-82.9	89	10
2023-08-09T06:00	26948	20	-48.2	-82.8	89	10
2023-08-09T06:00	26981	20	-48.1	-82.7	89	11
2023-08-09T06:00	27000	20	-48.1	-82.7	90	12
2023-08-09T06:00	27025	20	-48.1	-82.7	91	12
2023-08-09T06:00	27066	20	-47.9	-82.6	93	13
2023-08-09T06:00	27083	20	-47.8	-82.5	95	13
2023-08-09T06:00	27112	20	-47.8	-82.5	98	13
2023-08-09T06:00	27138	20	-47.5	-82.3	101	13
2023-08-09T06:00	27169	19	-47.3	-82.2	105	13
2023-08-09T06:00	27193	19	-47.2	-82.1	108	12
2023-08-09T06:00	27226	19	-47.3	-82.2	111	12
2023-08-09T06:00	27257	19	-47.3	-82.2	114	12
2023-08-09T06:00	27278	19	-47.0	-81.9	117	11
2023-08-09T06:00	27303	19	-46.7	-81.7	118	10
2023-08-09T06:00	27325	19	-46.6	-81.7	118	10
2023-08-09T06:00	27349	19	-46.5	-82.5	116	8
2023-08-09T06:00	27374	19	-46.3	-82.4	113	7
2023-08-09T06:00	27404	19	-46.0	-82.1	107	7
2023-08-09T06:00	27422	19	-45.8	-82.0	100	6
2023-08-09T06:00	27451	19	-45.5	-81.8	93	6
2023-08-09T06:00	27479	19	-45.2	-81.6	87	7
2023-08-09T06:00	27505	19	-45.0	-81.4	82	7
2023-08-09T06:00	27531	18	-44.9	-81.4	79	8
2023-08-09T06:00	27565	18	-44.8	-81.3	76	9
2023-08-09T06:00	27581	18	-44.7	-81.2	74	9
2023-08-09T06:00	27612	18	-44.6	-81.2	72	10
2023-08-09T06:00	27645	18	-44.6	-81.2	70	11
2023-08-09T06:00	27663	18	-44.6	-81.2	69	12
2023-08-09T06:00	27699	18	-44.5	-81.1	68	12
2023-08-09T06:00	27731	18	-44.5	-81.1	68	13
2023-08-09T06:00	27748	18	-44.5	-81.1	69	13
2023-08-09T06:00	27783	18	-44.6	-81.2	72	13
2023-08-09T06:00	27809	18	-44.5	-81.1	76	13
2023-08-09T06:00	27844	18	-44.4	-81.0	80	13
2023-08-09T06:00	27869	18	-44.4	-81.0	85	13
2023-08-09T06:00	27907	17	-44.4	-81.0	90	13
2023-08-09T06:00	27930	17	-44.4	-81.0	94	13
2023-08-09T06:00	27961	17	-44.3	-80.9	98	13
2023-08-09T06:00	27993	17	-44.4	-81.0	102	14
2023-08-09T06:00	28015	17	-44.5	-81.1	104	14
2023-08-09T06:00	28046	17	-44.6	-81.2	105	14
2023-08-09T06:00	28081	17	-44.7	-81.2	105	13
2023-08-09T06:00	28111	17	-44.7	-81.2	104	13
2023-08-09T06:00	28141	17	-44.6	-81.2	103	13
2023-08-09T06:00	28163	17	-44.5	-81.1	103	12
2023-08-09T06:00	28204	17	-44.4	-81.0	104	12
2023-08-09T06:00	28238	17	-44.2	-80.9	105	12
2023-08-09T06:00	28265	17	-44.0	-80.7	107	12
2023-08-09T06:00	28287	16	-43.9	-81.8	107	11
2023-08-09T06:00	28326	16	-43.8	-81.7	105	11
2023-08-09T06:00	28348	16	-43.7	-81.6	103	12
2023-08-09T06:00	28384	16	-43.6	-81.5	102	12
2023-08-09T06:00	28403	16	-43.5	-81.5	101	12
2023-08-09T06:00	28452	16	-43.3	-81.3	101	13
2023-08-09T06:00	28475	16	-43.2	-81.3	103	13
2023-08-09T06:00	28510	16	-43.2	-81.3	105	13
2023-08-09T06:00	28543	16	-43.2	-81.3	108	13
2023-08-09T06:00	28570	16	-43.3	-81.3	110	13
2023-08-09T06:00	28595	16	-43.5	-81.5	111	13
2023-08-09T06:00	28638	16	-43.7	-81.6	111	12
2023-08-09T06:00	28655	16	-43.7	-81.6	109	12
2023-08-09T06:00	28694	16	-43.5	-81.5	106	12
2023-08-09T06:00	28716	15	-43.3	-81.3	102	13
2023-08-09T06:00	28753	15	-43.4	-81.4	99	13
2023-08-09T06:00	28766	15	-43.4	-81.4	96	14
2023-08-09T06:00	28806	15	-43.3	-81.3	93	14
2023-08-09T06:00	28823	15	-43.2	-81.3	92	15
2023-08-09T06:00	28857	15	-43.1	-81.2	92	15
2023-08-09T06:00	28887	15	-43.2	-81.3	94	15
2023-08-09T06:00	28911	15	-43.2	-81.3	96	15
2023-08-09T06:00	28948	15	-43.0	-81.1	99	15
2023-08-09T06:00	28977	15	-42.9	-81.1	102	15
2023-08-09T06:00	28997	15	-42.8	-81.0	105	14
2023-08-09T06:00	29030	15	-42.5	-80.8	108	14
2023-08-09T06:00	29059	15	-42.5	-80.8	109	13
2023-08-09T06:00	29086	15	-42.4	-80.7	110	13
2023-08-09T06:00	29121	15	-42.3	-80.6	110	13
2023-08-09T06:00	29149	15	-42.1	-80.5	109	13
2023-08-09T06:00	29173	14	-41.7	-80.2	108	13
2023-08-09T06:00	29201	14	-41.3	-79.9	107	13
2023-08-09T06:00	29214	14	-41.2	-79.9	107	14
2023-08-09T06:00	29265	14	-41.2	-79.9	107	14
2023-08-09T06:00	29303	14	-41.1	-79.8	108	14
2023-08-09T06:00	29328	14	-41.0	-79.7	109	14
2023-08-09T06:00	29356	14	-40.9	-79.7	110	14
2023-08-09T06:00	29386	14	-40.7	-79.5	110	13
2023-08-09T06:00	29409	14	-40.5	-79.4	109	13
2023-08-09T06:00	29451	14	-40.3	-79.2	108	12
2023-08-09T06:00	29487	14	-40.0	-79.0	108	12
2023-08-09T06:00	29506	14	-39.8	-78.9	108	11
2023-08-09T06:00	29545	14	-39.7	-78.8	109	10
2023-08-09T06:00	29580	14	-39.7	-78.8	110	9
2023-08-09T06:00	29621	14	-39.8	-78.9	113	9
2023-08-09T06:00	29642	14	-39.8	-78.9	115	8
2023-08-09T06:00	29658	13	-39.9	-79.0	116	8
2023-08-09T06:00	29702	13	-40.0	-79.0	115	8
2023-08-09T06:00	29730	13	-40.0	-79.0	114	8
2023-08-09T06:00	29776	13	-40.0	-79.0	111	8
2023-08-09T06:00	29796	13	-40.0	-79.0	109	9
2023-08-09T06:00	29819	13	-39.9	-79.0	107	10
2023-08-09T06:00	29853	13	-39.8	-78.9	106	11
2023-08-09T06:00	29878	13	-39.7	-78.8	105	12
2023-08-09T06:00	29918	13	-39.7	-78.8	106	12
2023-08-09T06:00	29932	13	-39.5	-78.7	107	12
2023-08-09T06:00	29983	13	-39.4	-78.6	110	11
2023-08-09T06:00	30000	13	-39.2	-78.5	112	11
2023-08-09T06:00	30037	13	-39.2	-78.5	115	10
2023-08-09T06:00	30068	13	-39.3	-78.5	118	10
2023-08-09T06:00	30080	13	-39.3	-78.5	121	9
2023-08-09T06:00	30124	13	-39.3	-78.5	123	9
2023-08-09T06:00	30147	13	-39.3	-78.5	123	8
2023-08-09T06:00	30174	12	-39.4	-78.6	122	8
2023-08-09T06:00	30219	12	-39.6	-78.8	120	7
2023-08-09T06:00	30240	12	-39.7	-78.8	117	7
2023-08-09T06:00	30268	12	-39.6	-78.8	112	7
2023-08-09T06:00	30292	12	-39.4	-78.6	108	7
2023-08-09T06:00	30324	12	-39.3	-78.5	104	7
2023-08-09T06:00	30364	12	-39.3	-78.5	100	8
2023-08-09T06:00	30383	12	-39.3	-78.5	97	8
2023-08-09T06:00	30407	12	-39.4	-78.6	94	9
2023-08-09T06:00	30425	12	-39.4	-78.6	92	9
2023-08-09T06:00	30472	12	-39.4	-78.6	89	9
2023-08-09T06:00	30495	12	-39.4	-78.6	86	9
2023-08-09T06:00	30521	12	-39.4	-78.6	84	9
2023-08-09T06:00	30548	12	-39.4	-78.6	81	9
2023-08-09T06:00	30589	12	-39.4	-78.6	79	9
2023-08-09T06:00	30603	12	-39.5	-78.7	78	9
2023-08-09T06:00	30620	12	-39.5	-78.7	79	9
2023-08-09T06:00	30666	12	-39.4	-78.6	82	9
2023-08-09T06:00	30704	12	-39.4	-78.6	86	9
2023-08-09T06:00	30732	12	-39.4	-78.6	91	10
2023-08-09T06:00	30761	11	-39.4	-78.6	96	10
2023-08-09T06:00	30798	11	-39.5	-78.7	100	11
2023-08-09T06:00	30818	11	-39.6	-78.8	105	11
2023-08-09T06:00	30860	11	-39.9	-79.0	110	12
2023-08-09T06:00	30886	11	-40.1	-79.1	114	12
2023-08-09T06:00	30925	11	-40.2	-79.2	118	13
2023-08-09T06:00	30947	11	-40.1	-79.1	122	13
2023-08-09T06:00	30980	11	-39.8	-78.9	125	13
2023-08-09T06:00	31022	11	-39.4	-78.6	127	13
2023-08-09T06:00	31048	11	-39.2	-78.5	129	13
2023-08-09T06:00	31102	11	-39.1	-78.4	130	13
2023-08-09T06:00	31120	11	-39.0	-78.3	130	13
2023-08-09T06:00	31166	11	-38.8	-78.2	129	12
2023-08-09T06:00	31189	11	-38.5	-78.0	128	11
2023-08-09T06:00	31223	11	-38.3	-77.9	125	11
2023-08-09T06:00	31266	11	-38.1	-77.7	122	10
2023-08-09T06:00	31294	11	-38.0	-77.6	118	9
2023-08-09T06:00	31321	11	-37.9	-77.6	114	9
2023-08-09T06:00	31347	11	-37.8	-77.5	110	8
2023-08-09T06:00	31397	10	-37.8	-77.5	106	8
2023-08-09T06:00	31426	10	-37.8	-77.5	102	8
2023-08-09T06:00	31464	10	-37.7	-77.4	99	8
2023-08-09T06:00	31489	10	-37.8	-77.5	97	9
2023-08-09T06:00	31523	10	-38.0	-77.6	96	9
2023-08-09T06:00	31572	10	-38.1	-77.7	97	9
2023-08-09T06:00	31610	10	-38.2	-77.8	99	9
2023-08-09T06:00	31640	10	-38.1	-77.7	103	10
2023-08-09T06:00	31662	10	-38.2	-77.8	108	10
2023-08-09T06:00	31707	10	-38.2	-77.8	114	10
2023-08-09T06:00	31736	10	-38.3	-77.9	119	11
2023-08-09T06:00	31766	10	-38.4	-77.9	124	11
2023-08-09T06:00	31807	10	-38.6	-78.1	128	12
2023-08-09T06:00	31834	10	-38.7	-78.1	131	13
2023-08-09T06:00	31875	10	-38.8	-78.2	134	13
2023-08-09T06:00	31885	10	-38.9	-78.3	137	13
2023-08-09T06:00	31925	10	-38.9	-78.3	138	13
2023-08-09T06:00	31958	10	-39.0	-78.3	139	13
2023-08-09T06:00	31992	10	-39.0	-78.3	138	12
2023-08-09T06:00	32026	10	-39.0	-78.3	136	12
2023-08-09T06:00	32056	10	-38.9	-78.3	133	11
2023-08-09T06:00	32086	9	-38.9	-78.3	130	10
2023-08-09T06:00	32103	9	-38.9	-78.3	125	9
2023-08-09T06:00	32131	9	-38.8	-78.2	120	9
2023-08-09T06:00	32192	9	-38.7	-78.1	114	9
2023-08-09T06:00	32217	9	-38.8	-78.2	102	9
2023-08-09T06:00	32244	9	-38.8	-78.2	97	9
2023-08-09T06:00	32281	9	-38.8	-78.2	93	10
2023-08-09T06:00	32302	9	-38.8	-78.2	90	10
2023-08-09T06:00	32323	9	-38.7	-78.1	88	11
2023-08-09T06:00	32358	9	-38.6	-78.1	87	11
2023-08-09T06:00	32367	9	-38.6	-78.1	88	12
2023-08-09T06:00	32421	9	-38.5	-78.0	89	12
2023-08-09T06:00	32440	9	-38.4	-77.9	91	12
2023-08-09T06:00	32454	9	-38.4	-77.9	92	12
2023-08-09T06:00	32494	9	-38.3	-77.9	93	12
2023-08-09T06:00	32532	9	-38.2	-77.8	96	11
2023-08-09T12:00	112	1001	17.6	8.7	270	5
2023-08-09T12:00	136	998	16.3	7.8	266	2
2023-08-09T12:00	159	996	15.9	7.4	268	3
2023-08-09T12:00	179	993	15.6	7.1	269	4
2023-08-09T12:00	199	991	15.5	7.1	270	4
2023-08-09T12:00	220	988	15.2	6.9	272	4
2023-08-09T12:00	246	986	15.1	7.0	273	4
2023-08-09T12:00	260	984	14.9	7.0	273	4
2023-08-09T12:00	279	982	14.7	7.0	273	4
2023-08-09T12:00	297	979	14.5	6.8	271	4
2023-08-09T12:00	314	977	14.5	7.1	270	4
2023-08-09T12:00	334	975	14.3	7.1	270	4
2023-08-09T12:00	361	972	14.0	7.0	272	4
2023-08-09T12:00	383	970	13.7	6.4	277	5
2023-08-09T12:00	402	967	13.6	6.2	284	5
2023-08-09T12:00	422	965	13.4	6.2	289	5
2023-08-09T12:00	445	963	13.1	6.1	292	6
2023-08-09T12:00	463	960	13.0	6.1	292	6
2023-08-09T12:00	483	958	12.8	6.1	291	6
2023-08-09T12:00	502	956	12.6	6.0	289	6
2023-08-09T12:00	520	954	12.5	6.2	288	6
2023-08-09T12:00	549	951	12.3	5.9	291	6
2023-08-09T12:00	567	949	12.1	6.1	296	5
2023-08-09T12:00	589	946	11.9	5.8	303	5
2023-08-09T12:00	606	944	11.8	5.9	310	4
2023-08-09T12:00	627	942	11.5	6.0	312	4
2023-08-09T12:00	648	939	11.3	5.8	311	5
2023-08-09T12:00	666	937	11.1	6.0	307	5
2023-08-09T12:00	687	935	10.9	6.2	302	5
2023-08-09T12:00	707	933	10.7	6.1	297	5
2023-08-09T12:00	734	930	10.6	5.5	291	5
2023-08-09T12:00	756	927	10.4		284	5
2023-08-09T12:00	777	925	10.1	5.4	276	5
2023-08-09T12:00	796	923	9.9	5.2	270	5
2023-08-09T12:00	810	921	9.8	5.2	267	4
2023-08-09T12:00	828	919	9.7	5.2	269	4
2023-08-09T12:00	843	918	9.5	5.1	275	4
2023-08-09T12:00	864	915	9.3	5.2	287	3
2023-08-09T12:00	886	913	9.1	5.1	301	3
2023-08-09T12:00	907	911	8.9	5.2	313	4
2023-08-09T12:00	924	909	8.8	5.1	317	4
2023-08-09T12:00	942	907	8.6	5.1	316	5
2023-08-09T12:00	968	904	8.5	4.8	312	5
2023-08-09T12:00	989	902	8.2	4.7	305	5
2023-08-09T12:00	1015	899	8.0	4.8	298	6
2023-08-09T12:00	1044	896	7.7	4.5	293	6
2023-08-09T12:00	1070	893	7.5	4.6	291	6
2023-08-09T12:00	1100	890	7.2	4.4	291	6
2023-08-09T12:00	1124	887	6.9	4.4	293	6
2023-08-09T12:00	1151	884	6.7	4.3	295	6
2023-08-09T12:00	1177	881	6.4	4.3	296	5
2023-08-09T12:00	1198	879	6.2	4.3	297	5
2023-08-09T12:00	1219	877	6.0	4.2	297	5
2023-08-09T12:00	1243	874	5.8	4.2	296	5
2023-08-09T12:00	1273	871	5.5	4.0	293	6
2023-08-09T12:00	1295	869	5.2	4.1	289	6
2023-08-09T12:00	1315	867	5.1	4.1	284	7
2023-08-09T12:00	1334	865	4.9	3.9	279	7
2023-08-09T12:00	1355	862	5.0	3.5	275	6
2023-08-09T12:00	1374	860	5.0	3.5	274	6
2023-08-09T12:00	1392	858	4.9	3.5	277	6
2023-08-09T12:00	1412	856	4.7		284	7
2023-08-09T12:00	1435	854	4.5	3.2	291	8
2023-08-09T12:00	1453	852	4.3	2.9	297	9
2023-08-09T12:00	1473	850	4.3	2.8	300	10
2023-08-09T12:00	1489	848	4.3	2.2	302	10
2023-08-09T12:00	1509	846	4.3	2.3	302	10
2023-08-09T12:00	1526	845	4.1	2.3	301	10
2023-08-09T12:00	1545	843	3.9	2.2	299	10
2023-08-09T12:00	1562	841	3.8		295	9
2023-08-09T12:00	1579	839	3.7	2.1	292	9
2023-08-09T12:00	1598	837	3.6	2.0	290	8
2023-08-09T12:00	1617	835	3.4	2.0	290	8
2023-08-09T12:00	1638	833	3.3	1.7	293	7
2023-08-09T12:00	1658	831	3.2	1.7	298	7
2023-08-09T12:00	1673	829	3.0	1.5	301	7
2023-08-09T12:00	1694	827	2.9	1.6	303	7
2023-08-09T12:00	1710	825	2.7	1.6	301	7
2023-08-09T12:00	1731	823	2.6	1.2	296	7
2023-08-09T12:00	1751	821	2.5	1.0	293	8
2023-08-09T12:00	1773	819	2.3	0.9	290	8
2023-08-09T12:00	1788	818	2.2	0.7	289	9
2023-08-09T12:00	1807	816	2.0	0.9	289	9
2023-08-09T12:00	1823	814	1.9	0.2	290	9
2023-08-09T12:00	1846	812	1.8	0.0	290	9
2023-08-09T12:00	1863	810	1.6	0.4	291	8
2023-08-09T12:00	1883	808	1.3	0.6	293	7
2023-08-09T12:00	1911	806	1.1	0.4	295	7
2023-08-09T12:00	1929	804	0.9	0.4	297	7
2023-08-09T12:00	1946	802	0.7	0.4	298	8
2023-08-09T12:00	1967	800	0.7	-0.7	299	8
2023-08-09T12:00	1985	798	0.7	-0.7	299	8
2023-08-09T12:00	2008	795	0.5	-0.8	300	7
2023-08-09T12:00	2035	793	0.2	-0.3	303	7
2023-08-09T12:00	2056	791	0.0	0.0	308	7
2023-08-09T12:00	2089	788	-0.1	-0.2	313	7
2023-08-09T12:00	2109	786	-0.3	-0.3	317	7
2023-08-09T12:00	2133	783	-0.5	-0.6	317	8
2023-08-09T12:00	2157	781	-1.1	-2.4	315	9
2023-08-09T12:00	2175	779	-1.2	-1.4	311	9
2023-08-09T12:00	2194	777	-1.2	-1.5	305	8
2023-08-09T12:00	2222	775	-1.3	-2.0	299	7
2023-08-09T12:00	2241	773	-1.3	-2.7	293	6
2023-08-09T12:00	2254	771	-1.4	-2.7	286	5
2023-08-09T12:00	2272	770	-1.4	-3.2	279	5
2023-08-09T12:00	2293	768	-1.4	-3.4	276	5
2023-08-09T12:00	2309	766	-1.4	-3.4	275	5
2023-08-09T12:00	2329	764	-1.4	-3.5	277	5
2023-08-09T12:00	2348	762	-1.4	-3.6	280	6
2023-08-09T12:00	2372	760	-1.5	-3.9	283	7
2023-08-09T12:00	2389	759	-1.4	-3.9	285	8
2023-08-09T12:00	2407	757	-1.5	-4.0	285	8
2023-08-09T12:00	2428	755	-1.6	-4.0	285	8
2023-08-09T12:00	2452	753	-1.7	-4.2	284	8
2023-08-09T12:00	2468	751	-1.9	-4.1	283	7
2023-08-09T12:00	2492	749	-2.1	-4.3	282	7
2023-08-09T12:00	2516	747	-2.3	-4.5	282	7
2023-08-09T12:00	2536	745	-2.5	-4.6	283	7
2023-08-09T12:00	2563	742	-2.7	-4.8	283	7
2023-08-09T12:00	2584	740	-2.9	-5.0	283	7
2023-08-09T12:00	2603	739	-3.0		283	7
2023-08-09T12:00	2622	737	-3.1	-5.7	285	7
2023-08-09T12:00	2649	734	-3.2	-6.8	288	7
2023-08-09T12:00	2673	732	-3.3	-7.5	290	7
2023-08-09T12:00	2701	729	-3.3	-8.7	289	7
2023-08-09T12:00	2728	727	-3.5	-9.1	286	7
2023-08-09T12:00	2743	725	-3.6	-9.1	284	6
2023-08-09T12:00	2762	724	-3.8	-9.0	284	6
2023-08-09T12:00	2780	722	-3.8	-9.9	289	6
2023-08-09T12:00	2804	720	-3.8	-10.5	297	6
2023-08-09T12:00	2824	718	-3.5	-14.9	306	6
2023-08-09T12:00	2845	716	-3.5	-15.8	312	5
2023-08-09T12:00	2862	715	-3.5	-16.9	313	5
2023-08-09T12:00	2889	712	-3.7	-15.5	312	5
2023-08-09T12:00	2913	710	-3.9	-14.6	311	5
2023-08-09T12:00	2933	708	-4.1	-14.6	312	5
2023-08-09T12:00	2952	707	-4.1	-15.5	315	5
2023-08-09T12:00	2970	705	-4.2	-15.8	321	5
2023-08-09T12:00	2991	703	-4.4	-15.9	327	5
2023-08-09T12:00	3011	701	-4.5	-16.0	330	5
2023-08-09T12:00	3033	699	-4.7	-16.1	329	5
2023-08-09T12:00	3053	698	-4.8	-16.1	325	5
2023-08-09T12:00	3072	696	-5.0	-16.4	318	6
2023-08-09T12:00	3093	694	-5.1	-16.4	312	6
2023-08-09T12:00	3117	692	-5.4	-16.8	308	8
2023-08-09T12:00	3137	690	-5.6	-17.1	307	9
2023-08-09T12:00	3157	688	-5.7	-17.3	308	10
2023-08-09T12:00	3181	686	-5.9	-17.5	308	11
2023-08-09T12:00	3203	684	-6.0	-17.6	308	11
2023-08-09T12:00	3225	682	-6.1	-17.9	306	11
2023-08-09T12:00	3248	680	-6.2	-17.4	304	11
2023-08-09T12:00	3269	679	-6.4	-16.6	300	11
2023-08-09T12:00	3291	677	-6.6	-16.7	297	10
2023-08-09T12:00	3313	675	-6.8	-16.3	294	10
2023-08-09T12:00	3334	673	-7.0	-16.4	292	10
2023-08-09T12:00	3357	671	-7.2	-17.3	290	10
2023-08-09T12:00	3378	669	-7.2	-18.7	290	10
2023-08-09T12:00	3404	667	-7.2	-19.6	292	9
2023-08-09T12:00	3426	665	-7.2	-22.4	295	9
2023-08-09T12:00	3452	663	-7.3	-23.3	299	9
2023-08-09T12:00	3481	661	-7.4	-23.5	301	10
2023-08-09T12:00	3505	658	-7.6	-24.0	302	9
2023-08-09T12:00	3533	656	-7.8	-24.2	300	9
2023-08-09T12:00	3555	654	-8.0	-23.6	298	9
2023-08-09T12:00	3572	652	-8.1	-23.0	297	8
2023-08-09T12:00	3599	650	-8.2	-22.7	299	8
2023-08-09T12:00	3622	649	-8.4	-21.5	303	8
2023-08-09T12:00	3643	647	-8.6	-20.6	307	9
2023-08-09T12:00	3665	645	-8.8	-19.9	307	10
2023-08-09T12:00	3686	643	-9.0	-19.1	306	11
2023-08-09T12:00	3711	641	-9.2	-18.1	303	12
2023-08-09T12:00	3732	639	-9.4	-17.3	300	12
2023-08-09T12:00	3754	638	-9.4		298	12
2023-08-09T12:00	3775	636	-9.4	-27.2	298	11
2023-08-09T12:00	3806	633	-9.6	-27.3	299	11
2023-08-09T12:00	3825	632	-9.8	-27.8	302	11
2023-08-09T12:00	3846	630	-9.8	-28.0	304	11
2023-08-09T12:00	3869	628	-10.0	-28.0	305	12
2023-08-09T12:00	3887	627	-10.2	-27.5	304	13
2023-08-09T12:00	3906	625	-10.2	-27.3	301	13
2023-08-09T12:00	3932	623	-10.3	-28.3	299	14
2023-08-09T12:00	3954	621	-10.3	-29.9	297	14
2023-08-09T12:00	3972	620	-10.3	-29.2	297	14
2023-08-09T12:00	3997	618	-10.4	-27.2	299	14
2023-08-09T12:00	4016	616	-10.5	-23.8	303	14
2023-08-09T12:00	4037	615	-10.7	-23.2	306	15
2023-08-09T12:00	4058	613	-10.8	-23.3	309	14
2023-08-09T12:00	4077	611	-10.9	-23.7	311	14
2023-08-09T12:00	4100	610	-11.1	-24.6	312	13
2023-08-09T12:00	4118	608	-11.2	-25.8	312	13
2023-08-09T12:00	4136	607	-11.3	-26.9	311	13
2023-08-09T12:00	4154	605	-11.5	-26.5	308	13
2023-08-09T12:00	4178	603	-11.6	-26.3	305	13
2023-08-09T12:00	4197	602	-11.9	-26.0	300	13
2023-08-09T12:00	4225	600	-11.9	-26.4	296	13
2023-08-09T12:00	4242	598	-12.0	-21.4	293	14
2023-08-09T12:00	4260	597	-12.0	-20.8	291	14
2023-08-09T12:00	4292	595	-12.2	-20.1	291	14
2023-08-09T12:00	4318	592	-12.3	-19.5	292	14
2023-08-09T12:00	4339	591	-12.3	-18.9	294	14
2023-08-09T12:00	4368	588	-12.5	-18.6	295	13
2023-08-09T12:00	4399	586	-12.5	-18.7	295	12
2023-08-09T12:00	4418	585	-12.9	-18.8	295	12
2023-08-09T12:00	4437	583	-12.9	-18.6	294	12
2023-08-09T12:00	4459	581	-12.9	-19.1	295	12
2023-08-09T12:00	4490	579	-12.9	-18.9	296	12
2023-08-09T12:00	4509	578	-12.9	-18.4	297	13
2023-08-09T12:00	4532	576	-12.8	-18.1	298	13
2023-08-09T12:00	4548	575	-12.7	-17.9	297	13
2023-08-09T12:00	4574	573	-12.8	-18.1	295	12
2023-08-09T12:00	4593	571	-13.0	-18.1	292	12
2023-08-09T12:00	4616	570	-13.2	-18.5	289	12
2023-08-09T12:00	4637	568	-13.3	-18.9	287	12
2023-08-09T12:00	4657	567	-13.5	-18.7	286	12
2023-08-09T12:00	4680	565	-13.7	-18.6	286	12
2023-08-09T12:00	4699	563	-13.9	-18.9	286	13
2023-08-09T12:00	4725	562	-13.8	-18.6	287	14
2023-08-09T12:00	4743	560	-14.0	-18.9	287	15
2023-08-09T12:00	4760	559	-14.0	-19.1	286	15
2023-08-09T12:00	4780	557	-13.9	-18.7	285	15
2023-08-09T12:00	4807	556	-14.0	-18.8	283	15
2023-08-09T12:00	4830	554	-14.0	-18.5	283	15
2023-08-09T12:00	4858	552	-14.1	-18.9	283	15
2023-08-09T12:00	4882	550	-14.3	-19.0	285	14
2023-08-09T12:00	4906	548	-14.5	-19.2	287	14
2023-08-09T12:00	4929	547	-14.7	-19.3	289	14
2023-08-09T12:00	4953	545	-15.0	-19.4	291	14
2023-08-09T12:00	4975	543	-15.1	-19.3	291	13
2023-08-09T12:00	4994	542	-15.3	-19.3	290	14
2023-08-09T12:00	5017	540	-15.4	-19.3	287	14
2023-08-09T12:00	5036	539	-15.6	-19.4	285	15
2023-08-09T12:00	5063	537	-15.7	-19.2	282	16
2023-08-09T12:00	5083	536	-16.0	-19.3	280	16
2023-08-09T12:00	5104	534	-16.1	-19.5	278	16
2023-08-09T12:00	5125	533	-16.1	-19.8	277	16
2023-08-09T12:00	5150	531	-16.2	-19.7	276	16
2023-08-09T12:00	5175	529	-16.4	-19.8	275	16
2023-08-09T12:00	5202	527	-16.3	-19.7	274	15
2023-08-09T12:00	5223	526	-16.6	-19.7	274	15
2023-08-09T12:00	5246	524	-16.7	-19.6	275	15
2023-08-09T12:00	5266	523	-16.9	-20.0	275	15
2023-08-09T12:00	5285	521	-16.9	-19.9	276	15
2023-08-09T12:00	5307	520	-17.1	-20.0	276	14
2023-08-09T12:00	5330	518	-17.2	-19.8	276	14
2023-08-09T12:00	5354	517	-17.3	-19.9	277	13
2023-08-09T12:00	5392	514	-17.4	-19.6	279	13
2023-08-09T12:00	5418	512	-17.4	-20.0	280	13
2023-08-09T12:00	5445	511	-17.5	-20.1	281	13
2023-08-09T12:00	5463	509	-17.5	-19.5	281	13
2023-08-09T12:00	5483	508	-17.4	-19.7	281	13
2023-08-09T12:00	5500	507	-17.5	-19.5	280	13
2023-08-09T12:00	5519	505	-17.5	-19.5	281	13
2023-08-09T12:00	5541	504	-17.4	-19.5	283	12
2023-08-09T12:00	5560	503	-17.4	-19.6	285	12
2023-08-09T12:00	5580	501	-17.4	-19.6	287	12
2023-08-09T12:00	5599	500	-17.5	-19.6	287	12
2023-08-09T12:00	5614	499	-17.4	-19.8	285	13
2023-08-09T12:00	5641	497	-17.4	-19.9	282	13
2023-08-09T12:00	5663	496	-17.6	-19.8	279	13
2023-08-09T12:00	5678	495	-17.6	-20.2	276	13
2023-08-09T12:00	5701	493	-17.4	-19.8	275	13
2023-08-09T12:00	5721	492	-17.5	-20.0	274	13
2023-08-09T12:00	5737	491	-17.5	-20.0	274	12
2023-08-09T12:00	5758	490	-17.5	-19.9	275	12
2023-08-09T12:00	5777	488	-17.7	-20.0	276	12
2023-08-09T12:00	5801	487	-17.7	-20.2	277	12
2023-08-09T12:00	5816	486	-17.9	-20.2	280	11
2023-08-09T12:00	5838	484	-17.9	-20.3	282	11
2023-08-09T12:00	5858	483	-18.1	-20.3	284	10
2023-08-09T12:00	5876	482	-18.3	-20.4	285	10
2023-08-09T12:00	5903	480	-18.4	-20.7	285	10
2023-08-09T12:00	5925	479	-18.4	-20.8	284	10
2023-08-09T12:00	5943	477	-18.5	-20.7	281	10
2023-08-09T12:00	5966	476	-18.5	-20.8	279	10
2023-08-09T12:00	5992	474	-18.6	-20.7	278	11
2023-08-09T12:00	6022	473	-18.9	-21.0	278	11
2023-08-09T12:00	6037	472	-19.0	-21.0	279	12
2023-08-09T12:00	6059	470	-19.1	-21.0	280	12
2023-08-09T12:00	6078	469	-19.1	-21.2	281	12
2023-08-09T12:00	6097	468	-19.3	-21.3	282	12
2023-08-09T12:00	6118	466	-19.4	-21.7	283	12
2023-08-09T12:00	6140	465	-19.6	-21.9	283	12
2023-08-09T12:00	6165	464	-19.7	-22.2	284	12
2023-08-09T12:00	6197	462	-19.9	-22.5	286	12
2023-08-09T12:00	6217	460	-20.1	-22.7	287	12
2023-08-09T12:00	6244	459	-20.1	-23.0	289	13
2023-08-09T12:00	6265	457	-20.4	-23.0	290	13
2023-08-09T12:00	6288	456	-20.4	-23.2	292	12
2023-08-09T12:00	6316	454	-20.6	-23.3	294	12
2023-08-09T12:00	6337	453	-20.9	-23.5	295	12
2023-08-09T12:00	6359	452	-21.0	-23.5	295	12
2023-08-09T12:00	6381	450	-21.2	-23.6	294	12
2023-08-09T12:00	6404	449	-21.3		292	12
2023-08-09T12:00	6430	447	-21.4	-24.2	290	12
2023-08-09T12:00	6451	446	-21.6	-24.2	290	12
2023-08-09T12:00	6473	445	-21.7	-24.7	290	12
2023-08-09T12:00	6505	443	-21.9	-24.8	292	12
2023-08-09T12:00	6528	441	-22.1	-25.1	294	12
2023-08-09T12:00	6551	440	-22.2	-25.1	296	12
2023-08-09T12:00	6572	439	-22.4	-25.2	297	12
2023-08-09T12:00	6593	437	-22.5	-25.1	297	12
2023-08-09T12:00	6620	436	-22.7	-25.4	297	12
2023-08-09T12:00	6642	434	-23.0	-25.6	297	12
2023-08-09T12:00	6668	433	-23.1	-25.9	297	12
2023-08-09T12:00	6693	432	-23.2	-26.0	299	12
2023-08-09T12:00	6714	430	-23.4	-25.8	300	12
2023-08-09T12:00	6738	429	-23.6	-25.9	301	12
2023-08-09T12:00	6761	428	-23.8	-26.2	301	12
2023-08-09T12:00	6789	426	-24.0	-26.6	301	12
2023-08-09T12:00	6815	424	-24.2	-26.8	300	11
2023-08-09T12:00	6842	423	-24.4	-27.0	300	11
2023-08-09T12:00	6862	422	-24.5	-27.2	302	11
2023-08-09T12:00	6889	420	-24.7	-27.3	304	11
2023-08-09T12:00	6915	419	-24.9	-27.4	306	11
2023-08-09T12:00	6939	417	-25.2	-27.5	307	12
2023-08-09T12:00	6974	415	-25.3	-27.7	307	11
2023-08-09T12:00	6997	414	-25.5	-27.9	304	11
2023-08-09T12:00	7024	413	-25.7	-28.0	301	12
2023-08-09T12:00	7044	411	-25.9	-28.2	298	12
2023-08-09T12:00	7065	410	-26.0	-28.3	297	12
2023-08-09T12:00	7087	409	-26.1	-28.5	299	12
2023-08-09T12:00	7106	408	-26.2	-28.6	303	11
2023-08-09T12:00	7138	406	-26.4	-28.9	308	11
2023-08-09T12:00	7159	405	-26.6	-28.9	314	10
2023-08-09T12:00	7189	403	-26.7	-29.4	317	10
2023-08-09T12:00	7212	402	-26.9	-29.4	318	10
2023-08-09T12:00	7237	400	-27.1	-29.5	319	11
2023-08-09T12:00	7267	399	-27.3	-29.8	319	11
2023-08-09T12:00	7294	397	-27.5	-30.0	320	10
2023-08-09T12:00	7331	395	-27.8	-30.1	322	10
2023-08-09T12:00	7353	394	-28.1	-30.3	326	10
2023-08-09T12:00	7376	393	-28.3	-30.2	329	10
2023-08-09T12:00	7401	391	-28.5	-30.7	331	11
2023-08-09T12:00	7423	390	-28.7	-31.0	331	11
2023-08-09T12:00	7448	389	-28.7	-31.0	329	12
2023-08-09T12:00	7477	387	-29.0	-31.3	327	12
2023-08-09T12:00	7503	386	-29.1	-31.8	326	12
2023-08-09T12:00	7522	385	-29.3	-32.1	324	12
2023-08-09T12:00	7548	383	-29.4	-32.3	324	11
2023-08-09T12:00	7575	382	-29.5	-32.6	324	11
2023-08-09T12:00	7598	381	-29.7	-32.8	324	10
2023-08-09T12:00	7622	379	-30.0	-33.0	326	10
2023-08-09T12:00	7643	378	-30.1	-33.3	327	10
2023-08-09T12:00	7665	377	-30.2	-33.5	329	10
2023-08-09T12:00	7687	376	-30.4	-33.7	331	11
2023-08-09T12:00	7712	375	-30.7	-33.9	332	11
2023-08-09T12:00	7736	373	-30.9	-34.1	332	11
2023-08-09T12:00	7762	372	-31.1	-34.5	331	11
2023-08-09T12:00	7787	371	-31.3	-34.4	329	11
2023-08-09T12:00	7815	369	-31.6	-34.6	326	11
2023-08-09T12:00	7843	368	-31.8	-34.9	323	10
2023-08-09T12:00	7869	366	-32.0	-35.0	321	10
2023-08-09T12:00	7896	365	-32.0	-35.1	320	9
2023-08-09T12:00	7917	364	-32.2	-35.1	320	9
2023-08-09T12:00	7944	363	-32.4	-35.3	321	9
2023-08-09T12:00	7966	361	-32.6	-35.3	320	9
2023-08-09T12:00	7986	360	-32.8	-35.6	318	9
2023-08-09T12:00	8010	359	-32.9	-35.9	315	9
2023-08-09T12:00	8036	358	-33.2	-35.9	311	9
2023-08-09T12:00	8059	357	-33.3	-36.1	307	10
2023-08-09T12:00	8091	355	-33.6	-36.3	306	11
2023-08-09T12:00	8120	354	-33.8	-36.3	306	11
2023-08-09T12:00	8143	352	-34.0	-36.8	307	12
2023-08-09T12:00	8163	351	-34.1	-37.0	310	12
2023-08-09T12:00	8196	350	-34.3	-37.2	312	13
2023-08-09T12:00	8215	349	-34.7		313	14
2023-08-09T12:00	8244	348	-34.8	-37.5	313	14
2023-08-09T12:00	8261	346	-35.1	-37.6	313	14
2023-08-09T12:00	8286	345	-35.3	-38.0	311	14
2023-08-09T12:00	8313	344	-35.4	-37.9	310	14
2023-08-09T12:00	8338	343	-35.7	-38.2	309	13
2023-08-09T12:00	8359	342	-35.8	-38.2	309	13
2023-08-09T12:00	8387	340	-36.2	-38.6	309	12
2023-08-09T12:00	8408	339	-36.4	-38.7	308	12
2023-08-09T12:00	8436	338	-36.5	-38.8	306	12
2023-08-09T12:00	8458	337	-36.8	-39.2	303	12
2023-08-09T12:00	8485	336	-37.0	-38.8	301	13
2023-08-09T12:00	8510	334	-37.3	-39.1	300	13
2023-08-09T12:00	8532	333	-37.5	-39.3	301	13
2023-08-09T12:00	8553	332	-37.6	-39.4	302	13
2023-08-09T12:00	8574	331	-37.8	-40.0	304	13
2023-08-09T12:00	8598	330	-38.0	-40.2	306	13
2023-08-09T12:00	8619	329	-38.3	-40.2	309	13
2023-08-09T12:00	8640	328	-38.5	-40.5	310	13
2023-08-09T12:00	8662	327	-38.6		312	13
2023-08-09T12:00	8687	326	-38.7	-40.7	314	13
2023-08-09T12:00	8714	325	-39.1	-40.8	315	13
2023-08-09T12:00	8729	324	-39.3	-41.2	316	13
2023-08-09T12:00	8750	323	-39.4	-41.8	315	13
2023-08-09T12:00	8772	322	-39.5	-42.7	315	13
2023-08-09T12:00	8793	321	-39.6	-43.1	314	13
2023-08-09T12:00	8817	320	-39.8	-43.7	313	13
2023-08-09T12:00	8836	319	-40.0	-43.9	313	13
2023-08-09T12:00	8857	318	-40.1	-43.9	313	13
2023-08-09T12:00	8877	317	-40.2	-44.3	313	13
2023-08-09T12:00	8896	316	-40.4	-44.3	314	13
2023-08-09T12:00	8917	315	-40.7	-44.6	315	13
2023-08-09T12:00	8937	314	-40.9	-44.8	315	13
2023-08-09T12:00	8959	313	-41.1	-44.9	315	13
2023-08-09T12:00	8978	312	-41.3	-44.9	315	13
2023-08-09T12:00	9003	311	-41.5	-44.9	315	13
2023-08-09T12:00	9020	310	-41.7	-45.3	314	13
2023-08-09T12:00	9041	309	-41.8	-45.3	314	13
2023-08-09T12:00	9061	308	-42.0	-45.5	313	13
2023-08-09T12:00	9081	308	-42.2	-45.8	313	13
2023-08-09T12:00	9101	307	-42.3	-45.9	313	13
2023-08-09T12:00	9116	306	-42.5	-46.4	313	14
2023-08-09T12:00	9139	305	-42.7	-46.4	313	14
2023-08-09T12:00	9160	304	-42.9	-46.5	314	14
2023-08-09T12:00	9181	303	-43.1	-46.8	314	14
2023-08-09T12:00	9199	302	-43.3	-47.3	314	13
2023-08-09T12:00	9217	301	-43.4	-48.1	313	13
2023-08-09T12:00	9237	301	-43.4	-48.0	313	13
2023-08-09T12:00	9256	300	-43.5	-47.9	312	13
2023-08-09T12:00	9278	299	-43.8	-48.0	312	14
2023-08-09T12:00	9303	298	-44.1	-47.9	313	14
2023-08-09T12:00	9325	297	-44.3	-48.0	313	14
2023-08-09T12:00	9348	296	-44.6	-47.9	314	14
2023-08-09T12:00	9374	294	-44.8	-47.6	314	14
2023-08-09T12:00	9396	293	-45.0	-48.0	314	14
2023-08-09T12:00	9418	292	-45.2	-48.2	314	14
2023-08-09T12:00	9443	291	-45.5	-48.1	313	14
2023-08-09T12:00	9473	290	-45.7	-48.2	314	14
2023-08-09T12:00	9500	289	-46.0	-48.5	314	14
2023-08-09T12:00	9518	288	-46.1	-48.4	314	14
2023-08-09T12:00	9541	287	-46.3	-48.4	312	15
2023-08-09T12:00	9568	286	-46.5	-48.4	309	15
2023-08-09T12:00	9595	285	-46.7	-48.4	306	16
2023-08-09T12:00	9625	284	-47.1	-48.6	303	17
2023-08-09T12:00	9649	282	-47.4	-48.8	302	18
2023-08-09T12:00	9677	281	-47.6	-48.9	302	18
2023-08-09T12:00	9697	280	-47.8	-48.9	303	18
2023-08-09T12:00	9720	280	-47.9	-49.1	304	18
2023-08-09T12:00	9742	279	-48.0	-49.1	305	17
2023-08-09T12:00	9760	278	-48.2	-49.5	306	17
2023-08-09T12:00	9785	277	-48.5	-49.7	306	17
2023-08-09T12:00	9813	276	-48.7	-49.8	306	18
2023-08-09T12:00	9836	275	-49.0	-50.1	306	18
2023-08-09T12:00	9861	274	-49.1	-50.3	306	17
2023-08-09T12:00	9886	273	-49.5	-50.6	307	17
2023-08-09T12:00	9911	271	-49.7	-50.7	308	17
2023-08-09T12:00	9934	271	-49.8	-50.9	310	17
2023-08-09T12:00	9950	270	-50.0	-51.3	312	17
2023-08-09T12:00	9972	269	-50.2	-52.0	314	17
2023-08-09T12:00	9992	268	-50.1	-53.7	316	17
2023-08-09T12:00	10012	267	-49.9	-56.5	318	17
2023-08-09T12:00	10033	266	-49.3	-60.2	320	17
2023-08-09T12:00	10055	266	-49.0	-62.1	321	17
2023-08-09T12:00	10077	265	-49.0	-60.8	322	18
2023-08-09T12:00	10094	264	-49.2	-60.2	322	18
2023-08-09T12:00	10112	263	-49.1	-60.5	322	18
2023-08-09T12:00	10131	262	-49.0	-62.3	322	18
2023-08-09T12:00	10152	262	-48.8	-63.5	323	18
2023-08-09T12:00	10171	261	-48.8	-63.3	324	18
2023-08-09T12:00	10192	260	-48.9	-63.1	326	18
2023-08-09T12:00	10213	259	-49.0	-63.2	327	18
2023-08-09T12:00	10232	258	-48.9	-63.2	329	18
2023-08-09T12:00	10253	258	-48.8	-63.3	330	18
2023-08-09T12:00	10272	257	-48.7	-63.3	332	18
2023-08-09T12:00	10294	256	-48.7	-63.2	333	18
2023-08-09T12:00	10316	255	-48.9	-63.3	334	18
2023-08-09T12:00	10337	254	-49.1	-63.4	336	18
2023-08-09T12:00	10360	254	-49.1	-63.2	337	18
2023-08-09T12:00	10382	253	-49.4	-63.4	337	18
2023-08-09T12:00	10405	252	-49.5	-63.3	336	18
2023-08-09T12:00	10426	251	-49.5	-63.4	335	18
2023-08-09T12:00	10448	250	-49.4	-63.8	334	18
2023-08-09T12:00	10469	249	-49.2	-64.0	333	17
2023-08-09T12:00	10493	248	-49.2	-64.2	333	17
2023-08-09T12:00	10515	248	-49.1	-64.6	333	17
2023-08-09T12:00	10537	247	-49.0	-65.4	334	18
2023-08-09T12:00	10561	246	-48.9	-66.1	334	18
2023-08-09T12:00	10584	245	-48.5	-66.4	333	18
2023-08-09T12:00	10607	244	-48.1	-66.7	331	18
2023-08-09T12:00	10629	243	-47.9	-67.1	329	18
2023-08-09T12:00	10652	243	-47.6	-67.6	327	19
2023-08-09T12:00	10672	242	-47.5	-69.0	325	19
2023-08-09T12:00	10694	241	-47.0	-71.0	324	19
2023-08-09T12:00	10715	240	-46.3	-72.1	324	20
2023-08-09T12:00	10734	239	-46.1	-72.1	325	20
2023-08-09T12:00	10755	239	-46.0	-72.3	325	19
2023-08-09T12:00	10774	238	-45.4	-72.3	326	19
2023-08-09T12:00	10797	237	-45.2	-72.6	327	18
2023-08-09T12:00	10825	236	-45.3	-73.3	327	18
2023-08-09T12:00	10845	236	-45.2	-73.2	326	18
2023-08-09T12:00	10867	235	-45.2	-73.2	324	17
2023-08-09T12:00	10887	234	-45.4	-73.6	323	17
2023-08-09T12:00	10908	233	-45.1	-74.0	321	17
2023-08-09T12:00	10928	233	-44.9	-74.2	321	17
2023-08-09T12:00	10947	232	-44.5	-74.2	320	17
2023-08-09T12:00	10964	231	-44.6	-74.3	321	16
2023-08-09T12:00	10987	231	-44.7	-74.4	321	16
2023-08-09T12:00	11008	230	-44.7	-74.4	322	17
2023-08-09T12:00	11027	229	-44.6	-74.3	323	17
2023-08-09T12:00	11047	229	-44.5	-74.2	323	17
2023-08-09T12:00	11070	228	-44.3	-74.1	324	17
2023-08-09T12:00	11087	227	-44.4	-74.2	324	17
2023-08-09T12:00	11111	226	-44.6	-74.3	325	18
2023-08-09T12:00	11130	226	-44.5	-74.2	326	18
2023-08-09T12:00	11150	225	-44.5	-74.6	326	18
2023-08-09T12:00	11168	224	-44.4	-74.5	327	19
2023-08-09T12:00	11190	224	-44.5	-74.6	327	19
2023-08-09T12:00	11213	223	-44.4	-74.5	327	19
2023-08-09T12:00	11234	222	-44.1	-74.7	327	19
2023-08-09T12:00	11256	222	-43.8	-74.9	327	19
2023-08-09T12:00	11277	221	-43.6	-74.3	327	19
2023-08-09T12:00	11296	220	-43.6	-74.3	327	19
2023-08-09T12:00	11314	220	-43.5	-73.9	327	18
2023-08-09T12:00	11333	219	-43.5	-74.2	327	18
2023-08-09T12:00	11356	218	-43.5	-74.2	327	18
2023-08-09T12:00	11381	217	-43.6	-74.7	327	18
2023-08-09T12:00	11404	217	-43.7	-74.8	327	17
2023-08-09T12:00	11427	216	-43.8	-74.9	328	17
2023-08-09T12:00	11447	215	-43.6	-74.7	328	17
2023-08-09T12:00	11467	215	-43.4	-74.6	328	17
2023-08-09T12:00	11489	214	-43.5	-75.1	328	17
2023-08-09T12:00	11509	213	-43.4	-75.0	328	17
2023-08-09T12:00	11528	213	-43.5	-75.1	328	16
2023-08-09T12:00	11550	212	-43.6	-75.2	328	16
2023-08-09T12:00	11572	211	-43.9	-75.4	328	16
2023-08-09T12:00	11594	211	-44.0	-75.5	327	16
2023-08-09T12:00	11616	210	-44.1	-75.5	327	16
2023-08-09T12:00	11634	209	-44.4	-75.8	327	16
2023-08-09T12:00	11652	209	-44.4	-75.8	327	16
2023-08-09T12:00	11676	208	-44.5	-75.8	327	16
2023-08-09T12:00	11694	208	-44.6	-75.9	327	16
2023-08-09T12:00	11715	207	-44.6	-75.9	328	16
2023-08-09T12:00	11738	206	-44.8	-76.1	329	16
2023-08-09T12:00	11758	206	-45.0	-76.2	330	16
2023-08-09T12:00	11779	205	-44.8	-76.5	332	16
2023-08-09T12:00	11803	204	-44.6	-76.4	333	16
2023-08-09T12:00	11823	204	-44.6	-76.9	333	16
2023-08-09T12:00	11845	203	-44.6	-76.9	332	16
2023-08-09T12:00	11867	202	-44.4	-76.7	331	16
2023-08-09T12:00	11888	202	-44.4	-76.7	330	16
2023-08-09T12:00	11910	201	-44.6	-76.9	330	16
2023-08-09T12:00	11932	200	-44.7	-77.0	330	17
2023-08-09T12:00	11954	200	-44.8	-77.0	329	17
2023-08-09T12:00	11977	199	-44.9	-77.1	328	17
2023-08-09T12:00	12001	198	-44.9	-77.1	327	17
2023-08-09T12:00	12019	198	-44.8	-77.0	326	17
2023-08-09T12:00	12040	197	-44.8	-77.0	325	17
2023-08-09T12:00	12062	196	-44.7	-77.0	324	17
2023-08-09T12:00	12085	196	-44.5	-77.4	324	17
2023-08-09T12:00	12106	195	-44.2	-77.1	325	17
2023-08-09T12:00	12126	195	-44.1	-77.1	325	17
2023-08-09T12:00	12149	194	-44.1	-77.1	326	17
2023-08-09T12:00	12172	193	-44.1	-77.1	327	16
2023-08-09T12:00	12195	193	-44.0	-77.0	328	16
2023-08-09T12:00	12216	192	-44.0	-77.0	328	16
2023-08-09T12:00	12238	191	-44.1	-77.1	328	16
2023-08-09T12:00	12264	191	-44.2	-77.1	329	16
2023-08-09T12:00	12286	190	-44.2	-77.1	330	16
2023-08-09T12:00	12308	189	-44.2	-77.1	332	16
2023-08-09T12:00	12329	189	-44.1	-77.1	333	16
2023-08-09T12:00	12349	188	-44.2	-77.7	333	16
2023-08-09T12:00	12371	188	-44.1	-77.7	332	16
2023-08-09T12:00	12389	187	-44.0	-77.6	331	16
2023-08-09T12:00	12410	187	-43.9	-77.5	329	16
2023-08-09T12:00	12429	186	-43.9	-77.5	328	16
2023-08-09T12:00	12450	185	-44.1	-77.7	327	16
2023-08-09T12:00	12469	185	-44.0	-77.6	326	16
2023-08-09T12:00	12491	184	-44.1	-77.7	325	16
2023-08-09T12:00	12511	184	-44.2	-77.7	325	16
2023-08-09T12:00	12531	183	-44.0	-77.6	325	16
2023-08-09T12:00	12552	183	-44.0	-77.6	325	17
2023-08-09T12:00	12575	182	-44.1	-77.7	326	17
2023-08-09T12:00	12599	181	-44.0	-77.6	326	17
2023-08-09T12:00	12621	181	-43.9	-77.5	328	17
2023-08-09T12:00	12640	180	-43.6	-77.3	329	16
2023-08-09T12:00	12661	180	-43.4	-77.8	330	16
2023-08-09T12:00	12687	179	-43.4	-77.8	330	16
2023-08-09T12:00	12708	178	-43.3	-77.7	330	15
2023-08-09T12:00	12728	178	-43.1	-77.6	330	15
2023-08-09T12:00	12749	177	-43.2	-77.7	330	15
2023-08-09T12:00	12772	177	-43.2	-77.7	331	14
2023-08-09T12:00	12794	176	-43.3	-77.7	332	14
2023-08-09T12:00	12816	176	-43.5	-77.9	334	14
2023-08-09T12:00	12835	175	-43.7	-78.0	335	14
2023-08-09T12:00	12857	174	-43.5	-77.9	337	14
2023-08-09T12:00	12877	174	-43.4	-77.8	338	14
2023-08-09T12:00	12897	173	-43.3	-77.7	339	14
2023-08-09T12:00	12917	173	-43.2	-77.7	340	13
2023-08-09T12:00	12937	172	-43.2	-77.7	341	13
2023-08-09T12:00	12957	172	-43.2	-77.7	342	12
2023-08-09T12:00	12977	171	-43.0	-77.5	344	12
2023-08-09T12:00	13001	171	-42.9	-78.2	345	12
2023-08-09T12:00	13024	170	-43.1	-77.6	346	12
2023-08-09T12:00	13044	170	-43.2	-77.7	346	12
2023-08-09T12:00	13064	169	-43.2	-77.7	346	12
2023-08-09T12:00	13084	169	-43.3	-77.7	346	12
2023-08-09T12:00	13106	168	-43.5	-77.9	345	12
2023-08-09T12:00	13130	168	-43.5	-77.9	345	12
2023-08-09T12:00	13149	167	-43.6	-78.0	344	12
2023-08-09T12:00	13174	166	-43.6	-78.0	342	12
2023-08-09T12:00	13196	166	-43.9	-78.2	341	12
2023-08-09T12:00	13215	165	-43.9	-78.2	341	12
2023-08-09T12:00	13238	165	-44.0	-78.2	341	12
2023-08-09T12:00	13258	164	-44.1	-78.3	341	12
2023-08-09T12:00	13278	164	-44.2	-78.4	341	12
2023-08-09T12:00	13300	163	-44.3	-78.5	342	12
2023-08-09T12:00	13320	163	-44.4	-78.5	343	11
2023-08-09T12:00	13340	162	-44.3	-78.5	344	11
2023-08-09T12:00	13362	162	-44.3	-78.5	344	11
2023-08-09T12:00	13382	161	-44.3	-78.5	344	11
2023-08-09T12:00	13405	161	-44.4	-78.5	344	10
2023-08-09T12:00	13430	160	-44.3	-78.5	345	10
2023-08-09T12:00	13452	160	-44.1	-79.0	345	10
2023-08-09T12:00	13477	159	-44.0	-79.0	347	9
2023-08-09T12:00	13500	159	-44.0	-79.0	348	9
2023-08-09T12:00	13524	158	-44.2	-79.1	350	9
2023-08-09T12:00	13550	157	-44.3	-79.2	350	8
2023-08-09T12:00	13574	157	-44.4	-78.5	350	8
2023-08-09T12:00	13594	156	-44.6	-78.7	349	8
2023-08-09T12:00	13613	156	-44.7	-78.8	349	9
2023-08-09T12:00	13633	155	-44.8	-78.8	348	9
2023-08-09T12:00	13655	155	-44.8	-78.8	348	9
2023-08-09T12:00	13677	154	-45.0	-79.0	347	9
2023-08-09T12:00	13700	154	-45.0	-79.0	346	9
2023-08-09T12:00	13724	153	-45.2	-79.1	344	9
2023-08-09T12:00	13745	153	-45.2	-79.1	342	10
2023-08-09T12:00	13767	152	-45.0	-79.0	341	10
2023-08-09T12:00	13794	152	-45.1	-79.0	340	10
2023-08-09T12:00	13816	151	-45.1	-79.8	339	11
2023-08-09T12:00	13834	151	-44.9	-79.6	338	11
2023-08-09T12:00	13860	150	-45.0	-79.7	337	11
2023-08-09T12:00	13884	150	-45.1	-79.8	336	11
2023-08-09T12:00	13907	149	-45.1	-79.0	336	12
2023-08-09T12:00	13931	149	-45.1	-79.0	335	12
2023-08-09T12:00	13953	148	-45.4	-79.3	335	12
2023-08-09T12:00	13978	148	-45.5	-79.3	336	11
2023-08-09T12:00	14004	147	-45.7	-79.5	338	11
2023-08-09T12:00	14028	147	-45.7	-79.5	340	11
2023-08-09T12:00	14050	146	-45.6		342	11
2023-08-09T12:00	14071	146	-45.6		344	10
2023-08-09T12:00	14092	145	-45.6		346	10
2023-08-09T12:00	14113	145	-45.6		347	10
2023-08-09T12:00	14138	144	-45.6		347	10
2023-08-09T12:00	14163	144	-45.7	-79.5	347	10
2023-08-09T12:00	14188	143	-45.8	-79.6	348	10
2023-08-09T12:00	14211	143	-46.0	-79.7	347	10
2023-08-09T12:00	14237	142	-46.3	-79.9	347	10
2023-08-09T12:00	14262	141	-46.4	-80.0	347	10
2023-08-09T12:00	14285	141	-46.5	-80.1	348	11
2023-08-09T12:00	14308	140	-46.7	-80.2	349	11
2023-08-09T12:00	14330	140	-46.9	-80.4	350	11
2023-08-09T12:00	14350	140	-47.0	-80.4	352	11
2023-08-09T12:00	14372	139	-47.0	-80.4	354	11
2023-08-09T12:00	14398	139	-46.9	-80.4	355	11
2023-08-09T12:00	14420	138	-46.8	-80.3	355	11
2023-08-09T12:00	14441	138	-46.8	-80.3	355	12
2023-08-09T12:00	14465	137	-46.8	-80.3	355	12
2023-08-09T12:00	14490	137	-46.8	-80.3	355	12
2023-08-09T12:00	14515	136	-46.9	-80.4	355	12
2023-08-09T12:00	14537	136	-47.0	-80.4	355	12
2023-08-09T12:00	14561	135	-47.1	-80.5	356	12
2023-08-09T12:00	14587	135	-47.1	-80.5	357	12
2023-08-09T12:00	14613	134	-47.3	-80.6	357	12
2023-08-09T12:00	14633	134	-47.2	-80.6	358	12
2023-08-09T12:00	14659	133	-47.2	-80.6	359	11
2023-08-09T12:00	14683	133	-47.4	-80.7	360	11
2023-08-09T12:00	14708	132	-47.5	-80.8	1	10
2023-08-09T12:00	14732	132	-47.9	-80.4	2	9
2023-08-09T12:00	14757	131	-47.9	-81.1	3	9
2023-08-09T12:00	14779	131	-47.9	-80.4	4	8
2023-08-09T12:00	14800	130	-47.9	-80.4	3	8
2023-08-09T12:00	14823	130	-48.0	-80.5	2	8
2023-08-09T12:00	14841	130	-48.0	-80.5	360	8
2023-08-09T12:00	14861	129	-47.9	-81.1	358	8
2023-08-09T12:00	14885	129	-47.9	-81.1	356	8
2023-08-09T12:00	14905	128	-47.6	-80.9	355	8
2023-08-09T12:00	14931	128	-47.7	-80.9	355	9
2023-08-09T12:00	14955	127	-47.8	-81.0	355	9
2023-08-09T12:00	14976	127	-47.8	-80.4	355	9
2023-08-09T12:00	15001	127	-47.8	-80.4	355	9
2023-08-09T12:00	15021	126	-47.8	-80.4	355	10
2023-08-09T12:00	15046	126	-48.1	-80.6	356	10
2023-08-09T12:00	15070	125	-48.0	-80.5	356	10
2023-08-09T12:00	15090	125	-48.0	-80.5	357	11
2023-08-09T12:00	15113	124	-48.3	-80.7	358	11
2023-08-09T12:00	15131	124	-48.4	-80.8	359	11
2023-08-09T12:00	15152	124	-48.4	-80.8	359	11
2023-08-09T12:00	15173	123	-48.2	-80.7	359	10
2023-08-09T12:00	15197	123	-47.9	-80.4	359	10
2023-08-09T12:00	15216	122	-48.0	-81.2	357	9
2023-08-09T12:00	15236	122	-48.1	-81.2	356	9
2023-08-09T12:00	15261	122	-48.2	-81.3	354	8
2023-08-09T12:00	15279	121	-48.3	-81.4	352	7
2023-08-09T12:00	15300	121	-48.3	-81.4	351	7
2023-08-09T12:00	15323	120	-48.1	-81.2	351	7
2023-08-09T12:00	15346	120	-48.1	-81.2	352	6
2023-08-09T12:00	15370	120	-48.0	-81.2	353	6
2023-08-09T12:00	15392	119	-48.0	-81.2	354	7
2023-08-09T12:00	15415	119	-47.9	-81.1	355	7
2023-08-09T12:00	15439	118	-47.7	-80.9	354	7
2023-08-09T12:00	15464	118	-47.8	-81.0	353	7
2023-08-09T12:00	15488	117	-47.6	-80.9	352	8
2023-08-09T12:00	15511	117	-47.7	-80.9	352	8
2023-08-09T12:00	15533	117	-47.7	-80.9	353	8
2023-08-09T12:00	15560	116	-47.9	-81.1	356	8
2023-08-09T12:00	15583	116	-48.0	-81.2	358	8
2023-08-09T12:00	15608	115	-48.1	-81.2	360	8
2023-08-09T12:00	15634	115	-48.1	-81.2	0	7
2023-08-09T12:00	15658	115	-48.2	-81.3	359	7
2023-08-09T12:00	15683	114	-48.2	-81.3	356	6
2023-08-09T12:00	15708	114	-48.2	-81.3	352	6
2023-08-09T12:00	15730	113	-48.1	-81.9	348	6
2023-08-09T12:00	15755	113	-48.0	-81.9	344	6
2023-08-09T12:00	15779	112	-47.5	-81.5	341	6
2023-08-09T12:00	15803	112	-47.5	-81.5	340	6
2023-08-09T12:00	15827	112	-47.8	-81.7	339	7
2023-08-09T12:00	15853	111	-47.8	-81.7	339	7
2023-08-09T12:00	15875	111	-47.8	-81.7	340	8
2023-08-09T12:00	15900	110	-48.0	-81.2	341	8
2023-08-09T12:00	15928	110	-48.1	-81.2	342	9
2023-08-09T12:00	15951	110	-48.3	-81.4	344	9
2023-08-09T12:00	15973	109	-48.5	-81.5	346	9
2023-08-09T12:00	15998	109	-48.4	-81.4	349	10
2023-08-09T12:00	16023	108	-48.5	-81.5	351	9
2023-08-09T12:00	16049	108	-48.7	-81.7	353	9
2023-08-09T12:00	16076	107	-48.8	-81.7	356	9
2023-08-09T12:00	16100	107	-48.9	-81.8	359	9
2023-08-09T12:00	16126	107	-49.0	-81.9	2	8
2023-08-09T12:00	16151	106	-49.0	-81.9	4	8
2023-08-09T12:00	16176	106	-48.9	-81.8	5	8
2023-08-09T12:00	16202	105	-48.9	-81.8	6	8
2023-08-09T12:00	16229	105	-49.2	-82.0	7	8
2023-08-09T12:00	16254	105	-49.4	-82.2	9	8
2023-08-09T12:00	16277	104	-49.3	-82.1	12	7
2023-08-09T12:00	16300	104	-49.3	-82.1	15	7
2023-08-09T12:00	16323	103	-49.4	-82.2	18	7
2023-08-09T12:00	16347	103	-49.4	-82.2	21	7
2023-08-09T12:00	16371	103	-49.3	-82.1	22	7
2023-08-09T12:00	16391	102	-49.2	-82.0	24	7
2023-08-09T12:00	16418	102	-49.2	-82.7	27	6
2023-08-09T12:00	16441	102	-48.9	-82.5	30	6
2023-08-09T12:00	16467	101	-49.0	-82.6	31	6
2023-08-09T12:00	16491	101	-48.8	-82.4	31	6
2023-08-09T12:00	16515	101	-48.6	-82.3	28	5
2023-08-09T12:00	16539	100	-48.6	-82.3	25	6
2023-08-09T12:00	16564	100	-48.8	-82.4	22	6
2023-08-09T12:00	16588	99	-48.5	-82.2	20	6
2023-08-09T12:00	16612	99	-48.4	-82.2	20	6
2023-08-09T12:00	16634	99	-48.4	-82.2	22	6
2023-08-09T12:00	16659	98	-48.4	-82.2	24	5
2023-08-09T12:00	16682	98	-48.7	-82.4	27	5
2023-08-09T12:00	16703	98	-48.6	-82.3	29	5
2023-08-09T12:00	16728	97	-48.6	-82.3	29	5
2023-08-09T12:00	16753	97	-48.5	-82.2	29	5
2023-08-09T12:00	16778	97	-48.7	-82.4	27	5
2023-08-09T12:00	16800	96	-48.8	-82.4	25	5
2023-08-09T12:00	16825	96	-49.1	-82.7	22	4
2023-08-09T12:00	16847	96	-49.0	-82.6	18	4
2023-08-09T12:00	16869	95	-48.9	-82.5	15	4
2023-08-09T12:00	16897	95	-48.9	-82.5	11	4
2023-08-09T12:00	16919	95	-49.0	-82.6	9	4
2023-08-09T12:00	16943	94	-49.3	-82.8	7	3
2023-08-09T12:00	16967	94	-49.3	-82.8	5	3
2023-08-09T12:00	16990	94	-49.4	-82.9	3	3
2023-08-09T12:00	17012	93	-49.6	-83.0	0	3
2023-08-09T12:00	17039	93	-49.5	-82.3	357	3
2023-08-09T12:00	17062	92	-49.5	-82.3	353	3
2023-08-09T12:00	17087	92	-49.8	-82.5	351	3
2023-08-09T12:00	17112	92	-50.0	-82.6	350	4
2023-08-09T12:00	17134	91	-50.1	-82.7	350	4
2023-08-09T12:00	17158	91	-50.2	-82.8	351	5
2023-08-09T12:00	17183	91	-50.2	-82.8	351	5
2023-08-09T12:00	17206	90	-50.3	-82.8	351	5
2023-08-09T12:00	17234	90	-50.4	-82.9	352	6
2023-08-09T12:00	17255	90	-50.5	-83.0	354	6
2023-08-09T12:00	17282	89	-50.3	-82.8	356	6
2023-08-09T12:00	17305	89	-50.2	-82.8	0	6
2023-08-09T12:00	17332	89	-50.1	-83.4	5	6
2023-08-09T12:00	17357	88	-50.2	-82.8	10	6
2023-08-09T12:00	17380	88	-50.3	-82.8	14	7
2023-08-09T12:00	17404	88	-50.3	-82.8	18	7
2023-08-09T12:00	17431	87	-50.4	-82.9	22	7
2023-08-09T12:00	17455	87	-50.6	-83.1	26	7
2023-08-09T12:00	17479	87	-50.8	-83.2	31	7
2023-08-09T12:00	17508	86	-50.9	-83.3	37	8
2023-08-09T12:00	17533	86	-51.0	-83.3	42	8
2023-08-09T12:00	17559	86	-51.0	-83.3	46	8
2023-08-09T12:00	17584	85	-51.1	-83.4	50	8
2023-08-09T12:00	17610	85	-51.2	-83.5	53	8
2023-08-09T12:00	17637	85	-51.3	-83.6	55	7
2023-08-09T12:00	17661	84	-51.4	-83.6	56	7
2023-08-09T12:00	17686	84	-51.3	-83.6	56	6
2023-08-09T12:00	17713	84	-51.4	-83.6	55	5
2023-08-09T12:00	17740	83	-51.6	-83.8	55	5
2023-08-09T12:00	17763	83	-51.5	-83.7	56	4
2023-08-09T12:00	17792	83	-51.5	-83.7	58	4
2023-08-09T12:00	17818	82	-51.5	-83.7	60	4
2023-08-09T12:00	17843	82	-51.6	-83.8	63	3
2023-08-09T12:00	17870	82	-51.5	-83.7	65	3
2023-08-09T12:00	17893	81	-51.3	-83.6	68	3
2023-08-09T12:00	17920	81	-51.1	-83.4	69	3
2023-08-09T12:00	17945	81	-51.0	-83.3	68	3
2023-08-09T12:00	17971	80	-51.0	-83.3	66	3
2023-08-09T12:00	17998	80	-51.3	-83.6	64	3
2023-08-09T12:00	18022	80	-51.4	-83.6	62	3
2023-08-09T12:00	18047	79	-51.4	-83.6	62	3
2023-08-09T12:00	18076	79	-51.5	-83.7	61	3
2023-08-09T12:00	18103	79	-51.6	-83.8	59	2
2023-08-09T12:00	18124	79	-51.6	-83.8	54	2
2023-08-09T12:00	18150	78	-51.7	-83.9	46	2
2023-08-09T12:00	18175	78	-51.9	-84.0	38	2
2023-08-09T12:00	18203	78	-52.0	-84.1	31	2
2023-08-09T12:00	18228	77	-52.0	-84.1	29	2
2023-08-09T12:00	18251	77	-52.1	-84.2	31	3
2023-08-09T12:00	18280	77	-52.3	-83.7	36	3
2023-08-09T12:00	18309	76	-52.4	-83.8	41	3
2023-08-09T12:00	18333	76	-52.5	-83.8	47	3
2023-08-09T12:00	18360	76	-52.6	-83.9	53	3
2023-08-09T12:00	18387	75	-52.8	-84.1	59	3
2023-08-09T12:00	18416	75	-52.9	-84.1	64	3
2023-08-09T12:00	18441	75	-52.9	-84.1	66	2
2023-08-09T12:00	18466	74	-52.7	-84.6	64	2
2023-08-09T12:00	18491	74	-52.7	-84.6	55	2
2023-08-09T12:00	18518	74	-52.7	-84.6	45	2
2023-08-09T12:00	18544	74	-52.8	-84.7	36	3
2023-08-09T12:00	18570	73	-52.9	-84.7	30	3
2023-08-09T12:00	18591	73	-52.9	-84.7	27	4
2023-08-09T12:00	18618	73	-52.9	-84.1	25	4
2023-08-09T12:00	18641	73	-53.0	-84.2	26	5
2023-08-09T12:00	18668	72	-53.1	-84.3	29	5
2023-08-09T12:00	18693	72	-53.1	-84.9	33	6
2023-08-09T12:00	18723	72	-52.8	-84.7	38	6
2023-08-09T12:00	18745	71	-52.8	-84.7	45	7
2023-08-09T12:00	18772	71	-53.0	-84.8	51	7
2023-08-09T12:00	18794	71	-52.8	-84.7	57	7
2023-08-09T12:00	18822	71	-52.6	-84.5	61	7
2023-08-09T12:00	18844	70	-52.6	-84.5	64	7
2023-08-09T12:00	18866	70	-52.4	-84.4	64	7
2023-08-09T12:00	18891	70	-52.3	-84.3	64	7
2023-08-09T12:00	18916	70	-52.1	-84.8	63	6
2023-08-09T12:00	18943	69	-51.9	-84.7	63	6
2023-08-09T12:00	18964	69	-51.7	-84.5	64	5
2023-08-09T12:00	18987	69	-51.7	-84.5	65	5
2023-08-09T12:00	19013	68	-51.6	-84.5	68	5
2023-08-09T12:00	19041	68	-51.6	-84.5	71	4
2023-08-09T12:00	19065	68	-51.6	-84.5	73	4
2023-08-09T12:00	19089	68	-51.5	-84.4	75	3
2023-08-09T12:00	19114	67	-51.6	-84.5	74	3
2023-08-09T12:00	19138	67	-51.5	-84.4	71	3
2023-08-09T12:00	19166	67	-51.4	-84.3	68	2
2023-08-09T12:00	19191	67	-51.2	-84.2	64	2
2023-08-09T12:00	19213	66	-51.2	-84.2	60	3
2023-08-09T12:00	19245	66	-51.2	-84.2	58	3
2023-08-09T12:00	19268	66	-51.2	-84.2	57	3
2023-08-09T12:00	19290	66	-51.1	-84.1	58	3
2023-08-09T12:00	19318	65	-51.0	-84.0	61	4
2023-08-09T12:00	19344	65	-50.8	-83.9	65	4
2023-08-09T12:00	19370	65	-50.8	-83.9	68	5
2023-08-09T12:00	19397	65	-50.7	-83.8	70	5
2023-08-09T12:00	19418	64	-50.6	-83.7	70	5
2023-08-09T12:00	19449	64	-50.6	-83.7	69	5
2023-08-09T12:00	19473	64	-50.7	-83.8	66	5
2023-08-09T12:00	19495	64	-50.7	-83.8	63	6
2023-08-09T12:00	19524	63	-50.6	-83.7	61	5
2023-08-09T12:00	19551	63	-50.5	-83.7	59	5
2023-08-09T12:00	19578	63	-50.6	-83.7	58	5
2023-08-09T12:00	19603	63	-50.6	-83.7	57	5
2023-08-09T12:00	19629	62	-50.9	-84.0	56	5
2023-08-09T12:00	19653	62	-51.1	-84.1	54	4
2023-08-09T12:00	19681	62	-51.3	-83.6	52	5
2023-08-09T12:00	19705	62	-51.5	-83.7	49	5
2023-08-09T12:00	19736	61	-51.7	-83.9	47	5
2023-08-09T12:00	19761	61	-51.7	-83.9	45	5
2023-08-09T12:00	19785	61	-51.8	-83.9	42	6
2023-08-09T12:00	19810	61	-51.7	-83.9	41	6
2023-08-09T12:00	19839	60	-51.7	-84.5	40	6
2023-08-09T12:00	19869	60	-51.7	-84.5	40	7
2023-08-09T12:00	19893	60	-51.8	-84.6	41	7
2023-08-09T12:00	19917	60	-51.8	-83.9	42	7
2023-08-09T12:00	19945	59	-51.9	-84.0	45	7
2023-08-09T12:00	19971	59	-52.1	-84.2	48	7
2023-08-09T12:00	19997	59	-52.3	-84.3	52	7
2023-08-09T12:00	20023	59	-52.3	-84.3	57	7
2023-08-09T12:00	20050	58	-52.3	-84.3	62	7
2023-08-09T12:00	20076	58	-52.5	-84.4	65	7
2023-08-09T12:00	20105	58	-52.5	-84.4	67	7
2023-08-09T12:00	20130	58	-52.6	-84.5	68	7
2023-08-09T12:00	20159	57	-52.7	-84.6	67	7
2023-08-09T12:00	20178	57	-52.6	-84.5	65	7
2023-08-09T12:00	20211	57	-52.6	-84.5	63	7
2023-08-09T12:00	20236	57	-52.6	-84.5	62	8
2023-08-09T12:00	20264	56	-52.5	-84.4	62	8
2023-08-09T12:00	20288	56	-52.5	-84.4	62	9
2023-08-09T12:00	20314	56	-52.3	-84.3	64	9
2023-08-09T12:00	20340	56	-52.2	-84.2	66	10
2023-08-09T12:00	20370	56	-52.4	-84.4	69	10
2023-08-09T12:00	20395	55	-52.5	-84.4	72	10
2023-08-09T12:00	20422	55	-52.6	-84.5	76	10
2023-08-09T12:00	20446	55	-52.7	-84.6	80	10
2023-08-09T12:00	20475	55	-52.7	-84.6	84	9
2023-08-09T12:00	20506	54	-52.5	-84.4	87	9
2023-08-09T12:00	20526	54	-52.5	-84.4	91	8
2023-08-09T12:00	20556	54	-52.4	-84.4	94	7
2023-08-09T12:00	20577	54	-52.4	-85.1	98	6
2023-08-09T12:00	20602	54	-52.4	-84.4	101	6
2023-08-09T12:00	20627	53	-52.4	-84.4	101	6
2023-08-09T12:00	20658	53	-52.5	-84.4	100	5
2023-08-09T12:00	20680	53	-52.5	-84.4	96	5
2023-08-09T12:00	20709	53	-52.6	-84.5	92	5
2023-08-09T12:00	20734	53	-52.4	-84.4	87	6
2023-08-09T12:00	20762	52	-52.3	-84.3	82	6
2023-08-09T12:00	20792	52	-52.4	-85.1	77	6
2023-08-09T12:00	20815	52	-52.4	-85.1	74	6
2023-08-09T12:00	20838	52	-52.1	-84.8	71	7
2023-08-09T12:00	20869	51	-51.8	-84.6	69	7
2023-08-09T12:00	20901	51	-51.7	-84.5	68	7
2023-08-09T12:00	20924	51	-51.6	-84.5	69	7
2023-08-09T12:00	20953	51	-51.6	-84.5	70	8
2023-08-09T12:00	20976	51	-51.7	-84.5	71	8
2023-08-09T12:00	20999	50	-51.8	-84.6	72	8
2023-08-09T12:00	21030	50	-51.8	-84.6	73	9
2023-08-09T12:00	21058	50	-51.9	-84.0	74	9
2023-08-09T12:00	21088	50	-52.0	-84.1	75	9
2023-08-09T12:00	21112	50	-52.0	-84.1	77	9
2023-08-09T12:00	21137	49	-52.0	-84.8	79	10
2023-08-09T12:00	21165	49	-52.1	-84.8	82	10
2023-08-09T12:00	21194	49	-52.1	-84.8	84	10
2023-08-09T12:00	21218	49	-51.8	-84.6	87	11
2023-08-09T12:00	21243	49	-51.5	-84.4	90	10
2023-08-09T12:00	21270	48	-51.5	-84.4	93	10
2023-08-09T12:00	21296	48	-51.6	-84.5	95	10
2023-08-09T12:00	21316	48	-51.5	-84.4	97	9
2023-08-09T12:00	21345	48	-51.3	-84.3	98	9
2023-08-09T12:00	21372	48	-51.1	-84.1	99	9
2023-08-09T12:00	21395	47	-51.0	-84.0	100	8
2023-08-09T12:00	21424	47	-51.2	-84.2	102	8
2023-08-09T12:00	21449	47	-51.2	-84.2	104	8
2023-08-09T12:00	21475	47	-51.3	-84.3	105	8
2023-08-09T12:00	21496	47	-51.5	-84.4	106	8
2023-08-09T12:00	21521	46	-51.4	-84.3	106	8
2023-08-09T12:00	21550	46	-51.4	-84.3	105	8
2023-08-09T12:00	21577	46	-51.4	-84.3	103	8
2023-08-09T12:00	21603	46	-51.3	-84.3	100	7
2023-08-09T12:00	21627	46	-51.2	-84.2	97	7
2023-08-09T12:00	21653	46	-51.3	-84.3	96	7
2023-08-09T12:00	21680	45	-51.5	-84.4	97	7
2023-08-09T12:00	21701	45	-51.5	-84.4	100	8
2023-08-09T12:00	21734	45	-51.3	-84.3	104	8
2023-08-09T12:00	21754	45	-51.2	-84.2	109	8
2023-08-09T12:00	21781	45	-51.3	-84.3	113	9
2023-08-09T12:00	21807	45	-51.4	-84.3	117	9
2023-08-09T12:00	21828	44	-51.5	-84.4	120	9
2023-08-09T12:00	21857	44	-51.7	-84.5	122	9
2023-08-09T12:00	21881	44	-51.8	-84.6	126	9
2023-08-09T12:00	21901	44	-51.7	-84.5	129	9
2023-08-09T12:00	21928	44	-51.6	-84.5	132	9
2023-08-09T12:00	21957	43	-51.5	-84.4	136	9
2023-08-09T12:00	21984	43	-51.5	-84.4	139	8
2023-08-09T12:00	22009	43	-51.5	-84.4	142	7
2023-08-09T12:00	22033	43	-51.6	-84.5	145	7
2023-08-09T12:00	22063	43	-51.6	-84.5	148	6
2023-08-09T12:00	22086	43	-51.4	-84.3	151	5
2023-08-09T12:00	22111	42	-51.4	-84.3	154	4
2023-08-09T12:00	22140	42	-51.5	-84.4	156	4
2023-08-09T12:00	22163	42	-51.6	-84.5	155	3
2023-08-09T12:00	22197	42	-51.5	-84.4	149	3
2023-08-09T12:00	22222	42	-51.4	-84.3	141	4
2023-08-09T12:00	22254	42	-51.4	-84.3	132	4
2023-08-09T12:00	22270	41	-51.5	-84.4	126	5
2023-08-09T12:00	22297	41	-51.5	-84.4	122	5
2023-08-09T12:00	22328	41	-51.3	-84.3	119	5
2023-08-09T12:00	22358	41	-51.3	-84.3	116	5
2023-08-09T12:00	22387	41	-51.2	-84.2	112	5
2023-08-09T12:00	22412	41	-51.1	-84.1	108	4
2023-08-09T12:00	22435	40	-51.0	-84.0	104	4
2023-08-09T12:00	22465	40	-51.0	-84.0	102	4
2023-08-09T12:00	22493	40	-51.0	-84.0	100	4
2023-08-09T12:00	22514	40	-51.1	-84.1	100	4
2023-08-09T12:00	22553	40	-51.2	-84.2	101	4
2023-08-09T12:00	22578	40	-51.2	-84.2	102	5
2023-08-09T12:00	22607	39	-51.2	-84.2	102	5
2023-08-09T12:00	22630	39	-51.1	-84.1	102	5
2023-08-09T12:00	22658	39	-51.0	-84.0	102	5
2023-08-09T12:00	22688	39	-51.1	-84.1	101	5
2023-08-09T12:00	22711	39	-51.2	-84.2	99	5
2023-08-09T12:00	22740	39	-51.1	-84.1	96	5
2023-08-09T12:00	22769	38	-51.0	-84.0	94	5
2023-08-09T12:00	22798	38	-51.1	-84.1	92	5
2023-08-09T12:00	22815	38	-51.1	-84.1	90	5
2023-08-09T12:00	22849	38	-51.1	-84.1	89	5
2023-08-09T12:00	22874	38	-51.1	-84.1	86	5
2023-08-09T12:00	22900	38	-51.1	-84.1	83	5
2023-08-09T12:00	22929	37	-51.2	-84.2	76	5
2023-08-09T12:00	22958	37	-51.3	-84.3	69	5
2023-08-09T12:00	22983	37	-51.2	-84.2	60	5
2023-08-09T12:00	23006	37	-51.2	-84.2	54	6
2023-08-09T12:00	23036	37	-51.1	-84.1	50	6
2023-08-09T12:00	23063	37	-51.0	-84.8	49	6
2023-08-09T12:00	23086	37	-51.0	-84.8	50	7
2023-08-09T12:00	23115	36	-51.0	-84.8	53	7
2023-08-09T12:00	23139	36	-51.0	-84.8	58	7
2023-08-09T12:00	23163	36	-51.0	-84.0	63	6
2023-08-09T12:00	23195	36	-51.0	-84.0	67	6
2023-08-09T12:00	23223	36	-51.1	-84.1	72	5
2023-08-09T12:00	23247	36	-51.1	-84.1	78	5
2023-08-09T12:00	23274	36	-51.1	-84.1	84	4
2023-08-09T12:00	23301	35	-51.2	-84.2	92	4
2023-08-09T12:00	23326	35	-51.3	-84.3	101	4
2023-08-09T12:00	23353	35	-51.3	-84.3	109	4
2023-08-09T12:00	23379	35	-51.4	-84.3	115	4
2023-08-09T12:00	23401	35	-51.5	-84.4	120	5
2023-08-09T12:00	23436	35	-51.5	-84.4	122	5
2023-08-09T12:00	23465	35	-51.6	-84.5	123	5
2023-08-09T12:00	23484	34	-51.6	-84.5	122	5
2023-08-09T12:00	23512	34	-51.6	-84.5	118	4
2023-08-09T12:00	23532	34	-51.5	-84.4	111	4
2023-08-09T12:00	23565	34	-51.5	-84.4	101	3
2023-08-09T12:00	23593	34	-51.5	-84.4	87	3
2023-08-09T12:00	23622	34	-51.3	-85.0	72	2
2023-08-09T12:00	23646	34	-51.1	-84.9	61	2
2023-08-09T12:00	23678	33	-51.0	-84.8	56	3
2023-08-09T12:00	23710	33	-51.1	-84.9	56	3
2023-08-09T12:00	23740	33	-51.1	-84.9	60	3
2023-08-09T12:00	23760	33	-51.1	-84.9	67	3
2023-08-09T12:00	23784	33	-51.2	-84.2	76	3
2023-08-09T12:00	23816	33	-51.2	-84.2	86	4
2023-08-09T12:00	23844	33	-51.2	-84.2	93	4
2023-08-09T12:00	23872	32	-51.3	-84.3	99	4
2023-08-09T12:00	23897	32	-51.3	-84.3	102	4
2023-08-09T12:00	23927	32	-51.3	-84.3	103	4
2023-08-09T12:00	23951	32	-51.3	-84.3	104	4
2023-08-09T12:00	23986	32	-51.4	-84.3	103	4
2023-08-09T12:00	24020	32	-51.5	-84.4	102	4
2023-08-09T12:00	24044	32	-51.6	-84.5	100	5
2023-08-09T12:00	24080	31	-51.7	-84.5	97	5
2023-08-09T12:00	24101	31	-51.8	-84.6	94	5
2023-08-09T12:00	24130	31	-51.7	-84.5	91	5
2023-08-09T12:00	24168	31	-51.6	-84.5	86	5
2023-08-09T12:00	24197	31	-51.7	-84.5	82	5
2023-08-09T12:00	24217	31	-51.9	-84.7	78	6
2023-08-09T12:00	24247	31	-52.1	-84.8	74	6
2023-08-09T12:00	24274	30	-52.2	-84.9	72	7
2023-08-09T12:00	24304	30	-52.3	-85.0	72	8
2023-08-09T12:00	24333	30	-52.3	-85.0	72	9
2023-08-09T12:00	24367	30	-52.3	-85.0	73	10
2023-08-09T12:00	24392	30	-52.2	-84.9	74	10
2023-08-09T12:00	24427	30	-52.1	-84.8	75	11
2023-08-09T12:00	24448	30	-52.1	-84.8	76	11
2023-08-09T12:00	24475	30	-52.2	-84.9	77	10
2023-08-09T12:00	24509	29	-52.2	-84.9	78	10
2023-08-09T12:00	24536	29	-52.1	-84.8	80	10
2023-08-09T12:00	24561	29	-52.1	-84.8	83	9
2023-08-09T12:00	24592	29	-52.1	-84.8	85	9
2023-08-09T12:00	24617	29	-52.1	-84.8	87	9
2023-08-09T12:00	24636	29	-51.8	-85.4	88	10
2023-08-09T12:00	24669	29	-51.6	-85.2	88	11
2023-08-09T12:00	24696	29	-51.6	-85.2	87	11
2023-08-09T12:00	24717	28	-51.5	-84.4	86	12
2023-08-09T12:00	24746	28	-51.6	-84.5	86	13
2023-08-09T12:00	24780	28	-51.9	-84.7	86	13
2023-08-09T12:00	24806	28	-52.0	-84.8	86	13
2023-08-09T12:00	24832	28	-52.0	-84.8	85	13
2023-08-09T12:00	24853	28	-52.0	-84.8	86	13
2023-08-09T12:00	24886	28	-52.0	-84.8	86	13
2023-08-09T12:00	24909	28	-52.0	-84.8	86	13
2023-08-09T12:00	24937	27	-51.9	-84.7	86	13
2023-08-09T12:00	24964	27	-51.9	-84.7	87	14
2023-08-09T12:00	24985	27	-51.9	-84.7	88	14
2023-08-09T12:00	25016	27	-51.9	-84.7	89	15
2023-08-09T12:00	25040	27	-51.9	-84.7	92	15
2023-08-09T12:00	25060	27	-51.7	-85.3	95	15
2023-08-09T12:00	25101	27	-51.5	-85.2	99	15
2023-08-09T12:00	25120	27	-51.5	-85.2	102	15
2023-08-09T12:00	25147	27	-51.5	-85.2	106	15
2023-08-09T12:00	25185	26	-51.3	-85.0	109	15
2023-08-09T12:00	25214	26	-51.2	-85.0	112	14
2023-08-09T12:00	25240	26	-51.1	-84.9	114	14
2023-08-09T12:00	25267	26	-50.9	-84.7	115	14
2023-08-09T12:00	25299	26	-50.6	-84.5	116	13
2023-08-09T12:00	25327	26	-50.6	-84.5	117	13
2023-08-09T12:00	25353	26	-50.6	-84.5	117	12
2023-08-09T12:00	25379	26	-50.3	-85.2	118	12
2023-08-09T12:00	25413	26	-50.1	-85.1	118	11
2023-08-09T12:00	25436	25	-49.7	-84.8	118	11
2023-08-09T12:00	25469	25	-49.3	-84.5	119	10
2023-08-09T12:00	25498	25	-48.9	-84.2	121	10
2023-08-09T12:00	25531	25	-48.6		122	9
2023-08-09T12:00	25557	25	-48.4	-83.8	123	9
2023-08-09T12:00	25591	25	-48.4	-83.8	124	9
2023-08-09T12:00	25618	25	-48.4	-83.8	123	8
2023-08-09T12:00	25651	25	-48.3	-83.8	122	8
2023-08-09T12:00	25675	25	-48.3	-83.8	121	8
2023-08-09T12:00	25703	24	-48.3	-83.8	120	8
2023-08-09T12:00	25729	24	-48.1	-83.6	118	8
2023-08-09T12:00	25761	24	-47.9	-83.5	118	7
2023-08-09T12:00	25792	24	-47.7	-83.4	117	7
2023-08-09T12:00	25821	24	-47.5	-83.2	116	7
2023-08-09T12:00	25852	24	-47.5	-84.3	115	7
2023-08-09T12:00	25883	24	-47.5	-84.3	114	7
2023-08-09T12:00	25910	24	-47.5	-84.3	113	7
2023-08-09T12:00	25946	24	-47.4	-84.2	113	8
2023-08-09T12:00	25969	23	-47.2	-84.1	113	8
2023-08-09T12:00	25995	23	-47.0	-83.9	113	9
2023-08-09T12:00	26026	23	-46.7	-83.7	113	10
2023-08-09T12:00	26054	23	-46.5	-83.6	112	10
2023-08-09T12:00	26075	23	-46.6	-83.6	111	10
2023-08-09T12:00	26108	23	-46.6	-83.6	109	11
2023-08-09T12:00	26141	23	-46.6	-83.6	107	11
2023-08-09T12:00	26155	23	-46.6	-83.6	107	11
2023-08-09T12:00	26191	23	-46.7	-82.6	108	11
2023-08-09T12:00	26221	23	-46.9	-82.8	109	11
2023-08-09T12:00	26252	23	-47.0	-82.9	112	10
2023-08-09T12:00	26282	22	-47.0	-82.9	115	10
2023-08-09T12:00	26309	22	-46.8	-82.7	118	9
2023-08-09T12:00	26325	22	-46.7	-83.7	121	9
2023-08-09T12:00	26362	22	-46.7	-83.7	123	9
2023-08-09T12:00	26384	22	-46.5	-83.6	124	9
2023-08-09T12:00	26414	22	-46.4	-83.5	125	9
2023-08-09T12:00	26440	22	-46.4	-83.5	125	9
2023-08-09T12:00	26466	22	-46.5	-83.6	126	8
2023-08-09T12:00	26505	22	-46.6	-83.6	127	7
2023-08-09T12:00	26529	22	-46.7	-83.7	129	6
2023-08-09T12:00	26556	22	-46.6	-83.6	132	5
2023-08-09T12:00	26570	21	-46.4	-83.5	135	5
2023-08-09T12:00	26606	21	-46.3	-83.4	136	4
2023-08-09T12:00	26644	21	-46.2	-83.4	135	4
2023-08-09T12:00	26679	21	-46.1	-83.3	133	4
2023-08-09T12:00	26702	21	-46.0	-83.2	130	4
2023-08-09T12:00	26726	21	-45.9	-83.2	129	4
2023-08-09T12:00	26760	21	-45.9	-83.2	129	5
2023-08-09T12:00	26782	21	-45.9	-83.2	132	6
2023-08-09T12:00	26815	21	-45.9	-83.2	135	7
2023-08-09T12:00	26847	21	-46.0	-83.2	138	7
2023-08-09T12:00	26879	20	-45.9	-83.2	141	8
2023-08-09T12:00	26910	20	-45.7	-83.0	142	8
2023-08-09T12:00	26942	20	-45.7	-83.0	143	8
2023-08-09T12:00	26974	20	-45.7	-83.0	142	8
2023-08-09T12:00	27008	20	-45.5	-82.9	139	7
2023-08-09T12:00	27034	20	-45.4	-82.8	136	7
2023-08-09T12:00	27071	20	-45.5	-82.9	132	7
2023-08-09T12:00	27094	20	-45.6	-82.9	127	6
2023-08-09T12:00	27126	20	-45.7	-83.0	122	6
2023-08-09T12:00	27171	20	-45.9	-83.2	115	6
2023-08-09T12:00	27197	20	-46.1	-83.3	107	5
2023-08-09T12:00	27230	19	-46.1	-83.3	98	5
2023-08-09T12:00	27257	19	-46.2	-83.4	88	5
2023-08-09T12:00	27304	19	-46.2	-83.4	79	5
2023-08-09T12:00	27344	19	-46.4	-83.5	73	6
2023-08-09T12:00	27381	19	-46.5	-83.6	71	7
2023-08-09T12:00	27406	19	-46.6	-83.6	71	8
2023-08-09T12:00	27434	19	-46.5	-83.6	73	8
2023-08-09T12:00	27469	19	-46.4	-83.5	77	9
2023-08-09T12:00	27509	19	-46.5	-83.6	81	9
2023-08-09T12:00	27536	19	-46.6	-83.6	85	10
2023-08-09T12:00	27569	18	-46.5	-83.6	88	10
2023-08-09T12:00	27596	18	-46.4	-83.5	91	10
2023-08-09T12:00	27634	18	-46.4	-83.5	93	9
2023-08-09T12:00	27668	18	-46.5	-83.6	96	9
2023-08-09T12:00	27695	18	-46.6	-82.6	98	8
2023-08-09T12:00	27731	18	-46.6	-82.6	100	8
2023-08-09T12:00	27768	18	-46.7	-82.6	103	8
2023-08-09T12:00	27791	18	-46.8	-82.7	106	8
2023-08-09T12:00	27829	18	-46.9	-82.8	109	7
2023-08-09T12:00	27843	18	-46.9	-82.8	112	7
2023-08-09T12:00	27878	18	-47.0	-82.9	116	7
2023-08-09T12:00	27906	18	-47.0	-83.9	120	7
2023-08-09T12:00	27924	17	-47.0	-83.9	124	7
2023-08-09T12:00	27964	17	-46.7	-83.7	128	6
2023-08-09T12:00	27983	17	-46.1	-83.3	132	6
2023-08-09T12:00	28022	17	-45.7	-83.0	135	5
2023-08-09T12:00	28055	17	-45.2	-82.7	134	5
2023-08-09T12:00	28070	17	-44.9	-82.5	129	4
2023-08-09T12:00	28112	17	-44.7	-82.3	120	4
2023-08-09T12:00	28139	17	-44.6	-82.2	111	5
2023-08-09T12:00	28153	17	-44.6	-82.2	105	5
2023-08-09T12:00	28193	17	-44.5	-82.2	102	6
2023-08-09T12:00	28214	17	-44.4	-82.1	102	6
2023-08-09T12:00	28249	17	-44.3	-82.0	103	7
2023-08-09T12:00	28270	17	-44.2	-82.0	104	7
2023-08-09T12:00	28299	17	-44.1	-81.9	105	7
2023-08-09T12:00	28324	16	-44.1	-81.9	107	7
2023-08-09T12:00	28349	16	-44.1	-81.9	109	6
2023-08-09T12:00	28381	16	-43.9	-81.8	112	5
2023-08-09T12:00	28412	16	-43.7	-81.6	115	4
2023-08-09T12:00	28435	16	-43.6	-81.5	118	4
2023-08-09T12:00	28475	16	-43.5	-81.5	120	3
2023-08-09T12:00	28490	16	-43.4	-81.4	118	3
2023-08-09T12:00	28518	16	-43.3	-81.3	115	3
2023-08-09T12:00	28550	16	-43.2	-81.3	112	4
2023-08-09T12:00	28581	16	-43.1	-81.2	109	4
2023-08-09T12:00	28612	16	-43.1	-81.2	109	4
2023-08-09T12:00	28640	16	-43.1	-81.2	110	5
2023-08-09T12:00	28671	16	-43.2	-81.3	112	5
2023-08-09T12:00	28715	16	-43.2	-81.3	114	5
2023-08-09T12:00	28732	16	-43.3	-81.3	116	6
2023-08-09T12:00	28773	15	-43.1	-81.2	117	6
2023-08-09T12:00	28803	15	-42.9	-81.1	116	6
2023-08-09T12:00	28820	15	-42.7	-80.9	116	7
2023-08-09T12:00	28861	15	-42.4	-80.7	116	7
2023-08-09T12:00	28907	15	-42.1	-80.5	118	7
2023-08-09T12:00	28930	15	-41.9	-80.4	120	7
2023-08-09T12:00	28959	15	-41.8	-80.3	123	7
2023-08-09T12:00	28994	15	-41.7	-80.2	125	7
2023-08-09T12:00	29036	15	-41.6	-80.1	126	7
2023-08-09T12:00	29056	15	-41.6	-80.1	125	7
2023-08-09T12:00	29087	15	-41.6	-80.1	124	7
2023-08-09T12:00	29121	15	-41.7	-80.2	122	7
2023-08-09T12:00	29164	15	-41.6	-80.1	122	8
2023-08-09T12:00	29208	14	-41.7	-80.2	122	8
2023-08-09T12:00	29232	14	-41.7	-80.2	125	8
2023-08-09T12:00	29267	14	-41.7	-80.2	128	8
2023-08-09T12:00	29291	14	-41.7	-80.2	132	8
2023-08-09T12:00	29337	14	-41.8	-80.3	135	8
2023-08-09T12:00	29373	14	-42.0	-80.4	139	8
2023-08-09T12:00	29407	14	-42.1	-80.5	141	8
2023-08-09T12:00	29440	14	-42.3	-80.6	141	7
2023-08-09T12:00	29476	14	-42.4	-80.7	139	7
2023-08-09T12:00	29490	14	-42.5	-80.8	135	6
2023-08-09T12:00	29543	14	-42.4	-80.7	127	6
2023-08-09T12:00	29588	14	-42.4	-80.7	117	5
2023-08-09T12:00	29607	14	-42.3	-80.6	107	5
2023-08-09T12:00	29629	14	-42.3	-80.6	99	6
2023-08-09T12:00	29673	14	-42.4	-80.7	93	6
2023-08-09T12:00	29714	13	-42.4	-80.7	90	7
2023-08-09T12:00	29740	13	-42.3	-80.6	88	7
2023-08-09T12:00	29779	13	-42.3	-80.6	88	7
2023-08-09T12:00	29806	13	-42.3	-80.6	89	8
2023-08-09T12:00	29841	13	-42.3	-80.6	91	8
2023-08-09T12:00	29887	13	-42.4	-80.7	93	9
2023-08-09T12:00	29904	13	-42.3	-80.6	95	9
2023-08-09T12:00	29923	13	-42.4	-80.7	97	9
2023-08-09T12:00	29971	13	-42.4	-80.7	100	9
2023-08-09T12:00	29977	13	-42.4	-80.7	102	10
2023-08-09T12:00	30031	13	-42.3	-80.6	105	10
2023-08-09T12:00	30047	13	-42.3	-80.6	108	10
2023-08-09T12:00	30070	13	-42.4	-80.7	109	10
2023-08-09T12:00	30088	13	-42.5	-80.8	109	10
2023-08-09T12:00	30119	13	-42.5	-80.8	107	10
2023-08-09T12:00	30165	13	-42.4	-80.7	103	9
2023-08-09T12:00	30187	13	-42.2	-80.6	98	9
2023-08-09T12:00	30207	12	-42.0	-80.4	92	9
2023-08-09T12:00	30241	12	-41.8	-80.3	86	9
2023-08-09T12:00	30259	12	-41.6	-80.1	83	9
2023-08-09T12:00	30301	12	-41.4	-80.0	82	10
2023-08-09T12:00	30310	12	-41.2	-79.9	83	10
2023-08-09T12:00	30345	12	-41.0	-79.7	85	11
2023-08-09T12:00	30374	12	-40.8	-79.6	88	11
2023-08-09T12:00	30381	12	-40.7	-79.5	92	11
2023-08-09T12:00	30421	12	-40.5	-79.4	95	11
2023-08-09T12:00	30447	12	-40.4	-79.3	99	11
2023-08-09T12:00	30488	12	-40.4	-79.3	102	11
2023-08-09T12:00	30491	12	-40.5	-79.4	105	11
2023-08-09T12:00	30522	12	-40.5	-79.4	107	11
2023-08-09T12:00	30552	12	-40.4	-79.3	110	11
2023-08-09T12:00	30585	12	-40.2	-79.2	112	11
2023-08-09T12:00	30622	12	-40.0	-79.0	114	11
2023-08-09T12:00	30637	12	-39.9	-79.0	115	10
2023-08-09T12:00	30676	12	-39.6	-78.8	115	10
2023-08-09T12:00	30722	12	-39.4	-78.6	113	9
2023-08-09T12:00	30735	12	-39.0	-78.3	111	9
2023-08-09T12:00	30768	12	-38.6	-78.1	109	9
2023-08-09T12:00	30784	11	-38.4	-77.9	108	8
2023-08-09T12:00	30834	11	-38.3	-77.9	109	8
2023-08-09T12:00	30859	11	-38.3	-77.9	111	8
2023-08-09T12:00	30891	11	-38.2	-77.8	113	8
2023-08-09T12:00	30909	11	-38.2	-77.8	115	7
2023-08-09T12:00	30928	11	-38.1	-77.7	114	7
2023-08-09T12:00	30964	11	-38.0	-77.6	110	7
2023-08-09T12:00	31007	11	-37.9	-77.6	102	7
2023-08-09T12:00	31047	11	-37.6	-77.4	93	7
2023-08-09T12:00	31059	11	-37.4	-77.2	86	8
2023-08-09T12:00	31110	11	-37.4	-77.2	82	9
2023-08-09T12:00	31128	11	-37.3	-77.2	80	10
2023-08-09T12:00	31165	11	-37.2	-77.1	80	11
2023-08-09T12:00	31208	11	-37.2	-77.1	82	11
2023-08-09T12:00	31220	11	-37.1	-77.0	84	11
2023-08-09T12:00	31248	11	-36.9	-76.9	88	11
2023-08-09T12:00	31292	11	-36.6	-76.7	92	11
2023-08-09T12:00	31325	11	-36.5	-76.6	97	10
2023-08-09T12:00	31354	11	-36.3	-76.5	101	10
2023-08-09T12:00	31370	11	-36.2	-76.4	105	9
2023-08-09T12:00	31409	10	-36.1	-76.3	108	9
2023-08-09T12:00	31434	10	-36.2	-76.4	109	8
2023-08-09T12:00	31474	10	-36.2	-76.4	110	8
2023-08-09T12:00	31502	10	-36.2	-76.4	110	7
2023-08-09T12:00	31536	10	-36.2	-76.4	109	7
2023-08-09T12:00	31554	10	-36.3	-76.5	108	6
2023-08-09T12:00	31599	10	-36.4	-76.5	105	6
2023-08-09T12:00	31617	10	-36.5	-76.6	100	6
2023-08-09T12:00	31653	10	-36.5	-76.6	94	6
2023-08-09T12:00	31694	10	-36.5	-76.6	88	7
2023-08-09T12:00	31697	10	-36.5	-76.6	84	8
2023-08-09T12:00	31756	10	-36.4	-76.5	82	9
2023-08-09T12:00	31758	10	-36.4	-76.5	82	10
2023-08-09T12:00	31805	10	-36.5	-76.6	82	11
2023-08-09T12:00	31830	10	-36.6	-76.7	84	12
2023-08-09T12:00	31861	10	-36.6	-76.7	86	13
2023-08-09T12:00	31892	10	-36.6	-76.7	88	14
2023-08-09T12:00	31911	10	-36.6	-76.7	91	15
2023-08-09T12:00	31961	10	-36.7	-76.7	95	15
2023-08-09T12:00	31994	10	-36.7	-76.7	98	15
2023-08-09T12:00	32021	10	-36.7	-76.7	101	14
2023-08-09T12:00	32044	10	-36.5	-76.6	103	14
2023-08-09T12:00	32085	10	-36.3	-76.5	105	13
2023-08-09T12:00	32112	10	-36.2	-76.4	106	12
2023-08-09T12:00	32152	9	-36.0	-76.3	107	12
2023-08-09T12:00	32201	9	-35.7	-76.1	108	11
2023-08-09T12:00	32231	9	-35.6	-76.0	108	11
2023-08-09T12:00	32236	9	-35.5	-75.9	108	10
2023-08-09T12:00	32269	9	-35.5	-75.9	107	10
2023-08-09T12:00	32317	9	-35.4	-75.8	106	9
2023-08-09T12:00	32346	9	-35.3	-75.8	105	9
2023-08-09T12:00	32369	9	-35.2	-75.7	104	9
2023-08-09T12:00	32373	9	-35.2	-75.7	103	9
2023-08-09T12:00	32418	9	-35.2	-75.7	103	9
2023-08-09T12:00	32447	9	-35.1	-75.6	104	10
2023-08-09T12:00	32473	9	-35.0	-75.6	106	10
2023-08-09T12:00	32517	9	-35.0	-75.6	109	11
2023-08-09T12:00	32518	9	-35.0	-75.6	112	11
2023-08-09T12:00	32552	9	-35.1	-75.6	114	11
2023-08-09T12:00	32592	9	-35.2	-75.7	116	12
2023-08-09T12:00	32617	9	-35.3	-75.8	118	12
2023-08-09T12:00	32653	9	-35.2	-75.7	120	12
2023-08-09T12:00	32689	9	-35.1	-75.6	122	12
2023-08-09T12:00	32710	9	-35.0	-75.6	123	11
2023-08-09T12:00	32753	9	-35.0	-75.6	124	11
2023-08-09T12:00	32804	9	-35.0	-75.6	124	11
2023-08-09T12:00	32833	9	-34.8	-75.4	121	11
2023-08-09T12:00	32841	9	-34.7	-75.4	119	10
2023-08-09T12:00	32904	8	-34.6	-75.3	117	10
2023-08-09T12:00	32938	8	-34.7	-75.4	113	10
2023-08-09T12:00	32977	8	-34.8	-75.4	110	10
2023-08-09T12:00	33011	8	-34.9	-75.5	108	10
2023-08-09T12:00	33039	8	-35.0	-75.6	106	10
2023-08-09T12:00	33063	8	-35.1	-75.6	104	10
2023-08-09T12:00	33071	8	-35.2	-75.7	103	10
2023-08-09T12:00	33132	8	-35.3	-75.8	101	10
2023-08-09T12:00	33189	8	-35.2	-75.7	100	10
2023-08-09T12:00	33192	8	-35.1	-75.6	97	9
2023-08-09T12:00	33217	8	-35.0	-75.6	95	9
2023-08-09T12:00	33253	8	-34.9	-75.5	93	10
2023-08-09T12:00	33300	8	-34.8	-75.4	92	10
2023-08-09T12:00	33325	8	-34.6	-75.3	94	11
2023-08-09T12:00	33375	8	-34.6	-75.3	95	11
2023-08-09T12:00	33394	8	-34.6	-75.3	97	12
2023-08-09T12:00	33429	8	-34.7	-75.4	99	12
2023-08-09T12:00	33446	8	-34.8	-75.4	101	13
2023-08-09T12:00	33473	8	-34.7	-75.4	103	13
2023-08-09T12:00	33520	8	-34.7	-75.4	104	14
2023-08-09T12:00	33562	8	-34.6	-75.3	106	14
2023-08-09T12:00	33576	8	-34.6	-75.3	108	14
2023-08-09T12:00	33589	8	-34.5	-75.2	110	14
2023-08-09T12:00	33631	8	-34.5	-75.2	113	14
2023-08-09T12:00	33646	8	-34.4	-75.2	116	14
2023-08-09T12:00	33671	8	-34.3	-75.1	119	14
2023-08-09T12:00	33689	8	-34.3	-75.1	122	14
2023-08-09T12:00	33729	8	-34.2	-75.0	125	14
2023-08-09T12:00	33770	8	-34.2	-75.0	128	14
2023-08-09T12:00	33800	7	-34.0	-74.9	135	13
2023-08-09T12:00	33847	7	-33.9	-74.8	137	13
2023-08-09T18:00	112	1003	16.7	8.7	270	4
2023-08-09T18:00	139	1000	16.6	8.1	275	3
2023-08-09T18:00	163	997	16.4	7.7	273	4
2023-08-09T18:00	192	994	16.2	7.7	273	4
2023-08-09T18:00	221	991	15.9	7.6	275	5
2023-08-09T18:00	251	987	15.6	7.4	279	5
2023-08-09T18:00	280	984	15.3	7.2	283	5
2023-08-09T18:00	308	981	15.0	7.1	288	6
2023-08-09T18:00	332	978	14.8	7.1	291	6
2023-08-09T18:00	359	975	14.5	6.9	293	7
2023-08-09T18:00	384	972	14.7	5.3	294	7
2023-08-09T18:00	410	969	14.7	4.5	294	8
2023-08-09T18:00	438	966	14.5	4.3	294	8
2023-08-09T18:00	464	963	14.4	4.4	293	9
2023-08-09T18:00	489	960	14.2	4.4	292	9
2023-08-09T18:00	515	957	14.0	4.7	291	10
2023-08-09T18:00	544	954	13.7	4.6	291	10
2023-08-09T18:00	569	951	13.5	4.7	290	10
2023-08-09T18:00	595	948	13.3	4.6	290	10
2023-08-09T18:00	623	945	13.1	4.4	290	10
2023-08-09T18:00	650	942	12.9	4.3	290	11
2023-08-09T18:00	676	939	12.6	4.2	290	11
2023-08-09T18:00	705	936	12.4	4.2	290	11
2023-08-09T18:00	731	933	12.2	4.0	290	11
2023-08-09T18:00	758	930	11.9	3.9	291	11
2023-08-09T18:00	784	927	11.7	4.6	292	11
2023-08-09T18:00	809	924	11.5	4.6	292	11
2023-08-09T18:00	835	921	11.2	4.5	293	11
2023-08-09T18:00	861	918	11.0	4.5	293	11
2023-08-09T18:00	890	915	10.7	4.5	293	11
2023-08-09T18:00	919	912	10.4	4.4	293	11
2023-08-09T18:00	948	909	10.3	4.0	292	10
2023-08-09T18:00	977	906	10.1	3.5	292	10
2023-08-09T18:00	1008	902	9.9	3.3	291	10
2023-08-09T18:00	1035	899	9.6	3.1	291	10
2023-08-09T18:00	1066	896	9.4	2.9	290	10
2023-08-09T18:00	1094	893	9.2	2.8	290	10
2023-08-09T18:00	1124	890	9.0	2.8	290	10
2023-08-09T18:00	1153	887	8.7	2.8	289	10
2023-08-09T18:00	1182	883	8.4	2.9	288	10
2023-08-09T18:00	1211	880	8.2	2.9	286	10
2023-08-09T18:00	1241	877	8.0	2.7	285	9
2023-08-09T18:00	1273	874	7.8	2.1	284	9
2023-08-09T18:00	1301	871	7.5	2.1	284	9
2023-08-09T18:00	1335	867	7.3	2.1	284	9
2023-08-09T18:00	1365	864	7.0	1.9	285	8
2023-08-09T18:00	1395	861	6.7	1.9	286	8
2023-08-09T18:00	1426	858	6.5	1.8	286	8
2023-08-09T18:00	1457	854	6.2	1.6	285	8
2023-08-09T18:00	1488	851	6.0	1.5	284	9
2023-08-09T18:00	1518	848	5.8	1.1	283	9
2023-08-09T18:00	1546	845	5.8	0.9	282	9
2023-08-09T18:00	1579	842	5.6	0.6	281	9
2023-08-09T18:00	1608	839	5.3	0.4	281	9
2023-08-09T18:00	1635	836	5.1	0.4	281	9
2023-08-09T18:00	1664	833	4.9	0.4	281	9
2023-08-09T18:00	1692	830	4.6	0.4	281	9
2023-08-09T18:00	1721	827	4.4	0.4	281	9
2023-08-09T18:00	1752	824	4.1	0.4	282	9
2023-08-09T18:00	1783	821	3.8	0.1	282	9
2023-08-09T18:00	1810	818	3.6	0.1	282	9
2023-08-09T18:00	1839	815	3.3	0.0	283	9
2023-08-09T18:00	1869	812	3.0	0.0	283	9
2023-08-09T18:00	1899	809	2.7	-0.2	284	9
2023-08-09T18:00	1928	806	2.5	-0.5	285	8
2023-08-09T18:00	1958	804	2.3	-0.7	286	8
2023-08-09T18:00	1987	801	2.0	-1.2	287	8
2023-08-09T18:00	2018	798	1.9	-1.0	287	8
2023-08-09T18:00	2048	795	1.7	-0.9	286	8
2023-08-09T18:00	2078	792	1.4	-0.9	285	7
2023-08-09T18:00	2106	789	1.2	-1.0	283	8
2023-08-09T18:00	2137	786	0.9	-1.0	280	8
2023-08-09T18:00	2170	783	0.5	-1.2	278	8
2023-08-09T18:00	2202	780	0.3	-1.4	275	8
2023-08-09T18:00	2231	777	-0.1	-1.4	272	8
2023-08-09T18:00	2260	774	-0.1	-2.2	270	8
2023-08-09T18:00	2287	771	-0.2	-2.7	268	8
2023-08-09T18:00	2314	769	-0.2	-2.8	267	8
2023-08-09T18:00	2344	766	-0.4	-2.8	266	8
2023-08-09T18:00	2369	763	-0.5	-3.0	265	8
2023-08-09T18:00	2400	760	-0.7	-3.1	264	8
2023-08-09T18:00	2430	758	-0.9	-3.1	264	7
2023-08-09T18:00	2457	755	-1.1	-2.3	265	7
2023-08-09T18:00	2490	752	-1.2	-1.7	266	7
2023-08-09T18:00	2515	750	-1.4	-1.9	268	7
2023-08-09T18:00	2543	747	-1.6	-2.2	270	7
2023-08-09T18:00	2571	744	-1.7	-2.3	272	7
2023-08-09T18:00	2598	742	-1.9	-2.2	274	7
2023-08-09T18:00	2624	739	-2.2	-2.5	275	7
2023-08-09T18:00	2652	737	-2.4	-2.4	275	7
2023-08-09T18:00	2682	734	-2.7	-2.7	274	8
2023-08-09T18:00	2713	731	-2.9	-2.9	273	8
2023-08-09T18:00	2742	728	-3.0	-3.0	272	8
2023-08-09T18:00	2770	726	-3.2	-3.2	272	7
2023-08-09T18:00	2797	723	-3.3	-3.3	274	7
2023-08-09T18:00	2828	721	-3.5	-3.5	277	8
2023-08-09T18:00	2856	718	-3.9	-3.9	280	8
2023-08-09T18:00	2886	715	-4.1	-4.2	283	8
2023-08-09T18:00	2918	712	-4.1	-4.6	285	8
2023-08-09T18:00	2948	710	-4.3	-5.0	286	9
2023-08-09T18:00	2982	707	-4.5	-5.0	287	9
2023-08-09T18:00	3013	704	-4.8	-5.2	287	9
2023-08-09T18:00	3043	701	-5.0	-5.4	287	9
2023-08-09T18:00	3074	698	-5.3	-5.6	287	9
2023-08-09T18:00	3106	696	-5.5	-5.7	288	9
2023-08-09T18:00	3138	693	-5.7	-5.8	289	9
2023-08-09T18:00	3169	690	-6.0	-6.0	291	9
2023-08-09T18:00	3202	687	-6.2	-6.2	293	9
2023-08-09T18:00	3234	684	-6.4	-6.4	296	10
2023-08-09T18:00	3265	682	-6.5	-6.5	298	10
2023-08-09T18:00	3297	679	-6.6	-6.9	300	10
2023-08-09T18:00	3328	676	-6.3	-8.7	301	11
2023-08-09T18:00	3360	674	-6.5	-9.2	301	11
2023-08-09T18:00	3390	671	-6.6	-8.6	301	11
2023-08-09T18:00	3422	668	-6.8	-8.6	300	11
2023-08-09T18:00	3452	665	-7.0	-8.8	299	11
2023-08-09T18:00	3483	663	-7.1	-8.8	297	10
2023-08-09T18:00	3513	660	-7.3	-9.4	294	10
2023-08-09T18:00	3542	658	-7.4	-10.4	292	10
2023-08-09T18:00	3571	655	-7.6	-11.1	289	10
2023-08-09T18:00	3603	653	-7.6	-19.8	287	10
2023-08-09T18:00	3635	650	-7.6	-16.8	285	10
2023-08-09T18:00	3667	648	-7.8	-12.8	285	10
2023-08-09T18:00	3697	645	-7.9	-14.9	285	10
2023-08-09T18:00	3730	642	-8.0	-21.7	286	10
2023-08-09T18:00	3761	640	-8.2	-27.1	287	10
2023-08-09T18:00	3792	637	-8.5	-27.7	287	9
2023-08-09T18:00	3825	634	-8.8	-26.2	287	9
2023-08-09T18:00	3857	632	-9.0	-28.2	287	9
2023-08-09T18:00	3886	629	-9.3	-28.2	288	8
2023-08-09T18:00	3915	627	-9.5	-28.6	289	8
2023-08-09T18:00	3948	624	-9.8	-28.7	291	7
2023-08-09T18:00	3979	622	-10.0	-31.4	294	7
2023-08-09T18:00	4008	619	-10.2	-32.7	296	7
2023-08-09T18:00	4040	617	-10.5	-33.0	299	7
2023-08-09T18:00	4069	615	-10.6	-33.4	301	7
2023-08-09T18:00	4098	612	-10.7	-34.6	302	7
2023-08-09T18:00	4128	610	-10.8	-34.6	303	7
2023-08-09T18:00	4161	607	-11.1	-34.3	303	7
2023-08-09T18:00	4191	605	-11.3	-33.7	302	7
2023-08-09T18:00	4220	603	-11.5	-33.0	302	7
2023-08-09T18:00	4253	600	-11.7	-33.2	301	7
2023-08-09T18:00	4285	598	-12.0	-33.6	301	7
2023-08-09T18:00	4316	595	-12.1	-33.7	303	7
2023-08-09T18:00	4346	593	-12.3	-33.7	305	8
2023-08-09T18:00	4375	590	-12.5	-34.0	306	8
2023-08-09T18:00	4410	588	-12.8	-34.6	307	8
2023-08-09T18:00	4441	585	-13.0	-35.3	307	8
2023-08-09T18:00	4472	583	-13.1	-35.8	305	7
2023-08-09T18:00	4503	581	-13.2	-35.8	302	7
2023-08-09T18:00	4533	578	-13.4	-35.9	301	7
2023-08-09T18:00	4563	576	-13.4	-36.2	300	7
2023-08-09T18:00	4593	574	-13.5	-36.0	300	6
2023-08-09T18:00	4626	571	-13.6	-37.2	301	7
2023-08-09T18:00	4656	569	-13.7	-38.4	302	7
2023-08-09T18:00	4688	567	-13.8	-34.9	300	7
2023-08-09T18:00	4717	565	-14.0	-21.9	298	7
2023-08-09T18:00	4750	562	-14.1	-33.7	295	7
2023-08-09T18:00	4782	560	-14.3	-37.2	293	7
2023-08-09T18:00	4814	557	-14.6	-37.4	292	7
2023-08-09T18:00	4846	555	-14.7	-35.3	293	7
2023-08-09T18:00	4877	553	-14.9	-35.5	295	7
2023-08-09T18:00	4909	551	-15.2	-34.3	297	7
2023-08-09T18:00	4941	548	-15.3	-34.9	298	7
2023-08-09T18:00	4973	546	-15.5	-33.2	299	7
2023-08-09T18:00	5007	543	-15.5	-35.4	299	7
2023-08-09T18:00	5040	541	-15.5	-40.3	298	8
2023-08-09T18:00	5072	539	-15.4	-43.5	297	8
2023-08-09T18:00	5104	536	-15.4	-45.0	294	8
2023-08-09T18:00	5137	534	-15.7		291	8
2023-08-09T18:00	5166	532	-15.6	-45.8	287	8
2023-08-09T18:00	5198	530	-15.6	-46.2	283	8
2023-08-09T18:00	5230	528	-15.5	-46.8	280	8
2023-08-09T18:00	5263	525	-15.5	-47.2	278	8
2023-08-09T18:00	5293	523	-15.7	-47.4	278	8
2023-08-09T18:00	5324	521	-16.0	-47.6	279	9
2023-08-09T18:00	5351	519	-16.2	-48.3	280	9
2023-08-09T18:00	5380	517	-16.2	-48.5	280	9
2023-08-09T18:00	5410	515	-15.9	-49.1	280	10
2023-08-09T18:00	5440	513	-15.7	-48.9	279	10
2023-08-09T18:00	5470	511	-15.3	-48.3	277	10
2023-08-09T18:00	5503	509	-15.1	-47.9	274	9
2023-08-09T18:00	5530	507	-14.8	-40.6	272	9
2023-08-09T18:00	5561	505	-15.0	-37.9	270	9
2023-08-09T18:00	5593	503	-15.1	-35.4	268	8
2023-08-09T18:00	5621	501	-14.9	-24.9	267	8
2023-08-09T18:00	5650	499	-14.7	-23.0	265	8
2023-08-09T18:00	5674	497	-14.6	-23.3	264	9
2023-08-09T18:00	5703	496	-14.8	-23.5	263	9
2023-08-09T18:00	5732	494	-15.0	-23.6	262	9
2023-08-09T18:00	5763	492	-15.1	-23.7	263	8
2023-08-09T18:00	5792	490	-15.3	-24.1	264	8
2023-08-09T18:00	5824	488	-15.5	-24.2	265	8
2023-08-09T18:00	5852	486	-15.7	-24.3	266	8
2023-08-09T18:00	5882	484	-15.9	-24.5	268	8
2023-08-09T18:00	5914	482	-16.1	-25.0	268	8
2023-08-09T18:00	5948	480	-16.0	-26.0	269	8
2023-08-09T18:00	5979	478	-16.1	-26.5	268	8
2023-08-09T18:00	6010	476	-16.3	-27.0	268	8
2023-08-09T18:00	6040	474	-16.5	-27.4	267	8
2023-08-09T18:00	6072	472	-16.7	-27.5	266	8
2023-08-09T18:00	6104	470	-16.9	-28.1	265	8
2023-08-09T18:00	6134	468	-17.1	-28.5	263	8
2023-08-09T18:00	6167	466	-17.3	-28.1	262	8
2023-08-09T18:00	6200	464	-17.5	-28.7	260	7
2023-08-09T18:00	6232	462	-17.7	-29.1	259	7
2023-08-09T18:00	6263	460	-17.9	-29.2	260	8
2023-08-09T18:00	6295	458	-18.1	-29.2	261	8
2023-08-09T18:00	6324	456	-18.4	-29.3	264	8
2023-08-09T18:00	6355	454	-18.7	-29.4	266	9
2023-08-09T18:00	6379	453	-18.9	-29.4	268	9
2023-08-09T18:00	6409	451	-19.0	-29.5	269	10
2023-08-09T18:00	6442	449	-19.3	-29.7	270	10
2023-08-09T18:00	6474	447	-19.5	-29.7	271	10
2023-08-09T18:00	6505	445	-19.8	-29.7	272	10
2023-08-09T18:00	6536	443	-20.0	-30.0	273	10
2023-08-09T18:00	6569	441	-20.2	-30.2	274	10
2023-08-09T18:00	6602	440	-20.4	-30.2	276	10
2023-08-09T18:00	6636	438	-20.7	-30.4	277	10
2023-08-09T18:00	6669	436	-20.9	-30.5	279	10
2023-08-09T18:00	6700	434	-21.1	-30.2	281	10
2023-08-09T18:00	6729	432	-21.2	-30.3	283	10
2023-08-09T18:00	6764	430	-21.2	-29.9	285	10
2023-08-09T18:00	6795	428	-21.3	-30.2	288	10
2023-08-09T18:00	6827	426	-21.5	-30.0	291	11
2023-08-09T18:00	6862	424	-21.8	-30.1	294	11
2023-08-09T18:00	6895	422	-22.0	-30.4	296	11
2023-08-09T18:00	6926	421	-22.2	-30.7	296	11
2023-08-09T18:00	6948	419	-22.4	-30.7	296	11
2023-08-09T18:00	6978	418	-22.6	-31.2	295	11
2023-08-09T18:00	7005	416	-22.7	-31.5	294	11
2023-08-09T18:00	7039	414	-22.9	-32.1	294	11
2023-08-09T18:00	7067	413	-23.2	-32.5	294	11
2023-08-09T18:00	7098	411	-23.4	-33.0	295	11
2023-08-09T18:00	7128	409	-23.6	-33.3	295	11
2023-08-09T18:00	7164	407	-23.9	-33.1	295	12
2023-08-09T18:00	7188	406	-24.1	-33.2	294	12
2023-08-09T18:00	7213	404	-24.3	-33.3	293	12
2023-08-09T18:00	7240	403	-24.6	-33.7	292	12
2023-08-09T18:00	7267	401	-24.7	-34.9	291	12
2023-08-09T18:00	7296	400	-24.9	-36.4	290	12
2023-08-09T18:00	7323	398	-25.1	-37.4	290	12
2023-08-09T18:00	7348	397	-25.3	-37.8	291	12
2023-08-09T18:00	7379	395	-25.4	-38.2	291	12
2023-08-09T18:00	7408	394	-25.7	-38.3	292	11
2023-08-09T18:00	7437	392	-26.0	-38.5	293	11
2023-08-09T18:00	7468	390	-26.3	-38.5	293	11
2023-08-09T18:00	7499	389	-26.5	-37.5	295	12
2023-08-09T18:00	7531	387	-26.8	-35.5	297	12
2023-08-09T18:00	7562	385	-27.0	-34.9	299	12
2023-08-09T18:00	7594	384	-27.2	-34.7	301	12
2023-08-09T18:00	7626	382	-27.5	-34.6	303	12
2023-08-09T18:00	7656	380	-27.8	-34.0	305	13
2023-08-09T18:00	7690	379	-28.1	-34.4	307	13
2023-08-09T18:00	7723	377	-28.4	-33.9	308	14
2023-08-09T18:00	7754	375	-28.6	-33.9	309	14
2023-08-09T18:00	7787	374	-28.8	-33.8	310	15
2023-08-09T18:00	7820	372	-29.1	-34.0	311	15
2023-08-09T18:00	7855	370	-29.4	-34.1	311	15
2023-08-09T18:00	7886	368	-29.7		311	16
2023-08-09T18:00	7920	367	-30.0	-34.5	312	16
2023-08-09T18:00	7954	365	-30.2	-35.5	312	17
2023-08-09T18:00	7981	363	-30.4	-35.3	312	17
2023-08-09T18:00	8008	362	-30.7	-35.3	313	17
2023-08-09T18:00	8040	360	-31.0		314	17
2023-08-09T18:00	8067	359	-31.1	-34.8	316	17
2023-08-09T18:00	8099	357	-31.3	-35.3	316	17
2023-08-09T18:00	8128	356	-31.6	-35.3	317	17
2023-08-09T18:00	8159	355	-31.8	-35.2	318	18
2023-08-09T18:00	8185	353	-32.0	-35.6	319	18
2023-08-09T18:00	8211	352	-32.2	-35.6	319	18
2023-08-09T18:00	8241	350	-32.4	-35.7	320	18
2023-08-09T18:00	8275	349	-32.7	-35.9	321	18
2023-08-09T18:00	8303	347	-32.9	-36.1	321	17
2023-08-09T18:00	8332	346	-33.1	-36.2	322	17
2023-08-09T18:00	8364	344	-33.3	-36.5	321	17
2023-08-09T18:00	8392	343	-33.5	-37.1	321	17
2023-08-09T18:00	8422	342	-33.8	-37.1	321	17
2023-08-09T18:00	8446	340	-34.0	-37.3	321	17
2023-08-09T18:00	8472	339	-34.2	-37.5	321	17
2023-08-09T18:00	8506	337	-34.5	-37.6	322	17
2023-08-09T18:00	8541	336	-34.8	-38.0	322	17
2023-08-09T18:00	8574	334	-35.1	-37.9	323	16
2023-08-09T18:00	8606	333	-35.4	-38.2	322	16
2023-08-09T18:00	8634	331	-35.6	-38.3	322	16
2023-08-09T18:00	8660	330	-35.9	-38.5	321	16
2023-08-09T18:00	8688	329	-36.1	-38.6	321	17
2023-08-09T18:00	8720	327	-36.4	-39.1	320	17
2023-08-09T18:00	8750	326	-36.7	-39.4	319	17
2023-08-09T18:00	8777	325	-36.9	-39.3	319	16
2023-08-09T18:00	8800	323	-37.1	-39.3	319	16
2023-08-09T18:00	8828	322	-37.4	-39.5	321	17
2023-08-09T18:00	8858	321	-37.6	-39.7	323	17
2023-08-09T18:00	8894	319	-37.8	-40.3	326	17
2023-08-09T18:00	8925	318	-38.0	-41.2	329	17
2023-08-09T18:00	8962	316	-38.3	-41.3	332	17
2023-08-09T18:00	8998	314	-38.6	-41.5	334	17
2023-08-09T18:00	9032	313	-38.9	-41.8	335	17
2023-08-09T18:00	9068	311	-39.2	-42.3	335	17
2023-08-09T18:00	9104	309	-39.5	-42.6	336	17
2023-08-09T18:00	9140	308	-39.8	-43.0	336	17
2023-08-09T18:00	9176	306	-40.1	-43.4	336	17
2023-08-09T18:00	9212	305	-40.5	-43.7	337	17
2023-08-09T18:00	9248	303	-40.8	-44.1	337	17
2023-08-09T18:00	9283	302	-41.1	-44.1	337	17
2023-08-09T18:00	9311	300	-41.4	-44.1	338	17
2023-08-09T18:00	9337	299	-41.6	-44.4	338	17
2023-08-09T18:00	9364	298	-41.8	-44.7	338	18
2023-08-09T18:00	9390	297	-42.0	-44.9	338	18
2023-08-09T18:00	9419	295	-42.3	-45.1	338	19
2023-08-09T18:00	9453	294	-42.6	-45.2	338	20
2023-08-09T18:00	9480	293	-42.8	-45.5	338	20
2023-08-09T18:00	9514	291	-43.1	-45.8	339	20
2023-08-09T18:00	9544	290	-43.4	-46.3	340	20
2023-08-09T18:00	9575	289	-43.7	-47.1	341	20
2023-08-09T18:00	9600	288	-43.9	-47.0	341	20
2023-08-09T18:00	9627	287	-44.2	-47.5	341	20
2023-08-09T18:00	9650	285	-44.4	-48.0	339	21
2023-08-09T18:00	9681	284	-44.7	-48.5	338	21
2023-08-09T18:00	9711	283	-44.9	-48.8	337	21
2023-08-09T18:00	9734	282	-45.2	-48.7	336	21
2023-08-09T18:00	9758	281	-45.4	-48.1	336	21
2023-08-09T18:00	9783	280	-45.7	-48.3	336	21
2023-08-09T18:00	9811	279	-45.9	-48.8	336	21
2023-08-09T18:00	9836	278	-46.1	-49.3	336	21
2023-08-09T18:00	9864	276	-46.4	-49.2	336	21
2023-08-09T18:00	9891	275	-46.7	-49.3	335	22
2023-08-09T18:00	9917	274	-46.9	-49.4	335	22
2023-08-09T18:00	9938	273	-47.1	-49.4	336	22
2023-08-09T18:00	9971	272	-47.4	-49.8	337	21
2023-08-09T18:00	9997	271	-47.6	-50.6	339	21
2023-08-09T18:00	10027	270	-47.7	-52.2	340	21
2023-08-09T18:00	10060	268	-47.8	-53.5	341	21
2023-08-09T18:00	10081	267	-48.0	-53.5	341	21
2023-08-09T18:00	10106	266	-48.2	-54.1	341	22
2023-08-09T18:00	10131	265	-48.1	-59.4	341	22
2023-08-09T18:00	10161	264	-47.2	-65.2	341	22
2023-08-09T18:00	10187	263	-46.9		341	22
2023-08-09T18:00	10214	262	-46.5	-61.6	340	22
2023-08-09T18:00	10244	261	-46.4	-60.6	340	22
2023-08-09T18:00	10267	260	-46.1	-60.2	339	22
2023-08-09T18:00	10293	259	-46.0	-60.2	338	22
2023-08-09T18:00	10317	258	-46.1	-60.4	337	22
2023-08-09T18:00	10339	257	-46.0	-60.3	336	22
2023-08-09T18:00	10366	256	-46.2	-60.5	334	22
2023-08-09T18:00	10393	255	-46.4	-60.8	333	22
2023-08-09T18:00	10424	254	-46.5	-60.9	332	22
2023-08-09T18:00	10450	253	-46.6	-61.0	332	22
2023-08-09T18:00	10473	252	-46.8	-61.1	332	23
2023-08-09T18:00	10500	251	-47.0	-61.0	333	24
2023-08-09T18:00	10526	250	-47.0	-60.8	333	25
2023-08-09T18:00	10551	249	-47.1		333	25
2023-08-09T18:00	10576	248	-47.0	-60.8	333	26
2023-08-09T18:00	10601	247	-47.1	-60.9	333	26
2023-08-09T18:00	10625	246	-47.3	-61.0	333	27
2023-08-09T18:00	10649	246	-47.4	-61.2	332	27
2023-08-09T18:00	10675	245	-47.5	-61.5	333	28
2023-08-09T18:00	10703	244	-47.2	-61.9	333	28
2023-08-09T18:00	10733	242	-47.0	-62.7	333	29
2023-08-09T18:00	10757	242	-46.6	-63.3	334	29
2023-08-09T18:00	10782	241	-46.6	-63.6	335	30
2023-08-09T18:00	10809	240	-46.7	-63.9	335	30
2023-08-09T18:00	10835	239	-46.4	-64.4	336	30
2023-08-09T18:00	10866	238	-46.3	-64.9	337	30
2023-08-09T18:00	10894	237	-46.1	-65.2	338	29
2023-08-09T18:00	10924	236	-45.9	-65.7	339	29
2023-08-09T18:00	10949	235	-45.7	-65.8	339	28
2023-08-09T18:00	10974	234	-45.9	-65.9	339	28
2023-08-09T18:00	11001	233	-46.1	-65.7	339	28
2023-08-09T18:00	11026	232	-46.4	-65.6	339	28
2023-08-09T18:00	11055	231	-46.6	-65.7	339	28
2023-08-09T18:00	11085	230	-46.7	-65.9	340	28
2023-08-09T18:00	11112	229	-46.8	-66.2	341	28
2023-08-09T18:00	11141	228	-46.9	-66.3	342	28
2023-08-09T18:00	11166	227	-46.9		343	28
2023-08-09T18:00	11192	226	-46.8	-67.0	344	28
2023-08-09T18:00	11218	225	-46.7	-67.3	345	28
2023-08-09T18:00	11245	224	-46.7	-67.6	345	28
2023-08-09T18:00	11272	224	-46.7	-67.9	345	28
2023-08-09T18:00	11300	223	-46.7	-68.1	345	28
2023-08-09T18:00	11331	222	-46.7	-69.0	344	27
2023-08-09T18:00	11360	221	-46.5	-69.9	343	27
2023-08-09T18:00	11382	220	-46.5	-70.7	342	27
2023-08-09T18:00	11408	219	-46.6	-71.2	340	27
2023-08-09T18:00	11434	218	-46.5	-71.4	340	27
2023-08-09T18:00	11457	217	-46.6	-72.1	339	28
2023-08-09T18:00	11482	217	-46.3	-72.5	339	28
2023-08-09T18:00	11509	216	-45.7	-72.8	339	29
2023-08-09T18:00	11535	215	-45.4	-73.1	339	29
2023-08-09T18:00	11559	214	-45.3	-73.6	339	29
2023-08-09T18:00	11584	213	-45.2	-73.8	340	30
2023-08-09T18:00	11610	212	-44.7	-73.7	340	30
2023-08-09T18:00	11637	212	-44.4	-73.5	341	29
2023-08-09T18:00	11661	211	-44.2	-73.3	341	29
2023-08-09T18:00	11691	210	-44.2	-73.7	342	29
2023-08-09T18:00	11719	209	-44.4	-74.2	343	28
2023-08-09T18:00	11746	208	-44.4	-74.2	344	28
2023-08-09T18:00	11770	207	-44.4	-74.2	345	27
2023-08-09T18:00	11792	207	-44.4	-74.5	345	27
2023-08-09T18:00	11816	206	-44.4	-74.9	345	26
2023-08-09T18:00	11839	205	-44.4	-74.9	345	26
2023-08-09T18:00	11863	205	-44.5	-75.4	345	26
2023-08-09T18:00	11886	204	-44.6	-75.5	345	26
2023-08-09T18:00	11910	203	-44.7	-75.6	345	26
2023-08-09T18:00	11933	202	-44.8	-75.6	344	26
2023-08-09T18:00	11954	202	-44.9	-75.7	344	25
2023-08-09T18:00	11978	201	-45.0	-75.8	344	25
2023-08-09T18:00	12004	200	-45.1	-76.3	343	24
2023-08-09T18:00	12027	200	-45.2	-76.4	343	24
2023-08-09T18:00	12047	199	-45.3	-76.4	342	23
2023-08-09T18:00	12068	198	-45.3	-76.4	342	22
2023-08-09T18:00	12091	198	-45.2	-76.4	342	22
2023-08-09T18:00	12115	197	-45.2	-76.8	342	22
2023-08-09T18:00	12136	196	-44.9	-76.6	342	21
2023-08-09T18:00	12160	196	-44.8	-76.5	342	21
2023-08-09T18:00	12181	195	-44.9	-76.6	342	21
2023-08-09T18:00	12205	194	-44.9	-76.6	343	21
2023-08-09T18:00	12227	194	-45.1	-76.8	343	21
2023-08-09T18:00	12254	193	-45.3	-76.9	343	20
2023-08-09T18:00	12279	192	-45.3	-76.9	342	20
2023-08-09T18:00	12301	192	-45.5	-77.1	342	20
2023-08-09T18:00	12325	191	-45.5	-77.1	342	19
2023-08-09T18:00	12349	190	-45.6	-77.1	341	19
2023-08-09T18:00	12370	190	-45.8	-77.3	340	19
2023-08-09T18:00	12394	189	-45.7	-77.2	340	19
2023-08-09T18:00	12415	188	-45.6	-76.7	339	19
2023-08-09T18:00	12439	188	-45.6	-77.1	338	19
2023-08-09T18:00	12462	187	-45.6	-77.1	338	19
2023-08-09T18:00	12484	186	-45.5	-77.1	338	18
2023-08-09T18:00	12508	186	-45.4	-77.0	338	18
2023-08-09T18:00	12534	185	-45.4	-77.0	339	17
2023-08-09T18:00	12565	184	-45.3	-77.4	340	17
2023-08-09T18:00	12590	183	-45.2	-77.3	340	17
2023-08-09T18:00	12616	183	-45.3	-77.4	340	17
2023-08-09T18:00	12640	182	-45.3	-77.4	339	17
2023-08-09T18:00	12664	181	-45.3	-77.4	338	17
2023-08-09T18:00	12688	181	-45.4	-77.5	337	18
2023-08-09T18:00	12710	180	-45.5	-77.6	336	18
2023-08-09T18:00	12735	180	-45.6	-77.6	336	18
2023-08-09T18:00	12760	179	-45.7	-77.7	336	18
2023-08-09T18:00	12784	178	-45.7	-77.7	336	18
2023-08-09T18:00	12809	178	-45.5	-77.6	336	18
2023-08-09T18:00	12834	177	-45.3	-77.4	337	18
2023-08-09T18:00	12859	176	-45.3	-78.0	337	19
2023-08-09T18:00	12886	176	-45.4	-78.0	338	19
2023-08-09T18:00	12912	175	-45.5	-77.6	339	20
2023-08-09T18:00	12938	174	-45.6	-77.6	340	20
2023-08-09T18:00	12961	173	-45.7	-77.7	340	20
2023-08-09T18:00	12987	173	-45.6	-77.6	340	20
2023-08-09T18:00	13013	172	-45.7	-77.7	340	19
2023-08-09T18:00	13041	171	-45.8	-77.8	340	19
2023-08-09T18:00	13070	171	-46.0	-77.9	339	18
2023-08-09T18:00	13096	170	-46.1	-78.0	338	18
2023-08-09T18:00	13120	169	-46.1	-78.0	337	18
2023-08-09T18:00	13145	169	-46.2	-78.1	336	18
2023-08-09T18:00	13169	168	-46.3	-78.2	335	18
2023-08-09T18:00	13192	168	-46.4	-78.2	334	18
2023-08-09T18:00	13218	167	-46.5	-78.3	333	19
2023-08-09T18:00	13242	166	-46.5	-78.3	333	19
2023-08-09T18:00	13265	166	-46.4	-78.2	333	19
2023-08-09T18:00	13290	165	-46.3	-78.2	334	19
2023-08-09T18:00	13313	165	-46.2	-78.1	335	19
2023-08-09T18:00	13336	164	-46.0	-78.5	336	19
2023-08-09T18:00	13359	163	-45.5	-78.1	337	19
2023-08-09T18:00	13384	163	-45.4	-78.0	338	18
2023-08-09T18:00	13409	162	-45.4	-78.0	340	18
2023-08-09T18:00	13430	162	-45.3	-78.0	341	18
2023-08-09T18:00	13454	161	-45.4	-78.0	342	18
2023-08-09T18:00	13477	161	-45.3	-78.0	343	18
2023-08-09T18:00	13503	160	-45.4	-77.5	344	18
2023-08-09T18:00	13524	159	-45.4	-77.5	345	18
2023-08-09T18:00	13548	159	-45.4	-78.0	346	18
2023-08-09T18:00	13570	158	-45.5	-77.6	346	18
2023-08-09T18:00	13591	158	-45.5	-77.6	346	17
2023-08-09T18:00	13616	157	-45.6	-77.6	346	17
2023-08-09T18:00	13640	157	-45.6	-77.6	345	17
2023-08-09T18:00	13660	156	-45.7	-77.7	344	16
2023-08-09T18:00	13685	156	-45.8	-77.8	344	16
2023-08-09T18:00	13708	155	-46.0	-77.9	344	16
2023-08-09T18:00	13731	155	-45.9	-77.9	344	16
2023-08-09T18:00	13753	154	-45.9	-77.9	344	16
2023-08-09T18:00	13777	153	-45.8	-77.8	344	16
2023-08-09T18:00	13800	153	-45.7	-78.2	345	15
2023-08-09T18:00	13826	152	-45.6	-78.2	345	14
2023-08-09T18:00	13847	152	-45.5	-78.1	345	14
2023-08-09T18:00	13871	151	-45.6	-78.2	345	13
2023-08-09T18:00	13895	151	-45.5	-78.1	345	13
2023-08-09T18:00	13921	150	-45.1	-77.8	346	12
2023-08-09T18:00	13946	150	-44.8	-77.6	347	12
2023-08-09T18:00	13970	149	-45.0	-77.7	348	12
2023-08-09T18:00	13995	149	-45.2	-77.9	349	11
2023-08-09T18:00	14017	148	-45.4	-78.0	349	11
2023-08-09T18:00	14043	148	-45.6	-78.2	349	11
2023-08-09T18:00	14066	147	-45.5	-78.1	348	11
2023-08-09T18:00	14090	146	-45.5	-78.1	348	10
2023-08-09T18:00	14114	146	-45.6	-78.2	348	10
2023-08-09T18:00	14139	145	-45.7	-78.2	347	10
2023-08-09T18:00	14164	145	-45.9	-78.4	346	10
2023-08-09T18:00	14190	144	-46.1	-78.5	345	10
2023-08-09T18:00	14215	144	-46.1	-78.0	344	10
2023-08-09T18:00	14241	143	-46.3	-78.2	343	10
2023-08-09T18:00	14267	143	-46.4	-78.2	341	10
2023-08-09T18:00	14293	142	-46.5	-78.3	338	10
2023-08-09T18:00	14320	142	-46.6	-78.4	336	10
2023-08-09T18:00	14345	141	-46.7	-78.4	334	10
2023-08-09T18:00	14370	140	-46.8	-78.5	332	10
2023-08-09T18:00	14397	140	-47.0	-78.7	332	10
2023-08-09T18:00	14423	139	-47.1	-78.7	333	11
2023-08-09T18:00	14449	139	-47.2	-78.8	334	11
2023-08-09T18:00	14478	138	-47.2	-78.8	336	12
2023-08-09T18:00	14503	138	-47.1	-78.7	338	12
2023-08-09T18:00	14527	137	-47.3	-78.9	340	13
2023-08-09T18:00	14553	137	-47.4	-79.0	341	13
2023-08-09T18:00	14579	136	-47.6	-79.1	341	14
2023-08-09T18:00	14604	136	-47.8	-79.3	342	14
2023-08-09T18:00	14631	135	-47.8	-79.3	342	14
2023-08-09T18:00	14657	134	-47.9	-79.3	343	15
2023-08-09T18:00	14681	134	-48.0	-79.4	343	15
2023-08-09T18:00	14706	133	-48.1	-79.5	344	15
2023-08-09T18:00	14734	133	-48.2	-79.6	344	15
2023-08-09T18:00	14758	132	-48.1	-79.5	345	15
2023-08-09T18:00	14786	132	-48.3	-79.6	345	15
2023-08-09T18:00	14809	131	-48.3	-79.6	344	15
2023-08-09T18:00	14835	131	-48.3	-79.6	344	15
2023-08-09T18:00	14862	130	-48.2	-79.6	343	15
2023-08-09T18:00	14885	130	-48.3	-79.6	342	15
2023-08-09T18:00	14911	129	-48.4	-79.7	342	15
2023-08-09T18:00	14936	129	-48.5	-79.8	341	14
2023-08-09T18:00	14962	128	-48.7	-79.9	341	14
2023-08-09T18:00	14984	128	-48.9	-79.6	341	14
2023-08-09T18:00	15011	127	-49.1	-79.7	341	14
2023-08-09T18:00	15037	127	-49.3	-79.9	340	13
2023-08-09T18:00	15063	126	-49.5	-80.0	340	13
2023-08-09T18:00	15087	126	-49.7	-80.2	340	13
2023-08-09T18:00	15113	125	-49.8	-80.3	341	13
2023-08-09T18:00	15136	125	-49.9	-80.3	342	13
2023-08-09T18:00	15160	125	-50.0	-80.4	343	13
2023-08-09T18:00	15185	124	-50.1	-80.5	345	13
2023-08-09T18:00	15210	124	-50.2	-80.6	346	13
2023-08-09T18:00	15235	123	-49.9	-80.3	348	13
2023-08-09T18:00	15259	123	-50.0	-80.4	350	14
2023-08-09T18:00	15286	122	-50.0	-80.4	352	14
2023-08-09T18:00	15311	122	-50.1	-80.5	354	14
2023-08-09T18:00	15336	121	-50.3	-80.6	356	14
2023-08-09T18:00	15359	121	-50.5	-80.8	358	14
2023-08-09T18:00	15383	120	-50.6	-80.9	1	14
2023-08-09T18:00	15410	120	-50.8	-81.0	3	14
2023-08-09T18:00	15433	119	-50.7	-80.9	4	14
2023-08-09T18:00	15457	119	-50.5	-80.8	5	14
2023-08-09T18:00	15481	119	-50.3	-81.1	6	13
2023-08-09T18:00	15504	118	-50.2	-81.0	6	13
2023-08-09T18:00	15529	118	-50.2	-81.0	6	12
2023-08-09T18:00	15554	117	-50.3	-80.6	5	12
2023-08-09T18:00	15576	117	-50.5	-80.8	5	11
2023-08-09T18:00	15600	116	-50.7	-80.9	5	11
2023-08-09T18:00	15624	116	-50.9	-81.1	6	10
2023-08-09T18:00	15650	116	-51.0	-81.2	7	10
2023-08-09T18:00	15674	115	-51.0	-81.2	9	10
2023-08-09T18:00	15698	115	-51.1	-81.2	12	9
2023-08-09T18:00	15726	114	-51.2	-81.3	14	9
2023-08-09T18:00	15751	114	-51.1	-81.2	15	9
2023-08-09T18:00	15776	113	-51.2	-81.3	16	8
2023-08-09T18:00	15799	113	-51.4	-81.5	15	8
2023-08-09T18:00	15823	113	-51.6	-81.2	14	8
2023-08-09T18:00	15846	112	-51.8	-81.3	12	8
2023-08-09T18:00	15868	112	-51.9	-81.4	10	8
2023-08-09T18:00	15892	111	-52.0	-81.5	8	8
2023-08-09T18:00	15918	111	-52.0	-81.9	6	8
2023-08-09T18:00	15942	110	-51.8	-81.8	4	9
2023-08-09T18:00	15967	110	-51.7	-81.7	2	9
2023-08-09T18:00	15993	110	-51.7	-81.7	1	10
2023-08-09T18:00	16016	109	-51.7	-81.7	0	10
2023-08-09T18:00	16040	109	-51.6	-82.1	360	11
2023-08-09T18:00	16062	108	-51.6	-82.1	1	11
2023-08-09T18:00	16088	108	-51.5	-82.0	2	11
2023-08-09T18:00	16110	108	-51.2	-81.8	4	11
2023-08-09T18:00	16134	107	-51.0	-81.6	6	11
2023-08-09T18:00	16159	107	-51.0	-82.2	9	11
2023-08-09T18:00	16183	106	-50.9	-82.1	13	10
2023-08-09T18:00	16205	106	-50.7		16	10
2023-08-09T18:00	16228	106	-50.6	-81.9	19	9
2023-08-09T18:00	16255	105	-50.5	-81.8	21	9
2023-08-09T18:00	16280	105	-50.6	-81.9	23	9
2023-08-09T18:00	16304	104	-50.8	-82.0	24	9
2023-08-09T18:00	16327	104	-51.0	-82.2	24	9
2023-08-09T18:00	16354	104	-51.0	-82.2	22	9
2023-08-09T18:00	16376	103	-50.8	-82.0	21	9
2023-08-09T18:00	16402	103	-50.8	-82.0	19	9
2023-08-09T18:00	16428	103	-50.7		17	9
2023-08-09T18:00	16452	102	-50.9	-82.1	17	9
2023-08-09T18:00	16475	102	-51.1	-82.2	18	9
2023-08-09T18:00	16501	101	-51.1	-82.2	20	9
2023-08-09T18:00	16526	101	-50.9	-82.1	22	9
2023-08-09T18:00	16548	101	-50.6	-81.9	25	9
2023-08-09T18:00	16573	100	-50.6	-81.9	29	9
2023-08-09T18:00	16595	100	-50.6	-81.9	32	9
2023-08-09T18:00	16620	100	-50.7		34	9
2023-08-09T18:00	16645	99	-50.8	-82.0	35	9
2023-08-09T18:00	16671	99	-50.9	-82.1	36	9
2023-08-09T18:00	16697	98	-51.1	-82.2	35	8
2023-08-09T18:00	16723	98	-51.2	-81.8	33	8
2023-08-09T18:00	16749	98	-51.4	-81.9	30	8
2023-08-09T18:00	16773	97	-51.6	-82.1	27	8
2023-08-09T18:00	16800	97	-51.8	-82.2	22	7
2023-08-09T18:00	16826	96	-52.0	-82.4	16	7
2023-08-09T18:00	16853	96	-52.0	-82.4	9	7
2023-08-09T18:00	16880	96	-52.0	-82.4	2	7
2023-08-09T18:00	16905	95	-51.9	-82.3	355	7
2023-08-09T18:00	16930	95	-51.8	-82.2	350	7
2023-08-09T18:00	16951	95	-51.9	-82.3	347	7
2023-08-09T18:00	16975	94	-52.0	-82.9	345	6
2023-08-09T18:00	17000	94	-51.8	-82.8	345	6
2023-08-09T18:00	17024	94	-51.7	-82.7	344	6
2023-08-09T18:00	17047	93	-51.7	-82.7	344	6
2023-08-09T18:00	17076	93	-51.9	-82.8	344	6
2023-08-09T18:00	17098	92	-52.0	-82.4	344	6
2023-08-09T18:00	17124	92	-52.1	-82.5	344	7
2023-08-09T18:00	17149	92	-52.2	-82.5	344	7
2023-08-09T18:00	17174	91	-52.4	-82.7	345	7
2023-08-09T18:00	17196	91	-52.5	-82.8	346	7
2023-08-09T18:00	17219	91	-52.6	-82.8	347	8
2023-08-09T18:00	17247	90	-52.6	-82.8	348	8
2023-08-09T18:00	17270	90	-52.7	-82.9	349	8
2023-08-09T18:00	17296	90	-52.7	-82.9	350	8
2023-08-09T18:00	17318	89	-52.8	-83.0	350	9
2023-08-09T18:00	17343	89	-52.8	-83.0	351	9
2023-08-09T18:00	17370	89	-52.9	-83.1	353	9
2023-08-09T18:00	17395	88	-52.9	-83.1	355	9
2023-08-09T18:00	17419	88	-52.8	-83.0	358	8
2023-08-09T18:00	17443	88	-52.7	-82.9	2	8
2023-08-09T18:00	17466	87	-52.6	-82.8	6	8
2023-08-09T18:00	17493	87	-52.5	-82.8	10	8
2023-08-09T18:00	17516	87	-52.5	-83.3	14	7
2023-08-09T18:00	17542	86	-52.5	-83.3	17	7
2023-08-09T18:00	17566	86	-52.3	-83.1	20	7
2023-08-09T18:00	17593	86	-51.9	-82.8	23	6
2023-08-09T18:00	17619	85	-51.9	-82.8	25	6
2023-08-09T18:00	17646	85	-51.9	-82.8	26	6
2023-08-09T18:00	17671	85	-51.9	-82.8	27	7
2023-08-09T18:00	17698	84	-52.0	-82.9	27	7
2023-08-09T18:00	17723	84	-52.1	-83.0	27	7
2023-08-09T18:00	17749	84	-52.2	-82.5	27	7
2023-08-09T18:00	17772	83	-52.3	-82.6	26	7
2023-08-09T18:00	17798	83	-52.5	-82.8	26	7
2023-08-09T18:00	17823	83	-52.7	-82.9	25	7
2023-08-09T18:00	17848	82	-52.9	-83.1	24	7
2023-08-09T18:00	17875	82	-53.0	-83.1	23	7
2023-08-09T18:00	17896	82	-52.9	-83.1	21	7
2023-08-09T18:00	17924	81	-53.1	-83.2	18	6
2023-08-09T18:00	17949	81	-53.1	-83.2	15	6
2023-08-09T18:00	17977	81	-53.1	-83.2	13	6
2023-08-09T18:00	18001	80	-53.1	-83.2	11	6
2023-08-09T18:00	18026	80	-53.1	-83.2	10	6
2023-08-09T18:00	18049	80	-53.2	-83.8	11	6
2023-08-09T18:00	18076	79	-52.9	-83.6	12	6
2023-08-09T18:00	18102	79	-52.6	-83.3	12	6
2023-08-09T18:00	18129	79	-52.5	-83.3	12	6
2023-08-09T18:00	18150	79	-52.5	-83.3	13	6
2023-08-09T18:00	18178	78	-52.4	-83.2	13	6
2023-08-09T18:00	18201	78	-52.3	-83.1	14	6
2023-08-09T18:00	18230	78	-52.4	-83.2	15	6
2023-08-09T18:00	18253	77	-52.5	-83.3	16	6
2023-08-09T18:00	18277	77	-52.5	-83.3	17	6
2023-08-09T18:00	18302	77	-52.5	-83.3	18	7
2023-08-09T18:00	18330	76	-52.3	-83.1	18	7
2023-08-09T18:00	18352	76	-52.0	-82.9	19	8
2023-08-09T18:00	18377	76	-52.1	-83.0	21	8
2023-08-09T18:00	18400	76	-52.2	-83.1	23	9
2023-08-09T18:00	18428	75	-52.4	-83.2	25	9
2023-08-09T18:00	18454	75	-52.2	-83.1	26	9
2023-08-09T18:00	18477	75	-52.0	-82.9	28	9
2023-08-09T18:00	18506	74	-51.9	-82.8	29	9
2023-08-09T18:00	18530	74	-51.8	-82.8	31	8
2023-08-09T18:00	18556	74	-51.9	-82.8	32	8
2023-08-09T18:00	18583	73	-52.1	-83.0	33	7
2023-08-09T18:00	18609	73	-52.3	-83.1	35	7
2023-08-09T18:00	18630	73	-52.5	-83.3	38	6
2023-08-09T18:00	18657	73	-52.6	-83.3	42	6
2023-08-09T18:00	18686	72	-52.5	-83.3	49	5
2023-08-09T18:00	18712	72	-52.4	-83.2	58	5
2023-08-09T18:00	18742	72	-52.1	-83.5	67	4
2023-08-09T18:00	18767	71	-51.9	-83.4	76	4
2023-08-09T18:00	18790	71	-51.6	-83.2	82	4
2023-08-09T18:00	18816	71	-51.3	-82.9	85	3
2023-08-09T18:00	18843	71	-51.3	-82.9	84	3
2023-08-09T18:00	18872	70	-51.3	-82.9	77	3
2023-08-09T18:00	18897	70	-51.5	-83.1	67	3
2023-08-09T18:00	18921	70	-51.7	-83.2	56	3
2023-08-09T18:00	18950	69	-51.8	-82.8	46	3
2023-08-09T18:00	18974	69	-52.0	-82.9	38	3
2023-08-09T18:00	19002	69	-52.1	-83.0	33	2
2023-08-09T18:00	19026	69	-52.2	-83.1	30	2
2023-08-09T18:00	19052	68	-52.2	-83.1	30	2
2023-08-09T18:00	19083	68	-52.2	-83.1	33	3
2023-08-09T18:00	19108	68	-52.3	-83.1	38	3
2023-08-09T18:00	19135	67	-52.5	-83.3	43	3
2023-08-09T18:00	19162	67	-52.7	-83.4	47	4
2023-08-09T18:00	19187	67	-52.9	-83.1	49	4
2023-08-09T18:00	19216	67	-53.1	-83.2	49	5
2023-08-09T18:00	19240	66	-53.2	-83.3	48	5
2023-08-09T18:00	19269	66	-53.4	-83.4	46	5
2023-08-09T18:00	19293	66	-53.6	-83.6	43	5
2023-08-09T18:00	19321	66	-53.4	-83.9	41	5
2023-08-09T18:00	19346	65	-53.2	-83.8	40	5
2023-08-09T18:00	19371	65	-53.2	-83.8	39	4
2023-08-09T18:00	19398	65	-53.3	-83.9	40	4
2023-08-09T18:00	19424	65	-53.5	-83.5	44	3
2023-08-09T18:00	19452	64	-53.7	-83.7	51	3
2023-08-09T18:00	19478	64	-53.8	-84.2	62	3
2023-08-09T18:00	19500	64	-53.5	-84.0	71	3
2023-08-09T18:00	19529	63	-53.1	-83.7	75	3
2023-08-09T18:00	19556	63	-52.9	-83.6	73	3
2023-08-09T18:00	19582	63	-52.9	-83.6	67	3
2023-08-09T18:00	19608	63	-52.9	-83.6	56	2
2023-08-09T18:00	19635	62	-53.0	-83.6	42	2
2023-08-09T18:00	19662	62	-52.9	-83.6	28	2
2023-08-09T18:00	19686	62	-52.7	-83.4	18	2
2023-08-09T18:00	19713	62	-52.8	-83.5	17	3
2023-08-09T18:00	19734	61	-52.9	-83.6	23	3
2023-08-09T18:00	19765	61	-53.0	-83.6	35	3
2023-08-09T18:00	19793	61	-53.0	-83.6	47	3
2023-08-09T18:00	19815	61	-53.1	-83.7	56	4
2023-08-09T18:00	19840	60	-53.1	-83.7	63	5
2023-08-09T18:00	19865	60	-53.1	-83.7	66	5
2023-08-09T18:00	19891	60	-53.1	-83.7	69	5
2023-08-09T18:00	19918	60	-53.3	-83.9	71	5
2023-08-09T18:00	19943	60	-53.5	-84.0	73	5
2023-08-09T18:00	19972	59	-53.6	-84.1	74	5
2023-08-09T18:00	19994	59	-53.7	-84.2	73	5
2023-08-09T18:00	20022	59	-53.5	-84.0	71	5
2023-08-09T18:00	20049	59	-53.5	-84.0	66	5
2023-08-09T18:00	20074	58	-53.4	-83.9	60	5
2023-08-09T18:00	20100	58	-53.2	-83.8	58	5
2023-08-09T18:00	20127	58	-53.1	-84.3	59	6
2023-08-09T18:00	20152	58	-52.7	-84.0	64	6
2023-08-09T18:00	20180	57	-52.5	-83.8	69	7
2023-08-09T18:00	20207	57	-52.4	-83.8	75	7
2023-08-09T18:00	20234	57	-52.5	-83.8	79	8
2023-08-09T18:00	20258	57	-52.5	-83.8	83	8
2023-08-09T18:00	20286	56	-52.6	-83.9	85	7
2023-08-09T18:00	20310	56	-52.5	-83.8	86	7
2023-08-09T18:00	20340	56	-52.6	-83.9	85	6
2023-08-09T18:00	20366	56	-52.5	-83.8	84	5
2023-08-09T18:00	20394	56	-52.3	-83.7	80	5
2023-08-09T18:00	20416	55	-52.0	-83.5	74	4
2023-08-09T18:00	20448	55	-51.7	-83.2	68	4
2023-08-09T18:00	20471	55	-51.7	-83.2	61	4
2023-08-09T18:00	20499	55	-51.7	-83.2	54	4
2023-08-09T18:00	20524	54	-51.8	-83.3	47	4
2023-08-09T18:00	20548	54	-51.9	-83.4	41	5
2023-08-09T18:00	20574	54	-51.8	-83.3	37	5
2023-08-09T18:00	20605	54	-51.9	-83.4	36	5
2023-08-09T18:00	20628	54	-52.0	-83.5	37	5
2023-08-09T18:00	20655	53	-52.0	-83.5	41	5
2023-08-09T18:00	20684	53	-51.9	-83.4	45	5
2023-08-09T18:00	20711	53	-52.0	-83.5	50	6
2023-08-09T18:00	20739	53	-52.1	-83.0	53	6
2023-08-09T18:00	20761	52	-52.1	-83.0	56	6
2023-08-09T18:00	20791	52	-52.2	-83.6	58	6
2023-08-09T18:00	20821	52	-52.0	-83.5	60	6
2023-08-09T18:00	20850	52	-52.0	-83.5	62	6
2023-08-09T18:00	20876	52	-52.0	-83.5	65	7
2023-08-09T18:00	20904	51	-52.0	-83.5	68	7
2023-08-09T18:00	20931	51	-51.7	-83.2	72	7
2023-08-09T18:00	20958	51	-51.4	-83.0	77	8
2023-08-09T18:00	20984	51	-51.5	-83.1	82	8
2023-08-09T18:00	21013	50	-51.6	-83.2	87	9
2023-08-09T18:00	21038	50	-51.8	-83.3	91	9
2023-08-09T18:00	21073	50	-51.9	-83.4	94	9
2023-08-09T18:00	21103	50	-51.9	-83.4	95	9
2023-08-09T18:00	21130	50	-51.8	-83.3	96	8
2023-08-09T18:00	21155	49	-51.5	-83.1	94	7
2023-08-09T18:00	21180	49	-51.4	-83.0	92	6
2023-08-09T18:00	21207	49	-51.5	-83.1	87	6
2023-08-09T18:00	21235	49	-51.5	-83.1	81	5
2023-08-09T18:00	21265	49	-51.2	-82.9	73	5
2023-08-09T18:00	21290	48	-51.1	-82.8	66	5
2023-08-09T18:00	21320	48	-51.1	-82.8	61	5
2023-08-09T18:00	21343	48	-51.2	-82.9	58	5
2023-08-09T18:00	21367	48	-51.1	-82.8	57	5
2023-08-09T18:00	21397	48	-51.0	-82.7	57	5
2023-08-09T18:00	21418	47	-51.0	-82.7	58	5
2023-08-09T18:00	21448	47	-51.0	-82.7	60	5
2023-08-09T18:00	21476	47	-50.9	-82.7	65	4
2023-08-09T18:00	21501	47	-50.8	-82.6	72	4
2023-08-09T18:00	21525	47	-51.0	-82.7	82	4
2023-08-09T18:00	21552	46	-51.1	-82.8	92	4
2023-08-09T18:00	21580	46	-51.1	-82.8	100	4
2023-08-09T18:00	21605	46	-51.2	-82.9	105	4
2023-08-09T18:00	21635	46	-51.4	-83.0	107	4
2023-08-09T18:00	21656	46	-51.4	-83.0	107	3
2023-08-09T18:00	21684	45	-51.3	-82.9	104	3
2023-08-09T18:00	21715	45	-51.1	-82.8	99	2
2023-08-09T18:00	21736	45	-51.0	-82.7	93	2
2023-08-09T18:00	21764	45	-51.0	-82.7	86	2
2023-08-09T18:00	21795	45	-51.0	-82.7	75	2
2023-08-09T18:00	21821	45	-51.0	-82.7	59	2
2023-08-09T18:00	21846	44	-50.9	-82.7	43	2
2023-08-09T18:00	21871	44	-50.9	-82.7	32	2
2023-08-09T18:00	21899	44	-50.9	-82.7	28	3
2023-08-09T18:00	21924	44	-50.8	-82.6	27	4
2023-08-09T18:00	21950	44	-50.8	-82.6	28	4
2023-08-09T18:00	21976	44	-50.8	-82.6	29	5
2023-08-09T18:00	22003	43	-50.9	-82.7	31	6
2023-08-09T18:00	22029	43	-51.0	-82.7	32	7
2023-08-09T18:00	22056	43	-51.1	-82.8	34	7
2023-08-09T18:00	22081	43	-51.3	-82.9	36	8
2023-08-09T18:00	22106	43	-51.4	-83.0	38	8
2023-08-09T18:00	22133	42	-51.5	-83.1	41	9
2023-08-09T18:00	22158	42	-51.4	-83.0	43	9
2023-08-09T18:00	22183	42	-51.5	-83.1	46	9
2023-08-09T18:00	22214	42	-51.6	-83.2	50	9
2023-08-09T18:00	22236	42	-51.7	-83.2	54	9
2023-08-09T18:00	22268	42	-51.8	-83.3	59	9
2023-08-09T18:00	22292	41	-51.8	-83.3	64	9
2023-08-09T18:00	22319	41	-51.8	-83.3	68	8
2023-08-09T18:00	22344	41	-51.9	-83.4	72	8
2023-08-09T18:00	22372	41	-52.1	-83.5	74	7
2023-08-09T18:00	22401	41	-52.1	-83.0	75	7
2023-08-09T18:00	22425	41	-52.1	-83.0	76	6
2023-08-09T18:00	22454	40	-52.2	-83.1	77	5
2023-08-09T18:00	22479	40	-52.3	-83.1	78	5
2023-08-09T18:00	22507	40	-52.3	-83.1	78	4
2023-08-09T18:00	22534	40	-52.4	-83.2	78	3
2023-08-09T18:00	22562	40	-52.5	-83.3	73	3
2023-08-09T18:00	22589	40	-52.6	-83.3	63	3
2023-08-09T18:00	22611	39	-52.6	-83.3	52	3
2023-08-09T18:00	22639	39	-52.6	-83.9	45	4
2023-08-09T18:00	22663	39	-52.4	-83.8	45	4
2023-08-09T18:00	22690	39	-52.4	-83.8	47	5
2023-08-09T18:00	22718	39	-52.4	-83.8	51	5
2023-08-09T18:00	22743	39	-52.3	-83.7	56	6
2023-08-09T18:00	22769	39	-52.1	-83.5	59	7
2023-08-09T18:00	22797	38	-51.9	-83.4	61	7
2023-08-09T18:00	22818	38	-51.8	-83.3	63	7
2023-08-09T18:00	22846	38	-51.7	-83.2	64	8
2023-08-09T18:00	22871	38	-51.7	-83.2	66	8
2023-08-09T18:00	22898	38	-51.5	-83.1	68	8
2023-08-09T18:00	22927	38	-51.5	-83.1	70	8
2023-08-09T18:00	22949	37	-51.5	-83.1	72	7
2023-08-09T18:00	22980	37	-51.5	-83.1	75	7
2023-08-09T18:00	23005	37	-51.5	-83.1	77	7
2023-08-09T18:00	23029	37	-51.6	-83.2	79	7
2023-08-09T18:00	23055	37	-51.4	-83.0	81	7
2023-08-09T18:00	23082	37	-51.3	-82.9	82	8
2023-08-09T18:00	23105	37	-51.2	-83.5	83	8
2023-08-09T18:00	23133	36	-51.2	-83.5	83	9
2023-08-09T18:00	23157	36	-51.1	-83.4	82	9
2023-08-09T18:00	23191	36	-51.0	-83.3	81	10
2023-08-09T18:00	23217	36	-51.0	-83.3	79	10
2023-08-09T18:00	23244	36	-50.9	-83.3	79	11
2023-08-09T18:00	23270	36	-50.9	-83.3	78	11
2023-08-09T18:00	23299	36	-50.8	-83.2	79	11
2023-08-09T18:00	23324	35	-50.8	-83.2	80	11
2023-08-09T18:00	23352	35	-50.8	-83.2	82	11
2023-08-09T18:00	23381	35	-50.9	-83.3	84	10
2023-08-09T18:00	23414	35	-51.0	-82.7	84	10
2023-08-09T18:00	23437	35	-51.0	-82.7	84	10
2023-08-09T18:00	23472	35	-50.9	-82.7	83	10
2023-08-09T18:00	23500	34	-50.9	-82.7	82	10
2023-08-09T18:00	23528	34	-50.9	-82.7	80	9
2023-08-09T18:00	23557	34	-50.9	-82.7	79	9
2023-08-09T18:00	23591	34	-50.9	-82.7	78	9
2023-08-09T18:00	23620	34	-50.9	-82.7	78	8
2023-08-09T18:00	23648	34	-50.9	-82.7	79	8
2023-08-09T18:00	23674	33	-51.0	-83.3	81	8
2023-08-09T18:00	23705	33	-50.9	-83.3	84	9
2023-08-09T18:00	23737	33	-50.7	-83.1	88	9
2023-08-09T18:00	23767	33	-50.7	-83.1	92	9
2023-08-09T18:00	23796	33	-50.7	-83.1	95	9
2023-08-09T18:00	23824	33	-50.6	-83.1	98	9
2023-08-09T18:00	23859	33	-50.5	-83.0	99	9
2023-08-09T18:00	23890	32	-50.3	-82.8	99	8
2023-08-09T18:00	23917	32	-50.3	-82.8	97	8
2023-08-09T18:00	23949	32	-50.4	-82.9	92	7
2023-08-09T18:00	23977	32	-50.3	-82.8	88	7
2023-08-09T18:00	24005	32	-50.3	-82.8	84	7
2023-08-09T18:00	24035	32	-50.3	-82.8	81	7
2023-08-09T18:00	24068	32	-50.2	-82.8	81	8
2023-08-09T18:00	24099	31	-50.2	-82.8	81	8
2023-08-09T18:00	24127	31	-50.2	-82.8	83	9
2023-08-09T18:00	24158	31	-50.2	-82.8	85	9
2023-08-09T18:00	24186	31	-50.4	-82.9	87	10
2023-08-09T18:00	24217	31	-50.5	-83.0	89	10
2023-08-09T18:00	24245	31	-50.5	-83.0	92	11
2023-08-09T18:00	24272	31	-50.4	-82.9	95	11
2023-08-09T18:00	24300	30	-50.4	-82.9	98	12
2023-08-09T18:00	24329	30	-50.4	-82.9	101	12
2023-08-09T18:00	24352	30	-50.3	-82.8	104	11
2023-08-09T18:00	24386	30	-50.4	-82.9	106	11
2023-08-09T18:00	24412	30	-50.6	-83.1	108	11
2023-08-09T18:00	24444	30	-50.7	-83.1	110	10
2023-08-09T18:00	24472	30	-50.8	-82.6	111	10
2023-08-09T18:00	24503	30	-50.9	-82.7	113	10
2023-08-09T18:00	24522	29	-50.9	-82.7	115	10
2023-08-09T18:00	24556	29	-50.8	-82.6	116	10
2023-08-09T18:00	24578	29	-50.9	-82.7	116	10
2023-08-09T18:00	24612	29	-51.0	-82.7	117	10
2023-08-09T18:00	24634	29	-51.0	-82.7	117	9
2023-08-09T18:00	24659	29	-51.0	-83.3	116	9
2023-08-09T18:00	24687	29	-50.9	-83.3	115	9
2023-08-09T18:00	24719	29	-50.9	-83.3	115	8
2023-08-09T18:00	24745	28	-50.7	-83.1	116	8
2023-08-09T18:00	24775	28	-50.5	-83.0	118	8
2023-08-09T18:00	24798	28	-50.5	-83.0	122	8
2023-08-09T18:00	24831	28	-50.5	-83.0	125	8
2023-08-09T18:00	24861	28	-50.5	-83.0	129	8
2023-08-09T18:00	24884	28	-50.5	-83.0	133	8
2023-08-09T18:00	24912	28	-50.2	-82.8	137	7
2023-08-09T18:00	24941	28	-50.0	-82.6	140	7
2023-08-09T18:00	24964	27	-49.7	-83.1	144	6
2023-08-09T18:00	24996	27	-49.4	-82.9	148	6
2023-08-09T18:00	25028	27	-49.4	-82.9	153	5
2023-08-09T18:00	25060	27	-49.2	-82.7	157	5
2023-08-09T18:00	25085	27	-48.9	-82.5	159	5
2023-08-09T18:00	25111	27	-49.0	-82.6	160	4
2023-08-09T18:00	25142	27	-49.2	-82.0	160	4
2023-08-09T18:00	25168	27	-49.3	-82.1	158	4
2023-08-09T18:00	25198	27	-49.5	-82.3	156	3
2023-08-09T18:00	25225	26	-49.6	-82.3	150	3
2023-08-09T18:00	25257	26	-49.8	-82.5	134	2
2023-08-09T18:00	25285	26	-49.9	-82.5	99	1
2023-08-09T18:00	25319	26	-49.9	-82.5	62	2
2023-08-09T18:00	25340	26	-49.7	-82.4	45	3
2023-08-09T18:00	25373	26	-49.7	-82.4	38	3
2023-08-09T18:00	25405	26	-49.7	-82.4	35	4
2023-08-09T18:00	25431	26	-49.7	-82.4	34	4
2023-08-09T18:00	25463	25	-49.8	-82.5	36	4
2023-08-09T18:00	25497	25	-49.8	-82.5	37	4
2023-08-09T18:00	25522	25	-49.9	-82.5	39	4
2023-08-09T18:00	25553	25	-50.0	-82.6	40	4
2023-08-09T18:00	25580	25	-50.2	-82.8	41	4
2023-08-09T18:00	25613	25	-50.3	-82.8	42	4
2023-08-09T18:00	25641	25	-50.3	-82.8	44	4
2023-08-09T18:00	25675	25	-50.4	-82.9	46	5
2023-08-09T18:00	25700	25	-50.5	-83.0	47	6
2023-08-09T18:00	25733	24	-50.6	-83.1	49	6
2023-08-09T18:00	25764	24	-50.4	-82.9	51	7
2023-08-09T18:00	25796	24	-50.4	-82.9	53	7
2023-08-09T18:00	25827	24	-50.4	-82.9	55	8
2023-08-09T18:00	25851	24	-50.4	-82.9	58	8
2023-08-09T18:00	25888	24	-50.3	-82.8	62	8
2023-08-09T18:00	25914	24	-50.2	-82.8	65	8
2023-08-09T18:00	25942	24	-50.1	-82.7	68	9
2023-08-09T18:00	25970	24	-50.1	-82.7	70	9
2023-08-09T18:00	26001	23	-50.3	-82.8	72	9
2023-08-09T18:00	26031	23	-50.4	-82.9	74	9
2023-08-09T18:00	26064	23	-50.5	-83.0	75	9
2023-08-09T18:00	26085	23	-50.5	-83.0	77	9
2023-08-09T18:00	26116	23	-50.3	-82.8	78	9
2023-08-09T18:00	26142	23	-50.1	-82.7	80	9
2023-08-09T18:00	26174	23	-50.0	-82.6	83	8
2023-08-09T18:00	26201	23	-49.8	-83.2	84	8
2023-08-09T18:00	26233	23	-49.8	-83.2	86	8
2023-08-09T18:00	26261	23	-49.6	-83.0	87	7
2023-08-09T18:00	26295	22	-49.3	-82.8	90	7
2023-08-09T18:00	26321	22	-49.2	-82.7	93	6
2023-08-09T18:00	26346	22	-49.0	-82.6	98	6
2023-08-09T18:00	26376	22	-48.9	-82.5	105	6
2023-08-09T18:00	26402	22	-48.8	-82.4	111	5
2023-08-09T18:00	26436	22	-48.7	-82.4	116	5
2023-08-09T18:00	26460	22	-48.6	-82.3	118	5
2023-08-09T18:00	26496	22	-48.5	-82.2	116	5
2023-08-09T18:00	26525	22	-48.2	-82.0	111	5
2023-08-09T18:00	26553	22	-48.0	-81.9	106	5
2023-08-09T18:00	26581	21	-47.8	-81.7	100	5
2023-08-09T18:00	26615	21	-47.7	-81.6	96	5
2023-08-09T18:00	26646	21	-47.6	-82.4	92	6
2023-08-09T18:00	26676	21	-47.6	-82.4	89	6
2023-08-09T18:00	26703	21	-47.4	-82.2	87	7
2023-08-09T18:00	26725	21	-47.2	-82.1	85	7
2023-08-09T18:00	26755	21	-47.0	-81.9	83	8
2023-08-09T18:00	26789	21	-47.0	-81.9	83	9
2023-08-09T18:00	26818	21	-47.0	-81.9	82	9
2023-08-09T18:00	26846	21	-47.0	-81.9	82	9
2023-08-09T18:00	26877	21	-46.9	-81.9	83	9
2023-08-09T18:00	26912	20	-46.9	-81.9	83	8
2023-08-09T18:00	26934	20	-46.8	-81.8	82	7
2023-08-09T18:00	26976	20	-46.7	-81.7	80	7
2023-08-09T18:00	27004	20	-46.5	-81.6	77	7
2023-08-09T18:00	27027	20	-46.4	-81.5	74	7
2023-08-09T18:00	27058	20	-46.3	-81.4	71	8
2023-08-09T18:00	27093	20	-46.3	-81.4	71	8
2023-08-09T18:00	27120	20	-46.3	-81.4	71	9
2023-08-09T18:00	27149	20	-46.3	-81.4	73	9
2023-08-09T18:00	27174	20	-46.2	-81.4	75	8
2023-08-09T18:00	27217	20	-46.2	-81.4	78	8
2023-08-09T18:00	27249	19	-46.3	-81.4	81	8
2023-08-09T18:00	27279	19	-46.4	-81.5	84	7
2023-08-09T18:00	27299	19	-46.5	-81.6	87	7
2023-08-09T18:00	27332	19	-46.7	-80.9	89	7
2023-08-09T18:00	27363	19	-46.6	-80.9	90	8
2023-08-09T18:00	27391	19	-46.6	-81.7	90	8
2023-08-09T18:00	27427	19	-46.5	-81.6	90	8
2023-08-09T18:00	27454	19	-46.3	-81.4	90	9
2023-08-09T18:00	27486	19	-46.3	-81.4	91	9
2023-08-09T18:00	27521	19	-46.4	-81.5	93	9
2023-08-09T18:00	27530	19	-46.3	-81.4	94	9
2023-08-09T18:00	27581	19	-46.2	-81.4	94	9
2023-08-09T18:00	27606	18	-46.1	-81.3	94	10
2023-08-09T18:00	27624	18	-46.0	-81.2	92	10
2023-08-09T18:00	27652	18	-45.8	-81.1	91	11
2023-08-09T18:00	27686	18	-45.7	-81.0	89	11
2023-08-09T18:00	27713	18	-45.7	-81.0	88	12
2023-08-09T18:00	27754	18	-45.6	-80.9	87	12
2023-08-09T18:00	27764	18	-45.4	-80.8	86	11
2023-08-09T18:00	27798	18	-45.3	-80.7	86	11
2023-08-09T18:00	27830	18	-45.3	-80.7	85	11
2023-08-09T18:00	27860	18	-45.3	-80.7	85	11
2023-08-09T18:00	27901	18	-45.2	-80.7	85	11
2023-08-09T18:00	27919	18	-44.9	-80.4	85	11
2023-08-09T18:00	27944	17	-44.8	-80.4	86	12
2023-08-09T18:00	27978	17	-44.8	-80.4	87	12
2023-08-09T18:00	28004	17	-44.6	-80.2	88	12
2023-08-09T18:00	28026	17	-44.5	-80.1	89	12
2023-08-09T18:00	28055	17	-44.3	-80.9	90	12
2023-08-09T18:00	28088	17	-44.3	-80.9	91	12
2023-08-09T18:00	28113	17	-44.2	-80.9	93	11
2023-08-09T18:00	28146	17	-44.0	-80.7	94	11
2023-08-09T18:00	28165	17	-43.8	-80.6	96	10
2023-08-09T18:00	28201	17	-43.5	-80.4	97	10
2023-08-09T18:00	28227	17	-43.2	-80.2	99	10
2023-08-09T18:00	28249	17	-43.1	-80.1	101	10
2023-08-09T18:00	28276	17	-43.1	-80.1	103	10
2023-08-09T18:00	28313	17	-43.1	-80.1	104	10
2023-08-09T18:00	28340	17	-43.0	-80.0	105	10
2023-08-09T18:00	28367	16	-42.8	-79.9	105	10
2023-08-09T18:00	28396	16	-42.7	-79.8	104	10
2023-08-09T18:00	28428	16	-42.4	-79.6	102	10
2023-08-09T18:00	28455	16	-42.1	-79.4	99	10
2023-08-09T18:00	28488	16	-42.0	-79.3	97	9
2023-08-09T18:00	28516	16	-42.0	-79.3	94	9
2023-08-09T18:00	28546	16	-42.0	-79.3	93	9
2023-08-09T18:00	28572	16	-41.9	-79.2	93	9
2023-08-09T18:00	28601	16	-41.9	-79.2	93	9
2023-08-09T18:00	28625	16	-41.9	-79.2	94	8
2023-08-09T18:00	28664	16	-41.8	-79.2	94	8
2023-08-09T18:00	28687	16	-41.8	-79.2	93	8
2023-08-09T18:00	28723	16	-41.8	-79.2	93	7
2023-08-09T18:00	28752	16	-41.8	-79.2	93	7
2023-08-09T18:00	28781	15	-41.8	-79.2	95	7
2023-08-09T18:00	28804	15	-41.7	-79.1	98	7
2023-08-09T18:00	28842	15	-41.7	-79.1	102	7
2023-08-09T18:00	28884	15	-41.8	-79.2	106	7
2023-08-09T18:00	28909	15	-42.0	-79.3	109	7
2023-08-09T18:00	28933	15	-42.2	-79.5	111	7
2023-08-09T18:00	28974	15	-42.3	-79.5	111	7
2023-08-09T18:00	28994	15	-42.3	-79.5	111	6
2023-08-09T18:00	29025	15	-42.1	-79.4	109	7
2023-08-09T18:00	29061	15	-41.8	-79.2	107	7
2023-08-09T18:00	29092	15	-41.7	-79.1	105	7
2023-08-09T18:00	29126	15	-41.6	-79.0	101	7
2023-08-09T18:00	29158	15	-41.4	-78.9	96	7
2023-08-09T18:00	29190	15	-41.3	-79.9	91	7
2023-08-09T18:00	29225	14	-41.1	-79.8	86	8
2023-08-09T18:00	29249	14	-41.0	-79.7	82	8
2023-08-09T18:00	29289	14	-41.0	-79.7	80	8
2023-08-09T18:00	29325	14	-40.9	-79.7	80	9
2023-08-09T18:00	29366	14	-40.7	-79.5	82	9
2023-08-09T18:00	29388	14	-40.7	-79.5	84	9
2023-08-09T18:00	29416	14	-40.5	-79.4	88	9
2023-08-09T18:00	29455	14	-40.2	-79.2	92	9
2023-08-09T18:00	29500	14	-40.2	-79.2	97	9
2023-08-09T18:00	29518	14	-40.4	-79.3	102	9
2023-08-09T18:00	29562	14	-40.6	-79.5	107	9
2023-08-09T18:00	29598	14	-40.7	-79.5	113	9
2023-08-09T18:00	29630	14	-40.7	-79.5	118	10
2023-08-09T18:00	29652	14	-40.7	-79.5	121	10
2023-08-09T18:00	29685	14	-40.6	-79.5	123	10
2023-08-09T18:00	29724	13	-40.6	-79.5	124	10
2023-08-09T18:00	29757	13	-40.3	-79.2	122	10
2023-08-09T18:00	29782	13	-39.9	-79.0	120	9
2023-08-09T18:00	29826	13	-39.7	-78.8	117	9
2023-08-09T18:00	29850	13	-39.6	-78.8	114	9
2023-08-09T18:00	29882	13	-39.6	-78.8	110	9
2023-08-09T18:00	29919	13	-39.6	-78.8	106	9
2023-08-09T18:00	29947	13	-39.5	-78.7	102	9
2023-08-09T18:00	29983	13	-39.4	-78.6	98	9
2023-08-09T18:00	30032	13	-39.5	-78.7	94	10
2023-08-09T18:00	30057	13	-39.5	-78.7	92	10
2023-08-09T18:00	30085	13	-39.4	-78.6	92	11
2023-08-09T18:00	30117	13	-39.3	-78.5	92	11
2023-08-09T18:00	30150	13	-39.3	-78.5	93	11
2023-08-09T18:00	30178	13	-39.4	-78.6	95	11
2023-08-09T18:00	30215	13	-39.4	-78.6	98	11
2023-08-09T18:00	30239	12	-39.4	-78.6	99	11
2023-08-09T18:00	30276	12	-39.3	-78.5	101	11
2023-08-09T18:00	30315	12	-39.3	-78.5	102	10
2023-08-09T18:00	30338	12	-39.3	-78.5	103	10
2023-08-09T18:00	30376	12	-39.2	-78.5	104	11
2023-08-09T18:00	30402	12	-39.0	-78.3	105	11
2023-08-09T18:00	30434	12	-38.9	-78.3	106	11
2023-08-09T18:00	30479	12	-38.8	-78.2	106	11
2023-08-09T18:00	30494	12	-38.7	-78.1	105	11
2023-08-09T18:00	30521	12	-38.5	-78.0	102	10
2023-08-09T18:00	30548	12	-38.3	-77.9	99	9
2023-08-09T18:00	30586	12	-38.3	-77.9	95	9
2023-08-09T18:00	30615	12	-38.3	-77.9	90	8
2023-08-09T18:00	30642	12	-38.1	-77.7	86	8
2023-08-09T18:00	30655	12	-38.0	-77.6	83	8
2023-08-09T18:00	30704	12	-37.9	-77.6	81	8
2023-08-09T18:00	30736	12	-37.7	-77.4	81	9
2023-08-09T18:00	30774	12	-37.7	-77.4	83	9
2023-08-09T18:00	30789	12	-37.8	-77.5	85	10
2023-08-09T18:00	30818	11	-37.7	-77.4	87	11
2023-08-09T18:00	30846	11	-37.7	-77.4	89	12
2023-08-09T18:00	30884	11	-37.8	-77.5	91	12
2023-08-09T18:00	30918	11	-37.9	-77.6	93	12
2023-08-09T18:00	30948	11	-37.9	-77.6	94	12
2023-08-09T18:00	30977	11	-37.7	-77.4	94	12
2023-08-09T18:00	31005	11	-37.7	-77.4	94	11
2023-08-09T18:00	31043	11	-37.7	-77.4	94	11
2023-08-09T18:00	31071	11	-37.8	-77.5	95	10
2023-08-09T18:00	31104	11	-37.8	-77.5	98	10
2023-08-09T18:00	31140	11	-37.8	-77.5	101	10
2023-08-09T18:00	31172	11	-37.8	-77.5	106	11
2023-08-09T18:00	31206	11	-37.7	-77.4	110	11
2023-08-09T18:00	31230	11	-37.7	-77.4	114	12
2023-08-09T18:00	31269	11	-37.7	-77.4	117	12
2023-08-09T18:00	31286	11	-37.7	-77.4	120	12
2023-08-09T18:00	31325	11	-37.8	-77.5	123	12
2023-08-09T18:00	31361	11	-37.8	-77.5	125	11
2023-08-09T18:00	31383	11	-37.8	-77.5	128	10
2023-08-09T18:00	31417	11	-37.8	-77.5	130	9
2023-08-09T18:00	31454	10	-37.7	-77.4	132	9
2023-08-09T18:00	31475	10	-37.4	-77.2	133	8
2023-08-09T18:00	31516	10	-37.3	-77.2	134	8
2023-08-09T18:00	31560	10	-37.4	-77.2	134	7
2023-08-09T18:00	31586	10	-37.3	-77.2	134	7
2023-08-09T18:00	31634	10	-37.3	-77.2	133	6
2023-08-09T18:00	31661	10	-37.3	-77.2	131	6
2023-08-09T18:00	31691	10	-37.3	-77.2	129	6
2023-08-09T18:00	31723	10	-37.2	-77.1	128	6
2023-08-09T18:00	31779	10	-37.1	-77.0	128	6
2023-08-09T18:00	31793	10	-37.1	-77.0	129	7
2023-08-09T18:00	31848	10	-37.2	-77.1	130	7
2023-08-09T18:00	31858	10	-37.4	-77.2	131	8
2023-08-09T18:00	31904	10	-37.6	-77.4	133	8
2023-08-09T18:00	31941	10	-37.7	-77.4	134	9
2023-08-09T18:00	31992	10	-37.9	-77.6	136	9
2023-08-09T18:00	32002	10	-38.0	-77.6	139	9
2023-08-09T18:00	32064	10	-38.0	-77.6	141	9
2023-08-09T18:00	32076	10	-38.1	-77.7	143	9
2023-08-09T18:00	32123	10	-38.1	-77.7	145	8
2023-08-09T18:00	32154	9	-38.0	-77.6	147	8
2023-08-09T18:00	32195	9	-38.0	-77.6	148	7
2023-08-09T18:00	32215	9	-37.8	-77.5	149	7
2023-08-09T18:00	32260	9	-37.6	-77.4	149	6
2023-08-09T18:00	32284	9	-37.4	-77.2	150	5
2023-08-09T18:00	32330	9	-37.3	-77.2	151	4
2023-08-09T18:00	32347	9	-37.4	-77.2	152	4
2023-08-09T18:00	32393	9	-37.3	-77.2	151	3
2023-08-09T18:00	32432	9	-37.4	-77.2	149	3
2023-08-09T18:00	32460	9	-37.4	-77.2	147	3
2023-08-09T18:00	32494	9	-37.3	-77.2	145	4
2023-08-09T18:00	32537	9	-37.4	-77.2	142	4
2023-08-09T18:00	32560	9	-37.4	-77.2	139	4
2023-08-09T18:00	32582	9	-37.5	-77.3	133	4
2023-08-09T18:00	32620	9	-37.6	-77.4	126	4
2023-08-09T18:00	32670	9	-37.7	-77.4	118	3
2023-08-09T18:00	32682	9	-37.8	-77.5	110	4
2023-08-09T18:00	32728	9	-37.8	-77.5	104	4
2023-08-09T18:00	32756	9	-37.8	-77.5	103	4
2023-08-09T18:00	32791	9	-37.9	-77.6	105	5
2023-08-09T18:00	32827	9	-37.8	-77.5	110	5
2023-08-09T18:00	32867	9	-37.7	-77.4	114	6
2023-08-09T18:00	32896	9	-37.5	-77.3	118	6
2023-08-09T18:00	32910	8	-37.3	-77.2	122	6
2023-08-09T18:00	32951	8	-37.1	-77.0	124	6
2023-08-09T18:00	32982	8	-36.9	-76.9	126	6
2023-08-09T18:00	33033	8	-36.7	-76.7	128	5
2023-08-09T18:00	33045	8	-36.8	-76.8	130	5
2023-08-10T00:00	112	1006	13.4	10.0	230	2
2023-08-10T00:00	137	1003	14.1	9.7	235	3
2023-08-10T00:00	166	999	15.8	8.7	237	4
2023-08-10T00:00	198	996	15.8	8.3	240	4
2023-08-10T00:00	222	993	15.7	7.9	245	5
2023-08-10T00:00	247	990	15.5	7.7	250	5
2023-08-10T00:00	276	987	15.4	7.4	255	4
2023-08-10T00:00	307	983	15.2	7.4	261	4
2023-08-10T00:00	335	980	15.0	7.5	268	4
2023-08-10T00:00	361	977	14.7	7.5	277	4
2023-08-10T00:00	386	974	14.5	7.5	284	4
2023-08-10T00:00	413	971	14.3	7.5	289	4
2023-08-10T00:00	440	968	14.0	7.4	290	4
2023-08-10T00:00	463	965	13.8	7.5	289	4
2023-08-10T00:00	492	962	13.6	7.4	286	4
2023-08-10T00:00	520	959	13.3	7.3	283	3
2023-08-10T00:00	548	955	13.1	7.3	281	3
2023-08-10T00:00	576	952	12.8	7.2	282	3
2023-08-10T00:00	607	949	12.6	7.0	283	4
2023-08-10T00:00	630	946	12.5	6.8	285	4
2023-08-10T00:00	655	943	12.6	6.3	286	4
2023-08-10T00:00	682	940	12.4	6.2	287	5
2023-08-10T00:00	713	937	12.2	6.1	288	5
2023-08-10T00:00	739	934	12.1	5.9	288	5
2023-08-10T00:00	764	931	11.9	5.8	287	5
2023-08-10T00:00	794	928	11.6	5.7	285	5
2023-08-10T00:00	818	925	11.4	5.7	283	5
2023-08-10T00:00	844	922	11.2	5.6	281	5
2023-08-10T00:00	869	919	11.0	5.3	280	6
2023-08-10T00:00	898	916	10.8	5.1	279	6
2023-08-10T00:00	919	914	10.7	5.0	280	6
2023-08-10T00:00	948	911	10.4	4.7	279	7
2023-08-10T00:00	974	908	10.3	4.7	279	7
2023-08-10T00:00	1001	905	10.1	4.7	279	8
2023-08-10T00:00	1028	902	9.9	4.8	278	8
2023-08-10T00:00	1057	899	9.6	4.7	279	8
2023-08-10T00:00	1085	896	9.4	4.8	280	8
2023-08-10T00:00	1111	893	9.1	4.7	281	9
2023-08-10T00:00	1144	889	8.8	4.6	283	9
2023-08-10T00:00	1175	886	8.6	4.7	284	9
2023-08-10T00:00	1211	883	8.2	4.6	285	9
2023-08-10T00:00	1237	880	8.0	4.8	285	9
2023-08-10T00:00	1264	877	7.8	4.8	285	9
2023-08-10T00:00	1295	873	7.5	4.8	286	9
2023-08-10T00:00	1328	870	7.2	4.6	287	9
2023-08-10T00:00	1355	867	7.0	4.7	288	9
2023-08-10T00:00	1391	863	6.6	4.4	289	9
2023-08-10T00:00	1418	860	6.4	4.3	290	9
2023-08-10T00:00	1449	857	6.2	3.8	290	9
2023-08-10T00:00	1473	855	6.0	3.6	289	9
2023-08-10T00:00	1495	852	5.8	3.4	289	9
2023-08-10T00:00	1525	849	5.5	3.3	289	9
2023-08-10T00:00	1553	846	5.2	3.3	289	9
2023-08-10T00:00	1585	843	4.9	3.3	289	9
2023-08-10T00:00	1614	840	4.7	3.2	288	9
2023-08-10T00:00	1638	838	4.4	3.0	288	9
2023-08-10T00:00	1661	835	4.2	3.0	289	9
2023-08-10T00:00	1684	833	4.0	2.8	291	9
2023-08-10T00:00	1707	831	3.8	2.6	294	8
2023-08-10T00:00	1729	828	3.6	2.4	297	7
2023-08-10T00:00	1750	826	3.4	2.0	298	7
2023-08-10T00:00	1773	824	3.2	2.0	298	7
2023-08-10T00:00	1796	821	3.1	1.7	295	7
2023-08-10T00:00	1824	819	2.9	1.4	292	7
2023-08-10T00:00	1852	816	2.6	1.3	289	8
2023-08-10T00:00	1877	813	2.4	1.2	288	8
2023-08-10T00:00	1905	811	2.1	1.1	286	9
2023-08-10T00:00	1932	808	1.9	1.0	285	9
2023-08-10T00:00	1960	805	1.6	0.7	284	8
2023-08-10T00:00	1985	802	1.5	0.6	283	8
2023-08-10T00:00	2016	800	1.2	0.5	282	8
2023-08-10T00:00	2046	797	0.9	0.5	282	8
2023-08-10T00:00	2073	794	0.7	0.6	281	8
2023-08-10T00:00	2105	791	0.5	0.4	281	8
2023-08-10T00:00	2133	788	0.3	0.2	281	8
2023-08-10T00:00	2158	785	0.1	-0.1	282	8
2023-08-10T00:00	2181	783	-0.1	-0.1	282	8
2023-08-10T00:00	2205	781	-0.2	-0.2	282	7
2023-08-10T00:00	2232	778	-0.3	-0.3	283	7
2023-08-10T00:00	2261	776	-0.5	-0.5	283	7
2023-08-10T00:00	2287	773	-0.7	-0.7	283	7
2023-08-10T00:00	2315	770	-0.8	-0.8	283	7
2023-08-10T00:00	2342	768	-1.1	-1.4	283	7
2023-08-10T00:00	2368	765	-1.4	-2.6	282	7
2023-08-10T00:00	2390	763	-1.4	-2.7	281	7
2023-08-10T00:00	2417	761	-1.5	-2.9	281	7
2023-08-10T00:00	2438	758	-1.5	-3.0	281	6
2023-08-10T00:00	2461	756	-1.7	-3.0	281	7
2023-08-10T00:00	2479	754	-1.8	-3.3	281	7
2023-08-10T00:00	2499	753	-2.0	-3.5	281	7
2023-08-10T00:00	2523	750	-2.3	-3.3	281	7
2023-08-10T00:00	2547	748	-2.4	-3.8	280	6
2023-08-10T00:00	2572	746	-2.7	-3.5	278	6
2023-08-10T00:00	2599	743	-3.0	-3.6	276	5
2023-08-10T00:00	2622	741	-3.3	-3.5	272	5
2023-08-10T00:00	2654	738	-3.6	-3.7	269	5
2023-08-10T00:00	2670	736	-3.6	-3.6	268	4
2023-08-10T00:00	2692	734	-3.8	-3.8	269	4
2023-08-10T00:00	2725	731	-3.9	-3.9	273	4
2023-08-10T00:00	2755	729	-4.2	-4.2	277	5
2023-08-10T00:00	2785	726	-4.4	-4.4	281	5
2023-08-10T00:00	2809	724	-4.5	-4.5	284	5
2023-08-10T00:00	2835	721	-4.7	-4.7	286	5
2023-08-10T00:00	2862	719	-4.8	-4.8	288	5
2023-08-10T00:00	2881	717	-4.9	-4.9	289	5
2023-08-10T00:00	2898	715	-5.5	-5.5	289	4
2023-08-10T00:00	2918	714	-5.6	-5.6	287	4
2023-08-10T00:00	2941	712	-5.8	-5.8	286	4
2023-08-10T00:00	2965	709	-5.9	-6.1	284	4
2023-08-10T00:00	2990	707	-6.0	-6.0	282	4
2023-08-10T00:00	3020	705	-6.4	-6.7	279	5
2023-08-10T00:00	3051	702	-6.3	-7.4	275	5
2023-08-10T00:00	3083	699	-6.4	-8.8	272	5
2023-08-10T00:00	3116	696	-6.4	-9.6	269	5
2023-08-10T00:00	3145	693	-6.1	-11.2	267	6
2023-08-10T00:00	3172	691	-6.1	-12.4	267	6
2023-08-10T00:00	3197	689	-6.0	-13.5	267	6
2023-08-10T00:00	3224	686	-5.9	-13.2	267	6
2023-08-10T00:00	3251	684	-5.5	-12.4	267	6
2023-08-10T00:00	3281	681	-5.1	-11.4	268	6
2023-08-10T00:00	3314	678	-5.2	-12.1	271	6
2023-08-10T00:00	3345	676	-4.9	-16.2	274	6
2023-08-10T00:00	3376	673	-5.0	-16.7	278	7
2023-08-10T00:00	3411	671	-5.2	-17.0	280	8
2023-08-10T00:00	3432	668	-5.4	-17.1	281	8
2023-08-10T00:00	3459	666	-5.7	-17.2	283	9
2023-08-10T00:00	3487	664	-5.9	-19.2	285	9
2023-08-10T00:00	3511	662	-6.0	-17.4	288	9
2023-08-10T00:00	3537	660	-6.1	-18.2	291	8
2023-08-10T00:00	3562	657	-6.3	-18.7	293	8
2023-08-10T00:00	3589	655	-6.5	-19.6	292	7
2023-08-10T00:00	3614	653	-6.6	-19.5	288	7
2023-08-10T00:00	3637	651	-6.7	-19.4	281	7
2023-08-10T00:00	3660	649	-6.9	-19.6	275	7
2023-08-10T00:00	3681	648	-7.1	-19.6	271	8
2023-08-10T00:00	3702	646	-7.3	-19.6	269	8
2023-08-10T00:00	3729	643	-7.6	-19.6	268	9
2023-08-10T00:00	3756	641	-7.7	-19.4	268	9
2023-08-10T00:00	3785	639	-8.0	-19.3	269	9
2023-08-10T00:00	3816	636	-8.3	-19.8	269	9
2023-08-10T00:00	3841	634	-8.5	-19.8	270	9
2023-08-10T00:00	3863	632	-8.7	-19.9	272	9
2023-08-10T00:00	3889	630	-8.9	-19.8	273	9
2023-08-10T00:00	3914	628	-9.2	-20.0	275	9
2023-08-10T00:00	3935	627	-9.4	-20.1	276	8
2023-08-10T00:00	3957	625	-9.6	-20.1	276	8
2023-08-10T00:00	3987	622	-9.8	-20.4	276	8
2023-08-10T00:00	4013	620	-10.0	-21.6	275	8
2023-08-10T00:00	4040	618	-10.1	-21.2	274	8
2023-08-10T00:00	4068	616	-10.4	-21.0	272	7
2023-08-10T00:00	4091	614	-10.5	-23.4	271	7
2023-08-10T00:00	4124	612	-10.6	-24.6	270	6
2023-08-10T00:00	4152	609	-10.8	-26.4	268	6
2023-08-10T00:00	4174	608	-11.0	-20.8	266	6
2023-08-10T00:00	4196	606	-11.2	-20.2	265	6
2023-08-10T00:00	4216	604	-11.3	-21.1	264	6
2023-08-10T00:00	4240	602	-11.5	-22.5	266	6
2023-08-10T00:00	4262	600	-11.6	-24.1	269	7
2023-08-10T00:00	4290	598	-11.5	-29.0	272	7
2023-08-10T00:00	4319	596	-11.4	-31.8	274	7
2023-08-10T00:00	4350	594	-11.0	-36.5	274	7
2023-08-10T00:00	4378	592	-10.9	-36.6	273	6
2023-08-10T00:00	4406	589	-10.9	-35.4	272	6
2023-08-10T00:00	4434	587	-11.1	-35.0	273	6
2023-08-10T00:00	4462	585	-11.3	-36.2	278	6
2023-08-10T00:00	4489	583	-11.0	-34.9	282	6
2023-08-10T00:00	4514	581	-11.0	-31.7	285	7
2023-08-10T00:00	4542	579	-11.1	-32.1	286	7
2023-08-10T00:00	4578	576	-11.3	-33.1	287	8
2023-08-10T00:00	4606	574	-11.4	-35.7	287	9
2023-08-10T00:00	4630	572	-11.4	-37.3	288	9
2023-08-10T00:00	4652	571	-11.5	-38.1	289	9
2023-08-10T00:00	4685	569	-11.5	-40.9	289	9
2023-08-10T00:00	4707	567	-11.6	-41.7	289	9
2023-08-10T00:00	4725	565	-11.6	-41.7	289	9
2023-08-10T00:00	4751	563	-11.8	-42.2	289	8
2023-08-10T00:00	4785	561	-11.9	-42.1	289	8
2023-08-10T00:00	4810	559	-12.1	-41.7	289	7
2023-08-10T00:00	4838	557	-12.3	-42.8	289	7
2023-08-10T00:00	4861	555	-11.9	-46.7	289	7
2023-08-10T00:00	4887	554	-11.8	-46.6	290	7
2023-08-10T00:00	4918	551	-11.8	-47.2	292	7
2023-08-10T00:00	4954	549	-11.7	-47.1	295	7
2023-08-10T00:00	4981	547	-11.9	-47.0	297	8
2023-08-10T00:00	5012	545	-12.2	-46.6	299	8
2023-08-10T00:00	5039	542	-12.4	-46.7	300	8
2023-08-10T00:00	5070	540	-12.3	-47.0	302	8
2023-08-10T00:00	5098	538	-12.1	-48.1	307	8
2023-08-10T00:00	5125	537	-11.9	-48.0	313	8
2023-08-10T00:00	5153	534	-11.6	-46.1	319	9
2023-08-10T00:00	5184	532	-11.3	-40.2	323	10
2023-08-10T00:00	5210	531	-11.2	-35.9	324	11
2023-08-10T00:00	5233	529	-11.3	-35.2	324	11
2023-08-10T00:00	5256	527	-11.4	-31.8	322	12
2023-08-10T00:00	5286	525	-11.5	-29.6	321	12
2023-08-10T00:00	5307	524	-11.6	-27.3	320	12
2023-08-10T00:00	5341	522	-11.8	-25.5	320	12
2023-08-10T00:00	5375	519	-12.0	-24.6	321	12
2023-08-10T00:00	5405	517	-12.3	-24.1	322	12
2023-08-10T00:00	5427	516	-12.5	-23.5	324	12
2023-08-10T00:00	5452	514	-12.7	-22.0	327	12
2023-08-10T00:00	5479	512	-12.8	-22.0	329	12
2023-08-10T00:00	5500	511	-12.9	-21.6	331	12
2023-08-10T00:00	5531	509	-13.1	-21.3	332	12
2023-08-10T00:00	5556	507	-13.3	-21.4	331	12
2023-08-10T00:00	5586	505	-13.5	-21.5	330	13
2023-08-10T00:00	5611	504	-13.7	-21.9	327	13
2023-08-10T00:00	5632	502	-13.8	-22.1	325	13
2023-08-10T00:00	5655	500	-14.0	-22.0	324	13
2023-08-10T00:00	5690	498	-14.3	-22.3	324	13
2023-08-10T00:00	5714	497	-14.4	-22.3	324	13
2023-08-10T00:00	5736	495	-14.4	-22.0	325	13
2023-08-10T00:00	5756	494	-14.6	-22.0	325	13
2023-08-10T00:00	5774	493	-14.7	-22.0	325	13
2023-08-10T00:00	5797	491	-14.9	-21.9	324	13
2023-08-10T00:00	5824	490	-15.1	-21.8	322	13
2023-08-10T00:00	5848	488	-15.2	-21.6	320	13
2023-08-10T00:00	5879	486	-15.5	-21.5	318	13
2023-08-10T00:00	5904	484	-15.7	-21.5	316	13
2023-08-10T00:00	5931	483	-15.9	-21.1	316	14
2023-08-10T00:00	5955	481	-16.0	-21.0	315	14
2023-08-10T00:00	5980	480	-16.2	-20.9	315	14
2023-08-10T00:00	6010	478	-16.5	-20.8	316	15
2023-08-10T00:00	6037	476	-16.6	-20.9	318	15
2023-08-10T00:00	6067	474	-16.7	-21.4	319	16
2023-08-10T00:00	6092	472	-17.0	-21.6	320	16
2023-08-10T00:00	6119	471	-17.2	-21.7	320	17
2023-08-10T00:00	6146	469	-17.5	-21.6	320	17
2023-08-10T00:00	6170	468	-17.7	-20.8	319	17
2023-08-10T00:00	6197	466	-17.9	-20.7	319	17
2023-08-10T00:00	6222	464	-18.0	-20.4	318	16
2023-08-10T00:00	6238	463	-18.1	-19.9	318	16
2023-08-10T00:00	6261	462	-18.3	-19.5	316	17
2023-08-10T00:00	6285	460	-18.5	-20.2	314	17
2023-08-10T00:00	6318	459	-18.7	-20.0	313	18
2023-08-10T00:00	6339	457	-18.9	-19.6	313	19
2023-08-10T00:00	6359	456	-19.2	-19.7	314	19
2023-08-10T00:00	6385	454	-19.5	-19.9	316	19
2023-08-10T00:00	6414	453	-19.7	-20.0	317	20
2023-08-10T00:00	6438	451	-19.9	-20.1	319	20
2023-08-10T00:00	6460	450	-20.1	-20.3	319	20
2023-08-10T00:00	6479	448	-20.2	-20.4	318	20
2023-08-10T00:00	6505	447	-20.2	-20.8	317	20
2023-08-10T00:00	6543	445	-20.4	-21.7	317	20
2023-08-10T00:00	6568	443	-20.5	-23.3	317	20
2023-08-10T00:00	6588	442	-20.7	-23.5	318	20
2023-08-10T00:00	6608	441	-20.8	-24.0	319	20
2023-08-10T00:00	6634	439	-21.0	-24.6	320	19
2023-08-10T00:00	6659	438	-21.2	-24.9	322	19
2023-08-10T00:00	6689	436	-21.4	-26.0	323	19
2023-08-10T00:00	6719	434	-21.7	-26.6	324	19
2023-08-10T00:00	6749	432	-21.9	-26.9	324	19
2023-08-10T00:00	6780	431	-22.2	-27.2	323	19
2023-08-10T00:00	6805	429	-22.4	-27.6	323	19
2023-08-10T00:00	6827	428	-22.6	-27.9	322	19
2023-08-10T00:00	6851	426	-22.8	-28.4	321	19
2023-08-10T00:00	6887	424	-23.1	-28.8	320	19
2023-08-10T00:00	6915	423	-23.2	-29.1	320	19
2023-08-10T00:00	6933	422	-23.4	-29.3	320	19
2023-08-10T00:00	6952	421	-23.5	-29.5	321	20
2023-08-10T00:00	6970	420	-23.7	-29.5	321	20
2023-08-10T00:00	6990	418	-23.9	-29.9	323	21
2023-08-10T00:00	7023	417	-24.0	-31.9	324	21
2023-08-10T00:00	7048	415	-23.9	-33.6	324	22
2023-08-10T00:00	7072	414	-24.1	-34.1	325	22
2023-08-10T00:00	7105	412	-24.0	-35.3	325	22
2023-08-10T00:00	7134	410	-24.0	-35.8	325	23
2023-08-10T00:00	7163	409	-24.2	-36.2	325	23
2023-08-10T00:00	7194	407	-24.5	-36.0	325	23
2023-08-10T00:00	7225	405	-24.8	-36.3	326	23
2023-08-10T00:00	7260	403	-25.0	-37.0	327	23
2023-08-10T00:00	7286	402	-25.2	-37.0	328	23
2023-08-10T00:00	7314	400	-25.5	-37.2	329	22
2023-08-10T00:00	7345	399	-25.7	-37.4	330	22
2023-08-10T00:00	7380	397	-26.0	-38.3	330	22
2023-08-10T00:00	7404	395	-26.2	-38.3	330	22
2023-08-10T00:00	7428	394	-26.5	-38.4	329	22
2023-08-10T00:00	7457	392	-26.7	-38.6	329	22
2023-08-10T00:00	7496	390	-27.1	-38.7	329	22
2023-08-10T00:00	7532	388	-27.5	-39.0	330	22
2023-08-10T00:00	7560	387	-27.7	-39.4	330	22
2023-08-10T00:00	7580	386	-27.9	-39.6	331	22
2023-08-10T00:00	7603	385	-28.1	-39.7	332	22
2023-08-10T00:00	7629	383	-28.3	-39.8	333	22
2023-08-10T00:00	7659	382	-28.6	-40.1	334	23
2023-08-10T00:00	7691	380	-28.9	-40.3	335	23
2023-08-10T00:00	7730	378	-29.2	-41.1	336	23
2023-08-10T00:00	7750	377	-29.4	-41.0	336	23
2023-08-10T00:00	7774	375	-29.6	-41.0	337	23
2023-08-10T00:00	7804	374	-29.8	-41.3	337	23
2023-08-10T00:00	7831	372	-30.0	-41.8	337	24
2023-08-10T00:00	7858	371	-30.2	-42.1	337	25
2023-08-10T00:00	7889	369	-30.4	-42.3	337	26
2023-08-10T00:00	7916	368	-30.6	-42.4	337	27
2023-08-10T00:00	7939	367	-30.7	-42.7	337	28
2023-08-10T00:00	7971	365	-31.0	-43.1	337	29
2023-08-10T00:00	8008	363	-31.0	-43.4	337	30
2023-08-10T00:00	8035	362	-31.2	-44.4	336	30
2023-08-10T00:00	8056	361	-31.2	-43.8	336	29
2023-08-10T00:00	8078	360	-31.3	-43.3	336	29
2023-08-10T00:00	8099	359	-31.2	-43.6	337	29
2023-08-10T00:00	8126	357	-31.4	-43.7	338	29
2023-08-10T00:00	8154	356	-31.6	-43.9	339	29
2023-08-10T00:00	8176	355	-31.8	-44.1	340	29
2023-08-10T00:00	8214	353	-32.1	-44.0	341	28
2023-08-10T00:00	8241	352	-32.4	-44.1	341	28
2023-08-10T00:00	8262	350	-32.6	-44.4	340	28
2023-08-10T00:00	8289	349	-32.8	-44.3	340	28
2023-08-10T00:00	8314	348	-33.0	-44.2	339	28
2023-08-10T00:00	8344	347	-33.3	-44.2	340	29
2023-08-10T00:00	8365	345	-33.4	-43.8	340	29
2023-08-10T00:00	8393	344	-33.6	-43.6	341	29
2023-08-10T00:00	8425	342	-33.9	-43.4	342	29
2023-08-10T00:00	8458	341	-34.3	-43.8	343	29
2023-08-10T00:00	8490	339	-34.6	-43.7	343	29
2023-08-10T00:00	8521	338	-34.9	-43.9	342	29
2023-08-10T00:00	8551	336	-35.2	-43.9	342	29
2023-08-10T00:00	8582	335	-35.5	-43.9	341	29
2023-08-10T00:00	8614	333	-35.8	-44.0	341	30
2023-08-10T00:00	8647	332	-36.1	-44.0	341	30
2023-08-10T00:00	8683	330	-36.4	-44.2	341	30
2023-08-10T00:00	8714	329	-36.7	-44.3	342	30
2023-08-10T00:00	8745	327	-37.0	-44.4	343	30
2023-08-10T00:00	8788	325	-37.4	-44.4	343	31
2023-08-10T00:00	8809	324	-37.6	-44.6	343	30
2023-08-10T00:00	8837	323	-37.8	-45.1	343	30
2023-08-10T00:00	8872	321	-37.8	-46.5	342	29
2023-08-10T00:00	8895	320	-37.9	-47.6	340	29
2023-08-10T00:00	8917	319	-37.9	-47.8	338	28
2023-08-10T00:00	8945	318	-38.2	-47.8	336	28
2023-08-10T00:00	8973	316	-38.1	-48.3	334	28
2023-08-10T00:00	9011	315	-38.2	-49.0	332	29
2023-08-10T00:00	9044	313	-38.2	-48.7	330	29
2023-08-10T00:00	9070	312	-38.2	-48.4	329	30
2023-08-10T00:00	9092	311	-38.3	-48.3	328	30
2023-08-10T00:00	9117	310	-38.4	-48.3	327	30
2023-08-10T00:00	9149	308	-38.6	-47.9	327	30
2023-08-10T00:00	9175	307	-38.9	-48.1	327	30
2023-08-10T00:00	9200	306	-39.1	-48.3	328	30
2023-08-10T00:00	9229	305	-39.4	-48.2	330	30
2023-08-10T00:00	9248	304	-39.6	-48.1	331	30
2023-08-10T00:00	9277	303	-39.8	-48.0	332	31
2023-08-10T00:00	9304	302	-40.1	-48.2	332	31
2023-08-10T00:00	9326	301	-40.3	-48.2	332	31
2023-08-10T00:00	9350	300	-40.5	-48.2	333	32
2023-08-10T00:00	9369	299	-40.7	-48.0	333	32
2023-08-10T00:00	9390	298	-40.8	-48.2	333	33
2023-08-10T00:00	9414	297	-41.0	-48.4	334	33
2023-08-10T00:00	9444	295	-41.2	-48.8	335	33
2023-08-10T00:00	9469	294	-41.2	-50.9	337	33
2023-08-10T00:00	9499	293	-41.0	-54.4	338	33
2023-08-10T00:00	9527	292	-41.0	-57.2	339	33
2023-08-10T00:00	9558	290	-40.8	-58.2	340	32
2023-08-10T00:00	9587	289	-40.8	-57.7	340	32
2023-08-10T00:00	9614	288	-40.6	-58.9	340	32
2023-08-10T00:00	9642	287	-40.4	-59.3	340	32
2023-08-10T00:00	9668	286	-40.6	-58.9	340	32
2023-08-10T00:00	9697	285	-40.5	-58.2	341	32
2023-08-10T00:00	9729	283	-40.4	-57.6	342	32
2023-08-10T00:00	9763	282	-40.6	-58.0	343	32
2023-08-10T00:00	9793	281	-40.9	-58.1	343	31
2023-08-10T00:00	9810	280	-41.0	-58.2	344	31
2023-08-10T00:00	9829	279	-40.8	-58.4	344	31
2023-08-10T00:00	9851	278	-40.8	-58.6	344	31
2023-08-10T00:00	9870	277	-40.9	-58.8	344	31
2023-08-10T00:00	9892	277	-40.9	-58.8	344	31
2023-08-10T00:00	9912	276	-41.0	-58.9	343	31
2023-08-10T00:00	9934	275	-41.2	-59.1	343	31
2023-08-10T00:00	9952	274	-41.3	-59.2	343	31
2023-08-10T00:00	9971	273	-41.3	-59.3	343	31
2023-08-10T00:00	9990	273	-41.4	-59.5	343	31
2023-08-10T00:00	10010	272	-41.5	-59.8	343	30
2023-08-10T00:00	10031	271	-41.4	-60.0	344	30
2023-08-10T00:00	10050	270	-41.5	-60.1	345	30
2023-08-10T00:00	10072	269	-41.7	-60.3	346	30
2023-08-10T00:00	10091	269	-41.8	-60.3	347	30
2023-08-10T00:00	10113	268	-41.9		347	30
2023-08-10T00:00	10134	267	-41.9	-60.6	348	29
2023-08-10T00:00	10156	266	-41.7	-61.0	349	29
2023-08-10T00:00	10177	265	-41.7	-61.4	350	29
2023-08-10T00:00	10198	264	-41.8	-62.0	350	29
2023-08-10T00:00	10222	263	-41.6	-62.4	350	29
2023-08-10T00:00	10250	262	-41.7	-62.6	350	29
2023-08-10T00:00	10281	261	-41.8	-62.7	349	29
2023-08-10T00:00	10312	260	-41.9	-63.0	349	29
2023-08-10T00:00	10338	259	-42.0	-63.2	348	29
2023-08-10T00:00	10362	258	-42.1	-63.2	347	29
2023-08-10T00:00	10390	257	-42.3	-63.6	347	29
2023-08-10T00:00	10420	256	-42.1	-63.9	346	29
2023-08-10T00:00	10449	255	-42.0	-64.0	346	29
2023-08-10T00:00	10482	254	-42.1	-64.1	346	29
2023-08-10T00:00	10507	253	-42.3	-64.2	346	29
2023-08-10T00:00	10533	252	-42.3	-64.6	346	29
2023-08-10T00:00	10556	251	-42.4	-64.7	346	29
2023-08-10T00:00	10582	250	-42.6	-64.7	346	29
2023-08-10T00:00	10605	249	-42.8	-64.8	346	29
2023-08-10T00:00	10631	248	-43.0	-65.1	346	29
2023-08-10T00:00	10657	247	-43.0	-65.1	345	29
2023-08-10T00:00	10686	246	-43.1	-65.4	345	29
2023-08-10T00:00	10714	245	-43.3	-65.8	344	28
2023-08-10T00:00	10744	244	-43.2	-66.1	343	28
2023-08-10T00:00	10774	243	-43.3	-66.5	342	27
2023-08-10T00:00	10804	242	-43.4	-66.7	342	27
2023-08-10T00:00	10836	241	-43.6	-66.8	341	26
2023-08-10T00:00	10866	239	-43.9	-66.8	341	26
2023-08-10T00:00	10895	238	-44.2	-66.9	341	26
2023-08-10T00:00	10920	238	-44.4	-66.8	341	26
2023-08-10T00:00	10946	237	-44.7	-66.9	341	26
2023-08-10T00:00	10973	236	-44.9	-67.0	340	26
2023-08-10T00:00	10998	235	-45.1	-67.0	339	26
2023-08-10T00:00	11025	234	-45.3	-67.1	338	26
2023-08-10T00:00	11048	233	-45.5	-67.2	337	26
2023-08-10T00:00	11071	232	-45.6	-67.5	336	26
2023-08-10T00:00	11096	231	-45.5	-67.6	335	26
2023-08-10T00:00	11121	231	-45.6	-67.9	335	27
2023-08-10T00:00	11142	230	-45.4		335	27
2023-08-10T00:00	11167	229	-45.1	-68.9	335	28
2023-08-10T00:00	11187	228	-44.5	-69.0	335	28
2023-08-10T00:00	11211	227	-44.6	-69.0	335	29
2023-08-10T00:00	11233	227	-44.8	-69.0	335	29
2023-08-10T00:00	11257	226	-45.0	-69.2	335	30
2023-08-10T00:00	11276	225	-45.1	-69.4	336	31
2023-08-10T00:00	11298	224	-45.0	-69.5	337	31
2023-08-10T00:00	11319	224	-44.9	-70.0	338	31
2023-08-10T00:00	11338	223	-44.7	-70.2	339	31
2023-08-10T00:00	11361	222	-44.6	-70.3	340	31
2023-08-10T00:00	11381	222	-44.7	-70.4	341	31
2023-08-10T00:00	11403	221	-44.7	-70.4	342	30
2023-08-10T00:00	11426	220	-44.7	-70.6	343	30
2023-08-10T00:00	11452	219	-44.8	-70.9	343	30
2023-08-10T00:00	11476	219	-44.9	-71.0	342	30
2023-08-10T00:00	11501	218	-44.7	-71.0	341	29
2023-08-10T00:00	11524	217	-44.7	-71.3	340	29
2023-08-10T00:00	11544	216	-44.7	-71.3	339	29
2023-08-10T00:00	11565	216	-44.8	-71.4	338	29
2023-08-10T00:00	11587	215	-44.8	-71.4	337	28
2023-08-10T00:00	11612	214	-44.7	-71.3	337	28
2023-08-10T00:00	11634	213	-44.7	-71.3	337	27
2023-08-10T00:00	11656	213	-44.8	-71.4	337	27
2023-08-10T00:00	11682	212	-44.9	-71.4	337	26
2023-08-10T00:00	11712	211	-45.1	-71.8	337	26
2023-08-10T00:00	11738	210	-45.3	-72.2	336	26
2023-08-10T00:00	11764	209	-45.4	-72.5	336	26
2023-08-10T00:00	11790	209	-45.6	-73.0	335	26
2023-08-10T00:00	11815	208	-45.8	-73.1	335	26
2023-08-10T00:00	11836	207	-45.9	-73.2	335	26
2023-08-10T00:00	11862	206	-45.8	-73.4	335	26
2023-08-10T00:00	11883	206	-45.9	-73.5	335	26
2023-08-10T00:00	11904	205	-46.0	-73.5	335	26
2023-08-10T00:00	11926	204	-46.0	-73.5	335	26
2023-08-10T00:00	11947	204	-46.0	-73.8	335	26
2023-08-10T00:00	11967	203	-46.1	-73.9	335	27
2023-08-10T00:00	11989	202	-46.0	-73.8	334	27
2023-08-10T00:00	12010	202	-45.7	-73.9	333	27
2023-08-10T00:00	12030	201	-45.6	-74.1	333	27
2023-08-10T00:00	12052	200	-45.6	-74.4	333	27
2023-08-10T00:00	12073	200	-45.7	-74.5	332	26
2023-08-10T00:00	12094	199	-45.8	-74.6	333	26
2023-08-10T00:00	12116	199	-45.8	-74.6	333	26
2023-08-10T00:00	12135	198	-45.9	-74.6	333	26
2023-08-10T00:00	12154	197	-46.0	-75.0	333	26
2023-08-10T00:00	12176	197	-46.1	-75.1	333	27
2023-08-10T00:00	12197	196	-46.2	-75.5	332	27
2023-08-10T00:00	12218	196	-46.2	-75.2	332	27
2023-08-10T00:00	12241	195	-46.2	-75.5	331	27
2023-08-10T00:00	12261	194	-46.3	-75.6	330	27
2023-08-10T00:00	12282	194	-46.3	-75.3	330	28
2023-08-10T00:00	12302	193	-46.2	-75.5	330	28
2023-08-10T00:00	12324	192	-46.1	-75.8	330	28
2023-08-10T00:00	12342	192	-46.1	-76.2	331	28
2023-08-10T00:00	12361	191	-45.7	-76.3	332	28
2023-08-10T00:00	12380	191	-45.2	-76.4	332	28
2023-08-10T00:00	12401	190	-45.0	-76.7	333	28
2023-08-10T00:00	12419	190	-44.9	-76.1	333	28
2023-08-10T00:00	12438	189	-44.9	-76.6	333	28
2023-08-10T00:00	12458	189	-44.9	-76.6	334	28
2023-08-10T00:00	12478	188	-45.1	-76.3	334	28
2023-08-10T00:00	12496	188	-45.2	-76.4	335	28
2023-08-10T00:00	12516	187	-45.3	-76.4	335	27
2023-08-10T00:00	12537	186	-45.4	-77.0	335	27
2023-08-10T00:00	12558	186	-45.5	-77.1	335	26
2023-08-10T00:00	12580	185	-45.5	-77.1	334	26
2023-08-10T00:00	12602	185	-45.5	-77.1	334	25
2023-08-10T00:00	12627	184	-45.5	-77.6	334	24
2023-08-10T00:00	12647	183	-45.5	-77.6	334	24
2023-08-10T00:00	12667	183	-45.3	-77.4	335	23
2023-08-10T00:00	12691	182	-45.1	-77.3	337	23
2023-08-10T00:00	12714	182	-45.1	-77.3	338	23
2023-08-10T00:00	12734	181	-45.2	-77.3	339	23
2023-08-10T00:00	12759	180	-45.3	-77.4	340	23
2023-08-10T00:00	12780	180	-45.2	-77.9	340	23
2023-08-10T00:00	12800	179	-45.1	-77.8	340	23
2023-08-10T00:00	12823	179	-45.3	-77.4	340	23
2023-08-10T00:00	12842	178	-45.4	-77.5	340	23
2023-08-10T00:00	12867	177	-45.6	-78.2	341	23
2023-08-10T00:00	12889	177	-45.7	-78.2	341	23
2023-08-10T00:00	12909	176	-45.7	-78.2	341	23
2023-08-10T00:00	12931	176	-45.7	-77.7	341	22
2023-08-10T00:00	12954	175	-45.8	-77.8	341	22
2023-08-10T00:00	12974	175	-46.0	-78.5	341	22
2023-08-10T00:00	12999	174	-46.2	-78.1	341	21
2023-08-10T00:00	13024	173	-46.4	-78.2	342	21
2023-08-10T00:00	13046	173	-46.5	-78.3	342	20
2023-08-10T00:00	13071	172	-46.6	-78.4	343	20
2023-08-10T00:00	13094	171	-46.8	-78.5	344	19
2023-08-10T00:00	13116	171	-46.8	-78.5	345	19
2023-08-10T00:00	13137	170	-47.0	-78.7	346	18
2023-08-10T00:00	13162	170	-47.1	-78.7	347	18
2023-08-10T00:00	13182	169	-47.3	-78.9	348	18
2023-08-10T00:00	13205	169	-47.4	-79.0	348	19
2023-08-10T00:00	13229	168	-47.6	-79.1	349	19
2023-08-10T00:00	13250	167	-47.4	-79.0	349	20
2023-08-10T00:00	13272	167	-47.1	-78.7	348	20
2023-08-10T00:00	13294	166	-47.1	-79.3	348	20
2023-08-10T00:00	13316	166	-47.1	-79.3	347	21
2023-08-10T00:00	13339	165	-47.1	-79.3	347	21
2023-08-10T00:00	13360	165	-47.3	-79.4	346	21
2023-08-10T00:00	13382	164	-47.3	-79.4	346	21
2023-08-10T00:00	13403	164	-47.1	-79.3	345	22
2023-08-10T00:00	13424	163	-47.1	-79.3	344	22
2023-08-10T00:00	13447	163	-47.2	-79.4	344	23
2023-08-10T00:00	13469	162	-47.2	-79.4	343	23
2023-08-10T00:00	13490	161	-47.3	-79.4	343	23
2023-08-10T00:00	13511	161	-47.4	-79.5	343	23
2023-08-10T00:00	13534	160	-47.5	-79.6	344	23
2023-08-10T00:00	13556	160	-47.6	-79.1	345	23
2023-08-10T00:00	13578	159	-47.7		346	23
2023-08-10T00:00	13601	159	-47.4	-79.0	347	23
2023-08-10T00:00	13623	158	-47.5	-79.0	349	23
2023-08-10T00:00	13643	158	-47.6	-79.6	349	23
2023-08-10T00:00	13663	157	-47.7	-79.7	350	23
2023-08-10T00:00	13684	157	-47.7	-79.7	351	23
2023-08-10T00:00	13709	156	-47.8	-79.3	352	23
2023-08-10T00:00	13731	156	-48.0	-79.4	353	23
2023-08-10T00:00	13753	155	-47.9	-79.3	355	22
2023-08-10T00:00	13773	155	-47.9	-79.3	356	22
2023-08-10T00:00	13794	154	-47.9	-79.9	358	22
2023-08-10T00:00	13817	154	-47.7	-79.7	360	22
2023-08-10T00:00	13839	153	-47.5	-79.6	1	22
2023-08-10T00:00	13863	153	-47.3	-79.4	2	22
2023-08-10T00:00	13885	152	-47.2	-79.4	3	21
2023-08-10T00:00	13907	152	-47.3	-79.4	4	21
2023-08-10T00:00	13930	151	-47.4	-79.5	5	20
2023-08-10T00:00	13952	151	-47.6	-79.6	5	20
2023-08-10T00:00	13973	150	-47.7	-79.7	5	19
2023-08-10T00:00	13995	150	-47.8	-79.8	5	19
2023-08-10T00:00	14017	149	-47.9	-79.9	5	18
2023-08-10T00:00	14038	149	-47.7	-79.7	4	18
2023-08-10T00:00	14063	148	-47.9	-79.9	4	17
2023-08-10T00:00	14084	148	-47.8	-79.8	3	17
2023-08-10T00:00	14107	147	-47.9	-79.9	4	16
2023-08-10T00:00	14127	147	-48.1	-79.5	4	16
2023-08-10T00:00	14153	146	-48.3	-79.6	6	16
2023-08-10T00:00	14176	146	-48.4	-79.7	8	15
2023-08-10T00:00	14198	145	-48.4	-79.7	10	15
2023-08-10T00:00	14224	145	-48.3	-79.6	12	15
2023-08-10T00:00	14246	144	-48.4	-79.7	13	15
2023-08-10T00:00	14270	144	-48.5	-80.3	13	15
2023-08-10T00:00	14290	143	-48.7	-80.5	13	15
2023-08-10T00:00	14313	143	-48.9	-80.1	13	15
2023-08-10T00:00	14336	142	-49.0	-80.2	14	14
2023-08-10T00:00	14358	142	-49.2	-80.3	14	14
2023-08-10T00:00	14384	141	-49.3	-80.4	14	14
2023-08-10T00:00	14407	141	-49.4	-80.0	14	14
2023-08-10T00:00	14430	140	-49.6	-80.1	14	14
2023-08-10T00:00	14454	140	-49.8	-80.3	13	13
2023-08-10T00:00	14478	139	-50.0	-80.4	12	13
2023-08-10T00:00	14501	139	-50.1	-80.5	10	13
2023-08-10T00:00	14525	138	-50.2	-80.6	8	12
2023-08-10T00:00	14547	138	-50.2	-80.6	6	12
2023-08-10T00:00	14570	137	-50.3	-80.6	3	12
2023-08-10T00:00	14593	137	-50.3	-80.6	1	12
2023-08-10T00:00	14614	136	-50.3	-80.6	358	12
2023-08-10T00:00	14637	136	-50.4	-80.7	357	12
2023-08-10T00:00	14660	135	-50.4	-80.7	356	12
2023-08-10T00:00	14682	135	-50.4	-80.7	356	12
2023-08-10T00:00	14702	134	-50.4	-80.7	357	12
2023-08-10T00:00	14726	134	-50.3	-80.6	358	11
2023-08-10T00:00	14748	133	-50.2	-80.6	360	11
2023-08-10T00:00	14771	133	-50.4	-80.7	1	10
2023-08-10T00:00	14793	132	-50.5	-80.8	4	10
2023-08-10T00:00	14816	132	-50.6	-80.9	6	9
2023-08-10T00:00	14841	132	-50.7	-80.9	7	9
2023-08-10T00:00	14859	131	-50.7	-80.9	8	9
2023-08-10T00:00	14880	131	-50.8	-81.0	8	9
2023-08-10T00:00	14901	130	-50.9	-81.1	7	8
2023-08-10T00:00	14922	130	-51.0	-81.2	5	8
2023-08-10T00:00	14942	129	-51.0	-81.2	3	8
2023-08-10T00:00	14962	129	-50.9	-81.1	0	8
2023-08-10T00:00	14986	129	-50.9	-81.6	357	8
2023-08-10T00:00	15007	128	-51.1	-81.7	354	8
2023-08-10T00:00	15025	128	-51.2	-81.3	350	8
2023-08-10T00:00	15046	127	-51.4	-81.5	347	8
2023-08-10T00:00	15070	127	-51.4	-81.5	345	9
2023-08-10T00:00	15089	127	-51.1	-81.7	344	10
2023-08-10T00:00	15110	126	-50.9	-81.6	343	10
2023-08-10T00:00	15131	126	-51.1	-81.7	343	11
2023-08-10T00:00	15153	125	-51.2	-81.8	344	12
2023-08-10T00:00	15172	125	-51.3	-81.9	345	12
2023-08-10T00:00	15193	125	-51.4	-81.5	346	13
2023-08-10T00:00	15214	124	-51.1	-81.2	347	13
2023-08-10T00:00	15234	124	-51.1	-81.2	349	14
2023-08-10T00:00	15259	123	-51.1	-81.7	350	14
2023-08-10T00:00	15278	123	-50.8	-81.5	351	14
2023-08-10T00:00	15300	123	-50.6	-81.3	353	14
2023-08-10T00:00	15321	122	-50.2		354	14
2023-08-10T00:00	15343	122	-50.3	-81.6	356	14
2023-08-10T00:00	15362	121	-50.3	-81.6	357	15
2023-08-10T00:00	15383	121	-50.4	-81.7	359	15
2023-08-10T00:00	15403	121	-50.3	-82.2	1	15
2023-08-10T00:00	15427	120	-50.1	-82.1	3	15
2023-08-10T00:00	15448	120	-50.2	-82.1	5	15
2023-08-10T00:00	15469	119	-50.2		7	15
2023-08-10T00:00	15489	119	-50.2		8	15
2023-08-10T00:00	15512	119	-50.2		9	15
2023-08-10T00:00	15532	118	-50.2		10	14
2023-08-10T00:00	15556	118	-50.2	-82.1	11	14
2023-08-10T00:00	15578	117	-50.2	-82.1	12	14
2023-08-10T00:00	15601	117	-50.2	-82.1	13	13
2023-08-10T00:00	15621	117	-50.4	-81.7	13	13
2023-08-10T00:00	15646	116	-50.6	-81.9	13	13
2023-08-10T00:00	15667	116	-50.8	-82.0	12	13
2023-08-10T00:00	15689	115	-50.9	-82.1	11	12
2023-08-10T00:00	15714	115	-51.1	-82.2	10	12
2023-08-10T00:00	15737	115	-51.3	-82.4	10	12
2023-08-10T00:00	15759	114	-51.5	-82.5	9	11
2023-08-10T00:00	15783	114	-51.7	-82.2	10	11
2023-08-10T00:00	15806	113	-51.6	-82.1	10	10
2023-08-10T00:00	15829	113	-51.7	-82.2	10	10
2023-08-10T00:00	15853	113	-51.8	-82.2	9	10
2023-08-10T00:00	15874	112	-51.9	-82.3	9	9
2023-08-10T00:00	15897	112	-51.9	-82.3	7	9
2023-08-10T00:00	15920	111	-52.1	-83.0	6	8
2023-08-10T00:00	15944	111	-52.2	-83.1	5	8
2023-08-10T00:00	15968	111	-52.2	-83.1	5	8
2023-08-10T00:00	15990	110	-52.3	-83.1	4	7
2023-08-10T00:00	16012	110	-52.5	-82.8	2	7
2023-08-10T00:00	16037	109	-52.7	-82.9	360	6
2023-08-10T00:00	16060	109	-52.8	-83.0	357	6
2023-08-10T00:00	16083	109	-52.9	-83.1	354	6
2023-08-10T00:00	16105	108	-53.0	-83.1	349	6
2023-08-10T00:00	16128	108	-53.1	-83.2	344	6
2023-08-10T00:00	16151	107	-53.3		339	6
2023-08-10T00:00	16173	107	-53.5	-83.5	336	7
2023-08-10T00:00	16196	107	-53.5	-83.5	334	7
2023-08-10T00:00	16218	106	-53.4	-83.4	334	8
2023-08-10T00:00	16241	106	-53.2	-83.3	336	8
2023-08-10T00:00	16263	106	-53.0	-83.6	338	9
2023-08-10T00:00	16285	105	-53.0	-83.6	342	9
2023-08-10T00:00	16308	105	-52.6	-83.9	346	9
2023-08-10T00:00	16333	105	-51.9	-83.4	350	9
2023-08-10T00:00	16353	104	-51.8	-83.3	353	10
2023-08-10T00:00	16373	104	-51.8	-83.3	354	10
2023-08-10T00:00	16396	103	-51.6	-83.2	355	10
2023-08-10T00:00	16418	103	-51.2	-82.9	354	10
2023-08-10T00:00	16441	103	-51.1	-82.8	353	10
2023-08-10T00:00	16462	102	-51.0	-82.7	353	10
2023-08-10T00:00	16483	102	-51.0	-82.7	353	10
2023-08-10T00:00	16508	102	-51.1	-82.8	353	9
2023-08-10T00:00	16526	101	-51.2	-82.9	354	9
2023-08-10T00:00	16549	101	-51.0	-82.7	355	9
2023-08-10T00:00	16572	101	-51.2	-82.9	356	9
2023-08-10T00:00	16591	100	-51.4	-83.0	357	9
2023-08-10T00:00	16612	100	-51.4	-83.0	358	9
2023-08-10T00:00	16635	100	-51.4	-83.0	360	9
2023-08-10T00:00	16657	99	-51.4	-83.0	1	9
2023-08-10T00:00	16678	99	-51.5	-83.1	3	9
2023-08-10T00:00	16698	99	-51.5	-83.1	5	9
2023-08-10T00:00	16718	98	-51.6	-83.2	6	9
2023-08-10T00:00	16740	98	-51.8	-82.8	7	9
2023-08-10T00:00	16761	98	-51.9	-82.8	7	9
2023-08-10T00:00	16784	97	-52.1	-83.0	7	9
2023-08-10T00:00	16806	97	-52.2	-83.1	6	9
2023-08-10T00:00	16825	97	-52.2	-83.1	6	9
2023-08-10T00:00	16850	97	-52.0	-82.9	6	10
2023-08-10T00:00	16871	96	-52.1	-83.5	6	10
2023-08-10T00:00	16894	96	-52.2	-83.6	6	10
2023-08-10T00:00	16915	96	-52.3	-83.1	7	10
2023-08-10T00:00	16938	95	-52.5	-83.3	7	10
2023-08-10T00:00	16959	95	-52.6	-83.3	7	10
2023-08-10T00:00	16983	95	-52.8	-83.5	7	11
2023-08-10T00:00	17003	94	-52.9	-83.1	7	11
2023-08-10T00:00	17027	94	-53.0	-83.1	8	11
2023-08-10T00:00	17049	94	-53.1	-83.7	8	12
2023-08-10T00:00	17071	93	-53.2	-83.8	8	12
2023-08-10T00:00	17095	93	-53.2	-83.8	8	13
2023-08-10T00:00	17118	93	-53.0	-83.6	8	13
2023-08-10T00:00	17140	92	-52.9	-83.6	9	13
2023-08-10T00:00	17164	92	-52.8	-83.5	10	13
2023-08-10T00:00	17187	92	-52.8	-83.5	11	13
2023-08-10T00:00	17211	91	-53.0	-83.6	13	13
2023-08-10T00:00	17233	91	-53.2	-83.3	15	13
2023-08-10T00:00	17258	91	-53.4	-83.4	17	13
2023-08-10T00:00	17283	90	-53.6	-83.6	20	13
2023-08-10T00:00	17306	90	-53.6	-83.6	22	12
2023-08-10T00:00	17333	90	-53.7	-83.7	24	12
2023-08-10T00:00	17355	89	-53.9	-83.8	26	12
2023-08-10T00:00	17376	89	-54.0	-83.9	27	11
2023-08-10T00:00	17401	89	-54.1	-84.0	28	11
2023-08-10T00:00	17423	88	-54.2	-84.0	28	10
2023-08-10T00:00	17447	88	-54.3	-84.1	28	10
2023-08-10T00:00	17468	88	-54.4	-84.2	27	9
2023-08-10T00:00	17491	87	-54.4	-84.2	27	9
2023-08-10T00:00	17516	87	-54.5	-84.3	27	8
2023-08-10T00:00	17537	87	-54.5	-84.3	29	7
2023-08-10T00:00	17562	86	-54.3	-84.1	31	6
2023-08-10T00:00	17583	86	-54.1	-84.0	36	6
2023-08-10T00:00	17607	86	-54.0	-84.4	41	5
2023-08-10T00:00	17629	85	-54.0	-84.4	46	4
2023-08-10T00:00	17649	85	-54.0	-84.4	51	4
2023-08-10T00:00	17672	85	-53.8	-84.2	55	4
2023-08-10T00:00	17696	85	-53.5	-84.0	57	3
2023-08-10T00:00	17720	84	-53.3	-83.9	57	3
2023-08-10T00:00	17741	84	-53.4	-83.9	56	3
2023-08-10T00:00	17760	84	-53.4	-83.9	55	2
2023-08-10T00:00	17783	83	-53.4	-83.9	55	2
2023-08-10T00:00	17806	83	-53.6	-84.1	56	1
2023-08-10T00:00	17828	83	-53.7	-84.2	58	1
2023-08-10T00:00	17849	83	-53.7	-84.2	59	1
2023-08-10T00:00	17871	82	-53.8	-84.2	35	0
2023-08-10T00:00	17893	82	-53.8	-84.2	314	0
2023-08-10T00:00	17918	82	-53.9	-84.3	301	1
2023-08-10T00:00	17938	81	-53.8	-84.2	304	1
2023-08-10T00:00	17960	81	-53.9	-84.3	309	2
2023-08-10T00:00	17982	81	-53.9	-84.3	315	2
2023-08-10T00:00	18010	81	-54.0	-84.4	321	2
2023-08-10T00:00	18032	80	-54.1	-84.5	327	3
2023-08-10T00:00	18054	80	-54.2	-84.5	333	3
2023-08-10T00:00	18080	80	-54.1	-84.5	339	3
2023-08-10T00:00	18100	79	-54.0	-84.4	344	3
2023-08-10T00:00	18124	79	-54.1	-84.5	350	3
2023-08-10T00:00	18147	79	-53.9	-84.3	355	2
2023-08-10T00:00	18170	79	-53.9	-84.3	0	2
2023-08-10T00:00	18196	78	-53.9	-84.3	5	2
2023-08-10T00:00	18218	78	-53.8	-84.8	9	2
2023-08-10T00:00	18244	78	-53.5	-84.6	12	2
2023-08-10T00:00	18266	77	-53.5	-84.6	16	2
2023-08-10T00:00	18291	77	-53.5	-84.6	20	2
2023-08-10T00:00	18314	77	-53.5	-84.6	24	2
2023-08-10T00:00	18337	77	-53.5	-84.6	27	2
2023-08-10T00:00	18361	76	-53.5	-84.6	28	2
2023-08-10T00:00	18383	76	-53.6	-84.6	27	2
2023-08-10T00:00	18409	76	-53.5	-84.6	26	2
2023-08-10T00:00	18430	75	-53.4	-84.5	25	2
2023-08-10T00:00	18458	75	-53.3	-84.4	27	2
2023-08-10T00:00	18480	75	-53.3	-84.4	33	2
2023-08-10T00:00	18504	75	-53.3	-84.4	40	2
2023-08-10T00:00	18529	74	-53.2	-84.4	45	3
2023-08-10T00:00	18551	74	-53.2	-84.4	48	3
2023-08-10T00:00	18576	74	-53.3	-84.4	49	3
2023-08-10T00:00	18601	73	-53.4	-83.9	48	3
2023-08-10T00:00	18625	73	-53.6	-84.1	47	3
2023-08-10T00:00	18649	73	-53.8	-84.2	45	3
2023-08-10T00:00	18673	73	-53.9	-84.3	44	3
2023-08-10T00:00	18697	72	-54.1	-84.5	42	3
2023-08-10T00:00	18718	72	-54.1	-84.5	40	3
2023-08-10T00:00	18742	72	-54.1	-84.5	37	3
2023-08-10T00:00	18767	72	-54.2	-84.5	34	3
2023-08-10T00:00	18789	71	-54.2	-84.5	29	3
2023-08-10T00:00	18815	71	-54.2	-84.5	22	3
2023-08-10T00:00	18838	71	-54.4	-84.7	14	4
2023-08-10T00:00	18862	71	-54.3	-84.6	8	4
2023-08-10T00:00	18883	70	-54.2	-84.5	3	4
2023-08-10T00:00	18907	70	-54.0	-84.9	2	5
2023-08-10T00:00	18929	70	-53.9	-84.9	4	5
2023-08-10T00:00	18954	70	-53.9	-84.9	8	5
2023-08-10T00:00	18975	69	-53.9	-84.9	13	6
2023-08-10T00:00	18997	69	-53.9	-84.9	16	6
2023-08-10T00:00	19020	69	-53.7	-84.7	18	6
2023-08-10T00:00	19043	69	-53.7	-84.7	18	7
2023-08-10T00:00	19068	68	-53.8	-84.8	17	7
2023-08-10T00:00	19090	68	-53.7	-84.7	15	7
2023-08-10T00:00	19114	68	-53.4	-84.5	13	7
2023-08-10T00:00	19137	68	-53.4	-84.5	12	7
2023-08-10T00:00	19158	67	-53.5	-85.2	10	7
2023-08-10T00:00	19181	67	-53.2	-85.0	10	7
2023-08-10T00:00	19204	67	-53.0	-84.8	9	8
2023-08-10T00:00	19226	67	-52.6	-84.5	9	8
2023-08-10T00:00	19249	66	-52.4	-84.4	9	9
2023-08-10T00:00	19274	66	-52.5	-84.4	9	9
2023-08-10T00:00	19295	66	-52.6	-84.5	10	10
2023-08-10T00:00	19314	66	-52.7	-84.6	12	10
2023-08-10T00:00	19339	66	-52.8	-84.7	14	9
2023-08-10T00:00	19361	65	-52.7	-84.6	17	9
2023-08-10T00:00	19383	65	-52.8	-84.7	20	8
2023-08-10T00:00	19406	65	-52.7	-84.6	22	8
2023-08-10T00:00	19427	65	-52.7	-84.6	23	7
2023-08-10T00:00	19454	64	-52.7	-84.6	22	7
2023-08-10T00:00	19472	64	-52.6	-84.5	20	7
2023-08-10T00:00	19496	64	-52.5	-84.4	18	8
2023-08-10T00:00	19518	64	-52.5	-84.4	17	8
2023-08-10T00:00	19542	63	-52.5	-84.4	17	9
2023-08-10T00:00	19566	63	-52.4	-84.4	17	9
2023-08-10T00:00	19588	63	-52.2	-84.2	19	9
2023-08-10T00:00	19611	63	-52.2	-84.2	20	9
2023-08-10T00:00	19637	63	-52.2	-84.2	22	9
2023-08-10T00:00	19661	62	-52.3	-84.3	24	9
2023-08-10T00:00	19686	62	-52.4	-84.4	27	9
2023-08-10T00:00	19711	62	-52.4	-84.4	30	8
2023-08-10T00:00	19737	62	-52.4	-84.4	34	8
2023-08-10T00:00	19759	61	-52.4	-84.4	38	8
2023-08-10T00:00	19788	61	-52.3	-84.3	42	8
2023-08-10T00:00	19812	61	-52.4	-84.4	46	8
2023-08-10T00:00	19841	61	-52.4	-84.4	50	8
2023-08-10T00:00	19864	60	-52.4	-84.4	53	8
2023-08-10T00:00	19891	60	-52.6	-83.9	55	8
2023-08-10T00:00	19917	60	-52.8	-84.1	56	8
2023-08-10T00:00	19941	60	-52.9	-84.1	58	7
2023-08-10T00:00	19965	59	-53.1	-84.3	58	7
2023-08-10T00:00	19994	59	-53.1	-84.3	58	7
2023-08-10T00:00	20019	59	-53.1	-84.3	58	6
2023-08-10T00:00	20047	59	-53.1	-84.3	58	6
2023-08-10T00:00	20073	59	-53.2	-84.4	58	5
2023-08-10T00:00	20100	58	-53.3	-84.4	58	5
2023-08-10T00:00	20125	58	-53.2	-84.4	57	4
2023-08-10T00:00	20151	58	-53.2	-84.4	55	4
2023-08-10T00:00	20175	58	-53.2	-84.4	53	3
2023-08-10T00:00	20207	57	-53.3	-84.4	49	3
2023-08-10T00:00	20232	57	-53.4	-84.5	45	3
2023-08-10T00:00	20255	57	-53.4	-84.5	41	3
2023-08-10T00:00	20282	57	-53.3	-85.0	38	4
2023-08-10T00:00	20309	56	-53.1	-84.9	37	4
2023-08-10T00:00	20336	56	-53.1	-84.9	38	5
2023-08-10T00:00	20364	56	-53.1	-84.9	40	5
2023-08-10T00:00	20394	56	-53.1	-84.9	42	6
2023-08-10T00:00	20420	55	-53.1	-84.9	45	7
2023-08-10T00:00	20444	55	-53.2	-84.4	47	7
2023-08-10T00:00	20470	55	-53.4	-84.5	49	7
2023-08-10T00:00	20498	55	-53.6	-84.6	50	7
2023-08-10T00:00	20522	55	-53.8	-84.8	50	7
2023-08-10T00:00	20550	54	-53.6	-84.6	50	6
2023-08-10T00:00	20572	54	-53.7	-84.7	50	6
2023-08-10T00:00	20605	54	-53.8	-84.8	50	6
2023-08-10T00:00	20631	54	-53.9	-84.9	52	6
2023-08-10T00:00	20656	53	-53.8	-84.8	53	6
2023-08-10T00:00	20682	53	-53.4	-85.1	55	6
2023-08-10T00:00	20707	53	-53.2	-85.0	56	6
2023-08-10T00:00	20730	53	-53.2	-85.0	57	7
2023-08-10T00:00	20758	53	-53.2	-85.0	58	7
2023-08-10T00:00	20780	52	-53.3	-85.0	60	7
2023-08-10T00:00	20804	52	-53.4	-84.5	62	7
2023-08-10T00:00	20828	52	-53.4	-84.5	65	7
2023-08-10T00:00	20852	52	-53.4	-84.5	68	7
2023-08-10T00:00	20878	52	-53.3	-84.4	72	6
2023-08-10T00:00	20902	51	-53.5	-84.6	76	6
2023-08-10T00:00	20927	51	-53.5	-85.2	81	6
2023-08-10T00:00	20948	51	-53.3	-85.0	85	5
2023-08-10T00:00	20975	51	-53.2	-85.0	87	4
2023-08-10T00:00	20999	51	-53.3	-85.0	89	4
2023-08-10T00:00	21017	50	-53.4	-85.1	88	3
2023-08-10T00:00	21042	50	-53.2	-85.0	85	3
2023-08-10T00:00	21065	50	-53.2	-85.0	80	3
2023-08-10T00:00	21087	50	-53.2	-85.0	75	3
2023-08-10T00:00	21116	50	-53.2	-85.0	70	3
2023-08-10T00:00	21140	50	-53.3	-85.0	67	3
2023-08-10T00:00	21161	49	-53.3	-85.0	65	4
2023-08-10T00:00	21184	49	-53.0	-84.8	65	5
2023-08-10T00:00	21213	49	-52.9	-84.7	65	5
2023-08-10T00:00	21235	49	-53.0	-84.8	64	6
2023-08-10T00:00	21262	49	-53.1	-84.9	64	7
2023-08-10T00:00	21286	48	-53.1	-84.9	62	8
2023-08-10T00:00	21309	48	-53.1	-84.9	62	9
2023-08-10T00:00	21334	48	-53.1	-84.9	62	10
2023-08-10T00:00	21356	48	-53.0	-84.8	63	11
2023-08-10T00:00	21380	48	-53.1	-84.9	65	12
2023-08-10T00:00	21406	48	-53.1	-84.9	68	12
2023-08-10T00:00	21429	47	-53.0	-84.8	70	13
2023-08-10T00:00	21453	47	-52.8	-84.7	73	13
2023-08-10T00:00	21478	47	-52.9	-84.7	75	13
2023-08-10T00:00	21500	47	-52.9	-84.7	77	12
2023-08-10T00:00	21528	47	-52.8	-84.7	79	12
2023-08-10T00:00	21550	46	-52.9	-84.7	82	12
2023-08-10T00:00	21577	46	-53.0	-84.8	85	11
2023-08-10T00:00	21597	46	-52.8	-84.7	87	11
2023-08-10T00:00	21629	46	-52.9	-84.7	90	11
2023-08-10T00:00	21653	46	-52.9	-84.7	92	11
2023-08-10T00:00	21676	46	-53.1	-84.9	92	11
2023-08-10T00:00	21702	45	-53.3	-84.4	92	11
2023-08-10T00:00	21729	45	-53.5	-84.6	91	11
2023-08-10T00:00	21756	45	-53.4	-84.5	89	11
2023-08-10T00:00	21776	45	-53.4	-84.5	86	11
2023-08-10T00:00	21801	45	-53.5	-85.2	84	11
2023-08-10T00:00	21831	45	-53.5	-85.2	84	11
2023-08-10T00:00	21852	44	-53.4	-85.1	85	11
2023-08-10T00:00	21875	44	-52.7	-84.6	87	11
2023-08-10T00:00	21901	44	-52.4	-84.4	89	11
2023-08-10T00:00	21927	44	-52.3	-85.0	92	11
2023-08-10T00:00	21954	44	-52.4	-85.1	94	10
2023-08-10T00:00	21979	44	-52.4	-85.1	97	10
2023-08-10T00:00	22010	43	-52.3	-84.3	98	10
2023-08-10T00:00	22031	43	-52.3	-84.3	100	10
2023-08-10T00:00	22056	43	-52.3	-84.3	102	9
2023-08-10T00:00	22085	43	-52.5	-84.4	103	9
2023-08-10T00:00	22107	43	-52.5	-84.4	104	9
2023-08-10T00:00	22135	43	-52.3	-84.3	103	9
2023-08-10T00:00	22152	42	-52.3	-84.3	101	8
2023-08-10T00:00	22177	42	-52.3	-84.3	97	8
2023-08-10T00:00	22204	42	-52.1	-84.8	93	8
2023-08-10T00:00	22235	42	-51.9	-84.7	88	8
2023-08-10T00:00	22253	42	-51.8	-84.6	83	8
2023-08-10T00:00	22285	42	-51.8	-84.6	79	8
2023-08-10T00:00	22309	41	-51.7	-84.5	76	8
2023-08-10T00:00	22331	41	-51.5	-84.4	73	8
2023-08-10T00:00	22358	41	-51.6	-84.5	72	8
2023-08-10T00:00	22386	41	-51.8	-83.9	73	8
2023-08-10T00:00	22407	41	-51.8	-83.9	75	8
2023-08-10T00:00	22430	41	-51.9	-84.0	78	8
2023-08-10T00:00	22457	40	-51.9	-84.0	82	9
2023-08-10T00:00	22481	40	-51.9	-84.0	88	9
2023-08-10T00:00	22504	40	-51.9	-84.0	94	9
2023-08-10T00:00	22522	40	-51.8	-84.6	100	9
2023-08-10T00:00	22555	40	-51.7	-84.5	106	10
2023-08-10T00:00	22582	40	-51.6	-84.5	111	10
2023-08-10T00:00	22602	40	-51.5	-84.4	115	10
2023-08-10T00:00	22622	39	-51.5	-84.4	118	10
2023-08-10T00:00	22651	39	-51.4	-84.3	119	10
2023-08-10T00:00	22675	39	-51.3	-84.3	120	10
2023-08-10T00:00	22699	39	-51.2	-84.2	119	10
2023-08-10T00:00	22724	39	-51.2	-84.2	118	10
2023-08-10T00:00	22752	39	-51.2	-84.2	117	9
2023-08-10T00:00	22772	38	-51.2	-84.2	117	9
2023-08-10T00:00	22796	38	-51.2	-84.2	118	9
2023-08-10T00:00	22825	38	-51.2	-84.2	119	9
2023-08-10T00:00	22850	38	-51.2	-84.2	121	9
2023-08-10T00:00	22874	38	-51.2	-84.2	122	9
2023-08-10T00:00	22899	38	-51.1	-84.1	124	9
2023-08-10T00:00	22924	38	-51.1	-84.1	125	9
2023-08-10T00:00	22948	37	-51.1	-84.1	126	8
2023-08-10T00:00	22972	37	-51.0	-84.0	127	8
2023-08-10T00:00	23002	37	-50.9	-84.0	127	7
2023-08-10T00:00	23023	37	-51.0	-84.0	126	7
2023-08-10T00:00	23049	37	-51.0	-84.0	123	6
2023-08-10T00:00	23073	37	-51.0	-84.0	120	6
2023-08-10T00:00	23100	37	-51.0	-84.0	115	6
2023-08-10T00:00	23128	36	-51.0	-84.0	109	5
2023-08-10T00:00	23151	36	-50.7	-83.8	102	5
2023-08-10T00:00	23180	36	-50.7	-83.8	94	5
2023-08-10T00:00	23205	36	-50.7	-83.8	87	5
2023-08-10T00:00	23237	36	-50.8	-83.9	81	4
2023-08-10T00:00	23260	36	-50.9	-84.0	75	4
2023-08-10T00:00	23286	36	-50.8	-83.9	71	4
2023-08-10T00:00	23308	35	-50.6	-83.7	68	4
2023-08-10T00:00	23338	35	-50.4	-83.6	67	4
2023-08-10T00:00	23362	35	-50.5	-83.7	68	5
2023-08-10T00:00	23392	35	-50.3	-83.5	69	5
2023-08-10T00:00	23416	35	-50.2	-83.5	70	6
2023-08-10T00:00	23446	35	-50.3	-83.5	70	7
2023-08-10T00:00	23473	35	-50.4	-83.6	71	7
2023-08-10T00:00	23495	34	-50.6	-83.7	72	8
2023-08-10T00:00	23524	34	-50.8	-83.9	73	8
2023-08-10T00:00	23547	34	-50.8	-83.9	74	8
2023-08-10T00:00	23580	34	-51.0	-84.0	75	8
2023-08-10T00:00	23605	34	-50.9	-84.0	76	7
2023-08-10T00:00	23636	34	-50.9	-84.0	78	7
2023-08-10T00:00	23656	34	-51.0	-84.0	78	6
2023-08-10T00:00	23687	33	-51.0	-84.0	79	6
2023-08-10T00:00	23710	33	-50.9	-84.0	78	6
2023-08-10T00:00	23738	33	-50.8	-83.9	76	5
2023-08-10T00:00	23764	33	-50.7	-83.8	72	5
2023-08-10T00:00	23792	33	-50.8	-83.9	66	5
2023-08-10T00:00	23816	33	-50.8	-83.9	62	6
2023-08-10T00:00	23843	33	-50.8	-83.9	61	6
2023-08-10T00:00	23870	33	-50.7	-83.8	62	6
2023-08-10T00:00	23899	32	-50.7	-83.8	65	6
2023-08-10T00:00	23926	32	-50.7	-83.8	69	6
2023-08-10T00:00	23950	32	-50.8	-83.9	73	6
2023-08-10T00:00	23976	32	-50.9	-84.0	77	6
2023-08-10T00:00	24000	32	-50.8	-83.9	80	7
2023-08-10T00:00	24028	32	-50.8	-83.9	83	7
2023-08-10T00:00	24049	32	-50.7	-83.8	86	7
2023-08-10T00:00	24076	32	-50.4	-83.6	88	7
2023-08-10T00:00	24100	31	-50.3	-84.3	90	7
2023-08-10T00:00	24126	31	-50.3	-84.3	92	6
2023-08-10T00:00	24153	31	-50.1	-84.2	93	6
2023-08-10T00:00	24180	31	-50.1	-83.4	95	6
2023-08-10T00:00	24201	31	-50.2	-83.5	96	5
2023-08-10T00:00	24227	31	-50.3	-83.5	97	5
2023-08-10T00:00	24256	31	-50.4	-83.6	95	5
2023-08-10T00:00	24280	31	-50.4	-83.6	92	5
2023-08-10T00:00	24306	30	-50.5	-83.7	87	5
2023-08-10T00:00	24333	30	-50.5	-83.7	82	5
2023-08-10T00:00	24362	30	-50.5	-83.7	78	4
2023-08-10T00:00	24383	30	-50.4	-83.6	75	4
2023-08-10T00:00	24403	30	-50.3	-83.5	74	4
2023-08-10T00:00	24442	30	-50.3	-83.5	73	4
2023-08-10T00:00	24460	30	-50.2	-83.5	70	4
2023-08-10T00:00	24494	30	-50.3	-83.5	67	4
2023-08-10T00:00	24515	29	-50.4	-83.6	63	4
2023-08-10T00:00	24543	29	-50.4	-83.6	59	4
2023-08-10T00:00	24575	29	-50.3	-83.5	56	4
2023-08-10T00:00	24593	29	-50.3	-84.3	53	4
2023-08-10T00:00	24621	29	-50.2	-84.2	52	4
2023-08-10T00:00	24651	29	-50.2	-84.2	53	5
2023-08-10T00:00	24682	29	-50.2	-84.2	56	5
2023-08-10T00:00	24708	29	-50.1	-84.2	60	6
2023-08-10T00:00	24728	29	-50.0	-84.1	65	6
2023-08-10T00:00	24763	28	-49.8	-84.0	71	6
2023-08-10T00:00	24788	28	-49.8	-84.0	75	7
2023-08-10T00:00	24818	28	-49.8	-84.0	79	7
2023-08-10T00:00	24847	28	-49.9	-84.0	80	7
2023-08-10T00:00	24868	28	-49.8	-84.0	80	7
2023-08-10T00:00	24902	28	-49.8	-84.0	79	7
2023-08-10T00:00	24930	28	-49.8	-84.0	76	7
2023-08-10T00:00	24958	28	-49.7	-83.9	74	7
2023-08-10T00:00	24983	27	-49.7	-83.9	71	7
2023-08-10T00:00	25012	27	-49.8	-84.0	69	7
2023-08-10T00:00	25042	27	-49.9	-84.0	68	8
2023-08-10T00:00	25066	27	-50.0	-84.1	67	8
2023-08-10T00:00	25096	27	-50.1	-84.2	67	9
2023-08-10T00:00	25124	27	-50.0	-84.1	67	9
2023-08-10T00:00	25159	27	-49.8	-84.0	68	10
2023-08-10T00:00	25184	27	-49.7	-83.9	70	10
2023-08-10T00:00	25207	27	-49.6	-83.8	72	11
2023-08-10T00:00	25233	26	-49.4	-83.7	76	11
2023-08-10T00:00	25254	26	-49.3	-83.6	79	12
2023-08-10T00:00	25296	26	-49.2	-83.5	83	12
2023-08-10T00:00	25325	26	-49.1	-83.4	86	13
2023-08-10T00:00	25343	26	-49.1	-83.4	88	13
2023-08-10T00:00	25374	26	-49.1	-83.4	90	13
2023-08-10T00:00	25399	26	-49.3	-83.6	91	13
2023-08-10T00:00	25433	26	-49.5	-83.7	93	13
2023-08-10T00:00	25455	26	-49.4	-83.7	94	13
2023-08-10T00:00	25489	25	-49.3	-83.6	95	13
2023-08-10T00:00	25507	25	-49.2	-83.5	96	12
2023-08-10T00:00	25537	25	-49.0	-83.4	98	11
2023-08-10T00:00	25562	25	-48.8	-83.2	99	10
2023-08-10T00:00	25593	25	-48.5	-83.9	102	10
2023-08-10T00:00	25614	25	-48.2	-83.7	104	9
2023-08-10T00:00	25646	25	-48.2	-83.7	107	8
2023-08-10T00:00	25666	25	-48.3	-83.8	110	8
2023-08-10T00:00	25699	25	-48.3	-83.8	112	7
2023-08-10T00:00	25719	25	-48.4	-83.8	112	7
2023-08-10T00:00	25748	24	-48.4	-83.8	111	7
2023-08-10T00:00	25778	24	-48.1	-83.6	108	7
2023-08-10T00:00	25806	24	-48.1	-83.6	105	8
2023-08-10T00:00	25832	24	-48.0	-83.6	102	8
2023-08-10T00:00	25855	24	-48.0	-83.6	100	8
2023-08-10T00:00	25889	24	-47.8	-83.4	98	8
2023-08-10T00:00	25914	24	-47.6	-83.3	97	8
2023-08-10T00:00	25947	24	-47.6	-83.3	96	9
2023-08-10T00:00	25975	24	-47.6	-83.3	95	9
2023-08-10T00:00	25995	24	-47.5	-83.2	94	9
2023-08-10T00:00	26024	23	-47.6	-83.3	92	8
2023-08-10T00:00	26057	23	-47.5	-83.2	91	8
2023-08-10T00:00	26083	23	-47.5	-83.2	89	8
2023-08-10T00:00	26113	23	-47.5	-83.2	88	8
2023-08-10T00:00	26142	23	-47.6	-83.3	86	7
2023-08-10T00:00	26159	23	-47.6	-83.3	85	7
2023-08-10T00:00	26192	23	-47.6	-83.3	83	7
2023-08-10T00:00	26227	23	-47.8	-83.4	80	6
2023-08-10T00:00	26261	23	-47.6	-83.3	76	6
2023-08-10T00:00	26283	23	-47.5	-83.2	73	7
2023-08-10T00:00	26314	22	-47.3	-83.1	70	7
2023-08-10T00:00	26346	22	-47.3	-83.1	70	7
2023-08-10T00:00	26373	22	-47.2	-83.0	71	7
2023-08-10T00:00	26409	22	-47.2	-83.0	74	7
2023-08-10T00:00	26433	22	-47.3	-83.1	78	6
2023-08-10T00:00	26459	22	-47.3	-83.1	84	6
2023-08-10T00:00	26483	22	-47.3	-83.1	90	6
2023-08-10T00:00	26518	22	-47.3	-83.1	96	6
2023-08-10T00:00	26549	22	-47.3	-83.1	102	6
2023-08-10T00:00	26581	22	-47.5	-83.2	107	6
2023-08-10T00:00	26611	21	-47.5	-83.2	111	7
2023-08-10T00:00	26639	21	-47.4	-83.1	114	7
2023-08-10T00:00	26674	21	-47.4	-83.1	116	8
2023-08-10T00:00	26709	21	-47.4	-83.1	117	9
2023-08-10T00:00	26728	21	-47.2	-83.0	116	10
2023-08-10T00:00	26757	21	-47.2	-83.0	115	10
2023-08-10T00:00	26794	21	-47.3	-83.1	113	10
2023-08-10T00:00	26821	21	-47.3	-83.1	111	10
2023-08-10T00:00	26851	21	-47.2	-83.0	109	10
2023-08-10T00:00	26885	21	-47.3	-83.1	107	9
2023-08-10T00:00	26912	20	-47.5	-83.2	106	9
2023-08-10T00:00	26947	20	-47.8	-83.4	105	9
2023-08-10T00:00	26981	20	-47.7	-83.4	105	8
2023-08-10T00:00	26999	20	-47.5	-83.2	104	8
2023-08-10T00:00	27029	20	-47.4	-83.1	103	7
2023-08-10T00:00	27060	20	-47.3	-83.1	101	6
2023-08-10T00:00	27084	20	-47.2	-83.0	99	6
2023-08-10T00:00	27114	20	-47.3	-83.1	97	6
2023-08-10T00:00	27141	20	-47.2	-83.0	95	6
2023-08-10T00:00	27178	20	-47.2	-83.0	94	7
2023-08-10T00:00	27196	20	-47.2	-83.0	91	7
2023-08-10T00:00	27229	20	-47.2	-83.0	89	7
2023-08-10T00:00	27268	19	-47.0	-82.9	87	7
2023-08-10T00:00	27294	19	-46.9	-82.8	85	7
2023-08-10T00:00	27318	19	-46.9	-82.8	86	7
2023-08-10T00:00	27349	19	-46.8	-82.7	87	8
2023-08-10T00:00	27377	19	-46.8	-82.7	89	8
2023-08-10T00:00	27401	19	-46.9	-82.8	91	8
2023-08-10T00:00	27427	19	-46.9	-82.8	93	9
2023-08-10T00:00	27457	19	-46.7	-82.6	95	9
2023-08-10T00:00	27483	19	-46.7	-82.6	95	9
2023-08-10T00:00	27507	19	-46.7	-82.6	96	9
2023-08-10T00:00	27535	19	-46.7	-82.6	96	9
2023-08-10T00:00	27563	19	-46.5	-82.5	95	9
2023-08-10T00:00	27595	18	-46.3	-82.4	94	9
2023-08-10T00:00	27613	18	-46.1	-82.2	93	8
2023-08-10T00:00	27641	18	-46.1	-82.2	93	8
2023-08-10T00:00	27676	18	-46.1	-82.2	93	8
2023-08-10T00:00	27705	18	-46.0	-82.1	95	7
2023-08-10T00:00	27727	18	-46.0	-82.1	99	7
2023-08-10T00:00	27755	18	-46.1	-82.2	104	7
2023-08-10T00:00	27778	18	-45.9	-82.1	110	8
2023-08-10T00:00	27800	18	-46.0	-82.1	116	8
2023-08-10T00:00	27839	18	-46.1	-82.2	121	8
2023-08-10T00:00	27864	18	-46.2	-82.3	125	9
2023-08-10T00:00	27900	18	-46.3	-82.4	128	9
2023-08-10T00:00	27909	18	-46.3	-82.4	130	9
2023-08-10T00:00	27945	18	-46.4	-82.4	131	10
2023-08-10T00:00	27965	17	-46.6	-82.6	131	9
2023-08-10T00:00	27997	17	-46.6	-82.6	131	9
2023-08-10T00:00	28024	17	-46.4	-82.4	130	9
2023-08-10T00:00	28058	17	-46.2	-83.4	129	9
2023-08-10T00:00	28068	17	-45.7	-83.0	126	8
2023-08-10T00:00	28113	17	-45.6	-82.9	120	7
2023-08-10T00:00	28115	17	-45.4	-82.8	113	7
2023-08-10T00:00	28161	17	-45.2	-82.7	105	6
2023-08-10T00:00	28188	17	-45.0	-82.5	97	6
2023-08-10T00:00	28217	17	-45.1	-82.6	90	6
2023-08-10T00:00	28243	17	-44.6	-82.2	83	6
2023-08-10T00:00	28263	17	-44.5	-82.2	77	6
2023-08-10T00:00	28297	17	-44.3	-82.0	72	6
2023-08-10T00:00	28321	17	-44.3	-82.0	68	5
2023-08-10T00:00	28357	17	-44.3	-82.0	66	5
2023-08-10T00:00	28380	16	-44.4	-82.1	66	5
2023-08-10T00:00	28398	16	-44.4	-82.1	66	6
2023-08-10T00:00	28432	16	-44.2	-82.0	68	6
2023-08-10T00:00	28452	16	-44.3	-82.0	69	6
2023-08-10T00:00	28477	16	-44.4	-82.1	70	6
2023-08-10T00:00	28516	16	-44.5	-82.2	70	7
2023-08-10T00:00	28539	16	-44.5	-82.2	70	7
2023-08-10T00:00	28568	16	-44.6	-82.2	71	8
2023-08-10T00:00	28593	16	-44.5	-82.2	73	8
2023-08-10T00:00	28627	16	-44.5	-82.2	75	9
2023-08-10T00:00	28658	16	-44.5	-82.2	77	9
2023-08-10T00:00	28680	16	-44.6	-82.2	80	9
2023-08-10T00:00	28704	16	-44.6	-82.2	82	9
2023-08-10T00:00	28721	16	-44.7	-82.3	84	9
2023-08-10T00:00	28750	16	-44.7	-82.3	86	9
2023-08-10T00:00	28782	15	-44.5	-82.2	87	9
2023-08-10T00:00	28819	15	-44.5	-82.2	88	9
2023-08-10T00:00	28843	15	-44.5	-82.2	88	9
2023-08-10T00:00	28867	15	-44.4	-82.1	87	9
2023-08-10T00:00	28902	15	-44.3	-82.0	87	9
2023-08-10T00:00	28918	15	-44.2	-82.0	88	9
2023-08-10T00:00	28949	15	-44.2	-82.0	89	9
2023-08-10T00:00	28973	15	-44.0	-81.8	91	9
2023-08-10T00:00	29008	15	-44.1	-81.9	95	8
2023-08-10T00:00	29032	15	-43.8	-81.7	100	8
2023-08-10T00:00	29050	15	-43.6	-81.5	106	7
2023-08-10T00:00	29092	15	-43.6	-81.5	113	7
2023-08-10T00:00	29105	15	-43.7	-81.6	119	7
2023-08-10T00:00	29140	15	-43.6	-81.5	122	7
2023-08-10T00:00	29170	15	-43.6	-81.5	122	7
2023-08-10T00:00	29188	15	-43.5	-81.5	119	7
2023-08-10T00:00	29220	15	-43.3	-81.3	114	7
2023-08-10T00:00	29250	14	-43.3	-81.3	109	7
2023-08-10T00:00	29278	14	-43.3	-81.3	105	8
2023-08-10T00:00	29305	14	-43.3	-81.3	103	8
2023-08-10T00:00	29337	14	-43.3	-81.3	103	8
2023-08-10T00:00	29363	14	-43.3	-81.3	104	8
2023-08-10T00:00	29392	14	-43.0	-81.1	107	8
2023-08-10T00:00	29409	14	-43.0	-81.1	110	7
2023-08-10T00:00	29443	14	-43.0	-81.1	112	7
2023-08-10T00:00	29456	14	-42.9	-81.1	113	6
2023-08-10T00:00	29492	14	-42.7	-80.9	114	6
2023-08-10T00:00	29518	14	-42.6	-80.8	115	5
2023-08-10T00:00	29549	14	-42.2	-80.6	115	4
2023-08-10T00:00	29570	14	-42.1	-80.5	113	3
2023-08-10T00:00	29601	14	-42.0	-80.4	106	3
2023-08-10T00:00	29623	14	-41.9	-80.4	95	3
2023-08-10T00:00	29658	14	-41.5	-80.1	85	3
2023-08-10T00:00	29685	14	-41.2	-79.9	81	4
2023-08-10T00:00	29695	13	-40.9	-79.7	81	5
2023-08-10T00:00	29736	13	-40.6	-79.5	82	6
2023-08-10T00:00	29754	13	-40.6	-79.5	84	6
2023-08-10T00:00	29780	13	-40.5	-79.4	86	6
2023-08-10T00:00	29811	13	-40.3	-79.2	87	6
2023-08-10T00:00	29841	13	-39.8	-78.9	88	5
2023-08-10T00:00	29873	13	-39.5	-78.7	89	5
2023-08-10T00:00	29885	13	-39.3	-78.5	90	5
2023-08-10T00:00	29914	13	-39.3	-78.5	90	6
2023-08-10T00:00	29940	13	-39.2	-78.5	91	6
2023-08-10T00:00	29961	13	-39.1	-78.4	92	6
2023-08-10T00:00	29998	13	-39.1	-78.4	94	6
2023-08-10T00:00	30022	13	-38.9	-78.3	96	6
2023-08-10T00:00	30057	13	-38.7	-78.1	99	5
2023-08-10T00:00	30088	13	-38.6	-78.1	103	5
2023-08-10T00:00	30121	13	-38.4	-77.9	107	4
2023-08-10T00:00	30136	13	-38.4	-77.9	111	4
2023-08-10T00:00	30161	13	-38.4	-77.9	115	3
2023-08-10T00:00	30184	13	-38.4	-77.9	117	3
2023-08-10T00:00	30229	13	-38.4	-77.9	119	4
2023-08-10T00:00	30255	12	-38.4	-77.9	120	4
2023-08-10T00:00	30281	12	-38.2	-77.8	122	4
2023-08-10T00:00	30324	12	-38.1	-77.7	124	5
2023-08-10T00:00	30342	12	-38.1	-77.7	127	5
2023-08-10T00:00	30385	12	-38.1	-77.7	130	5
2023-08-10T00:00	30400	12	-38.2	-77.8	134	5
2023-08-10T00:00	30435	12	-38.1	-77.7	138	5
2023-08-10T00:00	30452	12	-37.7	-77.4	142	4
2023-08-10T00:00	30493	12	-37.5	-77.3	145	4
2023-08-10T00:00	30514	12	-37.5	-77.3	146	4
2023-08-10T00:00	30556	12	-37.5	-77.3	146	4
2023-08-10T00:00	30581	12	-37.3	-77.2	145	4
2023-08-10T00:00	30618	12	-37.2	-77.1	145	4
2023-08-10T00:00	30643	12	-37.1	-77.0	146	4
2023-08-10T00:00	30674	12	-37.0	-77.0	148	4
2023-08-10T00:00	30716	12	-36.7	-76.7	151	4
2023-08-10T00:00	30736	12	-36.7	-76.7	155	3
2023-08-10T00:00	30767	12	-36.7	-76.7	158	2
2023-08-10T00:00	30795	12	-36.7	-76.7	162	1
2023-08-10T00:00	30821	11	-36.6	-76.7	177	0
2023-08-10T00:00	30833	11	-36.6	-76.7	331	1
2023-08-10T00:00	30859	11	-36.7	-76.7	340	1
2023-08-10T00:00	30917	11	-36.7	-76.7	346	2
2023-08-10T00:00	30929	11	-36.7	-76.7	355	2
2023-08-10T00:00	30946	11	-36.8	-76.8	8	3
2023-08-10T00:00	30986	11	-36.9	-76.9	22	3
2023-08-10T00:00	31017	11	-36.8	-76.8	34	4
2023-08-10T00:00	31056	11	-36.9	-76.9	42	4
2023-08-10T00:00	31068	11	-36.9	-76.9	46	5
2023-08-10T00:00	31082	11	-36.8	-76.8	48	6
2023-08-10T00:00	31131	11	-36.8	-76.8	48	7
2023-08-10T00:00	31154	11	-36.9	-76.9	49	7
2023-08-10T00:00	31181	11	-36.8	-76.8	49	8
2023-08-10T00:00	31211	11	-36.9	-76.9	51	8
2023-08-10T00:00	31241	11	-37.0	-77.0	54	8
2023-08-10T00:00	31279	11	-37.2	-77.1	59	8
2023-08-10T00:00	31316	11	-37.3	-77.2	64	9
2023-08-10T00:00	31328	11	-37.3	-77.2	71	9
2023-08-10T00:00	31350	11	-37.4	-77.2	77	9
2023-08-10T00:00	31386	11	-37.4	-77.2	84	9
2023-08-10T00:00	31403	11	-37.4	-77.2	89	9
2023-08-10T00:00	31455	11	-37.5	-77.3	93	9
2023-08-10T00:00	31500	10	-37.4	-77.2	96	9
2023-08-10T00:00	31517	10	-37.4	-77.2	95	8
2023-08-10T00:00	31552	10	-37.3	-77.2	93	8
2023-08-10T00:00	31579	10	-37.2	-77.1	90	8
2023-08-10T00:00	31610	10	-37.2	-77.1	87	8
2023-08-10T00:00	31640	10	-37.0	-77.0	84	8
2023-08-10T00:00	31665	10	-36.8	-76.8	82	9
2023-08-10T00:00	31672	10	-36.8	-76.8	81	9
2023-08-10T00:00	31714	10	-36.7	-76.7	80	9
2023-08-10T00:00	31745	10	-36.6	-76.7	80	9
2023-08-10T00:00	31769	10	-36.7	-76.7	81	10
2023-08-10T00:00	31791	10	-36.7	-76.7	83	10
2023-08-10T00:00	31819	10	-36.7	-76.7	85	10
2023-08-10T00:00	31868	10	-36.8	-76.8	87	11
2023-08-10T00:00	31883	10	-36.9	-76.9	90	11
2023-08-10T00:00	31902	10	-36.9	-76.9	92	11
2023-08-10T00:00	31950	10	-37.0	-77.0	94	11
2023-08-10T00:00	31971	10	-37.1	-77.0	95	11
2023-08-10T00:00	32010	10	-37.1	-77.0	96	11
2023-08-10T00:00	32071	10	-37.0	-77.0	95	11
2023-08-10T00:00	32096	10	-37.1	-77.0	94	11
2023-08-10T00:00	32115	10	-37.1	-77.0	93	10
2023-08-10T00:00	32142	9	-37.2	-77.1	91	10
2023-08-10T00:00	32164	9	-37.1	-77.0	90	10
2023-08-10T00:00	32201	9	-37.2	-77.1	89	9
2023-08-10T00:00	32241	9	-37.2	-77.1	88	9
2023-08-10T00:00	32250	9	-37.3	-77.2	88	9
2023-08-10T00:00	32266	9	-37.5	-77.3	89	9
2023-08-10T00:00	32313	9	-37.6	-77.4	91	9
2023-08-10T00:00	32334	9	-37.6	-77.4	94	9
2023-08-10T00:00	32364	9	-37.7	-77.4	97	9
2023-08-10T00:00	32395	9	-37.8	-77.5	102	9
2023-08-10T00:00	32433	9	-37.8	-77.5	103	9
2023-08-10T00:00	32467	9	-37.5	-77.3	102	9
2023-08-10T00:00	32485	9	-37.4	-77.2	99	9
2023-08-10T00:00	32523	9	-37.2	-77.1	96	9
2023-08-10T00:00	32544	9	-37.3	-77.2	93	9
2023-08-10T00:00	32575	9	-37.3	-77.2	89	9
2023-08-10T00:00	32586	9	-37.3	-77.2	87	9
2023-08-10T00:00	32629	9	-37.4	-77.2	86	9
2023-08-10T00:00	32634	9	-37.2	-77.1	88	10
2023-08-10T00:00	32681	9	-37.1	-77.0	90	10
2023-08-10T00:00	32700	9	-36.9	-76.9	93	11
2023-08-10T00:00	32735	9	-37.1	-77.0	97	11
2023-08-10T00:00	32756	9	-37.2	-77.1	100	12
2023-08-10T00:00	32784	9	-37.4	-77.2	102	13
2023-08-10T00:00	32818	9	-37.3	-77.2	104	13
2023-08-10T00:00	32836	9	-37.5	-77.3	105	13
2023-08-10T00:00	32864	9	-37.3	-77.2	106	13
2023-08-10T00:00	32875	9	-36.8	-76.8	106	12
2023-08-10T00:00	32926	8	-36.5	-76.6	106	11
2023-08-10T00:00	32954	8	-36.4	-76.5	105	10
2023-08-10T00:00	32987	8	-36.2	-76.4	103	9
2023-08-10T00:00	33016	8	-36.1	-76.3	99	9
2023-08-10T00:00	33030	8	-35.9	-76.2	94	9
2023-08-10T00:00	33064	8	-35.8	-76.1	89	9
2023-08-10T00:00	33079	8	-35.8	-76.1	84	9
2023-08-10T00:00	33114	8	-35.8	-76.1	81	10
2023-08-10T00:00	33185	8	-35.6	-76.0	81	11
2023-08-10T00:00	33215	8	-34.9	-75.5	86	12
2023-08-10T00:00	33227	8	-34.7	-75.4	88	12
2023-08-10T00:00	33267	8	-34.6	-75.3	90	13
2023-08-10T00:00	33307	8	-34.7	-75.4	91	12
2023-08-10T00:00	33338	8	-34.7	-75.4	91	12
2023-08-10T00:00	33386	8	-34.7	-75.4	90	11
2023-08-10T00:00	33403	8	-34.7	-75.4	88	11
2023-08-10T00:00	33440	8	-34.8	-75.4	86	11
2023-08-10T00:00	33468	8	-34.8	-75.4	83	11
2023-08-10T00:00	33496	8	-34.7	-75.4	82	11
2023-08-10T00:00	33520	8	-34.5	-75.2	81	11
2023-08-10T00:00	33574	8	-34.5	-75.2	81	12
2023-08-10T00:00	33594	8	-34.6	-75.3	83	13
2023-08-10T00:00	33598	8	-34.5	-75.2	85	14
2023-08-10T00:00	33673	8	-34.5	-75.2	88	14
2023-08-10T00:00	33701	8	-34.6	-75.3	91	15
2023-08-10T00:00	33737	8	-34.7	-75.4	94	15
2023-08-10T00:00	33777	8	-34.9	-75.5	97	16
2023-08-10T00:00	33800	7	-35.0	-75.6	99	16
2023-08-10T00:00	33822	7	-35.2	-75.7	102	17
2023-08-10T00:00	33859	7	-35.4	-75.8	104	17
2023-08-10T00:00	33894	7	-35.5	-75.9	106	17
2023-08-10T00:00	33922	7	-35.6	-76.0	107	17
2023-08-10T00:00	33970	7	-35.6	-76.0	108	17
2023-08-10T06:00	113	1007	12.4	10.9	326	2
2023-08-10T06:00	139	1004	12.2	10.7	325	2
2023-08-10T06:00	167	1001	13.3	8.6	319	2
2023-08-10T06:00	187	998	13.5	8.3	313	2
2023-08-10T06:00	210	995	13.6	8.2	310	3
2023-08-10T06:00	230	993	13.6	8.1	310	3
2023-08-10T06:00	247	991	13.8	7.9	312	3
2023-08-10T06:00	276	988	13.7	7.7	315	3
2023-08-10T06:00	296	985	13.6	7.6	317	2
2023-08-10T06:00	320	982	13.4	7.9	315	2
2023-08-10T06:00	335	981	13.3	8.1	309	2
2023-08-10T06:00	350	979	13.1	7.8	305	2
2023-08-10T06:00	368	977	13.2	8.3	305	2
2023-08-10T06:00	387	974	13.1	8.0	310	2
2023-08-10T06:00	410	972	13.0	7.8	317	2
2023-08-10T06:00	434	969	12.8	8.0	323	2
2023-08-10T06:00	455	966	12.6	8.0	327	2
2023-08-10T06:00	482	964	12.5	8.2	325	2
2023-08-10T06:00	504	961	12.3	8.1	316	1
2023-08-10T06:00	527	958	12.2	7.9	302	1
2023-08-10T06:00	548	956	12.1	7.8	289	1
2023-08-10T06:00	568	954	12.0	7.1	278	2
2023-08-10T06:00	589	951	11.9	7.0	270	2
2023-08-10T06:00	609	949	11.7	6.9	261	2
2023-08-10T06:00	633	947	11.5	6.8	252	2
2023-08-10T06:00	654	944	11.3	6.8	246	2
2023-08-10T06:00	677	941	11.1	6.7	242	3
2023-08-10T06:00	699	939	11.3	6.7	242	3
2023-08-10T06:00	727	936	11.4	6.2	242	4
2023-08-10T06:00	750	933	11.4	6.0	242	5
2023-08-10T06:00	773	931	11.4	5.9	242	5
2023-08-10T06:00	796	928	11.4	5.5	241	6
2023-08-10T06:00	816	926	11.3	5.5	239	6
2023-08-10T06:00	838	923	11.2	5.4	237	6
2023-08-10T06:00	859	921	11.0	5.3	235	6
2023-08-10T06:00	885	918	10.8	5.2	233	6
2023-08-10T06:00	906	916	10.7	5.2	231	7
2023-08-10T06:00	932	913	10.5	5.1	230	7
2023-08-10T06:00	953	911	10.3	5.0	230	7
2023-08-10T06:00	972	909	10.1	5.0	231	7
2023-08-10T06:00	992	907	10.1	4.7	233	8
2023-08-10T06:00	1013	904	9.9	4.8	235	8
2023-08-10T06:00	1033	902	9.7	4.8	238	8
2023-08-10T06:00	1057	899	9.5	4.7	240	8
2023-08-10T06:00	1077	897	9.3	4.8	242	8
2023-08-10T06:00	1100	895	9.2	4.8	242	7
2023-08-10T06:00	1122	893	9.0	4.9	242	8
2023-08-10T06:00	1140	890	8.8	4.8	240	8
2023-08-10T06:00	1160	888	8.7	5.0	239	8
2023-08-10T06:00	1178	886	8.5	4.9	240	9
2023-08-10T06:00	1198	884	8.3	4.9	243	9
2023-08-10T06:00	1226	881	8.0	4.8	246	9
2023-08-10T06:00	1254	878	7.8	5.0	249	9
2023-08-10T06:00	1278	876	7.6	5.1	252	9
2023-08-10T06:00	1302	873	7.3	5.0	254	9
2023-08-10T06:00	1324	871	7.2	5.1	255	9
2023-08-10T06:00	1347	869	7.0	4.7	256	9
2023-08-10T06:00	1367	866	6.9	4.4	257	9
2023-08-10T06:00	1388	864	6.7	4.2	257	9
2023-08-10T06:00	1414	862	6.5	4.0	257	9
2023-08-10T06:00	1434	859	6.3	3.9	256	9
2023-08-10T06:00	1449	858	6.2	3.8	255	9
2023-08-10T06:00	1470	856	6.0	3.7	253	10
2023-08-10T06:00	1493	853	5.8	3.6	253	10
2023-08-10T06:00	1514	851	5.6	3.5	253	10
2023-08-10T06:00	1534	849	5.4	3.5	254	10
2023-08-10T06:00	1557	847	5.2	3.3	254	10
2023-08-10T06:00	1577	844	5.0	3.3	256	10
2023-08-10T06:00	1598	842	4.8	3.1	257	10
2023-08-10T06:00	1618	840	4.6	3.1	258	10
2023-08-10T06:00	1638	838	4.5	2.9	258	10
2023-08-10T06:00	1659	836	4.3	2.8	257	10
2023-08-10T06:00	1680	834	4.2	2.6	256	11
2023-08-10T06:00	1703	832	4.0	2.4	254	11
2023-08-10T06:00	1724	829	3.8	2.3	253	11
2023-08-10T06:00	1740	828	3.7	2.4	254	11
2023-08-10T06:00	1766	825	3.4	2.2	254	11
2023-08-10T06:00	1788	823	3.2	2.1	256	11
2023-08-10T06:00	1807	821	3.1	1.9	257	11
2023-08-10T06:00	1835	818	2.8	1.6	258	11
2023-08-10T06:00	1857	816	2.6	1.7	258	11
2023-08-10T06:00	1882	813	2.4	1.6	259	11
2023-08-10T06:00	1910	811	2.2	1.5	259	10
2023-08-10T06:00	1935	808	2.0	1.5	259	11
2023-08-10T06:00	1960	806	1.8	1.3	260	11
2023-08-10T06:00	1983	803	1.6	1.2	261	11
2023-08-10T06:00	2003	801	1.4	1.0	261	12
2023-08-10T06:00	2023	799	1.3	0.9	260	13
2023-08-10T06:00	2045	797	1.1	0.8	259	13
2023-08-10T06:00	2064	795	0.9	0.8	258	13
2023-08-10T06:00	2094	792	0.6	0.4	258	13
2023-08-10T06:00	2114	790	0.4	0.3	259	13
2023-08-10T06:00	2139	788	0.3	0.0	260	13
2023-08-10T06:00	2164	785	0.2	-0.9	262	13
2023-08-10T06:00	2188	783	0.1	-1.6	264	13
2023-08-10T06:00	2210	781	-0.1	-2.0	266	13
2023-08-10T06:00	2236	778	-0.3	-2.1	267	13
2023-08-10T06:00	2259	776	-0.5	-2.5	267	13
2023-08-10T06:00	2284	774	-0.7	-3.0	267	13
2023-08-10T06:00	2310	771	-0.9	-3.2	267	12
2023-08-10T06:00	2333	769	-1.1	-3.2	266	12
2023-08-10T06:00	2361	766	-1.4	-3.4	264	11
2023-08-10T06:00	2393	763	-1.6	-3.1	264	11
2023-08-10T06:00	2419	761	-1.8	-2.9	263	10
2023-08-10T06:00	2445	758	-2.0	-2.9	264	10
2023-08-10T06:00	2471	756	-2.1	-3.0	264	10
2023-08-10T06:00	2498	753	-2.5	-3.2	264	9
2023-08-10T06:00	2522	751	-2.7	-3.1	265	9
2023-08-10T06:00	2547	749	-2.9	-3.3	265	9
2023-08-10T06:00	2571	746	-3.2	-3.3	266	9
2023-08-10T06:00	2596	744	-3.4	-3.6	267	9
2023-08-10T06:00	2618	742	-3.5	-4.0	269	9
2023-08-10T06:00	2642	740	-3.5	-5.0	272	9
2023-08-10T06:00	2669	737	-3.5	-5.5	275	9
2023-08-10T06:00	2700	734	-2.9	-9.0	279	9
2023-08-10T06:00	2726	732	-3.2	-9.2	282	9
2023-08-10T06:00	2752	729	-3.2	-10.4	284	9
2023-08-10T06:00	2777	727	-2.2	-20.2	285	10
2023-08-10T06:00	2799	725	-2.0	-21.1	286	10
2023-08-10T06:00	2824	723	-2.0	-22.4	286	10
2023-08-10T06:00	2856	720	-2.0	-22.1	287	10
2023-08-10T06:00	2882	718	-2.0	-22.2	289	10
2023-08-10T06:00	2907	715	-2.2	-22.3	291	10
2023-08-10T06:00	2933	713	-2.4	-22.4	294	10
2023-08-10T06:00	2953	711	-2.5	-22.3	298	9
2023-08-10T06:00	2979	709	-2.6	-21.9	302	9
2023-08-10T06:00	2996	707	-2.7	-21.7	305	9
2023-08-10T06:00	3020	705	-2.7	-23.3	307	9
2023-08-10T06:00	3049	703	-2.8	-23.8	307	8
2023-08-10T06:00	3067	701	-2.9	-23.8	306	8
2023-08-10T06:00	3095	699	-3.0	-23.8	304	8
2023-08-10T06:00	3116	697	-3.2	-24.0	302	7
2023-08-10T06:00	3135	695	-3.3	-24.2	301	7
2023-08-10T06:00	3156	693	-3.4	-24.1	300	7
2023-08-10T06:00	3174	692	-3.5	-24.2	301	7
2023-08-10T06:00	3197	690	-3.6	-25.1	303	7
2023-08-10T06:00	3220	688	-3.8	-26.1	305	7
2023-08-10T06:00	3240	686	-3.9	-26.3	307	7
2023-08-10T06:00	3264	684	-4.0	-26.8	309	7
2023-08-10T06:00	3290	682	-4.1	-26.7	310	7
2023-08-10T06:00	3317	679	-4.3	-27.1	310	7
2023-08-10T06:00	3339	677	-4.4	-27.0	308	6
2023-08-10T06:00	3356	676	-4.5	-26.7	304	6
2023-08-10T06:00	3392	673	-4.8	-26.6	300	6
2023-08-10T06:00	3413	671	-4.9	-26.3	297	6
2023-08-10T06:00	3434	669	-5.0	-25.7	295	7
2023-08-10T06:00	3458	667	-5.1	-25.5	293	6
2023-08-10T06:00	3484	665	-5.3	-26.8	291	6
2023-08-10T06:00	3506	663	-5.3	-25.7	288	6
2023-08-10T06:00	3532	661	-5.3	-27.5	284	6
2023-08-10T06:00	3559	659	-5.3	-29.1	280	6
2023-08-10T06:00	3587	656	-5.4	-27.4	278	5
2023-08-10T06:00	3611	654	-5.5	-27.0	278	5
2023-08-10T06:00	3633	652	-5.6	-27.2	279	5
2023-08-10T06:00	3652	651	-5.8	-26.6	279	5
2023-08-10T06:00	3679	649	-5.9	-26.6	280	6
2023-08-10T06:00	3702	647	-6.0	-26.4	280	6
2023-08-10T06:00	3719	645	-6.2	-26.4	281	6
2023-08-10T06:00	3739	644	-6.3	-26.7	283	6
2023-08-10T06:00	3758	642	-6.4	-26.4	284	6
2023-08-10T06:00	3783	640	-6.6	-26.2	285	7
2023-08-10T06:00	3805	638	-6.7	-25.6	286	7
2023-08-10T06:00	3826	637	-6.9	-24.6	287	7
2023-08-10T06:00	3845	635	-7.1	-24.2	288	8
2023-08-10T06:00	3871	633	-7.3	-24.4	289	8
2023-08-10T06:00	3900	631	-7.4	-24.7	291	8
2023-08-10T06:00	3919	629	-7.6	-24.6	291	9
2023-08-10T06:00	3944	627	-7.7	-24.4	291	9
2023-08-10T06:00	3967	625	-7.9	-24.5	290	9
2023-08-10T06:00	3992	623	-8.1	-24.5	289	9
2023-08-10T06:00	4019	621	-8.4	-24.8	288	9
2023-08-10T06:00	4037	619	-8.5	-24.9	289	9
2023-08-10T06:00	4057	618	-8.7	-25.6	290	9
2023-08-10T06:00	4076	616	-8.8	-26.3	291	9
2023-08-10T06:00	4096	615	-8.9	-26.7	292	8
2023-08-10T06:00	4117	613	-9.0	-26.0	293	8
2023-08-10T06:00	4139	611	-9.1	-26.4	295	8
2023-08-10T06:00	4160	610	-8.8	-32.0	297	8
2023-08-10T06:00	4185	608	-8.6	-37.8	299	8
2023-08-10T06:00	4220	605	-8.7	-39.4	300	8
2023-08-10T06:00	4252	603	-8.7	-40.6	299	8
2023-08-10T06:00	4280	600	-8.6	-41.2	297	8
2023-08-10T06:00	4310	598	-8.7	-40.9	295	8
2023-08-10T06:00	4329	596	-8.8	-40.7	292	8
2023-08-10T06:00	4348	595	-8.7	-40.2	290	7
2023-08-10T06:00	4367	594	-8.8	-39.9	290	7
2023-08-10T06:00	4386	592	-9.0	-39.7	289	7
2023-08-10T06:00	4406	591	-9.1	-39.6	289	6
2023-08-10T06:00	4426	589	-9.2	-39.6	287	6
2023-08-10T06:00	4449	587	-9.0	-39.1	285	6
2023-08-10T06:00	4477	585	-9.2	-39.3	283	5
2023-08-10T06:00	4504	583	-9.3	-39.5	283	5
2023-08-10T06:00	4531	581	-9.3	-39.9	285	5
2023-08-10T06:00	4549	580	-9.3	-40.1	288	5
2023-08-10T06:00	4568	578	-9.3	-42.0	292	5
2023-08-10T06:00	4587	577	-9.3	-41.8	295	5
2023-08-10T06:00	4607	575	-9.4	-42.6	296	5
2023-08-10T06:00	4632	574	-9.4	-43.3	297	4
2023-08-10T06:00	4655	572	-9.6	-43.7	298	4
2023-08-10T06:00	4687	570	-9.9	-41.1	301	4
2023-08-10T06:00	4705	568	-10.0	-32.3	305	4
2023-08-10T06:00	4721	567	-10.2	-33.9	309	4
2023-08-10T06:00	4740	566	-10.3	-22.3	313	4
2023-08-10T06:00	4758	564	-10.3	-25.2	314	4
2023-08-10T06:00	4777	563	-10.4	-32.0	314	4
2023-08-10T06:00	4800	561	-10.5	-41.8	313	5
2023-08-10T06:00	4827	559	-10.6	-41.3	310	5
2023-08-10T06:00	4855	557	-10.7	-39.3	308	5
2023-08-10T06:00	4880	555	-10.8	-42.9	305	6
2023-08-10T06:00	4900	554	-10.8	-42.9	303	6
2023-08-10T06:00	4923	552	-10.7	-37.6	303	6
2023-08-10T06:00	4949	551	-10.6	-33.6	303	7
2023-08-10T06:00	4973	549	-10.1	-22.8	305	7
2023-08-10T06:00	4999	547	-9.9	-18.1	308	7
2023-08-10T06:00	5029	545	-9.8	-14.0	311	7
2023-08-10T06:00	5047	543	-9.9	-13.3	313	7
2023-08-10T06:00	5070	542	-9.9	-13.0	314	8
2023-08-10T06:00	5091	540	-10.0	-13.3	315	8
2023-08-10T06:00	5113	539	-10.1	-13.3	315	8
2023-08-10T06:00	5134	537	-10.2	-13.3	316	9
2023-08-10T06:00	5154	536	-10.3	-13.4	316	9
2023-08-10T06:00	5180	534	-10.3	-13.6	316	9
2023-08-10T06:00	5204	532	-10.3	-13.6	315	9
2023-08-10T06:00	5233	531	-10.5	-13.8	313	9
2023-08-10T06:00	5258	529	-10.6	-13.9	310	9
2023-08-10T06:00	5286	527	-10.6	-14.7	308	10
2023-08-10T06:00	5311	525	-10.6	-14.8	308	10
2023-08-10T06:00	5332	524	-10.7	-14.8	309	11
2023-08-10T06:00	5350	523	-10.7	-15.2	310	11
2023-08-10T06:00	5369	521	-10.7	-15.5	312	11
2023-08-10T06:00	5390	520	-10.6	-16.0	313	12
2023-08-10T06:00	5406	519	-10.7	-16.2	314	12
2023-08-10T06:00	5425	517	-10.8	-16.3	314	12
2023-08-10T06:00	5447	516	-11.0	-16.3	314	12
2023-08-10T06:00	5465	515	-11.1	-16.4	314	12
2023-08-10T06:00	5484	514	-11.3	-16.5	314	12
2023-08-10T06:00	5503	512	-11.3	-17.1	313	12
2023-08-10T06:00	5523	511	-11.3	-17.2	313	12
2023-08-10T06:00	5543	510	-11.3	-18.3	312	12
2023-08-10T06:00	5567	508	-11.4	-18.5	311	12
2023-08-10T06:00	5595	506	-11.7	-18.9	310	12
2023-08-10T06:00	5622	504	-11.9	-18.9	309	13
2023-08-10T06:00	5649	503	-12.2	-18.6	308	13
2023-08-10T06:00	5676	501	-12.3	-19.2	308	13
2023-08-10T06:00	5703	499	-12.5	-19.5	307	13
2023-08-10T06:00	5733	497	-12.7	-19.6	307	13
2023-08-10T06:00	5757	495	-12.8	-19.8	308	12
2023-08-10T06:00	5785	494	-12.9	-20.1	309	12
2023-08-10T06:00	5813	492	-13.1	-20.3	311	11
2023-08-10T06:00	5834	491	-13.3	-21.2	314	11
2023-08-10T06:00	5857	489	-13.4	-21.4	316	11
2023-08-10T06:00	5876	488	-13.5	-21.5	317	11
2023-08-10T06:00	5894	487	-13.7	-21.6	318	11
2023-08-10T06:00	5914	485	-13.8	-21.6	317	11
2023-08-10T06:00	5932	484	-14.0	-21.9	317	11
2023-08-10T06:00	5950	483	-14.1	-22.2	317	11
2023-08-10T06:00	5967	482	-14.2	-22.3	317	11
2023-08-10T06:00	5987	481	-14.4	-22.6	318	11
2023-08-10T06:00	6007	479	-14.5	-22.6	318	10
2023-08-10T06:00	6026	478	-14.7	-22.7	318	10
2023-08-10T06:00	6044	477	-14.8	-22.7	318	10
2023-08-10T06:00	6062	476	-15.0	-22.8	318	10
2023-08-10T06:00	6080	475	-15.1	-22.7	318	10
2023-08-10T06:00	6100	474	-15.3	-22.6	318	10
2023-08-10T06:00	6119	472	-15.5	-22.1	318	10
2023-08-10T06:00	6138	471	-15.6	-22.4	318	10
2023-08-10T06:00	6155	470	-15.7	-23.0	319	10
2023-08-10T06:00	6173	469	-15.9	-23.1	318	10
2023-08-10T06:00	6192	468	-16.0	-22.8	318	10
2023-08-10T06:00	6212	467	-16.2	-23.0	317	10
2023-08-10T06:00	6231	466	-16.3	-23.3	317	10
2023-08-10T06:00	6247	464	-16.4	-23.4	316	10
2023-08-10T06:00	6266	463	-16.6	-23.6	315	10
2023-08-10T06:00	6285	462	-16.7	-23.7	315	10
2023-08-10T06:00	6301	461	-16.9	-23.9	314	11
2023-08-10T06:00	6320	460	-17.0	-24.0	314	11
2023-08-10T06:00	6338	459	-17.2	-24.2	314	11
2023-08-10T06:00	6356	458	-17.3	-24.5	315	12
2023-08-10T06:00	6379	456	-17.4	-24.7	316	12
2023-08-10T06:00	6403	455	-17.6	-25.2	317	13
2023-08-10T06:00	6427	453	-17.7	-25.6	319	14
2023-08-10T06:00	6455	452	-17.9	-26.1	321	14
2023-08-10T06:00	6477	450	-17.9	-26.7	323	15
2023-08-10T06:00	6500	449	-18.0	-27.0	324	15
2023-08-10T06:00	6527	447	-18.1	-27.6	326	15
2023-08-10T06:00	6556	446	-18.3	-28.3	327	15
2023-08-10T06:00	6580	444	-18.4	-28.7	328	15
2023-08-10T06:00	6613	442	-18.5	-28.8	330	15
2023-08-10T06:00	6639	441	-18.7	-29.0	331	15
2023-08-10T06:00	6658	440	-18.9	-29.1	332	15
2023-08-10T06:00	6679	438	-19.0	-29.3	334	15
2023-08-10T06:00	6709	437	-19.2	-29.6	336	15
2023-08-10T06:00	6738	435	-19.4	-29.9	339	15
2023-08-10T06:00	6764	433	-19.6	-30.3	341	16
2023-08-10T06:00	6792	432	-19.6	-31.5	342	16
2023-08-10T06:00	6818	430	-19.7	-32.2	341	17
2023-08-10T06:00	6844	429	-19.8	-32.6	340	17
2023-08-10T06:00	6871	427	-19.8		338	18
2023-08-10T06:00	6894	426	-19.7	-34.7	337	19
2023-08-10T06:00	6924	424	-19.8	-35.3	335	19
2023-08-10T06:00	6948	423	-19.8	-35.4	334	20
2023-08-10T06:00	6972	421	-19.9	-35.9	334	20
2023-08-10T06:00	6995	420	-20.0	-36.6	333	21
2023-08-10T06:00	7020	419	-20.1	-37.0	333	21
2023-08-10T06:00	7046	417	-20.3	-37.6	333	21
2023-08-10T06:00	7070	416	-20.4	-38.0	333	21
2023-08-10T06:00	7092	415	-20.6	-38.6	332	21
2023-08-10T06:00	7122	413	-20.8	-38.6	332	21
2023-08-10T06:00	7151	411	-21.0	-38.6	332	22
2023-08-10T06:00	7176	410	-21.2	-38.7	331	22
2023-08-10T06:00	7201	409	-21.4	-38.9	331	21
2023-08-10T06:00	7224	407	-21.6	-39.0	332	21
2023-08-10T06:00	7246	406	-21.9	-39.2	332	21
2023-08-10T06:00	7274	405	-22.0	-40.2	334	21
2023-08-10T06:00	7302	403	-22.1	-41.4	335	22
2023-08-10T06:00	7334	401	-22.3	-42.2	336	22
2023-08-10T06:00	7359	400	-22.5	-41.2	336	22
2023-08-10T06:00	7384	399	-22.6	-42.4	336	22
2023-08-10T06:00	7408	397	-22.8	-43.2	336	23
2023-08-10T06:00	7437	396	-23.0	-44.2	336	23
2023-08-10T06:00	7463	394	-23.1	-45.4	336	23
2023-08-10T06:00	7488	393	-23.3	-46.1	336	23
2023-08-10T06:00	7512	392	-23.5	-45.1	336	23
2023-08-10T06:00	7540	390	-23.7	-43.8	335	23
2023-08-10T06:00	7563	389	-23.9	-42.7	335	23
2023-08-10T06:00	7584	388	-24.1	-42.7	335	23
2023-08-10T06:00	7609	386	-24.3	-43.3	334	23
2023-08-10T06:00	7631	385	-24.5	-44.1	333	24
2023-08-10T06:00	7656	384	-24.7	-45.4	333	24
2023-08-10T06:00	7683	383	-24.9	-43.5	332	24
2023-08-10T06:00	7712	381	-25.2	-42.8	331	24
2023-08-10T06:00	7741	380	-25.4	-42.2	331	25
2023-08-10T06:00	7767	378	-25.7	-42.4	331	25
2023-08-10T06:00	7795	377	-26.0	-42.5	332	25
2023-08-10T06:00	7822	375	-26.2	-42.8	333	25
2023-08-10T06:00	7846	374	-26.3	-43.7	334	25
2023-08-10T06:00	7874	373	-26.5	-44.2	335	25
2023-08-10T06:00	7904	371	-26.7	-45.0	337	25
2023-08-10T06:00	7930	370	-26.8	-46.2	338	26
2023-08-10T06:00	7962	368	-27.0	-47.9	340	27
2023-08-10T06:00	7991	367	-27.0	-47.7	341	27
2023-08-10T06:00	8015	365	-27.0	-48.2	342	28
2023-08-10T06:00	8042	364	-27.1	-47.9	343	29
2023-08-10T06:00	8071	363	-27.3	-47.0	344	29
2023-08-10T06:00	8099	361	-27.4	-47.9	345	30
2023-08-10T06:00	8127	360	-27.3	-47.9	345	31
2023-08-10T06:00	8152	359	-27.4	-47.8	346	31
2023-08-10T06:00	8177	357	-27.6	-47.7	346	31
2023-08-10T06:00	8200	356	-27.7	-47.3	346	32
2023-08-10T06:00	8230	355	-27.9	-47.0	346	32
2023-08-10T06:00	8253	353	-28.1	-46.5	346	33
2023-08-10T06:00	8275	352	-28.2	-46.4	346	34
2023-08-10T06:00	8296	351	-28.4	-46.0	347	34
2023-08-10T06:00	8320	350	-28.5	-45.7	347	35
2023-08-10T06:00	8342	349	-28.7	-45.4	347	35
2023-08-10T06:00	8365	348	-28.8	-45.2	347	36
2023-08-10T06:00	8389	347	-29.0	-44.9	347	36
2023-08-10T06:00	8413	346	-29.2	-44.7	347	37
2023-08-10T06:00	8439	344	-29.3	-44.1	348	37
2023-08-10T06:00	8463	343	-29.5	-44.0	348	38
2023-08-10T06:00	8484	342	-29.6	-43.6	348	38
2023-08-10T06:00	8507	341	-29.8	-43.1	348	39
2023-08-10T06:00	8537	340	-30.0	-43.0	348	39
2023-08-10T06:00	8561	339	-30.1	-43.1	348	40
2023-08-10T06:00	8585	337	-30.3		347	40
2023-08-10T06:00	8610	336	-30.5	-42.6	347	40
2023-08-10T06:00	8636	335	-30.7	-42.8	347	41
2023-08-10T06:00	8655	334	-30.9	-42.8	347	41
2023-08-10T06:00	8674	333	-31.0	-42.7	347	41
2023-08-10T06:00	8692	332	-31.2	-42.8	347	41
2023-08-10T06:00	8712	331	-31.4	-42.8	347	41
2023-08-10T06:00	8732	331	-31.5	-42.9	347	41
2023-08-10T06:00	8750	330	-31.7	-43.0	347	41
2023-08-10T06:00	8771	329	-31.8	-42.7	347	41
2023-08-10T06:00	8789	328	-32.0	-42.9	347	41
2023-08-10T06:00	8807	327	-32.1	-42.4	347	41
2023-08-10T06:00	8825	326	-32.2	-42.3	347	41
2023-08-10T06:00	8843	325	-32.4	-42.5	347	41
2023-08-10T06:00	8861	325	-32.5	-42.7	347	41
2023-08-10T06:00	8880	324	-32.7	-42.8	346	41
2023-08-10T06:00	8898	323	-32.8	-43.1	345	41
2023-08-10T06:00	8918	322	-32.9	-43.6	345	41
2023-08-10T06:00	8938	321	-33.0	-43.5	344	41
2023-08-10T06:00	8958	320	-33.2	-43.1	344	41
2023-08-10T06:00	8978	319	-33.4	-42.9	343	41
2023-08-10T06:00	8997	318	-33.5	-43.0	343	41
2023-08-10T06:00	9016	317	-33.7	-43.0	342	41
2023-08-10T06:00	9033	317	-33.8	-43.4	342	41
2023-08-10T06:00	9052	316	-33.9	-43.3	342	41
2023-08-10T06:00	9071	315	-34.1	-43.5	341	41
2023-08-10T06:00	9088	314	-34.2	-43.4	341	41
2023-08-10T06:00	9107	313	-34.3	-43.8	341	41
2023-08-10T06:00	9126	313	-34.5	-44.2	342	41
2023-08-10T06:00	9145	312	-34.7	-44.3	342	41
2023-08-10T06:00	9164	311	-34.7	-44.2	342	41
2023-08-10T06:00	9183	310	-34.9	-44.3	341	41
2023-08-10T06:00	9203	309	-35.1	-44.3	341	41
2023-08-10T06:00	9221	308	-35.3	-44.4	341	41
2023-08-10T06:00	9239	307	-35.4	-45.1	341	41
2023-08-10T06:00	9260	307	-35.6	-45.5	340	41
2023-08-10T06:00	9280	306	-35.7	-45.4	340	41
2023-08-10T06:00	9299	305	-35.9	-45.4	340	41
2023-08-10T06:00	9319	304	-36.0	-45.4	340	41
2023-08-10T06:00	9338	303	-36.1	-45.9	340	41
2023-08-10T06:00	9356	302	-36.3	-46.3	340	41
2023-08-10T06:00	9374	302	-36.4	-46.5	340	41
2023-08-10T06:00	9393	301	-36.5	-46.9	340	41
2023-08-10T06:00	9411	300	-36.5	-47.0	339	41
2023-08-10T06:00	9431	299	-36.7	-47.5	339	41
2023-08-10T06:00	9449	298	-36.8	-47.5	339	41
2023-08-10T06:00	9469	297	-37.0	-47.6	339	41
2023-08-10T06:00	9487	297	-37.1	-47.7	339	41
2023-08-10T06:00	9507	296	-37.3	-48.3	338	41
2023-08-10T06:00	9528	295	-37.4	-48.6	338	41
2023-08-10T06:00	9546	294	-37.6	-49.1	338	41
2023-08-10T06:00	9567	293	-37.7	-49.2	338	41
2023-08-10T06:00	9586	292	-37.9	-49.0	338	41
2023-08-10T06:00	9606	292	-38.0	-49.2	337	41
2023-08-10T06:00	9624	291	-38.2	-49.2	337	41
2023-08-10T06:00	9644	290	-38.3	-49.5	337	41
2023-08-10T06:00	9664	289	-38.5		337	41
2023-08-10T06:00	9683	288	-38.6	-49.9	337	41
2023-08-10T06:00	9702	288	-38.8	-50.1	337	41
2023-08-10T06:00	9722	287	-39.0	-50.2	337	40
2023-08-10T06:00	9741	286	-39.2	-50.0	337	40
2023-08-10T06:00	9762	285	-39.3	-49.9	337	40
2023-08-10T06:00	9783	284	-39.5	-50.0	337	40
2023-08-10T06:00	9802	283	-39.7	-49.8	337	40
2023-08-10T06:00	9819	283	-39.8	-49.8	338	40
2023-08-10T06:00	9838	282	-40.0	-49.9	338	41
2023-08-10T06:00	9858	281	-40.2	-50.1	338	41
2023-08-10T06:00	9878	280	-40.2	-50.3	338	41
2023-08-10T06:00	9897	279	-40.4	-50.5	338	41
2023-08-10T06:00	9916	279	-40.5	-50.7	337	41
2023-08-10T06:00	9938	278	-40.7	-50.8	337	41
2023-08-10T06:00	9957	277	-40.8	-50.9	336	41
2023-08-10T06:00	9984	276	-41.1	-50.8	336	41
2023-08-10T06:00	10010	275	-41.3	-50.8	335	41
2023-08-10T06:00	10031	274	-41.5	-50.9	334	41
2023-08-10T06:00	10053	273	-41.7	-50.8	334	41
2023-08-10T06:00	10071	272	-41.8	-50.7	333	41
2023-08-10T06:00	10091	272	-41.9	-50.8	333	41
2023-08-10T06:00	10112	271	-41.9	-51.6	333	41
2023-08-10T06:00	10131	270	-42.0		334	41
2023-08-10T06:00	10150	269	-42.2	-51.7	334	41
2023-08-10T06:00	10169	269	-42.3	-51.9	334	41
2023-08-10T06:00	10186	268	-42.4	-52.7	334	41
2023-08-10T06:00	10207	267	-42.6	-53.5	335	41
2023-08-10T06:00	10229	266	-42.7	-53.7	335	41
2023-08-10T06:00	10248	265	-42.9	-53.6	335	41
2023-08-10T06:00	10268	265	-43.1	-53.3	336	41
2023-08-10T06:00	10287	264	-43.2	-53.4	336	41
2023-08-10T06:00	10305	263	-43.4	-53.4	335	41
2023-08-10T06:00	10327	262	-43.6	-53.1	335	40
2023-08-10T06:00	10346	261	-43.8	-52.7	335	40
2023-08-10T06:00	10368	261	-43.9	-52.7	334	40
2023-08-10T06:00	10387	260	-44.1	-52.7	334	40
2023-08-10T06:00	10405	259	-44.2	-52.6	334	41
2023-08-10T06:00	10426	258	-44.4	-52.6	334	41
2023-08-10T06:00	10444	258	-44.6	-52.8	334	40
2023-08-10T06:00	10464	257	-44.8	-52.9	334	40
2023-08-10T06:00	10482	256	-45.0	-52.7	334	40
2023-08-10T06:00	10503	256	-45.2	-52.8	334	40
2023-08-10T06:00	10521	255	-45.4	-52.8	334	40
2023-08-10T06:00	10541	254	-45.6	-52.9	334	41
2023-08-10T06:00	10560	253	-45.7	-53.0	334	41
2023-08-10T06:00	10580	253	-45.9	-53.7	333	41
2023-08-10T06:00	10602	252	-46.1	-54.8	333	41
2023-08-10T06:00	10623	251	-46.2	-57.5	332	41
2023-08-10T06:00	10643	250	-46.3	-61.0	332	42
2023-08-10T06:00	10663	249	-46.4	-60.9	332	42
2023-08-10T06:00	10683	249	-46.5	-59.9	331	42
2023-08-10T06:00	10702	248	-46.7	-59.5	331	42
2023-08-10T06:00	10723	247	-46.9	-59.1	331	42
2023-08-10T06:00	10741	246	-47.1	-58.8	331	42
2023-08-10T06:00	10761	246	-47.2	-58.8	331	42
2023-08-10T06:00	10781	245	-47.4	-58.9	332	42
2023-08-10T06:00	10800	244	-47.4	-58.9	332	42
2023-08-10T06:00	10818	244	-47.6	-59.3	332	41
2023-08-10T06:00	10838	243	-47.8	-59.7	332	41
2023-08-10T06:00	10858	242	-47.9	-60.2	332	41
2023-08-10T06:00	10879	241	-47.8	-60.4	332	41
2023-08-10T06:00	10898	241	-47.9	-60.5	333	41
2023-08-10T06:00	10917	240	-48.0	-60.7	333	40
2023-08-10T06:00	10938	239	-48.0	-61.1	334	40
2023-08-10T06:00	10958	239	-47.9	-61.4	335	40
2023-08-10T06:00	10977	238	-47.8	-61.7	336	40
2023-08-10T06:00	10997	237	-47.8	-62.0	337	40
2023-08-10T06:00	11018	236	-47.7	-62.3	337	40
2023-08-10T06:00	11039	236	-47.7	-62.5	338	40
2023-08-10T06:00	11062	235	-47.7	-62.7	338	40
2023-08-10T06:00	11081	234	-47.8	-62.8	338	40
2023-08-10T06:00	11102	233	-47.9	-62.9	338	40
2023-08-10T06:00	11121	233	-48.0	-62.8	338	40
2023-08-10T06:00	11139	232	-48.0	-62.6	338	40
2023-08-10T06:00	11159	231	-48.2	-62.6	338	40
2023-08-10T06:00	11177	231	-48.4	-62.7	338	40
2023-08-10T06:00	11197	230	-48.5	-62.7	338	40
2023-08-10T06:00	11216	229	-48.7	-62.8	338	40
2023-08-10T06:00	11236	229	-48.9	-62.8	338	40
2023-08-10T06:00	11254	228	-49.0	-62.7	338	40
2023-08-10T06:00	11274	227	-49.3	-62.8	338	40
2023-08-10T06:00	11293	227	-49.5	-62.7	338	40
2023-08-10T06:00	11314	226	-49.6	-62.5	338	40
2023-08-10T06:00	11333	225	-49.8	-62.3	338	40
2023-08-10T06:00	11353	225	-50.1	-62.2	338	40
2023-08-10T06:00	11372	224	-50.2	-61.8	338	39
2023-08-10T06:00	11391	223	-50.4	-61.5	338	39
2023-08-10T06:00	11412	223	-50.6	-61.1	338	39
2023-08-10T06:00	11432	222	-50.7	-60.7	338	39
2023-08-10T06:00	11451	221	-50.9	-60.6	337	40
2023-08-10T06:00	11470	221	-50.9	-60.8	337	40
2023-08-10T06:00	11489	220	-51.0	-61.3	337	40
2023-08-10T06:00	11508	219	-51.2	-61.6	337	40
2023-08-10T06:00	11528	219	-51.2	-61.8	338	40
2023-08-10T06:00	11546	218	-51.4	-62.1	338	40
2023-08-10T06:00	11566	217	-51.6	-62.3	338	40
2023-08-10T06:00	11586	217	-51.7	-62.2	338	40
2023-08-10T06:00	11604	216	-51.9	-62.3	338	40
2023-08-10T06:00	11624	215	-52.1	-62.3	338	40
2023-08-10T06:00	11647	215	-52.2	-62.0	338	40
2023-08-10T06:00	11663	214	-52.4	-61.9	338	40
2023-08-10T06:00	11685	213	-52.5	-61.8	338	39
2023-08-10T06:00	11705	213	-52.6	-62.0	338	39
2023-08-10T06:00	11727	212	-52.7	-62.2	338	39
2023-08-10T06:00	11745	211	-52.7	-62.3	338	38
2023-08-10T06:00	11764	211	-52.7	-62.4	338	38
2023-08-10T06:00	11785	210	-52.6	-62.5	337	38
2023-08-10T06:00	11804	210	-52.7	-62.8	337	37
2023-08-10T06:00	11823	209	-52.7	-62.9	337	37
2023-08-10T06:00	11844	208	-52.9	-63.0	337	37
2023-08-10T06:00	11866	208	-53.0	-63.2	336	36
2023-08-10T06:00	11889	207	-53.0	-63.6	336	36
2023-08-10T06:00	11908	206	-52.7	-64.0	336	35
2023-08-10T06:00	11930	205	-52.5	-64.6	337	35
2023-08-10T06:00	11950	205	-52.5	-65.2	337	35
2023-08-10T06:00	11971	204	-52.4	-65.5	338	35
2023-08-10T06:00	11993	204	-52.3	-66.1	339	35
2023-08-10T06:00	12014	203	-52.0	-66.8	339	34
2023-08-10T06:00	12034	202	-51.8	-67.6	340	34
2023-08-10T06:00	12054	202	-51.6	-68.5	340	33
2023-08-10T06:00	12077	201	-51.3	-69.6	339	32
2023-08-10T06:00	12096	200	-50.8	-71.2	339	31
2023-08-10T06:00	12116	200	-50.2	-72.9	338	31
2023-08-10T06:00	12138	199	-49.1	-73.1	337	30
2023-08-10T06:00	12158	198	-48.9	-72.6	337	30
2023-08-10T06:00	12178	198	-49.1		336	30
2023-08-10T06:00	12198	197	-49.2	-72.1	336	30
2023-08-10T06:00	12220	197	-49.0	-71.8	337	30
2023-08-10T06:00	12241	196	-48.6	-71.2	337	30
2023-08-10T06:00	12262	195	-48.7	-71.4	338	30
2023-08-10T06:00	12282	195	-48.5	-71.7	338	29
2023-08-10T06:00	12303	194	-47.7	-72.0	339	28
2023-08-10T06:00	12325	193	-47.7	-72.6	340	28
2023-08-10T06:00	12346	193	-47.9	-72.9	341	27
2023-08-10T06:00	12364	192	-47.9	-73.6	341	26
2023-08-10T06:00	12384	192	-47.6	-74.3	342	25
2023-08-10T06:00	12403	191	-47.2	-75.0	342	25
2023-08-10T06:00	12423	191	-47.1	-75.5	342	24
2023-08-10T06:00	12442	190	-47.1	-75.9	342	24
2023-08-10T06:00	12464	189	-47.3	-76.4	342	23
2023-08-10T06:00	12482	189	-47.4	-76.4	342	23
2023-08-10T06:00	12501	188	-47.3	-76.4	341	22
2023-08-10T06:00	12518	188	-47.4	-76.4	340	22
2023-08-10T06:00	12538	187	-47.5	-76.5	339	22
2023-08-10T06:00	12557	187	-47.6	-76.6	338	21
2023-08-10T06:00	12576	186	-47.7	-77.0	337	21
2023-08-10T06:00	12596	186	-47.7	-76.7	337	21
2023-08-10T06:00	12614	185	-47.8	-76.7	337	20
2023-08-10T06:00	12633	185	-47.9	-76.8	338	20
2023-08-10T06:00	12652	184	-47.8	-76.7	338	19
2023-08-10T06:00	12671	184	-47.5	-76.5	339	19
2023-08-10T06:00	12690	183	-47.6	-76.6	340	18
2023-08-10T06:00	12711	182	-47.6	-76.6	340	18
2023-08-10T06:00	12729	182	-47.7	-76.7	339	18
2023-08-10T06:00	12749	181	-47.6	-76.6	338	19
2023-08-10T06:00	12768	181	-47.5	-76.5	338	19
2023-08-10T06:00	12787	180	-47.5	-76.9	337	19
2023-08-10T06:00	12809	180	-47.3	-76.7	338	19
2023-08-10T06:00	12826	179	-47.1	-77.0	338	18
2023-08-10T06:00	12847	179	-46.9	-76.8	339	18
2023-08-10T06:00	12867	178	-47.0	-76.9	339	18
2023-08-10T06:00	12886	178	-47.0	-76.9	338	18
2023-08-10T06:00	12906	177	-47.0	-76.9	338	18
2023-08-10T06:00	12926	177	-47.1	-77.0	336	18
2023-08-10T06:00	12946	176	-47.1	-77.0	335	18
2023-08-10T06:00	12967	176	-47.1	-77.0	334	18
2023-08-10T06:00	12989	175	-47.2	-77.4	332	18
2023-08-10T06:00	13011	174	-47.3	-77.5	331	18
2023-08-10T06:00	13029	174	-47.3	-77.5	330	18
2023-08-10T06:00	13050	173	-47.3	-77.5	330	18
2023-08-10T06:00	13070	173	-47.3	-77.5	329	18
2023-08-10T06:00	13094	172	-47.4	-77.6	328	18
2023-08-10T06:00	13115	172	-47.4	-77.6	328	18
2023-08-10T06:00	13137	171	-47.4	-77.6	327	17
2023-08-10T06:00	13157	171	-47.5	-77.7	327	17
2023-08-10T06:00	13177	170	-47.6	-77.7	327	17
2023-08-10T06:00	13199	169	-47.8	-77.9	327	17
2023-08-10T06:00	13219	169	-47.9	-78.0	327	17
2023-08-10T06:00	13240	168	-48.0	-78.5	329	17
2023-08-10T06:00	13261	168	-47.9	-78.4	330	17
2023-08-10T06:00	13283	167	-47.9	-78.4	332	17
2023-08-10T06:00	13303	167	-48.0	-78.5	335	18
2023-08-10T06:00	13324	166	-48.0	-78.5	336	18
2023-08-10T06:00	13345	166	-48.0	-78.5	338	18
2023-08-10T06:00	13363	165	-48.0	-78.5	339	18
2023-08-10T06:00	13383	165	-48.0	-78.5	339	18
2023-08-10T06:00	13405	164	-48.0	-78.9	339	18
2023-08-10T06:00	13426	164	-47.9	-78.8	339	18
2023-08-10T06:00	13448	163	-47.9	-78.8	338	17
2023-08-10T06:00	13466	163	-47.9	-78.8	337	17
2023-08-10T06:00	13486	162	-48.1	-79.0	337	17
2023-08-10T06:00	13509	162	-48.0	-78.9	337	17
2023-08-10T06:00	13531	161	-47.9	-78.8	337	16
2023-08-10T06:00	13553	161	-47.8	-78.8	338	16
2023-08-10T06:00	13570	160	-47.8	-78.8	339	16
2023-08-10T06:00	13593	160	-47.9	-78.8	340	15
2023-08-10T06:00	13617	159	-48.0	-78.9	340	15
2023-08-10T06:00	13637	159	-48.1	-79.0	341	15
2023-08-10T06:00	13659	158	-48.3	-79.1	341	15
2023-08-10T06:00	13682	158	-48.4	-78.8	341	15
2023-08-10T06:00	13705	157	-48.5	-79.3	341	15
2023-08-10T06:00	13726	156	-48.5	-79.3	340	15
2023-08-10T06:00	13749	156	-48.3	-79.1	340	14
2023-08-10T06:00	13770	155	-48.3	-79.1	340	14
2023-08-10T06:00	13791	155	-48.5	-79.3	339	14
2023-08-10T06:00	13813	154	-48.5	-79.3	338	14
2023-08-10T06:00	13835	154	-48.4	-79.2	337	14
2023-08-10T06:00	13855	153	-48.5	-79.3	337	14
2023-08-10T06:00	13878	153	-48.5	-79.3	336	14
2023-08-10T06:00	13901	152	-48.7	-79.4	335	14
2023-08-10T06:00	13923	152	-48.7	-79.4	335	13
2023-08-10T06:00	13945	151	-48.7	-79.4	334	13
2023-08-10T06:00	13965	151	-48.8	-79.5	333	13
2023-08-10T06:00	13986	150	-48.9	-79.6	332	13
2023-08-10T06:00	14007	150	-49.1	-79.3	332	13
2023-08-10T06:00	14028	149	-49.3	-79.4	331	13
2023-08-10T06:00	14050	149	-49.5	-79.6	330	13
2023-08-10T06:00	14069	148	-49.6	-79.7	329	13
2023-08-10T06:00	14091	148	-49.8	-79.8	328	13
2023-08-10T06:00	14111	148	-49.9	-79.9	327	13
2023-08-10T06:00	14133	147	-50.1	-79.6	327	13
2023-08-10T06:00	14153	147	-50.3	-79.8	326	12
2023-08-10T06:00	14174	146	-50.4	-79.8	324	12
2023-08-10T06:00	14194	146	-50.6	-80.0	323	12
2023-08-10T06:00	14215	145	-50.7	-80.1	321	13
2023-08-10T06:00	14235	145	-50.8	-80.1	320	13
2023-08-10T06:00	14257	144	-51.0	-80.3	319	13
2023-08-10T06:00	14277	144	-51.0	-80.3	319	13
2023-08-10T06:00	14297	143	-50.7	-80.1	320	13
2023-08-10T06:00	14316	143	-50.6	-80.0	322	13
2023-08-10T06:00	14337	143	-50.6	-80.0	324	13
2023-08-10T06:00	14357	142	-50.7	-80.1	326	14
2023-08-10T06:00	14376	142	-50.6	-80.0	327	14
2023-08-10T06:00	14397	141	-50.5	-79.9	328	15
2023-08-10T06:00	14414	141	-50.6	-80.0	330	15
2023-08-10T06:00	14431	140	-50.7	-80.1	331	15
2023-08-10T06:00	14451	140	-50.9	-80.2	332	15
2023-08-10T06:00	14472	140	-51.0	-80.3	333	15
2023-08-10T06:00	14491	139	-51.1	-80.4	334	14
2023-08-10T06:00	14511	139	-51.0	-80.3	334	14
2023-08-10T06:00	14531	138	-51.1	-80.4	334	14
2023-08-10T06:00	14550	138	-51.1	-80.4	334	14
2023-08-10T06:00	14569	137	-51.1	-80.4	333	14
2023-08-10T06:00	14590	137	-50.9	-80.2	332	15
2023-08-10T06:00	14609	137	-50.9	-80.2	331	15
2023-08-10T06:00	14631	136	-51.0	-80.3	330	15
2023-08-10T06:00	14651	136	-51.0	-80.3	328	15
2023-08-10T06:00	14673	135	-50.9	-80.6	326	15
2023-08-10T06:00	14693	135	-50.9	-80.6	324	15
2023-08-10T06:00	14713	135	-50.9	-80.6	323	15
2023-08-10T06:00	14735	134	-50.9	-80.6	321	15
2023-08-10T06:00	14752	134	-50.9	-80.6	321	15
2023-08-10T06:00	14777	133	-51.0	-80.7	322	16
2023-08-10T06:00	14796	133	-51.0	-80.7	324	16
2023-08-10T06:00	14818	132	-50.8	-80.6	327	16
2023-08-10T06:00	14841	132	-50.8	-81.0	330	15
2023-08-10T06:00	14860	131	-50.6	-80.9	333	15
2023-08-10T06:00	14882	131	-50.4	-80.7	337	15
2023-08-10T06:00	14902	131	-50.3	-80.6	340	14
2023-08-10T06:00	14923	130	-50.2	-80.6	343	14
2023-08-10T06:00	14948	130	-50.3	-80.6	345	13
2023-08-10T06:00	14969	129	-50.4	-80.7	348	13
2023-08-10T06:00	14993	129	-50.5	-80.8	350	13
2023-08-10T06:00	15015	128	-50.7	-80.9	351	12
2023-08-10T06:00	15036	128	-50.8	-80.6	352	12
2023-08-10T06:00	15059	128	-51.0	-80.7	353	12
2023-08-10T06:00	15079	127	-51.3	-80.9	352	11
2023-08-10T06:00	15100	127	-51.2	-81.3	352	11
2023-08-10T06:00	15123	126	-51.1	-81.2	350	11
2023-08-10T06:00	15142	126	-51.0	-81.2	349	11
2023-08-10T06:00	15163	126	-51.2	-81.3	348	11
2023-08-10T06:00	15184	125	-51.3	-80.9	348	11
2023-08-10T06:00	15206	125	-51.5	-81.1	348	11
2023-08-10T06:00	15229	124	-51.6	-81.2	348	11
2023-08-10T06:00	15250	124	-51.7	-81.2	348	12
2023-08-10T06:00	15271	123	-51.7	-81.2	348	12
2023-08-10T06:00	15294	123	-51.6	-81.2	348	12
2023-08-10T06:00	15313	123	-51.6	-81.2	348	12
2023-08-10T06:00	15334	122	-51.6	-81.2	347	12
2023-08-10T06:00	15355	122	-51.7	-81.2	347	12
2023-08-10T06:00	15375	121	-51.8	-81.3	347	12
2023-08-10T06:00	15395	121	-51.9	-81.4	348	12
2023-08-10T06:00	15414	121	-52.0	-81.5	349	11
2023-08-10T06:00	15437	120	-51.9	-81.4	350	11
2023-08-10T06:00	15454	120	-51.9	-81.4	351	10
2023-08-10T06:00	15477	120	-52.1	-81.5	352	10
2023-08-10T06:00	15499	119	-52.2	-81.6	352	9
2023-08-10T06:00	15517	119	-52.3	-81.7	353	9
2023-08-10T06:00	15538	118	-52.3	-81.7	352	9
2023-08-10T06:00	15559	118	-52.4	-81.8	351	8
2023-08-10T06:00	15580	118	-52.5	-81.8	349	8
2023-08-10T06:00	15597	117	-52.4	-82.2	347	8
2023-08-10T06:00	15618	117	-52.3	-82.1	344	8
2023-08-10T06:00	15639	117	-52.5	-82.3	342	8
2023-08-10T06:00	15661	116	-52.6	-81.9	340	8
2023-08-10T06:00	15681	116	-52.8	-82.1	338	8
2023-08-10T06:00	15701	116	-52.9	-82.1	336	8
2023-08-10T06:00	15723	115	-53.1	-82.3	334	8
2023-08-10T06:00	15746	115	-53.3	-82.5	331	8
2023-08-10T06:00	15766	114	-53.4	-82.5	328	8
2023-08-10T06:00	15786	114	-53.6	-82.7	325	8
2023-08-10T06:00	15806	114	-53.7	-82.8	323	8
2023-08-10T06:00	15829	113	-53.8	-82.8	322	9
2023-08-10T06:00	15850	113	-53.7	-82.8	322	9
2023-08-10T06:00	15872	112	-53.4	-82.5	323	10
2023-08-10T06:00	15894	112	-53.2	-82.8	324	10
2023-08-10T06:00	15915	112	-53.2	-82.8	325	11
2023-08-10T06:00	15936	111	-53.2	-82.8	326	11
2023-08-10T06:00	15957	111	-53.2	-82.8	326	12
2023-08-10T06:00	15979	111	-53.3	-82.9	326	12
2023-08-10T06:00	16002	110	-53.2	-82.8	325	13
2023-08-10T06:00	16025	110	-53.1	-82.7	324	13
2023-08-10T06:00	16047	110	-53.2	-82.8	323	14
2023-08-10T06:00	16065	109	-53.3	-82.9	323	14
2023-08-10T06:00	16090	109	-53.4	-83.0	324	15
2023-08-10T06:00	16110	108	-53.4	-83.0	326	15
2023-08-10T06:00	16133	108	-53.5	-83.0	328	15
2023-08-10T06:00	16158	108	-53.5	-83.0	330	15
2023-08-10T06:00	16178	107	-53.6	-83.1	334	14
2023-08-10T06:00	16203	107	-53.7	-83.2	337	14
2023-08-10T06:00	16228	106	-53.8	-83.3	341	15
2023-08-10T06:00	16254	106	-53.9	-83.3	345	15
2023-08-10T06:00	16280	106	-53.9	-83.3	348	15
2023-08-10T06:00	16305	105	-54.0	-83.4	351	16
2023-08-10T06:00	16328	105	-54.0	-83.4	353	16
2023-08-10T06:00	16350	104	-54.0	-83.4	355	16
2023-08-10T06:00	16373	104	-54.0	-83.4	356	16
2023-08-10T06:00	16398	104	-53.6	-83.6	357	15
2023-08-10T06:00	16422	103	-53.3		359	14
2023-08-10T06:00	16446	103	-53.5	-83.5	0	13
2023-08-10T06:00	16472	102	-53.5	-83.5	2	12
2023-08-10T06:00	16498	102	-53.4	-83.4	4	12
2023-08-10T06:00	16523	102	-53.4	-83.4	5	11
2023-08-10T06:00	16549	101	-53.5	-83.5	7	10
2023-08-10T06:00	16576	101	-53.6	-83.1	10	10
2023-08-10T06:00	16602	100	-53.8	-83.3	12	10
2023-08-10T06:00	16626	100	-54.1	-83.5	14	9
2023-08-10T06:00	16650	100	-54.2	-83.6	15	8
2023-08-10T06:00	16676	99	-54.4	-83.3	16	8
2023-08-10T06:00	16700	99	-54.6	-83.4	17	7
2023-08-10T06:00	16727	98	-54.6	-83.4	18	6
2023-08-10T06:00	16749	98	-54.6	-83.4	19	6
2023-08-10T06:00	16774	98	-54.7	-83.5	21	6
2023-08-10T06:00	16798	97	-54.9	-83.7	23	5
2023-08-10T06:00	16820	97	-55.0	-83.7	27	5
2023-08-10T06:00	16843	97	-55.3	-84.0	31	5
2023-08-10T06:00	16868	96	-55.4	-84.0	35	5
2023-08-10T06:00	16893	96	-55.5	-84.1	40	4
2023-08-10T06:00	16915	96	-55.3	-84.0	43	4
2023-08-10T06:00	16939	95	-55.2	-83.9	45	3
2023-08-10T06:00	16959	95	-55.2	-83.9	45	3
2023-08-10T06:00	16983	95	-55.3	-84.0	42	3
2023-08-10T06:00	17006	94	-55.3	-84.0	36	3
2023-08-10T06:00	17026	94	-55.4	-84.0	30	3
2023-08-10T06:00	17050	94	-55.6	-84.2	24	3
2023-08-10T06:00	17068	93	-55.7	-84.3	20	3
2023-08-10T06:00	17091	93	-55.9	-84.4	17	4
2023-08-10T06:00	17115	93	-55.8	-84.3	15	4
2023-08-10T06:00	17137	92	-55.5	-84.1	13	4
2023-08-10T06:00	17158	92	-55.5	-84.1	11	5
2023-08-10T06:00	17180	92	-55.6	-84.2	8	5
2023-08-10T06:00	17199	91	-55.6	-84.2	5	5
2023-08-10T06:00	17221	91	-55.7	-84.3	2	5
2023-08-10T06:00	17244	91	-55.8	-84.3	359	5
2023-08-10T06:00	17266	91	-55.7	-84.3	357	5
2023-08-10T06:00	17287	90	-55.8	-84.3	356	6
2023-08-10T06:00	17309	90	-55.9	-84.4	356	6
2023-08-10T06:00	17331	90	-55.9	-84.4	356	7
2023-08-10T06:00	17353	89	-55.8	-84.3	356	7
2023-08-10T06:00	17374	89	-55.9	-84.4	357	7
2023-08-10T06:00	17395	89	-56.0	-84.5	356	7
2023-08-10T06:00	17416	88	-56.0	-84.5	355	6
2023-08-10T06:00	17440	88	-56.0	-84.5	353	6
2023-08-10T06:00	17460	88	-56.2	-84.6	349	6
2023-08-10T06:00	17480	88	-56.3	-84.7	343	6
2023-08-10T06:00	17499	87	-56.4	-84.8	339	6
2023-08-10T06:00	17522	87	-56.5	-84.9	338	6
2023-08-10T06:00	17543	87	-56.5	-84.9	339	7
2023-08-10T06:00	17564	86	-56.5	-84.9	341	7
2023-08-10T06:00	17586	86	-56.5	-84.9	344	7
2023-08-10T06:00	17609	86	-56.6	-84.9	346	7
2023-08-10T06:00	17629	85	-56.6	-84.9	346	7
2023-08-10T06:00	17653	85	-56.6	-84.9	346	7
2023-08-10T06:00	17676	85	-56.7	-85.0	345	7
2023-08-10T06:00	17699	85	-56.7	-85.0	345	7
2023-08-10T06:00	17721	84	-56.8	-85.1	346	7
2023-08-10T06:00	17741	84	-56.9	-85.2	348	8
2023-08-10T06:00	17766	84	-56.6	-84.9	352	8
2023-08-10T06:00	17787	83	-56.6	-84.9	356	9
2023-08-10T06:00	17811	83	-56.7	-85.0	1	9
2023-08-10T06:00	17835	83	-56.7	-85.0	6	9
2023-08-10T06:00	17857	82	-56.7	-85.0	12	10
2023-08-10T06:00	17879	82	-56.7	-85.4	18	10
2023-08-10T06:00	17905	82	-56.8	-85.5	23	11
2023-08-10T06:00	17932	82	-56.7	-85.9	29	11
2023-08-10T06:00	17957	81	-55.6	-85.1	34	12
2023-08-10T06:00	17981	81	-54.9	-85.1	38	13
2023-08-10T06:00	18002	81	-54.8	-85.0	42	13
2023-08-10T06:00	18028	80	-54.7	-84.9	44	13
2023-08-10T06:00	18053	80	-54.8	-85.0	47	13
2023-08-10T06:00	18077	80	-54.8	-85.0	48	13
2023-08-10T06:00	18100	79	-54.7	-84.9	49	13
2023-08-10T06:00	18124	79	-54.7	-84.9	49	12
2023-08-10T06:00	18147	79	-54.6	-84.8	49	12
2023-08-10T06:00	18171	78	-54.6	-84.8	48	11
2023-08-10T06:00	18195	78	-54.6	-84.8	47	11
2023-08-10T06:00	18218	78	-54.7	-84.9	46	10
2023-08-10T06:00	18240	78	-54.5	-84.8	45	10
2023-08-10T06:00	18265	77	-54.4	-84.7	44	9
2023-08-10T06:00	18290	77	-54.5	-84.8	43	9
2023-08-10T06:00	18314	77	-54.5	-84.8	43	8
2023-08-10T06:00	18335	76	-54.4	-84.7	43	7
2023-08-10T06:00	18360	76	-54.3	-84.6	44	7
2023-08-10T06:00	18380	76	-54.2	-84.5	46	7
2023-08-10T06:00	18404	76	-54.2	-84.5	47	7
2023-08-10T06:00	18425	75	-54.3	-84.6	46	7
2023-08-10T06:00	18451	75	-54.5	-84.8	46	7
2023-08-10T06:00	18471	75	-54.6	-84.8	45	7
2023-08-10T06:00	18494	75	-54.6	-84.8	44	7
2023-08-10T06:00	18518	74	-54.4	-84.7	44	7
2023-08-10T06:00	18541	74	-54.2	-84.5	44	8
2023-08-10T06:00	18562	74	-54.2	-84.5	44	8
2023-08-10T06:00	18583	74	-54.2	-84.5	44	8
2023-08-10T06:00	18604	73	-54.2	-84.5	45	8
2023-08-10T06:00	18626	73	-54.2	-84.5	45	7
2023-08-10T06:00	18648	73	-54.2	-84.5	47	7
2023-08-10T06:00	18672	73	-54.2	-84.5	48	7
2023-08-10T06:00	18694	72	-54.1	-84.5	49	7
2023-08-10T06:00	18716	72	-54.0	-84.4	49	6
2023-08-10T06:00	18741	72	-54.1	-84.5	47	6
2023-08-10T06:00	18758	72	-54.1	-84.5	45	6
2023-08-10T06:00	18783	71	-54.1	-85.0	42	6
2023-08-10T06:00	18803	71	-53.8	-84.8	39	6
2023-08-10T06:00	18826	71	-53.8	-84.8	38	6
2023-08-10T06:00	18851	71	-53.9	-84.9	38	7
2023-08-10T06:00	18872	70	-53.9	-84.9	39	7
2023-08-10T06:00	18893	70	-53.8	-84.8	41	7
2023-08-10T06:00	18916	70	-53.8	-84.8	44	7
2023-08-10T06:00	18943	70	-53.8	-84.8	47	8
2023-08-10T06:00	18962	69	-53.8	-84.8	52	8
2023-08-10T06:00	18985	69	-53.5	-84.6	56	8
2023-08-10T06:00	19010	69	-53.5	-84.6	61	8
2023-08-10T06:00	19033	69	-53.7	-84.7	66	8
2023-08-10T06:00	19059	68	-53.9	-84.9	70	8
2023-08-10T06:00	19081	68	-53.9	-84.9	73	8
2023-08-10T06:00	19106	68	-53.9	-84.3	75	7
2023-08-10T06:00	19126	68	-53.9	-84.3	75	7
2023-08-10T06:00	19150	67	-54.0	-84.4	75	7
2023-08-10T06:00	19174	67	-54.0	-84.4	75	6
2023-08-10T06:00	19198	67	-53.9	-84.3	74	6
2023-08-10T06:00	19224	67	-54.0	-84.4	73	6
2023-08-10T06:00	19249	66	-54.1	-84.5	72	6
2023-08-10T06:00	19269	66	-54.2	-85.1	71	6
2023-08-10T06:00	19301	66	-54.0	-84.9	71	6
2023-08-10T06:00	19323	66	-53.8	-84.8	71	6
2023-08-10T06:00	19343	65	-53.4	-84.5	72	6
2023-08-10T06:00	19367	65	-53.3	-84.4	73	7
2023-08-10T06:00	19392	65	-53.2	-84.4	76	7
2023-08-10T06:00	19422	65	-53.3	-84.4	80	7
2023-08-10T06:00	19442	64	-53.3	-84.4	84	7
2023-08-10T06:00	19465	64	-53.3	-84.4	90	7
2023-08-10T06:00	19495	64	-53.3	-84.4	95	7
2023-08-10T06:00	19518	64	-53.3	-84.4	100	6
2023-08-10T06:00	19544	63	-53.5	-84.6	105	6
2023-08-10T06:00	19568	63	-53.6	-84.1	109	6
2023-08-10T06:00	19597	63	-53.8	-84.2	113	5
2023-08-10T06:00	19616	63	-53.8	-84.2	117	5
2023-08-10T06:00	19642	62	-53.8	-84.2	122	4
2023-08-10T06:00	19667	62	-53.9	-84.9	127	3
2023-08-10T06:00	19691	62	-53.7	-84.7	134	3
2023-08-10T06:00	19718	62	-53.5	-84.6	138	2
2023-08-10T06:00	19744	61	-53.6	-84.6	138	2
2023-08-10T06:00	19767	61	-53.7	-84.7	135	2
2023-08-10T06:00	19790	61	-53.6	-84.6	133	2
2023-08-10T06:00	19819	61	-53.8	-84.8	135	1
2023-08-10T06:00	19841	61	-53.9	-84.9	146	1
2023-08-10T06:00	19868	60	-53.9	-84.3	180	1
2023-08-10T06:00	19888	60	-53.9	-84.3	232	1
2023-08-10T06:00	19916	60	-53.9	-84.3	261	1
2023-08-10T06:00	19939	60	-54.0	-84.4	276	1
2023-08-10T06:00	19966	59	-54.1	-84.5	289	1
2023-08-10T06:00	19990	59	-54.1	-85.0	321	0
2023-08-10T06:00	20018	59	-53.9	-84.9	36	0
2023-08-10T06:00	20040	59	-53.8	-84.8	60	1
2023-08-10T06:00	20064	58	-53.6	-84.6	66	2
2023-08-10T06:00	20086	58	-53.5	-84.6	69	2
2023-08-10T06:00	20113	58	-53.5	-84.6	71	3
2023-08-10T06:00	20138	58	-53.5	-84.6	75	3
2023-08-10T06:00	20162	58	-53.6	-84.6	80	3
2023-08-10T06:00	20188	57	-53.7	-84.7	87	3
2023-08-10T06:00	20215	57	-53.6	-84.6	98	2
2023-08-10T06:00	20235	57	-53.4	-84.5	110	2
2023-08-10T06:00	20263	57	-53.4	-84.5	122	3
2023-08-10T06:00	20288	56	-53.4	-84.5	129	3
2023-08-10T06:00	20311	56	-53.5	-84.6	133	4
2023-08-10T06:00	20337	56	-53.5	-84.6	135	4
2023-08-10T06:00	20364	56	-53.4	-84.5	135	4
2023-08-10T06:00	20388	56	-53.5	-84.6	133	4
2023-08-10T06:00	20414	55	-53.6	-84.6	131	4
2023-08-10T06:00	20436	55	-53.6	-84.6	126	3
2023-08-10T06:00	20463	55	-53.4	-84.5	119	3
2023-08-10T06:00	20486	55	-53.3	-84.4	108	2
2023-08-10T06:00	20512	55	-53.2	-84.4	93	2
2023-08-10T06:00	20540	54	-53.3	-84.4	79	2
2023-08-10T06:00	20561	54	-53.5	-84.6	71	2
2023-08-10T06:00	20588	54	-53.5	-84.6	69	3
2023-08-10T06:00	20610	54	-53.4	-84.5	71	4
2023-08-10T06:00	20636	53	-53.4	-84.5	72	4
2023-08-10T06:00	20664	53	-53.4	-84.5	73	4
2023-08-10T06:00	20686	53	-53.4	-84.5	72	5
2023-08-10T06:00	20711	53	-53.2	-84.4	70	5
2023-08-10T06:00	20738	53	-53.1	-84.3	66	5
2023-08-10T06:00	20759	52	-53.2	-84.4	60	4
2023-08-10T06:00	20783	52	-53.0	-84.2	54	4
2023-08-10T06:00	20805	52	-53.0	-84.2	49	5
2023-08-10T06:00	20831	52	-53.1	-84.3	47	5
2023-08-10T06:00	20856	52	-52.9	-84.7	47	5
2023-08-10T06:00	20878	51	-52.6	-84.5	49	5
2023-08-10T06:00	20906	51	-52.4	-84.4	54	5
2023-08-10T06:00	20929	51	-52.5	-84.4	59	5
2023-08-10T06:00	20957	51	-52.6	-83.9	65	5
2023-08-10T06:00	20976	51	-52.8	-84.1	71	6
2023-08-10T06:00	20999	51	-52.9	-84.1	76	6
2023-08-10T06:00	21025	50	-53.1	-84.3	81	6
2023-08-10T06:00	21051	50	-53.3	-84.4	86	6
2023-08-10T06:00	21075	50	-53.5	-84.0	90	7
2023-08-10T06:00	21102	50	-53.6	-84.1	94	7
2023-08-10T06:00	21125	50	-53.7	-84.2	98	7
2023-08-10T06:00	21149	49	-53.7	-84.2	103	7
2023-08-10T06:00	21174	49	-53.7	-84.7	107	7
2023-08-10T06:00	21194	49	-53.6	-84.6	111	7
2023-08-10T06:00	21222	49	-53.7	-84.7	115	6
2023-08-10T06:00	21247	49	-53.7	-84.7	119	6
2023-08-10T06:00	21273	48	-53.8	-84.8	122	6
2023-08-10T06:00	21302	48	-54.0	-84.9	124	6
2023-08-10T06:00	21323	48	-54.0	-84.9	125	6
2023-08-10T06:00	21350	48	-54.0	-84.9	125	6
2023-08-10T06:00	21374	48	-53.8	-84.8	123	6
2023-08-10T06:00	21401	47	-53.8	-84.8	120	6
2023-08-10T06:00	21430	47	-53.8	-84.8	115	5
2023-08-10T06:00	21454	47	-53.9	-84.9	111	5
2023-08-10T06:00	21481	47	-53.9	-84.9	106	5
2023-08-10T06:00	21505	47	-53.8	-84.8	103	5
2023-08-10T06:00	21533	47	-53.8	-84.8	102	5
2023-08-10T06:00	21557	46	-53.7	-84.7	102	6
2023-08-10T06:00	21581	46	-53.4	-84.5	103	6
2023-08-10T06:00	21609	46	-53.0	-84.8	105	6
2023-08-10T06:00	21635	46	-52.8	-84.7	106	6
2023-08-10T06:00	21662	46	-52.8	-84.7	108	6
2023-08-10T06:00	21689	45	-52.6	-84.5	110	6
2023-08-10T06:00	21717	45	-52.6	-84.5	112	6
2023-08-10T06:00	21743	45	-52.7	-84.6	114	6
2023-08-10T06:00	21771	45	-52.9	-84.7	113	5
2023-08-10T06:00	21799	45	-53.0	-84.8	111	6
2023-08-10T06:00	21823	44	-53.1	-84.3	106	6
2023-08-10T06:00	21846	44	-52.9	-84.1	102	6
2023-08-10T06:00	21868	44	-52.8	-84.1	97	6
2023-08-10T06:00	21897	44	-52.8	-84.1	94	7
2023-08-10T06:00	21922	44	-52.8	-84.1	92	7
2023-08-10T06:00	21950	44	-52.8	-84.1	90	7
2023-08-10T06:00	21981	43	-52.7	-84.6	88	7
2023-08-10T06:00	22005	43	-52.7	-84.6	86	7
2023-08-10T06:00	22027	43	-52.7	-84.6	83	7
2023-08-10T06:00	22055	43	-52.8	-84.7	80	7
2023-08-10T06:00	22083	43	-52.8	-84.7	76	6
2023-08-10T06:00	22101	43	-52.8	-84.7	72	6
2023-08-10T06:00	22132	42	-52.8	-84.7	69	6
2023-08-10T06:00	22157	42	-52.9	-84.7	68	6
2023-08-10T06:00	22187	42	-52.9	-84.7	68	7
2023-08-10T06:00	22212	42	-52.7	-84.6	70	7
2023-08-10T06:00	22236	42	-52.5	-84.4	72	8
2023-08-10T06:00	22264	42	-52.6	-84.5	73	8
2023-08-10T06:00	22289	41	-52.8	-84.1	74	9
2023-08-10T06:00	22311	41	-52.9	-84.1	76	9
2023-08-10T06:00	22337	41	-53.0	-84.2	77	10
2023-08-10T06:00	22367	41	-53.1	-84.3	80	10
2023-08-10T06:00	22387	41	-53.2	-84.4	82	11
2023-08-10T06:00	22413	41	-53.2	-84.4	83	11
2023-08-10T06:00	22442	40	-53.3	-84.4	85	11
2023-08-10T06:00	22465	40	-53.6	-84.6	86	11
2023-08-10T06:00	22488	40	-53.8	-84.8	88	11
2023-08-10T06:00	22510	40	-53.7	-84.7	89	10
2023-08-10T06:00	22538	40	-53.5	-84.6	91	9
2023-08-10T06:00	22556	40	-53.4	-84.5	92	8
2023-08-10T06:00	22586	40	-53.3	-84.4	94	8
2023-08-10T06:00	22609	39	-53.2	-84.4	95	7
2023-08-10T06:00	22631	39	-53.3	-84.4	95	6
2023-08-10T06:00	22656	39	-53.2	-84.4	94	6
2023-08-10T06:00	22681	39	-53.2	-84.4	92	5
2023-08-10T06:00	22707	39	-53.1	-84.9	88	5
2023-08-10T06:00	22733	39	-53.2	-85.0	82	5
2023-08-10T06:00	22756	38	-53.1	-84.9	76	5
2023-08-10T06:00	22786	38	-53.1	-84.9	70	6
2023-08-10T06:00	22807	38	-53.1	-84.9	66	6
2023-08-10T06:00	22833	38	-53.0	-84.8	62	7
2023-08-10T06:00	22858	38	-52.8	-84.7	59	7
2023-08-10T06:00	22883	38	-52.8	-84.7	57	7
2023-08-10T06:00	22911	38	-52.8	-84.7	54	8
2023-08-10T06:00	22935	37	-52.8	-84.7	51	8
2023-08-10T06:00	22961	37	-52.6	-84.5	49	8
2023-08-10T06:00	22987	37	-52.5	-84.4	47	8
2023-08-10T06:00	23011	37	-52.4	-84.4	47	9
2023-08-10T06:00	23039	37	-52.2	-84.2	49	9
2023-08-10T06:00	23069	37	-52.0	-84.1	52	9
2023-08-10T06:00	23092	37	-51.7	-83.9	57	9
2023-08-10T06:00	23118	36	-51.9	-84.0	62	9
2023-08-10T06:00	23147	36	-51.9	-84.0	67	10
2023-08-10T06:00	23175	36	-52.0	-84.1	72	10
2023-08-10T06:00	23197	36	-52.0	-84.1	76	11
2023-08-10T06:00	23227	36	-52.2	-84.2	79	12
2023-08-10T06:00	23251	36	-52.1	-84.2	81	13
2023-08-10T06:00	23279	36	-52.0	-84.1	84	14
2023-08-10T06:00	23307	35	-51.9	-84.0	86	14
2023-08-10T06:00	23339	35	-51.9	-84.0	88	14
2023-08-10T06:00	23361	35	-51.9	-84.0	89	14
2023-08-10T06:00	23389	35	-52.0	-84.1	91	13
2023-08-10T06:00	23422	35	-52.1	-84.2	91	12
2023-08-10T06:00	23446	35	-52.1	-84.2	91	11
2023-08-10T06:00	23468	34	-51.9	-84.0	90	10
2023-08-10T06:00	23498	34	-51.8	-83.9	88	9
2023-08-10T06:00	23524	34	-51.7	-83.9	85	8
2023-08-10T06:00	23551	34	-51.6	-84.5	82	7
2023-08-10T06:00	23583	34	-51.5	-84.4	79	7
2023-08-10T06:00	23609	34	-51.5	-84.4	77	7
2023-08-10T06:00	23634	34	-51.3	-84.3	77	8
2023-08-10T06:00	23666	33	-51.3	-84.3	78	8
2023-08-10T06:00	23687	33	-51.1	-84.1	80	9
2023-08-10T06:00	23722	33	-50.8	-83.9	83	10
2023-08-10T06:00	23742	33	-50.8	-83.9	86	11
2023-08-10T06:00	23773	33	-50.9	-84.0	90	11
2023-08-10T06:00	23803	33	-51.0	-84.0	92	11
2023-08-10T06:00	23821	33	-51.1	-84.1	95	11
2023-08-10T06:00	23849	33	-51.1	-84.1	96	11
2023-08-10T06:00	23875	32	-51.0	-84.0	95	11
2023-08-10T06:00	23902	32	-50.8	-83.9	93	10
2023-08-10T06:00	23930	32	-50.6	-83.7	89	9
2023-08-10T06:00	23958	32	-50.6	-83.7	84	9
2023-08-10T06:00	23983	32	-50.6	-83.7	78	8
2023-08-10T06:00	24009	32	-50.7	-83.8	71	8
2023-08-10T06:00	24032	32	-50.7	-83.8	65	9
2023-08-10T06:00	24055	31	-50.6	-83.7	62	9
2023-08-10T06:00	24087	31	-50.5	-83.7	61	9
2023-08-10T06:00	24113	31	-50.3	-83.5	64	10
2023-08-10T06:00	24145	31	-50.1	-83.4	68	10
2023-08-10T06:00	24164	31	-50.1	-83.4	73	10
2023-08-10T06:00	24192	31	-50.1	-83.4	79	10
2023-08-10T06:00	24221	31	-50.2	-83.5	84	10
2023-08-10T06:00	24241	31	-50.2	-83.5	87	10
2023-08-10T06:00	24265	31	-50.2	-83.5	89	11
2023-08-10T06:00	24291	30	-50.2	-83.5	89	11
2023-08-10T06:00	24321	30	-50.1	-83.4	89	11
2023-08-10T06:00	24349	30	-49.9	-83.2	88	11
2023-08-10T06:00	24364	30	-49.8	-83.2	88	11
2023-08-10T06:00	24392	30	-49.8	-83.2	89	10
2023-08-10T06:00	24430	30	-49.8	-83.2	90	10
2023-08-10T06:00	24452	30	-49.9	-83.2	92	10
2023-08-10T06:00	24476	30	-49.9	-83.2	94	9
2023-08-10T06:00	24500	29	-49.9	-83.2	96	9
2023-08-10T06:00	24528	29	-49.8	-83.2	98	9
2023-08-10T06:00	24556	29	-49.6	-83.0	99	9
2023-08-10T06:00	24579	29	-49.5	-82.9	100	9
2023-08-10T06:00	24608	29	-49.6	-83.0	103	9
2023-08-10T06:00	24632	29	-49.8	-83.2	105	9
2023-08-10T06:00	24659	29	-49.9	-83.2	108	9
2023-08-10T06:00	24691	29	-50.0	-83.3	111	9
2023-08-10T06:00	24720	28	-50.0	-83.3	113	8
2023-08-10T06:00	24739	28	-49.9	-83.2	114	8
2023-08-10T06:00	24774	28	-49.7	-83.1	112	8
2023-08-10T06:00	24797	28	-49.6	-83.0	109	7
2023-08-10T06:00	24824	28	-49.6	-83.8	105	7
2023-08-10T06:00	24852	28	-49.5	-83.7	101	7
2023-08-10T06:00	24873	28	-49.4	-82.9	97	7
2023-08-10T06:00	24906	28	-49.5	-82.9	94	7
2023-08-10T06:00	24925	28	-49.6	-83.0	93	8
2023-08-10T06:00	24954	27	-49.7	-83.1	94	8
2023-08-10T06:00	24984	27	-49.7	-83.1	95	8
2023-08-10T06:00	25009	27	-49.5	-82.9	96	8
2023-08-10T06:00	25036	27	-49.5	-83.7	98	8
2023-08-10T06:00	25063	27	-49.4	-83.7	98	7
2023-08-10T06:00	25084	27	-49.3	-83.6	97	7
2023-08-10T06:00	25119	27	-49.3	-83.6	95	7
2023-08-10T06:00	25140	27	-49.4	-83.7	94	7
2023-08-10T06:00	25168	27	-49.4	-83.7	93	7
2023-08-10T06:00	25191	26	-49.3	-82.8	92	6
2023-08-10T06:00	25217	26	-49.4	-83.7	91	6
2023-08-10T06:00	25245	26	-49.5	-83.7	90	5
2023-08-10T06:00	25275	26	-49.5	-83.7	89	5
2023-08-10T06:00	25299	26	-49.3	-83.6	87	5
2023-08-10T06:00	25321	26	-49.2	-83.5	83	4
2023-08-10T06:00	25350	26	-49.1	-83.4	79	4
2023-08-10T06:00	25377	26	-49.0	-83.4	75	4
2023-08-10T06:00	25401	26	-48.9	-83.3	73	4
2023-08-10T06:00	25428	26	-48.7	-83.2	73	5
2023-08-10T06:00	25455	25	-48.6	-83.1	74	5
2023-08-10T06:00	25482	25	-48.5	-83.0	75	6
2023-08-10T06:00	25507	25	-48.5	-83.0	75	6
2023-08-10T06:00	25525	25	-48.5	-83.0	73	6
2023-08-10T06:00	25554	25	-48.4	-82.9	71	6
2023-08-10T06:00	25580	25	-48.3	-82.9	67	6
2023-08-10T06:00	25609	25	-48.3	-82.9	63	7
2023-08-10T06:00	25638	25	-48.3	-82.9	60	7
2023-08-10T06:00	25667	25	-48.4	-82.9	57	8
2023-08-10T06:00	25686	25	-48.4	-82.9	56	8
2023-08-10T06:00	25716	24	-48.4	-82.9	56	8
2023-08-10T06:00	25736	24	-48.4	-82.9	57	8
2023-08-10T06:00	25766	24	-48.5	-83.0	59	8
2023-08-10T06:00	25798	24	-48.5	-83.0	62	8
2023-08-10T06:00	25828	24	-48.4	-82.9	67	7
2023-08-10T06:00	25853	24	-48.3	-82.9	74	7
2023-08-10T06:00	25885	24	-48.4	-82.9	81	6
2023-08-10T06:00	25908	24	-48.6	-83.1	89	6
2023-08-10T06:00	25939	24	-48.8	-83.2	97	6
2023-08-10T06:00	25961	24	-49.0	-83.4	104	6
2023-08-10T06:00	25996	23	-49.1	-83.4	110	6
2023-08-10T06:00	26022	23	-49.0	-83.4	114	7
2023-08-10T06:00	26050	23	-48.8	-83.2	117	7
2023-08-10T06:00	26078	23	-48.6	-83.1	118	7
2023-08-10T06:00	26103	23	-48.6	-83.1	118	7
2023-08-10T06:00	26142	23	-48.6	-83.1	117	8
2023-08-10T06:00	26168	23	-48.5	-83.0	116	8
2023-08-10T06:00	26196	23	-48.4	-82.9	115	8
2023-08-10T06:00	26229	23	-48.3	-82.9	114	9
2023-08-10T06:00	26246	23	-48.3	-82.9	112	9
2023-08-10T06:00	26281	22	-48.3	-82.9	109	9
2023-08-10T06:00	26310	22	-48.2	-82.8	106	10
2023-08-10T06:00	26341	22	-48.2	-82.8	103	10
2023-08-10T06:00	26370	22	-48.3	-82.9	102	10
2023-08-10T06:00	26399	22	-48.4	-82.9	101	11
2023-08-10T06:00	26428	22	-48.4	-82.9	103	10
2023-08-10T06:00	26461	22	-48.5	-83.0	106	10
2023-08-10T06:00	26489	22	-48.3	-82.9	110	9
2023-08-10T06:00	26513	22	-48.4	-82.9	116	8
2023-08-10T06:00	26540	22	-48.5	-83.0	123	8
2023-08-10T06:00	26569	21	-48.5	-83.0	131	7
2023-08-10T06:00	26593	21	-48.6	-83.1	137	7
2023-08-10T06:00	26622	21	-48.6	-83.1	141	7
2023-08-10T06:00	26648	21	-48.8	-83.2	142	6
2023-08-10T06:00	26684	21	-48.8	-83.2	140	6
2023-08-10T06:00	26701	21	-48.5	-83.0	135	5
2023-08-10T06:00	26740	21	-48.2	-82.8	127	5
2023-08-10T06:00	26762	21	-48.2	-82.8	119	4
2023-08-10T06:00	26790	21	-48.1	-83.6	111	4
2023-08-10T06:00	26817	21	-47.9	-83.5	103	4
2023-08-10T06:00	26846	21	-47.7	-83.4	97	4
2023-08-10T06:00	26866	21	-47.6	-83.3	92	4
2023-08-10T06:00	26895	20	-47.5	-83.2	87	4
2023-08-10T06:00	26935	20	-47.5	-83.2	85	5
2023-08-10T06:00	26956	20	-47.5	-83.2	84	5
2023-08-10T06:00	26987	20	-47.4	-83.1	85	6
2023-08-10T06:00	27008	20	-47.2	-83.0	86	6
2023-08-10T06:00	27032	20	-47.0	-82.9	88	6
2023-08-10T06:00	27068	20	-46.8	-82.7	91	6
2023-08-10T06:00	27085	20	-46.7	-82.6	94	6
2023-08-10T06:00	27121	20	-46.6	-82.6	98	5
2023-08-10T06:00	27143	20	-46.7	-82.6	103	5
2023-08-10T06:00	27167	20	-46.9	-82.8	109	4
2023-08-10T06:00	27204	20	-47.1	-82.9	115	4
2023-08-10T06:00	27229	19	-47.2	-83.0	119	4
2023-08-10T06:00	27251	19	-47.3	-82.2	118	4
2023-08-10T06:00	27284	19	-47.3	-82.2	114	5
2023-08-10T06:00	27313	19	-47.3	-83.1	108	5
2023-08-10T06:00	27344	19	-47.3	-83.1	103	6
2023-08-10T06:00	27348	19	-47.2	-83.0	99	7
2023-08-10T06:00	27387	19	-47.2	-83.0	97	7
2023-08-10T06:00	27421	19	-47.2	-83.0	97	8
2023-08-10T06:00	27445	19	-47.2	-83.0	97	8
2023-08-10T06:00	27462	19	-47.2	-83.0	98	8
2023-08-10T06:00	27484	19	-47.2	-83.0	98	7
2023-08-10T06:00	27524	19	-47.2	-83.0	98	7
2023-08-10T06:00	27546	19	-47.2	-83.0	96	7
2023-08-10T06:00	27583	18	-47.2	-83.0	93	7
2023-08-10T06:00	27600	18	-47.2	-83.0	89	8
2023-08-10T06:00	27615	18	-47.1	-82.9	85	8
2023-08-10T06:00	27664	18	-47.1	-82.9	81	9
2023-08-10T06:00	27676	18	-47.0	-82.9	78	10
2023-08-10T06:00	27709	18	-46.9	-82.8	77	10
2023-08-10T06:00	27736	18	-46.8	-82.7	76	10
2023-08-10T06:00	27769	18	-46.8	-82.7	76	9
2023-08-10T06:00	27795	18	-46.8	-82.7	76	9
2023-08-10T06:00	27823	18	-46.9	-82.8	77	8
2023-08-10T06:00	27853	18	-47.0	-82.9	78	8
2023-08-10T06:00	27877	18	-47.1	-82.9	79	7
2023-08-10T06:00	27902	18	-47.2	-83.0	79	7
2023-08-10T06:00	27943	17	-47.2	-83.0	79	8
2023-08-10T06:00	27965	17	-47.2	-83.0	79	8
2023-08-10T06:00	27995	17	-47.1	-82.9	79	9
2023-08-10T06:00	28025	17	-47.1	-82.9	78	9
2023-08-10T06:00	28048	17	-47.2	-83.0	78	9
2023-08-10T06:00	28084	17	-47.2	-83.0	78	9
2023-08-10T06:00	28109	17	-47.2	-83.0	78	9
2023-08-10T06:00	28136	17	-47.1	-82.9	80	9
2023-08-10T06:00	28164	17	-46.8	-82.7	82	9
2023-08-10T06:00	28199	17	-46.6	-82.6	85	10
2023-08-10T06:00	28220	17	-46.8	-82.7	88	11
2023-08-10T06:00	28245	17	-46.8	-82.7	92	11
2023-08-10T06:00	28287	17	-46.8	-82.7	96	12
2023-08-10T06:00	28302	17	-46.9	-82.8	99	12
2023-08-10T06:00	28327	16	-46.8	-82.7	101	12
2023-08-10T06:00	28350	16	-46.8	-82.7	103	12
2023-08-10T06:00	28388	16	-46.5	-82.5	103	12
2023-08-10T06:00	28413	16	-46.2	-82.3	102	11
2023-08-10T06:00	28438	16	-46.2	-82.3	101	11
2023-08-10T06:00	28467	16	-46.1	-83.3	100	11
2023-08-10T06:00	28499	16	-45.7	-83.0	100	11
2023-08-10T06:00	28524	16	-45.3	-82.7	102	11
2023-08-10T06:00	28553	16	-45.0	-82.5	103	12
2023-08-10T06:00	28582	16	-44.9	-82.5	104	12
2023-08-10T06:00	28598	16	-44.6	-82.2	103	12
2023-08-10T06:00	28615	16	-44.3	-82.0	102	12
2023-08-10T06:00	28652	16	-44.1	-81.9	100	11
2023-08-10T06:00	28676	16	-43.9	-81.8	97	11
2023-08-10T06:00	28704	16	-43.4	-81.4	94	11
2023-08-10T06:00	28720	16	-42.9	-81.1	92	11
2023-08-10T06:00	28753	15	-42.4	-80.7	90	11
2023-08-10T06:00	28779	15	-42.2	-80.6	89	11
2023-08-10T06:00	28812	15	-42.2	-80.6	88	11
2023-08-10T06:00	28831	15	-42.0	-80.4	87	11
2023-08-10T06:00	28863	15	-41.8	-80.3	86	11
2023-08-10T06:00	28883	15	-41.6	-80.1	86	11
2023-08-10T06:00	28909	15	-41.5	-80.1	87	11
2023-08-10T06:00	28941	15	-41.5	-80.1	88	11
2023-08-10T06:00	28959	15	-41.5	-80.1	91	11
2023-08-10T06:00	28991	15	-41.5	-80.1	93	11
2023-08-10T06:00	29008	15	-41.5	-80.1	95	12
2023-08-10T06:00	29043	15	-41.7	-80.2	97	12
2023-08-10T06:00	29064	15	-41.7	-80.2	99	12
2023-08-10T06:00	29090	15	-41.7	-80.2	100	13
2023-08-10T06:00	29118	15	-41.5	-80.1	102	13
2023-08-10T06:00	29164	15	-41.3	-79.9	104	13
2023-08-10T06:00	29175	15	-41.1	-79.8	106	13
2023-08-10T06:00	29220	14	-41.0	-79.7	109	13
2023-08-10T06:00	29231	14	-40.9	-79.7	111	13
2023-08-10T06:00	29275	14	-40.9	-79.7	111	13
2023-08-10T06:00	29291	14	-40.8	-79.6	111	13
2023-08-10T06:00	29320	14	-40.7	-79.5	110	13
2023-08-10T06:00	29359	14	-40.6	-79.5	108	12
2023-08-10T06:00	29384	14	-40.5	-79.4	107	12
2023-08-10T06:00	29423	14	-40.4	-79.3	106	11
2023-08-10T06:00	29447	14	-40.2	-79.2	107	11
2023-08-10T06:00	29465	14	-39.9	-79.0	109	10
2023-08-10T06:00	29497	14	-39.8	-78.9	114	10
2023-08-10T06:00	29537	14	-39.7	-78.8	118	10
2023-08-10T06:00	29555	14	-39.7	-78.8	121	9
2023-08-10T06:00	29584	14	-39.6	-78.8	123	9
2023-08-10T06:00	29622	14	-39.5	-78.7	121	9
2023-08-10T06:00	29664	14	-39.4	-78.6	119	8
2023-08-10T06:00	29675	14	-39.2	-78.5	116	8
2023-08-10T06:00	29712	13	-39.0	-78.3	115	8
2023-08-10T06:00	29737	13	-38.9	-78.3	117	7
2023-08-10T06:00	29772	13	-38.9	-78.3	120	7
2023-08-10T06:00	29794	13	-38.9	-78.3	122	7
2023-08-10T06:00	29829	13	-39.0	-78.3	123	7
2023-08-10T06:00	29870	13	-39.0	-78.3	120	6
2023-08-10T06:00	29882	13	-38.9	-78.3	113	6
2023-08-10T06:00	29914	13	-38.7	-78.1	102	5
2023-08-10T06:00	29935	13	-38.6	-78.1	89	5
2023-08-10T06:00	29956	13	-38.6	-78.1	76	5
2023-08-10T06:00	30002	13	-38.6	-78.1	67	6
2023-08-10T06:00	30026	13	-38.5	-78.0	60	6
2023-08-10T06:00	30056	13	-38.5	-78.0	56	7
2023-08-10T06:00	30092	13	-38.5	-78.0	54	8
2023-08-10T06:00	30119	13	-38.5	-78.0	54	9
2023-08-10T06:00	30153	13	-38.5	-78.0	55	9
2023-08-10T06:00	30170	13	-38.4	-77.9	57	10
2023-08-10T06:00	30196	13	-38.3	-77.9	59	10
2023-08-10T06:00	30229	12	-38.3	-77.9	62	10
2023-08-10T06:00	30276	12	-38.2	-77.8	64	10
2023-08-10T06:00	30302	12	-38.1	-77.7	67	10
2023-08-10T06:00	30335	12	-38.1	-77.7	69	9
2023-08-10T06:00	30343	12	-38.1	-77.7	71	9
2023-08-10T06:00	30391	12	-38.3	-77.9	74	9
2023-08-10T06:00	30417	12	-38.4	-77.9	77	9
2023-08-10T06:00	30436	12	-38.3	-77.9	81	9
2023-08-10T06:00	30488	12	-38.3	-77.9	85	8
2023-08-10T06:00	30504	12	-38.4	-77.9	90	8
2023-08-10T06:00	30535	12	-38.5	-78.0	96	8
2023-08-10T06:00	30560	12	-38.6	-78.1	102	7
2023-08-10T06:00	30590	12	-38.8	-78.2	107	7
2023-08-10T06:00	30615	12	-39.0	-78.3	112	7
2023-08-10T06:00	30664	12	-39.1	-78.4	114	7
2023-08-10T06:00	30695	12	-39.2	-78.5	113	7
2023-08-10T06:00	30741	12	-39.2	-78.5	109	7
2023-08-10T06:00	30766	12	-39.2	-78.5	105	7
2023-08-10T06:00	30799	11	-39.3	-78.5	101	7
2023-08-10T06:00	30819	11	-39.3	-78.5	99	7
2023-08-10T06:00	30866	11	-39.5	-78.7	99	7
2023-08-10T06:00	30891	11	-39.7	-78.8	101	7
2023-08-10T06:00	30908	11	-39.8	-78.9	103	7
2023-08-10T06:00	30953	11	-39.9	-79.0	105	7
2023-08-10T06:00	30990	11	-40.0	-79.0	108	7
2023-08-10T06:00	31015	11	-40.1	-79.1	110	7
2023-08-10T06:00	31056	11	-40.1	-79.1	112	7
2023-08-10T06:00	31082	11	-40.0	-79.0	112	7
2023-08-10T06:00	31118	11	-40.0	-79.0	110	7
2023-08-10T06:00	31144	11	-39.9	-79.0	106	7
2023-08-10T06:00	31183	11	-39.9	-79.0	103	7
2023-08-10T06:00	31216	11	-39.8	-78.9	100	7
2023-08-10T06:00	31264	11	-39.7	-78.8	99	6
2023-08-10T06:00	31290	11	-39.6	-78.8	101	6
2023-08-10T06:00	31322	11	-39.6	-78.8	105	5
2023-08-10T06:00	31347	11	-39.8	-78.9	111	5
2023-08-10T06:00	31373	11	-39.9	-79.0	116	5
2023-08-10T06:00	31409	10	-40.0	-79.0	119	4
2023-08-10T06:00	31464	10	-40.1	-79.1	117	4
2023-08-10T06:00	31477	10	-40.2	-79.2	108	4
2023-08-10T06:00	31508	10	-40.1	-79.1	96	4
2023-08-10T06:00	31537	10	-40.1	-79.1	84	5
2023-08-10T06:00	31572	10	-39.9	-79.0	77	5
2023-08-10T06:00	31610	10	-39.7	-78.8	73	6
2023-08-10T06:00	31644	10	-39.5	-78.7	72	7
2023-08-10T06:00	31680	10	-39.3	-78.5	72	7
2023-08-10T06:00	31691	10	-39.2	-78.5	73	7
2023-08-10T06:00	31728	10	-39.2	-78.5	75	7
2023-08-10T06:00	31749	10	-39.2	-78.5	77	7
2023-08-10T06:00	31799	10	-39.2	-78.5	81	6
2023-08-10T06:00	31822	10	-39.1	-78.4	86	6
2023-08-10T06:00	31864	10	-39.1	-78.4	91	7
2023-08-10T06:00	31880	10	-39.1	-78.4	94	7
2023-08-10T06:00	31915	10	-39.1	-78.4	95	7
2023-08-10T06:00	31939	10	-39.1	-78.4	93	7
2023-08-10T06:00	31968	10	-39.1	-78.4	90	7
2023-08-10T06:00	31987	10	-39.0	-78.3	86	8
2023-08-10T06:00	32018	10	-38.7	-78.1	85	8
2023-08-10T06:00	32045	10	-38.5	-78.0	84	9
2023-08-10T06:00	32085	10	-38.2	-77.8	85	10
2023-08-10T06:00	32093	9	-38.2	-77.8	86	10
2023-08-10T06:00	32146	9	-38.1	-77.7	86	11
2023-08-10T06:00	32204	9	-37.7	-77.4	85	13
2023-08-10T06:00	32223	9	-37.4	-77.2	85	13
2023-08-10T06:00	32239	9	-37.0	-77.0	86	14
2023-08-10T06:00	32260	9	-36.8	-76.8	87	14
2023-08-10T06:00	32306	9	-36.7	-76.7	89	13
2023-08-10T06:00	32326	9	-36.7	-76.7	92	13
2023-08-10T06:00	32345	9	-36.6	-76.7	95	13
2023-08-10T06:00	32368	9	-36.4	-76.5	97	12
2023-08-10T06:00	32382	9	-36.3	-76.5	100	12
2023-08-10T06:00	32411	9	-36.3	-76.5	103	12
2023-08-10T06:00	32454	9	-36.2	-76.4	106	11
2023-08-10T06:00	32499	9	-36.2	-76.4	114	10
2023-08-10T06:00	32520	9	-36.2	-76.4	119	10
2023-08-10T06:00	32553	9	-36.2	-76.4	123	10
2023-08-10T06:00	32576	9	-36.1	-76.3	127	9
2023-08-10T06:00	32616	9	-36.1	-76.3	130	9
2023-08-10T06:00	32635	9	-36.1	-76.3	131	9
2023-08-10T06:00	32660	9	-36.1	-76.3	129	8
2023-08-10T06:00	32704	9	-36.0	-76.3	126	8
2023-08-10T06:00	32717	9	-36.0	-76.3	120	8
2023-08-10T06:00	32758	9	-36.0	-76.3	114	8
2023-08-10T06:00	32787	9	-36.0	-76.3	108	8
2023-08-10T06:00	32819	9	-36.1	-76.3	104	9
2023-08-10T06:00	32832	9	-36.1	-76.3	102	9
2023-08-10T06:00	32877	9	-36.2	-76.4	100	10
2023-08-10T06:00	32920	8	-36.5	-76.6	99	11
2023-08-10T06:00	32957	8	-36.8	-76.8	98	11
2023-08-10T06:00	32969	8	-37.0	-77.0	97	12
2023-08-10T06:00	32987	8	-37.1	-77.0	96	13
2023-08-10T06:00	33032	8	-37.2	-77.1	97	14
2023-08-10T06:00	33059	8	-37.3	-77.2	98	15
2023-08-10T06:00	33079	8	-37.5	-77.3	100	15
2023-08-10T06:00	33129	8	-37.5	-77.3	102	15
2023-08-10T06:00	33175	8	-37.3	-77.2	106	15
2023-08-10T06:00	33192	8	-37.0	-77.0	109	14
2023-08-10T06:00	33232	8	-36.9	-76.9	112	14
2023-08-10T06:00	33273	8	-36.9	-76.9	115	13
2023-08-10T06:00	33295	8	-36.9	-76.9	117	13
2023-08-10T06:00	33315	8	-36.9	-76.9	117	12
2023-08-10T12:00	112	1008	19.0	9.5	310	3
2023-08-10T12:00	144	1004	17.8	9.0	307	3
2023-08-10T12:00	175	1001	17.2	8.1	304	4
2023-08-10T12:00	199	998	17.1	8.2	303	4
2023-08-10T12:00	230	994	16.8	8.2	303	5
2023-08-10T12:00	263	990	16.3	8.0	304	6
2023-08-10T12:00	289	987	15.6	8.0	304	6
2023-08-10T12:00	313	984	15.3	8.0	304	6
2023-08-10T12:00	340	981	15.1	8.0	301	6
2023-08-10T12:00	367	978	14.8	7.9	297	6
2023-08-10T12:00	390	976	14.6	7.8	292	6
2023-08-10T12:00	417	972	14.3	7.8	287	6
2023-08-10T12:00	448	969	14.0	7.7	282	6
2023-08-10T12:00	482	965	13.7	7.6	279	5
2023-08-10T12:00	517	961	13.4	7.5	275	5
2023-08-10T12:00	553	957	13.1	7.6	272	5
2023-08-10T12:00	587	953	12.9	7.6	268	4
2023-08-10T12:00	619	949	12.6	7.6	264	4
2023-08-10T12:00	654	946	12.2	7.5	259	3
2023-08-10T12:00	679	943	12.0	7.4	254	3
2023-08-10T12:00	706	940	11.8	7.3	248	4
2023-08-10T12:00	728	937	11.5	7.4	241	4
2023-08-10T12:00	748	935	11.2	7.5	235	4
2023-08-10T12:00	774	932	11.0	7.2	232	4
2023-08-10T12:00	798	929	10.9	6.9	232	5
2023-08-10T12:00	827	926	10.6	7.2	234	5
2023-08-10T12:00	852	923	10.3	6.9	239	5
2023-08-10T12:00	877	921	10.3	6.8	244	5
2023-08-10T12:00	900	918	10.0	6.9	249	5
2023-08-10T12:00	924	915	9.7	6.9	253	5
2023-08-10T12:00	951	913	9.4	6.9	255	6
2023-08-10T12:00	973	910	9.2	6.8	257	6
2023-08-10T12:00	1003	907	9.0	6.5	259	6
2023-08-10T12:00	1025	904	8.8	6.5	260	7
2023-08-10T12:00	1045	902	8.7	6.4	260	7
2023-08-10T12:00	1069	900	8.5	6.2	258	7
2023-08-10T12:00	1096	897	8.3	6.1	254	7
2023-08-10T12:00	1123	894	8.0	6.0	251	7
2023-08-10T12:00	1148	891	7.9	5.8	247	7
2023-08-10T12:00	1172	888	7.9	5.4	246	7
2023-08-10T12:00	1200	885	7.7	5.3	247	7
2023-08-10T12:00	1231	882	7.5	5.0	249	7
2023-08-10T12:00	1259	879	7.2	5.0	251	8
2023-08-10T12:00	1285	876	7.0	5.1	253	8
2023-08-10T12:00	1312	873	6.7	4.8	254	8
2023-08-10T12:00	1341	870	6.5	4.7	256	8
2023-08-10T12:00	1371	867	6.3	4.6	257	8
2023-08-10T12:00	1393	865	6.2	4.4	258	8
2023-08-10T12:00	1413	863	6.0	4.3	257	7
2023-08-10T12:00	1432	861	5.9	4.0	255	7
2023-08-10T12:00	1454	858	5.7	3.8	252	8
2023-08-10T12:00	1478	856	5.6	3.7	249	8
2023-08-10T12:00	1504	853	5.3	3.5	248	9
2023-08-10T12:00	1533	850	5.1	3.1	248	9
2023-08-10T12:00	1560	847	5.0	3.0	250	10
2023-08-10T12:00	1589	844	4.7	2.7	251	10
2023-08-10T12:00	1616	842	4.5	2.6	253	10
2023-08-10T12:00	1635	840	4.3	2.7	253	11
2023-08-10T12:00	1656	837	4.1	2.6	251	11
2023-08-10T12:00	1680	835	3.9	2.4	248	11
2023-08-10T12:00	1717	831	3.6	2.3	246	11
2023-08-10T12:00	1753	828	3.4	1.9	245	11
2023-08-10T12:00	1777	825	3.2	1.8	245	12
2023-08-10T12:00	1803	822	2.9	2.1	245	12
2023-08-10T12:00	1830	820	2.7	1.9	244	12
2023-08-10T12:00	1857	817	2.6	1.1	242	12
2023-08-10T12:00	1883	814	2.5	0.5	239	12
2023-08-10T12:00	1902	812	2.3	0.6	236	12
2023-08-10T12:00	1923	810	2.1	0.1	234	12
2023-08-10T12:00	1943	808	2.1	-0.1	235	12
2023-08-10T12:00	1962	806	1.9	-0.3	238	12
2023-08-10T12:00	1985	804	1.7	-0.5	242	11
2023-08-10T12:00	2010	802	1.8	-1.9	246	11
2023-08-10T12:00	2043	799	1.8	-3.2	250	10
2023-08-10T12:00	2067	796	2.1	-5.5	254	10
2023-08-10T12:00	2093	794	1.9	-5.9	256	9
2023-08-10T12:00	2114	791	1.8	-7.0	258	9
2023-08-10T12:00	2139	789	1.6	-8.0	260	9
2023-08-10T12:00	2163	787	1.5	-8.4	261	9
2023-08-10T12:00	2187	784	1.3	-8.6	263	9
2023-08-10T12:00	2211	782	1.4	-11.7	263	9
2023-08-10T12:00	2240	779	1.6	-14.1	263	9
2023-08-10T12:00	2261	777	2.0	-15.8	262	9
2023-08-10T12:00	2281	775	2.0	-17.8	262	9
2023-08-10T12:00	2306	773	2.0	-17.6	264	9
2023-08-10T12:00	2328	771	2.1	-17.9	267	9
2023-08-10T12:00	2348	769	2.0	-18.2	271	9
2023-08-10T12:00	2369	767	1.9	-18.4	275	9
2023-08-10T12:00	2389	765	1.8	-17.1	278	8
2023-08-10T12:00	2405	763	1.7	-16.4	277	8
2023-08-10T12:00	2424	762	1.6	-15.8	272	7
2023-08-10T12:00	2442	760	1.4	-14.8	265	7
2023-08-10T12:00	2461	758	1.3	-14.2	260	8
2023-08-10T12:00	2481	756	1.2	-13.4	258	9
2023-08-10T12:00	2500	754	1.1	-12.9	260	9
2023-08-10T12:00	2522	752	1.0	-12.7	262	10
2023-08-10T12:00	2541	750	0.9	-12.4	264	10
2023-08-10T12:00	2569	748	0.8	-11.9	266	9
2023-08-10T12:00	2592	746	0.7	-11.6	266	9
2023-08-10T12:00	2615	744	0.5	-11.5	266	9
2023-08-10T12:00	2639	741	0.3	-11.5	266	9
2023-08-10T12:00	2666	739	0.1	-11.6	267	9
2023-08-10T12:00	2691	737	-0.1	-11.5	267	9
2023-08-10T12:00	2709	735	-0.3	-11.5	268	9
2023-08-10T12:00	2731	733	-0.5	-11.4	268	10
2023-08-10T12:00	2757	731	-0.7	-11.9	269	10
2023-08-10T12:00	2781	728	-0.8	-12.4	270	10
2023-08-10T12:00	2805	726	-1.0	-13.5	270	9
2023-08-10T12:00	2831	724	-1.1	-14.0	271	9
2023-08-10T12:00	2853	722	-1.3	-14.1	272	9
2023-08-10T12:00	2874	720	-1.4	-15.6	275	9
2023-08-10T12:00	2901	718	-1.4	-17.5	279	8
2023-08-10T12:00	2923	716	-1.5	-16.7	283	8
2023-08-10T12:00	2946	714	-1.4	-24.9	284	8
2023-08-10T12:00	2967	711	-1.4	-25.1	283	8
2023-08-10T12:00	2993	709	-1.6	-24.4	281	8
2023-08-10T12:00	3013	707	-1.7	-24.3	280	8
2023-08-10T12:00	3034	706	-1.8	-24.5	281	7
2023-08-10T12:00	3053	704	-1.9	-25.4	286	7
2023-08-10T12:00	3073	702	-1.9	-27.4	293	6
2023-08-10T12:00	3093	700	-1.9	-26.6	300	6
2023-08-10T12:00	3113	699	-1.9	-26.7	303	5
2023-08-10T12:00	3133	697	-1.9	-26.2	301	5
2023-08-10T12:00	3153	695	-2.0	-25.3	296	6
2023-08-10T12:00	3173	693	-2.2	-25.2	292	6
2023-08-10T12:00	3198	691	-2.4	-25.1	290	7
2023-08-10T12:00	3214	690	-2.5	-25.1	289	7
2023-08-10T12:00	3239	688	-2.7	-25.3	290	7
2023-08-10T12:00	3264	686	-2.7	-25.6	291	8
2023-08-10T12:00	3284	684	-2.8	-26.8	292	8
2023-08-10T12:00	3309	681	-2.9	-29.4	292	8
2023-08-10T12:00	3337	679	-3.0	-28.5	293	8
2023-08-10T12:00	3367	677	-3.0	-28.2	293	8
2023-08-10T12:00	3387	675	-3.1	-28.2	295	8
2023-08-10T12:00	3411	673	-3.2	-29.0	297	8
2023-08-10T12:00	3437	671	-3.4	-29.1	300	7
2023-08-10T12:00	3461	669	-3.6	-29.0	303	7
2023-08-10T12:00	3478	667	-3.7	-28.7	305	7
2023-08-10T12:00	3501	665	-3.9	-28.4	307	7
2023-08-10T12:00	3529	663	-4.1	-28.3	308	8
2023-08-10T12:00	3552	661	-4.2	-28.4	308	8
2023-08-10T12:00	3576	659	-4.3	-29.0	309	8
2023-08-10T12:00	3602	657	-4.5	-29.1	310	9
2023-08-10T12:00	3631	654	-4.8	-29.2	312	8
2023-08-10T12:00	3664	652	-5.0	-29.6	312	8
2023-08-10T12:00	3682	650	-5.2	-29.5	312	8
2023-08-10T12:00	3698	649	-5.3	-29.5	311	8
2023-08-10T12:00	3718	647	-5.4	-29.8	310	8
2023-08-10T12:00	3750	645	-5.6	-30.2	310	7
2023-08-10T12:00	3773	643	-5.8	-30.3	312	8
2023-08-10T12:00	3799	640	-6.0	-30.3	315	8
2023-08-10T12:00	3834	638	-6.1	-30.5	319	8
2023-08-10T12:00	3855	636	-6.0	-30.3	320	9
2023-08-10T12:00	3879	634	-6.2	-31.8	320	9
2023-08-10T12:00	3905	632	-6.3	-33.1	318	9
2023-08-10T12:00	3930	630	-6.5	-34.3	315	9
2023-08-10T12:00	3949	628	-6.5	-35.5	312	9
2023-08-10T12:00	3977	626	-6.4	-37.3	309	9
2023-08-10T12:00	4011	623	-6.5	-35.6	307	9
2023-08-10T12:00	4037	621	-6.7	-35.7	306	9
2023-08-10T12:00	4056	620	-6.8	-35.7	306	8
2023-08-10T12:00	4074	618	-6.9	-35.8	307	8
2023-08-10T12:00	4091	617	-7.0	-35.7	309	7
2023-08-10T12:00	4113	615	-7.2	-35.9	310	6
2023-08-10T12:00	4142	613	-7.4	-36.4	310	6
2023-08-10T12:00	4167	611	-7.6	-37.3	309	6
2023-08-10T12:00	4188	609	-7.7	-39.2	306	6
2023-08-10T12:00	4210	607	-7.8	-40.4	302	6
2023-08-10T12:00	4238	605	-8.0	-40.8	300	7
2023-08-10T12:00	4264	604	-8.2	-40.9	299	8
2023-08-10T12:00	4282	602	-8.2	-41.6	299	8
2023-08-10T12:00	4303	600	-8.2	-42.4	300	8
2023-08-10T12:00	4335	598	-8.0	-42.3	301	9
2023-08-10T12:00	4359	596	-8.1	-42.6	302	9
2023-08-10T12:00	4383	594	-8.2	-43.0	303	9
2023-08-10T12:00	4407	592	-8.3	-43.0	304	10
2023-08-10T12:00	4429	591	-8.4	-42.8	306	10
2023-08-10T12:00	4455	589	-8.2	-42.7	307	10
2023-08-10T12:00	4472	587	-8.3	-42.8	309	10
2023-08-10T12:00	4493	586	-8.4	-42.8	310	10
2023-08-10T12:00	4513	584	-8.5	-42.9	311	11
2023-08-10T12:00	4532	583	-8.5	-43.2	312	11
2023-08-10T12:00	4555	581	-8.4	-43.7	313	12
2023-08-10T12:00	4582	579	-8.4	-44.3	314	12
2023-08-10T12:00	4603	578	-8.5	-44.1	315	12
2023-08-10T12:00	4627	576	-8.6	-44.5	316	12
2023-08-10T12:00	4647	574	-8.7	-44.9	315	11
2023-08-10T12:00	4673	572	-8.9	-45.4	314	11
2023-08-10T12:00	4696	571	-8.9	-45.4	311	11
2023-08-10T12:00	4719	569	-8.8	-44.3	308	11
2023-08-10T12:00	4746	567	-8.6	-44.8	307	11
2023-08-10T12:00	4769	565	-8.5	-45.1	308	11
2023-08-10T12:00	4796	563	-8.5	-43.2	312	11
2023-08-10T12:00	4828	561	-8.6	-42.2	316	12
2023-08-10T12:00	4849	559	-8.6	-43.9	320	13
2023-08-10T12:00	4874	558	-8.4	-46.2	323	14
2023-08-10T12:00	4901	556	-8.3	-47.4	324	15
2023-08-10T12:00	4922	554	-8.1	-47.2	326	15
2023-08-10T12:00	4950	552	-8.3	-47.4	327	16
2023-08-10T12:00	4983	550	-8.5	-47.1	328	17
2023-08-10T12:00	5008	548	-8.7	-47.2	330	18
2023-08-10T12:00	5031	546	-8.8	-46.9	330	20
2023-08-10T12:00	5049	545	-8.7	-46.0	330	21
2023-08-10T12:00	5069	544	-8.6	-43.6	329	21
2023-08-10T12:00	5090	542	-8.5	-42.1	328	21
2023-08-10T12:00	5112	541	-8.2	-38.9	327	21
2023-08-10T12:00	5140	539	-8.1	-32.9	327	21
2023-08-10T12:00	5163	537	-8.0	-31.6	326	20
2023-08-10T12:00	5190	535	-7.8	-31.3	325	19
2023-08-10T12:00	5218	533	-7.8	-27.2	324	19
2023-08-10T12:00	5246	532	-7.9	-26.7	323	18
2023-08-10T12:00	5273	530	-8.0	-27.5	322	18
2023-08-10T12:00	5292	528	-8.0	-27.7	323	19
2023-08-10T12:00	5321	526	-8.0	-27.9	324	19
2023-08-10T12:00	5358	524	-7.8	-27.2	326	19
2023-08-10T12:00	5382	522	-7.8	-27.1	328	19
2023-08-10T12:00	5402	521	-7.9	-27.1	328	19
2023-08-10T12:00	5430	519	-8.1	-27.3	328	19
2023-08-10T12:00	5462	517	-8.3	-27.4	328	19
2023-08-10T12:00	5480	516	-8.4	-26.9	327	19
2023-08-10T12:00	5505	514	-8.6	-26.7	328	20
2023-08-10T12:00	5540	512	-8.7	-26.5	328	21
2023-08-10T12:00	5561	510	-8.8	-25.9	329	22
2023-08-10T12:00	5597	508	-9.2	-26.5	330	23
2023-08-10T12:00	5624	506	-9.4	-25.3	331	23
2023-08-10T12:00	5641	505	-9.5	-25.7	332	23
2023-08-10T12:00	5660	504	-9.7	-26.3	332	23
2023-08-10T12:00	5679	503	-9.8	-26.2	333	23
2023-08-10T12:00	5708	501	-10.1	-26.0	333	22
2023-08-10T12:00	5734	499	-10.3	-25.6	333	22
2023-08-10T12:00	5760	497	-10.5	-25.6	333	22
2023-08-10T12:00	5787	496	-10.8	-25.9	333	21
2023-08-10T12:00	5806	494	-10.9	-25.8	332	21
2023-08-10T12:00	5827	493	-11.1	-25.7	331	20
2023-08-10T12:00	5862	491	-11.5	-25.7	330	20
2023-08-10T12:00	5886	489	-11.7	-26.1	329	20
2023-08-10T12:00	5906	488	-11.8	-26.0	329	20
2023-08-10T12:00	5936	486	-12.1	-25.3	329	20
2023-08-10T12:00	5971	484	-12.4	-25.0	328	20
2023-08-10T12:00	6005	482	-12.6	-26.1	328	20
2023-08-10T12:00	6020	481	-12.7	-25.5	328	20
2023-08-10T12:00	6039	480	-12.8	-24.8	327	21
2023-08-10T12:00	6056	479	-13.0	-24.8	327	21
2023-08-10T12:00	6074	477	-13.1	-24.7	327	21
2023-08-10T12:00	6095	476	-13.3	-24.8	327	21
2023-08-10T12:00	6121	474	-13.5	-24.6	327	21
2023-08-10T12:00	6154	473	-13.8	-24.8	329	21
2023-08-10T12:00	6178	471	-13.9	-24.9	330	21
2023-08-10T12:00	6207	469	-14.0	-25.6	332	21
2023-08-10T12:00	6229	468	-14.2	-25.7	333	21
2023-08-10T12:00	6250	466	-14.4	-26.3	334	22
2023-08-10T12:00	6275	465	-14.5	-27.2	333	22
2023-08-10T12:00	6303	463	-14.7	-28.0	332	22
2023-08-10T12:00	6330	462	-14.8	-28.1	330	22
2023-08-10T12:00	6355	460	-15.0	-28.1	329	22
2023-08-10T12:00	6381	459	-15.0	-27.8	328	23
2023-08-10T12:00	6402	457	-15.1	-27.6	328	24
2023-08-10T12:00	6429	456	-15.2	-27.3	327	25
2023-08-10T12:00	6457	454	-15.3	-26.8	328	26
2023-08-10T12:00	6491	452	-15.5	-25.8	328	27
2023-08-10T12:00	6523	450	-15.6	-25.2	328	28
2023-08-10T12:00	6544	449	-15.8	-24.8	329	28
2023-08-10T12:00	6578	447	-16.1	-24.6	329	29
2023-08-10T12:00	6606	445	-16.2	-23.9	329	29
2023-08-10T12:00	6628	444	-16.4	-23.9	329	28
2023-08-10T12:00	6650	442	-16.6	-23.2	329	28
2023-08-10T12:00	6679	441	-16.8	-23.2	329	27
2023-08-10T12:00	6707	439	-17.0	-23.3	329	26
2023-08-10T12:00	6734	438	-17.2	-23.0	328	26
2023-08-10T12:00	6761	436	-17.4	-23.1	328	25
2023-08-10T12:00	6788	434	-17.5	-24.1	327	25
2023-08-10T12:00	6809	433	-17.6	-23.8	325	25
2023-08-10T12:00	6831	432	-17.7	-24.0	324	26
2023-08-10T12:00	6853	430	-17.8	-24.8	323	26
2023-08-10T12:00	6885	429	-18.0	-25.0	322	26
2023-08-10T12:00	6905	428	-18.0	-25.4	323	26
2023-08-10T12:00	6930	426	-18.2	-25.7	324	26
2023-08-10T12:00	6956	425	-18.3	-26.4	325	26
2023-08-10T12:00	6985	423	-18.4	-27.1	326	25
2023-08-10T12:00	7015	421	-18.7	-27.2	327	25
2023-08-10T12:00	7038	420	-18.8	-27.5	328	24
2023-08-10T12:00	7061	419	-19.0	-28.1	328	25
2023-08-10T12:00	7092	417	-19.1	-28.4	329	25
2023-08-10T12:00	7113	416	-19.3	-28.5	329	26
2023-08-10T12:00	7144	414	-19.5	-28.3	330	26
2023-08-10T12:00	7176	412	-19.8	-28.3	330	27
2023-08-10T12:00	7208	411	-20.0	-28.6	331	27
2023-08-10T12:00	7226	410	-20.1	-28.8	332	27
2023-08-10T12:00	7249	408	-20.2	-28.8	332	27
2023-08-10T12:00	7274	407	-20.3	-28.9	333	27
2023-08-10T12:00	7297	406	-20.5	-29.0	333	27
2023-08-10T12:00	7326	404	-20.7	-29.1	333	27
2023-08-10T12:00	7355	403	-20.9	-29.0	333	27
2023-08-10T12:00	7386	401	-21.0	-29.0	333	27
2023-08-10T12:00	7419	399	-21.3	-29.1	333	27
2023-08-10T12:00	7446	398	-21.5	-29.1	332	27
2023-08-10T12:00	7474	396	-21.7	-29.5	331	27
2023-08-10T12:00	7502	395	-22.0	-29.8	330	27
2023-08-10T12:00	7536	393	-22.2	-29.9	329	28
2023-08-10T12:00	7565	391	-22.5	-30.3	329	28
2023-08-10T12:00	7589	390	-22.7	-30.2	329	28
2023-08-10T12:00	7619	388	-23.0	-30.7	330	27
2023-08-10T12:00	7652	387	-23.2	-31.3	331	27
2023-08-10T12:00	7683	385	-23.4	-31.5	332	27
2023-08-10T12:00	7712	383	-23.7	-31.7	333	27
2023-08-10T12:00	7748	382	-24.0	-31.7	334	27
2023-08-10T12:00	7775	380	-24.2	-31.8	334	27
2023-08-10T12:00	7794	379	-24.4	-31.9	334	27
2023-08-10T12:00	7817	378	-24.6	-31.8	334	27
2023-08-10T12:00	7852	376	-24.9	-31.9	334	26
2023-08-10T12:00	7879	375	-25.1	-32.7	334	26
2023-08-10T12:00	7906	373	-25.3	-32.8	333	25
2023-08-10T12:00	7928	372	-25.5	-33.0	332	25
2023-08-10T12:00	7951	371	-25.7	-33.1	332	25
2023-08-10T12:00	7978	370	-25.8	-33.4	332	24
2023-08-10T12:00	8010	368	-26.0	-34.1	331	24
2023-08-10T12:00	8044	366	-26.2	-34.5	331	24
2023-08-10T12:00	8075	365	-26.4	-34.5	331	24
2023-08-10T12:00	8103	363	-26.6	-34.7	330	24
2023-08-10T12:00	8132	362	-26.8	-35.3	330	23
2023-08-10T12:00	8162	360	-27.1	-35.5	330	23
2023-08-10T12:00	8192	359	-27.3	-35.5	330	23
2023-08-10T12:00	8220	357	-27.6	-35.7	330	23
2023-08-10T12:00	8248	356	-27.9	-35.8	329	23
2023-08-10T12:00	8280	354	-28.2	-35.8	328	23
2023-08-10T12:00	8309	353	-28.5	-36.0	327	23
2023-08-10T12:00	8336	352	-28.7	-36.3	327	23
2023-08-10T12:00	8363	350	-28.9	-36.5	327	22
2023-08-10T12:00	8390	349	-29.2	-36.7	327	22
2023-08-10T12:00	8420	348	-29.4	-36.9	328	23
2023-08-10T12:00	8452	346	-29.5	-37.5	328	23
2023-08-10T12:00	8482	345	-29.7	-37.3	328	23
2023-08-10T12:00	8511	343	-30.0	-38.2	327	24
2023-08-10T12:00	8542	342	-30.2	-38.6	327	24
2023-08-10T12:00	8570	340	-30.4	-38.5	327	24
2023-08-10T12:00	8595	339	-30.6	-38.6	327	24
2023-08-10T12:00	8625	338	-30.9	-39.2	327	24
2023-08-10T12:00	8656	336	-31.1	-39.2	327	24
2023-08-10T12:00	8686	335	-31.5	-39.4	327	24
2023-08-10T12:00	8716	333	-31.7	-39.7	328	24
2023-08-10T12:00	8743	332	-31.9	-40.1	328	24
2023-08-10T12:00	8771	331	-32.1	-40.1	329	23
2023-08-10T12:00	8804	329	-32.4	-40.4	329	23
2023-08-10T12:00	8839	328	-32.6	-41.4	329	23
2023-08-10T12:00	8872	326	-32.8	-46.5	328	23
2023-08-10T12:00	8902	325	-32.8	-52.6	328	24
2023-08-10T12:00	8932	323	-33.1	-51.4	327	24
2023-08-10T12:00	8967	322	-33.4	-51.2	327	24
2023-08-10T12:00	8998	320	-33.7	-51.4	326	25
2023-08-10T12:00	9030	319	-34.0	-51.5	326	26
2023-08-10T12:00	9065	317	-34.3	-51.6	326	27
2023-08-10T12:00	9094	316	-34.5	-51.7	326	27
2023-08-10T12:00	9119	315	-34.7	-51.4	325	27
2023-08-10T12:00	9151	313	-35.0	-51.5	324	26
2023-08-10T12:00	9182	312	-35.3	-51.5	324	26
2023-08-10T12:00	9213	311	-35.6	-51.6	323	25
2023-08-10T12:00	9243	309	-35.9	-52.0	323	25
2023-08-10T12:00	9276	308	-36.1	-52.6	322	25
2023-08-10T12:00	9303	307	-36.4	-53.3	322	25
2023-08-10T12:00	9332	305	-36.6	-53.5	322	25
2023-08-10T12:00	9360	304	-36.9	-54.1	322	26
2023-08-10T12:00	9389	303	-37.1	-53.6	322	26
2023-08-10T12:00	9418	302	-37.4	-53.6	322	26
2023-08-10T12:00	9449	300	-37.6	-53.5	322	26
2023-08-10T12:00	9478	299	-37.9	-53.0	321	26
2023-08-10T12:00	9509	298	-38.1	-53.5	321	26
2023-08-10T12:00	9541	296	-38.4	-54.5	321	27
2023-08-10T12:00	9572	295	-38.5	-55.1	321	27
2023-08-10T12:00	9600	294	-38.6	-53.5	321	27
2023-08-10T12:00	9628	292	-38.9	-53.1	322	27
2023-08-10T12:00	9661	291	-39.2	-53.0	322	27
2023-08-10T12:00	9694	290	-39.5	-53.3	322	27
2023-08-10T12:00	9726	288	-39.8	-53.2	322	28
2023-08-10T12:00	9756	287	-40.0	-52.8	322	28
2023-08-10T12:00	9787	286	-40.3	-53.1	321	28
2023-08-10T12:00	9813	285	-40.5	-53.7	321	28
2023-08-10T12:00	9842	284	-40.6	-53.9	321	27
2023-08-10T12:00	9866	282	-40.8	-54.0	320	27
2023-08-10T12:00	9895	281	-41.1	-54.2	320	27
2023-08-10T12:00	9918	280	-41.3	-54.3	320	26
2023-08-10T12:00	9943	279	-41.5	-54.2	320	26
2023-08-10T12:00	9971	278	-41.8	-54.2	320	26
2023-08-10T12:00	9992	277	-42.0	-54.4	320	26
2023-08-10T12:00	10018	276	-42.2	-54.4	320	26
2023-08-10T12:00	10046	275	-42.5	-54.5	321	26
2023-08-10T12:00	10075	274	-42.8	-54.8	321	26
2023-08-10T12:00	10104	273	-43.0	-55.1	321	26
2023-08-10T12:00	10135	272	-43.2	-55.2	321	26
2023-08-10T12:00	10162	270	-43.5	-55.6	320	26
2023-08-10T12:00	10192	269	-43.6	-56.1	320	25
2023-08-10T12:00	10221	268	-43.8	-56.4	320	25
2023-08-10T12:00	10247	267	-44.0	-56.2	320	25
2023-08-10T12:00	10277	266	-44.1	-56.0	320	25
2023-08-10T12:00	10304	265	-44.3	-56.0	320	25
2023-08-10T12:00	10334	264	-44.6	-56.2	320	25
2023-08-10T12:00	10362	262	-44.8	-56.2	319	25
2023-08-10T12:00	10396	261	-45.0	-56.1	319	25
2023-08-10T12:00	10429	260	-45.3	-56.5	318	25
2023-08-10T12:00	10454	259	-45.4	-56.9	318	25
2023-08-10T12:00	10483	258	-45.7	-57.5	318	25
2023-08-10T12:00	10505	257	-45.8	-58.0	317	25
2023-08-10T12:00	10533	256	-45.9	-58.6	317	25
2023-08-10T12:00	10553	255	-45.8	-58.9	316	25
2023-08-10T12:00	10582	254	-45.9	-59.2	316	26
2023-08-10T12:00	10608	253	-45.9	-59.4	316	26
2023-08-10T12:00	10640	252	-45.9	-60.0	316	26
2023-08-10T12:00	10669	251	-45.8		317	26
2023-08-10T12:00	10694	250	-45.8	-61.6	318	26
2023-08-10T12:00	10719	249	-45.9	-61.5	320	26
2023-08-10T12:00	10739	248	-46.0	-61.3	321	26
2023-08-10T12:00	10760	247	-46.1	-61.6	322	27
2023-08-10T12:00	10781	246	-46.1	-62.0	323	27
2023-08-10T12:00	10799	246	-46.1	-62.3	323	27
2023-08-10T12:00	10819	245	-46.1	-62.7	324	27
2023-08-10T12:00	10837	244	-46.1	-62.9	324	27
2023-08-10T12:00	10857	244	-46.3	-62.8	325	27
2023-08-10T12:00	10877	243	-46.4	-62.7	325	27
2023-08-10T12:00	10896	242	-46.6	-62.9	325	27
2023-08-10T12:00	10917	241	-46.7	-62.9	325	27
2023-08-10T12:00	10938	241	-46.9		325	27
2023-08-10T12:00	10957	240	-46.9	-62.9	325	27
2023-08-10T12:00	10977	239	-47.0	-62.9	325	27
2023-08-10T12:00	10998	239	-47.2	-63.0	325	27
2023-08-10T12:00	11018	238	-47.3	-62.9	326	27
2023-08-10T12:00	11039	237	-47.5	-63.1	326	27
2023-08-10T12:00	11059	236	-47.6	-63.3	326	27
2023-08-10T12:00	11080	236	-47.7	-63.4	327	27
2023-08-10T12:00	11099	235	-47.8	-63.4	327	27
2023-08-10T12:00	11119	234	-48.0	-63.6	327	27
2023-08-10T12:00	11138	233	-48.1	-63.7	328	27
2023-08-10T12:00	11158	233	-48.1	-63.8	328	27
2023-08-10T12:00	11180	232	-48.2	-63.9	328	27
2023-08-10T12:00	11201	231	-48.4	-64.0	328	27
2023-08-10T12:00	11218	231	-48.5	-63.8	328	27
2023-08-10T12:00	11241	230	-48.7	-63.9	328	28
2023-08-10T12:00	11265	229	-48.9	-64.0	328	28
2023-08-10T12:00	11283	228	-49.0	-64.0	328	28
2023-08-10T12:00	11303	228	-49.2	-64.0	328	28
2023-08-10T12:00	11326	227	-49.5	-64.1	327	28
2023-08-10T12:00	11349	226	-49.7	-64.1	327	28
2023-08-10T12:00	11372	225	-49.9	-64.2	327	28
2023-08-10T12:00	11394	225	-50.1	-64.5	327	28
2023-08-10T12:00	11416	224	-50.0	-64.7	327	28
2023-08-10T12:00	11437	223	-50.1	-64.7	327	27
2023-08-10T12:00	11458	222	-50.3	-64.7	328	27
2023-08-10T12:00	11479	222	-50.5	-64.7	328	27
2023-08-10T12:00	11504	221	-50.7	-64.7	329	27
2023-08-10T12:00	11525	220	-50.9	-64.7	329	26
2023-08-10T12:00	11547	219	-51.1	-64.8	329	26
2023-08-10T12:00	11568	219	-51.3	-64.8	330	25
2023-08-10T12:00	11595	218	-51.5	-64.8	329	25
2023-08-10T12:00	11621	217	-51.8	-65.2	329	24
2023-08-10T12:00	11651	216	-51.7	-65.6	328	23
2023-08-10T12:00	11676	215	-51.5	-66.1	327	22
2023-08-10T12:00	11702	214	-51.5	-66.4	325	22
2023-08-10T12:00	11725	213	-51.5	-66.2	324	22
2023-08-10T12:00	11747	213	-51.4	-66.1	322	22
2023-08-10T12:00	11768	212	-51.1	-66.0	321	22
2023-08-10T12:00	11791	211	-51.0	-66.1	319	22
2023-08-10T12:00	11813	211	-50.9	-65.9	318	22
2023-08-10T12:00	11833	210	-51.0	-65.9	317	22
2023-08-10T12:00	11854	209	-51.1	-66.0	316	22
2023-08-10T12:00	11876	209	-51.2	-66.0	315	23
2023-08-10T12:00	11897	208	-51.3	-66.0	315	23
2023-08-10T12:00	11919	207	-51.5	-66.1	314	24
2023-08-10T12:00	11938	207	-51.5	-66.1	314	24
2023-08-10T12:00	11960	206	-51.6	-66.3	314	24
2023-08-10T12:00	11981	205	-51.7	-66.4	314	25
2023-08-10T12:00	12004	204	-51.8	-66.5	315	25
2023-08-10T12:00	12028	204	-51.8	-66.6	315	25
2023-08-10T12:00	12047	203	-51.9	-66.7	316	25
2023-08-10T12:00	12065	202	-52.0	-66.8	316	26
2023-08-10T12:00	12088	202	-52.0	-66.8	316	26
2023-08-10T12:00	12106	201	-52.0	-66.9	316	26
2023-08-10T12:00	12128	201	-52.1	-67.1	316	27
2023-08-10T12:00	12147	200	-52.1	-67.1	316	27
2023-08-10T12:00	12171	199	-52.2	-67.3	316	27
2023-08-10T12:00	12191	199	-52.4	-67.3	317	28
2023-08-10T12:00	12212	198	-52.5	-67.3	318	28
2023-08-10T12:00	12232	197	-52.6	-67.3	319	28
2023-08-10T12:00	12252	197	-52.6	-67.4	320	29
2023-08-10T12:00	12269	196	-52.6	-67.6	321	29
2023-08-10T12:00	12290	196	-52.6	-67.7	322	29
2023-08-10T12:00	12312	195	-52.6	-67.9	324	29
2023-08-10T12:00	12331	194	-52.6	-68.0	325	29
2023-08-10T12:00	12355	194	-52.5	-68.2	327	29
2023-08-10T12:00	12377	193	-52.5	-68.5	328	29
2023-08-10T12:00	12403	192	-52.2	-68.8	330	28
2023-08-10T12:00	12422	192	-52.1	-69.1	331	28
2023-08-10T12:00	12450	191	-52.2	-69.4	332	27
2023-08-10T12:00	12473	190	-52.3	-69.7	333	26
2023-08-10T12:00	12493	190	-52.4	-69.8	334	26
2023-08-10T12:00	12516	189	-52.5	-70.1	334	25
2023-08-10T12:00	12535	188	-52.5	-70.6	334	24
2023-08-10T12:00	12557	188	-52.3	-71.0	335	24
2023-08-10T12:00	12576	187	-52.2	-71.7	336	23
2023-08-10T12:00	12595	187	-52.2	-72.4	336	23
2023-08-10T12:00	12613	186	-51.9	-72.8	336	22
2023-08-10T12:00	12633	185	-51.8	-73.4	336	21
2023-08-10T12:00	12655	185	-51.6	-73.7	336	20
2023-08-10T12:00	12675	184	-51.5	-74.1	336	19
2023-08-10T12:00	12696	184	-51.4	-74.3	336	18
2023-08-10T12:00	12715	183	-51.3	-74.6	335	18
2023-08-10T12:00	12738	183	-51.0	-75.0	335	17
2023-08-10T12:00	12754	182	-50.8	-75.4	335	16
2023-08-10T12:00	12776	181	-50.7	-75.8	334	16
2023-08-10T12:00	12797	181	-50.6	-75.9	333	15
2023-08-10T12:00	12819	180	-50.6	-76.1	331	15
2023-08-10T12:00	12839	180	-50.5	-76.3	328	15
2023-08-10T12:00	12860	179	-50.5	-76.3	325	14
2023-08-10T12:00	12882	179	-50.5	-76.5	322	14
2023-08-10T12:00	12901	178	-50.4	-76.4	319	14
2023-08-10T12:00	12922	177	-50.5	-76.5	316	14
2023-08-10T12:00	12946	177	-50.5	-76.8	313	14
2023-08-10T12:00	12964	176	-50.5	-76.8	311	14
2023-08-10T12:00	12985	176	-50.4	-76.9	309	15
2023-08-10T12:00	13004	175	-50.4	-77.2	307	15
2023-08-10T12:00	13025	175	-50.5	-77.6	305	15
2023-08-10T12:00	13042	174	-50.3	-77.4	302	15
2023-08-10T12:00	13065	174	-50.2	-77.3	300	16
2023-08-10T12:00	13088	173	-50.2	-77.6	299	16
2023-08-10T12:00	13108	172	-50.2	-77.6	298	17
2023-08-10T12:00	13127	172	-50.2	-77.9	299	17
2023-08-10T12:00	13149	171	-50.2	-77.9	300	17
2023-08-10T12:00	13169	171	-50.0	-78.4	301	17
2023-08-10T12:00	13188	170	-49.5	-78.4	304	17
2023-08-10T12:00	13213	170	-49.2	-78.9	307	16
2023-08-10T12:00	13237	169	-49.0	-78.8	311	15
2023-08-10T12:00	13265	168	-48.8	-79.1	315	15
2023-08-10T12:00	13286	168	-48.7	-79.0	319	15
2023-08-10T12:00	13310	167	-48.1		321	16
2023-08-10T12:00	13331	167	-47.8	-78.3	323	16
2023-08-10T12:00	13350	166	-47.9	-78.4	324	16
2023-08-10T12:00	13371	166	-48.0	-78.5	324	16
2023-08-10T12:00	13392	165	-48.1		324	16
2023-08-10T12:00	13412	165	-48.0	-78.5	323	16
2023-08-10T12:00	13437	164	-48.0	-78.5	323	15
2023-08-10T12:00	13458	164	-48.0	-78.5	322	15
2023-08-10T12:00	13479	163	-48.1		321	14
2023-08-10T12:00	13502	162	-48.3	-78.7	320	14
2023-08-10T12:00	13519	162	-48.3	-78.7	319	14
2023-08-10T12:00	13546	161	-48.3	-78.7	319	14
2023-08-10T12:00	13564	161	-48.4	-78.8	318	14
2023-08-10T12:00	13585	160	-48.6	-78.9	316	14
2023-08-10T12:00	13605	160	-48.8	-79.1	315	14
2023-08-10T12:00	13623	159	-49.0	-78.8	315	14
2023-08-10T12:00	13647	159	-49.1	-78.9	314	14
2023-08-10T12:00	13666	158	-49.2	-78.9	314	15
2023-08-10T12:00	13686	158	-49.0	-78.8	314	14
2023-08-10T12:00	13707	157	-48.9	-79.1	314	14
2023-08-10T12:00	13728	157	-48.8	-79.1	314	14
2023-08-10T12:00	13750	156	-48.8		314	14
2023-08-10T12:00	13771	156	-48.8		313	14
2023-08-10T12:00	13792	155	-49.0	-78.8	312	13
2023-08-10T12:00	13813	155	-49.1	-78.9	312	13
2023-08-10T12:00	13832	154	-49.2	-78.9	312	13
2023-08-10T12:00	13853	154	-49.4	-78.7	313	13
2023-08-10T12:00	13874	153	-49.5	-78.8	313	13
2023-08-10T12:00	13896	153	-49.7	-78.9	314	12
2023-08-10T12:00	13919	152	-49.7	-78.9	314	12
2023-08-10T12:00	13941	152	-49.7	-78.9	315	12
2023-08-10T12:00	13960	151	-49.7	-78.9	315	12
2023-08-10T12:00	13981	151	-49.6	-78.8	315	12
2023-08-10T12:00	14002	151	-49.6	-79.2	315	12
2023-08-10T12:00	14020	150	-49.6	-79.2	314	12
2023-08-10T12:00	14043	150	-49.5	-79.2	313	12
2023-08-10T12:00	14067	149	-49.2	-78.9	311	12
2023-08-10T12:00	14087	149	-49.2	-78.9	310	12
2023-08-10T12:00	14111	148	-49.3	-79.0	309	11
2023-08-10T12:00	14128	148	-49.4	-79.1	309	11
2023-08-10T12:00	14150	147	-49.4	-79.1	311	11
2023-08-10T12:00	14174	147	-49.4	-79.1	313	11
2023-08-10T12:00	14199	146	-49.3	-79.0	317	10
2023-08-10T12:00	14219	146	-49.3	-79.0	321	10
2023-08-10T12:00	14240	145	-49.4	-79.1	325	10
2023-08-10T12:00	14262	145	-49.6	-79.2	330	10
2023-08-10T12:00	14283	144	-49.7	-78.9	334	9
2023-08-10T12:00	14306	144	-49.9	-79.1	337	9
2023-08-10T12:00	14328	143	-50.0		339	10
2023-08-10T12:00	14345	143	-50.1	-79.2	340	10
2023-08-10T12:00	14366	142	-50.2	-79.3	340	10
2023-08-10T12:00	14388	142	-50.2	-79.3	339	10
2023-08-10T12:00	14409	141	-50.1	-79.2	337	10
2023-08-10T12:00	14430	141	-50.0		335	10
2023-08-10T12:00	14452	141	-50.1	-79.2	333	10
2023-08-10T12:00	14475	140	-50.2	-79.3	330	9
2023-08-10T12:00	14494	140	-50.3	-79.4	328	9
2023-08-10T12:00	14516	139	-50.5	-79.5	326	9
2023-08-10T12:00	14534	139	-50.6	-79.6	323	9
2023-08-10T12:00	14558	138	-50.6	-79.6	321	9
2023-08-10T12:00	14577	138	-50.8	-79.8	320	9
2023-08-10T12:00	14601	137	-50.9	-79.5	318	9
2023-08-10T12:00	14621	137	-51.0	-79.5	317	9
2023-08-10T12:00	14643	136	-51.1	-79.6	317	9
2023-08-10T12:00	14664	136	-51.3	-79.8	317	10
2023-08-10T12:00	14686	136	-51.4	-79.8	318	10
2023-08-10T12:00	14710	135	-51.3	-79.8	320	10
2023-08-10T12:00	14732	135	-51.3	-79.8	323	10
2023-08-10T12:00	14752	134	-51.4	-79.8	325	10
2023-08-10T12:00	14774	134	-51.5	-79.9	328	10
2023-08-10T12:00	14795	133	-51.7	-80.1	330	10
2023-08-10T12:00	14819	133	-51.8	-80.1	333	10
2023-08-10T12:00	14842	132	-52.0	-80.0	335	10
2023-08-10T12:00	14863	132	-52.1	-80.0	337	11
2023-08-10T12:00	14885	131	-52.1	-80.4	339	11
2023-08-10T12:00	14907	131	-52.0	-80.3	340	11
2023-08-10T12:00	14928	131	-52.0	-80.3	341	11
2023-08-10T12:00	14952	130	-52.1	-80.4	340	11
2023-08-10T12:00	14974	130	-52.1	-80.4	338	10
2023-08-10T12:00	14992	129	-52.0	-80.3	337	10
2023-08-10T12:00	15011	129	-51.9	-80.2	336	9
2023-08-10T12:00	15035	128	-51.9	-80.6	335	9
2023-08-10T12:00	15057	128	-51.9	-80.6	334	8
2023-08-10T12:00	15079	128	-51.7	-80.4	334	8
2023-08-10T12:00	15099	127	-51.8	-80.5	332	8
2023-08-10T12:00	15120	127	-51.9	-80.6	330	8
2023-08-10T12:00	15143	126	-52.0	-80.7	327	8
2023-08-10T12:00	15163	126	-52.1	-80.7	324	8
2023-08-10T12:00	15184	125	-52.2	-80.8	322	8
2023-08-10T12:00	15206	125	-52.1	-80.7	321	8
2023-08-10T12:00	15226	125	-52.0	-80.7	321	8
2023-08-10T12:00	15246	124	-52.0	-80.7	321	8
2023-08-10T12:00	15271	124	-52.0	-80.7	323	8
2023-08-10T12:00	15294	123	-51.9	-80.6	324	7
2023-08-10T12:00	15310	123	-52.0	-80.7	324	7
2023-08-10T12:00	15335	123	-52.1	-80.7	323	7
2023-08-10T12:00	15355	122	-52.3	-80.9	321	7
2023-08-10T12:00	15378	122	-52.4	-80.6	319	6
2023-08-10T12:00	15399	121	-52.5	-80.7	318	6
2023-08-10T12:00	15423	121	-52.6	-80.8	316	6
2023-08-10T12:00	15442	121	-52.8	-80.9	314	6
2023-08-10T12:00	15466	120	-52.9	-81.0	312	6
2023-08-10T12:00	15487	120	-52.9	-81.0	308	6
2023-08-10T12:00	15508	119	-53.0	-81.1	305	6
2023-08-10T12:00	15527	119	-53.1	-81.1	302	6
2023-08-10T12:00	15552	119	-53.2	-81.2	300	6
2023-08-10T12:00	15573	118	-53.4	-81.4	299	6
2023-08-10T12:00	15597	118	-53.5	-81.4	299	6
2023-08-10T12:00	15617	117	-53.6	-81.2	300	6
2023-08-10T12:00	15637	117	-53.7	-81.3	302	6
2023-08-10T12:00	15660	117	-53.7	-81.6	302	7
2023-08-10T12:00	15682	116	-53.7	-81.6	303	7
2023-08-10T12:00	15707	116	-53.8	-81.7	303	7
2023-08-10T12:00	15728	115	-53.9	-81.7	303	7
2023-08-10T12:00	15744	115	-54.0	-81.8	303	8
2023-08-10T12:00	15772	115	-53.9	-82.1	303	8
2023-08-10T12:00	15793	114	-53.7	-82.0	303	8
2023-08-10T12:00	15814	114	-53.7	-82.0	304	9
2023-08-10T12:00	15838	113	-53.6	-81.9	306	9
2023-08-10T12:00	15858	113	-53.5	-82.2	309	9
2023-08-10T12:00	15878	113	-53.2	-82.0	313	9
2023-08-10T12:00	15900	112	-53.1	-81.9	317	10
2023-08-10T12:00	15920	112	-53.1	-81.9	320	10
2023-08-10T12:00	15943	112	-53.0	-81.8	322	10
2023-08-10T12:00	15968	111	-52.9	-81.7	323	10
2023-08-10T12:00	15987	111	-52.8	-81.7	325	10
2023-08-10T12:00	16009	110	-52.7	-81.6	328	9
2023-08-10T12:00	16027	110	-52.6	-81.9	331	8
2023-08-10T12:00	16054	110	-52.6	-81.9	334	8
2023-08-10T12:00	16075	109	-52.5	-81.8	337	7
2023-08-10T12:00	16100	109	-52.6	-81.5	340	6
2023-08-10T12:00	16118	109	-52.8	-81.7	343	6
2023-08-10T12:00	16143	108	-52.9	-81.7	346	5
2023-08-10T12:00	16164	108	-53.1	-81.9	349	4
2023-08-10T12:00	16186	107	-53.1	-81.9	354	4
2023-08-10T12:00	16206	107	-53.1	-81.9	0	3
2023-08-10T12:00	16230	107	-52.8	-82.1	8	3
2023-08-10T12:00	16250	106	-52.8	-82.1	16	2
2023-08-10T12:00	16276	106	-52.8	-82.1	22	2
2023-08-10T12:00	16297	106	-52.8	-82.1	26	2
2023-08-10T12:00	16317	105	-52.7	-82.0	30	1
2023-08-10T12:00	16343	105	-52.6	-81.9	35	1
2023-08-10T12:00	16366	105	-52.4	-81.8	54	0
2023-08-10T12:00	16385	104	-52.5	-81.8	200	0
2023-08-10T12:00	16407	104	-52.6	-81.9	221	1
2023-08-10T12:00	16431	103	-52.4	-81.8	234	1
2023-08-10T12:00	16456	103	-52.4	-81.8	245	1
2023-08-10T12:00	16477	103	-52.6	-81.9	252	2
2023-08-10T12:00	16497	102	-52.7	-82.0	257	2
2023-08-10T12:00	16519	102	-52.8	-81.7	262	2
2023-08-10T12:00	16542	102	-53.0	-81.8	269	2
2023-08-10T12:00	16566	101	-53.2	-82.0	278	2
2023-08-10T12:00	16588	101	-53.2	-82.0	286	3
2023-08-10T12:00	16612	101	-53.0	-81.8	290	3
2023-08-10T12:00	16635	100	-52.9	-82.1	292	4
2023-08-10T12:00	16660	100	-53.0	-82.2	293	4
2023-08-10T12:00	16679	100	-53.0	-82.2	294	5
2023-08-10T12:00	16703	99	-53.2	-82.4	295	5
2023-08-10T12:00	16723	99	-53.3	-82.5	297	6
2023-08-10T12:00	16747	99	-53.3	-82.5	299	6
2023-08-10T12:00	16768	98	-53.4	-82.1	301	7
2023-08-10T12:00	16789	98	-53.5	-82.2	304	7
2023-08-10T12:00	16813	97	-53.6	-82.3	306	8
2023-08-10T12:00	16835	97	-53.7	-82.3	308	8
2023-08-10T12:00	16861	97	-53.8	-82.4	310	8
2023-08-10T12:00	16881	96	-53.8	-82.4	311	9
2023-08-10T12:00	16904	96	-53.8	-82.4	312	9
2023-08-10T12:00	16929	96	-53.9	-82.5	313	9
2023-08-10T12:00	16950	95	-53.9	-82.5	314	9
2023-08-10T12:00	16969	95	-54.0	-82.6	315	9
2023-08-10T12:00	16999	95	-54.1	-82.6	316	9
2023-08-10T12:00	17015	94	-54.2	-82.7	318	9
2023-08-10T12:00	17045	94	-54.2	-82.7	319	9
2023-08-10T12:00	17066	94	-54.2	-82.7	320	8
2023-08-10T12:00	17091	93	-54.4	-82.9	321	8
2023-08-10T12:00	17109	93	-54.5	-82.9	322	8
2023-08-10T12:00	17135	93	-54.7	-82.7	323	8
2023-08-10T12:00	17160	92	-54.8	-82.8	324	8
2023-08-10T12:00	17181	92	-55.0	-82.9	326	8
2023-08-10T12:00	17206	92	-55.0	-82.9	326	8
2023-08-10T12:00	17230	91	-55.0	-82.9	326	8
2023-08-10T12:00	17252	91	-55.1	-83.0	326	8
2023-08-10T12:00	17277	91	-55.0		325	8
2023-08-10T12:00	17300	90	-54.9	-83.3	324	8
2023-08-10T12:00	17321	90	-54.8	-83.2	324	8
2023-08-10T12:00	17343	90	-54.6	-83.0	326	8
2023-08-10T12:00	17366	89	-54.7	-83.5	329	8
2023-08-10T12:00	17391	89	-54.5	-83.4	333	8
2023-08-10T12:00	17413	89	-54.1	-83.1	337	8
2023-08-10T12:00	17435	88	-53.9	-82.9	343	7
2023-08-10T12:00	17458	88	-53.8	-82.8	348	7
2023-08-10T12:00	17481	88	-53.8	-82.8	354	7
2023-08-10T12:00	17502	88	-53.9	-82.9	358	6
2023-08-10T12:00	17528	87	-54.0	-83.0	2	6
2023-08-10T12:00	17548	87	-53.9	-82.9	5	6
2023-08-10T12:00	17573	87	-53.9	-82.9	6	6
2023-08-10T12:00	17594	86	-54.0	-83.0	7	5
2023-08-10T12:00	17617	86	-54.1	-83.1	8	5
2023-08-10T12:00	17644	86	-54.1	-83.1	9	5
2023-08-10T12:00	17664	85	-53.8	-83.3	10	4
2023-08-10T12:00	17687	85	-53.4	-83.0	9	4
2023-08-10T12:00	17711	85	-53.4	-83.0	7	3
2023-08-10T12:00	17733	84	-53.6	-83.1	4	3
2023-08-10T12:00	17757	84	-53.7	-82.8	357	2
2023-08-10T12:00	17781	84	-53.8	-82.8	346	2
2023-08-10T12:00	17805	84	-53.9	-82.9	329	2
2023-08-10T12:00	17828	83	-54.1	-83.1	305	1
2023-08-10T12:00	17854	83	-54.2	-82.7	280	1
2023-08-10T12:00	17872	83	-54.4	-82.9	262	2
2023-08-10T12:00	17894	82	-54.5	-82.9	251	2
2023-08-10T12:00	17921	82	-54.6	-83.0	246	3
2023-08-10T12:00	17941	82	-54.8	-83.2	245	3
2023-08-10T12:00	17963	82	-54.8	-83.2	246	4
2023-08-10T12:00	17983	81	-54.8	-83.6	248	5
2023-08-10T12:00	18006	81	-54.7	-83.5	251	5
2023-08-10T12:00	18026	81	-54.5	-83.4	255	6
2023-08-10T12:00	18055	80	-54.4	-83.3	258	6
2023-08-10T12:00	18073	80	-54.3	-83.2	261	6
2023-08-10T12:00	18100	80	-54.4	-83.3	265	6
2023-08-10T12:00	18119	80	-54.5	-83.4	268	6
2023-08-10T12:00	18143	79	-54.6	-83.4	271	6
2023-08-10T12:00	18168	79	-54.5	-83.4	274	6
2023-08-10T12:00	18189	79	-54.5	-83.4	277	6
2023-08-10T12:00	18214	78	-54.5	-83.4	280	6
2023-08-10T12:00	18238	78	-54.6	-83.4	283	6
2023-08-10T12:00	18258	78	-54.7	-83.5	287	5
2023-08-10T12:00	18284	78	-54.8	-83.6	292	5
2023-08-10T12:00	18301	77	-54.8	-83.6	300	4
2023-08-10T12:00	18329	77	-54.8	-83.6	311	4
2023-08-10T12:00	18350	77	-54.8	-83.6	324	4
2023-08-10T12:00	18374	76	-54.9	-83.7	337	4
2023-08-10T12:00	18394	76	-55.0	-83.7	349	4
2023-08-10T12:00	18422	76	-55.0	-83.7	358	5
2023-08-10T12:00	18447	76	-55.0	-83.7	5	5
2023-08-10T12:00	18468	75	-55.1	-83.8	8	5
2023-08-10T12:00	18487	75	-55.0	-83.7	11	5
2023-08-10T12:00	18514	75	-54.8	-83.6	12	4
2023-08-10T12:00	18538	74	-54.8	-83.6	13	4
2023-08-10T12:00	18565	74	-54.9	-83.7	13	4
2023-08-10T12:00	18584	74	-54.9	-83.7	13	3
2023-08-10T12:00	18609	74	-54.9	-83.7	12	3
2023-08-10T12:00	18633	73	-54.9	-83.7	11	2
2023-08-10T12:00	18659	73	-54.8	-83.6	12	2
2023-08-10T12:00	18687	73	-54.7	-83.5	17	1
2023-08-10T12:00	18704	73	-54.6	-83.9	26	1
2023-08-10T12:00	18731	72	-54.6	-83.9	34	1
2023-08-10T12:00	18757	72	-54.6	-83.9	37	1
2023-08-10T12:00	18779	72	-54.5	-83.8	37	1
2023-08-10T12:00	18803	71	-54.4	-83.7	37	1
2023-08-10T12:00	18825	71	-54.5	-83.4	43	1
2023-08-10T12:00	18849	71	-54.7	-83.5	56	1
2023-08-10T12:00	18875	71	-54.8	-83.6	83	0
2023-08-10T12:00	18897	70	-54.9	-83.7	157	0
2023-08-10T12:00	18918	70	-55.1	-83.8	208	1
2023-08-10T12:00	18940	70	-55.2	-83.9	226	1
2023-08-10T12:00	18965	70	-55.2	-83.9	237	1
2023-08-10T12:00	18988	69	-55.2	-83.9	247	1
2023-08-10T12:00	19018	69	-55.3	-84.0	259	1
2023-08-10T12:00	19041	69	-55.3	-84.0	273	1
2023-08-10T12:00	19068	69	-55.3	-84.0	290	1
2023-08-10T12:00	19087	68	-55.4	-84.0	308	2
2023-08-10T12:00	19115	68	-55.5	-84.1	324	2
2023-08-10T12:00	19138	68	-55.6	-84.2	337	2
2023-08-10T12:00	19158	68	-55.6	-84.2	344	3
2023-08-10T12:00	19184	67	-55.6	-84.2	347	3
2023-08-10T12:00	19209	67	-55.6	-84.2	346	3
2023-08-10T12:00	19233	67	-55.6	-84.2	345	4
2023-08-10T12:00	19255	67	-55.6	-84.2	345	4
2023-08-10T12:00	19278	66	-55.7	-84.3	347	5
2023-08-10T12:00	19299	66	-55.8	-84.3	351	5
2023-08-10T12:00	19324	66	-55.8	-84.3	357	5
2023-08-10T12:00	19346	66	-55.7	-84.3	4	6
2023-08-10T12:00	19370	65	-55.6	-84.2	11	6
2023-08-10T12:00	19395	65	-55.6	-84.2	18	6
2023-08-10T12:00	19418	65	-55.5	-84.1	25	6
2023-08-10T12:00	19447	65	-55.5	-84.1	30	6
2023-08-10T12:00	19461	64	-55.6	-84.2	35	6
2023-08-10T12:00	19486	64	-55.4	-84.0	38	6
2023-08-10T12:00	19510	64	-55.3	-84.0	40	6
2023-08-10T12:00	19533	64	-55.3	-84.0	41	6
2023-08-10T12:00	19554	64	-55.3	-84.0	38	6
2023-08-10T12:00	19577	63	-55.4	-84.0	33	6
2023-08-10T12:00	19600	63	-55.4	-84.0	26	6
2023-08-10T12:00	19621	63	-55.2	-84.3	19	6
2023-08-10T12:00	19647	63	-55.1	-84.2	13	7
2023-08-10T12:00	19670	62	-55.0	-84.2	11	7
2023-08-10T12:00	19695	62	-54.8	-84.0	11	8
2023-08-10T12:00	19716	62	-54.8	-84.0	14	9
2023-08-10T12:00	19738	62	-54.8	-84.0	18	9
2023-08-10T12:00	19759	62	-54.6	-83.9	23	10
2023-08-10T12:00	19788	61	-54.4	-84.2	28	10
2023-08-10T12:00	19812	61	-54.2	-84.0	32	10
2023-08-10T12:00	19838	61	-54.1	-84.0	36	10
2023-08-10T12:00	19861	61	-54.0	-83.9	39	10
2023-08-10T12:00	19887	60	-53.9	-83.8	42	10
2023-08-10T12:00	19911	60	-53.7	-83.7	44	10
2023-08-10T12:00	19935	60	-53.8	-83.7	47	10
2023-08-10T12:00	19964	60	-53.7	-83.7	51	10
2023-08-10T12:00	19985	59	-53.6	-83.6	55	10
2023-08-10T12:00	20011	59	-53.6	-83.6	60	10
2023-08-10T12:00	20036	59	-53.7	-83.7	63	10
2023-08-10T12:00	20059	59	-53.8	-83.7	65	10
2023-08-10T12:00	20087	58	-53.7	-83.7	65	10
2023-08-10T12:00	20108	58	-53.6	-83.1	63	10
2023-08-10T12:00	20137	58	-53.6	-83.1	60	10
2023-08-10T12:00	20168	58	-53.7	-83.7	57	10
2023-08-10T12:00	20186	58	-53.7	-83.7	55	10
2023-08-10T12:00	20213	57	-53.6	-83.6	55	10
2023-08-10T12:00	20239	57	-53.6	-83.6	56	10
2023-08-10T12:00	20264	57	-53.5	-83.5	57	10
2023-08-10T12:00	20284	57	-53.4	-83.4	60	10
2023-08-10T12:00	20311	56	-53.5	-83.5	62	10
2023-08-10T12:00	20329	56	-53.6	-83.1	64	10
2023-08-10T12:00	20355	56	-53.7	-83.2	66	10
2023-08-10T12:00	20383	56	-53.7	-83.2	69	11
2023-08-10T12:00	20410	56	-53.8	-83.3	71	11
2023-08-10T12:00	20427	55	-53.8	-83.3	74	11
2023-08-10T12:00	20456	55	-53.9	-83.3	78	11
2023-08-10T12:00	20479	55	-53.9	-83.3	81	10
2023-08-10T12:00	20504	55	-53.7	-83.2	84	10
2023-08-10T12:00	20521	55	-53.7	-83.7	87	10
2023-08-10T12:00	20555	54	-53.5	-83.5	89	10
2023-08-10T12:00	20572	54	-53.4	-83.4	90	10
2023-08-10T12:00	20598	54	-53.3		90	10
2023-08-10T12:00	20628	54	-53.0	-83.1	91	10
2023-08-10T12:00	20643	54	-52.9	-83.1	91	10
2023-08-10T12:00	20662	53	-52.7	-82.9	92	9
2023-08-10T12:00	20688	53	-52.6	-82.8	93	9
2023-08-10T12:00	20705	53	-52.5	-82.8	94	9
2023-08-10T12:00	20736	53	-52.5	-82.8	95	8
2023-08-10T12:00	20758	53	-52.4	-82.7	96	8
2023-08-10T12:00	20781	53	-52.4	-82.7	97	8
2023-08-10T12:00	20803	52	-52.5	-82.8	97	8
2023-08-10T12:00	20827	52	-52.4	-82.7	98	8
2023-08-10T12:00	20849	52	-52.3	-82.6	98	8
2023-08-10T12:00	20869	52	-52.2	-82.5	97	8
2023-08-10T12:00	20893	52	-52.1	-82.5	96	8
2023-08-10T12:00	20920	51	-52.1	-82.5	93	8
2023-08-10T12:00	20943	51	-52.2	-82.5	90	8
2023-08-10T12:00	20965	51	-52.2	-82.5	86	8
2023-08-10T12:00	20988	51	-52.1	-82.5	83	8
2023-08-10T12:00	21008	51	-52.1	-82.5	80	9
2023-08-10T12:00	21032	50	-52.0	-82.4	79	9
2023-08-10T12:00	21056	50	-52.0	-82.4	78	9
2023-08-10T12:00	21080	50	-52.0	-82.4	77	10
2023-08-10T12:00	21111	50	-52.1	-82.5	77	10
2023-08-10T12:00	21126	50	-52.1	-82.5	77	10
2023-08-10T12:00	21152	50	-52.1	-82.5	77	10
2023-08-10T12:00	21176	49	-52.0	-82.4	78	10
2023-08-10T12:00	21198	49	-52.0	-82.4	79	10
2023-08-10T12:00	21223	49	-52.0	-82.4	81	10
2023-08-10T12:00	21249	49	-52.1	-82.5	82	10
2023-08-10T12:00	21273	49	-52.3	-82.6	82	10
2023-08-10T12:00	21302	48	-52.4	-82.7	82	10
2023-08-10T12:00	21324	48	-52.4	-82.7	82	10
2023-08-10T12:00	21348	48	-52.2	-82.5	82	10
2023-08-10T12:00	21373	48	-52.1	-82.5	83	9
2023-08-10T12:00	21400	48	-52.1	-83.0	84	9
2023-08-10T12:00	21424	48	-52.1	-83.0	86	8
2023-08-10T12:00	21450	47	-52.0	-82.9	88	8
2023-08-10T12:00	21476	47	-51.9	-82.8	89	7
2023-08-10T12:00	21499	47	-51.8	-82.8	90	7
2023-08-10T12:00	21523	47	-51.7	-82.7	91	7
2023-08-10T12:00	21559	47	-51.6	-82.6	92	7
2023-08-10T12:00	21580	46	-51.7	-82.7	94	7
2023-08-10T12:00	21601	46	-51.8	-82.8	97	8
2023-08-10T12:00	21633	46	-51.9	-82.3	99	8
2023-08-10T12:00	21656	46	-51.9	-82.3	101	8
2023-08-10T12:00	21684	46	-52.0	-82.4	102	8
2023-08-10T12:00	21714	45	-52.1	-82.5	102	9
2023-08-10T12:00	21735	45	-52.2	-82.5	100	9
2023-08-10T12:00	21763	45	-52.3	-82.6	100	9
2023-08-10T12:00	21790	45	-52.4	-82.7	100	8
2023-08-10T12:00	21813	45	-52.4	-82.7	101	8
2023-08-10T12:00	21839	45	-52.5	-82.8	103	8
2023-08-10T12:00	21867	44	-52.6	-82.8	105	8
2023-08-10T12:00	21889	44	-52.6	-82.8	105	8
2023-08-10T12:00	21913	44	-52.5	-82.8	104	8
2023-08-10T12:00	21948	44	-52.4	-82.7	102	8
2023-08-10T12:00	21969	44	-52.3	-82.6	100	8
2023-08-10T12:00	21996	44	-52.2	-82.5	98	7
2023-08-10T12:00	22023	43	-52.1	-83.0	99	7
2023-08-10T12:00	22044	43	-52.1	-83.0	101	6
2023-08-10T12:00	22068	43	-52.2	-83.1	106	6
2023-08-10T12:00	22097	43	-52.2	-83.1	111	5
2023-08-10T12:00	22123	43	-52.2	-83.1	116	5
2023-08-10T12:00	22142	43	-52.1	-83.0	118	5
2023-08-10T12:00	22173	42	-52.0	-82.9	115	4
2023-08-10T12:00	22196	42	-51.9	-82.8	108	4
2023-08-10T12:00	22219	42	-51.7	-82.7	99	5
2023-08-10T12:00	22250	42	-51.5	-82.5	91	5
2023-08-10T12:00	22273	42	-51.3	-82.4	86	6
2023-08-10T12:00	22296	42	-51.1	-82.2	82	7
2023-08-10T12:00	22320	41	-51.0	-82.2	80	7
2023-08-10T12:00	22349	41	-51.1	-82.2	79	8
2023-08-10T12:00	22381	41	-51.3	-82.4	78	9
2023-08-10T12:00	22405	41	-51.3	-82.4	77	9
2023-08-10T12:00	22437	41	-51.5	-82.5	78	10
2023-08-10T12:00	22450	41	-51.5	-82.5	80	10
2023-08-10T12:00	22477	40	-51.5	-82.5	82	10
2023-08-10T12:00	22505	40	-51.5	-82.5	85	10
2023-08-10T12:00	22531	40	-51.6	-82.6	88	10
2023-08-10T12:00	22557	40	-51.7	-82.7	92	10
2023-08-10T12:00	22581	40	-51.7	-82.7	96	10
2023-08-10T12:00	22615	40	-51.7	-82.7	99	11
2023-08-10T12:00	22635	39	-51.6	-82.6	103	10
2023-08-10T12:00	22664	39	-51.5	-82.5	105	10
2023-08-10T12:00	22695	39	-51.5	-82.5	107	10
2023-08-10T12:00	22720	39	-51.6	-82.6	109	9
2023-08-10T12:00	22736	39	-51.6	-82.6	110	9
2023-08-10T12:00	22767	39	-51.4	-82.5	110	8
2023-08-10T12:00	22793	38	-50.9	-82.7	110	8
2023-08-10T12:00	22826	38	-50.7	-82.5	109	7
2023-08-10T12:00	22847	38	-50.7	-82.5	106	7
2023-08-10T12:00	22871	38	-50.6	-82.4	103	7
2023-08-10T12:00	22892	38	-50.5		102	7
2023-08-10T12:00	22928	38	-50.4	-82.3	102	7
2023-08-10T12:00	22955	38	-50.4	-82.3	104	6
2023-08-10T12:00	22974	37	-50.4	-82.3	110	6
2023-08-10T12:00	23014	37	-50.4	-81.7	117	6
2023-08-10T12:00	23029	37	-50.4	-81.7	124	6
2023-08-10T12:00	23059	37	-50.5	-81.8	131	6
2023-08-10T12:00	23088	37	-50.5	-81.8	136	6
2023-08-10T12:00	23110	37	-50.6	-81.9	138	6
2023-08-10T12:00	23134	37	-50.5	-81.8	138	5
2023-08-10T12:00	23161	36	-50.5	-81.8	134	5
2023-08-10T12:00	23187	36	-50.5		127	4
2023-08-10T12:00	23214	36	-50.4	-82.3	118	4
2023-08-10T12:00	23237	36	-50.3	-82.2	107	3
2023-08-10T12:00	23261	36	-50.2	-82.1	98	3
2023-08-10T12:00	23285	36	-50.1	-82.1	90	3
2023-08-10T12:00	23316	36	-50.1	-82.1	84	4
2023-08-10T12:00	23337	35	-50.1	-82.1	79	4
2023-08-10T12:00	23365	35	-50.1	-82.1	77	4
2023-08-10T12:00	23397	35	-50.1	-82.1	77	4
2023-08-10T12:00	23421	35	-50.1	-82.1	80	4
2023-08-10T12:00	23446	35	-50.1	-82.1	85	4
2023-08-10T12:00	23472	35	-50.2		91	4
2023-08-10T12:00	23499	35	-50.3	-81.6	96	4
2023-08-10T12:00	23517	34	-50.3	-81.6	98	5
2023-08-10T12:00	23548	34	-50.3	-81.6	98	5
2023-08-10T12:00	23573	34	-50.2	-82.1	98	5
2023-08-10T12:00	23595	34	-50.2	-82.1	100	5
2023-08-10T12:00	23628	34	-50.3	-82.2	103	5
2023-08-10T12:00	23641	34	-50.3	-82.2	108	5
2023-08-10T12:00	23672	34	-50.4	-82.3	112	4
2023-08-10T12:00	23690	34	-50.4	-82.3	113	4
2023-08-10T12:00	23721	33	-50.3	-82.2	111	4
2023-08-10T12:00	23746	33	-50.3	-82.2	107	5
2023-08-10T12:00	23771	33	-50.2	-82.1	103	5
2023-08-10T12:00	23796	33	-50.2	-82.1	100	6
2023-08-10T12:00	23823	33	-50.2	-82.1	99	7
2023-08-10T12:00	23839	33	-50.2	-82.1	100	7
2023-08-10T12:00	23874	33	-50.2	-82.1	101	8
2023-08-10T12:00	23904	32	-50.2	-82.1	103	9
2023-08-10T12:00	23924	32	-50.2	-82.1	105	9
2023-08-10T12:00	23950	32	-50.1	-82.1	107	9
2023-08-10T12:00	23973	32	-50.0	-82.0	109	9
2023-08-10T12:00	24006	32	-49.9	-81.9	112	9
2023-08-10T12:00	24032	32	-49.7	-81.8	115	9
2023-08-10T12:00	24055	32	-49.7	-81.8	119	8
2023-08-10T12:00	24073	32	-49.8	-81.8	123	8
2023-08-10T12:00	24102	31	-49.9	-81.9	128	7
2023-08-10T12:00	24135	31	-49.9	-81.9	134	7
2023-08-10T12:00	24154	31	-49.8	-81.8	140	6
2023-08-10T12:00	24185	31	-49.7	-81.8	147	6
2023-08-10T12:00	24214	31	-49.7	-81.8	153	6
2023-08-10T12:00	24243	31	-49.8	-81.8	158	6
2023-08-10T12:00	24266	31	-49.8	-81.8	162	6
2023-08-10T12:00	24294	31	-49.9	-81.9	165	6
2023-08-10T12:00	24330	30	-49.9	-81.9	166	6
2023-08-10T12:00	24343	30	-49.9	-81.9	166	6
2023-08-10T12:00	24374	30	-49.9	-81.9	167	6
2023-08-10T12:00	24402	30	-50.0	-82.0	168	5
2023-08-10T12:00	24426	30	-50.0	-82.0	170	5
2023-08-10T12:00	24453	30	-50.0	-82.0	173	5
2023-08-10T12:00	24486	30	-50.1	-82.1	177	5
2023-08-10T12:00	24505	30	-50.1	-82.1	181	5
2023-08-10T12:00	24538	29	-50.2	-82.1	185	5
2023-08-10T12:00	24569	29	-50.3	-82.2	187	4
2023-08-10T12:00	24593	29	-50.3	-81.6	189	3
2023-08-10T12:00	24621	29	-50.4	-81.7	187	3
2023-08-10T12:00	24642	29	-50.6	-81.9	180	2
2023-08-10T12:00	24673	29	-50.6	-82.4	164	2
2023-08-10T12:00	24706	29	-50.5		142	1
2023-08-10T12:00	24723	29	-50.3	-82.2	126	2
2023-08-10T12:00	24757	29	-50.2	-82.1	118	2
2023-08-10T12:00	24772	28	-50.2	-82.1	115	3
2023-08-10T12:00	24811	28	-50.1	-82.1	113	3
2023-08-10T12:00	24832	28	-50.1	-82.1	111	4
2023-08-10T12:00	24858	28	-50.1	-82.1	110	5
2023-08-10T12:00	24882	28	-50.1	-82.1	109	6
2023-08-10T12:00	24904	28	-50.1	-82.1	108	6
2023-08-10T12:00	24936	28	-50.0	-82.0	108	6
2023-08-10T12:00	24962	28	-49.9	-81.9	109	6
2023-08-10T12:00	24988	28	-49.8	-81.8	110	6
2023-08-10T12:00	25011	27	-49.8	-81.8	112	6
2023-08-10T12:00	25034	27	-49.8	-81.8	115	6
2023-08-10T12:00	25066	27	-49.8	-81.8	118	5
2023-08-10T12:00	25106	27	-50.0	-82.0	122	5
2023-08-10T12:00	25119	27	-49.9	-81.9	125	5
2023-08-10T12:00	25141	27	-49.8	-81.8	127	5
2023-08-10T12:00	25175	27	-49.8	-81.8	128	6
2023-08-10T12:00	25190	27	-49.8	-81.8	128	6
2023-08-10T12:00	25221	27	-49.8	-81.8	126	7
2023-08-10T12:00	25248	26	-49.9	-81.9	125	7
2023-08-10T12:00	25268	26	-49.9	-81.9	124	8
2023-08-10T12:00	25295	26	-49.7	-81.8	123	9
2023-08-10T12:00	25325	26	-49.5	-81.6	122	9
2023-08-10T12:00	25351	26	-49.3	-82.1	122	10
2023-08-10T12:00	25382	26	-49.3	-82.1	123	10
2023-08-10T12:00	25403	26	-49.3	-81.5	125	10
2023-08-10T12:00	25441	26	-49.3	-81.5	128	9
2023-08-10T12:00	25459	26	-49.3	-81.5	132	9
2023-08-10T12:00	25481	26	-49.3	-81.5	135	9
2023-08-10T12:00	25502	25	-49.3	-81.5	137	8
2023-08-10T12:00	25534	25	-49.4	-81.6	138	8
2023-08-10T12:00	25554	25	-49.2	-82.0	139	7
2023-08-10T12:00	25589	25	-49.1	-82.0	140	7
2023-08-10T12:00	25603	25	-49.0	-81.9	141	6
2023-08-10T12:00	25637	25	-48.9	-81.8	142	6
2023-08-10T12:00	25670	25	-48.9	-81.8	141	6
2023-08-10T12:00	25695	25	-49.0	-81.9	139	6
2023-08-10T12:00	25718	25	-48.9	-81.8	135	6
2023-08-10T12:00	25748	25	-48.9	-81.8	131	6
2023-08-10T12:00	25765	24	-48.8	-81.7	126	5
2023-08-10T12:00	25790	24	-48.6	-81.6	121	5
2023-08-10T12:00	25808	24	-48.3	-81.4	116	4
2023-08-10T12:00	25841	24	-48.1	-81.2	111	4
2023-08-10T12:00	25859	24	-48.1	-81.2	106	3
2023-08-10T12:00	25894	24	-48.2	-81.3	100	3
2023-08-10T12:00	25924	24	-48.2	-81.3	91	2
2023-08-10T12:00	25951	24	-48.1	-81.2	80	2
2023-08-10T12:00	25964	24	-47.9	-81.1	68	2
2023-08-10T12:00	26002	24	-47.7	-80.9	60	2
2023-08-10T12:00	26023	23	-47.6	-80.9	60	2
2023-08-10T12:00	26041	23	-47.6	-80.9	63	3
2023-08-10T12:00	26082	23	-47.6	-80.9	69	3
2023-08-10T12:00	26110	23	-47.7	-80.9	77	4
2023-08-10T12:00	26141	23	-47.9	-81.1	84	4
2023-08-10T12:00	26162	23	-48.0	-81.2	92	5
2023-08-10T12:00	26190	23	-48.1	-81.2	98	6
2023-08-10T12:00	26226	23	-48.2	-81.3	102	6
2023-08-10T12:00	26246	23	-48.2	-81.3	106	7
2023-08-10T12:00	26275	23	-48.1	-81.2	108	7
2023-08-10T12:00	26305	23	-48.0	-81.2	111	7
2023-08-10T12:00	26336	22	-48.1	-81.2	112	7
2023-08-10T12:00	26349	22	-48.1	-81.2	112	6
2023-08-10T12:00	26390	22	-48.1	-81.2	109	6
2023-08-10T12:00	26429	22	-47.8	-81.0	103	5
2023-08-10T12:00	26438	22	-47.7	-80.9	94	4
2023-08-10T12:00	26474	22	-47.7	-80.9	84	4
2023-08-10T12:00	26496	22	-47.6	-80.9	76	4
2023-08-10T12:00	26529	22	-47.5	-80.8	73	4
2023-08-10T12:00	26550	22	-47.4	-80.7	76	4
2023-08-10T12:00	26580	22	-47.4	-80.7	83	4
2023-08-10T12:00	26615	22	-47.4	-81.4	91	5
2023-08-10T12:00	26636	21	-47.3	-81.4	97	5
2023-08-10T12:00	26660	21	-47.2	-81.3	101	6
2023-08-10T12:00	26694	21	-47.2	-80.6	102	6
2023-08-10T12:00	26699	21	-47.3	-80.6	101	7
2023-08-10T12:00	26746	21	-47.3	-80.6	100	7
2023-08-10T12:00	26771	21	-47.2	-80.6	99	8
2023-08-10T12:00	26797	21	-47.1	-80.5	100	8
2023-08-10T12:00	26821	21	-47.1	-80.5	102	8
2023-08-10T12:00	26846	21	-47.0	-80.4	106	8
2023-08-10T12:00	26877	21	-47.0	-80.4	111	8
2023-08-10T12:00	26895	21	-47.1	-80.5	115	8
2023-08-10T12:00	26934	20	-47.2	-80.6	118	7
2023-08-10T12:00	26989	20	-47.1	-81.2	119	7
2023-08-10T12:00	26993	20	-46.9	-81.1	118	6
2023-08-10T12:00	27023	20	-46.9	-81.1	114	6
2023-08-10T12:00	27032	20	-46.7	-80.9	109	6
2023-08-10T12:00	27075	20	-46.4	-80.7	103	6
2023-08-10T12:00	27101	20	-46.3	-80.6	97	6
2023-08-10T12:00	27133	20	-46.4	-80.7	92	6
2023-08-10T12:00	27160	20	-46.4	-80.7	88	6
2023-08-10T12:00	27184	20	-46.3	-80.6	86	6
2023-08-10T12:00	27222	20	-46.2	-80.6	84	6
2023-08-10T12:00	27233	20	-46.2	-80.6	84	6
2023-08-10T12:00	27266	19	-46.2	-80.6	84	6
2023-08-10T12:00	27285	19	-46.2	-80.6	84	6
2023-08-10T12:00	27332	19	-46.2	-80.6	85	6
2023-08-10T12:00	27354	19	-46.1	-80.5	87	7
2023-08-10T12:00	27367	19	-46.0	-80.4	89	7
2023-08-10T12:00	27403	19	-45.9	-80.3	91	7
2023-08-10T12:00	27436	19	-45.8	-80.3	93	8
2023-08-10T12:00	27468	19	-45.7	-80.2	95	8
2023-08-10T12:00	27498	19	-45.7	-80.2	97	8
2023-08-10T12:00	27514	19	-45.6	-80.1	99	9
2023-08-10T12:00	27558	19	-45.6	-80.1	100	9
2023-08-10T12:00	27581	19	-45.6	-80.1	102	10
2023-08-10T12:00	27607	19	-45.7	-80.2	103	10
2023-08-10T12:00	27632	18	-45.7	-80.2	104	10
2023-08-10T12:00	27663	18	-45.8	-80.3	104	11
2023-08-10T12:00	27690	18	-45.8	-80.3	104	11
2023-08-10T12:00	27722	18	-45.9	-80.3	103	11
2023-08-10T12:00	27760	18	-45.9	-80.3	102	11
2023-08-10T12:00	27778	18	-45.7	-80.2	102	10
2023-08-10T12:00	27810	18	-45.4	-80.0	103	10
2023-08-10T12:00	27836	18	-45.1	-79.8	105	10
2023-08-10T12:00	27865	18	-44.9	-79.6	108	9
2023-08-10T12:00	27900	18	-44.8	-79.6	111	9
2023-08-10T12:00	27918	18	-44.8	-79.6	115	9
2023-08-10T12:00	27953	18	-44.9	-79.6	116	9
2023-08-10T12:00	27983	18	-45.0	-79.7	116	9
2023-08-10T12:00	28017	17	-45.0	-79.7	113	9
2023-08-10T12:00	28040	17	-44.9	-79.6	108	9
2023-08-10T12:00	28065	17	-44.7	-79.5	103	9
2023-08-10T12:00	28112	17	-44.6	-79.4	99	9
2023-08-10T12:00	28121	17	-44.5	-80.1	99	10
2023-08-10T12:00	28150	17	-44.3	-80.0	100	10
2023-08-10T12:00	28197	17	-44.2	-79.9	103	10
2023-08-10T12:00	28209	17	-44.1	-79.9	106	11
2023-08-10T12:00	28239	17	-44.2	-79.9	108	11
2023-08-10T12:00	28264	17	-44.1	-79.9	108	11
2023-08-10T12:00	28289	17	-44.0	-79.8	107	10
2023-08-10T12:00	28323	17	-43.9	-79.7	106	10
2023-08-10T12:00	28354	17	-43.8	-79.6	104	10
2023-08-10T12:00	28374	16	-43.8	-79.6	104	9
2023-08-10T12:00	28408	16	-43.8	-79.6	104	9
2023-08-10T12:00	28447	16	-43.9	-79.7	105	9
2023-08-10T12:00	28449	16	-43.9	-79.7	106	9
2023-08-10T12:00	28484	16	-43.8	-79.6	108	9
2023-08-10T12:00	28507	16	-43.8	-79.6	109	9
2023-08-10T12:00	28544	16	-43.9	-79.7	111	8
2023-08-10T12:00	28574	16	-43.9	-78.9	114	8
2023-08-10T12:00	28588	16	-43.9	-78.9	117	8
2023-08-10T12:00	28630	16	-44.0	-79.0	119	8
2023-08-10T12:00	28661	16	-44.2	-79.1	121	8
2023-08-10T12:00	28698	16	-44.3	-79.2	122	8
2023-08-10T12:00	28717	16	-44.3	-79.2	122	8
2023-08-10T12:00	28734	16	-44.2	-79.1	121	8
2023-08-10T12:00	28781	16	-44.3	-79.2	119	8
2023-08-10T12:00	28793	15	-44.4	-79.3	116	8
2023-08-10T12:00	28827	15	-44.4	-79.3	114	9
2023-08-10T12:00	28841	15	-44.4	-79.3	111	9
2023-08-10T12:00	28888	15	-44.4	-79.3	109	9
2023-08-10T12:00	28899	15	-44.3	-80.0	107	10
2023-08-10T12:00	28932	15	-44.3	-80.0	105	10
2023-08-10T12:00	28955	15	-44.2	-79.9	105	10
2023-08-10T12:00	29015	15	-44.0	-79.8	104	10
2023-08-10T12:00	29058	15	-43.4	-79.4	104	9
2023-08-10T12:00	29084	15	-43.3	-79.3	105	8
2023-08-10T12:00	29092	15	-43.1		106	7
2023-08-10T12:00	29131	15	-42.9	-79.0	108	7
2023-08-10T12:00	29147	15	-42.7	-78.9	113	6
2023-08-10T12:00	29185	15	-42.7	-78.9	118	6
2023-08-10T12:00	29207	15	-42.8	-78.9	124	5
2023-08-10T12:00	29255	15	-42.9	-79.0	131	5
2023-08-10T12:00	29271	14	-43.1		137	5
2023-08-10T12:00	29300	14	-43.1		141	5
2023-08-10T12:00	29326	14	-43.1		142	5
2023-08-10T12:00	29347	14	-43.0	-79.1	140	5
2023-08-10T12:00	29376	14	-43.0	-79.1	133	4
2023-08-10T12:00	29393	14	-43.0	-79.1	123	4
2023-08-10T12:00	29439	14	-42.9	-79.0	112	4
2023-08-10T12:00	29448	14	-42.7	-78.9	103	4
2023-08-10T12:00	29492	14	-42.5	-78.7	97	5
2023-08-10T12:00	29510	14	-42.4	-78.7	93	5
2023-08-10T12:00	29552	14	-42.4	-78.7	91	6
2023-08-10T12:00	29561	14	-42.3		89	7
2023-08-10T12:00	29588	14	-42.2	-78.5	88	8
2023-08-10T12:00	29614	14	-42.2	-78.5	87	9
2023-08-10T12:00	29633	14	-42.2	-78.5	86	9
2023-08-10T12:00	29674	14	-42.2	-78.5	86	10
2023-08-10T12:00	29709	14	-42.1	-79.4	85	10
2023-08-10T12:00	29721	14	-41.9	-79.2	84	10
2023-08-10T12:00	29756	13	-41.7	-79.1	83	9
2023-08-10T12:00	29776	13	-41.5	-79.0	83	9
2023-08-10T12:00	29793	13	-41.4	-78.9	82	8
2023-08-10T12:00	29828	13	-41.2	-78.8	84	7
2023-08-10T12:00	29853	13	-41.1	-78.7	87	6
2023-08-10T12:00	29874	13	-41.0	-78.6	93	6
2023-08-10T12:00	29886	13	-41.0	-78.6	100	5
2023-08-10T12:00	29924	13	-41.1	-78.7	108	5
2023-08-10T12:00	29961	13	-41.2	-78.8	113	5
2023-08-10T12:00	29992	13	-41.2	-78.8	114	5
2023-08-10T12:00	30002	13	-41.1	-78.7	112	5
2023-08-10T12:00	30028	13	-40.9		108	6
2023-08-10T12:00	30063	13	-40.8	-78.5	104	6
2023-08-10T12:00	30082	13	-40.8	-78.5	100	7
2023-08-10T12:00	30114	13	-40.8	-78.5	97	7
2023-08-10T12:00	30145	13	-40.8	-78.5	95	8
2023-08-10T12:00	30178	13	-40.9		96	9
2023-08-10T12:00	30189	13	-40.9		97	9
2023-08-10T12:00	30221	13	-40.9		100	9
2023-08-10T12:00	30248	13	-40.9		104	10
2023-08-10T12:00	30272	12	-40.9		107	10
2023-08-10T12:00	30280	12	-40.8	-78.5	111	10
2023-08-10T12:00	30327	12	-40.6	-78.3	113	10
2023-08-10T12:00	30349	12	-40.5	-78.3	117	9
2023-08-10T12:00	30384	12	-40.3	-78.1	120	9
2023-08-10T12:00	30401	12	-40.1	-78.0	125	8
2023-08-10T12:00	30448	12	-40.0	-77.9	131	8
2023-08-10T12:00	30477	12	-39.6	-77.6	143	7
2023-08-10T12:00	30509	12	-39.5	-77.6	149	6
2023-08-10T12:00	30555	12	-39.4	-77.5	155	5
2023-08-10T12:00	30568	12	-39.3	-77.4	158	5
2023-08-10T12:00	30602	12	-39.2	-77.3	158	4
2023-08-10T12:00	30638	12	-39.1	-77.3	152	3
2023-08-10T12:00	30661	12	-38.9	-77.1	139	3
2023-08-10T12:00	30689	12	-38.7	-77.0	123	3
2023-08-10T12:00	30721	12	-38.7	-77.0	113	4
2023-08-10T12:00	30753	12	-38.8	-77.1	109	5
2023-08-10T12:00	30773	12	-38.8	-77.1	109	5
2023-08-10T12:00	30810	12	-38.8	-77.1	111	6
2023-08-10T12:00	30817	11	-38.8	-77.1	115	6
2023-08-10T12:00	30862	11	-38.8	-77.1	119	6
2023-08-10T12:00	30887	11	-38.8	-77.1	123	6
2023-08-10T12:00	30951	11	-38.8	-77.1	126	6
2023-08-10T12:00	30989	11	-38.8	-77.1	127	6
2023-08-10T12:00	30996	11	-38.6	-76.9	128	6
2023-08-10T12:00	31020	11	-38.5	-78.0	128	6
2023-08-10T12:00	31046	11	-38.4	-77.9	129	6
2023-08-10T12:00	31104	11	-38.4	-77.9	129	6
2023-08-10T12:00	31116	11	-38.4	-77.9	129	6
2023-08-10T12:00	31142	11	-38.4	-77.9	128	6
2023-08-10T12:00	31189	11	-38.2	-77.8	126	7
2023-08-10T12:00	31209	11	-38.1	-77.7	123	7
2023-08-10T12:00	31245	11	-38.1	-77.7	120	8
2023-08-10T12:00	31266	11	-38.2	-77.8	118	9
2023-08-10T12:00	31295	11	-38.3	-77.9	116	10
2023-08-10T12:00	31314	11	-38.3	-76.7	115	11
2023-08-10T12:00	31350	11	-38.3	-76.7	115	12
2023-08-10T12:00	31398	11	-38.4	-76.8	116	12
2023-08-10T12:00	31428	11	-38.5	-78.0	116	12
2023-08-10T12:00	31461	10	-38.3	-77.9	117	12
2023-08-10T12:00	31471	10	-38.0	-77.6	117	11
2023-08-10T12:00	31511	10	-37.7	-77.4	117	10
2023-08-10T12:00	31543	10	-37.7	-77.4	117	9
2023-08-10T12:00	31564	10	-37.8	-77.5	117	8
2023-08-10T12:00	31607	10	-38.0	-77.6	119	7
2023-08-10T12:00	31611	10	-38.0	-77.6	120	6
2023-08-10T12:00	31656	10	-38.0	-77.6	122	5
2023-08-10T12:00	31672	10	-38.0	-77.6	121	5
2023-08-10T12:00	31720	10	-38.1	-77.7	119	5
2023-08-10T12:00	31736	10	-38.0	-77.6	117	5
2023-08-10T12:00	31758	10	-37.9	-77.6	115	5
2023-08-10T12:00	31791	10	-37.9	-77.6	115	6
2023-08-10T12:00	31824	10	-38.0	-77.6	116	7
2023-08-10T12:00	31851	10	-38.0	-77.6	118	7
2023-08-10T12:00	31871	10	-38.0	-77.6	120	8
2023-08-10T12:00	31882	10	-38.0	-77.6	123	9
2023-08-10T12:00	31923	10	-38.0	-77.6	125	9
2023-08-10T12:00	31973	10	-37.9	-77.6	126	10
2023-08-10T12:00	31983	10	-37.8	-77.5	127	10
2023-08-10T12:00	32007	10	-37.8	-77.5	127	10
2023-08-10T12:00	32026	10	-37.8	-77.5	126	10
2023-08-10T12:00	32041	10	-37.8	-77.5	125	10
2023-08-10T12:00	32102	10	-37.9	-77.6	122	10
2023-08-10T12:00	32113	10	-37.8	-77.5	120	11
2023-08-10T12:00	32128	10	-37.7	-77.4	119	11
2023-08-10T12:00	32143	9	-37.5	-77.3	119	11
2023-08-10T12:00	32197	9	-37.4	-77.2	119	11
2023-08-10T12:00	32221	9	-37.2	-77.1	120	11
2023-08-10T12:00	32287	9	-37.0	-77.0	119	10
2023-08-10T12:00	32304	9	-36.6	-76.7	115	8
2023-08-10T12:00	32327	9	-36.5	-76.6	109	7
2023-08-10T12:00	32359	9	-36.3	-76.5	100	6
2023-08-10T12:00	32376	9	-36.3	-76.5	86	6
2023-08-10T12:00	32392	9	-36.4	-76.5	70	6
2023-08-10T12:00	32453	9	-36.3	-76.5	56	6
2023-08-10T12:00	32485	9	-36.2	-76.4	46	7
2023-08-10T12:00	32501	9	-36.0	-76.3	41	8
2023-08-10T12:00	32508	9	-35.6	-76.0	39	8
2023-08-10T12:00	32565	9	-35.3	-75.8	41	9
2023-08-10T12:00	32583	9	-35.1	-75.6	44	8
2023-08-10T12:00	32616	9	-35.1	-75.6	50	8
2023-08-10T12:00	32646	9	-35.1	-75.6	57	8
2023-08-10T12:00	32675	9	-35.2	-75.7	65	7
2023-08-10T12:00	32692	9	-35.3	-75.8	73	7
2023-08-10T12:00	32758	9	-35.4	-75.8	82	7
2023-08-10T12:00	32767	9	-35.7	-76.1	96	8
2023-08-10T12:00	32800	9	-35.8	-76.1	102	8
2023-08-10T12:00	32850	9	-35.7	-76.1	107	8
2023-08-10T12:00	32869	9	-35.6	-76.0	111	8
2023-08-10T12:00	32874	9	-35.5	-75.9	112	8
2023-08-10T12:00	32940	9	-35.4	-75.8	111	8
2023-08-10T12:00	32947	8	-35.4	-75.8	107	7
2023-08-10T12:00	33004	8	-35.3	-75.8	101	7
2023-08-10T12:00	33059	8	-35.1	-75.6	94	7
2023-08-10T12:00	33081	8	-34.4	-75.2	84	8
2023-08-10T12:00	33131	8	-33.7	-74.7	81	9
2023-08-10T12:00	33147	8	-33.5	-74.5	81	9
2023-08-10T12:00	33167	8	-33.4	-74.5	81	9
2023-08-10T12:00	33200	8	-33.4	-74.5	81	9
2023-08-10T12:00	33253	8	-33.5	-74.5	81	9
2023-08-10T12:00	33265	8	-33.5	-74.5	80	9
2023-08-10T12:00	33297	8	-33.5	-74.5	79	9
2023-08-10T18:00	114	1007	20.1	10.4	324	2
2023-08-10T18:00	142	1004	20.0	8.9	333	2
2023-08-10T18:00	176	1000	19.5	8.1	325	2
2023-08-10T18:00	202	997	19.2	7.9	318	3
2023-08-10T18:00	227	994	18.8	7.6	312	3
2023-08-10T18:00	251	991	18.5	7.5	309	3
2023-08-10T18:00	276	988	18.3	7.4	309	4
2023-08-10T18:00	298	986	18.1	7.4	310	4
2023-08-10T18:00	318	983	17.9	7.4	311	4
2023-08-10T18:00	343	981	17.6	7.2	311	4
2023-08-10T18:00	370	978	17.4	7.3	309	4
2023-08-10T18:00	392	975	17.2	7.2	305	4
2023-08-10T18:00	417	972	16.9	7.2	301	4
2023-08-10T18:00	440	970	16.7	6.8	300	4
2023-08-10T18:00	464	967	16.5	6.8	300	4
2023-08-10T18:00	494	964	16.2	6.7	302	4
2023-08-10T18:00	517	961	16.0	6.8	303	4
2023-08-10T18:00	544	958	15.7	6.6	303	4
2023-08-10T18:00	567	955	15.5	6.7	302	4
2023-08-10T18:00	595	952	15.2	6.6	301	4
2023-08-10T18:00	623	949	15.0	6.6	300	4
2023-08-10T18:00	648	946	14.8	6.5	300	4
2023-08-10T18:00	672	943	14.5	6.4	301	4
2023-08-10T18:00	694	941	14.3		301	4
2023-08-10T18:00	716	938	14.1	6.3	301	4
2023-08-10T18:00	749	935	13.8	6.3	299	4
2023-08-10T18:00	775	932	13.6	6.2	295	5
2023-08-10T18:00	805	929	13.3	6.2	291	5
2023-08-10T18:00	833	926	13.0	6.1	288	5
2023-08-10T18:00	859	923	12.7	6.1	285	5
2023-08-10T18:00	887	919	12.5	5.9	282	5
2023-08-10T18:00	919	916	12.2	5.7	280	5
2023-08-10T18:00	946	913	12.0	5.7	278	5
2023-08-10T18:00	969	911	11.8	5.7	276	5
2023-08-10T18:00	995	908	11.6	5.6	273	5
2023-08-10T18:00	1018	905	11.4	5.5	270	5
2023-08-10T18:00	1044	903	11.1	5.3	266	6
2023-08-10T18:00	1073	899	10.9	5.1	263	6
2023-08-10T18:00	1100	896	10.7	5.0	259	6
2023-08-10T18:00	1126	894	10.5	5.0	257	6
2023-08-10T18:00	1151	891	10.2	4.8	256	6
2023-08-10T18:00	1178	888	10.0	4.6	256	6
2023-08-10T18:00	1203	885	9.8	4.7	256	6
2023-08-10T18:00	1230	883	9.5	4.7	257	6
2023-08-10T18:00	1254	880	9.4	4.6	257	6
2023-08-10T18:00	1279	877	9.1	4.6	256	7
2023-08-10T18:00	1310	874	8.8	4.4	254	7
2023-08-10T18:00	1336	871	8.6	4.5	252	7
2023-08-10T18:00	1366	868	8.3	4.5	250	7
2023-08-10T18:00	1393	865	8.0	4.4	248	6
2023-08-10T18:00	1420	863	7.8	4.2	246	6
2023-08-10T18:00	1448	860	7.5	4.1	244	6
2023-08-10T18:00	1473	857	7.3	4.0	243	6
2023-08-10T18:00	1502	854	7.0	3.9	242	6
2023-08-10T18:00	1531	851	6.7	3.9	242	6
2023-08-10T18:00	1559	848	6.5	3.8	243	7
2023-08-10T18:00	1580	846	6.3	3.8	244	7
2023-08-10T18:00	1607	843	6.1	3.8	245	7
2023-08-10T18:00	1630	841	5.9	3.5	245	7
2023-08-10T18:00	1653	838	5.7	3.6	245	7
2023-08-10T18:00	1675	836	5.4	3.4	244	8
2023-08-10T18:00	1702	834	5.2	3.2	243	8
2023-08-10T18:00	1724	831	5.0	3.1	243	8
2023-08-10T18:00	1748	829	4.9	2.9	244	8
2023-08-10T18:00	1772	826	4.7	2.7	246	8
2023-08-10T18:00	1794	824	4.6	2.5	248	8
2023-08-10T18:00	1817	822	4.3	2.4	251	8
2023-08-10T18:00	1842	819	4.1	2.1	252	8
2023-08-10T18:00	1870	816	3.9	2.2	254	8
2023-08-10T18:00	1897	814	3.7	1.4	254	7
2023-08-10T18:00	1921	811	3.5	1.2	253	8
2023-08-10T18:00	1947	809	3.3	1.0	252	8
2023-08-10T18:00	1974	806	3.0	0.7	251	8
2023-08-10T18:00	1999	804	2.8	0.7	250	8
2023-08-10T18:00	2024	801	2.6	0.7	250	9
2023-08-10T18:00	2049	799	2.3	0.4	251	9
2023-08-10T18:00	2072	796	2.1	0.5	253	9
2023-08-10T18:00	2095	794	1.9	0.4	255	8
2023-08-10T18:00	2115	792	1.7	0.2	256	8
2023-08-10T18:00	2134	790	1.6	-0.2	257	8
2023-08-10T18:00	2153	788	1.5	-0.8	257	7
2023-08-10T18:00	2175	786	1.3	-1.3	257	8
2023-08-10T18:00	2202	784	1.1	-1.6	257	8
2023-08-10T18:00	2230	781	0.9	-1.8	256	8
2023-08-10T18:00	2251	779	0.7	-2.0	256	8
2023-08-10T18:00	2280	776	0.5	-2.0	257	8
2023-08-10T18:00	2307	774	0.4	-2.0	259	8
2023-08-10T18:00	2331	771	0.2	-2.0	263	8
2023-08-10T18:00	2353	769	0.3	-2.1	267	8
2023-08-10T18:00	2379	767	0.7	-5.9	270	8
2023-08-10T18:00	2406	764	0.7	-6.1	271	9
2023-08-10T18:00	2433	762	0.8	-8.4	270	9
2023-08-10T18:00	2457	759	1.3	-12.4	269	9
2023-08-10T18:00	2484	757	1.5	-14.7	268	9
2023-08-10T18:00	2510	754	1.8	-13.8	267	9
2023-08-10T18:00	2538	752	1.6	-13.4	267	10
2023-08-10T18:00	2564	749	1.5	-12.9	268	10
2023-08-10T18:00	2588	747	1.3	-12.8	268	10
2023-08-10T18:00	2611	745	1.2	-12.7	268	10
2023-08-10T18:00	2636	742	0.9	-12.5	268	10
2023-08-10T18:00	2661	740	0.8	-12.5	269	10
2023-08-10T18:00	2684	738	0.8	-12.9	270	10
2023-08-10T18:00	2708	736	0.7	-13.2	272	10
2023-08-10T18:00	2732	734	0.6	-13.7	275	10
2023-08-10T18:00	2760	731	0.5	-14.5	278	10
2023-08-10T18:00	2788	729	0.4	-14.9	281	10
2023-08-10T18:00	2815	726	0.2	-15.3	282	10
2023-08-10T18:00	2840	724	0.1	-15.7	282	9
2023-08-10T18:00	2865	722	0.0	-16.6	283	9
2023-08-10T18:00	2892	719	0.0	-17.6	283	9
2023-08-10T18:00	2917	717	0.2	-17.7	285	9
2023-08-10T18:00	2944	715	0.1	-18.4	286	9
2023-08-10T18:00	2969	712	-0.1	-19.7	287	9
2023-08-10T18:00	2990	710	-0.1	-22.3	287	9
2023-08-10T18:00	3015	708	-0.2	-22.6	288	9
2023-08-10T18:00	3046	706	-0.3	-22.9	289	9
2023-08-10T18:00	3072	703	-0.5	-23.4	292	9
2023-08-10T18:00	3097	701	-0.7	-23.5	295	9
2023-08-10T18:00	3120	699	-0.8	-24.8	298	8
2023-08-10T18:00	3146	697	-1.0	-26.4	300	8
2023-08-10T18:00	3177	694	-1.2	-26.8	300	8
2023-08-10T18:00	3207	691	-1.4	-26.9	299	9
2023-08-10T18:00	3233	689	-1.7	-27.3	296	9
2023-08-10T18:00	3261	687	-1.8	-30.0	295	9
2023-08-10T18:00	3292	684	-1.8	-31.5	294	9
2023-08-10T18:00	3318	682	-1.9	-30.8	294	9
2023-08-10T18:00	3346	679	-2.1	-31.2	295	9
2023-08-10T18:00	3373	677	-2.2	-32.1	297	8
2023-08-10T18:00	3395	675	-2.4	-32.2	299	8
2023-08-10T18:00	3421	673	-2.4	-31.3	300	8
2023-08-10T18:00	3446	671	-2.6	-31.1	299	8
2023-08-10T18:00	3469	669	-2.7	-30.8	297	8
2023-08-10T18:00	3495	667	-2.8	-31.5	294	9
2023-08-10T18:00	3525	664	-2.8	-32.3	292	9
2023-08-10T18:00	3545	662	-2.9	-31.9	292	10
2023-08-10T18:00	3569	661	-3.1	-31.6	292	11
2023-08-10T18:00	3591	659	-3.2	-31.3	292	11
2023-08-10T18:00	3612	657	-3.2	-30.6	293	11
2023-08-10T18:00	3637	655	-3.3	-30.8	294	11
2023-08-10T18:00	3662	653	-3.4	-31.9	295	11
2023-08-10T18:00	3688	651	-3.5	-31.9	297	11
2023-08-10T18:00	3719	648	-3.7	-32.5	298	11
2023-08-10T18:00	3745	646	-3.9	-32.8	299	10
2023-08-10T18:00	3768	644	-4.1	-33.1	301	10
2023-08-10T18:00	3791	642	-4.2	-33.2	302	10
2023-08-10T18:00	3811	641	-4.4	-33.5	303	10
2023-08-10T18:00	3832	639	-4.5	-33.6	304	10
2023-08-10T18:00	3849	637	-4.7	-33.6	304	10
2023-08-10T18:00	3870	636	-4.7	-34.1	304	10
2023-08-10T18:00	3889	634	-4.8	-35.3	304	11
2023-08-10T18:00	3921	632	-4.9	-36.7	303	11
2023-08-10T18:00	3947	630	-5.0	-37.8	303	12
2023-08-10T18:00	3966	628	-5.0	-38.5	303	12
2023-08-10T18:00	3988	626	-5.0	-38.7	304	12
2023-08-10T18:00	4008	625	-4.9	-39.1	306	12
2023-08-10T18:00	4033	623	-5.0	-39.2	308	11
2023-08-10T18:00	4060	621	-5.0	-38.9	310	11
2023-08-10T18:00	4086	618	-5.0	-38.5	312	12
2023-08-10T18:00	4115	616	-4.9	-40.5	314	12
2023-08-10T18:00	4134	615	-4.8	-40.7	315	12
2023-08-10T18:00	4153	613	-4.8	-41.0	315	13
2023-08-10T18:00	4176	611	-5.0	-41.8	315	13
2023-08-10T18:00	4204	609	-5.1	-43.0	315	13
2023-08-10T18:00	4228	607	-4.8	-41.7	316	13
2023-08-10T18:00	4253	605	-4.7	-40.9	316	13
2023-08-10T18:00	4281	604	-4.7	-40.6	317	14
2023-08-10T18:00	4298	602	-4.7	-40.3	318	14
2023-08-10T18:00	4320	600	-4.7	-40.3	318	15
2023-08-10T18:00	4344	599	-4.7	-40.3	318	15
2023-08-10T18:00	4363	597	-4.7	-41.9	317	15
2023-08-10T18:00	4389	595	-4.5	-43.3	316	16
2023-08-10T18:00	4411	593	-4.6	-43.0	316	16
2023-08-10T18:00	4429	592	-4.6	-41.9	317	16
2023-08-10T18:00	4452	590	-4.8	-41.3	318	17
2023-08-10T18:00	4479	588	-4.8	-37.6	319	18
2023-08-10T18:00	4509	586	-4.9	-35.5	321	19
2023-08-10T18:00	4526	585	-5.1	-34.5	323	20
2023-08-10T18:00	4554	583	-5.0	-27.3	325	21
2023-08-10T18:00	4579	581	-4.8	-24.5	326	21
2023-08-10T18:00	4598	579	-4.8	-19.7	327	22
2023-08-10T18:00	4626	577	-4.9	-13.9	328	22
2023-08-10T18:00	4654	575	-5.0	-11.6	328	22
2023-08-10T18:00	4675	574	-5.1	-9.5	327	22
2023-08-10T18:00	4696	572	-5.2	-9.0	326	22
2023-08-10T18:00	4726	570	-5.5	-9.1	325	21
2023-08-10T18:00	4745	569	-5.6	-9.1	323	21
2023-08-10T18:00	4767	567	-5.7	-9.1	322	21
2023-08-10T18:00	4794	565	-5.8	-11.2	321	22
2023-08-10T18:00	4815	564	-5.7	-12.4	321	22
2023-08-10T18:00	4833	562	-5.8	-12.3	321	22
2023-08-10T18:00	4857	561	-5.9	-12.3	321	22
2023-08-10T18:00	4888	559	-6.1	-11.1	322	21
2023-08-10T18:00	4915	557	-6.3	-10.5	322	21
2023-08-10T18:00	4944	555	-6.5	-10.3	321	21
2023-08-10T18:00	4970	553	-6.5	-10.4	319	22
2023-08-10T18:00	4995	551	-6.6	-11.5	317	22
2023-08-10T18:00	5022	549	-6.7	-12.6	316	22
2023-08-10T18:00	5046	547	-6.8	-11.7	316	22
2023-08-10T18:00	5075	545	-6.8	-12.9	316	22
2023-08-10T18:00	5097	544	-6.7	-13.0	317	21
2023-08-10T18:00	5117	542	-6.8	-13.2	318	21
2023-08-10T18:00	5142	541	-7.0	-12.7	319	20
2023-08-10T18:00	5168	539	-7.2	-13.0	321	20
2023-08-10T18:00	5192	537	-7.2	-13.4	321	19
2023-08-10T18:00	5220	535	-7.3	-13.8	322	19
2023-08-10T18:00	5243	534	-7.4	-14.5	322	18
2023-08-10T18:00	5268	532	-7.5	-14.9	322	18
2023-08-10T18:00	5297	530	-7.7	-15.0	321	18
2023-08-10T18:00	5331	528	-7.9	-15.8	321	18
2023-08-10T18:00	5352	526	-8.0	-15.8	320	18
2023-08-10T18:00	5372	525	-8.2	-15.9	319	18
2023-08-10T18:00	5398	523	-8.3	-16.4	319	18
2023-08-10T18:00	5426	521	-8.4	-17.5	319	18
2023-08-10T18:00	5451	520	-8.5	-18.0	319	18
2023-08-10T18:00	5473	518	-8.6	-18.6	320	18
2023-08-10T18:00	5495	517	-8.7	-18.7	321	19
2023-08-10T18:00	5520	515	-8.8	-18.3	322	19
2023-08-10T18:00	5548	513	-8.9	-17.1	322	20
2023-08-10T18:00	5570	512	-9.1	-16.7	322	20
2023-08-10T18:00	5596	510	-9.3	-16.3	321	20
2023-08-10T18:00	5621	508	-9.5	-16.2	321	21
2023-08-10T18:00	5642	507	-9.7	-16.1	320	21
2023-08-10T18:00	5665	505	-9.9		320	21
2023-08-10T18:00	5689	504	-10.1	-16.0	320	21
2023-08-10T18:00	5714	502	-10.3	-15.9	320	21
2023-08-10T18:00	5740	501	-10.6	-15.5	320	21
2023-08-10T18:00	5763	499	-10.8	-15.4	321	21
2023-08-10T18:00	5787	498	-10.9	-16.1	321	21
2023-08-10T18:00	5810	496	-11.0	-16.5	322	21
2023-08-10T18:00	5837	494	-11.1	-16.8	322	21
2023-08-10T18:00	5866	492	-11.3	-16.8	322	21
2023-08-10T18:00	5891	491	-11.5	-16.8	323	21
2023-08-10T18:00	5929	489	-11.6	-17.1	323	21
2023-08-10T18:00	5954	487	-11.7	-17.2	322	20
2023-08-10T18:00	5977	485	-11.8	-17.3	323	20
2023-08-10T18:00	6005	484	-11.9	-17.0	323	20
2023-08-10T18:00	6032	482	-12.1	-17.0	325	20
2023-08-10T18:00	6065	480	-12.3	-17.1	326	20
2023-08-10T18:00	6089	478	-12.5	-17.2	327	20
2023-08-10T18:00	6114	477	-12.7	-17.2	328	20
2023-08-10T18:00	6146	475	-13.0	-17.3	329	20
2023-08-10T18:00	6169	473	-13.2	-17.4	329	20
2023-08-10T18:00	6194	472	-13.4	-17.5	329	20
2023-08-10T18:00	6215	470	-13.5	-17.5	328	20
2023-08-10T18:00	6237	469	-13.7	-17.7	328	20
2023-08-10T18:00	6259	468	-13.9	-17.8	328	20
2023-08-10T18:00	6283	466	-14.0	-18.1	327	20
2023-08-10T18:00	6308	465	-14.3	-18.4	326	20
2023-08-10T18:00	6330	463	-14.4	-18.9	325	20
2023-08-10T18:00	6354	462	-14.6	-18.9	324	20
2023-08-10T18:00	6384	460	-14.9	-19.4	323	20
2023-08-10T18:00	6416	458	-15.2	-19.7	322	20
2023-08-10T18:00	6441	457	-15.4	-19.8	323	20
2023-08-10T18:00	6469	455	-15.6	-20.1	324	20
2023-08-10T18:00	6497	453	-15.9	-20.5	325	20
2023-08-10T18:00	6518	452	-16.1	-20.7	326	20
2023-08-10T18:00	6544	450	-16.3	-20.7	326	20
2023-08-10T18:00	6572	449	-16.6	-20.8	325	20
2023-08-10T18:00	6605	447	-16.9	-20.9	324	20
2023-08-10T18:00	6634	445	-17.2	-21.0	323	20
2023-08-10T18:00	6660	443	-17.4	-21.0	322	20
2023-08-10T18:00	6685	442	-17.6	-21.8	322	20
2023-08-10T18:00	6709	441	-17.8	-22.6	321	20
2023-08-10T18:00	6733	439	-18.0	-24.0	321	20
2023-08-10T18:00	6756	438	-18.1	-25.9	320	20
2023-08-10T18:00	6778	437	-18.2	-27.7	318	20
2023-08-10T18:00	6805	435	-18.3	-29.9	317	19
2023-08-10T18:00	6830	433	-18.3	-34.1	315	19
2023-08-10T18:00	6865	432	-18.4	-34.4	314	19
2023-08-10T18:00	6889	430	-18.6	-34.1	314	20
2023-08-10T18:00	6915	429	-18.8	-34.5	315	20
2023-08-10T18:00	6946	427	-19.1	-34.6	315	20
2023-08-10T18:00	6970	425	-19.3	-34.2	316	20
2023-08-10T18:00	6994	424	-19.6	-33.8	316	20
2023-08-10T18:00	7017	423	-19.8	-33.1	315	21
2023-08-10T18:00	7046	421	-20.1	-33.2	314	21
2023-08-10T18:00	7075	419	-20.3	-34.4	313	21
2023-08-10T18:00	7104	418	-20.6	-34.5	312	21
2023-08-10T18:00	7131	416	-20.8	-33.9	312	21
2023-08-10T18:00	7154	415	-21.0	-33.8	311	21
2023-08-10T18:00	7178	414	-21.2	-33.9	311	21
2023-08-10T18:00	7201	412	-21.4	-34.2	310	21
2023-08-10T18:00	7222	411	-21.6	-34.8	311	21
2023-08-10T18:00	7247	410	-21.8	-35.1	311	21
2023-08-10T18:00	7271	408	-22.1	-34.9	312	21
2023-08-10T18:00	7303	407	-22.4	-34.7	313	20
2023-08-10T18:00	7326	405	-22.6	-35.0	313	20
2023-08-10T18:00	7353	404	-22.8	-36.2	314	20
2023-08-10T18:00	7378	402	-23.1	-36.5	314	20
2023-08-10T18:00	7406	401	-23.3	-37.6	313	20
2023-08-10T18:00	7431	400	-23.5	-38.7	313	20
2023-08-10T18:00	7456	398	-23.7	-38.3	313	19
2023-08-10T18:00	7482	397	-23.9	-38.0	313	19
2023-08-10T18:00	7517	395	-24.2	-38.1	314	19
2023-08-10T18:00	7543	394	-24.4	-40.4	314	19
2023-08-10T18:00	7568	392	-24.5	-39.6	313	19
2023-08-10T18:00	7597	391	-24.7	-39.8	313	19
2023-08-10T18:00	7631	389	-25.0	-39.7	314	19
2023-08-10T18:00	7652	388	-25.2	-41.4	315	19
2023-08-10T18:00	7676	386	-25.3	-41.4	316	19
2023-08-10T18:00	7697	385	-25.5	-41.2	317	20
2023-08-10T18:00	7721	384	-25.6	-41.9	318	20
2023-08-10T18:00	7745	383	-25.8	-42.4	318	20
2023-08-10T18:00	7772	381	-26.0	-42.4	318	20
2023-08-10T18:00	7794	380	-26.2	-42.8	317	20
2023-08-10T18:00	7815	379	-26.3	-43.3	317	19
2023-08-10T18:00	7837	378	-26.4	-44.2	316	19
2023-08-10T18:00	7859	377	-26.6		316	19
2023-08-10T18:00	7879	376	-26.7	-44.8	316	20
2023-08-10T18:00	7904	374	-26.8	-46.2	315	20
2023-08-10T18:00	7924	373	-26.9	-46.5	315	20
2023-08-10T18:00	7947	372	-27.1	-46.8	315	20
2023-08-10T18:00	7970	371	-27.3	-46.8	314	20
2023-08-10T18:00	7991	370	-27.5	-46.6	314	20
2023-08-10T18:00	8014	369	-27.6	-45.7	314	20
2023-08-10T18:00	8038	368	-27.6	-47.3	314	21
2023-08-10T18:00	8062	366	-27.7	-47.1	314	21
2023-08-10T18:00	8090	365	-27.9	-47.0	314	21
2023-08-10T18:00	8116	364	-28.0	-47.5	314	21
2023-08-10T18:00	8138	362	-28.2	-47.2	314	21
2023-08-10T18:00	8160	361	-28.3	-47.2	313	21
2023-08-10T18:00	8183	360	-28.4	-47.9	313	21
2023-08-10T18:00	8206	359	-28.6	-48.3	312	21
2023-08-10T18:00	8227	358	-28.7	-48.3	312	21
2023-08-10T18:00	8250	357	-28.9	-48.4	312	21
2023-08-10T18:00	8273	356	-29.1	-48.8	312	21
2023-08-10T18:00	8294	355	-29.0	-49.9	312	21
2023-08-10T18:00	8316	354	-29.0	-49.6	312	20
2023-08-10T18:00	8338	352	-29.2	-49.8	312	20
2023-08-10T18:00	8359	351	-29.4	-49.9	312	20
2023-08-10T18:00	8381	350	-29.5	-49.9	311	20
2023-08-10T18:00	8405	349	-29.7	-50.0	311	20
2023-08-10T18:00	8427	348	-29.8	-50.0	310	20
2023-08-10T18:00	8450	347	-30.0	-50.1	310	19
2023-08-10T18:00	8473	346	-30.1	-50.2	310	19
2023-08-10T18:00	8493	345	-30.2	-50.4	311	19
2023-08-10T18:00	8517	344	-30.4	-51.4	311	19
2023-08-10T18:00	8540	343	-30.5	-52.2	311	19
2023-08-10T18:00	8563	342	-30.7	-54.1	311	19
2023-08-10T18:00	8583	340	-30.8	-52.5	311	19
2023-08-10T18:00	8605	339	-30.9	-50.7	311	19
2023-08-10T18:00	8630	338	-31.1	-50.6	311	19
2023-08-10T18:00	8654	337	-31.3	-50.6	311	19
2023-08-10T18:00	8680	336	-31.6	-50.9	311	19
2023-08-10T18:00	8704	335	-31.8	-50.8	311	19
2023-08-10T18:00	8728	334	-32.0	-50.8	312	19
2023-08-10T18:00	8754	332	-32.2	-51.0	312	18
2023-08-10T18:00	8780	331	-32.4	-51.1	313	18
2023-08-10T18:00	8805	330	-32.6	-51.3	313	18
2023-08-10T18:00	8826	329	-32.7	-51.4	313	18
2023-08-10T18:00	8846	328	-32.9	-51.4	313	18
2023-08-10T18:00	8867	327	-33.1	-51.6	313	18
2023-08-10T18:00	8890	326	-33.3	-51.9	312	18
2023-08-10T18:00	8910	325	-33.4	-52.0	312	18
2023-08-10T18:00	8931	324	-33.6	-52.1	313	18
2023-08-10T18:00	8950	323	-33.7	-52.2	313	18
2023-08-10T18:00	8971	322	-33.9	-52.1	313	18
2023-08-10T18:00	8995	321	-34.1	-52.1	314	18
2023-08-10T18:00	9015	320	-34.3	-52.2	313	18
2023-08-10T18:00	9038	319	-34.5	-52.1	313	18
2023-08-10T18:00	9059	318	-34.8	-52.2	313	18
2023-08-10T18:00	9082	317	-35.0	-52.3	314	18
2023-08-10T18:00	9103	316	-35.2	-52.4	315	19
2023-08-10T18:00	9123	315	-35.3	-52.4	316	19
2023-08-10T18:00	9144	314	-35.5	-52.5	316	19
2023-08-10T18:00	9168	313	-35.7	-52.6	317	19
2023-08-10T18:00	9187	312	-35.9	-52.8	317	18
2023-08-10T18:00	9209	311	-36.0	-53.1	316	18
2023-08-10T18:00	9231	310	-36.1	-53.1	316	18
2023-08-10T18:00	9253	309	-36.3	-53.6	316	18
2023-08-10T18:00	9279	308	-36.4	-53.5	315	17
2023-08-10T18:00	9299	307	-36.6	-53.3	315	18
2023-08-10T18:00	9325	306	-36.9	-53.2	315	18
2023-08-10T18:00	9352	305	-37.1	-53.3	316	18
2023-08-10T18:00	9375	304	-37.2	-54.2	316	19
2023-08-10T18:00	9399	303	-37.4	-54.7	317	19
2023-08-10T18:00	9422	302	-37.6	-54.4	317	19
2023-08-10T18:00	9443	301	-37.7	-54.2	317	19
2023-08-10T18:00	9466	300	-37.9	-54.4	317	19
2023-08-10T18:00	9490	299	-38.1	-54.4	316	18
2023-08-10T18:00	9510	298	-38.2	-54.7	316	18
2023-08-10T18:00	9531	297	-38.2	-54.8	317	18
2023-08-10T18:00	9555	296	-38.4	-54.3	317	18
2023-08-10T18:00	9581	295	-38.6	-54.0	318	18
2023-08-10T18:00	9604	294	-38.8	-54.1	319	18
2023-08-10T18:00	9627	293	-38.9	-54.1	320	18
2023-08-10T18:00	9652	292	-39.2	-54.0	320	19
2023-08-10T18:00	9677	291	-39.4	-54.3	319	19
2023-08-10T18:00	9706	290	-39.6		318	19
2023-08-10T18:00	9727	289	-39.7	-55.8	317	19
2023-08-10T18:00	9749	288	-39.9	-55.5	317	19
2023-08-10T18:00	9771	287	-40.1	-55.3	317	19
2023-08-10T18:00	9792	286	-40.2	-55.1	317	19
2023-08-10T18:00	9812	285	-40.4	-55.0	318	19
2023-08-10T18:00	9835	284	-40.6	-54.9	319	19
2023-08-10T18:00	9856	283	-40.7	-54.6	319	20
2023-08-10T18:00	9880	282	-40.9	-54.7	319	20
2023-08-10T18:00	9906	281	-41.1	-54.7	319	20
2023-08-10T18:00	9929	280	-41.3	-54.7	319	20
2023-08-10T18:00	9953	280	-41.5	-54.7	318	20
2023-08-10T18:00	9973	279	-41.7	-54.9	317	20
2023-08-10T18:00	9995	278	-41.9	-55.0	316	19
2023-08-10T18:00	10017	277	-42.0	-55.3	316	19
2023-08-10T18:00	10043	276	-42.2	-55.5	315	19
2023-08-10T18:00	10067	275	-42.4	-55.8	314	19
2023-08-10T18:00	10090	274	-42.5	-56.1	314	19
2023-08-10T18:00	10111	273	-42.6	-56.1	315	19
2023-08-10T18:00	10133	272	-42.8	-56.3	315	19
2023-08-10T18:00	10153	271	-43.0	-56.3	316	19
2023-08-10T18:00	10175	270	-43.1	-56.4	316	19
2023-08-10T18:00	10193	270	-43.2	-56.6	317	19
2023-08-10T18:00	10212	269	-43.3	-57.0	317	20
2023-08-10T18:00	10235	268	-43.5	-57.5	318	20
2023-08-10T18:00	10255	267	-43.6		318	20
2023-08-10T18:00	10277	266	-43.7	-58.6	319	20
2023-08-10T18:00	10297	266	-43.6	-60.0	319	20
2023-08-10T18:00	10317	265	-43.8	-60.1	320	20
2023-08-10T18:00	10336	264	-43.9	-60.6	320	20
2023-08-10T18:00	10356	263	-44.0	-61.1	320	20
2023-08-10T18:00	10376	262	-44.1	-61.5	319	20
2023-08-10T18:00	10397	262	-44.2	-61.6	319	21
2023-08-10T18:00	10419	261	-44.3	-61.8	318	21
2023-08-10T18:00	10438	260	-44.4	-62.0	318	21
2023-08-10T18:00	10459	259	-44.5	-62.3	318	21
2023-08-10T18:00	10481	258	-44.5	-62.3	317	21
2023-08-10T18:00	10502	258	-44.5	-62.4	317	22
2023-08-10T18:00	10523	257	-44.6	-62.6	317	22
2023-08-10T18:00	10547	256	-44.9	-62.8	317	22
2023-08-10T18:00	10571	255	-45.0	-62.9	317	22
2023-08-10T18:00	10596	254	-45.2	-63.0	317	22
2023-08-10T18:00	10617	253	-45.3	-63.1	316	22
2023-08-10T18:00	10640	252	-45.5	-63.2	316	23
2023-08-10T18:00	10661	252	-45.6	-63.3	316	23
2023-08-10T18:00	10682	251	-45.8	-63.4	315	23
2023-08-10T18:00	10704	250	-46.0	-63.5	315	23
2023-08-10T18:00	10726	249	-46.1	-63.6	315	23
2023-08-10T18:00	10749	248	-46.2	-63.6	315	23
2023-08-10T18:00	10770	247	-46.2	-63.5	316	23
2023-08-10T18:00	10794	247	-46.4	-63.7	316	23
2023-08-10T18:00	10815	246	-46.5	-63.8	317	23
2023-08-10T18:00	10838	245	-46.6	-63.7	318	23
2023-08-10T18:00	10862	244	-46.7	-63.7	319	22
2023-08-10T18:00	10884	243	-46.9	-63.8	320	22
2023-08-10T18:00	10905	242	-47.0	-63.9	321	22
2023-08-10T18:00	10930	242	-47.2	-63.9	322	22
2023-08-10T18:00	10952	241	-47.3	-63.9	322	22
2023-08-10T18:00	10975	240	-47.5	-63.9	322	22
2023-08-10T18:00	10998	239	-47.7	-63.8	322	22
2023-08-10T18:00	11020	238	-47.9	-63.9	321	22
2023-08-10T18:00	11045	237	-48.1	-64.0	321	22
2023-08-10T18:00	11069	237	-48.3	-64.0	321	22
2023-08-10T18:00	11091	236	-48.5	-64.1	322	22
2023-08-10T18:00	11114	235	-48.7	-64.2	322	21
2023-08-10T18:00	11137	234	-48.9	-64.3	322	21
2023-08-10T18:00	11161	233	-49.1		322	21
2023-08-10T18:00	11186	232	-49.2	-64.7	322	20
2023-08-10T18:00	11210	231	-49.3	-65.0	322	20
2023-08-10T18:00	11236	231	-49.2	-65.0	322	20
2023-08-10T18:00	11259	230	-49.4	-65.2	321	20
2023-08-10T18:00	11283	229	-49.4	-65.2	320	20
2023-08-10T18:00	11308	228	-49.5	-65.3	319	20
2023-08-10T18:00	11330	227	-49.7	-65.4	318	20
2023-08-10T18:00	11354	226	-49.9	-65.5	317	20
2023-08-10T18:00	11378	226	-50.0	-65.6	317	20
2023-08-10T18:00	11401	225	-50.2	-65.9	316	21
2023-08-10T18:00	11423	224	-50.3	-66.1	317	21
2023-08-10T18:00	11445	223	-50.3	-66.0	317	21
2023-08-10T18:00	11470	223	-50.4	-65.9	317	22
2023-08-10T18:00	11491	222	-50.6	-65.9	318	22
2023-08-10T18:00	11515	221	-50.7	-66.2	318	22
2023-08-10T18:00	11540	220	-50.5	-66.6	317	22
2023-08-10T18:00	11563	219	-50.6	-66.9	317	22
2023-08-10T18:00	11585	219	-50.8	-66.9	317	22
2023-08-10T18:00	11607	218	-51.0	-66.9	317	21
2023-08-10T18:00	11627	217	-51.3	-67.1	316	21
2023-08-10T18:00	11648	216	-51.4	-67.3	315	21
2023-08-10T18:00	11671	216	-51.5	-67.4	315	21
2023-08-10T18:00	11690	215	-51.6	-67.5	314	21
2023-08-10T18:00	11713	214	-51.7	-67.7	314	22
2023-08-10T18:00	11736	214	-51.8	-68.0	315	22
2023-08-10T18:00	11755	213	-51.9	-68.3	315	23
2023-08-10T18:00	11774	212	-51.9	-68.6	316	23
2023-08-10T18:00	11795	212	-51.8	-69.0	317	23
2023-08-10T18:00	11819	211	-51.7	-69.4	318	23
2023-08-10T18:00	11838	210	-51.6	-69.6	319	23
2023-08-10T18:00	11861	209	-51.6	-69.9	320	23
2023-08-10T18:00	11882	209	-51.6	-70.2	320	23
2023-08-10T18:00	11900	208	-51.5	-70.5	320	22
2023-08-10T18:00	11923	208	-51.1	-70.6	319	22
2023-08-10T18:00	11940	207	-50.9	-70.1	319	22
2023-08-10T18:00	11962	206	-50.8	-69.5	318	21
2023-08-10T18:00	11981	206	-50.9	-69.3	317	21
2023-08-10T18:00	12001	205	-50.9	-69.5	317	21
2023-08-10T18:00	12019	204	-50.7	-69.7	316	21
2023-08-10T18:00	12041	204	-50.7	-70.0	316	21
2023-08-10T18:00	12062	203	-50.8	-70.1	315	21
2023-08-10T18:00	12082	202	-50.9	-70.3	315	21
2023-08-10T18:00	12102	202	-51.0	-70.8	316	21
2023-08-10T18:00	12122	201	-51.0	-71.3	316	21
2023-08-10T18:00	12144	201	-50.9	-71.9	318	22
2023-08-10T18:00	12164	200	-50.7	-72.5	319	22
2023-08-10T18:00	12184	199	-50.4	-72.8	321	21
2023-08-10T18:00	12204	199	-50.0	-72.4	322	21
2023-08-10T18:00	12224	198	-49.9	-71.8	324	21
2023-08-10T18:00	12245	197	-49.9	-71.4	325	20
2023-08-10T18:00	12266	197	-49.9	-71.1	325	20
2023-08-10T18:00	12285	196	-49.9	-70.8	326	20
2023-08-10T18:00	12308	196	-50.0	-70.7	326	19
2023-08-10T18:00	12329	195	-50.2	-70.6	326	19
2023-08-10T18:00	12351	194	-50.2		327	19
2023-08-10T18:00	12374	194	-50.4	-70.4	326	18
2023-08-10T18:00	12395	193	-50.5	-70.2	326	18
2023-08-10T18:00	12417	192	-50.6	-70.3	326	18
2023-08-10T18:00	12440	192	-50.7	-70.4	325	18
2023-08-10T18:00	12461	191	-50.7	-70.5	325	19
2023-08-10T18:00	12482	190	-50.8	-70.8	325	19
2023-08-10T18:00	12504	190	-50.8	-71.0	325	19
2023-08-10T18:00	12528	189	-50.8	-71.2	324	19
2023-08-10T18:00	12550	188	-50.9	-71.4	324	20
2023-08-10T18:00	12571	188	-51.0	-71.6	324	20
2023-08-10T18:00	12592	187	-51.1	-71.8	325	20
2023-08-10T18:00	12616	187	-51.3	-72.2	326	20
2023-08-10T18:00	12638	186	-51.1	-72.5	326	20
2023-08-10T18:00	12661	185	-50.7	-73.0	326	20
2023-08-10T18:00	12690	184	-50.5	-73.6	325	20
2023-08-10T18:00	12714	184	-50.5	-73.9	325	20
2023-08-10T18:00	12742	183	-50.8	-74.2	324	20
2023-08-10T18:00	12764	182	-50.9	-74.1	323	20
2023-08-10T18:00	12787	182	-51.1	-74.4	322	20
2023-08-10T18:00	12809	181	-51.0	-74.7	322	20
2023-08-10T18:00	12832	180	-50.9	-74.9	321	20
2023-08-10T18:00	12855	180	-51.0	-75.4	320	20
2023-08-10T18:00	12875	179	-51.0	-75.8	319	21
2023-08-10T18:00	12900	179	-50.9	-76.4	318	21
2023-08-10T18:00	12921	178	-50.7	-76.7	317	21
2023-08-10T18:00	12945	177	-50.6	-76.8	316	22
2023-08-10T18:00	12967	177	-50.8	-77.0	315	22
2023-08-10T18:00	12992	176	-50.9	-77.1	315	22
2023-08-10T18:00	13013	175	-51.1	-77.0	315	22
2023-08-10T18:00	13036	175	-51.1	-77.0	315	22
2023-08-10T18:00	13060	174	-51.2	-77.3	316	22
2023-08-10T18:00	13082	174	-51.1	-77.2	317	22
2023-08-10T18:00	13105	173	-51.1	-77.2	319	21
2023-08-10T18:00	13129	172	-51.1	-77.5	320	21
2023-08-10T18:00	13154	172	-51.1	-77.8	321	20
2023-08-10T18:00	13176	171	-51.1	-77.8	322	20
2023-08-10T18:00	13201	170	-51.2	-78.1	322	19
2023-08-10T18:00	13225	170	-51.2	-78.1	323	19
2023-08-10T18:00	13248	169	-51.4	-78.3	322	18
2023-08-10T18:00	13271	169	-51.6	-78.1	322	18
2023-08-10T18:00	13295	168	-51.7	-78.2	321	17
2023-08-10T18:00	13318	167	-51.9	-78.4	320	17
2023-08-10T18:00	13340	167	-52.0	-78.5	319	16
2023-08-10T18:00	13363	166	-52.1	-78.5	317	16
2023-08-10T18:00	13386	166	-52.0	-78.7	316	16
2023-08-10T18:00	13405	165	-52.0	-78.7	315	15
2023-08-10T18:00	13427	165	-52.0	-79.0	314	16
2023-08-10T18:00	13449	164	-51.8	-79.2	314	16
2023-08-10T18:00	13469	164	-51.8	-79.2	315	16
2023-08-10T18:00	13489	163	-51.6	-79.3	315	17
2023-08-10T18:00	13511	163	-51.2	-79.3	316	17
2023-08-10T18:00	13533	162	-51.0	-79.9	318	17
2023-08-10T18:00	13556	161	-50.5	-79.9	319	18
2023-08-10T18:00	13577	161	-50.4	-79.8	321	17
2023-08-10T18:00	13600	160	-50.3	-79.8	322	17
2023-08-10T18:00	13621	160	-50.4	-79.8	323	17
2023-08-10T18:00	13644	159	-50.3	-80.2	324	16
2023-08-10T18:00	13668	159	-50.0	-80.0	324	15
2023-08-10T18:00	13692	158	-49.9	-79.9	324	15
2023-08-10T18:00	13714	158	-50.0	-80.4	323	15
2023-08-10T18:00	13735	157	-50.1	-80.5	321	14
2023-08-10T18:00	13757	157	-49.8	-80.3	319	15
2023-08-10T18:00	13780	156	-49.5	-80.5	317	15
2023-08-10T18:00	13799	156	-49.4	-80.5	315	15
2023-08-10T18:00	13820	155	-49.3	-80.4	314	15
2023-08-10T18:00	13842	155	-49.1	-80.2	313	14
2023-08-10T18:00	13861	154	-48.9	-80.6	312	14
2023-08-10T18:00	13888	153	-48.5	-80.3	311	13
2023-08-10T18:00	13914	153	-47.9	-79.9	310	13
2023-08-10T18:00	13936	152	-47.7	-79.7	310	12
2023-08-10T18:00	13962	152	-48.0	-79.9	310	11
2023-08-10T18:00	13985	151	-48.2	-80.1	310	11
2023-08-10T18:00	14008	151	-48.3	-80.2	310	11
2023-08-10T18:00	14031	150	-48.5	-80.3	309	10
2023-08-10T18:00	14053	150	-48.7	-79.9	307	10
2023-08-10T18:00	14076	149	-48.9	-80.1	306	10
2023-08-10T18:00	14098	149	-49.0	-80.2	304	11
2023-08-10T18:00	14122	148	-49.1	-80.2	302	11
2023-08-10T18:00	14143	148	-49.2	-80.3	301	11
2023-08-10T18:00	14165	147	-49.2	-80.3	300	11
2023-08-10T18:00	14190	147	-49.3	-80.4	299	10
2023-08-10T18:00	14211	146	-49.4	-80.5	298	10
2023-08-10T18:00	14237	146	-49.6	-80.6	296	11
2023-08-10T18:00	14259	145	-49.6	-80.6	294	11
2023-08-10T18:00	14285	144	-49.3	-80.4	292	11
2023-08-10T18:00	14309	144	-49.4	-80.5	291	12
2023-08-10T18:00	14332	143	-49.6	-80.6	289	12
2023-08-10T18:00	14359	143	-49.8	-80.3	288	13
2023-08-10T18:00	14384	142	-50.1	-80.5	287	13
2023-08-10T18:00	14406	142	-50.3	-80.6	286	14
2023-08-10T18:00	14427	141	-50.4	-80.7	285	14
2023-08-10T18:00	14449	141	-50.4	-80.7	285	14
2023-08-10T18:00	14468	140	-50.2	-81.0	286	14
2023-08-10T18:00	14491	140	-50.0	-80.9	287	13
2023-08-10T18:00	14514	139	-49.8	-80.8	289	13
2023-08-10T18:00	14537	139	-49.9	-80.8	291	13
2023-08-10T18:00	14560	138	-50.0	-80.9	294	12
2023-08-10T18:00	14586	138	-50.1	-81.0	296	12
2023-08-10T18:00	14610	137	-50.1	-81.0	299	11
2023-08-10T18:00	14631	137	-50.1	-81.0	301	11
2023-08-10T18:00	14655	137	-50.1	-81.0	302	11
2023-08-10T18:00	14676	136	-50.2	-81.0	304	11
2023-08-10T18:00	14698	136	-50.3	-81.1	306	11
2023-08-10T18:00	14718	135	-50.2	-81.0	308	11
2023-08-10T18:00	14744	135	-50.3	-80.6	310	12
2023-08-10T18:00	14766	134	-50.4	-80.7	313	12
2023-08-10T18:00	14789	134	-50.5	-81.3	315	12
2023-08-10T18:00	14812	133	-50.6	-81.3	317	12
2023-08-10T18:00	14835	133	-50.8	-81.0	318	12
2023-08-10T18:00	14858	132	-50.9	-81.1	319	12
2023-08-10T18:00	14883	132	-51.1	-81.2	319	12
2023-08-10T18:00	14905	131	-51.1	-81.2	319	12
2023-08-10T18:00	14926	131	-51.0	-81.2	318	11
2023-08-10T18:00	14951	130	-51.1	-81.2	317	11
2023-08-10T18:00	14974	130	-51.2	-81.3	316	11
2023-08-10T18:00	14997	130	-51.2	-81.3	315	10
2023-08-10T18:00	15020	129	-51.2	-81.3	314	10
2023-08-10T18:00	15042	129	-51.2	-81.3	312	10
2023-08-10T18:00	15065	128	-51.3	-81.4	311	10
2023-08-10T18:00	15087	128	-51.4	-81.5	309	11
2023-08-10T18:00	15111	127	-51.5	-81.5	308	11
2023-08-10T18:00	15133	127	-51.7	-81.7	307	12
2023-08-10T18:00	15155	126	-51.7	-81.7	307	12
2023-08-10T18:00	15179	126	-51.6	-81.2	307	12
2023-08-10T18:00	15202	125	-51.6	-81.2	307	13
2023-08-10T18:00	15226	125	-51.8	-81.3	308	13
2023-08-10T18:00	15251	125	-52.0	-81.5	309	13
2023-08-10T18:00	15276	124	-52.2	-81.6	311	14
2023-08-10T18:00	15299	124	-52.3	-81.7	312	14
2023-08-10T18:00	15326	123	-52.3	-81.7	314	14
2023-08-10T18:00	15347	123	-52.4	-81.8	315	14
2023-08-10T18:00	15372	122	-52.3	-81.7	316	14
2023-08-10T18:00	15393	122	-52.2	-81.6	316	14
2023-08-10T18:00	15416	121	-52.3	-81.7	316	13
2023-08-10T18:00	15438	121	-52.2	-82.1	316	13
2023-08-10T18:00	15462	121	-52.2	-82.1	316	13
2023-08-10T18:00	15483	120	-52.2	-82.1	317	13
2023-08-10T18:00	15504	120	-52.3	-82.1	318	13
2023-08-10T18:00	15528	119	-52.3	-82.1	320	13
2023-08-10T18:00	15552	119	-52.4	-82.2	321	13
2023-08-10T18:00	15574	118	-52.5	-82.3	322	13
2023-08-10T18:00	15599	118	-52.5	-82.3	323	13
2023-08-10T18:00	15621	118	-52.4	-82.2	324	13
2023-08-10T18:00	15643	117	-52.0	-82.4	325	12
2023-08-10T18:00	15667	117	-51.9	-82.3	326	12
2023-08-10T18:00	15690	116	-52.0	-82.4	327	12
2023-08-10T18:00	15713	116	-52.2	-82.1	328	12
2023-08-10T18:00	15739	116	-52.4	-82.2	330	12
2023-08-10T18:00	15760	115	-52.6	-82.4	332	12
2023-08-10T18:00	15785	115	-52.9	-82.6	334	11
2023-08-10T18:00	15808	114	-53.0	-82.2	337	11
2023-08-10T18:00	15831	114	-53.2	-82.4	339	11
2023-08-10T18:00	15852	113	-53.4	-82.5	340	11
2023-08-10T18:00	15876	113	-53.4	-82.5	342	11
2023-08-10T18:00	15895	113	-53.4	-82.5	343	11
2023-08-10T18:00	15919	112	-53.5	-82.6	343	11
2023-08-10T18:00	15941	112	-53.6	-82.7	342	11
2023-08-10T18:00	15966	112	-53.8	-82.8	340	11
2023-08-10T18:00	15988	111	-53.9	-83.3	338	11
2023-08-10T18:00	16014	111	-53.8	-83.3	335	11
2023-08-10T18:00	16037	110	-53.6	-83.1	333	11
2023-08-10T18:00	16058	110	-53.5	-83.0	331	11
2023-08-10T18:00	16081	109	-53.6	-83.1	330	11
2023-08-10T18:00	16106	109	-53.7	-83.7	330	12
2023-08-10T18:00	16127	109	-53.4	-83.4	329	12
2023-08-10T18:00	16149	108	-53.0	-83.1	329	12
2023-08-10T18:00	16173	108	-52.8	-83.5	328	12
2023-08-10T18:00	16194	108	-52.8	-83.0	328	12
2023-08-10T18:00	16218	107	-53.1	-83.2	327	12
2023-08-10T18:00	16241	107	-53.2	-83.3	326	12
2023-08-10T18:00	16265	106	-53.4	-83.4	326	12
2023-08-10T18:00	16286	106	-53.6	-83.1	326	11
2023-08-10T18:00	16308	106	-53.8	-83.3	327	11
2023-08-10T18:00	16332	105	-54.0	-83.4	329	11
2023-08-10T18:00	16354	105	-54.1	-83.5	330	10
2023-08-10T18:00	16378	105	-54.0	-83.4	332	10
2023-08-10T18:00	16400	104	-53.9	-83.8	333	9
2023-08-10T18:00	16424	104	-53.8	-83.7	334	9
2023-08-10T18:00	16447	103	-53.8	-83.7	334	9
2023-08-10T18:00	16470	103	-53.9	-83.8	334	9
2023-08-10T18:00	16491	103	-54.1	-83.5	333	9
2023-08-10T18:00	16516	102	-54.3	-83.6	333	9
2023-08-10T18:00	16538	102	-54.5	-83.8	332	9
2023-08-10T18:00	16561	102	-54.7	-83.5	330	9
2023-08-10T18:00	16584	101	-54.9	-83.7	329	9
2023-08-10T18:00	16608	101	-55.0	-83.7	327	9
2023-08-10T18:00	16633	101	-55.1	-83.8	326	9
2023-08-10T18:00	16655	100	-55.1	-84.2	324	9
2023-08-10T18:00	16677	100	-55.2	-84.3	323	9
2023-08-10T18:00	16699	99	-55.0	-84.2	323	10
2023-08-10T18:00	16724	99	-54.8	-84.0	323	10
2023-08-10T18:00	16749	99	-54.9	-84.1	323	10
2023-08-10T18:00	16771	98	-55.0	-84.2	325	10
2023-08-10T18:00	16794	98	-55.0	-84.2	327	10
2023-08-10T18:00	16816	98	-54.9	-84.1	330	9
2023-08-10T18:00	16841	97	-54.9	-84.1	333	9
2023-08-10T18:00	16867	97	-54.9	-84.1	336	9
2023-08-10T18:00	16892	97	-54.5	-84.3	340	8
2023-08-10T18:00	16917	96	-54.3	-84.1	343	8
2023-08-10T18:00	16938	96	-54.1	-84.0	346	8
2023-08-10T18:00	16959	95	-54.1	-84.0	348	7
2023-08-10T18:00	16983	95	-54.0	-83.9	349	7
2023-08-10T18:00	17005	95	-54.0	-83.9	350	7
2023-08-10T18:00	17029	94	-53.8	-83.7	350	7
2023-08-10T18:00	17049	94	-53.9	-83.8	351	6
2023-08-10T18:00	17077	94	-54.0	-83.9	353	6
2023-08-10T18:00	17095	93	-53.9	-83.8	354	5
2023-08-10T18:00	17121	93	-54.1	-84.0	356	5
2023-08-10T18:00	17146	93	-54.3	-84.1	357	4
2023-08-10T18:00	17170	92	-54.4	-84.2	359	4
2023-08-10T18:00	17192	92	-54.3	-84.1	0	3
2023-08-10T18:00	17216	92	-54.2	-84.0	2	3
2023-08-10T18:00	17237	91	-54.2	-84.0	4	3
2023-08-10T18:00	17260	91	-54.1	-84.0	7	2
2023-08-10T18:00	17283	91	-54.1	-84.0	12	2
2023-08-10T18:00	17306	90	-54.0	-83.9	17	2
2023-08-10T18:00	17328	90	-53.9	-83.8	20	2
2023-08-10T18:00	17352	90	-53.8	-84.2	20	2
2023-08-10T18:00	17371	90	-53.8	-84.2	14	2
2023-08-10T18:00	17398	89	-53.8	-84.2	3	2
2023-08-10T18:00	17422	89	-53.9	-84.3	346	2
2023-08-10T18:00	17441	89	-53.9	-84.3	330	2
2023-08-10T18:00	17467	88	-53.9	-84.3	318	3
2023-08-10T18:00	17490	88	-53.9	-84.3	310	3
2023-08-10T18:00	17513	88	-53.8	-84.2	304	4
2023-08-10T18:00	17534	87	-53.8	-84.2	301	5
2023-08-10T18:00	17561	87	-53.8	-84.2	300	5
2023-08-10T18:00	17585	87	-53.8	-84.2	300	5
2023-08-10T18:00	17609	86	-53.7	-84.2	302	5
2023-08-10T18:00	17632	86	-53.3	-83.9	303	4
2023-08-10T18:00	17654	86	-53.4	-83.9	304	4
2023-08-10T18:00	17678	85	-53.6	-84.1	303	4
2023-08-10T18:00	17702	85	-53.7	-83.7	302	4
2023-08-10T18:00	17727	85	-53.9	-83.8	302	4
2023-08-10T18:00	17749	84	-53.9	-83.8	304	4
2023-08-10T18:00	17773	84	-53.9	-83.8	308	5
2023-08-10T18:00	17796	84	-54.0	-83.9	312	5
2023-08-10T18:00	17823	83	-54.1	-84.0	316	5
2023-08-10T18:00	17843	83	-54.1	-84.0	320	6
2023-08-10T18:00	17866	83	-54.2	-84.5	324	6
2023-08-10T18:00	17888	83	-54.1	-84.5	328	7
2023-08-10T18:00	17914	82	-54.0	-84.4	331	7
2023-08-10T18:00	17936	82	-54.0	-84.4	335	8
2023-08-10T18:00	17960	82	-54.1	-84.5	337	8
2023-08-10T18:00	17987	81	-54.2	-84.5	340	8
2023-08-10T18:00	18007	81	-54.4	-84.7	342	8
2023-08-10T18:00	18034	81	-54.5	-84.3	344	8
2023-08-10T18:00	18054	81	-54.6	-84.3	347	8
2023-08-10T18:00	18077	80	-54.7	-84.4	349	8
2023-08-10T18:00	18100	80	-54.8	-84.5	352	8
2023-08-10T18:00	18119	80	-54.8	-84.5	355	8
2023-08-10T18:00	18147	79	-54.8	-84.5	357	8
2023-08-10T18:00	18169	79	-54.8	-84.5	360	8
2023-08-10T18:00	18193	79	-55.0	-84.6	2	9
2023-08-10T18:00	18216	79	-55.1	-84.7	4	9
2023-08-10T18:00	18239	78	-55.1	-84.7	7	9
2023-08-10T18:00	18263	78	-55.2	-84.8	9	8
2023-08-10T18:00	18288	78	-55.2	-84.8	10	8
2023-08-10T18:00	18311	77	-55.3	-84.9	11	7
2023-08-10T18:00	18335	77	-55.2	-84.8	11	6
2023-08-10T18:00	18361	77	-55.3	-84.9	11	5
2023-08-10T18:00	18386	76	-55.3	-84.9	10	4
2023-08-10T18:00	18412	76	-55.3	-84.9	8	3
2023-08-10T18:00	18436	76	-55.4	-84.5	3	2
2023-08-10T18:00	18460	76	-55.6	-84.6	349	1
2023-08-10T18:00	18483	75	-55.7	-84.7	321	1
2023-08-10T18:00	18510	75	-55.8	-84.8	298	1
2023-08-10T18:00	18534	75	-55.9	-84.8	292	2
2023-08-10T18:00	18559	74	-56.0		296	2
2023-08-10T18:00	18587	74	-55.8	-85.2	307	3
2023-08-10T18:00	18606	74	-55.6	-85.1	320	3
2023-08-10T18:00	18632	74	-55.4	-85.4	333	3
2023-08-10T18:00	18656	73	-55.4	-85.4	344	4
2023-08-10T18:00	18681	73	-55.3	-85.4	354	5
2023-08-10T18:00	18705	73	-55.3	-85.4	2	5
2023-08-10T18:00	18729	72	-55.2	-85.3	7	6
2023-08-10T18:00	18755	72	-55.2	-85.3	10	7
2023-08-10T18:00	18780	72	-55.1	-85.2	12	7
2023-08-10T18:00	18808	72	-55.1	-84.7	12	7
2023-08-10T18:00	18831	71	-55.0	-84.6	11	8
2023-08-10T18:00	18856	71	-55.2	-84.8	11	8
2023-08-10T18:00	18879	71	-55.2	-84.8	12	8
2023-08-10T18:00	18901	70	-55.2	-84.8	14	8
2023-08-10T18:00	18930	70	-55.2	-84.8	18	8
2023-08-10T18:00	18952	70	-55.0	-85.1	22	8
2023-08-10T18:00	18972	70	-55.1	-85.2	27	9
2023-08-10T18:00	18996	69	-55.2	-85.3	31	9
2023-08-10T18:00	19020	69	-55.2	-85.3	36	9
2023-08-10T18:00	19045	69	-55.2	-85.3	40	9
2023-08-10T18:00	19070	69	-55.1	-85.2	44	9
2023-08-10T18:00	19094	68	-54.9	-85.1	48	9
2023-08-10T18:00	19118	68	-54.9	-85.1	50	8
2023-08-10T18:00	19142	68	-54.8	-85.0	53	8
2023-08-10T18:00	19167	68	-54.8	-85.0	54	8
2023-08-10T18:00	19192	67	-54.8	-85.0	56	7
2023-08-10T18:00	19216	67	-54.7	-84.9	59	7
2023-08-10T18:00	19239	67	-54.7	-84.9	62	7
2023-08-10T18:00	19266	67	-54.6	-84.8	65	6
2023-08-10T18:00	19290	66	-54.6	-84.8	68	6
2023-08-10T18:00	19315	66	-54.6	-84.8	70	6
2023-08-10T18:00	19338	66	-54.7	-84.9	71	5
2023-08-10T18:00	19361	66	-54.7	-84.9	72	5
2023-08-10T18:00	19385	65	-54.6	-84.8	71	4
2023-08-10T18:00	19410	65	-54.5	-84.8	69	4
2023-08-10T18:00	19433	65	-54.5	-84.8	66	4
2023-08-10T18:00	19457	65	-54.6	-84.8	62	4
2023-08-10T18:00	19482	64	-54.5	-84.8	60	5
2023-08-10T18:00	19509	64	-54.4	-84.7	58	5
2023-08-10T18:00	19531	64	-54.4	-84.7	58	6
2023-08-10T18:00	19555	64	-54.6	-84.8	59	6
2023-08-10T18:00	19581	63	-54.6	-84.8	60	6
2023-08-10T18:00	19604	63	-54.6	-84.8	61	7
2023-08-10T18:00	19632	63	-54.6	-84.8	63	7
2023-08-10T18:00	19658	63	-54.3	-84.6	65	7
2023-08-10T18:00	19679	62	-54.2	-84.5	69	7
2023-08-10T18:00	19701	62	-54.3	-85.2	73	7
2023-08-10T18:00	19732	62	-54.3	-85.2	79	8
2023-08-10T18:00	19757	62	-54.2	-85.1	84	8
2023-08-10T18:00	19781	61	-54.0	-84.9	90	8
2023-08-10T18:00	19804	61	-53.9	-84.9	95	8
2023-08-10T18:00	19833	61	-54.0	-84.9	98	8
2023-08-10T18:00	19855	61	-54.1	-85.0	100	8
2023-08-10T18:00	19882	61	-54.1	-85.0	102	7
2023-08-10T18:00	19909	60	-54.1	-85.0	102	7
2023-08-10T18:00	19932	60	-54.0	-84.4	103	6
2023-08-10T18:00	19957	60	-53.9	-84.3	105	6
2023-08-10T18:00	19980	60	-53.8	-84.2	106	6
2023-08-10T18:00	20006	59	-53.7	-84.2	107	5
2023-08-10T18:00	20028	59	-53.7	-84.2	106	5
2023-08-10T18:00	20053	59	-53.6	-84.6	103	5
2023-08-10T18:00	20083	59	-53.7	-84.7	99	5
2023-08-10T18:00	20103	58	-53.6	-84.6	97	6
2023-08-10T18:00	20130	58	-53.3	-84.4	98	6
2023-08-10T18:00	20156	58	-53.3	-84.4	101	6
2023-08-10T18:00	20180	58	-53.2	-84.4	107	6
2023-08-10T18:00	20208	58	-53.0	-84.2	114	6
2023-08-10T18:00	20233	57	-52.9	-84.1	121	7
2023-08-10T18:00	20259	57	-53.0	-84.2	128	7
2023-08-10T18:00	20283	57	-53.2	-84.4	133	7
2023-08-10T18:00	20309	57	-53.2	-84.4	137	7
2023-08-10T18:00	20334	56	-53.1	-84.3	140	6
2023-08-10T18:00	20358	56	-53.2	-84.4	142	6
2023-08-10T18:00	20384	56	-53.3	-84.4	143	5
2023-08-10T18:00	20406	56	-53.2	-84.4	143	4
2023-08-10T18:00	20434	56	-53.0	-84.2	141	4
2023-08-10T18:00	20462	55	-52.9	-84.1	137	3
2023-08-10T18:00	20489	55	-52.8	-84.1	133	3
2023-08-10T18:00	20512	55	-52.8	-84.1	127	2
2023-08-10T18:00	20536	55	-52.8	-84.1	119	2
2023-08-10T18:00	20563	54	-52.5	-83.8	107	2
2023-08-10T18:00	20587	54	-52.5	-83.8	92	2
2023-08-10T18:00	20610	54	-52.4	-83.8	79	2
2023-08-10T18:00	20634	54	-52.6	-83.9	71	2
2023-08-10T18:00	20665	54	-52.7	-84.0	65	2
2023-08-10T18:00	20689	53	-52.6	-83.9	61	3
2023-08-10T18:00	20715	53	-52.5	-83.8	55	3
2023-08-10T18:00	20737	53	-52.4	-83.8	49	3
2023-08-10T18:00	20765	53	-52.3	-83.7	44	4
2023-08-10T18:00	20794	53	-52.4	-83.8	41	4
2023-08-10T18:00	20820	52	-52.4	-83.8	40	5
2023-08-10T18:00	20845	52	-52.5	-83.8	41	5
2023-08-10T18:00	20867	52	-52.6	-83.9	44	5
2023-08-10T18:00	20900	52	-52.5	-83.8	50	5
2023-08-10T18:00	20918	51	-52.4	-83.8	56	5
2023-08-10T18:00	20947	51	-52.2	-83.6	63	5
2023-08-10T18:00	20971	51	-52.3	-83.7	70	4
2023-08-10T18:00	21000	51	-52.5	-83.8	77	4
2023-08-10T18:00	21025	51	-52.6	-83.9	84	4
2023-08-10T18:00	21053	50	-52.6	-83.9	89	4
2023-08-10T18:00	21082	50	-52.7	-84.0	92	4
2023-08-10T18:00	21106	50	-52.7	-84.0	93	4
2023-08-10T18:00	21134	50	-52.7	-84.0	91	4
2023-08-10T18:00	21159	50	-52.6	-83.9	89	3
2023-08-10T18:00	21186	49	-52.5	-83.8	86	3
2023-08-10T18:00	21210	49	-52.6	-83.9	85	3
2023-08-10T18:00	21241	49	-52.6	-83.9	85	3
2023-08-10T18:00	21271	49	-52.6	-83.9	89	3
2023-08-10T18:00	21303	49	-52.5	-83.8	94	3
2023-08-10T18:00	21329	48	-52.3	-83.7	99	4
2023-08-10T18:00	21354	48	-52.2	-83.6	102	4
2023-08-10T18:00	21376	48	-52.2	-83.6	104	5
2023-08-10T18:00	21406	48	-52.2	-83.6	104	5
2023-08-10T18:00	21431	48	-52.3	-83.7	103	5
2023-08-10T18:00	21458	47	-52.5	-83.8	100	5
2023-08-10T18:00	21486	47	-52.4	-83.8	95	5
2023-08-10T18:00	21515	47	-52.3	-83.7	89	5
2023-08-10T18:00	21540	47	-52.3	-83.7	83	5
2023-08-10T18:00	21566	47	-52.2	-83.6	78	5
2023-08-10T18:00	21590	46	-52.3	-83.7	75	5
2023-08-10T18:00	21621	46	-52.4	-83.8	73	5
2023-08-10T18:00	21643	46	-52.4	-83.8	72	5
2023-08-10T18:00	21667	46	-52.5	-83.8	70	6
2023-08-10T18:00	21695	46	-52.5	-83.8	69	6
2023-08-10T18:00	21729	45	-52.5	-83.8	67	6
2023-08-10T18:00	21752	45	-52.5	-83.8	65	7
2023-08-10T18:00	21779	45	-52.6	-83.9	64	7
2023-08-10T18:00	21805	45	-52.6	-83.9	64	7
2023-08-10T18:00	21830	45	-52.6	-83.9	66	7
2023-08-10T18:00	21855	45	-52.6	-83.9	68	7
2023-08-10T18:00	21882	44	-52.7	-84.0	73	7
2023-08-10T18:00	21910	44	-52.8	-84.1	79	7
2023-08-10T18:00	21928	44	-52.9	-84.1	86	7
2023-08-10T18:00	21958	44	-52.9	-84.1	93	7
2023-08-10T18:00	21987	44	-52.8	-84.1	99	7
2023-08-10T18:00	22006	44	-52.9	-84.1	103	7
2023-08-10T18:00	22034	43	-53.1	-84.3	103	7
2023-08-10T18:00	22063	43	-53.1	-84.3	100	7
2023-08-10T18:00	22083	43	-53.0	-84.2	95	6
2023-08-10T18:00	22107	43	-52.8	-84.1	89	6
2023-08-10T18:00	22137	43	-52.8	-84.1	82	6
2023-08-10T18:00	22160	42	-52.8	-84.1	77	6
2023-08-10T18:00	22185	42	-52.8	-84.1	73	6
2023-08-10T18:00	22213	42	-52.8	-84.1	73	7
2023-08-10T18:00	22242	42	-52.8	-84.1	74	7
2023-08-10T18:00	22267	42	-52.8	-84.1	77	7
2023-08-10T18:00	22291	42	-52.8	-84.1	81	7
2023-08-10T18:00	22319	41	-52.8	-84.1	86	7
2023-08-10T18:00	22341	41	-52.8	-84.1	91	7
2023-08-10T18:00	22369	41	-53.0	-84.2	97	6
2023-08-10T18:00	22402	41	-53.1	-84.3	101	6
2023-08-10T18:00	22424	41	-53.0	-84.2	106	6
2023-08-10T18:00	22453	41	-52.8	-84.1	112	5
2023-08-10T18:00	22481	40	-52.7	-84.6	119	5
2023-08-10T18:00	22502	40	-52.6	-84.5	126	5
2023-08-10T18:00	22525	40	-52.4	-84.4	135	4
2023-08-10T18:00	22556	40	-52.4	-84.4	142	4
2023-08-10T18:00	22577	40	-52.2	-84.2	148	4
2023-08-10T18:00	22603	40	-51.8	-83.9	154	4
2023-08-10T18:00	22631	40	-51.6	-84.5	159	4
2023-08-10T18:00	22660	39	-51.4	-84.3	165	3
2023-08-10T18:00	22687	39	-51.4	-84.3	172	3
2023-08-10T18:00	22713	39	-51.3	-84.3	180	3
2023-08-10T18:00	22742	39	-51.4	-83.6	186	3
2023-08-10T18:00	22767	39	-51.3	-83.6	189	2
2023-08-10T18:00	22793	39	-51.4	-83.6	188	2
2023-08-10T18:00	22821	38	-51.4	-83.6	181	2
2023-08-10T18:00	22848	38	-51.4	-83.6	169	2
2023-08-10T18:00	22873	38	-51.4	-83.6	154	1
2023-08-10T18:00	22898	38	-51.5	-83.7	138	1
2023-08-10T18:00	22918	38	-51.5	-83.7	123	1
2023-08-10T18:00	22951	38	-51.7	-83.9	112	1
2023-08-10T18:00	22976	37	-51.8	-83.9	103	2
2023-08-10T18:00	23006	37	-51.9	-84.0	96	2
2023-08-10T18:00	23028	37	-51.9	-84.0	91	2
2023-08-10T18:00	23059	37	-51.9	-84.0	86	3
2023-08-10T18:00	23082	37	-51.9	-84.0	82	3
2023-08-10T18:00	23109	37	-51.9	-84.0	77	4
2023-08-10T18:00	23139	37	-51.9	-84.0	73	4
2023-08-10T18:00	23153	36	-52.0	-84.1	70	4
2023-08-10T18:00	23190	36	-52.1	-84.2	69	5
2023-08-10T18:00	23211	36	-52.2	-84.2	69	5
2023-08-10T18:00	23240	36	-52.0	-84.1	70	5
2023-08-10T18:00	23265	36	-51.8	-83.9	72	5
2023-08-10T18:00	23288	36	-51.8	-83.9	75	5
2023-08-10T18:00	23317	36	-51.7	-83.9	78	5
2023-08-10T18:00	23341	35	-51.6	-83.8	81	5
2023-08-10T18:00	23366	35	-51.6	-83.8	83	5
2023-08-10T18:00	23396	35	-51.6	-83.8	86	4
2023-08-10T18:00	23422	35	-51.6	-83.8	88	5
2023-08-10T18:00	23445	35	-51.5	-83.7	88	5
2023-08-10T18:00	23476	35	-51.4	-84.3	87	5
2023-08-10T18:00	23501	35	-51.4	-84.3	86	5
2023-08-10T18:00	23531	34	-51.3	-84.3	85	5
2023-08-10T18:00	23550	34	-51.2	-84.2	83	4
2023-08-10T18:00	23580	34	-51.0	-84.0	81	4
2023-08-10T18:00	23607	34	-50.9	-84.0	79	4
2023-08-10T18:00	23639	34	-50.8	-83.9	75	3
2023-08-10T18:00	23661	34	-50.6	-83.7	70	3
2023-08-10T18:00	23688	34	-50.6	-83.7	65	3
2023-08-10T18:00	23716	33	-50.5	-83.7	62	4
2023-08-10T18:00	23744	33	-50.4	-83.6	60	4
2023-08-10T18:00	23764	33	-50.4	-83.6	61	4
2023-08-10T18:00	23799	33	-50.5	-83.7	63	5
2023-08-10T18:00	23823	33	-50.4	-83.6	65	5
2023-08-10T18:00	23853	33	-50.5	-83.7	67	5
2023-08-10T18:00	23874	33	-50.5	-83.7	67	5
2023-08-10T18:00	23906	32	-50.5	-83.7	66	5
2023-08-10T18:00	23929	32	-50.5	-83.7	64	5
2023-08-10T18:00	23960	32	-50.5	-83.7	61	4
2023-08-10T18:00	23985	32	-50.6	-83.7	55	4
2023-08-10T18:00	24015	32	-50.8	-83.9	46	3
2023-08-10T18:00	24036	32	-50.8	-83.9	35	3
2023-08-10T18:00	24065	32	-50.6	-83.7	23	3
2023-08-10T18:00	24095	32	-50.5	-83.7	16	4
2023-08-10T18:00	24123	31	-50.5	-83.7	14	4
2023-08-10T18:00	24147	31	-50.3	-83.5	15	5
2023-08-10T18:00	24175	31	-50.2	-83.5	18	5
2023-08-10T18:00	24205	31	-50.3	-83.5	20	6
2023-08-10T18:00	24228	31	-50.4	-83.6	22	6
2023-08-10T18:00	24253	31	-50.4	-83.6	24	7
2023-08-10T18:00	24284	31	-50.4	-83.6	26	7
2023-08-10T18:00	24313	31	-50.5	-83.7	28	8
2023-08-10T18:00	24336	30	-50.6	-83.7	30	8
2023-08-10T18:00	24369	30	-50.7	-83.8	32	8
2023-08-10T18:00	24395	30	-50.8	-83.9	33	9
2023-08-10T18:00	24419	30	-50.7	-83.8	33	9
2023-08-10T18:00	24449	30	-50.8	-83.9	33	9
2023-08-10T18:00	24469	30	-50.8	-83.9	33	9
2023-08-10T18:00	24504	30	-50.9	-84.0	35	9
2023-08-10T18:00	24524	30	-50.7	-83.8	38	9
2023-08-10T18:00	24551	29	-50.7	-83.8	41	9
2023-08-10T18:00	24582	29	-50.9	-84.0	45	9
2023-08-10T18:00	24611	29	-50.9	-84.0	49	8
2023-08-10T18:00	24631	29	-50.6	-83.7	51	8
2023-08-10T18:00	24660	29	-50.6	-83.7	54	8
2023-08-10T18:00	24681	29	-50.5	-83.7	56	7
2023-08-10T18:00	24709	29	-50.6	-83.7	58	7
2023-08-10T18:00	24741	29	-50.6	-83.7	60	7
2023-08-10T18:00	24769	28	-50.6	-83.7	62	6
2023-08-10T18:00	24789	28	-50.6	-83.7	64	6
2023-08-10T18:00	24823	28	-50.4	-83.6	65	6
2023-08-10T18:00	24850	28	-50.4	-83.6	66	6
2023-08-10T18:00	24871	28	-50.3	-83.5	67	6
2023-08-10T18:00	24901	28	-50.3	-83.5	68	5
2023-08-10T18:00	24924	28	-50.2	-83.5	70	5
2023-08-10T18:00	24955	28	-50.2	-83.5	71	5
2023-08-10T18:00	24985	28	-50.1	-83.4	71	4
2023-08-10T18:00	25009	27	-50.0	-84.1	68	4
2023-08-10T18:00	25032	27	-49.9	-84.0	64	5
2023-08-10T18:00	25056	27	-49.6	-83.8	60	5
2023-08-10T18:00	25091	27	-49.4	-83.7	57	5
2023-08-10T18:00	25114	27	-49.4	-83.7	56	6
2023-08-10T18:00	25140	27	-49.3	-83.6	56	6
2023-08-10T18:00	25179	27	-49.3	-83.6	57	6
2023-08-10T18:00	25199	27	-49.3	-83.6	59	5
2023-08-10T18:00	25216	27	-49.4	-82.9	61	5
2023-08-10T18:00	25251	26	-49.5	-82.9	64	5
2023-08-10T18:00	25281	26	-49.5	-82.9	67	4
2023-08-10T18:00	25307	26	-49.5	-82.9	71	4
2023-08-10T18:00	25324	26	-49.5	-82.9	75	4
2023-08-10T18:00	25364	26	-49.5	-82.9	77	4
2023-08-10T18:00	25396	26	-49.5	-82.9	78	4
2023-08-10T18:00	25418	26	-49.7	-83.1	78	5
2023-08-10T18:00	25446	26	-49.7	-83.1	77	5
2023-08-10T18:00	25479	26	-49.7	-83.1	77	5
2023-08-10T18:00	25507	25	-49.6	-83.8	76	5
2023-08-10T18:00	25534	25	-49.4	-83.7	76	6
2023-08-10T18:00	25563	25	-49.2	-83.5	77	6
2023-08-10T18:00	25588	25	-49.1	-83.4	77	7
2023-08-10T18:00	25610	25	-49.1	-83.4	77	7
2023-08-10T18:00	25647	25	-49.0	-83.4	77	8
2023-08-10T18:00	25670	25	-49.1	-83.4	76	8
2023-08-10T18:00	25701	25	-49.2	-83.5	76	9
2023-08-10T18:00	25731	25	-49.2	-83.5	76	9
2023-08-10T18:00	25763	24	-49.2	-83.5	77	9
2023-08-10T18:00	25788	24	-49.2	-83.5	80	10
2023-08-10T18:00	25811	24	-49.1	-83.4	84	10
2023-08-10T18:00	25842	24	-49.0	-83.4	87	10
2023-08-10T18:00	25875	24	-48.9	-83.3	91	11
2023-08-10T18:00	25896	24	-48.8	-83.2	93	11
2023-08-10T18:00	25932	24	-48.8	-83.2	94	11
2023-08-10T18:00	25960	24	-48.8	-83.2	94	11
2023-08-10T18:00	25990	24	-48.7	-83.2	93	11
2023-08-10T18:00	26017	24	-48.8	-83.2	92	10
2023-08-10T18:00	26043	23	-48.8	-83.2	92	10
2023-08-10T18:00	26073	23	-48.7	-83.2	93	10
2023-08-10T18:00	26104	23	-48.7	-83.2	95	9
2023-08-10T18:00	26136	23	-48.6	-83.1	99	9
2023-08-10T18:00	26156	23	-48.5	-83.0	103	9
2023-08-10T18:00	26188	23	-48.4	-82.9	109	8
2023-08-10T18:00	26213	23	-48.4	-82.9	113	8
2023-08-10T18:00	26244	23	-48.4	-82.9	117	7
2023-08-10T18:00	26278	23	-48.3	-82.9	117	7
2023-08-10T18:00	26304	23	-48.3	-82.9	113	7
2023-08-10T18:00	26339	22	-48.1	-83.6	107	7
2023-08-10T18:00	26353	22	-47.7	-83.4	100	7
2023-08-10T18:00	26385	22	-47.3	-83.1	94	8
2023-08-10T18:00	26417	22	-47.2	-83.0	91	8
2023-08-10T18:00	26446	22	-47.2	-83.0	90	9
2023-08-10T18:00	26483	22	-47.3	-83.1	90	9
2023-08-10T18:00	26498	22	-47.3	-83.1	92	9
2023-08-10T18:00	26531	22	-47.3	-82.2	94	10
2023-08-10T18:00	26568	22	-47.5	-82.3	95	10
2023-08-10T18:00	26588	22	-47.5	-82.3	95	9
2023-08-10T18:00	26622	21	-47.3	-82.2	94	9
2023-08-10T18:00	26643	21	-47.4	-82.2	94	9
2023-08-10T18:00	26669	21	-47.3	-83.1	96	8
2023-08-10T18:00	26708	21	-47.0	-82.9	98	7
2023-08-10T18:00	26727	21	-47.0	-82.9	103	6
2023-08-10T18:00	26764	21	-47.0	-82.9	107	6
2023-08-10T18:00	26786	21	-47.1	-82.9	110	5
2023-08-10T18:00	26816	21	-47.0	-82.9	109	5
2023-08-10T18:00	26835	21	-46.9	-82.8	105	5
2023-08-10T18:00	26873	21	-46.5	-82.5	99	5
2023-08-10T18:00	26899	21	-46.0	-82.1	92	6
2023-08-10T18:00	26923	21	-45.7	-81.9	87	7
2023-08-10T18:00	26964	20	-45.5	-81.8	83	7
2023-08-10T18:00	26981	20	-45.4	-82.8	81	8
2023-08-10T18:00	27019	20	-45.2	-82.7	81	8
2023-08-10T18:00	27036	20	-45.0	-82.5	82	8
2023-08-10T18:00	27072	20	-44.9	-82.5	84	9
2023-08-10T18:00	27098	20	-44.8	-82.4	87	9
2023-08-10T18:00	27132	20	-44.8	-81.3	91	9
2023-08-10T18:00	27158	20	-44.8	-81.3	96	9
2023-08-10T18:00	27189	20	-44.8	-81.3	102	8
2023-08-10T18:00	27218	20	-44.9	-81.4	108	8
2023-08-10T18:00	27239	20	-44.9	-81.4	113	7
2023-08-10T18:00	27270	19	-44.8	-81.3	118	7
2023-08-10T18:00	27296	19	-44.8	-81.3	123	7
2023-08-10T18:00	27333	19	-44.9	-81.4	128	6
2023-08-10T18:00	27376	19	-44.9	-81.4	134	6
2023-08-10T18:00	27386	19	-44.9	-81.4	142	5
2023-08-10T18:00	27420	19	-44.9	-81.4	151	5
2023-08-10T18:00	27440	19	-44.8	-81.3	161	4
2023-08-10T18:00	27478	19	-44.7	-82.3	171	4
2023-08-10T18:00	27502	19	-44.6	-82.2	179	4
2023-08-10T18:00	27530	19	-44.3	-82.0	185	4
2023-08-10T18:00	27564	19	-44.2	-82.0	190	4
2023-08-10T18:00	27593	19	-44.2	-82.0	192	3
2023-08-10T18:00	27618	18	-44.2	-82.0	194	3
2023-08-10T18:00	27651	18	-44.2	-82.0	195	3
2023-08-10T18:00	27681	18	-44.4	-81.0	197	3
2023-08-10T18:00	27706	18	-44.4	-81.0	200	2
2023-08-10T18:00	27741	18	-44.5	-81.1	204	2
2023-08-10T18:00	27766	18	-44.6	-81.2	209	2
2023-08-10T18:00	27808	18	-44.7	-81.2	215	1
2023-08-10T18:00	27821	18	-44.7	-81.2	219	1
2023-08-10T18:00	27854	18	-44.7	-81.2	222	1
2023-08-10T18:00	27886	18	-44.7	-81.2	226	0
2023-08-10T18:00	27907	18	-44.7	-81.2	2	0
2023-08-10T18:00	27946	18	-44.7	-81.2	22	0
2023-08-10T18:00	27966	18	-44.5	-81.1	15	1
2023-08-10T18:00	28001	17	-44.5	-81.1	6	1
2023-08-10T18:00	28023	17	-44.7	-81.2	360	1
2023-08-10T18:00	28061	17	-44.8	-81.3	4	1
2023-08-10T18:00	28079	17	-45.0	-81.4	23	1
2023-08-10T18:00	28111	17	-45.2	-81.6	45	1
2023-08-10T18:00	28140	17	-45.3	-81.6	61	1
2023-08-10T18:00	28164	17	-45.5	-81.8	69	2
2023-08-10T18:00	28194	17	-45.5	-81.8	71	2
2023-08-10T18:00	28216	17	-45.5	-81.8	67	2
2023-08-10T18:00	28245	17	-45.4	-81.7	56	2
2023-08-10T18:00	28282	17	-45.1	-81.5	36	2
2023-08-10T18:00	28304	17	-45.0	-81.4	15	2
2023-08-10T18:00	28337	17	-45.0	-81.4	1	3
2023-08-10T18:00	28372	17	-45.2	-81.6	356	3
2023-08-10T18:00	28390	16	-45.3	-81.6	358	3
2023-08-10T18:00	28415	16	-45.5	-81.8	7	3
2023-08-10T18:00	28448	16	-45.5	-81.8	20	3
2023-08-10T18:00	28469	16	-45.3	-81.6	33	4
2023-08-10T18:00	28505	16	-45.3	-82.7	40	4
2023-08-10T18:00	28531	16	-45.3	-82.7	43	5
2023-08-10T18:00	28563	16	-45.0	-82.5	42	6
2023-08-10T18:00	28601	16	-44.9	-82.5	40	6
2023-08-10T18:00	28615	16	-44.8	-82.4	39	7
2023-08-10T18:00	28639	16	-44.7	-82.3	38	7
2023-08-10T18:00	28673	16	-44.8	-82.4	38	8
2023-08-10T18:00	28695	16	-44.9	-82.5	39	8
2023-08-10T18:00	28718	16	-45.0	-82.5	39	9
2023-08-10T18:00	28774	16	-45.1	-82.6	41	9
2023-08-10T18:00	28790	16	-44.9	-82.5	43	9
2023-08-10T18:00	28811	15	-44.8	-82.4	47	9
2023-08-10T18:00	28838	15	-44.6	-82.2	53	9
2023-08-10T18:00	28866	15	-44.5	-82.2	60	8
2023-08-10T18:00	28891	15	-44.6	-82.2	69	8
2023-08-10T18:00	28922	15	-44.7	-82.3	76	9
2023-08-10T18:00	28951	15	-44.7	-82.3	81	9
2023-08-10T18:00	28986	15	-44.4	-82.1	83	9
2023-08-10T18:00	29024	15	-44.1	-81.9	82	10
2023-08-10T18:00	29058	15	-43.9	-81.8	79	10
2023-08-10T18:00	29075	15	-43.6	-81.5	74	11
2023-08-10T18:00	29104	15	-43.2	-81.3	70	11
2023-08-10T18:00	29126	15	-42.7	-80.9	65	12
2023-08-10T18:00	29152	15	-42.7	-80.9	62	12
2023-08-10T18:00	29194	15	-42.7	-80.9	59	12
2023-08-10T18:00	29228	15	-42.6	-80.8	57	12
2023-08-10T18:00	29252	15	-42.5	-80.8	56	13
2023-08-10T18:00	29270	14	-42.4	-80.7	57	13
2023-08-10T18:00	29318	14	-42.3	-80.6	59	13
2023-08-10T18:00	29352	14	-42.1	-80.5	63	13
2023-08-10T18:00	29386	14	-42.2	-80.6	68	12
2023-08-10T18:00	29413	14	-42.4	-80.7	73	12
2023-08-10T18:00	29455	14	-42.3	-80.6	79	12
2023-08-10T18:00	29475	14	-42.2	-80.6	85	12
2023-08-10T18:00	29509	14	-42.3	-80.6	91	12
2023-08-10T18:00	29532	14	-42.4	-80.7	97	12
2023-08-10T18:00	29577	14	-42.5	-80.8	102	12
2023-08-10T18:00	29585	14	-42.7	-80.9	106	12
2023-08-10T18:00	29624	14	-42.8	-81.0	109	12
2023-08-10T18:00	29667	14	-43.0	-81.1	110	11
2023-08-10T18:00	29693	14	-42.9	-81.1	110	11
2023-08-10T18:00	29733	14	-42.3	-80.6	109	11
2023-08-10T18:00	29750	13	-41.9	-80.4	107	10
2023-08-10T18:00	29779	13	-41.7	-80.2	104	10
2023-08-10T18:00	29814	13	-41.6	-80.1	99	10
2023-08-10T18:00	29844	13	-41.4	-80.0	94	10
2023-08-10T18:00	29896	13	-41.4	-80.0	88	10
2023-08-10T18:00	29901	13	-41.2	-79.9	83	10
2023-08-10T18:00	29936	13	-41.1	-79.8	79	9
2023-08-10T18:00	29975	13	-41.0	-79.7	77	9
2023-08-10T18:00	29991	13	-40.8	-79.6	78	9
2023-08-10T18:00	30038	13	-40.5	-79.4	80	8
2023-08-10T18:00	30060	13	-40.2	-79.2	83	8
2023-08-10T18:00	30094	13	-40.1	-79.1	86	8
2023-08-10T18:00	30121	13	-40.0	-79.0	89	8
2023-08-10T18:00	30162	13	-39.6	-78.8	89	8
2023-08-10T18:00	30191	13	-39.3	-78.5	89	8
2023-08-10T18:00	30205	13	-39.1	-78.4	86	8
2023-08-10T18:00	30267	13	-38.9	-78.3	83	8
2023-08-10T18:00	30275	12	-38.6	-78.1	78	8
2023-08-10T18:00	30299	12	-38.4	-77.9	73	9
2023-08-10T18:00	30330	12	-38.1	-77.7	69	9
2023-08-10T18:00	30371	12	-38.1	-77.7	66	10
2023-08-10T18:00	30392	12	-38.0	-77.6	64	10
2023-08-10T18:00	30421	12	-37.9	-77.6	65	10
2023-08-10T18:00	30444	12	-37.9	-77.6	66	10
2023-08-10T18:00	30484	12	-37.8	-77.5	69	10
2023-08-10T18:00	30509	12	-37.8	-77.5	74	10
2023-08-10T18:00	30544	12	-37.7	-77.4	79	10
2023-08-10T18:00	30572	12	-37.7	-77.4	84	9
2023-08-10T18:00	30607	12	-37.8	-77.5	90	9
2023-08-10T18:00	30640	12	-38.0	-77.6	93	9
2023-08-10T18:00	30665	12	-38.2	-77.8	95	8
2023-08-10T18:00	30700	12	-38.2	-77.8	95	8
2023-08-10T18:00	30726	12	-38.2	-77.8	92	8
2023-08-10T18:00	30746	12	-38.0	-77.6	87	8
2023-08-10T18:00	30794	12	-37.8	-77.5	83	8
2023-08-10T18:00	30822	12	-37.9	-77.6	79	9
2023-08-10T18:00	30841	11	-38.0	-77.6	77	9
2023-08-10T18:00	30879	11	-38.1	-77.7	76	10
2023-08-10T18:00	30909	11	-38.2	-77.8	76	10
2023-08-10T18:00	30930	11	-38.3	-77.9	77	11
2023-08-10T18:00	30968	11	-38.4	-77.9	80	11
2023-08-10T18:00	30983	11	-38.5	-78.0	82	11
2023-08-10T18:00	31016	11	-38.6	-78.1	85	11
2023-08-10T18:00	31058	11	-38.7	-78.1	87	11
2023-08-10T18:00	31086	11	-38.9	-78.3	89	10
2023-08-10T18:00	31108	11	-39.0	-78.3	90	10
2023-08-10T18:00	31145	11	-39.0	-78.3	90	9
2023-08-10T18:00	31197	11	-39.1	-78.4	90	9
2023-08-10T18:00	31212	11	-39.0	-78.3	91	8
2023-08-10T18:00	31233	11	-38.8	-78.2	91	7
2023-08-10T18:00	31262	11	-38.7	-78.1	93	7
2023-08-10T18:00	31293	11	-38.6	-78.1	97	7
2023-08-10T18:00	31327	11	-38.5	-78.0	101	6
2023-08-10T18:00	31342	11	-38.4	-77.9	104	6
2023-08-10T18:00	31392	11	-38.3	-77.9	106	6
2023-08-10T18:00	31420	11	-38.0	-77.6	106	6
2023-08-10T18:00	31467	11	-37.9	-77.6	103	6
2023-08-10T18:00	31479	10	-38.0	-77.6	100	7
2023-08-10T18:00	31510	10	-38.0	-77.6	96	8
2023-08-10T18:00	31552	10	-38.1	-77.7	93	8
2023-08-10T18:00	31577	10	-38.1	-77.7	88	9
2023-08-10T18:00	31606	10	-38.0	-77.6	84	9
2023-08-10T18:00	31639	10	-37.9	-77.6	80	10
2023-08-10T18:00	31671	10	-37.8	-77.5	78	10
2023-08-10T18:00	31700	10	-37.9	-77.6	77	10
2023-08-10T18:00	31724	10	-37.9	-77.6	77	10
2023-08-10T18:00	31766	10	-37.9	-77.6	79	9
2023-08-10T18:00	31795	10	-37.8	-77.5	81	9
2023-08-10T18:00	31843	10	-37.8	-77.5	83	8
2023-08-10T18:00	31870	10	-37.8	-77.5	85	7
2023-08-10T18:00	31905	10	-37.7	-77.4	86	7
2023-08-10T18:00	31943	10	-37.7	-77.4	86	6
2023-08-10T18:00	31944	10	-37.8	-77.5	85	6
2023-08-10T18:00	31979	10	-37.8	-77.5	83	5
2023-08-10T18:00	32016	10	-38.0	-77.6	80	5
2023-08-10T18:00	32052	10	-38.0	-77.6	75	5
2023-08-10T18:00	32074	10	-38.0	-77.6	71	5
2023-08-10T18:00	32124	10	-38.0	-77.6	66	4
2023-08-10T18:00	32142	10	-37.9	-77.6	63	4
2023-08-10T18:00	32184	9	-37.7	-77.4	63	4
2023-08-10T18:00	32222	9	-37.3	-77.2	64	4
2023-08-10T18:00	32250	9	-37.0	-77.0	66	4
2023-08-10T18:00	32270	9	-36.9	-76.9	69	5
2023-08-10T18:00	32314	9	-36.9	-76.9	70	5
2023-08-10T18:00	32342	9	-36.9	-76.9	70	6
2023-08-10T18:00	32392	9	-36.9	-76.9	71	7
2023-08-10T18:00	32401	9	-36.9	-76.9	72	8
2023-08-10T18:00	32435	9	-37.0	-77.0	73	10
2023-08-10T18:00	32462	9	-37.1	-77.0	74	11
2023-08-10T18:00	32523	9	-37.1	-77.0	76	12
2023-08-10T18:00	32588	9	-37.2	-77.1	77	12
2023-08-10T18:00	32597	9	-37.3	-77.2	78	13
2023-08-10T18:00	32621	9	-37.3	-77.2	80	13
2023-08-10T18:00	32681	9	-37.2	-77.1	81	12
2023-08-10T18:00	32711	9	-37.1	-77.0	82	12
2023-08-10T18:00	32738	9	-37.1	-77.0	82	11
2023-08-10T18:00	32785	9	-37.2	-77.1	83	10
2023-08-10T18:00	32819	9	-37.3	-77.2	83	8
2023-08-10T18:00	32867	9	-37.3	-77.2	83	7
2023-08-10T18:00	32885	9	-37.2	-77.1	83	6
2023-08-10T18:00	32933	9	-37.2	-77.1	82	6
2023-08-10T18:00	32965	8	-37.3	-77.2	81	6
2023-08-10T18:00	33003	8	-37.3	-77.2	80	6
2023-08-10T18:00	33040	8	-37.4	-77.2	78	7
2023-08-10T18:00	33063	8	-37.3	-77.2	78	7
2023-08-10T18:00	33092	8	-37.3	-77.2	77	8
2023-08-10T18:00	33149	8	-37.4	-77.2	77	9
2023-08-10T18:00	33186	8	-37.5	-77.3	78	10
2023-08-10T18:00	33207	8	-37.7	-77.4	79	11
2023-08-10T18:00	33257	8	-38.0	-77.6	80	12
2023-08-10T18:00	33283	8	-38.1	-77.7	82	13
2023-08-10T18:00	33327	8	-38.2	-77.8	85	14
2023-08-10T18:00	33352	8	-38.4	-77.9	87	14
2023-08-10T18:00	33414	8	-38.4	-77.9	89	14
2023-08-10T18:00	33423	8	-38.5	-78.0	92	15
2023-08-10T18:00	33463	8	-38.8	-78.2	93	15
2023-08-10T18:00	33492	8	-39.0	-78.3	95	15
2023-08-10T18:00	33537	8	-39.1	-78.4	96	15
2023-08-10T18:00	33577	8	-39.0	-78.3	96	14
2023-08-10T18:00	33600	8	-39.0	-78.3	97	13
2023-08-10T18:00	33641	8	-38.9	-78.3	98	13
2023-08-10T18:00	33683	8	-39.0	-78.3	99	13
2023-08-10T18:00	33723	8	-39.3	-78.5	101	12
2023-08-10T18:00	33759	8	-39.2	-78.5	102	12
2023-08-10T18:00	33805	8	-39.0	-78.3	103	12
2023-08-10T18:00	33808	7	-38.7	-78.1	104	12
2023-08-10T18:00	33849	7	-38.5	-78.0	104	12
2023-08-10T18:00	33889	7	-38.4	-77.9	105	12
2023-08-10T18:00	33892	7	-38.3	-77.9	104	12
2023-08-10T18:00	33943	7	-38.1	-77.7	104	11
2023-08-10T18:00	33963	7	-38.0	-77.6	103	11
2023-08-10T18:00	33984	7	-37.8	-77.5	102	10
2023-08-10T18:00	34037	7	-37.6	-77.4	101	10
2023-08-10T18:00	34065	7	-37.4	-77.2	99	10
2023-08-10T18:00	34099	7	-37.1	-77.0	99	10
2023-08-10T18:00	34112	7	-36.5	-76.6	99	11
2023-08-10T18:00	34141	7	-36.0	-76.3	100	11
2023-08-10T18:00	34177	7	-35.8	-76.1	101	11
2023-08-10T18:00	34206	7	-35.8	-76.1	101	11
2023-08-10T18:00	34255	7	-35.9	-76.2	98	11
2023-08-10T18:00	34290	7	-35.8	-76.1	93	10
2023-08-10T18:00	34294	7	-35.4	-75.8	85	10
2023-08-10T18:00	34335	7	-35.2	-75.7	78	11
2023-08-10T18:00	34371	7	-35.0	-75.6	72	11
2023-08-10T18:00	34379	7	-34.6	-75.3	69	11
2023-08-10T18:00	34420	7	-34.3	-75.1	68	12
2023-08-10T18:00	34464	7	-33.9	-74.8	68	12
2023-08-10T18:00	34472	7	-33.6	-74.6	68	12
2023-08-10T18:00	34498	7	-33.5	-74.5	68	12
2023-08-10T18:00	34554	7	-33.2	-74.3	68	13
2023-08-10T18:00	34584	7	-33.0	-74.2	69	13
2023-08-10T18:00	34612	7	-32.8	-74.1	70	13
2023-08-10T18:00	34625	7	-32.6	-73.9	72	13
2023-08-10T18:00	34650	7	-32.3	-73.7	73	14
2023-08-10T18:00	34710	7	-32.1	-73.6	74	14
2023-08-10T18:00	34741	7	-32.1	-73.6	74	14
2023-08-10T18:00	34779	7	-31.9	-73.4	74	14
2023-08-10T18:00	34788	7	-31.9	-73.4	74	14
2023-08-10T18:00	34825	6	-31.8	-73.4	75	13
2023-08-10T18:00	34847	6	-31.5	-73.2	77	13
2023-08-10T18:00	34862	6	-31.4	-73.1	80	12
2023-08-10T18:00	34903	6	-31.2	-73.0	82	12
2023-08-10T18:00	34945	6	-31.1	-72.9	84	11
2023-08-10T18:00	34988	6	-30.9	-72.8	85	11
2023-08-10T18:00	35036	6	-29.8	-72.0	82	11
2023-08-10T18:00	35038	6	-29.3	-71.7	80	11
2023-08-10T18:00	35070	6	-28.9	-71.4	78	11
2023-08-10T18:00	35126	6	-28.7	-71.2	77	10
2023-08-10T18:00	35166	6	-28.3	-71.0	76	10
2023-08-11T00:00	114	1008	15.3	8.5	130	2
2023-08-11T00:00	138	1005	15.8	8.1	136	3
2023-08-11T00:00	165	1002	16.6	7.7	134	4
2023-08-11T00:00	188	999	17.3	7.4	133	4
2023-08-11T00:00	213	996	17.5	7.6	132	5
2023-08-11T00:00	241	993	17.4	7.3	134	4
2023-08-11T00:00	266	990	17.3	7.2	137	4
2023-08-11T00:00	293	987	17.2	7.1	144	3
2023-08-11T00:00	317	985	17.1	7.1	154	2
2023-08-11T00:00	336	982	16.9	7.1	161	2
2023-08-11T00:00	361	979	16.8	7.2	164	2
2023-08-11T00:00	385	977	16.6	7.0	164	2
2023-08-11T00:00	403	974	16.5	7.0	167	2
2023-08-11T00:00	427	972	16.3	6.9	177	1
2023-08-11T00:00	450	969	16.1	6.6	194	1
2023-08-11T00:00	472	966	16.0	6.7	212	1
2023-08-11T00:00	497	964	15.8	6.8	228	1
2023-08-11T00:00	525	961	15.5	6.7	241	1
2023-08-11T00:00	549	958	15.3	6.8	250	2
2023-08-11T00:00	573	955	15.1	6.7	257	2
2023-08-11T00:00	601	952	14.9	6.5	259	2
2023-08-11T00:00	630	949	14.7	6.4	259	2
2023-08-11T00:00	652	946	14.4	6.4	256	2
2023-08-11T00:00	677	943	14.2	6.5	253	2
2023-08-11T00:00	702	941	14.0	6.4	250	2
2023-08-11T00:00	725	938	13.8	6.4	250	3
2023-08-11T00:00	747	936	13.6	6.3	254	3
2023-08-11T00:00	769	933	13.4	6.3	261	3
2023-08-11T00:00	786	931	13.2	6.2	271	3
2023-08-11T00:00	806	929	13.0	6.1	280	3
2023-08-11T00:00	825	927	12.9	6.2	287	3
2023-08-11T00:00	843	925	12.7	6.1	288	3
2023-08-11T00:00	866	922	12.5	6.1	282	3
2023-08-11T00:00	892	920	12.2	5.8	273	3
2023-08-11T00:00	912	917	12.0	5.9	266	3
2023-08-11T00:00	931	915	11.9	5.8	265	3
2023-08-11T00:00	958	913	11.7	5.5	268	3
2023-08-11T00:00	980	910	11.5	5.3	272	4
2023-08-11T00:00	1001	908	11.3	5.1	275	4
2023-08-11T00:00	1030	905	11.0	5.0	276	4
2023-08-11T00:00	1056	902	10.8	5.1	275	4
2023-08-11T00:00	1082	899	10.6	4.8	271	4
2023-08-11T00:00	1108	896	10.4	4.6	267	4
2023-08-11T00:00	1132	894	10.2	4.4	263	4
2023-08-11T00:00	1153	891	10.0	4.3	260	4
2023-08-11T00:00	1173	889	9.8	4.4	261	4
2023-08-11T00:00	1202	886	9.6	4.5	265	4
2023-08-11T00:00	1226	883	9.4	4.6	271	5
2023-08-11T00:00	1253	881	9.1	4.4	275	5
2023-08-11T00:00	1283	878	8.8	4.5	277	6
2023-08-11T00:00	1307	875	8.6	4.4	277	6
2023-08-11T00:00	1334	872	8.3	4.5	275	6
2023-08-11T00:00	1359	869	8.1	5.0	272	6
2023-08-11T00:00	1387	866	7.9	4.7	268	6
2023-08-11T00:00	1413	864	7.7	4.5	265	6
2023-08-11T00:00	1443	861	7.5		262	6
2023-08-11T00:00	1468	858	7.3	4.5	262	6
2023-08-11T00:00	1492	856	7.1	4.4	262	6
2023-08-11T00:00	1514	853	6.9	4.5	265	7
2023-08-11T00:00	1536	851	6.7	4.4	268	8
2023-08-11T00:00	1556	849	6.5	4.3	271	8
2023-08-11T00:00	1577	847	6.4	4.2	272	8
2023-08-11T00:00	1611	844	6.1	3.8	270	8
2023-08-11T00:00	1635	841	5.9	3.9	266	8
2023-08-11T00:00	1657	839	5.7	3.8	261	8
2023-08-11T00:00	1676	837	5.5	3.7	259	8
2023-08-11T00:00	1694	835	5.4	3.7	259	8
2023-08-11T00:00	1715	833	5.2	3.5	262	9
2023-08-11T00:00	1735	831	5.0	3.4	264	9
2023-08-11T00:00	1756	829	5.0	3.3	265	10
2023-08-11T00:00	1776	826	4.8	3.2	265	11
2023-08-11T00:00	1797	824	4.7		264	11
2023-08-11T00:00	1813	823	4.6	2.8	264	12
2023-08-11T00:00	1835	821	4.4	2.5	266	12
2023-08-11T00:00	1859	818	4.4	1.6	267	13
2023-08-11T00:00	1878	816	4.3	0.0	268	13
2023-08-11T00:00	1902	814	4.5	-1.5	269	13
2023-08-11T00:00	1934	811	4.4	-1.6	269	13
2023-08-11T00:00	1970	807	4.4	-4.0	268	12
2023-08-11T00:00	1989	805	4.4	-3.8	269	12
2023-08-11T00:00	2013	803	4.3	-4.2	269	12
2023-08-11T00:00	2036	801	4.2	-5.9	270	13
2023-08-11T00:00	2055	799	4.2	-5.2	270	13
2023-08-11T00:00	2076	797	4.0	-3.5	271	13
2023-08-11T00:00	2096	795	3.9	-2.2	273	13
2023-08-11T00:00	2116	793	3.7	-1.9	276	13
2023-08-11T00:00	2140	791	3.6	-1.8	279	13
2023-08-11T00:00	2157	789	3.5	-1.8	281	13
2023-08-11T00:00	2175	787	3.3	-2.1	282	12
2023-08-11T00:00	2195	785	3.1	-1.3	280	12
2023-08-11T00:00	2219	783	2.9	-0.2	278	12
2023-08-11T00:00	2244	780	2.7	0.6	275	11
2023-08-11T00:00	2260	778	2.7	-0.7	274	11
2023-08-11T00:00	2282	776	2.7	-1.5	275	10
2023-08-11T00:00	2306	774	2.6	-1.6	277	10
2023-08-11T00:00	2331	772	2.4	-1.5	281	10
2023-08-11T00:00	2361	769	2.2	-0.2	285	9
2023-08-11T00:00	2383	767	2.1	-0.6	288	9
2023-08-11T00:00	2406	765	2.0	-0.3	291	9
2023-08-11T00:00	2426	763	2.0	-0.3	292	8
2023-08-11T00:00	2455	760	2.1	-3.1	293	8
2023-08-11T00:00	2483	758	2.1	-5.3	294	8
2023-08-11T00:00	2505	755	2.1	-5.6	295	8
2023-08-11T00:00	2527	753	1.9	-4.9	295	8
2023-08-11T00:00	2557	751	1.7	-6.1	295	8
2023-08-11T00:00	2580	749	1.6	-7.6	295	8
2023-08-11T00:00	2601	746	1.5	-8.5	296	8
2023-08-11T00:00	2623	744	1.5	-8.6	297	8
2023-08-11T00:00	2645	743	1.4	-8.6	299	8
2023-08-11T00:00	2666	740	1.4	-8.9	301	9
2023-08-11T00:00	2694	738	1.3	-13.3	302	9
2023-08-11T00:00	2716	736	1.4	-19.6	303	9
2023-08-11T00:00	2743	733	1.5	-24.7	305	9
2023-08-11T00:00	2770	731	1.6	-21.6	307	8
2023-08-11T00:00	2792	729	1.6	-19.7	310	8
2023-08-11T00:00	2821	726	1.5	-19.5	312	8
2023-08-11T00:00	2845	724	1.4	-22.0	313	8
2023-08-11T00:00	2873	722	1.3	-24.2	313	8
2023-08-11T00:00	2902	719	1.2	-25.8	311	8
2023-08-11T00:00	2928	717	1.1	-26.4	310	8
2023-08-11T00:00	2949	715	1.1	-26.8	308	9
2023-08-11T00:00	2978	712	1.0	-27.0	306	9
2023-08-11T00:00	3008	710	0.9	-26.8	304	9
2023-08-11T00:00	3032	708	0.9		302	9
2023-08-11T00:00	3053	706	0.7	-27.2	300	9
2023-08-11T00:00	3069	704	0.7	-27.3	299	9
2023-08-11T00:00	3087	703	0.6	-27.6	300	9
2023-08-11T00:00	3114	700	0.5	-27.7	302	9
2023-08-11T00:00	3138	698	0.4	-27.8	305	9
2023-08-11T00:00	3162	696	0.3	-27.1	307	9
2023-08-11T00:00	3191	694	0.4	-23.6	310	10
2023-08-11T00:00	3209	692	0.4	-20.8	312	11
2023-08-11T00:00	3233	690	0.5	-19.6	313	12
2023-08-11T00:00	3265	687	0.4	-19.5	315	13
2023-08-11T00:00	3286	685	0.3	-20.1	316	14
2023-08-11T00:00	3312	683	0.3	-20.5	318	14
2023-08-11T00:00	3334	681	0.2	-20.0	319	14
2023-08-11T00:00	3355	679	0.3	-22.1	321	14
2023-08-11T00:00	3382	677	0.3	-25.5	322	14
2023-08-11T00:00	3407	675	0.4	-31.4	322	14
2023-08-11T00:00	3423	674	0.6	-30.4	323	15
2023-08-11T00:00	3449	672	0.5	-31.6	323	15
2023-08-11T00:00	3474	669	0.6	-33.1	322	16
2023-08-11T00:00	3507	667	0.5	-33.6	322	16
2023-08-11T00:00	3528	665	0.4		321	16
2023-08-11T00:00	3552	663	0.5	-35.6	321	16
2023-08-11T00:00	3578	661	0.5	-36.5	322	16
2023-08-11T00:00	3604	659	0.4	-37.2	323	16
2023-08-11T00:00	3625	657	0.4	-37.5	324	16
2023-08-11T00:00	3649	655	0.3	-37.9	325	16
2023-08-11T00:00	3680	653	0.1	-38.0	326	16
2023-08-11T00:00	3702	651	0.0	-38.1	327	17
2023-08-11T00:00	3726	649	-0.1	-37.8	328	17
2023-08-11T00:00	3745	647	-0.2	-34.1	328	18
2023-08-11T00:00	3768	645	-0.3	-21.6	329	18
2023-08-11T00:00	3795	643	-0.6	-20.8	330	19
2023-08-11T00:00	3818	641	-0.7	-18.8	330	19
2023-08-11T00:00	3846	639	-0.9		331	20
2023-08-11T00:00	3866	637	-1.1	-10.1	332	20
2023-08-11T00:00	3899	635	-1.3	-5.1	333	21
2023-08-11T00:00	3919	633	-1.4	-4.0	333	22
2023-08-11T00:00	3939	632	-1.5	-3.4	334	22
2023-08-11T00:00	3968	630	-1.5	-3.9	334	21
2023-08-11T00:00	3988	628	-1.4	-4.0	334	21
2023-08-11T00:00	4014	626	-1.4	-4.6	333	21
2023-08-11T00:00	4031	625	-1.4	-5.9	333	21
2023-08-11T00:00	4051	623	-1.4	-6.6	334	21
2023-08-11T00:00	4076	621	-1.4	-10.5	335	21
2023-08-11T00:00	4101	619	-1.5	-12.0	336	21
2023-08-11T00:00	4121	617	-1.6	-12.5	335	21
2023-08-11T00:00	4147	616	-1.7	-12.2	334	22
2023-08-11T00:00	4172	614	-1.9	-11.3	332	22
2023-08-11T00:00	4196	612	-2.2	-10.6	330	22
2023-08-11T00:00	4219	610	-2.3	-10.0	329	22
2023-08-11T00:00	4244	608	-2.5	-10.2	329	22
2023-08-11T00:00	4276	606	-2.7	-10.4	329	22
2023-08-11T00:00	4304	604	-2.9	-10.4	329	23
2023-08-11T00:00	4325	602	-3.1	-10.0	328	22
2023-08-11T00:00	4352	600	-3.4	-9.5	327	22
2023-08-11T00:00	4381	598	-3.5	-9.8	326	22
2023-08-11T00:00	4399	596	-3.6	-10.0	325	21
2023-08-11T00:00	4425	594	-3.8	-10.1	324	21
2023-08-11T00:00	4452	592	-4.0	-10.7	324	21
2023-08-11T00:00	4485	590	-4.2	-8.9	323	21
2023-08-11T00:00	4511	588	-4.5	-9.3	323	21
2023-08-11T00:00	4529	586	-4.6	-9.9	322	21
2023-08-11T00:00	4549	585	-4.8	-9.8	322	22
2023-08-11T00:00	4573	583	-5.0	-9.8	321	22
2023-08-11T00:00	4603	581	-5.3	-9.9	321	22
2023-08-11T00:00	4627	579	-5.5	-9.8	322	22
2023-08-11T00:00	4656	577	-5.8	-9.8	324	21
2023-08-11T00:00	4686	575	-6.0	-10.0	325	21
2023-08-11T00:00	4705	574	-6.2	-10.0	326	21
2023-08-11T00:00	4724	572	-6.4	-10.1	326	20
2023-08-11T00:00	4751	570	-6.6	-10.3	326	20
2023-08-11T00:00	4782	568	-6.8	-12.0	325	20
2023-08-11T00:00	4804	566	-7.0	-12.3	324	20
2023-08-11T00:00	4824	565	-7.2	-10.9	323	20
2023-08-11T00:00	4848	563	-7.4	-10.9	323	21
2023-08-11T00:00	4880	561	-7.7	-10.9	322	21
2023-08-11T00:00	4899	559	-7.9	-10.5	321	21
2023-08-11T00:00	4920	558	-8.1	-10.1	320	21
2023-08-11T00:00	4955	555	-8.3	-10.1	318	21
2023-08-11T00:00	4988	553	-8.5	-10.4	318	21
2023-08-11T00:00	5018	551	-8.7	-10.7	318	21
2023-08-11T00:00	5041	549	-8.8	-10.6	318	20
2023-08-11T00:00	5060	548	-8.9	-10.6	319	20
2023-08-11T00:00	5084	546	-9.0	-10.8	320	19
2023-08-11T00:00	5115	544	-9.2	-11.0	320	19
2023-08-11T00:00	5147	542	-9.5	-11.3	320	19
2023-08-11T00:00	5180	540	-9.7	-11.6	319	19
2023-08-11T00:00	5205	538	-9.9	-11.8	318	19
2023-08-11T00:00	5231	536	-10.1	-11.9	317	19
2023-08-11T00:00	5257	534	-10.4	-11.9	316	19
2023-08-11T00:00	5280	532	-10.6	-11.9	315	19
2023-08-11T00:00	5308	531	-10.8	-11.8	315	19
2023-08-11T00:00	5343	528	-11.0	-11.5	315	18
2023-08-11T00:00	5371	526	-11.1	-12.2	316	18
2023-08-11T00:00	5400	524	-11.3	-12.3	317	18
2023-08-11T00:00	5421	523	-11.5	-12.6	317	18
2023-08-11T00:00	5438	522	-11.6	-13.3	318	19
2023-08-11T00:00	5454	521	-11.6	-15.6	319	19
2023-08-11T00:00	5476	519	-11.5	-17.3	320	19
2023-08-11T00:00	5494	518	-11.6	-17.9	320	19
2023-08-11T00:00	5515	516	-11.7	-18.5	320	19
2023-08-11T00:00	5541	515	-11.8	-19.7	319	19
2023-08-11T00:00	5577	512	-11.5	-23.8	317	19
2023-08-11T00:00	5601	511	-11.5	-21.8	315	19
2023-08-11T00:00	5620	509	-11.7	-21.9	313	19
2023-08-11T00:00	5646	508	-11.7	-22.4	311	19
2023-08-11T00:00	5680	506	-11.9	-23.9	310	19
2023-08-11T00:00	5704	504	-12.0	-26.3	309	20
2023-08-11T00:00	5723	503	-11.9	-31.7	309	20
2023-08-11T00:00	5746	501	-11.8	-34.0	310	20
2023-08-11T00:00	5773	499	-11.9	-34.4	311	21
2023-08-11T00:00	5802	497	-12.0	-34.9	312	20
2023-08-11T00:00	5835	495	-12.0	-35.4	312	20
2023-08-11T00:00	5853	494	-12.0	-35.5	313	20
2023-08-11T00:00	5875	493	-12.0	-35.8	314	20
2023-08-11T00:00	5899	491	-12.2	-35.9	314	20
2023-08-11T00:00	5932	489	-12.4	-36.2	315	20
2023-08-11T00:00	5964	487	-12.7	-36.2	315	20
2023-08-11T00:00	5986	486	-12.8	-36.0	316	20
2023-08-11T00:00	6015	484	-13.0	-36.1	316	19
2023-08-11T00:00	6042	482	-13.3	-36.1	316	19
2023-08-11T00:00	6069	480	-13.5	-36.1	315	19
2023-08-11T00:00	6103	478	-13.7		315	19
2023-08-11T00:00	6128	477	-13.8	-36.0	315	19
2023-08-11T00:00	6158	475	-14.0	-35.9	315	19
2023-08-11T00:00	6172	474	-14.2	-35.9	316	19
2023-08-11T00:00	6190	473	-14.3	-35.8	317	19
2023-08-11T00:00	6209	472	-14.5	-35.8	318	19
2023-08-11T00:00	6229	470	-14.6	-35.6	319	19
2023-08-11T00:00	6250	469	-14.8	-35.6	319	19
2023-08-11T00:00	6278	467	-15.0	-35.4	319	19
2023-08-11T00:00	6310	465	-15.3	-35.2	319	19
2023-08-11T00:00	6340	463	-15.5	-34.8	318	19
2023-08-11T00:00	6379	461	-15.9	-34.6	317	19
2023-08-11T00:00	6399	460	-16.1	-34.6	317	19
2023-08-11T00:00	6419	459	-16.2		317	19
2023-08-11T00:00	6438	458	-16.2	-35.0	317	19
2023-08-11T00:00	6457	456	-16.4	-35.9	317	19
2023-08-11T00:00	6478	455	-16.4	-36.6	317	19
2023-08-11T00:00	6496	454	-16.5	-38.2	316	19
2023-08-11T00:00	6515	453	-16.6	-38.7	316	19
2023-08-11T00:00	6536	452	-16.7	-39.2	317	19
2023-08-11T00:00	6554	450	-16.8	-39.1	317	19
2023-08-11T00:00	6574	449	-17.0	-39.1	317	19
2023-08-11T00:00	6594	448	-17.1	-39.0	318	19
2023-08-11T00:00	6621	446	-17.4	-39.0	318	19
2023-08-11T00:00	6652	445	-17.6	-38.6	318	19
2023-08-11T00:00	6685	443	-17.8	-38.5	317	19
2023-08-11T00:00	6718	441	-18.2	-38.7	317	19
2023-08-11T00:00	6736	440	-18.3		318	20
2023-08-11T00:00	6762	438	-18.5	-38.8	318	20
2023-08-11T00:00	6797	436	-18.8	-38.5	318	19
2023-08-11T00:00	6820	435	-18.9	-39.0	319	19
2023-08-11T00:00	6837	434	-19.0	-39.7	320	19
2023-08-11T00:00	6856	433	-19.0	-39.9	321	18
2023-08-11T00:00	6873	432	-19.1	-40.1	322	18
2023-08-11T00:00	6892	431	-19.2	-40.3	322	18
2023-08-11T00:00	6911	429	-19.3	-40.5	322	18
2023-08-11T00:00	6931	428	-19.5	-40.7	322	18
2023-08-11T00:00	6949	427	-19.6	-40.7	322	18
2023-08-11T00:00	6971	426	-19.8	-40.9	321	18
2023-08-11T00:00	6991	425	-19.9	-41.2	321	17
2023-08-11T00:00	7012	424	-20.0	-41.2	321	17
2023-08-11T00:00	7036	422	-20.1	-41.2	321	17
2023-08-11T00:00	7063	421	-20.3	-41.6	322	17
2023-08-11T00:00	7092	419	-20.4	-41.8	323	17
2023-08-11T00:00	7122	417	-20.6	-41.4	324	17
2023-08-11T00:00	7153	416	-20.8	-42.2	324	17
2023-08-11T00:00	7181	414	-21.0	-42.2	324	17
2023-08-11T00:00	7212	412	-21.2	-40.9	323	17
2023-08-11T00:00	7244	410	-21.4	-40.7	322	17
2023-08-11T00:00	7281	409	-21.8	-40.7	322	17
2023-08-11T00:00	7298	407	-21.9	-43.2	321	17
2023-08-11T00:00	7320	406	-22.1	-44.6	321	17
2023-08-11T00:00	7345	405	-22.3	-44.2	321	17
2023-08-11T00:00	7379	403	-22.5	-44.1	321	17
2023-08-11T00:00	7398	402	-22.6	-44.2	322	16
2023-08-11T00:00	7419	401	-22.6	-44.0	323	16
2023-08-11T00:00	7447	399	-22.6	-43.8	324	16
2023-08-11T00:00	7473	398	-22.8	-44.3	326	16
2023-08-11T00:00	7500	397	-22.9	-44.4	328	16
2023-08-11T00:00	7530	395	-23.1	-44.9	330	15
2023-08-11T00:00	7566	393	-23.1	-41.4	331	15
2023-08-11T00:00	7589	392	-23.3	-37.3	332	15
2023-08-11T00:00	7617	390	-23.6	-35.9	333	15
2023-08-11T00:00	7650	388	-23.9	-33.7	333	16
2023-08-11T00:00	7684	387	-24.1	-32.2	333	16
2023-08-11T00:00	7720	385	-24.1	-33.7	333	17
2023-08-11T00:00	7738	384	-24.1	-36.1	332	17
2023-08-11T00:00	7758	383	-24.2	-35.4	332	17
2023-08-11T00:00	7776	382	-24.3	-34.5	332	17
2023-08-11T00:00	7795	381	-24.5	-34.9	332	17
2023-08-11T00:00	7816	380	-24.6	-35.4	332	17
2023-08-11T00:00	7834	379	-24.7	-34.4	332	17
2023-08-11T00:00	7854	378	-24.7	-34.9	332	17
2023-08-11T00:00	7870	377	-24.8	-34.6	332	17
2023-08-11T00:00	7892	376	-25.0	-34.6	331	17
2023-08-11T00:00	7910	375	-25.2	-34.8	331	17
2023-08-11T00:00	7930	374	-25.4	-34.8	331	17
2023-08-11T00:00	7949	373	-25.6	-34.9	331	17
2023-08-11T00:00	7968	372	-25.7	-34.8	331	17
2023-08-11T00:00	7986	371	-25.9	-34.9	331	17
2023-08-11T00:00	8008	370	-26.1	-35.0	330	17
2023-08-11T00:00	8023	369	-26.3	-35.1	330	17
2023-08-11T00:00	8045	368	-26.5	-35.3	329	17
2023-08-11T00:00	8069	367	-26.7	-35.0	329	17
2023-08-11T00:00	8100	365	-26.9	-35.7	328	17
2023-08-11T00:00	8138	363	-27.3	-35.8	327	17
2023-08-11T00:00	8157	362	-27.5	-35.6	326	16
2023-08-11T00:00	8177	361	-27.7	-35.6	326	17
2023-08-11T00:00	8203	360	-27.9	-36.2	325	17
2023-08-11T00:00	8229	359	-28.1	-36.4	325	17
2023-08-11T00:00	8260	357	-28.4	-36.8	325	17
2023-08-11T00:00	8294	356	-28.7	-36.3	325	17
2023-08-11T00:00	8317	354	-28.6	-38.6	325	17
2023-08-11T00:00	8345	353	-28.7	-39.3	325	17
2023-08-11T00:00	8373	351	-29.0	-39.1	326	17
2023-08-11T00:00	8405	350	-29.2	-39.5	325	16
2023-08-11T00:00	8436	348	-29.3	-40.0	325	16
2023-08-11T00:00	8468	347	-29.6	-40.0	324	16
2023-08-11T00:00	8498	345	-29.8	-40.0	324	16
2023-08-11T00:00	8525	344	-30.1	-40.0	324	16
2023-08-11T00:00	8556	343	-30.3	-40.0	325	16
2023-08-11T00:00	8587	341	-30.6	-40.3	326	16
2023-08-11T00:00	8615	340	-30.9	-40.4	327	16
2023-08-11T00:00	8641	338	-31.1	-40.5	328	16
2023-08-11T00:00	8670	337	-31.4	-40.7	328	16
2023-08-11T00:00	8697	336	-31.5	-41.1	327	16
2023-08-11T00:00	8725	335	-31.8	-41.6	327	16
2023-08-11T00:00	8751	333	-32.0	-41.7	325	16
2023-08-11T00:00	8777	332	-32.2	-41.7	324	16
2023-08-11T00:00	8804	331	-32.5	-41.9	324	16
2023-08-11T00:00	8831	329	-32.7	-42.0	324	16
2023-08-11T00:00	8859	328	-33.0	-42.2	324	16
2023-08-11T00:00	8886	327	-33.2	-42.6	324	16
2023-08-11T00:00	8910	326	-33.4	-42.8	324	16
2023-08-11T00:00	8934	325	-33.6	-42.6	323	17
2023-08-11T00:00	8960	324	-33.8	-42.6	322	17
2023-08-11T00:00	8985	322	-34.0	-42.2	321	17
2023-08-11T00:00	9016	321	-34.3	-42.2	321	17
2023-08-11T00:00	9047	320	-34.5	-42.7	321	16
2023-08-11T00:00	9077	318	-34.8	-43.2	323	16
2023-08-11T00:00	9106	317	-35.0	-43.7	324	16
2023-08-11T00:00	9133	316	-35.1	-44.4	325	16
2023-08-11T00:00	9161	314	-35.3	-44.5	326	16
2023-08-11T00:00	9189	313	-35.6	-44.7	325	16
2023-08-11T00:00	9218	312	-35.9	-44.9	324	16
2023-08-11T00:00	9248	310	-36.1	-44.9	323	16
2023-08-11T00:00	9276	309	-36.4	-45.1	322	16
2023-08-11T00:00	9304	308	-36.7	-45.5	322	16
2023-08-11T00:00	9335	307	-36.9	-46.7	321	16
2023-08-11T00:00	9362	305	-37.0	-47.0	321	16
2023-08-11T00:00	9390	304	-37.3	-47.1	321	17
2023-08-11T00:00	9421	303	-37.6	-47.2	321	17
2023-08-11T00:00	9450	302	-37.8	-47.4	321	17
2023-08-11T00:00	9476	300	-38.0	-47.3	321	17
2023-08-11T00:00	9501	299	-38.3	-47.3	322	17
2023-08-11T00:00	9530	298	-38.5	-47.4	323	17
2023-08-11T00:00	9560	297	-38.8	-47.6	323	17
2023-08-11T00:00	9588	295	-39.0	-47.5	324	17
2023-08-11T00:00	9624	294	-39.4	-47.5	324	17
2023-08-11T00:00	9656	293	-39.7	-47.7	324	17
2023-08-11T00:00	9678	292	-39.9	-47.6	323	17
2023-08-11T00:00	9705	291	-40.2	-47.6	323	17
2023-08-11T00:00	9732	289	-40.4	-47.6	323	17
2023-08-11T00:00	9759	288	-40.7	-47.8	323	17
2023-08-11T00:00	9788	287	-40.9	-48.8	324	17
2023-08-11T00:00	9816	286	-41.0	-49.7	325	17
2023-08-11T00:00	9844	285	-41.1	-50.5	327	17
2023-08-11T00:00	9872	283	-41.3	-51.3	328	18
2023-08-11T00:00	9897	282	-41.5	-50.8	328	18
2023-08-11T00:00	9927	281	-41.7	-50.5	328	18
2023-08-11T00:00	9952	280	-41.9		328	18
2023-08-11T00:00	9972	279	-42.2	-50.7	328	18
2023-08-11T00:00	9995	278	-42.4	-50.6	328	18
2023-08-11T00:00	10016	277	-42.6	-50.7	328	18
2023-08-11T00:00	10037	277	-42.8	-50.8	329	18
2023-08-11T00:00	10057	276	-42.9	-50.9	330	18
2023-08-11T00:00	10080	275	-43.1	-51.2	331	18
2023-08-11T00:00	10101	274	-43.2	-51.6	331	18
2023-08-11T00:00	10122	273	-43.4	-51.9	332	18
2023-08-11T00:00	10144	272	-43.5	-52.0	332	18
2023-08-11T00:00	10162	272	-43.7	-52.5	333	18
2023-08-11T00:00	10181	271	-43.8	-52.7	333	19
2023-08-11T00:00	10202	270	-44.0	-52.8	333	19
2023-08-11T00:00	10221	269	-44.1	-53.0	332	19
2023-08-11T00:00	10241	268	-44.2	-53.7	332	19
2023-08-11T00:00	10260	268	-44.3	-53.8	331	19
2023-08-11T00:00	10281	267	-44.5	-53.9	329	19
2023-08-11T00:00	10300	266	-44.7	-54.1	328	19
2023-08-11T00:00	10320	265	-44.8	-55.2	328	19
2023-08-11T00:00	10340	264	-45.0	-56.4	327	19
2023-08-11T00:00	10359	264	-45.1	-56.8	327	19
2023-08-11T00:00	10380	263	-45.3	-57.2	326	19
2023-08-11T00:00	10402	262	-45.4	-58.3	327	18
2023-08-11T00:00	10421	261	-45.5	-58.8	327	18
2023-08-11T00:00	10441	260	-45.6	-58.4	327	18
2023-08-11T00:00	10460	260	-45.7	-58.1	328	18
2023-08-11T00:00	10482	259	-45.9	-58.1	328	19
2023-08-11T00:00	10502	258	-45.9	-58.1	329	19
2023-08-11T00:00	10522	257	-46.0	-58.3	329	19
2023-08-11T00:00	10542	256	-46.1	-58.7	329	19
2023-08-11T00:00	10564	256	-46.3	-58.9	329	19
2023-08-11T00:00	10585	255	-46.4	-58.9	329	19
2023-08-11T00:00	10605	254	-46.6	-59.0	328	19
2023-08-11T00:00	10627	253	-46.7	-59.1	327	19
2023-08-11T00:00	10647	252	-46.8	-59.2	326	19
2023-08-11T00:00	10668	252	-46.9	-59.3	326	19
2023-08-11T00:00	10689	251	-47.1	-59.3	325	19
2023-08-11T00:00	10710	250	-47.3	-59.4	324	19
2023-08-11T00:00	10731	249	-47.5	-59.5	323	19
2023-08-11T00:00	10750	249	-47.6	-59.6	323	19
2023-08-11T00:00	10771	248	-47.7	-59.7	322	19
2023-08-11T00:00	10792	247	-47.9	-59.9	321	19
2023-08-11T00:00	10813	246	-48.0	-61.3	320	20
2023-08-11T00:00	10833	245	-47.8	-63.8	320	20
2023-08-11T00:00	10855	245	-47.6	-65.1	320	20
2023-08-11T00:00	10877	244	-47.6	-64.8	320	20
2023-08-11T00:00	10897	243	-47.7	-64.4	320	20
2023-08-11T00:00	10919	242	-47.8	-64.3	320	20
2023-08-11T00:00	10939	242	-48.0	-64.4	320	20
2023-08-11T00:00	10960	241	-48.1	-64.4	320	20
2023-08-11T00:00	10983	240	-48.3	-64.5	320	20
2023-08-11T00:00	11004	239	-48.5	-64.6	320	20
2023-08-11T00:00	11025	238	-48.7	-64.7	321	20
2023-08-11T00:00	11046	238	-48.8	-64.7	320	20
2023-08-11T00:00	11066	237	-49.0	-64.9	320	20
2023-08-11T00:00	11088	236	-49.1	-64.9	319	20
2023-08-11T00:00	11109	235	-49.2	-65.0	318	20
2023-08-11T00:00	11129	235	-49.2	-65.0	317	20
2023-08-11T00:00	11151	234	-49.3	-65.1	316	20
2023-08-11T00:00	11171	233	-49.4	-65.1	315	20
2023-08-11T00:00	11190	232	-49.5	-65.0	315	20
2023-08-11T00:00	11210	232	-49.7	-65.0	314	20
2023-08-11T00:00	11232	231	-49.8	-64.8	314	21
2023-08-11T00:00	11257	230	-50.0	-64.7	314	21
2023-08-11T00:00	11276	230	-50.2	-64.8	315	21
2023-08-11T00:00	11295	229	-50.3	-64.9	315	21
2023-08-11T00:00	11315	228	-50.4	-65.0	315	21
2023-08-11T00:00	11336	227	-50.4	-64.9	316	21
2023-08-11T00:00	11356	227	-50.4		317	21
2023-08-11T00:00	11374	226	-50.5	-64.8	319	21
2023-08-11T00:00	11394	225	-50.5	-64.7	320	21
2023-08-11T00:00	11415	225	-50.6	-64.8	322	21
2023-08-11T00:00	11435	224	-50.6	-65.0	323	21
2023-08-11T00:00	11453	223	-50.6	-65.2	324	20
2023-08-11T00:00	11477	223	-50.7	-65.6	323	20
2023-08-11T00:00	11495	222	-50.7	-66.1	323	19
2023-08-11T00:00	11516	221	-50.7	-66.6	322	19
2023-08-11T00:00	11535	221	-50.7	-67.2	321	19
2023-08-11T00:00	11556	220	-50.7	-68.1	320	19
2023-08-11T00:00	11577	219	-50.4	-68.7	320	19
2023-08-11T00:00	11597	218	-50.3	-68.8	321	20
2023-08-11T00:00	11619	218	-50.3	-68.6	321	20
2023-08-11T00:00	11640	217	-50.4	-68.6	322	21
2023-08-11T00:00	11661	216	-50.4	-68.8	323	21
2023-08-11T00:00	11683	216	-50.3	-69.1	324	21
2023-08-11T00:00	11704	215	-50.1	-69.5	325	21
2023-08-11T00:00	11726	214	-50.0	-70.0	326	21
2023-08-11T00:00	11747	213	-49.7	-70.0	326	21
2023-08-11T00:00	11768	213	-49.8	-70.2	325	21
2023-08-11T00:00	11789	212	-50.0	-70.2	324	20
2023-08-11T00:00	11811	211	-50.1	-69.9	323	20
2023-08-11T00:00	11832	211	-50.1	-69.6	322	20
2023-08-11T00:00	11853	210	-50.1	-69.5	321	20
2023-08-11T00:00	11875	209	-50.0	-69.6	320	21
2023-08-11T00:00	11897	209	-49.9	-69.6	319	21
2023-08-11T00:00	11917	208	-49.9	-69.9	318	21
2023-08-11T00:00	11937	207	-49.8	-70.1	317	21
2023-08-11T00:00	11959	207	-49.8	-70.3	317	20
2023-08-11T00:00	11979	206	-50.0	-70.6	316	20
2023-08-11T00:00	12000	205	-50.0	-70.6	316	20
2023-08-11T00:00	12020	205	-50.1	-70.8	316	20
2023-08-11T00:00	12039	204	-50.2	-70.9	316	20
2023-08-11T00:00	12061	203	-50.3	-70.9	316	20
2023-08-11T00:00	12080	203	-50.5	-71.1	316	20
2023-08-11T00:00	12101	202	-50.6	-71.3	317	20
2023-08-11T00:00	12120	202	-50.6	-71.4	317	20
2023-08-11T00:00	12140	201	-50.6	-71.5	318	20
2023-08-11T00:00	12161	200	-50.7	-71.7	318	19
2023-08-11T00:00	12180	200	-50.7	-71.8	319	19
2023-08-11T00:00	12199	199	-50.8	-72.0	320	19
2023-08-11T00:00	12218	199	-50.8	-72.3	321	19
2023-08-11T00:00	12238	198	-50.8		322	18
2023-08-11T00:00	12257	197	-50.6	-73.1	322	18
2023-08-11T00:00	12274	197	-50.5	-73.3	322	18
2023-08-11T00:00	12297	196	-50.6	-73.4	321	18
2023-08-11T00:00	12316	196	-50.8	-73.4	321	18
2023-08-11T00:00	12336	195	-50.8	-73.5	321	19
2023-08-11T00:00	12355	194	-50.8	-73.7	320	19
2023-08-11T00:00	12375	194	-50.9	-73.9	319	19
2023-08-11T00:00	12394	193	-50.8	-74.0	318	20
2023-08-11T00:00	12418	193	-50.9	-74.1	317	20
2023-08-11T00:00	12434	192	-51.1	-74.4	317	20
2023-08-11T00:00	12456	192	-51.2	-74.5	316	20
2023-08-11T00:00	12476	191	-51.3	-74.6	315	21
2023-08-11T00:00	12495	190	-51.3	-74.6	314	21
2023-08-11T00:00	12514	190	-51.4	-74.8	314	21
2023-08-11T00:00	12535	189	-51.4	-75.2	313	21
2023-08-11T00:00	12553	189	-51.2	-75.2	312	22
2023-08-11T00:00	12572	188	-51.1	-75.3	312	22
2023-08-11T00:00	12590	188	-51.2	-75.6	312	22
2023-08-11T00:00	12610	187	-51.2	-75.6	313	22
2023-08-11T00:00	12628	186	-51.1	-75.7	313	22
2023-08-11T00:00	12647	186	-51.2	-75.8	312	22
2023-08-11T00:00	12669	185	-51.3	-75.8	312	22
2023-08-11T00:00	12688	185	-51.4	-75.9	311	22
2023-08-11T00:00	12709	184	-51.6	-76.1	310	22
2023-08-11T00:00	12728	184	-51.5	-76.0	309	22
2023-08-11T00:00	12749	183	-51.4	-76.1	309	22
2023-08-11T00:00	12768	183	-51.3	-76.0	309	22
2023-08-11T00:00	12787	182	-51.0	-76.0	310	22
2023-08-11T00:00	12809	181	-51.0	-76.0	311	23
2023-08-11T00:00	12827	181	-51.1	-76.1	311	23
2023-08-11T00:00	12848	180	-51.2	-76.2	312	23
2023-08-11T00:00	12869	180	-51.3	-76.2	312	23
2023-08-11T00:00	12888	179	-51.3	-76.2	312	23
2023-08-11T00:00	12910	179	-51.2	-76.4	312	24
2023-08-11T00:00	12933	178	-51.3	-76.7	313	24
2023-08-11T00:00	12954	177	-51.2	-76.6	313	24
2023-08-11T00:00	12977	177	-51.2	-76.8	314	24
2023-08-11T00:00	13001	176	-51.4	-77.0	316	24
2023-08-11T00:00	13024	175	-51.4	-77.2	318	24
2023-08-11T00:00	13044	175	-51.4	-77.5	320	24
2023-08-11T00:00	13065	174	-51.2	-77.6	322	24
2023-08-11T00:00	13086	174	-50.9	-77.6	323	24
2023-08-11T00:00	13107	173	-50.8	-77.8	325	24
2023-08-11T00:00	13127	173	-50.8	-77.8	326	24
2023-08-11T00:00	13149	172	-50.9	-77.9	327	24
2023-08-11T00:00	13171	172	-51.0		328	24
2023-08-11T00:00	13189	171	-51.1	-78.0	328	23
2023-08-11T00:00	13211	171	-51.2	-78.1	329	23
2023-08-11T00:00	13232	170	-51.2	-78.4	328	23
2023-08-11T00:00	13251	169	-51.3	-78.5	328	22
2023-08-11T00:00	13270	169	-51.2	-78.4	327	22
2023-08-11T00:00	13294	168	-51.3	-78.5	326	21
2023-08-11T00:00	13314	168	-51.5	-78.3	326	21
2023-08-11T00:00	13335	167	-51.6	-78.4	325	21
2023-08-11T00:00	13355	167	-51.7	-78.5	325	21
2023-08-11T00:00	13379	166	-51.8	-78.9	324	21
2023-08-11T00:00	13398	166	-51.9	-78.9	324	21
2023-08-11T00:00	13418	165	-52.0	-79.0	323	21
2023-08-11T00:00	13441	165	-52.0	-79.0	323	21
2023-08-11T00:00	13461	164	-52.1	-79.4	324	21
2023-08-11T00:00	13484	163	-52.1	-79.4	325	21
2023-08-11T00:00	13506	163	-52.0	-79.3	326	20
2023-08-11T00:00	13526	162	-51.9	-79.5	327	20
2023-08-11T00:00	13547	162	-51.8	-79.5	327	20
2023-08-11T00:00	13568	161	-51.8	-79.5	327	19
2023-08-11T00:00	13588	161	-51.9	-79.5	326	19
2023-08-11T00:00	13608	160	-51.7	-79.7	325	19
2023-08-11T00:00	13631	160	-51.3	-79.4	323	19
2023-08-11T00:00	13649	159	-51.4	-79.8	322	19
2023-08-11T00:00	13671	159	-51.6	-79.6	320	20
2023-08-11T00:00	13693	158	-51.8	-79.8	318	20
2023-08-11T00:00	13718	158	-51.8	-79.8	317	20
2023-08-11T00:00	13740	157	-51.9	-79.9	316	20
2023-08-11T00:00	13760	157	-52.0	-80.0	316	20
2023-08-11T00:00	13785	156	-52.1	-80.0	318	20
2023-08-11T00:00	13808	155	-52.0	-80.3	320	20
2023-08-11T00:00	13834	155	-51.8	-80.1	323	20
2023-08-11T00:00	13855	154	-51.8	-80.5	325	19
2023-08-11T00:00	13876	154	-51.6	-80.8	327	19
2023-08-11T00:00	13897	153	-50.9	-80.2	329	19
2023-08-11T00:00	13920	153	-51.0	-80.3	330	18
2023-08-11T00:00	13941	152	-51.1	-80.8	331	18
2023-08-11T00:00	13961	152	-51.2	-80.5	332	17
2023-08-11T00:00	13984	151	-51.4	-80.6	332	17
2023-08-11T00:00	14006	151	-51.6	-80.8	333	16
2023-08-11T00:00	14025	150	-51.7	-80.8	333	16
2023-08-11T00:00	14047	150	-51.9	-81.0	333	15
2023-08-11T00:00	14067	149	-52.0	-81.1	332	15
2023-08-11T00:00	14091	149	-52.1	-81.1	331	15
2023-08-11T00:00	14114	148	-52.2	-81.2	329	14
2023-08-11T00:00	14132	148	-52.2	-81.2	328	14
2023-08-11T00:00	14157	147	-52.2	-81.2	327	15
2023-08-11T00:00	14176	147	-52.3	-81.7	327	15
2023-08-11T00:00	14194	146	-52.4	-81.8	328	15
2023-08-11T00:00	14218	146	-52.3	-81.7	329	15
2023-08-11T00:00	14237	146	-52.3	-81.7	330	15
2023-08-11T00:00	14258	145	-52.3	-81.7	331	15
2023-08-11T00:00	14281	145	-52.5	-81.8	332	15
2023-08-11T00:00	14301	144	-52.6	-81.9	333	15
2023-08-11T00:00	14323	144	-52.5	-81.8	334	15
2023-08-11T00:00	14345	143	-52.3	-82.1	335	15
2023-08-11T00:00	14366	143	-52.3	-82.1	336	15
2023-08-11T00:00	14387	142	-52.2	-82.1	337	14
2023-08-11T00:00	14409	142	-52.0	-81.9	339	14
2023-08-11T00:00	14429	141	-51.8	-82.2	341	13
2023-08-11T00:00	14450	141	-51.7	-82.2	342	13
2023-08-11T00:00	14472	140	-51.7	-82.2	341	12
2023-08-11T00:00	14491	140	-51.5	-82.0	340	12
2023-08-11T00:00	14515	139	-51.4	-81.9	337	12
2023-08-11T00:00	14535	139	-51.3	-81.9	333	12
2023-08-11T00:00	14557	139	-51.2	-82.3	329	12
2023-08-11T00:00	14576	138	-51.2	-82.3	325	12
2023-08-11T00:00	14597	138	-51.1	-82.2	322	12
2023-08-11T00:00	14616	137	-51.0	-82.2	320	12
2023-08-11T00:00	14638	137	-51.0	-82.2	319	12
2023-08-11T00:00	14657	136	-51.0	-82.2	320	12
2023-08-11T00:00	14678	136	-50.7		321	11
2023-08-11T00:00	14699	136	-50.2		323	11
2023-08-11T00:00	14719	135	-50.2	-82.1	325	11
2023-08-11T00:00	14735	135	-50.0	-82.0	327	11
2023-08-11T00:00	14756	134	-49.9	-81.9	329	11
2023-08-11T00:00	14777	134	-50.0	-82.0	331	11
2023-08-11T00:00	14799	133	-49.9	-81.9	332	10
2023-08-11T00:00	14820	133	-50.0	-82.0	332	10
2023-08-11T00:00	14839	133	-49.9	-81.9	332	9
2023-08-11T00:00	14862	132	-49.8	-81.8	331	9
2023-08-11T00:00	14883	132	-49.9	-81.9	330	8
2023-08-11T00:00	14902	131	-50.0	-82.0	328	7
2023-08-11T00:00	14924	131	-49.9	-81.9	327	6
2023-08-11T00:00	14945	131	-49.7	-81.8	326	6
2023-08-11T00:00	14966	130	-49.7	-81.2	326	6
2023-08-11T00:00	14987	130	-49.8	-81.3	327	5
2023-08-11T00:00	15008	129	-50.0	-81.4	329	5
2023-08-11T00:00	15030	129	-50.2		331	4
2023-08-11T00:00	15053	128	-50.4	-81.7	332	4
2023-08-11T00:00	15073	128	-50.5	-81.3	332	4
2023-08-11T00:00	15096	128	-50.6	-81.3	330	4
2023-08-11T00:00	15118	127	-50.8	-81.5	328	4
2023-08-11T00:00	15139	127	-50.7	-81.4	326	4
2023-08-11T00:00	15159	126	-50.6	-81.3	326	4
2023-08-11T00:00	15181	126	-50.8	-81.5	327	5
2023-08-11T00:00	15205	125	-50.9	-81.6	328	5
2023-08-11T00:00	15226	125	-51.1	-81.7	330	5
2023-08-11T00:00	15247	125	-51.1	-81.7	331	5
2023-08-11T00:00	15268	124	-51.0	-81.6	332	5
2023-08-11T00:00	15291	124	-51.1	-81.7	332	5
2023-08-11T00:00	15316	123	-51.4	-81.9	333	5
2023-08-11T00:00	15339	123	-51.6	-81.6	334	5
2023-08-11T00:00	15360	122	-51.7	-81.7	335	5
2023-08-11T00:00	15383	122	-51.7	-81.7	336	5
2023-08-11T00:00	15402	122	-51.9	-81.8	338	5
2023-08-11T00:00	15422	121	-51.9	-81.8	338	5
2023-08-11T00:00	15448	121	-51.9	-81.8	339	5
2023-08-11T00:00	15472	120	-52.0	-81.9	339	5
2023-08-11T00:00	15493	120	-52.1	-82.0	339	5
2023-08-11T00:00	15518	120	-52.2	-82.1	339	5
2023-08-11T00:00	15542	119	-52.3	-82.1	338	5
2023-08-11T00:00	15564	119	-52.5	-82.3	337	5
2023-08-11T00:00	15585	118	-52.6	-82.4	336	5
2023-08-11T00:00	15608	118	-52.7	-82.4	333	4
2023-08-11T00:00	15634	117	-52.8	-82.5	329	4
2023-08-11T00:00	15657	117	-52.7	-82.4	323	4
2023-08-11T00:00	15684	117	-52.7	-82.4	315	4
2023-08-11T00:00	15702	116	-52.9	-82.6	306	4
2023-08-11T00:00	15726	116	-53.0	-82.7	297	3
2023-08-11T00:00	15748	115	-52.6	-82.4	290	4
2023-08-11T00:00	15772	115	-52.6	-82.4	284	4
2023-08-11T00:00	15794	115	-52.8	-82.5	281	4
2023-08-11T00:00	15816	114	-53.0	-82.7	280	4
2023-08-11T00:00	15836	114	-53.2	-82.8	279	5
2023-08-11T00:00	15857	113	-53.2	-82.8	278	5
2023-08-11T00:00	15878	113	-53.1	-82.7	278	6
2023-08-11T00:00	15900	113	-53.1	-82.7	278	6
2023-08-11T00:00	15923	112	-53.1	-82.7	279	6
2023-08-11T00:00	15943	112	-53.2	-83.3	282	6
2023-08-11T00:00	15966	111	-53.3		284	6
2023-08-11T00:00	15988	111	-53.1	-83.2	287	6
2023-08-11T00:00	16009	111	-53.0	-83.1	289	6
2023-08-11T00:00	16033	110	-53.0	-83.1	290	6
2023-08-11T00:00	16054	110	-53.1	-83.2	291	5
2023-08-11T00:00	16076	110	-53.1	-83.2	294	5
2023-08-11T00:00	16098	109	-53.1	-83.2	298	5
2023-08-11T00:00	16119	109	-53.1	-83.2	304	4
2023-08-11T00:00	16145	108	-53.2	-83.3	311	4
2023-08-11T00:00	16163	108	-53.2	-83.3	318	4
2023-08-11T00:00	16184	108	-53.1	-83.2	322	3
2023-08-11T00:00	16208	107	-53.1	-83.2	324	3
2023-08-11T00:00	16227	107	-53.2	-83.3	323	3
2023-08-11T00:00	16251	107	-53.1	-83.2	318	3
2023-08-11T00:00	16271	106	-53.1	-83.2	311	3
2023-08-11T00:00	16293	106	-53.2	-83.3	303	3
2023-08-11T00:00	16317	106	-53.3		297	4
2023-08-11T00:00	16337	105	-53.5	-83.5	291	4
2023-08-11T00:00	16363	105	-53.5	-83.5	286	5
2023-08-11T00:00	16384	104	-53.6	-83.6	284	6
2023-08-11T00:00	16409	104	-53.7	-83.7	284	6
2023-08-11T00:00	16436	104	-53.8	-83.7	284	7
2023-08-11T00:00	16457	103	-53.7	-83.7	286	8
2023-08-11T00:00	16479	103	-53.8	-83.7	287	9
2023-08-11T00:00	16503	103	-53.8	-83.7	288	9
2023-08-11T00:00	16525	102	-53.8	-83.7	289	10
2023-08-11T00:00	16548	102	-53.8	-83.7	291	10
2023-08-11T00:00	16571	102	-53.8	-83.7	293	10
2023-08-11T00:00	16593	101	-53.8	-83.7	296	10
2023-08-11T00:00	16617	101	-53.8	-83.7	299	9
2023-08-11T00:00	16641	100	-53.7	-83.7	301	9
2023-08-11T00:00	16667	100	-53.5	-83.5	303	8
2023-08-11T00:00	16692	100	-53.7	-83.7	304	8
2023-08-11T00:00	16715	99	-53.9	-83.8	304	7
2023-08-11T00:00	16739	99	-54.2	-84.0	305	6
2023-08-11T00:00	16763	99	-54.3	-84.1	305	6
2023-08-11T00:00	16780	98	-54.4	-84.2	306	5
2023-08-11T00:00	16803	98	-54.5	-83.8	306	5
2023-08-11T00:00	16827	98	-54.5	-83.8	306	5
2023-08-11T00:00	16850	97	-54.6	-83.9	307	5
2023-08-11T00:00	16874	97	-54.7	-83.9	306	5
2023-08-11T00:00	16894	97	-54.5	-83.8	306	6
2023-08-11T00:00	16917	96	-54.5	-84.3	306	6
2023-08-11T00:00	16938	96	-54.3	-84.1	307	7
2023-08-11T00:00	16963	95	-54.3	-84.1	307	7
2023-08-11T00:00	16985	95	-54.5	-84.3	308	7
2023-08-11T00:00	17007	95	-54.5	-84.3	309	7
2023-08-11T00:00	17031	94	-54.4	-84.2	310	8
2023-08-11T00:00	17054	94	-54.2	-84.5	309	8
2023-08-11T00:00	17073	94	-54.0	-84.4	309	8
2023-08-11T00:00	17096	94	-53.9	-84.3	308	8
2023-08-11T00:00	17121	93	-54.0	-84.4	308	8
2023-08-11T00:00	17144	93	-54.2	-84.0	308	8
2023-08-11T00:00	17164	93	-54.3	-84.1	308	8
2023-08-11T00:00	17189	92	-54.2	-84.0	308	9
2023-08-11T00:00	17208	92	-54.0	-83.9	307	9
2023-08-11T00:00	17234	92	-54.1	-84.0	307	9
2023-08-11T00:00	17257	91	-54.1	-84.0	307	9
2023-08-11T00:00	17276	91	-54.0	-84.4	308	9
2023-08-11T00:00	17302	91	-54.1	-84.5	309	9
2023-08-11T00:00	17324	90	-54.3	-84.6	312	9
2023-08-11T00:00	17349	90	-54.2	-84.5	315	9
2023-08-11T00:00	17371	90	-54.3	-84.1	318	9
2023-08-11T00:00	17398	89	-54.4	-84.2	321	9
2023-08-11T00:00	17418	89	-54.6	-84.3	325	9
2023-08-11T00:00	17441	89	-54.7	-84.4	327	8
2023-08-11T00:00	17463	88	-54.9	-84.6	328	8
2023-08-11T00:00	17486	88	-55.0	-84.6	328	8
2023-08-11T00:00	17509	88	-55.1	-84.7	327	8
2023-08-11T00:00	17530	87	-55.2	-84.8	325	7
2023-08-11T00:00	17553	87	-55.2	-84.8	324	7
2023-08-11T00:00	17576	87	-55.3	-84.9	324	7
2023-08-11T00:00	17603	86	-55.4	-84.9	324	6
2023-08-11T00:00	17622	86	-55.4	-84.9	326	6
2023-08-11T00:00	17645	86	-55.6	-85.1	329	6
2023-08-11T00:00	17668	86	-55.6	-85.1	333	5
2023-08-11T00:00	17692	85	-55.5	-85.0	337	5
2023-08-11T00:00	17711	85	-55.6	-85.1	342	5
2023-08-11T00:00	17733	85	-55.7	-85.2	346	5
2023-08-11T00:00	17755	84	-55.8	-85.2	350	5
2023-08-11T00:00	17775	84	-55.6	-85.1	353	5
2023-08-11T00:00	17798	84	-55.7	-85.2	355	5
2023-08-11T00:00	17816	84	-55.5	-85.0	355	4
2023-08-11T00:00	17839	83	-55.5	-85.0	353	4
2023-08-11T00:00	17861	83	-55.2	-85.3	348	4
2023-08-11T00:00	17881	83	-54.6	-84.8	343	4
2023-08-11T00:00	17901	82	-54.4	-85.2	339	4
2023-08-11T00:00	17923	82	-54.2	-85.1	337	4
2023-08-11T00:00	17949	82	-54.0	-84.9	337	4
2023-08-11T00:00	17972	82	-53.9	-84.9	340	4
2023-08-11T00:00	17992	81	-54.0	-84.9	345	3
2023-08-11T00:00	18014	81	-54.2	-85.1	351	3
2023-08-11T00:00	18035	81	-53.9	-84.9	354	2
2023-08-11T00:00	18058	80	-53.6	-84.6	354	2
2023-08-11T00:00	18083	80	-53.4	-84.5	347	1
2023-08-11T00:00	18105	80	-53.5	-84.6	337	1
2023-08-11T00:00	18129	80	-53.6	-84.6	334	2
2023-08-11T00:00	18148	79	-53.7	-84.7	337	2
2023-08-11T00:00	18174	79	-53.8	-84.8	341	3
2023-08-11T00:00	18193	79	-53.9	-84.9	343	3
2023-08-11T00:00	18217	78	-53.8	-84.8	343	4
2023-08-11T00:00	18241	78	-53.8	-84.8	343	5
2023-08-11T00:00	18263	78	-53.7	-84.7	344	5
2023-08-11T00:00	18287	78	-53.5	-84.6	346	5
2023-08-11T00:00	18312	77	-53.4	-84.5	349	5
2023-08-11T00:00	18333	77	-53.5	-84.6	354	5
2023-08-11T00:00	18355	77	-53.7	-84.7	358	6
2023-08-11T00:00	18382	77	-53.7	-84.7	2	6
2023-08-11T00:00	18405	76	-53.7	-84.7	4	6
2023-08-11T00:00	18430	76	-53.7	-84.7	6	6
2023-08-11T00:00	18451	76	-53.8	-84.8	7	6
2023-08-11T00:00	18473	75	-53.7	-84.7	8	6
2023-08-11T00:00	18496	75	-53.8	-84.8	9	5
2023-08-11T00:00	18523	75	-53.8	-84.8	10	5
2023-08-11T00:00	18546	75	-54.0	-84.4	11	5
2023-08-11T00:00	18573	74	-54.1	-84.5	14	4
2023-08-11T00:00	18596	74	-54.1	-84.5	18	4
2023-08-11T00:00	18622	74	-54.2	-84.5	23	3
2023-08-11T00:00	18643	73	-54.4	-84.7	31	3
2023-08-11T00:00	18665	73	-54.5	-84.8	41	3
2023-08-11T00:00	18686	73	-54.5	-84.8	55	2
2023-08-11T00:00	18712	73	-54.7	-84.9	69	2
2023-08-11T00:00	18739	72	-54.8	-85.0	82	2
2023-08-11T00:00	18760	72	-54.9	-85.1	93	2
2023-08-11T00:00	18784	72	-54.8	-85.0	105	2
2023-08-11T00:00	18811	72	-54.8	-85.0	118	2
2023-08-11T00:00	18834	71	-54.9	-85.1	138	1
2023-08-11T00:00	18859	71	-54.9	-85.1	171	1
2023-08-11T00:00	18879	71	-54.9	-85.1	216	1
2023-08-11T00:00	18902	71	-55.0	-85.1	251	1
2023-08-11T00:00	18926	70	-55.1	-85.2	270	1
2023-08-11T00:00	18951	70	-55.1	-85.8	281	2
2023-08-11T00:00	18973	70	-54.9	-85.6	288	2
2023-08-11T00:00	18995	70	-54.6	-85.4	292	2
2023-08-11T00:00	19019	69	-54.5	-85.3	295	2
2023-08-11T00:00	19043	69	-54.5	-85.3	298	2
2023-08-11T00:00	19064	69	-54.4	-85.2	302	2
2023-08-11T00:00	19091	69	-54.4	-85.2	308	2
2023-08-11T00:00	19113	68	-54.4	-85.2	314	2
2023-08-11T00:00	19134	68	-54.3	-85.2	319	2
2023-08-11T00:00	19158	68	-54.1	-85.0	325	3
2023-08-11T00:00	19184	68	-54.1	-85.0	330	3
2023-08-11T00:00	19201	67	-54.1	-85.0	336	3
2023-08-11T00:00	19228	67	-54.0	-85.5	341	4
2023-08-11T00:00	19250	67	-53.8	-85.4	346	4
2023-08-11T00:00	19272	67	-53.9	-84.9	350	5
2023-08-11T00:00	19296	66	-53.8	-84.8	355	5
2023-08-11T00:00	19317	66	-53.8	-84.8	359	5
2023-08-11T00:00	19342	66	-53.8	-84.8	4	4
2023-08-11T00:00	19364	66	-53.8	-84.8	11	4
2023-08-11T00:00	19387	65	-53.8	-84.8	20	3
2023-08-11T00:00	19412	65	-53.8	-84.8	31	2
2023-08-11T00:00	19432	65	-53.7	-85.3	45	2
2023-08-11T00:00	19455	65	-53.5	-85.2	60	2
2023-08-11T00:00	19481	64	-53.4	-84.5	74	2
2023-08-11T00:00	19507	64	-53.6	-84.6	86	3
2023-08-11T00:00	19530	64	-53.8	-84.8	96	3
2023-08-11T00:00	19552	64	-53.9	-84.9	102	3
2023-08-11T00:00	19573	64	-54.0	-84.9	107	3
2023-08-11T00:00	19602	63	-54.0	-84.9	109	2
2023-08-11T00:00	19624	63	-53.5	-84.6	107	2
2023-08-11T00:00	19646	63	-53.5	-84.6	93	1
2023-08-11T00:00	19671	63	-53.6	-84.6	42	1
2023-08-11T00:00	19695	62	-53.8	-84.8	359	1
2023-08-11T00:00	19717	62	-53.9	-84.9	346	2
2023-08-11T00:00	19745	62	-53.9	-84.9	342	2
2023-08-11T00:00	19768	62	-53.9	-84.9	341	3
2023-08-11T00:00	19792	61	-53.9	-84.9	341	3
2023-08-11T00:00	19815	61	-53.9	-84.9	343	4
2023-08-11T00:00	19836	61	-54.0	-84.9	345	4
2023-08-11T00:00	19865	61	-54.2	-85.1	348	4
2023-08-11T00:00	19888	60	-54.3	-85.2	353	5
2023-08-11T00:00	19914	60	-54.2	-85.1	357	5
2023-08-11T00:00	19939	60	-54.2	-85.1	3	5
2023-08-11T00:00	19959	60	-54.3	-85.2	8	5
2023-08-11T00:00	19991	60	-54.2	-85.1	13	6
2023-08-11T00:00	20014	59	-54.4	-85.2	18	6
2023-08-11T00:00	20035	59	-54.5	-85.3	23	6
2023-08-11T00:00	20062	59	-54.6	-85.4	26	7
2023-08-11T00:00	20085	59	-54.5	-85.3	28	7
2023-08-11T00:00	20108	58	-54.7	-85.5	29	7
2023-08-11T00:00	20134	58	-54.8	-85.5	30	6
2023-08-11T00:00	20156	58	-54.8	-85.5	33	6
2023-08-11T00:00	20180	58	-54.7	-85.5	35	6
2023-08-11T00:00	20204	58	-54.8	-85.5	38	6
2023-08-11T00:00	20228	57	-54.8	-85.5	40	5
2023-08-11T00:00	20255	57	-54.8	-85.5	40	5
2023-08-11T00:00	20280	57	-54.8	-85.5	37	5
2023-08-11T00:00	20300	57	-54.8	-85.5	34	6
2023-08-11T00:00	20327	56	-54.7	-85.5	30	6
2023-08-11T00:00	20353	56	-54.5	-85.3	28	6
2023-08-11T00:00	20374	56	-54.5	-85.3	28	7
2023-08-11T00:00	20403	56	-54.4	-85.2	30	7
2023-08-11T00:00	20422	56	-54.3	-85.8	35	8
2023-08-11T00:00	20448	55	-54.2	-85.7	40	8
2023-08-11T00:00	20470	55	-53.7	-85.3	46	8
2023-08-11T00:00	20493	55	-53.6	-85.3	51	8
2023-08-11T00:00	20516	55	-53.3	-85.0	55	9
2023-08-11T00:00	20540	55	-53.3	-85.0	59	9
2023-08-11T00:00	20566	54	-53.2	-85.0	63	9
2023-08-11T00:00	20589	54	-53.2	-85.0	66	9
2023-08-11T00:00	20613	54	-53.4	-85.1	69	9
2023-08-11T00:00	20637	54	-53.3	-85.0	71	9
2023-08-11T00:00	20661	54	-53.1	-84.9	74	9
2023-08-11T00:00	20688	53	-53.1	-84.9	77	9
2023-08-11T00:00	20712	53	-53.1	-84.9	79	9
2023-08-11T00:00	20736	53	-53.2	-85.0	82	9
2023-08-11T00:00	20763	53	-53.4	-85.1	85	8
2023-08-11T00:00	20784	53	-53.5	-85.2	88	8
2023-08-11T00:00	20809	52	-53.5	-85.2	90	7
2023-08-11T00:00	20832	52	-53.4	-85.1	92	7
2023-08-11T00:00	20854	52	-53.2	-85.0	93	6
2023-08-11T00:00	20881	52	-53.2	-85.0	94	6
2023-08-11T00:00	20905	52	-53.1	-84.9	94	5
2023-08-11T00:00	20929	51	-52.9	-84.7	95	5
2023-08-11T00:00	20954	51	-52.8	-84.7	96	5
2023-08-11T00:00	20977	51	-52.6	-84.5	98	5
2023-08-11T00:00	21002	51	-52.7	-84.6	100	5
2023-08-11T00:00	21024	51	-52.7	-84.6	102	5
2023-08-11T00:00	21049	50	-52.7	-84.6	102	6
2023-08-11T00:00	21078	50	-52.6	-84.5	103	6
2023-08-11T00:00	21094	50	-52.6	-84.5	102	6
2023-08-11T00:00	21125	50	-52.7	-84.6	103	6
2023-08-11T00:00	21149	50	-52.6	-84.5	103	6
2023-08-11T00:00	21171	50	-52.5	-84.4	104	6
2023-08-11T00:00	21196	49	-52.6	-84.5	105	5
2023-08-11T00:00	21222	49	-52.8	-84.7	105	5
2023-08-11T00:00	21247	49	-52.8	-84.7	105	5
2023-08-11T00:00	21271	49	-52.8	-84.7	103	5
2023-08-11T00:00	21295	49	-52.4	-84.4	102	4
2023-08-11T00:00	21321	48	-52.3	-84.3	101	4
2023-08-11T00:00	21344	48	-52.1	-84.8	100	3
2023-08-11T00:00	21370	48	-52.2	-84.9	101	3
2023-08-11T00:00	21396	48	-52.2	-84.9	101	3
2023-08-11T00:00	21417	48	-52.1	-84.8	100	3
2023-08-11T00:00	21447	48	-52.2	-84.9	100	3
2023-08-11T00:00	21469	47	-52.0	-84.8	101	4
2023-08-11T00:00	21496	47	-52.0	-84.8	103	4
2023-08-11T00:00	21517	47	-51.9	-84.7	106	5
2023-08-11T00:00	21547	47	-52.0	-84.8	109	6
2023-08-11T00:00	21573	47	-52.0	-84.8	113	6
2023-08-11T00:00	21598	46	-52.0	-84.8	116	6
2023-08-11T00:00	21621	46	-51.9	-84.7	119	6
2023-08-11T00:00	21646	46	-51.9	-84.7	122	6
2023-08-11T00:00	21670	46	-52.0	-84.8	123	5
2023-08-11T00:00	21692	46	-52.0	-84.1	124	5
2023-08-11T00:00	21717	46	-52.1	-84.2	122	5
2023-08-11T00:00	21749	45	-52.2	-84.2	120	5
2023-08-11T00:00	21772	45	-52.2	-84.2	116	4
2023-08-11T00:00	21799	45	-52.2	-84.2	111	4
2023-08-11T00:00	21820	45	-52.2	-84.2	105	3
2023-08-11T00:00	21845	45	-52.3	-84.3	97	3
2023-08-11T00:00	21871	44	-52.3	-84.3	88	2
2023-08-11T00:00	21893	44	-52.4	-84.4	75	2
2023-08-11T00:00	21923	44	-52.5	-84.4	59	1
2023-08-11T00:00	21947	44	-52.5	-84.4	46	1
2023-08-11T00:00	21975	44	-52.5	-84.4	43	2
2023-08-11T00:00	21998	44	-52.5	-84.4	49	2
2023-08-11T00:00	22027	43	-52.5	-84.4	58	3
2023-08-11T00:00	22048	43	-52.5	-84.4	66	3
2023-08-11T00:00	22074	43	-52.3	-84.3	73	4
2023-08-11T00:00	22094	43	-52.4	-84.4	79	4
2023-08-11T00:00	22124	43	-52.3	-84.3	85	4
2023-08-11T00:00	22148	43	-52.3	-84.3	91	4
2023-08-11T00:00	22175	42	-52.3	-85.0	96	4
2023-08-11T00:00	22196	42	-52.1	-84.8	99	4
2023-08-11T00:00	22226	42	-52.0	-84.8	100	4
2023-08-11T00:00	22249	42	-52.0	-84.8	100	4
2023-08-11T00:00	22276	42	-52.0	-84.8	97	3
2023-08-11T00:00	22303	42	-52.0	-84.8	91	3
2023-08-11T00:00	22329	41	-52.0	-84.8	84	3
2023-08-11T00:00	22356	41	-52.0	-84.8	76	3
2023-08-11T00:00	22382	41	-52.1	-84.2	67	3
2023-08-11T00:00	22411	41	-52.3	-84.3	59	3
2023-08-11T00:00	22432	41	-52.4	-84.4	53	3
2023-08-11T00:00	22459	41	-52.6	-84.5	50	4
2023-08-11T00:00	22488	40	-52.7	-84.6	49	4
2023-08-11T00:00	22518	40	-52.7	-84.6	50	5
2023-08-11T00:00	22540	40	-52.8	-84.7	52	5
2023-08-11T00:00	22562	40	-52.6	-84.5	54	6
2023-08-11T00:00	22589	40	-52.7	-84.6	55	7
2023-08-11T00:00	22615	40	-52.8	-84.7	54	7
2023-08-11T00:00	22641	39	-52.8	-84.7	54	8
2023-08-11T00:00	22665	39	-52.8	-84.7	53	8
2023-08-11T00:00	22694	39	-52.7	-84.6	53	8
2023-08-11T00:00	22718	39	-52.6	-84.5	54	8
2023-08-11T00:00	22746	39	-52.6	-84.5	56	8
2023-08-11T00:00	22773	39	-52.5	-85.1	60	8
2023-08-11T00:00	22793	39	-52.5	-84.4	64	7
2023-08-11T00:00	22820	38	-52.4	-84.4	67	7
2023-08-11T00:00	22846	38	-52.6	-84.5	71	7
2023-08-11T00:00	22876	38	-52.7	-84.6	73	7
2023-08-11T00:00	22895	38	-52.8	-84.7	75	8
2023-08-11T00:00	22921	38	-52.9	-84.7	77	8
2023-08-11T00:00	22947	38	-53.1	-84.9	79	7
2023-08-11T00:00	22975	38	-53.1	-84.9	81	7
2023-08-11T00:00	22999	37	-52.9	-84.7	83	7
2023-08-11T00:00	23026	37	-53.0	-84.8	86	7
2023-08-11T00:00	23046	37	-53.0	-84.8	89	7
2023-08-11T00:00	23069	37	-53.0	-84.8	92	7
2023-08-11T00:00	23097	37	-53.0	-84.8	95	8
2023-08-11T00:00	23121	37	-53.1	-84.9	98	8
2023-08-11T00:00	23148	37	-53.1	-84.9	101	9
2023-08-11T00:00	23172	36	-53.0	-84.8	103	9
2023-08-11T00:00	23193	36	-53.1	-84.9	105	10
2023-08-11T00:00	23220	36	-53.1	-84.9	107	10
2023-08-11T00:00	23244	36	-53.1	-84.9	108	10
2023-08-11T00:00	23267	36	-53.2	-85.0	108	10
2023-08-11T00:00	23291	36	-53.1	-84.9	108	9
2023-08-11T00:00	23318	36	-52.9	-84.7	107	9
2023-08-11T00:00	23337	35	-52.8	-85.3	106	8
2023-08-11T00:00	23362	35	-52.8	-85.3	104	8
2023-08-11T00:00	23385	35	-52.7	-85.3	102	8
2023-08-11T00:00	23411	35	-52.6	-85.2	102	7
2023-08-11T00:00	23441	35	-52.4	-85.1	103	7
2023-08-11T00:00	23465	35	-52.4	-85.1	105	7
2023-08-11T00:00	23478	35	-52.3	-85.0	107	7
2023-08-11T00:00	23509	35	-52.2	-84.9	107	7
2023-08-11T00:00	23534	34	-52.1	-84.8	106	7
2023-08-11T00:00	23561	34	-52.1	-84.8	103	7
2023-08-11T00:00	23581	34	-52.2	-84.9	100	7
2023-08-11T00:00	23603	34	-52.2	-84.9	97	7
2023-08-11T00:00	23631	34	-52.3	-85.0	95	6
2023-08-11T00:00	23652	34	-52.1	-84.8	94	7
2023-08-11T00:00	23675	34	-52.1	-84.8	95	7
2023-08-11T00:00	23704	33	-52.0	-84.8	96	7
2023-08-11T00:00	23726	33	-52.1	-84.8	98	7
2023-08-11T00:00	23750	33	-51.9	-84.7	99	8
2023-08-11T00:00	23777	33	-51.6	-84.5	99	8
2023-08-11T00:00	23804	33	-51.5	-84.4	100	8
2023-08-11T00:00	23826	33	-51.6	-84.5	100	8
2023-08-11T00:00	23850	33	-51.6	-84.5	101	8
2023-08-11T00:00	23879	33	-51.6	-84.5	102	7
2023-08-11T00:00	23907	32	-51.5	-84.4	102	7
2023-08-11T00:00	23930	32	-51.5	-84.4	101	7
2023-08-11T00:00	23959	32	-51.5	-84.4	99	7
2023-08-11T00:00	23986	32	-51.7	-84.5	96	7
2023-08-11T00:00	24011	32	-51.7	-84.5	93	6
2023-08-11T00:00	24041	32	-51.6	-84.5	89	6
2023-08-11T00:00	24063	32	-51.7	-84.5	86	6
2023-08-11T00:00	24092	32	-51.6	-84.5	84	7
2023-08-11T00:00	24114	31	-51.6	-84.5	85	8
2023-08-11T00:00	24148	31	-51.3	-84.3	86	8
2023-08-11T00:00	24173	31	-51.2	-84.2	89	9
2023-08-11T00:00	24198	31	-51.3	-84.3	92	9
2023-08-11T00:00	24225	31	-51.3	-84.3	96	9
2023-08-11T00:00	24252	31	-51.3	-84.3	101	9
2023-08-11T00:00	24280	31	-51.2	-84.2	106	9
2023-08-11T00:00	24309	31	-51.0	-84.0	112	10
2023-08-11T00:00	24339	30	-51.0	-84.0	118	10
2023-08-11T00:00	24367	30	-51.2	-84.2	123	10
2023-08-11T00:00	24389	30	-51.4	-84.3	127	10
2023-08-11T00:00	24414	30	-51.4	-84.3	129	10
2023-08-11T00:00	24449	30	-51.4	-84.3	130	10
2023-08-11T00:00	24469	30	-51.3	-84.3	129	9
2023-08-11T00:00	24501	30	-51.3	-84.3	128	9
2023-08-11T00:00	24530	30	-51.3	-84.3	127	8
2023-08-11T00:00	24555	29	-51.3	-84.3	125	8
2023-08-11T00:00	24575	29	-51.3	-84.3	124	7
2023-08-11T00:00	24606	29	-51.4	-84.3	124	7
2023-08-11T00:00	24634	29	-51.4	-84.3	123	6
2023-08-11T00:00	24656	29	-51.2	-84.2	122	6
2023-08-11T00:00	24683	29	-51.1	-84.9	120	5
2023-08-11T00:00	24712	29	-50.9	-84.7	117	5
2023-08-11T00:00	24736	29	-50.7	-84.6	113	5
2023-08-11T00:00	24771	28	-50.5	-84.5	109	5
2023-08-11T00:00	24791	28	-50.3	-84.3	104	5
2023-08-11T00:00	24822	28	-50.2	-84.2	100	5
2023-08-11T00:00	24849	28	-50.2	-84.2	98	5
2023-08-11T00:00	24872	28	-50.1	-84.2	97	5
2023-08-11T00:00	24894	28	-49.8	-84.0	97	5
2023-08-11T00:00	24920	28	-49.5	-83.7	99	5
2023-08-11T00:00	24945	28	-49.4	-83.7	102	5
2023-08-11T00:00	24973	28	-49.4	-83.7	104	5
2023-08-11T00:00	24997	27	-49.4	-83.7	107	6
2023-08-11T00:00	25018	27	-49.5	-83.7	108	6
2023-08-11T00:00	25047	27	-49.6	-83.8	110	6
2023-08-11T00:00	25077	27	-49.6	-83.8	110	6
2023-08-11T00:00	25100	27	-49.6	-83.8	110	6
2023-08-11T00:00	25131	27	-49.3	-83.6	111	6
2023-08-11T00:00	25152	27	-49.3	-83.6	111	5
2023-08-11T00:00	25193	27	-49.5	-83.7	111	5
2023-08-11T00:00	25213	27	-49.5	-83.7	110	5
2023-08-11T00:00	25239	26	-49.6	-83.8	106	4
2023-08-11T00:00	25259	26	-49.5	-83.7	101	4
2023-08-11T00:00	25292	26	-49.4	-83.7	93	4
2023-08-11T00:00	25318	26	-49.3	-83.6	87	4
2023-08-11T00:00	25341	26	-49.2	-83.5	84	5
2023-08-11T00:00	25369	26	-49.1	-83.4	83	5
2023-08-11T00:00	25402	26	-49.1	-83.4	83	5
2023-08-11T00:00	25426	26	-49.2	-83.5	83	4
2023-08-11T00:00	25451	26	-49.3	-83.6	84	4
2023-08-11T00:00	25487	26	-49.2	-83.5	85	3
2023-08-11T00:00	25510	25	-49.1	-83.4	85	3
2023-08-11T00:00	25541	25	-49.0	-84.3	85	2
2023-08-11T00:00	25558	25	-48.9	-84.2	86	2
2023-08-11T00:00	25588	25	-48.5	-83.9	89	1
2023-08-11T00:00	25620	25	-48.4	-83.8	92	1
2023-08-11T00:00	25653	25	-48.5	-83.9	94	1
2023-08-11T00:00	25667	25	-48.5	-83.9	93	2
2023-08-11T00:00	25702	25	-48.4	-83.8	89	2
2023-08-11T00:00	25727	25	-48.5	-83.9	82	2
2023-08-11T00:00	25749	24	-48.7	-84.1	75	2
2023-08-11T00:00	25777	24	-48.6		68	1
2023-08-11T00:00	25802	24	-48.6	-83.1	68	1
2023-08-11T00:00	25837	24	-48.6	-83.1	78	1
2023-08-11T00:00	25860	24	-48.6	-83.1	92	2
2023-08-11T00:00	25885	24	-48.5	-83.0	99	2
2023-08-11T00:00	25909	24	-48.5	-83.0	100	3
2023-08-11T00:00	25942	24	-48.6		97	3
2023-08-11T00:00	25965	24	-48.6		90	4
2023-08-11T00:00	25993	24	-48.4	-83.8	81	4
2023-08-11T00:00	26017	24	-48.2	-83.7	71	5
2023-08-11T00:00	26039	23	-48.1	-83.6	64	5
2023-08-11T00:00	26071	23	-48.1	-83.6	58	5
2023-08-11T00:00	26095	23	-48.1	-83.6	55	6
2023-08-11T00:00	26122	23	-47.9	-83.5	55	6
2023-08-11T00:00	26141	23	-47.8	-83.4	56	6
2023-08-11T00:00	26176	23	-47.8	-83.4	60	6
2023-08-11T00:00	26196	23	-47.8	-83.4	66	6
2023-08-11T00:00	26220	23	-47.8	-83.4	74	5
2023-08-11T00:00	26247	23	-47.9	-83.5	82	5
2023-08-11T00:00	26275	23	-48.0	-83.6	90	5
2023-08-11T00:00	26301	23	-47.8	-83.4	97	5
2023-08-11T00:00	26334	22	-47.4	-83.1	102	4
2023-08-11T00:00	26349	22	-47.4	-83.1	106	4
2023-08-11T00:00	26375	22	-47.3	-83.1	110	4
2023-08-11T00:00	26397	22	-47.4	-83.1	113	4
2023-08-11T00:00	26438	22	-47.1	-82.9	116	4
2023-08-11T00:00	26459	22	-47.0	-82.9	118	4
2023-08-11T00:00	26483	22	-47.0	-82.9	117	4
2023-08-11T00:00	26510	22	-46.8	-82.7	112	4
2023-08-11T00:00	26540	22	-46.7	-82.6	105	5
2023-08-11T00:00	26567	22	-46.3	-82.4	95	5
2023-08-11T00:00	26588	22	-46.3	-82.4	85	5
2023-08-11T00:00	26619	21	-46.3	-83.4	76	6
2023-08-11T00:00	26651	21	-46.1	-83.3	70	6
2023-08-11T00:00	26674	21	-46.2	-82.3	68	6
2023-08-11T00:00	26699	21	-46.2	-82.3	68	6
2023-08-11T00:00	26729	21	-46.1	-82.2	71	6
2023-08-11T00:00	26751	21	-45.7	-81.9	76	5
2023-08-11T00:00	26782	21	-45.7	-81.9	84	5
2023-08-11T00:00	26815	21	-45.8	-82.0	91	5
2023-08-11T00:00	26843	21	-45.8	-82.0	98	5
2023-08-11T00:00	26868	21	-45.8	-82.0	105	4
2023-08-11T00:00	26894	21	-45.9	-82.1	113	4
2023-08-11T00:00	26920	21	-45.8	-82.0	124	3
2023-08-11T00:00	26953	20	-45.8	-82.0	136	3
2023-08-11T00:00	26978	20	-45.9	-82.1	148	3
2023-08-11T00:00	27005	20	-45.9	-82.1	157	3
2023-08-11T00:00	27028	20	-45.9	-82.1	162	3
2023-08-11T00:00	27049	20	-45.9	-83.2	163	3
2023-08-11T00:00	27077	20	-45.8	-83.1	156	2
2023-08-11T00:00	27108	20	-45.8	-83.1	140	2
2023-08-11T00:00	27134	20	-45.8	-83.1	116	2
2023-08-11T00:00	27162	20	-45.7	-83.0	96	2
2023-08-11T00:00	27191	20	-45.7	-83.0	85	2
2023-08-11T00:00	27223	20	-45.5	-82.9	80	3
2023-08-11T00:00	27244	20	-45.4	-82.8	78	3
2023-08-11T00:00	27280	19	-45.5	-82.9	76	4
2023-08-11T00:00	27304	19	-45.6	-82.9	74	5
2023-08-11T00:00	27323	19	-45.4	-82.8	70	5
2023-08-11T00:00	27357	19	-45.2	-82.7	67	6
2023-08-11T00:00	27384	19	-45.2	-82.7	63	6
2023-08-11T00:00	27413	19	-45.1	-82.6	61	7
2023-08-11T00:00	27445	19	-45.0	-82.5	61	7
2023-08-11T00:00	27466	19	-45.1	-82.6	62	7
2023-08-11T00:00	27490	19	-44.8	-82.4	65	7
2023-08-11T00:00	27527	19	-44.8	-82.4	67	8
2023-08-11T00:00	27548	19	-44.7	-82.3	70	8
2023-08-11T00:00	27573	19	-44.7	-82.3	72	8
2023-08-11T00:00	27597	19	-44.7	-82.3	74	8
2023-08-11T00:00	27634	18	-44.8	-82.4	76	8
2023-08-11T00:00	27659	18	-44.8	-82.4	78	8
2023-08-11T00:00	27685	18	-45.0	-82.5	80	8
2023-08-11T00:00	27707	18	-45.1	-82.6	81	8
2023-08-11T00:00	27731	18	-45.2	-82.7	83	8
2023-08-11T00:00	27763	18	-45.3	-82.7	84	8
2023-08-11T00:00	27788	18	-45.4	-82.8	86	8
2023-08-11T00:00	27801	18	-45.5	-82.9	88	8
2023-08-11T00:00	27837	18	-45.4	-82.8	91	7
2023-08-11T00:00	27864	18	-45.3	-82.7	93	7
2023-08-11T00:00	27889	18	-45.1	-82.6	94	7
2023-08-11T00:00	27918	18	-45.2	-82.7	94	7
2023-08-11T00:00	27941	18	-45.1	-82.6	93	7
2023-08-11T00:00	27973	18	-45.1	-82.6	91	7
2023-08-11T00:00	27993	17	-45.1	-82.6	89	7
2023-08-11T00:00	28025	17	-45.2	-82.7	88	7
2023-08-11T00:00	28044	17	-45.2	-82.7	88	8
2023-08-11T00:00	28072	17	-45.2	-82.7	87	9
2023-08-11T00:00	28101	17	-45.1	-82.6	86	10
2023-08-11T00:00	28128	17	-45.1	-82.6	85	11
2023-08-11T00:00	28154	17	-45.2	-82.7	85	11
2023-08-11T00:00	28177	17	-45.1	-82.6	84	12
2023-08-11T00:00	28201	17	-45.1	-82.6	84	12
2023-08-11T00:00	28229	17	-45.2	-82.7	85	12
2023-08-11T00:00	28249	17	-45.1	-82.6	86	12
2023-08-11T00:00	28278	17	-45.1	-82.6	87	11
2023-08-11T00:00	28308	17	-45.2	-82.7	89	10
2023-08-11T00:00	28334	17	-45.3	-82.7	92	10
2023-08-11T00:00	28363	17	-45.2	-82.7	95	9
2023-08-11T00:00	28403	16	-45.3	-82.7	99	8
2023-08-11T00:00	28422	16	-45.4	-82.8	103	8
2023-08-11T00:00	28449	16	-45.4	-82.8	107	7
2023-08-11T00:00	28466	16	-45.4	-82.8	112	7
2023-08-11T00:00	28500	16	-45.4	-82.8	118	7
2023-08-11T00:00	28533	16	-45.5	-82.9	124	7
2023-08-11T00:00	28557	16	-45.4	-82.8	129	7
2023-08-11T00:00	28591	16	-45.3	-82.7	134	6
2023-08-11T00:00	28606	16	-45.3	-82.7	139	6
2023-08-11T00:00	28644	16	-45.5	-82.9	143	6
2023-08-11T00:00	28667	16	-45.6	-82.9	145	5
2023-08-11T00:00	28706	16	-45.5	-82.9	146	5
2023-08-11T00:00	28744	16	-45.5	-82.9	143	4
2023-08-11T00:00	28766	16	-45.4	-82.8	136	4
2023-08-11T00:00	28797	16	-45.2	-82.7	128	4
2023-08-11T00:00	28820	15	-45.0	-82.5	119	4
2023-08-11T00:00	28843	15	-45.1	-82.6	111	4
2023-08-11T00:00	28889	15	-45.2	-82.7	104	5
2023-08-11T00:00	28925	15	-45.2	-82.7	98	5
2023-08-11T00:00	28939	15	-45.4	-82.8	91	5
2023-08-11T00:00	28958	15	-45.5	-82.9	86	5
2023-08-11T00:00	28990	15	-45.5	-82.9	82	6
2023-08-11T00:00	29032	15	-45.5	-82.9	80	6
2023-08-11T00:00	29061	15	-45.3	-82.7	80	6
2023-08-11T00:00	29086	15	-45.2	-82.7	81	6
2023-08-11T00:00	29113	15	-45.1	-82.6	84	7
2023-08-11T00:00	29138	15	-44.9	-82.5	87	7
2023-08-11T00:00	29173	15	-44.9	-82.5	90	7
2023-08-11T00:00	29203	15	-44.9	-82.5	93	8
2023-08-11T00:00	29222	15	-44.9	-82.5	95	8
2023-08-11T00:00	29244	14	-44.6	-82.2	96	9
2023-08-11T00:00	29295	14	-44.4	-82.1	96	9
2023-08-11T00:00	29317	14	-44.4	-82.1	94	9
2023-08-11T00:00	29342	14	-44.3	-82.0	92	9
2023-08-11T00:00	29361	14	-44.1	-81.9	88	8
2023-08-11T00:00	29389	14	-44.0	-81.8	84	8
2023-08-11T00:00	29411	14	-43.9	-81.8	79	7
2023-08-11T00:00	29446	14	-43.9	-81.8	73	7
2023-08-11T00:00	29474	14	-43.9	-81.8	66	6
2023-08-11T00:00	29484	14	-43.8	-81.7	58	6
2023-08-11T00:00	29531	14	-44.0	-81.8	49	6
2023-08-11T00:00	29564	14	-44.2	-82.0	41	6
2023-08-11T00:00	29585	14	-44.2	-82.0	36	6
2023-08-11T00:00	29608	14	-44.3	-82.0	35	6
2023-08-11T00:00	29646	14	-44.2	-82.0	36	7
2023-08-11T00:00	29674	14	-43.9	-81.8	39	7
2023-08-11T00:00	29685	14	-43.6	-81.5	40	7
2023-08-11T00:00	29724	14	-43.5	-81.5	41	8
2023-08-11T00:00	29741	13	-43.4	-81.4	40	7
2023-08-11T00:00	29775	13	-43.3	-81.3	40	7
2023-08-11T00:00	29798	13	-43.4	-81.4	42	7
2023-08-11T00:00	29832	13	-43.5	-81.5	47	7
2023-08-11T00:00	29875	13	-43.6	-81.5	55	7
2023-08-11T00:00	29887	13	-43.1	-81.2	63	7
2023-08-11T00:00	29907	13	-43.2	-81.3	71	7
2023-08-11T00:00	29940	13	-43.3	-81.3	78	8
2023-08-11T00:00	29977	13	-43.5	-81.5	84	8
2023-08-11T00:00	30001	13	-43.7	-81.6	90	8
2023-08-11T00:00	30030	13	-43.9	-81.8	94	9
2023-08-11T00:00	30064	13	-44.1	-81.9	97	10
2023-08-11T00:00	30077	13	-44.1	-81.9	99	10
2023-08-11T00:00	30119	13	-44.0	-81.8	101	11
2023-08-11T00:00	30147	13	-44.0	-81.8	103	12
2023-08-11T00:00	30180	13	-44.1	-81.9	105	12
2023-08-11T00:00	30194	13	-44.2	-82.0	107	13
2023-08-11T00:00	30232	13	-44.3	-82.0	108	13
2023-08-11T00:00	30248	12	-44.3	-82.0	109	13
2023-08-11T00:00	30285	12	-44.1	-81.9	109	12
2023-08-11T00:00	30320	12	-44.0	-81.8	108	12
2023-08-11T00:00	30356	12	-43.8	-81.7	107	11
2023-08-11T00:00	30379	12	-43.7	-81.6	105	10
2023-08-11T00:00	30416	12	-43.7	-81.6	102	9
2023-08-11T00:00	30447	12	-43.7	-81.6	99	9
2023-08-11T00:00	30456	12	-43.6	-81.5	96	8
2023-08-11T00:00	30502	12	-43.5	-81.5	93	8
2023-08-11T00:00	30534	12	-43.4	-81.4	90	7
2023-08-11T00:00	30572	12	-43.3	-81.3	88	7
2023-08-11T00:00	30598	12	-43.3	-81.3	87	7
2023-08-11T00:00	30620	12	-43.4	-81.4	87	7
2023-08-11T00:00	30644	12	-43.4	-81.4	88	7
2023-08-11T00:00	30675	12	-43.2	-81.3	92	7
2023-08-11T00:00	30702	12	-42.9	-81.1	96	7
2023-08-11T00:00	30737	12	-42.6	-80.8	101	7
2023-08-11T00:00	30756	12	-42.5	-80.8	104	8
2023-08-11T00:00	30788	12	-42.5	-80.8	106	8
2023-08-11T00:00	30819	11	-42.4	-80.7	106	8
2023-08-11T00:00	30855	11	-42.2	-80.6	105	7
2023-08-11T00:00	30879	11	-42.1	-80.5	103	7
2023-08-11T00:00	30904	11	-41.8	-80.3	100	6
2023-08-11T00:00	30927	11	-41.5	-80.1	95	6
2023-08-11T00:00	30947	11	-41.3	-79.9	89	5
2023-08-11T00:00	30987	11	-41.3	-79.9	82	5
2023-08-11T00:00	31007	11	-41.1	-79.8	74	6
2023-08-11T00:00	31041	11	-40.8	-79.6	68	6
2023-08-11T00:00	31061	11	-40.4	-79.3	63	7
2023-08-11T00:00	31090	11	-40.0	-79.0	60	8
2023-08-11T00:00	31120	11	-39.6	-78.8	58	9
2023-08-11T00:00	31142	11	-39.5	-78.7	57	10
2023-08-11T00:00	31191	11	-39.1	-78.4	56	10
2023-08-11T00:00	31217	11	-38.9	-78.3	56	11
2023-08-11T00:00	31239	11	-38.8	-78.2	57	11
2023-08-11T00:00	31267	11	-38.7	-78.1	59	11
2023-08-11T00:00	31291	11	-38.6	-78.1	62	10
2023-08-11T00:00	31312	11	-38.5	-78.0	66	10
2023-08-11T00:00	31348	11	-38.2	-77.8	71	9
2023-08-11T00:00	31365	11	-38.0	-77.6	77	9
2023-08-11T00:00	31406	11	-37.8	-77.5	83	9
2023-08-11T00:00	31413	11	-37.8	-77.5	88	9
2023-08-11T00:00	31440	10	-37.6	-77.4	91	9
2023-08-11T00:00	31464	10	-37.5	-77.3	91	9
2023-08-11T00:00	31482	10	-37.5	-77.3	88	9
2023-08-11T00:00	31505	10	-37.4	-77.2	84	9
2023-08-11T00:00	31533	10	-37.2	-77.1	78	10
2023-08-11T00:00	31563	10	-37.1	-77.0	72	10
2023-08-11T00:00	31595	10	-37.1	-77.0	66	11
2023-08-11T00:00	31629	10	-37.0	-77.0	62	11
2023-08-11T00:00	31644	10	-37.0	-77.0	59	12
2023-08-11T00:00	31665	10	-36.9	-76.9	58	13
2023-08-11T00:00	31708	10	-36.9	-76.9	59	14
2023-08-11T00:00	31742	10	-37.0	-77.0	61	14
2023-08-11T00:00	31755	10	-36.9	-76.9	63	14
2023-08-11T00:00	31796	10	-36.7	-76.7	66	13
2023-08-11T00:00	31823	10	-36.8	-76.8	69	13
2023-08-11T00:00	31826	10	-37.0	-77.0	72	13
2023-08-11T00:00	31872	10	-37.1	-77.0	74	12
2023-08-11T00:00	31879	10	-37.2	-77.1	76	12
2023-08-11T00:00	31938	10	-37.2	-77.1	76	12
2023-08-11T00:00	31956	10	-37.2	-77.1	76	11
2023-08-11T00:00	31996	10	-37.3	-77.2	75	11
2023-08-11T00:00	32028	10	-37.5	-77.3	76	11
2023-08-11T00:00	32077	10	-37.5	-77.3	77	11
2023-08-11T00:00	32115	10	-37.4	-77.2	82	11
2023-08-11T00:00	32143	9	-37.4	-77.2	85	11
2023-08-11T00:00	32176	9	-37.5	-77.3	87	11
2023-08-11T00:00	32202	9	-37.7	-77.4	87	11
2023-08-11T00:00	32227	9	-37.8	-77.5	86	10
2023-08-11T00:00	32256	9	-37.7	-77.4	84	10
2023-08-11T00:00	32295	9	-37.6	-77.4	82	10
2023-08-11T00:00	32329	9	-37.7	-77.4	80	9
2023-08-11T00:00	32361	9	-37.6	-77.4	77	9
2023-08-11T00:00	32384	9	-37.4	-77.2	75	9
2023-08-11T00:00	32408	9	-37.4	-77.2	72	9
2023-08-11T00:00	32445	9	-37.4	-77.2	68	9
2023-08-11T00:00	32463	9	-37.3	-77.2	66	9
2023-08-11T00:00	32500	9	-37.2	-77.1	65	10
2023-08-11T00:00	32528	9	-37.2	-77.1	65	10
2023-08-11T00:00	32562	9	-37.2	-77.1	68	9
2023-08-11T00:00	32578	9	-36.8	-76.8	72	9
2023-08-11T00:00	32617	9	-36.7	-76.7	78	8
2023-08-11T00:00	32650	9	-36.6	-76.7	85	8
2023-08-11T00:00	32665	9	-36.6	-76.7	92	7
2023-08-11T00:00	32711	9	-36.4	-76.5	98	7
2023-08-11T00:00	32747	9	-36.4	-76.5	110	7
2023-08-11T00:00	32777	9	-36.6	-76.7	115	7
2023-08-11T00:00	32797	9	-36.7	-76.7	121	7
2023-08-11T00:00	32834	9	-36.8	-76.8	127	6
2023-08-11T00:00	32848	9	-36.8	-76.8	131	6
2023-08-11T00:00	32873	9	-36.8	-76.8	133	6
2023-08-11T00:00	32896	8	-36.5	-76.6	133	5
2023-08-11T00:00	32914	8	-36.1	-76.3	130	5
2023-08-11T00:00	32975	8	-36.1	-76.3	127	4
2023-08-11T00:00	32983	8	-36.0	-76.3	127	4
2023-08-11T00:00	32998	8	-35.9	-76.2	131	4
2023-08-11T00:00	33040	8	-35.9	-76.2	137	4
2023-08-11T00:00	33076	8	-35.9	-76.2	143	4
2023-08-11T00:00	33107	8	-36.1	-76.3	147	4
2023-08-11T00:00	33114	8	-36.1	-76.3	147	4
2023-08-11T00:00	33162	8	-35.9	-76.2	144	4
2023-08-11T00:00	33171	8	-36.0	-76.3	137	3
2023-08-11T00:00	33187	8	-36.2	-76.4	125	3
2023-08-11T00:00	33224	8	-36.3	-76.5	109	3
2023-08-11T00:00	33270	8	-36.3	-76.5	92	3
2023-08-11T00:00	33287	8	-36.0	-76.3	77	3
2023-08-11T00:00	33318	8	-36.0	-76.3	68	3
2023-08-11T00:00	33323	8	-35.9	-76.2	62	4
2023-08-11T00:00	33370	8	-36.0	-76.3	59	5
2023-08-11T00:00	33377	8	-35.9	-76.2	59	6
2023-08-11T00:00	33409	8	-35.9	-76.2	59	6
2023-08-11T00:00	33449	8	-35.9	-76.2	61	7
2023-08-11T00:00	33482	8	-35.9	-76.2	63	8
2023-08-11T00:00	33496	8	-35.9	-76.2	65	9
2023-08-11T00:00	33516	8	-35.9	-76.2	66	10
2023-08-11T00:00	33546	8	-36.1	-76.3	68	10
2023-08-11T00:00	33595	8	-36.2	-76.4	69	11
2023-08-11T00:00	33633	8	-36.4	-76.5	74	13
2023-08-11T00:00	33656	8	-36.4	-76.5	77	13
2023-08-11T00:00	33690	8	-36.4	-76.5	80	13
2023-08-11T00:00	33702	8	-36.1	-76.3	83	13
2023-08-11T00:00	33730	8	-35.9	-76.2	85	13
2023-08-11T00:00	33785	8	-35.9	-76.2	87	13
2023-08-11T00:00	33793	7	-36.0	-76.3	88	12
2023-08-11T00:00	33824	7	-36.0	-76.3	89	12
2023-08-11T00:00	33879	7	-35.7	-76.1	87	12
2023-08-11T00:00	33940	7	-35.8	-76.1	83	12
2023-08-11T00:00	33951	7	-35.6	-76.0	81	12
2023-08-11T00:00	33954	7	-35.5	-75.9	81	12
2023-08-11T00:00	33986	7	-35.3	-75.8	83	12
2023-08-11T00:00	34013	7	-35.2	-75.7	85	12
2023-08-11T00:00	34053	7	-35.0	-75.6	88	11
2023-08-11T00:00	34071	7	-35.0	-75.6	91	11
2023-08-11T00:00	34102	7	-35.0	-75.6	92	11
2023-08-11T00:00	34111	7	-35.0	-75.6	93	11
2023-08-11T00:00	34126	7	-35.1	-75.6	92	11
2023-08-11T00:00	34148	7	-35.1	-75.6	90	11
2023-08-11T00:00	34196	7	-35.0	-75.6	87	12
2023-08-11T00:00	34244	7	-35.0	-75.6	84	12
2023-08-11T00:00	34261	7	-34.9	-75.5	81	12
2023-08-11T00:00	34293	7	-34.9	-75.5	79	13
2023-08-11T00:00	34324	7	-34.9	-75.5	77	14
2023-08-11T00:00	34345	7	-34.9	-75.5	77	14
2023-08-11T00:00	34356	7	-34.8	-75.4	78	15
2023-08-11T00:00	34397	7	-34.9	-75.5	80	15
2023-08-11T00:00	34429	7	-34.9	-75.5	81	15
2023-08-11T00:00	34437	7	-34.9	-75.5	84	15
2023-08-11T00:00	34477	7	-35.2	-75.7	89	15
2023-08-11T00:00	34534	7	-35.3	-75.8	92	15
2023-08-11T00:00	34567	7	-35.2	-75.7	96	15
2023-08-11T00:00	34604	7	-35.1	-75.6	98	14
2023-08-11T00:00	34622	7	-34.9	-75.5	99	13
2023-08-11T00:00	34626	7	-34.8	-75.4	100	13
2023-08-11T00:00	34637	7	-34.7	-75.4	100	12
2023-08-11T00:00	34664	7	-34.6	-75.3	100	12
2023-08-11T00:00	34698	7	-34.5	-75.2	99	11
2023-08-11T00:00	34704	7	-34.5	-75.2	98	11
2023-08-11T00:00	34749	7	-34.4	-75.2	96	10
2023-08-11T00:00	34773	7	-34.3	-75.1	94	10
2023-08-11T00:00	34785	6	-34.3	-75.1	92	10
2023-08-11T00:00	34826	6	-34.2	-75.0	90	10
2023-08-11T06:00	112	1008	14.0	9.0	180	2
2023-08-11T06:00	134	1006	14.3	8.7	181	4
2023-08-11T06:00	159	1003	14.5	8.1	180	4
2023-08-11T06:00	181	1000	15.5	7.5	180	5
2023-08-11T06:00	201	998	16.5	7.3	180	5
2023-08-11T06:00	224	995	16.7	7.7	181	5
2023-08-11T06:00	243	993	16.8	7.6	183	4
2023-08-11T06:00	269	990	16.8	7.6	187	4
2023-08-11T06:00	288	988	16.9	7.3	194	3
2023-08-11T06:00	313	985	16.9	6.9	204	3
2023-08-11T06:00	333	983	16.7	6.9	216	3
2023-08-11T06:00	352	980	16.6	7.0	226	3
2023-08-11T06:00	374	978	16.4	7.1	233	3
2023-08-11T06:00	397	975	16.3	7.2	237	4
2023-08-11T06:00	422	972	16.1	7.2	239	3
2023-08-11T06:00	441	970	15.9	7.2	241	3
2023-08-11T06:00	465	967	15.7	7.1	242	3
2023-08-11T06:00	491	965	15.5	7.1	243	3
2023-08-11T06:00	513	962	15.3	7.0	244	3
2023-08-11T06:00	535	959	15.1	6.8	245	3
2023-08-11T06:00	565	956	14.9	6.7	246	3
2023-08-11T06:00	589	953	14.6	6.8	245	3
2023-08-11T06:00	615	951	14.4	6.7	245	3
2023-08-11T06:00	635	948	14.2	6.7	247	3
2023-08-11T06:00	656	946	14.1	6.6	250	4
2023-08-11T06:00	674	944	13.9	6.8	255	4
2023-08-11T06:00	696	941	13.7	6.8	259	4
2023-08-11T06:00	714	939	13.6	6.8	263	4
2023-08-11T06:00	735	937	13.4	6.5	265	4
2023-08-11T06:00	759	934	13.2	6.2	263	4
2023-08-11T06:00	785	931	12.9	6.3	260	4
2023-08-11T06:00	818	928	12.6	6.1	255	4
2023-08-11T06:00	847	925	12.4	6.1	251	4
2023-08-11T06:00	869	922	12.2	5.9	249	4
2023-08-11T06:00	896	919	11.9	6.2	248	4
2023-08-11T06:00	923	916	11.7	6.1	250	3
2023-08-11T06:00	945	914	11.4	6.1	252	3
2023-08-11T06:00	968	911	11.2	6.0	254	3
2023-08-11T06:00	994	909	11.0	5.9	256	4
2023-08-11T06:00	1018	906	10.7	5.8	258	4
2023-08-11T06:00	1048	903	10.5	5.8	261	4
2023-08-11T06:00	1077	900	10.2	5.6	264	4
2023-08-11T06:00	1099	897	10.1	5.5	267	4
2023-08-11T06:00	1122	895	9.9	5.4	269	5
2023-08-11T06:00	1149	892	9.6	5.2	271	5
2023-08-11T06:00	1173	889	9.4	5.1	273	5
2023-08-11T06:00	1198	886	9.2	5.0	277	4
2023-08-11T06:00	1226	884	9.0	5.1	281	4
2023-08-11T06:00	1250	881	8.7	4.9	285	4
2023-08-11T06:00	1275	878	8.5	4.8	288	4
2023-08-11T06:00	1301	876	8.3	4.7	289	4
2023-08-11T06:00	1325	873	8.0	4.7	288	4
2023-08-11T06:00	1345	871	7.9	4.7	287	5
2023-08-11T06:00	1370	868	7.6		288	5
2023-08-11T06:00	1391	866	7.4	4.5	290	5
2023-08-11T06:00	1411	864	7.2	4.5	292	5
2023-08-11T06:00	1434	861	7.0	4.4	294	5
2023-08-11T06:00	1462	859	6.8	4.3	294	5
2023-08-11T06:00	1489	856	6.5	4.2	294	5
2023-08-11T06:00	1511	853	6.3	4.2	293	5
2023-08-11T06:00	1536	851	6.1	4.2	293	5
2023-08-11T06:00	1561	848	5.9	4.2	295	5
2023-08-11T06:00	1590	845	5.7	4.2	298	6
2023-08-11T06:00	1613	843	5.7	2.7	303	6
2023-08-11T06:00	1636	841	5.8	0.3	306	6
2023-08-11T06:00	1658	838	6.1	-2.2	308	7
2023-08-11T06:00	1682	836	5.9	-1.6	308	7
2023-08-11T06:00	1703	834	5.7	-0.6	304	6
2023-08-11T06:00	1726	831	5.7	0.6	298	6
2023-08-11T06:00	1752	829	5.9	-1.6	290	6
2023-08-11T06:00	1781	826	5.9	-0.1	284	7
2023-08-11T06:00	1804	824	5.8	1.6	279	7
2023-08-11T06:00	1824	821	5.8	2.7	277	7
2023-08-11T06:00	1846	819	5.8	3.2	278	8
2023-08-11T06:00	1873	817	5.8	3.4	280	8
2023-08-11T06:00	1896	814	5.8	3.7	284	8
2023-08-11T06:00	1927	811	5.6	3.5	288	8
2023-08-11T06:00	1951	809	5.5	3.5	293	7
2023-08-11T06:00	1979	806	5.4	3.7	298	7
2023-08-11T06:00	2000	804	5.2	3.7	303	7
2023-08-11T06:00	2022	802	5.1	3.8	308	7
2023-08-11T06:00	2044	800	5.1	3.6	311	7
2023-08-11T06:00	2064	798	5.1	3.7	314	7
2023-08-11T06:00	2091	795	4.9	3.6	315	7
2023-08-11T06:00	2112	793	4.8	3.6	317	7
2023-08-11T06:00	2132	791	4.7	3.6	318	8
2023-08-11T06:00	2157	789	4.6	3.6	318	8
2023-08-11T06:00	2176	787	4.5	3.7	318	8
2023-08-11T06:00	2205	784	4.5	3.6	315	8
2023-08-11T06:00	2231	782	4.7		312	9
2023-08-11T06:00	2251	780	4.6	3.2	308	9
2023-08-11T06:00	2275	777	4.6	3.0	306	10
2023-08-11T06:00	2298	775	4.8	2.1	305	10
2023-08-11T06:00	2329	773	4.8	2.3	306	10
2023-08-11T06:00	2351	770	4.8	2.6	306	10
2023-08-11T06:00	2375	768	4.8	2.8	307	10
2023-08-11T06:00	2397	766	4.7	2.3	306	10
2023-08-11T06:00	2419	764	4.7	1.4	306	10
2023-08-11T06:00	2438	762	4.9	-1.0	307	11
2023-08-11T06:00	2457	760	5.4	-6.0	309	12
2023-08-11T06:00	2479	758	5.4	-7.3	311	13
2023-08-11T06:00	2500	756	5.5	-4.2	312	14
2023-08-11T06:00	2526	754	5.4	-2.5	312	15
2023-08-11T06:00	2548	752	5.3	-2.0	311	15
2023-08-11T06:00	2576	749	5.3	1.0	310	16
2023-08-11T06:00	2596	747	5.3	2.8	308	16
2023-08-11T06:00	2618	745	5.2	2.6	307	16
2023-08-11T06:00	2641	743	5.3	2.3	307	16
2023-08-11T06:00	2660	742	5.5	1.5	308	15
2023-08-11T06:00	2681	740	5.5	0.5	310	15
2023-08-11T06:00	2704	738	5.6	-0.2	312	14
2023-08-11T06:00	2723	736	5.7	-0.5	313	14
2023-08-11T06:00	2743	734	5.5	-0.8	314	14
2023-08-11T06:00	2763	732	5.5	-0.9	314	14
2023-08-11T06:00	2785	730	5.4	-1.0	314	14
2023-08-11T06:00	2803	729	5.2	-1.2	314	14
2023-08-11T06:00	2826	727	5.1	-1.1	314	14
2023-08-11T06:00	2849	725	4.9	-1.2	315	14
2023-08-11T06:00	2870	723	4.7	-1.2	315	14
2023-08-11T06:00	2892	721	4.5	-1.2	314	14
2023-08-11T06:00	2917	719	4.2	-1.3	313	14
2023-08-11T06:00	2939	717	4.0		313	14
2023-08-11T06:00	2961	715	3.8	-1.4	313	15
2023-08-11T06:00	2982	713	3.6	-1.4	315	15
2023-08-11T06:00	3011	711	3.4	-1.5	316	15
2023-08-11T06:00	3038	708	3.2	-1.4	318	15
2023-08-11T06:00	3062	706	2.9	-1.6	319	15
2023-08-11T06:00	3086	704	2.7	-1.5	320	14
2023-08-11T06:00	3110	702	2.5	-1.6	321	14
2023-08-11T06:00	3138	700	2.2	-1.7	322	14
2023-08-11T06:00	3160	697	2.0	-1.7	322	14
2023-08-11T06:00	3190	695	1.7	-1.9	323	14
2023-08-11T06:00	3215	693	1.5	-1.7	323	14
2023-08-11T06:00	3239	691	1.2	-1.9	323	14
2023-08-11T06:00	3262	689	1.0	-1.9	323	13
2023-08-11T06:00	3288	687	0.8	-1.9	322	13
2023-08-11T06:00	3310	685	0.6	-1.9	321	13
2023-08-11T06:00	3336	682	0.3	-2.0	320	13
2023-08-11T06:00	3360	680	0.1	-2.0	319	13
2023-08-11T06:00	3380	679	-0.1	-2.1	319	13
2023-08-11T06:00	3403	677	-0.3	-2.1	320	14
2023-08-11T06:00	3427	675	-0.5	-2.4	321	14
2023-08-11T06:00	3449	673	-0.7	-2.4	322	14
2023-08-11T06:00	3472	671	-0.9		324	14
2023-08-11T06:00	3495	669	-1.2	-2.7	325	14
2023-08-11T06:00	3523	667	-1.4	-2.7	326	14
2023-08-11T06:00	3544	665	-1.6	-2.7	326	14
2023-08-11T06:00	3571	663	-1.9	-2.8	325	14
2023-08-11T06:00	3594	661	-2.1	-2.9	323	14
2023-08-11T06:00	3617	659	-2.3	-2.9	322	14
2023-08-11T06:00	3639	657	-2.5	-3.1	321	14
2023-08-11T06:00	3668	655	-2.8	-3.3	322	14
2023-08-11T06:00	3695	652	-3.0	-3.2	323	14
2023-08-11T06:00	3722	650	-3.3	-3.3	326	14
2023-08-11T06:00	3745	648	-3.5	-3.5	328	14
2023-08-11T06:00	3772	646	-3.7	-3.7	330	14
2023-08-11T06:00	3798	644	-3.9	-3.9	331	13
2023-08-11T06:00	3822	642	-4.1	-4.1	330	13
2023-08-11T06:00	3847	640	-4.2	-4.2	329	13
2023-08-11T06:00	3869	638	-4.3	-4.3	327	12
2023-08-11T06:00	3888	637	-4.5	-4.5	326	13
2023-08-11T06:00	3910	635	-4.6	-4.6	325	13
2023-08-11T06:00	3936	633	-4.8	-4.8	326	15
2023-08-11T06:00	3958	631	-5.0	-5.0	327	16
2023-08-11T06:00	3982	629	-5.1	-5.1	328	17
2023-08-11T06:00	4002	627	-5.1	-5.1	329	18
2023-08-11T06:00	4028	626	-4.0	-5.9	329	18
2023-08-11T06:00	4053	623	-3.5	-6.4	330	19
2023-08-11T06:00	4076	622	-3.4	-6.8	330	19
2023-08-11T06:00	4098	620	-3.3	-7.4	331	19
2023-08-11T06:00	4120	618	-3.3	-7.2	331	19
2023-08-11T06:00	4143	617	-3.4	-6.5	330	19
2023-08-11T06:00	4161	615	-3.6	-5.9	330	19
2023-08-11T06:00	4182	613	-3.8	-6.0	329	18
2023-08-11T06:00	4210	611	-4.0	-6.2	328	18
2023-08-11T06:00	4231	609	-4.1	-6.6	328	18
2023-08-11T06:00	4256	608	-4.3	-6.8	328	18
2023-08-11T06:00	4285	606	-4.5	-7.0	328	19
2023-08-11T06:00	4311	604	-4.6	-7.4	328	19
2023-08-11T06:00	4330	602	-4.7	-8.1	329	19
2023-08-11T06:00	4351	600	-4.8	-9.0	329	19
2023-08-11T06:00	4376	598	-4.9	-9.6	329	18
2023-08-11T06:00	4400	597	-4.9	-10.8	329	17
2023-08-11T06:00	4424	595	-5.0	-11.3	329	17
2023-08-11T06:00	4442	593	-5.1	-11.2	330	16
2023-08-11T06:00	4465	592	-5.2	-11.5	331	15
2023-08-11T06:00	4496	589	-5.5	-11.1	332	15
2023-08-11T06:00	4524	587	-5.7	-11.3	333	15
2023-08-11T06:00	4543	586	-5.9	-9.5	333	16
2023-08-11T06:00	4561	584	-6.1	-9.5	332	16
2023-08-11T06:00	4581	583	-6.3	-9.7	331	17
2023-08-11T06:00	4601	582	-6.4	-9.3	330	17
2023-08-11T06:00	4619	580	-6.6	-9.6	329	17
2023-08-11T06:00	4644	578	-6.8	-10.4	327	17
2023-08-11T06:00	4671	576	-7.0	-11.4	325	17
2023-08-11T06:00	4695	575	-7.1	-11.0	324	17
2023-08-11T06:00	4722	573	-7.3	-11.6	323	17
2023-08-11T06:00	4740	571	-7.3	-11.2	323	17
2023-08-11T06:00	4762	570	-7.2	-11.2	323	17
2023-08-11T06:00	4780	568	-7.3	-11.4	324	16
2023-08-11T06:00	4799	567	-7.4	-11.5	324	16
2023-08-11T06:00	4821	565	-7.5	-11.6	325	16
2023-08-11T06:00	4842	564	-7.6	-11.8	325	17
2023-08-11T06:00	4869	562	-7.7	-11.9	325	17
2023-08-11T06:00	4894	560	-8.0	-11.9	325	17
2023-08-11T06:00	4921	558	-8.1	-11.9	324	18
2023-08-11T06:00	4947	556	-8.2	-12.4	324	18
2023-08-11T06:00	4968	555	-8.3	-12.7	323	18
2023-08-11T06:00	4988	553	-8.2	-12.5	323	18
2023-08-11T06:00	5012	552	-8.4	-11.8	323	18
2023-08-11T06:00	5038	550	-8.4	-12.0	323	18
2023-08-11T06:00	5065	548	-8.5	-12.5	322	18
2023-08-11T06:00	5093	546	-8.6	-12.8	322	18
2023-08-11T06:00	5118	544	-8.8	-13.1	322	18
2023-08-11T06:00	5145	542	-8.7	-14.1	322	18
2023-08-11T06:00	5174	540	-8.8	-15.7	322	18
2023-08-11T06:00	5202	538	-8.9	-14.8	322	19
2023-08-11T06:00	5228	536	-9.1	-14.8	322	19
2023-08-11T06:00	5259	534	-9.2	-15.0	322	19
2023-08-11T06:00	5283	533	-9.4	-14.6	322	19
2023-08-11T06:00	5312	531	-9.3	-14.7	321	19
2023-08-11T06:00	5338	529	-9.3	-15.6	321	19
2023-08-11T06:00	5365	527	-9.2	-17.4	320	19
2023-08-11T06:00	5392	525	-9.3	-18.3	321	19
2023-08-11T06:00	5413	524	-9.4	-19.2	322	18
2023-08-11T06:00	5434	522	-9.4	-20.6	323	18
2023-08-11T06:00	5453	521	-9.5	-22.0	324	17
2023-08-11T06:00	5475	520	-9.6	-22.4	325	17
2023-08-11T06:00	5495	518	-9.7	-22.8	327	17
2023-08-11T06:00	5515	517	-9.9	-22.3	329	17
2023-08-11T06:00	5534	516	-10.0	-21.1	330	17
2023-08-11T06:00	5555	514	-10.1	-20.2	331	17
2023-08-11T06:00	5578	513	-10.3	-20.0	333	17
2023-08-11T06:00	5605	511	-10.3	-22.2	333	18
2023-08-11T06:00	5628	509	-10.4	-23.6	333	18
2023-08-11T06:00	5653	508	-10.5	-24.0	333	18
2023-08-11T06:00	5674	506	-10.7	-24.6	331	18
2023-08-11T06:00	5699	505	-10.8	-25.8	329	18
2023-08-11T06:00	5726	503	-11.1	-26.4	327	18
2023-08-11T06:00	5749	501	-11.3	-26.7	326	17
2023-08-11T06:00	5772	500	-11.3	-28.2	324	17
2023-08-11T06:00	5803	498	-11.3	-31.5	324	17
2023-08-11T06:00	5823	497	-11.2	-33.9	324	16
2023-08-11T06:00	5848	495	-11.2	-34.3	325	16
2023-08-11T06:00	5878	493	-11.2	-35.9	326	16
2023-08-11T06:00	5904	491	-11.4	-36.4	327	16
2023-08-11T06:00	5931	490	-11.6	-36.9	328	15
2023-08-11T06:00	5960	488	-11.6	-35.3	329	15
2023-08-11T06:00	5985	486	-11.8	-34.7	329	15
2023-08-11T06:00	6019	484	-12.0	-35.0	327	15
2023-08-11T06:00	6044	483	-12.1	-35.3	326	15
2023-08-11T06:00	6064	481	-12.2	-35.2	325	15
2023-08-11T06:00	6089	480	-12.5	-35.3	325	15
2023-08-11T06:00	6110	478	-12.7	-35.4	325	15
2023-08-11T06:00	6134	477	-12.9	-35.4	326	15
2023-08-11T06:00	6164	475	-13.1	-35.6	327	15
2023-08-11T06:00	6190	473	-13.3	-35.7	328	15
2023-08-11T06:00	6222	471	-13.6	-36.0	329	14
2023-08-11T06:00	6249	470	-13.8	-36.0	328	14
2023-08-11T06:00	6276	468	-14.0	-36.3	326	14
2023-08-11T06:00	6300	467	-14.2	-36.6	324	14
2023-08-11T06:00	6324	465	-14.4	-37.1	322	14
2023-08-11T06:00	6349	464	-14.5	-37.2	319	14
2023-08-11T06:00	6371	462	-14.7	-37.4	318	14
2023-08-11T06:00	6399	460	-15.0	-37.7	317	15
2023-08-11T06:00	6428	459	-15.1	-38.2	318	15
2023-08-11T06:00	6453	457	-15.3	-38.4	319	15
2023-08-11T06:00	6484	455	-15.5	-38.8	320	15
2023-08-11T06:00	6511	454	-15.6	-39.1	321	14
2023-08-11T06:00	6540	452	-15.7	-39.4	321	14
2023-08-11T06:00	6570	450	-15.9	-39.4	321	14
2023-08-11T06:00	6594	449	-16.2	-39.4	321	14
2023-08-11T06:00	6615	448	-16.3	-39.6	320	14
2023-08-11T06:00	6635	446	-16.5	-39.6	320	15
2023-08-11T06:00	6655	445	-16.7	-39.9	320	15
2023-08-11T06:00	6677	444	-16.9	-40.1	321	15
2023-08-11T06:00	6697	443	-17.0	-40.2	322	16
2023-08-11T06:00	6719	441	-17.1	-40.3	322	16
2023-08-11T06:00	6738	440	-17.3	-40.5	323	16
2023-08-11T06:00	6761	439	-17.4	-40.7	323	15
2023-08-11T06:00	6781	438	-17.6	-35.1	323	15
2023-08-11T06:00	6804	436	-17.7	-31.8	322	15
2023-08-11T06:00	6829	435	-18.0	-31.1	321	15
2023-08-11T06:00	6854	433	-18.2	-31.3	321	15
2023-08-11T06:00	6883	432	-18.4	-30.3	319	15
2023-08-11T06:00	6905	430	-18.6	-29.4	318	14
2023-08-11T06:00	6930	429	-18.8	-26.0	316	14
2023-08-11T06:00	6952	428	-18.9	-26.8	314	14
2023-08-11T06:00	6974	427	-19.0	-27.1	312	13
2023-08-11T06:00	6994	425	-19.1	-28.7	312	13
2023-08-11T06:00	7019	424	-19.2	-32.5	312	13
2023-08-11T06:00	7047	422	-19.4	-31.6	313	14
2023-08-11T06:00	7072	421	-19.6	-32.5	313	14
2023-08-11T06:00	7104	419	-19.8	-35.5	313	14
2023-08-11T06:00	7133	417	-19.9	-34.5	313	14
2023-08-11T06:00	7158	416	-20.1	-29.7	312	14
2023-08-11T06:00	7184	415	-20.3	-29.8	312	14
2023-08-11T06:00	7213	413	-20.5	-29.9	311	14
2023-08-11T06:00	7244	411	-20.8	-30.2	311	14
2023-08-11T06:00	7268	410	-21.0	-30.4	311	14
2023-08-11T06:00	7295	408	-21.3	-30.1	310	14
2023-08-11T06:00	7328	407	-21.5	-29.7	310	14
2023-08-11T06:00	7356	405	-21.7	-29.7	310	14
2023-08-11T06:00	7377	404	-21.9	-29.7	311	14
2023-08-11T06:00	7398	403	-22.1	-29.7	312	14
2023-08-11T06:00	7423	401	-22.3	-29.7	313	13
2023-08-11T06:00	7443	400	-22.5	-29.7	315	13
2023-08-11T06:00	7467	399	-22.7	-30.1	316	13
2023-08-11T06:00	7489	398	-22.8	-30.2	317	13
2023-08-11T06:00	7512	396	-23.0	-30.3	317	13
2023-08-11T06:00	7539	395	-23.1	-30.6	318	12
2023-08-11T06:00	7573	393	-23.3	-30.5	318	12
2023-08-11T06:00	7598	392	-23.4	-31.3	318	12
2023-08-11T06:00	7628	390	-23.6	-30.6	318	12
2023-08-11T06:00	7660	389	-23.9	-30.8	317	12
2023-08-11T06:00	7688	387	-24.1	-30.9	317	12
2023-08-11T06:00	7717	386	-24.3	-31.2	316	12
2023-08-11T06:00	7742	384	-24.5	-31.3	316	12
2023-08-11T06:00	7771	383	-24.8	-31.3	316	12
2023-08-11T06:00	7798	381	-25.0	-31.3	317	13
2023-08-11T06:00	7828	380	-25.3	-31.4	318	13
2023-08-11T06:00	7856	378	-25.5	-31.8	318	12
2023-08-11T06:00	7877	377	-25.7	-32.1	319	12
2023-08-11T06:00	7900	376	-25.8	-32.8	319	12
2023-08-11T06:00	7921	375	-26.0	-33.0	320	12
2023-08-11T06:00	7940	374	-26.1	-33.4	321	12
2023-08-11T06:00	7959	373	-26.2	-33.5	321	12
2023-08-11T06:00	7978	372	-26.4	-33.9	322	12
2023-08-11T06:00	7998	371	-26.5	-34.3	323	11
2023-08-11T06:00	8017	370	-26.6	-34.3	323	11
2023-08-11T06:00	8036	369	-26.7	-34.2	324	11
2023-08-11T06:00	8053	368	-26.9	-34.3	325	11
2023-08-11T06:00	8073	367	-27.1	-34.4	326	11
2023-08-11T06:00	8089	366	-27.3	-34.4	327	11
2023-08-11T06:00	8110	365	-27.4	-34.3	329	11
2023-08-11T06:00	8128	364	-27.6	-34.4	330	11
2023-08-11T06:00	8148	363	-27.7	-34.6	332	11
2023-08-11T06:00	8165	362	-27.9	-34.9	334	11
2023-08-11T06:00	8183	362	-28.0	-34.9	335	11
2023-08-11T06:00	8203	361	-28.0	-35.0	336	11
2023-08-11T06:00	8222	360	-28.2	-35.1	337	11
2023-08-11T06:00	8240	359	-28.3	-35.0	338	11
2023-08-11T06:00	8256	358	-28.5	-35.1	338	11
2023-08-11T06:00	8276	357	-28.6	-35.2	338	11
2023-08-11T06:00	8293	356	-28.8	-36.0	338	12
2023-08-11T06:00	8311	355	-28.9	-36.0	338	11
2023-08-11T06:00	8327	354	-29.0	-35.8	338	11
2023-08-11T06:00	8347	353	-29.2	-35.8	338	11
2023-08-11T06:00	8366	352	-29.3	-36.3	337	11
2023-08-11T06:00	8384	352	-29.5	-36.5	337	11
2023-08-11T06:00	8403	351	-29.6	-36.7	336	11
2023-08-11T06:00	8421	350	-29.8	-36.6	335	11
2023-08-11T06:00	8441	349	-30.0	-36.7	333	11
2023-08-11T06:00	8460	348	-30.2	-36.9	332	12
2023-08-11T06:00	8478	347	-30.3	-36.9	330	12
2023-08-11T06:00	8495	346	-30.5	-37.0	329	12
2023-08-11T06:00	8516	345	-30.7	-37.7	329	12
2023-08-11T06:00	8531	344	-30.8	-38.2	329	12
2023-08-11T06:00	8550	343	-30.9	-38.5	329	12
2023-08-11T06:00	8567	343	-31.0	-38.6	330	12
2023-08-11T06:00	8587	342	-31.2	-38.6	330	12
2023-08-11T06:00	8606	341	-31.5	-38.9	330	12
2023-08-11T06:00	8625	340	-31.6	-39.1	330	12
2023-08-11T06:00	8645	339	-31.8	-39.1	329	12
2023-08-11T06:00	8662	338	-31.9	-39.2	329	12
2023-08-11T06:00	8679	337	-32.1	-39.1	328	12
2023-08-11T06:00	8700	336	-32.3	-39.3	328	12
2023-08-11T06:00	8718	335	-32.4	-39.4	327	12
2023-08-11T06:00	8737	334	-32.6	-39.6	326	12
2023-08-11T06:00	8754	334	-32.7	-39.7	325	12
2023-08-11T06:00	8772	333	-32.9	-39.9	324	12
2023-08-11T06:00	8789	332	-33.1	-40.3	323	12
2023-08-11T06:00	8809	331	-33.2	-40.5	322	12
2023-08-11T06:00	8827	330	-33.3	-40.6	322	12
2023-08-11T06:00	8846	329	-33.5	-41.0	322	13
2023-08-11T06:00	8863	328	-33.6	-41.3	321	13
2023-08-11T06:00	8882	328	-33.8	-41.2	320	13
2023-08-11T06:00	8903	327	-33.9	-41.4	320	13
2023-08-11T06:00	8920	326	-34.1	-41.5	319	13
2023-08-11T06:00	8941	325	-34.2	-41.6	319	13
2023-08-11T06:00	8959	324	-34.4	-42.1	319	13
2023-08-11T06:00	8978	323	-34.6	-42.3	319	13
2023-08-11T06:00	8997	322	-34.7	-42.2	319	13
2023-08-11T06:00	9015	321	-34.9	-42.2	318	13
2023-08-11T06:00	9034	321	-34.9	-43.2	318	13
2023-08-11T06:00	9053	320	-34.9	-43.3	317	13
2023-08-11T06:00	9072	319	-35.1	-43.7	316	13
2023-08-11T06:00	9091	318	-35.3	-43.8	315	13
2023-08-11T06:00	9110	317	-35.5	-44.1	315	13
2023-08-11T06:00	9129	316	-35.6	-44.6	315	13
2023-08-11T06:00	9148	315	-35.7	-44.7	314	13
2023-08-11T06:00	9168	314	-35.8	-45.0	314	13
2023-08-11T06:00	9190	314	-36.1	-45.0	314	13
2023-08-11T06:00	9209	313	-36.2	-45.0	314	13
2023-08-11T06:00	9227	312	-36.3	-45.2	313	13
2023-08-11T06:00	9248	311	-36.5	-45.4	313	13
2023-08-11T06:00	9266	310	-36.7	-45.6	312	13
2023-08-11T06:00	9287	309	-36.9	-45.9	312	13
2023-08-11T06:00	9306	308	-37.0	-46.4	311	13
2023-08-11T06:00	9325	307	-37.1	-46.4	310	13
2023-08-11T06:00	9345	307	-37.3	-46.6	310	13
2023-08-11T06:00	9366	306	-37.4	-47.2	310	13
2023-08-11T06:00	9387	305	-37.5	-48.0	310	13
2023-08-11T06:00	9408	304	-37.6	-48.1	311	13
2023-08-11T06:00	9429	303	-37.7	-47.9	312	13
2023-08-11T06:00	9449	302	-38.0	-47.8	313	13
2023-08-11T06:00	9470	301	-38.1	-47.9	314	13
2023-08-11T06:00	9489	300	-38.3	-48.0	315	13
2023-08-11T06:00	9511	299	-38.5	-47.9	315	13
2023-08-11T06:00	9531	298	-38.7	-48.1	316	13
2023-08-11T06:00	9550	298	-38.9	-48.1	316	13
2023-08-11T06:00	9570	297	-39.0	-47.9	316	12
2023-08-11T06:00	9588	296	-39.2	-47.9	317	12
2023-08-11T06:00	9607	295	-39.4	-48.2	318	12
2023-08-11T06:00	9628	294	-39.6	-48.8	319	12
2023-08-11T06:00	9647	293	-39.7	-48.6	319	12
2023-08-11T06:00	9669	292	-39.9	-47.8	320	12
2023-08-11T06:00	9689	292	-40.1	-47.8	320	12
2023-08-11T06:00	9709	291	-40.3	-48.2	320	12
2023-08-11T06:00	9729	290	-40.5	-48.6	320	12
2023-08-11T06:00	9747	289	-40.6	-49.2	320	12
2023-08-11T06:00	9768	288	-40.8	-49.3	320	12
2023-08-11T06:00	9788	287	-41.0	-49.4	320	12
2023-08-11T06:00	9808	287	-41.2	-49.4	320	12
2023-08-11T06:00	9828	286	-41.4	-49.4	319	12
2023-08-11T06:00	9848	285	-41.6	-49.3	319	12
2023-08-11T06:00	9867	284	-41.7	-49.3	319	12
2023-08-11T06:00	9889	283	-41.9	-49.4	318	12
2023-08-11T06:00	9909	282	-42.1	-49.5	317	12
2023-08-11T06:00	9929	281	-42.3	-49.7	317	12
2023-08-11T06:00	9949	281	-42.4	-50.4	316	12
2023-08-11T06:00	9967	280	-42.6	-50.6	315	12
2023-08-11T06:00	9989	279	-42.7	-50.4	315	13
2023-08-11T06:00	10007	278	-42.9	-50.3	314	13
2023-08-11T06:00	10029	277	-43.1	-50.4	314	13
2023-08-11T06:00	10051	276	-43.3	-50.6	313	13
2023-08-11T06:00	10071	276	-43.4	-51.0	313	12
2023-08-11T06:00	10092	275	-43.6	-51.3	313	12
2023-08-11T06:00	10114	274	-43.8	-51.2	312	12
2023-08-11T06:00	10133	273	-43.9	-51.3	312	12
2023-08-11T06:00	10155	272	-44.1	-51.6	311	12
2023-08-11T06:00	10175	271	-44.2	-51.8	311	12
2023-08-11T06:00	10198	270	-44.3	-52.1	310	12
2023-08-11T06:00	10218	270	-44.5	-52.5	310	12
2023-08-11T06:00	10239	269	-44.6	-52.8	309	12
2023-08-11T06:00	10260	268	-44.7	-52.9	308	12
2023-08-11T06:00	10279	267	-44.9	-52.9	307	13
2023-08-11T06:00	10299	266	-45.0	-53.0	306	13
2023-08-11T06:00	10321	265	-45.1	-53.3	305	13
2023-08-11T06:00	10342	265	-45.3	-53.5	304	13
2023-08-11T06:00	10363	264	-45.4	-53.6	304	13
2023-08-11T06:00	10384	263	-45.6	-53.9	303	13
2023-08-11T06:00	10406	262	-45.7	-54.1	303	13
2023-08-11T06:00	10426	261	-45.9	-54.0	303	13
2023-08-11T06:00	10448	260	-46.1	-53.9	302	13
2023-08-11T06:00	10468	260	-46.3	-54.0	302	14
2023-08-11T06:00	10488	259	-46.6	-54.1	301	14
2023-08-11T06:00	10508	258	-46.7	-54.4	299	14
2023-08-11T06:00	10527	257	-46.7	-55.3	299	14
2023-08-11T06:00	10548	257	-46.8	-55.0	298	14
2023-08-11T06:00	10568	256	-47.0	-54.7	298	15
2023-08-11T06:00	10590	255	-47.1	-55.0	298	15
2023-08-11T06:00	10611	254	-47.2	-55.4	298	15
2023-08-11T06:00	10632	253	-47.4	-57.0	299	15
2023-08-11T06:00	10652	253	-47.5	-58.6	299	15
2023-08-11T06:00	10675	252	-47.7	-59.2	300	16
2023-08-11T06:00	10696	251	-47.8	-59.5	301	16
2023-08-11T06:00	10718	250	-47.9	-59.4	302	16
2023-08-11T06:00	10738	249	-48.1	-59.2	303	16
2023-08-11T06:00	10759	248	-48.2	-59.1	304	16
2023-08-11T06:00	10780	248	-48.4	-59.2	305	16
2023-08-11T06:00	10800	247	-48.6	-59.3	306	16
2023-08-11T06:00	10820	246	-48.7	-59.6	306	17
2023-08-11T06:00	10840	245	-48.7	-60.5	307	17
2023-08-11T06:00	10858	245	-48.8	-62.3	308	17
2023-08-11T06:00	10879	244	-48.9	-63.1	309	17
2023-08-11T06:00	10899	243	-49.0	-62.9	310	17
2023-08-11T06:00	10918	243	-49.2	-62.8	310	17
2023-08-11T06:00	10939	242	-49.2	-62.7	310	17
2023-08-11T06:00	10956	241	-49.3	-62.8	311	17
2023-08-11T06:00	10977	240	-49.5	-63.3	311	18
2023-08-11T06:00	10998	240	-49.5	-63.4	312	18
2023-08-11T06:00	11016	239	-49.6	-63.7	314	18
2023-08-11T06:00	11036	238	-49.7	-63.9	315	18
2023-08-11T06:00	11057	237	-49.8	-64.0	317	18
2023-08-11T06:00	11078	237	-49.9	-63.5	318	19
2023-08-11T06:00	11097	236	-49.9	-62.5	318	19
2023-08-11T06:00	11117	235	-50.0	-61.6	319	19
2023-08-11T06:00	11138	235	-50.0	-61.7	320	19
2023-08-11T06:00	11159	234	-50.0	-62.4	320	19
2023-08-11T06:00	11180	233	-50.0	-63.1	320	20
2023-08-11T06:00	11199	232	-50.2	-63.7	321	20
2023-08-11T06:00	11219	232	-50.3	-64.3	320	20
2023-08-11T06:00	11240	231	-50.4	-64.6	320	20
2023-08-11T06:00	11260	230	-50.4	-64.5	320	20
2023-08-11T06:00	11278	230	-50.4	-64.5	320	20
2023-08-11T06:00	11299	229	-50.5	-64.7	320	20
2023-08-11T06:00	11317	228	-50.6	-64.9	320	20
2023-08-11T06:00	11339	227	-50.6	-64.8	320	20
2023-08-11T06:00	11358	227	-50.8	-64.9	320	20
2023-08-11T06:00	11377	226	-50.8	-65.1	320	20
2023-08-11T06:00	11396	225	-50.7	-65.5	320	20
2023-08-11T06:00	11417	225	-50.6	-66.0	320	20
2023-08-11T06:00	11437	224	-50.4	-66.1	320	20
2023-08-11T06:00	11456	223	-50.4	-66.2	321	21
2023-08-11T06:00	11477	223	-50.5	-66.3	322	21
2023-08-11T06:00	11496	222	-50.7	-66.4	323	21
2023-08-11T06:00	11515	221	-50.8	-66.5	324	21
2023-08-11T06:00	11536	221	-50.7	-66.6	324	21
2023-08-11T06:00	11557	220	-50.7	-66.7	325	21
2023-08-11T06:00	11576	219	-50.8	-66.8	325	21
2023-08-11T06:00	11600	219	-50.9	-66.8	326	20
2023-08-11T06:00	11621	218	-51.0	-67.1	326	20
2023-08-11T06:00	11640	217	-51.1		326	20
2023-08-11T06:00	11659	216	-51.2	-67.2	326	20
2023-08-11T06:00	11682	216	-51.3	-67.3	326	20
2023-08-11T06:00	11700	215	-51.3	-67.3	325	20
2023-08-11T06:00	11723	214	-51.3	-67.4	324	20
2023-08-11T06:00	11744	214	-51.3	-67.5	323	20
2023-08-11T06:00	11763	213	-51.2	-67.7	322	20
2023-08-11T06:00	11786	212	-51.1	-68.0	320	20
2023-08-11T06:00	11805	212	-51.1	-68.2	319	20
2023-08-11T06:00	11827	211	-51.2	-68.4	318	20
2023-08-11T06:00	11849	210	-51.2	-68.5	318	20
2023-08-11T06:00	11869	210	-51.1	-68.9	319	20
2023-08-11T06:00	11893	209	-50.7	-69.2	321	20
2023-08-11T06:00	11913	208	-50.4	-69.5	322	20
2023-08-11T06:00	11936	207	-50.4	-69.7	325	20
2023-08-11T06:00	11962	207	-50.5	-69.8	327	20
2023-08-11T06:00	11982	206	-50.6	-69.9	329	20
2023-08-11T06:00	12006	205	-50.7	-70.0	330	20
2023-08-11T06:00	12026	205	-50.8	-69.9	331	20
2023-08-11T06:00	12049	204	-50.8	-70.0	332	20
2023-08-11T06:00	12071	203	-51.0	-70.3	331	20
2023-08-11T06:00	12091	203	-50.9	-70.6	331	20
2023-08-11T06:00	12113	202	-50.8	-70.9	330	20
2023-08-11T06:00	12134	201	-50.7	-71.2	329	19
2023-08-11T06:00	12157	201	-50.8	-71.7	328	19
2023-08-11T06:00	12180	200	-50.8	-72.6	328	19
2023-08-11T06:00	12204	199	-50.4	-73.4	328	19
2023-08-11T06:00	12228	198	-50.1	-73.9	329	20
2023-08-11T06:00	12248	198	-50.1	-74.1	329	20
2023-08-11T06:00	12270	197	-50.2	-73.9	328	20
2023-08-11T06:00	12296	196	-50.3	-73.8	327	20
2023-08-11T06:00	12316	196	-50.4	-73.8	326	20
2023-08-11T06:00	12339	195	-50.5	-73.9	325	21
2023-08-11T06:00	12359	194	-50.7	-73.9	324	21
2023-08-11T06:00	12382	194	-50.8	-74.0	324	21
2023-08-11T06:00	12403	193	-50.7	-74.3	323	21
2023-08-11T06:00	12427	192	-50.4	-74.2	322	21
2023-08-11T06:00	12446	192	-50.3	-74.3	322	21
2023-08-11T06:00	12468	191	-50.5	-74.4	321	21
2023-08-11T06:00	12489	191	-50.6	-74.5	321	20
2023-08-11T06:00	12512	190	-50.8	-74.7	320	20
2023-08-11T06:00	12532	189	-51.0	-74.7	319	20
2023-08-11T06:00	12554	189	-51.1	-74.7	318	20
2023-08-11T06:00	12573	188	-51.2	-74.8	317	21
2023-08-11T06:00	12595	188	-51.2	-75.0	317	21
2023-08-11T06:00	12616	187	-51.0	-75.0	317	21
2023-08-11T06:00	12636	186	-51.0	-75.4	317	22
2023-08-11T06:00	12657	186	-50.6	-75.5	318	22
2023-08-11T06:00	12676	185	-50.4	-75.5	318	22
2023-08-11T06:00	12696	185	-50.5		319	22
2023-08-11T06:00	12718	184	-50.6	-75.7	319	22
2023-08-11T06:00	12738	183	-50.8	-75.8	319	22
2023-08-11T06:00	12759	183	-50.8	-76.1	319	22
2023-08-11T06:00	12781	182	-50.7	-76.0	319	22
2023-08-11T06:00	12803	182	-50.7	-76.2	319	23
2023-08-11T06:00	12824	181	-50.8	-76.3	319	23
2023-08-11T06:00	12843	181	-51.0	-76.2	319	23
2023-08-11T06:00	12865	180	-51.2	-76.4	319	23
2023-08-11T06:00	12887	179	-51.5	-76.6	319	22
2023-08-11T06:00	12909	179	-51.5	-76.6	318	22
2023-08-11T06:00	12929	178	-51.3	-76.7	318	22
2023-08-11T06:00	12951	178	-51.3	-76.7	319	22
2023-08-11T06:00	12974	177	-51.3	-76.9	320	22
2023-08-11T06:00	12999	176	-51.1	-77.0	322	22
2023-08-11T06:00	13019	176	-50.8	-77.0	324	21
2023-08-11T06:00	13044	175	-50.8	-77.3	326	21
2023-08-11T06:00	13064	174	-50.7	-77.2	327	21
2023-08-11T06:00	13086	174	-50.6	-77.1	328	20
2023-08-11T06:00	13107	173	-50.7	-77.4	328	20
2023-08-11T06:00	13129	173	-50.8	-77.5	328	20
2023-08-11T06:00	13153	172	-50.9	-77.3	328	19
2023-08-11T06:00	13175	172	-51.1	-77.5	329	19
2023-08-11T06:00	13195	171	-51.2	-77.6	330	19
2023-08-11T06:00	13218	170	-51.2	-77.6	330	18
2023-08-11T06:00	13240	170	-51.3	-77.6	331	18
2023-08-11T06:00	13261	169	-51.5	-77.8	331	17
2023-08-11T06:00	13283	169	-51.4	-77.7	331	17
2023-08-11T06:00	13305	168	-51.3	-77.6	331	17
2023-08-11T06:00	13327	168	-51.4	-77.7	330	17
2023-08-11T06:00	13348	167	-51.4	-77.7	329	17
2023-08-11T06:00	13371	166	-51.5	-77.8	328	17
2023-08-11T06:00	13391	166	-51.7	-78.0	327	17
2023-08-11T06:00	13413	165	-51.9	-77.9	326	16
2023-08-11T06:00	13434	165	-52.0	-77.9	325	16
2023-08-11T06:00	13458	164	-52.1	-78.0	324	16
2023-08-11T06:00	13479	164	-52.1	-78.3	322	16
2023-08-11T06:00	13499	163	-52.1	-78.3	321	15
2023-08-11T06:00	13518	163	-52.1	-78.5	320	15
2023-08-11T06:00	13540	162	-52.0	-78.7	319	15
2023-08-11T06:00	13561	162	-51.9	-78.6	319	15
2023-08-11T06:00	13580	161	-51.8	-78.9	319	15
2023-08-11T06:00	13603	161	-51.6	-79.0	320	16
2023-08-11T06:00	13623	160	-51.3	-78.8	320	16
2023-08-11T06:00	13646	160	-51.3	-78.8	321	16
2023-08-11T06:00	13667	159	-51.3	-78.8	323	16
2023-08-11T06:00	13691	158	-51.4	-78.8	324	16
2023-08-11T06:00	13712	158	-51.3	-78.8	326	15
2023-08-11T06:00	13732	157	-51.3	-78.8	328	15
2023-08-11T06:00	13752	157	-51.4	-78.8	329	15
2023-08-11T06:00	13772	156	-51.4	-78.8	330	15
2023-08-11T06:00	13793	156	-51.4	-78.8	331	15
2023-08-11T06:00	13812	155	-51.4	-78.8	331	15
2023-08-11T06:00	13833	155	-51.3	-79.1	331	15
2023-08-11T06:00	13851	155	-51.2	-79.0	331	15
2023-08-11T06:00	13876	154	-51.2	-79.0	331	15
2023-08-11T06:00	13896	154	-51.3	-79.1	330	15
2023-08-11T06:00	13917	153	-51.4	-79.2	329	15
2023-08-11T06:00	13937	153	-51.6	-79.3	328	14
2023-08-11T06:00	13959	152	-51.7	-79.4	326	14
2023-08-11T06:00	13979	152	-51.7	-79.4	324	14
2023-08-11T06:00	14001	151	-51.9	-79.5	322	14
2023-08-11T06:00	14020	151	-51.9	-79.5	320	14
2023-08-11T06:00	14040	150	-51.9	-79.5	318	14
2023-08-11T06:00	14064	150	-52.0	-79.6	316	14
2023-08-11T06:00	14084	149	-52.1	-79.7	315	14
2023-08-11T06:00	14105	149	-52.0	-79.6	314	14
2023-08-11T06:00	14127	148	-52.1	-79.7	313	14
2023-08-11T06:00	14148	148	-52.2	-79.8	312	14
2023-08-11T06:00	14169	147	-52.3	-80.2	312	15
2023-08-11T06:00	14190	147	-52.1	-80.0	311	15
2023-08-11T06:00	14212	146	-51.9	-79.9	311	15
2023-08-11T06:00	14232	146	-51.9	-80.2	311	15
2023-08-11T06:00	14255	145	-52.1	-80.4	310	15
2023-08-11T06:00	14278	145	-52.0	-80.3	310	15
2023-08-11T06:00	14296	144	-52.0	-80.3	310	15
2023-08-11T06:00	14317	144	-52.0	-80.3	310	16
2023-08-11T06:00	14340	143	-52.1	-80.4	310	16
2023-08-11T06:00	14360	143	-52.3	-80.5	311	15
2023-08-11T06:00	14381	142	-52.2	-80.5	311	15
2023-08-11T06:00	14404	142	-52.1	-80.7	311	15
2023-08-11T06:00	14427	141	-51.9	-80.6	311	14
2023-08-11T06:00	14450	141	-51.5	-80.7	311	14
2023-08-11T06:00	14473	140	-51.5	-80.7	311	13
2023-08-11T06:00	14497	140	-51.6	-80.4	312	12
2023-08-11T06:00	14522	139	-51.7	-80.4	313	12
2023-08-11T06:00	14546	139	-52.0	-80.7	314	11
2023-08-11T06:00	14570	138	-52.1	-80.4	316	11
2023-08-11T06:00	14596	138	-52.3	-80.5	317	11
2023-08-11T06:00	14615	137	-52.5	-80.7	318	11
2023-08-11T06:00	14639	137	-52.8	-80.9	319	11
2023-08-11T06:00	14664	136	-53.0	-80.7	320	11
2023-08-11T06:00	14686	136	-53.2	-80.9	321	11
2023-08-11T06:00	14709	135	-53.4	-81.0	321	11
2023-08-11T06:00	14731	135	-53.5	-81.1	321	11
2023-08-11T06:00	14751	134	-53.4	-81.0	321	11
2023-08-11T06:00	14776	134	-53.5	-81.1	320	11
2023-08-11T06:00	14799	133	-53.6	-81.2	318	12
2023-08-11T06:00	14822	133	-53.7	-81.3	317	11
2023-08-11T06:00	14845	133	-53.8	-81.3	317	11
2023-08-11T06:00	14870	132	-54.0	-81.5	317	11
2023-08-11T06:00	14893	132	-54.2	-81.3	318	11
2023-08-11T06:00	14917	131	-54.3	-81.4	320	11
2023-08-11T06:00	14939	131	-54.2	-81.6	322	11
2023-08-11T06:00	14961	130	-54.2	-81.6	324	10
2023-08-11T06:00	14983	130	-54.3	-81.7	325	10
2023-08-11T06:00	15007	129	-54.4	-81.8	326	10
2023-08-11T06:00	15026	129	-54.5	-81.5	325	10
2023-08-11T06:00	15047	128	-54.6	-81.6	324	10
2023-08-11T06:00	15071	128	-54.8	-81.8	323	10
2023-08-11T06:00	15094	128	-55.0	-81.9	322	9
2023-08-11T06:00	15115	127	-55.1	-82.0	321	9
2023-08-11T06:00	15138	127	-55.3	-82.2	319	9
2023-08-11T06:00	15160	126	-55.3	-82.2	318	10
2023-08-11T06:00	15181	126	-55.3	-82.2	317	10
2023-08-11T06:00	15204	125	-55.1	-82.3	315	10
2023-08-11T06:00	15227	125	-54.9	-82.2	313	10
2023-08-11T06:00	15247	124	-54.6	-82.3	310	10
2023-08-11T06:00	15270	124	-54.5	-82.2	308	10
2023-08-11T06:00	15295	124	-54.6	-82.3	306	11
2023-08-11T06:00	15315	123	-54.6	-82.3	305	11
2023-08-11T06:00	15336	123	-54.6	-82.3	304	11
2023-08-11T06:00	15357	122	-54.6	-82.3	305	11
2023-08-11T06:00	15380	122	-54.6	-82.3	305	11
2023-08-11T06:00	15403	121	-54.6	-82.3	306	10
2023-08-11T06:00	15429	121	-54.6	-82.3	307	10
2023-08-11T06:00	15449	121	-54.6	-82.3	308	9
2023-08-11T06:00	15471	120	-54.7	-82.4	309	9
2023-08-11T06:00	15490	120	-54.8	-82.1	309	9
2023-08-11T06:00	15513	119	-54.9	-82.2	310	9
2023-08-11T06:00	15535	119	-55.0	-82.6	311	10
2023-08-11T06:00	15557	119	-54.9	-82.5	312	10
2023-08-11T06:00	15581	118	-54.7	-82.4	314	10
2023-08-11T06:00	15601	118	-54.6	-82.3	316	10
2023-08-11T06:00	15622	117	-54.4	-82.5	318	11
2023-08-11T06:00	15645	117	-54.1	-82.3	319	11
2023-08-11T06:00	15667	117	-53.8	-82.0	320	11
2023-08-11T06:00	15686	116	-53.6	-81.9	321	11
2023-08-11T06:00	15710	116	-53.5	-82.2	322	11
2023-08-11T06:00	15734	115	-53.5	-82.2	324	11
2023-08-11T06:00	15754	115	-53.5	-82.2	325	11
2023-08-11T06:00	15777	115	-53.5	-82.2	328	10
2023-08-11T06:00	15797	114	-52.9	-81.7	330	10
2023-08-11T06:00	15820	114	-52.8	-81.7	333	10
2023-08-11T06:00	15841	113	-52.8	-81.7	334	10
2023-08-11T06:00	15866	113	-52.8	-81.7	335	10
2023-08-11T06:00	15887	113	-52.9	-81.7	335	10
2023-08-11T06:00	15908	112	-53.0	-81.4	336	10
2023-08-11T06:00	15930	112	-53.0	-81.4	336	10
2023-08-11T06:00	15955	111	-53.1	-81.5	338	10
2023-08-11T06:00	15978	111	-53.1	-81.5	340	9
2023-08-11T06:00	16003	111	-53.1	-81.5	342	9
2023-08-11T06:00	16022	110	-53.2	-81.6	344	9
2023-08-11T06:00	16045	110	-53.2	-81.6	344	9
2023-08-11T06:00	16068	110	-53.1	-81.5	342	9
2023-08-11T06:00	16092	109	-53.1	-81.5	339	9
2023-08-11T06:00	16111	109	-53.1	-81.9	334	9
2023-08-11T06:00	16134	108	-53.1	-81.9	328	8
2023-08-11T06:00	16159	108	-53.1	-81.9	323	8
2023-08-11T06:00	16181	108	-52.7	-81.6	319	8
2023-08-11T06:00	16207	107	-52.5	-81.8	317	8
2023-08-11T06:00	16231	107	-52.5	-81.8	317	8
2023-08-11T06:00	16253	106	-52.6	-81.9	319	8
2023-08-11T06:00	16274	106	-52.6	-81.9	322	8
2023-08-11T06:00	16296	106	-52.6	-81.9	326	8
2023-08-11T06:00	16319	105	-52.7	-81.6	328	8
2023-08-11T06:00	16342	105	-52.9	-81.7	330	8
2023-08-11T06:00	16367	105	-53.0	-81.8	329	8
2023-08-11T06:00	16388	104	-53.1	-81.9	327	8
2023-08-11T06:00	16410	104	-53.1	-81.9	325	8
2023-08-11T06:00	16433	104	-53.0	-81.8	323	8
2023-08-11T06:00	16456	103	-53.1	-81.9	322	7
2023-08-11T06:00	16478	103	-53.2	-81.6	323	7
2023-08-11T06:00	16500	102	-53.2	-81.6	326	7
2023-08-11T06:00	16525	102	-53.4	-81.7	331	6
2023-08-11T06:00	16548	102	-53.3	-81.7	335	6
2023-08-11T06:00	16567	101	-53.4	-81.7	338	6
2023-08-11T06:00	16591	101	-53.6	-81.9	340	6
2023-08-11T06:00	16615	101	-53.7	-81.6	340	6
2023-08-11T06:00	16638	100	-53.9	-81.7	339	5
2023-08-11T06:00	16660	100	-54.2	-82.0	338	5
2023-08-11T06:00	16682	100	-54.4	-82.1	338	4
2023-08-11T06:00	16708	99	-54.6	-82.3	338	4
2023-08-11T06:00	16731	99	-54.6	-82.3	340	4
2023-08-11T06:00	16754	98	-54.3	-82.4	340	4
2023-08-11T06:00	16776	98	-54.0	-82.2	339	4
2023-08-11T06:00	16800	98	-54.0	-82.2	335	4
2023-08-11T06:00	16823	97	-54.2	-82.3	332	4
2023-08-11T06:00	16848	97	-54.4	-82.5	328	4
2023-08-11T06:00	16870	97	-54.3	-82.4	326	3
2023-08-11T06:00	16892	96	-54.4	-82.1	325	3
2023-08-11T06:00	16915	96	-54.4	-82.1	324	3
2023-08-11T06:00	16939	96	-54.6	-82.3	324	3
2023-08-11T06:00	16962	95	-54.8	-82.4	325	2
2023-08-11T06:00	16984	95	-54.9	-82.5	326	2
2023-08-11T06:00	17011	95	-55.1	-82.7	329	2
2023-08-11T06:00	17033	94	-55.3	-82.8	331	2
2023-08-11T06:00	17056	94	-55.3	-82.8	332	2
2023-08-11T06:00	17081	94	-55.2	-82.7	330	2
2023-08-11T06:00	17105	93	-55.3	-82.8	326	2
2023-08-11T06:00	17129	93	-55.5	-83.0	323	3
2023-08-11T06:00	17153	93	-55.4	-82.9	322	3
2023-08-11T06:00	17178	92	-55.2	-82.7	323	3
2023-08-11T06:00	17198	92	-55.3	-83.2	326	4
2023-08-11T06:00	17226	91	-55.2	-83.1	329	4
2023-08-11T06:00	17249	91	-55.2	-83.1	331	5
2023-08-11T06:00	17273	91	-55.1	-83.0	332	5
2023-08-11T06:00	17294	90	-54.9	-82.9	332	6
2023-08-11T06:00	17322	90	-54.9	-82.9	332	6
2023-08-11T06:00	17348	90	-54.9	-82.9	330	6
2023-08-11T06:00	17369	89	-54.7	-82.7	328	6
2023-08-11T06:00	17394	89	-54.7	-82.7	326	6
2023-08-11T06:00	17419	89	-54.7	-82.7	325	7
2023-08-11T06:00	17443	88	-54.7	-82.7	326	7
2023-08-11T06:00	17465	88	-54.9	-82.9	328	7
2023-08-11T06:00	17489	88	-54.9	-83.3	331	8
2023-08-11T06:00	17511	87	-54.7	-83.1	335	8
2023-08-11T06:00	17535	87	-54.4	-82.9	339	8
2023-08-11T06:00	17558	87	-54.3	-82.8	343	8
2023-08-11T06:00	17583	87	-54.5	-82.9	347	7
2023-08-11T06:00	17606	86	-54.5	-82.9	350	7
2023-08-11T06:00	17631	86	-54.5	-82.9	353	6
2023-08-11T06:00	17652	86	-54.5	-82.6	355	6
2023-08-11T06:00	17677	85	-54.7	-82.7	356	6
2023-08-11T06:00	17700	85	-54.9	-82.9	356	6
2023-08-11T06:00	17725	85	-55.2	-83.1	355	5
2023-08-11T06:00	17752	84	-55.0		354	5
2023-08-11T06:00	17775	84	-54.6	-83.0	352	6
2023-08-11T06:00	17799	84	-54.3	-82.8	352	6
2023-08-11T06:00	17822	83	-54.2	-83.1	353	5
2023-08-11T06:00	17844	83	-54.2	-83.1	354	5
2023-08-11T06:00	17871	83	-54.3	-83.2	356	5
2023-08-11T06:00	17896	82	-54.3	-83.2	359	4
2023-08-11T06:00	17918	82	-54.2	-82.7	2	4
2023-08-11T06:00	17944	82	-54.3	-82.8	6	4
2023-08-11T06:00	17965	81	-54.5	-82.9	10	3
2023-08-11T06:00	17985	81	-54.7	-83.1	14	3
2023-08-11T06:00	18010	81	-54.9	-82.9	17	3
2023-08-11T06:00	18033	81	-54.9	-82.9	17	4
2023-08-11T06:00	18062	80	-55.0	-82.9	17	4
2023-08-11T06:00	18083	80	-55.1	-83.0	17	4
2023-08-11T06:00	18105	80	-55.3	-83.2	18	5
2023-08-11T06:00	18131	79	-55.5		19	5
2023-08-11T06:00	18155	79	-55.6	-83.4	21	5
2023-08-11T06:00	18179	79	-55.7	-83.5	23	5
2023-08-11T06:00	18205	79	-55.9	-83.6	24	6
2023-08-11T06:00	18230	78	-55.9	-83.6	27	6
2023-08-11T06:00	18251	78	-55.9	-83.6	29	6
2023-08-11T06:00	18275	78	-55.9	-83.6	32	6
2023-08-11T06:00	18299	77	-56.0	-83.7	36	6
2023-08-11T06:00	18326	77	-56.2	-83.9	39	5
2023-08-11T06:00	18347	77	-56.3	-83.9	43	5
2023-08-11T06:00	18372	76	-56.3	-83.9	46	4
2023-08-11T06:00	18395	76	-56.4	-84.0	49	4
2023-08-11T06:00	18418	76	-56.2	-83.9	51	3
2023-08-11T06:00	18444	76	-56.0	-83.7	52	3
2023-08-11T06:00	18467	75	-56.0	-83.7	51	2
2023-08-11T06:00	18490	75	-56.1	-83.8	50	2
2023-08-11T06:00	18516	75	-56.0	-83.7	52	1
2023-08-11T06:00	18539	74	-56.0	-83.7	58	1
2023-08-11T06:00	18564	74	-56.1	-83.8	66	1
2023-08-11T06:00	18586	74	-56.2	-83.9	70	1
2023-08-11T06:00	18607	74	-56.1	-83.8	65	1
2023-08-11T06:00	18632	73	-56.1	-84.2	51	1
2023-08-11T06:00	18656	73	-56.0	-84.1	32	1
2023-08-11T06:00	18679	73	-55.9	-84.0	15	1
2023-08-11T06:00	18702	73	-55.7	-83.9	2	2
2023-08-11T06:00	18728	72	-55.7	-83.9	354	2
2023-08-11T06:00	18752	72	-55.7	-83.9	349	3
2023-08-11T06:00	18777	72	-55.5	-83.7	348	3
2023-08-11T06:00	18801	71	-55.6	-84.2	349	3
2023-08-11T06:00	18821	71	-55.5	-84.1	352	3
2023-08-11T06:00	18845	71	-55.4	-84.0	357	4
2023-08-11T06:00	18867	71	-55.2	-83.9	1	4
2023-08-11T06:00	18894	70	-55.2	-83.9	5	4
2023-08-11T06:00	18917	70	-55.2	-83.9	9	4
2023-08-11T06:00	18939	70	-55.1	-83.8	13	4
2023-08-11T06:00	18959	70	-54.9	-83.7	18	4
2023-08-11T06:00	18984	69	-54.8	-83.6	22	4
2023-08-11T06:00	19006	69	-54.8	-83.6	27	4
2023-08-11T06:00	19028	69	-54.7	-83.5	32	5
2023-08-11T06:00	19050	69	-54.6	-83.4	36	5
2023-08-11T06:00	19075	68	-54.7	-83.5	39	5
2023-08-11T06:00	19099	68	-54.7	-83.5	41	6
2023-08-11T06:00	19122	68	-54.5	-83.8	43	7
2023-08-11T06:00	19146	68	-54.3	-83.6	44	7
2023-08-11T06:00	19170	67	-54.2	-83.6	46	8
2023-08-11T06:00	19195	67	-54.1	-83.5	48	8
2023-08-11T06:00	19218	67	-54.1	-83.5	51	8
2023-08-11T06:00	19244	67	-53.9	-83.3	53	8
2023-08-11T06:00	19270	66	-54.0	-83.4	55	7
2023-08-11T06:00	19291	66	-54.2	-83.1	57	7
2023-08-11T06:00	19317	66	-54.3	-83.2	59	7
2023-08-11T06:00	19338	66	-54.6	-83.4	60	6
2023-08-11T06:00	19367	65	-54.8	-83.6	59	6
2023-08-11T06:00	19389	65	-54.6	-83.4	55	5
2023-08-11T06:00	19409	65	-54.5	-83.4	48	4
2023-08-11T06:00	19440	65	-54.3	-83.6	38	3
2023-08-11T06:00	19462	64	-53.9	-83.3	28	3
2023-08-11T06:00	19483	64	-53.8	-83.3	23	3
2023-08-11T06:00	19510	64	-53.8	-83.3	26	3
2023-08-11T06:00	19534	64	-53.7	-83.2	34	4
2023-08-11T06:00	19556	63	-53.6	-83.1	43	4
2023-08-11T06:00	19588	63	-53.6	-83.1	52	5
2023-08-11T06:00	19610	63	-53.8	-83.3	60	5
2023-08-11T06:00	19635	63	-53.9	-83.3	67	6
2023-08-11T06:00	19659	63	-54.0	-83.0	73	6
2023-08-11T06:00	19679	62	-54.1	-83.1	78	7
2023-08-11T06:00	19707	62	-54.2	-83.1	82	7
2023-08-11T06:00	19729	62	-54.4	-83.3	85	8
2023-08-11T06:00	19759	62	-54.5	-83.4	87	8
2023-08-11T06:00	19782	61	-54.5	-83.4	88	8
2023-08-11T06:00	19805	61	-54.4	-83.7	89	8
2023-08-11T06:00	19830	61	-54.1	-83.5	90	8
2023-08-11T06:00	19852	61	-54.1	-83.5	91	7
2023-08-11T06:00	19880	60	-54.0	-83.4	92	7
2023-08-11T06:00	19904	60	-54.0	-83.4	94	7
2023-08-11T06:00	19931	60	-54.1	-83.5	95	7
2023-08-11T06:00	19954	60	-54.2	-83.6	97	7
2023-08-11T06:00	19979	59	-54.1	-83.5	98	6
2023-08-11T06:00	20007	59	-54.1	-83.5	98	6
2023-08-11T06:00	20031	59	-54.1	-83.5	99	6
2023-08-11T06:00	20059	59	-54.1	-83.5	101	6
2023-08-11T06:00	20084	58	-54.2	-83.1	103	6
2023-08-11T06:00	20112	58	-54.3	-83.2	106	6
2023-08-11T06:00	20137	58	-54.4	-83.3	109	6
2023-08-11T06:00	20161	58	-54.4	-83.3	112	6
2023-08-11T06:00	20188	58	-54.6	-83.4	115	7
2023-08-11T06:00	20220	57	-54.7	-83.5	118	7
2023-08-11T06:00	20242	57	-54.8	-83.6	121	7
2023-08-11T06:00	20270	57	-54.9	-83.3	124	8
2023-08-11T06:00	20296	57	-55.1	-83.4	125	8
2023-08-11T06:00	20321	56	-55.3	-83.6	125	8
2023-08-11T06:00	20351	56	-55.5	-83.7	124	8
2023-08-11T06:00	20375	56	-55.6	-83.8	122	8
2023-08-11T06:00	20401	56	-55.7	-83.9	121	7
2023-08-11T06:00	20427	55	-55.7	-83.9	119	7
2023-08-11T06:00	20451	55	-55.7	-83.9	118	7
2023-08-11T06:00	20478	55	-55.5	-84.1	117	6
2023-08-11T06:00	20503	55	-55.3	-84.0	117	6
2023-08-11T06:00	20534	55	-55.3	-84.0	116	5
2023-08-11T06:00	20560	54	-55.4	-84.0	116	5
2023-08-11T06:00	20585	54	-55.5	-84.1	115	5
2023-08-11T06:00	20612	54	-55.3	-84.0	115	5
2023-08-11T06:00	20640	54	-55.1	-83.8	115	5
2023-08-11T06:00	20664	53	-54.9	-83.7	117	5
2023-08-11T06:00	20693	53	-54.8	-83.6	119	5
2023-08-11T06:00	20714	53	-54.8	-83.6	121	5
2023-08-11T06:00	20741	53	-54.9	-83.7	123	5
2023-08-11T06:00	20765	53	-55.0	-83.7	126	5
2023-08-11T06:00	20794	52	-54.8	-83.6	127	5
2023-08-11T06:00	20818	52	-54.7	-83.5	128	5
2023-08-11T06:00	20847	52	-54.8	-83.6	127	4
2023-08-11T06:00	20873	52	-54.8	-83.6	124	4
2023-08-11T06:00	20899	51	-54.8	-83.6	119	4
2023-08-11T06:00	20928	51	-54.8	-83.6	111	3
2023-08-11T06:00	20950	51	-54.8	-83.6	102	4
2023-08-11T06:00	20975	51	-54.9	-83.7	94	4
2023-08-11T06:00	21006	51	-55.0	-83.7	88	4
2023-08-11T06:00	21034	50	-55.0	-83.7	86	5
2023-08-11T06:00	21061	50	-55.0	-83.7	86	5
2023-08-11T06:00	21083	50	-55.0	-83.7	87	5
2023-08-11T06:00	21109	50	-54.9	-83.7	89	5
2023-08-11T06:00	21131	50	-54.8	-83.6	90	5
2023-08-11T06:00	21168	49	-54.7	-83.5	91	5
2023-08-11T06:00	21190	49	-54.9	-83.7	90	4
2023-08-11T06:00	21216	49	-54.9	-83.7	89	4
2023-08-11T06:00	21240	49	-54.9	-83.7	87	3
2023-08-11T06:00	21266	49	-55.0	-83.7	82	2
2023-08-11T06:00	21293	48	-55.0	-83.7	76	2
2023-08-11T06:00	21319	48	-55.2	-83.9	71	2
2023-08-11T06:00	21350	48	-55.2	-83.9	69	2
2023-08-11T06:00	21371	48	-55.1	-83.8	70	3
2023-08-11T06:00	21398	48	-55.1	-83.8	75	3
2023-08-11T06:00	21425	47	-55.0	-83.7	80	4
2023-08-11T06:00	21453	47	-55.1	-83.8	85	4
2023-08-11T06:00	21477	47	-55.2	-83.9	89	4
2023-08-11T06:00	21502	47	-55.3	-84.0	93	5
2023-08-11T06:00	21525	47	-55.4	-84.0	95	5
2023-08-11T06:00	21550	46	-55.3	-84.0	98	5
2023-08-11T06:00	21577	46	-55.2	-83.9	100	5
2023-08-11T06:00	21605	46	-55.2	-83.9	102	5
2023-08-11T06:00	21631	46	-55.2	-83.9	102	5
2023-08-11T06:00	21659	46	-55.1	-83.8	102	5
2023-08-11T06:00	21682	46	-54.9	-84.1	99	4
2023-08-11T06:00	21709	45	-54.7	-83.9	95	4
2023-08-11T06:00	21734	45	-54.5	-83.8	90	4
2023-08-11T06:00	21767	45	-54.6	-83.9	85	4
2023-08-11T06:00	21786	45	-54.6	-83.9	81	4
2023-08-11T06:00	21814	45	-54.4	-83.7	79	4
2023-08-11T06:00	21838	44	-54.3	-83.6	78	5
2023-08-11T06:00	21866	44	-54.2	-83.6	78	5
2023-08-11T06:00	21890	44	-54.0	-83.4	79	5
2023-08-11T06:00	21918	44	-54.0	-83.9	80	6
2023-08-11T06:00	21948	44	-53.9	-83.8	82	6
2023-08-11T06:00	21966	44	-53.7	-83.7	84	7
2023-08-11T06:00	21998	43	-53.5	-83.5	87	7
2023-08-11T06:00	22020	43	-53.4	-83.4	91	7
2023-08-11T06:00	22049	43	-53.3		96	7
2023-08-11T06:00	22072	43	-53.3		100	7
2023-08-11T06:00	22102	43	-53.3		104	7
2023-08-11T06:00	22125	43	-53.4	-83.0	105	7
2023-08-11T06:00	22147	42	-53.4	-83.0	105	7
2023-08-11T06:00	22179	42	-53.5	-83.0	103	7
2023-08-11T06:00	22201	42	-53.5	-83.0	99	7
2023-08-11T06:00	22227	42	-53.5	-83.0	95	7
2023-08-11T06:00	22255	42	-53.7	-83.2	92	8
2023-08-11T06:00	22279	42	-53.8	-83.3	90	8
2023-08-11T06:00	22310	41	-53.7	-83.2	89	8
2023-08-11T06:00	22337	41	-53.8	-83.3	89	9
2023-08-11T06:00	22358	41	-54.0	-83.4	89	9
2023-08-11T06:00	22390	41	-54.1	-83.5	90	9
2023-08-11T06:00	22413	41	-54.2	-83.6	91	10
2023-08-11T06:00	22439	40	-54.2	-83.6	92	10
2023-08-11T06:00	22464	40	-54.1	-83.5	93	9
2023-08-11T06:00	22496	40	-54.1	-83.5	95	9
2023-08-11T06:00	22520	40	-54.0	-83.4	97	9
2023-08-11T06:00	22544	40	-53.9	-83.3	99	8
2023-08-11T06:00	22573	40	-53.9	-83.3	101	8
2023-08-11T06:00	22598	40	-53.9	-83.3	102	7
2023-08-11T06:00	22624	39	-54.0	-83.4	103	7
2023-08-11T06:00	22652	39	-54.0	-83.4	103	6
2023-08-11T06:00	22673	39	-54.0	-83.4	103	6
2023-08-11T06:00	22704	39	-53.8	-83.3	104	6
2023-08-11T06:00	22733	39	-53.6	-83.6	105	5
2023-08-11T06:00	22758	39	-53.4	-83.4	107	5
2023-08-11T06:00	22790	38	-53.4	-83.4	108	5
2023-08-11T06:00	22816	38	-53.2	-83.3	106	5
2023-08-11T06:00	22840	38	-53.2	-83.3	103	5
2023-08-11T06:00	22862	38	-53.2	-83.3	98	5
2023-08-11T06:00	22890	38	-53.3		94	5
2023-08-11T06:00	22917	38	-53.4	-83.4	91	5
2023-08-11T06:00	22947	37	-53.3		90	4
2023-08-11T06:00	22971	37	-53.0	-83.1	90	4
2023-08-11T06:00	23001	37	-52.8	-83.0	88	4
2023-08-11T06:00	23023	37	-52.8	-83.0	82	4
2023-08-11T06:00	23051	37	-52.6	-82.8	74	4
2023-08-11T06:00	23081	37	-52.4	-83.2	66	5
2023-08-11T06:00	23100	37	-52.4	-83.2	62	6
2023-08-11T06:00	23129	36	-52.3	-83.1	59	6
2023-08-11T06:00	23150	36	-51.8	-82.8	59	7
2023-08-11T06:00	23175	36	-51.6	-82.6	59	7
2023-08-11T06:00	23205	36	-51.5	-82.5	60	8
2023-08-11T06:00	23236	36	-51.4	-82.5	62	8
2023-08-11T06:00	23257	36	-51.3	-82.4	64	8
2023-08-11T06:00	23290	36	-51.1	-82.2	67	9
2023-08-11T06:00	23309	35	-51.0	-82.2	70	9
2023-08-11T06:00	23337	35	-50.9	-82.1	73	10
2023-08-11T06:00	23367	35	-50.9	-82.1	76	10
2023-08-11T06:00	23388	35	-50.9	-82.1	79	11
2023-08-11T06:00	23420	35	-50.9	-82.1	81	11
2023-08-11T06:00	23446	35	-50.9	-82.1	83	11
2023-08-11T06:00	23470	35	-50.8	-82.0	85	10
2023-08-11T06:00	23499	34	-50.7		87	10
2023-08-11T06:00	23530	34	-50.6	-81.9	88	10
2023-08-11T06:00	23549	34	-50.6	-81.9	88	9
2023-08-11T06:00	23576	34	-50.5	-81.8	87	9
2023-08-11T06:00	23608	34	-50.5	-81.8	86	9
2023-08-11T06:00	23638	34	-50.4	-81.7	85	8
2023-08-11T06:00	23664	34	-50.3	-81.6	85	8
2023-08-11T06:00	23693	33	-50.2		85	9
2023-08-11T06:00	23720	33	-50.1	-81.5	86	9
2023-08-11T06:00	23752	33	-50.1	-81.5	87	9
2023-08-11T06:00	23779	33	-50.1	-81.5	88	9
2023-08-11T06:00	23803	33	-50.2		89	10
2023-08-11T06:00	23832	33	-50.2		91	10
2023-08-11T06:00	23860	33	-50.2		94	10
2023-08-11T06:00	23893	32	-50.2		96	10
2023-08-11T06:00	23919	32	-50.1	-81.5	98	9
2023-08-11T06:00	23953	32	-50.1	-81.5	99	9
2023-08-11T06:00	23980	32	-50.0	-81.4	99	8
2023-08-11T06:00	24010	32	-49.9	-81.3	98	7
2023-08-11T06:00	24042	32	-50.0	-81.4	96	6
2023-08-11T06:00	24068	32	-50.1	-81.5	93	5
2023-08-11T06:00	24098	31	-50.1	-81.5	91	4
2023-08-11T06:00	24124	31	-50.2		88	4
2023-08-11T06:00	24156	31	-50.2		84	3
2023-08-11T06:00	24179	31	-50.2		79	2
2023-08-11T06:00	24211	31	-50.1	-81.5	74	2
2023-08-11T06:00	24240	31	-50.0	-82.0	73	2
2023-08-11T06:00	24268	31	-49.7	-81.8	76	2
2023-08-11T06:00	24296	30	-49.5	-81.6	82	3
2023-08-11T06:00	24323	30	-49.5	-81.6	87	3
2023-08-11T06:00	24351	30	-49.5	-81.6	93	3
2023-08-11T06:00	24385	30	-49.5	-81.6	97	4
2023-08-11T06:00	24406	30	-49.5	-81.6	99	4
2023-08-11T06:00	24439	30	-49.6	-81.1	100	4
2023-08-11T06:00	24467	30	-49.7	-81.2	101	5
2023-08-11T06:00	24496	30	-49.7	-81.2	100	5
2023-08-11T06:00	24528	29	-49.6	-81.1	100	5
2023-08-11T06:00	24553	29	-49.5	-81.1	99	5
2023-08-11T06:00	24580	29	-49.5	-81.1	98	4
2023-08-11T06:00	24608	29	-49.6	-81.1	99	4
2023-08-11T06:00	24638	29	-49.7	-81.8	101	4
2023-08-11T06:00	24660	29	-49.7	-81.8	105	3
2023-08-11T06:00	24695	29	-49.5	-81.6	110	3
2023-08-11T06:00	24724	29	-49.4	-81.6	115	3
2023-08-11T06:00	24750	28	-49.3	-81.5	117	3
2023-08-11T06:00	24781	28	-49.3	-81.5	116	3
2023-08-11T06:00	24810	28	-49.2	-81.4	112	3
2023-08-11T06:00	24839	28	-49.1	-81.3	109	3
2023-08-11T06:00	24867	28	-49.1	-81.3	108	2
2023-08-11T06:00	24891	28	-49.0	-81.3	113	2
2023-08-11T06:00	24919	28	-49.0	-81.3	123	2
2023-08-11T06:00	24949	28	-49.0	-81.3	133	2
2023-08-11T06:00	24980	27	-49.1	-81.3	139	3
2023-08-11T06:00	25008	27	-49.1	-81.3	142	3
2023-08-11T06:00	25038	27	-49.1	-81.3	143	3
2023-08-11T06:00	25060	27	-49.1	-81.3	143	3
2023-08-11T06:00	25087	27	-49.1	-81.3	142	3
2023-08-11T06:00	25110	27	-49.3	-81.5	140	3
2023-08-11T06:00	25140	27	-49.2	-81.4	139	3
2023-08-11T06:00	25174	27	-49.2	-81.4	137	4
2023-08-11T06:00	25200	27	-49.3	-81.5	135	4
2023-08-11T06:00	25231	26	-49.3	-81.5	132	4
2023-08-11T06:00	25247	26	-49.1	-81.3	127	4
2023-08-11T06:00	25286	26	-49.0	-81.3	120	4
2023-08-11T06:00	25309	26	-49.0	-81.3	112	4
2023-08-11T06:00	25331	26	-48.9	-81.2	104	4
2023-08-11T06:00	25365	26	-48.9	-81.2	97	4
2023-08-11T06:00	25395	26	-48.9	-81.2	91	4
2023-08-11T06:00	25423	26	-48.9	-81.2	86	5
2023-08-11T06:00	25452	26	-49.0	-81.3	83	5
2023-08-11T06:00	25471	25	-49.0	-81.3	81	5
2023-08-11T06:00	25504	25	-49.1	-81.3	81	5
2023-08-11T06:00	25536	25	-49.1	-81.3	80	5
2023-08-11T06:00	25558	25	-49.1	-81.3	79	5
2023-08-11T06:00	25587	25	-49.1	-81.3	76	5
2023-08-11T06:00	25619	25	-49.2	-81.4	73	5
2023-08-11T06:00	25644	25	-49.2	-81.4	69	5
2023-08-11T06:00	25665	25	-49.2	-81.4	66	6
2023-08-11T06:00	25696	25	-49.3	-81.5	64	6
2023-08-11T06:00	25728	24	-49.3	-81.5	63	6
2023-08-11T06:00	25752	24	-49.4	-81.6	63	6
2023-08-11T06:00	25774	24	-49.3	-81.5	65	6
2023-08-11T06:00	25816	24	-49.3	-81.5	67	6
2023-08-11T06:00	25835	24	-49.3	-81.5	69	6
2023-08-11T06:00	25865	24	-49.3	-81.5	72	6
2023-08-11T06:00	25894	24	-49.3	-81.5	74	7
2023-08-11T06:00	25928	24	-49.4	-81.6	75	7
2023-08-11T06:00	25958	24	-49.5	-81.6	73	7
2023-08-11T06:00	25989	24	-49.5	-81.6	71	7
2023-08-11T06:00	26015	23	-49.6	-81.7	68	7
2023-08-11T06:00	26038	23	-49.7	-81.8	66	7
2023-08-11T06:00	26070	23	-49.7	-81.2	66	7
2023-08-11T06:00	26099	23	-49.8	-81.3	67	8
2023-08-11T06:00	26135	23	-49.9	-81.3	69	8
2023-08-11T06:00	26162	23	-50.0	-81.4	70	8
2023-08-11T06:00	26180	23	-50.1	-81.5	71	8
2023-08-11T06:00	26212	23	-50.2		70	7
2023-08-11T06:00	26251	23	-50.2		70	7
2023-08-11T06:00	26275	23	-50.3	-81.6	70	7
2023-08-11T06:00	26308	22	-50.5	-81.8	72	6
2023-08-11T06:00	26338	22	-50.4	-81.7	74	7
2023-08-11T06:00	26367	22	-50.2	-82.1	76	7
2023-08-11T06:00	26398	22	-50.0	-82.0	78	7
2023-08-11T06:00	26421	22	-49.8	-81.8	78	8
2023-08-11T06:00	26456	22	-49.8	-81.8	79	8
2023-08-11T06:00	26483	22	-49.9	-81.9	80	9
2023-08-11T06:00	26515	22	-50.0	-82.0	81	9
2023-08-11T06:00	26539	22	-49.9	-81.9	84	9
2023-08-11T06:00	26577	22	-49.7	-81.8	86	9
2023-08-11T06:00	26596	21	-49.7	-81.8	88	9
2023-08-11T06:00	26631	21	-49.7	-81.8	90	9
2023-08-11T06:00	26656	21	-49.6	-81.7	91	9
2023-08-11T06:00	26690	21	-49.7	-81.8	93	9
2023-08-11T06:00	26714	21	-49.7	-81.8	95	9
2023-08-11T06:00	26746	21	-49.6	-81.7	97	9
2023-08-11T06:00	26782	21	-49.3	-81.5	100	9
2023-08-11T06:00	26802	21	-49.2	-81.4	102	9
2023-08-11T06:00	26830	21	-49.2	-81.4	103	9
2023-08-11T06:00	26852	21	-49.2	-81.4	102	9
2023-08-11T06:00	26878	21	-49.2	-81.4	99	9
2023-08-11T06:00	26917	20	-49.1	-81.3	95	9
2023-08-11T06:00	26936	20	-49.0	-81.9	90	9
2023-08-11T06:00	26971	20	-48.8	-81.7	85	9
2023-08-11T06:00	26995	20	-48.6	-81.6	80	9
2023-08-11T06:00	27019	20	-48.2	-81.3	76	9
2023-08-11T06:00	27047	20	-47.9	-81.1	75	9
2023-08-11T06:00	27067	20	-47.6	-80.9	75	9
2023-08-11T06:00	27106	20	-47.3	-81.4	79	9
2023-08-11T06:00	27136	20	-47.1	-81.2	84	9
2023-08-11T06:00	27165	20	-46.9	-81.1	90	9
2023-08-11T06:00	27197	20	-47.0	-80.4	95	9
2023-08-11T06:00	27230	19	-47.0	-80.4	99	9
2023-08-11T06:00	27263	19	-46.9	-80.4	101	9
2023-08-11T06:00	27292	19	-47.0	-80.4	103	8
2023-08-11T06:00	27323	19	-46.9	-80.4	105	8
2023-08-11T06:00	27349	19	-46.6	-80.1	106	8
2023-08-11T06:00	27376	19	-46.4	-80.7	108	8
2023-08-11T06:00	27407	19	-46.3	-80.6	109	8
2023-08-11T06:00	27445	19	-46.2	-80.6	111	7
2023-08-11T06:00	27470	19	-45.7	-80.2	112	7
2023-08-11T06:00	27500	19	-44.9	-80.4	113	7
2023-08-11T06:00	27528	19	-44.3	-80.0	115	7
2023-08-11T06:00	27559	19	-43.9	-79.7	117	7
2023-08-11T06:00	27590	18	-43.9	-79.7	118	7
2023-08-11T06:00	27616	18	-44.0	-79.8	118	7
2023-08-11T06:00	27645	18	-43.9	-79.7	118	7
2023-08-11T06:00	27683	18	-43.8	-79.6	120	7
2023-08-11T06:00	27710	18	-43.7	-79.6	124	7
2023-08-11T06:00	27742	18	-43.3	-79.3	129	7
2023-08-11T06:00	27774	18	-43.0	-79.1	136	6
2023-08-11T06:00	27806	18	-43.0	-79.1	141	6
2023-08-11T06:00	27834	18	-43.0	-79.1	144	6
2023-08-11T06:00	27869	18	-42.9	-79.0	143	5
2023-08-11T06:00	27899	18	-42.8	-78.9	138	5
2023-08-11T06:00	27927	18	-42.7	-78.9	130	4
2023-08-11T06:00	27963	17	-42.8	-78.9	122	4
2023-08-11T06:00	28004	17	-42.8	-78.9	116	3
2023-08-11T06:00	28021	17	-42.8	-78.9	112	3
2023-08-11T06:00	28052	17	-42.7	-78.9	109	2
2023-08-11T06:00	28087	17	-42.6	-78.8	103	2
2023-08-11T06:00	28109	17	-42.5	-78.7	91	2
2023-08-11T06:00	28153	17	-42.6	-78.8	76	2
2023-08-11T06:00	28175	17	-42.6	-78.8	66	2
2023-08-11T06:00	28204	17	-42.6	-78.8	61	3
2023-08-11T06:00	28239	17	-42.7	-78.0	58	4
2023-08-11T06:00	28270	17	-42.9	-78.2	57	5
2023-08-11T06:00	28298	17	-43.1	-78.3	56	6
2023-08-11T06:00	28324	17	-43.2	-78.4	55	7
2023-08-11T06:00	28359	16	-43.4	-78.5	55	8
2023-08-11T06:00	28386	16	-43.4	-78.5	55	8
2023-08-11T06:00	28409	16	-43.5	-78.6	56	9
2023-08-11T06:00	28440	16	-43.5	-78.6	59	9
2023-08-11T06:00	28477	16	-43.3	-78.5	64	9
2023-08-11T06:00	28504	16	-43.2	-78.4	68	9
2023-08-11T06:00	28533	16	-43.2	-78.4	74	9
2023-08-11T06:00	28557	16	-43.2	-78.4	78	9
2023-08-11T06:00	28600	16	-43.4	-78.5	82	9
2023-08-11T06:00	28627	16	-43.5	-78.6	86	8
2023-08-11T06:00	28651	16	-43.5	-78.6	88	8
2023-08-11T06:00	28698	16	-43.4	-78.5	89	7
2023-08-11T06:00	28728	16	-43.3	-78.5	90	7
2023-08-11T06:00	28750	16	-43.3	-79.3	88	6
2023-08-11T06:00	28778	15	-43.3	-79.3	86	6
2023-08-11T06:00	28826	15	-43.2	-79.2	83	6
2023-08-11T06:00	28848	15	-43.2	-79.2	79	6
2023-08-11T06:00	28865	15	-43.1		76	6
2023-08-11T06:00	28896	15	-43.1		74	6
2023-08-11T06:00	28923	15	-43.1		72	5
2023-08-11T06:00	28945	15	-43.0	-79.1	71	5
2023-08-11T06:00	28990	15	-43.0	-79.1	69	5
2023-08-11T06:00	29013	15	-43.0	-79.1	67	5
2023-08-11T06:00	29043	15	-42.9	-79.0	65	6
2023-08-11T06:00	29072	15	-42.8	-78.9	64	7
2023-08-11T06:00	29109	15	-42.7	-78.9	63	7
2023-08-11T06:00	29134	15	-42.6	-78.8	63	8
2023-08-11T06:00	29163	15	-42.5	-78.7	63	9
2023-08-11T06:00	29184	15	-42.5	-78.7	64	9
2023-08-11T06:00	29220	14	-42.5	-78.7	65	10
2023-08-11T06:00	29244	14	-42.5	-78.7	67	10
2023-08-11T06:00	29278	14	-42.4	-78.7	69	9
2023-08-11T06:00	29313	14	-42.3		71	9
2023-08-11T06:00	29345	14	-42.3		73	8
2023-08-11T06:00	29361	14	-42.2	-78.5	75	7
2023-08-11T06:00	29396	14	-42.2	-78.5	75	7
2023-08-11T06:00	29418	14	-42.0	-78.4	75	7
2023-08-11T06:00	29444	14	-41.8	-78.2	74	7
2023-08-11T06:00	29481	14	-41.4	-78.9	72	7
2023-08-11T06:00	29517	14	-41.1	-78.7	71	7
2023-08-11T06:00	29557	14	-41.0	-78.6	70	6
2023-08-11T06:00	29566	14	-40.9		67	6
2023-08-11T06:00	29602	14	-40.8	-78.5	63	5
2023-08-11T06:00	29622	14	-40.8	-78.5	57	5
2023-08-11T06:00	29658	14	-40.9		50	4
2023-08-11T06:00	29692	14	-40.9	-77.6	44	4
2023-08-11T06:00	29726	13	-40.9	-77.6	40	4
2023-08-11T06:00	29752	13	-41.0	-77.7	39	3
2023-08-11T06:00	29782	13	-40.9	-77.6	41	3
2023-08-11T06:00	29795	13	-40.8	-78.5	45	3
2023-08-11T06:00	29842	13	-40.7	-78.4	48	4
2023-08-11T06:00	29875	13	-40.6	-78.3	51	4
2023-08-11T06:00	29908	13	-40.5	-78.3	53	5
2023-08-11T06:00	29921	13	-40.6	-78.3	56	5
2023-08-11T06:00	29956	13	-40.6	-78.3	59	6
2023-08-11T06:00	29988	13	-40.4	-78.2	62	6
2023-08-11T06:00	30025	13	-40.4	-78.2	65	7
2023-08-11T06:00	30039	13	-40.7	-78.4	66	8
2023-08-11T06:00	30079	13	-40.8	-77.5	66	8
2023-08-11T06:00	30110	13	-40.7	-77.4	67	9
2023-08-11T06:00	30148	13	-40.7	-77.4	67	10
2023-08-11T06:00	30179	13	-40.9	-77.6	67	10
2023-08-11T06:00	30220	13	-40.8	-77.5	68	10
2023-08-11T06:00	30245	12	-40.7	-78.4	70	10
2023-08-11T06:00	30274	12	-40.8	-78.5	72	9
2023-08-11T06:00	30319	12	-40.7	-78.4	76	9
2023-08-11T06:00	30355	12	-40.6	-78.3	80	8
2023-08-11T06:00	30376	12	-40.5	-78.3	84	8
2023-08-11T06:00	30410	12	-40.6	-78.3	86	7
2023-08-11T06:00	30438	12	-40.8	-78.5	85	7
2023-08-11T06:00	30475	12	-40.8	-77.5	81	7
2023-08-11T06:00	30495	12	-40.8	-77.5	76	7
2023-08-11T06:00	30538	12	-40.9	-77.6	70	8
2023-08-11T06:00	30580	12	-40.9	-77.6	65	8
2023-08-11T06:00	30591	12	-41.0	-77.7	62	9
2023-08-11T06:00	30627	12	-40.9	-77.6	61	10
2023-08-11T06:00	30668	12	-40.8	-78.5	62	10
2023-08-11T06:00	30706	12	-40.6	-78.3	64	11
2023-08-11T06:00	30730	12	-40.6	-78.3	67	12
2023-08-11T06:00	30750	12	-40.6	-78.3	71	13
2023-08-11T06:00	30781	12	-40.8	-77.5	74	13
2023-08-11T06:00	30816	11	-41.0	-77.7	77	13
2023-08-11T06:00	30863	11	-41.1	-77.7	81	14
2023-08-11T06:00	30879	11	-41.3	-77.9	83	14
2023-08-11T06:00	30918	11	-41.4	-77.9	86	15
2023-08-11T06:00	30943	11	-41.6	-78.1	88	15
2023-08-11T06:00	30948	11	-41.8	-78.2	90	15
2023-08-11T06:00	31010	11	-42.0	-78.4	92	15
2023-08-11T06:00	31030	11	-42.1	-78.4	94	16
2023-08-11T06:00	31060	11	-42.3		96	15
2023-08-11T06:00	31075	11	-42.3		98	15
2023-08-11T06:00	31116	11	-42.1	-78.4	100	15
2023-08-11T06:00	31157	11	-41.8	-78.2	102	14
2023-08-11T06:00	31181	11	-41.8	-78.2	104	14
2023-08-11T06:00	31205	11	-41.8	-78.2	105	14
2023-08-11T06:00	31235	11	-41.9	-78.3	107	13
2023-08-11T06:00	31257	11	-41.9	-78.3	108	13
2023-08-11T06:00	31304	11	-41.7	-78.2	109	12
2023-08-11T06:00	31324	11	-41.5	-79.0	109	11
2023-08-11T06:00	31357	11	-41.4	-78.9	107	10
2023-08-11T06:00	31406	11	-41.3	-78.8	105	9
2023-08-11T06:00	31414	10	-41.1	-78.7	102	8
2023-08-11T06:00	31458	10	-40.9		98	7
2023-08-11T06:00	31475	10	-40.6	-78.3	96	7
2023-08-11T06:00	31498	10	-40.3	-78.1	94	8
2023-08-11T06:00	31543	10	-40.2	-78.0	93	8
2023-08-11T06:00	31569	10	-40.0	-77.9	93	8
2023-08-11T06:00	31588	10	-39.9	-77.8	94	8
2023-08-11T06:00	31643	10	-39.7	-77.7	95	9
2023-08-11T06:00	31678	10	-39.5	-77.6	97	9
2023-08-11T06:00	31701	10	-39.4	-77.5	100	9
2023-08-11T06:00	31749	10	-39.4	-77.5	102	8
2023-08-11T06:00	31762	10	-39.5	-77.6	106	8
2023-08-11T06:00	31794	10	-39.7	-77.7	110	7
2023-08-11T06:00	31835	10	-39.9	-77.8	115	7
2023-08-11T06:00	31878	10	-39.8	-77.8	120	6
2023-08-11T06:00	31902	10	-39.9	-77.8	125	6
2023-08-11T06:00	31928	10	-40.1	-78.0	129	6
2023-08-11T06:00	31968	10	-40.4	-78.2	132	6
2023-08-11T06:00	31998	10	-40.6	-78.3	133	6
2023-08-11T06:00	32026	10	-40.6	-78.3	131	5
2023-08-11T06:00	32054	10	-40.6	-78.3	126	5
2023-08-11T06:00	32111	10	-40.6	-78.3	120	5
2023-08-11T06:00	32128	9	-40.6	-78.3	112	5
2023-08-11T06:00	32168	9	-40.8	-78.5	106	6
2023-08-11T06:00	32194	9	-40.9		102	6
2023-08-11T06:00	32233	9	-41.0	-78.6	100	7
2023-08-11T06:00	32262	9	-40.9		99	7
2023-08-11T06:00	32281	9	-40.7	-78.4	100	7
2023-08-11T06:00	32333	9	-40.6	-78.3	101	8
2023-08-11T06:00	32389	9	-40.7	-78.4	101	8
2023-08-11T06:00	32410	9	-40.8	-78.5	101	8
2023-08-11T06:00	32441	9	-40.9		100	8
2023-08-11T06:00	32483	9	-41.0	-78.6	100	8
2023-08-11T06:00	32488	9	-41.1	-78.7	100	8
2023-08-11T06:00	32530	9	-41.2	-78.8	101	8
2023-08-11T06:00	32559	9	-41.2	-78.8	102	9
2023-08-11T06:00	32595	9	-41.3	-78.8	103	9
2023-08-11T06:00	32654	9	-41.2	-78.8	104	9
2023-08-11T12:00	-999					
2023-08-11T12:00	144	1006	21.0	9.9	259	2
2023-08-11T12:00	175	1002	20.7	9.7	261	2
2023-08-11T12:00	209	998	20.1	9.3	265	2
2023-08-11T12:00	245	994	19.9	9.4	269	2
2023-08-11T12:00	282	990	19.2	9.1	274	2
2023-08-11T12:00	320	985	19.1	9.2	277	2
2023-08-11T12:00	355	981	18.7	9.1	281	2
2023-08-11T12:00	387	978	18.5	9.2	285	2
2023-08-11T12:00	427	973	18.0	8.9	290	2
2023-08-11T12:00	460	970	17.7	8.9	294	3
2023-08-11T12:00	491	966	17.4	8.8	296	3
2023-08-11T12:00	520	963	17.0	8.8	296	3
2023-08-11T12:00	546	960	16.7	8.8	294	3
2023-08-11T12:00	574	957	16.4	8.5	291	3
2023-08-11T12:00	593	954	16.1	8.6	288	3
2023-08-11T12:00	618	952	15.9	8.5	287	3
2023-08-11T12:00	640	949	15.7	8.6	289	3
2023-08-11T12:00	651	948	15.6	8.6	295	3
2023-08-11T12:00	674	945	15.4	8.4	302	3
2023-08-11T12:00	695	943	15.2	8.4	307	3
2023-08-11T12:00	714	941	15.0	8.4	308	3
2023-08-11T12:00	733	939	14.8	8.4	304	3
2023-08-11T12:00	754	936	14.6	8.4	297	3
2023-08-11T12:00	782	933	14.3	8.2	289	3
2023-08-11T12:00	806	931	14.0	8.1	279	3
2023-08-11T12:00	824	929	13.8	8.1	269	3
2023-08-11T12:00	841	927	13.7	8.0	261	3
2023-08-11T12:00	855	925	13.5	8.0	255	3
2023-08-11T12:00	872	923	13.4	8.1	253	3
2023-08-11T12:00	895	921	13.2	7.9	254	3
2023-08-11T12:00	921	918	13.0	7.9	256	3
2023-08-11T12:00	941	916	12.8	8.0	257	2
2023-08-11T12:00	963	913	12.6	8.0	256	2
2023-08-11T12:00	996	910	12.2	7.7	253	2
2023-08-11T12:00	1018	907	12.0	7.8	250	2
2023-08-11T12:00	1050	904	11.7	7.8	249	2
2023-08-11T12:00	1079	901	11.4	7.6	249	3
2023-08-11T12:00	1107	898	11.2	7.7	250	3
2023-08-11T12:00	1133	895	11.0	7.7	251	3
2023-08-11T12:00	1156	893	10.8	7.6	251	3
2023-08-11T12:00	1180	890	10.5	7.5	250	3
2023-08-11T12:00	1203	888	10.3	7.6	247	4
2023-08-11T12:00	1224	885	10.1	7.5	246	4
2023-08-11T12:00	1248	883	9.9	7.4	246	4
2023-08-11T12:00	1270	880	9.6	7.4	247	5
2023-08-11T12:00	1294	878	9.4	7.4	249	5
2023-08-11T12:00	1319	875	9.2	7.1	251	5
2023-08-11T12:00	1340	873	9.1	7.4	251	5
2023-08-11T12:00	1366	870	8.8	7.1	250	5
2023-08-11T12:00	1389	868	8.6	7.2	247	5
2023-08-11T12:00	1417	865	8.3	7.1	243	5
2023-08-11T12:00	1444	862	8.2	7.0	241	5
2023-08-11T12:00	1470	860	8.0	7.0	242	5
2023-08-11T12:00	1498	857	7.7	7.0	247	5
2023-08-11T12:00	1524	854	7.4	6.7	259	4
2023-08-11T12:00	1551	851	7.2	6.8	273	4
2023-08-11T12:00	1581	848	8.1	5.6	286	5
2023-08-11T12:00	1608	845	9.0	4.8	294	5
2023-08-11T12:00	1634	843	9.5	4.4	298	6
2023-08-11T12:00	1657	840	9.8	3.9	301	7
2023-08-11T12:00	1680	838	10.2	3.6	304	7
2023-08-11T12:00	1705	836	10.3		307	8
2023-08-11T12:00	1731	833	10.2	4.1	310	8
2023-08-11T12:00	1757	830	10.0	5.4	311	9
2023-08-11T12:00	1787	827	9.9	5.9	311	9
2023-08-11T12:00	1813	825	10.1	5.5	310	9
2023-08-11T12:00	1838	823	10.3	5.2	309	9
2023-08-11T12:00	1856	820	10.2	5.1	309	8
2023-08-11T12:00	1882	818	10.0	5.0	310	8
2023-08-11T12:00	1910	815	9.9	4.7	314	7
2023-08-11T12:00	1931	813	9.8	4.8	318	7
2023-08-11T12:00	1957	811	9.7	4.8	323	7
2023-08-11T12:00	1982	808	9.6	4.7	327	7
2023-08-11T12:00	2007	806	9.4	4.6	329	7
2023-08-11T12:00	2034	803	9.3	4.6	331	7
2023-08-11T12:00	2064	801	9.2	4.5	331	8
2023-08-11T12:00	2083	798	9.2	4.5	330	8
2023-08-11T12:00	2106	796	9.1	4.4	329	8
2023-08-11T12:00	2133	794	9.0	4.4	326	9
2023-08-11T12:00	2156	791	8.9	4.2	323	9
2023-08-11T12:00	2183	789	8.8	4.2	322	10
2023-08-11T12:00	2205	787	8.7	4.2	321	10
2023-08-11T12:00	2229	784	8.6	3.8	320	10
2023-08-11T12:00	2256	782	8.5	3.5	321	10
2023-08-11T12:00	2279	780	8.4	3.4	322	10
2023-08-11T12:00	2306	777	8.2	3.2	323	10
2023-08-11T12:00	2332	775	8.1	2.9	325	10
2023-08-11T12:00	2351	773	8.0	2.9	327	10
2023-08-11T12:00	2372	771	7.8	2.8	328	10
2023-08-11T12:00	2399	769	7.7	2.7	328	11
2023-08-11T12:00	2420	766	7.5	2.8	327	11
2023-08-11T12:00	2448	764	7.3	3.0	326	11
2023-08-11T12:00	2471	762	7.1	3.0	325	12
2023-08-11T12:00	2491	760	7.0	3.0	323	12
2023-08-11T12:00	2517	758	6.8	3.1	322	13
2023-08-11T12:00	2540	756	6.6	3.0	320	13
2023-08-11T12:00	2559	754	6.5	3.0	319	14
2023-08-11T12:00	2584	751	6.4	2.9	319	14
2023-08-11T12:00	2607	749	6.3	2.6	319	14
2023-08-11T12:00	2634	747	6.2	2.6	320	14
2023-08-11T12:00	2659	745	5.9	2.4	320	14
2023-08-11T12:00	2681	743	5.8	2.3	320	14
2023-08-11T12:00	2708	740	5.5	2.3	319	14
2023-08-11T12:00	2732	738	5.3	2.1	318	14
2023-08-11T12:00	2759	736	5.1	2.1	316	14
2023-08-11T12:00	2787	733	4.9	2.0	315	14
2023-08-11T12:00	2808	731	4.7	1.7	314	15
2023-08-11T12:00	2834	729	4.6	1.5	314	15
2023-08-11T12:00	2854	727	4.5	1.4	316	16
2023-08-11T12:00	2871	725	4.4	1.3	318	15
2023-08-11T12:00	2904	723	4.3	0.8	321	15
2023-08-11T12:00	2931	720	4.3	0.3	324	15
2023-08-11T12:00	2956	718	4.2	0.1	327	15
2023-08-11T12:00	2983	715	4.0	0.2	329	15
2023-08-11T12:00	3018	713	3.7	-0.3	329	15
2023-08-11T12:00	3040	711	3.8	-0.9	329	16
2023-08-11T12:00	3066	708	3.7	-2.0	328	16
2023-08-11T12:00	3088	706	3.6	-2.2	327	16
2023-08-11T12:00	3112	704	3.5	-1.6	327	16
2023-08-11T12:00	3130	703	3.4	-1.2	327	16
2023-08-11T12:00	3151	701	3.3	-1.3	328	16
2023-08-11T12:00	3171	699	3.4	-1.7	329	16
2023-08-11T12:00	3192	697	3.3	-1.9	329	16
2023-08-11T12:00	3216	695	3.2	-1.8	330	17
2023-08-11T12:00	3237	694	3.1	-2.2	330	17
2023-08-11T12:00	3262	691	3.0	-2.9	330	18
2023-08-11T12:00	3294	689	2.9	-3.0	329	18
2023-08-11T12:00	3313	687	2.8	-3.6	329	18
2023-08-11T12:00	3336	685	2.7	-5.0	330	19
2023-08-11T12:00	3356	683	2.6	-4.6	331	19
2023-08-11T12:00	3383	681	2.5	-5.3	333	19
2023-08-11T12:00	3411	679	2.3	-5.8	334	19
2023-08-11T12:00	3425	678	2.2	-5.4	334	19
2023-08-11T12:00	3448	676	2.0	-5.5	333	19
2023-08-11T12:00	3470	674	1.8	-5.5	332	19
2023-08-11T12:00	3495	672	1.6	-5.5	331	19
2023-08-11T12:00	3523	669	1.3	-5.6	331	19
2023-08-11T12:00	3548	667	1.1	-5.8	330	19
2023-08-11T12:00	3572	665	0.9	-5.9	330	19
2023-08-11T12:00	3595	663	0.7	-6.2	331	19
2023-08-11T12:00	3617	662	0.6	-6.4	331	19
2023-08-11T12:00	3636	660	0.4	-6.4	332	19
2023-08-11T12:00	3666	658	0.2	-6.5	333	18
2023-08-11T12:00	3691	656	0.0	-6.8	334	18
2023-08-11T12:00	3706	654	-0.1	-7.2	334	17
2023-08-11T12:00	3730	652	-0.3	-7.2	333	17
2023-08-11T12:00	3761	650	-0.4	-7.4	333	17
2023-08-11T12:00	3784	648	-0.4	-7.5	332	17
2023-08-11T12:00	3803	646	-0.6	-7.8	331	16
2023-08-11T12:00	3827	645	-0.8	-7.9	331	16
2023-08-11T12:00	3855	642	-0.9	-8.3	331	15
2023-08-11T12:00	3884	640	-1.1	-8.8	332	15
2023-08-11T12:00	3905	638	-1.2	-6.8	332	15
2023-08-11T12:00	3933	636	-1.3	-5.2	333	14
2023-08-11T12:00	3955	634	-1.3	-5.7	332	14
2023-08-11T12:00	3975	633	-1.3	-6.0	332	14
2023-08-11T12:00	3994	631	-1.5	-6.2	331	15
2023-08-11T12:00	4013	630	-1.6	-6.1	331	15
2023-08-11T12:00	4042	628	-1.7	-6.4	331	15
2023-08-11T12:00	4065	626	-1.9	-6.2	332	16
2023-08-11T12:00	4088	624	-2.0	-6.9	332	15
2023-08-11T12:00	4111	622	-2.2	-7.1	332	15
2023-08-11T12:00	4133	620	-2.3		331	14
2023-08-11T12:00	4161	618	-2.5	-7.5	330	14
2023-08-11T12:00	4186	616	-2.6	-7.9	327	13
2023-08-11T12:00	4217	614	-2.8	-9.0	325	13
2023-08-11T12:00	4237	612	-3.0	-8.4	324	13
2023-08-11T12:00	4267	610	-3.2	-8.0	323	13
2023-08-11T12:00	4290	608	-3.4	-8.4	324	13
2023-08-11T12:00	4304	607	-3.5	-9.6	325	13
2023-08-11T12:00	4326	605	-3.6	-9.5	327	13
2023-08-11T12:00	4356	603	-3.9	-8.4	329	13
2023-08-11T12:00	4383	601	-4.0	-8.6	330	14
2023-08-11T12:00	4400	600	-4.2	-8.4	330	14
2023-08-11T12:00	4422	598	-4.4	-8.4	329	14
2023-08-11T12:00	4447	596	-4.6	-8.5	327	14
2023-08-11T12:00	4473	594	-4.7	-9.1	325	13
2023-08-11T12:00	4491	593	-4.8	-9.1	323	13
2023-08-11T12:00	4510	591	-4.9	-9.2	322	13
2023-08-11T12:00	4537	589	-5.1	-9.2	321	14
2023-08-11T12:00	4563	587	-5.3	-9.4	321	14
2023-08-11T12:00	4594	585	-5.4	-10.0	321	15
2023-08-11T12:00	4620	583	-5.5	-10.0	322	16
2023-08-11T12:00	4643	581	-5.7	-9.9	323	16
2023-08-11T12:00	4677	579	-5.9	-11.2	324	17
2023-08-11T12:00	4695	578	-5.9	-11.0	325	17
2023-08-11T12:00	4718	576	-5.9	-12.5	325	18
2023-08-11T12:00	4747	574	-5.7	-18.2	325	18
2023-08-11T12:00	4766	572	-5.7	-18.3	326	18
2023-08-11T12:00	4788	571	-5.7	-21.0	326	18
2023-08-11T12:00	4815	569	-5.8	-20.7	328	18
2023-08-11T12:00	4838	567	-6.0	-20.5	329	18
2023-08-11T12:00	4864	565	-6.0	-20.4	331	17
2023-08-11T12:00	4894	563	-6.0	-20.9	333	17
2023-08-11T12:00	4914	562	-6.0	-19.8	334	17
2023-08-11T12:00	4932	560	-6.1	-19.9	334	17
2023-08-11T12:00	4964	558	-6.4	-20.2	334	17
2023-08-11T12:00	4994	556	-6.6	-20.6	335	17
2023-08-11T12:00	5022	554	-6.6	-20.6	335	17
2023-08-11T12:00	5036	553	-6.7	-20.8	336	17
2023-08-11T12:00	5053	552	-6.6	-20.3	336	17
2023-08-11T12:00	5071	551	-6.7	-19.5	336	17
2023-08-11T12:00	5092	549	-6.7	-25.4	335	17
2023-08-11T12:00	5118	547	-6.9	-24.7	335	17
2023-08-11T12:00	5147	545	-7.0	-24.6	335	18
2023-08-11T12:00	5165	544	-7.1	-25.3	335	17
2023-08-11T12:00	5182	543	-7.2	-25.6	335	17
2023-08-11T12:00	5202	541	-7.3	-26.3	335	16
2023-08-11T12:00	5226	540	-7.5	-26.9	335	16
2023-08-11T12:00	5255	538	-7.6	-27.5	335	15
2023-08-11T12:00	5274	536	-7.7	-27.5	334	14
2023-08-11T12:00	5299	535	-7.8	-28.1	333	14
2023-08-11T12:00	5326	533	-7.6	-29.6	330	14
2023-08-11T12:00	5350	531	-7.7	-30.3	327	14
2023-08-11T12:00	5376	529	-7.8	-30.4	325	15
2023-08-11T12:00	5393	528	-7.9	-30.5	323	15
2023-08-11T12:00	5416	527	-8.0	-30.5	322	15
2023-08-11T12:00	5441	525	-8.2	-30.4	321	15
2023-08-11T12:00	5462	523	-8.3	-29.8	320	15
2023-08-11T12:00	5488	522	-8.5	-29.1	319	15
2023-08-11T12:00	5519	520	-8.8	-28.9	318	15
2023-08-11T12:00	5539	518	-9.0	-28.5	318	15
2023-08-11T12:00	5560	517	-9.2	-27.8	319	15
2023-08-11T12:00	5591	515	-9.5	-27.4	320	15
2023-08-11T12:00	5623	513	-9.7	-28.0	322	15
2023-08-11T12:00	5641	512	-9.9	-28.1	323	15
2023-08-11T12:00	5659	510	-10.0	-28.3	322	15
2023-08-11T12:00	5681	509	-10.2	-29.0	322	15
2023-08-11T12:00	5710	507	-10.4	-30.4	322	15
2023-08-11T12:00	5742	505	-10.6	-32.0	322	16
2023-08-11T12:00	5762	504	-10.8		323	16
2023-08-11T12:00	5781	502	-10.9	-32.3	323	16
2023-08-11T12:00	5805	501	-11.1	-32.2	322	16
2023-08-11T12:00	5833	499	-11.3		321	16
2023-08-11T12:00	5866	497	-11.6	-32.4	320	16
2023-08-11T12:00	5887	495	-11.7	-32.5	320	16
2023-08-11T12:00	5904	494	-11.9	-32.5	320	16
2023-08-11T12:00	5924	493	-12.0	-32.5	321	16
2023-08-11T12:00	5956	491	-12.2	-32.8	322	16
2023-08-11T12:00	5989	489	-12.4	-33.2	323	16
2023-08-11T12:00	6007	488	-12.5	-33.5	324	15
2023-08-11T12:00	6027	486	-12.6	-33.5	324	16
2023-08-11T12:00	6048	485	-12.8	-33.6	325	16
2023-08-11T12:00	6071	484	-13.0	-33.8	326	16
2023-08-11T12:00	6104	482	-13.3	-34.1	326	16
2023-08-11T12:00	6130	480	-13.5	-35.1	327	16
2023-08-11T12:00	6146	479	-13.6	-35.7	327	15
2023-08-11T12:00	6167	477	-13.6	-35.7	326	15
2023-08-11T12:00	6195	476	-13.8	-36.1	325	15
2023-08-11T12:00	6226	474	-14.0	-36.1	324	15
2023-08-11T12:00	6266	471	-14.3	-36.2	325	15
2023-08-11T12:00	6297	470	-14.5	-36.5	326	16
2023-08-11T12:00	6314	468	-14.6	-36.6	327	16
2023-08-11T12:00	6331	467	-14.7	-36.6	327	17
2023-08-11T12:00	6351	466	-14.7	-36.6	326	17
2023-08-11T12:00	6372	465	-14.9	-36.6	325	18
2023-08-11T12:00	6404	463	-15.1	-36.9	324	19
2023-08-11T12:00	6427	461	-15.2	-37.1	323	19
2023-08-11T12:00	6455	460	-15.4	-37.5	323	19
2023-08-11T12:00	6485	458	-15.5	-37.7	324	19
2023-08-11T12:00	6510	456	-15.7	-37.5	325	19
2023-08-11T12:00	6538	455	-15.9	-37.5	326	19
2023-08-11T12:00	6562	453	-16.1	-37.4	326	19
2023-08-11T12:00	6591	452	-16.3	-37.7	327	19
2023-08-11T12:00	6621	450	-16.5	-37.8	327	18
2023-08-11T12:00	6652	448	-16.7	-38.3	326	18
2023-08-11T12:00	6684	446	-16.9	-38.5	326	18
2023-08-11T12:00	6707	445	-17.0	-38.4	325	18
2023-08-11T12:00	6732	443	-17.3	-38.5	324	18
2023-08-11T12:00	6760	442	-17.5	-38.6	323	19
2023-08-11T12:00	6786	440	-17.6	-38.1	322	19
2023-08-11T12:00	6814	438	-17.9	-37.4	321	20
2023-08-11T12:00	6851	436	-18.2	-37.1	321	20
2023-08-11T12:00	6875	435	-18.3	-37.1	321	21
2023-08-11T12:00	6901	433	-18.5	-37.2	320	21
2023-08-11T12:00	6926	432	-18.7	-37.5	320	21
2023-08-11T12:00	6944	431	-18.8	-37.3	318	21
2023-08-11T12:00	6965	429	-19.0	-37.2	317	21
2023-08-11T12:00	6988	428	-19.2	-37.0	316	22
2023-08-11T12:00	7016	427	-19.4	-37.1	315	22
2023-08-11T12:00	7044	425	-19.7	-37.6	315	22
2023-08-11T12:00	7073	423	-19.9	-37.5	315	22
2023-08-11T12:00	7103	422	-20.2	-37.7	315	21
2023-08-11T12:00	7125	420	-20.4	-37.7	316	21
2023-08-11T12:00	7147	419	-20.6	-37.7	317	20
2023-08-11T12:00	7173	418	-20.8	-37.9	319	20
2023-08-11T12:00	7204	416	-21.0	-37.8	320	19
2023-08-11T12:00	7240	414	-21.2	-38.4	322	19
2023-08-11T12:00	7263	412	-21.4	-38.7	322	19
2023-08-11T12:00	7293	411	-21.6		322	19
2023-08-11T12:00	7320	409	-21.8	-38.5	322	18
2023-08-11T12:00	7351	408	-22.1	-38.5	321	18
2023-08-11T12:00	7390	406	-22.5	-38.7	320	17
2023-08-11T12:00	7411	404	-22.7	-38.7	319	17
2023-08-11T12:00	7429	403	-22.8	-38.7	319	17
2023-08-11T12:00	7448	402	-23.0	-38.7	319	17
2023-08-11T12:00	7468	401	-23.2	-39.0	319	18
2023-08-11T12:00	7488	400	-23.3	-39.0	319	18
2023-08-11T12:00	7507	399	-23.5	-39.1	319	18
2023-08-11T12:00	7530	398	-23.7	-39.2	320	18
2023-08-11T12:00	7559	396	-24.0	-39.3	320	18
2023-08-11T12:00	7589	395	-24.2	-39.3	320	18
2023-08-11T12:00	7618	393	-24.5		320	19
2023-08-11T12:00	7650	391	-24.8	-39.5	321	19
2023-08-11T12:00	7687	390	-25.1	-39.6	321	19
2023-08-11T12:00	7702	389	-25.3	-39.8	321	19
2023-08-11T12:00	7722	387	-25.5	-39.9	321	19
2023-08-11T12:00	7742	386	-25.6	-39.7	320	18
2023-08-11T12:00	7769	385	-25.9	-40.0	319	18
2023-08-11T12:00	7799	383	-26.1	-40.8	317	17
2023-08-11T12:00	7827	382	-26.2	-42.1	315	17
2023-08-11T12:00	7848	381	-26.2	-42.9	313	18
2023-08-11T12:00	7874	379	-26.4	-43.1	312	18
2023-08-11T12:00	7902	378	-26.6	-43.2	312	19
2023-08-11T12:00	7920	377	-26.8	-43.3	312	19
2023-08-11T12:00	7938	376	-26.9	-43.7	313	19
2023-08-11T12:00	7962	375	-27.0	-43.9	313	19
2023-08-11T12:00	7990	373	-27.2	-44.2	313	19
2023-08-11T12:00	8023	372	-27.5		313	19
2023-08-11T12:00	8055	370	-27.8	-44.2	313	19
2023-08-11T12:00	8090	368	-28.0	-44.2	313	19
2023-08-11T12:00	8119	367	-28.3	-44.3	313	18
2023-08-11T12:00	8150	365	-28.5	-44.6	313	18
2023-08-11T12:00	8184	364	-28.7	-44.7	313	18
2023-08-11T12:00	8207	362	-28.9	-44.8	312	18
2023-08-11T12:00	8235	361	-29.2	-45.0	312	18
2023-08-11T12:00	8270	359	-29.4	-45.2	312	18
2023-08-11T12:00	8312	357	-29.6	-46.1	312	18
2023-08-11T12:00	8334	356	-29.6	-47.5	312	17
2023-08-11T12:00	8352	355	-29.7	-48.0	313	17
2023-08-11T12:00	8373	354	-29.8	-47.4	314	17
2023-08-11T12:00	8391	353	-29.9	-47.0	314	17
2023-08-11T12:00	8413	352	-30.1	-47.0	314	17
2023-08-11T12:00	8433	351	-30.3	-46.8	314	18
2023-08-11T12:00	8450	350	-30.5	-46.6	314	18
2023-08-11T12:00	8471	349	-30.7	-45.7	315	18
2023-08-11T12:00	8491	348	-30.9	-45.3	316	18
2023-08-11T12:00	8515	347	-31.1	-46.3	317	18
2023-08-11T12:00	8545	345	-31.4	-44.6	318	17
2023-08-11T12:00	8578	344	-31.7	-44.3	319	17
2023-08-11T12:00	8610	342	-31.9	-44.2	319	17
2023-08-11T12:00	8639	341	-32.2	-44.8	318	16
2023-08-11T12:00	8672	339	-32.5	-45.4	317	16
2023-08-11T12:00	8703	338	-32.7	-46.3	316	16
2023-08-11T12:00	8731	336	-33.0	-46.9	315	17
2023-08-11T12:00	8763	335	-33.2	-46.4	314	17
2023-08-11T12:00	8795	333	-33.5	-46.7	313	17
2023-08-11T12:00	8823	332	-33.7	-47.0	314	17
2023-08-11T12:00	8857	331	-34.0	-47.1	315	18
2023-08-11T12:00	8888	329	-34.3	-47.2	316	18
2023-08-11T12:00	8917	328	-34.5	-47.7	316	18
2023-08-11T12:00	8944	326	-34.7	-47.5	316	17
2023-08-11T12:00	8974	325	-34.9	-48.9	316	17
2023-08-11T12:00	9005	323	-35.0	-49.1	315	17
2023-08-11T12:00	9042	322	-35.1	-48.8	315	17
2023-08-11T12:00	9068	321	-35.3	-49.2	315	17
2023-08-11T12:00	9094	319	-35.5	-49.4	316	16
2023-08-11T12:00	9123	318	-35.8	-49.5	317	17
2023-08-11T12:00	9160	316	-36.1	-49.7	317	17
2023-08-11T12:00	9192	315	-36.3	-50.1	316	17
2023-08-11T12:00	9226	313	-36.5	-50.1	315	17
2023-08-11T12:00	9256	312	-36.7	-51.0	314	17
2023-08-11T12:00	9287	311	-37.0	-50.3	314	17
2023-08-11T12:00	9315	309	-37.2	-50.8	314	17
2023-08-11T12:00	9349	308	-37.2	-51.2	314	17
2023-08-11T12:00	9382	306	-37.5	-51.2	314	17
2023-08-11T12:00	9413	305	-37.6	-51.9	314	17
2023-08-11T12:00	9442	304	-37.8	-52.4	314	18
2023-08-11T12:00	9474	302	-38.1	-52.9	314	18
2023-08-11T12:00	9504	301	-38.3	-53.8	313	18
2023-08-11T12:00	9541	300	-38.6	-53.9	312	18
2023-08-11T12:00	9572	298	-38.9	-54.2	312	18
2023-08-11T12:00	9603	297	-39.2	-54.3	312	18
2023-08-11T12:00	9637	295	-39.5	-54.4	312	18
2023-08-11T12:00	9673	294	-39.8	-54.7	312	18
2023-08-11T12:00	9704	292	-40.0	-54.3	312	17
2023-08-11T12:00	9735	291	-40.2	-54.2	312	17
2023-08-11T12:00	9766	290	-40.4	-54.3	312	17
2023-08-11T12:00	9795	288	-40.5	-55.6	311	16
2023-08-11T12:00	9826	287	-40.7	-55.7	310	16
2023-08-11T12:00	9857	286	-40.8	-55.5	309	16
2023-08-11T12:00	9890	285	-40.9	-56.4	308	15
2023-08-11T12:00	9919	283	-40.9	-57.2	307	15
2023-08-11T12:00	9949	282	-41.1	-57.4	306	15
2023-08-11T12:00	9978	281	-41.3	-57.8	305	15
2023-08-11T12:00	10008	280	-41.5	-58.6	304	15
2023-08-11T12:00	10037	278	-41.7	-58.7	303	15
2023-08-11T12:00	10063	277	-41.9	-58.0	303	15
2023-08-11T12:00	10091	276	-42.1	-57.6	302	15
2023-08-11T12:00	10117	275	-42.3	-57.8	303	14
2023-08-11T12:00	10144	274	-42.5	-57.9	303	14
2023-08-11T12:00	10174	273	-42.8	-58.1	303	14
2023-08-11T12:00	10200	272	-43.0	-58.0	303	14
2023-08-11T12:00	10229	271	-43.3	-57.9	303	14
2023-08-11T12:00	10255	270	-43.5	-58.3	302	14
2023-08-11T12:00	10283	269	-43.7	-58.7	302	14
2023-08-11T12:00	10306	268	-43.9	-59.0	302	14
2023-08-11T12:00	10328	267	-44.1	-58.9	301	14
2023-08-11T12:00	10352	266	-44.3	-58.8	302	14
2023-08-11T12:00	10377	265	-44.4	-59.2	303	14
2023-08-11T12:00	10403	264	-44.6	-59.8	305	14
2023-08-11T12:00	10432	263	-44.7	-60.8	307	14
2023-08-11T12:00	10461	261	-44.9	-61.5	310	15
2023-08-11T12:00	10491	260	-45.1	-61.4	311	15
2023-08-11T12:00	10519	259	-45.4	-61.6	312	15
2023-08-11T12:00	10548	258	-45.5	-61.8	311	16
2023-08-11T12:00	10578	257	-45.7	-62.1	311	16
2023-08-11T12:00	10603	256	-45.8	-62.1	310	16
2023-08-11T12:00	10632	255	-46.0	-62.2	309	16
2023-08-11T12:00	10659	254	-46.2	-62.3	308	16
2023-08-11T12:00	10685	253	-46.3	-62.4	307	17
2023-08-11T12:00	10714	252	-46.5	-62.3	306	17
2023-08-11T12:00	10745	250	-46.7	-61.9	305	17
2023-08-11T12:00	10774	249	-46.9	-61.1	305	17
2023-08-11T12:00	10803	248	-47.2	-60.6	306	17
2023-08-11T12:00	10832	247	-47.4	-60.7	307	17
2023-08-11T12:00	10860	246	-47.6	-60.7	308	17
2023-08-11T12:00	10888	245	-47.8	-60.9	308	17
2023-08-11T12:00	10915	244	-48.0	-61.5	309	16
2023-08-11T12:00	10941	243	-48.3	-61.9	309	16
2023-08-11T12:00	10969	242	-48.5	-62.0	309	16
2023-08-11T12:00	10991	241	-48.7	-62.0	309	16
2023-08-11T12:00	11013	241	-48.8	-61.4	309	16
2023-08-11T12:00	11031	240	-48.8	-60.9	309	16
2023-08-11T12:00	11050	239	-49.1	-61.1	309	16
2023-08-11T12:00	11066	239	-49.1	-61.3	309	16
2023-08-11T12:00	11087	238	-49.1	-62.0	309	16
2023-08-11T12:00	11107	237	-49.1	-63.0	309	17
2023-08-11T12:00	11125	236	-49.2	-63.8	308	17
2023-08-11T12:00	11143	236	-49.3	-64.2	307	17
2023-08-11T12:00	11161	235	-49.3	-64.2	307	18
2023-08-11T12:00	11179	235	-49.3	-64.4	306	18
2023-08-11T12:00	11196	234	-49.3	-65.0	305	18
2023-08-11T12:00	11216	233	-49.2	-65.4	305	18
2023-08-11T12:00	11235	233	-49.2	-65.3	305	18
2023-08-11T12:00	11254	232	-49.3	-65.2	305	18
2023-08-11T12:00	11271	231	-49.3	-65.2	306	17
2023-08-11T12:00	11290	231	-49.2	-65.2	306	17
2023-08-11T12:00	11308	230	-49.2	-65.2	306	17
2023-08-11T12:00	11327	229	-49.2	-65.0	306	17
2023-08-11T12:00	11345	229	-49.2	-64.7	307	17
2023-08-11T12:00	11366	228	-49.4	-64.7	307	17
2023-08-11T12:00	11385	227	-49.5	-64.5	306	17
2023-08-11T12:00	11406	227	-49.7	-64.5	306	17
2023-08-11T12:00	11428	226	-49.9	-64.4	306	17
2023-08-11T12:00	11447	225	-50.0	-64.3	305	17
2023-08-11T12:00	11470	224	-50.2	-64.4	305	17
2023-08-11T12:00	11488	224	-50.4	-64.5	305	17
2023-08-11T12:00	11510	223	-50.5	-64.8	306	16
2023-08-11T12:00	11530	222	-50.6	-65.6	306	16
2023-08-11T12:00	11551	222	-50.7	-66.4	306	16
2023-08-11T12:00	11569	221	-50.8	-67.0	306	15
2023-08-11T12:00	11590	220	-50.9	-67.1	306	15
2023-08-11T12:00	11611	220	-50.9	-67.2	306	15
2023-08-11T12:00	11631	219	-50.9	-67.6	306	14
2023-08-11T12:00	11653	218	-50.8	-68.2	305	14
2023-08-11T12:00	11676	217	-50.8	-68.9	305	14
2023-08-11T12:00	11697	217	-50.8	-69.3	304	14
2023-08-11T12:00	11717	216	-50.8	-69.2	304	15
2023-08-11T12:00	11738	215	-50.8	-69.0	305	15
2023-08-11T12:00	11762	215	-50.9	-69.0	305	15
2023-08-11T12:00	11780	214	-51.0	-69.3	306	16
2023-08-11T12:00	11803	213	-51.0	-69.3	307	16
2023-08-11T12:00	11825	212	-51.2	-69.2	307	16
2023-08-11T12:00	11847	212	-51.3	-69.0	308	15
2023-08-11T12:00	11869	211	-51.5	-69.0	308	15
2023-08-11T12:00	11889	210	-51.6	-68.9	309	15
2023-08-11T12:00	11908	210	-51.7		310	15
2023-08-11T12:00	11930	209	-51.6	-68.9	310	14
2023-08-11T12:00	11953	208	-51.6	-69.1	310	14
2023-08-11T12:00	11973	208	-51.7	-69.2	310	14
2023-08-11T12:00	11993	207	-51.8	-69.5	310	14
2023-08-11T12:00	12016	206	-51.7	-69.9	310	14
2023-08-11T12:00	12039	206	-51.4	-70.5	310	14
2023-08-11T12:00	12059	205	-51.1	-71.1	308	14
2023-08-11T12:00	12080	204	-50.7	-71.5	307	14
2023-08-11T12:00	12101	204	-50.6	-71.8	304	15
2023-08-11T12:00	12123	203	-50.4	-71.7	303	15
2023-08-11T12:00	12143	202	-50.5	-71.7	301	15
2023-08-11T12:00	12165	202	-50.4	-71.6	301	16
2023-08-11T12:00	12185	201	-50.5	-71.6	301	16
2023-08-11T12:00	12208	200	-50.5	-71.4	301	17
2023-08-11T12:00	12227	200	-50.4	-71.6	302	17
2023-08-11T12:00	12250	199	-50.2	-71.9	303	18
2023-08-11T12:00	12273	198	-49.8	-72.4	304	18
2023-08-11T12:00	12292	198	-49.7	-72.8	305	18
2023-08-11T12:00	12312	197	-49.6	-72.7	306	18
2023-08-11T12:00	12333	196	-49.6	-72.7	306	18
2023-08-11T12:00	12355	196	-49.7	-72.8	307	18
2023-08-11T12:00	12375	195	-49.8	-72.7	308	18
2023-08-11T12:00	12396	195	-49.9	-73.0	308	18
2023-08-11T12:00	12416	194	-50.1	-73.3	308	18
2023-08-11T12:00	12434	193	-50.2	-73.4	308	18
2023-08-11T12:00	12456	193	-50.2	-73.2	308	18
2023-08-11T12:00	12477	192	-50.2	-73.2	308	17
2023-08-11T12:00	12500	192	-50.3	-73.4	307	17
2023-08-11T12:00	12520	191	-50.4	-73.7	307	17
2023-08-11T12:00	12545	190	-50.3	-73.9	306	17
2023-08-11T12:00	12563	190	-50.3	-73.9	305	16
2023-08-11T12:00	12583	189	-50.4	-73.8	304	16
2023-08-11T12:00	12603	188	-50.6	-74.0	304	16
2023-08-11T12:00	12625	188	-50.8	-74.3	303	16
2023-08-11T12:00	12647	187	-50.9	-74.4	303	17
2023-08-11T12:00	12666	187	-50.9	-74.6	302	17
2023-08-11T12:00	12685	186	-50.6	-74.7	302	17
2023-08-11T12:00	12706	186	-50.6	-75.1	302	17
2023-08-11T12:00	12728	185	-50.7	-75.4	302	17
2023-08-11T12:00	12748	184	-50.8	-75.2	301	17
2023-08-11T12:00	12768	184	-50.8	-75.4	301	17
2023-08-11T12:00	12791	183	-50.6	-75.7	301	17
2023-08-11T12:00	12811	183	-50.7	-75.8	301	17
2023-08-11T12:00	12833	182	-50.8	-75.8	302	17
2023-08-11T12:00	12857	181	-50.8	-75.8	303	16
2023-08-11T12:00	12881	181	-50.8	-76.1	306	16
2023-08-11T12:00	12906	180	-50.8	-76.1	308	15
2023-08-11T12:00	12931	179	-50.9	-76.4	311	15
2023-08-11T12:00	12952	179	-51.0	-76.2	313	15
2023-08-11T12:00	12975	178	-51.1	-76.3	314	15
2023-08-11T12:00	12994	178	-51.3	-76.5	315	16
2023-08-11T12:00	13014	177	-51.3	-76.5	314	16
2023-08-11T12:00	13034	176	-51.4	-76.8	314	16
2023-08-11T12:00	13058	176	-51.4	-76.8	314	16
2023-08-11T12:00	13076	175	-51.3	-76.9	314	17
2023-08-11T12:00	13099	175	-51.3	-77.1	314	17
2023-08-11T12:00	13118	174	-50.9	-77.1	314	17
2023-08-11T12:00	13139	174	-50.7	-76.9	315	17
2023-08-11T12:00	13161	173	-50.8	-76.8	315	18
2023-08-11T12:00	13183	172	-50.9	-76.8	316	18
2023-08-11T12:00	13202	172	-51.0	-76.9	317	18
2023-08-11T12:00	13225	171	-51.1	-77.0	318	18
2023-08-11T12:00	13245	171	-51.2	-76.8	319	18
2023-08-11T12:00	13267	170	-51.4	-77.0	320	18
2023-08-11T12:00	13289	170	-51.4	-77.0	322	18
2023-08-11T12:00	13312	169	-51.3	-76.9	323	17
2023-08-11T12:00	13334	168	-51.4	-76.8	324	17
2023-08-11T12:00	13356	168	-51.5	-76.8	325	17
2023-08-11T12:00	13379	167	-51.5	-77.1	325	17
2023-08-11T12:00	13398	167	-51.5	-77.1	326	17
2023-08-11T12:00	13420	166	-51.5	-77.1	326	16
2023-08-11T12:00	13441	166	-51.6	-77.4	326	16
2023-08-11T12:00	13465	165	-51.6	-77.4	326	16
2023-08-11T12:00	13485	165	-51.7	-77.5	327	16
2023-08-11T12:00	13508	164	-51.7	-77.5	328	16
2023-08-11T12:00	13531	163	-51.9	-77.6	329	16
2023-08-11T12:00	13554	163	-51.8	-77.5	330	16
2023-08-11T12:00	13575	162	-51.9	-77.6	330	15
2023-08-11T12:00	13600	162	-52.1	-78.0	330	15
2023-08-11T12:00	13621	161	-52.2	-78.1	329	14
2023-08-11T12:00	13643	161	-52.4	-78.2	327	14
2023-08-11T12:00	13663	160	-52.4	-78.2	325	14
2023-08-11T12:00	13691	160	-52.5	-78.3	322	14
2023-08-11T12:00	13709	159	-52.6	-78.4	320	14
2023-08-11T12:00	13730	158	-52.7		317	14
2023-08-11T12:00	13752	158	-52.7		315	14
2023-08-11T12:00	13773	157	-52.8	-78.6	314	15
2023-08-11T12:00	13795	157	-52.8	-78.6	313	15
2023-08-11T12:00	13815	156	-52.5	-78.6	313	16
2023-08-11T12:00	13836	156	-52.4	-78.5	313	16
2023-08-11T12:00	13856	155	-52.4	-78.8	313	16
2023-08-11T12:00	13877	155	-52.5	-78.8	313	17
2023-08-11T12:00	13901	154	-52.6	-79.2	312	17
2023-08-11T12:00	13922	154	-52.7	-79.0	313	17
2023-08-11T12:00	13942	153	-52.8	-79.1	313	17
2023-08-11T12:00	13961	153	-52.9	-79.1	315	17
2023-08-11T12:00	13980	152	-53.0	-79.2	317	17
2023-08-11T12:00	14002	152	-53.0	-79.5	319	17
2023-08-11T12:00	14023	151	-53.0	-79.5	321	17
2023-08-11T12:00	14042	151	-53.0	-79.8	322	17
2023-08-11T12:00	14063	151	-53.0	-79.8	323	17
2023-08-11T12:00	14082	150	-53.1	-79.9	324	16
2023-08-11T12:00	14100	150	-53.2	-79.9	324	16
2023-08-11T12:00	14122	149	-53.3	-79.7	324	16
2023-08-11T12:00	14144	149	-53.3	-79.7	324	16
2023-08-11T12:00	14164	148	-53.3	-79.7	325	15
2023-08-11T12:00	14186	148	-53.3	-79.7	326	15
2023-08-11T12:00	14211	147	-53.3	-79.7	328	14
2023-08-11T12:00	14234	147	-53.1	-79.6	329	14
2023-08-11T12:00	14254	146	-53.0	-79.8	329	14
2023-08-11T12:00	14279	146	-53.2	-79.9	329	13
2023-08-11T12:00	14304	145	-53.3	-80.0	330	13
2023-08-11T12:00	14331	144	-53.5	-79.9	330	13
2023-08-11T12:00	14353	144	-53.8	-79.8	331	13
2023-08-11T12:00	14376	143	-54.1	-79.8	331	13
2023-08-11T12:00	14397	143	-54.2	-79.9	332	13
2023-08-11T12:00	14420	142	-54.4	-80.1	332	13
2023-08-11T12:00	14442	142	-54.4	-80.1	333	13
2023-08-11T12:00	14466	141	-54.4	-80.3	332	13
2023-08-11T12:00	14492	141	-54.4	-80.3	332	13
2023-08-11T12:00	14514	140	-54.4	-80.3	331	13
2023-08-11T12:00	14535	140	-54.5	-80.4	330	13
2023-08-11T12:00	14557	139	-54.6	-80.5	329	12
2023-08-11T12:00	14583	139	-54.6	-80.5	328	12
2023-08-11T12:00	14608	138	-54.7	-80.6	327	12
2023-08-11T12:00	14631	138	-54.6	-80.7	325	12
2023-08-11T12:00	14654	137	-54.6	-80.7	323	12
2023-08-11T12:00	14679	137	-54.6	-80.7	322	13
2023-08-11T12:00	14700	136	-54.6	-80.7	320	13
2023-08-11T12:00	14725	136	-54.7	-81.1	320	13
2023-08-11T12:00	14746	135	-54.7	-81.1	321	13
2023-08-11T12:00	14771	135	-54.7	-81.1	323	13
2023-08-11T12:00	14800	134	-54.7	-81.1	327	12
2023-08-11T12:00	14823	134	-54.5	-80.9	330	12
2023-08-11T12:00	14847	133	-54.4	-81.2	333	12
2023-08-11T12:00	14869	133	-54.3	-81.1	335	11
2023-08-11T12:00	14895	132	-54.6	-81.3	335	11
2023-08-11T12:00	14918	132	-54.6	-81.3	335	11
2023-08-11T12:00	14939	131	-54.7	-81.4	333	10
2023-08-11T12:00	14965	131	-54.9	-81.5	331	10
2023-08-11T12:00	14988	130	-55.0	-81.3	329	10
2023-08-11T12:00	15010	130	-55.1	-81.4	327	10
2023-08-11T12:00	15034	129	-55.2	-81.5	325	10
2023-08-11T12:00	15055	129	-55.3	-81.9	323	10
2023-08-11T12:00	15077	128	-55.4	-81.9	320	10
2023-08-11T12:00	15103	128	-55.3	-82.2	318	9
2023-08-11T12:00	15124	128	-55.1	-82.0	314	9
2023-08-11T12:00	15149	127	-55.1	-82.3	311	9
2023-08-11T12:00	15167	127	-55.1	-82.3	307	9
2023-08-11T12:00	15189	126	-55.1	-82.3	304	9
2023-08-11T12:00	15211	126	-55.2	-82.4	301	9
2023-08-11T12:00	15231	125	-55.2	-82.4	299	10
2023-08-11T12:00	15253	125	-55.1	-82.3	297	10
2023-08-11T12:00	15275	125	-55.0	-82.3	295	10
2023-08-11T12:00	15297	124	-55.0	-82.3	294	11
2023-08-11T12:00	15320	124	-55.0	-82.3	295	11
2023-08-11T12:00	15342	123	-55.0	-82.3	297	11
2023-08-11T12:00	15365	123	-54.8	-82.1	300	11
2023-08-11T12:00	15388	122	-54.6	-81.9	304	11
2023-08-11T12:00	15411	122	-54.6	-81.9	308	11
2023-08-11T12:00	15433	122	-54.6	-82.3	312	11
2023-08-11T12:00	15457	121	-54.6	-82.3	316	11
2023-08-11T12:00	15478	121	-54.7	-82.4	318	10
2023-08-11T12:00	15502	120	-54.7	-82.4	320	10
2023-08-11T12:00	15523	120	-54.7	-82.4	320	9
2023-08-11T12:00	15545	119	-54.5	-82.2	320	9
2023-08-11T12:00	15567	119	-54.3	-82.1	318	8
2023-08-11T12:00	15586	119	-54.2	-82.0	315	8
2023-08-11T12:00	15612	118	-54.3	-82.1	311	7
2023-08-11T12:00	15632	118	-54.4	-82.1	307	7
2023-08-11T12:00	15657	117	-54.4	-82.1	303	7
2023-08-11T12:00	15680	117	-54.6	-82.3	298	7
2023-08-11T12:00	15704	116	-54.7	-82.4	293	7
2023-08-11T12:00	15726	116	-54.9	-82.5	289	7
2023-08-11T12:00	15746	116	-54.9	-82.5	286	8
2023-08-11T12:00	15770	115	-55.0	-82.6	284	8
2023-08-11T12:00	15790	115	-54.9	-82.5	285	8
2023-08-11T12:00	15811	115	-54.8	-82.4	287	8
2023-08-11T12:00	15836	114	-54.7	-82.4	291	8
2023-08-11T12:00	15858	114	-54.7	-82.4	296	8
2023-08-11T12:00	15882	113	-54.7	-82.4	301	8
2023-08-11T12:00	15906	113	-54.7	-82.7	307	8
2023-08-11T12:00	15928	112	-54.6	-82.6	311	8
2023-08-11T12:00	15948	112	-54.5	-82.6	315	7
2023-08-11T12:00	15971	112	-54.3	-82.4	319	7
2023-08-11T12:00	15994	111	-54.3	-82.4	323	7
2023-08-11T12:00	16013	111	-54.4	-82.5	327	7
2023-08-11T12:00	16035	111	-54.5	-82.2	331	7
2023-08-11T12:00	16059	110	-54.6	-82.3	334	7
2023-08-11T12:00	16080	110	-54.7	-82.4	335	7
2023-08-11T12:00	16101	109	-54.8	-82.4	337	7
2023-08-11T12:00	16125	109	-55.0	-82.3	337	7
2023-08-11T12:00	16147	109	-55.2	-82.4	338	6
2023-08-11T12:00	16168	108	-55.2	-82.4	339	6
2023-08-11T12:00	16193	108	-55.3	-82.5	339	5
2023-08-11T12:00	16213	108	-55.4	-82.6	338	5
2023-08-11T12:00	16238	107	-55.4	-82.6	334	4
2023-08-11T12:00	16256	107	-55.5	-82.3	330	4
2023-08-11T12:00	16276	106	-55.6	-82.4	323	4
2023-08-11T12:00	16302	106	-55.7	-82.5	315	3
2023-08-11T12:00	16324	106	-55.9	-82.6	306	3
2023-08-11T12:00	16344	105	-55.8	-82.5	297	3
2023-08-11T12:00	16365	105	-55.7	-82.8	290	3
2023-08-11T12:00	16385	105	-55.8	-82.9	285	3
2023-08-11T12:00	16408	104	-55.8	-82.9	285	3
2023-08-11T12:00	16428	104	-55.8	-82.9	286	4
2023-08-11T12:00	16450	104	-55.6	-82.7	289	4
2023-08-11T12:00	16468	103	-55.5	-82.6	292	4
2023-08-11T12:00	16493	103	-55.6	-83.1	295	4
2023-08-11T12:00	16516	103	-55.5	-83.0	297	4
2023-08-11T12:00	16537	102	-55.3	-82.8	298	4
2023-08-11T12:00	16559	102	-55.2	-83.1	299	4
2023-08-11T12:00	16582	102	-55.1	-83.0	299	4
2023-08-11T12:00	16606	101	-54.9	-82.9	298	4
2023-08-11T12:00	16628	101	-54.9	-82.5	297	4
2023-08-11T12:00	16649	100	-55.0	-82.6	296	4
2023-08-11T12:00	16671	100	-54.9	-82.5	294	4
2023-08-11T12:00	16692	100	-54.6	-82.6	292	4
2023-08-11T12:00	16716	99	-54.6	-82.6	291	5
2023-08-11T12:00	16737	99	-54.6	-82.6	290	5
2023-08-11T12:00	16759	99	-54.4	-82.5	290	5
2023-08-11T12:00	16783	98	-54.1	-82.3	290	5
2023-08-11T12:00	16807	98	-54.1	-82.3	289	5
2023-08-11T12:00	16828	98	-54.0	-82.2	287	4
2023-08-11T12:00	16853	97	-54.0	-82.2	282	4
2023-08-11T12:00	16874	97	-54.0	-82.2	277	4
2023-08-11T12:00	16898	97	-54.2	-82.3	271	4
2023-08-11T12:00	16923	96	-54.1	-82.3	267	5
2023-08-11T12:00	16948	96	-54.0	-82.2	264	5
2023-08-11T12:00	16970	96	-54.1	-82.3	262	5
2023-08-11T12:00	16994	95	-54.3	-82.4	261	6
2023-08-11T12:00	17019	95	-54.4	-82.1	261	6
2023-08-11T12:00	17042	94	-54.6	-82.3	262	6
2023-08-11T12:00	17067	94	-54.8	-82.4	264	7
2023-08-11T12:00	17091	94	-55.0	-82.3	265	7
2023-08-11T12:00	17114	93	-55.2	-82.4	268	7
2023-08-11T12:00	17137	93	-55.2	-82.7	270	7
2023-08-11T12:00	17165	93	-55.3	-82.8	273	7
2023-08-11T12:00	17188	92	-55.3	-82.8	276	7
2023-08-11T12:00	17210	92	-55.3	-82.8	280	6
2023-08-11T12:00	17231	92	-55.4	-82.9	285	6
2023-08-11T12:00	17257	91	-55.5	-83.0	290	5
2023-08-11T12:00	17282	91	-55.4	-82.9	296	5
2023-08-11T12:00	17307	91	-55.4	-82.9	302	4
2023-08-11T12:00	17329	90	-55.5	-83.0	307	4
2023-08-11T12:00	17352	90	-55.6	-83.1	311	4
2023-08-11T12:00	17377	90	-55.6	-83.1	312	4
2023-08-11T12:00	17402	89	-55.6	-83.1	311	4
2023-08-11T12:00	17424	89	-55.5	-83.0	308	4
2023-08-11T12:00	17447	89	-55.7	-82.8	306	5
2023-08-11T12:00	17471	88	-55.9	-82.9	306	5
2023-08-11T12:00	17494	88	-55.9	-82.9	306	5
2023-08-11T12:00	17513	88	-56.0	-83.0	308	5
2023-08-11T12:00	17539	87	-56.1	-83.1	310	4
2023-08-11T12:00	17561	87	-56.2	-83.2	313	4
2023-08-11T12:00	17582	87	-56.2	-83.2	316	4
2023-08-11T12:00	17608	86	-56.3	-83.3	320	3
2023-08-11T12:00	17629	86	-56.3	-83.3	323	3
2023-08-11T12:00	17653	86	-56.4	-83.3	327	3
2023-08-11T12:00	17671	86	-56.5	-83.4	330	3
2023-08-11T12:00	17695	85	-56.5	-83.4	335	3
2023-08-11T12:00	17715	85	-56.6	-83.5	338	3
2023-08-11T12:00	17738	85	-56.6	-83.5	340	3
2023-08-11T12:00	17759	84	-56.6	-83.5	338	3
2023-08-11T12:00	17778	84	-56.8	-83.6	333	4
2023-08-11T12:00	17797	84	-56.8	-83.6	329	4
2023-08-11T12:00	17819	84	-56.6	-83.8	328	5
2023-08-11T12:00	17843	83	-56.5	-83.7	329	5
2023-08-11T12:00	17865	83	-56.2	-83.9	332	5
2023-08-11T12:00	17883	83	-55.7	-83.5	336	4
2023-08-11T12:00	17901	83	-55.2	-83.5	338	4
2023-08-11T12:00	17925	82	-55.1	-83.4	336	3
2023-08-11T12:00	17948	82	-55.1	-83.8	330	3
2023-08-11T12:00	17968	82	-54.9	-83.7	321	3
2023-08-11T12:00	17992	81	-54.6	-83.4	312	3
2023-08-11T12:00	18013	81	-54.3	-83.2	304	2
2023-08-11T12:00	18037	81	-54.2	-83.1	296	2
2023-08-11T12:00	18057	81	-54.0	-83.0	287	2
2023-08-11T12:00	18084	80	-53.8	-82.8	274	2
2023-08-11T12:00	18105	80	-53.8	-82.8	260	2
2023-08-11T12:00	18128	80	-53.6	-82.7	247	2
2023-08-11T12:00	18153	79	-53.8	-82.8	241	2
2023-08-11T12:00	18174	79	-54.0	-82.6	240	2
2023-08-11T12:00	18201	79	-54.1	-82.6	245	2
2023-08-11T12:00	18225	78	-54.1	-82.6	254	2
2023-08-11T12:00	18253	78	-54.2	-82.7	269	2
2023-08-11T12:00	18277	78	-54.3	-82.8	290	2
2023-08-11T12:00	18302	78	-54.5	-82.9	312	2
2023-08-11T12:00	18327	77	-54.6	-83.0	329	2
2023-08-11T12:00	18355	77	-54.7	-83.1	340	3
2023-08-11T12:00	18380	77	-54.6	-83.0	346	3
2023-08-11T12:00	18405	76	-54.4	-82.9	351	4
2023-08-11T12:00	18434	76	-54.3	-82.8	355	4
2023-08-11T12:00	18459	76	-54.4	-83.3	1	4
2023-08-11T12:00	18488	75	-54.4	-83.3	8	4
2023-08-11T12:00	18513	75	-54.1	-83.1	16	3
2023-08-11T12:00	18538	75	-54.0	-83.0	26	3
2023-08-11T12:00	18563	74	-54.1	-83.1	36	2
2023-08-11T12:00	18591	74	-54.2	-83.1	47	2
2023-08-11T12:00	18612	74	-54.2	-82.7	60	2
2023-08-11T12:00	18639	74	-54.2	-82.7	73	1
2023-08-11T12:00	18664	73	-54.4	-82.9	84	1
2023-08-11T12:00	18691	73	-54.5	-82.9	88	1
2023-08-11T12:00	18715	73	-54.5	-82.9	83	1
2023-08-11T12:00	18737	72	-54.5	-82.9	73	1
2023-08-11T12:00	18763	72	-54.7	-83.1	65	1
2023-08-11T12:00	18785	72	-54.8	-83.2	60	2
2023-08-11T12:00	18808	72	-54.9	-83.3	57	2
2023-08-11T12:00	18833	71	-54.8	-83.2	54	2
2023-08-11T12:00	18855	71	-54.5	-82.9	50	2
2023-08-11T12:00	18879	71	-54.4	-83.3	46	2
2023-08-11T12:00	18900	71	-54.5	-83.4	44	2
2023-08-11T12:00	18923	70	-54.4	-83.3	44	2
2023-08-11T12:00	18950	70	-54.1	-83.1	46	2
2023-08-11T12:00	18974	70	-54.1	-83.1	51	3
2023-08-11T12:00	18995	70	-54.2	-83.1	57	3
2023-08-11T12:00	19021	69	-54.3	-83.2	65	3
2023-08-11T12:00	19042	69	-54.3	-83.2	73	3
2023-08-11T12:00	19065	69	-54.2	-83.1	81	3
2023-08-11T12:00	19088	69	-54.1	-83.1	90	3
2023-08-11T12:00	19110	68	-53.9	-82.9	99	3
2023-08-11T12:00	19135	68	-53.9	-82.9	110	3
2023-08-11T12:00	19158	68	-53.9	-82.9	121	3
2023-08-11T12:00	19179	68	-54.0	-83.0	132	3
2023-08-11T12:00	19208	67	-54.2	-83.1	144	3
2023-08-11T12:00	19225	67	-54.3	-82.8	155	3
2023-08-11T12:00	19253	67	-54.4	-82.9	163	3
2023-08-11T12:00	19272	67	-54.5	-82.9	170	4
2023-08-11T12:00	19296	66	-54.6	-83.0	176	4
2023-08-11T12:00	19324	66	-54.6	-83.0	180	4
2023-08-11T12:00	19343	66	-54.6	-83.0	184	3
2023-08-11T12:00	19367	66	-54.6	-83.0	187	3
2023-08-11T12:00	19392	65	-54.7	-83.1	187	3
2023-08-11T12:00	19413	65	-54.8	-83.2	183	2
2023-08-11T12:00	19443	65	-54.7	-83.1	169	2
2023-08-11T12:00	19465	65	-54.6	-83.0	142	1
2023-08-11T12:00	19489	64	-54.6	-83.4	116	2
2023-08-11T12:00	19514	64	-54.6	-83.0	102	2
2023-08-11T12:00	19538	64	-54.7	-83.1	96	3
2023-08-11T12:00	19567	64	-54.8	-83.2	93	4
2023-08-11T12:00	19590	63	-54.9	-83.3	93	4
2023-08-11T12:00	19613	63	-55.0		93	5
2023-08-11T12:00	19639	63	-54.9	-83.3	95	5
2023-08-11T12:00	19661	63	-54.8	-83.6	97	5
2023-08-11T12:00	19689	62	-54.7	-83.5	99	5
2023-08-11T12:00	19719	62	-54.6	-83.4	103	4
2023-08-11T12:00	19740	62	-54.5	-83.4	107	4
2023-08-11T12:00	19764	62	-54.3	-83.2	111	4
2023-08-11T12:00	19786	62	-54.2	-83.1	114	3
2023-08-11T12:00	19814	61	-54.1	-83.5	115	3
2023-08-11T12:00	19840	61	-54.1	-83.5	114	3
2023-08-11T12:00	19863	61	-54.0	-83.4	112	3
2023-08-11T12:00	19888	61	-53.8	-83.3	109	4
2023-08-11T12:00	19913	60	-53.8	-82.8	105	4
2023-08-11T12:00	19944	60	-53.9	-82.9	100	4
2023-08-11T12:00	19967	60	-53.9	-82.9	95	4
2023-08-11T12:00	19992	60	-53.9	-82.9	89	4
2023-08-11T12:00	20012	59	-53.9	-82.9	82	4
2023-08-11T12:00	20045	59	-53.8	-82.8	75	5
2023-08-11T12:00	20070	59	-53.9	-82.9	67	5
2023-08-11T12:00	20097	59	-53.9	-82.9	61	5
2023-08-11T12:00	20119	58	-53.8	-82.8	57	5
2023-08-11T12:00	20146	58	-53.8	-82.8	54	5
2023-08-11T12:00	20169	58	-53.8	-82.8	55	5
2023-08-11T12:00	20196	58	-53.8	-82.8	58	5
2023-08-11T12:00	20217	58	-53.7	-83.2	63	5
2023-08-11T12:00	20243	57	-53.5	-83.0	68	5
2023-08-11T12:00	20274	57	-53.4	-83.0	72	5
2023-08-11T12:00	20297	57	-53.3	-82.9	74	5
2023-08-11T12:00	20319	57	-53.3	-82.9	74	5
2023-08-11T12:00	20345	56	-53.3	-82.9	74	5
2023-08-11T12:00	20372	56	-53.3	-82.9	74	5
2023-08-11T12:00	20392	56	-53.3	-82.9	77	5
2023-08-11T12:00	20416	56	-53.3	-82.9	80	5
2023-08-11T12:00	20446	56	-53.2	-82.8	82	5
2023-08-11T12:00	20469	55	-53.2	-82.8	84	5
2023-08-11T12:00	20494	55	-53.3	-82.5	85	5
2023-08-11T12:00	20516	55	-53.4	-82.5	83	5
2023-08-11T12:00	20545	55	-53.4	-83.0	81	5
2023-08-11T12:00	20568	54	-53.3	-82.9	78	5
2023-08-11T12:00	20592	54	-53.3	-82.9	73	5
2023-08-11T12:00	20619	54	-53.2	-82.8	69	6
2023-08-11T12:00	20640	54	-53.0	-82.7	66	6
2023-08-11T12:00	20666	54	-52.8	-82.5	65	6
2023-08-11T12:00	20696	53	-52.8	-82.5	65	7
2023-08-11T12:00	20715	53	-53.0	-82.7	67	7
2023-08-11T12:00	20741	53	-53.2	-82.8	71	7
2023-08-11T12:00	20770	53	-53.2	-82.8	74	7
2023-08-11T12:00	20796	53	-53.1	-82.7	77	7
2023-08-11T12:00	20817	52	-53.0	-82.7	80	7
2023-08-11T12:00	20847	52	-52.9	-82.6	83	8
2023-08-11T12:00	20871	52	-53.0	-82.7	85	8
2023-08-11T12:00	20896	52	-52.9	-82.6	87	8
2023-08-11T12:00	20924	52	-52.8	-82.5	88	8
2023-08-11T12:00	20951	51	-52.7	-82.4	89	9
2023-08-11T12:00	20980	51	-52.6	-82.4	90	9
2023-08-11T12:00	21003	51	-52.6	-82.4	91	9
2023-08-11T12:00	21033	51	-52.7	-82.4	93	9
2023-08-11T12:00	21057	51	-52.6	-82.4	95	9
2023-08-11T12:00	21080	50	-52.6	-82.4	97	9
2023-08-11T12:00	21103	50	-52.5	-82.3	99	9
2023-08-11T12:00	21129	50	-52.4	-82.2	101	8
2023-08-11T12:00	21153	50	-52.5	-82.3	103	8
2023-08-11T12:00	21185	50	-52.4	-82.2	106	7
2023-08-11T12:00	21208	49	-52.4	-82.2	110	7
2023-08-11T12:00	21232	49	-52.3	-82.1	115	6
2023-08-11T12:00	21264	49	-52.1	-82.0	121	6
2023-08-11T12:00	21290	49	-52.1	-82.0	126	6
2023-08-11T12:00	21315	49	-52.1	-82.0	130	5
2023-08-11T12:00	21342	48	-52.1	-82.0	134	5
2023-08-11T12:00	21369	48	-52.2	-82.1	137	5
2023-08-11T12:00	21394	48	-52.3	-82.1	138	5
2023-08-11T12:00	21423	48	-52.4	-82.2	137	5
2023-08-11T12:00	21446	48	-52.5	-82.3	136	5
2023-08-11T12:00	21467	47	-52.6	-82.4	134	5
2023-08-11T12:00	21489	47	-52.5	-82.3	131	5
2023-08-11T12:00	21516	47	-52.4	-82.2	130	5
2023-08-11T12:00	21541	47	-52.3	-82.1	130	5
2023-08-11T12:00	21568	47	-52.3	-82.6	132	5
2023-08-11T12:00	21594	46	-52.2	-82.5	136	5
2023-08-11T12:00	21618	46	-52.0	-82.4	142	5
2023-08-11T12:00	21648	46	-52.0	-81.9	148	6
2023-08-11T12:00	21672	46	-52.2	-82.1	153	6
2023-08-11T12:00	21697	46	-52.2	-82.1	159	6
2023-08-11T12:00	21719	46	-52.2	-82.1	165	6
2023-08-11T12:00	21746	45	-52.2	-82.1	172	6
2023-08-11T12:00	21766	45	-52.3	-82.1	178	6
2023-08-11T12:00	21793	45	-52.4	-82.2	184	6
2023-08-11T12:00	21825	45	-52.4	-82.2	189	6
2023-08-11T12:00	21843	45	-52.4	-82.2	193	5
2023-08-11T12:00	21869	45	-52.3	-82.1	195	5
2023-08-11T12:00	21892	44	-52.3	-82.1	196	5
2023-08-11T12:00	21920	44	-52.5	-82.3	195	5
2023-08-11T12:00	21945	44	-52.6	-82.4	193	4
2023-08-11T12:00	21969	44	-52.7	-82.4	188	4
2023-08-11T12:00	22001	44	-52.7	-82.4	180	3
2023-08-11T12:00	22025	43	-52.8	-82.5	169	3
2023-08-11T12:00	22049	43	-52.9	-82.1	156	3
2023-08-11T12:00	22077	43	-53.1	-82.3	146	3
2023-08-11T12:00	22107	43	-53.2	-82.4	140	3
2023-08-11T12:00	22132	43	-53.3	-82.5	139	4
2023-08-11T12:00	22156	43	-53.4	-82.5	139	4
2023-08-11T12:00	22186	42	-53.5	-82.6	140	4
2023-08-11T12:00	22212	42	-53.6	-82.7	141	5
2023-08-11T12:00	22238	42	-53.7	-82.8	142	5
2023-08-11T12:00	22268	42	-53.8	-82.8	141	5
2023-08-11T12:00	22298	42	-53.8	-82.8	140	5
2023-08-11T12:00	22312	42	-53.8	-82.8	138	5
2023-08-11T12:00	22345	41	-53.7	-82.8	137	6
2023-08-11T12:00	22374	41	-53.6	-83.1	137	6
2023-08-11T12:00	22406	41	-53.6	-83.1	138	6
2023-08-11T12:00	22426	41	-53.7	-83.2	138	6
2023-08-11T12:00	22457	41	-53.8	-83.3	139	6
2023-08-11T12:00	22483	40	-53.7	-83.2	138	5
2023-08-11T12:00	22505	40	-53.4	-83.0	136	4
2023-08-11T12:00	22537	40	-53.4	-83.0	132	4
2023-08-11T12:00	22567	40	-53.4	-83.0	125	3
2023-08-11T12:00	22596	40	-53.3	-82.9	117	3
2023-08-11T12:00	22623	40	-53.3	-82.9	109	3
2023-08-11T12:00	22652	39	-53.3	-82.9	102	3
2023-08-11T12:00	22680	39	-53.3	-82.9	96	3
2023-08-11T12:00	22708	39	-53.4	-83.0	90	3
2023-08-11T12:00	22734	39	-53.6	-82.7	83	3
2023-08-11T12:00	22761	39	-53.6	-82.7	73	2
2023-08-11T12:00	22786	39	-53.6	-82.7	61	2
2023-08-11T12:00	22814	38	-53.7	-82.8	51	2
2023-08-11T12:00	22844	38	-53.6	-82.7	46	3
2023-08-11T12:00	22876	38	-53.6	-82.7	48	3
2023-08-11T12:00	22895	38	-53.6	-82.7	55	3
2023-08-11T12:00	22921	38	-53.8	-83.3	65	4
2023-08-11T12:00	22955	38	-53.8	-83.3	75	4
2023-08-11T12:00	22983	37	-53.6	-83.1	83	5
2023-08-11T12:00	23008	37	-53.4	-83.0	88	5
2023-08-11T12:00	23033	37	-53.4	-83.0	91	6
2023-08-11T12:00	23053	37	-53.5	-83.0	92	7
2023-08-11T12:00	23088	37	-53.6	-83.1	91	7
2023-08-11T12:00	23114	37	-53.8	-82.8	91	8
2023-08-11T12:00	23140	37	-53.9	-82.9	90	8
2023-08-11T12:00	23176	36	-53.8	-82.8	89	8
2023-08-11T12:00	23207	36	-53.8	-83.3	90	9
2023-08-11T12:00	23223	36	-53.8	-83.3	91	9
2023-08-11T12:00	23254	36	-53.5	-83.0	93	8
2023-08-11T12:00	23279	36	-53.3	-82.9	96	8
2023-08-11T12:00	23303	36	-53.3	-82.9	99	8
2023-08-11T12:00	23327	36	-53.2	-82.8	103	9
2023-08-11T12:00	23360	35	-53.2	-82.8	106	9
2023-08-11T12:00	23383	35	-53.2	-82.8	109	9
2023-08-11T12:00	23408	35	-53.2	-82.8	112	9
2023-08-11T12:00	23431	35	-53.3	-82.9	115	9
2023-08-11T12:00	23458	35	-53.3	-82.9	117	9
2023-08-11T12:00	23483	35	-53.2	-82.8	119	9
2023-08-11T12:00	23504	35	-53.0	-82.7	120	8
2023-08-11T12:00	23541	34	-53.0	-82.7	120	8
2023-08-11T12:00	23562	34	-53.0	-83.1	120	7
2023-08-11T12:00	23592	34	-53.0	-83.1	121	7
2023-08-11T12:00	23610	34	-52.9	-83.1	121	6
2023-08-11T12:00	23636	34	-52.6	-82.8	122	6
2023-08-11T12:00	23660	34	-52.4	-82.7	123	6
2023-08-11T12:00	23689	34	-52.3	-82.6	124	6
2023-08-11T12:00	23716	33	-52.2	-82.5	126	6
2023-08-11T12:00	23742	33	-52.2	-82.5	126	6
2023-08-11T12:00	23768	33	-52.2	-82.5	126	6
2023-08-11T12:00	23795	33	-52.2	-82.5	125	6
2023-08-11T12:00	23827	33	-52.1	-82.5	123	6
2023-08-11T12:00	23845	33	-51.9	-82.3	122	6
2023-08-11T12:00	23875	33	-51.8	-82.2	121	6
2023-08-11T12:00	23902	32	-51.9	-82.3	122	6
2023-08-11T12:00	23928	32	-51.9	-82.3	124	7
2023-08-11T12:00	23957	32	-51.8	-82.2	126	7
2023-08-11T12:00	23982	32	-51.9	-82.3	129	7
2023-08-11T12:00	24013	32	-52.0	-82.4	130	7
2023-08-11T12:00	24030	32	-52.0	-82.4	129	7
2023-08-11T12:00	24060	32	-52.1	-82.5	127	6
2023-08-11T12:00	24082	32	-52.0	-82.4	124	6
2023-08-11T12:00	24112	31	-51.9	-82.3	118	6
2023-08-11T12:00	24128	31	-51.8	-82.2	112	5
2023-08-11T12:00	24161	31	-51.8	-82.2	105	5
2023-08-11T12:00	24189	31	-51.9	-82.3	99	5
2023-08-11T12:00	24211	31	-51.9	-82.3	92	5
2023-08-11T12:00	24249	31	-51.9	-82.3	87	5
2023-08-11T12:00	24269	31	-51.9	-82.3	83	6
2023-08-11T12:00	24299	31	-51.9	-82.3	82	6
2023-08-11T12:00	24327	30	-51.9	-82.3	83	7
2023-08-11T12:00	24350	30	-51.7	-82.2	85	7
2023-08-11T12:00	24376	30	-51.5	-82.0	87	8
2023-08-11T12:00	24402	30	-51.5	-82.0	89	8
2023-08-11T12:00	24436	30	-51.6	-82.1	91	8
2023-08-11T12:00	24457	30	-51.6	-82.1	91	8
2023-08-11T12:00	24485	30	-51.6	-82.1	91	8
2023-08-11T12:00	24523	30	-51.6	-82.1	91	8
2023-08-11T12:00	24545	29	-51.5	-82.0	89	8
2023-08-11T12:00	24574	29	-51.3	-82.4	87	7
2023-08-11T12:00	24601	29	-51.2	-82.3	85	7
2023-08-11T12:00	24614	29	-51.0	-82.2	84	7
2023-08-11T12:00	24646	29	-51.0	-82.2	85	8
2023-08-11T12:00	24683	29	-51.0	-82.2	86	8
2023-08-11T12:00	24702	29	-50.9	-82.1	88	9
2023-08-11T12:00	24734	29	-50.8	-82.0	90	9
2023-08-11T12:00	24759	28	-50.7		91	10
2023-08-11T12:00	24790	28	-50.7		91	10
2023-08-11T12:00	24816	28	-50.6	-81.9	91	10
2023-08-11T12:00	24850	28	-50.6	-81.9	91	9
2023-08-11T12:00	24874	28	-50.5	-81.8	92	9
2023-08-11T12:00	24892	28	-50.4	-81.7	94	9
2023-08-11T12:00	24922	28	-50.3	-81.6	97	9
2023-08-11T12:00	24953	28	-50.4	-81.7	99	9
2023-08-11T12:00	24980	28	-50.5	-81.8	102	9
2023-08-11T12:00	25008	27	-50.6	-81.9	103	9
2023-08-11T12:00	25034	27	-50.7		105	9
2023-08-11T12:00	25064	27	-50.7		106	9
2023-08-11T12:00	25095	27	-50.6	-81.9	106	9
2023-08-11T12:00	25116	27	-50.6	-81.9	107	9
2023-08-11T12:00	25145	27	-50.6	-81.9	107	8
2023-08-11T12:00	25178	27	-50.6	-81.9	107	8
2023-08-11T12:00	25211	27	-50.7		109	8
2023-08-11T12:00	25238	26	-50.8	-82.0	111	8
2023-08-11T12:00	25260	26	-50.7		116	8
2023-08-11T12:00	25291	26	-50.6	-81.9	121	8
2023-08-11T12:00	25312	26	-50.5	-81.8	126	7
2023-08-11T12:00	25357	26	-50.6	-81.9	131	7
2023-08-11T12:00	25373	26	-50.7		134	7
2023-08-11T12:00	25403	26	-50.8	-82.0	136	6
2023-08-11T12:00	25430	26	-50.7		138	6
2023-08-11T12:00	25454	26	-50.5	-81.8	140	6
2023-08-11T12:00	25489	25	-50.3	-81.6	143	6
2023-08-11T12:00	25508	25	-49.9	-81.9	148	6
2023-08-11T12:00	25543	25	-49.7	-81.8	153	6
2023-08-11T12:00	25562	25	-49.6	-81.7	157	6
2023-08-11T12:00	25598	25	-49.6	-81.7	160	5
2023-08-11T12:00	25624	25	-49.5	-81.6	162	5
2023-08-11T12:00	25654	25	-49.1	-81.3	161	4
2023-08-11T12:00	25676	25	-48.9	-81.2	159	4
2023-08-11T12:00	25708	25	-48.8		155	3
2023-08-11T12:00	25738	25	-48.8		149	3
2023-08-11T12:00	25757	24	-48.7	-81.0	143	3
2023-08-11T12:00	25800	24	-48.8		138	3
2023-08-11T12:00	25816	24	-48.8		135	3
2023-08-11T12:00	25853	24	-48.8		134	4
2023-08-11T12:00	25881	24	-48.8		134	4
2023-08-11T12:00	25912	24	-48.8		133	5
2023-08-11T12:00	25936	24	-48.5	-80.9	132	5
2023-08-11T12:00	25967	24	-48.2	-80.7	130	5
2023-08-11T12:00	26005	24	-48.1	-80.6	128	6
2023-08-11T12:00	26035	23	-48.1	-80.6	126	5
2023-08-11T12:00	26070	23	-48.1	-80.6	124	5
2023-08-11T12:00	26086	23	-47.9	-80.4	123	5
2023-08-11T12:00	26111	23	-47.9	-80.4	123	5
2023-08-11T12:00	26158	23	-47.8	-80.4	125	4
2023-08-11T12:00	26188	23	-47.8	-80.4	127	4
2023-08-11T12:00	26210	23	-47.7	-80.3	132	4
2023-08-11T12:00	26243	23	-47.6	-80.9	140	3
2023-08-11T12:00	26270	23	-47.4	-80.7	152	3
2023-08-11T12:00	26300	23	-47.3	-80.6	164	3
2023-08-11T12:00	26327	22	-47.3	-80.6	172	3
2023-08-11T12:00	26349	22	-47.3	-80.6	177	4
2023-08-11T12:00	26370	22	-47.3	-80.0	176	4
2023-08-11T12:00	26413	22	-47.3	-80.0	171	3
2023-08-11T12:00	26448	22	-47.3	-80.6	160	3
2023-08-11T12:00	26462	22	-47.2	-80.6	144	3
2023-08-11T12:00	26493	22	-47.0	-80.4	127	3
2023-08-11T12:00	26518	22	-47.0	-80.4	114	4
2023-08-11T12:00	26560	22	-47.0	-80.4	106	4
2023-08-11T12:00	26568	22	-47.1	-79.9	101	5
2023-08-11T12:00	26600	22	-47.1	-79.9	99	6
2023-08-11T12:00	26623	21	-47.2	-79.9	97	7
2023-08-11T12:00	26646	21	-47.1	-80.5	98	8
2023-08-11T12:00	26682	21	-46.9	-80.4	99	9
2023-08-11T12:00	26700	21	-46.7	-80.2	100	9
2023-08-11T12:00	26723	21	-46.6	-80.1	102	10
2023-08-11T12:00	26752	21	-46.6	-80.1	104	9
2023-08-11T12:00	26778	21	-46.6	-80.1	105	9
2023-08-11T12:00	26801	21	-46.5	-80.1	107	9
2023-08-11T12:00	26822	21	-46.4	-80.0	109	8
2023-08-11T12:00	26855	21	-46.2	-79.8	111	8
2023-08-11T12:00	26872	21	-46.1	-79.8	113	8
2023-08-11T12:00	26916	21	-46.0	-79.7	114	7
2023-08-11T12:00	26936	20	-45.9	-79.6	115	7
2023-08-11T12:00	26961	20	-45.8	-79.6	116	6
2023-08-11T12:00	26989	20	-45.8	-79.6	118	6
2023-08-11T12:00	27026	20	-45.8	-79.6	120	5
2023-08-11T12:00	27046	20	-45.9	-79.6	124	5
2023-08-11T12:00	27069	20	-46.0	-79.7	127	4
2023-08-11T12:00	27093	20	-46.1	-79.8	129	4
2023-08-11T12:00	27116	20	-46.1	-79.8	127	3
2023-08-11T12:00	27156	20	-46.1	-79.8	121	3
2023-08-11T12:00	27174	20	-46.0	-79.7	110	3
2023-08-11T12:00	27203	20	-45.8	-79.6	99	3
2023-08-11T12:00	27227	20	-45.8	-79.6	90	3
2023-08-11T12:00	27260	20	-45.8	-79.6	83	4
2023-08-11T12:00	27285	19	-45.7	-79.5	78	4
2023-08-11T12:00	27307	19	-45.7	-79.5	77	4
2023-08-11T12:00	27343	19	-45.8	-79.6	79	4
2023-08-11T12:00	27361	19	-45.8	-79.6	84	4
2023-08-11T12:00	27392	19	-45.8	-79.6	90	5
2023-08-11T12:00	27423	19	-45.8	-79.6	96	5
2023-08-11T12:00	27441	19	-45.9	-79.6	102	5
2023-08-11T12:00	27482	19	-46.0	-79.7	107	6
2023-08-11T12:00	27501	19	-46.1	-79.8	111	6
2023-08-11T12:00	27530	19	-46.2	-79.8	115	6
2023-08-11T12:00	27565	19	-46.3	-79.9	119	6
2023-08-11T12:00	27589	19	-46.5	-80.1	123	6
2023-08-11T12:00	27612	18	-46.6	-80.1	126	6
2023-08-11T12:00	27642	18	-46.7	-79.6	128	6
2023-08-11T12:00	27661	18	-46.9	-79.7	129	6
2023-08-11T12:00	27695	18	-47.0	-79.8	130	6
2023-08-11T12:00	27720	18	-47.1	-79.9	129	6
2023-08-11T12:00	27763	18	-47.2	-79.9	128	5
2023-08-11T12:00	27782	18	-47.2	-79.9	127	5
2023-08-11T12:00	27815	18	-47.3	-80.0	125	4
2023-08-11T12:00	27838	18	-47.4	-80.1	122	4
2023-08-11T12:00	27870	18	-47.3	-80.6	120	4
2023-08-11T12:00	27899	18	-47.2	-80.6	118	4
2023-08-11T12:00	27930	18	-47.1	-80.5	119	4
2023-08-11T12:00	27959	18	-47.0	-80.4	121	4
2023-08-11T12:00	27984	17	-47.0	-80.4	123	4
2023-08-11T12:00	28006	17	-47.1	-80.5	124	4
2023-08-11T12:00	28035	17	-47.1	-80.5	123	4
2023-08-11T12:00	28062	17	-47.0	-80.4	121	4
2023-08-11T12:00	28085	17	-47.0	-80.4	116	4
2023-08-11T12:00	28126	17	-47.0	-80.4	110	4
2023-08-11T12:00	28156	17	-47.1	-80.5	104	4
2023-08-11T12:00	28183	17	-47.2	-80.6	98	5
2023-08-11T12:00	28214	17	-47.3	-80.6	94	5
2023-08-11T12:00	28239	17	-47.2	-80.6	93	5
2023-08-11T12:00	28257	17	-47.1	-80.5	94	5
2023-08-11T12:00	28297	17	-46.9	-80.4	97	5
2023-08-11T12:00	28308	17	-46.7	-80.2	101	5
2023-08-11T12:00	28346	17	-46.7	-80.2	104	5
2023-08-11T12:00	28368	16	-46.6	-80.1	105	6
2023-08-11T12:00	28402	16	-46.4	-80.0	105	6
2023-08-11T12:00	28424	16	-46.4	-80.0	106	6
2023-08-11T12:00	28450	16	-46.3	-79.9	107	5
2023-08-11T12:00	28491	16	-46.2	-79.8	111	6
2023-08-11T12:00	28506	16	-46.1	-79.8	115	6
2023-08-11T12:00	28531	16	-46.0	-79.7	121	6
2023-08-11T12:00	28564	16	-46.1	-79.8	125	6
2023-08-11T12:00	28590	16	-46.1	-80.5	129	6
2023-08-11T12:00	28626	16	-45.7	-80.2	131	6
2023-08-11T12:00	28641	16	-45.2	-79.8	131	5
2023-08-11T12:00	28656	16	-45.0	-79.7	129	5
2023-08-11T12:00	28699	16	-44.8	-79.6	125	4
2023-08-11T12:00	28720	16	-44.7	-79.5	117	4
2023-08-11T12:00	28737	16	-44.7	-79.5	107	3
2023-08-11T12:00	28775	16	-44.7	-79.5	97	3
2023-08-11T12:00	28785	15	-44.5	-79.3	90	4
2023-08-11T12:00	28827	15	-44.2	-79.1	88	4
2023-08-11T12:00	28858	15	-44.0	-79.0	89	5
2023-08-11T12:00	28870	15	-44.0	-79.0	90	5
2023-08-11T12:00	28914	15	-44.1	-79.0	91	6
2023-08-11T12:00	28934	15	-44.0	-79.0	91	6
2023-08-11T12:00	28959	15	-43.8	-78.8	90	6
2023-08-11T12:00	28989	15	-43.6	-78.7	89	7
2023-08-11T12:00	29018	15	-43.6	-78.7	88	7
2023-08-11T12:00	29041	15	-43.6	-78.7	87	7
2023-08-11T12:00	29071	15	-43.6	-78.7	88	8
2023-08-11T12:00	29094	15	-43.4	-78.5	89	8
2023-08-11T12:00	29115	15	-43.4	-78.5	91	8
2023-08-11T12:00	29150	15	-43.4	-78.5	93	9
2023-08-11T12:00	29158	15	-43.5	-78.6	95	9
2023-08-11T12:00	29193	15	-43.6	-78.7	97	8
2023-08-11T12:00	29218	15	-43.6	-78.7	99	8
2023-08-11T12:00	29255	14	-43.6	-78.7	101	8
2023-08-11T12:00	29303	14	-43.6	-78.7	102	7
2023-08-11T12:00	29315	14	-43.5	-78.6	102	7
2023-08-11T12:00	29350	14	-43.5	-78.6	101	7
2023-08-11T12:00	29364	14	-43.4	-78.5	100	7
2023-08-11T12:00	29403	14	-43.1		99	7
2023-08-11T12:00	29441	14	-42.9	-79.0	97	7
2023-08-11T12:00	29465	14	-42.7	-78.9	95	7
2023-08-11T12:00	29487	14	-42.6	-78.8	92	7
2023-08-11T12:00	29539	14	-42.3		90	7
2023-08-11T12:00	29556	14	-42.2	-78.5	88	7
2023-08-11T12:00	29599	14	-42.2	-78.5	86	8
2023-08-11T12:00	29619	14	-42.3		85	8
2023-08-11T12:00	29662	14	-42.3		85	8
2023-08-11T12:00	29685	14	-42.3		84	8
2023-08-11T12:00	29711	14	-42.2	-78.5	83	9
2023-08-11T12:00	29752	13	-42.2	-78.5	84	10
2023-08-11T12:00	29789	13	-42.1	-78.4	85	10
2023-08-11T12:00	29817	13	-42.1	-78.4	88	11
2023-08-11T12:00	29864	13	-42.1	-78.4	91	11
2023-08-11T12:00	29884	13	-42.1	-78.4	94	11
2023-08-11T12:00	29919	13	-42.1	-78.4	97	11
2023-08-11T12:00	29946	13	-42.2	-78.5	99	11
2023-08-11T12:00	29969	13	-42.3		100	10
2023-08-11T12:00	30020	13	-42.2	-78.5	100	10
2023-08-11T12:00	30030	13	-42.1	-78.4	100	9
2023-08-11T12:00	30077	13	-42.0	-78.4	99	9
2023-08-11T12:00	30120	13	-41.9	-78.3	98	8
2023-08-11T12:00	30130	13	-41.9	-78.3	97	7
2023-08-11T12:00	30180	13	-41.8	-78.2	96	7
2023-08-11T12:00	30187	13	-41.9	-78.3	95	6
2023-08-11T12:00	30237	13	-41.9	-78.3	93	6
2023-08-11T12:00	30252	12	-42.0	-78.4	91	5
2023-08-11T12:00	30279	12	-42.0	-78.4	87	5
2023-08-11T12:00	30327	12	-42.0	-78.4	83	4
2023-08-11T12:00	30346	12	-42.0	-78.4	78	4
2023-08-11T12:00	30376	12	-41.9	-78.3	73	5
2023-08-11T12:00	30420	12	-41.9	-78.3	70	5
2023-08-11T12:00	30441	12	-41.9	-78.3	69	5
2023-08-11T12:00	30484	12	-41.9	-78.3	70	5
2023-08-11T12:00	30508	12	-41.9	-78.3	75	6
2023-08-11T12:00	30537	12	-41.9	-78.3	81	6
2023-08-11T12:00	30571	12	-41.8	-78.2	89	6
2023-08-11T12:00	30581	12	-41.8	-78.2	96	7
2023-08-11T12:00	30626	12	-41.8	-78.2	102	7
2023-08-11T12:00	30645	12	-42.0	-78.4	107	7
2023-08-11T12:00	30673	12	-42.1	-78.4	112	7
2023-08-11T12:00	30707	12	-42.2	-78.5	117	6
2023-08-11T12:00	30745	12	-42.1	-78.4	123	6
2023-08-11T12:00	30778	12	-41.9	-78.3	132	5
2023-08-11T12:00	30790	12	-41.7	-78.2	142	5
2023-08-11T12:00	30830	11	-41.7	-78.2	153	4
2023-08-11T12:00	30861	11	-41.7	-78.2	161	4
2023-08-11T12:00	30883	11	-41.6	-78.1	167	3
2023-08-11T12:00	30916	11	-41.6	-78.1	167	3
2023-08-11T12:00	30942	11	-41.5	-78.0	162	2
2023-08-11T12:00	30958	11	-41.5	-78.0	147	2
2023-08-11T12:00	30996	11	-41.3	-77.9	115	1
2023-08-11T12:00	31021	11	-41.1	-77.7	79	2
2023-08-11T12:00	31051	11	-41.0	-77.7	60	2
2023-08-11T12:00	31092	11	-40.9	-77.6	52	3
2023-08-11T12:00	31128	11	-40.8	-77.5	49	4
2023-08-11T12:00	31147	11	-40.6	-77.4	49	5
2023-08-11T12:00	31160	11	-40.3	-77.2	50	6
2023-08-11T12:00	31189	11	-40.1	-77.0	52	7
2023-08-11T12:00	31222	11	-40.1	-78.0	54	8
2023-08-11T12:00	31250	11	-40.2	-78.0	56	8
2023-08-11T12:00	31277	11	-40.2	-78.0	59	8
2023-08-11T12:00	31308	11	-40.0	-77.9	62	9
2023-08-11T12:00	31328	11	-39.9	-77.8	64	9
2023-08-11T12:00	31365	11	-39.9	-77.8	66	9
2023-08-11T12:00	31398	11	-39.9	-77.8	67	9
2023-08-11T12:00	31439	11	-39.9	-77.8	68	8
2023-08-11T12:00	31452	10	-40.0	-77.9	68	7
2023-08-11T12:00	31486	10	-40.0	-77.9	68	7
2023-08-11T12:00	31516	10	-39.9	-77.8	67	6
2023-08-11T12:00	31534	10	-39.8	-77.8	66	6
2023-08-11T12:00	31575	10	-39.6	-77.6	64	6
2023-08-11T12:00	31620	10	-39.5	-77.6	62	6
2023-08-11T12:00	31658	10	-39.2	-77.3	57	6
2023-08-11T12:00	31683	10	-39.1	-77.3	56	7
2023-08-11T12:00	31726	10	-39.1	-77.3	56	7
2023-08-11T12:00	31751	10	-39.1	-77.3	56	8
2023-08-11T12:00	31774	10	-39.1	-77.3	58	8
2023-08-11T12:00	31822	10	-39.1	-77.3	60	8
2023-08-11T12:00	31895	10	-39.1	-77.3	66	8
2023-08-11T12:00	31912	10	-39.1	-77.3	71	8
2023-08-11T12:00	31955	10	-39.2	-77.3	76	8
2023-08-11T12:00	31969	10	-39.3	-76.4	80	8
2023-08-11T12:00	31994	10	-39.4	-76.5	83	7
2023-08-11T12:00	32025	10	-39.5	-76.6	84	7
2023-08-11T12:00	32074	10	-39.4	-77.5	83	7
2023-08-11T12:00	32111	10	-39.3	-77.4	81	7
2023-08-11T12:00	32124	9	-39.1	-77.3	79	7
2023-08-11T12:00	32164	9	-38.9	-77.1	78	7
2023-08-11T12:00	32187	9	-38.8	-77.1	76	7
2023-08-11T12:00	32215	9	-38.9	-77.1	75	7
2023-08-11T12:00	32263	9	-39.1	-77.3	73	7
2023-08-11T12:00	32286	9	-39.2	-77.3	70	6
2023-08-11T12:00	32345	9	-39.3	-77.4	66	6
2023-08-11T12:00	32400	9	-39.3	-77.4	59	6
2023-08-11T12:00	32416	9	-39.3	-77.4	57	6
2023-08-11T12:00	32444	9	-39.2	-77.3	57	6
2023-08-11T12:00	32485	9	-39.1	-77.3	58	6
2023-08-11T12:00	32491	9	-38.9	-77.1	59	6
2023-08-11T12:00	32523	9	-38.8	-77.1	59	7
2023-08-11T12:00	32553	9	-38.7	-77.0	58	7
2023-08-11T12:00	32561	9	-38.7	-77.0	58	8
2023-08-11T12:00	32608	9	-38.7	-77.0	60	8
2023-08-11T12:00	32652	9	-38.7	-77.0	63	8
2023-08-11T12:00	32655	9	-38.7	-77.0	68	9
2023-08-11T12:00	32679	9	-38.6	-76.9	74	9
2023-08-11T12:00	32706	9	-38.6	-76.9	80	9
2023-08-11T12:00	32738	9	-38.6	-76.9	87	10
2023-08-11T12:00	32774	9	-38.6	-76.9	92	10
2023-08-11T12:00	32811	9	-38.7	-77.0	97	11
2023-08-11T12:00	32819	9	-38.7	-77.0	101	11
2023-08-11T12:00	32855	9	-38.6	-76.9	105	11
2023-08-11T12:00	32872	9	-38.6	-76.9	107	11
2023-08-11T12:00	32878	8	-38.6	-76.9	108	11
2023-08-11T12:00	32930	8	-38.4	-76.8	107	11
2023-08-11T18:00	112	1008	23.7	13.0	200	2
2023-08-11T18:00	135	1005	23.9	12.2	205	2
2023-08-11T18:00	164	1002	23.6	11.9	199	3
2023-08-11T18:00	190	999	23.5	12.0	196	4
2023-08-11T18:00	218	996	23.0	11.8	194	4
2023-08-11T18:00	242	993	22.8	11.7	193	4
2023-08-11T18:00	265	990	22.6	11.7	192	4
2023-08-11T18:00	291	987	22.3	11.5	192	4
2023-08-11T18:00	316	984	22.1	11.4	193	4
2023-08-11T18:00	343	982	21.8	11.4	196	4
2023-08-11T18:00	366	979	21.6	11.4	199	4
2023-08-11T18:00	392	976	21.3	11.3	204	4
2023-08-11T18:00	416	973	21.1	11.2	209	4
2023-08-11T18:00	436	971	20.9	11.3	214	4
2023-08-11T18:00	461	968	20.7	11.3	217	4
2023-08-11T18:00	491	965	20.4	11.2	219	4
2023-08-11T18:00	513	962	20.2	11.2	219	4
2023-08-11T18:00	538	960	19.9	11.2	218	4
2023-08-11T18:00	560	957	19.7	11.1	215	4
2023-08-11T18:00	586	954	19.4	11.0	212	4
2023-08-11T18:00	614	951	19.2	11.0	211	4
2023-08-11T18:00	647	947	18.9	11.0	212	4
2023-08-11T18:00	682	944	18.5	10.7	216	4
2023-08-11T18:00	709	941	18.3	10.8	221	4
2023-08-11T18:00	737	938	18.0	10.8	228	4
2023-08-11T18:00	764	935	17.7	10.6	234	4
2023-08-11T18:00	791	932	17.5	10.7	240	4
2023-08-11T18:00	822	929	17.2	10.6	248	3
2023-08-11T18:00	851	925	16.9	10.6	258	3
2023-08-11T18:00	882	922	16.6	10.5	268	3
2023-08-11T18:00	910	919	16.4	10.4	275	3
2023-08-11T18:00	932	916	16.2	10.5	275	3
2023-08-11T18:00	958	914	16.0	10.4	270	3
2023-08-11T18:00	989	911	15.7	10.3	263	3
2023-08-11T18:00	1015	908	15.4	10.4	259	3
2023-08-11T18:00	1040	905	15.2	10.2	258	3
2023-08-11T18:00	1065	902	14.9	10.2	259	4
2023-08-11T18:00	1091	900	14.7	10.2	261	4
2023-08-11T18:00	1114	897	14.5	10.3	262	4
2023-08-11T18:00	1139	894	14.2	10.0	263	4
2023-08-11T18:00	1163	892	14.0	10.1	265	4
2023-08-11T18:00	1189	889	13.8	10.0	269	4
2023-08-11T18:00	1217	886	13.5	10.0	273	4
2023-08-11T18:00	1238	884	13.3	10.0	276	4
2023-08-11T18:00	1262	881	13.1	9.9	277	4
2023-08-11T18:00	1285	879	12.8	9.8	276	4
2023-08-11T18:00	1308	877	12.6	9.8	275	4
2023-08-11T18:00	1332	874	12.4	9.9	274	4
2023-08-11T18:00	1357	871	12.1	9.7	275	4
2023-08-11T18:00	1387	869	11.9	9.6	280	4
2023-08-11T18:00	1409	866	11.7	9.9	286	4
2023-08-11T18:00	1437	863	11.4	9.5	292	5
2023-08-11T18:00	1460	861	11.2	9.6	298	5
2023-08-11T18:00	1481	859	11.0	9.6	300	6
2023-08-11T18:00	1508	856	11.6	7.4	301	6
2023-08-11T18:00	1534	853	13.2	4.7	300	7
2023-08-11T18:00	1560	851	13.8	4.5	299	7
2023-08-11T18:00	1589	848	13.8	4.3	296	7
2023-08-11T18:00	1614	845	13.8	3.9	295	7
2023-08-11T18:00	1642	843	13.7	3.2	295	7
2023-08-11T18:00	1670	840	13.6	2.6	296	7
2023-08-11T18:00	1694	837	13.5	1.9	298	8
2023-08-11T18:00	1717	835	13.3	1.7	299	8
2023-08-11T18:00	1744	832	13.4	1.1	300	8
2023-08-11T18:00	1772	830	13.4	1.3	299	8
2023-08-11T18:00	1800	827	13.4	1.5	297	8
2023-08-11T18:00	1825	824	13.3	1.4	296	8
2023-08-11T18:00	1849	822	13.2	0.1	296	7
2023-08-11T18:00	1875	819	13.2	-0.4	297	7
2023-08-11T18:00	1901	817	13.2	-2.1	300	7
2023-08-11T18:00	1929	814	13.2	-2.3	303	7
2023-08-11T18:00	1950	812	13.1	-2.6	305	8
2023-08-11T18:00	1975	810	13.2	-4.3	305	8
2023-08-11T18:00	2002	807	13.1	-4.3	306	8
2023-08-11T18:00	2026	805	13.2	-4.7	306	9
2023-08-11T18:00	2047	803	13.1	-3.8	306	9
2023-08-11T18:00	2068	801	12.9	-2.5	306	9
2023-08-11T18:00	2094	798	12.7	-2.9	306	9
2023-08-11T18:00	2124	796	12.5	-2.3	307	8
2023-08-11T18:00	2149	793	12.3	-2.4	309	8
2023-08-11T18:00	2176	791	12.1	-3.9	311	8
2023-08-11T18:00	2205	788	12.1	-6.7	314	8
2023-08-11T18:00	2227	786	12.0	-7.4	315	8
2023-08-11T18:00	2246	784	11.9	-8.0	315	9
2023-08-11T18:00	2281	781	11.7	-7.7	314	9
2023-08-11T18:00	2306	778	11.4	-3.2	313	9
2023-08-11T18:00	2333	776	11.1	-2.0	312	9
2023-08-11T18:00	2357	774	10.9	-1.6	312	9
2023-08-11T18:00	2385	771	10.7	-2.5	312	9
2023-08-11T18:00	2412	769	10.5	-3.9	313	9
2023-08-11T18:00	2435	766	10.4	-4.2	313	9
2023-08-11T18:00	2462	764	10.1	-4.5	314	10
2023-08-11T18:00	2488	762	9.9	-4.3	315	10
2023-08-11T18:00	2512	759	9.7	-4.4	315	10
2023-08-11T18:00	2538	757	9.5	-4.5	316	10
2023-08-11T18:00	2565	755	9.3	-4.3	317	10
2023-08-11T18:00	2588	752	9.1	-4.2	317	10
2023-08-11T18:00	2623	750	9.0	-4.5	318	9
2023-08-11T18:00	2644	747	8.9	-4.7	319	9
2023-08-11T18:00	2667	745	8.8	-5.1	320	9
2023-08-11T18:00	2693	743	8.6	-5.9	321	9
2023-08-11T18:00	2717	741	8.5	-6.1	321	8
2023-08-11T18:00	2743	738	8.4	-6.7	321	9
2023-08-11T18:00	2767	736	8.2	-7.1	321	9
2023-08-11T18:00	2790	734	8.0	-7.3	321	9
2023-08-11T18:00	2814	732	7.9	-7.5	322	9
2023-08-11T18:00	2841	730	7.8	-8.6	323	9
2023-08-11T18:00	2872	727	7.5	-8.6	323	9
2023-08-11T18:00	2896	725	7.4	-7.6	324	9
2023-08-11T18:00	2917	723	7.2	-7.7	324	9
2023-08-11T18:00	2943	721	7.0	-8.1	324	9
2023-08-11T18:00	2964	719	6.9	-7.4	324	9
2023-08-11T18:00	2993	716	6.7	-7.0	324	9
2023-08-11T18:00	3022	714	6.4	-6.9	324	9
2023-08-11T18:00	3050	711	6.2	-6.9	324	9
2023-08-11T18:00	3080	709	5.9	-6.9	325	9
2023-08-11T18:00	3105	707	5.7	-7.0	326	9
2023-08-11T18:00	3130	704	5.5	-7.0	326	9
2023-08-11T18:00	3155	702	5.3	-7.1	327	9
2023-08-11T18:00	3189	700	5.0	-7.7	327	9
2023-08-11T18:00	3216	697	4.8	-8.0	327	9
2023-08-11T18:00	3239	695	4.6	-8.6	326	9
2023-08-11T18:00	3267	693	4.4	-8.6	325	10
2023-08-11T18:00	3290	691	4.2	-9.1	323	10
2023-08-11T18:00	3313	689	4.1	-9.0	320	9
2023-08-11T18:00	3334	687	3.9	-9.3	318	9
2023-08-11T18:00	3362	685	3.7	-9.7	316	9
2023-08-11T18:00	3382	683	3.6	-10.2	314	8
2023-08-11T18:00	3411	681	3.4	-10.5	314	8
2023-08-11T18:00	3439	678	3.2	-9.9	313	8
2023-08-11T18:00	3458	676	3.0	-9.5	313	8
2023-08-11T18:00	3480	675	2.8	-8.8	314	8
2023-08-11T18:00	3503	673	2.5	-8.1	315	8
2023-08-11T18:00	3529	671	2.3	-7.6	316	9
2023-08-11T18:00	3556	668	2.0	-7.7	316	9
2023-08-11T18:00	3586	666	1.8	-7.9	314	9
2023-08-11T18:00	3611	664	1.7	-7.6	311	10
2023-08-11T18:00	3632	662	1.6	-8.3	307	10
2023-08-11T18:00	3657	660	1.4	-8.9	304	10
2023-08-11T18:00	3680	658	1.3	-9.3	301	10
2023-08-11T18:00	3710	656	1.2	-9.9	300	10
2023-08-11T18:00	3733	654	1.0	-10.0	300	10
2023-08-11T18:00	3760	652	0.8	-10.0	300	10
2023-08-11T18:00	3779	650	0.7	-9.2	301	10
2023-08-11T18:00	3797	649	0.5	-9.2	302	10
2023-08-11T18:00	3819	647	0.4	-9.2	302	10
2023-08-11T18:00	3838	645	0.2	-9.4	301	10
2023-08-11T18:00	3859	644	0.1	-8.9	301	10
2023-08-11T18:00	3882	642	-0.1		301	10
2023-08-11T18:00	3912	640	-0.4	-9.3	301	10
2023-08-11T18:00	3935	638	-0.6	-9.4	303	10
2023-08-11T18:00	3957	636	-0.8	-9.6	304	10
2023-08-11T18:00	3976	634	-0.9	-9.6	306	10
2023-08-11T18:00	4000	633	-1.1	-10.4	308	10
2023-08-11T18:00	4028	630	-1.3	-12.8	309	10
2023-08-11T18:00	4059	628	-1.5	-13.1	310	10
2023-08-11T18:00	4084	626	-1.7	-13.0	311	10
2023-08-11T18:00	4109	624	-1.9	-13.0	312	10
2023-08-11T18:00	4125	623	-2.1	-13.1	312	10
2023-08-11T18:00	4143	621	-2.2	-13.0	312	10
2023-08-11T18:00	4163	620	-2.4	-12.9	312	10
2023-08-11T18:00	4182	618	-2.6	-13.0	313	10
2023-08-11T18:00	4202	616	-2.7	-13.5	313	9
2023-08-11T18:00	4234	614	-2.9	-14.4	313	9
2023-08-11T18:00	4252	613	-2.9	-14.7	313	10
2023-08-11T18:00	4271	611	-3.0	-14.9	312	10
2023-08-11T18:00	4294	610	-2.9	-17.7	313	10
2023-08-11T18:00	4313	608	-2.9	-18.5	313	10
2023-08-11T18:00	4333	607	-2.8	-21.7	315	10
2023-08-11T18:00	4353	605	-2.8	-23.9	316	11
2023-08-11T18:00	4373	603	-2.7	-26.5	317	11
2023-08-11T18:00	4399	602	-2.8	-25.7	317	11
2023-08-11T18:00	4423	600	-2.9	-22.8	316	11
2023-08-11T18:00	4456	597	-3.0	-22.7	315	10
2023-08-11T18:00	4476	596	-3.1	-22.5	314	10
2023-08-11T18:00	4502	594	-2.9	-24.5	312	10
2023-08-11T18:00	4525	592	-2.9	-23.9	310	10
2023-08-11T18:00	4544	590	-3.0	-24.8	309	10
2023-08-11T18:00	4569	589	-3.1	-25.1	308	10
2023-08-11T18:00	4591	587	-3.2	-25.1	308	10
2023-08-11T18:00	4616	585	-3.2	-24.4	308	10
2023-08-11T18:00	4637	584	-3.3	-24.3	309	10
2023-08-11T18:00	4662	582	-3.5	-23.4	309	10
2023-08-11T18:00	4687	580	-3.6	-23.1	310	10
2023-08-11T18:00	4715	578	-3.8	-22.8	311	10
2023-08-11T18:00	4736	576	-3.8	-22.6	313	11
2023-08-11T18:00	4753	575	-3.9	-22.4	314	11
2023-08-11T18:00	4775	573	-4.0	-22.9	314	11
2023-08-11T18:00	4803	572	-4.1	-22.7	314	12
2023-08-11T18:00	4822	570	-4.2	-22.9	313	12
2023-08-11T18:00	4850	568	-4.4	-23.3	312	13
2023-08-11T18:00	4879	566	-4.6	-23.6	310	13
2023-08-11T18:00	4903	564	-4.8	-23.9	309	13
2023-08-11T18:00	4924	563	-4.9	-24.2	309	13
2023-08-11T18:00	4946	561	-5.1	-24.1	310	13
2023-08-11T18:00	4968	560	-5.3	-24.3	310	13
2023-08-11T18:00	4986	558	-5.4	-24.5	310	12
2023-08-11T18:00	5006	557	-5.6	-24.5	308	12
2023-08-11T18:00	5027	555	-5.8	-24.6	306	12
2023-08-11T18:00	5049	554	-5.9	-24.9	304	12
2023-08-11T18:00	5073	552	-6.0	-25.6	302	12
2023-08-11T18:00	5099	550	-6.0	-27.4	300	12
2023-08-11T18:00	5122	549	-6.0	-29.3	300	12
2023-08-11T18:00	5144	547	-6.0	-30.0	300	11
2023-08-11T18:00	5161	546	-6.2	-30.1	301	11
2023-08-11T18:00	5182	544	-6.3	-30.1	301	11
2023-08-11T18:00	5202	543	-6.5	-30.2	302	11
2023-08-11T18:00	5223	542	-6.7	-30.2	302	11
2023-08-11T18:00	5240	540	-6.8	-30.2	302	11
2023-08-11T18:00	5263	539	-7.0	-30.3	301	11
2023-08-11T18:00	5284	537	-7.1	-30.6	301	11
2023-08-11T18:00	5305	536	-7.3	-30.7	302	11
2023-08-11T18:00	5325	535	-7.5	-30.8	302	12
2023-08-11T18:00	5353	533	-7.7	-30.7	302	12
2023-08-11T18:00	5381	531	-7.8	-30.9	302	12
2023-08-11T18:00	5402	529	-7.9	-31.1	302	12
2023-08-11T18:00	5421	528	-8.1	-31.1	301	12
2023-08-11T18:00	5442	527	-8.2	-31.1	300	12
2023-08-11T18:00	5462	525	-8.3	-31.1	300	12
2023-08-11T18:00	5481	524	-8.5	-31.1	299	12
2023-08-11T18:00	5507	522	-8.7	-31.2	299	12
2023-08-11T18:00	5535	520	-8.8	-31.6	299	12
2023-08-11T18:00	5558	519	-9.0	-31.8	299	12
2023-08-11T18:00	5578	517	-9.1	-32.0	299	12
2023-08-11T18:00	5605	516	-9.3	-32.3	299	12
2023-08-11T18:00	5634	514	-9.5	-32.5	299	12
2023-08-11T18:00	5657	512	-9.7	-32.7	299	12
2023-08-11T18:00	5677	511	-9.8	-32.7	299	12
2023-08-11T18:00	5696	510	-10.0	-32.8	299	12
2023-08-11T18:00	5714	508	-10.2	-32.9	298	12
2023-08-11T18:00	5734	507	-10.3	-32.9	298	12
2023-08-11T18:00	5756	506	-10.4	-32.8	298	13
2023-08-11T18:00	5776	504	-10.5	-32.8	299	13
2023-08-11T18:00	5799	503	-10.7	-33.0	301	13
2023-08-11T18:00	5827	501	-10.8	-33.1	303	13
2023-08-11T18:00	5853	499	-11.0	-33.2	304	13
2023-08-11T18:00	5883	497	-11.2	-33.4	304	13
2023-08-11T18:00	5904	496	-11.4	-33.4	303	13
2023-08-11T18:00	5925	495	-11.5	-33.5	302	13
2023-08-11T18:00	5945	493	-11.6	-34.7	302	13
2023-08-11T18:00	5967	492	-11.7	-35.0	302	13
2023-08-11T18:00	5995	490	-11.9	-35.7	302	13
2023-08-11T18:00	6025	488	-12.2	-36.1	304	13
2023-08-11T18:00	6044	487	-12.4	-36.9	305	13
2023-08-11T18:00	6063	486	-12.5	-37.7	305	13
2023-08-11T18:00	6084	484	-12.5	-38.4	306	13
2023-08-11T18:00	6103	483	-12.6	-38.7	306	13
2023-08-11T18:00	6126	482	-12.6	-38.6	306	12
2023-08-11T18:00	6146	480	-12.7	-38.6	306	12
2023-08-11T18:00	6171	479	-12.9	-39.1	307	12
2023-08-11T18:00	6198	477	-13.0	-39.6	307	12
2023-08-11T18:00	6217	476	-13.2	-39.7	306	12
2023-08-11T18:00	6239	475	-13.4	-39.8	306	12
2023-08-11T18:00	6263	473	-13.6	-39.9	305	12
2023-08-11T18:00	6283	472	-13.8	-40.1	304	12
2023-08-11T18:00	6300	471	-13.9	-40.3	303	12
2023-08-11T18:00	6320	470	-14.1	-40.3	303	12
2023-08-11T18:00	6340	468	-14.2	-40.1	303	12
2023-08-11T18:00	6361	467	-14.3	-40.0	303	12
2023-08-11T18:00	6382	466	-14.5	-38.6	303	13
2023-08-11T18:00	6403	464	-14.6	-37.8	303	13
2023-08-11T18:00	6427	463	-14.8	-37.6	304	13
2023-08-11T18:00	6452	462	-15.0	-37.7	304	13
2023-08-11T18:00	6481	460	-15.2	-37.6	304	13
2023-08-11T18:00	6505	458	-15.4	-37.1	304	13
2023-08-11T18:00	6532	457	-15.6	-37.1	305	14
2023-08-11T18:00	6562	455	-15.9	-37.2	306	14
2023-08-11T18:00	6586	453	-16.1	-37.7	306	14
2023-08-11T18:00	6607	452	-16.2	-37.0	306	14
2023-08-11T18:00	6629	451	-16.4	-26.9	306	13
2023-08-11T18:00	6652	449	-16.6	-27.3	307	13
2023-08-11T18:00	6673	448	-16.9	-27.4	307	13
2023-08-11T18:00	6703	447	-17.1	-27.5	307	13
2023-08-11T18:00	6727	445	-17.3	-27.9	307	13
2023-08-11T18:00	6748	444	-17.4	-28.4	307	14
2023-08-11T18:00	6769	442	-17.5	-29.2	306	14
2023-08-11T18:00	6793	441	-17.7	-29.5	306	15
2023-08-11T18:00	6816	440	-17.9	-29.7	306	15
2023-08-11T18:00	6840	438	-18.0	-30.1	306	15
2023-08-11T18:00	6867	437	-18.1	-30.3	306	14
2023-08-11T18:00	6890	435	-18.1	-30.8	306	14
2023-08-11T18:00	6908	434	-18.2	-31.9	307	14
2023-08-11T18:00	6933	433	-18.4	-31.5	307	13
2023-08-11T18:00	6955	432	-18.5	-31.5	307	13
2023-08-11T18:00	6975	430	-18.7	-31.4	307	13
2023-08-11T18:00	6998	429	-18.9	-31.5	307	13
2023-08-11T18:00	7021	428	-19.0	-32.5	308	13
2023-08-11T18:00	7043	427	-19.2	-32.9	309	13
2023-08-11T18:00	7061	426	-19.3	-33.3	311	13
2023-08-11T18:00	7082	424	-19.5	-34.1	312	13
2023-08-11T18:00	7103	423	-19.6	-34.0	313	13
2023-08-11T18:00	7119	422	-19.7	-33.5	313	13
2023-08-11T18:00	7139	421	-19.8	-34.2	314	13
2023-08-11T18:00	7158	420	-19.9	-33.4	314	13
2023-08-11T18:00	7174	419	-20.0	-32.6	314	13
2023-08-11T18:00	7194	418	-20.2	-32.6	315	13
2023-08-11T18:00	7213	417	-20.3	-32.2	315	13
2023-08-11T18:00	7232	416	-20.4	-32.3	316	13
2023-08-11T18:00	7250	415	-20.5	-32.3	318	13
2023-08-11T18:00	7270	414	-20.7	-32.6	320	13
2023-08-11T18:00	7287	413	-20.7	-32.7	322	13
2023-08-11T18:00	7306	412	-20.7	-32.9	324	13
2023-08-11T18:00	7324	411	-20.6	-33.2	326	13
2023-08-11T18:00	7344	410	-20.7	-33.8	328	13
2023-08-11T18:00	7359	409	-20.7	-34.1	330	13
2023-08-11T18:00	7376	408	-20.8	-35.0	331	14
2023-08-11T18:00	7395	407	-20.8	-35.8	332	14
2023-08-11T18:00	7413	406	-20.8	-36.4	333	14
2023-08-11T18:00	7430	405	-20.9	-37.8	334	14
2023-08-11T18:00	7447	404	-21.0	-38.2	334	14
2023-08-11T18:00	7464	403	-21.1	-38.4	335	14
2023-08-11T18:00	7482	402	-21.2	-38.9	335	15
2023-08-11T18:00	7503	401	-21.4	-39.9	335	15
2023-08-11T18:00	7523	400	-21.5	-40.4	335	15
2023-08-11T18:00	7540	399	-21.7	-40.8	334	16
2023-08-11T18:00	7560	398	-21.8	-40.9	334	16
2023-08-11T18:00	7579	397	-22.0	-41.5	334	16
2023-08-11T18:00	7597	396	-22.0	-43.1	334	16
2023-08-11T18:00	7615	395	-22.1	-45.2	335	16
2023-08-11T18:00	7634	394	-22.2	-45.2	336	17
2023-08-11T18:00	7653	393	-22.3	-44.8	336	17
2023-08-11T18:00	7672	392	-22.4	-45.2	337	17
2023-08-11T18:00	7689	391	-22.6	-45.1	338	17
2023-08-11T18:00	7707	390	-22.7	-44.8	338	17
2023-08-11T18:00	7725	389	-22.9	-44.8	339	17
2023-08-11T18:00	7742	388	-23.0	-44.7	339	17
2023-08-11T18:00	7758	387	-23.1	-44.4	339	17
2023-08-11T18:00	7778	386	-23.3	-44.3	338	18
2023-08-11T18:00	7794	385	-23.3	-43.9	338	18
2023-08-11T18:00	7812	384	-23.5	-44.0	338	18
2023-08-11T18:00	7829	383	-23.7	-44.0	338	18
2023-08-11T18:00	7849	382	-23.9	-44.1	338	18
2023-08-11T18:00	7867	381	-24.0	-43.9	338	18
2023-08-11T18:00	7885	381	-24.2	-43.9	338	18
2023-08-11T18:00	7905	379	-24.4	-43.5	337	19
2023-08-11T18:00	7924	378	-24.6	-43.4	337	19
2023-08-11T18:00	7942	377	-24.7	-43.4	337	19
2023-08-11T18:00	7963	376	-24.9	-43.2	337	19
2023-08-11T18:00	7982	375	-25.1	-43.3	337	19
2023-08-11T18:00	8001	374	-25.3	-43.1	336	18
2023-08-11T18:00	8020	374	-25.5	-43.0	336	19
2023-08-11T18:00	8040	373	-25.7	-43.2	336	19
2023-08-11T18:00	8059	371	-25.8	-43.1	336	19
2023-08-11T18:00	8082	370	-26.1	-43.1	336	19
2023-08-11T18:00	8105	369	-26.3	-43.1	337	19
2023-08-11T18:00	8126	368	-26.5	-43.1	337	19
2023-08-11T18:00	8146	367	-26.7	-43.1	338	19
2023-08-11T18:00	8163	366	-26.8	-42.7	338	19
2023-08-11T18:00	8182	365	-27.0	-42.7	338	19
2023-08-11T18:00	8199	364	-27.2	-42.7	338	19
2023-08-11T18:00	8219	363	-27.4	-42.7	338	19
2023-08-11T18:00	8239	362	-27.6	-42.8	338	19
2023-08-11T18:00	8257	361	-27.7	-42.8	338	19
2023-08-11T18:00	8275	361	-27.9	-42.9	338	19
2023-08-11T18:00	8296	360	-28.1	-42.6	338	20
2023-08-11T18:00	8314	359	-28.2	-42.3	338	20
2023-08-11T18:00	8333	358	-28.4	-42.2	338	20
2023-08-11T18:00	8352	357	-28.6	-42.0	338	20
2023-08-11T18:00	8370	356	-28.7	-41.7	338	20
2023-08-11T18:00	8389	355	-28.9	-41.5	338	20
2023-08-11T18:00	8409	354	-29.1	-41.5	338	20
2023-08-11T18:00	8426	353	-29.2	-41.5	338	20
2023-08-11T18:00	8445	352	-29.4	-41.5	338	20
2023-08-11T18:00	8462	351	-29.6	-41.4	338	20
2023-08-11T18:00	8480	350	-29.7	-41.5	337	20
2023-08-11T18:00	8499	349	-29.9	-41.8	336	21
2023-08-11T18:00	8527	348	-30.1	-42.4	334	21
2023-08-11T18:00	8554	347	-30.2	-43.3	333	21
2023-08-11T18:00	8579	346	-30.4	-43.3	332	21
2023-08-11T18:00	8597	345	-30.4	-43.0	331	21
2023-08-11T18:00	8617	344	-30.6	-42.9	331	21
2023-08-11T18:00	8636	343	-30.8	-43.0	330	22
2023-08-11T18:00	8651	342	-30.9	-43.1	330	22
2023-08-11T18:00	8670	341	-31.1	-43.2	330	22
2023-08-11T18:00	8688	340	-31.1	-44.2	329	22
2023-08-11T18:00	8705	339	-31.2	-45.7	328	22
2023-08-11T18:00	8724	339	-31.2	-46.3	327	22
2023-08-11T18:00	8743	338	-31.3	-46.4	326	22
2023-08-11T18:00	8761	337	-31.5	-46.8	325	22
2023-08-11T18:00	8778	336	-31.5	-47.5	325	22
2023-08-11T18:00	8797	335	-31.6	-48.1	324	22
2023-08-11T18:00	8815	334	-31.7	-48.5	324	22
2023-08-11T18:00	8833	333	-31.8	-49.0	324	21
2023-08-11T18:00	8852	332	-31.9	-49.3	324	21
2023-08-11T18:00	8871	332	-32.1	-49.2	325	21
2023-08-11T18:00	8890	331	-32.2	-49.3	325	21
2023-08-11T18:00	8909	330	-32.4	-49.4	325	21
2023-08-11T18:00	8927	329	-32.5	-49.5	325	21
2023-08-11T18:00	8945	328	-32.7	-49.4	325	21
2023-08-11T18:00	8967	327	-32.8	-49.4	326	21
2023-08-11T18:00	8987	326	-33.0	-49.5	326	21
2023-08-11T18:00	9003	325	-33.2	-49.4	327	21
2023-08-11T18:00	9022	325	-33.4	-49.4	327	21
2023-08-11T18:00	9043	324	-33.5	-49.0	327	21
2023-08-11T18:00	9063	323	-33.7	-49.1	328	21
2023-08-11T18:00	9084	322	-33.8	-49.1	328	21
2023-08-11T18:00	9103	321	-34.0	-49.2	328	21
2023-08-11T18:00	9122	320	-34.2	-49.2	328	21
2023-08-11T18:00	9142	319	-34.4	-49.0	328	21
2023-08-11T18:00	9163	318	-34.5	-48.9	328	21
2023-08-11T18:00	9183	317	-34.7	-48.8	328	21
2023-08-11T18:00	9201	316	-34.9	-49.0	328	21
2023-08-11T18:00	9219	315	-35.0	-49.0	328	21
2023-08-11T18:00	9240	315	-35.2	-49.0	328	21
2023-08-11T18:00	9257	314	-35.3	-49.3	328	21
2023-08-11T18:00	9278	313	-35.5	-49.4	328	21
2023-08-11T18:00	9298	312	-35.6	-50.0	327	21
2023-08-11T18:00	9315	311	-35.7	-51.3	327	21
2023-08-11T18:00	9336	310	-35.8	-52.3	326	22
2023-08-11T18:00	9357	309	-35.9	-52.4	326	22
2023-08-11T18:00	9377	308	-35.9	-53.1	326	22
2023-08-11T18:00	9396	308	-36.1	-53.6	327	21
2023-08-11T18:00	9417	307	-36.2	-53.8	328	21
2023-08-11T18:00	9436	306	-36.4	-53.8	329	21
2023-08-11T18:00	9455	305	-36.5	-53.7	330	21
2023-08-11T18:00	9477	304	-36.6	-54.2	331	21
2023-08-11T18:00	9499	303	-36.7	-54.3	332	21
2023-08-11T18:00	9518	302	-36.8	-54.3	332	21
2023-08-11T18:00	9539	301	-36.9	-54.7	333	21
2023-08-11T18:00	9560	300	-37.0	-54.8	333	21
2023-08-11T18:00	9579	300	-37.2	-55.1	333	21
2023-08-11T18:00	9601	299	-37.4	-54.3	333	21
2023-08-11T18:00	9622	298	-37.6	-53.6	333	21
2023-08-11T18:00	9642	297	-37.8	-53.3	334	21
2023-08-11T18:00	9664	296	-38.0	-53.5	334	21
2023-08-11T18:00	9684	295	-38.2	-53.3	334	21
2023-08-11T18:00	9705	294	-38.4	-53.1	334	21
2023-08-11T18:00	9726	293	-38.6	-52.8	335	21
2023-08-11T18:00	9745	292	-38.7	-52.4	335	21
2023-08-11T18:00	9767	292	-38.9	-52.0	335	22
2023-08-11T18:00	9785	291	-39.1	-51.5	335	22
2023-08-11T18:00	9805	290	-39.2	-51.7	335	22
2023-08-11T18:00	9824	289	-39.4	-51.5	335	22
2023-08-11T18:00	9846	288	-39.6	-51.5	335	22
2023-08-11T18:00	9866	287	-39.7	-51.7	335	22
2023-08-11T18:00	9888	286	-39.9	-52.0	334	23
2023-08-11T18:00	9908	286	-40.0	-53.0	334	23
2023-08-11T18:00	9930	285	-40.0	-54.5	334	24
2023-08-11T18:00	9951	284	-40.0	-54.6	333	24
2023-08-11T18:00	9973	283	-40.2	-54.7	333	24
2023-08-11T18:00	9995	282	-40.3	-54.8	333	24
2023-08-11T18:00	10015	281	-40.5	-54.9	333	25
2023-08-11T18:00	10036	280	-40.7	-54.9	334	25
2023-08-11T18:00	10056	279	-40.8	-54.9	334	25
2023-08-11T18:00	10077	279	-41.0	-54.9	334	24
2023-08-11T18:00	10099	278	-41.2	-55.1	334	24
2023-08-11T18:00	10120	277	-41.3	-55.3	334	24
2023-08-11T18:00	10139	276	-41.5	-54.9	334	24
2023-08-11T18:00	10159	275	-41.6	-54.5	334	24
2023-08-11T18:00	10180	274	-41.8	-54.8	334	24
2023-08-11T18:00	10203	273	-42.0	-55.2	334	24
2023-08-11T18:00	10225	273	-42.1	-55.8	334	24
2023-08-11T18:00	10243	272	-42.3	-56.4	335	24
2023-08-11T18:00	10263	271	-42.4	-56.7	335	24
2023-08-11T18:00	10283	270	-42.5	-56.8	335	24
2023-08-11T18:00	10303	269	-42.7	-56.8	335	24
2023-08-11T18:00	10326	269	-42.9	-56.7	335	24
2023-08-11T18:00	10345	268	-43.0	-56.6	335	24
2023-08-11T18:00	10366	267	-43.3	-56.7	335	24
2023-08-11T18:00	10388	266	-43.4	-56.5	335	24
2023-08-11T18:00	10410	265	-43.7	-56.4	335	24
2023-08-11T18:00	10432	264	-43.9	-56.1	334	25
2023-08-11T18:00	10453	263	-44.1	-55.9	334	25
2023-08-11T18:00	10476	263	-44.3	-55.6	334	25
2023-08-11T18:00	10495	262	-44.4	-55.4	333	25
2023-08-11T18:00	10518	261	-44.7	-55.7	333	26
2023-08-11T18:00	10539	260	-44.8	-56.0	333	26
2023-08-11T18:00	10558	259	-44.9	-56.2	333	26
2023-08-11T18:00	10579	259	-45.0	-56.5	333	26
2023-08-11T18:00	10600	258	-45.1	-56.9	333	26
2023-08-11T18:00	10622	257	-45.3	-56.8	333	26
2023-08-11T18:00	10642	256	-45.5	-56.5	334	26
2023-08-11T18:00	10664	255	-45.7	-56.3	334	26
2023-08-11T18:00	10686	255	-45.9	-56.4	334	26
2023-08-11T18:00	10705	254	-46.0	-56.2	335	26
2023-08-11T18:00	10724	253	-46.2	-56.1	335	26
2023-08-11T18:00	10747	252	-46.4	-56.0	335	26
2023-08-11T18:00	10767	251	-46.6	-56.1	335	26
2023-08-11T18:00	10783	251	-46.7	-56.1	335	26
2023-08-11T18:00	10802	250	-46.9	-56.3	335	26
2023-08-11T18:00	10826	249	-47.1	-56.6	335	26
2023-08-11T18:00	10848	248	-47.3	-56.8	335	27
2023-08-11T18:00	10869	248	-47.4	-56.8	335	27
2023-08-11T18:00	10890	247	-47.6	-56.8	335	27
2023-08-11T18:00	10912	246	-47.8	-56.7	335	27
2023-08-11T18:00	10935	245	-47.9	-56.3	335	27
2023-08-11T18:00	10955	244	-48.2	-55.9	335	27
2023-08-11T18:00	10977	244	-48.4	-55.1	335	27
2023-08-11T18:00	10997	243	-48.6	-54.2	335	27
2023-08-11T18:00	11019	242	-48.8	-53.8	335	27
2023-08-11T18:00	11038	241	-49.0	-53.3	335	27
2023-08-11T18:00	11060	240	-49.2	-53.3	335	27
2023-08-11T18:00	11079	240	-49.4	-53.6	335	27
2023-08-11T18:00	11099	239	-49.6	-53.6	335	27
2023-08-11T18:00	11120	238	-49.8	-53.6	335	27
2023-08-11T18:00	11140	238	-50.0	-53.7	335	27
2023-08-11T18:00	11159	237	-50.2	-53.9	336	27
2023-08-11T18:00	11179	236	-50.4	-54.4	336	27
2023-08-11T18:00	11199	235	-50.5	-55.6	336	27
2023-08-11T18:00	11219	235	-50.7	-56.9	337	27
2023-08-11T18:00	11240	234	-50.9	-57.4	337	26
2023-08-11T18:00	11261	233	-51.0	-57.4	338	26
2023-08-11T18:00	11281	232	-51.2	-57.5	338	26
2023-08-11T18:00	11303	232	-51.4	-58.0	339	26
2023-08-11T18:00	11325	231	-51.5	-58.4	339	26
2023-08-11T18:00	11342	230	-51.7	-58.7	340	25
2023-08-11T18:00	11364	229	-51.8	-59.0	340	25
2023-08-11T18:00	11384	229	-52.0	-59.5	340	25
2023-08-11T18:00	11404	228	-52.1	-59.7	340	25
2023-08-11T18:00	11428	227	-52.3	-59.7	340	24
2023-08-11T18:00	11445	227	-52.4	-59.6	340	24
2023-08-11T18:00	11467	226	-52.6	-59.7	340	24
2023-08-11T18:00	11487	225	-52.8	-59.8	339	24
2023-08-11T18:00	11510	224	-53.0	-59.9	338	23
2023-08-11T18:00	11530	224	-53.1	-60.0	337	23
2023-08-11T18:00	11552	223	-53.3	-60.5	336	23
2023-08-11T18:00	11572	222	-53.4	-61.0	334	22
2023-08-11T18:00	11593	222	-53.5	-61.6	333	22
2023-08-11T18:00	11614	221	-53.6	-61.9	332	22
2023-08-11T18:00	11636	220	-53.8	-62.2	330	22
2023-08-11T18:00	11659	219	-54.0	-62.8	329	22
2023-08-11T18:00	11678	219	-54.0	-63.3	327	23
2023-08-11T18:00	11705	218	-54.1	-63.7	325	23
2023-08-11T18:00	11731	217	-54.1	-63.7	323	24
2023-08-11T18:00	11757	216	-54.2	-63.7	321	24
2023-08-11T18:00	11782	215	-54.3	-63.6	320	25
2023-08-11T18:00	11809	214	-54.5	-63.6	319	25
2023-08-11T18:00	11836	213	-54.7	-63.4	319	26
2023-08-11T18:00	11865	212	-55.0	-63.4	319	27
2023-08-11T18:00	11891	211	-55.1	-63.4	319	27
2023-08-11T18:00	11919	211	-55.3	-63.4	319	27
2023-08-11T18:00	11948	210	-55.5	-63.3	318	28
2023-08-11T18:00	11983	208	-55.8	-63.3	317	28
2023-08-11T18:00	12008	208	-56.0	-63.2	315	29
2023-08-11T18:00	12029	207	-56.1	-63.2	315	29
2023-08-11T18:00	12048	206	-56.2	-63.1	314	30
2023-08-11T18:00	12067	206	-56.4	-63.1	314	31
2023-08-11T18:00	12087	205	-56.4	-63.0	314	31
2023-08-11T18:00	12107	204	-56.4	-63.1	314	32
2023-08-11T18:00	12126	204	-56.2	-63.4	314	32
2023-08-11T18:00	12148	203	-56.0	-64.2	315	32
2023-08-11T18:00	12166	202	-55.7	-65.8	316	32
2023-08-11T18:00	12194	202	-54.6	-67.6	317	31
2023-08-11T18:00	12217	201	-53.7	-70.0	319	30
2023-08-11T18:00	12244	200	-53.0	-72.0	320	29
2023-08-11T18:00	12268	199	-52.6	-72.8	321	28
2023-08-11T18:00	12297	198	-52.5	-72.6	322	27
2023-08-11T18:00	12323	198	-52.6	-72.2	323	26
2023-08-11T18:00	12347	197	-52.7	-71.7	324	25
2023-08-11T18:00	12375	196	-52.6	-71.0	324	25
2023-08-11T18:00	12399	195	-52.7	-70.6	324	24
2023-08-11T18:00	12423	195	-52.9	-70.4	323	23
2023-08-11T18:00	12451	194	-53.1	-70.4	322	22
2023-08-11T18:00	12478	193	-53.1	-70.1	322	21
2023-08-11T18:00	12496	192	-53.2	-70.2	321	21
2023-08-11T18:00	12516	192	-53.3	-70.4	321	21
2023-08-11T18:00	12534	191	-53.2	-70.4	321	21
2023-08-11T18:00	12552	191	-53.4	-70.5	321	21
2023-08-11T18:00	12575	190	-53.5	-70.6	321	22
2023-08-11T18:00	12596	189	-53.6	-70.8	321	22
2023-08-11T18:00	12617	189	-53.5	-70.8	321	22
2023-08-11T18:00	12638	188	-53.4	-71.0	321	21
2023-08-11T18:00	12661	187	-53.4	-71.1	320	21
2023-08-11T18:00	12682	187	-53.4	-71.1	320	20
2023-08-11T18:00	12702	186	-53.2	-71.1	321	19
2023-08-11T18:00	12724	186	-53.1	-71.6	321	19
2023-08-11T18:00	12743	185	-52.8	-72.4	322	18
2023-08-11T18:00	12763	185	-52.3	-73.3	323	18
2023-08-11T18:00	12783	184	-51.8	-74.1	323	18
2023-08-11T18:00	12805	183	-51.5	-74.7	324	18
2023-08-11T18:00	12826	183	-51.3	-75.3	324	18
2023-08-11T18:00	12844	182	-51.1	-75.3	324	18
2023-08-11T18:00	12866	182	-51.3	-75.4	324	18
2023-08-11T18:00	12890	181	-51.5	-75.6	323	17
2023-08-11T18:00	12910	180	-51.6	-75.9	323	17
2023-08-11T18:00	12933	180	-51.2	-76.2	322	16
2023-08-11T18:00	12960	179	-50.5	-76.3	322	15
2023-08-11T18:00	12981	178	-50.3	-76.6	322	15
2023-08-11T18:00	13005	178	-50.2	-76.8	322	14
2023-08-11T18:00	13027	177	-50.4	-76.9	322	14
2023-08-11T18:00	13048	177	-50.5	-77.0	321	14
2023-08-11T18:00	13068	176	-50.6	-77.1	320	14
2023-08-11T18:00	13091	175	-50.6	-77.1	318	14
2023-08-11T18:00	13111	175	-50.7	-77.2	317	13
2023-08-11T18:00	13131	174	-50.8	-77.3	315	13
2023-08-11T18:00	13152	174	-51.0	-77.4	314	13
2023-08-11T18:00	13173	173	-51.2	-77.3	312	14
2023-08-11T18:00	13194	173	-51.4	-77.5	311	14
2023-08-11T18:00	13218	172	-51.5	-77.5	310	14
2023-08-11T18:00	13241	171	-51.5	-77.3	310	14
2023-08-11T18:00	13263	171	-51.2	-77.1	310	14
2023-08-11T18:00	13285	170	-51.2	-77.3	311	14
2023-08-11T18:00	13305	170	-51.2	-77.6	312	14
2023-08-11T18:00	13328	169	-51.1	-77.8	313	14
2023-08-11T18:00	13348	169	-51.1	-78.0	314	15
2023-08-11T18:00	13372	168	-51.1	-78.0	314	15
2023-08-11T18:00	13394	167	-51.1	-78.0	314	15
2023-08-11T18:00	13418	167	-51.1	-78.3	314	15
2023-08-11T18:00	13436	166	-51.2	-78.4	314	15
2023-08-11T18:00	13458	166	-51.3	-78.5	314	15
2023-08-11T18:00	13480	165	-51.4	-78.5	314	15
2023-08-11T18:00	13502	165	-51.4	-78.3	314	14
2023-08-11T18:00	13523	164	-51.4	-77.7	313	14
2023-08-11T18:00	13543	164	-51.5	-77.5	311	14
2023-08-11T18:00	13567	163	-51.5	-77.5	310	15
2023-08-11T18:00	13587	163	-51.5	-77.8	309	15
2023-08-11T18:00	13608	162	-51.5	-78.1	308	15
2023-08-11T18:00	13634	161	-51.6	-78.4	308	15
2023-08-11T18:00	13656	161	-51.8	-78.6	309	15
2023-08-11T18:00	13679	160	-51.9	-78.6	310	14
2023-08-11T18:00	13707	160	-51.8	-78.6	312	14
2023-08-11T18:00	13730	159	-51.8	-78.6	313	13
2023-08-11T18:00	13753	158	-51.8	-78.6	315	13
2023-08-11T18:00	13774	158	-51.9	-78.6	315	13
2023-08-11T18:00	13796	157	-52.1	-78.8	314	12
2023-08-11T18:00	13818	157	-52.2	-78.9	313	12
2023-08-11T18:00	13841	156	-52.4	-79.0	312	12
2023-08-11T18:00	13864	156	-52.5	-79.1	310	13
2023-08-11T18:00	13888	155	-52.6	-79.2	310	13
2023-08-11T18:00	13911	155	-52.7	-79.3	310	12
2023-08-11T18:00	13934	154	-52.9	-79.4	312	12
2023-08-11T18:00	13960	153	-53.0	-79.5	314	12
2023-08-11T18:00	13988	153	-53.0	-79.5	316	12
2023-08-11T18:00	14014	152	-53.1	-79.6	317	11
2023-08-11T18:00	14038	152	-53.0	-79.5	317	11
2023-08-11T18:00	14061	151	-53.2	-79.7	317	11
2023-08-11T18:00	14085	151	-53.4	-79.8	316	11
2023-08-11T18:00	14109	150	-53.5	-79.9	314	11
2023-08-11T18:00	14132	149	-53.6	-80.0	312	12
2023-08-11T18:00	14155	149	-53.7	-80.0	311	12
2023-08-11T18:00	14179	148	-53.7	-80.0	310	12
2023-08-11T18:00	14200	148	-53.5	-79.9	310	11
2023-08-11T18:00	14222	147	-53.5	-80.2	310	11
2023-08-11T18:00	14243	147	-53.4	-80.4	310	11
2023-08-11T18:00	14264	146	-53.5	-80.5	310	11
2023-08-11T18:00	14286	146	-53.5	-80.5	309	11
2023-08-11T18:00	14308	145	-53.6	-80.5	309	11
2023-08-11T18:00	14329	145	-53.7	-80.6	308	11
2023-08-11T18:00	14351	144	-53.8	-80.7	308	11
2023-08-11T18:00	14372	144	-54.0	-80.6	308	12
2023-08-11T18:00	14394	143	-54.1	-80.6	308	12
2023-08-11T18:00	14417	143	-54.3	-80.8	308	12
2023-08-11T18:00	14439	142	-54.5	-80.9	308	12
2023-08-11T18:00	14458	142	-54.7	-81.1	307	13
2023-08-11T18:00	14478	142	-54.8	-81.2	306	13
2023-08-11T18:00	14500	141	-54.7	-81.1	305	13
2023-08-11T18:00	14521	141	-54.6	-81.3	304	13
2023-08-11T18:00	14540	140	-54.5	-81.2	303	13
2023-08-11T18:00	14561	140	-54.4	-81.2	302	13
2023-08-11T18:00	14583	139	-54.4	-81.5	302	14
2023-08-11T18:00	14603	139	-54.5	-81.5	303	14
2023-08-11T18:00	14628	138	-54.5	-81.5	305	14
2023-08-11T18:00	14651	138	-54.4	-81.5	308	14
2023-08-11T18:00	14674	137	-54.4	-81.5	311	14
2023-08-11T18:00	14698	137	-54.5	-81.5	313	14
2023-08-11T18:00	14721	136	-54.5	-81.5	314	14
2023-08-11T18:00	14742	136	-54.4	-81.5	315	13
2023-08-11T18:00	14766	135	-54.5	-81.2	314	13
2023-08-11T18:00	14789	135	-54.5	-81.2	313	13
2023-08-11T18:00	14809	134	-54.6	-81.3	312	12
2023-08-11T18:00	14833	134	-54.8	-81.5	311	12
2023-08-11T18:00	14854	134	-54.8	-81.5	309	12
2023-08-11T18:00	14878	133	-54.9	-81.5	309	12
2023-08-11T18:00	14901	133	-54.9	-81.5	308	12
2023-08-11T18:00	14923	132	-54.9	-81.5	309	12
2023-08-11T18:00	14945	132	-54.9	-81.5	311	12
2023-08-11T18:00	14967	131	-54.9	-81.5	313	11
2023-08-11T18:00	14990	131	-54.9	-81.3	316	11
2023-08-11T18:00	15009	130	-55.0	-81.3	318	11
2023-08-11T18:00	15035	130	-55.0	-81.3	320	10
2023-08-11T18:00	15057	129	-54.9	-81.3	321	10
2023-08-11T18:00	15080	129	-54.8	-81.2	322	10
2023-08-11T18:00	15099	128	-54.8	-81.2	322	10
2023-08-11T18:00	15122	128	-55.0	-81.3	322	10
2023-08-11T18:00	15142	128	-55.2	-81.5	322	11
2023-08-11T18:00	15165	127	-55.2	-81.5	322	11
2023-08-11T18:00	15185	127	-55.0	-81.3	321	12
2023-08-11T18:00	15208	126	-54.9	-81.3	321	12
2023-08-11T18:00	15230	126	-54.9	-81.3	321	12
2023-08-11T18:00	15250	125	-54.9	-81.3	320	13
2023-08-11T18:00	15273	125	-55.0	-81.3	320	13
2023-08-11T18:00	15293	125	-55.1	-81.4	321	13
2023-08-11T18:00	15315	124	-55.2	-81.5	321	13
2023-08-11T18:00	15336	124	-55.2	-81.5	322	12
2023-08-11T18:00	15357	123	-55.2	-81.5	323	12
2023-08-11T18:00	15383	123	-55.3	-81.6	323	12
2023-08-11T18:00	15406	122	-55.4	-81.6	323	11
2023-08-11T18:00	15428	122	-55.4	-81.6	321	11
2023-08-11T18:00	15449	122	-55.6	-81.8	320	10
2023-08-11T18:00	15474	121	-55.8	-82.0	318	10
2023-08-11T18:00	15496	121	-56.0	-82.1	316	10
2023-08-11T18:00	15518	120	-56.1	-82.2	315	10
2023-08-11T18:00	15540	120	-56.2	-82.3	314	10
2023-08-11T18:00	15562	119	-56.2	-82.6	314	9
2023-08-11T18:00	15584	119	-56.1	-82.8	314	9
2023-08-11T18:00	15609	119	-56.0	-82.7	314	9
2023-08-11T18:00	15631	118	-55.8	-82.9	312	8
2023-08-11T18:00	15650	118	-55.7	-82.8	309	8
2023-08-11T18:00	15674	117	-55.3	-82.8	306	8
2023-08-11T18:00	15696	117	-55.3	-82.8	305	8
2023-08-11T18:00	15718	117	-55.4	-82.9	306	7
2023-08-11T18:00	15743	116	-55.4	-82.9	308	7
2023-08-11T18:00	15763	116	-55.2	-82.7	312	7
2023-08-11T18:00	15789	115	-55.2	-82.7	316	7
2023-08-11T18:00	15809	115	-55.3	-82.8	319	7
2023-08-11T18:00	15833	115	-55.4	-82.6	320	7
2023-08-11T18:00	15856	114	-55.5	-82.6	321	7
2023-08-11T18:00	15878	114	-55.6	-82.7	320	6
2023-08-11T18:00	15903	113	-55.7	-82.8	319	6
2023-08-11T18:00	15925	113	-55.8	-82.9	318	6
2023-08-11T18:00	15948	112	-55.7	-82.8	315	5
2023-08-11T18:00	15975	112	-55.6	-82.7	310	5
2023-08-11T18:00	15996	112	-55.7	-82.8	304	5
2023-08-11T18:00	16022	111	-55.9	-82.9	298	5
2023-08-11T18:00	16044	111	-56.0	-83.0	293	5
2023-08-11T18:00	16066	110	-56.1	-83.1	288	5
2023-08-11T18:00	16086	110	-56.2	-82.9	285	6
2023-08-11T18:00	16114	110	-56.3	-82.9	282	6
2023-08-11T18:00	16134	109	-56.5	-83.1	280	6
2023-08-11T18:00	16154	109	-56.6	-83.2	279	7
2023-08-11T18:00	16180	108	-56.7	-83.2	278	7
2023-08-11T18:00	16201	108	-56.9	-83.1	279	8
2023-08-11T18:00	16225	108	-57.0	-83.2	280	8
2023-08-11T18:00	16248	107	-57.2	-83.3	282	9
2023-08-11T18:00	16271	107	-57.3	-83.7	284	9
2023-08-11T18:00	16293	107	-57.3	-83.7	285	9
2023-08-11T18:00	16316	106	-56.8	-83.6	286	9
2023-08-11T18:00	16340	106	-56.5	-83.4	285	8
2023-08-11T18:00	16363	105	-56.4	-83.3	283	7
2023-08-11T18:00	16385	105	-56.4	-83.3	280	7
2023-08-11T18:00	16410	105	-56.5	-83.4	276	7
2023-08-11T18:00	16430	104	-56.6	-83.5	273	6
2023-08-11T18:00	16454	104	-56.7	-83.6	271	6
2023-08-11T18:00	16476	103	-56.8	-83.3	269	6
2023-08-11T18:00	16499	103	-57.0	-83.5	269	7
2023-08-11T18:00	16524	103	-57.1	-83.5	269	7
2023-08-11T18:00	16543	102	-57.0	-83.5	271	7
2023-08-11T18:00	16567	102	-57.2	-83.6	274	7
2023-08-11T18:00	16586	102	-57.3	-83.7	278	8
2023-08-11T18:00	16606	101	-57.3	-83.7	281	8
2023-08-11T18:00	16632	101	-57.2	-83.6	284	8
2023-08-11T18:00	16652	101	-56.9	-83.4	286	9
2023-08-11T18:00	16672	100	-56.8	-83.6	288	9
2023-08-11T18:00	16694	100	-56.7	-83.6	291	10
2023-08-11T18:00	16718	100	-56.5	-83.4	295	10
2023-08-11T18:00	16738	99	-56.6	-83.8	299	10
2023-08-11T18:00	16760	99	-56.6	-83.8	305	10
2023-08-11T18:00	16780	99	-56.4	-83.7	309	9
2023-08-11T18:00	16806	98	-56.1	-83.8	313	9
2023-08-11T18:00	16822	98	-55.8	-83.6	316	8
2023-08-11T18:00	16845	98	-55.5		317	7
2023-08-11T18:00	16864	97	-55.5		317	7
2023-08-11T18:00	16888	97	-55.3	-83.2	317	6
2023-08-11T18:00	16908	97	-55.2	-83.1	317	6
2023-08-11T18:00	16929	96	-55.3	-83.2	319	6
2023-08-11T18:00	16952	96	-55.5		321	6
2023-08-11T18:00	16975	96	-55.7	-83.1	323	5
2023-08-11T18:00	16996	95	-55.8	-83.2	325	5
2023-08-11T18:00	17019	95	-55.9	-82.9	327	5
2023-08-11T18:00	17042	95	-56.1	-83.1	329	4
2023-08-11T18:00	17067	94	-56.2	-83.2	331	4
2023-08-11T18:00	17087	94	-56.2	-83.2	333	3
2023-08-11T18:00	17107	94	-56.2	-83.2	337	3
2023-08-11T18:00	17133	93	-56.2	-83.2	341	3
2023-08-11T18:00	17155	93	-56.2	-83.5	346	3
2023-08-11T18:00	17177	93	-56.0	-83.4	350	3
2023-08-11T18:00	17201	92	-55.9	-83.3	353	3
2023-08-11T18:00	17226	92	-55.8	-83.2	352	3
2023-08-11T18:00	17246	92	-55.9	-83.3	349	4
2023-08-11T18:00	17269	91	-56.0	-83.4	345	4
2023-08-11T18:00	17292	91	-56.1	-83.4	341	4
2023-08-11T18:00	17317	91	-56.2	-83.5	338	5
2023-08-11T18:00	17341	90	-56.1	-83.4	336	5
2023-08-11T18:00	17366	90	-56.1	-83.4	335	5
2023-08-11T18:00	17388	90	-56.2	-83.5	335	4
2023-08-11T18:00	17412	89	-55.9	-83.3	336	4
2023-08-11T18:00	17439	89	-55.8	-83.2	336	3
2023-08-11T18:00	17461	89	-55.9	-83.3	336	3
2023-08-11T18:00	17487	88	-56.1	-83.4	336	2
2023-08-11T18:00	17511	88	-56.3	-83.6	332	2
2023-08-11T18:00	17537	88	-56.6	-83.5	323	1
2023-08-11T18:00	17559	87	-56.7	-83.6	297	1
2023-08-11T18:00	17583	87	-56.7	-83.9	251	1
2023-08-11T18:00	17610	87	-56.3	-83.6	222	1
2023-08-11T18:00	17633	86	-56.2	-83.9	211	2
2023-08-11T18:00	17657	86	-55.9	-83.6	207	2
2023-08-11T18:00	17681	86	-55.6	-83.4	207	3
2023-08-11T18:00	17706	85	-55.7	-83.5	208	2
2023-08-11T18:00	17729	85	-55.9	-83.6	209	2
2023-08-11T18:00	17751	85	-56.1	-83.4	211	1
2023-08-11T18:00	17776	84	-56.3	-83.6	213	1
2023-08-11T18:00	17799	84	-56.2	-83.5	36	0
2023-08-11T18:00	17828	84	-56.1	-83.4	38	1
2023-08-11T18:00	17854	83	-56.3	-83.6	41	2
2023-08-11T18:00	17881	83	-56.0	-83.7	44	2
2023-08-11T18:00	17903	83	-55.9	-83.6	48	2
2023-08-11T18:00	17924	82	-55.9	-83.6	52	2
2023-08-11T18:00	17946	82	-56.0	-83.7	56	2
2023-08-11T18:00	17972	82	-55.7	-83.5	61	2
2023-08-11T18:00	17994	81	-55.7	-83.5	65	1
2023-08-11T18:00	18018	81	-55.8	-83.6	66	1
2023-08-11T18:00	18045	81	-56.0	-83.7	51	0
2023-08-11T18:00	18067	81	-56.2	-83.9	9	0
2023-08-11T18:00	18091	80	-56.2	-83.9	351	1
2023-08-11T18:00	18113	80	-56.0	-83.7	349	1
2023-08-11T18:00	18138	80	-55.8	-83.6	351	1
2023-08-11T18:00	18163	79	-55.6	-83.4	352	2
2023-08-11T18:00	18186	79	-55.7	-83.5	353	2
2023-08-11T18:00	18207	79	-55.9	-83.6	356	2
2023-08-11T18:00	18230	79	-56.0	-83.7	1	2
2023-08-11T18:00	18254	78	-56.2	-83.9	9	2
2023-08-11T18:00	18279	78	-56.2	-83.9	20	2
2023-08-11T18:00	18299	78	-55.8	-83.9	30	2
2023-08-11T18:00	18325	77	-55.6	-83.8	36	2
2023-08-11T18:00	18345	77	-55.7	-83.9	41	2
2023-08-11T18:00	18372	77	-55.8	-83.9	47	2
2023-08-11T18:00	18396	77	-55.7	-83.9	58	2
2023-08-11T18:00	18414	76	-55.8	-83.9	77	2
2023-08-11T18:00	18434	76	-55.4	-83.6	98	2
2023-08-11T18:00	18462	76	-55.3	-83.6	115	2
2023-08-11T18:00	18487	75	-55.3	-83.6	127	3
2023-08-11T18:00	18507	75	-55.3	-83.6	137	3
2023-08-11T18:00	18534	75	-55.5	-83.7	145	3
2023-08-11T18:00	18557	75	-55.5	-83.7	152	3
2023-08-11T18:00	18577	74	-55.4	-83.6	157	3
2023-08-11T18:00	18602	74	-55.3	-83.6	159	4
2023-08-11T18:00	18625	74	-55.2	-83.5	160	3
2023-08-11T18:00	18646	74	-55.2	-83.5	160	3
2023-08-11T18:00	18673	73	-55.3	-83.6	160	3
2023-08-11T18:00	18697	73	-55.4	-83.6	161	3
2023-08-11T18:00	18722	73	-55.5	-83.7	162	2
2023-08-11T18:00	18746	72	-55.6	-83.8	161	2
2023-08-11T18:00	18768	72	-55.7	-83.9	158	1
2023-08-11T18:00	18790	72	-55.7	-83.9	151	1
2023-08-11T18:00	18817	72	-55.7	-83.9	149	1
2023-08-11T18:00	18842	71	-55.7	-83.9	153	1
2023-08-11T18:00	18867	71	-55.6	-83.8	160	2
2023-08-11T18:00	18890	71	-55.6	-83.8	168	2
2023-08-11T18:00	18917	71	-55.8	-83.6	176	3
2023-08-11T18:00	18939	70	-56.0	-83.7	182	3
2023-08-11T18:00	18965	70	-56.3	-83.9	187	3
2023-08-11T18:00	18990	70	-56.4	-84.0	190	3
2023-08-11T18:00	19011	69	-56.6	-84.2	191	3
2023-08-11T18:00	19038	69	-56.7	-84.2	188	3
2023-08-11T18:00	19063	69	-56.6	-84.2	182	2
2023-08-11T18:00	19084	69	-56.6	-84.2	175	2
2023-08-11T18:00	19107	68	-56.7	-84.2	170	2
2023-08-11T18:00	19134	68	-56.8	-84.3	170	2
2023-08-11T18:00	19155	68	-56.9	-84.4	175	2
2023-08-11T18:00	19182	68	-57.0	-84.5	183	2
2023-08-11T18:00	19209	67	-56.8	-84.3	192	2
2023-08-11T18:00	19229	67	-56.9	-84.4	202	2
2023-08-11T18:00	19252	67	-56.8	-84.7	214	2
2023-08-11T18:00	19273	67	-56.6	-84.5	229	2
2023-08-11T18:00	19300	66	-56.4	-84.4	247	2
2023-08-11T18:00	19323	66	-56.2	-84.2	268	2
2023-08-11T18:00	19345	66	-56.2	-84.2	289	2
2023-08-11T18:00	19369	66	-56.2	-84.6	311	2
2023-08-11T18:00	19392	65	-56.0	-84.5	333	2
2023-08-11T18:00	19418	65	-55.7	-84.3	353	3
2023-08-11T18:00	19441	65	-55.6	-84.2	9	3
2023-08-11T18:00	19469	65	-55.6	-84.2	21	3
2023-08-11T18:00	19490	64	-55.7	-84.3	31	3
2023-08-11T18:00	19515	64	-55.7	-84.3	39	3
2023-08-11T18:00	19538	64	-55.6	-84.2	48	3
2023-08-11T18:00	19561	64	-55.1	-83.8	60	3
2023-08-11T18:00	19582	63	-55.1	-83.8	73	2
2023-08-11T18:00	19606	63	-55.0	-83.7	89	2
2023-08-11T18:00	19628	63	-55.0	-83.7	107	1
2023-08-11T18:00	19652	63	-54.9	-83.7	127	1
2023-08-11T18:00	19676	63	-54.8	-83.6	147	1
2023-08-11T18:00	19700	62	-54.7	-83.5	162	1
2023-08-11T18:00	19724	62	-54.7	-83.5	169	1
2023-08-11T18:00	19744	62	-54.7	-83.5	169	1
2023-08-11T18:00	19770	62	-54.6	-83.4	156	1
2023-08-11T18:00	19788	61	-54.6	-83.4	99	0
2023-08-11T18:00	19813	61	-54.5	-83.4	48	1
2023-08-11T18:00	19841	61	-54.5	-83.4	33	1
2023-08-11T18:00	19860	61	-54.4	-83.3	27	1
2023-08-11T18:00	19882	61	-54.5	-83.4	24	2
2023-08-11T18:00	19905	60	-54.6	-83.4	25	2
2023-08-11T18:00	19928	60	-54.7	-83.5	28	3
2023-08-11T18:00	19950	60	-54.8	-83.6	33	3
2023-08-11T18:00	19978	60	-54.8	-83.6	40	3
2023-08-11T18:00	20002	59	-54.6	-83.4	50	3
2023-08-11T18:00	20021	59	-54.3	-83.6	60	4
2023-08-11T18:00	20046	59	-54.1	-83.5	70	4
2023-08-11T18:00	20069	59	-54.3	-83.6	78	4
2023-08-11T18:00	20096	59	-54.4	-83.7	83	5
2023-08-11T18:00	20114	58	-54.4	-83.7	87	5
2023-08-11T18:00	20144	58	-54.3	-83.6	89	5
2023-08-11T18:00	20165	58	-54.2	-83.6	90	4
2023-08-11T18:00	20190	58	-54.1	-83.5	90	4
2023-08-11T18:00	20211	58	-53.9	-83.3	90	4
2023-08-11T18:00	20231	57	-53.7	-83.2	90	3
2023-08-11T18:00	20257	57	-53.6	-83.1	90	3
2023-08-11T18:00	20285	57	-53.4	-83.4	89	3
2023-08-11T18:00	20308	57	-53.0	-83.1	86	3
2023-08-11T18:00	20331	57	-52.9	-83.1	82	3
2023-08-11T18:00	20356	56	-52.8	-83.0	78	3
2023-08-11T18:00	20377	56	-52.6	-82.8	76	4
2023-08-11T18:00	20401	56	-52.5	-82.8	78	4
2023-08-11T18:00	20428	56	-52.4	-82.7	84	4
2023-08-11T18:00	20452	55	-52.2	-82.5	94	4
2023-08-11T18:00	20473	55	-51.9	-82.3	106	4
2023-08-11T18:00	20499	55	-51.8	-82.2	115	5
2023-08-11T18:00	20527	55	-51.8	-82.2	122	6
2023-08-11T18:00	20552	55	-51.8	-82.2	127	7
2023-08-11T18:00	20580	54	-51.9	-82.3	129	7
2023-08-11T18:00	20604	54	-52.0	-82.4	131	8
2023-08-11T18:00	20624	54	-52.1	-82.5	132	8
2023-08-11T18:00	20655	54	-52.2	-82.5	132	9
2023-08-11T18:00	20679	54	-51.8	-82.2	131	8
2023-08-11T18:00	20704	53	-51.7	-82.2	131	8
2023-08-11T18:00	20730	53	-51.8	-82.2	130	7
2023-08-11T18:00	20755	53	-51.9	-82.3	130	7
2023-08-11T18:00	20786	53	-51.9	-82.3	132	6
2023-08-11T18:00	20806	52	-52.0	-81.9	136	6
2023-08-11T18:00	20838	52	-52.1	-82.0	141	6
2023-08-11T18:00	20855	52	-52.1	-82.0	147	6
2023-08-11T18:00	20886	52	-52.2	-82.1	151	6
2023-08-11T18:00	20909	52	-52.3	-82.1	155	7
2023-08-11T18:00	20937	51	-52.3	-82.1	156	7
2023-08-11T18:00	20960	51	-52.5	-82.3	157	7
2023-08-11T18:00	20988	51	-52.6	-82.4	156	7
2023-08-11T18:00	21010	51	-52.7	-82.4	156	7
2023-08-11T18:00	21043	51	-52.7	-82.4	156	7
2023-08-11T18:00	21064	50	-52.6	-82.4	156	6
2023-08-11T18:00	21093	50	-52.6	-82.4	155	6
2023-08-11T18:00	21120	50	-52.6	-82.4	153	5
2023-08-11T18:00	21143	50	-52.6	-82.4	150	5
2023-08-11T18:00	21167	50	-52.7	-82.4	147	4
2023-08-11T18:00	21201	49	-52.7	-82.4	143	4
2023-08-11T18:00	21215	49	-52.8	-82.5	141	3
2023-08-11T18:00	21245	49	-52.9	-82.6	138	3
2023-08-11T18:00	21267	49	-53.0	-82.7	135	2
2023-08-11T18:00	21293	49	-53.1	-82.7	128	2
2023-08-11T18:00	21324	48	-53.3	-82.9	118	2
2023-08-11T18:00	21341	48	-53.4	-83.0	105	2
2023-08-11T18:00	21371	48	-53.3	-82.9	94	2
2023-08-11T18:00	21392	48	-53.3	-82.9	86	2
2023-08-11T18:00	21419	48	-53.3	-82.9	83	3
2023-08-11T18:00	21439	48	-53.3	-82.9	83	3
2023-08-11T18:00	21467	47	-53.3	-82.9	85	4
2023-08-11T18:00	21491	47	-53.3	-82.9	88	4
2023-08-11T18:00	21515	47	-53.2	-82.8	92	4
2023-08-11T18:00	21539	47	-53.1	-82.7	96	4
2023-08-11T18:00	21570	47	-53.0	-82.7	101	4
2023-08-11T18:00	21594	46	-52.9	-82.6	107	4
2023-08-11T18:00	21618	46	-52.9	-82.6	114	4
2023-08-11T18:00	21644	46	-52.9	-82.6	121	4
2023-08-11T18:00	21671	46	-53.1	-82.7	125	4
2023-08-11T18:00	21692	46	-53.2	-82.8	126	3
2023-08-11T18:00	21719	46	-53.4	-83.0	123	3
2023-08-11T18:00	21744	45	-53.5	-82.6	115	2
2023-08-11T18:00	21769	45	-53.5	-82.6	101	2
2023-08-11T18:00	21789	45	-53.5	-83.0	85	2
2023-08-11T18:00	21812	45	-53.5	-83.0	74	2
2023-08-11T18:00	21844	45	-53.6	-82.7	68	2
2023-08-11T18:00	21868	45	-53.7	-82.8	68	2
2023-08-11T18:00	21891	44	-53.7	-82.8	70	2
2023-08-11T18:00	21917	44	-53.8	-83.3	71	2
2023-08-11T18:00	21943	44	-53.7	-83.2	71	2
2023-08-11T18:00	21974	44	-53.7	-83.2	71	3
2023-08-11T18:00	21998	44	-53.8	-83.3	72	4
2023-08-11T18:00	22018	44	-54.0	-83.4	73	4
2023-08-11T18:00	22043	43	-54.0	-83.4	75	4
2023-08-11T18:00	22070	43	-54.0	-83.4	77	5
2023-08-11T18:00	22100	43	-53.9	-83.3	80	5
2023-08-11T18:00	22118	43	-54.0	-83.4	84	4
2023-08-11T18:00	22152	43	-53.8	-83.3	88	4
2023-08-11T18:00	22172	42	-53.6	-83.1	93	4
2023-08-11T18:00	22195	42	-53.5	-83.0	98	4
2023-08-11T18:00	22225	42	-53.3	-82.9	104	4
2023-08-11T18:00	22255	42	-53.3	-82.9	112	4
2023-08-11T18:00	22280	42	-53.4	-83.0	120	4
2023-08-11T18:00	22301	42	-53.5	-83.0	130	4
2023-08-11T18:00	22331	41	-53.6	-83.1	140	5
2023-08-11T18:00	22357	41	-53.7	-83.2	148	5
2023-08-11T18:00	22380	41	-53.8	-83.3	155	5
2023-08-11T18:00	22406	41	-53.8	-83.3	160	5
2023-08-11T18:00	22429	41	-53.8	-83.3	163	5
2023-08-11T18:00	22453	41	-53.8	-83.3	164	4
2023-08-11T18:00	22476	41	-53.7	-83.2	163	4
2023-08-11T18:00	22500	40	-53.6	-83.1	160	3
2023-08-11T18:00	22525	40	-53.7	-83.2	153	3
2023-08-11T18:00	22555	40	-53.6	-83.1	142	2
2023-08-11T18:00	22577	40	-53.6	-83.1	129	2
2023-08-11T18:00	22598	40	-53.4	-83.0	116	2
2023-08-11T18:00	22624	40	-53.4	-83.0	106	3
2023-08-11T18:00	22658	39	-53.3	-82.9	99	3
2023-08-11T18:00	22672	39	-53.3	-82.9	94	4
2023-08-11T18:00	22702	39	-53.4	-83.0	92	5
2023-08-11T18:00	22720	39	-53.4	-83.0	91	5
2023-08-11T18:00	22749	39	-53.4	-83.0	91	5
2023-08-11T18:00	22771	39	-53.5	-83.0	92	5
2023-08-11T18:00	22799	39	-53.6	-83.1	93	5
2023-08-11T18:00	22823	38	-53.6	-83.1	94	6
2023-08-11T18:00	22843	38	-53.5	-83.0	94	6
2023-08-11T18:00	22867	38	-53.2	-83.3	94	6
2023-08-11T18:00	22893	38	-53.0	-83.1	94	6
2023-08-11T18:00	22917	38	-52.8	-83.0	95	5
2023-08-11T18:00	22945	38	-52.6	-82.8	99	5
2023-08-11T18:00	22968	38	-52.5	-82.8	103	5
2023-08-11T18:00	22991	37	-52.4	-82.7	108	5
2023-08-11T18:00	23015	37	-52.4	-82.7	112	5
2023-08-11T18:00	23040	37	-52.3	-82.6	115	5
2023-08-11T18:00	23064	37	-52.3	-82.6	116	5
2023-08-11T18:00	23084	37	-52.2	-82.5	118	5
2023-08-11T18:00	23112	37	-51.9	-82.8	120	5
2023-08-11T18:00	23136	37	-51.8	-82.8	122	5
2023-08-11T18:00	23159	36	-51.5	-82.5	125	5
2023-08-11T18:00	23184	36	-51.3	-82.4	127	5
2023-08-11T18:00	23216	36	-51.3	-82.4	125	5
2023-08-11T18:00	23237	36	-51.3	-82.4	121	5
2023-08-11T18:00	23268	36	-51.2	-82.3	114	4
2023-08-11T18:00	23283	36	-51.1	-82.2	106	4
2023-08-11T18:00	23310	36	-51.1	-82.2	100	4
2023-08-11T18:00	23340	35	-51.0	-82.2	98	4
2023-08-11T18:00	23364	35	-50.8	-82.0	98	3
2023-08-11T18:00	23398	35	-50.8	-82.0	99	3
2023-08-11T18:00	23423	35	-50.7		100	3
2023-08-11T18:00	23445	35	-50.8	-81.5	99	2
2023-08-11T18:00	23470	35	-50.9	-81.6	95	2
2023-08-11T18:00	23492	35	-51.0	-81.6	89	2
2023-08-11T18:00	23523	34	-51.0	-81.6	84	3
2023-08-11T18:00	23555	34	-50.9	-81.6	82	3
2023-08-11T18:00	23580	34	-51.0	-81.6	82	4
2023-08-11T18:00	23608	34	-51.0	-81.6	82	4
2023-08-11T18:00	23635	34	-51.1	-81.7	81	4
2023-08-11T18:00	23664	34	-51.2	-81.8	80	5
2023-08-11T18:00	23690	34	-51.3	-81.9	78	5
2023-08-11T18:00	23716	33	-51.4	-81.9	75	4
2023-08-11T18:00	23742	33	-51.5	-82.0	71	4
2023-08-11T18:00	23770	33	-51.6	-82.1	67	4
2023-08-11T18:00	23796	33	-51.6	-82.1	63	4
2023-08-11T18:00	23822	33	-51.7	-82.2	60	4
2023-08-11T18:00	23853	33	-51.5	-82.0	57	4
2023-08-11T18:00	23886	33	-51.5	-82.0	54	4
2023-08-11T18:00	23907	32	-51.7	-82.2	51	4
2023-08-11T18:00	23936	32	-51.8	-82.2	49	4
2023-08-11T18:00	23969	32	-51.9	-82.3	47	4
2023-08-11T18:00	23995	32	-52.0	-82.4	45	3
2023-08-11T18:00	24016	32	-51.9	-82.3	43	3
2023-08-11T18:00	24046	32	-51.8	-82.2	41	3
2023-08-11T18:00	24077	32	-51.8	-82.2	39	3
2023-08-11T18:00	24099	32	-51.8	-82.2	39	4
2023-08-11T18:00	24127	31	-51.9	-82.3	42	4
2023-08-11T18:00	24156	31	-52.0	-82.4	48	4
2023-08-11T18:00	24185	31	-52.0	-82.4	56	4
2023-08-11T18:00	24216	31	-52.1	-82.5	67	4
2023-08-11T18:00	24238	31	-52.2	-82.1	76	4
2023-08-11T18:00	24268	31	-52.4	-82.2	85	4
2023-08-11T18:00	24300	31	-52.6	-82.4	92	4
2023-08-11T18:00	24327	30	-52.7	-82.4	98	4
2023-08-11T18:00	24354	30	-52.8	-82.5	104	4
2023-08-11T18:00	24380	30	-53.0	-82.7	108	5
2023-08-11T18:00	24408	30	-53.0	-82.7	111	5
2023-08-11T18:00	24430	30	-52.9	-82.6	113	5
2023-08-11T18:00	24462	30	-52.8	-83.0	115	5
2023-08-11T18:00	24487	30	-52.7	-82.9	117	5
2023-08-11T18:00	24523	30	-52.6	-82.8	119	4
2023-08-11T18:00	24541	29	-52.7	-82.9	122	4
2023-08-11T18:00	24570	29	-52.5	-82.8	127	3
2023-08-11T18:00	24596	29	-52.2	-82.5	135	2
2023-08-11T18:00	24616	29	-52.0	-82.9	150	1
2023-08-11T18:00	24653	29	-51.8	-82.8	182	1
2023-08-11T18:00	24676	29	-51.8	-82.8	218	1
2023-08-11T18:00	24703	29	-51.5	-82.5	237	0
2023-08-11T18:00	24727	29	-51.5	-82.5	242	0
2023-08-11T18:00	24757	29	-51.5	-82.5	76	0
2023-08-11T18:00	24782	28	-51.5	-82.5	73	0
2023-08-11T18:00	24809	28	-51.4	-82.5	76	1
2023-08-11T18:00	24834	28	-51.5	-82.0	84	1
2023-08-11T18:00	24862	28	-51.5	-82.0	96	1
2023-08-11T18:00	24893	28	-51.6	-82.1	109	2
2023-08-11T18:00	24911	28	-51.6	-82.1	120	2
2023-08-11T18:00	24943	28	-51.6	-82.1	127	2
2023-08-11T18:00	24972	28	-51.5	-82.0	131	2
2023-08-11T18:00	25002	27	-51.7	-82.2	130	2
2023-08-11T18:00	25025	27	-51.7	-82.7	121	2
2023-08-11T18:00	25056	27	-51.5	-82.5	95	1
2023-08-11T18:00	25076	27	-51.2	-82.3	60	1
2023-08-11T18:00	25105	27	-51.1	-82.2	40	2
2023-08-11T18:00	25133	27	-50.9	-82.1	33	3
2023-08-11T18:00	25158	27	-50.7		32	3
2023-08-11T18:00	25196	27	-50.5		34	4
2023-08-11T18:00	25220	27	-50.1	-82.1	38	4
2023-08-11T18:00	25243	26	-49.9	-81.9	43	5
2023-08-11T18:00	25279	26	-49.9	-81.9	47	5
2023-08-11T18:00	25302	26	-50.0	-82.0	49	5
2023-08-11T18:00	25327	26	-50.0	-82.0	48	5
2023-08-11T18:00	25355	26	-49.9	-81.9	46	5
2023-08-11T18:00	25387	26	-49.8	-81.8	44	5
2023-08-11T18:00	25412	26	-49.7	-81.8	42	5
2023-08-11T18:00	25434	26	-49.6	-81.7	41	6
2023-08-11T18:00	25471	26	-49.4	-81.6	41	6
2023-08-11T18:00	25493	25	-49.5	-81.6	42	6
2023-08-11T18:00	25528	25	-49.5	-81.6	42	6
2023-08-11T18:00	25555	25	-49.5	-81.6	42	7
2023-08-11T18:00	25584	25	-49.4	-81.6	42	7
2023-08-11T18:00	25602	25	-49.4	-81.6	42	7
2023-08-11T18:00	25635	25	-49.5	-81.1	42	8
2023-08-11T18:00	25659	25	-49.5	-81.1	43	8
2023-08-11T18:00	25688	25	-49.6	-81.1	44	8
2023-08-11T18:00	25717	25	-49.6	-81.1	47	9
2023-08-11T18:00	25740	25	-49.7	-81.2	49	9
2023-08-11T18:00	25765	24	-49.8	-81.3	52	8
2023-08-11T18:00	25793	24	-50.0	-81.4	55	8
2023-08-11T18:00	25822	24	-50.0	-81.4	58	8
2023-08-11T18:00	25840	24	-49.8	-81.3	62	8
2023-08-11T18:00	25871	24	-49.7	-81.2	66	8
2023-08-11T18:00	25909	24	-49.7	-81.2	71	8
2023-08-11T18:00	25929	24	-49.7	-81.2	76	8
2023-08-11T18:00	25958	24	-49.7	-81.2	82	8
2023-08-11T18:00	25987	24	-49.8	-81.3	87	7
2023-08-11T18:00	26012	24	-49.7	-81.2	93	7
2023-08-11T18:00	26030	23	-49.6	-81.1	99	7
2023-08-11T18:00	26062	23	-49.6	-81.1	105	6
2023-08-11T18:00	26088	23	-49.6	-81.1	109	6
2023-08-11T18:00	26117	23	-49.7	-81.2	112	6
2023-08-11T18:00	26136	23	-49.7	-81.2	112	6
2023-08-11T18:00	26163	23	-49.7	-81.2	110	6
2023-08-11T18:00	26204	23	-49.6	-81.1	105	6
2023-08-11T18:00	26220	23	-49.6	-81.1	100	5
2023-08-11T18:00	26247	23	-49.8	-81.3	93	5
2023-08-11T18:00	26272	23	-49.9	-81.3	87	5
2023-08-11T18:00	26299	22	-50.0	-81.4	81	5
2023-08-11T18:00	26334	22	-50.1	-81.5	76	5
2023-08-11T18:00	26363	22	-50.1	-81.5	73	6
2023-08-11T18:00	26391	22	-50.1	-81.5	71	6
2023-08-11T18:00	26409	22	-50.0	-81.4	70	7
2023-08-11T18:00	26440	22	-49.9	-81.9	70	7
2023-08-11T18:00	26467	22	-49.8	-81.8	69	8
2023-08-11T18:00	26498	22	-49.4	-81.6	68	8
2023-08-11T18:00	26534	22	-49.2	-81.4	67	8
2023-08-11T18:00	26553	22	-49.1	-81.3	65	8
2023-08-11T18:00	26591	22	-49.1	-81.3	64	9
2023-08-11T18:00	26610	21	-48.9	-81.2	62	9
2023-08-11T18:00	26635	21	-49.0	-81.3	62	9
2023-08-11T18:00	26664	21	-49.0	-81.3	62	9
2023-08-11T18:00	26681	21	-48.9	-81.2	64	8
2023-08-11T18:00	26713	21	-49.0	-81.3	67	8
2023-08-11T18:00	26748	21	-49.0	-81.3	71	7
2023-08-11T18:00	26779	21	-48.8		77	7
2023-08-11T18:00	26811	21	-48.8		85	6
2023-08-11T18:00	26838	21	-48.9	-81.2	93	6
2023-08-11T18:00	26861	21	-49.0	-81.3	101	6
2023-08-11T18:00	26881	21	-49.1	-81.3	108	6
2023-08-11T18:00	26919	20	-49.2	-80.8	112	6
2023-08-11T18:00	26944	20	-49.3	-80.9	115	5
2023-08-11T18:00	26969	20	-49.3	-81.5	114	5
2023-08-11T18:00	27010	20	-49.3	-81.5	109	4
2023-08-11T18:00	27028	20	-49.1	-81.3	100	4
2023-08-11T18:00	27072	20	-48.5	-80.9	89	4
2023-08-11T18:00	27090	20	-48.4	-80.8	81	5
2023-08-11T18:00	27107	20	-48.4	-80.8	75	5
2023-08-11T18:00	27137	20	-48.4	-81.4	71	6
2023-08-11T18:00	27165	20	-48.2	-81.3	67	7
2023-08-11T18:00	27198	20	-48.1	-81.2	65	8
2023-08-11T18:00	27231	20	-48.1	-81.2	64	8
2023-08-11T18:00	27257	19	-48.0	-81.2	65	9
2023-08-11T18:00	27285	19	-47.8	-81.0	67	10
2023-08-11T18:00	27311	19	-47.7	-80.9	69	10
2023-08-11T18:00	27341	19	-47.6	-80.9	72	10
2023-08-11T18:00	27383	19	-47.5	-80.8	74	10
2023-08-11T18:00	27398	19	-47.4	-80.7	76	10
2023-08-11T18:00	27426	19	-47.2	-80.6	76	9
2023-08-11T18:00	27459	19	-47.1	-80.5	75	9
2023-08-11T18:00	27491	19	-47.0	-80.4	72	9
2023-08-11T18:00	27513	19	-46.7	-80.2	69	9
2023-08-11T18:00	27537	19	-46.3	-80.6	67	9
2023-08-11T18:00	27571	19	-46.0	-80.4	68	10
2023-08-11T18:00	27597	18	-45.7	-80.2	70	10
2023-08-11T18:00	27626	18	-45.5	-80.1	72	11
2023-08-11T18:00	27653	18	-45.2	-79.8	75	11
2023-08-11T18:00	27683	18	-45.2	-79.8	77	12
2023-08-11T18:00	27718	18	-45.2	-79.8	78	12
2023-08-11T18:00	27746	18	-45.2	-79.8	79	13
2023-08-11T18:00	27776	18	-45.1	-79.8	80	13
2023-08-11T18:00	27809	18	-45.1	-79.8	81	13
2023-08-11T18:00	27819	18	-44.7	-79.5	83	14
2023-08-11T18:00	27859	18	-44.5	-79.3	85	14
2023-08-11T18:00	27899	18	-44.7	-79.5	86	14
2023-08-11T18:00	27917	18	-44.9	-79.6	88	13
2023-08-11T18:00	27950	18	-45.0	-79.7	89	13
2023-08-11T18:00	27967	17	-44.8	-79.6	90	13
2023-08-11T18:00	27996	17	-44.7	-79.5	91	12
2023-08-11T18:00	28037	17	-44.6	-79.4	93	12
2023-08-11T18:00	28058	17	-44.6	-79.4	95	12
2023-08-11T18:00	28084	17	-44.6	-79.4	96	12
2023-08-11T18:00	28120	17	-44.6	-79.4	98	11
2023-08-11T18:00	28149	17	-44.5	-79.3	100	11
2023-08-11T18:00	28175	17	-44.3	-79.2	102	10
2023-08-11T18:00	28221	17	-44.2	-79.1	104	9
2023-08-11T18:00	28235	17	-44.0	-79.0	106	9
2023-08-11T18:00	28270	17	-43.9	-78.9	109	8
2023-08-11T18:00	28281	17	-43.8	-78.8	111	8
2023-08-11T18:00	28323	17	-43.9	-78.9	114	8
2023-08-11T18:00	28351	17	-43.9	-78.9	116	8
2023-08-11T18:00	28384	16	-43.9	-78.9	116	8
2023-08-11T18:00	28402	16	-43.8	-78.8	115	8
2023-08-11T18:00	28442	16	-43.7	-78.8	112	8
2023-08-11T18:00	28467	16	-43.6	-78.7	108	8
2023-08-11T18:00	28500	16	-43.6	-78.7	105	9
2023-08-11T18:00	28516	16	-43.6	-78.7	102	9
2023-08-11T18:00	28544	16	-43.6	-78.7	101	10
2023-08-11T18:00	28578	16	-43.6	-78.7	100	10
2023-08-11T18:00	28596	16	-43.6	-78.7	99	11
2023-08-11T18:00	28637	16	-43.6	-78.7	98	11
2023-08-11T18:00	28663	16	-43.5	-78.6	98	12
2023-08-11T18:00	28665	16	-43.5	-78.6	97	12
2023-08-11T18:00	28714	16	-43.6	-78.7	96	12
2023-08-11T18:00	28739	16	-43.6	-78.7	95	11
2023-08-11T18:00	28766	16	-43.3	-78.5	95	11
2023-08-11T18:00	28800	15	-43.2	-78.4	96	10
2023-08-11T18:00	28821	15	-43.2	-78.4	98	9
2023-08-11T18:00	28855	15	-43.4	-78.5	100	9
2023-08-11T18:00	28879	15	-43.4	-78.5	102	8
2023-08-11T18:00	28902	15	-43.4	-78.5	103	7
2023-08-11T18:00	28931	15	-43.0	-79.1	103	7
2023-08-11T18:00	28956	15	-42.6	-78.8	102	6
2023-08-11T18:00	28984	15	-42.5	-78.7	100	5
2023-08-11T18:00	29019	15	-42.3		97	4
2023-08-11T18:00	29054	15	-42.4	-78.7	92	4
2023-08-11T18:00	29082	15	-42.4	-78.7	86	3
2023-08-11T18:00	29090	15	-42.5	-78.7	78	3
2023-08-11T18:00	29127	15	-42.4	-78.7	72	3
2023-08-11T18:00	29139	15	-42.3		67	4
2023-08-11T18:00	29174	15	-42.3		65	5
2023-08-11T18:00	29210	15	-42.2	-78.5	65	5
2023-08-11T18:00	29243	14	-42.1	-78.4	66	6
2023-08-11T18:00	29274	14	-42.1	-78.4	68	6
2023-08-11T18:00	29287	14	-42.2	-78.5	71	7
2023-08-11T18:00	29323	14	-42.3	-77.8	72	7
2023-08-11T18:00	29357	14	-42.4	-77.8	73	8
2023-08-11T18:00	29401	14	-42.5	-77.9	73	8
2023-08-11T18:00	29414	14	-42.6	-78.0	72	7
2023-08-11T18:00	29450	14	-42.7	-78.0	72	7
2023-08-11T18:00	29467	14	-42.7	-78.0	72	7
2023-08-11T18:00	29507	14	-42.8	-78.1	75	7
2023-08-11T18:00	29526	14	-42.8	-78.1	78	7
2023-08-11T18:00	29562	14	-42.9	-78.2	83	7
2023-08-11T18:00	29601	14	-43.0	-78.3	88	7
2023-08-11T18:00	29629	14	-43.1	-78.3	92	7
2023-08-11T18:00	29643	14	-43.0	-78.3	97	7
2023-08-11T18:00	29700	14	-42.8	-78.1	102	7
2023-08-11T18:00	29729	13	-42.6	-78.8	107	6
2023-08-11T18:00	29747	13	-42.6	-78.8	113	6
2023-08-11T18:00	29788	13	-42.7	-78.9	117	6
2023-08-11T18:00	29824	13	-42.8	-78.9	122	6
2023-08-11T18:00	29845	13	-42.8	-78.9	125	5
2023-08-11T18:00	29887	13	-42.8	-78.9	129	5
2023-08-11T18:00	29894	13	-42.6	-78.8	132	5
2023-08-11T18:00	29921	13	-42.4	-78.7	135	5
2023-08-11T18:00	29974	13	-42.2	-78.5	138	5
2023-08-11T18:00	30004	13	-42.0	-78.4	140	5
2023-08-11T18:00	30033	13	-41.9	-78.3	139	4
2023-08-11T18:00	30057	13	-42.1	-78.4	137	4
2023-08-11T18:00	30080	13	-42.1	-78.4	130	3
2023-08-11T18:00	30105	13	-42.1	-78.4	120	3
2023-08-11T18:00	30165	13	-42.1	-78.4	105	2
2023-08-11T18:00	30182	13	-42.1	-78.4	88	2
2023-08-11T18:00	30222	13	-42.0	-78.4	73	2
2023-08-11T18:00	30251	12	-42.0	-78.4	62	3
2023-08-11T18:00	30265	12	-42.0	-78.4	54	3
2023-08-11T18:00	30309	12	-42.1	-78.4	49	3
2023-08-11T18:00	30351	12	-42.1	-78.4	46	4
2023-08-11T18:00	30370	12	-42.1	-78.4	45	5
2023-08-11T18:00	30401	12	-42.0	-78.4	46	5
2023-08-11T18:00	30438	12	-41.8	-78.2	48	6
2023-08-11T18:00	30475	12	-41.6	-78.1	51	6
2023-08-11T18:00	30488	12	-41.3	-77.9	55	6
2023-08-11T18:00	30517	12	-41.1	-77.7	61	6
2023-08-11T18:00	30567	12	-41.0	-77.7	67	5
2023-08-11T18:00	30589	12	-41.1	-77.7	71	5
2023-08-11T18:00	30627	12	-41.2	-77.8	74	6
2023-08-11T18:00	30670	12	-41.4	-77.9	74	6
2023-08-11T18:00	30676	12	-41.5	-78.0	71	6
2023-08-11T18:00	30719	12	-41.5	-78.0	67	6
2023-08-11T18:00	30755	12	-41.4	-77.9	63	7
2023-08-11T18:00	30773	12	-41.4	-77.9	59	7
2023-08-11T18:00	30789	12	-41.5	-78.0	57	8
2023-08-11T18:00	30834	11	-41.7	-78.2	55	9
2023-08-11T18:00	30875	11	-41.5	-78.0	54	10
2023-08-11T18:00	30894	11	-41.4	-77.9	54	11
2023-08-11T18:00	30936	11	-41.2	-77.8	55	11
2023-08-11T18:00	30956	11	-41.2	-77.8	56	12
2023-08-11T18:00	31006	11	-41.1	-77.7	59	12
2023-08-11T18:00	31024	11	-41.1	-77.7	62	12
2023-08-11T18:00	31059	11	-41.2	-77.8	66	12
2023-08-11T18:00	31072	11	-41.2	-77.8	69	11
2023-08-11T18:00	31097	11	-41.0	-77.7	73	11
2023-08-11T18:00	31161	11	-41.0	-77.7	76	11
2023-08-11T18:00	31186	11	-41.1	-77.7	80	10
2023-08-11T18:00	31207	11	-41.2	-77.8	85	10
2023-08-11T18:00	31235	11	-41.3	-77.9	89	9
2023-08-11T18:00	31277	11	-41.3	-77.9	94	9
2023-08-11T18:00	31298	11	-41.3	-77.9	98	8
2023-08-11T18:00	31335	11	-41.2	-77.8	100	7
2023-08-11T18:00	31369	11	-41.0	-77.7	101	7
2023-08-11T18:00	31398	11	-40.7	-78.4	100	6
2023-08-11T18:00	31409	11	-40.3	-78.1	98	6
2023-08-11T18:00	31451	10	-40.1	-78.0	94	6
2023-08-11T18:00	31454	10	-40.1	-78.0	90	6
2023-08-11T18:00	31521	10	-39.9	-77.8	86	7
2023-08-11T18:00	31565	10	-39.8	-77.8	78	9
2023-08-11T18:00	31616	10	-39.7	-77.7	74	10
2023-08-11T18:00	31622	10	-39.5	-77.6	71	11
2023-08-11T18:00	31678	10	-39.5	-77.6	69	12
2023-08-11T18:00	31701	10	-39.5	-77.6	67	13
2023-08-11T18:00	31718	10	-39.2	-77.3	66	13
2023-08-11T18:00	31746	10	-39.3	-77.4	65	14
2023-08-11T18:00	31788	10	-39.3	-77.4	65	13
2023-08-11T18:00	31805	10	-39.3	-77.4	65	13
2023-08-11T18:00	31861	10	-39.4	-77.5	66	13
2023-08-11T18:00	31871	10	-39.6	-77.6	66	12
2023-08-11T18:00	31914	10	-39.6	-77.6	67	11
2023-08-11T18:00	31942	10	-39.6	-77.6	67	11
2023-08-11T18:00	31965	10	-39.7	-77.7	68	10
2023-08-11T18:00	32019	10	-39.8	-77.8	68	9
2023-08-11T18:00	32032	10	-39.9	-77.8	68	9
2023-08-11T18:00	32050	10	-40.0	-76.9	67	8
2023-08-11T18:00	32100	10	-40.1	-77.0	67	8
2023-08-11T18:00	32111	9	-40.3	-77.2	68	7
2023-08-11T18:00	32127	9	-40.2	-77.1	69	7
2023-08-11T18:00	32177	9	-40.2	-77.1	72	7
2023-08-11T18:00	32207	9	-40.2	-77.1	74	7
2023-08-11T18:00	32250	9	-40.3	-77.2	76	7
2023-08-11T18:00	32274	9	-40.3	-78.1	75	8
2023-08-11T18:00	32284	9	-40.2	-78.0	74	8
2023-08-11T18:00	32297	9	-40.1	-78.0	71	9
2023-08-11T18:00	32343	9	-40.1	-78.0	67	10
2023-08-11T18:00	32352	9	-40.0	-77.9	64	10
2023-08-11T18:00	32391	9	-40.0	-77.9	62	11
2023-08-11T18:00	32412	9	-40.0	-77.9	61	12
2023-08-11T18:00	32429	9	-39.8	-77.8	62	13
2023-08-11T18:00	32463	9	-39.8	-77.8	64	13
2023-08-11T18:00	32488	9	-39.8	-77.8	66	14
2023-08-11T18:00	32528	9	-39.7	-77.7	69	15
2023-08-11T18:00	32560	9	-39.5	-77.6	71	16
2023-08-11T18:00	32588	9	-39.2	-77.3	73	16
2023-08-11T18:00	32589	9	-39.1	-77.3	75	17
2023-08-11T18:00	32635	9	-38.9	-77.1	76	17
2023-08-11T18:00	32656	9	-38.6	-76.9	77	17
2023-08-11T18:00	32663	9	-38.5	-76.9	77	16
2023-08-11T18:00	32709	9	-38.5	-76.9	77	15
2023-08-11T18:00	32732	9	-38.7	-77.0	77	15
2023-08-11T18:00	32749	9	-38.6	-76.9	77	14
2023-08-11T18:00	32795	9	-38.4	-76.8	76	13
2023-08-11T18:00	32822	9	-38.3	-76.7	76	12
2023-08-11T18:00	32852	9	-38.3	-76.7	76	11
2023-08-11T18:00	32886	9	-38.2	-76.6	77	10
2023-08-11T18:00	32918	8	-38.0	-76.5	76	9
2023-08-11T18:00	32944	8	-37.9	-76.4	74	9
2023-08-11T18:00	32985	8	-37.6	-77.4	71	10
2023-08-11T18:00	32998	8	-37.3	-77.2	70	10
2023-08-11T18:00	33018	8	-37.2	-77.1	70	11
2023-08-11T18:00	33070	8	-37.2	-77.1	71	12
2023-08-11T18:00	33085	8	-37.0	-77.0	73	13
2023-08-11T18:00	33108	8	-36.8	-76.8	75	14
2023-08-11T18:00	33141	8	-36.8	-76.8	78	15
2023-08-11T18:00	33150	8	-36.8	-76.8	79	16
2023-08-11T18:00	33203	8	-36.8	-76.8	81	16
2023-08-11T18:00	33206	8	-36.6	-76.7	82	17
2023-08-11T18:00	33239	8	-36.7	-76.7	84	17
2023-08-11T18:00	33262	8	-36.8	-76.8	86	17
2023-08-11T18:00	33322	8	-36.9	-76.9	88	17
2023-08-11T18:00	33342	8	-36.8	-76.8	91	17
2023-08-11T18:00	33353	8	-36.6	-76.7	93	17
2023-08-11T18:00	33397	8	-36.5	-76.6	95	16
2023-08-11T18:00	33428	8	-36.5	-76.6	97	15
2023-08-11T18:00	33440	8	-36.3	-76.5	98	14
2023-08-11T18:00	33480	8	-35.9	-76.2	98	13
2023-08-11T18:00	33485	8	-35.6	-76.0	99	12
2023-08-11T18:00	33521	8	-35.5	-75.9	100	11
2023-08-11T18:00	33563	8	-35.3	-75.8	102	10
2023-08-11T18:00	33588	8	-35.2	-75.7	104	9
2023-08-11T18:00	33621	8	-34.9	-75.5	104	9
2023-08-11T18:00	33646	8	-34.7	-75.4	102	8
2023-08-11T18:00	33683	8	-34.3	-75.1	99	8
2023-08-11T18:00	33703	8	-34.1	-75.0	95	9
2023-08-11T18:00	33730	8	-34.1	-75.0	92	9
2023-08-11T18:00	33763	7	-34.0	-74.9	90	10
2023-08-11T18:00	33791	7	-34.0	-74.9	90	11
2023-08-11T18:00	33829	7	-34.0	-74.9	90	11
2023-08-11T18:00	33873	7	-34.1	-75.0	91	12
2023-08-11T18:00	33885	7	-34.2	-75.0	93	12
2023-08-11T18:00	33931	7	-34.4	-75.2	100	12
2023-08-11T18:00	33941	7	-34.2	-75.0	103	12
2023-08-11T18:00	34005	7	-34.0	-74.9	107	12
2023-08-11T18:00	34038	7	-33.9	-74.8	109	12
2023-08-11T18:00	34040	7	-33.7	-74.7	111	11
2023-08-11T18:00	34078	7	-33.6	-74.6	111	10
2023-08-11T18:00	34108	7	-33.7	-74.7	111	10
2023-08-11T18:00	34127	7	-33.8	-74.7	110	9
2023-08-11T18:00	34161	7	-33.8	-74.7	108	8
2023-08-11T18:00	34197	7	-33.9	-74.8	106	8
2023-08-11T18:00	34219	7	-34.0	-74.9	102	7
2023-08-11T18:00	34258	7	-34.0	-74.9	98	6
2023-08-11T18:00	34275	7	-33.9	-74.8	95	5
2023-08-11T18:00	34318	7	-33.8	-74.7	94	5
2023-08-11T18:00	34341	7	-33.6	-74.6	94	5
2023-08-11T18:00	34396	7	-33.0	-74.2	98	5
2023-08-11T18:00	34436	7	-32.8	-74.1	101	6
2023-08-11T18:00	34447	7	-32.8	-74.1	102	7
2023-08-11T18:00	34495	7	-32.9	-74.1	103	7
2023-08-11T18:00	34531	7	-32.8	-74.1	105	8
2023-08-11T18:00	34562	7	-32.9	-74.1	107	8
2023-08-11T18:00	34607	7	-32.9	-74.1	113	9
2023-08-11T18:00	34616	7	-32.9	-74.1	117	9
2023-08-11T18:00	34648	7	-32.7	-74.0	119	9
2023-08-12T00:00	112	1008	19.0	12.3	120	3
2023-08-12T00:00	136	1005	20.0	12.1	139	3
2023-08-12T00:00	160	1002	20.8	11.3	140	4
2023-08-12T00:00	182	1000	22.2	11.2	141	5
2023-08-12T00:00	204	997	22.2	11.4	141	6
2023-08-12T00:00	221	995	22.1	11.4	142	6
2023-08-12T00:00	243	993	22.0	11.3	142	7
2023-08-12T00:00	264	990	21.9	11.3	143	7
2023-08-12T00:00	284	988	21.7	11.4	145	6
2023-08-12T00:00	309	985	21.5	11.3	147	6
2023-08-12T00:00	336	982	21.4	11.3	149	6
2023-08-12T00:00	359	980	21.2	11.3	151	6
2023-08-12T00:00	383	977	21.0	11.2	152	5
2023-08-12T00:00	408	974	20.9	11.3	153	5
2023-08-12T00:00	432	971	20.8	11.3	153	5
2023-08-12T00:00	457	968	20.6	11.2	154	5
2023-08-12T00:00	481	966	20.4	11.3	156	5
2023-08-12T00:00	503	963	20.2	11.3	159	5
2023-08-12T00:00	527	961	20.1	11.2	162	5
2023-08-12T00:00	552	958	19.9	11.0	167	5
2023-08-12T00:00	574	955	19.7	11.1	172	5
2023-08-12T00:00	597	953	19.5	10.9	178	4
2023-08-12T00:00	624	950	19.3	10.7	187	4
2023-08-12T00:00	649	947	19.2	10.6	197	4
2023-08-12T00:00	675	944	19.1	10.6	207	4
2023-08-12T00:00	696	942	19.0	10.7	215	4
2023-08-12T00:00	716	940	18.9	10.7	220	4
2023-08-12T00:00	739	937	18.7	10.7	223	4
2023-08-12T00:00	763	935	18.5	10.7	227	3
2023-08-12T00:00	789	932	18.3	10.7	233	3
2023-08-12T00:00	812	930	18.1	10.7	241	3
2023-08-12T00:00	831	927	18.0	10.7	250	3
2023-08-12T00:00	847	926	17.9		263	2
2023-08-12T00:00	866	924	17.8	10.1	282	2
2023-08-12T00:00	883	922	17.7	10.0	300	2
2023-08-12T00:00	903	920	17.8	10.0	307	2
2023-08-12T00:00	923	917	17.7	10.0	304	2
2023-08-12T00:00	946	915	17.6	10.0	298	3
2023-08-12T00:00	964	913	17.4	9.9	294	3
2023-08-12T00:00	982	911	17.4	10.0	295	3
2023-08-12T00:00	1006	909	17.3	10.2	301	3
2023-08-12T00:00	1034	906	17.2	10.1	309	3
2023-08-12T00:00	1055	903	17.1	10.0	315	4
2023-08-12T00:00	1082	901	16.9	10.2	317	4
2023-08-12T00:00	1107	898	16.7	10.1	317	4
2023-08-12T00:00	1129	896	16.6	10.2	317	4
2023-08-12T00:00	1151	893	16.4	10.2	318	4
2023-08-12T00:00	1173	891	16.2	10.2	321	3
2023-08-12T00:00	1195	889	15.9	10.3	327	3
2023-08-12T00:00	1220	886	15.7	10.3	336	3
2023-08-12T00:00	1241	884	15.5	10.3	345	3
2023-08-12T00:00	1261	882	15.3	10.3	352	4
2023-08-12T00:00	1278	880	15.1	10.2	356	4
2023-08-12T00:00	1296	878	15.0	10.2	353	3
2023-08-12T00:00	1316	876	14.8	10.1	340	3
2023-08-12T00:00	1337	874	14.7	10.1	311	2
2023-08-12T00:00	1366	871	14.7	9.4	283	3
2023-08-12T00:00	1390	869	14.9	8.4	269	3
2023-08-12T00:00	1414	866	15.2	6.8	265	4
2023-08-12T00:00	1441	863	15.2	8.0	265	4
2023-08-12T00:00	1471	860	15.3	7.1	267	4
2023-08-12T00:00	1492	858	15.1	8.4	267	5
2023-08-12T00:00	1512	856	15.0	8.4	265	5
2023-08-12T00:00	1536	854	15.0	7.3	261	5
2023-08-12T00:00	1560	851	14.9	6.4	258	5
2023-08-12T00:00	1585	849	14.8	5.1	255	5
2023-08-12T00:00	1615	846	14.7	6.1	254	5
2023-08-12T00:00	1637	843	14.5	6.1	255	5
2023-08-12T00:00	1658	841	14.4	6.1	256	5
2023-08-12T00:00	1676	839	14.3	6.1	258	5
2023-08-12T00:00	1701	837	14.2	5.8	258	5
2023-08-12T00:00	1731	834	14.0	5.5	258	6
2023-08-12T00:00	1752	832	13.9	5.2	256	6
2023-08-12T00:00	1770	830	13.8	5.0	253	6
2023-08-12T00:00	1794	828	13.6	4.8	251	6
2023-08-12T00:00	1807	827	13.5	5.0	249	6
2023-08-12T00:00	1830	824	13.4	5.3	249	6
2023-08-12T00:00	1859	822	13.2	5.3	249	6
2023-08-12T00:00	1891	819	13.0	4.6	250	6
2023-08-12T00:00	1921	816	12.8	4.1	250	6
2023-08-12T00:00	1948	813	12.6	4.2	250	6
2023-08-12T00:00	1976	810	12.4	4.3	250	6
2023-08-12T00:00	1999	808	12.3	4.3	249	6
2023-08-12T00:00	2023	806	12.2	4.2	249	5
2023-08-12T00:00	2043	804	12.1	3.9	249	5
2023-08-12T00:00	2064	802	12.1	3.6	250	5
2023-08-12T00:00	2092	799	11.9	3.7	252	5
2023-08-12T00:00	2119	797	11.7	3.5	254	4
2023-08-12T00:00	2140	794	11.5	4.0	258	4
2023-08-12T00:00	2161	793	11.4	4.0	262	4
2023-08-12T00:00	2184	791	11.2	4.4	266	4
2023-08-12T00:00	2204	788	11.0	4.4	266	4
2023-08-12T00:00	2231	786	10.8	4.5	265	4
2023-08-12T00:00	2254	784	10.5	4.5	261	4
2023-08-12T00:00	2284	781	10.3	3.5	258	4
2023-08-12T00:00	2313	778	10.2	3.1	257	5
2023-08-12T00:00	2344	776	10.0	3.1	259	5
2023-08-12T00:00	2363	773	9.8	2.9	262	5
2023-08-12T00:00	2392	771	9.6	2.8	265	5
2023-08-12T00:00	2414	769	9.6	2.6	267	5
2023-08-12T00:00	2435	767	9.5	2.6	267	5
2023-08-12T00:00	2458	765	9.3	2.5	267	5
2023-08-12T00:00	2484	762	9.2	3.6	266	5
2023-08-12T00:00	2512	760	8.9	4.7	265	5
2023-08-12T00:00	2533	758	8.8	4.4	265	5
2023-08-12T00:00	2552	756	8.6	4.2	264	6
2023-08-12T00:00	2569	755	8.5	4.2	264	6
2023-08-12T00:00	2589	753	8.4	3.8	264	6
2023-08-12T00:00	2609	751	8.3	3.4	264	6
2023-08-12T00:00	2628	749	8.2	3.4	265	6
2023-08-12T00:00	2657	747	7.9	3.5	266	6
2023-08-12T00:00	2674	745	7.8	3.4	266	6
2023-08-12T00:00	2698	743	7.7	3.4	266	6
2023-08-12T00:00	2718	741	7.6	3.0	264	6
2023-08-12T00:00	2743	739	7.5	2.7	263	7
2023-08-12T00:00	2767	737	7.4	2.4	262	7
2023-08-12T00:00	2786	735	7.3	2.5	263	7
2023-08-12T00:00	2814	733	7.1	2.3	265	7
2023-08-12T00:00	2829	731	7.0	2.3	268	6
2023-08-12T00:00	2854	729	6.8		273	6
2023-08-12T00:00	2875	727	6.7	1.9	276	5
2023-08-12T00:00	2896	725	6.6	2.5	279	5
2023-08-12T00:00	2912	724	6.5	2.6	278	5
2023-08-12T00:00	2933	722	6.4	2.6	277	5
2023-08-12T00:00	2962	720	6.2	2.4	275	5
2023-08-12T00:00	2981	718	6.1	2.1	276	5
2023-08-12T00:00	3007	716	5.9	1.9	280	5
2023-08-12T00:00	3030	714	5.8	1.3	285	5
2023-08-12T00:00	3048	712	5.7	0.6	288	5
2023-08-12T00:00	3073	710	5.6	0.6	289	5
2023-08-12T00:00	3093	708	5.4	0.5	288	6
2023-08-12T00:00	3115	706	5.2	0.1	287	6
2023-08-12T00:00	3138	704	5.1	0.1	287	6
2023-08-12T00:00	3155	703	4.9	-0.1	292	5
2023-08-12T00:00	3177	701	4.8	-0.1	298	5
2023-08-12T00:00	3204	699	4.6	-0.1	305	5
2023-08-12T00:00	3224	697	4.5	-1.3	309	4
2023-08-12T00:00	3251	695	4.4	-2.0	307	4
2023-08-12T00:00	3275	693	4.1	-0.8	300	4
2023-08-12T00:00	3291	691	4.0	-0.7	293	4
2023-08-12T00:00	3310	689	3.8	-0.9	287	4
2023-08-12T00:00	3330	688	3.7	-1.0	283	4
2023-08-12T00:00	3357	686	3.4	-1.2	280	5
2023-08-12T00:00	3379	684	3.3	-1.2	279	5
2023-08-12T00:00	3402	682	3.1	-1.3	278	5
2023-08-12T00:00	3424	680	2.9	-1.4	278	6
2023-08-12T00:00	3443	678	2.8	-1.7	277	6
2023-08-12T00:00	3468	676	2.6	-1.9	278	6
2023-08-12T00:00	3488	674	2.5	-2.1	278	7
2023-08-12T00:00	3514	672	2.2	-2.3	279	7
2023-08-12T00:00	3540	670	2.1	-2.6	279	7
2023-08-12T00:00	3560	669	2.0	-2.7	281	7
2023-08-12T00:00	3575	667	1.8	-2.7	282	7
2023-08-12T00:00	3592	666	1.7	-2.6	284	7
2023-08-12T00:00	3610	664	1.6	-2.5	286	7
2023-08-12T00:00	3636	662	1.4	-2.6	287	7
2023-08-12T00:00	3671	660	1.1		288	8
2023-08-12T00:00	3687	658	1.0	-2.9	289	8
2023-08-12T00:00	3707	656	0.8	-2.9	289	8
2023-08-12T00:00	3738	654	0.6	-2.9	290	8
2023-08-12T00:00	3763	652	0.3	-3.2	290	8
2023-08-12T00:00	3782	650	0.2	-3.1	290	7
2023-08-12T00:00	3800	649	0.0	-3.2	289	7
2023-08-12T00:00	3822	647	-0.1	-3.2	287	7
2023-08-12T00:00	3855	645	-0.4	-3.9	285	6
2023-08-12T00:00	3873	643	-0.4	-4.5	284	6
2023-08-12T00:00	3890	642	-0.5	-3.9	284	6
2023-08-12T00:00	3911	640	-0.5	-4.5	285	7
2023-08-12T00:00	3934	638	-0.5	-5.8	286	7
2023-08-12T00:00	3961	636	-0.7	-5.8	287	7
2023-08-12T00:00	3981	634	-0.8	-5.9	287	8
2023-08-12T00:00	4013	632	-1.0	-6.5	287	8
2023-08-12T00:00	4040	630	-1.1	-6.4	287	7
2023-08-12T00:00	4057	628	-1.2	-6.3	286	7
2023-08-12T00:00	4074	627	-1.4	-6.5	286	7
2023-08-12T00:00	4091	626	-1.4	-6.5	285	7
2023-08-12T00:00	4109	624	-1.6	-6.6	284	7
2023-08-12T00:00	4128	623	-1.8	-6.5	283	7
2023-08-12T00:00	4157	621	-1.8	-7.2	282	7
2023-08-12T00:00	4182	619	-2.0	-7.3	280	7
2023-08-12T00:00	4205	617	-2.2	-7.5	277	7
2023-08-12T00:00	4237	615	-2.4	-7.6	273	7
2023-08-12T00:00	4253	613	-2.6	-7.9	269	7
2023-08-12T00:00	4269	612	-2.7	-8.1	267	6
2023-08-12T00:00	4296	610	-2.8	-8.2	267	6
2023-08-12T00:00	4325	608	-3.0	-8.2	267	6
2023-08-12T00:00	4356	605	-3.3	-8.1	267	6
2023-08-12T00:00	4374	604	-3.4	-8.4	264	6
2023-08-12T00:00	4393	602	-3.4	-8.4	260	7
2023-08-12T00:00	4421	600	-3.5	-8.6	257	7
2023-08-12T00:00	4451	598	-3.5		255	8
2023-08-12T00:00	4466	597	-3.5	-9.6	256	8
2023-08-12T00:00	4483	595	-3.6	-9.9	258	8
2023-08-12T00:00	4504	594	-3.6	-11.6	261	9
2023-08-12T00:00	4529	592	-3.8	-11.1	264	9
2023-08-12T00:00	4556	590	-4.1	-10.3	268	9
2023-08-12T00:00	4582	588	-4.3	-9.6	272	8
2023-08-12T00:00	4616	586	-4.6	-9.5	275	8
2023-08-12T00:00	4638	584	-4.7	-11.0	277	8
2023-08-12T00:00	4655	583	-4.6	-13.2	279	8
2023-08-12T00:00	4672	581	-4.6	-16.4	279	8
2023-08-12T00:00	4692	580	-4.5	-20.7	280	8
2023-08-12T00:00	4713	578	-4.5	-21.1	280	7
2023-08-12T00:00	4744	576	-4.6	-20.9	281	7
2023-08-12T00:00	4771	574	-4.8	-20.6	281	7
2023-08-12T00:00	4803	572	-5.1	-20.7	279	6
2023-08-12T00:00	4819	571	-5.2	-20.8	275	6
2023-08-12T00:00	4836	569	-5.4	-21.2	272	6
2023-08-12T00:00	4854	568	-5.5	-21.5	270	7
2023-08-12T00:00	4870	567	-5.6	-22.4	269	7
2023-08-12T00:00	4888	566	-5.6	-22.3	268	8
2023-08-12T00:00	4905	564	-5.7	-21.6	268	8
2023-08-12T00:00	4921	563	-5.8	-21.9	268	8
2023-08-12T00:00	4941	562	-5.9	-23.1	267	8
2023-08-12T00:00	4959	561	-5.9	-23.5	266	8
2023-08-12T00:00	4976	559	-6.0	-24.1	266	8
2023-08-12T00:00	4997	558	-6.1	-24.4	265	8
2023-08-12T00:00	5028	556	-6.2	-24.4	265	8
2023-08-12T00:00	5054	554	-6.4	-24.9	266	7
2023-08-12T00:00	5084	552	-6.5	-25.4	267	7
2023-08-12T00:00	5116	549	-6.6	-26.3	270	7
2023-08-12T00:00	5137	548	-6.7	-26.3	275	7
2023-08-12T00:00	5154	547	-6.7	-26.9	281	7
2023-08-12T00:00	5170	546	-6.6	-27.0	287	7
2023-08-12T00:00	5186	544	-6.5	-26.6	291	7
2023-08-12T00:00	5203	543	-6.4	-26.0	293	7
2023-08-12T00:00	5220	542	-6.4	-25.5	292	7
2023-08-12T00:00	5237	541	-6.4	-24.9	291	7
2023-08-12T00:00	5255	540	-6.5	-21.1	288	7
2023-08-12T00:00	5276	538	-6.7	-18.7	285	7
2023-08-12T00:00	5295	537	-6.6	-22.4	282	7
2023-08-12T00:00	5317	535	-6.5	-22.3	278	7
2023-08-12T00:00	5346	533	-6.7	-18.4	273	7
2023-08-12T00:00	5374	532	-6.7	-19.9	268	7
2023-08-12T00:00	5401	530	-6.7	-19.3	264	7
2023-08-12T00:00	5431	528	-6.6	-15.4	261	8
2023-08-12T00:00	5457	526	-6.8	-14.9	262	8
2023-08-12T00:00	5480	524	-7.0	-14.9	264	8
2023-08-12T00:00	5505	523	-7.1	-15.3	269	8
2023-08-12T00:00	5532	521	-7.3	-15.6	273	9
2023-08-12T00:00	5559	519	-7.5	-15.9	276	9
2023-08-12T00:00	5584	517	-7.7	-17.5	277	9
2023-08-12T00:00	5609	516	-7.8	-18.5	278	10
2023-08-12T00:00	5635	514	-7.9	-20.4	279	9
2023-08-12T00:00	5662	512	-8.0	-22.3	280	9
2023-08-12T00:00	5688	511	-8.0	-23.7	281	9
2023-08-12T00:00	5718	509	-8.2	-25.3	283	8
2023-08-12T00:00	5743	507	-7.8	-32.8	286	8
2023-08-12T00:00	5777	505	-7.9	-32.1	288	8
2023-08-12T00:00	5799	503	-8.1	-31.7	290	7
2023-08-12T00:00	5821	502	-8.3	-31.1	290	7
2023-08-12T00:00	5845	500	-8.5	-29.9	291	7
2023-08-12T00:00	5875	499	-8.8	-29.5	292	7
2023-08-12T00:00	5897	497	-9.0	-29.3	294	7
2023-08-12T00:00	5923	495	-9.2	-28.6	296	7
2023-08-12T00:00	5956	493	-9.5	-28.7	297	7
2023-08-12T00:00	5975	492	-9.7	-27.6	298	8
2023-08-12T00:00	6002	490	-10.0	-27.0	298	8
2023-08-12T00:00	6030	488	-10.2	-26.5	298	8
2023-08-12T00:00	6057	487	-10.4	-26.4	297	8
2023-08-12T00:00	6087	485	-10.6	-27.1	296	8
2023-08-12T00:00	6108	484	-10.7	-28.2	295	8
2023-08-12T00:00	6127	482	-10.7	-29.8	294	9
2023-08-12T00:00	6147	481	-10.7	-30.7	294	9
2023-08-12T00:00	6166	480	-10.7	-33.0	294	9
2023-08-12T00:00	6187	479	-10.7	-33.9	294	10
2023-08-12T00:00	6207	477	-10.9	-34.3	294	10
2023-08-12T00:00	6226	476	-11.0	-34.0	294	10
2023-08-12T00:00	6249	475	-11.1	-34.0	294	10
2023-08-12T00:00	6275	473	-11.4	-34.2	293	10
2023-08-12T00:00	6303	471	-11.5	-34.0	292	10
2023-08-12T00:00	6328	470	-11.4	-38.0	290	10
2023-08-12T00:00	6354	468	-11.5	-39.8	289	10
2023-08-12T00:00	6379	467	-11.7	-40.6	288	10
2023-08-12T00:00	6405	465	-11.9	-41.0	288	10
2023-08-12T00:00	6430	464	-12.1	-41.2	287	10
2023-08-12T00:00	6456	462	-12.4	-41.6	287	10
2023-08-12T00:00	6477	461	-12.6	-41.4	288	10
2023-08-12T00:00	6505	459	-12.8	-41.1	288	10
2023-08-12T00:00	6529	458	-13.0	-41.0	287	10
2023-08-12T00:00	6551	456	-13.3	-40.9	287	10
2023-08-12T00:00	6575	455	-13.5	-40.2	286	10
2023-08-12T00:00	6600	454	-13.6	-39.8	284	10
2023-08-12T00:00	6623	452	-13.7	-39.9	282	10
2023-08-12T00:00	6646	451	-13.9	-39.9	280	10
2023-08-12T00:00	6667	449	-14.0	-40.2	278	10
2023-08-12T00:00	6695	448	-14.2	-40.8	276	10
2023-08-12T00:00	6729	446	-14.4	-40.7	276	10
2023-08-12T00:00	6751	445	-14.6	-40.7	276	10
2023-08-12T00:00	6777	443	-14.9	-40.7	277	10
2023-08-12T00:00	6801	442	-15.1	-40.6	278	9
2023-08-12T00:00	6823	440	-15.4	-40.6	280	9
2023-08-12T00:00	6850	439	-15.6	-40.6	281	9
2023-08-12T00:00	6872	437	-15.8	-40.6	283	9
2023-08-12T00:00	6892	436	-16.0	-40.5	284	9
2023-08-12T00:00	6910	435	-16.2	-40.5	285	9
2023-08-12T00:00	6930	434	-16.4	-40.6	285	9
2023-08-12T00:00	6950	433	-16.6	-40.4	285	9
2023-08-12T00:00	6970	432	-16.7	-40.2	284	9
2023-08-12T00:00	6992	430	-16.9	-40.3	284	9
2023-08-12T00:00	7017	429	-17.1	-40.4	283	9
2023-08-12T00:00	7043	428	-17.4	-40.5	283	9
2023-08-12T00:00	7076	426	-17.5	-40.5	283	9
2023-08-12T00:00	7107	424	-17.7	-40.6	284	9
2023-08-12T00:00	7135	422	-17.9	-40.8	285	9
2023-08-12T00:00	7161	421	-18.1	-41.0	287	10
2023-08-12T00:00	7185	420	-18.3	-40.6	288	10
2023-08-12T00:00	7208	418	-18.5		289	10
2023-08-12T00:00	7231	417	-18.7	-39.4	290	10
2023-08-12T00:00	7250	416	-18.9	-38.7	291	10
2023-08-12T00:00	7268	415	-19.0	-38.4	292	10
2023-08-12T00:00	7286	414	-19.1	-38.1	293	9
2023-08-12T00:00	7303	413	-19.3	-37.7	294	9
2023-08-12T00:00	7319	412	-19.5	-37.7	294	9
2023-08-12T00:00	7336	411	-19.6	-37.9	292	9
2023-08-12T00:00	7350	410	-19.7	-38.0	291	10
2023-08-12T00:00	7366	409	-19.8	-38.0	290	10
2023-08-12T00:00	7384	408	-19.9	-38.0	290	10
2023-08-12T00:00	7402	408	-20.0	-38.2	290	10
2023-08-12T00:00	7421	406	-20.2	-38.2	291	10
2023-08-12T00:00	7442	405	-20.3	-37.4	291	10
2023-08-12T00:00	7465	404	-20.4	-36.4	290	10
2023-08-12T00:00	7485	403	-20.6	-36.1	289	11
2023-08-12T00:00	7503	402	-20.7	-35.9	288	11
2023-08-12T00:00	7521	401	-20.9	-36.5	287	11
2023-08-12T00:00	7536	400	-20.9	-36.1	286	11
2023-08-12T00:00	7553	399	-21.0	-35.5	285	11
2023-08-12T00:00	7569	398	-21.2	-35.0	285	12
2023-08-12T00:00	7587	397	-21.3	-34.6	285	12
2023-08-12T00:00	7604	397	-21.4	-34.5	285	12
2023-08-12T00:00	7621	396	-21.5	-33.9	284	12
2023-08-12T00:00	7638	395	-21.6	-33.1	284	12
2023-08-12T00:00	7653	394	-21.7	-32.5	283	12
2023-08-12T00:00	7671	393	-21.9	-32.4	283	12
2023-08-12T00:00	7688	392	-22.0	-32.4	283	12
2023-08-12T00:00	7703	391	-22.2	-32.0	283	12
2023-08-12T00:00	7720	390	-22.3	-30.9	283	12
2023-08-12T00:00	7736	389	-22.5	-30.7	283	12
2023-08-12T00:00	7753	389	-22.6	-30.6	283	12
2023-08-12T00:00	7769	388	-22.8	-30.5	282	12
2023-08-12T00:00	7786	387	-22.9	-30.0	282	12
2023-08-12T00:00	7803	386	-23.1	-29.6	282	12
2023-08-12T00:00	7818	385	-23.2	-29.8	282	12
2023-08-12T00:00	7836	384	-23.4	-30.0	282	12
2023-08-12T00:00	7852	383	-23.6	-30.1	283	13
2023-08-12T00:00	7869	382	-23.7	-30.1	283	13
2023-08-12T00:00	7886	382	-23.9	-30.3	283	13
2023-08-12T00:00	7903	381	-24.0	-30.4	283	13
2023-08-12T00:00	7920	380	-24.2	-30.6	282	13
2023-08-12T00:00	7938	379	-24.4	-30.8	282	13
2023-08-12T00:00	7953	378	-24.5	-30.9	282	13
2023-08-12T00:00	7972	377	-24.7	-31.1	283	13
2023-08-12T00:00	7990	376	-24.8	-31.4	283	13
2023-08-12T00:00	8008	375	-25.0	-32.0	284	13
2023-08-12T00:00	8026	374	-25.1	-32.1	284	13
2023-08-12T00:00	8042	373	-25.3	-33.3	285	13
2023-08-12T00:00	8059	373	-25.4	-33.4	285	13
2023-08-12T00:00	8077	372	-25.5	-33.4	285	13
2023-08-12T00:00	8095	371	-25.7	-33.4	285	13
2023-08-12T00:00	8112	370	-25.8	-32.9	285	13
2023-08-12T00:00	8131	369	-25.9	-33.0	284	12
2023-08-12T00:00	8147	368	-26.1	-33.2	284	12
2023-08-12T00:00	8166	367	-26.2	-32.9	285	12
2023-08-12T00:00	8182	366	-26.4	-32.9	285	13
2023-08-12T00:00	8198	365	-26.5	-33.0	285	13
2023-08-12T00:00	8216	365	-26.7	-33.8	286	13
2023-08-12T00:00	8235	364	-26.9	-34.0	286	13
2023-08-12T00:00	8251	363	-27.0	-33.4	286	13
2023-08-12T00:00	8269	362	-27.2	-33.4	286	13
2023-08-12T00:00	8287	361	-27.4	-33.1	285	13
2023-08-12T00:00	8306	360	-27.5	-33.3	285	13
2023-08-12T00:00	8321	359	-27.7	-33.7	285	13
2023-08-12T00:00	8340	358	-27.8	-33.7	285	13
2023-08-12T00:00	8356	358	-28.0	-33.9	285	13
2023-08-12T00:00	8376	357	-28.2	-33.9	286	13
2023-08-12T00:00	8394	356	-28.4	-34.0	286	14
2023-08-12T00:00	8412	355	-28.5	-34.0	286	14
2023-08-12T00:00	8431	354	-28.7	-34.0	285	14
2023-08-12T00:00	8448	353	-28.9	-33.2	285	14
2023-08-12T00:00	8467	352	-29.1	-33.0	285	14
2023-08-12T00:00	8485	351	-29.2	-32.9	285	14
2023-08-12T00:00	8506	350	-29.4	-32.9	285	13
2023-08-12T00:00	8523	349	-29.6	-32.9	285	13
2023-08-12T00:00	8543	348	-29.8	-33.2	286	13
2023-08-12T00:00	8561	348	-29.9	-33.3	287	13
2023-08-12T00:00	8580	347	-29.8	-39.9	288	12
2023-08-12T00:00	8597	346	-30.0	-39.5	288	12
2023-08-12T00:00	8618	345	-30.2	-40.0	288	12
2023-08-12T00:00	8636	344	-30.3	-39.6	289	12
2023-08-12T00:00	8655	343	-30.5	-40.1	289	13
2023-08-12T00:00	8676	342	-30.6	-40.1	289	13
2023-08-12T00:00	8695	341	-30.8	-38.6	289	14
2023-08-12T00:00	8727	340	-31.0	-38.4	288	15
2023-08-12T00:00	8749	338	-30.9	-34.9	287	15
2023-08-12T00:00	8774	337	-30.8	-34.1	287	16
2023-08-12T00:00	8803	336	-31.0	-34.1	286	16
2023-08-12T00:00	8819	335	-31.1	-34.1	287	16
2023-08-12T00:00	8839	334	-31.3	-33.9	288	16
2023-08-12T00:00	8859	333	-31.3	-33.7	289	16
2023-08-12T00:00	8880	332	-31.4	-33.8	289	17
2023-08-12T00:00	8900	331	-31.6	-33.9	289	17
2023-08-12T00:00	8924	330	-31.7	-33.8	288	17
2023-08-12T00:00	8953	329	-31.9	-33.8	288	17
2023-08-12T00:00	8986	327	-32.2	-33.9	288	17
2023-08-12T00:00	9015	326	-32.5	-34.0	288	17
2023-08-12T00:00	9041	325	-32.8	-34.0	289	17
2023-08-12T00:00	9067	324	-33.0	-34.1	290	18
2023-08-12T00:00	9091	322	-33.2	-34.1	291	18
2023-08-12T00:00	9117	321	-33.5	-34.3	291	18
2023-08-12T00:00	9142	320	-33.7	-34.4	292	18
2023-08-12T00:00	9167	319	-33.9	-34.6	292	18
2023-08-12T00:00	9190	318	-34.1	-34.8	293	18
2023-08-12T00:00	9213	317	-34.3	-35.1	294	18
2023-08-12T00:00	9236	316	-34.4	-35.5	294	18
2023-08-12T00:00	9258	315	-34.5	-35.4	295	18
2023-08-12T00:00	9281	314	-34.7	-35.4	297	18
2023-08-12T00:00	9306	313	-34.9	-35.6	298	19
2023-08-12T00:00	9335	311	-35.1	-35.7	300	19
2023-08-12T00:00	9366	310	-35.4	-36.1	301	20
2023-08-12T00:00	9389	309	-35.5	-36.5	302	21
2023-08-12T00:00	9409	308	-35.7	-36.6	302	21
2023-08-12T00:00	9434	307	-35.8	-36.5	302	22
2023-08-12T00:00	9466	306	-36.1	-36.7	301	22
2023-08-12T00:00	9493	304	-36.3	-36.9	301	22
2023-08-12T00:00	9513	303	-36.4	-36.9	300	22
2023-08-12T00:00	9534	303	-36.5	-36.9	300	22
2023-08-12T00:00	9552	302	-36.6	-37.1	300	22
2023-08-12T00:00	9572	301	-36.7	-37.6	300	22
2023-08-12T00:00	9594	300	-36.7	-37.9	300	22
2023-08-12T00:00	9613	299	-36.8	-38.0	300	22
2023-08-12T00:00	9635	298	-36.9	-38.1	300	22
2023-08-12T00:00	9654	297	-37.0	-38.2	300	22
2023-08-12T00:00	9676	296	-37.0	-38.6	301	22
2023-08-12T00:00	9696	296	-37.2	-38.8	301	22
2023-08-12T00:00	9715	295	-37.3	-39.2	301	22
2023-08-12T00:00	9736	294	-37.4	-39.6	302	22
2023-08-12T00:00	9757	293	-37.5	-40.1	303	22
2023-08-12T00:00	9779	292	-37.6	-41.6	303	22
2023-08-12T00:00	9799	291	-37.6	-42.5	304	22
2023-08-12T00:00	9819	290	-37.8	-42.5	304	22
2023-08-12T00:00	9839	290	-38.0	-42.6	304	22
2023-08-12T00:00	9856	289	-38.1	-42.6	305	22
2023-08-12T00:00	9880	288	-38.3	-42.7	305	22
2023-08-12T00:00	9898	287	-38.5	-42.9	305	22
2023-08-12T00:00	9920	286	-38.7	-43.0	305	22
2023-08-12T00:00	9938	285	-38.9	-43.3	305	22
2023-08-12T00:00	9958	285	-39.1	-43.4	306	22
2023-08-12T00:00	9979	284	-39.2	-43.5	307	22
2023-08-12T00:00	9997	283	-39.4	-44.1	307	22
2023-08-12T00:00	10014	282	-39.6	-44.1	308	22
2023-08-12T00:00	10033	281	-39.8	-44.1	308	22
2023-08-12T00:00	10052	281	-39.9	-44.3	308	22
2023-08-12T00:00	10070	280	-40.1	-44.4	308	23
2023-08-12T00:00	10091	279	-40.3	-45.0	308	23
2023-08-12T00:00	10109	278	-40.5	-45.2	308	23
2023-08-12T00:00	10130	277	-40.7	-45.2	308	23
2023-08-12T00:00	10149	277	-40.9	-45.2	308	23
2023-08-12T00:00	10177	276	-41.1	-45.7	308	23
2023-08-12T00:00	10197	275	-41.3	-45.8	309	23
2023-08-12T00:00	10214	274	-41.5	-45.9	309	23
2023-08-12T00:00	10238	273	-41.7	-45.8	308	23
2023-08-12T00:00	10257	272	-41.9	-46.0	308	23
2023-08-12T00:00	10276	272	-42.1	-46.6	309	23
2023-08-12T00:00	10296	271	-42.3	-47.3	309	23
2023-08-12T00:00	10316	270	-42.5	-48.0	309	23
2023-08-12T00:00	10332	269	-42.6	-48.1	309	23
2023-08-12T00:00	10352	269	-42.8	-48.2	309	23
2023-08-12T00:00	10369	268	-42.9	-48.6	310	23
2023-08-12T00:00	10386	267	-43.1	-48.4	310	22
2023-08-12T00:00	10405	266	-43.2	-47.9	310	22
2023-08-12T00:00	10418	266	-43.3	-47.9	311	22
2023-08-12T00:00	10437	265	-43.5	-48.2	311	22
2023-08-12T00:00	10455	264	-43.6	-48.3	312	22
2023-08-12T00:00	10472	264	-43.8	-48.5	313	22
2023-08-12T00:00	10489	263	-43.9	-48.7	313	22
2023-08-12T00:00	10507	262	-44.0	-48.8	313	21
2023-08-12T00:00	10524	262	-44.1	-48.9	314	21
2023-08-12T00:00	10542	261	-44.2		314	21
2023-08-12T00:00	10559	260	-44.3	-49.5	314	21
2023-08-12T00:00	10575	260	-44.5	-49.8	314	21
2023-08-12T00:00	10594	259	-44.6	-49.7	314	20
2023-08-12T00:00	10609	258	-44.8	-49.7	314	20
2023-08-12T00:00	10628	258	-45.0	-49.9	315	20
2023-08-12T00:00	10644	257	-45.1	-50.0	315	20
2023-08-12T00:00	10660	256	-45.3	-50.1	315	20
2023-08-12T00:00	10681	256	-45.5	-50.2	315	20
2023-08-12T00:00	10698	255	-45.6	-50.2	315	20
2023-08-12T00:00	10716	254	-45.8	-50.4	315	20
2023-08-12T00:00	10733	254	-46.0	-50.4	315	20
2023-08-12T00:00	10752	253	-46.1	-50.4	316	20
2023-08-12T00:00	10769	252	-46.3	-50.5	316	20
2023-08-12T00:00	10787	252	-46.5	-50.9	316	20
2023-08-12T00:00	10805	251	-46.6	-51.0	316	20
2023-08-12T00:00	10823	250	-46.8	-51.0	316	20
2023-08-12T00:00	10841	250	-47.0	-51.1	316	20
2023-08-12T00:00	10858	249	-47.1	-51.3	316	20
2023-08-12T00:00	10875	248	-47.3	-52.0	315	20
2023-08-12T00:00	10895	248	-47.4	-52.4	315	20
2023-08-12T00:00	10912	247	-47.6	-52.5	315	20
2023-08-12T00:00	10933	246	-47.8	-52.6	315	20
2023-08-12T00:00	10951	245	-47.9	-52.9	315	21
2023-08-12T00:00	10967	245	-48.1	-53.1	315	21
2023-08-12T00:00	10985	244	-48.3	-53.3	314	21
2023-08-12T00:00	11004	244	-48.4	-53.4	314	21
2023-08-12T00:00	11022	243	-48.6	-53.6	314	21
2023-08-12T00:00	11040	242	-48.8	-53.8	314	21
2023-08-12T00:00	11059	241	-48.9	-53.7	314	21
2023-08-12T00:00	11076	241	-49.1	-53.8	314	21
2023-08-12T00:00	11095	240	-49.3	-53.9	314	21
2023-08-12T00:00	11112	240	-49.4	-53.9	314	21
2023-08-12T00:00	11129	239	-49.6	-54.1	314	21
2023-08-12T00:00	11145	238	-49.8	-54.3	315	21
2023-08-12T00:00	11166	238	-49.9	-54.3	315	21
2023-08-12T00:00	11182	237	-50.1	-54.4	315	22
2023-08-12T00:00	11202	236	-50.2	-54.4	316	22
2023-08-12T00:00	11220	236	-50.4	-54.5	316	22
2023-08-12T00:00	11238	235	-50.6	-54.6	317	22
2023-08-12T00:00	11257	234	-50.8	-54.8	318	22
2023-08-12T00:00	11276	234	-50.9	-54.9	319	21
2023-08-12T00:00	11295	233	-51.1	-55.2	320	21
2023-08-12T00:00	11313	232	-51.2	-55.4	321	21
2023-08-12T00:00	11331	232	-51.3	-55.8	322	22
2023-08-12T00:00	11350	231	-51.3	-56.0	322	22
2023-08-12T00:00	11367	230	-51.4	-56.1	323	21
2023-08-12T00:00	11387	230	-51.5	-56.2	324	21
2023-08-12T00:00	11406	229	-51.6	-56.2	324	21
2023-08-12T00:00	11423	228	-51.6	-56.2	324	21
2023-08-12T00:00	11443	228	-51.8	-56.3	324	21
2023-08-12T00:00	11461	227	-51.9	-56.3	325	21
2023-08-12T00:00	11479	226	-52.1	-56.5	325	21
2023-08-12T00:00	11498	226	-52.2	-56.6	326	21
2023-08-12T00:00	11516	225	-52.3	-56.8	327	21
2023-08-12T00:00	11534	224	-52.4	-56.9	328	21
2023-08-12T00:00	11552	224	-52.5	-57.0	328	20
2023-08-12T00:00	11570	223	-52.6	-57.2	328	20
2023-08-12T00:00	11588	223	-52.8	-57.5	327	20
2023-08-12T00:00	11607	222	-52.9	-57.7	327	20
2023-08-12T00:00	11625	221	-53.0	-57.8	327	20
2023-08-12T00:00	11643	221	-53.1	-57.9	327	20
2023-08-12T00:00	11664	220	-53.2	-58.0	328	20
2023-08-12T00:00	11681	219	-53.4	-58.3	328	20
2023-08-12T00:00	11699	219	-53.5	-58.6	328	20
2023-08-12T00:00	11717	218	-53.6	-58.7	329	20
2023-08-12T00:00	11734	218	-53.8	-58.8	329	20
2023-08-12T00:00	11753	217	-53.9	-58.8	330	20
2023-08-12T00:00	11772	216	-54.1	-58.9	330	21
2023-08-12T00:00	11791	216	-54.2	-59.0	330	21
2023-08-12T00:00	11808	215	-54.3	-59.0	330	21
2023-08-12T00:00	11829	214	-54.5	-59.1	330	21
2023-08-12T00:00	11846	214	-54.6	-59.2	330	21
2023-08-12T00:00	11865	213	-54.7	-59.4	329	21
2023-08-12T00:00	11884	213	-54.8	-59.6	329	22
2023-08-12T00:00	11901	212	-54.9	-59.7	329	22
2023-08-12T00:00	11918	211	-55.0	-59.7	328	22
2023-08-12T00:00	11937	211	-55.0	-59.7	328	22
2023-08-12T00:00	11957	210	-55.1	-59.8	327	22
2023-08-12T00:00	11974	210	-55.2	-59.9	327	22
2023-08-12T00:00	11993	209	-55.3	-60.0	326	22
2023-08-12T00:00	12011	208	-55.5	-60.2	326	22
2023-08-12T00:00	12027	208	-55.3	-60.0	325	22
2023-08-12T00:00	12045	207	-55.4	-60.2	325	21
2023-08-12T00:00	12065	207	-55.5	-60.4	325	21
2023-08-12T00:00	12084	206	-55.7	-60.6	325	21
2023-08-12T00:00	12104	205	-55.9	-60.7	325	21
2023-08-12T00:00	12125	205	-56.1	-60.7	324	21
2023-08-12T00:00	12145	204	-56.3	-60.7	324	21
2023-08-12T00:00	12166	203	-56.5	-60.7	323	20
2023-08-12T00:00	12186	203	-56.7	-60.7	323	20
2023-08-12T00:00	12203	202	-56.9	-60.6	322	20
2023-08-12T00:00	12221	202	-57.0	-60.5	322	19
2023-08-12T00:00	12240	201	-57.2	-60.5	322	20
2023-08-12T00:00	12261	200	-57.3	-60.4	322	20
2023-08-12T00:00	12277	200	-57.4	-60.4	322	20
2023-08-12T00:00	12294	199	-57.2	-60.3	322	20
2023-08-12T00:00	12311	199	-57.2	-60.4	323	21
2023-08-12T00:00	12329	198	-57.4	-60.6	323	21
2023-08-12T00:00	12347	198	-57.5	-60.9	323	21
2023-08-12T00:00	12366	197	-57.5	-61.5	323	20
2023-08-12T00:00	12381	197	-57.3	-62.3	323	20
2023-08-12T00:00	12400	196	-57.1	-63.1	323	20
2023-08-12T00:00	12420	195	-57.2	-64.1	323	19
2023-08-12T00:00	12437	195	-57.1	-64.8	323	18
2023-08-12T00:00	12453	194	-56.8	-65.6	323	18
2023-08-12T00:00	12471	194	-56.7	-66.9	323	18
2023-08-12T00:00	12488	193	-56.6	-68.5	323	17
2023-08-12T00:00	12510	193	-55.9	-69.7	320	17
2023-08-12T00:00	12540	192	-55.6	-71.5	317	17
2023-08-12T00:00	12571	191	-54.1	-72.8	312	18
2023-08-12T00:00	12604	190	-53.1	-74.7	309	18
2023-08-12T00:00	12619	189	-53.0	-75.9	306	19
2023-08-12T00:00	12638	189	-53.1	-75.5	305	19
2023-08-12T00:00	12658	188	-53.1	-74.8	304	20
2023-08-12T00:00	12677	188	-53.2	-74.3	304	20
2023-08-12T00:00	12699	187	-53.2	-73.8	303	20
2023-08-12T00:00	12721	186	-53.4	-73.7	303	20
2023-08-12T00:00	12743	186	-53.6	-73.7	302	21
2023-08-12T00:00	12764	185	-53.7	-73.5	301	22
2023-08-12T00:00	12781	185	-53.9	-73.4	301	22
2023-08-12T00:00	12803	184	-54.0	-73.3	300	22
2023-08-12T00:00	12826	183	-54.1	-73.1	300	23
2023-08-12T00:00	12847	183	-54.3		301	23
2023-08-12T00:00	12870	182	-54.6	-73.0	302	23
2023-08-12T00:00	12891	182	-54.8	-73.0	304	23
2023-08-12T00:00	12911	181	-54.9	-72.9	305	23
2023-08-12T00:00	12930	180	-55.1	-72.7	308	23
2023-08-12T00:00	12948	180	-55.2	-72.7	311	22
2023-08-12T00:00	12969	179	-54.9	-72.6	314	22
2023-08-12T00:00	12995	179	-54.3	-72.7	317	21
2023-08-12T00:00	13016	178	-54.1	-73.3	320	20
2023-08-12T00:00	13038	177	-53.6	-73.5	322	19
2023-08-12T00:00	13058	177	-53.5	-74.0	323	17
2023-08-12T00:00	13083	176	-52.7	-74.0	324	16
2023-08-12T00:00	13108	176	-52.5	-74.3	325	15
2023-08-12T00:00	13128	175	-52.5	-74.8	325	14
2023-08-12T00:00	13148	174	-52.3	-74.9	325	13
2023-08-12T00:00	13168	174	-52.2	-75.0	325	13
2023-08-12T00:00	13185	173	-52.2	-75.1	324	12
2023-08-12T00:00	13205	173	-52.3	-75.4	323	12
2023-08-12T00:00	13227	172	-52.5	-75.5	321	11
2023-08-12T00:00	13245	172	-52.6	-75.6	319	11
2023-08-12T00:00	13265	171	-52.7	-75.5	316	11
2023-08-12T00:00	13284	171	-52.8	-75.6	313	11
2023-08-12T00:00	13302	170	-52.8	-75.6	311	11
2023-08-12T00:00	13321	170	-52.9	-75.7	309	11
2023-08-12T00:00	13341	169	-53.0	-75.8	308	11
2023-08-12T00:00	13359	169	-53.1	-75.9	307	12
2023-08-12T00:00	13379	168	-53.1	-75.9	306	12
2023-08-12T00:00	13398	168	-53.2	-75.9	305	13
2023-08-12T00:00	13418	167	-53.0	-75.8	304	14
2023-08-12T00:00	13440	167	-53.0	-75.9	302	14
2023-08-12T00:00	13461	166	-53.0	-76.1	301	15
2023-08-12T00:00	13481	166	-53.1	-76.2	300	15
2023-08-12T00:00	13500	165	-53.1	-76.2	300	15
2023-08-12T00:00	13518	165	-53.2	-76.3	301	16
2023-08-12T00:00	13536	164	-53.1	-76.3	302	16
2023-08-12T00:00	13557	164	-53.1	-76.3	303	16
2023-08-12T00:00	13574	163	-53.1	-76.3	304	16
2023-08-12T00:00	13591	163	-53.0	-76.3	305	16
2023-08-12T00:00	13611	162	-53.0	-76.3	306	16
2023-08-12T00:00	13631	162	-53.2	-76.4	307	15
2023-08-12T00:00	13653	161	-53.3	-76.5	309	15
2023-08-12T00:00	13673	161	-53.5	-76.8	311	15
2023-08-12T00:00	13690	160	-53.3	-76.9	313	14
2023-08-12T00:00	13712	160	-53.3	-77.0	315	13
2023-08-12T00:00	13731	159	-53.3	-77.2	317	13
2023-08-12T00:00	13748	159	-53.4	-77.5	319	12
2023-08-12T00:00	13772	158	-53.4	-77.5	321	12
2023-08-12T00:00	13795	158	-53.6	-77.7	322	11
2023-08-12T00:00	13812	157	-53.8	-77.8	324	11
2023-08-12T00:00	13830	157	-53.8	-78.0	325	10
2023-08-12T00:00	13849	156	-53.8	-78.2	326	10
2023-08-12T00:00	13869	156	-53.9	-78.5	328	9
2023-08-12T00:00	13887	156	-53.9	-78.7	329	9
2023-08-12T00:00	13906	155	-53.8	-78.9	330	8
2023-08-12T00:00	13926	155	-53.8	-78.9	331	8
2023-08-12T00:00	13945	154	-53.8	-79.1	332	7
2023-08-12T00:00	13961	154	-53.8	-79.3	332	7
2023-08-12T00:00	13980	153	-53.9	-79.4	333	7
2023-08-12T00:00	13997	153	-54.0	-79.5	333	6
2023-08-12T00:00	14016	152	-54.1	-79.6	332	6
2023-08-12T00:00	14033	152	-54.3	-79.7	330	6
2023-08-12T00:00	14053	152	-54.4	-79.8	326	5
2023-08-12T00:00	14072	151	-54.5	-79.9	319	5
2023-08-12T00:00	14092	151	-54.5	-79.9	310	5
2023-08-12T00:00	14112	150	-54.5	-79.6	301	5
2023-08-12T00:00	14132	150	-54.7	-79.8	292	5
2023-08-12T00:00	14152	149	-54.7	-79.8	285	5
2023-08-12T00:00	14171	149	-54.6	-79.7	280	6
2023-08-12T00:00	14190	148	-54.6	-79.7	276	6
2023-08-12T00:00	14206	148	-54.6	-79.7	274	7
2023-08-12T00:00	14226	148	-54.6	-79.7	273	7
2023-08-12T00:00	14244	147	-54.7	-79.8	273	8
2023-08-12T00:00	14262	147	-54.8	-79.7	273	8
2023-08-12T00:00	14279	146	-54.9	-79.7	274	9
2023-08-12T00:00	14296	146	-54.9	-79.5	276	10
2023-08-12T00:00	14317	145	-54.9	-79.5	277	10
2023-08-12T00:00	14332	145	-54.9	-79.3	279	11
2023-08-12T00:00	14349	145	-55.0	-79.4	280	11
2023-08-12T00:00	14370	144	-54.9	-79.3	281	11
2023-08-12T00:00	14386	144	-54.9	-79.3	282	11
2023-08-12T00:00	14407	143	-55.0	-79.4	283	11
2023-08-12T00:00	14422	143	-55.0	-79.4	283	10
2023-08-12T00:00	14442	143	-55.0	-79.8	283	10
2023-08-12T00:00	14460	142	-54.7	-79.8	283	10
2023-08-12T00:00	14481	142	-54.7	-80.0	283	10
2023-08-12T00:00	14500	141	-54.7	-80.3	282	10
2023-08-12T00:00	14521	141	-54.6	-80.5	281	10
2023-08-12T00:00	14542	140	-54.6	-80.7	281	10
2023-08-12T00:00	14561	140	-54.6	-80.7	282	10
2023-08-12T00:00	14579	140	-54.5	-80.9	283	10
2023-08-12T00:00	14598	139	-54.3	-80.8	284	10
2023-08-12T00:00	14616	139	-54.3	-80.8	284	10
2023-08-12T00:00	14637	138	-54.3	-80.8	284	10
2023-08-12T00:00	14654	138	-54.2	-81.0	283	10
2023-08-12T00:00	14676	137	-54.2	-81.0	282	10
2023-08-12T00:00	14695	137	-54.1	-80.9	280	10
2023-08-12T00:00	14714	137	-54.3	-81.1	279	9
2023-08-12T00:00	14735	136	-54.4	-81.2	279	9
2023-08-12T00:00	14755	136	-54.4	-81.2	279	9
2023-08-12T00:00	14774	135	-54.5	-81.2	280	9
2023-08-12T00:00	14793	135	-54.6	-81.0	280	9
2023-08-12T00:00	14814	135	-54.6	-81.0	280	8
2023-08-12T00:00	14833	134	-54.7	-81.1	279	8
2023-08-12T00:00	14854	134	-54.8	-81.2	278	8
2023-08-12T00:00	14875	133	-54.9	-81.3	277	8
2023-08-12T00:00	14894	133	-55.0	-81.3	276	8
2023-08-12T00:00	14915	132	-55.2	-81.2	276	8
2023-08-12T00:00	14938	132	-55.3	-81.3	275	9
2023-08-12T00:00	14955	132	-55.4	-81.4	274	9
2023-08-12T00:00	14977	131	-55.5	-81.4	274	9
2023-08-12T00:00	14998	131	-55.6	-81.5	274	9
2023-08-12T00:00	15019	130	-55.7	-81.6	274	9
2023-08-12T00:00	15039	130	-55.8	-82.0	275	9
2023-08-12T00:00	15058	129	-55.8	-82.0	276	9
2023-08-12T00:00	15078	129	-55.6	-81.8	278	9
2023-08-12T00:00	15097	129	-55.5	-81.7	280	8
2023-08-12T00:00	15119	128	-55.4	-81.9	283	8
2023-08-12T00:00	15139	128	-55.4	-81.9	286	8
2023-08-12T00:00	15158	127	-55.5	-82.0	288	8
2023-08-12T00:00	15176	127	-55.6	-82.1	291	8
2023-08-12T00:00	15197	127	-55.5	-81.7	292	7
2023-08-12T00:00	15215	126	-55.5	-81.7	293	7
2023-08-12T00:00	15237	126	-55.5	-81.7	292	7
2023-08-12T00:00	15257	126	-55.6	-81.8	291	7
2023-08-12T00:00	15276	125	-55.7	-81.9	290	6
2023-08-12T00:00	15294	125	-55.8	-81.7	289	6
2023-08-12T00:00	15313	124	-55.9	-81.8	287	6
2023-08-12T00:00	15335	124	-56.0	-81.8	286	6
2023-08-12T00:00	15353	124	-56.2	-81.7	285	6
2023-08-12T00:00	15371	123	-56.4	-81.9	284	7
2023-08-12T00:00	15390	123	-56.5	-82.0	284	7
2023-08-12T00:00	15410	123	-56.6	-82.0	283	7
2023-08-12T00:00	15430	122	-56.7	-82.1	282	7
2023-08-12T00:00	15447	122	-56.8	-82.2	282	8
2023-08-12T00:00	15469	121	-56.9	-82.3	282	8
2023-08-12T00:00	15486	121	-57.0	-82.3	283	8
2023-08-12T00:00	15504	121	-57.0	-82.3	284	8
2023-08-12T00:00	15522	120	-57.0	-82.3	286	7
2023-08-12T00:00	15542	120	-57.0	-82.6	287	7
2023-08-12T00:00	15560	120	-56.8	-82.5	289	7
2023-08-12T00:00	15576	119	-56.8	-82.5	289	6
2023-08-12T00:00	15594	119	-56.8	-82.5	290	6
2023-08-12T00:00	15614	119	-56.9	-82.8	290	6
2023-08-12T00:00	15635	118	-56.6	-82.6	289	5
2023-08-12T00:00	15654	118	-56.6	-82.6	288	5
2023-08-12T00:00	15671	118	-56.6	-82.3	287	5
2023-08-12T00:00	15689	117	-56.7	-82.4	285	5
2023-08-12T00:00	15710	117	-56.9	-82.5	282	5
2023-08-12T00:00	15728	117	-57.0	-82.3	278	5
2023-08-12T00:00	15748	116	-57.2	-82.5	275	5
2023-08-12T00:00	15765	116	-57.1	-82.4	273	5
2023-08-12T00:00	15786	115	-57.1	-82.4	271	5
2023-08-12T00:00	15804	115	-57.3	-82.6	271	5
2023-08-12T00:00	15819	115	-57.4	-82.7	270	5
2023-08-12T00:00	15841	114	-57.6	-82.8	270	6
2023-08-12T00:00	15860	114	-57.7	-82.9	270	6
2023-08-12T00:00	15878	114	-57.8	-82.7	270	6
2023-08-12T00:00	15897	113	-58.0	-82.9	271	7
2023-08-12T00:00	15915	113	-58.1	-83.0	272	7
2023-08-12T00:00	15936	113	-58.2	-83.3	275	7
2023-08-12T00:00	15954	112	-58.0	-83.1	278	8
2023-08-12T00:00	15972	112	-57.9	-83.3	283	8
2023-08-12T00:00	15998	112	-57.9	-83.3	287	8
2023-08-12T00:00	16015	111	-57.7	-83.4	292	7
2023-08-12T00:00	16033	111	-57.6	-83.6	295	7
2023-08-12T00:00	16053	111	-57.4	-83.8	298	7
2023-08-12T00:00	16072	110	-56.8	-83.6	299	6
2023-08-12T00:00	16090	110	-56.4	-83.3	299	6
2023-08-12T00:00	16112	110	-56.5	-83.7	298	6
2023-08-12T00:00	16132	109	-56.6	-83.8	296	5
2023-08-12T00:00	16152	109	-56.8	-83.6	294	5
2023-08-12T00:00	16169	109	-56.9	-83.7	293	5
2023-08-12T00:00	16192	108	-57.1	-83.9	293	6
2023-08-12T00:00	16214	108	-57.2	-83.9	294	6
2023-08-12T00:00	16232	108	-57.3	-84.0	296	6
2023-08-12T00:00	16252	107	-57.3	-84.0	297	6
2023-08-12T00:00	16271	107	-57.2	-84.3	298	6
2023-08-12T00:00	16292	107	-56.9	-84.0	299	6
2023-08-12T00:00	16314	106	-56.2	-83.9	299	6
2023-08-12T00:00	16335	106	-56.0	-83.7	298	6
2023-08-12T00:00	16354	106	-55.8	-83.6	298	6
2023-08-12T00:00	16371	105	-55.8	-83.6	298	5
2023-08-12T00:00	16394	105	-55.6	-83.4	298	5
2023-08-12T00:00	16413	105	-55.7	-83.5	299	5
2023-08-12T00:00	16433	104	-55.8	-83.6	298	5
2023-08-12T00:00	16454	104	-55.8	-83.6	296	5
2023-08-12T00:00	16476	104	-55.7	-83.5	293	4
2023-08-12T00:00	16493	103	-55.7	-83.9	291	4
2023-08-12T00:00	16517	103	-55.7	-83.9	291	4
2023-08-12T00:00	16535	103	-55.6	-83.8	293	4
2023-08-12T00:00	16557	102	-55.5	-83.7	298	4
2023-08-12T00:00	16578	102	-55.4	-84.0	305	3
2023-08-12T00:00	16600	102	-55.2	-83.9	314	3
2023-08-12T00:00	16620	101	-54.9	-83.7	324	3
2023-08-12T00:00	16640	101	-54.6	-83.4	333	2
2023-08-12T00:00	16661	101	-54.6	-83.4	341	2
2023-08-12T00:00	16684	100	-54.7	-83.5	347	2
2023-08-12T00:00	16704	100	-54.9	-83.7	353	2
2023-08-12T00:00	16724	100	-55.1	-83.8	1	1
2023-08-12T00:00	16746	99	-55.0		13	1
2023-08-12T00:00	16765	99	-55.1	-83.4	37	1
2023-08-12T00:00	16787	99	-55.2	-83.5	102	0
2023-08-12T00:00	16810	98	-55.3	-83.6	149	1
2023-08-12T00:00	16832	98	-55.4	-83.6	164	1
2023-08-12T00:00	16852	98	-55.5	-83.7	170	2
2023-08-12T00:00	16870	97	-55.6	-83.8	172	2
2023-08-12T00:00	16891	97	-55.7	-83.9	173	3
2023-08-12T00:00	16911	97	-55.9	-83.6	175	3
2023-08-12T00:00	16931	96	-56.0	-83.7	177	4
2023-08-12T00:00	16952	96	-56.1	-83.8	181	4
2023-08-12T00:00	16970	96	-56.1	-83.8	186	4
2023-08-12T00:00	16990	96	-56.3	-83.9	192	4
2023-08-12T00:00	17011	95	-56.2	-83.9	199	3
2023-08-12T00:00	17028	95	-56.2	-83.9	206	3
2023-08-12T00:00	17052	95	-56.2	-83.9	213	3
2023-08-12T00:00	17071	94	-56.3	-83.9	218	3
2023-08-12T00:00	17089	94	-56.3	-83.9	222	3
2023-08-12T00:00	17110	94	-56.4	-84.0	225	4
2023-08-12T00:00	17127	93	-56.4	-84.0	227	4
2023-08-12T00:00	17148	93	-56.6	-83.8	228	4
2023-08-12T00:00	17167	93	-56.7	-83.9	229	4
2023-08-12T00:00	17189	93	-56.7	-84.2	229	4
2023-08-12T00:00	17207	92	-56.7	-84.2	228	4
2023-08-12T00:00	17225	92	-56.7	-84.2	227	4
2023-08-12T00:00	17246	92	-56.8	-84.0	226	4
2023-08-12T00:00	17262	91	-56.9	-84.0	224	4
2023-08-12T00:00	17283	91	-57.0	-84.1	223	4
2023-08-12T00:00	17302	91	-56.9	-84.4	222	4
2023-08-12T00:00	17324	91	-56.7	-84.2	222	4
2023-08-12T00:00	17344	90	-56.7	-84.2	220	4
2023-08-12T00:00	17362	90	-56.9	-84.0	217	4
2023-08-12T00:00	17381	90	-57.0	-84.1	212	4
2023-08-12T00:00	17402	90	-57.2	-84.3	206	4
2023-08-12T00:00	17422	89	-57.2	-84.3	200	4
2023-08-12T00:00	17441	89	-57.1	-84.2	196	4
2023-08-12T00:00	17462	89	-57.1	-84.2	194	4
2023-08-12T00:00	17481	88	-57.1	-84.6	194	4
2023-08-12T00:00	17499	88	-57.1	-84.6	196	5
2023-08-12T00:00	17520	88	-57.2	-84.6	200	5
2023-08-12T00:00	17541	88	-57.0	-84.5	204	5
2023-08-12T00:00	17560	87	-57.0	-84.5	210	5
2023-08-12T00:00	17586	87	-57.2	-84.3	216	5
2023-08-12T00:00	17604	87	-57.3	-84.4	223	5
2023-08-12T00:00	17624	86	-57.3	-84.4	230	4
2023-08-12T00:00	17641	86	-57.3	-84.7	236	4
2023-08-12T00:00	17663	86	-57.2	-84.6	243	4
2023-08-12T00:00	17681	86	-57.1	-84.6	250	4
2023-08-12T00:00	17704	85	-57.1	-84.6	257	4
2023-08-12T00:00	17725	85	-57.0	-84.5	265	4
2023-08-12T00:00	17744	85	-57.1	-84.6	273	4
2023-08-12T00:00	17764	85	-57.2	-84.6	279	4
2023-08-12T00:00	17784	84	-57.2	-84.6	284	4
2023-08-12T00:00	17808	84	-57.0	-84.5	287	4
2023-08-12T00:00	17829	84	-57.0	-84.5	288	3
2023-08-12T00:00	17848	83	-56.8	-84.7	287	3
2023-08-12T00:00	17872	83	-56.8	-84.7	283	3
2023-08-12T00:00	17893	83	-56.9	-84.4	277	3
2023-08-12T00:00	17913	83	-56.9	-84.4	271	2
2023-08-12T00:00	17935	82	-56.9	-84.4	264	2
2023-08-12T00:00	17953	82	-57.1	-84.6	258	2
2023-08-12T00:00	17976	82	-57.2	-84.6	252	2
2023-08-12T00:00	17998	81	-57.3	-84.7	248	2
2023-08-12T00:00	18017	81	-57.5	-84.9	246	3
2023-08-12T00:00	18039	81	-57.6	-84.9	248	3
2023-08-12T00:00	18061	81	-57.6	-84.9	251	4
2023-08-12T00:00	18080	80	-57.6	-84.9	254	5
2023-08-12T00:00	18102	80	-57.6	-84.9	257	5
2023-08-12T00:00	18123	80	-57.5	-85.2	261	5
2023-08-12T00:00	18146	80	-57.2	-85.0	264	5
2023-08-12T00:00	18166	79	-57.0	-84.8	266	4
2023-08-12T00:00	18188	79	-56.6	-84.9	267	4
2023-08-12T00:00	18206	79	-56.6	-84.9	267	3
2023-08-12T00:00	18228	79	-56.6	-84.9	267	3
2023-08-12T00:00	18250	78	-56.6	-84.9	268	3
2023-08-12T00:00	18272	78	-56.5	-84.9	268	2
2023-08-12T00:00	18290	78	-56.4	-84.8	268	2
2023-08-12T00:00	18309	78	-56.4	-84.8	266	3
2023-08-12T00:00	18327	77	-56.2	-84.6	262	3
2023-08-12T00:00	18350	77	-56.1	-84.6	257	3
2023-08-12T00:00	18371	77	-56.2	-84.6	252	3
2023-08-12T00:00	18388	77	-56.3	-84.7	248	4
2023-08-12T00:00	18410	76	-56.3	-85.1	246	4
2023-08-12T00:00	18429	76	-56.0	-84.9	245	4
2023-08-12T00:00	18449	76	-55.6	-84.6	246	5
2023-08-12T00:00	18472	76	-55.5	-84.5	247	5
2023-08-12T00:00	18491	75	-55.5	-84.5	248	5
2023-08-12T00:00	18509	75	-55.7	-84.7	249	6
2023-08-12T00:00	18530	75	-55.8	-84.8	251	5
2023-08-12T00:00	18546	75	-55.9	-84.8	253	5
2023-08-12T00:00	18567	74	-56.0	-84.9	256	5
2023-08-12T00:00	18589	74	-55.8	-84.8	260	4
2023-08-12T00:00	18611	74	-55.7	-84.7	263	3
2023-08-12T00:00	18630	74	-55.4	-84.5	265	3
2023-08-12T00:00	18649	74	-55.5	-84.5	264	2
2023-08-12T00:00	18668	73	-55.4	-84.5	258	2
2023-08-12T00:00	18689	73	-55.3	-84.4	243	1
2023-08-12T00:00	18709	73	-55.3	-84.4	215	1
2023-08-12T00:00	18730	73	-55.3	-84.4	184	1
2023-08-12T00:00	18751	72	-55.4	-84.5	164	1
2023-08-12T00:00	18771	72	-55.4	-84.5	153	1
2023-08-12T00:00	18789	72	-55.5	-84.5	149	1
2023-08-12T00:00	18813	72	-55.6	-84.6	152	1
2023-08-12T00:00	18833	71	-55.7	-84.7	161	1
2023-08-12T00:00	18854	71	-55.8	-84.8	175	1
2023-08-12T00:00	18877	71	-55.8	-84.8	190	1
2023-08-12T00:00	18898	71	-55.9	-84.4	204	1
2023-08-12T00:00	18919	70	-56.0	-84.5	217	1
2023-08-12T00:00	18941	70	-56.1	-84.6	224	0
2023-08-12T00:00	18962	70	-56.3	-84.7	102	0
2023-08-12T00:00	18979	70	-56.3	-84.7	80	1
2023-08-12T00:00	19004	70	-56.3	-84.7	79	1
2023-08-12T00:00	19021	69	-56.2	-85.1	75	1
2023-08-12T00:00	19048	69	-55.9	-84.8	67	1
2023-08-12T00:00	19067	69	-56.0	-84.9	58	2
2023-08-12T00:00	19084	69	-55.9	-84.8	53	2
2023-08-12T00:00	19108	68	-56.0	-84.9	55	3
2023-08-12T00:00	19129	68	-55.9	-84.8	60	3
2023-08-12T00:00	19151	68	-55.8	-85.2	67	4
2023-08-12T00:00	19172	68	-55.4	-84.9	74	4
2023-08-12T00:00	19191	68	-55.3	-84.9	81	4
2023-08-12T00:00	19215	67	-55.1	-84.7	89	4
2023-08-12T00:00	19229	67	-55.1	-84.7	96	4
2023-08-12T00:00	19251	67	-55.2	-84.8	102	4
2023-08-12T00:00	19272	67	-55.3	-84.9	109	4
2023-08-12T00:00	19294	66	-55.4	-84.5	115	4
2023-08-12T00:00	19316	66	-55.5	-84.5	122	4
2023-08-12T00:00	19338	66	-55.5	-84.5	128	4
2023-08-12T00:00	19357	66	-55.5	-84.5	133	4
2023-08-12T00:00	19375	66	-55.6	-84.6	138	4
2023-08-12T00:00	19397	65	-55.6	-84.6	142	4
2023-08-12T00:00	19420	65	-55.5	-85.0	145	4
2023-08-12T00:00	19439	65	-55.6	-85.1	148	4
2023-08-12T00:00	19459	65	-55.4	-84.9	151	3
2023-08-12T00:00	19481	65	-55.0	-84.6	153	3
2023-08-12T00:00	19503	64	-54.8	-84.5	153	3
2023-08-12T00:00	19520	64	-54.7	-84.9	152	2
2023-08-12T00:00	19547	64	-54.6	-84.8	151	2
2023-08-12T00:00	19563	64	-54.5	-84.8	150	2
2023-08-12T00:00	19589	63	-54.3	-84.6	148	2
2023-08-12T00:00	19605	63	-54.3	-84.1	143	1
2023-08-12T00:00	19628	63	-54.3	-84.1	134	1
2023-08-12T00:00	19646	63	-54.5	-84.3	117	1
2023-08-12T00:00	19669	63	-54.6	-84.3	105	1
2023-08-12T00:00	19690	62	-54.7	-84.4	102	2
2023-08-12T00:00	19715	62	-54.9	-84.6	104	2
2023-08-12T00:00	19735	62	-55.0	-84.6	107	3
2023-08-12T00:00	19759	62	-54.7	-84.4	110	3
2023-08-12T00:00	19780	62	-54.7	-84.4	112	4
2023-08-12T00:00	19796	61	-54.7	-84.4	115	4
2023-08-12T00:00	19819	61	-54.7	-84.4	118	5
2023-08-12T00:00	19842	61	-54.8	-84.5	121	5
2023-08-12T00:00	19865	61	-54.8	-84.5	124	5
2023-08-12T00:00	19885	61	-55.0	-84.6	128	5
2023-08-12T00:00	19908	60	-55.1	-84.2	133	6
2023-08-12T00:00	19931	60	-55.2	-84.3	138	6
2023-08-12T00:00	19951	60	-55.3	-84.4	144	6
2023-08-12T00:00	19974	60	-55.3	-84.4	149	6
2023-08-12T00:00	19996	60	-55.3	-84.4	155	6
2023-08-12T00:00	20014	59	-55.4	-84.9	160	6
2023-08-12T00:00	20039	59	-55.3	-84.9	165	6
2023-08-12T00:00	20058	59	-55.2	-84.8	169	6
2023-08-12T00:00	20084	59	-55.2	-84.8	170	6
2023-08-12T00:00	20105	59	-55.1	-84.7	169	6
2023-08-12T00:00	20126	58	-55.0	-84.6	166	6
2023-08-12T00:00	20146	58	-54.6	-84.3	163	6
2023-08-12T00:00	20165	58	-54.5	-84.8	162	6
2023-08-12T00:00	20194	58	-54.4	-84.7	162	7
2023-08-12T00:00	20209	58	-54.3	-84.6	163	6
2023-08-12T00:00	20235	57	-54.3	-84.6	164	6
2023-08-12T00:00	20258	57	-54.2	-84.5	165	6
2023-08-12T00:00	20272	57	-54.1	-84.5	166	6
2023-08-12T00:00	20296	57	-54.0	-84.4	167	6
2023-08-12T00:00	20322	57	-54.1	-84.0	167	6
2023-08-12T00:00	20341	56	-54.1	-84.0	168	6
2023-08-12T00:00	20366	56	-54.1	-84.0	169	6
2023-08-12T00:00	20386	56	-54.2	-84.0	169	6
2023-08-12T00:00	20409	56	-54.3	-84.1	169	6
2023-08-12T00:00	20428	56	-54.3	-84.1	168	5
2023-08-12T00:00	20451	55	-54.4	-84.2	166	5
2023-08-12T00:00	20474	55	-54.4	-84.2	165	5
2023-08-12T00:00	20496	55	-54.3	-84.1	163	4
2023-08-12T00:00	20516	55	-54.4	-84.2	162	4
2023-08-12T00:00	20541	55	-54.4	-84.2	161	3
2023-08-12T00:00	20560	55	-54.5	-84.3	162	3
2023-08-12T00:00	20583	54	-54.5	-84.3	165	2
2023-08-12T00:00	20604	54	-54.5	-84.3	171	2
2023-08-12T00:00	20624	54	-54.6	-84.3	179	1
2023-08-12T00:00	20646	54	-54.6	-84.3	192	1
2023-08-12T00:00	20669	54	-54.7	-84.4	229	1
2023-08-12T00:00	20692	53	-54.8	-84.5	277	1
2023-08-12T00:00	20711	53	-54.8	-84.5	293	2
2023-08-12T00:00	20733	53	-54.8	-84.5	296	2
2023-08-12T00:00	20754	53	-54.6	-84.3	296	3
2023-08-12T00:00	20778	53	-54.5	-84.3	295	3
2023-08-12T00:00	20799	53	-54.5	-84.8	295	3
2023-08-12T00:00	20817	52	-54.1	-84.5	296	3
2023-08-12T00:00	20842	52	-54.2	-84.5	299	3
2023-08-12T00:00	20856	52	-54.2	-84.5	304	3
2023-08-12T00:00	20882	52	-54.0	-84.4	311	3
2023-08-12T00:00	20904	52	-54.0	-83.9	320	2
2023-08-12T00:00	20927	52	-54.1	-84.0	332	2
2023-08-12T00:00	20949	51	-54.2	-84.0	344	2
2023-08-12T00:00	20968	51	-54.2	-84.0	356	3
2023-08-12T00:00	20995	51	-54.1	-84.0	5	3
2023-08-12T00:00	21017	51	-54.1	-84.0	10	3
2023-08-12T00:00	21036	51	-54.1	-84.0	10	4
2023-08-12T00:00	21056	50	-54.1	-84.0	7	4
2023-08-12T00:00	21079	50	-54.2	-84.0	3	5
2023-08-12T00:00	21100	50	-54.2	-84.0	359	5
2023-08-12T00:00	21121	50	-54.2	-84.0	357	5
2023-08-12T00:00	21145	50	-54.3	-84.1	356	5
2023-08-12T00:00	21165	50	-54.4	-84.2	357	5
2023-08-12T00:00	21191	49	-54.2	-84.0	358	4
2023-08-12T00:00	21208	49	-54.3	-84.1	2	4
2023-08-12T00:00	21238	49	-54.5	-84.3	10	3
2023-08-12T00:00	21258	49	-54.6	-84.3	24	2
2023-08-12T00:00	21276	49	-54.6	-84.3	47	2
2023-08-12T00:00	21303	49	-54.6	-84.3	70	2
2023-08-12T00:00	21321	48	-54.4	-84.2	86	2
2023-08-12T00:00	21347	48	-54.3	-84.1	95	3
2023-08-12T00:00	21367	48	-54.4	-84.2	99	3
2023-08-12T00:00	21387	48	-54.5	-84.3	100	3
2023-08-12T00:00	21410	48	-54.5	-84.3	100	4
2023-08-12T00:00	21431	48	-54.5	-84.3	99	4
2023-08-12T00:00	21450	47	-54.5	-84.3	98	4
2023-08-12T00:00	21474	47	-54.4	-84.7	95	5
2023-08-12T00:00	21496	47	-54.3	-84.6	92	5
2023-08-12T00:00	21518	47	-53.8	-84.2	88	5
2023-08-12T00:00	21538	47	-53.5	-84.0	83	5
2023-08-12T00:00	21559	47	-53.5	-84.0	79	5
2023-08-12T00:00	21591	46	-53.5	-84.0	77	5
2023-08-12T00:00	21607	46	-53.6	-84.1	78	5
2023-08-12T00:00	21626	46	-53.6	-84.1	81	5
2023-08-12T00:00	21650	46	-53.6	-84.1	86	6
2023-08-12T00:00	21670	46	-53.3	-83.9	90	6
2023-08-12T00:00	21689	46	-53.0	-83.6	94	7
2023-08-12T00:00	21707	46	-52.9	-83.6	96	8
2023-08-12T00:00	21732	45	-52.9	-83.6	97	8
2023-08-12T00:00	21756	45	-53.0	-83.6	99	8
2023-08-12T00:00	21777	45	-52.9	-83.6	101	8
2023-08-12T00:00	21798	45	-52.7	-83.4	105	7
2023-08-12T00:00	21822	45	-52.6	-83.3	109	7
2023-08-12T00:00	21843	45	-52.7	-83.4	115	7
2023-08-12T00:00	21864	44	-52.8	-83.5	121	7
2023-08-12T00:00	21884	44	-52.8	-83.5	127	6
2023-08-12T00:00	21903	44	-52.9	-83.6	134	6
2023-08-12T00:00	21933	44	-52.9	-83.6	142	6
2023-08-12T00:00	21951	44	-52.6	-83.3	148	5
2023-08-12T00:00	21977	44	-52.3	-83.1	154	5
2023-08-12T00:00	21998	44	-52.4	-83.2	158	4
2023-08-12T00:00	22018	43	-52.4	-83.2	159	4
2023-08-12T00:00	22039	43	-52.4	-83.2	157	4
2023-08-12T00:00	22071	43	-52.4	-83.2	149	3
2023-08-12T00:00	22089	43	-52.4	-83.2	133	3
2023-08-12T00:00	22117	43	-52.5	-83.3	111	2
2023-08-12T00:00	22147	43	-52.4	-83.2	91	3
2023-08-12T00:00	22163	42	-52.5	-83.3	77	3
2023-08-12T00:00	22190	42	-52.6	-83.3	66	3
2023-08-12T00:00	22213	42	-52.8	-83.5	58	4
2023-08-12T00:00	22240	42	-52.9	-83.6	51	4
2023-08-12T00:00	22257	42	-53.0	-83.6	47	4
2023-08-12T00:00	22282	42	-53.1	-83.7	46	5
2023-08-12T00:00	22308	42	-53.0	-83.6	49	5
2023-08-12T00:00	22330	41	-52.8	-83.5	53	5
2023-08-12T00:00	22356	41	-52.6	-83.3	59	5
2023-08-12T00:00	22377	41	-52.7	-83.4	65	5
2023-08-12T00:00	22405	41	-52.7	-83.4	72	5
2023-08-12T00:00	22432	41	-52.7	-83.4	79	5
2023-08-12T00:00	22451	41	-52.7	-83.4	86	5
2023-08-12T00:00	22472	41	-52.4	-83.2	93	5
2023-08-12T00:00	22493	40	-52.4	-83.2	98	5
2023-08-12T00:00	22526	40	-52.5	-83.3	101	5
2023-08-12T00:00	22544	40	-52.6	-83.3	103	6
2023-08-12T00:00	22569	40	-52.8	-83.5	104	6
2023-08-12T00:00	22585	40	-52.9	-83.6	105	6
2023-08-12T00:00	22610	40	-53.0	-83.6	106	6
2023-08-12T00:00	22634	40	-53.0	-83.6	107	6
2023-08-12T00:00	22652	39	-53.0	-83.6	108	6
2023-08-12T00:00	22675	39	-53.1	-83.7	110	6
2023-08-12T00:00	22705	39	-53.2	-83.8	112	7
2023-08-12T00:00	22722	39	-53.2	-83.8	114	7
2023-08-12T00:00	22749	39	-53.2	-83.8	116	7
2023-08-12T00:00	22769	39	-53.0	-83.6	117	7
2023-08-12T00:00	22792	39	-52.8	-83.5	119	7
2023-08-12T00:00	22816	38	-52.8	-83.5	120	7
2023-08-12T00:00	22834	38	-52.8	-83.5	122	7
2023-08-12T00:00	22862	38	-53.0	-83.6	123	7
2023-08-12T00:00	22879	38	-53.2	-83.8	124	6
2023-08-12T00:00	22907	38	-53.3	-83.9	124	6
2023-08-12T00:00	22927	38	-53.2	-83.8	123	6
2023-08-12T00:00	22946	38	-53.1	-83.7	120	5
2023-08-12T00:00	22972	37	-53.1	-83.7	116	5
2023-08-12T00:00	22997	37	-52.9	-83.6	111	4
2023-08-12T00:00	23020	37	-53.0	-83.6	107	4
2023-08-12T00:00	23039	37	-53.1	-83.7	105	4
2023-08-12T00:00	23060	37	-53.1	-83.7	102	4
2023-08-12T00:00	23086	37	-53.1	-83.7	100	4
2023-08-12T00:00	23110	37	-53.2	-83.8	96	4
2023-08-12T00:00	23130	37	-53.3	-83.9	90	4
2023-08-12T00:00	23149	36	-53.2	-83.8	83	4
2023-08-12T00:00	23171	36	-53.3	-83.9	76	4
2023-08-12T00:00	23198	36	-53.3	-83.9	71	5
2023-08-12T00:00	23219	36	-53.2	-83.8	67	5
2023-08-12T00:00	23236	36	-53.2	-83.8	65	5
2023-08-12T00:00	23261	36	-53.0	-84.2	64	6
2023-08-12T00:00	23282	36	-52.9	-84.1	63	7
2023-08-12T00:00	23303	36	-52.9	-84.1	64	7
2023-08-12T00:00	23330	35	-52.9	-84.1	64	7
2023-08-12T00:00	23351	35	-52.9	-84.1	66	7
2023-08-12T00:00	23370	35	-53.0	-83.6	67	7
2023-08-12T00:00	23399	35	-53.0	-83.6	69	7
2023-08-12T00:00	23422	35	-53.0	-83.6	71	7
2023-08-12T00:00	23439	35	-53.1	-83.7	73	8
2023-08-12T00:00	23465	35	-53.2	-83.8	75	8
2023-08-12T00:00	23485	35	-53.2	-83.8	77	8
2023-08-12T00:00	23513	34	-53.3	-83.9	78	8
2023-08-12T00:00	23533	34	-53.4	-83.9	78	8
2023-08-12T00:00	23559	34	-53.4	-83.9	77	8
2023-08-12T00:00	23580	34	-53.5	-84.0	75	9
2023-08-12T00:00	23599	34	-53.5	-84.0	74	9
2023-08-12T00:00	23631	34	-53.4	-83.9	74	9
2023-08-12T00:00	23648	34	-53.4	-83.9	76	9
2023-08-12T00:00	23680	34	-53.3	-83.9	77	9
2023-08-12T00:00	23698	33	-53.3	-84.4	79	9
2023-08-12T00:00	23727	33	-53.3	-84.4	82	9
2023-08-12T00:00	23746	33	-53.3	-84.4	84	9
2023-08-12T00:00	23772	33	-53.3	-84.4	86	9
2023-08-12T00:00	23792	33	-53.1	-84.3	88	10
2023-08-12T00:00	23815	33	-52.9	-84.1	90	10
2023-08-12T00:00	23843	33	-52.9	-84.1	90	10
2023-08-12T00:00	23869	33	-52.9	-84.1	90	9
2023-08-12T00:00	23894	33	-53.0	-84.2	89	9
2023-08-12T00:00	23909	32	-53.0	-84.2	89	9
2023-08-12T00:00	23938	32	-52.8	-84.1	89	9
2023-08-12T00:00	23960	32	-52.7	-84.0	90	9
2023-08-12T00:00	23982	32	-52.6	-83.9	91	9
2023-08-12T00:00	24009	32	-52.6	-83.9	93	9
2023-08-12T00:00	24029	32	-52.6	-83.9	95	8
2023-08-12T00:00	24056	32	-52.6	-83.9	96	8
2023-08-12T00:00	24078	32	-52.6	-83.9	97	8
2023-08-12T00:00	24106	31	-52.7	-84.0	97	8
2023-08-12T00:00	24123	31	-52.5	-83.8	96	7
2023-08-12T00:00	24147	31	-52.5	-83.8	94	7
2023-08-12T00:00	24170	31	-52.5	-83.8	93	6
2023-08-12T00:00	24195	31	-52.5	-83.8	91	6
2023-08-12T00:00	24215	31	-52.4	-83.8	91	5
2023-08-12T00:00	24239	31	-52.4	-83.8	92	5
2023-08-12T00:00	24261	31	-52.1	-83.5	93	5
2023-08-12T00:00	24291	31	-52.1	-83.5	93	5
2023-08-12T00:00	24306	30	-52.0	-83.5	91	5
2023-08-12T00:00	24335	30	-52.0	-83.5	89	6
2023-08-12T00:00	24353	30	-51.8	-83.3	86	6
2023-08-12T00:00	24380	30	-51.8	-83.3	84	7
2023-08-12T00:00	24402	30	-51.8	-83.3	82	8
2023-08-12T00:00	24421	30	-51.8	-83.3	82	9
2023-08-12T00:00	24447	30	-52.0	-83.5	81	10
2023-08-12T00:00	24475	30	-52.1	-83.5	82	11
2023-08-12T00:00	24493	30	-52.1	-83.5	82	12
2023-08-12T00:00	24515	30	-52.1	-83.5	83	12
2023-08-12T00:00	24540	29	-52.1	-83.5	83	12
2023-08-12T00:00	24567	29	-52.2	-83.6	84	12
2023-08-12T00:00	24576	29	-52.0	-83.5	84	11
2023-08-12T00:00	24614	29	-51.9	-83.4	85	11
2023-08-12T00:00	24634	29	-51.8	-83.3	85	10
2023-08-12T00:00	24659	29	-51.8	-83.3	86	10
2023-08-12T00:00	24680	29	-51.8	-83.3	87	10
2023-08-12T00:00	24705	29	-51.6	-83.8	88	10
2023-08-12T00:00	24725	29	-51.4	-83.6	90	10
2023-08-12T00:00	24754	28	-51.4	-83.6	92	11
2023-08-12T00:00	24772	28	-51.4	-83.6	95	11
2023-08-12T00:00	24795	28	-51.4	-83.6	98	11
2023-08-12T00:00	24823	28	-51.5	-83.7	101	11
2023-08-12T00:00	24842	28	-51.5	-83.7	104	11
2023-08-12T00:00	24865	28	-51.2	-83.5	106	11
2023-08-12T00:00	24893	28	-51.2	-83.5	107	11
2023-08-12T00:00	24910	28	-51.2	-83.5	107	10
2023-08-12T00:00	24945	28	-50.9	-83.3	107	10
2023-08-12T00:00	24957	28	-50.6	-83.1	105	9
2023-08-12T00:00	24988	27	-50.1	-83.4	104	9
2023-08-12T00:00	25011	27	-50.0	-83.3	103	9
2023-08-12T00:00	25032	27	-49.8	-83.2	103	10
2023-08-12T00:00	25058	27	-49.6	-83.0	103	10
2023-08-12T00:00	25092	27	-49.5	-82.9	104	11
2023-08-12T00:00	25103	27	-49.5	-82.3	104	11
2023-08-12T00:00	25133	27	-49.4	-82.2	105	11
2023-08-12T00:00	25152	27	-49.5	-82.3	106	12
2023-08-12T00:00	25178	27	-49.7	-82.4	107	12
2023-08-12T00:00	25204	27	-50.0	-82.6	108	12
2023-08-12T00:00	25229	26	-50.1	-82.7	109	13
2023-08-12T00:00	25248	26	-50.4	-82.9	110	13
2023-08-12T00:00	25274	26	-50.6	-82.4	110	13
2023-08-12T00:00	25299	26	-50.8	-82.6	111	14
2023-08-12T00:00	25325	26	-51.0	-82.7	112	14
2023-08-12T00:00	25346	26	-51.2	-82.9	114	14
2023-08-12T00:00	25366	26	-51.4	-83.0	115	14
2023-08-12T00:00	25397	26	-51.5	-83.1	117	14
2023-08-12T00:00	25411	26	-51.2	-82.9	119	13
2023-08-12T00:00	25438	26	-51.2	-82.9	120	13
2023-08-12T00:00	25471	26	-51.4	-83.6	122	12
2023-08-12T00:00	25493	25	-51.3	-83.6	123	12
2023-08-12T00:00	25514	25	-51.2	-83.5	123	12
2023-08-12T00:00	25535	25	-51.2	-83.5	123	11
2023-08-12T00:00	25562	25	-51.2	-83.5	123	11
2023-08-12T00:00	25581	25	-51.1	-83.4	122	10
2023-08-12T00:00	25609	25	-50.7	-83.1	120	9
2023-08-12T00:00	25620	25	-50.5	-83.0	118	9
2023-08-12T00:00	25654	25	-50.4	-82.9	115	8
2023-08-12T00:00	25673	25	-50.3	-82.8	113	7
2023-08-12T00:00	25705	25	-50.1	-83.4	111	7
2023-08-12T00:00	25725	25	-49.9	-83.2	109	6
2023-08-12T00:00	25745	24	-49.9	-83.2	108	5
2023-08-12T00:00	25769	24	-49.9	-83.2	106	4
2023-08-12T00:00	25791	24	-49.9	-83.2	102	4
2023-08-12T00:00	25814	24	-49.9	-83.2	95	3
2023-08-12T00:00	25845	24	-49.7	-83.1	88	3
2023-08-12T00:00	25852	24	-49.6	-83.0	83	2
2023-08-12T00:00	25890	24	-49.5	-82.9	84	2
2023-08-12T00:00	25911	24	-49.2	-82.7	89	2
2023-08-12T00:00	25932	24	-49.1	-82.7	96	3
2023-08-12T00:00	25956	24	-48.8	-82.4	101	3
2023-08-12T00:00	25986	24	-48.9	-82.5	104	4
2023-08-12T00:00	25998	24	-48.9	-82.5	105	4
2023-08-12T00:00	26023	23	-49.1	-82.7	107	5
2023-08-12T00:00	26046	23	-49.2	-82.7	109	6
2023-08-12T00:00	26070	23	-49.3	-82.1	112	6
2023-08-12T00:00	26097	23	-49.3	-82.1	117	7
2023-08-12T00:00	26120	23	-49.4	-82.2	121	7
2023-08-12T00:00	26151	23	-49.4	-82.2	125	8
2023-08-12T00:00	26164	23	-49.4	-82.2	128	8
2023-08-12T00:00	26189	23	-49.5	-82.3	129	9
2023-08-12T00:00	26217	23	-49.6	-82.3	129	9
2023-08-12T00:00	26229	23	-49.7	-82.4	129	9
2023-08-12T00:00	26262	23	-49.7	-83.1	128	9
2023-08-12T00:00	26290	23	-49.5	-82.9	127	9
2023-08-12T00:00	26308	22	-49.2	-82.7	126	8
2023-08-12T00:00	26332	22	-48.9	-82.5	124	7
2023-08-12T00:00	26351	22	-48.5	-82.2	121	6
2023-08-12T00:00	26371	22	-48.4	-82.2	117	5
2023-08-12T00:00	26400	22	-48.1	-82.7	111	5
2023-08-12T00:00	26423	22	-47.9	-81.8	103	4
2023-08-12T00:00	26443	22	-47.9	-81.8	93	4
2023-08-12T00:00	26469	22	-47.9	-81.8	82	4
2023-08-12T00:00	26495	22	-47.9	-81.8	73	3
2023-08-12T00:00	26525	22	-47.9	-81.8	65	3
2023-08-12T00:00	26537	22	-47.9	-81.8	59	3
2023-08-12T00:00	26555	22	-47.9	-81.8	54	4
2023-08-12T00:00	26587	22	-47.9	-81.8	51	4
2023-08-12T00:00	26608	21	-47.8	-81.7	48	4
2023-08-12T00:00	26632	21	-47.6	-81.6	46	5
2023-08-12T00:00	26660	21	-47.7	-81.6	46	6
2023-08-12T00:00	26681	21	-47.8	-81.7	47	6
2023-08-12T00:00	26700	21	-47.7	-81.6	48	6
2023-08-12T00:00	26724	21	-47.7	-81.6	50	6
2023-08-12T00:00	26754	21	-47.7	-81.6	53	6
2023-08-12T00:00	26784	21	-47.7	-81.6	57	6
2023-08-12T00:00	26805	21	-47.7	-81.6	62	5
2023-08-12T00:00	26834	21	-47.6	-81.6	68	4
2023-08-12T00:00	26858	21	-47.6	-81.6	75	4
2023-08-12T00:00	26890	21	-47.8	-81.7	82	4
2023-08-12T00:00	26909	20	-48.0	-81.9	87	4
2023-08-12T00:00	26935	20	-48.1	-81.9	91	4
2023-08-12T00:00	26967	20	-48.1	-81.9	92	4
2023-08-12T00:00	26986	20	-47.8	-81.7	91	4
2023-08-12T00:00	27012	20	-47.7	-81.6	87	4
2023-08-12T00:00	27035	20	-47.7	-81.6	79	4
2023-08-12T00:00	27058	20	-47.7	-81.6	68	4
2023-08-12T00:00	27088	20	-47.7	-82.4	55	4
2023-08-12T00:00	27110	20	-47.7	-82.4	43	4
2023-08-12T00:00	27139	20	-47.6	-82.4	35	4
2023-08-12T00:00	27158	20	-47.1	-82.0	30	4
2023-08-12T00:00	27178	20	-46.7	-81.7	30	4
2023-08-12T00:00	27207	20	-46.6	-81.7	34	4
2023-08-12T00:00	27234	20	-46.4	-81.5	41	3
2023-08-12T00:00	27265	19	-46.4	-81.5	51	3
2023-08-12T00:00	27287	19	-46.4	-81.5	61	3
2023-08-12T00:00	27307	19	-46.5	-81.6	70	3
2023-08-12T00:00	27330	19	-46.6	-81.7	80	2
2023-08-12T00:00	27367	19	-46.7	-81.7	93	2
2023-08-12T00:00	27381	19	-46.9	-81.9	111	2
2023-08-12T00:00	27405	19	-47.0	-81.9	132	2
2023-08-12T00:00	27428	19	-47.0	-81.9	152	2
2023-08-12T00:00	27461	19	-47.0	-81.9	168	3
2023-08-12T00:00	27477	19	-46.9	-81.9	179	3
2023-08-12T00:00	27506	19	-46.8	-81.8	187	4
2023-08-12T00:00	27537	19	-46.7	-81.7	192	4
2023-08-12T00:00	27555	19	-46.8	-81.8	195	4
2023-08-12T00:00	27581	19	-46.9	-81.9	198	4
2023-08-12T00:00	27607	18	-46.9	-81.9	201	4
2023-08-12T00:00	27627	18	-46.8	-81.8	206	4
2023-08-12T00:00	27654	18	-46.7	-81.7	212	3
2023-08-12T00:00	27679	18	-46.8	-81.8	218	3
2023-08-12T00:00	27699	18	-46.7	-81.7	223	3
2023-08-12T00:00	27723	18	-46.6	-81.7	225	3
2023-08-12T00:00	27746	18	-46.4	-81.5	226	4
2023-08-12T00:00	27765	18	-46.4	-81.5	228	4
2023-08-12T00:00	27800	18	-46.3	-81.4	232	4
2023-08-12T00:00	27825	18	-46.0	-81.2	238	3
2023-08-12T00:00	27835	18	-45.8	-81.1	247	3
2023-08-12T00:00	27865	18	-45.5	-80.9	262	2
2023-08-12T00:00	27892	18	-45.3	-81.6	284	2
2023-08-12T00:00	27926	18	-45.2	-81.6	316	1
2023-08-12T00:00	27939	18	-45.1	-81.5	348	2
2023-08-12T00:00	27961	17	-44.7	-81.2	7	2
2023-08-12T00:00	27989	17	-44.7	-81.2	18	3
2023-08-12T00:00	28018	17	-44.5	-81.1	25	3
2023-08-12T00:00	28040	17	-44.4	-81.0	32	3
2023-08-12T00:00	28071	17	-44.3	-80.9	39	3
2023-08-12T00:00	28082	17	-44.3	-80.9	46	3
2023-08-12T00:00	28111	17	-44.3	-80.9	51	3
2023-08-12T00:00	28134	17	-44.3	-80.9	53	3
2023-08-12T00:00	28169	17	-44.4	-81.0	52	3
2023-08-12T00:00	28186	17	-44.4	-81.0	50	4
2023-08-12T00:00	28226	17	-44.5	-80.1	49	4
2023-08-12T00:00	28257	17	-44.6	-80.2	50	4
2023-08-12T00:00	28266	17	-44.6	-80.2	53	5
2023-08-12T00:00	28297	17	-44.8	-80.4	56	5
2023-08-12T00:00	28317	17	-44.7	-81.2	58	5
2023-08-12T00:00	28355	17	-44.6	-81.2	60	6
2023-08-12T00:00	28385	16	-44.4	-81.0	61	6
2023-08-12T00:00	28408	16	-44.3	-80.9	61	6
2023-08-12T00:00	28424	16	-44.2	-80.9	60	6
2023-08-12T00:00	28446	16	-44.2	-80.9	59	5
2023-08-12T00:00	28482	16	-44.2	-80.9	58	5
2023-08-12T00:00	28508	16	-44.1	-80.8	58	4
2023-08-12T00:00	28526	16	-44.1	-80.8	59	4
2023-08-12T00:00	28546	16	-44.2	-80.9	61	3
2023-08-12T00:00	28583	16	-44.2	-80.9	64	3
2023-08-12T00:00	28594	16	-44.3	-80.9	68	3
2023-08-12T00:00	28620	16	-44.2	-80.9	72	3
2023-08-12T00:00	28658	16	-44.1	-80.8	74	4
2023-08-12T00:00	28670	16	-44.2	-80.9	75	4
2023-08-12T00:00	28699	16	-44.2	-80.9	75	4
2023-08-12T00:00	28716	16	-44.3	-80.9	75	4
2023-08-12T00:00	28739	16	-44.2	-80.9	74	5
2023-08-12T00:00	28765	16	-44.2	-80.9	71	5
2023-08-12T00:00	28779	15	-44.3	-80.9	69	5
2023-08-12T00:00	28813	15	-44.3	-80.9	66	6
2023-08-12T00:00	28827	15	-44.1	-80.8	65	7
2023-08-12T00:00	28867	15	-44.1	-80.8	65	7
2023-08-12T00:00	28889	15	-43.9	-80.7	67	8
2023-08-12T00:00	28908	15	-43.9	-80.7	68	9
2023-08-12T00:00	28935	15	-44.0	-80.7	70	9
2023-08-12T00:00	28974	15	-44.1	-80.8	71	10
2023-08-12T00:00	28984	15	-44.2	-80.9	72	10
2023-08-12T00:00	29008	15	-44.2	-80.9	73	10
2023-08-12T00:00	29039	15	-44.2	-80.9	75	10
2023-08-12T00:00	29063	15	-44.2	-80.9	77	11
2023-08-12T00:00	29087	15	-44.2	-80.9	79	11
2023-08-12T00:00	29110	15	-44.3	-80.9	82	11
2023-08-12T00:00	29135	15	-44.5	-81.1	86	11
2023-08-12T00:00	29148	15	-44.6	-80.2	89	11
2023-08-12T00:00	29180	15	-44.7	-80.3	92	11
2023-08-12T00:00	29200	15	-44.9	-80.4	94	12
2023-08-12T00:00	29233	14	-45.0	-80.5	95	11
2023-08-12T00:00	29260	14	-45.1	-80.6	95	11
2023-08-12T00:00	29280	14	-45.1	-80.6	95	11
2023-08-12T00:00	29300	14	-45.2	-80.7	94	10
2023-08-12T00:00	29331	14	-45.2	-80.7	93	10
2023-08-12T00:00	29347	14	-45.3	-80.7	93	9
2023-08-12T00:00	29380	14	-45.3	-80.7	93	9
2023-08-12T00:00	29407	14	-45.4	-80.8	93	8
2023-08-12T00:00	29424	14	-45.5	-80.9	95	8
2023-08-12T00:00	29455	14	-45.5	-80.9	96	7
2023-08-12T00:00	29485	14	-45.7	-81.0	97	6
2023-08-12T00:00	29497	14	-45.8	-81.1	97	6
2023-08-12T00:00	29537	14	-45.8	-81.1	94	5
2023-08-12T00:00	29560	14	-45.9	-81.2	89	5
2023-08-12T00:00	29587	14	-45.9	-82.1	81	5
2023-08-12T00:00	29622	14	-45.4	-81.7	76	5
2023-08-12T00:00	29628	14	-45.3	-81.6	73	6
2023-08-12T00:00	29654	14	-45.1	-81.5	73	7
2023-08-12T00:00	29679	14	-44.8	-81.3	74	7
2023-08-12T00:00	29697	13	-44.7	-81.2	77	8
2023-08-12T00:00	29725	13	-44.6	-81.2	80	8
2023-08-12T00:00	29759	13	-44.6	-81.2	83	8
2023-08-12T00:00	29784	13	-44.6	-81.2	85	9
2023-08-12T00:00	29804	13	-44.7	-81.2	88	9
2023-08-12T00:00	29826	13	-44.7	-81.2	91	9
2023-08-12T00:00	29850	13	-44.7	-81.2	93	9
2023-08-12T00:00	29863	13	-44.7	-81.2	95	9
2023-08-12T00:00	29893	13	-44.7	-81.2	95	10
2023-08-12T00:00	29922	13	-44.7	-81.2	94	10
2023-08-12T00:00	29954	13	-44.7	-81.2	92	10
2023-08-12T00:00	29976	13	-44.6	-81.2	88	11
2023-08-12T00:00	30001	13	-44.5	-81.1	85	10
2023-08-12T00:00	30029	13	-44.4	-81.0	81	10
2023-08-12T00:00	30048	13	-44.4	-81.0	79	10
2023-08-12T00:00	30087	13	-44.4	-81.0	78	10
2023-08-12T00:00	30105	13	-44.4	-81.0	79	10
2023-08-12T00:00	30117	13	-44.3	-80.9	82	10
2023-08-12T00:00	30161	13	-44.0	-80.7	85	10
2023-08-12T00:00	30173	13	-44.0	-80.7	89	10
2023-08-12T00:00	30198	13	-44.0	-80.7	92	10
2023-08-12T00:00	30212	12	-44.0	-80.7	96	11
2023-08-12T00:00	30256	12	-43.8	-80.6	99	11
2023-08-12T00:00	30275	12	-43.6	-80.4	101	11
2023-08-12T00:00	30306	12	-43.4	-80.3	102	11
2023-08-12T00:00	30333	12	-43.3	-80.2	103	11
2023-08-12T00:00	30350	12	-43.2	-80.2	104	10
2023-08-12T00:00	30370	12	-43.2	-81.3	105	9
2023-08-12T00:00	30382	12	-43.0	-81.1	106	9
2023-08-12T00:00	30418	12	-42.8	-81.0	108	8
2023-08-12T00:00	30446	12	-42.8	-81.0	110	8
2023-08-12T00:00	30458	12	-42.8	-81.0	111	8
2023-08-12T00:00	30500	12	-42.8	-79.9	111	8
2023-08-12T00:00	30517	12	-42.8	-79.9	110	8
2023-08-12T00:00	30547	12	-42.9	-80.0	109	8
2023-08-12T00:00	30572	12	-42.9	-80.0	109	8
2023-08-12T00:00	30595	12	-43.1	-80.1	110	7
2023-08-12T00:00	30612	12	-43.1	-80.1	112	7
2023-08-12T00:00	30629	12	-43.1	-80.1	115	6
2023-08-12T00:00	30654	12	-42.9	-80.0	120	6
2023-08-12T00:00	30703	12	-42.8	-79.9	126	5
2023-08-12T00:00	30711	12	-42.8	-79.9	133	4
2023-08-12T00:00	30740	12	-43.0	-80.0	143	4
2023-08-12T00:00	30775	12	-42.9	-80.0	154	4
2023-08-12T00:00	30791	11	-42.8	-79.9	164	4
2023-08-12T00:00	30814	11	-42.9	-80.0	174	4
2023-08-12T00:00	30839	11	-43.0	-80.0	184	3
2023-08-12T00:00	30867	11	-43.1	-80.1	197	3
2023-08-12T00:00	30881	11	-43.2	-80.2	215	2
2023-08-12T00:00	30916	11	-43.1	-80.1	240	2
2023-08-12T00:00	30931	11	-42.8	-81.0	263	2
2023-08-12T00:00	30973	11	-42.7	-80.9	279	3
2023-08-12T00:00	30991	11	-42.7	-80.9	290	3
2023-08-12T00:00	31007	11	-42.5	-80.8	300	3
2023-08-12T00:00	31028	11	-42.4	-80.7	310	3
2023-08-12T00:00	31050	11	-42.2	-80.6	321	3
2023-08-12T00:00	31080	11	-42.2	-80.6	332	3
2023-08-12T00:00	31100	11	-42.0	-80.4	345	3
2023-08-12T00:00	31141	11	-41.8	-80.3	358	3
2023-08-12T00:00	31142	11	-41.9	-80.4	9	3
2023-08-12T00:00	31179	11	-41.9	-80.4	18	4
2023-08-12T00:00	31196	11	-42.0	-80.4	24	5
2023-08-12T00:00	31219	11	-42.1	-80.5	29	5
2023-08-12T00:00	31244	11	-41.8	-80.3	33	6
2023-08-12T00:00	31281	11	-41.8	-80.3	37	6
2023-08-12T00:00	31315	11	-41.8	-80.3	46	7
2023-08-12T00:00	31319	11	-41.9	-80.4	49	7
2023-08-12T00:00	31345	11	-42.0	-80.4	51	7
2023-08-12T00:00	31359	11	-42.1	-80.5	53	7
2023-08-12T00:00	31395	10	-42.2	-80.6	54	7
2023-08-12T00:00	31411	10	-42.2	-80.6	55	6
2023-08-12T00:00	31442	10	-42.1	-80.5	56	6
2023-08-12T00:00	31496	10	-42.0	-80.4	57	6
2023-08-12T00:00	31515	10	-41.9	-80.4	64	6
2023-08-12T00:00	31531	10	-41.9	-80.4	68	6
2023-08-12T00:00	31557	10	-41.8	-80.3	75	5
2023-08-12T00:00	31567	10	-41.4	-80.0	82	5
2023-08-12T00:00	31623	10	-41.1	-79.8	89	5
2023-08-12T00:00	31640	10	-40.9	-79.7	98	5
2023-08-12T00:00	31673	10	-40.4	-79.3	96	4
2023-08-12T00:00	31695	10	-39.8	-78.9	91	5
2023-08-12T00:00	31706	10	-39.5	-78.7	83	5
2023-08-12T00:00	31738	10	-39.3	-78.5	75	5
2023-08-12T00:00	31758	10	-39.1	-78.4	67	5
2023-08-12T00:00	31767	10	-39.1	-78.4	59	5
2023-08-12T00:00	31804	10	-39.0	-78.3	52	5
2023-08-12T00:00	31843	10	-39.0	-78.3	46	5
2023-08-12T00:00	31869	10	-38.7	-78.1	42	5
2023-08-12T00:00	31881	10	-38.5	-78.0	40	5
2023-08-12T00:00	31901	10	-38.6	-78.1	39	5
2023-08-12T00:00	31902	10	-38.5	-78.0	39	5
2023-08-12T00:00	31950	10	-38.6	-78.1	40	5
2023-08-12T00:00	31981	10	-38.8	-78.2	44	5
2023-08-12T00:00	32016	10	-39.0	-78.3	47	5
2023-08-12T00:00	32023	10	-39.2	-78.5	49	5
2023-08-12T00:00	32058	10	-39.3	-78.5	52	5
2023-08-12T00:00	32070	10	-39.5	-78.7	53	4
2023-08-12T00:00	32108	9	-39.5	-78.7	55	4
2023-08-12T00:00	32115	9	-39.6	-78.8	57	3
2023-08-12T00:00	32155	9	-39.7	-78.8	60	3
2023-08-12T00:00	32175	9	-39.9	-79.0	66	2
2023-08-12T00:00	32211	9	-40.0	-79.0	92	2
2023-08-12T00:00	32230	9	-40.0	-79.0	103	2
2023-08-12T00:00	32257	9	-39.9	-79.0	109	2
2023-08-12T00:00	32287	9	-40.0	-79.0	109	1
2023-08-12T00:00	32313	9	-39.7	-78.8	100	1
2023-08-12T00:00	32349	9	-39.4	-78.6	66	1
2023-08-12T00:00	32371	9	-39.4	-78.6	55	2
2023-08-12T00:00	32397	9	-39.4	-78.6	51	2
2023-08-12T00:00	32420	9	-39.3	-78.5	50	2
2023-08-12T00:00	32447	9	-39.3	-78.5	51	3
2023-08-12T00:00	32476	9	-39.3	-78.5	51	4
2023-08-12T00:00	32493	9	-39.3	-78.5	51	4
2023-08-12T00:00	32535	9	-39.3	-78.5	51	5
2023-08-12T00:00	32566	9	-39.4	-78.6	51	6
2023-08-12T00:00	32574	9	-39.2	-78.5	51	7
2023-08-12T00:00	32596	9	-39.1	-78.4	52	7
2023-08-12T00:00	32631	9	-39.2	-78.5	52	8
2023-08-12T00:00	32663	9	-39.2	-78.5	53	8
2023-08-12T00:00	32671	9	-39.2	-78.5	53	8
2023-08-12T00:00	32699	9	-39.2	-78.5	53	8
2023-08-12T00:00	32709	9	-39.2	-78.5	54	8
2023-08-12T00:00	32742	9	-39.3	-78.5	55	8
2023-08-12T00:00	32769	9	-39.4	-78.6	58	8
2023-08-12T00:00	32772	9	-39.5	-78.7	60	8
2023-08-12T00:00	32818	9	-39.7	-78.8	62	8
2023-08-12T00:00	32828	9	-39.6	-78.8	63	8
2023-08-12T00:00	32869	8	-39.3	-78.5	62	8
2023-08-12T00:00	32890	8	-39.3	-78.5	61	8
2023-08-12T00:00	32905	8	-39.3	-78.5	60	8
2023-08-12T00:00	32932	8	-39.4	-78.6	59	7
2023-08-12T00:00	32942	8	-39.6	-78.8	60	7
2023-08-12T00:00	32979	8	-39.7	-78.8	61	7
2023-08-12T00:00	32986	8	-39.9	-79.0	62	6
2023-08-12T00:00	33009	8	-40.0	-79.0	61	6
2023-08-12T00:00	33052	8	-40.0	-79.0	58	5
2023-08-12T00:00	33059	8	-39.7	-78.8	54	5
2023-08-12T00:00	33096	8	-39.4	-78.6	50	4
2023-08-12T00:00	33118	8	-39.3	-78.5	45	4
2023-08-12T00:00	33131	8	-39.3	-78.5	40	4
2023-08-12T00:00	33151	8	-39.3	-78.5	36	4
2023-08-12T00:00	33170	8	-39.1	-78.4	31	4
2023-08-12T00:00	33184	8	-39.0	-78.3	27	4
2023-08-12T00:00	33208	8	-39.0	-78.3	24	5
2023-08-12T00:00	33239	8	-39.0	-78.3	21	5
2023-08-12T00:00	33241	8	-39.0	-78.3	21	5
2023-08-12T00:00	33269	8	-39.0	-78.3	21	6
2023-08-12T00:00	33292	8	-38.9	-78.3	22	7
2023-08-12T00:00	33326	8	-38.8	-78.2	24	7
2023-08-12T00:00	33338	8	-38.7	-78.1	26	8
2023-08-12T00:00	33355	8	-38.7	-78.1	28	8
2023-08-12T00:00	33379	8	-38.7	-78.1	29	9
2023-08-12T00:00	33430	8	-38.3	-77.9	34	10
2023-08-12T00:00	33449	8	-38.3	-77.9	37	10
2023-08-12T00:00	33478	8	-38.3	-77.9	40	10
2023-08-12T00:00	33481	8	-38.0	-77.6	45	11
2023-08-12T00:00	33517	8	-37.9	-77.6	47	11
2023-08-12T00:00	33536	8	-37.8	-77.5	49	11
2023-08-12T00:00	33541	8	-37.7	-77.4	52	11
2023-08-12T00:00	33584	8	-37.5	-77.3	55	11
2023-08-12T00:00	33610	8	-37.2	-77.1	61	11
2023-08-12T00:00	33618	8	-37.1	-77.0	64	10
2023-08-12T00:00	33661	8	-36.9	-76.9	65	10
2023-08-12T00:00	33685	8	-36.3	-76.5	65	10
2023-08-12T00:00	33687	8	-36.0	-76.3	63	10
2023-08-12T00:00	33744	7	-36.0	-76.3	60	10
2023-08-12T00:00	33759	7	-35.8	-76.1	57	10
2023-08-12T00:00	33770	7	-35.7	-76.1	54	11
2023-08-12T00:00	33798	7	-35.6	-76.0	52	11
2023-08-12T00:00	33811	7	-35.5	-75.9	54	11
2023-08-12T00:00	33838	7	-35.1	-75.6	56	12
2023-08-12T00:00	33872	7	-35.0	-75.6	59	12
2023-08-12T00:00	33888	7	-35.3	-75.8	61	13
2023-08-12T00:00	33913	7	-35.3	-75.8	64	13
2023-08-12T00:00	33931	7	-34.9	-75.5	66	14
2023-08-12T00:00	33963	7	-34.9	-75.5	68	15
2023-08-12T00:00	33984	7	-35.0	-75.6	70	16
2023-08-12T00:00	33988	7	-35.1	-75.6	72	16
2023-08-12T00:00	34043	7	-35.2	-75.7	74	16
2023-08-12T00:00	34067	7	-35.1	-75.6	75	17
2023-08-12T00:00	34090	7	-35.0	-75.6	76	17
2023-08-12T00:00	34106	7	-35.0	-75.6	77	17
2023-08-12T00:00	34143	7	-35.1	-75.6	77	17
2023-08-12T00:00	34179	7	-35.1	-75.6	77	17
2023-08-12T00:00	34209	7	-35.2	-75.7	77	17
2023-08-12T00:00	34218	7	-35.2	-75.7	77	17
2023-08-12T00:00	34234	7	-35.3	-75.8	78	17
2023-08-12T00:00	34270	7	-35.5	-75.9	79	17
2023-08-12T00:00	34314	7	-35.2	-75.7	82	16
2023-08-12T00:00	34340	7	-35.3	-75.8	84	16
2023-08-12T00:00	34352	7	-35.4	-75.8	85	15
2023-08-12T00:00	34389	7	-35.4	-75.8	85	15
2023-08-12T00:00	34418	7	-35.2	-75.7	85	14
2023-08-12T00:00	34440	7	-35.3	-75.8	85	14
2023-08-12T00:00	34477	7	-35.2	-75.7	84	14
2023-08-12T00:00	34496	7	-35.3	-75.8	83	13
2023-08-12T00:00	34546	7	-35.5	-75.9	82	13
2023-08-12T00:00	34560	7	-35.5	-75.9	81	13
2023-08-12T00:00	34595	7	-35.4	-75.8	79	13
2023-08-12T00:00	34603	7	-35.6	-76.0	78	13
2023-08-12T00:00	34607	7	-35.5	-75.9	78	13
2023-08-12T00:00	34660	7	-35.4	-75.8	78	13
2023-08-12T00:00	34679	7	-35.3	-75.8	79	14
2023-08-12T00:00	34700	7	-35.2	-75.7	78	14
2023-08-12T00:00	34713	6	-35.3	-75.8	78	15
2023-08-12T00:00	34759	6	-35.5	-75.9	77	15
2023-08-12T00:00	34763	6	-35.7	-76.1	76	16
2023-08-12T00:00	34795	6	-35.8	-76.1	75	16
2023-08-12T00:00	34797	6	-36.0	-76.3	75	16
2023-08-12T00:00	34815	6	-36.0	-76.3	75	16
2023-08-12T00:00	34823	6	-36.0	-76.3	76	16
2023-08-12T00:00	34876	6	-36.1	-76.3	76	16
2023-08-12T00:00	34933	6	-36.2	-76.4	77	15
2023-08-12T00:00	34966	6	-36.3	-76.5	76	16
2023-08-12T00:00	35008	6	-36.0	-76.3	74	17
2023-08-12T00:00	35025	6	-35.7	-76.1	73	17
2023-08-12T00:00	35035	6	-35.8	-76.1	73	17
2023-08-12T00:00	35052	6	-35.7	-76.1	72	18
2023-08-12T00:00	35055	6	-35.7	-76.1	73	17
2023-08-12T00:00	35091	6	-35.7	-76.1	73	17
2023-08-12T00:00	35100	6	-35.9	-76.2	73	17
2023-08-12T00:00	35144	6	-35.9	-76.2	74	17
2023-08-12T00:00	35158	6	-36.0	-76.3	75	17
2023-08-12T00:00	35164	6	-36.1	-76.3	77	16
2023-08-12T00:00	35177	6	-36.1	-76.3	79	16
2023-08-12T00:00	35212	6	-36.1	-76.3	81	16
2023-08-12T00:00	35244	6	-36.1	-76.3	84	16
2023-08-12T00:00	35250	6	-36.4	-76.5	90	16
2023-08-12T00:00	35299	6	-35.9	-76.2	93	16
2023-08-12T00:00	35330	6	-35.4	-75.8	96	15
2023-08-12T00:00	35386	6	-35.0	-75.6	101	15
2023-08-12T00:00	35395	6	-34.9	-75.5	104	14
2023-08-12T00:00	35411	6	-34.8	-75.4	106	14
2023-08-12T00:00	35416	6	-34.6	-75.3	107	13
2023-08-12T00:00	35437	6	-34.5	-75.2	107	13
2023-08-12T00:00	35460	6	-34.3	-75.1	104	12
2023-08-12T00:00	35472	6	-34.2	-75.0	102	11
2023-08-12T00:00	35504	6	-34.2	-75.0	101	11
2023-08-12T00:00	35520	6	-34.1	-75.0	101	10
2023-08-12T00:00	35558	6	-34.0	-74.9	100	9
2023-08-12T00:00	35621	6	-33.8	-74.7	97	9
2023-08-12T06:00	115	1005	16.5	12.8	134	2
2023-08-12T06:00	142	1002	16.8	12.1	142	4
2023-08-12T06:00	165	999	17.9	11.7	146	5
2023-08-12T06:00	188	997	18.8	11.6	150	7
2023-08-12T06:00	211	994	21.0	11.0	153	8
2023-08-12T06:00	234	992	22.1	11.2	155	8
2023-08-12T06:00	257	989	22.4	11.3	156	9
2023-08-12T06:00	282	986	22.4	11.1	156	8
2023-08-12T06:00	306	984	22.4	11.3	156	8
2023-08-12T06:00	327	981	22.3	11.0	156	8
2023-08-12T06:00	351	978	22.3	11.0	156	7
2023-08-12T06:00	374	976	22.1	10.7	156	6
2023-08-12T06:00	396	973	22.1	10.6	155	6
2023-08-12T06:00	420	971	22.4	10.7	153	6
2023-08-12T06:00	442	968	22.3	10.7	151	6
2023-08-12T06:00	466	965	22.1	10.6	150	6
2023-08-12T06:00	489	963	22.0	10.6	148	6
2023-08-12T06:00	513	960	21.8	10.6	147	7
2023-08-12T06:00	540	957	21.6	10.7	146	7
2023-08-12T06:00	561	955	21.4	11.1	145	7
2023-08-12T06:00	586	952	21.1	11.2	145	7
2023-08-12T06:00	607	950	21.0	11.3	145	6
2023-08-12T06:00	631	947	20.9	11.2	145	6
2023-08-12T06:00	655	944	20.7	10.8	146	6
2023-08-12T06:00	682	942	20.5	10.8	147	5
2023-08-12T06:00	706	939	20.3	11.1	149	5
2023-08-12T06:00	730	936	20.2	11.0	151	5
2023-08-12T06:00	751	934	20.1	11.0	152	5
2023-08-12T06:00	769	932	20.0	10.8	154	4
2023-08-12T06:00	787	930	19.9	10.9	157	4
2023-08-12T06:00	808	928	19.9	11.0	165	4
2023-08-12T06:00	829	926	19.8	10.8	176	3
2023-08-12T06:00	846	924	19.7	11.0	186	4
2023-08-12T06:00	866	922	19.5	11.1	192	4
2023-08-12T06:00	884	920	19.4	11.2	193	4
2023-08-12T06:00	906	917	19.3	11.1	194	4
2023-08-12T06:00	936	914	19.0	10.9	196	4
2023-08-12T06:00	963	911	18.8	10.8	201	4
2023-08-12T06:00	992	908	18.6	10.7	208	4
2023-08-12T06:00	1019	906	18.5	10.6	215	4
2023-08-12T06:00	1045	903	18.4	10.4	219	4
2023-08-12T06:00	1071	900	18.2	10.2	220	4
2023-08-12T06:00	1096	897	18.0	10.4	218	4
2023-08-12T06:00	1121	895	17.8	10.3	216	4
2023-08-12T06:00	1147	892	17.5	10.4	215	4
2023-08-12T06:00	1175	889	17.3	10.3	215	4
2023-08-12T06:00	1200	887	17.1	10.2	218	4
2023-08-12T06:00	1222	884	16.9	10.2	222	5
2023-08-12T06:00	1246	882	16.7		227	5
2023-08-12T06:00	1266	880	16.5	10.3	232	5
2023-08-12T06:00	1296	877	16.3	10.1	236	5
2023-08-12T06:00	1317	874	16.2	10.2	238	5
2023-08-12T06:00	1343	872	16.0	10.3	237	5
2023-08-12T06:00	1368	869	15.8	10.2	234	5
2023-08-12T06:00	1390	867	15.6	10.2	231	5
2023-08-12T06:00	1409	865	15.4	10.2	228	5
2023-08-12T06:00	1436	862	15.2	10.1	227	6
2023-08-12T06:00	1462	860	14.9	10.1	228	6
2023-08-12T06:00	1485	857	14.7	10.1	229	6
2023-08-12T06:00	1510	855	14.5	10.2	231	6
2023-08-12T06:00	1530	853	14.3	10.3	232	6
2023-08-12T06:00	1555	850	14.2	10.2	232	6
2023-08-12T06:00	1581	848	14.0	10.0	231	6
2023-08-12T06:00	1603	845	13.8	10.0	229	6
2023-08-12T06:00	1632	843	13.5	9.9	227	6
2023-08-12T06:00	1655	840	13.3	9.8	225	6
2023-08-12T06:00	1677	838	13.1	9.8	225	6
2023-08-12T06:00	1701	836	13.0	9.8	225	7
2023-08-12T06:00	1731	833	12.9	9.4	226	7
2023-08-12T06:00	1756	830	13.0	8.4	226	8
2023-08-12T06:00	1780	828	12.9	8.0	225	8
2023-08-12T06:00	1803	826	12.9	7.8	224	9
2023-08-12T06:00	1822	824	12.7		224	9
2023-08-12T06:00	1842	822	12.5	7.5	225	10
2023-08-12T06:00	1865	820	12.5	7.5	227	10
2023-08-12T06:00	1888	817	12.3	7.2	230	11
2023-08-12T06:00	1905	816	12.4	6.6	232	11
2023-08-12T06:00	1925	814	12.5	5.8	235	11
2023-08-12T06:00	1942	812	12.7	5.1	237	11
2023-08-12T06:00	1972	809	12.7	4.4	240	11
2023-08-12T06:00	1990	807	12.7	3.8	243	10
2023-08-12T06:00	2008	806	12.7	4.5	244	10
2023-08-12T06:00	2032	803	12.8		245	9
2023-08-12T06:00	2062	801	12.8	4.3	245	9
2023-08-12T06:00	2088	798	12.7	4.2	245	9
2023-08-12T06:00	2111	796	12.7	4.2	245	8
2023-08-12T06:00	2138	793	12.5	4.1	245	8
2023-08-12T06:00	2163	791	12.4	4.0	245	8
2023-08-12T06:00	2187	789	12.3	4.1	245	8
2023-08-12T06:00	2206	787	12.2	3.9	245	8
2023-08-12T06:00	2229	785	12.1	3.9	245	9
2023-08-12T06:00	2248	783	11.9	3.9	243	9
2023-08-12T06:00	2269	781	11.7	4.0	241	9
2023-08-12T06:00	2293	779	11.6	3.7	238	8
2023-08-12T06:00	2319	776	11.5	3.2	235	8
2023-08-12T06:00	2349	774	11.3	3.3	233	8
2023-08-12T06:00	2374	771	11.1	2.7	232	7
2023-08-12T06:00	2396	769	11.1	1.2	231	7
2023-08-12T06:00	2421	767	10.9	1.2	232	7
2023-08-12T06:00	2443	765	10.7	1.2	234	7
2023-08-12T06:00	2468	763	10.5	1.1	236	6
2023-08-12T06:00	2491	760	10.4	1.0	239	6
2023-08-12T06:00	2517	758	10.2	0.8	240	6
2023-08-12T06:00	2541	756	10.0	0.6	240	6
2023-08-12T06:00	2565	754	9.9	0.4	238	5
2023-08-12T06:00	2587	752	9.7	0.3	236	5
2023-08-12T06:00	2615	749	9.5	0.1	234	5
2023-08-12T06:00	2641	747	9.3	0.0	233	5
2023-08-12T06:00	2660	745	9.2	0.1	232	6
2023-08-12T06:00	2684	743	9.0	0.0	230	6
2023-08-12T06:00	2705	741	8.8	-0.1	228	6
2023-08-12T06:00	2725	739	8.7	-0.1	225	6
2023-08-12T06:00	2749	737	8.5	-0.2	221	6
2023-08-12T06:00	2773	735	8.3	-0.4	217	5
2023-08-12T06:00	2802	733	8.1	-0.5	214	5
2023-08-12T06:00	2828	730	7.9	-0.6	211	5
2023-08-12T06:00	2846	729	7.7	-0.6	211	5
2023-08-12T06:00	2866	727	7.5	-0.7	212	5
2023-08-12T06:00	2896	724	7.3	-0.9	215	5
2023-08-12T06:00	2925	722	7.1	-1.0	218	5
2023-08-12T06:00	2957	719	6.9	-1.1	221	5
2023-08-12T06:00	2976	717	6.7	-1.1	220	6
2023-08-12T06:00	2995	715	6.6	-1.1	218	6
2023-08-12T06:00	3025	713	6.3	-1.2	215	6
2023-08-12T06:00	3058	710	6.0	-1.2	213	6
2023-08-12T06:00	3084	708	5.8	-1.1	212	6
2023-08-12T06:00	3113	705	5.5	-1.1	213	6
2023-08-12T06:00	3145	703	5.2	-1.0	216	6
2023-08-12T06:00	3168	701	4.9	-0.9	220	6
2023-08-12T06:00	3198	698	4.7	-1.6	224	6
2023-08-12T06:00	3224	696	4.5	-1.7	227	6
2023-08-12T06:00	3246	694	4.3	-2.1	228	7
2023-08-12T06:00	3266	692	4.1	-2.1	229	7
2023-08-12T06:00	3292	690	3.9	-1.4	229	7
2023-08-12T06:00	3320	688	3.7	-1.6	231	7
2023-08-12T06:00	3347	685	3.4	-1.7	233	7
2023-08-12T06:00	3372	683	3.2	-1.9	236	7
2023-08-12T06:00	3396	681	3.0	-2.0	239	6
2023-08-12T06:00	3416	679	2.8	-2.1	241	6
2023-08-12T06:00	3451	677	2.5	-2.3	243	6
2023-08-12T06:00	3474	675	2.3	-2.2	245	6
2023-08-12T06:00	3500	673	2.0	-2.3	246	6
2023-08-12T06:00	3521	671	1.8	-2.5	246	6
2023-08-12T06:00	3545	669	1.6	-2.5	246	6
2023-08-12T06:00	3570	667	1.4	-2.5	245	6
2023-08-12T06:00	3591	665	1.2	-2.7	245	6
2023-08-12T06:00	3611	663	1.0	-2.7	244	7
2023-08-12T06:00	3639	661	0.8	-2.7	244	7
2023-08-12T06:00	3658	659	0.7	-2.6	243	7
2023-08-12T06:00	3686	657	0.4	-3.0	243	7
2023-08-12T06:00	3716	655	0.2	-3.1	244	7
2023-08-12T06:00	3742	653	0.0	-2.9	245	7
2023-08-12T06:00	3764	651	-0.2	-3.0	246	7
2023-08-12T06:00	3785	649	-0.4	-2.9	248	7
2023-08-12T06:00	3813	647	-0.6	-2.1	249	7
2023-08-12T06:00	3844	645	-0.9	-2.5	251	7
2023-08-12T06:00	3866	643	-1.0	-2.8	252	7
2023-08-12T06:00	3888	641	-1.2	-3.1	253	8
2023-08-12T06:00	3921	638	-1.4	-3.5	253	8
2023-08-12T06:00	3947	636	-1.6	-3.8	252	8
2023-08-12T06:00	3982	634	-1.8		250	7
2023-08-12T06:00	4006	631	-1.9	-5.1	247	6
2023-08-12T06:00	4030	630	-2.1	-5.4	242	5
2023-08-12T06:00	4047	628	-2.2	-6.2	236	5
2023-08-12T06:00	4074	626	-2.3	-6.7	233	5
2023-08-12T06:00	4100	624	-2.3	-8.8	232	5
2023-08-12T06:00	4122	622	-2.2	-12.6	231	5
2023-08-12T06:00	4140	621	-2.2	-17.6	232	5
2023-08-12T06:00	4167	619	-2.0	-20.9	232	5
2023-08-12T06:00	4188	617	-1.9	-21.9	233	6
2023-08-12T06:00	4224	615	-2.0	-22.2	235	6
2023-08-12T06:00	4244	613	-2.0	-22.3	238	6
2023-08-12T06:00	4269	611	-1.9	-22.7	242	6
2023-08-12T06:00	4298	609	-1.9	-23.5	245	7
2023-08-12T06:00	4317	607	-2.0	-16.8	246	7
2023-08-12T06:00	4339	605	-2.3	-10.8	247	7
2023-08-12T06:00	4362	604	-2.6	-9.5	246	8
2023-08-12T06:00	4389	602	-2.9	-8.8	245	8
2023-08-12T06:00	4419	599	-3.2	-8.3	244	8
2023-08-12T06:00	4450	597	-3.6	-7.1	243	8
2023-08-12T06:00	4477	595	-3.8	-7.0	243	9
2023-08-12T06:00	4507	593	-4.1	-7.3	244	9
2023-08-12T06:00	4528	591	-4.3	-7.3	245	9
2023-08-12T06:00	4551	589	-4.4	-7.6	248	9
2023-08-12T06:00	4579	587	-4.6	-7.9	251	9
2023-08-12T06:00	4604	586	-4.7	-9.5	253	9
2023-08-12T06:00	4630	584	-4.9	-9.8	256	9
2023-08-12T06:00	4651	582	-5.1	-9.9	257	9
2023-08-12T06:00	4672	580	-5.2	-10.4	259	8
2023-08-12T06:00	4702	578	-5.2	-11.1	261	8
2023-08-12T06:00	4729	576	-5.4	-12.2	264	8
2023-08-12T06:00	4762	574	-5.4	-15.4	267	8
2023-08-12T06:00	4781	572	-5.1	-22.6	269	8
2023-08-12T06:00	4809	571	-4.8	-27.2	270	9
2023-08-12T06:00	4834	569	-4.9	-27.4	270	9
2023-08-12T06:00	4861	567	-4.9	-26.6	271	9
2023-08-12T06:00	4888	565	-5.0	-26.5	271	10
2023-08-12T06:00	4916	563	-5.0	-27.7	272	10
2023-08-12T06:00	4943	561	-5.0	-27.1	273	10
2023-08-12T06:00	4968	559	-5.2	-26.6	273	10
2023-08-12T06:00	4993	557	-5.3	-27.0	273	10
2023-08-12T06:00	5030	555	-5.4	-26.7	271	10
2023-08-12T06:00	5057	553	-5.5	-27.5	268	9
2023-08-12T06:00	5080	551	-5.7	-27.9	265	9
2023-08-12T06:00	5106	549	-5.8	-28.1	263	9
2023-08-12T06:00	5129	548	-5.9	-31.7	263	9
2023-08-12T06:00	5155	546	-5.4	-44.0	264	9
2023-08-12T06:00	5182	544	-5.5	-43.2	265	10
2023-08-12T06:00	5209	542	-5.6	-43.7	267	10
2023-08-12T06:00	5232	541	-5.7	-44.2	267	10
2023-08-12T06:00	5251	539	-5.9	-44.3	267	10
2023-08-12T06:00	5273	538	-6.1	-44.5	266	10
2023-08-12T06:00	5294	536	-6.2	-44.5	265	10
2023-08-12T06:00	5312	535	-6.2	-44.1	264	10
2023-08-12T06:00	5334	534	-6.3	-44.2	264	10
2023-08-12T06:00	5357	532	-6.5	-44.0	264	10
2023-08-12T06:00	5385	530	-6.6	-43.7	265	9
2023-08-12T06:00	5413	528	-6.7	-42.4	265	9
2023-08-12T06:00	5434	527	-6.9	-42.3	266	9
2023-08-12T06:00	5453	525	-7.0	-41.8	266	9
2023-08-12T06:00	5475	524	-7.1	-41.1	267	10
2023-08-12T06:00	5499	522	-7.3	-41.0	267	10
2023-08-12T06:00	5521	521	-7.4	-40.8	267	10
2023-08-12T06:00	5543	519	-7.6	-40.5	267	10
2023-08-12T06:00	5564	518	-7.7	-40.1	267	10
2023-08-12T06:00	5591	516	-7.9	-40.0	267	10
2023-08-12T06:00	5611	515	-8.1	-39.5	266	10
2023-08-12T06:00	5636	513	-8.2	-39.2	265	11
2023-08-12T06:00	5655	512	-8.2	-38.7	263	11
2023-08-12T06:00	5677	510	-8.3	-38.4	260	11
2023-08-12T06:00	5707	509	-8.4	-37.5	258	12
2023-08-12T06:00	5728	507	-8.5	-36.6	257	13
2023-08-12T06:00	5753	506	-8.6	-33.5	256	13
2023-08-12T06:00	5779	504	-8.6	-34.3	256	13
2023-08-12T06:00	5796	503	-8.7	-36.0	257	13
2023-08-12T06:00	5819	501	-8.7	-40.4	259	12
2023-08-12T06:00	5845	500	-8.8	-43.7	261	11
2023-08-12T06:00	5871	498	-8.9	-44.4	264	11
2023-08-12T06:00	5897	496	-9.1	-44.6	266	11
2023-08-12T06:00	5924	494	-9.3	-44.7	268	11
2023-08-12T06:00	5954	493	-9.5	-44.9	268	11
2023-08-12T06:00	5977	491	-9.6	-44.3	268	11
2023-08-12T06:00	5998	490	-9.7	-36.8	268	11
2023-08-12T06:00	6033	488	-9.9	-23.9	267	11
2023-08-12T06:00	6062	486	-10.1	-23.5	265	10
2023-08-12T06:00	6084	484	-10.4	-24.5	264	10
2023-08-12T06:00	6103	483	-10.5	-23.4	262	10
2023-08-12T06:00	6129	481	-10.8	-23.0	261	10
2023-08-12T06:00	6156	480	-11.1	-23.1	260	9
2023-08-12T06:00	6192	478	-11.4	-22.1	261	9
2023-08-12T06:00	6211	476	-11.6	-21.9	261	9
2023-08-12T06:00	6236	475	-11.7	-20.6	262	10
2023-08-12T06:00	6272	473	-11.9	-20.9	263	10
2023-08-12T06:00	6300	471	-12.1	-21.1	264	11
2023-08-12T06:00	6319	470	-12.3	-20.3	265	11
2023-08-12T06:00	6338	469	-12.4	-20.1	266	12
2023-08-12T06:00	6360	467	-12.6	-20.2	266	12
2023-08-12T06:00	6388	465	-12.8	-20.8	267	12
2023-08-12T06:00	6417	464	-12.9	-21.3	267	12
2023-08-12T06:00	6442	462	-13.1	-21.3	267	12
2023-08-12T06:00	6464	461	-13.2	-21.5	266	12
2023-08-12T06:00	6490	459	-13.4	-21.6	265	12
2023-08-12T06:00	6526	457	-13.7	-21.9	264	12
2023-08-12T06:00	6556	455	-13.9	-22.5	263	12
2023-08-12T06:00	6579	454	-14.0	-21.9	262	12
2023-08-12T06:00	6604	452	-14.2	-21.8	261	12
2023-08-12T06:00	6629	451	-14.4	-19.6	262	12
2023-08-12T06:00	6650	450	-14.5	-19.2	263	12
2023-08-12T06:00	6680	448	-14.7	-20.5	264	12
2023-08-12T06:00	6703	447	-14.8	-20.6	265	12
2023-08-12T06:00	6731	445	-15.0	-20.5	265	12
2023-08-12T06:00	6760	443	-15.2	-20.4	265	12
2023-08-12T06:00	6795	441	-15.5	-20.6	264	12
2023-08-12T06:00	6820	440	-15.7	-20.6	263	12
2023-08-12T06:00	6835	439	-15.9	-20.2	263	12
2023-08-12T06:00	6859	437	-16.1	-20.0	262	11
2023-08-12T06:00	6893	436	-16.4	-19.6	262	11
2023-08-12T06:00	6922	434	-16.7	-19.0	262	10
2023-08-12T06:00	6955	432	-17.0	-18.9	262	10
2023-08-12T06:00	6984	430	-17.0	-18.4	263	10
2023-08-12T06:00	7006	429	-17.2	-18.5	264	10
2023-08-12T06:00	7028	428	-17.3	-18.5	265	9
2023-08-12T06:00	7050	426	-17.4	-18.7	265	9
2023-08-12T06:00	7075	425	-17.6	-18.9	266	9
2023-08-12T06:00	7096	424	-17.8	-18.9	266	9
2023-08-12T06:00	7124	422	-18.0	-19.0	266	9
2023-08-12T06:00	7148	421	-18.2	-19.2	266	9
2023-08-12T06:00	7179	419	-18.5	-19.4	266	9
2023-08-12T06:00	7206	418	-18.7	-19.6	267	10
2023-08-12T06:00	7237	416	-19.0	-19.9	268	10
2023-08-12T06:00	7264	414	-19.2	-19.7	269	11
2023-08-12T06:00	7297	413	-19.4	-19.9	270	12
2023-08-12T06:00	7333	411	-19.6	-20.6	272	13
2023-08-12T06:00	7360	409	-19.7	-20.9	273	13
2023-08-12T06:00	7383	408	-19.9	-20.8	274	14
2023-08-12T06:00	7415	406	-20.1	-20.8	274	14
2023-08-12T06:00	7440	405	-20.4	-21.0	275	14
2023-08-12T06:00	7464	403	-20.6	-21.0	274	14
2023-08-12T06:00	7486	402	-20.6	-22.0	274	14
2023-08-12T06:00	7509	401	-20.7	-22.1	273	14
2023-08-12T06:00	7537	399	-20.9	-22.1	273	14
2023-08-12T06:00	7566	398	-21.2	-22.4	273	14
2023-08-12T06:00	7591	397	-21.3	-23.1	273	14
2023-08-12T06:00	7614	395	-21.5	-23.2	273	14
2023-08-12T06:00	7642	394	-21.7	-23.4	272	13
2023-08-12T06:00	7672	392	-21.9	-23.7	272	14
2023-08-12T06:00	7694	391	-22.0	-23.8	271	14
2023-08-12T06:00	7715	390	-22.2	-23.8	270	14
2023-08-12T06:00	7737	389	-22.4	-23.9	270	14
2023-08-12T06:00	7758	388	-22.6	-24.0	271	14
2023-08-12T06:00	7784	386	-22.8	-24.2	271	14
2023-08-12T06:00	7813	385	-23.1	-24.3	272	14
2023-08-12T06:00	7847	383	-23.4	-24.3	273	13
2023-08-12T06:00	7872	382	-23.6	-24.4	274	13
2023-08-12T06:00	7893	380	-23.8	-24.5	275	13
2023-08-12T06:00	7924	379	-23.9	-24.9	275	12
2023-08-12T06:00	7954	377	-24.1	-25.3	276	12
2023-08-12T06:00	7973	376	-24.3		278	12
2023-08-12T06:00	8000	375	-24.5	-25.3	279	12
2023-08-12T06:00	8035	373	-24.8	-25.6	280	13
2023-08-12T06:00	8058	372	-24.9	-25.9	281	13
2023-08-12T06:00	8075	371	-25.1	-25.9	281	13
2023-08-12T06:00	8097	370	-25.3	-26.1	281	13
2023-08-12T06:00	8120	369	-25.4	-26.4	280	13
2023-08-12T06:00	8149	367	-25.6	-26.7	278	12
2023-08-12T06:00	8178	366	-25.7	-27.3	277	12
2023-08-12T06:00	8200	365	-25.8	-27.7	277	12
2023-08-12T06:00	8220	364	-25.9	-28.1	278	12
2023-08-12T06:00	8241	363	-25.9	-28.6	279	12
2023-08-12T06:00	8269	361	-26.1	-29.2	280	12
2023-08-12T06:00	8293	360	-26.3	-29.4	281	11
2023-08-12T06:00	8314	359	-26.5	-29.2	282	11
2023-08-12T06:00	8339	358	-26.6	-29.6	282	11
2023-08-12T06:00	8361	357	-26.8	-30.2	283	11
2023-08-12T06:00	8390	355	-26.9	-30.4	283	11
2023-08-12T06:00	8420	354	-27.2	-30.5	282	11
2023-08-12T06:00	8458	352	-27.5	-30.7	281	12
2023-08-12T06:00	8484	351	-27.8	-30.9	280	12
2023-08-12T06:00	8507	350	-27.9	-31.5	279	12
2023-08-12T06:00	8534	348	-28.1	-31.6	279	12
2023-08-12T06:00	8559	347	-28.2	-31.7	279	12
2023-08-12T06:00	8582	346	-28.4	-31.8	279	12
2023-08-12T06:00	8604	345	-28.6	-31.8	279	12
2023-08-12T06:00	8626	344	-28.9	-31.9	279	12
2023-08-12T06:00	8649	343	-29.1	-32.0	279	12
2023-08-12T06:00	8675	342	-29.3	-31.9	278	12
2023-08-12T06:00	8702	340	-29.6	-32.2	277	12
2023-08-12T06:00	8739	339	-29.8	-32.5	276	12
2023-08-12T06:00	8762	337	-30.0	-32.7	275	12
2023-08-12T06:00	8785	336	-30.2	-32.8	275	12
2023-08-12T06:00	8809	335	-30.4	-33.4	275	12
2023-08-12T06:00	8831	334	-30.5	-33.6	275	12
2023-08-12T06:00	8854	333	-30.7	-34.1	275	12
2023-08-12T06:00	8882	332	-30.8	-34.5	275	12
2023-08-12T06:00	8904	331	-31.0	-34.5	275	12
2023-08-12T06:00	8930	329	-31.3	-34.8	274	12
2023-08-12T06:00	8961	328	-31.5	-35.3	273	12
2023-08-12T06:00	8987	327	-31.7	-35.5	273	12
2023-08-12T06:00	9013	326	-31.9	-35.4	272	12
2023-08-12T06:00	9039	324	-32.1	-35.8	272	12
2023-08-12T06:00	9066	323	-32.3	-36.2	271	12
2023-08-12T06:00	9103	322	-32.7	-36.6	271	11
2023-08-12T06:00	9128	320	-32.8	-37.9	271	11
2023-08-12T06:00	9148	320	-32.9	-38.5	271	11
2023-08-12T06:00	9167	319	-33.0	-38.7	271	11
2023-08-12T06:00	9188	318	-33.2	-38.8	271	11
2023-08-12T06:00	9208	317	-33.4		271	11
2023-08-12T06:00	9228	316	-33.5	-39.2	270	11
2023-08-12T06:00	9251	315	-33.7	-39.8	270	11
2023-08-12T06:00	9272	314	-33.9	-39.8	270	12
2023-08-12T06:00	9299	313	-34.1	-39.9	270	12
2023-08-12T06:00	9320	312	-34.3	-40.1	269	12
2023-08-12T06:00	9345	311	-34.5	-39.9	269	12
2023-08-12T06:00	9368	310	-34.7	-40.2	268	13
2023-08-12T06:00	9389	309	-34.9	-40.4	267	13
2023-08-12T06:00	9413	308	-35.1	-40.5	266	13
2023-08-12T06:00	9439	306	-35.3	-40.7	266	13
2023-08-12T06:00	9465	305	-35.6	-40.7	266	13
2023-08-12T06:00	9492	304	-35.8	-40.7	266	12
2023-08-12T06:00	9517	303	-36.1	-41.0	266	12
2023-08-12T06:00	9544	302	-36.3	-41.1	266	12
2023-08-12T06:00	9571	301	-36.6	-41.2	266	12
2023-08-12T06:00	9600	300	-36.8	-41.2	266	12
2023-08-12T06:00	9626	298	-37.1	-41.5	265	13
2023-08-12T06:00	9645	297	-37.3	-41.5	264	13
2023-08-12T06:00	9668	297	-37.4	-41.8	264	13
2023-08-12T06:00	9686	296	-37.6	-42.1	264	13
2023-08-12T06:00	9707	295	-37.8	-42.1	264	13
2023-08-12T06:00	9726	294	-38.0	-42.2	265	14
2023-08-12T06:00	9750	293	-38.2	-42.3	265	14
2023-08-12T06:00	9771	292	-38.4	-42.5	265	14
2023-08-12T06:00	9794	291	-38.6	-42.8	266	14
2023-08-12T06:00	9821	290	-38.8	-43.1	266	14
2023-08-12T06:00	9846	289	-39.0	-43.7	266	14
2023-08-12T06:00	9869	288	-39.2	-43.8	267	14
2023-08-12T06:00	9894	287	-39.3	-44.3	267	14
2023-08-12T06:00	9917	286	-39.4	-45.2	267	14
2023-08-12T06:00	9944	285	-39.6	-45.4	266	15
2023-08-12T06:00	9973	284	-39.8	-45.9	266	15
2023-08-12T06:00	9998	283	-39.9	-46.2	267	15
2023-08-12T06:00	10029	281	-40.2	-46.2	267	15
2023-08-12T06:00	10053	280	-40.3	-46.4	267	15
2023-08-12T06:00	10078	279	-40.5	-46.7	268	15
2023-08-12T06:00	10102	278	-40.5	-47.5	268	16
2023-08-12T06:00	10128	277	-40.7	-48.2	269	16
2023-08-12T06:00	10152	276	-40.7	-49.8	270	16
2023-08-12T06:00	10191	275	-40.9	-50.3	271	16
2023-08-12T06:00	10219	274	-41.0	-50.2	273	17
2023-08-12T06:00	10244	273	-41.0		274	17
2023-08-12T06:00	10264	272	-41.1	-50.3	276	17
2023-08-12T06:00	10287	271	-41.2	-50.7	277	17
2023-08-12T06:00	10318	270	-41.3	-51.5	278	17
2023-08-12T06:00	10349	269	-41.6	-51.7	279	17
2023-08-12T06:00	10370	268	-41.8	-51.6	279	17
2023-08-12T06:00	10393	267	-42.1	-51.6	280	16
2023-08-12T06:00	10413	266	-42.2	-51.5	280	16
2023-08-12T06:00	10434	265	-42.4	-51.8	281	16
2023-08-12T06:00	10455	264	-42.6	-52.0	280	16
2023-08-12T06:00	10475	263	-42.8	-52.0	280	16
2023-08-12T06:00	10497	263	-43.0	-52.0	280	16
2023-08-12T06:00	10519	262	-43.3	-52.1	280	16
2023-08-12T06:00	10540	261	-43.4	-52.1	280	15
2023-08-12T06:00	10564	260	-43.7	-52.2	280	15
2023-08-12T06:00	10585	259	-43.9	-52.3	281	15
2023-08-12T06:00	10610	258	-44.1	-52.3	281	15
2023-08-12T06:00	10637	257	-44.3	-52.4	280	15
2023-08-12T06:00	10669	256	-44.6	-52.8	279	14
2023-08-12T06:00	10701	255	-44.9	-53.2	277	14
2023-08-12T06:00	10730	254	-45.2	-53.1	276	13
2023-08-12T06:00	10765	252	-45.5	-53.2	274	13
2023-08-12T06:00	10799	251	-45.8	-53.5	273	13
2023-08-12T06:00	10832	250	-46.1	-53.7	273	13
2023-08-12T06:00	10866	249	-46.4	-53.6	273	13
2023-08-12T06:00	10898	247	-46.8	-53.7	273	13
2023-08-12T06:00	10927	246	-47.0	-53.8	273	13
2023-08-12T06:00	10947	245	-47.2	-53.9	273	13
2023-08-12T06:00	10966	245	-47.4	-53.8	273	13
2023-08-12T06:00	10987	244	-47.6	-53.8	272	13
2023-08-12T06:00	11011	243	-47.8	-53.8	272	13
2023-08-12T06:00	11038	242	-48.1	-54.0	271	13
2023-08-12T06:00	11070	241	-48.4	-54.2	270	13
2023-08-12T06:00	11101	240	-48.7	-54.4	269	13
2023-08-12T06:00	11135	239	-49.0	-54.4	269	13
2023-08-12T06:00	11167	237	-49.3	-54.5	269	13
2023-08-12T06:00	11194	236	-49.6	-54.6	269	13
2023-08-12T06:00	11220	235	-49.9		269	13
2023-08-12T06:00	11247	235	-50.1	-54.6	269	14
2023-08-12T06:00	11268	234	-50.3	-54.8	268	14
2023-08-12T06:00	11290	233	-50.5	-54.7	267	14
2023-08-12T06:00	11313	232	-50.8	-54.8	266	14
2023-08-12T06:00	11335	231	-51.0	-54.9	266	14
2023-08-12T06:00	11359	231	-51.2	-55.0	266	14
2023-08-12T06:00	11382	230	-51.4	-55.0	267	14
2023-08-12T06:00	11403	229	-51.6	-55.0	267	14
2023-08-12T06:00	11427	228	-51.9	-55.0	267	14
2023-08-12T06:00	11465	227	-52.2	-55.1	267	14
2023-08-12T06:00	11497	226	-52.5	-55.3	266	14
2023-08-12T06:00	11525	225	-52.8	-55.5	265	14
2023-08-12T06:00	11554	224	-53.1	-55.7	263	14
2023-08-12T06:00	11574	223	-53.3	-56.0	262	15
2023-08-12T06:00	11595	222	-53.4	-56.5	260	15
2023-08-12T06:00	11614	222	-53.5	-57.0	260	15
2023-08-12T06:00	11632	221	-53.6	-57.3	259	15
2023-08-12T06:00	11653	220	-53.7	-57.5	260	16
2023-08-12T06:00	11673	220	-53.8	-58.0	260	16
2023-08-12T06:00	11695	219	-53.8	-58.6	261	16
2023-08-12T06:00	11716	218	-54.0	-59.2	262	16
2023-08-12T06:00	11738	217	-54.0	-59.5	263	16
2023-08-12T06:00	11760	217	-54.2	-59.7	263	16
2023-08-12T06:00	11781	216	-54.3	-59.9	264	16
2023-08-12T06:00	11806	215	-54.5	-60.0	264	16
2023-08-12T06:00	11829	214	-54.6	-60.0	265	16
2023-08-12T06:00	11848	214	-54.8	-60.0	265	16
2023-08-12T06:00	11870	213	-54.9	-60.0	265	17
2023-08-12T06:00	11894	212	-55.1	-60.1	265	17
2023-08-12T06:00	11914	211	-55.4	-60.3	265	17
2023-08-12T06:00	11936	211	-55.4	-60.2	266	17
2023-08-12T06:00	11958	210	-55.6	-60.3	267	17
2023-08-12T06:00	11979	209	-55.8	-60.4	267	17
2023-08-12T06:00	12001	209	-55.9	-60.6	268	18
2023-08-12T06:00	12021	208	-56.0	-60.9	269	18
2023-08-12T06:00	12041	207	-56.1	-61.2	270	18
2023-08-12T06:00	12064	207	-56.2	-61.3	270	18
2023-08-12T06:00	12082	206	-56.2	-61.3	271	18
2023-08-12T06:00	12102	205	-56.2	-61.2	271	18
2023-08-12T06:00	12123	205	-56.3	-61.4	271	18
2023-08-12T06:00	12141	204	-56.3	-61.9	272	18
2023-08-12T06:00	12162	203	-56.3	-62.7	273	18
2023-08-12T06:00	12182	203	-56.3	-63.6	274	18
2023-08-12T06:00	12200	202	-56.3	-64.3	275	18
2023-08-12T06:00	12219	202	-56.4	-65.0	275	18
2023-08-12T06:00	12238	201	-56.3	-65.5	276	18
2023-08-12T06:00	12258	200	-56.3	-65.8	277	17
2023-08-12T06:00	12278	200	-56.3	-66.0	278	17
2023-08-12T06:00	12298	199	-56.3	-65.9	278	17
2023-08-12T06:00	12318	198	-56.2	-65.4	277	17
2023-08-12T06:00	12338	198	-56.3	-64.9	276	17
2023-08-12T06:00	12358	197	-56.5	-64.5	274	16
2023-08-12T06:00	12383	196	-56.7	-64.4	272	16
2023-08-12T06:00	12409	196	-56.9	-64.5	271	16
2023-08-12T06:00	12428	195	-56.9	-64.7	270	15
2023-08-12T06:00	12449	194	-56.8	-65.2	269	15
2023-08-12T06:00	12469	194	-56.5	-65.7	269	15
2023-08-12T06:00	12489	193	-56.5	-66.1	269	14
2023-08-12T06:00	12511	193	-56.5	-66.4	269	14
2023-08-12T06:00	12531	192	-56.6	-66.6	270	14
2023-08-12T06:00	12554	191	-56.7	-66.6	271	14
2023-08-12T06:00	12579	190	-56.8	-66.6	272	14
2023-08-12T06:00	12598	190	-56.8	-66.5	273	15
2023-08-12T06:00	12625	189	-57.1	-66.5	274	15
2023-08-12T06:00	12650	188	-57.2	-66.4	276	15
2023-08-12T06:00	12676	188	-57.5	-66.3	277	16
2023-08-12T06:00	12710	187	-57.9	-66.4	279	16
2023-08-12T06:00	12736	186	-58.1	-66.5	281	16
2023-08-12T06:00	12759	185	-58.2	-67.0	282	16
2023-08-12T06:00	12781	184	-57.8	-67.7	282	15
2023-08-12T06:00	12802	184	-56.9	-68.7	281	14
2023-08-12T06:00	12824	183	-56.6	-70.0	279	13
2023-08-12T06:00	12847	183	-56.6	-71.3	277	13
2023-08-12T06:00	12867	182	-56.6	-72.5	274	12
2023-08-12T06:00	12889	181	-56.3	-74.1	271	11
2023-08-12T06:00	12910	181	-55.4	-75.9	268	11
2023-08-12T06:00	12931	180	-54.7	-78.0	267	11
2023-08-12T06:00	12954	180	-54.8	-79.0	266	11
2023-08-12T06:00	12975	179	-55.0	-78.8	266	11
2023-08-12T06:00	12995	178	-55.2	-78.2	266	11
2023-08-12T06:00	13019	178	-55.4	-77.7	267	11
2023-08-12T06:00	13039	177	-55.6	-77.6	267	12
2023-08-12T06:00	13060	177	-55.7	-77.6	269	12
2023-08-12T06:00	13084	176	-55.6	-77.6	270	12
2023-08-12T06:00	13104	175	-55.4	-77.6	271	13
2023-08-12T06:00	13127	175	-55.4	-77.7	273	13
2023-08-12T06:00	13147	174	-55.5	-77.8	274	13
2023-08-12T06:00	13167	174	-55.5	-77.9	276	12
2023-08-12T06:00	13190	173	-55.5	-78.1	277	12
2023-08-12T06:00	13212	172	-55.5	-78.3	279	11
2023-08-12T06:00	13234	172	-55.5	-78.6	280	11
2023-08-12T06:00	13256	171	-55.5		281	10
2023-08-12T06:00	13275	171	-55.2	-79.1	281	10
2023-08-12T06:00	13296	170	-55.1	-79.2	279	9
2023-08-12T06:00	13318	170	-55.1	-79.5	277	9
2023-08-12T06:00	13339	169	-54.9	-79.3	273	8
2023-08-12T06:00	13362	168	-54.7	-78.9	270	8
2023-08-12T06:00	13384	168	-54.7	-78.7	267	8
2023-08-12T06:00	13405	167	-54.9	-78.5	265	9
2023-08-12T06:00	13428	167	-55.0	-78.0	265	9
2023-08-12T06:00	13448	166	-55.0	-77.5	265	9
2023-08-12T06:00	13468	166	-55.1	-77.2	266	10
2023-08-12T06:00	13489	165	-55.2	-76.8	268	10
2023-08-12T06:00	13511	164	-55.3	-76.9	270	11
2023-08-12T06:00	13534	164	-55.5	-77.1	272	12
2023-08-12T06:00	13554	163	-55.6	-77.1	274	12
2023-08-12T06:00	13575	163	-55.7	-77.2	276	12
2023-08-12T06:00	13595	162	-55.7	-77.4	277	12
2023-08-12T06:00	13617	162	-55.5	-77.2	278	12
2023-08-12T06:00	13635	161	-55.2	-77.0	278	12
2023-08-12T06:00	13656	161	-55.1	-76.9	278	11
2023-08-12T06:00	13677	160	-55.2	-77.0	279	11
2023-08-12T06:00	13698	160	-55.3	-77.0	279	11
2023-08-12T06:00	13719	159	-55.4	-77.3	280	10
2023-08-12T06:00	13739	159	-55.5	-77.6	281	9
2023-08-12T06:00	13760	158	-55.4	-77.9	281	9
2023-08-12T06:00	13781	158	-55.3	-78.3	281	8
2023-08-12T06:00	13803	157	-55.1	-78.5	280	8
2023-08-12T06:00	13822	157	-55.1	-78.9	279	7
2023-08-12T06:00	13847	156	-55.0	-79.2	278	7
2023-08-12T06:00	13865	156	-54.8	-79.2	277	6
2023-08-12T06:00	13886	155	-54.8	-79.4	274	6
2023-08-12T06:00	13907	155	-54.8	-79.7	271	5
2023-08-12T06:00	13927	154	-54.8	-79.9	265	5
2023-08-12T06:00	13948	154	-54.7	-80.0	259	5
2023-08-12T06:00	13968	153	-54.5	-79.9	253	5
2023-08-12T06:00	13988	153	-54.6	-80.0	248	5
2023-08-12T06:00	14007	152	-54.7	-79.8	245	6
2023-08-12T06:00	14029	152	-54.8	-79.7	244	6
2023-08-12T06:00	14053	151	-54.9	-79.7	244	7
2023-08-12T06:00	14076	151	-55.0	-79.6	244	7
2023-08-12T06:00	14101	150	-55.1	-79.5	245	8
2023-08-12T06:00	14119	150	-55.2	-79.5	246	9
2023-08-12T06:00	14144	149	-55.3	-79.6	247	9
2023-08-12T06:00	14167	148	-55.5	-79.6	248	10
2023-08-12T06:00	14188	148	-55.6	-79.6	249	11
2023-08-12T06:00	14210	147	-55.7	-79.7	250	11
2023-08-12T06:00	14232	147	-55.9	-79.9	251	12
2023-08-12T06:00	14252	146	-56.0	-80.0	252	12
2023-08-12T06:00	14272	146	-56.1		253	12
2023-08-12T06:00	14295	145	-56.3	-80.2	255	13
2023-08-12T06:00	14313	145	-56.4	-80.5	256	13
2023-08-12T06:00	14336	145	-56.4	-80.5	257	14
2023-08-12T06:00	14357	144	-56.5	-80.6	259	14
2023-08-12T06:00	14377	144	-56.5	-80.8	260	14
2023-08-12T06:00	14398	143	-56.6	-80.9	262	14
2023-08-12T06:00	14418	143	-56.6	-81.1	264	14
2023-08-12T06:00	14440	142	-56.5	-81.0	265	14
2023-08-12T06:00	14462	142	-56.4	-81.1	267	13
2023-08-12T06:00	14482	141	-56.1	-80.9	269	13
2023-08-12T06:00	14503	141	-55.9	-81.0	271	12
2023-08-12T06:00	14526	140	-55.7	-80.8	272	11
2023-08-12T06:00	14546	140	-55.5	-80.7	274	10
2023-08-12T06:00	14570	139	-55.4	-80.6	275	9
2023-08-12T06:00	14592	139	-55.3	-80.5	276	9
2023-08-12T06:00	14615	138	-55.3	-80.5	276	8
2023-08-12T06:00	14634	138	-55.3	-80.3	276	8
2023-08-12T06:00	14654	137	-55.4	-80.1	277	9
2023-08-12T06:00	14677	137	-55.4	-79.9	278	9
2023-08-12T06:00	14699	137	-55.4	-79.9	280	10
2023-08-12T06:00	14722	136	-55.4	-79.9	281	10
2023-08-12T06:00	14743	136	-55.2	-80.4	283	10
2023-08-12T06:00	14765	135	-55.0	-80.8	284	10
2023-08-12T06:00	14786	135	-54.9	-81.3	283	10
2023-08-12T06:00	14808	134	-55.0	-81.3	282	9
2023-08-12T06:00	14832	134	-55.0	-81.6	280	9
2023-08-12T06:00	14852	133	-55.0	-81.6	277	8
2023-08-12T06:00	14872	133	-55.1	-81.7	274	7
2023-08-12T06:00	14895	132	-55.1	-81.7	271	7
2023-08-12T06:00	14919	132	-55.0	-81.6	269	6
2023-08-12T06:00	14940	131	-54.8	-81.8	267	5
2023-08-12T06:00	14962	131	-54.7	-81.7	265	5
2023-08-12T06:00	14983	131	-54.6	-81.6	262	5
2023-08-12T06:00	15006	130	-54.6	-81.6	258	4
2023-08-12T06:00	15030	130	-54.5	-81.5	255	4
2023-08-12T06:00	15052	129	-54.5	-81.5	252	4
2023-08-12T06:00	15073	129	-54.5	-81.5	251	4
2023-08-12T06:00	15095	128	-54.5	-81.5	252	4
2023-08-12T06:00	15119	128	-54.6	-81.6	254	5
2023-08-12T06:00	15142	127	-54.8	-81.8	257	5
2023-08-12T06:00	15163	127	-55.0	-81.9	260	5
2023-08-12T06:00	15186	127	-55.1	-82.0	261	5
2023-08-12T06:00	15207	126	-55.3	-81.9	261	5
2023-08-12T06:00	15228	126	-55.4	-81.9	260	5
2023-08-12T06:00	15248	125	-55.5	-82.0	259	5
2023-08-12T06:00	15270	125	-55.7	-82.2	258	5
2023-08-12T06:00	15292	124	-55.7	-82.2	258	5
2023-08-12T06:00	15313	124	-55.7	-82.2	258	6
2023-08-12T06:00	15336	124	-55.8	-82.2	259	6
2023-08-12T06:00	15359	123	-55.9	-82.6	260	7
2023-08-12T06:00	15380	123	-55.8	-82.5	260	7
2023-08-12T06:00	15403	122	-55.6	-82.4	260	8
2023-08-12T06:00	15421	122	-55.6	-82.4	261	8
2023-08-12T06:00	15443	121	-55.7	-82.5	261	9
2023-08-12T06:00	15468	121	-55.6	-82.4	261	9
2023-08-12T06:00	15489	121	-55.6	-82.4	262	9
2023-08-12T06:00	15511	120	-55.6	-82.4	262	9
2023-08-12T06:00	15533	120	-55.6	-82.4	262	8
2023-08-12T06:00	15555	119	-55.7	-82.5	263	8
2023-08-12T06:00	15576	119	-55.8	-82.5	263	8
2023-08-12T06:00	15597	119	-55.9	-82.6	263	7
2023-08-12T06:00	15620	118	-56.1	-82.8	263	7
2023-08-12T06:00	15640	118	-56.2	-82.9	263	6
2023-08-12T06:00	15663	117	-56.3	-82.6	262	6
2023-08-12T06:00	15684	117	-56.4	-82.7	260	6
2023-08-12T06:00	15704	117	-56.5	-82.8	258	6
2023-08-12T06:00	15729	116	-56.7	-82.9	257	6
2023-08-12T06:00	15752	116	-56.8	-83.0	256	5
2023-08-12T06:00	15773	115	-56.9	-83.1	255	5
2023-08-12T06:00	15797	115	-57.0	-82.9	253	5
2023-08-12T06:00	15818	115	-57.1	-83.2	251	5
2023-08-12T06:00	15840	114	-57.1	-83.2	248	5
2023-08-12T06:00	15862	114	-56.9	-83.1	245	5
2023-08-12T06:00	15884	113	-57.0	-83.2	243	5
2023-08-12T06:00	15906	113	-57.0	-83.2	242	5
2023-08-12T06:00	15930	113	-57.0	-83.2	243	6
2023-08-12T06:00	15953	112	-57.0	-83.2	244	6
2023-08-12T06:00	15972	112	-56.9	-83.1	245	6
2023-08-12T06:00	15996	111	-56.7	-83.2	248	6
2023-08-12T06:00	16018	111	-56.7	-83.2	250	7
2023-08-12T06:00	16040	111	-56.6	-83.2	254	6
2023-08-12T06:00	16062	110	-56.6	-83.2	257	6
2023-08-12T06:00	16085	110	-56.6	-83.2	261	6
2023-08-12T06:00	16107	109	-56.5	-83.4	264	6
2023-08-12T06:00	16129	109	-56.4	-83.3	267	5
2023-08-12T06:00	16154	109	-56.4	-83.3	268	5
2023-08-12T06:00	16176	108	-56.5	-83.4	268	5
2023-08-12T06:00	16199	108	-56.6	-83.8	265	4
2023-08-12T06:00	16222	107	-56.4	-83.7	260	4
2023-08-12T06:00	16250	107	-56.1	-83.4	253	4
2023-08-12T06:00	16272	107	-56.3	-83.6	247	4
2023-08-12T06:00	16294	106	-56.5	-83.7	243	5
2023-08-12T06:00	16316	106	-56.7	-83.9	241	5
2023-08-12T06:00	16339	105	-56.9	-84.0	241	5
2023-08-12T06:00	16364	105	-57.0	-83.8	242	6
2023-08-12T06:00	16385	105	-57.2	-84.3	244	6
2023-08-12T06:00	16407	104	-57.1	-84.2	246	6
2023-08-12T06:00	16426	104	-57.1	-84.2	247	5
2023-08-12T06:00	16450	104	-57.1	-84.2	248	5
2023-08-12T06:00	16474	103	-57.1	-84.6	248	5
2023-08-12T06:00	16496	103	-57.0	-84.5	247	4
2023-08-12T06:00	16518	103	-56.8	-84.3	245	4
2023-08-12T06:00	16542	102	-56.9	-84.4	241	4
2023-08-12T06:00	16564	102	-56.9	-84.4	238	4
2023-08-12T06:00	16583	101	-57.0	-84.5	237	4
2023-08-12T06:00	16607	101	-57.1	-84.6	237	4
2023-08-12T06:00	16631	101	-57.1	-84.6	238	4
2023-08-12T06:00	16652	100	-57.2	-84.3	240	5
2023-08-12T06:00	16674	100	-57.3	-84.4	243	5
2023-08-12T06:00	16697	100	-57.5	-84.5	245	5
2023-08-12T06:00	16722	99	-57.6	-84.6	246	5
2023-08-12T06:00	16744	99	-57.5	-84.9	246	5
2023-08-12T06:00	16767	99	-57.2	-85.0	243	5
2023-08-12T06:00	16791	98	-57.0	-84.8	239	5
2023-08-12T06:00	16814	98	-56.7	-84.6	234	5
2023-08-12T06:00	16836	98	-56.6	-84.9	229	5
2023-08-12T06:00	16855	97	-56.5	-84.9	225	6
2023-08-12T06:00	16880	97	-56.6	-84.9	222	6
2023-08-12T06:00	16904	97	-56.8	-84.7	220	6
2023-08-12T06:00	16926	96	-56.8	-84.7	220	7
2023-08-12T06:00	16949	96	-56.9	-84.8	221	7
2023-08-12T06:00	16971	95	-57.0	-84.8	223	7
2023-08-12T06:00	16994	95	-57.1	-84.9	226	8
2023-08-12T06:00	17018	95	-57.3	-85.1	230	8
2023-08-12T06:00	17042	94	-57.3	-85.1	234	8
2023-08-12T06:00	17064	94	-57.3	-85.1	238	8
2023-08-12T06:00	17087	94	-57.2	-85.0	242	8
2023-08-12T06:00	17112	93	-57.1	-84.9	245	8
2023-08-12T06:00	17135	93	-56.9	-84.8	248	8
2023-08-12T06:00	17155	93	-56.9	-84.8	252	8
2023-08-12T06:00	17180	92	-57.0	-84.8	255	8
2023-08-12T06:00	17200	92	-57.1	-84.9	259	7
2023-08-12T06:00	17226	92	-57.1	-84.9	263	7
2023-08-12T06:00	17247	91	-57.1	-84.9	266	6
2023-08-12T06:00	17271	91	-57.1	-84.9	267	6
2023-08-12T06:00	17293	91	-57.1	-84.9	268	5
2023-08-12T06:00	17320	90	-57.1	-85.3	266	4
2023-08-12T06:00	17341	90	-57.0	-85.2	264	4
2023-08-12T06:00	17366	90	-56.8	-85.1	263	4
2023-08-12T06:00	17387	89	-56.6	-84.9	264	4
2023-08-12T06:00	17412	89	-56.7	-85.0	268	4
2023-08-12T06:00	17437	89	-56.8	-85.1	274	3
2023-08-12T06:00	17459	88	-56.5	-84.9	282	3
2023-08-12T06:00	17482	88	-56.4	-84.8	291	3
2023-08-12T06:00	17507	88	-56.2	-84.6	299	3
2023-08-12T06:00	17528	87	-56.3	-84.7	305	3
2023-08-12T06:00	17549	87	-56.3	-84.7	311	3
2023-08-12T06:00	17574	87	-56.3	-84.7	317	3
2023-08-12T06:00	17596	87	-56.4	-84.8	324	2
2023-08-12T06:00	17621	86	-56.4	-84.8	334	2
2023-08-12T06:00	17647	86	-56.1	-84.6	351	1
2023-08-12T06:00	17667	86	-56.1	-84.6	21	1
2023-08-12T06:00	17688	85	-56.2	-84.6	61	1
2023-08-12T06:00	17710	85	-56.2	-84.6	94	1
2023-08-12T06:00	17736	85	-56.4	-84.8	115	2
2023-08-12T06:00	17761	84	-56.6	-84.9	129	2
2023-08-12T06:00	17782	84	-56.7	-84.6	139	3
2023-08-12T06:00	17805	84	-56.8	-84.7	146	3
2023-08-12T06:00	17827	83	-56.9	-84.8	151	3
2023-08-12T06:00	17852	83	-56.9	-85.2	152	2
2023-08-12T06:00	17876	83	-56.8	-85.1	149	1
2023-08-12T06:00	17898	82	-56.6	-84.9	133	1
2023-08-12T06:00	17922	82	-56.6	-84.9	97	1
2023-08-12T06:00	17943	82	-56.5	-84.9	77	1
2023-08-12T06:00	17967	82	-56.5	-84.9	81	1
2023-08-12T06:00	17988	81	-56.6	-85.4	91	1
2023-08-12T06:00	18011	81	-56.4	-85.2	101	2
2023-08-12T06:00	18035	81	-56.2	-85.1	109	2
2023-08-12T06:00	18056	80	-56.0	-84.9	116	2
2023-08-12T06:00	18079	80	-55.9	-84.8	123	3
2023-08-12T06:00	18102	80	-56.0	-84.9	131	3
2023-08-12T06:00	18123	80	-56.1	-85.0	142	3
2023-08-12T06:00	18152	79	-56.1	-85.0	152	3
2023-08-12T06:00	18174	79	-56.0	-84.9	160	3
2023-08-12T06:00	18201	79	-56.0	-84.9	164	3
2023-08-12T06:00	18225	78	-56.0	-84.9	164	4
2023-08-12T06:00	18245	78	-56.1	-85.0	162	4
2023-08-12T06:00	18271	78	-56.2	-85.1	160	4
2023-08-12T06:00	18293	78	-56.2	-85.1	157	4
2023-08-12T06:00	18317	77	-56.3	-85.1	154	4
2023-08-12T06:00	18337	77	-56.2	-85.1	150	4
2023-08-12T06:00	18365	77	-56.2	-85.1	146	4
2023-08-12T06:00	18388	76	-56.3	-85.1	140	4
2023-08-12T06:00	18410	76	-56.5	-85.3	133	3
2023-08-12T06:00	18437	76	-56.7	-85.4	124	3
2023-08-12T06:00	18460	76	-56.8	-85.5	113	3
2023-08-12T06:00	18482	75	-56.8	-85.5	102	3
2023-08-12T06:00	18508	75	-56.7	-85.4	94	3
2023-08-12T06:00	18530	75	-56.7	-85.4	90	3
2023-08-12T06:00	18554	74	-56.5	-85.3	89	3
2023-08-12T06:00	18579	74	-56.4	-85.2	91	3
2023-08-12T06:00	18603	74	-56.5	-85.3	94	3
2023-08-12T06:00	18627	74	-56.5	-85.3	98	3
2023-08-12T06:00	18650	73	-56.5	-85.3	103	3
2023-08-12T06:00	18671	73	-56.5	-85.3	109	3
2023-08-12T06:00	18696	73	-56.5	-85.3	115	3
2023-08-12T06:00	18723	72	-56.5	-85.3	122	3
2023-08-12T06:00	18745	72	-56.6	-85.4	129	3
2023-08-12T06:00	18768	72	-56.5	-85.3	134	3
2023-08-12T06:00	18794	72	-56.5	-85.3	138	3
2023-08-12T06:00	18817	71	-56.6	-85.4	138	3
2023-08-12T06:00	18843	71	-56.6	-85.4	136	3
2023-08-12T06:00	18869	71	-56.7	-85.4	132	3
2023-08-12T06:00	18891	71	-56.8	-85.5	129	3
2023-08-12T06:00	18915	70	-56.7	-85.4	127	4
2023-08-12T06:00	18940	70	-56.5	-85.8	126	4
2023-08-12T06:00	18968	70	-56.4	-85.7	126	4
2023-08-12T06:00	18988	69	-56.3	-85.6	128	5
2023-08-12T06:00	19012	69	-56.1	-85.5	129	5
2023-08-12T06:00	19034	69	-56.1	-85.5	131	5
2023-08-12T06:00	19060	69	-56.0		134	6
2023-08-12T06:00	19083	68	-56.1	-85.5	138	6
2023-08-12T06:00	19107	68	-56.1	-85.5	143	6
2023-08-12T06:00	19132	68	-56.2	-85.5	149	6
2023-08-12T06:00	19156	68	-56.3	-85.6	155	6
2023-08-12T06:00	19179	67	-56.4	-85.2	160	7
2023-08-12T06:00	19201	67	-56.4	-85.2	166	7
2023-08-12T06:00	19227	67	-56.5	-85.3	170	7
2023-08-12T06:00	19254	67	-56.5	-85.3	175	7
2023-08-12T06:00	19278	66	-56.7	-85.4	179	7
2023-08-12T06:00	19299	66	-56.7	-85.4	182	6
2023-08-12T06:00	19322	66	-56.9	-85.6	186	6
2023-08-12T06:00	19349	66	-57.0	-85.7	190	5
2023-08-12T06:00	19372	65	-56.9	-86.1	194	5
2023-08-12T06:00	19396	65	-56.6	-85.8	197	4
2023-08-12T06:00	19420	65	-56.5	-85.8	199	4
2023-08-12T06:00	19444	65	-56.3	-85.6	200	3
2023-08-12T06:00	19468	64	-56.4	-85.7	198	3
2023-08-12T06:00	19494	64	-56.3	-85.6	192	3
2023-08-12T06:00	19516	64	-56.3	-85.6	184	3
2023-08-12T06:00	19541	64	-56.4	-85.7	175	3
2023-08-12T06:00	19568	63	-56.4	-85.7	166	3
2023-08-12T06:00	19591	63	-56.4	-85.7	159	4
2023-08-12T06:00	19613	63	-56.4	-85.7	153	4
2023-08-12T06:00	19637	63	-56.4	-85.7	149	4
2023-08-12T06:00	19660	62	-56.3	-85.6	147	4
2023-08-12T06:00	19683	62	-56.1	-85.5	147	5
2023-08-12T06:00	19711	62	-56.1	-85.5	148	5
2023-08-12T06:00	19732	62	-56.0	-85.9	152	4
2023-08-12T06:00	19759	62	-55.7	-85.7	158	4
2023-08-12T06:00	19782	61	-55.5	-85.5	166	4
2023-08-12T06:00	19807	61	-55.1	-85.2	174	3
2023-08-12T06:00	19830	61	-55.0	-85.1	182	3
2023-08-12T06:00	19853	61	-54.9	-85.1	188	2
2023-08-12T06:00	19879	60	-54.9	-85.1	186	1
2023-08-12T06:00	19902	60	-54.9	-85.6	143	1
2023-08-12T06:00	19926	60	-54.8	-85.5	77	1
2023-08-12T06:00	19951	60	-54.4	-85.2	66	2
2023-08-12T06:00	19978	59	-54.3	-85.2	65	2
2023-08-12T06:00	20003	59	-54.4	-84.7	67	3
2023-08-12T06:00	20026	59	-54.5	-84.8	69	3
2023-08-12T06:00	20054	59	-54.5	-84.8	72	2
2023-08-12T06:00	20077	59	-54.3	-84.6	75	2
2023-08-12T06:00	20098	58	-54.4	-84.7	76	1
2023-08-12T06:00	20125	58	-54.6	-84.8	71	1
2023-08-12T06:00	20149	58	-54.8	-85.0	26	0
2023-08-12T06:00	20173	58	-55.0	-85.1	311	0
2023-08-12T06:00	20198	57	-55.1	-85.2	299	0
2023-08-12T06:00	20220	57	-55.1	-85.2	295	0
2023-08-12T06:00	20246	57	-55.0	-85.1	110	0
2023-08-12T06:00	20271	57	-55.1	-85.2	107	1
2023-08-12T06:00	20295	57	-55.1	-85.2	103	1
2023-08-12T06:00	20316	56	-55.0	-85.1	100	1
2023-08-12T06:00	20341	56	-54.9	-85.1	98	2
2023-08-12T06:00	20366	56	-54.8	-85.0	99	2
2023-08-12T06:00	20389	56	-54.6	-85.4	102	3
2023-08-12T06:00	20412	56	-54.3	-85.2	105	4
2023-08-12T06:00	20437	55	-54.0	-84.9	108	4
2023-08-12T06:00	20462	55	-53.9	-84.9	110	5
2023-08-12T06:00	20487	55	-53.8	-84.8	113	6
2023-08-12T06:00	20507	55	-53.9	-84.9	115	7
2023-08-12T06:00	20533	55	-53.9	-84.9	116	7
2023-08-12T06:00	20561	54	-53.9	-84.9	117	7
2023-08-12T06:00	20580	54	-53.9	-84.9	117	7
2023-08-12T06:00	20609	54	-53.8	-84.8	116	7
2023-08-12T06:00	20631	54	-53.7	-84.7	114	7
2023-08-12T06:00	20653	54	-53.6	-84.6	111	7
2023-08-12T06:00	20683	53	-53.6	-84.6	108	8
2023-08-12T06:00	20700	53	-53.6	-84.6	107	8
2023-08-12T06:00	20725	53	-53.5	-84.6	107	9
2023-08-12T06:00	20748	53	-53.5	-84.6	108	10
2023-08-12T06:00	20771	53	-53.5	-84.6	110	10
2023-08-12T06:00	20798	52	-53.5	-84.6	111	10
2023-08-12T06:00	20821	52	-53.4	-84.5	113	10
2023-08-12T06:00	20843	52	-53.3	-84.4	113	10
2023-08-12T06:00	20866	52	-53.1	-84.3	113	10
2023-08-12T06:00	20891	52	-53.1	-84.3	112	10
2023-08-12T06:00	20912	51	-53.1	-84.3	111	10
2023-08-12T06:00	20936	51	-52.9	-84.1	110	9
2023-08-12T06:00	20960	51	-52.8	-84.1	111	9
2023-08-12T06:00	20986	51	-52.5	-83.8	113	9
2023-08-12T06:00	21012	51	-52.5	-83.8	116	8
2023-08-12T06:00	21036	50	-52.6	-83.9	120	8
2023-08-12T06:00	21061	50	-52.7	-84.0	123	8
2023-08-12T06:00	21084	50	-52.8	-84.1	127	8
2023-08-12T06:00	21114	50	-52.9	-83.6	131	8
2023-08-12T06:00	21138	50	-53.0	-83.6	135	8
2023-08-12T06:00	21166	49	-53.2	-83.8	139	8
2023-08-12T06:00	21190	49	-53.3	-83.9	142	8
2023-08-12T06:00	21211	49	-53.4	-83.9	144	8
2023-08-12T06:00	21240	49	-53.4	-83.9	145	8
2023-08-12T06:00	21263	49	-53.3	-83.9	145	8
2023-08-12T06:00	21287	48	-53.2	-84.4	145	8
2023-08-12T06:00	21311	48	-53.3	-83.9	143	7
2023-08-12T06:00	21338	48	-53.3	-83.9	141	7
2023-08-12T06:00	21363	48	-53.3	-84.4	139	6
2023-08-12T06:00	21383	48	-53.2	-84.4	136	6
2023-08-12T06:00	21415	48	-53.2	-84.4	133	5
2023-08-12T06:00	21439	47	-53.3	-84.4	132	5
2023-08-12T06:00	21467	47	-53.4	-84.5	131	5
2023-08-12T06:00	21489	47	-53.4	-83.9	132	5
2023-08-12T06:00	21519	47	-53.4	-83.9	134	5
2023-08-12T06:00	21545	47	-53.6	-84.1	136	6
2023-08-12T06:00	21570	46	-53.7	-84.2	139	6
2023-08-12T06:00	21597	46	-53.8	-84.2	143	6
2023-08-12T06:00	21623	46	-53.7	-84.7	147	6
2023-08-12T06:00	21646	46	-53.6	-84.6	152	6
2023-08-12T06:00	21670	46	-53.6	-84.6	156	6
2023-08-12T06:00	21700	45	-53.7	-84.2	158	5
2023-08-12T06:00	21721	45	-53.7	-84.2	160	5
2023-08-12T06:00	21753	45	-53.8	-84.2	161	4
2023-08-12T06:00	21776	45	-53.9	-84.3	160	4
2023-08-12T06:00	21800	45	-53.9	-84.3	155	3
2023-08-12T06:00	21826	45	-53.8	-84.2	145	3
2023-08-12T06:00	21854	44	-53.5	-84.6	130	2
2023-08-12T06:00	21880	44	-53.2	-84.4	116	3
2023-08-12T06:00	21906	44	-53.1	-84.3	106	3
2023-08-12T06:00	21932	44	-53.0	-84.2	99	4
2023-08-12T06:00	21956	44	-53.0	-84.2	94	4
2023-08-12T06:00	21984	44	-53.1	-84.3	91	4
2023-08-12T06:00	22009	43	-53.2	-84.4	87	5
2023-08-12T06:00	22034	43	-53.3	-83.9	84	5
2023-08-12T06:00	22061	43	-53.4	-83.9	82	6
2023-08-12T06:00	22084	43	-53.6	-84.1	81	6
2023-08-12T06:00	22112	43	-53.7	-84.2	81	7
2023-08-12T06:00	22138	42	-53.8	-84.2	83	7
2023-08-12T06:00	22167	42	-53.9	-84.3	86	8
2023-08-12T06:00	22189	42	-53.9	-84.3	91	8
2023-08-12T06:00	22217	42	-54.0	-84.4	95	9
2023-08-12T06:00	22241	42	-54.1	-84.5	100	9
2023-08-12T06:00	22268	42	-54.2	-84.5	105	10
2023-08-12T06:00	22295	41	-54.2	-84.5	109	10
2023-08-12T06:00	22320	41	-54.2	-84.5	114	10
2023-08-12T06:00	22344	41	-54.2	-84.5	117	10
2023-08-12T06:00	22374	41	-54.2	-84.5	120	10
2023-08-12T06:00	22398	41	-54.3	-84.6	122	10
2023-08-12T06:00	22419	41	-54.2	-84.5	122	10
2023-08-12T06:00	22448	40	-54.1	-84.5	122	9
2023-08-12T06:00	22478	40	-54.1	-84.5	120	8
2023-08-12T06:00	22507	40	-54.0	-84.4	118	7
2023-08-12T06:00	22528	40	-54.0	-84.9	115	7
2023-08-12T06:00	22557	40	-54.1	-85.0	112	6
2023-08-12T06:00	22583	40	-53.9	-84.9	110	6
2023-08-12T06:00	22609	39	-53.8	-84.8	107	5
2023-08-12T06:00	22630	39	-53.8	-84.8	105	5
2023-08-12T06:00	22658	39	-53.6	-84.6	105	5
2023-08-12T06:00	22682	39	-53.5	-84.6	106	5
2023-08-12T06:00	22710	39	-53.5	-84.6	109	5
2023-08-12T06:00	22734	39	-53.5	-84.6	114	5
2023-08-12T06:00	22760	39	-53.6	-84.6	117	5
2023-08-12T06:00	22786	38	-53.7	-84.7	118	5
2023-08-12T06:00	22816	38	-53.7	-84.7	115	5
2023-08-12T06:00	22840	38	-53.8	-84.8	110	5
2023-08-12T06:00	22868	38	-53.6	-84.6	102	5
2023-08-12T06:00	22886	38	-53.5	-84.6	96	5
2023-08-12T06:00	22919	38	-53.6	-84.6	93	5
2023-08-12T06:00	22946	37	-53.5	-84.6	93	5
2023-08-12T06:00	22970	37	-53.2	-84.4	96	5
2023-08-12T06:00	22999	37	-53.1	-84.9	100	5
2023-08-12T06:00	23022	37	-53.1	-84.9	104	6
2023-08-12T06:00	23053	37	-53.1	-84.9	108	6
2023-08-12T06:00	23077	37	-53.1	-84.9	110	6
2023-08-12T06:00	23106	37	-53.1	-84.9	111	7
2023-08-12T06:00	23128	36	-53.1	-84.3	111	7
2023-08-12T06:00	23159	36	-53.3	-84.4	112	7
2023-08-12T06:00	23187	36	-53.5	-84.6	113	7
2023-08-12T06:00	23212	36	-53.5	-84.6	116	7
2023-08-12T06:00	23237	36	-53.4	-84.5	119	7
2023-08-12T06:00	23266	36	-53.1	-84.3	123	6
2023-08-12T06:00	23292	36	-53.0	-84.8	126	6
2023-08-12T06:00	23316	35	-52.8	-84.7	128	6
2023-08-12T06:00	23343	35	-52.8	-84.7	128	6
2023-08-12T06:00	23374	35	-52.8	-84.7	125	6
2023-08-12T06:00	23403	35	-52.7	-84.6	122	6
2023-08-12T06:00	23427	35	-52.5	-84.4	119	7
2023-08-12T06:00	23451	35	-52.5	-84.4	116	7
2023-08-12T06:00	23479	35	-52.4	-84.4	115	7
2023-08-12T06:00	23505	34	-52.2	-84.2	115	7
2023-08-12T06:00	23533	34	-52.0	-84.1	116	7
2023-08-12T06:00	23561	34	-51.7	-83.9	118	7
2023-08-12T06:00	23584	34	-51.6	-83.8	120	6
2023-08-12T06:00	23611	34	-51.6	-83.8	122	6
2023-08-12T06:00	23638	34	-51.6	-83.8	124	6
2023-08-12T06:00	23662	34	-51.7	-84.5	126	6
2023-08-12T06:00	23690	33	-51.7	-84.5	128	5
2023-08-12T06:00	23716	33	-51.8	-83.9	131	5
2023-08-12T06:00	23744	33	-51.9	-84.0	134	5
2023-08-12T06:00	23769	33	-51.9	-84.0	138	5
2023-08-12T06:00	23801	33	-51.9	-84.0	141	5
2023-08-12T06:00	23824	33	-51.9	-84.0	145	4
2023-08-12T06:00	23845	33	-52.0	-84.1	147	4
2023-08-12T06:00	23878	32	-52.0	-84.1	149	4
2023-08-12T06:00	23906	32	-52.1	-84.8	149	4
2023-08-12T06:00	23929	32	-52.2	-84.9	149	4
2023-08-12T06:00	23966	32	-52.2	-84.9	149	4
2023-08-12T06:00	23981	32	-52.2	-84.9	149	4
2023-08-12T06:00	24010	32	-52.0	-84.8	148	4
2023-08-12T06:00	24034	32	-51.9	-84.7	145	4
2023-08-12T06:00	24063	32	-51.9	-84.7	140	4
2023-08-12T06:00	24095	31	-51.9	-84.7	133	4
2023-08-12T06:00	24119	31	-52.0	-84.8	126	4
2023-08-12T06:00	24147	31	-52.0	-84.8	120	5
2023-08-12T06:00	24174	31	-52.1	-84.8	117	5
2023-08-12T06:00	24198	31	-52.2	-84.2	116	6
2023-08-12T06:00	24227	31	-52.3	-84.3	117	6
2023-08-12T06:00	24257	31	-52.3	-84.3	118	6
2023-08-12T06:00	24277	30	-52.3	-84.3	121	6
2023-08-12T06:00	24304	30	-52.4	-84.4	123	6
2023-08-12T06:00	24333	30	-52.4	-84.4	126	6
2023-08-12T06:00	24361	30	-52.5	-84.4	129	6
2023-08-12T06:00	24387	30	-52.6	-85.2	134	6
2023-08-12T06:00	24418	30	-52.5	-85.1	139	5
2023-08-12T06:00	24443	30	-52.5	-85.1	144	5
2023-08-12T06:00	24468	30	-52.5	-85.1	147	5
2023-08-12T06:00	24497	29	-52.4	-85.1	148	4
2023-08-12T06:00	24524	29	-52.2	-84.9	145	4
2023-08-12T06:00	24548	29	-52.1	-84.8	143	4
2023-08-12T06:00	24574	29	-52.1	-84.8	141	4
2023-08-12T06:00	24598	29	-52.1	-84.8	142	4
2023-08-12T06:00	24631	29	-52.1	-84.8	146	4
2023-08-12T06:00	24651	29	-52.2	-84.9	149	3
2023-08-12T06:00	24683	29	-52.2	-84.9	151	3
2023-08-12T06:00	24713	29	-52.1	-84.8	146	2
2023-08-12T06:00	24731	28	-52.1	-84.8	133	2
2023-08-12T06:00	24764	28	-52.1	-84.8	116	2
2023-08-12T06:00	24789	28	-52.0	-84.8	103	2
2023-08-12T06:00	24816	28	-52.0	-84.8	93	2
2023-08-12T06:00	24842	28	-52.1	-84.8	85	3
2023-08-12T06:00	24866	28	-52.1	-84.8	76	3
2023-08-12T06:00	24894	28	-52.1	-84.8	67	3
2023-08-12T06:00	24919	28	-52.1	-84.8	60	3
2023-08-12T06:00	24949	28	-52.2	-84.9	58	4
2023-08-12T06:00	24965	27	-52.3	-85.0	60	4
2023-08-12T06:00	24999	27	-52.4	-85.1	67	4
2023-08-12T06:00	25020	27	-52.3	-85.0	77	3
2023-08-12T06:00	25047	27	-52.1	-84.8	92	3
2023-08-12T06:00	25078	27	-51.9	-84.7	109	3
2023-08-12T06:00	25094	27	-51.8	-84.6	123	3
2023-08-12T06:00	25123	27	-51.7	-84.5	131	3
2023-08-12T06:00	25153	27	-51.7	-84.5	134	3
2023-08-12T06:00	25179	27	-51.7	-84.5	130	3
2023-08-12T06:00	25202	26	-51.7	-85.3	118	2
2023-08-12T06:00	25233	26	-51.5	-85.2	92	2
2023-08-12T06:00	25254	26	-51.4	-85.1	59	2
2023-08-12T06:00	25283	26	-51.4	-85.1	41	3
2023-08-12T06:00	25311	26	-51.3	-85.0	35	3
2023-08-12T06:00	25337	26	-51.2	-85.0	35	4
2023-08-12T06:00	25359	26	-51.1	-84.9	38	5
2023-08-12T06:00	25386	26	-51.0	-84.8	41	6
2023-08-12T06:00	25423	26	-50.8	-84.7	45	6
2023-08-12T06:00	25445	25	-50.4	-84.4	50	7
2023-08-12T06:00	25469	25	-50.2	-84.2	56	7
2023-08-12T06:00	25492	25	-50.2	-84.2	61	8
2023-08-12T06:00	25520	25	-50.1	-84.2	67	9
2023-08-12T06:00	25547	25	-50.2	-84.2	72	9
2023-08-12T06:00	25576	25	-50.5	-84.5	75	10
2023-08-12T06:00	25600	25	-50.6	-84.5	77	10
2023-08-12T06:00	25627	25	-50.6	-84.5	77	11
2023-08-12T06:00	25656	25	-50.7	-84.6	76	11
2023-08-12T06:00	25681	25	-50.8	-84.7	73	11
2023-08-12T06:00	25717	24	-50.9	-84.7	70	11
2023-08-12T06:00	25734	24	-51.1	-84.9	68	11
2023-08-12T06:00	25769	24	-51.1	-84.9	66	10
2023-08-12T06:00	25791	24	-51.0	-84.8	66	10
2023-08-12T06:00	25821	24	-50.8	-84.7	67	10
2023-08-12T06:00	25851	24	-50.4	-84.4	69	10
2023-08-12T06:00	25873	24	-50.3	-84.3	71	9
2023-08-12T06:00	25908	24	-50.1	-84.2	73	9
2023-08-12T06:00	25935	24	-50.0	-84.1	76	8
2023-08-12T06:00	25959	24	-50.0	-84.1	78	8
2023-08-12T06:00	25991	23	-49.9	-84.0	80	7
2023-08-12T06:00	26019	23	-49.8	-84.0	82	7
2023-08-12T06:00	26053	23	-49.7	-83.9	85	6
2023-08-12T06:00	26069	23	-49.7	-83.9	88	6
2023-08-12T06:00	26102	23	-49.8	-84.0	92	5
2023-08-12T06:00	26133	23	-49.9	-84.0	97	5
2023-08-12T06:00	26158	23	-50.0	-84.1	103	4
2023-08-12T06:00	26188	23	-50.1	-84.2	112	4
2023-08-12T06:00	26212	23	-50.1	-84.2	120	4
2023-08-12T06:00	26247	23	-50.2	-84.2	128	3
2023-08-12T06:00	26270	22	-50.2	-84.2	133	3
2023-08-12T06:00	26301	22	-50.3	-84.3	132	3
2023-08-12T06:00	26328	22	-50.4	-84.4	126	2
2023-08-12T06:00	26354	22	-50.4	-84.4	115	2
2023-08-12T06:00	26378	22	-50.3	-84.3	102	2
2023-08-12T06:00	26409	22	-50.2	-84.2	93	2
2023-08-12T06:00	26436	22	-50.2	-84.2	88	3
2023-08-12T06:00	26460	22	-50.3	-84.3	86	3
2023-08-12T06:00	26483	22	-50.5	-84.5	84	3
2023-08-12T06:00	26512	22	-50.5	-84.5	83	4
2023-08-12T06:00	26546	22	-50.6	-84.5	81	4
2023-08-12T06:00	26575	21	-50.6	-84.5	80	5
2023-08-12T06:00	26597	21	-50.5	-84.5	80	5
2023-08-12T06:00	26625	21	-50.4	-84.4	81	6
2023-08-12T06:00	26649	21	-50.5	-84.5	82	6
2023-08-12T06:00	26687	21	-50.6	-84.5	85	7
2023-08-12T06:00	26714	21	-50.6	-84.5	88	7
2023-08-12T06:00	26746	21	-50.6	-84.5	92	7
2023-08-12T06:00	26760	21	-50.5	-84.5	96	6
2023-08-12T06:00	26794	21	-50.4	-84.4	99	6
2023-08-12T06:00	26813	21	-50.2	-84.2	99	5
2023-08-12T06:00	26850	21	-50.0	-84.1	96	5
2023-08-12T06:00	26870	20	-49.8	-84.8	91	5
2023-08-12T06:00	26902	20	-49.6	-84.7	85	5
2023-08-12T06:00	26926	20	-49.4	-84.6	82	5
2023-08-12T06:00	26952	20	-49.3	-84.5	82	5
2023-08-12T06:00	26986	20	-49.0	-84.3	86	6
2023-08-12T06:00	27012	20	-48.8	-84.1	90	6
2023-08-12T06:00	27031	20	-48.8	-84.1	94	6
2023-08-12T06:00	27067	20	-48.8	-84.1	96	7
2023-08-12T06:00	27090	20	-48.7	-84.1	98	7
2023-08-12T06:00	27116	20	-48.5	-83.9	98	6
2023-08-12T06:00	27144	20	-48.5	-83.9	98	6
2023-08-12T06:00	27169	20	-48.4	-83.8	96	5
2023-08-12T06:00	27207	19	-48.3	-83.8	93	5
2023-08-12T06:00	27230	19	-48.2	-83.7	88	4
2023-08-12T06:00	27263	19	-48.1	-83.6	80	4
2023-08-12T06:00	27280	19	-47.9	-83.5	71	4
2023-08-12T06:00	27316	19	-47.4	-84.2	65	4
2023-08-12T06:00	27339	19	-46.9	-83.9	62	5
2023-08-12T06:00	27364	19	-46.6	-83.6	61	5
2023-08-12T06:00	27394	19	-46.5	-83.6	61	6
2023-08-12T06:00	27429	19	-46.6	-83.6	62	7
2023-08-12T06:00	27448	19	-46.6	-82.6	63	7
2023-08-12T06:00	27485	19	-46.6	-82.6	66	8
2023-08-12T06:00	27516	19	-46.6	-82.6	69	8
2023-08-12T06:00	27536	19	-46.6	-82.6	72	9
2023-08-12T06:00	27564	18	-46.6	-82.6	76	9
2023-08-12T06:00	27591	18	-46.7	-82.6	79	9
2023-08-12T06:00	27625	18	-46.8	-82.7	81	9
2023-08-12T06:00	27647	18	-46.8	-82.7	83	10
2023-08-12T06:00	27685	18	-46.8	-82.7	85	10
2023-08-12T06:00	27706	18	-46.8	-82.7	87	10
2023-08-12T06:00	27742	18	-46.9	-82.8	88	11
2023-08-12T06:00	27767	18	-46.9	-82.8	89	11
2023-08-12T06:00	27802	18	-46.9	-82.8	90	11
2023-08-12T06:00	27831	18	-46.6	-82.6	90	11
2023-08-12T06:00	27858	18	-46.5	-82.5	90	11
2023-08-12T06:00	27893	18	-46.5	-82.5	90	11
2023-08-12T06:00	27925	17	-46.4	-83.5	91	11
2023-08-12T06:00	27944	17	-46.3	-83.4	92	11
2023-08-12T06:00	27974	17	-46.3	-82.4	93	11
2023-08-12T06:00	28007	17	-46.4	-82.4	94	11
2023-08-12T06:00	28044	17	-46.3	-82.4	94	11
2023-08-12T06:00	28063	17	-46.2	-82.3	95	10
2023-08-12T06:00	28096	17	-46.1	-82.2	97	10
2023-08-12T06:00	28125	17	-46.1	-82.2	98	10
2023-08-12T06:00	28153	17	-46.2	-82.3	100	10
2023-08-12T06:00	28185	17	-46.3	-82.4	102	9
2023-08-12T06:00	28210	17	-46.4	-82.4	104	9
2023-08-12T06:00	28240	17	-46.4	-82.4	105	9
2023-08-12T06:00	28268	17	-46.4	-82.4	104	9
2023-08-12T06:00	28305	17	-46.4	-82.4	103	9
2023-08-12T06:00	28321	16	-46.4	-82.4	102	9
2023-08-12T06:00	28356	16	-46.3	-82.4	102	9
2023-08-12T06:00	28384	16	-46.3	-82.4	104	9
2023-08-12T06:00	28413	16	-46.5	-82.5	106	9
2023-08-12T06:00	28438	16	-46.5	-82.5	109	8
2023-08-12T06:00	28467	16	-46.6	-82.6	112	8
2023-08-12T06:00	28494	16	-46.7	-82.6	113	8
2023-08-12T06:00	28526	16	-46.8	-82.7	113	7
2023-08-12T06:00	28560	16	-46.9	-82.8	111	7
2023-08-12T06:00	28596	16	-47.0	-82.9	108	6
2023-08-12T06:00	28610	16	-47.1	-82.9	103	6
2023-08-12T06:00	28642	16	-47.2	-83.0	99	6
2023-08-12T06:00	28665	16	-47.0	-82.9	96	6
2023-08-12T06:00	28698	16	-47.0	-82.9	93	6
2023-08-12T06:00	28727	15	-46.8	-83.8	92	6
2023-08-12T06:00	28768	15	-46.7	-83.7	92	7
2023-08-12T06:00	28782	15	-46.5	-83.6	94	8
2023-08-12T06:00	28817	15	-46.5	-83.6	95	8
2023-08-12T06:00	28848	15	-46.4	-83.5	97	9
2023-08-12T06:00	28882	15	-46.5	-82.5	98	9
2023-08-12T06:00	28910	15	-46.7	-82.6	99	10
2023-08-12T06:00	28936	15	-46.8	-82.7	100	11
2023-08-12T06:00	28967	15	-47.0	-82.9	100	11
2023-08-12T06:00	28999	15	-47.2	-83.0	100	11
2023-08-12T06:00	29019	15	-47.2	-83.0	100	11
2023-08-12T06:00	29046	15	-47.1	-82.9	99	11
2023-08-12T06:00	29080	15	-47.0	-82.9	96	10
2023-08-12T06:00	29111	15	-46.9	-82.8	93	10
2023-08-12T06:00	29140	15	-46.7	-83.7	88	9
2023-08-12T06:00	29166	14	-46.6	-83.6	83	9
2023-08-12T06:00	29196	14	-46.6	-83.6	76	8
2023-08-12T06:00	29221	14	-46.7	-83.7	69	8
2023-08-12T06:00	29260	14	-46.6	-83.6	63	8
2023-08-12T06:00	29284	14	-46.5	-83.6	59	8
2023-08-12T06:00	29315	14	-46.2	-83.4	58	9
2023-08-12T06:00	29337	14	-45.9	-83.2	60	9
2023-08-12T06:00	29371	14	-45.6	-82.9	64	10
2023-08-12T06:00	29401	14	-45.3	-82.7	69	10
2023-08-12T06:00	29429	14	-45.2	-82.7	75	10
2023-08-12T06:00	29459	14	-45.1	-82.6	80	10
2023-08-12T06:00	29494	14	-44.8	-82.4	85	11
2023-08-12T06:00	29514	14	-44.7	-82.3	88	11
2023-08-12T06:00	29541	14	-44.6	-82.2	91	11
2023-08-12T06:00	29566	14	-44.8	-82.4	94	11
2023-08-12T06:00	29604	14	-44.9	-82.5	96	11
2023-08-12T06:00	29637	14	-44.8	-82.4	97	11
2023-08-12T06:00	29665	13	-44.6	-82.2	98	11
2023-08-12T06:00	29682	13	-44.6	-82.2	99	11
2023-08-12T06:00	29717	13	-44.6	-82.2	100	11
2023-08-12T06:00	29757	13	-44.6	-82.2	99	11
2023-08-12T06:00	29779	13	-44.5	-82.2	98	10
2023-08-12T06:00	29808	13	-44.4	-82.1	96	10
2023-08-12T06:00	29827	13	-44.3	-82.0	94	10
2023-08-12T06:00	29859	13	-44.2	-82.0	93	10
2023-08-12T06:00	29898	13	-44.1	-81.9	93	11
2023-08-12T06:00	29924	13	-43.9	-81.8	95	11
2023-08-12T06:00	29957	13	-43.8	-81.7	97	11
2023-08-12T06:00	29990	13	-43.8	-81.7	99	11
2023-08-12T06:00	30016	13	-43.9	-81.8	102	10
2023-08-12T06:00	30040	13	-44.0	-81.8	104	10
2023-08-12T06:00	30080	13	-44.2	-82.0	105	10
2023-08-12T06:00	30108	13	-44.5	-82.2	105	9
2023-08-12T06:00	30125	13	-44.5	-82.2	103	9
2023-08-12T06:00	30165	12	-44.2	-82.0	100	8
2023-08-12T06:00	30193	12	-43.8	-81.7	94	8
2023-08-12T06:00	30222	12	-43.5	-81.5	89	8
2023-08-12T06:00	30247	12	-43.4	-81.4	85	8
2023-08-12T06:00	30274	12	-43.4	-81.4	82	9
2023-08-12T06:00	30304	12	-43.3	-81.3	80	9
2023-08-12T06:00	30335	12	-43.2	-81.3	79	9
2023-08-12T06:00	30364	12	-43.0	-81.1	78	10
2023-08-12T06:00	30393	12	-43.0	-81.1	76	10
2023-08-12T06:00	30426	12	-43.0	-81.1	73	10
2023-08-12T06:00	30461	12	-43.0	-81.1	70	11
2023-08-12T06:00	30477	12	-42.9	-81.1	67	11
2023-08-12T06:00	30498	12	-42.9	-81.1	64	11
2023-08-12T06:00	30524	12	-42.8	-81.0	61	11
2023-08-12T06:00	30571	12	-42.7	-80.9	59	12
2023-08-12T06:00	30604	12	-42.5	-80.8	58	12
2023-08-12T06:00	30614	12	-42.5	-80.8	58	12
2023-08-12T06:00	30635	12	-42.5	-80.8	59	13
2023-08-12T06:00	30684	12	-42.4	-80.7	61	13
2023-08-12T06:00	30717	12	-42.4	-80.7	65	13
2023-08-12T06:00	30733	11	-42.4	-80.7	69	13
2023-08-12T06:00	30756	11	-42.3	-80.6	73	13
2023-08-12T06:00	30790	11	-42.2	-80.6	78	13
2023-08-12T06:00	30824	11	-42.2	-80.6	82	13
2023-08-12T06:00	30855	11	-42.1	-80.5	87	12
2023-08-12T06:00	30887	11	-41.9	-80.4	91	12
2023-08-12T06:00	30907	11	-41.8	-80.3	96	11
2023-08-12T06:00	30921	11	-41.8	-80.3	100	11
2023-08-12T06:00	30957	11	-41.8	-80.3	103	11
2023-08-12T06:00	30996	11	-41.8	-80.3	105	10
2023-08-12T06:00	31025	11	-41.7	-80.2	106	10
2023-08-12T06:00	31066	11	-41.7	-80.2	104	9
2023-08-12T06:00	31094	11	-41.8	-80.3	101	9
2023-08-12T06:00	31116	11	-41.8	-80.3	96	9
2023-08-12T06:00	31148	11	-41.7	-80.2	91	9
2023-08-12T06:00	31173	11	-41.7	-80.2	88	9
2023-08-12T06:00	31207	11	-41.6	-80.1	87	9
2023-08-12T06:00	31233	11	-41.4	-80.0	87	9
2023-08-12T06:00	31255	11	-41.3	-79.9	87	9
2023-08-12T06:00	31289	11	-41.3	-79.9	89	9
2023-08-12T06:00	31311	11	-41.4	-80.0	90	8
2023-08-12T06:00	31346	11	-41.5	-80.1	91	8
2023-08-12T06:00	31365	10	-41.7	-80.2	92	7
2023-08-12T06:00	31411	10	-41.9	-80.4	91	7
2023-08-12T06:00	31430	10	-41.9	-80.4	88	7
2023-08-12T06:00	31453	10	-41.9	-80.4	83	7
2023-08-12T06:00	31490	10	-41.9	-80.4	78	8
2023-08-12T06:00	31523	10	-41.8	-80.3	73	8
2023-08-12T06:00	31552	10	-41.8	-80.3	70	9
2023-08-12T06:00	31568	10	-41.6	-80.1	67	10
2023-08-12T06:00	31587	10	-41.6	-80.1	66	10
2023-08-12T06:00	31615	10	-41.6	-80.1	65	10
2023-08-12T06:00	31645	10	-41.7	-80.2	65	11
2023-08-12T06:00	31682	10	-41.7	-80.2	66	11
2023-08-12T06:00	31719	10	-41.7	-80.2	67	11
2023-08-12T06:00	31739	10	-41.8	-80.3	67	11
2023-08-12T06:00	31779	10	-41.9	-80.4	68	11
2023-08-12T06:00	31787	10	-42.0	-80.4	70	11
2023-08-12T06:00	31823	10	-41.9	-80.4	71	11
2023-08-12T06:00	31842	10	-41.9	-80.4	73	11
2023-08-12T06:00	31875	10	-41.9	-80.4	76	11
2023-08-12T06:00	31905	10	-41.7	-80.2	78	11
2023-08-12T06:00	31921	10	-41.5	-80.1	80	10
2023-08-12T06:00	31962	10	-41.4	-80.0	81	10
2023-08-12T06:00	32012	10	-41.3	-79.9	81	9
2023-08-12T06:00	32025	9	-41.3	-79.9	80	9
2023-08-12T06:00	32047	9	-41.2	-79.9	77	9
2023-08-12T06:00	32064	9	-41.0	-79.7	75	9
2023-08-12T06:00	32104	9	-40.7	-79.5	73	9
2023-08-12T06:00	32146	9	-40.4	-79.3	71	9
2023-08-12T06:00	32171	9	-40.2	-79.2	70	10
2023-08-12T06:00	32186	9	-40.1	-79.1	70	10
2023-08-12T06:00	32204	9	-40.0	-79.0	70	11
2023-08-12T06:00	32254	9	-39.9	-79.0	70	12
2023-08-12T06:00	32274	9	-39.8	-78.9	71	12
2023-08-12T06:00	32325	9	-39.7	-78.8	72	13
2023-08-12T06:00	32331	9	-39.5	-78.7	73	13
2023-08-12T06:00	32368	9	-39.4	-78.6	73	13
2023-08-12T06:00	32402	9	-39.3	-78.5	74	13
2023-08-12T06:00	32423	9	-39.2	-78.5	74	13
2023-08-12T06:00	32464	9	-39.1	-78.4	75	12
2023-08-12T06:00	32476	9	-39.0	-78.3	76	12
2023-08-12T06:00	32503	9	-39.1	-78.4	76	11
2023-08-12T06:00	32521	9	-39.3	-78.5	77	11
2023-08-12T06:00	32549	9	-39.4	-78.6	77	10
2023-08-12T06:00	32583	9	-39.5	-78.7	77	10
2023-08-12T06:00	32614	9	-39.6	-78.8	76	10
2023-08-12T06:00	32639	9	-39.6	-78.8	76	11
2023-08-12T06:00	32649	9	-39.6	-78.8	76	12
2023-08-12T06:00	32696	9	-39.6	-78.8	76	12
2023-08-12T06:00	32715	9	-39.5	-78.7	77	13
2023-08-12T06:00	32765	9	-39.4	-78.6	78	14
2023-08-12T06:00	32814	8	-39.1	-78.4	80	15
2023-08-12T06:00	32824	8	-38.9	-78.3	81	15
2023-08-12T06:00	32856	8	-38.8	-78.2	83	16
2023-08-12T06:00	32880	8	-38.7	-78.1	85	16
2023-08-12T06:00	32904	8	-38.4	-77.9	87	16
2023-08-12T06:00	32911	8	-38.1	-77.7	88	16
2023-08-12T06:00	32961	8	-38.1	-77.7	89	15
2023-08-12T06:00	32991	8	-38.0	-77.6	90	15
2023-08-12T06:00	33039	8	-38.0	-77.6	92	14
2023-08-12T06:00	33078	8	-38.0	-77.6	96	12
2023-08-12T06:00	33093	8	-37.7	-77.4	98	12
2023-08-12T06:00	33128	8	-37.4	-77.2	99	11
2023-08-12T06:00	33178	8	-37.1	-77.0	100	11
2023-08-12T06:00	33188	8	-37.0	-77.0	101	11
2023-08-12T06:00	33228	8	-37.0	-77.0	103	10
2023-08-12T06:00	33240	8	-37.1	-77.0	106	10
2023-08-12T06:00	33284	8	-37.2	-77.1	110	10
2023-08-12T06:00	33307	8	-37.3	-77.2	114	9
2023-08-12T06:00	33348	8	-37.3	-77.2	118	9
2023-08-12T06:00	33377	8	-37.4	-77.2	120	9
2023-08-12T06:00	33386	8	-37.4	-77.2	120	9
2023-08-12T06:00	33425	8	-37.6	-77.4	119	9
2023-08-12T06:00	33461	8	-37.7	-77.4	116	9
2023-08-12T06:00	33490	8	-37.8	-77.5	113	9
2023-08-12T06:00	33526	8	-37.9	-77.6	109	10
2023-08-12T06:00	33545	8	-38.0	-77.6	105	10
2023-08-12T06:00	33565	8	-38.0	-77.6	102	10
2023-08-12T06:00	33609	8	-38.0	-77.6	98	11
2023-08-12T06:00	33643	8	-38.1	-77.7	95	11
2023-08-12T06:00	33659	7	-38.1	-77.7	93	11
2023-08-12T06:00	33697	7	-37.9	-77.6	91	11
2023-08-12T06:00	33723	7	-37.8	-77.5	91	11
2023-08-12T06:00	33769	7	-37.5	-77.3	92	11
2023-08-12T06:00	33783	7	-37.2	-77.1	93	11
2023-08-12T06:00	33823	7	-37.0	-77.0	95	11
2023-08-12T06:00	33849	7	-36.9	-76.9	96	11
2023-08-12T06:00	33868	7	-36.8	-76.8	97	10
2023-08-12T06:00	33896	7	-36.7	-76.7	96	10
2023-08-12T06:00	33929	7	-36.7	-76.7	94	9
2023-08-12T06:00	33950	7	-36.7	-76.7	92	8
2023-08-12T06:00	34001	7	-36.7	-76.7	89	7
2023-08-12T06:00	34017	7	-36.6	-76.7	86	7
2023-08-12T06:00	34042	7	-36.7	-76.7	83	6
2023-08-12T06:00	34085	7	-36.8	-76.8	80	6
2023-08-12T06:00	34089	7	-36.9	-76.9	75	6
2023-08-12T06:00	34112	7	-36.9	-76.9	72	6
2023-08-12T06:00	34151	7	-36.9	-76.9	70	6
2023-08-12T06:00	34206	7	-37.0	-77.0	71	6
2023-08-12T06:00	34230	7	-36.9	-76.9	73	7
2023-08-12T06:00	34232	7	-36.7	-76.7	77	8
2023-08-12T06:00	34251	7	-36.7	-76.7	82	8
2023-08-12T06:00	34307	7	-36.6	-76.7	86	9
2023-08-12T06:00	34312	7	-36.5	-76.6	89	10
2023-08-12T06:00	34354	7	-36.5	-76.6	92	11
2023-08-12T06:00	34365	7	-36.4	-76.5	95	12
2023-08-12T06:00	34420	7	-36.3	-76.5	98	13
2023-08-12T06:00	34442	7	-36.2	-76.4	100	13
2023-08-12T06:00	34453	7	-36.1	-76.3	102	13
2023-08-12T06:00	34494	7	-36.1	-76.3	103	13
2023-08-12T06:00	34535	7	-36.1	-76.3	104	13
2023-08-12T06:00	34560	7	-36.1	-76.3	105	12
2023-08-12T06:00	34568	7	-35.9	-76.2	107	12
2023-08-12T06:00	34590	7	-35.5	-75.9	109	12
2023-08-12T06:00	34633	7	-35.0	-75.6	112	11
2023-08-12T06:00	34663	6	-34.3	-75.1	119	10
2023-08-12T06:00	34686	6	-34.0	-74.9	122	10
2023-08-12T06:00	34712	6	-33.7	-74.7	124	9
2023-08-12T06:00	34739	6	-33.5	-74.5	126	8
2023-08-12T06:00	34778	6	-33.6	-74.6	127	8
2023-08-12T06:00	34822	6	-33.7	-74.7	127	7
2023-08-12T06:00	34837	6	-33.9	-74.8	126	6
2023-08-12T06:00	34858	6	-34.0	-74.9	121	6
2023-08-12T06:00	34891	6	-34.0	-74.9	113	5
2023-08-12T06:00	34910	6	-33.8	-74.7	102	5
2023-08-12T06:00	34937	6	-33.7	-74.7	88	5
2023-08-12T06:00	34958	6	-33.7	-74.7	75	5
2023-08-12T06:00	34989	6	-33.6	-74.6	64	6
2023-08-12T06:00	35041	6	-33.5	-74.5	56	6
2023-08-12T06:00	35045	6	-33.2	-74.3	52	7
2023-08-12T06:00	35073	6	-33.0	-74.2	50	7
2023-08-12T06:00	35084	6	-32.9	-74.1	51	8
2023-08-12T06:00	35114	6	-32.7	-74.0	53	8
2023-08-12T06:00	35145	6	-32.5	-73.8	56	9
2023-08-12T06:00	35183	6	-32.4	-73.8	58	9
2023-08-12T06:00	35241	6	-32.4	-73.8	60	10
2023-08-12T06:00	35259	6	-32.4	-73.8	62	10
2023-08-12T06:00	35274	6	-32.4	-73.8	65	10
2023-08-12T06:00	35327	6	-32.5	-73.8	68	11
2023-08-12T06:00	35373	6	-32.7	-74.0	76	11
2023-08-12T06:00	35375	6	-32.8	-74.1	80	12
2023-08-12T06:00	35436	6	-32.9	-74.1	84	12
2023-08-12T06:00	35453	6	-32.9	-74.1	88	13
2023-08-12T06:00	35478	6	-33.2	-74.3	95	14
2023-08-12T06:00	35521	6	-33.2	-74.3	96	14
2023-08-12T06:00	35546	6	-33.2	-74.3	96	14
2023-08-12T06:00	35603	6	-33.2	-74.3	95	14
2023-08-12T06:00	35607	6	-33.2	-74.3	93	13
2023-08-12T06:00	35667	6	-33.2	-74.3	91	12
2023-08-12T06:00	35694	6	-33.1	-74.3	89	12
2023-08-12T06:00	35720	6	-33.1	-74.3	87	12
2023-08-12T06:00	35733	6	-33.2	-74.3	86	12
2023-08-12T06:00	35754	6	-33.3	-74.4	87	12
2023-08-12T12:00	-999					
2023-08-12T12:00	137	1002	24.8		178	3
2023-08-12T12:00	165	999	24.4	15.9	178	4
2023-08-12T12:00	197	995	24.2	15.9	178	4
2023-08-12T12:00	227	992	23.9	15.9	178	5
2023-08-12T12:00	253	989	23.6	15.9	179	5
2023-08-12T12:00	283	985	23.3	15.6	180	6
2023-08-12T12:00	313	982	23.5	14.5	182	6
2023-08-12T12:00	331	980	23.3	14.4	185	6
2023-08-12T12:00	354	977	23.1	14.6	189	7
2023-08-12T12:00	384	974	22.8	14.5	192	7
2023-08-12T12:00	406	971	22.5	14.8	194	7
2023-08-12T12:00	433	968	22.3	14.6	195	8
2023-08-12T12:00	462	965	22.0	14.6	196	9
2023-08-12T12:00	491	962	21.6	14.7	197	9
2023-08-12T12:00	517	959	21.9	14.1	199	10
2023-08-12T12:00	537	957	21.9	14.2	201	10
2023-08-12T12:00	563	954	21.8	14.0	204	10
2023-08-12T12:00	588	952	21.8	13.8	206	10
2023-08-12T12:00	611	949	21.8	13.7	209	10
2023-08-12T12:00	638	946	21.6	13.4	212	10
2023-08-12T12:00	654	944	21.4	13.2	215	10
2023-08-12T12:00	678	942	21.3	13.2	218	10
2023-08-12T12:00	703	939	21.3	12.6	218	10
2023-08-12T12:00	738	935	21.3	12.1	218	11
2023-08-12T12:00	761	933	21.4	12.0	217	11
2023-08-12T12:00	780	931	21.4	12.0	217	12
2023-08-12T12:00	803	928	21.2	12.0	216	12
2023-08-12T12:00	828	925	21.0	11.9	216	11
2023-08-12T12:00	856	923	20.8	11.8	216	11
2023-08-12T12:00	881	920	20.5	11.6	216	11
2023-08-12T12:00	902	918	20.3	11.7	216	11
2023-08-12T12:00	921	915	20.2	11.6	217	11
2023-08-12T12:00	941	913	20.0	11.5	217	11
2023-08-12T12:00	961	911	19.9	11.6	217	11
2023-08-12T12:00	981	909	19.7	11.4	217	10
2023-08-12T12:00	1003	907	19.5	11.5	216	9
2023-08-12T12:00	1022	905	19.4	11.8	212	9
2023-08-12T12:00	1041	903	19.2	11.6	208	8
2023-08-12T12:00	1058	901	19.0	11.6	205	8
2023-08-12T12:00	1076	899	18.9	11.7	203	8
2023-08-12T12:00	1094	897	18.8	11.7	205	9
2023-08-12T12:00	1117	895	18.6	11.8	208	9
2023-08-12T12:00	1140	893	18.4	11.6	212	9
2023-08-12T12:00	1161	890	18.3	11.2	217	9
2023-08-12T12:00	1180	888	18.2	11.1	220	9
2023-08-12T12:00	1201	886	18.1	11.4	224	9
2023-08-12T12:00	1223	884	17.9	11.1	227	9
2023-08-12T12:00	1241	882	17.7	11.0	230	8
2023-08-12T12:00	1263	880	17.5	11.0	231	8
2023-08-12T12:00	1295	877	17.2	10.8	229	7
2023-08-12T12:00	1314	874	17.1	11.0	227	7
2023-08-12T12:00	1343	872	16.8	10.8	225	8
2023-08-12T12:00	1367	869	16.6	10.8	225	8
2023-08-12T12:00	1388	867	16.4	10.7	227	9
2023-08-12T12:00	1410	865	16.1	10.6	228	9
2023-08-12T12:00	1437	862	15.9	10.6	228	10
2023-08-12T12:00	1460	860	15.7	10.7	227	10
2023-08-12T12:00	1486	857	15.4	10.5	225	11
2023-08-12T12:00	1503	855	15.2	10.5	223	11
2023-08-12T12:00	1524	853	15.1	10.4	223	12
2023-08-12T12:00	1546	851	14.9	10.4	225	12
2023-08-12T12:00	1564	849	14.7	10.3	229	11
2023-08-12T12:00	1585	847	14.5	10.3	233	10
2023-08-12T12:00	1605	845	14.4	10.3	237	9
2023-08-12T12:00	1622	843	14.2	10.3	240	8
2023-08-12T12:00	1641	842	14.0	10.2	241	8
2023-08-12T12:00	1657	840	13.9	10.3	240	7
2023-08-12T12:00	1677	838	13.7	10.1	238	7
2023-08-12T12:00	1694	836	13.6	10.1	236	7
2023-08-12T12:00	1713	834	13.5	10.1	235	7
2023-08-12T12:00	1733	833	13.3	9.8	235	7
2023-08-12T12:00	1749	831	13.2	9.7	236	7
2023-08-12T12:00	1772	829	13.0	9.5	238	8
2023-08-12T12:00	1791	827	12.9	9.4	240	9
2023-08-12T12:00	1811	825	12.8	8.8	239	10
2023-08-12T12:00	1830	823	12.7	8.7	238	10
2023-08-12T12:00	1848	821	12.5	8.7	235	11
2023-08-12T12:00	1870	819	12.4	8.7	232	11
2023-08-12T12:00	1886	817	12.2	8.8	229	11
2023-08-12T12:00	1905	816	12.0	8.9	227	11
2023-08-12T12:00	1924	814	11.8	9.0	226	11
2023-08-12T12:00	1943	812	11.7	9.2	226	11
2023-08-12T12:00	1964	810	11.5	9.0	225	10
2023-08-12T12:00	1980	808	11.5	8.1	224	10
2023-08-12T12:00	2002	806	11.4	7.5	224	9
2023-08-12T12:00	2019	804	11.5	6.2	225	9
2023-08-12T12:00	2042	802	11.5	6.0	227	9
2023-08-12T12:00	2068	800	11.2	6.0	229	9
2023-08-12T12:00	2097	797	11.0	5.6	230	9
2023-08-12T12:00	2118	795	11.0	5.5	228	9
2023-08-12T12:00	2141	793	10.9	5.7	224	9
2023-08-12T12:00	2158	791	10.8	5.2	221	10
2023-08-12T12:00	2175	790	10.7	4.7	219	10
2023-08-12T12:00	2197	788	10.7	3.8	219	10
2023-08-12T12:00	2223	785	10.6	3.1	221	10
2023-08-12T12:00	2243	783	10.6	2.8	224	9
2023-08-12T12:00	2264	781	10.4	2.9	226	9
2023-08-12T12:00	2293	779	10.3	3.0	227	9
2023-08-12T12:00	2321	776	10.1	2.9	226	10
2023-08-12T12:00	2345	774	9.9	2.9	225	11
2023-08-12T12:00	2374	771	9.7	3.0	225	11
2023-08-12T12:00	2394	769	9.6	2.9	224	12
2023-08-12T12:00	2420	767	9.6	2.9	222	12
2023-08-12T12:00	2437	765	9.6	2.9	221	12
2023-08-12T12:00	2458	763	9.5	2.8	221	13
2023-08-12T12:00	2478	761	9.4	2.8	222	13
2023-08-12T12:00	2497	760	9.3	2.9	224	14
2023-08-12T12:00	2521	758	9.2	2.8	228	15
2023-08-12T12:00	2540	756	9.0	2.7	231	15
2023-08-12T12:00	2562	754	8.9	2.6	233	15
2023-08-12T12:00	2588	752	8.8	2.5	233	15
2023-08-12T12:00	2610	749	8.7	2.4	233	14
2023-08-12T12:00	2630	747	8.5	2.4	231	14
2023-08-12T12:00	2660	745	8.3	2.3	229	13
2023-08-12T12:00	2684	743	8.1	2.1	226	13
2023-08-12T12:00	2707	741	7.9	2.0	225	13
2023-08-12T12:00	2730	739	7.7	1.9	223	13
2023-08-12T12:00	2756	736	7.4	1.7	222	13
2023-08-12T12:00	2781	734	7.2	1.7	222	13
2023-08-12T12:00	2804	732	7.0	1.7	221	13
2023-08-12T12:00	2832	730	6.8	1.4	222	12
2023-08-12T12:00	2855	727	6.6	1.2	223	12
2023-08-12T12:00	2877	725	6.3	0.9	225	12
2023-08-12T12:00	2902	723	6.2	0.7	227	12
2023-08-12T12:00	2925	721	6.0	0.4	228	13
2023-08-12T12:00	2958	718	5.6	0.3	228	13
2023-08-12T12:00	2984	716	5.4	0.6	227	13
2023-08-12T12:00	3008	714	5.2	-0.1	225	12
2023-08-12T12:00	3035	712	4.9	-0.3	223	12
2023-08-12T12:00	3060	710	4.7	-0.3	220	12
2023-08-12T12:00	3083	707	4.5	-0.4	217	12
2023-08-12T12:00	3113	705	4.3	-0.7	214	12
2023-08-12T12:00	3142	703	4.1	0.1	212	12
2023-08-12T12:00	3164	701	3.9	0.8	211	12
2023-08-12T12:00	3185	699	3.7	0.4	212	12
2023-08-12T12:00	3210	697	3.5	0.6	213	11
2023-08-12T12:00	3231	695	3.3	0.8	215	11
2023-08-12T12:00	3255	693	3.0	0.9	215	11
2023-08-12T12:00	3283	690	2.8	1.0	214	11
2023-08-12T12:00	3306	688	2.6	1.4	212	11
2023-08-12T12:00	3328	686	2.4	0.5	210	10
2023-08-12T12:00	3350	685	2.3	0.7	209	10
2023-08-12T12:00	3371	683	2.2	0.3	209	10
2023-08-12T12:00	3396	681	2.1	-0.1	211	10
2023-08-12T12:00	3418	679	2.0	-0.1	213	10
2023-08-12T12:00	3437	677	1.8	-0.2	215	10
2023-08-12T12:00	3466	675	1.6	-0.3	214	10
2023-08-12T12:00	3485	673	1.5	-0.3	213	10
2023-08-12T12:00	3515	671	1.3	-0.8	211	10
2023-08-12T12:00	3538	669	1.2	-1.0	210	10
2023-08-12T12:00	3560	667	1.1	-1.1	212	10
2023-08-12T12:00	3580	665	0.9		215	10
2023-08-12T12:00	3606	663	0.7	-1.3	219	10
2023-08-12T12:00	3626	662	0.6	-1.3	221	10
2023-08-12T12:00	3645	660	0.4	-1.6	221	11
2023-08-12T12:00	3664	658	0.3	-1.8	219	11
2023-08-12T12:00	3694	656	0.1	-1.9	216	11
2023-08-12T12:00	3723	654	-0.1	-2.2	212	12
2023-08-12T12:00	3746	652	-0.3	-2.3	208	12
2023-08-12T12:00	3766	650	-0.5	-2.4	203	11
2023-08-12T12:00	3796	648	-0.8	-2.5	198	11
2023-08-12T12:00	3825	645	-0.9	-3.4	193	11
2023-08-12T12:00	3846	644	-0.9	-4.1	190	11
2023-08-12T12:00	3870	642	-1.1	-4.2	190	11
2023-08-12T12:00	3893	640	-1.2	-4.7	192	10
2023-08-12T12:00	3922	638	-1.3	-4.8	196	10
2023-08-12T12:00	3945	636	-1.4	-4.6	198	10
2023-08-12T12:00	3969	634	-1.3	-4.6	199	10
2023-08-12T12:00	3989	632	-1.5	-4.6	199	10
2023-08-12T12:00	4010	631	-1.6	-4.6	200	10
2023-08-12T12:00	4038	628	-1.8	-4.4	202	11
2023-08-12T12:00	4066	626	-1.9	-4.5	206	11
2023-08-12T12:00	4089	624	-2.0	-4.4	210	12
2023-08-12T12:00	4117	622	-2.2	-4.2	215	13
2023-08-12T12:00	4141	620	-2.4	-3.9	219	13
2023-08-12T12:00	4163	619	-2.6	-3.9	221	13
2023-08-12T12:00	4184	617	-2.7	-4.0	223	13
2023-08-12T12:00	4206	615	-2.9	-3.8	224	12
2023-08-12T12:00	4235	613	-3.1	-3.8	223	12
2023-08-12T12:00	4260	611	-3.3	-3.8	222	12
2023-08-12T12:00	4289	609	-3.3	-3.5	220	12
2023-08-12T12:00	4317	607	-3.3	-3.7	219	13
2023-08-12T12:00	4338	605	-3.1	-3.9	219	13
2023-08-12T12:00	4361	603	-2.8	-3.6	221	13
2023-08-12T12:00	4386	601	-2.9	-3.6	226	13
2023-08-12T12:00	4413	599	-3.1	-3.6	231	12
2023-08-12T12:00	4447	597	-2.8	-3.5	236	11
2023-08-12T12:00	4470	595	-2.9	-3.4	241	11
2023-08-12T12:00	4487	594	-2.8	-3.3	244	10
2023-08-12T12:00	4511	592	-3.0	-3.4	247	11
2023-08-12T12:00	4546	590	-3.2	-3.4	250	11
2023-08-12T12:00	4566	588	-3.2		254	11
2023-08-12T12:00	4583	586	-3.2	-3.4	257	11
2023-08-12T12:00	4619	584	-3.2	-3.5	259	11
2023-08-12T12:00	4647	582	-3.3	-3.6	259	11
2023-08-12T12:00	4680	580	-3.5	-3.9	259	11
2023-08-12T12:00	4706	578	-3.6	-4.0	258	12
2023-08-12T12:00	4724	576	-3.7	-4.0	257	12
2023-08-12T12:00	4744	575	-3.9	-4.2	257	13
2023-08-12T12:00	4768	573	-4.0	-4.2	257	13
2023-08-12T12:00	4797	571	-4.2	-4.4	256	13
2023-08-12T12:00	4820	569	-4.2	-4.4	256	13
2023-08-12T12:00	4848	567	-4.2	-4.6	255	13
2023-08-12T12:00	4877	565	-4.4	-4.8	254	13
2023-08-12T12:00	4901	564	-4.6	-4.8	254	13
2023-08-12T12:00	4923	562	-4.7	-4.9	255	13
2023-08-12T12:00	4950	560	-4.9	-4.9	255	14
2023-08-12T12:00	4975	558	-5.2	-5.2	255	14
2023-08-12T12:00	5005	556	-5.4	-5.4	254	14
2023-08-12T12:00	5041	554	-5.5	-5.5	254	14
2023-08-12T12:00	5065	552	-5.7	-5.7	253	15
2023-08-12T12:00	5082	551	-5.8	-5.8	253	15
2023-08-12T12:00	5103	549	-5.8	-5.8	254	15
2023-08-12T12:00	5126	547	-5.9	-5.9	255	15
2023-08-12T12:00	5162	545	-6.1	-6.2	257	14
2023-08-12T12:00	5191	543	-6.2	-6.4	259	14
2023-08-12T12:00	5220	541	-6.3	-6.5	259	14
2023-08-12T12:00	5245	539	-6.4	-6.8	258	13
2023-08-12T12:00	5266	538	-6.6	-6.8	257	13
2023-08-12T12:00	5293	536	-6.8	-6.9	257	12
2023-08-12T12:00	5326	534	-7.1	-7.2	258	13
2023-08-12T12:00	5354	532	-7.3	-7.4	260	13
2023-08-12T12:00	5384	530	-7.4	-7.7	262	13
2023-08-12T12:00	5406	528	-7.6	-7.8	263	13
2023-08-12T12:00	5429	527	-7.7	-7.7	262	14
2023-08-12T12:00	5457	525	-7.9	-7.9	260	14
2023-08-12T12:00	5483	523	-8.0	-8.0	258	14
2023-08-12T12:00	5507	522	-8.1	-8.1	256	14
2023-08-12T12:00	5529	520	-8.2	-8.2	255	14
2023-08-12T12:00	5551	519	-8.4	-8.4	255	13
2023-08-12T12:00	5576	517	-8.5	-8.5	257	13
2023-08-12T12:00	5599	515	-8.7	-8.7	258	13
2023-08-12T12:00	5629	514	-8.9	-8.9	260	13
2023-08-12T12:00	5650	512	-9.0	-9.2	259	13
2023-08-12T12:00	5675	510	-9.2	-9.6	257	13
2023-08-12T12:00	5701	509	-9.3	-9.8	254	13
2023-08-12T12:00	5727	507	-9.4	-9.8	251	13
2023-08-12T12:00	5757	505	-9.6	-9.9	248	14
2023-08-12T12:00	5779	504	-9.7	-9.9	246	14
2023-08-12T12:00	5799	502	-9.8	-10.1	247	14
2023-08-12T12:00	5823	501	-10.0	-10.3	249	14
2023-08-12T12:00	5852	499	-10.1	-10.6	251	14
2023-08-12T12:00	5882	497	-10.2	-10.8	254	14
2023-08-12T12:00	5905	495	-10.4	-10.9	256	14
2023-08-12T12:00	5928	494	-10.5	-11.1	257	14
2023-08-12T12:00	5952	492	-10.7	-11.4	257	14
2023-08-12T12:00	5975	491	-10.8	-11.6	257	13
2023-08-12T12:00	6000	489	-10.9	-11.6	257	13
2023-08-12T12:00	6021	488	-11.0	-11.7	258	13
2023-08-12T12:00	6046	486	-11.2	-12.0	257	13
2023-08-12T12:00	6070	485	-11.3	-12.1	257	13
2023-08-12T12:00	6091	484	-11.5	-12.3	256	13
2023-08-12T12:00	6116	482	-11.6	-12.3	256	13
2023-08-12T12:00	6144	480	-11.8	-12.5	255	12
2023-08-12T12:00	6168	479	-11.8	-12.5	255	12
2023-08-12T12:00	6191	477	-11.9	-12.7	256	12
2023-08-12T12:00	6216	476	-12.0	-12.8	257	12
2023-08-12T12:00	6241	474	-12.1	-12.9	257	13
2023-08-12T12:00	6264	473	-12.3	-13.2	256	13
2023-08-12T12:00	6283	472	-12.4	-13.3	255	13
2023-08-12T12:00	6306	470	-12.5	-13.4	253	13
2023-08-12T12:00	6331	469	-12.6	-13.5	251	12
2023-08-12T12:00	6356	467	-12.7	-13.7	249	11
2023-08-12T12:00	6377	466	-12.8	-13.8	249	10
2023-08-12T12:00	6399	465	-13.0	-13.9	248	10
2023-08-12T12:00	6421	463	-13.1	-14.0	246	10
2023-08-12T12:00	6447	462	-13.3	-14.2	244	11
2023-08-12T12:00	6469	460	-13.4	-14.3	242	11
2023-08-12T12:00	6493	459	-13.5	-14.6	240	12
2023-08-12T12:00	6520	457	-13.7	-14.7	240	12
2023-08-12T12:00	6543	456	-13.8	-14.7	240	13
2023-08-12T12:00	6570	454	-13.9	-14.9	241	13
2023-08-12T12:00	6594	453	-14.1		241	13
2023-08-12T12:00	6620	451	-14.2	-15.1	240	13
2023-08-12T12:00	6642	450	-14.4	-15.3	240	12
2023-08-12T12:00	6665	449	-14.5	-15.4	240	12
2023-08-12T12:00	6689	447	-14.8	-16.1	240	12
2023-08-12T12:00	6712	446	-14.9	-16.1	241	13
2023-08-12T12:00	6736	444	-15.1	-16.3	242	13
2023-08-12T12:00	6758	443	-15.3	-16.7	242	13
2023-08-12T12:00	6787	441	-15.4	-16.6	241	13
2023-08-12T12:00	6820	440	-15.6	-16.8	240	13
2023-08-12T12:00	6846	438	-15.8	-17.0	239	13
2023-08-12T12:00	6868	437	-16.0		238	13
2023-08-12T12:00	6889	435	-16.2	-17.5	237	13
2023-08-12T12:00	6916	434	-16.4	-17.6	236	13
2023-08-12T12:00	6945	432	-16.5	-17.8	237	13
2023-08-12T12:00	6970	431	-16.7	-17.9	238	13
2023-08-12T12:00	6996	429	-16.9	-18.1	239	13
2023-08-12T12:00	7020	428	-17.1	-18.4	240	13
2023-08-12T12:00	7044	427	-17.3	-18.5	241	13
2023-08-12T12:00	7068	425	-17.5	-18.9	241	13
2023-08-12T12:00	7095	424	-17.7	-19.3	241	13
2023-08-12T12:00	7123	422	-17.9	-19.3	241	12
2023-08-12T12:00	7147	421	-18.1	-19.4	240	12
2023-08-12T12:00	7173	419	-18.3	-19.8	239	13
2023-08-12T12:00	7199	418	-18.5	-20.0	237	13
2023-08-12T12:00	7230	416	-18.7	-20.2	236	14
2023-08-12T12:00	7254	415	-18.8	-20.3	234	14
2023-08-12T12:00	7277	414	-19.0	-20.6	234	15
2023-08-12T12:00	7300	412	-19.2	-20.7	233	16
2023-08-12T12:00	7321	411	-19.3	-20.8	233	16
2023-08-12T12:00	7346	410	-19.5	-20.9	232	16
2023-08-12T12:00	7375	408	-19.7	-21.0	231	15
2023-08-12T12:00	7404	406	-19.8	-21.1	230	15
2023-08-12T12:00	7433	405	-20.0	-21.3	230	14
2023-08-12T12:00	7458	403	-20.2	-21.5	229	14
2023-08-12T12:00	7487	402	-20.4	-21.6	229	14
2023-08-12T12:00	7514	400	-20.6	-21.9	229	14
2023-08-12T12:00	7544	399	-20.8	-22.1	228	14
2023-08-12T12:00	7574	397	-21.0	-22.3	228	14
2023-08-12T12:00	7604	396	-21.2	-22.5	227	14
2023-08-12T12:00	7630	394	-21.4	-22.8	226	14
2023-08-12T12:00	7663	392	-21.6	-22.9	225	14
2023-08-12T12:00	7695	391	-21.8	-23.3	226	15
2023-08-12T12:00	7723	389	-22.0	-23.2	226	15
2023-08-12T12:00	7755	388	-22.2	-23.5	228	15
2023-08-12T12:00	7782	386	-22.4	-23.7	229	15
2023-08-12T12:00	7815	385	-22.6	-23.9	230	16
2023-08-12T12:00	7846	383	-22.8	-24.1	230	16
2023-08-12T12:00	7874	381	-23.0	-24.3	230	16
2023-08-12T12:00	7903	380	-23.2	-24.4	230	16
2023-08-12T12:00	7933	378	-23.4	-24.6	229	16
2023-08-12T12:00	7963	377	-23.6	-24.8	228	16
2023-08-12T12:00	7993	375	-23.8	-24.9	227	16
2023-08-12T12:00	8023	374	-24.0	-25.2	226	16
2023-08-12T12:00	8049	372	-24.2	-25.3	226	16
2023-08-12T12:00	8079	371	-24.5	-25.9	226	16
2023-08-12T12:00	8110	369	-24.7	-26.1	227	15
2023-08-12T12:00	8148	367	-25.0	-26.5	229	15
2023-08-12T12:00	8179	366	-25.2	-26.9	230	15
2023-08-12T12:00	8208	364	-25.4	-27.1	231	15
2023-08-12T12:00	8240	363	-25.7	-27.2	232	15
2023-08-12T12:00	8268	361	-25.9	-27.6	234	15
2023-08-12T12:00	8297	360	-26.1	-27.7	235	15
2023-08-12T12:00	8331	358	-26.4	-28.1	236	15
2023-08-12T12:00	8370	356	-26.7	-28.4	236	15
2023-08-12T12:00	8399	355	-26.9	-28.7	236	15
2023-08-12T12:00	8425	353	-27.2	-28.8	235	15
2023-08-12T12:00	8462	352	-27.5	-29.0	234	15
2023-08-12T12:00	8489	350	-27.7	-29.4	233	16
2023-08-12T12:00	8518	349	-27.9	-29.6	234	16
2023-08-12T12:00	8553	347	-28.2	-29.8	236	16
2023-08-12T12:00	8590	345	-28.5	-30.2	237	15
2023-08-12T12:00	8628	344	-28.7	-30.4	238	15
2023-08-12T12:00	8661	342	-29.0	-30.6	238	15
2023-08-12T12:00	8700	340	-29.3	-30.9	237	15
2023-08-12T12:00	8733	339	-29.6	-31.2	235	16
2023-08-12T12:00	8766	337	-29.8	-31.6	232	16
2023-08-12T12:00	8803	335	-30.1		229	16
2023-08-12T12:00	8833	334	-30.4	-32.2	228	16
2023-08-12T12:00	8854	333	-30.5	-32.2	227	16
2023-08-12T12:00	8880	332	-30.8	-32.4	227	16
2023-08-12T12:00	8912	330	-31.0	-32.4	228	16
2023-08-12T12:00	8946	329	-31.4	-32.8	228	16
2023-08-12T12:00	8977	327	-31.6	-33.2	228	17
2023-08-12T12:00	9009	326	-31.9	-33.3	228	17
2023-08-12T12:00	9043	324	-32.1	-34.1	228	18
2023-08-12T12:00	9068	323	-32.3	-34.2	228	18
2023-08-12T12:00	9093	322	-32.5	-34.3	229	19
2023-08-12T12:00	9123	321	-32.8	-34.5	229	19
2023-08-12T12:00	9159	319	-33.1	-35.4	229	18
2023-08-12T12:00	9195	317	-33.4	-35.8	230	18
2023-08-12T12:00	9234	316	-33.7	-36.2	231	17
2023-08-12T12:00	9269	314	-34.0	-36.6	232	17
2023-08-12T12:00	9298	313	-34.3	-36.6	234	16
2023-08-12T12:00	9337	311	-34.6	-36.8	235	16
2023-08-12T12:00	9373	309	-34.9	-37.7	235	16
2023-08-12T12:00	9400	308	-35.1	-37.7	234	16
2023-08-12T12:00	9430	307	-35.4	-37.8	234	16
2023-08-12T12:00	9464	305	-35.7	-38.1	233	16
2023-08-12T12:00	9488	304	-35.9	-38.3	233	16
2023-08-12T12:00	9518	303	-36.2	-39.0	233	16
2023-08-12T12:00	9546	302	-36.4	-39.0	234	16
2023-08-12T12:00	9577	300	-36.7	-39.3	235	16
2023-08-12T12:00	9614	299	-37.0	-40.2	236	16
2023-08-12T12:00	9640	298	-37.3	-40.2	236	16
2023-08-12T12:00	9674	296	-37.6	-40.5	235	16
2023-08-12T12:00	9700	295	-37.9	-40.7	233	16
2023-08-12T12:00	9736	294	-38.2	-41.8	232	16
2023-08-12T12:00	9762	292	-38.4	-41.8	231	16
2023-08-12T12:00	9790	291	-38.7	-42.0	232	16
2023-08-12T12:00	9821	290	-39.0	-42.2	233	15
2023-08-12T12:00	9843	289	-39.2	-42.6	235	15
2023-08-12T12:00	9869	288	-39.4	-42.5	236	14
2023-08-12T12:00	9895	287	-39.7	-42.7	236	14
2023-08-12T12:00	9922	286	-39.9	-42.9	235	14
2023-08-12T12:00	9953	284	-40.3	-43.6	234	14
2023-08-12T12:00	9989	283	-40.6	-43.8	234	15
2023-08-12T12:00	10015	282	-40.8	-43.9	233	15
2023-08-12T12:00	10041	281	-41.0	-43.8	234	15
2023-08-12T12:00	10068	280	-41.3	-44.0	235	16
2023-08-12T12:00	10099	278	-41.6	-44.0	236	16
2023-08-12T12:00	10127	277	-41.9	-44.2	237	16
2023-08-12T12:00	10160	276	-42.2	-44.7	237	16
2023-08-12T12:00	10189	275	-42.4	-44.7	237	16
2023-08-12T12:00	10217	274	-42.7	-44.8	235	16
2023-08-12T12:00	10247	272	-42.9	-45.0	233	16
2023-08-12T12:00	10271	271	-43.1	-45.0	232	16
2023-08-12T12:00	10298	270	-43.3	-45.2	230	17
2023-08-12T12:00	10328	269	-43.5	-46.3	230	18
2023-08-12T12:00	10354	268	-43.6	-49.2	230	18
2023-08-12T12:00	10386	267	-43.6	-52.8	231	19
2023-08-12T12:00	10417	266	-43.7	-54.5	232	20
2023-08-12T12:00	10446	264	-43.9	-54.6	232	20
2023-08-12T12:00	10474	263	-44.0	-53.7	233	21
2023-08-12T12:00	10497	262	-44.1	-53.4	234	21
2023-08-12T12:00	10522	261	-44.3	-53.1	234	22
2023-08-12T12:00	10554	260	-44.5	-52.0	235	22
2023-08-12T12:00	10586	259	-44.7	-51.4	235	23
2023-08-12T12:00	10624	258	-45.0	-51.5	236	23
2023-08-12T12:00	10658	256	-45.3	-51.1	236	24
2023-08-12T12:00	10686	255	-45.5	-50.3	236	24
2023-08-12T12:00	10717	254	-45.8	-50.4	236	24
2023-08-12T12:00	10747	253	-46.1	-50.5	236	24
2023-08-12T12:00	10778	252	-46.3	-50.6	236	23
2023-08-12T12:00	10807	250	-46.6	-50.9	237	23
2023-08-12T12:00	10835	249	-46.9	-51.7	237	23
2023-08-12T12:00	10863	248	-47.1	-53.1	238	23
2023-08-12T12:00	10892	247	-47.3	-54.4	238	22
2023-08-12T12:00	10919	246	-47.5	-55.7	239	22
2023-08-12T12:00	10944	245	-47.7	-56.6	239	22
2023-08-12T12:00	10972	244	-47.8	-57.3	239	21
2023-08-12T12:00	10999	243	-48.0	-57.4	239	21
2023-08-12T12:00	11029	242	-48.3	-57.9	239	21
2023-08-12T12:00	11062	241	-48.5	-59.2	239	21
2023-08-12T12:00	11089	240	-48.6	-61.7	239	21
2023-08-12T12:00	11115	239	-48.8	-63.5	240	21
2023-08-12T12:00	11142	238	-49.0	-64.7	240	21
2023-08-12T12:00	11170	237	-49.2	-64.9	241	21
2023-08-12T12:00	11198	236	-49.3	-64.7	241	21
2023-08-12T12:00	11223	235	-49.4	-64.7	241	21
2023-08-12T12:00	11246	234	-49.6	-64.8	241	20
2023-08-12T12:00	11268	233	-49.7	-64.9	241	20
2023-08-12T12:00	11295	233	-49.9	-65.1	240	20
2023-08-12T12:00	11320	232	-50.0	-65.2	240	19
2023-08-12T12:00	11350	231	-50.2	-65.5	239	19
2023-08-12T12:00	11382	230	-50.4	-65.4	238	19
2023-08-12T12:00	11412	228	-50.6	-65.1	237	19
2023-08-12T12:00	11443	227	-50.9	-65.0	236	19
2023-08-12T12:00	11474	226	-51.0	-64.8	236	18
2023-08-12T12:00	11498	225	-51.2	-64.4	236	18
2023-08-12T12:00	11523	225	-51.3	-64.0	236	18
2023-08-12T12:00	11544	224	-51.5	-63.7	237	18
2023-08-12T12:00	11566	223	-51.7	-63.5	237	19
2023-08-12T12:00	11589	222	-51.9	-63.4	238	19
2023-08-12T12:00	11610	222	-52.0		237	19
2023-08-12T12:00	11631	221	-52.2	-63.5	237	19
2023-08-12T12:00	11653	220	-52.3	-63.7	236	19
2023-08-12T12:00	11671	219	-52.5	-63.7	236	19
2023-08-12T12:00	11693	219	-52.6	-63.7	235	19
2023-08-12T12:00	11715	218	-52.7	-63.7	236	19
2023-08-12T12:00	11735	217	-52.9	-63.9	236	19
2023-08-12T12:00	11754	217	-53.0	-64.0	237	18
2023-08-12T12:00	11776	216	-53.1	-64.1	237	18
2023-08-12T12:00	11794	215	-53.3	-64.3	237	18
2023-08-12T12:00	11816	215	-53.5	-64.5	237	18
2023-08-12T12:00	11835	214	-53.6	-64.6	236	18
2023-08-12T12:00	11854	213	-53.6	-64.6	236	18
2023-08-12T12:00	11875	213	-53.8	-64.7	236	19
2023-08-12T12:00	11894	212	-54.0	-64.8	236	19
2023-08-12T12:00	11915	211	-54.1	-64.8	237	19
2023-08-12T12:00	11934	211	-54.2	-64.8	238	19
2023-08-12T12:00	11956	210	-54.3	-64.9	238	19
2023-08-12T12:00	11977	209	-54.4	-65.0	239	19
2023-08-12T12:00	11995	209	-54.6		239	19
2023-08-12T12:00	12015	208	-54.6	-65.4	239	19
2023-08-12T12:00	12036	207	-54.6	-65.6	239	19
2023-08-12T12:00	12057	207	-54.7	-65.8	240	19
2023-08-12T12:00	12079	206	-54.8	-66.0	240	19
2023-08-12T12:00	12098	205	-54.9	-66.0	240	19
2023-08-12T12:00	12119	205	-55.1	-66.1	240	19
2023-08-12T12:00	12141	204	-55.2	-66.2	240	19
2023-08-12T12:00	12161	203	-55.2	-66.3	240	18
2023-08-12T12:00	12182	203	-55.3	-66.6	240	18
2023-08-12T12:00	12202	202	-55.3	-66.8	240	18
2023-08-12T12:00	12224	201	-55.4	-67.1	241	18
2023-08-12T12:00	12245	201	-55.5	-67.4	241	17
2023-08-12T12:00	12264	200	-55.7	-67.9	241	17
2023-08-12T12:00	12287	199	-55.7	-68.3	241	16
2023-08-12T12:00	12308	199	-55.7	-68.8	240	16
2023-08-12T12:00	12331	198	-55.7	-69.2	240	16
2023-08-12T12:00	12353	197	-55.7	-69.5	239	15
2023-08-12T12:00	12379	197	-55.0	-69.2	239	15
2023-08-12T12:00	12398	196	-55.0	-69.3	238	15
2023-08-12T12:00	12418	195	-55.2	-69.4	237	15
2023-08-12T12:00	12438	195	-55.3	-69.4	236	15
2023-08-12T12:00	12461	194	-55.4	-69.3	235	15
2023-08-12T12:00	12482	193	-55.5	-69.3	234	15
2023-08-12T12:00	12499	193	-55.7	-69.3	233	15
2023-08-12T12:00	12519	192	-55.8	-69.2	234	15
2023-08-12T12:00	12541	192	-56.0	-69.3	234	16
2023-08-12T12:00	12561	191	-56.0	-69.3	235	16
2023-08-12T12:00	12581	190	-55.7	-69.3	237	16
2023-08-12T12:00	12602	190	-55.4	-69.3	239	17
2023-08-12T12:00	12621	189	-55.4	-69.4	241	17
2023-08-12T12:00	12641	189	-55.5	-69.5	243	17
2023-08-12T12:00	12661	188	-55.5	-69.5	245	17
2023-08-12T12:00	12682	187	-55.5	-69.4	246	17
2023-08-12T12:00	12701	187	-55.4	-69.4	247	18
2023-08-12T12:00	12722	186	-55.5	-69.5	249	18
2023-08-12T12:00	12741	186	-55.6	-69.6	250	18
2023-08-12T12:00	12761	185	-55.6	-69.6	251	18
2023-08-12T12:00	12781	184	-55.7	-69.9	252	17
2023-08-12T12:00	12805	184	-55.6	-70.2	252	17
2023-08-12T12:00	12830	183	-55.3	-70.5	252	16
2023-08-12T12:00	12856	182	-55.2	-70.9	252	15
2023-08-12T12:00	12879	182	-55.2	-71.3	250	14
2023-08-12T12:00	12905	181	-55.2	-71.6	248	13
2023-08-12T12:00	12929	180	-55.2	-71.9	246	13
2023-08-12T12:00	12953	180	-55.4	-72.2	244	13
2023-08-12T12:00	12973	179	-55.6	-72.3	243	13
2023-08-12T12:00	12994	178	-55.7	-72.5	241	13
2023-08-12T12:00	13016	178	-55.9	-72.7	240	13
2023-08-12T12:00	13034	177	-56.1	-72.8	239	13
2023-08-12T12:00	13056	177	-56.3	-72.8	238	14
2023-08-12T12:00	13077	176	-56.4	-72.9	237	14
2023-08-12T12:00	13096	176	-56.5	-73.1	237	15
2023-08-12T12:00	13116	175	-56.5	-73.5	237	15
2023-08-12T12:00	13139	174	-56.2	-74.0	238	15
2023-08-12T12:00	13157	174	-55.6	-74.4	239	15
2023-08-12T12:00	13180	173	-55.5	-75.5	241	15
2023-08-12T12:00	13200	173	-55.2	-76.1	242	15
2023-08-12T12:00	13219	172	-54.7	-76.8	242	15
2023-08-12T12:00	13238	172	-54.2	-77.2	241	15
2023-08-12T12:00	13260	171	-53.8	-77.4	240	15
2023-08-12T12:00	13283	171	-53.8	-77.4	237	14
2023-08-12T12:00	13301	170	-53.6	-77.5	234	14
2023-08-12T12:00	13322	169	-53.5	-77.6	231	13
2023-08-12T12:00	13341	169	-53.4	-77.7	228	12
2023-08-12T12:00	13361	168	-53.5	-78.0	225	12
2023-08-12T12:00	13380	168	-53.4	-78.1	223	11
2023-08-12T12:00	13403	167	-53.1	-77.9	222	11
2023-08-12T12:00	13423	167	-52.6	-77.7	223	11
2023-08-12T12:00	13445	166	-51.9	-77.4	224	11
2023-08-12T12:00	13466	166	-51.8	-77.5	225	11
2023-08-12T12:00	13486	165	-51.9	-77.6	226	11
2023-08-12T12:00	13509	165	-52.1	-77.5	226	11
2023-08-12T12:00	13529	164	-52.2	-77.4	226	11
2023-08-12T12:00	13552	164	-52.4	-77.5	225	12
2023-08-12T12:00	13573	163	-52.6	-77.7	223	12
2023-08-12T12:00	13593	163	-52.7	-77.8	222	12
2023-08-12T12:00	13614	162	-52.9	-77.9	220	12
2023-08-12T12:00	13636	161	-53.1	-78.1	217	12
2023-08-12T12:00	13656	161	-53.2	-78.2	215	12
2023-08-12T12:00	13679	160	-53.4	-78.1	213	12
2023-08-12T12:00	13697	160	-53.6	-78.3	212	12
2023-08-12T12:00	13720	159	-53.7	-78.1	211	12
2023-08-12T12:00	13741	159	-53.8	-78.2	211	12
2023-08-12T12:00	13759	158	-54.0	-78.4	211	13
2023-08-12T12:00	13783	158	-54.1	-78.5	212	13
2023-08-12T12:00	13805	157	-54.3	-78.6	214	14
2023-08-12T12:00	13826	157	-54.4	-78.7	215	14
2023-08-12T12:00	13847	156	-54.4	-78.7	217	14
2023-08-12T12:00	13867	156	-54.3	-78.6	219	15
2023-08-12T12:00	13888	155	-54.3	-78.6	220	15
2023-08-12T12:00	13909	155	-54.4	-78.5	221	15
2023-08-12T12:00	13929	154	-54.6	-78.6	222	15
2023-08-12T12:00	13953	154	-54.8	-78.6	224	15
2023-08-12T12:00	13979	153	-55.0	-78.6	225	15
2023-08-12T12:00	14000	153	-55.2	-78.7	226	15
2023-08-12T12:00	14025	152	-55.4	-78.7	228	15
2023-08-12T12:00	14048	151	-55.5	-78.8	230	15
2023-08-12T12:00	14066	151	-55.7	-78.8	231	14
2023-08-12T12:00	14089	150	-55.8	-78.9	233	14
2023-08-12T12:00	14111	150	-55.8	-78.9	235	13
2023-08-12T12:00	14132	149	-55.7	-79.0	237	13
2023-08-12T12:00	14153	149	-55.8	-79.0	240	13
2023-08-12T12:00	14176	148	-55.9	-79.3	243	13
2023-08-12T12:00	14196	148	-56.0	-79.4	246	13
2023-08-12T12:00	14216	147	-56.0	-79.6	248	13
2023-08-12T12:00	14236	147	-55.9	-79.5	250	13
2023-08-12T12:00	14257	147	-56.0	-79.8	252	12
2023-08-12T12:00	14278	146	-55.9	-79.7	253	12
2023-08-12T12:00	14301	146	-55.9	-79.7	253	11
2023-08-12T12:00	14323	145	-56.0	-80.0	253	10
2023-08-12T12:00	14345	144	-56.0	-80.0	253	9
2023-08-12T12:00	14365	144	-56.0	-80.0	252	8
2023-08-12T12:00	14384	144	-55.9	-80.1	250	7
2023-08-12T12:00	14407	143	-55.8	-80.0	248	7
2023-08-12T12:00	14428	143	-55.5	-80.0	245	6
2023-08-12T12:00	14446	142	-55.5	-80.2	241	6
2023-08-12T12:00	14469	142	-55.4	-80.1	236	6
2023-08-12T12:00	14489	141	-55.3	-80.0	231	6
2023-08-12T12:00	14508	141	-55.2	-80.0	226	6
2023-08-12T12:00	14529	140	-55.1		221	6
2023-08-12T12:00	14552	140	-55.1		218	6
2023-08-12T12:00	14574	139	-55.2	-79.7	217	7
2023-08-12T12:00	14596	139	-55.3	-79.6	218	7
2023-08-12T12:00	14614	139	-55.4	-79.5	220	7
2023-08-12T12:00	14634	138	-55.5	-79.4	222	8
2023-08-12T12:00	14655	138	-55.6	-79.1	224	8
2023-08-12T12:00	14674	137	-55.7	-78.8	225	8
2023-08-12T12:00	14697	137	-55.7	-78.6	223	7
2023-08-12T12:00	14720	136	-55.5	-78.3	220	7
2023-08-12T12:00	14742	136	-55.4	-78.2	215	6
2023-08-12T12:00	14762	135	-55.6	-78.7	209	6
2023-08-12T12:00	14782	135	-55.6	-79.1	204	7
2023-08-12T12:00	14804	134	-55.4	-79.3	201	7
2023-08-12T12:00	14827	134	-55.2	-79.7	199	7
2023-08-12T12:00	14846	134	-55.2	-80.2	199	8
2023-08-12T12:00	14869	133	-55.2	-80.4	198	9
2023-08-12T12:00	14891	133	-55.2	-80.4	198	9
2023-08-12T12:00	14912	132	-55.2	-80.4	199	9
2023-08-12T12:00	14934	132	-55.2	-80.4	201	10
2023-08-12T12:00	14957	131	-55.4	-80.6	203	10
2023-08-12T12:00	14979	131	-55.4	-80.6	206	10
2023-08-12T12:00	15000	130	-55.5	-80.7	209	10
2023-08-12T12:00	15022	130	-55.6	-80.8	213	10
2023-08-12T12:00	15046	129	-55.6	-80.8	217	10
2023-08-12T12:00	15068	129	-55.6	-80.8	221	10
2023-08-12T12:00	15091	129	-55.7	-80.8	225	10
2023-08-12T12:00	15115	128	-55.8	-80.9	228	10
2023-08-12T12:00	15135	128	-55.9	-80.7	230	10
2023-08-12T12:00	15155	127	-55.8	-80.9	231	10
2023-08-12T12:00	15175	127	-55.6	-80.8	232	10
2023-08-12T12:00	15197	126	-55.7	-80.8	231	10
2023-08-12T12:00	15216	126	-55.7	-80.8	229	10
2023-08-12T12:00	15239	126	-55.8	-80.9	227	9
2023-08-12T12:00	15261	125	-55.9	-81.0	225	9
2023-08-12T12:00	15285	125	-55.9	-81.0	222	9
2023-08-12T12:00	15304	124	-55.9	-80.7	219	9
2023-08-12T12:00	15328	124	-56.1	-80.9	217	9
2023-08-12T12:00	15351	123	-56.3	-81.1	215	9
2023-08-12T12:00	15371	123	-56.5	-81.2	215	9
2023-08-12T12:00	15391	123	-56.6	-81.3	215	10
2023-08-12T12:00	15415	122	-56.8	-81.2	216	10
2023-08-12T12:00	15435	122	-56.8	-81.5	218	10
2023-08-12T12:00	15458	121	-56.8	-81.5	221	11
2023-08-12T12:00	15480	121	-56.8	-81.5	224	11
2023-08-12T12:00	15500	121	-56.8	-81.5	227	11
2023-08-12T12:00	15523	120	-56.9	-81.8	230	11
2023-08-12T12:00	15546	120	-56.9	-81.8	233	11
2023-08-12T12:00	15564	119	-56.9	-81.8	236	10
2023-08-12T12:00	15586	119	-57.0	-81.8	239	10
2023-08-12T12:00	15607	118	-56.8	-81.7	241	10
2023-08-12T12:00	15630	118	-56.7	-81.6	242	10
2023-08-12T12:00	15653	118	-56.7	-81.9	243	10
2023-08-12T12:00	15673	117	-56.5	-81.7	242	10
2023-08-12T12:00	15695	117	-56.3	-81.5	242	10
2023-08-12T12:00	15715	116	-56.4	-81.6	241	10
2023-08-12T12:00	15739	116	-56.6	-81.8	240	11
2023-08-12T12:00	15760	116	-56.7	-81.9	238	11
2023-08-12T12:00	15785	115	-56.7	-81.9	236	11
2023-08-12T12:00	15802	115	-56.5	-81.7	235	11
2023-08-12T12:00	15823	115	-56.5	-81.7	233	11
2023-08-12T12:00	15847	114	-56.6	-81.8	232	10
2023-08-12T12:00	15868	114	-56.6	-81.8	232	10
2023-08-12T12:00	15891	113	-56.5	-81.7	232	10
2023-08-12T12:00	15913	113	-56.5	-81.7	234	10
2023-08-12T12:00	15936	113	-56.5	-81.7	236	10
2023-08-12T12:00	15958	112	-56.5	-81.7	238	9
2023-08-12T12:00	15978	112	-56.5	-81.7	240	9
2023-08-12T12:00	16002	111	-56.4	-81.9	241	8
2023-08-12T12:00	16024	111	-56.2	-81.7	242	8
2023-08-12T12:00	16045	111	-56.3	-81.8	242	7
2023-08-12T12:00	16068	110	-56.3	-81.8	241	7
2023-08-12T12:00	16091	110	-56.3	-81.8	239	7
2023-08-12T12:00	16111	109	-56.3	-81.8	237	6
2023-08-12T12:00	16134	109	-56.4	-81.9	234	6
2023-08-12T12:00	16155	109	-56.4	-81.9	232	6
2023-08-12T12:00	16178	108	-56.4	-81.9	229	6
2023-08-12T12:00	16199	108	-56.4	-81.9	226	6
2023-08-12T12:00	16221	108	-56.3	-82.1	223	6
2023-08-12T12:00	16239	107	-56.2	-82.0	219	6
2023-08-12T12:00	16264	107	-56.1	-81.9	216	6
2023-08-12T12:00	16282	107	-56.0	-82.1	213	6
2023-08-12T12:00	16306	106	-56.0	-82.1	211	7
2023-08-12T12:00	16328	106	-56.1	-82.2	210	7
2023-08-12T12:00	16349	105	-56.2	-82.0	211	8
2023-08-12T12:00	16369	105	-56.4	-82.1	212	8
2023-08-12T12:00	16393	105	-56.6	-82.3	214	9
2023-08-12T12:00	16413	104	-56.7	-82.4	216	9
2023-08-12T12:00	16434	104	-56.8	-82.5	218	9
2023-08-12T12:00	16455	104	-56.7	-82.7	220	9
2023-08-12T12:00	16476	103	-56.6	-82.6	220	9
2023-08-12T12:00	16498	103	-56.4	-82.7	219	8
2023-08-12T12:00	16519	103	-56.3	-82.9	218	8
2023-08-12T12:00	16540	102	-56.0	-82.7	217	7
2023-08-12T12:00	16564	102	-55.8	-82.9	215	7
2023-08-12T12:00	16586	102	-55.6	-82.7	213	6
2023-08-12T12:00	16605	101	-55.6	-82.7	211	6
2023-08-12T12:00	16628	101	-55.7	-82.8	207	5
2023-08-12T12:00	16648	101	-55.7	-82.8	202	5
2023-08-12T12:00	16670	100	-55.6	-82.7	198	5
2023-08-12T12:00	16691	100	-55.4	-82.6	194	6
2023-08-12T12:00	16717	100	-55.3	-82.5	193	6
2023-08-12T12:00	16735	99	-55.5	-82.6	193	7
2023-08-12T12:00	16756	99	-55.6	-82.7	195	7
2023-08-12T12:00	16779	99	-55.8	-82.5	196	7
2023-08-12T12:00	16803	98	-55.9	-82.6	198	7
2023-08-12T12:00	16824	98	-55.9	-82.6	200	6
2023-08-12T12:00	16845	97	-55.9	-82.9	200	6
2023-08-12T12:00	16870	97	-55.8	-82.9	198	6
2023-08-12T12:00	16888	97	-55.7	-83.1	195	6
2023-08-12T12:00	16913	96	-55.4	-82.9	192	6
2023-08-12T12:00	16934	96	-55.3	-82.8	189	6
2023-08-12T12:00	16960	96	-55.3	-82.8	188	5
2023-08-12T12:00	16981	95	-55.2	-82.7	187	5
2023-08-12T12:00	17005	95	-55.1	-82.7	186	5
2023-08-12T12:00	17029	95	-55.0	-82.6	185	4
2023-08-12T12:00	17049	94	-54.9	-82.5	183	4
2023-08-12T12:00	17073	94	-55.0	-82.6	178	4
2023-08-12T12:00	17099	94	-55.1	-82.7	172	4
2023-08-12T12:00	17124	93	-55.1	-82.7	166	4
2023-08-12T12:00	17144	93	-55.1	-82.7	161	5
2023-08-12T12:00	17166	93	-55.2	-82.4	159	5
2023-08-12T12:00	17190	92	-55.4	-82.6	158	6
2023-08-12T12:00	17212	92	-55.6	-82.4	159	6
2023-08-12T12:00	17239	92	-55.8	-82.5	161	7
2023-08-12T12:00	17256	91	-56.0	-82.7	164	7
2023-08-12T12:00	17279	91	-56.2	-82.9	168	7
2023-08-12T12:00	17303	91	-56.4	-83.0	171	7
2023-08-12T12:00	17326	90	-56.6	-82.9	173	7
2023-08-12T12:00	17348	90	-56.7	-82.9	174	7
2023-08-12T12:00	17370	90	-56.8	-83.0	174	7
2023-08-12T12:00	17389	90	-56.8	-83.0	174	7
2023-08-12T12:00	17415	89	-56.5	-83.1	174	7
2023-08-12T12:00	17436	89	-56.4	-83.0	174	7
2023-08-12T12:00	17459	89	-56.3	-83.3	176	7
2023-08-12T12:00	17483	88	-56.1	-83.1	179	8
2023-08-12T12:00	17504	88	-56.1	-83.4	182	9
2023-08-12T12:00	17527	88	-55.9	-83.3	185	9
2023-08-12T12:00	17549	87	-55.8	-83.2	189	9
2023-08-12T12:00	17575	87	-55.8	-82.9	192	10
2023-08-12T12:00	17595	87	-55.9	-82.9	196	10
2023-08-12T12:00	17622	86	-56.1	-83.1	199	10
2023-08-12T12:00	17642	86	-56.2	-83.2	202	10
2023-08-12T12:00	17663	86	-56.2	-83.2	206	10
2023-08-12T12:00	17684	85	-56.3	-83.3	210	10
2023-08-12T12:00	17708	85	-56.4	-83.3	213	10
2023-08-12T12:00	17731	85	-56.4	-83.3	217	10
2023-08-12T12:00	17751	85	-56.3	-83.3	219	10
2023-08-12T12:00	17775	84	-56.2	-83.5	220	9
2023-08-12T12:00	17797	84	-56.1	-83.4	219	8
2023-08-12T12:00	17820	84	-55.6	-83.1	216	8
2023-08-12T12:00	17843	83	-55.4	-83.3	211	7
2023-08-12T12:00	17868	83	-55.4	-83.3	206	6
2023-08-12T12:00	17889	83	-55.5		202	6
2023-08-12T12:00	17911	82	-55.4	-83.3	201	6
2023-08-12T12:00	17934	82	-55.4	-82.9	202	5
2023-08-12T12:00	17956	82	-55.4	-82.9	205	5
2023-08-12T12:00	17979	82	-55.3	-83.2	209	5
2023-08-12T12:00	18002	81	-55.4	-83.3	213	4
2023-08-12T12:00	18024	81	-55.2	-83.1	215	4
2023-08-12T12:00	18047	81	-54.8	-83.2	214	4
2023-08-12T12:00	18067	80	-54.4	-82.9	211	4
2023-08-12T12:00	18089	80	-54.1	-83.1	206	4
2023-08-12T12:00	18108	80	-53.8	-82.8	201	5
2023-08-12T12:00	18132	80	-53.5	-82.6	197	5
2023-08-12T12:00	18162	79	-53.4	-82.5	192	6
2023-08-12T12:00	18184	79	-53.6	-82.7	188	6
2023-08-12T12:00	18206	79	-53.8	-82.4	183	6
2023-08-12T12:00	18231	78	-54.1	-82.6	180	7
2023-08-12T12:00	18256	78	-54.3	-82.4	178	7
2023-08-12T12:00	18279	78	-54.5	-82.6	176	8
2023-08-12T12:00	18301	78	-54.6	-82.6	176	8
2023-08-12T12:00	18326	77	-54.6	-82.6	175	8
2023-08-12T12:00	18344	77	-54.6	-82.6	176	8
2023-08-12T12:00	18368	77	-54.7	-82.7	176	8
2023-08-12T12:00	18389	77	-54.8	-82.8	176	7
2023-08-12T12:00	18413	76	-54.8	-83.2	177	7
2023-08-12T12:00	18433	76	-54.8	-83.2	177	7
2023-08-12T12:00	18454	76	-54.6	-83.0	178	6
2023-08-12T12:00	18478	75	-54.1	-83.1	178	6
2023-08-12T12:00	18499	75	-53.8	-82.8	179	5
2023-08-12T12:00	18521	75	-53.9	-82.9	180	5
2023-08-12T12:00	18543	75	-53.9	-82.9	183	4
2023-08-12T12:00	18569	74	-53.9	-82.9	187	3
2023-08-12T12:00	18590	74	-53.8	-82.8	193	3
2023-08-12T12:00	18612	74	-53.7	-82.8	200	2
2023-08-12T12:00	18634	74	-53.8	-82.8	202	2
2023-08-12T12:00	18657	73	-53.7	-82.8	196	2
2023-08-12T12:00	18682	73	-53.6	-82.7	183	2
2023-08-12T12:00	18702	73	-53.6	-82.7	173	2
2023-08-12T12:00	18728	73	-53.6	-82.7	169	3
2023-08-12T12:00	18748	72	-53.5	-82.6	169	4
2023-08-12T12:00	18771	72	-53.5	-82.6	170	4
2023-08-12T12:00	18792	72	-53.6	-82.7	171	5
2023-08-12T12:00	18814	72	-53.7	-82.8	173	4
2023-08-12T12:00	18839	71	-53.8	-82.8	176	4
2023-08-12T12:00	18860	71	-53.7	-82.8	180	4
2023-08-12T12:00	18886	71	-53.7	-82.8	187	3
2023-08-12T12:00	18906	71	-53.7	-82.8	195	3
2023-08-12T12:00	18927	70	-53.8	-82.4	203	3
2023-08-12T12:00	18952	70	-53.9	-82.5	211	2
2023-08-12T12:00	18973	70	-54.0	-82.6	218	2
2023-08-12T12:00	18996	70	-54.0	-82.6	225	1
2023-08-12T12:00	19022	69	-53.9	-82.5	235	1
2023-08-12T12:00	19042	69	-54.0	-83.0	263	0
2023-08-12T12:00	19066	69	-54.0	-83.0	15	0
2023-08-12T12:00	19091	69	-54.0	-83.0	41	1
2023-08-12T12:00	19114	68	-53.9	-82.9	54	1
2023-08-12T12:00	19138	68	-53.9	-82.9	66	1
2023-08-12T12:00	19159	68	-53.9	-82.9	77	1
2023-08-12T12:00	19184	68	-53.9	-82.5	85	1
2023-08-12T12:00	19207	67	-54.0	-82.6	88	2
2023-08-12T12:00	19231	67	-54.1	-82.6	87	2
2023-08-12T12:00	19253	67	-54.3	-82.8	84	2
2023-08-12T12:00	19277	67	-54.5	-82.9	82	3
2023-08-12T12:00	19299	66	-54.6	-82.6	82	3
2023-08-12T12:00	19324	66	-54.7	-82.7	83	3
2023-08-12T12:00	19346	66	-54.8	-83.2	87	3
2023-08-12T12:00	19372	66	-54.9	-83.3	94	3
2023-08-12T12:00	19395	65	-54.8	-83.2	105	3
2023-08-12T12:00	19425	65	-55.0		120	2
2023-08-12T12:00	19439	65	-54.9	-83.3	137	2
2023-08-12T12:00	19469	65	-54.7	-83.1	152	2
2023-08-12T12:00	19492	64	-54.7	-83.1	160	3
2023-08-12T12:00	19513	64	-54.6	-83.4	163	3
2023-08-12T12:00	19534	64	-54.3	-83.2	165	4
2023-08-12T12:00	19561	64	-54.2	-83.1	165	4
2023-08-12T12:00	19581	64	-54.3	-83.2	166	5
2023-08-12T12:00	19605	63	-54.4	-83.3	167	5
2023-08-12T12:00	19632	63	-54.2	-83.1	167	6
2023-08-12T12:00	19652	63	-54.0	-83.0	168	6
2023-08-12T12:00	19679	63	-54.1	-83.1	168	6
2023-08-12T12:00	19699	62	-54.1	-83.1	169	6
2023-08-12T12:00	19725	62	-54.1	-83.1	169	6
2023-08-12T12:00	19748	62	-54.3	-82.8	170	6
2023-08-12T12:00	19774	62	-54.4	-82.9	170	5
2023-08-12T12:00	19799	61	-54.4	-82.9	169	5
2023-08-12T12:00	19820	61	-54.4	-82.9	169	5
2023-08-12T12:00	19849	61	-54.4	-82.9	168	5
2023-08-12T12:00	19870	61	-54.4	-82.9	167	5
2023-08-12T12:00	19893	61	-54.6	-83.0	167	5
2023-08-12T12:00	19919	60	-54.8	-83.2	165	5
2023-08-12T12:00	19942	60	-54.8	-83.2	164	5
2023-08-12T12:00	19963	60	-54.7	-83.1	161	5
2023-08-12T12:00	19990	60	-54.7	-83.1	159	5
2023-08-12T12:00	20016	59	-54.8	-83.2	157	5
2023-08-12T12:00	20039	59	-54.9	-83.3	156	5
2023-08-12T12:00	20058	59	-54.9	-83.3	156	5
2023-08-12T12:00	20083	59	-54.9	-83.3	156	5
2023-08-12T12:00	20107	59	-54.9	-83.3	156	5
2023-08-12T12:00	20133	58	-54.9	-83.3	158	5
2023-08-12T12:00	20152	58	-54.9	-83.3	161	5
2023-08-12T12:00	20179	58	-54.8	-83.6	164	5
2023-08-12T12:00	20200	58	-54.7	-83.5	169	5
2023-08-12T12:00	20223	57	-54.6	-83.0	174	5
2023-08-12T12:00	20251	57	-54.6	-83.0	178	6
2023-08-12T12:00	20276	57	-54.7	-83.1	183	6
2023-08-12T12:00	20295	57	-54.9	-83.3	186	7
2023-08-12T12:00	20324	57	-55.2	-83.5	188	7
2023-08-12T12:00	20347	56	-55.4	-83.3	189	8
2023-08-12T12:00	20372	56	-55.5		189	8
2023-08-12T12:00	20394	56	-55.6	-83.4	190	9
2023-08-12T12:00	20421	56	-55.5		191	9
2023-08-12T12:00	20443	56	-55.7	-83.9	192	8
2023-08-12T12:00	20465	55	-55.7	-83.9	194	8
2023-08-12T12:00	20494	55	-55.4	-83.6	197	7
2023-08-12T12:00	20513	55	-55.0	-83.7	200	6
2023-08-12T12:00	20538	55	-54.8	-83.6	202	6
2023-08-12T12:00	20564	55	-54.6	-83.4	203	5
2023-08-12T12:00	20581	54	-54.6	-83.4	203	5
2023-08-12T12:00	20607	54	-54.6	-83.4	203	5
2023-08-12T12:00	20629	54	-54.6	-83.4	202	5
2023-08-12T12:00	20655	54	-54.6	-83.4	200	5
2023-08-12T12:00	20679	54	-54.5	-83.4	196	5
2023-08-12T12:00	20701	53	-54.5	-83.4	191	6
2023-08-12T12:00	20727	53	-54.5	-82.9	188	6
2023-08-12T12:00	20752	53	-54.8	-83.2	185	6
2023-08-12T12:00	20772	53	-54.8	-83.6	184	6
2023-08-12T12:00	20797	53	-54.7	-83.5	185	6
2023-08-12T12:00	20823	52	-54.5	-83.4	187	6
2023-08-12T12:00	20848	52	-54.5	-82.9	189	5
2023-08-12T12:00	20871	52	-54.7	-83.1	191	5
2023-08-12T12:00	20896	52	-54.8	-83.2	193	5
2023-08-12T12:00	20920	52	-55.0		194	5
2023-08-12T12:00	20940	51	-55.0		195	5
2023-08-12T12:00	20969	51	-55.1	-83.4	196	5
2023-08-12T12:00	20990	51	-55.0		195	5
2023-08-12T12:00	21019	51	-54.9	-83.3	193	5
2023-08-12T12:00	21043	51	-54.9	-83.3	190	4
2023-08-12T12:00	21067	50	-54.9	-83.3	184	4
2023-08-12T12:00	21092	50	-54.8	-83.6	177	4
2023-08-12T12:00	21116	50	-54.8	-83.6	168	4
2023-08-12T12:00	21141	50	-54.7	-83.5	160	3
2023-08-12T12:00	21165	50	-54.8	-83.6	153	3
2023-08-12T12:00	21189	49	-54.7	-83.1	147	3
2023-08-12T12:00	21210	49	-54.8	-83.2	139	2
2023-08-12T12:00	21237	49	-54.8	-83.2	129	2
2023-08-12T12:00	21263	49	-54.8	-83.2	118	2
2023-08-12T12:00	21290	49	-54.9	-83.7	107	1
2023-08-12T12:00	21312	49	-54.8	-83.6	101	1
2023-08-12T12:00	21338	48	-54.7	-83.5	103	1
2023-08-12T12:00	21363	48	-54.5	-83.4	125	0
2023-08-12T12:00	21388	48	-54.5	-83.4	147	0
2023-08-12T12:00	21414	48	-54.7	-83.5	135	1
2023-08-12T12:00	21431	48	-54.7	-83.5	115	1
2023-08-12T12:00	21454	47	-54.6	-83.4	104	1
2023-08-12T12:00	21478	47	-54.5	-83.4	97	2
2023-08-12T12:00	21500	47	-54.4	-83.3	93	3
2023-08-12T12:00	21524	47	-54.5	-83.4	91	3
2023-08-12T12:00	21551	47	-54.4	-83.3	88	3
2023-08-12T12:00	21577	47	-54.2	-83.1	85	3
2023-08-12T12:00	21600	46	-54.0	-83.4	83	3
2023-08-12T12:00	21627	46	-53.9	-83.3	83	4
2023-08-12T12:00	21646	46	-53.7	-83.2	85	4
2023-08-12T12:00	21672	46	-53.4	-83.0	89	5
2023-08-12T12:00	21698	46	-53.3	-82.9	93	5
2023-08-12T12:00	21722	45	-53.3	-82.9	97	6
2023-08-12T12:00	21749	45	-53.3	-82.9	100	6
2023-08-12T12:00	21773	45	-53.3	-82.9	101	7
2023-08-12T12:00	21798	45	-53.3	-82.9	102	8
2023-08-12T12:00	21824	45	-53.3	-82.9	103	8
2023-08-12T12:00	21844	45	-53.3	-82.9	104	8
2023-08-12T12:00	21875	44	-53.4	-83.0	107	8
2023-08-12T12:00	21893	44	-53.3	-82.9	111	8
2023-08-12T12:00	21923	44	-53.3	-82.5	116	7
2023-08-12T12:00	21943	44	-53.3	-82.5	122	7
2023-08-12T12:00	21968	44	-53.4	-82.5	129	7
2023-08-12T12:00	21991	44	-53.4	-82.5	136	7
2023-08-12T12:00	22021	43	-53.5	-82.6	143	8
2023-08-12T12:00	22047	43	-53.5	-83.0	149	8
2023-08-12T12:00	22073	43	-53.4	-83.0	155	8
2023-08-12T12:00	22093	43	-53.4	-83.0	161	9
2023-08-12T12:00	22121	43	-53.3	-82.9	166	9
2023-08-12T12:00	22142	43	-53.3	-82.9	171	8
2023-08-12T12:00	22168	42	-53.3	-82.9	176	8
2023-08-12T12:00	22191	42	-53.3	-82.9	181	8
2023-08-12T12:00	22216	42	-53.4	-83.0	185	7
2023-08-12T12:00	22243	42	-53.3	-82.9	189	7
2023-08-12T12:00	22266	42	-52.9	-82.6	190	6
2023-08-12T12:00	22290	42	-52.6	-82.8	190	5
2023-08-12T12:00	22312	42	-52.4	-82.7	188	4
2023-08-12T12:00	22341	41	-52.4	-82.7	182	4
2023-08-12T12:00	22364	41	-52.4	-82.7	171	3
2023-08-12T12:00	22389	41	-52.5	-82.3	156	3
2023-08-12T12:00	22414	41	-52.5	-82.3	143	3
2023-08-12T12:00	22438	41	-52.4	-82.2	136	3
2023-08-12T12:00	22462	41	-52.3	-82.1	134	4
2023-08-12T12:00	22489	40	-52.4	-82.2	133	4
2023-08-12T12:00	22510	40	-52.4	-82.2	133	5
2023-08-12T12:00	22539	40	-52.4	-82.2	132	5
2023-08-12T12:00	22563	40	-52.5	-82.3	130	5
2023-08-12T12:00	22589	40	-52.5	-82.3	127	5
2023-08-12T12:00	22615	40	-52.6	-82.4	124	5
2023-08-12T12:00	22639	39	-52.7	-82.4	120	5
2023-08-12T12:00	22665	39	-52.7	-82.4	116	4
2023-08-12T12:00	22689	39	-52.8	-82.5	113	4
2023-08-12T12:00	22711	39	-52.9	-82.6	111	4
2023-08-12T12:00	22739	39	-53.0	-82.7	110	4
2023-08-12T12:00	22761	39	-52.9	-82.6	110	5
2023-08-12T12:00	22790	39	-52.9	-82.6	111	5
2023-08-12T12:00	22812	38	-52.9	-82.6	112	5
2023-08-12T12:00	22840	38	-53.0	-82.7	111	6
2023-08-12T12:00	22866	38	-53.1	-82.7	110	6
2023-08-12T12:00	22893	38	-53.0	-82.7	109	7
2023-08-12T12:00	22914	38	-53.0	-82.7	108	7
2023-08-12T12:00	22945	38	-53.0	-82.7	106	7
2023-08-12T12:00	22962	38	-53.1	-82.7	106	7
2023-08-12T12:00	22994	37	-53.3	-82.5	106	7
2023-08-12T12:00	23014	37	-53.5	-82.6	107	7
2023-08-12T12:00	23041	37	-53.7	-82.8	108	7
2023-08-12T12:00	23075	37	-53.8	-82.8	111	7
2023-08-12T12:00	23099	37	-53.7	-82.8	115	7
2023-08-12T12:00	23123	37	-53.7	-82.8	120	7
2023-08-12T12:00	23150	36	-53.8	-82.8	125	7
2023-08-12T12:00	23170	36	-53.9	-82.9	130	6
2023-08-12T12:00	23202	36	-53.9	-83.3	133	6
2023-08-12T12:00	23226	36	-53.8	-83.3	135	6
2023-08-12T12:00	23265	36	-53.6	-83.1	134	5
2023-08-12T12:00	23279	36	-53.6	-83.1	131	5
2023-08-12T12:00	23300	36	-53.6	-83.1	125	4
2023-08-12T12:00	23327	35	-53.5	-83.0	117	4
2023-08-12T12:00	23352	35	-53.2	-83.3	110	5
2023-08-12T12:00	23381	35	-53.0	-83.1	105	5
2023-08-12T12:00	23397	35	-53.0	-83.1	103	5
2023-08-12T12:00	23428	35	-53.0	-83.1	104	5
2023-08-12T12:00	23457	35	-52.9	-83.1	107	5
2023-08-12T12:00	23481	35	-52.7	-82.9	111	5
2023-08-12T12:00	23506	35	-52.7	-82.9	118	5
2023-08-12T12:00	23536	34	-52.8	-83.0	126	4
2023-08-12T12:00	23562	34	-52.8	-82.5	133	4
2023-08-12T12:00	23586	34	-52.9	-82.6	138	4
2023-08-12T12:00	23616	34	-52.9	-82.6	139	4
2023-08-12T12:00	23636	34	-53.0	-82.7	137	4
2023-08-12T12:00	23660	34	-53.1	-82.7	129	4
2023-08-12T12:00	23686	34	-53.0	-82.7	118	4
2023-08-12T12:00	23712	33	-52.7	-82.9	106	4
2023-08-12T12:00	23736	33	-52.5	-82.8	99	5
2023-08-12T12:00	23766	33	-52.3	-82.6	94	6
2023-08-12T12:00	23783	33	-52.2	-82.5	92	6
2023-08-12T12:00	23804	33	-52.0	-82.4	91	7
2023-08-12T12:00	23833	33	-52.0	-82.4	90	7
2023-08-12T12:00	23854	33	-52.2	-82.5	89	8
2023-08-12T12:00	23879	33	-52.3	-82.6	88	8
2023-08-12T12:00	23910	32	-52.3	-82.6	88	9
2023-08-12T12:00	23928	32	-52.4	-82.2	89	9
2023-08-12T12:00	23955	32	-52.5	-82.3	91	10
2023-08-12T12:00	23983	32	-52.6	-82.4	93	10
2023-08-12T12:00	24007	32	-52.6	-82.4	94	11
2023-08-12T12:00	24023	32	-52.6	-82.4	96	11
2023-08-12T12:00	24049	32	-52.6	-82.4	98	10
2023-08-12T12:00	24082	32	-52.6	-82.4	99	10
2023-08-12T12:00	24108	31	-52.7	-82.4	101	9
2023-08-12T12:00	24131	31	-52.7	-82.9	103	9
2023-08-12T12:00	24157	31	-52.5	-82.8	106	8
2023-08-12T12:00	24183	31	-52.3	-82.6	109	7
2023-08-12T12:00	24203	31	-52.3	-82.6	112	7
2023-08-12T12:00	24231	31	-52.4	-82.7	115	6
2023-08-12T12:00	24254	31	-52.4	-82.7	117	6
2023-08-12T12:00	24284	31	-52.4	-82.7	117	5
2023-08-12T12:00	24314	30	-52.4	-82.7	115	5
2023-08-12T12:00	24335	30	-52.3	-82.6	110	5
2023-08-12T12:00	24367	30	-52.3	-82.6	104	5
2023-08-12T12:00	24386	30	-52.3	-82.6	99	6
2023-08-12T12:00	24419	30	-52.2	-82.5	95	7
2023-08-12T12:00	24447	30	-52.3	-82.6	92	7
2023-08-12T12:00	24470	30	-52.5	-82.8	90	8
2023-08-12T12:00	24492	30	-52.5	-82.8	87	9
2023-08-12T12:00	24516	30	-52.5	-82.8	84	9
2023-08-12T12:00	24551	29	-52.5	-82.8	82	9
2023-08-12T12:00	24574	29	-52.4	-82.7	80	9
2023-08-12T12:00	24597	29	-52.4	-82.7	80	9
2023-08-12T12:00	24614	29	-52.4	-82.7	81	9
2023-08-12T12:00	24645	29	-52.4	-82.7	83	9
2023-08-12T12:00	24673	29	-52.5	-82.8	85	9
2023-08-12T12:00	24702	29	-52.5	-82.8	88	9
2023-08-12T12:00	24723	29	-52.6	-82.8	91	9
2023-08-12T12:00	24751	28	-52.5	-82.8	94	9
2023-08-12T12:00	24777	28	-52.3	-82.6	96	10
2023-08-12T12:00	24806	28	-52.2	-82.5	98	10
2023-08-12T12:00	24826	28	-52.1	-82.5	97	10
2023-08-12T12:00	24856	28	-52.0	-82.9	96	10
2023-08-12T12:00	24887	28	-51.9	-82.8	93	10
2023-08-12T12:00	24905	28	-51.6	-82.6	89	10
2023-08-12T12:00	24931	28	-51.3	-82.4	86	9
2023-08-12T12:00	24957	28	-51.3	-82.4	83	9
2023-08-12T12:00	24985	27	-51.3	-82.4	83	9
2023-08-12T12:00	25010	27	-51.2	-82.3	83	8
2023-08-12T12:00	25029	27	-51.1	-82.2	85	8
2023-08-12T12:00	25058	27	-51.0	-82.2	88	8
2023-08-12T12:00	25083	27	-51.0	-82.2	91	8
2023-08-12T12:00	25106	27	-50.9	-82.1	95	9
2023-08-12T12:00	25135	27	-50.9	-82.1	99	9
2023-08-12T12:00	25159	27	-50.9	-82.1	104	9
2023-08-12T12:00	25184	27	-51.0	-82.2	110	9
2023-08-12T12:00	25212	27	-51.1	-82.2	116	9
2023-08-12T12:00	25233	26	-51.1	-82.2	124	9
2023-08-12T12:00	25260	26	-50.8	-82.0	131	9
2023-08-12T12:00	25285	26	-50.6	-81.9	137	9
2023-08-12T12:00	25320	26	-50.5	-81.8	142	9
2023-08-12T12:00	25332	26	-50.3	-81.6	145	8
2023-08-12T12:00	25357	26	-49.9	-81.9	148	8
2023-08-12T12:00	25391	26	-49.6	-81.7	149	8
2023-08-12T12:00	25411	26	-49.2	-81.4	149	8
2023-08-12T12:00	25436	26	-49.0	-81.3	149	7
2023-08-12T12:00	25465	26	-48.8		147	7
2023-08-12T12:00	25491	25	-48.6	-81.0	144	7
2023-08-12T12:00	25511	25	-48.5	-80.9	140	7
2023-08-12T12:00	25537	25	-48.3	-80.7	135	7
2023-08-12T12:00	25571	25	-48.2	-80.7	131	7
2023-08-12T12:00	25590	25	-48.1	-80.6	127	8
2023-08-12T12:00	25618	25	-48.1	-80.6	124	8
2023-08-12T12:00	25636	25	-48.0	-80.5	121	7
2023-08-12T12:00	25666	25	-47.8	-80.4	119	7
2023-08-12T12:00	25692	25	-47.8	-80.4	118	7
2023-08-12T12:00	25716	25	-47.8	-80.4	116	6
2023-08-12T12:00	25740	24	-47.9	-80.4	115	5
2023-08-12T12:00	25758	24	-48.0	-80.5	112	5
2023-08-12T12:00	25789	24	-48.1	-80.6	107	5
2023-08-12T12:00	25812	24	-48.2	-80.7	101	4
2023-08-12T12:00	25841	24	-48.2	-80.7	94	4
2023-08-12T12:00	25870	24	-48.1	-80.6	88	5
2023-08-12T12:00	25895	24	-48.0	-80.5	83	5
2023-08-12T12:00	25919	24	-48.0	-80.5	78	6
2023-08-12T12:00	25947	24	-48.1	-80.6	74	6
2023-08-12T12:00	25977	24	-48.1	-80.6	69	6
2023-08-12T12:00	26004	24	-48.1	-80.6	65	6
2023-08-12T12:00	26028	23	-48.1	-80.6	62	7
2023-08-12T12:00	26053	23	-48.0	-80.5	60	7
2023-08-12T12:00	26080	23	-47.9	-80.4	61	7
2023-08-12T12:00	26102	23	-47.9	-80.4	64	7
2023-08-12T12:00	26130	23	-47.9	-80.4	69	7
2023-08-12T12:00	26166	23	-47.9	-80.4	75	7
2023-08-12T12:00	26191	23	-47.8	-80.4	80	7
2023-08-12T12:00	26217	23	-47.9	-80.4	85	7
2023-08-12T12:00	26235	23	-48.1	-80.6	91	8
2023-08-12T12:00	26262	23	-48.3	-80.7	96	8
2023-08-12T12:00	26290	23	-48.6	-80.4	102	8
2023-08-12T12:00	26315	22	-48.8	-80.5	108	8
2023-08-12T12:00	26337	22	-48.9	-81.2	113	8
2023-08-12T12:00	26363	22	-48.8		116	8
2023-08-12T12:00	26395	22	-48.5	-80.9	119	8
2023-08-12T12:00	26413	22	-48.3	-80.7	120	8
2023-08-12T12:00	26444	22	-48.2	-80.7	120	8
2023-08-12T12:00	26471	22	-48.3	-80.7	118	7
2023-08-12T12:00	26502	22	-48.4	-80.8	114	7
2023-08-12T12:00	26526	22	-48.4	-80.8	108	6
2023-08-12T12:00	26553	22	-48.2	-80.7	101	6
2023-08-12T12:00	26576	22	-48.1	-80.6	94	6
2023-08-12T12:00	26612	21	-48.1	-80.6	90	6
2023-08-12T12:00	26627	21	-48.1	-80.6	90	6
2023-08-12T12:00	26657	21	-48.0	-80.5	94	6
2023-08-12T12:00	26685	21	-47.9	-80.4	101	6
2023-08-12T12:00	26712	21	-47.9	-80.4	109	6
2023-08-12T12:00	26742	21	-48.0	-80.5	116	6
2023-08-12T12:00	26771	21	-48.1	-80.6	121	6
2023-08-12T12:00	26792	21	-48.0	-80.5	125	5
2023-08-12T12:00	26821	21	-48.0	-80.5	126	5
2023-08-12T12:00	26853	21	-48.0	-80.5	126	4
2023-08-12T12:00	26880	21	-48.0	-80.5	126	4
2023-08-12T12:00	26907	21	-48.0	-80.5	127	3
2023-08-12T12:00	26937	20	-47.9	-80.4	128	3
2023-08-12T12:00	26964	20	-47.8	-80.4	128	3
2023-08-12T12:00	26993	20	-47.6	-80.2	125	3
2023-08-12T12:00	27025	20	-47.4	-80.1	116	3
2023-08-12T12:00	27050	20	-47.2	-79.9	106	3
2023-08-12T12:00	27077	20	-47.1	-79.9	97	4
2023-08-12T12:00	27099	20	-47.1	-79.9	92	4
2023-08-12T12:00	27133	20	-47.0	-79.8	88	5
2023-08-12T12:00	27160	20	-46.9	-79.7	86	6
2023-08-12T12:00	27188	20	-46.8	-79.6	84	6
2023-08-12T12:00	27215	20	-46.8	-79.6	82	7
2023-08-12T12:00	27249	19	-46.8	-79.6	81	7
2023-08-12T12:00	27271	19	-46.9	-79.7	82	7
2023-08-12T12:00	27304	19	-46.9	-79.7	85	7
2023-08-12T12:00	27327	19	-46.9	-79.7	88	7
2023-08-12T12:00	27370	19	-46.9	-79.7	93	7
2023-08-12T12:00	27391	19	-46.9	-79.7	98	7
2023-08-12T12:00	27423	19	-47.0	-79.8	100	7
2023-08-12T12:00	27449	19	-47.0	-79.8	102	6
2023-08-12T12:00	27478	19	-47.1	-79.9	101	6
2023-08-12T12:00	27505	19	-47.1	-79.9	99	6
2023-08-12T12:00	27537	19	-47.2	-79.9	97	6
2023-08-12T12:00	27569	19	-47.1	-79.9	97	6
2023-08-12T12:00	27598	18	-47.1	-79.9	97	6
2023-08-12T12:00	27618	18	-47.2	-79.9	99	6
2023-08-12T12:00	27646	18	-47.1	-79.9	102	6
2023-08-12T12:00	27672	18	-47.0	-79.8	105	6
2023-08-12T12:00	27696	18	-47.0	-79.8	109	5
2023-08-12T12:00	27722	18	-47.0	-79.8	112	5
2023-08-12T12:00	27759	18	-47.1	-79.9	114	4
2023-08-12T12:00	27783	18	-47.1	-79.9	116	4
2023-08-12T12:00	27811	18	-47.1	-79.9	116	4
2023-08-12T12:00	27845	18	-47.1	-79.9	115	4
2023-08-12T12:00	27861	18	-47.1	-79.9	114	4
2023-08-12T12:00	27896	18	-47.0	-79.8	114	4
2023-08-12T12:00	27922	18	-46.9	-79.7	113	3
2023-08-12T12:00	27944	18	-46.9	-79.7	113	3
2023-08-12T12:00	27974	17	-46.9	-79.7	111	3
2023-08-12T12:00	27997	17	-47.0	-79.8	107	3
2023-08-12T12:00	28015	17	-47.1	-79.9	103	4
2023-08-12T12:00	28042	17	-47.0	-79.8	98	4
2023-08-12T12:00	28075	17	-46.8	-79.6	95	5
2023-08-12T12:00	28110	17	-46.7	-79.6	93	5
2023-08-12T12:00	28141	17	-46.8	-80.3	91	6
2023-08-12T12:00	28160	17	-46.8	-80.3	89	6
2023-08-12T12:00	28182	17	-46.7	-80.2	86	7
2023-08-12T12:00	28220	17	-46.6	-80.1	82	7
2023-08-12T12:00	28233	17	-46.4	-80.0	79	7
2023-08-12T12:00	28267	17	-46.2	-79.8	77	8
2023-08-12T12:00	28296	17	-45.9	-79.6	76	8
2023-08-12T12:00	28332	17	-45.7	-79.5	77	7
2023-08-12T12:00	28340	17	-45.6		80	7
2023-08-12T12:00	28375	16	-45.5	-79.3	85	7
2023-08-12T12:00	28399	16	-45.4	-79.3	93	7
2023-08-12T12:00	28432	16	-45.3	-79.2	101	7
2023-08-12T12:00	28454	16	-45.1	-79.0	109	7
2023-08-12T12:00	28489	16	-45.1	-79.0	116	7
2023-08-12T12:00	28503	16	-45.3	-79.2	120	7
2023-08-12T12:00	28536	16	-45.3	-79.2	124	8
2023-08-12T12:00	28567	16	-45.1	-79.0	127	8
2023-08-12T12:00	28606	16	-45.1	-79.0	131	8
2023-08-12T12:00	28628	16	-45.1	-79.0	134	8
2023-08-12T12:00	28649	16	-45.1	-79.0	139	8
2023-08-12T12:00	28681	16	-45.2	-79.1	144	8
2023-08-12T12:00	28691	16	-45.1	-79.0	150	7
2023-08-12T12:00	28739	16	-45.2	-79.1	156	7
2023-08-12T12:00	28765	16	-45.2	-79.1	160	7
2023-08-12T12:00	28790	15	-45.1	-79.0	164	7
2023-08-12T12:00	28815	15	-45.2	-79.1	165	7
2023-08-12T12:00	28830	15	-45.1	-79.0	165	7
2023-08-12T12:00	28880	15	-45.2	-79.1	164	6
2023-08-12T12:00	28904	15	-45.3	-79.2	162	6
2023-08-12T12:00	28943	15	-45.4	-79.3	159	5
2023-08-12T12:00	28952	15	-45.5	-79.3	156	5
2023-08-12T12:00	29002	15	-45.5	-79.3	152	5
2023-08-12T12:00	29019	15	-45.4	-79.3	148	5
2023-08-12T12:00	29054	15	-45.4	-79.3	142	4
2023-08-12T12:00	29076	15	-45.3	-79.2	136	4
2023-08-12T12:00	29114	15	-45.3	-79.2	129	4
2023-08-12T12:00	29133	15	-45.2	-79.1	123	4
2023-08-12T12:00	29162	15	-45.1	-79.0	120	5
2023-08-12T12:00	29197	15	-44.9	-78.9	119	5
2023-08-12T12:00	29219	14	-44.8	-78.8	121	5
2023-08-12T12:00	29244	14	-44.7	-78.8	125	5
2023-08-12T12:00	29274	14	-44.8	-78.8	131	5
2023-08-12T12:00	29314	14	-44.8	-78.8	139	5
2023-08-12T12:00	29342	14	-44.7	-78.8	148	4
2023-08-12T12:00	29361	14	-44.6	-78.7	157	4
2023-08-12T12:00	29393	14	-44.6	-78.7	166	4
2023-08-12T12:00	29422	14	-44.6	-78.7	174	3
2023-08-12T12:00	29448	14	-44.7	-78.8	180	3
2023-08-12T12:00	29462	14	-44.8	-78.8	182	2
2023-08-12T12:00	29488	14	-44.8	-78.8	178	2
2023-08-12T12:00	29528	14	-44.6	-78.7	168	2
2023-08-12T12:00	29555	14	-44.3	-78.5	156	2
2023-08-12T12:00	29573	14	-44.1	-79.0	145	2
2023-08-12T12:00	29608	14	-43.9	-78.9	136	3
2023-08-12T12:00	29619	14	-43.7	-78.8	129	3
2023-08-12T12:00	29657	14	-43.7	-78.8	124	2
2023-08-12T12:00	29695	14	-43.7	-78.8	120	2
2023-08-12T12:00	29702	13	-43.6	-78.7	117	2
2023-08-12T12:00	29743	13	-43.7	-78.8	110	2
2023-08-12T12:00	29752	13	-43.7	-78.8	94	2
2023-08-12T12:00	29787	13	-43.7	-78.8	72	2
2023-08-12T12:00	29808	13	-43.6	-78.7	52	2
2023-08-12T12:00	29830	13	-43.4	-78.5	41	3
2023-08-12T12:00	29864	13	-43.3	-78.5	36	4
2023-08-12T12:00	29873	13	-43.3	-78.5	33	5
2023-08-12T12:00	29914	13	-43.2	-78.4	33	6
2023-08-12T12:00	29935	13	-43.1	-78.3	33	6
2023-08-12T12:00	29956	13	-42.8	-78.1	34	7
2023-08-12T12:00	29993	13	-42.7	-78.0	35	7
2023-08-12T12:00	30028	13	-42.7	-78.0	35	7
2023-08-12T12:00	30045	13	-42.7	-78.0	36	7
2023-08-12T12:00	30074	13	-42.6	-78.0	37	7
2023-08-12T12:00	30103	13	-42.7	-78.0	40	6
2023-08-12T12:00	30115	13	-42.7	-78.0	44	6
2023-08-12T12:00	30159	13	-42.8	-78.1	50	6
2023-08-12T12:00	30181	13	-42.7	-78.0	58	6
2023-08-12T12:00	30220	13	-42.7	-78.0	66	6
2023-08-12T12:00	30240	12	-42.8	-78.1	74	6
2023-08-12T12:00	30266	12	-42.9	-78.2	80	7
2023-08-12T12:00	30293	12	-42.9	-78.2	84	8
2023-08-12T12:00	30325	12	-42.8	-78.1	88	8
2023-08-12T12:00	30336	12	-42.7	-78.0	91	9
2023-08-12T12:00	30367	12	-42.7	-78.0	94	10
2023-08-12T12:00	30389	12	-42.7	-78.0	97	10
2023-08-12T12:00	30430	12	-42.7	-78.0	99	10
2023-08-12T12:00	30457	12	-42.8	-78.1	101	10
2023-08-12T12:00	30476	12	-42.7	-78.0	103	10
2023-08-12T12:00	30512	12	-42.7	-78.0	104	10
2023-08-12T12:00	30557	12	-42.7	-78.0	105	10
2023-08-12T12:00	30568	12	-42.7	-78.0	106	10
2023-08-12T12:00	30590	12	-42.7	-78.0	109	10
2023-08-12T12:00	30637	12	-42.7	-78.0	111	9
2023-08-12T12:00	30650	12	-42.7	-78.0	114	9
2023-08-12T12:00	30689	12	-42.8	-78.1	117	8
2023-08-12T12:00	30702	12	-42.9	-78.2	121	8
2023-08-12T12:00	30740	12	-43.0	-78.3	125	7
2023-08-12T12:00	30768	12	-43.1	-78.3	128	7
2023-08-12T12:00	30802	11	-43.0	-78.3	130	6
2023-08-12T12:00	30840	11	-43.1	-78.3	130	6
2023-08-12T12:00	30853	11	-43.2	-78.4	128	5
2023-08-12T12:00	30898	11	-43.1	-78.3	123	4
2023-08-12T12:00	30904	11	-42.9	-78.2	115	4
2023-08-12T12:00	30935	11	-42.8	-78.1	104	3
2023-08-12T12:00	30966	11	-42.8	-78.1	90	3
2023-08-12T12:00	30982	11	-42.7	-78.0	76	3
2023-08-12T12:00	31021	11	-42.6	-78.0	69	3
2023-08-12T12:00	31026	11	-42.4	-77.8	67	4
2023-08-12T12:00	31072	11	-42.3	-77.8	70	5
2023-08-12T12:00	31102	11	-42.4	-77.8	74	6
2023-08-12T12:00	31111	11	-42.4	-77.8	78	7
2023-08-12T12:00	31156	11	-42.4	-77.8	83	7
2023-08-12T12:00	31179	11	-42.4	-77.8	87	8
2023-08-12T12:00	31205	11	-42.5	-77.9	90	8
2023-08-12T12:00	31235	11	-42.5	-77.9	92	8
2023-08-12T12:00	31259	11	-42.3	-77.8	95	7
2023-08-12T12:00	31293	11	-42.2	-77.7	97	7
2023-08-12T12:00	31312	11	-42.0	-78.4	99	6
2023-08-12T12:00	31343	11	-41.6	-78.1	102	6
2023-08-12T12:00	31361	11	-41.2	-77.8	106	7
2023-08-12T12:00	31393	11	-40.9	-77.6	109	7
2023-08-12T12:00	31418	10	-40.8	-77.5	112	8
2023-08-12T12:00	31433	10	-40.8	-77.5	115	8
2023-08-12T12:00	31459	10	-40.8	-77.5	117	8
2023-08-12T12:00	31506	10	-40.7	-77.4	120	8
2023-08-12T12:00	31526	10	-40.5		121	8
2023-08-12T12:00	31551	10	-40.1	-77.0	123	8
2023-08-12T12:00	31563	10	-39.9	-76.9	123	7
2023-08-12T12:00	31601	10	-39.7	-76.7	122	7
2023-08-12T12:00	31625	10	-39.6	-77.6	119	6
2023-08-12T12:00	31652	10	-39.6	-77.6	117	6
2023-08-12T12:00	31700	10	-39.4	-77.5	115	5
2023-08-12T12:00	31717	10	-39.3	-77.4	112	5
2023-08-12T12:00	31729	10	-39.2	-77.3	109	5
2023-08-12T12:00	31767	10	-39.1	-77.3	105	5
2023-08-12T12:00	31803	10	-39.0	-77.2	101	5
2023-08-12T12:00	31841	10	-38.9	-76.2	96	6
2023-08-12T12:00	31874	10	-39.0	-76.2	96	6
2023-08-12T12:00	31892	10	-39.1	-76.3	97	6
2023-08-12T12:00	31940	10	-39.1	-76.3	97	6
2023-08-12T12:00	31965	10	-39.1	-76.3	97	6
2023-08-12T12:00	32011	10	-39.1	-76.3	96	6
2023-08-12T12:00	32034	10	-39.1	-76.3	94	6
2023-08-12T12:00	32048	10	-39.0	-76.2	92	7
2023-08-12T12:00	32090	10	-39.0	-76.2	91	7
2023-08-12T12:00	32115	9	-39.0	-76.2	90	7
2023-08-12T12:00	32151	9	-39.0	-76.2	90	8
2023-08-12T12:00	32160	9	-39.1	-76.3	89	8
2023-08-12T12:00	32203	9	-39.1	-76.3	89	8
2023-08-12T12:00	32221	9	-39.2	-76.4	88	8
2023-08-12T12:00	32246	9	-39.2	-76.4	87	8
2023-08-12T12:00	32279	9	-39.2	-76.4	86	7
2023-08-12T12:00	32327	9	-39.3	-76.4	85	7
2023-08-12T12:00	32339	9	-39.3	-76.4	85	6
2023-08-12T12:00	32369	9	-39.3	-76.4	87	6
2023-08-12T12:00	32428	9	-39.3	-76.4	89	6
2023-08-12T12:00	32446	9	-39.5	-76.6	91	6
2023-08-12T12:00	32493	9	-39.5	-76.6	91	6
2023-08-12T12:00	32518	9	-39.5	-76.6	90	6
2023-08-12T12:00	32543	9	-39.5	-76.6	88	5
2023-08-12T12:00	32556	9	-39.5	-76.6	87	5
2023-08-12T12:00	32597	9	-39.5	-76.6	85	5
2023-08-12T12:00	32639	9	-39.4	-76.5	84	4
2023-08-12T12:00	32662	9	-39.3	-76.4	82	4
2023-08-12T12:00	32694	9	-39.2	-76.4	82	4
2023-08-12T12:00	32700	9	-39.2	-76.4	85	4
2023-08-12T12:00	32729	9	-39.1	-76.3	89	4
2023-08-12T12:00	32738	9	-39.0	-76.2	93	4
2023-08-12T12:00	32795	9	-38.9	-76.2	95	4
2023-08-12T12:00	32811	9	-38.8	-76.1	93	4
2023-08-12T12:00	32837	9	-38.5	-75.9	89	5
2023-08-12T12:00	32864	8	-38.2	-76.6	83	5
2023-08-12T12:00	32890	8	-37.9	-76.4	78	5
2023-08-12T12:00	32902	8	-37.6	-76.2	74	6
2023-08-12T12:00	32945	8	-37.3	-76.0	70	6
2023-08-12T12:00	32977	8	-37.2	-75.9	68	6
2023-08-12T12:00	32994	8	-37.2	-75.9	67	7
2023-08-12T12:00	33030	8	-37.2	-75.9	65	7
2023-08-12T12:00	33047	8	-37.2	-75.9	64	7
2023-08-12T12:00	33092	8	-37.3	-76.0	63	8
2023-08-12T12:00	33117	8	-37.3	-76.0	62	8
2023-08-12T12:00	33153	8	-37.2	-75.9	61	8
2023-08-12T12:00	33162	8	-37.1	-75.9	60	8
2023-08-12T12:00	33198	8	-37.0	-75.8	60	9
2023-08-12T12:00	33206	8	-36.9	-75.7	60	9
2023-08-12T12:00	33250	8	-36.8	-75.7	62	9
2023-08-12T18:00	-999					
2023-08-12T18:00	134	999	27.0	16.8	192	2
2023-08-12T18:00	161	996	26.8	16.6	186	3
2023-08-12T18:00	189	993	26.5	16.4	183	5
2023-08-12T18:00	217	990	26.3	16.3	182	5
2023-08-12T18:00	242	987	26.1	15.9	181	6
2023-08-12T18:00	267	984	26.2	15.1	182	7
2023-08-12T18:00	295	981	26.0		182	7
2023-08-12T18:00	325	978	25.7	14.7	182	8
2023-08-12T18:00	352	975	25.5	14.6	183	8
2023-08-12T18:00	382	972	25.2	14.4	183	8
2023-08-12T18:00	412	968	24.9	14.4	184	9
2023-08-12T18:00	438	965	24.7	14.2	184	9
2023-08-12T18:00	466	962	24.5	13.9	185	10
2023-08-12T18:00	498	959	24.1	14.0	185	10
2023-08-12T18:00	531	955	23.9	13.8	185	10
2023-08-12T18:00	562	952	23.7	13.4	186	11
2023-08-12T18:00	593	948	23.4	13.3	187	11
2023-08-12T18:00	627	945	23.3	12.8	190	11
2023-08-12T18:00	658	942	23.2	12.2	192	11
2023-08-12T18:00	687	938	22.9	12.1	195	11
2023-08-12T18:00	718	935	22.7	11.9	198	10
2023-08-12T18:00	744	932	22.4	12.0	200	10
2023-08-12T18:00	771	929	22.2	12.2	203	10
2023-08-12T18:00	798	926	22.0	12.3	205	10
2023-08-12T18:00	825	924	21.7	12.2	207	10
2023-08-12T18:00	850	921	21.5	12.3	210	10
2023-08-12T18:00	877	918	21.3	12.3	212	10
2023-08-12T18:00	902	915	21.1	12.3	214	10
2023-08-12T18:00	927	913	20.9	12.2	216	10
2023-08-12T18:00	951	910	20.7	12.0	217	10
2023-08-12T18:00	981	907	20.6	11.6	217	10
2023-08-12T18:00	1007	904	20.3	11.6	218	11
2023-08-12T18:00	1034	902	20.1	11.5	218	11
2023-08-12T18:00	1061	899	19.9	11.5	218	11
2023-08-12T18:00	1088	896	19.6	11.5	218	11
2023-08-12T18:00	1114	893	19.3	11.4	218	11
2023-08-12T18:00	1142	890	19.1	11.4	218	11
2023-08-12T18:00	1171	887	18.8	11.3	219	11
2023-08-12T18:00	1196	885	18.6	11.3	219	11
2023-08-12T18:00	1224	882	18.3	11.3	220	11
2023-08-12T18:00	1254	879	18.0	11.1	220	11
2023-08-12T18:00	1281	876	17.7	11.0	221	11
2023-08-12T18:00	1309	873	17.5	11.1	222	11
2023-08-12T18:00	1334	871	17.2	11.0	224	12
2023-08-12T18:00	1361	868	17.0	11.1	225	12
2023-08-12T18:00	1387	865	16.8	11.6	227	12
2023-08-12T18:00	1414	862	16.5	11.7	229	12
2023-08-12T18:00	1440	860	16.3	11.9	230	12
2023-08-12T18:00	1465	857	16.0	11.3	233	12
2023-08-12T18:00	1493	855	15.8	11.7	235	12
2023-08-12T18:00	1517	852	15.5	12.1	237	12
2023-08-12T18:00	1544	849	15.3	13.0	239	12
2023-08-12T18:00	1570	847	15.0	12.9	240	12
2023-08-12T18:00	1596	844	15.0	12.3	241	12
2023-08-12T18:00	1623	842	14.8	12.2	242	12
2023-08-12T18:00	1647	839	14.5	12.2	242	12
2023-08-12T18:00	1673	837	14.3	11.9	242	12
2023-08-12T18:00	1699	834	14.1	11.9	242	12
2023-08-12T18:00	1724	831	14.0	11.4	242	12
2023-08-12T18:00	1752	829	13.8	11.3	241	12
2023-08-12T18:00	1778	826	13.6	11.3	241	12
2023-08-12T18:00	1804	824	13.3	11.3	240	13
2023-08-12T18:00	1829	821	13.1	11.4	240	13
2023-08-12T18:00	1859	818	12.9	11.4	239	13
2023-08-12T18:00	1887	816	12.7	11.3	238	13
2023-08-12T18:00	1920	813	12.5	11.1	238	13
2023-08-12T18:00	1946	810	12.3	10.9	237	13
2023-08-12T18:00	1973	807	12.1	10.9	237	13
2023-08-12T18:00	2002	805	12.0		237	13
2023-08-12T18:00	2028	802	11.9	10.4	237	13
2023-08-12T18:00	2057	799	11.7	10.1	238	13
2023-08-12T18:00	2085	797	11.5	10.1	239	13
2023-08-12T18:00	2112	794	11.3	10.1	240	13
2023-08-12T18:00	2140	791	11.1	9.9	240	13
2023-08-12T18:00	2167	789	11.0	9.6	241	13
2023-08-12T18:00	2192	786	10.8	9.5	241	13
2023-08-12T18:00	2221	784	10.8	9.1	242	13
2023-08-12T18:00	2251	781	10.7	8.8	242	13
2023-08-12T18:00	2276	779	10.5	8.6	243	13
2023-08-12T18:00	2306	776	10.3	8.5	243	14
2023-08-12T18:00	2333	773	10.2	8.2	243	14
2023-08-12T18:00	2365	770	10.1	8.0	243	14
2023-08-12T18:00	2395	768	9.9	7.8	243	14
2023-08-12T18:00	2423	765	9.7	7.6	243	14
2023-08-12T18:00	2453	762	9.5	7.6	243	14
2023-08-12T18:00	2483	760	9.3	7.4	243	14
2023-08-12T18:00	2513	757	9.0	7.3	242	14
2023-08-12T18:00	2542	754	8.8	7.2	242	14
2023-08-12T18:00	2571	752	8.5	7.0	242	14
2023-08-12T18:00	2601	749	8.2	6.9	241	14
2023-08-12T18:00	2630	746	8.0	6.9	241	14
2023-08-12T18:00	2660	744	7.8	6.7	240	14
2023-08-12T18:00	2689	741	7.5	6.5	239	14
2023-08-12T18:00	2718	738	7.4	6.4	238	13
2023-08-12T18:00	2748	736	7.1	6.3	237	13
2023-08-12T18:00	2778	733	6.8	6.3	237	13
2023-08-12T18:00	2807	730	6.7	6.2	236	13
2023-08-12T18:00	2837	728	6.4	5.9	235	13
2023-08-12T18:00	2866	725	6.2	5.9	234	13
2023-08-12T18:00	2895	723	6.0	5.9	233	12
2023-08-12T18:00	2925	720	5.7	5.7	233	12
2023-08-12T18:00	2954	717	5.6	5.6	232	12
2023-08-12T18:00	2982	715	5.4	5.4	231	12
2023-08-12T18:00	3011	712	5.3	5.3	231	12
2023-08-12T18:00	3042	710	5.1	5.1	231	13
2023-08-12T18:00	3071	707	4.9	4.9	232	13
2023-08-12T18:00	3101	705	4.8	4.7	232	13
2023-08-12T18:00	3132	702	4.7	4.5	233	13
2023-08-12T18:00	3161	699	4.5	4.0	233	13
2023-08-12T18:00	3192	697	4.6	2.8	233	13
2023-08-12T18:00	3222	694	4.9	2.3	233	13
2023-08-12T18:00	3250	692	5.1	2.0	233	13
2023-08-12T18:00	3280	689	5.1	2.0	233	12
2023-08-12T18:00	3310	687	5.0	1.8	233	12
2023-08-12T18:00	3340	684	4.8	1.7	234	12
2023-08-12T18:00	3369	682	4.6	1.6	234	12
2023-08-12T18:00	3398	679	4.4	1.6	235	12
2023-08-12T18:00	3428	677	4.1	1.3	235	12
2023-08-12T18:00	3458	675	3.9	1.2	235	12
2023-08-12T18:00	3489	672	3.6	1.1	236	12
2023-08-12T18:00	3518	670	3.4	1.2	237	12
2023-08-12T18:00	3550	667	3.1	1.2	237	13
2023-08-12T18:00	3580	664	2.8	1.3	238	13
2023-08-12T18:00	3611	662	2.6	1.4	238	13
2023-08-12T18:00	3644	659	2.3	1.3	238	14
2023-08-12T18:00	3674	657	2.0	1.2	238	14
2023-08-12T18:00	3707	654	1.7		237	14
2023-08-12T18:00	3736	652	1.4	1.1	237	14
2023-08-12T18:00	3766	649	1.1	1.0	236	14
2023-08-12T18:00	3794	647	0.8	0.8	236	14
2023-08-12T18:00	3823	645	0.7		236	14
2023-08-12T18:00	3851	643	0.5	0.4	235	14
2023-08-12T18:00	3880	640	0.2	0.2	235	14
2023-08-12T18:00	3910	638	0.0	0.0	235	14
2023-08-12T18:00	3937	636	-0.1	-0.1	235	14
2023-08-12T18:00	3964	634	-0.3	-0.3	235	14
2023-08-12T18:00	3992	631	-0.5	-0.5	236	14
2023-08-12T18:00	4018	629	-0.6	-0.8	236	14
2023-08-12T18:00	4044	627	-0.7	-1.0	237	14
2023-08-12T18:00	4073	625	-1.0	-1.2	238	14
2023-08-12T18:00	4099	623	-1.2	-1.3	239	14
2023-08-12T18:00	4127	621	-1.5	-1.6	239	14
2023-08-12T18:00	4157	618	-1.7	-1.7	239	14
2023-08-12T18:00	4187	616	-1.8	-2.2	239	14
2023-08-12T18:00	4216	614	-2.0	-2.1	238	14
2023-08-12T18:00	4244	612	-2.0	-2.7	238	14
2023-08-12T18:00	4273	609	-1.9	-3.2	237	14
2023-08-12T18:00	4302	607	-2.0	-3.7	237	14
2023-08-12T18:00	4333	605	-2.2	-3.8	237	14
2023-08-12T18:00	4365	603	-2.5	-3.9	236	14
2023-08-12T18:00	4395	600	-2.8	-4.0	235	14
2023-08-12T18:00	4424	598	-3.1	-4.1	234	14
2023-08-12T18:00	4452	596	-3.4	-4.2	234	14
2023-08-12T18:00	4479	594	-3.6	-4.2	233	14
2023-08-12T18:00	4502	592	-3.8	-4.3	233	14
2023-08-12T18:00	4528	590	-4.1	-4.4	233	14
2023-08-12T18:00	4551	589	-4.3	-4.6	233	14
2023-08-12T18:00	4576	587	-4.6	-4.6	233	14
2023-08-12T18:00	4599	585	-4.7	-5.0	233	14
2023-08-12T18:00	4623	583	-5.0	-5.0	234	14
2023-08-12T18:00	4650	581	-5.2	-5.2	235	14
2023-08-12T18:00	4677	579	-5.4	-5.4	236	14
2023-08-12T18:00	4706	577	-5.5	-5.5	237	13
2023-08-12T18:00	4736	575	-5.4	-5.8	238	13
2023-08-12T18:00	4761	573	-4.8	-6.2	238	13
2023-08-12T18:00	4787	571	-4.7	-6.2	238	13
2023-08-12T18:00	4813	569	-4.6	-6.6	237	13
2023-08-12T18:00	4838	567	-4.3	-7.2	236	13
2023-08-12T18:00	4868	565	-4.2	-7.6	235	13
2023-08-12T18:00	4897	563	-4.3	-8.3	235	13
2023-08-12T18:00	4925	561	-4.5	-8.5	235	13
2023-08-12T18:00	4954	559	-4.8	-8.9	236	14
2023-08-12T18:00	4985	557	-5.0	-11.3	237	14
2023-08-12T18:00	5015	555	-5.1	-13.2	238	14
2023-08-12T18:00	5045	553	-5.4	-13.7	239	14
2023-08-12T18:00	5075	551	-5.6	-14.7	240	14
2023-08-12T18:00	5104	549	-5.7	-15.6	240	14
2023-08-12T18:00	5135	546	-5.9	-15.8	240	14
2023-08-12T18:00	5165	544	-6.2	-15.6	240	14
2023-08-12T18:00	5194	542	-6.5	-14.2	240	14
2023-08-12T18:00	5224	540	-6.8	-13.8	240	14
2023-08-12T18:00	5254	538	-7.1	-14.1	240	14
2023-08-12T18:00	5285	536	-7.4	-14.6	240	14
2023-08-12T18:00	5315	534	-7.6	-15.0	240	14
2023-08-12T18:00	5346	532	-7.9	-15.1	239	14
2023-08-12T18:00	5375	530	-8.2	-13.7	239	14
2023-08-12T18:00	5405	528	-8.4	-14.9	239	15
2023-08-12T18:00	5435	526	-8.7	-15.1	239	15
2023-08-12T18:00	5461	524	-8.9	-15.3	240	15
2023-08-12T18:00	5489	522	-9.1	-15.8	241	15
2023-08-12T18:00	5517	520	-9.2	-17.3	241	16
2023-08-12T18:00	5546	518	-9.4	-17.2	242	16
2023-08-12T18:00	5575	516	-9.3	-23.9	244	16
2023-08-12T18:00	5605	514	-9.0	-29.9	245	16
2023-08-12T18:00	5633	512	-8.6	-34.1	246	15
2023-08-12T18:00	5665	511	-8.8	-33.2	246	15
2023-08-12T18:00	5691	509	-9.0	-33.3	246	15
2023-08-12T18:00	5719	507	-9.3	-33.8	245	15
2023-08-12T18:00	5747	505	-9.5	-34.1	244	15
2023-08-12T18:00	5776	503	-9.7	-34.2	243	16
2023-08-12T18:00	5806	501	-9.8	-33.6	242	16
2023-08-12T18:00	5832	499	-10.0	-33.7	242	16
2023-08-12T18:00	5863	497	-10.1	-34.4	241	17
2023-08-12T18:00	5892	495	-10.1	-34.2	241	17
2023-08-12T18:00	5923	494	-10.3	-34.1	240	17
2023-08-12T18:00	5952	492	-10.6	-34.4	240	17
2023-08-12T18:00	5984	490	-10.8	-36.7	240	17
2023-08-12T18:00	6014	488	-10.9	-34.3	240	17
2023-08-12T18:00	6046	486	-11.0	-33.3	240	17
2023-08-12T18:00	6078	484	-11.1	-34.7	240	18
2023-08-12T18:00	6111	482	-11.4	-32.8	240	18
2023-08-12T18:00	6140	480	-11.7	-33.2	241	18
2023-08-12T18:00	6171	478	-11.9	-34.0	241	18
2023-08-12T18:00	6203	476	-12.2	-34.3	242	18
2023-08-12T18:00	6236	474	-12.5	-35.7	242	18
2023-08-12T18:00	6270	472	-12.8	-35.9	243	18
2023-08-12T18:00	6303	470	-13.1	-36.2	243	18
2023-08-12T18:00	6335	468	-13.3	-36.8	244	18
2023-08-12T18:00	6366	466	-13.4	-37.9	244	17
2023-08-12T18:00	6396	464	-13.6	-37.8	244	17
2023-08-12T18:00	6432	462	-13.9	-38.1	243	16
2023-08-12T18:00	6462	460	-14.1	-39.0	241	16
2023-08-12T18:00	6496	458	-14.2	-40.7	240	15
2023-08-12T18:00	6526	456	-14.3	-40.4	239	15
2023-08-12T18:00	6555	454	-14.3	-39.1	239	15
2023-08-12T18:00	6582	453	-14.5	-38.7	240	15
2023-08-12T18:00	6618	451	-14.8	-38.7	242	15
2023-08-12T18:00	6648	449	-15.1	-38.3	244	16
2023-08-12T18:00	6682	447	-15.4	-41.2	246	16
2023-08-12T18:00	6713	445	-15.6	-40.1	247	16
2023-08-12T18:00	6737	443	-15.8	-39.1	247	16
2023-08-12T18:00	6770	442	-16.1	-39.2	246	16
2023-08-12T18:00	6804	440	-16.4	-40.0	245	16
2023-08-12T18:00	6834	438	-16.7	-39.3	243	16
2023-08-12T18:00	6867	436	-16.9	-40.9	242	16
2023-08-12T18:00	6897	434	-17.1	-43.4	241	16
2023-08-12T18:00	6926	432	-17.2	-44.6	240	16
2023-08-12T18:00	6959	431	-17.4	-44.5	240	16
2023-08-12T18:00	6990	429	-17.6	-43.7	240	17
2023-08-12T18:00	7020	427	-17.9	-43.1	241	17
2023-08-12T18:00	7049	425	-18.1	-43.1	241	17
2023-08-12T18:00	7077	424	-18.3	-43.0	242	17
2023-08-12T18:00	7107	422	-18.6		243	18
2023-08-12T18:00	7134	421	-18.8	-43.4	244	18
2023-08-12T18:00	7159	419	-18.9	-43.5	245	18
2023-08-12T18:00	7193	417	-19.1	-43.1	245	18
2023-08-12T18:00	7228	415	-19.4	-43.0	245	18
2023-08-12T18:00	7256	414	-19.6	-43.6	245	18
2023-08-12T18:00	7279	412	-19.8	-44.0	245	17
2023-08-12T18:00	7309	411	-20.0	-43.5	244	17
2023-08-12T18:00	7340	409	-20.3		244	17
2023-08-12T18:00	7366	408	-20.5	-43.4	244	17
2023-08-12T18:00	7396	406	-20.7	-43.6	244	18
2023-08-12T18:00	7427	404	-21.0	-43.8	244	18
2023-08-12T18:00	7455	403	-21.2	-44.0	244	18
2023-08-12T18:00	7484	401	-21.3	-44.6	243	19
2023-08-12T18:00	7519	399	-21.6	-45.2	243	19
2023-08-12T18:00	7544	398	-21.8	-45.6	243	18
2023-08-12T18:00	7573	396	-22.0	-45.6	243	18
2023-08-12T18:00	7605	395	-22.3	-40.8	243	18
2023-08-12T18:00	7636	393	-22.6	-35.8	243	18
2023-08-12T18:00	7664	391	-22.7	-44.6	243	18
2023-08-12T18:00	7694	390	-22.9	-43.7	243	18
2023-08-12T18:00	7729	388	-23.0	-44.5	243	19
2023-08-12T18:00	7753	387	-23.1	-46.9	242	19
2023-08-12T18:00	7779	385	-23.0	-48.2	242	19
2023-08-12T18:00	7808	384	-23.1	-48.4	242	19
2023-08-12T18:00	7839	382	-23.4	-48.7	242	19
2023-08-12T18:00	7872	381	-23.6	-48.9	242	19
2023-08-12T18:00	7902	379	-23.8	-49.2	241	19
2023-08-12T18:00	7927	378	-24.0	-49.5	241	19
2023-08-12T18:00	7958	376	-24.1	-50.0	240	19
2023-08-12T18:00	7993	374	-24.4	-50.1	240	19
2023-08-12T18:00	8025	373	-24.7	-50.5	239	20
2023-08-12T18:00	8058	371	-25.0	-50.7	239	20
2023-08-12T18:00	8091	369	-25.2	-50.6	238	20
2023-08-12T18:00	8125	368	-25.5	-51.0	238	21
2023-08-12T18:00	8158	366	-25.8	-51.2	238	21
2023-08-12T18:00	8186	364	-26.0	-51.0	238	21
2023-08-12T18:00	8221	363	-26.3	-51.3	237	21
2023-08-12T18:00	8256	361	-26.6	-51.7	237	20
2023-08-12T18:00	8292	359	-26.8	-51.8	236	20
2023-08-12T18:00	8320	358	-27.0	-52.0	236	20
2023-08-12T18:00	8347	356	-27.2	-52.1	235	19
2023-08-12T18:00	8376	355	-27.4	-52.1	235	19
2023-08-12T18:00	8411	353	-27.7	-52.2	236	19
2023-08-12T18:00	8442	352	-28.0	-52.3	237	19
2023-08-12T18:00	8478	350	-28.3	-52.3	238	19
2023-08-12T18:00	8501	349	-28.5	-52.4	239	18
2023-08-12T18:00	8528	348	-28.8	-52.4	239	18
2023-08-12T18:00	8557	346	-29.1	-52.5	238	17
2023-08-12T18:00	8586	345	-29.3	-52.4	236	17
2023-08-12T18:00	8617	343	-29.5	-52.4	235	17
2023-08-12T18:00	8650	342	-29.8	-52.5	234	17
2023-08-12T18:00	8679	340	-30.1	-52.6	234	18
2023-08-12T18:00	8710	339	-30.4	-52.7	234	18
2023-08-12T18:00	8740	337	-30.6	-52.6	233	18
2023-08-12T18:00	8765	336	-30.9	-52.5	233	19
2023-08-12T18:00	8794	335	-31.1	-52.3	232	19
2023-08-12T18:00	8826	333	-31.4	-52.0	232	19
2023-08-12T18:00	8855	332	-31.6	-53.3	233	19
2023-08-12T18:00	8880	331	-31.8		233	19
2023-08-12T18:00	8913	329	-32.0	-52.3	234	18
2023-08-12T18:00	8941	328	-32.2	-52.1	235	18
2023-08-12T18:00	8971	327	-32.5	-52.2	235	18
2023-08-12T18:00	8998	325	-32.8	-51.3	236	18
2023-08-12T18:00	9030	324	-33.0	-51.2	237	19
2023-08-12T18:00	9063	322	-33.3	-51.8	237	19
2023-08-12T18:00	9086	321	-33.5	-51.6	237	19
2023-08-12T18:00	9114	320	-33.8	-51.6	237	19
2023-08-12T18:00	9143	319	-34.0	-51.6	237	19
2023-08-12T18:00	9169	317	-34.2	-51.2	237	19
2023-08-12T18:00	9199	316	-34.5	-50.8	238	18
2023-08-12T18:00	9224	315	-34.7	-50.6	238	18
2023-08-12T18:00	9250	314	-34.9	-50.6	238	18
2023-08-12T18:00	9280	312	-35.2	-50.9	239	17
2023-08-12T18:00	9308	311	-35.4	-49.3	240	17
2023-08-12T18:00	9334	310	-35.6	-47.6	242	16
2023-08-12T18:00	9361	309	-35.7	-47.1	244	16
2023-08-12T18:00	9393	308	-35.9	-48.4	245	16
2023-08-12T18:00	9416	306	-36.1	-47.0	247	16
2023-08-12T18:00	9439	305	-36.2	-43.4	247	16
2023-08-12T18:00	9464	304	-36.3	-42.7	247	16
2023-08-12T18:00	9488	303	-36.6	-42.8	246	16
2023-08-12T18:00	9510	302	-36.7	-42.4	246	16
2023-08-12T18:00	9540	301	-36.9	-42.7	245	15
2023-08-12T18:00	9563	300	-37.0	-43.2	245	15
2023-08-12T18:00	9587	299	-37.2	-43.2	245	15
2023-08-12T18:00	9616	298	-37.3	-43.5	245	14
2023-08-12T18:00	9652	296	-37.6	-44.0	245	14
2023-08-12T18:00	9682	295	-37.9	-44.1	245	14
2023-08-12T18:00	9704	294	-38.0	-44.7	244	14
2023-08-12T18:00	9730	293	-38.2	-45.6	242	14
2023-08-12T18:00	9755	292	-38.2	-46.4	240	14
2023-08-12T18:00	9795	290	-38.4	-46.5	238	14
2023-08-12T18:00	9828	289	-38.6	-46.3	236	14
2023-08-12T18:00	9854	288	-38.9	-46.2	235	14
2023-08-12T18:00	9883	286	-39.2	-45.9	234	15
2023-08-12T18:00	9909	285	-39.4	-46.0	233	15
2023-08-12T18:00	9932	284	-39.6	-46.1	231	15
2023-08-12T18:00	9961	283	-39.9	-46.5	230	15
2023-08-12T18:00	9998	282	-40.2	-46.7	230	15
2023-08-12T18:00	10029	280	-40.5	-47.0	230	16
2023-08-12T18:00	10054	279	-40.7	-47.0	230	16
2023-08-12T18:00	10079	278	-40.9	-47.1	231	16
2023-08-12T18:00	10110	277	-41.1	-47.4	232	16
2023-08-12T18:00	10137	276	-41.2	-48.1	232	16
2023-08-12T18:00	10163	275	-41.5	-48.5	232	17
2023-08-12T18:00	10193	274	-41.8	-48.9	232	17
2023-08-12T18:00	10226	272	-42.0	-49.2	233	18
2023-08-12T18:00	10260	271	-42.3	-49.6	234	19
2023-08-12T18:00	10290	270	-42.6	-49.5	235	19
2023-08-12T18:00	10320	269	-42.9	-49.4	237	19
2023-08-12T18:00	10348	267	-43.1	-49.4	238	19
2023-08-12T18:00	10382	266	-43.4	-49.6	239	19
2023-08-12T18:00	10409	265	-43.7	-49.5	239	18
2023-08-12T18:00	10445	264	-44.0		239	19
2023-08-12T18:00	10478	262	-44.4	-49.6	239	19
2023-08-12T18:00	10512	261	-44.7	-49.6	238	19
2023-08-12T18:00	10538	260	-45.0	-49.8	237	19
2023-08-12T18:00	10569	259	-45.2	-49.7	236	20
2023-08-12T18:00	10603	257	-45.6	-49.9	235	20
2023-08-12T18:00	10638	256	-45.9	-50.2	234	21
2023-08-12T18:00	10669	255	-46.2	-50.3	234	21
2023-08-12T18:00	10697	254	-46.5	-50.3	235	22
2023-08-12T18:00	10729	253	-46.8	-50.5	236	22
2023-08-12T18:00	10757	251	-47.0	-50.6	237	22
2023-08-12T18:00	10788	250	-47.3	-50.8	237	22
2023-08-12T18:00	10813	249	-47.6	-51.0	237	22
2023-08-12T18:00	10839	248	-47.8	-51.3	237	22
2023-08-12T18:00	10873	247	-48.1	-51.5	237	22
2023-08-12T18:00	10899	246	-48.3	-51.8	236	22
2023-08-12T18:00	10925	245	-48.6	-52.2	236	22
2023-08-12T18:00	10952	244	-48.8	-52.8	235	22
2023-08-12T18:00	10978	243	-49.0	-53.5	235	22
2023-08-12T18:00	11002	242	-49.2	-53.9	236	22
2023-08-12T18:00	11028	241	-49.4	-53.9	236	22
2023-08-12T18:00	11054	240	-49.6	-53.9	237	22
2023-08-12T18:00	11085	239	-49.9	-54.0	237	22
2023-08-12T18:00	11116	238	-50.2	-54.3	237	21
2023-08-12T18:00	11146	237	-50.4	-54.9	236	21
2023-08-12T18:00	11175	236	-50.5	-56.0	235	20
2023-08-12T18:00	11206	235	-50.4	-56.9	235	19
2023-08-12T18:00	11241	234	-50.6	-57.7	234	19
2023-08-12T18:00	11269	233	-50.7	-58.0	235	18
2023-08-12T18:00	11307	231	-50.7	-58.3	235	17
2023-08-12T18:00	11330	230	-50.8	-58.4	234	17
2023-08-12T18:00	11357	230	-51.0	-58.4	234	17
2023-08-12T18:00	11381	229	-51.2	-58.2	233	17
2023-08-12T18:00	11405	228	-51.3	-58.1	232	17
2023-08-12T18:00	11428	227	-51.4	-58.1	231	18
2023-08-12T18:00	11455	226	-51.5	-58.6	231	18
2023-08-12T18:00	11481	225	-51.7	-59.5	231	18
2023-08-12T18:00	11513	224	-52.0	-60.3	231	18
2023-08-12T18:00	11544	223	-52.2	-60.6	231	18
2023-08-12T18:00	11572	222	-52.5	-60.7	231	18
2023-08-12T18:00	11602	221	-52.7	-60.7	232	18
2023-08-12T18:00	11631	220	-53.0	-60.7	233	19
2023-08-12T18:00	11662	219	-53.3	-60.9	233	19
2023-08-12T18:00	11687	218	-53.5	-61.1	233	19
2023-08-12T18:00	11713	217	-53.6	-60.8	233	19
2023-08-12T18:00	11739	216	-53.8	-60.6	233	20
2023-08-12T18:00	11766	215	-53.9	-60.7	233	20
2023-08-12T18:00	11794	215	-54.1	-60.6	233	20
2023-08-12T18:00	11818	214	-54.2	-60.2	232	20
2023-08-12T18:00	11844	213	-54.2	-60.2	232	20
2023-08-12T18:00	11870	212	-54.1	-60.6	231	20
2023-08-12T18:00	11895	211	-53.9	-61.1	230	20
2023-08-12T18:00	11922	210	-53.9	-61.7	229	20
2023-08-12T18:00	11946	209	-53.7	-62.8	229	19
2023-08-12T18:00	11972	209	-53.8	-65.0	229	19
2023-08-12T18:00	11997	208	-53.9	-66.7	228	19
2023-08-12T18:00	12020	207	-54.1	-66.9	228	19
2023-08-12T18:00	12046	206	-54.3	-66.7	228	19
2023-08-12T18:00	12075	205	-54.3	-66.5	228	19
2023-08-12T18:00	12102	204	-54.3	-66.5	228	19
2023-08-12T18:00	12129	204	-54.4	-66.7	227	19
2023-08-12T18:00	12162	203	-54.5	-66.7	227	19
2023-08-12T18:00	12190	202	-54.5	-66.7	226	19
2023-08-12T18:00	12219	201	-54.6	-66.7	224	19
2023-08-12T18:00	12245	200	-54.8	-66.8	223	19
2023-08-12T18:00	12271	199	-55.0	-66.8	223	20
2023-08-12T18:00	12298	198	-54.7	-66.6	223	20
2023-08-12T18:00	12323	198	-54.8		223	20
2023-08-12T18:00	12346	197	-54.7	-67.0	225	20
2023-08-12T18:00	12370	196	-54.7	-67.3	226	20
2023-08-12T18:00	12395	195	-54.7	-67.4	228	20
2023-08-12T18:00	12417	195	-54.8		229	20
2023-08-12T18:00	12441	194	-54.8	-67.6	230	20
2023-08-12T18:00	12463	193	-54.9	-67.7	231	20
2023-08-12T18:00	12485	193	-55.0	-67.7	231	20
2023-08-12T18:00	12507	192	-55.2	-67.7	232	20
2023-08-12T18:00	12528	191	-55.4	-67.8	232	19
2023-08-12T18:00	12547	191	-55.5	-67.9	233	18
2023-08-12T18:00	12567	190	-55.7	-68.3	234	17
2023-08-12T18:00	12590	189	-55.8	-69.3	235	17
2023-08-12T18:00	12613	189	-54.9	-70.2	236	16
2023-08-12T18:00	12636	188	-53.8	-71.4	234	16
2023-08-12T18:00	12659	187	-53.8	-72.5	232	16
2023-08-12T18:00	12682	187	-53.8	-72.6	229	16
2023-08-12T18:00	12707	186	-53.8	-72.4	227	17
2023-08-12T18:00	12728	185	-53.9	-72.5	225	17
2023-08-12T18:00	12746	185	-53.7	-72.6	224	17
2023-08-12T18:00	12767	184	-53.6	-73.2	224	17
2023-08-12T18:00	12784	184	-53.7	-74.1	224	18
2023-08-12T18:00	12803	183	-53.8	-74.5	224	18
2023-08-12T18:00	12822	183	-53.9	-74.6	225	19
2023-08-12T18:00	12842	182	-54.0	-74.8	225	19
2023-08-12T18:00	12864	182	-53.9	-75.1	225	19
2023-08-12T18:00	12885	181	-53.7	-75.6	226	20
2023-08-12T18:00	12905	180	-52.8	-75.6	226	20
2023-08-12T18:00	12929	180	-52.4	-76.0	227	20
2023-08-12T18:00	12951	179	-52.2	-76.2	228	20
2023-08-12T18:00	12978	178	-52.1	-76.3	230	19
2023-08-12T18:00	13003	178	-52.4	-76.5	231	19
2023-08-12T18:00	13027	177	-52.6	-76.7	231	19
2023-08-12T18:00	13049	176	-52.7	-76.8	231	19
2023-08-12T18:00	13071	176	-52.8	-76.8	231	19
2023-08-12T18:00	13093	175	-52.6	-76.7	230	19
2023-08-12T18:00	13116	175	-52.7	-76.8	230	19
2023-08-12T18:00	13138	174	-52.8	-76.8	230	19
2023-08-12T18:00	13160	173	-52.7	-76.9	229	19
2023-08-12T18:00	13182	173	-52.6	-76.9	229	20
2023-08-12T18:00	13206	172	-52.7	-77.1	230	20
2023-08-12T18:00	13228	172	-52.7	-77.1	230	20
2023-08-12T18:00	13252	171	-52.7	-77.1	230	20
2023-08-12T18:00	13274	170	-52.8	-77.2	230	20
2023-08-12T18:00	13298	170	-52.7	-77.1	230	20
2023-08-12T18:00	13323	169	-52.7	-77.3	231	20
2023-08-12T18:00	13347	168	-52.7	-77.3	231	20
2023-08-12T18:00	13370	168	-52.9	-77.5	232	20
2023-08-12T18:00	13392	167	-53.1	-77.7	232	19
2023-08-12T18:00	13416	167	-53.3	-77.6	233	18
2023-08-12T18:00	13439	166	-53.4	-77.7	234	18
2023-08-12T18:00	13464	165	-53.5	-77.8	234	17
2023-08-12T18:00	13487	165	-53.3	-77.6	234	17
2023-08-12T18:00	13511	164	-53.4	-77.7	234	17
2023-08-12T18:00	13536	164	-52.9	-77.3	233	17
2023-08-12T18:00	13558	163	-53.0	-77.4	233	17
2023-08-12T18:00	13581	162	-53.1	-77.5	233	17
2023-08-12T18:00	13605	162	-53.2	-77.5	233	17
2023-08-12T18:00	13627	161	-53.4	-77.9	233	17
2023-08-12T18:00	13648	161	-53.5	-78.0	233	17
2023-08-12T18:00	13671	160	-53.4	-78.1	233	17
2023-08-12T18:00	13696	160	-53.5	-78.4	234	17
2023-08-12T18:00	13719	159	-53.7	-78.6	234	17
2023-08-12T18:00	13742	158	-53.8	-78.6	235	17
2023-08-12T18:00	13762	158	-53.9	-78.7	235	17
2023-08-12T18:00	13787	157	-53.9	-78.7	235	16
2023-08-12T18:00	13809	157	-54.1	-78.7	234	16
2023-08-12T18:00	13831	156	-53.9	-78.5	233	15
2023-08-12T18:00	13852	156	-53.9	-78.5	232	15
2023-08-12T18:00	13875	155	-54.0	-78.6	231	15
2023-08-12T18:00	13894	155	-54.1	-78.7	230	15
2023-08-12T18:00	13915	154	-54.2	-79.0	230	14
2023-08-12T18:00	13938	154	-54.3	-79.0	230	14
2023-08-12T18:00	13959	153	-54.3	-79.0	231	14
2023-08-12T18:00	13981	153	-54.2	-79.2	232	14
2023-08-12T18:00	14005	152	-54.2	-79.2	231	14
2023-08-12T18:00	14026	151	-54.1	-79.1	230	14
2023-08-12T18:00	14051	151	-54.2	-79.2	228	13
2023-08-12T18:00	14073	150	-54.0	-79.0	225	13
2023-08-12T18:00	14099	150	-54.1	-79.1	221	13
2023-08-12T18:00	14119	149	-54.0	-78.8	219	13
2023-08-12T18:00	14146	149	-54.0	-78.6	217	13
2023-08-12T18:00	14166	148	-54.1	-78.7	216	13
2023-08-12T18:00	14192	148	-54.3	-78.6	215	13
2023-08-12T18:00	14214	147	-54.5	-78.6	215	13
2023-08-12T18:00	14235	147	-54.7	-78.5	215	13
2023-08-12T18:00	14257	146	-54.8	-78.6	214	14
2023-08-12T18:00	14280	146	-54.9	-78.5	215	14
2023-08-12T18:00	14302	145	-55.0	-78.4	215	14
2023-08-12T18:00	14325	145	-55.0	-78.2	217	15
2023-08-12T18:00	14344	144	-55.1	-78.3	218	15
2023-08-12T18:00	14367	144	-54.8	-77.9	220	15
2023-08-12T18:00	14386	143	-54.6	-77.7	222	15
2023-08-12T18:00	14411	143	-54.6	-77.9	223	16
2023-08-12T18:00	14433	142	-54.7	-78.0	224	16
2023-08-12T18:00	14456	142	-54.8	-78.1	226	15
2023-08-12T18:00	14477	141	-54.8	-78.1	227	15
2023-08-12T18:00	14499	141	-55.0	-78.2	228	15
2023-08-12T18:00	14523	140	-55.1	-78.5	229	14
2023-08-12T18:00	14546	140	-55.0	-78.8	230	14
2023-08-12T18:00	14569	139	-55.1	-79.0	231	13
2023-08-12T18:00	14593	139	-55.2	-79.3	232	13
2023-08-12T18:00	14617	138	-55.3	-79.6	232	12
2023-08-12T18:00	14641	138	-55.4	-80.1	232	12
2023-08-12T18:00	14665	137	-55.2	-80.4	232	11
2023-08-12T18:00	14689	137	-54.9	-80.4	230	11
2023-08-12T18:00	14712	136	-54.9	-80.7	228	10
2023-08-12T18:00	14739	136	-54.8	-80.6	226	10
2023-08-12T18:00	14764	135	-54.8	-80.6	224	11
2023-08-12T18:00	14790	134	-54.8	-80.6	222	11
2023-08-12T18:00	14817	134	-55.0	-80.8	221	12
2023-08-12T18:00	14843	133	-55.1	-80.9	220	12
2023-08-12T18:00	14867	133	-55.3	-81.0	219	13
2023-08-12T18:00	14893	132	-55.4	-81.1	218	13
2023-08-12T18:00	14918	132	-55.4	-81.4	217	13
2023-08-12T18:00	14945	131	-55.4	-81.4	216	12
2023-08-12T18:00	14975	131	-55.1	-81.1	215	12
2023-08-12T18:00	15000	130	-54.9	-81.3	214	11
2023-08-12T18:00	15026	130	-55.0	-81.3	212	11
2023-08-12T18:00	15050	129	-55.2	-81.5	210	10
2023-08-12T18:00	15078	129	-55.2	-81.2	207	10
2023-08-12T18:00	15101	128	-55.3	-81.3	205	10
2023-08-12T18:00	15126	128	-55.4	-81.4	204	10
2023-08-12T18:00	15149	127	-55.6	-81.5	204	10
2023-08-12T18:00	15174	127	-55.6	-81.5	205	11
2023-08-12T18:00	15198	126	-55.6	-81.5	207	11
2023-08-12T18:00	15220	126	-55.7	-81.6	210	11
2023-08-12T18:00	15248	125	-55.6	-81.5	213	12
2023-08-12T18:00	15270	125	-55.6	-81.5	215	12
2023-08-12T18:00	15293	124	-55.8	-81.7	217	13
2023-08-12T18:00	15318	124	-55.7	-81.6	219	13
2023-08-12T18:00	15339	123	-55.7	-81.6	221	13
2023-08-12T18:00	15362	123	-55.8	-81.7	223	14
2023-08-12T18:00	15385	122	-55.9	-81.8	225	14
2023-08-12T18:00	15406	122	-55.9	-81.8	227	14
2023-08-12T18:00	15430	122	-55.9	-81.8	229	14
2023-08-12T18:00	15451	121	-56.0	-82.1	231	14
2023-08-12T18:00	15471	121	-56.0	-82.1	232	14
2023-08-12T18:00	15494	120	-55.8	-82.0	233	14
2023-08-12T18:00	15513	120	-55.7	-82.2	234	13
2023-08-12T18:00	15536	120	-55.6	-82.1	234	12
2023-08-12T18:00	15558	119	-55.5	-82.0	235	12
2023-08-12T18:00	15579	119	-55.5	-82.3	236	11
2023-08-12T18:00	15604	118	-55.4	-82.2	237	11
2023-08-12T18:00	15625	118	-55.0	-81.9	239	10
2023-08-12T18:00	15648	118	-55.1	-82.0	240	10
2023-08-12T18:00	15670	117	-55.1	-82.0	242	10
2023-08-12T18:00	15691	117	-55.0	-81.9	243	11
2023-08-12T18:00	15713	116	-55.1	-82.0	245	11
2023-08-12T18:00	15736	116	-55.3	-82.2	246	11
2023-08-12T18:00	15756	116	-55.4	-82.2	246	11
2023-08-12T18:00	15780	115	-55.4	-82.2	247	11
2023-08-12T18:00	15801	115	-55.4	-82.2	247	10
2023-08-12T18:00	15824	114	-55.5	-82.3	248	10
2023-08-12T18:00	15848	114	-55.4	-82.2	248	9
2023-08-12T18:00	15868	114	-55.3	-82.2	247	9
2023-08-12T18:00	15890	113	-55.4	-82.2	247	8
2023-08-12T18:00	15914	113	-55.4	-82.2	245	8
2023-08-12T18:00	15936	112	-55.2	-82.4	243	8
2023-08-12T18:00	15962	112	-55.0	-82.3	239	8
2023-08-12T18:00	15983	111	-54.9	-82.2	234	8
2023-08-12T18:00	16011	111	-55.0	-82.3	230	8
2023-08-12T18:00	16037	111	-55.2	-82.1	226	8
2023-08-12T18:00	16059	110	-55.4	-82.2	223	8
2023-08-12T18:00	16083	110	-55.6	-82.1	222	8
2023-08-12T18:00	16107	109	-55.8	-82.2	221	9
2023-08-12T18:00	16132	109	-56.0	-82.4	220	9
2023-08-12T18:00	16155	109	-56.2	-82.3	219	9
2023-08-12T18:00	16179	108	-56.4	-82.4	218	9
2023-08-12T18:00	16202	108	-56.6	-82.6	216	10
2023-08-12T18:00	16227	107	-56.8	-82.7	215	10
2023-08-12T18:00	16253	107	-57.0	-82.6	214	10
2023-08-12T18:00	16276	107	-57.2	-82.8	212	11
2023-08-12T18:00	16301	106	-57.4	-82.9	211	11
2023-08-12T18:00	16324	106	-57.6	-83.1	210	10
2023-08-12T18:00	16346	105	-57.5	-83.0	209	10
2023-08-12T18:00	16369	105	-57.2	-82.8	210	10
2023-08-12T18:00	16394	105	-57.3	-83.1	211	10
2023-08-12T18:00	16419	104	-57.4	-83.2	212	10
2023-08-12T18:00	16442	104	-57.6	-83.1	213	10
2023-08-12T18:00	16466	103	-57.7	-83.2	213	9
2023-08-12T18:00	16490	103	-57.6	-83.1	213	10
2023-08-12T18:00	16512	103	-57.7	-83.2	214	10
2023-08-12T18:00	16536	102	-57.7	-83.4	215	10
2023-08-12T18:00	16556	102	-57.7	-83.4	217	10
2023-08-12T18:00	16580	101	-57.9	-83.6	219	10
2023-08-12T18:00	16602	101	-57.8	-83.8	221	9
2023-08-12T18:00	16623	101	-57.6	-83.6	222	9
2023-08-12T18:00	16648	100	-57.5	-83.9	221	9
2023-08-12T18:00	16670	100	-57.2	-83.9	219	8
2023-08-12T18:00	16696	100	-56.5	-83.7	216	8
2023-08-12T18:00	16717	99	-56.1	-83.8	213	8
2023-08-12T18:00	16739	99	-56.0	-83.7	211	8
2023-08-12T18:00	16762	99	-56.1	-83.8	210	9
2023-08-12T18:00	16785	98	-56.3	-83.9	210	9
2023-08-12T18:00	16811	98	-56.4	-83.7	210	9
2023-08-12T18:00	16832	98	-56.5	-83.7	211	9
2023-08-12T18:00	16854	97	-56.6	-83.8	211	9
2023-08-12T18:00	16878	97	-56.5	-84.1	211	9
2023-08-12T18:00	16902	96	-56.2	-83.9	211	8
2023-08-12T18:00	16923	96	-56.0	-84.1	212	8
2023-08-12T18:00	16946	96	-55.9	-84.0	213	7
2023-08-12T18:00	16968	95	-55.8	-83.9	214	7
2023-08-12T18:00	16991	95	-55.6	-83.8	215	7
2023-08-12T18:00	17015	95	-55.3	-84.0	215	7
2023-08-12T18:00	17036	94	-55.2	-83.9	214	6
2023-08-12T18:00	17057	94	-55.3	-84.0	213	6
2023-08-12T18:00	17080	94	-55.3	-83.6	212	7
2023-08-12T18:00	17098	94	-55.4	-83.6	211	7
2023-08-12T18:00	17123	93	-55.4	-83.6	211	7
2023-08-12T18:00	17141	93	-55.4	-83.6	211	8
2023-08-12T18:00	17164	93	-55.3	-83.6	211	8
2023-08-12T18:00	17186	92	-55.4	-83.6	213	9
2023-08-12T18:00	17206	92	-55.5	-83.7	216	10
2023-08-12T18:00	17228	92	-55.6	-83.8	219	10
2023-08-12T18:00	17253	91	-55.6	-83.8	222	10
2023-08-12T18:00	17274	91	-55.6	-83.8	225	10
2023-08-12T18:00	17296	91	-55.6	-83.8	227	10
2023-08-12T18:00	17315	90	-55.5	-83.7	229	10
2023-08-12T18:00	17337	90	-55.5	-84.1	231	10
2023-08-12T18:00	17359	90	-55.4	-84.0	232	9
2023-08-12T18:00	17380	89	-55.0	-83.7	234	9
2023-08-12T18:00	17399	89	-54.9	-83.7	236	9
2023-08-12T18:00	17423	89	-54.8	-83.6	238	9
2023-08-12T18:00	17445	89	-54.8	-83.6	240	9
2023-08-12T18:00	17466	88	-54.8	-83.6	242	9
2023-08-12T18:00	17491	88	-54.7	-83.5	243	9
2023-08-12T18:00	17511	88	-54.6	-83.4	244	8
2023-08-12T18:00	17534	87	-54.6	-83.4	244	8
2023-08-12T18:00	17558	87	-54.7	-83.5	244	7
2023-08-12T18:00	17582	87	-54.7	-83.5	244	7
2023-08-12T18:00	17603	86	-54.8	-83.6	244	6
2023-08-12T18:00	17625	86	-54.8	-83.6	244	5
2023-08-12T18:00	17647	86	-54.8	-83.6	243	5
2023-08-12T18:00	17672	86	-54.8	-83.6	241	4
2023-08-12T18:00	17696	85	-54.9	-83.7	238	3
2023-08-12T18:00	17717	85	-54.9	-83.7	233	3
2023-08-12T18:00	17744	85	-55.0	-83.7	227	3
2023-08-12T18:00	17765	84	-55.1	-83.8	222	3
2023-08-12T18:00	17789	84	-55.3	-83.6	216	2
2023-08-12T18:00	17814	84	-55.4	-83.6	212	2
2023-08-12T18:00	17837	83	-55.4	-83.6	207	2
2023-08-12T18:00	17863	83	-55.5	-83.7	201	2
2023-08-12T18:00	17889	83	-55.6	-83.8	195	2
2023-08-12T18:00	17911	82	-55.7	-83.9	191	3
2023-08-12T18:00	17939	82	-55.9	-84.0	188	3
2023-08-12T18:00	17961	82	-56.0	-84.1	189	3
2023-08-12T18:00	17984	81	-56.1	-84.2	191	4
2023-08-12T18:00	18011	81	-56.1	-84.2	194	4
2023-08-12T18:00	18034	81	-55.9	-84.0	199	5
2023-08-12T18:00	18059	80	-56.0	-84.1	204	5
2023-08-12T18:00	18084	80	-56.1	-84.2	210	6
2023-08-12T18:00	18108	80	-56.3	-84.3	215	6
2023-08-12T18:00	18131	80	-56.5	-84.5	221	7
2023-08-12T18:00	18154	79	-56.5	-84.5	225	7
2023-08-12T18:00	18179	79	-56.6	-84.5	228	8
2023-08-12T18:00	18202	79	-56.6	-84.5	229	8
2023-08-12T18:00	18230	78	-56.5	-84.5	229	8
2023-08-12T18:00	18252	78	-56.3	-84.3	227	7
2023-08-12T18:00	18281	78	-56.3	-84.3	223	6
2023-08-12T18:00	18305	77	-56.3	-84.3	217	6
2023-08-12T18:00	18334	77	-56.3	-84.3	209	5
2023-08-12T18:00	18362	77	-56.4	-84.4	199	4
2023-08-12T18:00	18388	76	-56.5	-84.5	193	3
2023-08-12T18:00	18412	76	-56.4	-84.4	193	3
2023-08-12T18:00	18438	76	-56.3	-84.7	204	3
2023-08-12T18:00	18460	76	-56.2	-84.6	220	3
2023-08-12T18:00	18484	75	-56.2	-84.6	233	4
2023-08-12T18:00	18506	75	-56.2	-84.6	242	4
2023-08-12T18:00	18530	75	-56.3	-84.7	247	5
2023-08-12T18:00	18553	74	-56.3	-84.7	251	6
2023-08-12T18:00	18575	74	-56.4	-84.8	253	6
2023-08-12T18:00	18602	74	-56.5	-84.9	253	6
2023-08-12T18:00	18622	74	-56.4	-84.8	252	6
2023-08-12T18:00	18650	73	-56.3	-84.7	247	5
2023-08-12T18:00	18677	73	-55.9	-84.4	237	5
2023-08-12T18:00	18698	73	-55.8	-84.3	222	4
2023-08-12T18:00	18722	72	-55.8	-84.8	203	4
2023-08-12T18:00	18746	72	-55.8	-84.8	185	4
2023-08-12T18:00	18770	72	-55.8	-84.3	172	5
2023-08-12T18:00	18797	72	-55.9	-84.4	165	5
2023-08-12T18:00	18821	71	-55.9	-84.4	162	6
2023-08-12T18:00	18846	71	-55.9	-84.4	162	6
2023-08-12T18:00	18874	71	-55.9	-84.4	163	6
2023-08-12T18:00	18895	71	-55.9	-84.4	167	6
2023-08-12T18:00	18917	70	-55.7	-84.7	172	5
2023-08-12T18:00	18942	70	-55.6	-84.6	180	5
2023-08-12T18:00	18967	70	-55.6	-84.6	189	4
2023-08-12T18:00	18991	69	-55.6	-84.6	196	4
2023-08-12T18:00	19016	69	-55.6	-84.6	198	4
2023-08-12T18:00	19037	69	-55.5	-84.5	196	5
2023-08-12T18:00	19067	69	-55.5	-84.5	190	5
2023-08-12T18:00	19091	68	-55.3	-84.4	184	5
2023-08-12T18:00	19119	68	-55.3	-84.4	178	6
2023-08-12T18:00	19143	68	-55.5	-84.5	174	6
2023-08-12T18:00	19168	68	-55.7	-84.3	171	7
2023-08-12T18:00	19197	67	-55.9	-84.4	171	7
2023-08-12T18:00	19220	67	-56.1	-84.6	172	8
2023-08-12T18:00	19244	67	-56.2	-84.6	174	8
2023-08-12T18:00	19272	67	-56.3	-84.7	177	9
2023-08-12T18:00	19295	66	-56.3	-84.7	179	10
2023-08-12T18:00	19319	66	-56.0	-84.5	180	10
2023-08-12T18:00	19344	66	-55.9	-84.4	179	10
2023-08-12T18:00	19372	65	-56.0	-84.5	177	10
2023-08-12T18:00	19397	65	-56.1	-84.6	174	10
2023-08-12T18:00	19424	65	-56.2	-84.6	171	10
2023-08-12T18:00	19448	65	-56.3	-85.1	169	10
2023-08-12T18:00	19474	64	-56.2	-85.1	169	9
2023-08-12T18:00	19502	64	-56.0	-84.9	170	9
2023-08-12T18:00	19525	64	-55.6	-84.6	172	8
2023-08-12T18:00	19550	64	-55.4	-84.5	175	8
2023-08-12T18:00	19572	63	-55.5	-84.5	179	7
2023-08-12T18:00	19595	63	-55.6	-84.6	182	7
2023-08-12T18:00	19622	63	-55.6	-84.6	184	6
2023-08-12T18:00	19646	63	-55.5	-84.5	187	5
2023-08-12T18:00	19671	62	-55.4	-84.9	190	4
2023-08-12T18:00	19695	62	-55.2	-84.8	194	4
2023-08-12T18:00	19724	62	-54.9	-84.6	198	3
2023-08-12T18:00	19743	62	-54.7	-84.4	200	3
2023-08-12T18:00	19770	61	-54.7	-84.4	196	2
2023-08-12T18:00	19795	61	-54.6	-84.3	187	2
2023-08-12T18:00	19817	61	-54.4	-84.2	176	3
2023-08-12T18:00	19840	61	-54.2	-84.0	165	3
2023-08-12T18:00	19865	61	-54.2	-84.5	157	3
2023-08-12T18:00	19888	60	-54.0	-84.4	152	4
2023-08-12T18:00	19909	60	-53.7	-84.2	146	4
2023-08-12T18:00	19932	60	-53.2	-83.8	141	3
2023-08-12T18:00	19957	60	-52.9	-84.1	134	3
2023-08-12T18:00	19978	60	-52.6	-83.9	125	3
2023-08-12T18:00	20000	59	-52.3	-83.7	115	3
2023-08-12T18:00	20022	59	-52.2	-83.6	108	3
2023-08-12T18:00	20044	59	-52.3	-83.7	104	3
2023-08-12T18:00	20067	59	-52.3	-83.7	104	3
2023-08-12T18:00	20092	58	-52.1	-83.5	107	3
2023-08-12T18:00	20116	58	-52.0	-82.9	110	3
2023-08-12T18:00	20139	58	-51.9	-82.8	114	4
2023-08-12T18:00	20163	58	-51.9	-82.8	117	4
2023-08-12T18:00	20188	58	-52.1	-83.0	120	4
2023-08-12T18:00	20212	57	-52.3	-83.1	120	4
2023-08-12T18:00	20235	57	-52.5	-83.3	119	5
2023-08-12T18:00	20259	57	-52.8	-83.0	118	5
2023-08-12T18:00	20285	57	-52.9	-83.1	115	6
2023-08-12T18:00	20306	57	-52.9	-83.1	113	6
2023-08-12T18:00	20332	56	-52.9	-83.6	112	6
2023-08-12T18:00	20357	56	-52.9	-83.6	113	6
2023-08-12T18:00	20383	56	-52.6	-83.3	115	6
2023-08-12T18:00	20406	56	-52.3	-83.1	117	6
2023-08-12T18:00	20430	56	-52.4	-83.2	119	5
2023-08-12T18:00	20459	55	-52.6	-83.3	121	5
2023-08-12T18:00	20485	55	-52.7	-83.4	122	4
2023-08-12T18:00	20508	55	-52.5	-83.3	121	4
2023-08-12T18:00	20536	55	-52.7	-83.4	118	3
2023-08-12T18:00	20561	54	-52.8	-83.5	114	3
2023-08-12T18:00	20582	54	-52.6	-83.3	110	3
2023-08-12T18:00	20608	54	-52.4	-83.2	106	3
2023-08-12T18:00	20632	54	-52.4	-83.2	104	4
2023-08-12T18:00	20660	54	-52.4	-83.2	102	4
2023-08-12T18:00	20686	53	-52.6	-83.3	101	4
2023-08-12T18:00	20710	53	-52.7	-83.4	101	5
2023-08-12T18:00	20738	53	-52.8	-83.5	101	5
2023-08-12T18:00	20763	53	-52.8	-83.0	101	5
2023-08-12T18:00	20790	53	-52.9	-83.1	102	4
2023-08-12T18:00	20810	52	-52.9	-83.1	104	4
2023-08-12T18:00	20839	52	-52.9	-83.1	105	4
2023-08-12T18:00	20866	52	-53.0	-83.1	106	4
2023-08-12T18:00	20890	52	-53.0	-83.1	106	4
2023-08-12T18:00	20917	51	-53.0	-83.1	108	4
2023-08-12T18:00	20939	51	-53.1	-83.2	110	5
2023-08-12T18:00	20966	51	-53.1	-83.2	114	5
2023-08-12T18:00	20994	51	-53.2	-83.3	117	6
2023-08-12T18:00	21020	51	-53.3		119	6
2023-08-12T18:00	21045	50	-53.4	-83.4	121	7
2023-08-12T18:00	21068	50	-53.3		122	7
2023-08-12T18:00	21097	50	-53.2	-83.3	123	7
2023-08-12T18:00	21122	50	-53.3		124	7
2023-08-12T18:00	21150	50	-53.3		125	7
2023-08-12T18:00	21173	49	-53.5	-83.5	126	7
2023-08-12T18:00	21205	49	-53.6	-83.6	127	7
2023-08-12T18:00	21230	49	-53.6	-83.6	127	6
2023-08-12T18:00	21257	49	-53.7	-83.7	127	6
2023-08-12T18:00	21287	49	-53.8	-83.7	127	6
2023-08-12T18:00	21309	48	-53.7	-83.7	129	6
2023-08-12T18:00	21340	48	-53.8	-83.7	131	6
2023-08-12T18:00	21370	48	-53.8	-83.7	135	6
2023-08-12T18:00	21395	48	-53.8	-83.7	139	6
2023-08-12T18:00	21423	48	-53.8	-83.7	144	6
2023-08-12T18:00	21456	47	-54.0	-83.9	149	6
2023-08-12T18:00	21483	47	-53.9	-83.8	155	6
2023-08-12T18:00	21510	47	-53.9	-83.8	161	6
2023-08-12T18:00	21536	47	-54.0	-83.9	166	5
2023-08-12T18:00	21564	47	-54.1	-84.0	170	5
2023-08-12T18:00	21588	46	-54.3	-84.1	174	4
2023-08-12T18:00	21617	46	-54.4	-84.2	177	4
2023-08-12T18:00	21642	46	-54.4	-84.2	181	3
2023-08-12T18:00	21669	46	-54.3	-84.1	183	3
2023-08-12T18:00	21698	46	-54.2	-84.0	182	3
2023-08-12T18:00	21726	45	-54.0	-83.9	177	3
2023-08-12T18:00	21753	45	-54.0	-83.9	170	4
2023-08-12T18:00	21782	45	-54.0	-83.9	163	4
2023-08-12T18:00	21810	45	-54.1	-84.0	159	5
2023-08-12T18:00	21837	45	-54.0	-84.4	158	5
2023-08-12T18:00	21865	44	-53.6	-84.1	158	5
2023-08-12T18:00	21894	44	-53.4	-83.9	160	5
2023-08-12T18:00	21920	44	-53.3	-83.9	163	4
2023-08-12T18:00	21947	44	-53.2	-83.8	167	4
2023-08-12T18:00	21976	44	-53.3	-83.9	173	3
2023-08-12T18:00	22001	43	-53.4	-83.9	180	2
2023-08-12T18:00	22030	43	-53.4	-83.9	190	1
2023-08-12T18:00	22056	43	-53.5	-84.0	208	1
2023-08-12T18:00	22081	43	-53.6	-84.1	314	0
2023-08-12T18:00	22107	43	-53.5	-84.0	8	1
2023-08-12T18:00	22134	43	-53.3	-83.9	20	2
2023-08-12T18:00	22165	42	-53.3		26	3
2023-08-12T18:00	22191	42	-53.4	-83.4	31	4
2023-08-12T18:00	22218	42	-53.6	-83.6	34	5
2023-08-12T18:00	22249	42	-53.7	-83.7	38	5
2023-08-12T18:00	22276	42	-53.9	-83.8	41	6
2023-08-12T18:00	22300	42	-54.1	-84.0	46	7
2023-08-12T18:00	22331	41	-54.2	-84.0	50	7
2023-08-12T18:00	22354	41	-54.4	-84.2	55	7
2023-08-12T18:00	22378	41	-54.3	-84.1	60	7
2023-08-12T18:00	22404	41	-54.3	-84.1	64	8
2023-08-12T18:00	22429	41	-54.4	-84.2	68	8
2023-08-12T18:00	22457	41	-54.5	-84.3	72	8
2023-08-12T18:00	22481	40	-54.6	-84.3	76	8
2023-08-12T18:00	22505	40	-54.7	-84.4	81	8
2023-08-12T18:00	22533	40	-54.8	-84.5	85	8
2023-08-12T18:00	22554	40	-54.8	-84.5	89	8
2023-08-12T18:00	22579	40	-54.8	-84.5	94	8
2023-08-12T18:00	22610	40	-54.8	-84.5	99	7
2023-08-12T18:00	22632	39	-54.8	-84.5	103	7
2023-08-12T18:00	22658	39	-54.8	-84.5	108	7
2023-08-12T18:00	22680	39	-54.9	-84.6	112	6
2023-08-12T18:00	22707	39	-55.0	-84.6	115	6
2023-08-12T18:00	22732	39	-54.9	-84.6	116	6
2023-08-12T18:00	22761	39	-54.6	-84.3	116	6
2023-08-12T18:00	22785	39	-54.5	-84.3	114	6
2023-08-12T18:00	22811	38	-54.6	-84.3	112	6
2023-08-12T18:00	22834	38	-54.6	-84.3	110	7
2023-08-12T18:00	22856	38	-54.6	-84.3	109	7
2023-08-12T18:00	22880	38	-54.6	-84.3	109	7
2023-08-12T18:00	22908	38	-54.5	-84.3	110	7
2023-08-12T18:00	22934	38	-54.5	-84.3	113	7
2023-08-12T18:00	22952	37	-54.6	-84.3	116	7
2023-08-12T18:00	22978	37	-54.6	-84.3	121	7
2023-08-12T18:00	23010	37	-54.6	-84.3	126	7
2023-08-12T18:00	23037	37	-54.6	-84.3	130	7
2023-08-12T18:00	23059	37	-54.6	-84.3	134	7
2023-08-12T18:00	23084	37	-54.6	-84.3	135	7
2023-08-12T18:00	23110	37	-54.5	-84.3	136	7
2023-08-12T18:00	23135	36	-54.5	-84.3	136	6
2023-08-12T18:00	23163	36	-54.6	-84.3	135	6
2023-08-12T18:00	23187	36	-54.5	-84.3	135	6
2023-08-12T18:00	23214	36	-54.5	-84.3	136	6
2023-08-12T18:00	23241	36	-54.6	-84.3	136	6
2023-08-12T18:00	23270	36	-54.7	-84.4	136	6
2023-08-12T18:00	23290	36	-54.4	-84.7	135	5
2023-08-12T18:00	23319	35	-54.0	-84.4	133	5
2023-08-12T18:00	23341	35	-53.9	-84.3	129	5
2023-08-12T18:00	23369	35	-53.9	-84.3	125	5
2023-08-12T18:00	23397	35	-53.7	-84.2	121	5
2023-08-12T18:00	23425	35	-53.7	-84.2	118	5
2023-08-12T18:00	23446	35	-53.7	-84.2	114	4
2023-08-12T18:00	23476	35	-53.6	-84.1	108	4
2023-08-12T18:00	23493	34	-53.5	-84.0	100	4
2023-08-12T18:00	23518	34	-53.4	-83.9	90	3
2023-08-12T18:00	23538	34	-53.2	-83.8	81	3
2023-08-12T18:00	23566	34	-53.0	-84.2	74	3
2023-08-12T18:00	23592	34	-53.0	-84.2	71	4
2023-08-12T18:00	23618	34	-52.9	-84.1	71	4
2023-08-12T18:00	23641	34	-52.7	-84.0	72	4
2023-08-12T18:00	23667	34	-52.7	-84.0	74	5
2023-08-12T18:00	23687	33	-52.7	-84.0	76	5
2023-08-12T18:00	23711	33	-52.7	-83.4	78	5
2023-08-12T18:00	23742	33	-52.8	-83.5	81	5
2023-08-12T18:00	23764	33	-52.9	-83.6	84	6
2023-08-12T18:00	23785	33	-52.8	-83.5	87	6
2023-08-12T18:00	23809	33	-52.9	-83.6	90	6
2023-08-12T18:00	23834	33	-52.9	-83.6	94	6
2023-08-12T18:00	23859	33	-52.9	-83.6	97	6
2023-08-12T18:00	23884	32	-52.9	-84.1	100	6
2023-08-12T18:00	23910	32	-52.7	-84.0	103	6
2023-08-12T18:00	23932	32	-52.6	-83.9	106	6
2023-08-12T18:00	23958	32	-52.4	-83.8	108	5
2023-08-12T18:00	23985	32	-52.4	-83.8	110	5
2023-08-12T18:00	24009	32	-52.3	-83.7	112	4
2023-08-12T18:00	24033	32	-52.3	-83.7	112	3
2023-08-12T18:00	24054	32	-52.2	-83.6	112	3
2023-08-12T18:00	24079	31	-52.0	-83.5	112	2
2023-08-12T18:00	24106	31	-52.0	-83.5	112	2
2023-08-12T18:00	24132	31	-52.0	-83.5	112	2
2023-08-12T18:00	24162	31	-52.2	-83.6	111	2
2023-08-12T18:00	24187	31	-52.1	-83.5	108	2
2023-08-12T18:00	24210	31	-52.1	-83.5	106	2
2023-08-12T18:00	24238	31	-52.2	-83.6	104	3
2023-08-12T18:00	24262	31	-52.4	-83.8	105	3
2023-08-12T18:00	24298	30	-52.5	-83.8	107	3
2023-08-12T18:00	24325	30	-52.6	-83.3	111	4
2023-08-12T18:00	24345	30	-52.5	-83.8	116	4
2023-08-12T18:00	24379	30	-52.4	-83.8	120	4
2023-08-12T18:00	24407	30	-52.4	-83.8	124	5
2023-08-12T18:00	24437	30	-52.4	-83.8	127	5
2023-08-12T18:00	24465	30	-52.2	-83.6	130	5
2023-08-12T18:00	24494	30	-51.9	-84.0	133	6
2023-08-12T18:00	24527	29	-51.5	-83.7	135	6
2023-08-12T18:00	24552	29	-51.1	-83.4	139	6
2023-08-12T18:00	24582	29	-50.9	-83.3	144	5
2023-08-12T18:00	24602	29	-50.8	-83.2	149	5
2023-08-12T18:00	24638	29	-50.7	-83.1	153	5
2023-08-12T18:00	24669	29	-50.7	-83.1	155	5
2023-08-12T18:00	24702	29	-50.8	-83.2	154	5
2023-08-12T18:00	24726	28	-51.0	-83.3	151	5
2023-08-12T18:00	24765	28	-51.0	-82.7	148	5
2023-08-12T18:00	24793	28	-50.9	-82.7	146	5
2023-08-12T18:00	24829	28	-51.0	-82.7	144	5
2023-08-12T18:00	24856	28	-51.1	-82.8	143	5
2023-08-12T18:00	24888	28	-51.3	-82.9	142	4
2023-08-12T18:00	24916	28	-51.6	-83.2	139	4
2023-08-12T18:00	24954	28	-51.8	-83.3	135	4
2023-08-12T18:00	24978	27	-51.9	-83.4	128	3
2023-08-12T18:00	25021	27	-52.0	-83.5	119	3
2023-08-12T18:00	25049	27	-51.9	-83.4	109	3
2023-08-12T18:00	25080	27	-52.0	-83.5	100	3
2023-08-12T18:00	25106	27	-52.1	-83.5	93	3
2023-08-12T18:00	25141	27	-52.0	-83.5	90	3
2023-08-12T18:00	25173	27	-51.9	-83.4	88	2
2023-08-12T18:00	25201	26	-51.9	-83.4	85	2
2023-08-12T18:00	25230	26	-51.8	-83.3	79	2
2023-08-12T18:00	25259	26	-51.8	-83.3	68	2
2023-08-12T18:00	25285	26	-51.7	-83.2	53	2
2023-08-12T18:00	25323	26	-51.7	-83.2	43	2
2023-08-12T18:00	25353	26	-51.6	-83.2	38	3
2023-08-12T18:00	25384	26	-51.5	-83.7	36	3
2023-08-12T18:00	25412	26	-51.5	-83.7	36	4
2023-08-12T18:00	25443	26	-51.5	-83.7	37	5
2023-08-12T18:00	25465	25	-51.5	-83.7	38	6
2023-08-12T18:00	25495	25	-51.4	-83.6	41	6
2023-08-12T18:00	25529	25	-51.4	-83.6	43	7
2023-08-12T18:00	25550	25	-51.2	-83.5	45	8
2023-08-12T18:00	25582	25	-51.0	-83.3	47	8
2023-08-12T18:00	25610	25	-51.0	-83.3	47	8
2023-08-12T18:00	25638	25	-51.0	-83.3	48	8
2023-08-12T18:00	25663	25	-51.0	-83.3	49	8
2023-08-12T18:00	25692	25	-51.0	-83.3	50	8
2023-08-12T18:00	25719	24	-51.0	-83.3	54	7
2023-08-12T18:00	25746	24	-50.9	-83.3	58	7
2023-08-12T18:00	25771	24	-50.8	-83.2	65	6
2023-08-12T18:00	25796	24	-50.5	-83.0	74	6
2023-08-12T18:00	25828	24	-50.4	-82.9	82	6
2023-08-12T18:00	25847	24	-50.3	-82.8	89	6
2023-08-12T18:00	25882	24	-50.2	-82.8	93	6
2023-08-12T18:00	25908	24	-50.0	-82.6	95	6
2023-08-12T18:00	25923	24	-50.0	-82.6	95	7
2023-08-12T18:00	25960	24	-50.1	-82.7	93	7
2023-08-12T18:00	25989	23	-50.1	-82.7	92	7
2023-08-12T18:00	26014	23	-50.2	-82.8	92	8
2023-08-12T18:00	26041	23	-50.2	-82.8	94	8
2023-08-12T18:00	26070	23	-50.2	-82.8	97	8
2023-08-12T18:00	26096	23	-50.0	-82.6	103	7
2023-08-12T18:00	26126	23	-49.6	-82.3	110	7
2023-08-12T18:00	26150	23	-49.5	-82.9	117	6
2023-08-12T18:00	26179	23	-49.5	-82.9	123	6
2023-08-12T18:00	26213	23	-49.5	-82.9	126	5
2023-08-12T18:00	26231	23	-49.4	-82.9	127	5
2023-08-12T18:00	26256	23	-49.3	-82.8	125	4
2023-08-12T18:00	26291	22	-49.2	-82.7	120	3
2023-08-12T18:00	26317	22	-48.9	-82.5	115	3
2023-08-12T18:00	26343	22	-48.7	-82.4	110	2
2023-08-12T18:00	26371	22	-48.6	-82.3	104	2
2023-08-12T18:00	26400	22	-48.5	-82.2	95	2
2023-08-12T18:00	26431	22	-48.4	-82.2	87	2
2023-08-12T18:00	26460	22	-48.2	-82.0	82	3
2023-08-12T18:00	26479	22	-48.1	-81.9	80	3
2023-08-12T18:00	26515	22	-48.0	-81.9	80	4
2023-08-12T18:00	26533	22	-47.9	-81.8	82	5
2023-08-12T18:00	26565	21	-47.9	-81.8	83	5
2023-08-12T18:00	26596	21	-47.7	-81.6	84	5
2023-08-12T18:00	26619	21	-47.6	-81.6	82	5
2023-08-12T18:00	26646	21	-47.6	-81.6	79	4
2023-08-12T18:00	26678	21	-47.5	-81.5	73	4
2023-08-12T18:00	26714	21	-47.5	-81.5	65	4
2023-08-12T18:00	26731	21	-47.5	-81.5	58	3
2023-08-12T18:00	26752	21	-47.5	-81.5	53	3
2023-08-12T18:00	26787	21	-47.4	-81.4	52	3
2023-08-12T18:00	26817	21	-47.4	-81.4	53	3
2023-08-12T18:00	26838	21	-47.3	-81.4	54	4
2023-08-12T18:00	26866	21	-47.3	-81.4	56	4
2023-08-12T18:00	26888	20	-47.4	-81.4	56	4
2023-08-12T18:00	26917	20	-47.4	-81.4	56	4
2023-08-12T18:00	26946	20	-47.6	-81.6	56	4
2023-08-12T18:00	26976	20	-47.7	-81.6	58	4
2023-08-12T18:00	26999	20	-47.7	-81.6	62	4
2023-08-12T18:00	27031	20	-47.7	-81.6	68	4
2023-08-12T18:00	27062	20	-47.7	-81.6	75	5
2023-08-12T18:00	27085	20	-47.7	-81.6	82	5
2023-08-12T18:00	27113	20	-47.8	-81.7	87	5
2023-08-12T18:00	27141	20	-47.9	-81.8	90	5
2023-08-12T18:00	27177	20	-48.0	-81.9	92	4
2023-08-12T18:00	27203	20	-47.8	-81.7	94	4
2023-08-12T18:00	27223	19	-47.6	-81.6	97	3
2023-08-12T18:00	27259	19	-47.4	-81.4	101	2
2023-08-12T18:00	27289	19	-47.4	-81.4	106	2
2023-08-12T18:00	27317	19	-47.2	-82.1	109	2
2023-08-12T18:00	27345	19	-47.2	-82.1	109	3
2023-08-12T18:00	27371	19	-47.1	-81.2	108	3
2023-08-12T18:00	27406	19	-47.2	-81.3	107	4
2023-08-12T18:00	27431	19	-47.4	-81.4	106	4
2023-08-12T18:00	27463	19	-47.4	-81.4	105	4
2023-08-12T18:00	27494	19	-47.3	-81.4	102	4
2023-08-12T18:00	27522	19	-47.2	-81.3	96	3
2023-08-12T18:00	27554	19	-47.1	-81.2	84	3
2023-08-12T18:00	27588	18	-46.9	-81.9	66	2
2023-08-12T18:00	27612	18	-46.9	-81.9	50	3
2023-08-12T18:00	27641	18	-46.9	-81.9	43	3
2023-08-12T18:00	27671	18	-46.9	-81.9	43	4
2023-08-12T18:00	27704	18	-46.8	-81.8	48	4
2023-08-12T18:00	27731	18	-46.7	-81.7	54	5
2023-08-12T18:00	27769	18	-46.6	-81.7	61	5
2023-08-12T18:00	27802	18	-46.7	-81.7	67	5
2023-08-12T18:00	27836	18	-46.8	-81.8	73	6
2023-08-12T18:00	27851	18	-46.9	-81.1	77	6
2023-08-12T18:00	27897	18	-47.0	-81.1	79	6
2023-08-12T18:00	27922	18	-47.0	-81.1	78	5
2023-08-12T18:00	27954	17	-47.0	-81.1	76	5
2023-08-12T18:00	27983	17	-47.0	-81.1	72	5
2023-08-12T18:00	28017	17	-46.9	-81.9	69	4
2023-08-12T18:00	28043	17	-47.0	-81.9	69	4
2023-08-12T18:00	28075	17	-47.0	-81.9	73	4
2023-08-12T18:00	28119	17	-46.9	-81.9	79	4
2023-08-12T18:00	28138	17	-46.7	-81.7	85	5
2023-08-12T18:00	28179	17	-46.7	-81.7	90	5
2023-08-12T18:00	28203	17	-46.8	-81.8	94	6
2023-08-12T18:00	28247	17	-46.9	-81.9	96	6
2023-08-12T18:00	28260	17	-47.0	-81.9	98	6
2023-08-12T18:00	28305	17	-47.0	-81.9	98	7
2023-08-12T18:00	28338	16	-46.9	-81.9	97	6
2023-08-12T18:00	28360	16	-46.9	-81.9	95	6
2023-08-12T18:00	28396	16	-46.7	-81.7	90	5
2023-08-12T18:00	28412	16	-46.6	-81.7	84	5
2023-08-12T18:00	28446	16	-46.6	-81.7	77	5
2023-08-12T18:00	28489	16	-46.5	-81.6	69	4
2023-08-12T18:00	28511	16	-46.6	-81.7	61	4
2023-08-12T18:00	28541	16	-46.6	-81.7	53	5
2023-08-12T18:00	28569	16	-46.4	-81.5	44	5
2023-08-12T18:00	28591	16	-46.3	-81.4	36	5
2023-08-12T18:00	28624	16	-46.4	-81.5	30	5
2023-08-12T18:00	28659	16	-46.5	-81.6	26	6
2023-08-12T18:00	28678	16	-46.4	-81.5	24	6
2023-08-12T18:00	28709	16	-46.5	-81.6	26	7
2023-08-12T18:00	28728	16	-46.5	-81.6	28	7
2023-08-12T18:00	28754	15	-46.4	-81.5	31	7
2023-08-12T18:00	28790	15	-46.3	-81.4	34	8
2023-08-12T18:00	28825	15	-46.4	-81.5	36	8
2023-08-12T18:00	28847	15	-46.5	-81.6	37	8
2023-08-12T18:00	28874	15	-46.5	-81.6	38	8
2023-08-12T18:00	28890	15	-46.4	-81.5	40	8
2023-08-12T18:00	28917	15	-46.4	-81.5	44	9
2023-08-12T18:00	28951	15	-46.2	-81.4	48	9
2023-08-12T18:00	28976	15	-46.0	-81.2	53	9
2023-08-12T18:00	29007	15	-45.9	-81.2	59	9
2023-08-12T18:00	29022	15	-45.7	-81.0	64	9
2023-08-12T18:00	29054	15	-45.6	-80.9	69	9
2023-08-12T18:00	29089	15	-45.6	-80.9	72	8
2023-08-12T18:00	29109	15	-45.6	-80.9	75	8
2023-08-12T18:00	29138	15	-45.6	-80.9	77	8
2023-08-12T18:00	29155	15	-45.4	-80.8	76	7
2023-08-12T18:00	29191	14	-45.2	-81.6	74	7
2023-08-12T18:00	29218	14	-45.1	-81.5	70	6
2023-08-12T18:00	29244	14	-44.9	-81.4	65	7
2023-08-12T18:00	29277	14	-44.8	-81.3	62	7
2023-08-12T18:00	29296	14	-44.5	-81.1	59	8
2023-08-12T18:00	29324	14	-44.4	-81.0	58	9
2023-08-12T18:00	29358	14	-44.3	-80.9	57	10
2023-08-12T18:00	29396	14	-44.3	-80.9	57	11
2023-08-12T18:00	29416	14	-44.1	-80.8	57	11
2023-08-12T18:00	29448	14	-43.9	-80.7	58	11
2023-08-12T18:00	29481	14	-43.7	-80.5	59	11
2023-08-12T18:00	29506	14	-43.6	-80.4	60	10
2023-08-12T18:00	29541	14	-43.7	-80.5	62	10
2023-08-12T18:00	29566	14	-43.6	-80.4	64	10
2023-08-12T18:00	29604	14	-43.6	-80.4	66	10
2023-08-12T18:00	29631	14	-43.6	-80.4	69	10
2023-08-12T18:00	29674	13	-43.6	-80.4	71	11
2023-08-12T18:00	29693	13	-43.7	-80.5	74	11
2023-08-12T18:00	29724	13	-43.6	-80.4	77	11
2023-08-12T18:00	29755	13	-43.4	-80.3	81	11
2023-08-12T18:00	29780	13	-43.3	-80.2	84	11
2023-08-12T18:00	29821	13	-43.1	-80.1	87	11
2023-08-12T18:00	29843	13	-43.0	-80.0	90	11
2023-08-12T18:00	29879	13	-42.9	-80.0	91	12
2023-08-12T18:00	29909	13	-42.8	-79.9	91	12
2023-08-12T18:00	29950	13	-42.8	-79.9	91	12
2023-08-12T18:00	29992	13	-43.0	-80.0	90	11
2023-08-12T18:00	30010	13	-42.9	-80.0	90	11
2023-08-12T18:00	30043	13	-42.9	-80.0	89	10
2023-08-12T18:00	30069	13	-42.9	-80.0	88	9
2023-08-12T18:00	30101	13	-42.9	-80.0	87	9
2023-08-12T18:00	30127	13	-42.8	-79.9	85	8
2023-08-12T18:00	30177	13	-42.6	-79.7	82	7
2023-08-12T18:00	30199	12	-42.5	-79.7	80	7
2023-08-12T18:00	30224	12	-42.3	-80.6	78	6
2023-08-12T18:00	30253	12	-42.0	-80.4	76	6
2023-08-12T18:00	30285	12	-41.8	-80.3	73	6
2023-08-12T18:00	30312	12	-41.7	-80.2	70	6
2023-08-12T18:00	30334	12	-41.6	-80.1	67	6
2023-08-12T18:00	30372	12	-41.2	-79.9	65	7
2023-08-12T18:00	30405	12	-40.7	-79.5	64	8
2023-08-12T18:00	30427	12	-40.4	-79.3	65	8
2023-08-12T18:00	30451	12	-40.2	-79.2	66	9
2023-08-12T18:00	30487	12	-40.0	-79.0	67	10
2023-08-12T18:00	30509	12	-39.9	-79.0	69	11
2023-08-12T18:00	30538	12	-39.9	-79.0	71	11
2023-08-12T18:00	30557	12	-39.6	-78.8	74	11
2023-08-12T18:00	30600	12	-39.4	-78.6	76	11
2023-08-12T18:00	30612	12	-39.2	-78.5	78	11
2023-08-12T18:00	30662	12	-39.1	-78.4	80	11
2023-08-12T18:00	30687	12	-39.1	-78.4	82	10
2023-08-12T18:00	30703	12	-39.2	-78.5	86	9
2023-08-12T18:00	30738	12	-39.3	-78.5	90	8
2023-08-12T18:00	30777	11	-39.3	-78.5	94	8
2023-08-12T18:00	30799	11	-39.2	-78.5	97	8
2023-08-12T18:00	30822	11	-39.1	-78.4	98	8
2023-08-12T18:00	30861	11	-39.1	-78.4	96	7
2023-08-12T18:00	30898	11	-39.2	-78.5	93	7
2023-08-12T18:00	30927	11	-39.1	-78.4	88	7
2023-08-12T18:00	30954	11	-38.9	-78.3	82	7
2023-08-12T18:00	30998	11	-38.9	-78.3	78	8
2023-08-12T18:00	31025	11	-38.9	-78.3	75	8
2023-08-12T18:00	31043	11	-38.9	-78.3	73	8
2023-08-12T18:00	31084	11	-38.9	-78.3	72	8
2023-08-12T18:00	31118	11	-39.0	-78.3	72	8
2023-08-12T18:00	31154	11	-39.1	-78.4	72	8
2023-08-12T18:00	31192	11	-39.1	-78.4	73	7
2023-08-12T18:00	31211	11	-39.2	-78.5	75	7
2023-08-12T18:00	31257	11	-39.3	-78.5	77	6
2023-08-12T18:00	31291	11	-39.3	-78.5	80	6
2023-08-12T18:00	31320	11	-39.4	-78.6	82	5
2023-08-12T18:00	31365	11	-39.7	-78.8	82	5
2023-08-12T18:00	31394	10	-39.7	-78.8	79	5
2023-08-12T18:00	31441	10	-39.7	-78.8	74	5
2023-08-12T18:00	31475	10	-39.6	-78.8	67	5
2023-08-12T18:00	31509	10	-39.8	-78.9	62	5
2023-08-12T18:00	31528	10	-39.9	-79.0	58	6
2023-08-12T18:00	31564	10	-40.0	-79.0	57	6
2023-08-12T18:00	31606	10	-40.1	-79.1	59	7
2023-08-12T18:00	31652	10	-40.2	-79.2	62	7
2023-08-12T18:00	31684	10	-40.3	-79.2	66	8
2023-08-12T18:00	31743	10	-40.4	-79.3	70	8
2023-08-12T18:00	31765	10	-40.4	-79.3	73	9
2023-08-12T18:00	31791	10	-40.5	-79.4	75	9
2023-08-12T18:00	31842	10	-40.5	-79.4	76	8
2023-08-12T18:00	31875	10	-40.5	-79.4	76	8
2023-08-12T18:00	31916	10	-40.6	-79.5	77	7
2023-08-12T18:00	31950	10	-40.8	-79.6	78	7
2023-08-12T18:00	31986	10	-41.0	-79.7	81	7
2023-08-12T18:00	32017	10	-41.1	-79.8	85	7
2023-08-12T18:00	32045	10	-41.0	-79.7	88	7
2023-08-12T18:00	32099	9	-40.9	-79.7	91	8
2023-08-12T18:00	32131	9	-40.8	-79.6	93	8
2023-08-12T18:00	32160	9	-40.9	-79.7	95	8
2023-08-12T18:00	32199	9	-40.9	-79.7	97	8
2023-08-12T18:00	32243	9	-40.9	-79.7	99	8
2023-08-12T18:00	32260	9	-41.0	-79.7	100	8
2023-08-12T18:00	32303	9	-41.0	-79.7	101	8
2023-08-12T18:00	32341	9	-40.9	-79.7	102	8
2023-08-12T18:00	32373	9	-40.6	-79.5	103	8
2023-08-12T18:00	32390	9	-40.4	-79.3	104	8
2023-08-12T18:00	32438	9	-40.3	-79.2	104	8
2023-08-12T18:00	32476	9	-40.4	-79.3	103	7
2023-08-12T18:00	32513	9	-40.5	-79.4	100	7
2023-08-12T18:00	32542	9	-40.8	-79.6	96	7
2023-08-12T18:00	32561	9	-40.8	-79.6	91	7
2023-08-12T18:00	32590	9	-40.8	-79.6	86	7
2023-08-12T18:00	32637	9	-40.8	-79.6	81	7
2023-08-12T18:00	32661	9	-40.8	-79.6	77	8
2023-08-12T18:00	32684	9	-40.7	-79.5	75	9
2023-08-12T18:00	32739	9	-40.5	-79.4	74	10
2023-08-12T18:00	32748	9	-40.4	-79.3	74	10
2023-08-12T18:00	32777	9	-40.4	-79.3	74	11
2023-08-12T18:00	32788	9	-40.4	-79.3	74	12
2023-08-12T18:00	32838	8	-40.4	-79.3	74	12
2023-08-12T18:00	32867	8	-40.3	-79.2	74	12
2023-08-12T18:00	32910	8	-40.4	-79.3	75	12
2023-08-12T18:00	32931	8	-40.4	-79.3	75	12
2023-08-12T18:00	32937	8	-40.4	-79.3	76	12
2023-08-12T18:00	32973	8	-40.5	-79.4	77	12
2023-08-12T18:00	33020	8	-40.5	-79.4	78	12
2023-08-12T18:00	33040	8	-40.4	-79.3	80	12
2023-08-12T18:00	33063	8	-40.3	-79.2	82	12
2023-08-12T18:00	33093	8	-40.1	-79.1	86	12
2023-08-12T18:00	33119	8	-39.8	-78.9	90	11
2023-08-12T18:00	33142	8	-39.7	-78.8	94	11
2023-08-12T18:00	33179	8	-39.4	-78.6	99	11
2023-08-12T18:00	33195	8	-39.3	-78.5	103	11
2023-08-12T18:00	33213	8	-39.3	-78.5	108	10
2023-08-12T18:00	33239	8	-39.4	-78.6	111	10
2023-08-12T18:00	33277	8	-39.4	-78.6	111	10
2023-08-12T18:00	33302	8	-39.2	-78.5	109	10
2023-08-12T18:00	33340	8	-38.9	-78.3	103	10
2023-08-12T18:00	33364	8	-38.5	-78.0	96	10
2023-08-12T18:00	33387	8	-38.4	-77.9	89	10
2023-08-12T18:00	33417	8	-38.4	-77.9	83	11
2023-08-12T18:00	33443	8	-38.4	-77.9	80	12
2023-08-12T18:00	33462	8	-38.5	-78.0	79	12
2023-08-12T18:00	33513	8	-38.3	-77.9	78	12
2023-08-12T18:00	33548	8	-38.0	-77.6	78	12
2023-08-12T18:00	33560	8	-37.7	-77.4	79	11
2023-08-12T18:00	33578	8	-37.7	-77.4	80	11
2023-08-12T18:00	33611	8	-37.7	-77.4	80	10
2023-08-12T18:00	33633	8	-37.8	-77.5	79	10
2023-08-12T18:00	33680	8	-37.8	-77.5	77	10
2023-08-12T18:00	33703	7	-37.6	-77.4	76	11
2023-08-12T18:00	33740	7	-37.4	-77.2	75	12
2023-08-12T18:00	33751	7	-37.3	-77.2	75	13
2023-08-12T18:00	33773	7	-37.2	-77.1	76	13
2023-08-12T18:00	33817	7	-36.9	-76.9	77	13
2023-08-12T18:00	33823	7	-36.6	-76.7	78	12
2023-08-12T18:00	33879	7	-36.5	-76.6	79	11
2023-08-12T18:00	33896	7	-36.2	-76.4	79	10
2023-08-12T18:00	33920	7	-36.1	-76.3	78	9
2023-08-12T18:00	33962	7	-36.2	-76.4	78	8
2023-08-12T18:00	33990	7	-36.3	-76.5	77	7
2023-08-12T18:00	34008	7	-36.5	-76.6	77	6
2023-08-12T18:00	34041	7	-36.7	-76.7	76	5
2023-08-12T18:00	34070	7	-36.8	-76.8	73	5
2023-08-12T18:00	34095	7	-36.9	-76.9	70	5
2023-08-12T18:00	34131	7	-36.9	-76.9	68	6
2023-08-12T18:00	34159	7	-36.6	-76.7	68	6
2023-08-12T18:00	34173	7	-36.5	-76.6	70	7
2023-08-12T18:00	34216	7	-36.4	-76.5	73	8
2023-08-12T18:00	34254	7	-36.3	-76.5	76	8
2023-08-12T18:00	34300	7	-35.4	-75.8	84	8
2023-08-12T18:00	34334	7	-34.8	-75.4	86	7
2023-08-12T18:00	34360	7	-34.5	-75.2	88	7
2023-08-12T18:00	34400	7	-34.5	-75.2	89	8
2023-08-12T18:00	34428	7	-34.3	-75.1	90	8
2023-08-12T18:00	34446	7	-34.4	-75.2	93	9
2023-08-12T18:00	34477	7	-34.2	-75.0	95	10
2023-08-12T18:00	34500	7	-33.9	-74.8	98	11
2023-08-12T18:00	34540	7	-33.8	-74.7	101	11
2023-08-12T18:00	34559	7	-33.8	-74.7	104	11
2023-08-12T18:00	34577	7	-33.7	-74.7	107	11
2023-08-12T18:00	34627	7	-33.4	-74.5	110	10
2023-08-12T18:00	34667	7	-33.1	-74.3	113	9
2023-08-12T18:00	34700	7	-32.6	-73.9	115	8
2023-08-12T18:00	34702	6	-32.4	-73.8	115	6
2023-08-12T18:00	34746	6	-32.1	-73.6	113	5
2023-08-12T18:00	34784	6	-31.6	-73.2	105	4
2023-08-12T18:00	34826	6	-31.1	-72.9	90	3
2023-08-12T18:00	34827	6	-30.8	-72.7	70	3
2023-08-12T18:00	34836	6	-30.5	-72.5	55	3
2023-08-12T18:00	34901	6	-30.5	-72.5	49	3
2023-08-12T18:00	34931	6	-30.2	-72.3	49	4
2023-08-12T18:00	34976	6	-29.9	-72.1	54	4
2023-08-12T18:00	34995	6	-29.7	-71.9	71	5
2023-08-12T18:00	35035	6	-29.7	-71.9	79	6
2023-08-12T18:00	35046	6	-29.8	-72.0	85	6
2023-08-12T18:00	35062	6	-29.9	-72.1	90	7
2023-08-12T18:00	35104	6	-29.9	-72.1	93	8
2023-08-12T18:00	35157	6	-30.0	-72.1	95	9
2023-08-12T18:00	35165	6	-30.0	-72.1	97	10
2023-08-12T18:00	35193	6	-30.0	-72.1	99	10
2023-08-13T00:00	112	1003	20.4	18.4	260	4
2023-08-13T00:00	141	999	20.6	18.3	253	4
2023-08-13T00:00	168	996	21.0	18.1	256	6
2023-08-13T00:00	197	993	21.0	18.2	259	7
2023-08-13T00:00	226	990	20.7	18.1	263	9
2023-08-13T00:00	253	987	20.5	18.0	267	10
2023-08-13T00:00	278	984	20.4	18.1	271	10
2023-08-13T00:00	299	981	20.4	18.1	274	11
2023-08-13T00:00	329	978	20.2	18.0	277	11
2023-08-13T00:00	359	975	20.4	18.0	280	11
2023-08-13T00:00	384	972	20.3	17.8	283	11
2023-08-13T00:00	408	969	20.4	17.7	285	11
2023-08-13T00:00	431	966	20.2	17.7	286	11
2023-08-13T00:00	456	964	20.0	17.6	287	11
2023-08-13T00:00	480	961	19.9	17.5	287	11
2023-08-13T00:00	506	958	19.8	17.4	287	10
2023-08-13T00:00	529	955	19.7	17.2	287	10
2023-08-13T00:00	555	953	19.8	17.1	288	10
2023-08-13T00:00	579	950	20.0	16.7	289	10
2023-08-13T00:00	603	947	19.9	16.5	290	10
2023-08-13T00:00	627	945	19.9	15.7	292	10
2023-08-13T00:00	655	942	19.8	14.7	292	10
2023-08-13T00:00	682	939	19.7	14.4	292	10
2023-08-13T00:00	707	936	19.4	14.4	292	11
2023-08-13T00:00	730	934	19.2	15.0	290	11
2023-08-13T00:00	753	931	19.0	15.7	289	11
2023-08-13T00:00	778	928	18.9	16.0	287	11
2023-08-13T00:00	806	925	18.8	15.8	286	11
2023-08-13T00:00	833	922	18.7	15.3	284	10
2023-08-13T00:00	866	919	18.5	15.1	282	9
2023-08-13T00:00	894	916	18.5	14.8	278	9
2023-08-13T00:00	915	914	18.5	14.7	275	8
2023-08-13T00:00	937	911	18.3	14.9	272	8
2023-08-13T00:00	959	909	18.1	14.8	270	8
2023-08-13T00:00	978	907	18.0	14.8	270	8
2023-08-13T00:00	1002	904	17.7	14.7	271	8
2023-08-13T00:00	1030	902	17.5	14.7	272	8
2023-08-13T00:00	1058	899	17.3	14.4	274	8
2023-08-13T00:00	1079	896	17.1	14.3	275	9
2023-08-13T00:00	1101	894	17.0	13.8	275	9
2023-08-13T00:00	1126	892	17.0	13.2	272	9
2023-08-13T00:00	1150	889	16.9	13.0	269	9
2023-08-13T00:00	1172	887	16.8	12.9	265	9
2023-08-13T00:00	1197	884	16.7	12.3	262	9
2023-08-13T00:00	1221	882	16.9	11.6	262	9
2023-08-13T00:00	1243	879	16.9	11.0	262	10
2023-08-13T00:00	1262	877	16.9		264	10
2023-08-13T00:00	1287	875	16.8	10.6	265	10
2023-08-13T00:00	1313	872	16.7	11.0	265	10
2023-08-13T00:00	1336	870	16.5		264	10
2023-08-13T00:00	1360	867	16.3	10.7	262	10
2023-08-13T00:00	1385	865	16.2	10.4	260	10
2023-08-13T00:00	1411	862	16.1	10.0	259	10
2023-08-13T00:00	1431	860	16.1	9.9	259	11
2023-08-13T00:00	1450	858	16.0	9.9	259	11
2023-08-13T00:00	1476	856	15.8	9.8	259	11
2023-08-13T00:00	1498	854	15.7	9.9	258	10
2023-08-13T00:00	1515	851	15.6	9.5	257	10
2023-08-13T00:00	1546	849	15.5	8.8	254	10
2023-08-13T00:00	1574	846	15.4	8.4	251	10
2023-08-13T00:00	1599	843	15.2	8.3	248	10
2023-08-13T00:00	1626	841	15.0	8.4	247	10
2023-08-13T00:00	1653	838	14.8	8.2	247	10
2023-08-13T00:00	1682	835	14.5	8.5	248	10
2023-08-13T00:00	1709	833	14.3	8.6	248	10
2023-08-13T00:00	1734	830	14.0	8.5	249	10
2023-08-13T00:00	1756	828	13.8	8.5	249	10
2023-08-13T00:00	1780	826	13.7	8.7	250	10
2023-08-13T00:00	1806	823	13.4	8.7	250	10
2023-08-13T00:00	1836	820	13.1	8.5	250	10
2023-08-13T00:00	1860	818	12.9	8.6	250	10
2023-08-13T00:00	1885	815	12.7	8.1	250	11
2023-08-13T00:00	1906	813	12.6	7.8	250	11
2023-08-13T00:00	1926	811	12.4	7.3	250	11
2023-08-13T00:00	1958	808	12.5	4.3	251	11
2023-08-13T00:00	1981	806	12.3	5.0	252	11
2023-08-13T00:00	2002	804	12.1	4.9	252	10
2023-08-13T00:00	2027	802	11.9	5.1	251	10
2023-08-13T00:00	2050	800	11.8	5.1	249	9
2023-08-13T00:00	2070	798	11.6	5.4	246	10
2023-08-13T00:00	2092	795	11.4	5.6	244	10
2023-08-13T00:00	2115	793	11.2	5.8	243	10
2023-08-13T00:00	2137	791	11.1	5.9	242	10
2023-08-13T00:00	2157	789	10.9	6.1	242	11
2023-08-13T00:00	2187	787	10.6	6.2	242	11
2023-08-13T00:00	2206	784	10.4	6.2	242	11
2023-08-13T00:00	2230	782	10.2	6.3	242	11
2023-08-13T00:00	2250	780	10.0	6.4	242	11
2023-08-13T00:00	2277	778	9.7	6.5	243	11
2023-08-13T00:00	2303	776	9.5	6.5	243	11
2023-08-13T00:00	2327	773	9.3	6.3	244	11
2023-08-13T00:00	2350	771	9.1	6.0	244	11
2023-08-13T00:00	2371	769	8.9	6.5	244	12
2023-08-13T00:00	2392	767	8.8	6.7	243	12
2023-08-13T00:00	2419	765	8.6	5.9	242	12
2023-08-13T00:00	2447	762	8.4	6.2	242	12
2023-08-13T00:00	2469	760	8.2	6.6	242	12
2023-08-13T00:00	2498	758	8.1	5.9	242	12
2023-08-13T00:00	2526	755	8.0	5.6	243	12
2023-08-13T00:00	2551	753	7.9	5.6	244	12
2023-08-13T00:00	2572	751	7.8	5.5	245	12
2023-08-13T00:00	2600	748	7.8	5.4	245	12
2023-08-13T00:00	2634	745	7.6	5.0	245	13
2023-08-13T00:00	2655	743	7.4	5.0	244	13
2023-08-13T00:00	2681	741	7.3	4.9	244	13
2023-08-13T00:00	2713	738	7.3	4.4	243	14
2023-08-13T00:00	2740	736	7.0	4.3	243	14
2023-08-13T00:00	2766	733	6.8	4.0	242	14
2023-08-13T00:00	2787	731	6.7	4.0	241	14
2023-08-13T00:00	2810	729	6.7	3.5	240	14
2023-08-13T00:00	2837	727	6.6	3.1	240	14
2023-08-13T00:00	2864	725	6.5	2.5	239	14
2023-08-13T00:00	2888	723	6.4	2.3	239	14
2023-08-13T00:00	2910	721	6.2	2.2	239	14
2023-08-13T00:00	2935	718	6.0	2.3	238	14
2023-08-13T00:00	2958	716	5.8	2.6	238	13
2023-08-13T00:00	2988	714	5.5	2.3	238	13
2023-08-13T00:00	3012	712	5.3	2.1	238	13
2023-08-13T00:00	3032	710	5.2	2.3	238	13
2023-08-13T00:00	3049	708	5.0	2.3	239	13
2023-08-13T00:00	3071	706	4.9	2.0	240	13
2023-08-13T00:00	3099	704	4.7	1.6	240	13
2023-08-13T00:00	3120	702	4.5	1.4	240	13
2023-08-13T00:00	3135	701	4.4	1.5	240	13
2023-08-13T00:00	3152	700	4.3	1.6	240	13
2023-08-13T00:00	3177	697	4.1	1.2	240	13
2023-08-13T00:00	3205	695	3.8	1.1	240	13
2023-08-13T00:00	3227	693	3.6	0.9	239	13
2023-08-13T00:00	3248	691	3.5	0.8	237	12
2023-08-13T00:00	3275	689	3.3	0.6	235	12
2023-08-13T00:00	3291	688	3.1	0.7	232	13
2023-08-13T00:00	3313	686	3.0	0.6	232	13
2023-08-13T00:00	3337	684	2.8	0.5	234	13
2023-08-13T00:00	3364	682	2.6	0.2	238	14
2023-08-13T00:00	3387	680	2.5	-0.2	243	14
2023-08-13T00:00	3406	678	2.4	-0.6	247	14
2023-08-13T00:00	3426	676	2.3	-0.9	251	15
2023-08-13T00:00	3444	675	2.2	-1.4	253	15
2023-08-13T00:00	3469	673	2.1	-1.7	255	16
2023-08-13T00:00	3500	670	1.8	-2.2	255	16
2023-08-13T00:00	3527	668	1.7	-2.3	255	16
2023-08-13T00:00	3549	666	1.6	-2.2	254	16
2023-08-13T00:00	3574	664	1.8	-2.7	252	16
2023-08-13T00:00	3593	663	1.7	-2.7	248	16
2023-08-13T00:00	3615	661	1.5	-2.9	244	16
2023-08-13T00:00	3643	659	1.4	-3.1	242	16
2023-08-13T00:00	3666	657	1.2	-3.2	241	16
2023-08-13T00:00	3689	655	1.0	-3.1	242	16
2023-08-13T00:00	3711	653	0.8	-3.2	243	16
2023-08-13T00:00	3728	651	0.6	-3.3	244	16
2023-08-13T00:00	3753	649	0.4	-3.1	244	16
2023-08-13T00:00	3784	647	0.3	-3.2	244	17
2023-08-13T00:00	3808	645	0.9	-4.5	244	18
2023-08-13T00:00	3826	643	0.8	-5.3	243	19
2023-08-13T00:00	3851	642	0.8	-5.9	242	19
2023-08-13T00:00	3873	640	0.8	-6.5	242	19
2023-08-13T00:00	3898	638	0.7	-7.2	241	19
2023-08-13T00:00	3924	636	0.5	-7.3	241	19
2023-08-13T00:00	3950	634	0.3	-6.9	241	18
2023-08-13T00:00	3972	632	0.2	-7.4	241	18
2023-08-13T00:00	3997	630	0.0	-6.4	240	18
2023-08-13T00:00	4020	628	-0.2	-6.5	239	17
2023-08-13T00:00	4035	627	-0.2	-7.7	237	17
2023-08-13T00:00	4061	625	-0.2	-7.5	237	17
2023-08-13T00:00	4087	623	-0.4	-6.0	237	17
2023-08-13T00:00	4110	621	-0.5	-6.1	238	17
2023-08-13T00:00	4129	620	-0.7	-6.1	239	18
2023-08-13T00:00	4151	618	-0.9	-6.3	241	18
2023-08-13T00:00	4177	616	-1.1	-7.0	241	18
2023-08-13T00:00	4208	614	-1.4	-7.0	241	18
2023-08-13T00:00	4243	611	-1.7	-7.0	240	17
2023-08-13T00:00	4264	609	-1.9	-6.9	239	17
2023-08-13T00:00	4283	608	-2.0	-6.9	237	17
2023-08-13T00:00	4311	606	-2.3	-7.1	236	17
2023-08-13T00:00	4331	604	-2.4	-6.3	237	18
2023-08-13T00:00	4357	602	-2.2	-5.5	238	18
2023-08-13T00:00	4387	600	-2.2	-5.5	240	18
2023-08-13T00:00	4410	598	-2.3	-5.6	241	19
2023-08-13T00:00	4426	597	-2.3	-5.8	242	19
2023-08-13T00:00	4445	596	-2.4	-5.9	240	19
2023-08-13T00:00	4472	594	-2.6	-5.8	238	19
2023-08-13T00:00	4503	591	-2.8	-6.0	236	20
2023-08-13T00:00	4526	590	-3.0	-6.3	234	20
2023-08-13T00:00	4544	588	-3.1	-6.4	234	20
2023-08-13T00:00	4570	586	-3.3	-6.5	234	20
2023-08-13T00:00	4593	585	-3.4	-6.8	234	21
2023-08-13T00:00	4615	583	-3.6	-6.9	233	21
2023-08-13T00:00	4641	581	-3.7	-7.3	233	21
2023-08-13T00:00	4673	579	-4.0	-8.0	233	21
2023-08-13T00:00	4700	577	-4.2	-8.7	234	21
2023-08-13T00:00	4725	575	-4.4	-9.0	235	21
2023-08-13T00:00	4759	573	-4.7	-9.4	236	21
2023-08-13T00:00	4785	570	-4.9	-9.8	237	20
2023-08-13T00:00	4816	568	-5.2	-10.3	238	20
2023-08-13T00:00	4845	566	-5.4	-10.1	237	20
2023-08-13T00:00	4868	564	-5.6	-10.1	236	19
2023-08-13T00:00	4895	563	-5.9	-9.9	234	18
2023-08-13T00:00	4915	561	-6.0	-8.7	233	18
2023-08-13T00:00	4934	560	-6.1	-8.3	233	17
2023-08-13T00:00	4961	558	-6.2	-8.4	233	17
2023-08-13T00:00	4991	556	-6.3	-9.6	233	17
2023-08-13T00:00	5018	554	-6.4	-10.7	234	17
2023-08-13T00:00	5046	552	-6.6	-9.7	234	17
2023-08-13T00:00	5082	549	-6.7	-10.4	234	17
2023-08-13T00:00	5113	547	-6.8	-10.6	234	18
2023-08-13T00:00	5136	546	-6.7	-12.3	235	18
2023-08-13T00:00	5153	544	-6.8	-12.7	236	18
2023-08-13T00:00	5171	543	-7.0	-12.7	237	18
2023-08-13T00:00	5191	542	-7.1	-12.8	238	17
2023-08-13T00:00	5212	540	-7.3	-13.3	238	17
2023-08-13T00:00	5237	538	-7.5	-13.9	239	17
2023-08-13T00:00	5270	536	-7.7	-14.3	240	17
2023-08-13T00:00	5291	535	-7.8	-15.5	240	18
2023-08-13T00:00	5316	533	-7.7	-18.0	240	17
2023-08-13T00:00	5339	531	-7.3	-33.6	240	17
2023-08-13T00:00	5374	529	-7.2	-38.1	240	17
2023-08-13T00:00	5403	527	-7.5	-37.6	240	17
2023-08-13T00:00	5424	526	-7.6	-37.3	241	17
2023-08-13T00:00	5440	525	-7.8	-37.5	242	17
2023-08-13T00:00	5460	523	-8.0	-37.6	244	17
2023-08-13T00:00	5477	522	-8.1	-37.6	246	17
2023-08-13T00:00	5497	521	-8.2	-35.8	248	17
2023-08-13T00:00	5514	520	-8.3	-33.0	249	17
2023-08-13T00:00	5534	518	-8.3	-31.1	250	17
2023-08-13T00:00	5554	517	-8.4	-31.9	250	17
2023-08-13T00:00	5586	515	-8.4	-38.0	250	17
2023-08-13T00:00	5614	513	-8.4	-44.3	251	17
2023-08-13T00:00	5631	512	-8.1	-45.2	251	17
2023-08-13T00:00	5651	511	-8.2	-44.2	253	17
2023-08-13T00:00	5678	509	-8.4	-39.4	255	17
2023-08-13T00:00	5709	507	-8.7	-26.2	258	17
2023-08-13T00:00	5747	504	-8.9	-21.5	260	17
2023-08-13T00:00	5777	502	-8.9	-30.5	262	17
2023-08-13T00:00	5808	501	-8.8	-40.5	264	17
2023-08-13T00:00	5823	499	-8.9	-37.9	265	18
2023-08-13T00:00	5840	498	-9.0	-37.2	265	18
2023-08-13T00:00	5867	497	-9.2		265	18
2023-08-13T00:00	5898	495	-9.4	-31.5	266	19
2023-08-13T00:00	5926	493	-9.7	-31.3	266	19
2023-08-13T00:00	5953	491	-9.9	-31.0	267	19
2023-08-13T00:00	5982	489	-10.1	-30.4	267	20
2023-08-13T00:00	6011	487	-10.3	-30.2	267	20
2023-08-13T00:00	6044	485	-10.4	-30.1	266	20
2023-08-13T00:00	6075	483	-10.6	-30.1	265	20
2023-08-13T00:00	6105	482	-10.9	-30.2	264	20
2023-08-13T00:00	6132	480	-11.2	-29.9	263	19
2023-08-13T00:00	6166	478	-11.4	-29.9	261	19
2023-08-13T00:00	6198	476	-11.7	-29.9	260	18
2023-08-13T00:00	6230	474	-12.0	-29.8	259	18
2023-08-13T00:00	6260	472	-12.3	-29.9	259	19
2023-08-13T00:00	6289	470	-12.5	-30.3	259	19
2023-08-13T00:00	6318	468	-12.7	-29.9	260	19
2023-08-13T00:00	6347	466	-13.0	-29.5	259	19
2023-08-13T00:00	6378	465	-13.3	-29.2	259	20
2023-08-13T00:00	6407	463	-13.5	-29.2	258	20
2023-08-13T00:00	6434	461	-13.8	-29.3	258	20
2023-08-13T00:00	6468	459	-14.0	-29.5	257	20
2023-08-13T00:00	6496	457	-14.3	-29.6	258	20
2023-08-13T00:00	6523	456	-14.5	-30.1	258	20
2023-08-13T00:00	6560	454	-14.7	-30.1	259	20
2023-08-13T00:00	6590	452	-15.0	-30.5	259	20
2023-08-13T00:00	6616	450	-15.2	-30.6	258	20
2023-08-13T00:00	6643	449	-15.4	-30.8	258	20
2023-08-13T00:00	6674	447	-15.7	-30.8	257	20
2023-08-13T00:00	6709	445	-16.0	-31.0	257	21
2023-08-13T00:00	6738	443	-16.3	-31.2	257	21
2023-08-13T00:00	6765	441	-16.5	-31.3	257	21
2023-08-13T00:00	6794	440	-16.7	-31.3	257	21
2023-08-13T00:00	6827	438	-17.1	-31.6	256	20
2023-08-13T00:00	6865	436	-17.4	-31.8	255	20
2023-08-13T00:00	6891	434	-17.6		255	20
2023-08-13T00:00	6917	433	-17.9	-31.9	254	21
2023-08-13T00:00	6946	431	-18.2	-31.8	254	21
2023-08-13T00:00	6974	429	-18.5	-31.9	254	21
2023-08-13T00:00	7003	428	-18.7	-32.0	254	21
2023-08-13T00:00	7030	426	-18.9	-32.2	254	21
2023-08-13T00:00	7057	424	-19.1	-32.5	254	21
2023-08-13T00:00	7090	423	-19.4	-33.1	254	20
2023-08-13T00:00	7123	421	-19.7	-33.2	253	20
2023-08-13T00:00	7154	419	-19.9	-33.3	252	20
2023-08-13T00:00	7190	417	-20.2	-33.5	251	20
2023-08-13T00:00	7222	415	-20.5	-33.7	251	20
2023-08-13T00:00	7255	413	-20.8	-34.0	251	20
2023-08-13T00:00	7284	412	-21.1	-34.2	251	20
2023-08-13T00:00	7310	410	-21.3	-34.3	250	20
2023-08-13T00:00	7340	409	-21.5	-34.6	250	20
2023-08-13T00:00	7366	407	-21.7		250	20
2023-08-13T00:00	7397	405	-22.0	-35.4	249	20
2023-08-13T00:00	7428	404	-22.3	-35.6	249	20
2023-08-13T00:00	7456	402	-22.6	-35.7	249	20
2023-08-13T00:00	7482	401	-22.8	-35.9	248	20
2023-08-13T00:00	7509	399	-23.0	-36.0	248	20
2023-08-13T00:00	7537	398	-23.3	-36.1	248	20
2023-08-13T00:00	7563	396	-23.6	-36.2	247	20
2023-08-13T00:00	7598	394	-23.9	-36.2	248	20
2023-08-13T00:00	7635	393	-24.2	-36.4	248	20
2023-08-13T00:00	7666	391	-24.5	-36.8	248	21
2023-08-13T00:00	7696	389	-24.8	-36.9	249	21
2023-08-13T00:00	7726	388	-25.1	-37.2	249	21
2023-08-13T00:00	7756	386	-25.3	-37.2	250	21
2023-08-13T00:00	7783	385	-25.6	-37.3	250	21
2023-08-13T00:00	7812	383	-25.8	-37.6	251	22
2023-08-13T00:00	7844	381	-26.2	-37.7	251	22
2023-08-13T00:00	7877	380	-26.4	-37.6	251	22
2023-08-13T00:00	7911	378	-26.7	-38.0	252	22
2023-08-13T00:00	7937	376	-26.9	-39.0	252	22
2023-08-13T00:00	7962	375	-27.1	-40.1	253	22
2023-08-13T00:00	7990	374	-27.2	-40.5	254	22
2023-08-13T00:00	8013	372	-27.4	-41.1	255	23
2023-08-13T00:00	8040	371	-27.6	-41.3	255	23
2023-08-13T00:00	8066	370	-27.8	-41.6	255	23
2023-08-13T00:00	8091	368	-28.0	-42.4	255	23
2023-08-13T00:00	8115	367	-28.1	-43.7	255	23
2023-08-13T00:00	8139	366	-28.2	-44.5	254	24
2023-08-13T00:00	8165	365	-28.3	-45.1	254	24
2023-08-13T00:00	8193	363	-28.5	-45.1	254	24
2023-08-13T00:00	8222	362	-28.8	-45.4	255	24
2023-08-13T00:00	8251	360	-29.0	-46.0	255	24
2023-08-13T00:00	8283	359	-29.0	-47.4	255	24
2023-08-13T00:00	8312	357	-29.2	-47.9	255	24
2023-08-13T00:00	8340	356	-29.4	-48.0	256	24
2023-08-13T00:00	8366	355	-29.6	-48.2	256	24
2023-08-13T00:00	8395	353	-29.9	-48.1	257	25
2023-08-13T00:00	8429	352	-30.2	-48.3	257	24
2023-08-13T00:00	8447	351	-30.4	-48.4	257	24
2023-08-13T00:00	8469	349	-30.6	-48.4	257	24
2023-08-13T00:00	8497	348	-30.7	-48.8	257	24
2023-08-13T00:00	8524	347	-30.9	-49.4	257	25
2023-08-13T00:00	8549	345	-30.9	-50.7	258	25
2023-08-13T00:00	8578	344	-30.9	-49.4	258	26
2023-08-13T00:00	8601	343	-30.9	-48.7	259	26
2023-08-13T00:00	8623	342	-31.0	-49.5	259	26
2023-08-13T00:00	8647	341	-30.9	-50.5	259	26
2023-08-13T00:00	8672	340	-31.1	-50.8	259	26
2023-08-13T00:00	8694	339	-31.1	-51.4	259	25
2023-08-13T00:00	8715	338	-31.2	-51.6	259	25
2023-08-13T00:00	8736	337	-31.3	-51.6	259	25
2023-08-13T00:00	8758	336	-31.5	-51.8	258	25
2023-08-13T00:00	8776	335	-31.6	-51.9	258	25
2023-08-13T00:00	8793	334	-31.8	-52.1	257	25
2023-08-13T00:00	8812	333	-31.9	-52.6	257	24
2023-08-13T00:00	8830	332	-32.0	-52.6	257	24
2023-08-13T00:00	8849	331	-32.1	-52.6	258	23
2023-08-13T00:00	8869	330	-32.3	-52.6	259	23
2023-08-13T00:00	8891	329	-32.5	-52.9	261	23
2023-08-13T00:00	8917	328	-32.7	-53.1	262	23
2023-08-13T00:00	8941	327	-32.9	-53.3	263	22
2023-08-13T00:00	8965	326	-33.1	-53.8	265	22
2023-08-13T00:00	8991	325	-33.3	-54.2	266	22
2023-08-13T00:00	9016	323	-33.4	-54.4	268	22
2023-08-13T00:00	9042	322	-33.5	-54.2	269	23
2023-08-13T00:00	9063	321	-33.7	-54.3	270	23
2023-08-13T00:00	9089	320	-33.9	-53.9	270	24
2023-08-13T00:00	9108	319	-34.0	-53.8	269	25
2023-08-13T00:00	9129	318	-34.2	-53.9	268	25
2023-08-13T00:00	9151	317	-34.4		267	26
2023-08-13T00:00	9165	317	-34.5	-53.8	267	26
2023-08-13T00:00	9182	316	-34.6	-53.6	267	25
2023-08-13T00:00	9198	315	-34.7	-53.3	268	25
2023-08-13T00:00	9213	314	-34.8	-53.4	268	25
2023-08-13T00:00	9227	314	-34.9	-53.5	269	25
2023-08-13T00:00	9245	313	-35.0	-53.5	269	25
2023-08-13T00:00	9260	312	-35.1	-53.4	269	25
2023-08-13T00:00	9275	312	-35.2	-53.4	269	25
2023-08-13T00:00	9292	311	-35.3	-53.5	270	24
2023-08-13T00:00	9308	310	-35.5	-53.8	270	24
2023-08-13T00:00	9322	310	-35.6	-54.0	271	24
2023-08-13T00:00	9338	309	-35.7	-53.5	271	24
2023-08-13T00:00	9354	308	-35.9	-53.0	271	24
2023-08-13T00:00	9371	307	-36.0	-52.7	272	24
2023-08-13T00:00	9383	307	-36.1	-52.6	272	24
2023-08-13T00:00	9403	306	-36.2	-52.8	273	24
2023-08-13T00:00	9419	305	-36.3	-53.0	273	24
2023-08-13T00:00	9435	305	-36.5	-53.0	273	24
2023-08-13T00:00	9453	304	-36.6	-53.0	274	24
2023-08-13T00:00	9469	303	-36.8	-53.1	274	24
2023-08-13T00:00	9484	302	-36.9	-53.1	274	24
2023-08-13T00:00	9502	302	-37.1	-52.9	275	24
2023-08-13T00:00	9520	301	-37.2	-52.7	275	24
2023-08-13T00:00	9536	300	-37.3	-52.5	275	24
2023-08-13T00:00	9553	299	-37.5	-52.6	275	24
2023-08-13T00:00	9569	299	-37.6	-52.5	275	24
2023-08-13T00:00	9586	298	-37.8	-52.3	275	24
2023-08-13T00:00	9604	297	-37.9	-52.1	275	24
2023-08-13T00:00	9621	297	-37.9	-52.6	275	24
2023-08-13T00:00	9638	296	-38.0	-52.0	275	24
2023-08-13T00:00	9655	295	-38.2	-52.0	275	24
2023-08-13T00:00	9673	294	-38.3	-52.2	275	24
2023-08-13T00:00	9691	293	-38.5	-52.3	275	24
2023-08-13T00:00	9709	293	-38.7	-52.6	276	24
2023-08-13T00:00	9728	292	-38.9	-52.6	276	24
2023-08-13T00:00	9744	291	-39.0	-52.6	276	23
2023-08-13T00:00	9763	290	-39.2	-52.6	276	23
2023-08-13T00:00	9782	290	-39.4	-52.5	276	23
2023-08-13T00:00	9801	289	-39.5	-52.5	276	23
2023-08-13T00:00	9821	288	-39.7	-52.5	277	23
2023-08-13T00:00	9840	287	-39.9	-52.4	277	22
2023-08-13T00:00	9858	286	-40.1	-52.4	277	22
2023-08-13T00:00	9878	286	-40.2	-52.4	277	22
2023-08-13T00:00	9895	285	-40.4	-52.4	277	22
2023-08-13T00:00	9913	284	-40.6	-52.3	277	22
2023-08-13T00:00	9931	283	-40.8	-52.1	277	23
2023-08-13T00:00	9948	283	-40.9	-52.1	277	23
2023-08-13T00:00	9968	282	-41.1	-52.4	277	23
2023-08-13T00:00	9989	281	-41.2	-52.4	277	23
2023-08-13T00:00	10010	280	-41.4	-52.4	277	23
2023-08-13T00:00	10030	279	-41.6	-52.6	277	23
2023-08-13T00:00	10053	278	-41.8	-52.3	277	23
2023-08-13T00:00	10076	277	-42.0	-52.1	277	23
2023-08-13T00:00	10096	277	-42.2	-52.0	277	23
2023-08-13T00:00	10118	276	-42.4	-51.9	277	23
2023-08-13T00:00	10140	275	-42.6	-51.8	277	23
2023-08-13T00:00	10162	274	-42.8	-52.0	277	23
2023-08-13T00:00	10182	273	-43.0	-51.8	277	23
2023-08-13T00:00	10203	272	-43.1	-51.6	277	23
2023-08-13T00:00	10224	271	-43.3	-51.6	277	23
2023-08-13T00:00	10243	271	-43.5	-51.7	277	23
2023-08-13T00:00	10262	270	-43.7	-51.7	277	23
2023-08-13T00:00	10281	269	-43.8	-51.6	277	23
2023-08-13T00:00	10302	268	-44.0	-51.7	277	23
2023-08-13T00:00	10320	268	-44.2	-51.8	277	23
2023-08-13T00:00	10339	267	-44.4	-52.0	277	22
2023-08-13T00:00	10361	266	-44.5	-52.6	277	23
2023-08-13T00:00	10382	265	-44.7	-53.1	277	23
2023-08-13T00:00	10402	264	-44.8	-53.6	277	23
2023-08-13T00:00	10422	264	-44.9	-54.1	277	23
2023-08-13T00:00	10439	263	-45.1	-54.0	276	23
2023-08-13T00:00	10460	262	-45.3	-54.0	276	23
2023-08-13T00:00	10481	261	-45.5	-54.2	276	23
2023-08-13T00:00	10499	260	-45.6	-54.2	276	23
2023-08-13T00:00	10521	260	-45.8	-54.5	276	23
2023-08-13T00:00	10537	259	-45.9	-54.8	276	22
2023-08-13T00:00	10559	258	-46.1	-54.9	276	22
2023-08-13T00:00	10579	257	-46.3	-55.0	276	22
2023-08-13T00:00	10597	257	-46.5	-55.1	276	22
2023-08-13T00:00	10616	256	-46.6	-55.0	276	22
2023-08-13T00:00	10635	255	-46.8	-55.1	276	22
2023-08-13T00:00	10657	254	-47.0	-55.3	276	23
2023-08-13T00:00	10676	254	-47.2	-55.5	276	23
2023-08-13T00:00	10695	253	-47.4	-55.7	276	23
2023-08-13T00:00	10714	252	-47.6	-55.8	276	23
2023-08-13T00:00	10734	251	-47.8	-56.1	276	23
2023-08-13T00:00	10754	251	-47.9	-56.2	276	23
2023-08-13T00:00	10775	250	-48.1	-56.0	276	23
2023-08-13T00:00	10796	249	-48.3	-55.9	276	23
2023-08-13T00:00	10817	248	-48.4	-55.9	275	23
2023-08-13T00:00	10840	247	-48.7	-56.2	275	23
2023-08-13T00:00	10860	247	-48.8	-56.5	274	23
2023-08-13T00:00	10882	246	-49.0	-56.7	274	23
2023-08-13T00:00	10900	245	-49.2	-56.8	273	23
2023-08-13T00:00	10921	244	-49.3	-57.3	273	22
2023-08-13T00:00	10940	244	-49.4		273	22
2023-08-13T00:00	10962	243	-49.6	-58.6	273	22
2023-08-13T00:00	10984	242	-49.7	-59.0	273	22
2023-08-13T00:00	11006	241	-49.8	-59.3	273	22
2023-08-13T00:00	11025	240	-50.0	-59.4	274	22
2023-08-13T00:00	11045	240	-50.1	-59.3	274	22
2023-08-13T00:00	11068	239	-50.3	-59.3	274	22
2023-08-13T00:00	11089	238	-50.5	-59.4	274	22
2023-08-13T00:00	11109	237	-50.7	-59.4	274	22
2023-08-13T00:00	11127	237	-50.9	-59.4	274	22
2023-08-13T00:00	11151	236	-51.0	-59.3	273	22
2023-08-13T00:00	11172	235	-51.2	-59.3	273	22
2023-08-13T00:00	11193	234	-51.4	-59.4	272	21
2023-08-13T00:00	11214	234	-51.6	-59.7	272	21
2023-08-13T00:00	11234	233	-51.7	-59.8	272	21
2023-08-13T00:00	11256	232	-51.9	-59.9	272	21
2023-08-13T00:00	11279	231	-52.0	-60.0	272	21
2023-08-13T00:00	11300	231	-52.2	-60.1	272	21
2023-08-13T00:00	11322	230	-52.4	-60.3	272	21
2023-08-13T00:00	11343	229	-52.6	-60.5	271	21
2023-08-13T00:00	11364	228	-52.8	-60.6	271	21
2023-08-13T00:00	11386	227	-53.0	-60.7	270	21
2023-08-13T00:00	11407	227	-53.2	-60.7	269	21
2023-08-13T00:00	11431	226	-53.3	-60.6	268	21
2023-08-13T00:00	11453	225	-53.5	-60.7	266	21
2023-08-13T00:00	11477	224	-53.6	-60.9	265	21
2023-08-13T00:00	11503	223	-53.6	-61.0	264	21
2023-08-13T00:00	11533	222	-53.8	-61.4	262	21
2023-08-13T00:00	11560	221	-54.0	-61.5	260	22
2023-08-13T00:00	11583	221	-54.1	-61.6	258	22
2023-08-13T00:00	11606	220	-54.3	-61.8	256	22
2023-08-13T00:00	11630	219	-54.4	-61.9	253	22
2023-08-13T00:00	11662	218	-54.6	-62.1	251	23
2023-08-13T00:00	11684	217	-54.8	-62.4	250	23
2023-08-13T00:00	11708	216	-54.8	-62.7	249	23
2023-08-13T00:00	11736	215	-55.0	-62.8	249	24
2023-08-13T00:00	11762	215	-55.2	-62.8	248	24
2023-08-13T00:00	11787	214	-55.4	-62.8	248	25
2023-08-13T00:00	11811	213	-55.6	-62.9	248	25
2023-08-13T00:00	11836	212	-55.8	-63.0	248	25
2023-08-13T00:00	11857	211	-55.9	-63.0	247	26
2023-08-13T00:00	11875	211	-56.1	-63.1	247	26
2023-08-13T00:00	11898	210	-56.2	-63.1	248	26
2023-08-13T00:00	11917	209	-56.3	-63.3	248	26
2023-08-13T00:00	11937	209	-56.2	-63.5	248	26
2023-08-13T00:00	11957	208	-56.3	-63.8	248	26
2023-08-13T00:00	11982	207	-56.4	-64.0	248	26
2023-08-13T00:00	12003	206	-56.3	-64.0	248	27
2023-08-13T00:00	12032	206	-56.4	-64.2	248	27
2023-08-13T00:00	12053	205	-56.6	-64.5	248	28
2023-08-13T00:00	12076	204	-56.8	-64.5	248	28
2023-08-13T00:00	12093	204	-56.9	-64.5	249	28
2023-08-13T00:00	12115	203	-57.0	-64.4	249	28
2023-08-13T00:00	12134	202	-57.0	-64.5	249	28
2023-08-13T00:00	12155	202	-57.0	-64.6	250	28
2023-08-13T00:00	12173	201	-57.0	-64.7	250	28
2023-08-13T00:00	12194	200	-57.1	-65.2	250	27
2023-08-13T00:00	12215	200	-56.8	-65.4	250	26
2023-08-13T00:00	12233	199	-56.8	-66.1	249	25
2023-08-13T00:00	12256	198	-56.6	-66.8	247	25
2023-08-13T00:00	12280	198	-56.3	-67.7	245	24
2023-08-13T00:00	12309	197	-56.0	-69.0	243	24
2023-08-13T00:00	12327	196	-55.3	-70.2	241	24
2023-08-13T00:00	12346	196	-54.8	-71.7	240	24
2023-08-13T00:00	12364	195	-54.3	-73.1	239	24
2023-08-13T00:00	12384	195	-54.1	-73.8	239	24
2023-08-13T00:00	12404	194	-54.2	-74.3	239	24
2023-08-13T00:00	12422	193	-53.6	-74.5	240	25
2023-08-13T00:00	12443	193	-53.3	-75.0	240	25
2023-08-13T00:00	12463	192	-53.3	-75.7	241	25
2023-08-13T00:00	12480	192	-53.0	-75.9	242	24
2023-08-13T00:00	12500	191	-52.7	-76.2	243	24
2023-08-13T00:00	12518	190	-52.5	-76.4	243	24
2023-08-13T00:00	12537	190	-52.5	-76.4	243	24
2023-08-13T00:00	12556	189	-52.4		244	24
2023-08-13T00:00	12577	189	-52.5	-75.9	244	25
2023-08-13T00:00	12595	188	-52.6	-75.6	244	25
2023-08-13T00:00	12615	188	-52.6	-75.6	244	24
2023-08-13T00:00	12633	187	-52.6	-75.8	244	24
2023-08-13T00:00	12650	187	-51.9	-75.7	244	23
2023-08-13T00:00	12676	186	-51.5	-76.2	244	23
2023-08-13T00:00	12700	185	-50.9	-76.8	244	21
2023-08-13T00:00	12727	185	-50.3	-77.4	244	20
2023-08-13T00:00	12749	184	-50.1	-77.8	242	19
2023-08-13T00:00	12774	183	-50.0	-78.1	240	18
2023-08-13T00:00	12799	182	-50.1	-78.2	235	17
2023-08-13T00:00	12825	182	-50.2	-78.2	231	17
2023-08-13T00:00	12859	181	-50.0	-78.1	227	17
2023-08-13T00:00	12888	180	-50.1	-78.2	224	17
2023-08-13T00:00	12910	179	-50.2	-78.2	223	17
2023-08-13T00:00	12931	179	-50.3	-78.0	223	17
2023-08-13T00:00	12953	178	-50.4	-78.1	223	17
2023-08-13T00:00	12977	178	-50.6	-78.2	224	17
2023-08-13T00:00	12999	177	-50.8	-78.1	224	17
2023-08-13T00:00	13020	176	-50.9	-78.2	223	17
2023-08-13T00:00	13040	176	-51.1	-78.3	223	17
2023-08-13T00:00	13059	175	-51.3	-78.2	223	18
2023-08-13T00:00	13080	175	-51.4	-78.3	223	18
2023-08-13T00:00	13100	174	-51.6	-78.4	224	18
2023-08-13T00:00	13121	174	-51.8	-78.6	224	18
2023-08-13T00:00	13140	173	-51.9	-78.6	225	18
2023-08-13T00:00	13161	173	-52.1	-78.5	225	19
2023-08-13T00:00	13179	172	-52.2	-78.6	225	19
2023-08-13T00:00	13200	172	-52.4	-78.8	225	19
2023-08-13T00:00	13221	171	-52.6	-78.9	226	19
2023-08-13T00:00	13242	170	-52.8	-78.8	226	20
2023-08-13T00:00	13260	170	-52.9	-79.1	226	20
2023-08-13T00:00	13279	169	-53.0	-79.2	227	20
2023-08-13T00:00	13301	169	-53.0	-79.2	228	20
2023-08-13T00:00	13320	168	-52.8	-79.1	229	20
2023-08-13T00:00	13340	168	-52.8	-79.3	230	20
2023-08-13T00:00	13362	167	-52.5	-79.1	231	20
2023-08-13T00:00	13383	167	-52.1	-79.1	232	20
2023-08-13T00:00	13402	166	-52.2	-79.5	234	20
2023-08-13T00:00	13423	166	-52.3	-79.9	235	20
2023-08-13T00:00	13446	165	-52.3	-79.9	237	20
2023-08-13T00:00	13466	165	-52.4	-79.9	238	20
2023-08-13T00:00	13486	164	-52.3	-79.9	239	20
2023-08-13T00:00	13506	164	-52.2	-79.8	240	19
2023-08-13T00:00	13527	163	-52.2	-79.8	240	19
2023-08-13T00:00	13548	163	-52.3	-79.9	238	19
2023-08-13T00:00	13572	162	-52.4	-79.9	236	18
2023-08-13T00:00	13599	161	-52.0	-80.0	233	18
2023-08-13T00:00	13624	161	-52.1	-80.0	230	17
2023-08-13T00:00	13646	160	-52.0	-80.0	227	17
2023-08-13T00:00	13668	160	-51.8	-79.8	225	17
2023-08-13T00:00	13689	159	-51.7	-79.7	223	18
2023-08-13T00:00	13708	159	-51.6	-79.6	223	18
2023-08-13T00:00	13727	158	-51.6	-79.6	222	18
2023-08-13T00:00	13750	158	-51.6	-79.6	222	18
2023-08-13T00:00	13767	157	-51.7	-79.7	223	19
2023-08-13T00:00	13786	157	-51.8	-79.5	224	19
2023-08-13T00:00	13806	156	-51.9	-79.5	224	19
2023-08-13T00:00	13825	156	-52.1	-79.4	225	19
2023-08-13T00:00	13846	155	-52.2	-79.5	226	19
2023-08-13T00:00	13864	155	-52.3	-79.5	226	19
2023-08-13T00:00	13886	154	-52.4	-79.6	226	19
2023-08-13T00:00	13906	154	-52.4	-79.3	227	19
2023-08-13T00:00	13925	153	-52.5	-79.4	228	19
2023-08-13T00:00	13945	153	-52.7	-79.6	229	19
2023-08-13T00:00	13966	152	-52.8	-79.3	230	19
2023-08-13T00:00	13986	152	-52.9	-79.1	231	19
2023-08-13T00:00	14005	151	-53.0	-79.2	232	19
2023-08-13T00:00	14024	151	-53.0	-79.2	232	19
2023-08-13T00:00	14044	151	-53.1	-79.0	233	19
2023-08-13T00:00	14063	150	-53.1	-79.0	233	19
2023-08-13T00:00	14085	150	-53.0	-79.0	232	18
2023-08-13T00:00	14103	149	-53.1	-79.0	231	18
2023-08-13T00:00	14125	149	-53.0	-79.2	230	17
2023-08-13T00:00	14145	148	-52.9	-79.4	229	16
2023-08-13T00:00	14165	148	-52.7	-79.6	228	16
2023-08-13T00:00	14185	147	-52.2	-79.2	227	15
2023-08-13T00:00	14206	147	-52.2	-79.2	226	15
2023-08-13T00:00	14227	146	-52.3	-79.0	226	15
2023-08-13T00:00	14248	146	-52.3	-78.7	226	15
2023-08-13T00:00	14269	145	-52.4	-78.5	225	14
2023-08-13T00:00	14291	145	-52.4	-78.0	224	14
2023-08-13T00:00	14310	144	-52.3	-77.9	222	14
2023-08-13T00:00	14331	144	-52.2	-77.8	219	13
2023-08-13T00:00	14356	143	-52.3	-77.7	217	13
2023-08-13T00:00	14382	143	-52.5	-77.8	215	13
2023-08-13T00:00	14406	142	-52.7	-78.0	213	13
2023-08-13T00:00	14432	142	-52.9	-78.2	211	13
2023-08-13T00:00	14459	141	-53.1	-78.3	210	13
2023-08-13T00:00	14478	141	-53.3	-78.5	210	13
2023-08-13T00:00	14500	140	-53.5	-78.4	210	14
2023-08-13T00:00	14520	140	-53.6	-78.5	210	14
2023-08-13T00:00	14540	139	-53.7	-78.8	212	14
2023-08-13T00:00	14556	139	-53.8	-78.9	213	14
2023-08-13T00:00	14577	139	-54.0	-79.3	214	14
2023-08-13T00:00	14597	138	-54.1	-79.3	215	14
2023-08-13T00:00	14616	138	-54.2	-79.4	216	15
2023-08-13T00:00	14632	137	-54.3	-79.5	217	15
2023-08-13T00:00	14652	137	-54.5	-79.9	218	15
2023-08-13T00:00	14674	137	-54.6	-80.2	218	15
2023-08-13T00:00	14693	136	-54.6	-80.7	218	15
2023-08-13T00:00	14713	136	-54.5	-81.2	218	15
2023-08-13T00:00	14732	135	-54.5	-81.5	218	15
2023-08-13T00:00	14753	135	-54.4	-81.5	218	16
2023-08-13T00:00	14773	134	-54.5	-81.5	219	16
2023-08-13T00:00	14791	134	-54.5	-81.5	220	16
2023-08-13T00:00	14810	134	-54.6	-81.3	221	15
2023-08-13T00:00	14830	133	-54.6	-81.6	222	15
2023-08-13T00:00	14852	133	-54.4	-81.5	223	14
2023-08-13T00:00	14870	132	-54.4	-81.5	225	14
2023-08-13T00:00	14891	132	-54.4	-81.8	227	13
2023-08-13T00:00	14911	132	-54.3	-81.7	229	13
2023-08-13T00:00	14931	131	-54.3	-81.7	232	13
2023-08-13T00:00	14951	131	-54.5	-81.9	235	13
2023-08-13T00:00	14971	130	-54.6	-81.9	238	13
2023-08-13T00:00	14990	130	-54.5	-81.9	241	14
2023-08-13T00:00	15011	130	-54.1	-81.6	243	14
2023-08-13T00:00	15035	129	-54.0	-81.5	243	14
2023-08-13T00:00	15052	129	-54.0	-81.5	243	14
2023-08-13T00:00	15071	128	-54.1	-81.6	243	14
2023-08-13T00:00	15093	128	-54.1	-81.6	241	14
2023-08-13T00:00	15111	127	-54.0	-81.5	240	14
2023-08-13T00:00	15135	127	-54.1	-81.6	238	14
2023-08-13T00:00	15153	127	-54.2	-81.6	237	14
2023-08-13T00:00	15173	126	-54.2	-81.6	236	14
2023-08-13T00:00	15194	126	-54.1	-81.6	236	14
2023-08-13T00:00	15215	125	-54.1	-81.6	236	15
2023-08-13T00:00	15235	125	-54.2	-81.6	235	15
2023-08-13T00:00	15258	125	-54.3	-81.7	235	15
2023-08-13T00:00	15276	124	-54.5	-81.9	235	16
2023-08-13T00:00	15294	124	-54.6	-81.9	236	16
2023-08-13T00:00	15313	124	-54.7	-82.0	237	16
2023-08-13T00:00	15339	123	-54.7	-82.0	238	16
2023-08-13T00:00	15360	123	-54.8	-82.1	239	15
2023-08-13T00:00	15384	122	-55.0	-82.3	240	14
2023-08-13T00:00	15403	122	-54.8	-82.4	240	14
2023-08-13T00:00	15427	121	-54.3	-82.1	238	13
2023-08-13T00:00	15450	121	-54.1	-82.3	236	12
2023-08-13T00:00	15478	120	-54.1	-82.3	232	11
2023-08-13T00:00	15503	120	-53.6	-82.3	229	11
2023-08-13T00:00	15522	120	-53.3	-82.0	226	10
2023-08-13T00:00	15545	119	-53.4	-82.1	224	10
2023-08-13T00:00	15566	119	-53.5	-82.2	221	9
2023-08-13T00:00	15588	118	-53.5	-82.2	218	9
2023-08-13T00:00	15610	118	-53.6	-82.3	214	9
2023-08-13T00:00	15633	118	-53.7	-82.3	211	8
2023-08-13T00:00	15652	117	-53.6	-81.9	208	8
2023-08-13T00:00	15673	117	-53.7	-82.0	206	9
2023-08-13T00:00	15696	116	-53.9	-82.1	205	9
2023-08-13T00:00	15716	116	-54.1	-82.3	204	9
2023-08-13T00:00	15738	116	-54.2	-82.3	204	9
2023-08-13T00:00	15758	115	-54.1	-82.3	203	10
2023-08-13T00:00	15778	115	-54.2	-82.3	202	10
2023-08-13T00:00	15800	115	-54.2	-82.3	201	10
2023-08-13T00:00	15821	114	-54.2	-82.3	200	11
2023-08-13T00:00	15838	114	-54.1	-82.6	200	11
2023-08-13T00:00	15861	113	-54.1	-82.6	200	11
2023-08-13T00:00	15885	113	-54.1	-82.6	202	11
2023-08-13T00:00	15906	113	-54.2	-82.3	203	11
2023-08-13T00:00	15929	112	-54.4	-82.5	206	12
2023-08-13T00:00	15948	112	-54.5	-82.6	209	12
2023-08-13T00:00	15972	112	-54.6	-82.6	212	12
2023-08-13T00:00	15993	111	-54.7	-82.7	215	12
2023-08-13T00:00	16013	111	-54.8	-82.8	219	12
2023-08-13T00:00	16034	110	-54.8	-82.8	222	12
2023-08-13T00:00	16055	110	-54.8	-82.8	225	12
2023-08-13T00:00	16075	110	-54.5	-82.6	228	12
2023-08-13T00:00	16095	109	-54.5	-82.6	231	12
2023-08-13T00:00	16116	109	-54.4	-82.9	233	12
2023-08-13T00:00	16137	109	-54.4	-82.9	235	12
2023-08-13T00:00	16156	108	-54.4	-82.9	237	12
2023-08-13T00:00	16177	108	-54.1	-82.6	240	12
2023-08-13T00:00	16199	108	-54.0	-83.0	241	12
2023-08-13T00:00	16219	107	-53.9	-82.9	243	12
2023-08-13T00:00	16243	107	-53.8	-82.8	244	11
2023-08-13T00:00	16263	107	-53.7	-82.8	246	11
2023-08-13T00:00	16281	106	-53.7	-82.8	247	11
2023-08-13T00:00	16304	106	-53.6	-83.1	248	10
2023-08-13T00:00	16327	106	-53.6	-83.1	249	10
2023-08-13T00:00	16347	105	-53.4	-83.0	249	9
2023-08-13T00:00	16370	105	-53.5	-83.0	249	9
2023-08-13T00:00	16392	104	-53.6	-83.1	248	8
2023-08-13T00:00	16413	104	-53.7	-83.2	246	8
2023-08-13T00:00	16435	104	-53.9	-83.3	243	7
2023-08-13T00:00	16459	103	-54.0	-83.4	241	7
2023-08-13T00:00	16481	103	-54.1	-83.1	237	7
2023-08-13T00:00	16503	103	-54.0	-83.0	234	7
2023-08-13T00:00	16525	102	-54.2	-83.1	230	7
2023-08-13T00:00	16550	102	-54.4	-83.3	225	6
2023-08-13T00:00	16575	101	-54.6	-83.4	220	6
2023-08-13T00:00	16595	101	-54.8	-83.6	215	6
2023-08-13T00:00	16619	101	-55.0	-83.7	211	7
2023-08-13T00:00	16638	100	-55.1	-83.8	209	7
2023-08-13T00:00	16663	100	-55.1	-83.8	209	7
2023-08-13T00:00	16683	100	-55.3	-84.0	210	8
2023-08-13T00:00	16699	99	-55.2	-83.9	212	8
2023-08-13T00:00	16722	99	-55.2	-83.9	216	8
2023-08-13T00:00	16745	99	-55.2	-83.9	220	8
2023-08-13T00:00	16765	99	-55.3	-84.0	224	7
2023-08-13T00:00	16787	98	-55.4	-84.0	228	7
2023-08-13T00:00	16807	98	-55.4	-84.0	231	7
2023-08-13T00:00	16830	98	-55.3	-84.0	232	7
2023-08-13T00:00	16852	97	-55.3	-84.0	232	6
2023-08-13T00:00	16874	97	-55.3	-84.0	230	6
2023-08-13T00:00	16898	96	-55.3	-84.4	226	6
2023-08-13T00:00	16921	96	-55.1	-84.2	222	5
2023-08-13T00:00	16940	96	-55.2	-83.9	217	5
2023-08-13T00:00	16963	96	-55.4	-84.0	213	6
2023-08-13T00:00	16985	95	-55.5	-84.1	209	6
2023-08-13T00:00	17007	95	-55.5	-84.1	205	6
2023-08-13T00:00	17027	95	-55.6	-84.2	203	7
2023-08-13T00:00	17052	94	-55.7	-84.3	201	7
2023-08-13T00:00	17073	94	-55.8	-84.3	200	8
2023-08-13T00:00	17094	94	-55.8	-84.3	200	8
2023-08-13T00:00	17116	93	-55.9	-84.4	200	9
2023-08-13T00:00	17140	93	-55.9	-84.4	201	9
2023-08-13T00:00	17162	93	-56.1	-84.6	201	10
2023-08-13T00:00	17185	92	-56.2	-84.6	202	10
2023-08-13T00:00	17205	92	-56.4	-84.8	203	10
2023-08-13T00:00	17230	92	-56.6	-84.9	204	10
2023-08-13T00:00	17252	91	-56.8	-85.1	206	11
2023-08-13T00:00	17275	91	-56.9	-85.2	208	11
2023-08-13T00:00	17298	91	-57.1	-85.3	210	10
2023-08-13T00:00	17322	90	-56.8	-85.1	212	10
2023-08-13T00:00	17344	90	-56.7	-85.0	214	9
2023-08-13T00:00	17366	90	-56.8	-85.1	216	9
2023-08-13T00:00	17392	89	-56.8	-85.1	218	8
2023-08-13T00:00	17413	89	-56.6	-84.9	220	8
2023-08-13T00:00	17437	89	-56.7	-85.0	221	7
2023-08-13T00:00	17459	88	-56.7	-85.4	222	7
2023-08-13T00:00	17479	88	-56.3	-85.1	222	7
2023-08-13T00:00	17501	88	-56.3	-85.1	222	6
2023-08-13T00:00	17527	87	-56.4	-85.2	222	6
2023-08-13T00:00	17547	87	-56.5	-85.3	221	6
2023-08-13T00:00	17569	87	-56.3	-85.1	220	6
2023-08-13T00:00	17595	86	-56.3	-85.1	219	6
2023-08-13T00:00	17614	86	-56.4	-85.2	218	5
2023-08-13T00:00	17638	86	-56.3	-85.1	216	5
2023-08-13T00:00	17658	86	-56.4	-85.2	213	5
2023-08-13T00:00	17681	85	-56.6	-85.4	210	5
2023-08-13T00:00	17705	85	-56.6	-84.9	206	6
2023-08-13T00:00	17723	85	-56.7	-85.0	203	6
2023-08-13T00:00	17746	84	-56.8	-85.1	201	7
2023-08-13T00:00	17766	84	-57.0	-85.2	200	7
2023-08-13T00:00	17790	84	-57.1	-85.3	199	8
2023-08-13T00:00	17808	84	-56.9	-85.6	200	9
2023-08-13T00:00	17828	83	-56.7	-85.4	202	9
2023-08-13T00:00	17849	83	-56.7	-85.4	204	9
2023-08-13T00:00	17870	83	-56.5	-85.3	206	9
2023-08-13T00:00	17889	83	-56.4	-85.2	209	9
2023-08-13T00:00	17911	82	-56.1	-85.5	212	9
2023-08-13T00:00	17931	82	-55.9	-85.3	215	8
2023-08-13T00:00	17950	82	-55.9	-85.3	219	7
2023-08-13T00:00	17971	81	-55.8	-85.2	222	7
2023-08-13T00:00	17992	81	-55.7	-85.2	225	6
2023-08-13T00:00	18012	81	-55.5	-85.0	226	5
2023-08-13T00:00	18032	81	-55.2	-84.8	225	5
2023-08-13T00:00	18055	80	-55.0	-84.6	222	5
2023-08-13T00:00	18074	80	-55.0	-84.6	219	5
2023-08-13T00:00	18094	80	-55.0	-84.6	216	6
2023-08-13T00:00	18116	80	-55.0	-84.6	215	6
2023-08-13T00:00	18133	79	-55.0	-84.6	216	6
2023-08-13T00:00	18158	79	-55.1	-84.7	217	6
2023-08-13T00:00	18175	79	-55.1	-84.7	219	7
2023-08-13T00:00	18197	79	-55.3	-84.9	222	7
2023-08-13T00:00	18215	78	-55.4	-84.9	223	7
2023-08-13T00:00	18234	78	-55.5	-85.0	225	7
2023-08-13T00:00	18255	78	-55.5	-85.0	226	7
2023-08-13T00:00	18279	78	-55.5	-85.0	227	7
2023-08-13T00:00	18300	77	-55.4	-84.9	227	6
2023-08-13T00:00	18319	77	-55.2	-84.8	225	5
2023-08-13T00:00	18340	77	-55.2	-84.8	222	5
2023-08-13T00:00	18362	77	-55.3	-84.9	217	4
2023-08-13T00:00	18383	76	-55.3	-84.9	210	4
2023-08-13T00:00	18403	76	-55.4	-84.9	202	4
2023-08-13T00:00	18422	76	-55.5	-85.0	194	4
2023-08-13T00:00	18444	76	-55.6	-85.1	187	4
2023-08-13T00:00	18464	75	-55.4	-84.9	181	4
2023-08-13T00:00	18482	75	-55.4	-84.9	175	4
2023-08-13T00:00	18502	75	-55.5	-85.0	169	4
2023-08-13T00:00	18526	75	-55.6	-85.1	163	4
2023-08-13T00:00	18551	74	-55.8	-85.2	158	4
2023-08-13T00:00	18566	74	-56.0	-84.9	153	4
2023-08-13T00:00	18593	74	-56.1	-85.0	150	4
2023-08-13T00:00	18615	74	-56.2	-85.1	149	5
2023-08-13T00:00	18638	73	-56.4	-85.2	150	5
2023-08-13T00:00	18659	73	-56.5	-85.3	153	4
2023-08-13T00:00	18683	73	-56.3	-85.1	158	4
2023-08-13T00:00	18705	73	-56.2	-85.1	164	4
2023-08-13T00:00	18727	72	-56.3	-85.1	173	3
2023-08-13T00:00	18749	72	-56.4	-85.2	183	3
2023-08-13T00:00	18771	72	-56.5	-85.3	195	3
2023-08-13T00:00	18794	72	-56.5	-85.3	204	4
2023-08-13T00:00	18814	71	-56.5	-85.8	211	4
2023-08-13T00:00	18835	71	-56.5	-85.8	216	5
2023-08-13T00:00	18856	71	-56.4	-85.7	220	5
2023-08-13T00:00	18878	71	-56.4	-85.7	224	6
2023-08-13T00:00	18902	70	-56.5	-85.8	228	6
2023-08-13T00:00	18924	70	-56.5	-85.8	230	6
2023-08-13T00:00	18944	70	-56.2	-85.5	230	6
2023-08-13T00:00	18965	70	-56.1	-85.5	227	5
2023-08-13T00:00	18987	69	-56.1	-85.5	222	5
2023-08-13T00:00	19010	69	-56.0		216	5
2023-08-13T00:00	19033	69	-55.9	-85.3	208	5
2023-08-13T00:00	19054	69	-55.9	-85.3	199	4
2023-08-13T00:00	19078	69	-56.1	-85.5	189	4
2023-08-13T00:00	19095	68	-56.2	-85.5	181	4
2023-08-13T00:00	19120	68	-56.3	-85.6	174	4
2023-08-13T00:00	19143	68	-56.4	-85.7	171	4
2023-08-13T00:00	19165	68	-56.2	-85.5	171	4
2023-08-13T00:00	19185	67	-56.0		175	4
2023-08-13T00:00	19206	67	-56.0		182	4
2023-08-13T00:00	19229	67	-56.0		190	4
2023-08-13T00:00	19246	67	-56.1	-86.0	198	3
2023-08-13T00:00	19266	66	-56.1	-86.0	203	3
2023-08-13T00:00	19289	66	-56.1	-86.0	205	3
2023-08-13T00:00	19311	66	-55.8	-85.7	202	2
2023-08-13T00:00	19335	66	-55.5	-85.5	190	2
2023-08-13T00:00	19356	66	-55.4	-85.4	172	2
2023-08-13T00:00	19374	65	-55.0	-85.7	156	2
2023-08-13T00:00	19400	65	-54.9	-85.6	145	3
2023-08-13T00:00	19419	65	-54.9	-85.6	139	3
2023-08-13T00:00	19441	65	-54.9	-85.6	134	4
2023-08-13T00:00	19462	64	-54.9	-85.6	130	4
2023-08-13T00:00	19485	64	-55.0	-85.1	126	4
2023-08-13T00:00	19506	64	-54.9	-85.1	125	5
2023-08-13T00:00	19530	64	-54.8	-85.0	125	5
2023-08-13T00:00	19551	64	-54.8	-85.0	128	5
2023-08-13T00:00	19574	63	-54.9	-85.1	132	6
2023-08-13T00:00	19593	63	-54.7	-84.9	136	6
2023-08-13T00:00	19618	63	-54.6	-84.8	138	7
2023-08-13T00:00	19642	63	-54.7	-84.9	139	7
2023-08-13T00:00	19666	62	-54.8	-85.0	137	8
2023-08-13T00:00	19689	62	-54.8	-85.0	136	8
2023-08-13T00:00	19709	62	-54.9	-85.1	135	8
2023-08-13T00:00	19732	62	-54.9	-85.1	136	8
2023-08-13T00:00	19755	62	-54.9	-85.1	139	8
2023-08-13T00:00	19778	61	-54.8	-85.0	143	8
2023-08-13T00:00	19800	61	-54.7	-84.9	149	8
2023-08-13T00:00	19822	61	-54.8	-85.5	154	8
2023-08-13T00:00	19844	61	-54.9	-85.6	159	8
2023-08-13T00:00	19865	61	-54.7	-85.5	162	8
2023-08-13T00:00	19888	60	-54.3	-85.2	164	8
2023-08-13T00:00	19908	60	-54.1	-85.0	164	8
2023-08-13T00:00	19934	60	-54.0	-84.9	164	8
2023-08-13T00:00	19954	60	-54.0	-84.9	163	9
2023-08-13T00:00	19979	59	-53.9	-84.9	164	9
2023-08-13T00:00	20001	59	-53.8	-84.8	164	9
2023-08-13T00:00	20025	59	-53.9	-84.9	166	10
2023-08-13T00:00	20054	59	-54.1	-85.0	167	10
2023-08-13T00:00	20074	59	-54.2	-85.1	170	10
2023-08-13T00:00	20096	58	-54.3	-84.6	172	9
2023-08-13T00:00	20120	58	-54.4	-84.7	175	9
2023-08-13T00:00	20144	58	-54.5	-84.8	178	9
2023-08-13T00:00	20168	58	-54.5	-84.8	180	9
2023-08-13T00:00	20189	58	-54.4	-84.7	182	8
2023-08-13T00:00	20216	57	-54.5	-84.8	185	8
2023-08-13T00:00	20241	57	-54.7	-84.9	187	8
2023-08-13T00:00	20270	57	-54.7	-84.9	189	7
2023-08-13T00:00	20290	57	-54.8	-85.0	191	7
2023-08-13T00:00	20313	56	-55.0	-85.1	192	7
2023-08-13T00:00	20337	56	-55.0	-85.1	192	7
2023-08-13T00:00	20360	56	-54.9	-85.1	191	6
2023-08-13T00:00	20384	56	-55.0	-85.1	189	6
2023-08-13T00:00	20406	56	-54.7	-84.9	188	6
2023-08-13T00:00	20434	55	-54.6	-85.4	188	6
2023-08-13T00:00	20459	55	-54.6	-85.4	187	6
2023-08-13T00:00	20483	55	-54.7	-85.5	186	6
2023-08-13T00:00	20505	55	-54.7	-85.5	184	6
2023-08-13T00:00	20532	55	-54.4	-85.2	180	6
2023-08-13T00:00	20553	54	-54.3	-85.2	176	6
2023-08-13T00:00	20580	54	-54.3	-85.2	173	5
2023-08-13T00:00	20602	54	-54.2	-85.1	171	5
2023-08-13T00:00	20627	54	-54.0	-85.5	169	5
2023-08-13T00:00	20653	54	-53.7	-85.3	167	4
2023-08-13T00:00	20677	53	-53.5	-85.2	163	4
2023-08-13T00:00	20700	53	-53.2	-85.0	158	3
2023-08-13T00:00	20725	53	-52.9	-84.7	153	3
2023-08-13T00:00	20750	53	-52.9	-84.7	152	3
2023-08-13T00:00	20773	53	-52.8	-84.7	154	3
2023-08-13T00:00	20795	52	-52.6	-84.5	159	4
2023-08-13T00:00	20823	52	-52.6	-84.5	164	4
2023-08-13T00:00	20845	52	-52.5	-84.4	167	4
2023-08-13T00:00	20871	52	-52.6	-84.5	169	5
2023-08-13T00:00	20895	52	-52.7	-84.6	170	5
2023-08-13T00:00	20917	51	-52.8	-84.7	171	5
2023-08-13T00:00	20943	51	-52.6	-84.5	172	5
2023-08-13T00:00	20968	51	-52.4	-84.4	175	5
2023-08-13T00:00	20990	51	-52.4	-84.4	178	5
2023-08-13T00:00	21014	51	-52.2	-84.2	181	5
2023-08-13T00:00	21040	50	-52.0	-84.1	183	4
2023-08-13T00:00	21065	50	-52.1	-84.2	183	4
2023-08-13T00:00	21087	50	-52.1	-84.2	182	4
2023-08-13T00:00	21116	50	-52.3	-84.3	179	4
2023-08-13T00:00	21136	50	-52.3	-84.3	175	4
2023-08-13T00:00	21162	49	-52.3	-83.7	171	4
2023-08-13T00:00	21184	49	-52.6	-83.9	167	4
2023-08-13T00:00	21210	49	-52.8	-84.1	163	4
2023-08-13T00:00	21235	49	-52.9	-84.1	159	4
2023-08-13T00:00	21262	49	-53.0	-84.2	154	4
2023-08-13T00:00	21286	49	-53.0	-84.2	148	4
2023-08-13T00:00	21314	48	-53.0	-84.2	142	4
2023-08-13T00:00	21338	48	-53.0	-84.2	136	5
2023-08-13T00:00	21363	48	-52.9	-84.1	130	5
2023-08-13T00:00	21387	48	-53.0	-84.2	124	5
2023-08-13T00:00	21413	48	-52.9	-84.7	120	5
2023-08-13T00:00	21437	47	-52.7	-84.6	118	5
2023-08-13T00:00	21462	47	-52.7	-84.6	117	5
2023-08-13T00:00	21486	47	-52.5	-84.4	119	5
2023-08-13T00:00	21513	47	-52.6	-84.5	122	5
2023-08-13T00:00	21538	47	-52.8	-84.7	126	5
2023-08-13T00:00	21563	46	-52.8	-84.1	131	5
2023-08-13T00:00	21589	46	-52.9	-84.1	136	5
2023-08-13T00:00	21614	46	-53.0	-84.2	141	5
2023-08-13T00:00	21639	46	-53.0	-84.2	145	5
2023-08-13T00:00	21659	46	-53.1	-84.3	149	5
2023-08-13T00:00	21685	46	-53.2	-84.4	152	5
2023-08-13T00:00	21710	45	-53.3	-84.4	154	5
2023-08-13T00:00	21735	45	-53.4	-84.5	153	5
2023-08-13T00:00	21756	45	-53.3	-84.4	151	5
2023-08-13T00:00	21783	45	-53.3	-84.4	148	4
2023-08-13T00:00	21802	45	-53.4	-84.5	144	4
2023-08-13T00:00	21829	45	-53.5	-84.6	141	4
2023-08-13T00:00	21854	44	-53.5	-84.6	138	4
2023-08-13T00:00	21879	44	-53.5	-84.6	136	3
2023-08-13T00:00	21905	44	-53.5	-84.6	133	3
2023-08-13T00:00	21928	44	-53.6	-84.6	130	3
2023-08-13T00:00	21950	44	-53.6	-84.6	125	3
2023-08-13T00:00	21976	44	-53.8	-84.8	118	3
2023-08-13T00:00	22001	43	-53.9	-84.9	112	3
2023-08-13T00:00	22022	43	-53.9	-84.9	107	3
2023-08-13T00:00	22047	43	-53.9	-84.9	106	4
2023-08-13T00:00	22070	43	-54.0	-84.9	107	4
2023-08-13T00:00	22090	43	-54.1	-85.0	110	4
2023-08-13T00:00	22117	43	-54.1	-85.0	113	4
2023-08-13T00:00	22138	43	-54.0	-84.9	117	5
2023-08-13T00:00	22166	42	-53.9	-84.9	120	5
2023-08-13T00:00	22185	42	-53.9	-84.9	122	6
2023-08-13T00:00	22215	42	-54.0	-84.9	125	6
2023-08-13T00:00	22235	42	-54.1	-85.0	127	7
2023-08-13T00:00	22263	42	-54.3	-85.2	129	7
2023-08-13T00:00	22280	42	-54.3	-85.2	132	7
2023-08-13T00:00	22306	41	-54.4	-85.2	136	8
2023-08-13T00:00	22332	41	-54.5	-85.3	139	8
2023-08-13T00:00	22357	41	-54.6	-84.8	142	7
2023-08-13T00:00	22382	41	-54.6	-85.4	145	7
2023-08-13T00:00	22403	41	-54.3	-85.2	147	6
2023-08-13T00:00	22427	41	-54.2	-85.1	148	5
2023-08-13T00:00	22454	40	-54.2	-85.1	147	4
2023-08-13T00:00	22476	40	-54.2	-85.1	141	3
2023-08-13T00:00	22499	40	-54.2	-85.1	126	2
2023-08-13T00:00	22525	40	-54.0	-85.5	100	2
2023-08-13T00:00	22549	40	-53.5	-85.2	80	3
2023-08-13T00:00	22572	40	-53.4	-85.1	71	3
2023-08-13T00:00	22596	40	-53.3	-85.0	69	4
2023-08-13T00:00	22619	39	-53.3	-85.0	71	4
2023-08-13T00:00	22646	39	-53.4	-85.1	75	5
2023-08-13T00:00	22665	39	-53.4	-85.1	81	5
2023-08-13T00:00	22692	39	-53.3	-85.0	87	5
2023-08-13T00:00	22718	39	-53.3	-84.4	92	5
2023-08-13T00:00	22739	39	-53.4	-84.5	95	5
2023-08-13T00:00	22763	39	-53.5	-84.6	95	5
2023-08-13T00:00	22792	38	-53.4	-85.1	91	5
2023-08-13T00:00	22818	38	-53.3	-85.0	86	5
2023-08-13T00:00	22843	38	-53.2	-85.0	81	6
2023-08-13T00:00	22865	38	-53.1	-84.9	77	6
2023-08-13T00:00	22895	38	-53.1	-84.9	74	6
2023-08-13T00:00	22916	38	-53.1	-84.9	73	7
2023-08-13T00:00	22939	38	-53.1	-84.9	73	7
2023-08-13T00:00	22965	37	-53.1	-84.9	75	7
2023-08-13T00:00	22991	37	-53.3	-85.0	76	7
2023-08-13T00:00	23016	37	-52.8	-84.7	79	7
2023-08-13T00:00	23045	37	-52.7	-84.6	81	7
2023-08-13T00:00	23070	37	-52.7	-84.6	85	7
2023-08-13T00:00	23091	37	-52.5	-84.4	89	6
2023-08-13T00:00	23119	37	-52.5	-84.4	94	6
2023-08-13T00:00	23146	36	-52.5	-84.4	100	6
2023-08-13T00:00	23169	36	-52.4	-84.4	105	6
2023-08-13T00:00	23193	36	-52.5	-84.4	108	7
2023-08-13T00:00	23222	36	-52.5	-84.4	109	7
2023-08-13T00:00	23245	36	-52.6	-84.5	109	7
2023-08-13T00:00	23270	36	-52.6	-84.5	107	8
2023-08-13T00:00	23295	36	-52.6	-84.5	104	8
2023-08-13T00:00	23326	35	-52.6	-84.5	101	9
2023-08-13T00:00	23348	35	-52.5	-84.4	99	9
2023-08-13T00:00	23377	35	-52.5	-84.4	99	10
2023-08-13T00:00	23397	35	-52.5	-84.4	101	10
2023-08-13T00:00	23423	35	-52.3	-84.3	104	11
2023-08-13T00:00	23452	35	-52.2	-84.2	107	11
2023-08-13T00:00	23476	35	-52.3	-84.3	112	11
2023-08-13T00:00	23499	34	-52.4	-84.4	116	10
2023-08-13T00:00	23525	34	-52.5	-84.4	121	10
2023-08-13T00:00	23550	34	-52.6	-84.5	126	10
2023-08-13T00:00	23580	34	-52.8	-84.7	131	9
2023-08-13T00:00	23604	34	-52.9	-84.7	135	9
2023-08-13T00:00	23627	34	-53.0	-84.8	139	9
2023-08-13T00:00	23653	34	-53.0	-84.8	143	9
2023-08-13T00:00	23682	33	-53.0	-84.8	147	8
2023-08-13T00:00	23698	33	-52.9	-84.7	150	7
2023-08-13T00:00	23723	33	-52.7	-84.6	153	7
2023-08-13T00:00	23754	33	-52.5	-84.4	157	6
2023-08-13T00:00	23782	33	-52.4	-84.4	160	5
2023-08-13T00:00	23800	33	-52.4	-84.4	163	4
2023-08-13T00:00	23825	33	-52.4	-84.4	164	3
2023-08-13T00:00	23849	33	-52.4	-84.4	159	3
2023-08-13T00:00	23874	32	-52.4	-84.4	147	2
2023-08-13T00:00	23897	32	-52.2	-84.2	126	2
2023-08-13T00:00	23919	32	-52.1	-84.8	108	2
2023-08-13T00:00	23943	32	-52.0	-84.8	97	3
2023-08-13T00:00	23967	32	-51.9	-84.7	93	3
2023-08-13T00:00	23993	32	-52.0	-84.8	94	3
2023-08-13T00:00	24014	32	-52.0	-84.8	96	4
2023-08-13T00:00	24035	32	-52.0	-84.1	98	4
2023-08-13T00:00	24065	32	-52.0	-84.1	100	5
2023-08-13T00:00	24086	31	-52.1	-84.2	101	5
2023-08-13T00:00	24108	31	-51.9	-84.0	102	5
2023-08-13T00:00	24133	31	-51.9	-84.0	102	6
2023-08-13T00:00	24151	31	-52.0	-84.1	102	6
2023-08-13T00:00	24174	31	-52.1	-84.2	102	6
2023-08-13T00:00	24199	31	-52.1	-84.2	102	6
2023-08-13T00:00	24221	31	-52.1	-84.2	101	6
2023-08-13T00:00	24250	31	-52.0	-84.1	100	6
2023-08-13T00:00	24272	31	-52.0	-84.1	99	6
2023-08-13T00:00	24295	30	-51.9	-84.7	98	6
2023-08-13T00:00	24319	30	-51.9	-84.7	96	6
2023-08-13T00:00	24340	30	-51.9	-84.7	95	6
2023-08-13T00:00	24366	30	-51.9	-84.7	93	6
2023-08-13T00:00	24391	30	-51.8	-84.6	92	6
2023-08-13T00:00	24413	30	-51.9	-84.0	91	5
2023-08-13T00:00	24443	30	-52.0	-84.1	90	5
2023-08-13T00:00	24463	30	-52.2	-84.2	90	5
2023-08-13T00:00	24484	30	-52.4	-84.4	89	4
2023-08-13T00:00	24508	29	-52.4	-84.4	88	4
2023-08-13T00:00	24530	29	-52.2	-84.2	87	4
2023-08-13T00:00	24553	29	-52.2	-84.9	85	4
2023-08-13T00:00	24576	29	-52.0	-84.8	83	4
2023-08-13T00:00	24597	29	-51.8	-84.6	82	4
2023-08-13T00:00	24624	29	-51.6	-84.5	80	4
2023-08-13T00:00	24644	29	-51.5	-84.4	79	4
2023-08-13T00:00	24668	29	-51.3	-84.3	78	4
2023-08-13T00:00	24696	29	-51.3	-84.3	79	4
2023-08-13T00:00	24721	29	-51.3	-84.3	81	4
2023-08-13T00:00	24743	28	-51.2	-84.2	83	4
2023-08-13T00:00	24765	28	-51.1	-84.1	85	5
2023-08-13T00:00	24794	28	-51.1	-84.1	86	5
2023-08-13T00:00	24816	28	-51.1	-84.1	86	5
2023-08-13T00:00	24851	28	-51.2	-84.2	87	5
2023-08-13T00:00	24871	28	-51.5	-84.4	87	6
2023-08-13T00:00	24893	28	-51.7	-83.9	87	6
2023-08-13T00:00	24923	28	-51.9	-84.0	86	6
2023-08-13T00:00	24945	28	-51.9	-84.0	85	7
2023-08-13T00:00	24969	27	-51.8	-83.9	84	7
2023-08-13T00:00	25003	27	-51.9	-84.7	83	7
2023-08-13T00:00	25027	27	-51.8	-84.6	84	8
2023-08-13T00:00	25047	27	-51.8	-84.6	86	8
2023-08-13T00:00	25070	27	-51.7	-84.5	90	7
2023-08-13T00:00	25101	27	-51.5	-84.4	95	7
2023-08-13T00:00	25125	27	-51.5	-84.4	100	7
2023-08-13T00:00	25150	27	-51.3	-84.3	106	7
2023-08-13T00:00	25180	27	-51.0	-84.0	112	7
2023-08-13T00:00	25203	26	-50.9	-84.0	118	7
2023-08-13T00:00	25235	26	-51.0	-84.0	124	7
2023-08-13T00:00	25259	26	-51.1	-84.1	129	7
2023-08-13T00:00	25286	26	-51.3	-84.3	132	6
2023-08-13T00:00	25306	26	-51.2	-84.2	134	6
2023-08-13T00:00	25328	26	-50.9	-84.0	134	6
2023-08-13T00:00	25359	26	-50.9	-84.0	134	6
2023-08-13T00:00	25384	26	-50.7	-83.8	134	6
2023-08-13T00:00	25413	26	-50.6	-83.7	134	6
2023-08-13T00:00	25434	26	-50.6	-83.7	135	6
2023-08-13T00:00	25466	25	-50.6	-83.7	136	6
2023-08-13T00:00	25486	25	-50.6	-83.7	137	5
2023-08-13T00:00	25512	25	-50.6	-83.7	137	5
2023-08-13T00:00	25540	25	-50.7	-83.8	135	5
2023-08-13T00:00	25567	25	-50.8	-83.9	132	5
2023-08-13T00:00	25585	25	-50.9	-84.0	128	4
2023-08-13T00:00	25611	25	-50.8	-83.9	124	4
2023-08-13T00:00	25639	25	-50.8	-83.9	122	4
2023-08-13T00:00	25665	25	-50.7	-83.8	121	4
2023-08-13T00:00	25691	25	-50.7	-83.8	123	4
2023-08-13T00:00	25720	24	-50.6	-83.7	128	3
2023-08-13T00:00	25738	24	-50.6	-83.7	134	3
2023-08-13T00:00	25773	24	-50.7	-83.8	142	3
2023-08-13T00:00	25791	24	-50.7	-83.8	148	3
2023-08-13T00:00	25820	24	-50.6	-83.7	149	3
2023-08-13T00:00	25844	24	-50.6	-83.7	146	3
2023-08-13T00:00	25867	24	-50.6	-83.7	142	3
2023-08-13T00:00	25888	24	-50.4	-83.6	135	3
2023-08-13T00:00	25908	24	-50.4	-83.6	128	2
2023-08-13T00:00	25937	24	-50.4	-83.6	120	2
2023-08-13T00:00	25963	24	-50.5	-83.7	113	2
2023-08-13T00:00	25988	23	-50.6	-83.7	106	2
2023-08-13T00:00	26014	23	-50.7	-83.8	100	2
2023-08-13T00:00	26038	23	-50.7	-83.8	91	2
2023-08-13T00:00	26063	23	-50.9	-84.0	76	2
2023-08-13T00:00	26087	23	-50.8	-83.9	61	2
2023-08-13T00:00	26113	23	-50.6	-83.7	50	2
2023-08-13T00:00	26139	23	-50.6	-83.7	45	3
2023-08-13T00:00	26167	23	-50.7	-83.8	45	3
2023-08-13T00:00	26191	23	-50.7	-83.8	47	4
2023-08-13T00:00	26217	23	-50.8	-83.9	51	4
2023-08-13T00:00	26242	23	-50.8	-83.9	57	4
2023-08-13T00:00	26273	22	-50.7	-83.8	63	4
2023-08-13T00:00	26289	22	-50.6	-83.7	70	4
2023-08-13T00:00	26311	22	-50.7	-83.8	76	5
2023-08-13T00:00	26351	22	-50.7	-83.8	81	5
2023-08-13T00:00	26366	22	-50.6	-83.7	85	6
2023-08-13T00:00	26389	22	-50.8	-83.9	89	6
2023-08-13T00:00	26411	22	-51.0	-84.0	92	6
2023-08-13T00:00	26442	22	-51.2	-84.2	96	7
2023-08-13T00:00	26473	22	-51.4	-84.3	101	7
2023-08-13T00:00	26495	22	-51.3	-84.3	105	7
2023-08-13T00:00	26528	22	-51.4	-84.3	109	8
2023-08-13T00:00	26547	22	-51.4	-84.3	112	8
2023-08-13T00:00	26576	21	-51.3	-84.3	115	8
2023-08-13T00:00	26603	21	-51.1	-84.1	118	7
2023-08-13T00:00	26627	21	-51.0	-84.8	120	7
2023-08-13T00:00	26659	21	-50.8	-84.7	122	6
2023-08-13T00:00	26679	21	-50.8	-84.7	123	5
2023-08-13T00:00	26709	21	-50.8	-84.7	122	4
2023-08-13T00:00	26741	21	-50.8	-84.7	118	4
2023-08-13T00:00	26765	21	-50.5	-84.5	111	4
2023-08-13T00:00	26799	21	-50.2	-84.2	103	3
2023-08-13T00:00	26816	21	-50.2	-84.2	96	3
2023-08-13T00:00	26846	21	-50.1	-84.2	93	3
2023-08-13T00:00	26873	20	-50.1	-84.2	93	3
2023-08-13T00:00	26906	20	-50.0	-84.1	96	3
2023-08-13T00:00	26931	20	-49.9	-84.0	100	3
2023-08-13T00:00	26958	20	-49.9	-84.0	103	3
2023-08-13T00:00	26981	20	-49.9	-84.0	104	4
2023-08-13T00:00	27006	20	-49.8	-84.0	103	4
2023-08-13T00:00	27044	20	-49.8	-84.0	102	5
2023-08-13T00:00	27071	20	-49.7	-83.9	102	5
2023-08-13T00:00	27090	20	-49.7	-83.9	101	5
2023-08-13T00:00	27108	20	-49.8	-84.0	100	6
2023-08-13T00:00	27142	20	-49.6	-83.8	99	6
2023-08-13T00:00	27165	20	-49.5	-83.7	97	6
2023-08-13T00:00	27198	20	-49.6	-83.8	94	6
2023-08-13T00:00	27220	19	-49.7	-83.9	92	7
2023-08-13T00:00	27250	19	-49.5	-83.7	90	7
2023-08-13T00:00	27279	19	-49.3	-83.6	89	8
2023-08-13T00:00	27299	19	-48.9	-83.3	89	8
2023-08-13T00:00	27327	19	-48.9	-83.3	92	8
2023-08-13T00:00	27356	19	-49.0	-83.4	95	8
2023-08-13T00:00	27370	19	-48.9	-84.2	100	8
2023-08-13T00:00	27403	19	-48.7	-84.1	104	8
2023-08-13T00:00	27424	19	-48.6		108	8
2023-08-13T00:00	27444	19	-48.6		110	8
2023-08-13T00:00	27479	19	-48.5	-83.9	112	8
2023-08-13T00:00	27508	19	-48.4	-83.8	113	8
2023-08-13T00:00	27535	19	-48.4	-83.8	114	7
2023-08-13T00:00	27556	18	-48.2	-83.7	116	7
2023-08-13T00:00	27577	18	-48.0	-83.6	116	7
2023-08-13T00:00	27606	18	-47.7	-83.4	116	6
2023-08-13T00:00	27619	18	-47.4	-83.1	113	6
2023-08-13T00:00	27647	18	-47.2	-83.0	109	6
2023-08-13T00:00	27672	18	-47.2	-83.0	104	6
2023-08-13T00:00	27699	18	-47.0	-82.9	99	6
2023-08-13T00:00	27728	18	-47.0	-82.9	94	6
2023-08-13T00:00	27751	18	-46.9	-82.8	91	7
2023-08-13T00:00	27775	18	-46.6	-82.6	88	7
2023-08-13T00:00	27795	18	-46.3	-82.4	87	7
2023-08-13T00:00	27817	18	-46.1	-83.3	88	7
2023-08-13T00:00	27844	18	-46.0	-83.2	90	7
2023-08-13T00:00	27869	18	-46.0	-83.2	94	6
2023-08-13T00:00	27894	18	-45.7	-83.0	100	6
2023-08-13T00:00	27923	17	-45.7	-83.0	106	5
2023-08-13T00:00	27945	17	-45.6	-82.9	111	5
2023-08-13T00:00	27981	17	-45.2	-82.7	114	5
2023-08-13T00:00	28001	17	-45.2	-82.7	114	5
2023-08-13T00:00	28031	17	-44.9	-82.5	111	5
2023-08-13T00:00	28053	17	-44.9	-82.5	107	6
2023-08-13T00:00	28083	17	-44.7	-82.3	102	6
2023-08-13T00:00	28110	17	-44.8	-82.4	98	7
2023-08-13T00:00	28135	17	-44.6	-82.2	94	8
2023-08-13T00:00	28161	17	-44.3	-82.0	92	8
2023-08-13T00:00	28181	17	-44.2	-82.0	90	9
2023-08-13T00:00	28204	17	-44.1	-81.9	88	8
2023-08-13T00:00	28233	17	-44.0	-81.8	87	8
2023-08-13T00:00	28272	17	-43.8	-81.7	87	7
2023-08-13T00:00	28296	17	-43.8	-81.7	87	7
2023-08-13T00:00	28317	16	-43.9	-81.8	86	6
2023-08-13T00:00	28347	16	-43.6	-81.5	84	6
2023-08-13T00:00	28382	16	-43.6	-81.5	82	6
2023-08-13T00:00	28401	16	-43.6	-81.5	81	6
2023-08-13T00:00	28428	16	-43.5	-81.5	80	7
2023-08-13T00:00	28467	16	-43.5	-81.5	79	7
2023-08-13T00:00	28481	16	-43.4	-81.4	80	8
2023-08-13T00:00	28521	16	-43.4	-81.4	80	8
2023-08-13T00:00	28538	16	-43.5	-81.5	79	9
2023-08-13T00:00	28574	16	-43.6	-81.5	78	8
2023-08-13T00:00	28597	16	-43.5	-81.5	75	8
2023-08-13T00:00	28625	16	-43.4	-81.4	71	7
2023-08-13T00:00	28655	16	-43.4	-81.4	67	6
2023-08-13T00:00	28688	16	-43.6	-81.5	64	6
2023-08-13T00:00	28709	16	-43.8	-81.7	63	6
2023-08-13T00:00	28732	15	-43.8	-81.7	65	6
2023-08-13T00:00	28757	15	-43.7	-81.6	69	6
2023-08-13T00:00	28787	15	-43.7	-81.6	73	6
2023-08-13T00:00	28806	15	-43.8	-81.7	77	6
2023-08-13T00:00	28837	15	-43.9	-81.8	81	6
2023-08-13T00:00	28870	15	-44.0	-81.8	83	6
2023-08-13T00:00	28900	15	-44.2	-82.0	84	6
2023-08-13T00:00	28920	15	-44.4	-82.1	84	5
2023-08-13T00:00	28939	15	-44.4	-82.1	82	5
2023-08-13T00:00	28976	15	-44.4	-82.1	81	4
2023-08-13T00:00	29003	15	-44.4	-82.1	81	4
2023-08-13T00:00	29029	15	-44.2	-82.0	83	3
2023-08-13T00:00	29051	15	-44.0	-81.8	88	3
2023-08-13T00:00	29078	15	-44.1	-81.9	95	3
2023-08-13T00:00	29119	15	-44.1	-81.9	102	3
2023-08-13T00:00	29140	15	-44.2	-82.0	110	3
2023-08-13T00:00	29164	15	-44.2	-82.0	118	2
2023-08-13T00:00	29192	14	-44.2	-82.0	127	2
2023-08-13T00:00	29226	14	-44.3	-82.0	136	2
2023-08-13T00:00	29240	14	-44.3	-82.0	145	2
2023-08-13T00:00	29271	14	-44.3	-82.0	151	2
2023-08-13T00:00	29300	14	-44.4	-82.1	156	2
2023-08-13T00:00	29323	14	-44.3	-82.0	159	2
2023-08-13T00:00	29351	14	-44.2	-82.0	164	2
2023-08-13T00:00	29379	14	-44.1	-81.9	171	2
2023-08-13T00:00	29401	14	-44.1	-81.9	179	2
2023-08-13T00:00	29437	14	-44.1	-81.9	188	2
2023-08-13T00:00	29458	14	-44.0	-81.8	193	1
2023-08-13T00:00	29490	14	-44.0	-81.8	187	1
2023-08-13T00:00	29504	14	-44.0	-81.8	165	1
2023-08-13T00:00	29533	14	-44.0	-81.8	143	1
2023-08-13T00:00	29570	14	-43.9	-81.8	136	2
2023-08-13T00:00	29587	14	-43.7	-81.6	137	2
2023-08-13T00:00	29622	14	-43.5	-81.5	141	3
2023-08-13T00:00	29655	14	-43.7	-81.6	145	3
2023-08-13T00:00	29674	13	-43.9	-81.8	149	3
2023-08-13T00:00	29705	13	-43.9	-81.8	153	3
2023-08-13T00:00	29734	13	-43.9	-81.8	157	2
2023-08-13T00:00	29754	13	-43.9	-81.8	163	2
2023-08-13T00:00	29796	13	-44.0	-81.8	171	1
2023-08-13T00:00	29822	13	-44.1	-81.9	189	1
2023-08-13T00:00	29841	13	-43.9	-81.8	290	0
2023-08-13T00:00	29873	13	-43.9	-81.8	342	1
2023-08-13T00:00	29901	13	-44.0	-81.8	355	2
2023-08-13T00:00	29925	13	-44.1	-81.9	3	2
2023-08-13T00:00	29973	13	-44.1	-81.9	11	3
2023-08-13T00:00	29985	13	-44.0	-81.8	19	3
2023-08-13T00:00	30016	13	-43.9	-81.8	26	4
2023-08-13T00:00	30037	13	-43.9	-81.8	32	4
2023-08-13T00:00	30078	13	-43.8	-81.7	38	5
2023-08-13T00:00	30097	13	-43.8	-81.7	43	5
2023-08-13T00:00	30116	13	-43.9	-81.8	47	6
2023-08-13T00:00	30159	13	-44.0	-81.8	52	6
2023-08-13T00:00	30181	13	-44.2	-82.0	56	6
2023-08-13T00:00	30194	12	-44.2	-82.0	59	7
2023-08-13T00:00	30241	12	-44.2	-82.0	62	7
2023-08-13T00:00	30250	12	-44.2	-82.0	64	7
2023-08-13T00:00	30274	12	-44.0	-81.8	64	7
2023-08-13T00:00	30298	12	-43.8	-81.7	65	7
2023-08-13T00:00	30336	12	-43.9	-81.8	64	7
2023-08-13T00:00	30357	12	-44.0	-81.8	64	7
2023-08-13T00:00	30375	12	-44.1	-81.9	63	6
2023-08-13T00:00	30410	12	-44.3	-82.0	63	6
2023-08-13T00:00	30432	12	-44.5	-82.2	64	6
2023-08-13T00:00	30460	12	-44.6	-82.2	65	5
2023-08-13T00:00	30482	12	-44.7	-82.3	68	5
2023-08-13T00:00	30503	12	-44.9	-82.5	74	5
2023-08-13T00:00	30543	12	-45.0	-82.5	82	4
2023-08-13T00:00	30557	12	-45.2	-82.7	91	5
2023-08-13T00:00	30579	12	-45.3	-82.7	101	5
2023-08-13T00:00	30615	12	-45.4	-82.8	108	5
2023-08-13T00:00	30634	12	-45.5	-82.9	114	5
2023-08-13T00:00	30666	12	-45.7	-83.0	118	5
2023-08-13T00:00	30702	12	-45.5	-82.9	120	5
2023-08-13T00:00	30718	12	-45.6	-82.9	119	4
2023-08-13T00:00	30768	11	-45.5	-82.9	113	3
2023-08-13T00:00	30777	11	-45.2	-82.7	101	3
2023-08-13T00:00	30788	11	-44.8	-82.4	81	2
2023-08-13T00:00	30836	11	-44.8	-82.4	59	3
2023-08-13T00:00	30862	11	-44.6	-82.2	43	3
2023-08-13T00:00	30882	11	-44.5	-82.2	34	4
2023-08-13T00:00	30901	11	-44.5	-82.2	28	4
2023-08-13T00:00	30920	11	-44.4	-82.1	24	5
2023-08-13T00:00	30960	11	-44.5	-82.2	21	6
2023-08-13T00:00	30986	11	-44.5	-82.2	21	6
2023-08-13T00:00	31008	11	-44.5	-82.2	23	7
2023-08-13T00:00	31020	11	-44.4	-82.1	26	7
2023-08-13T00:00	31055	11	-44.3	-82.0	32	7
2023-08-13T00:00	31088	11	-44.2	-82.0	39	7
2023-08-13T00:00	31108	11	-44.2	-82.0	46	6
2023-08-13T00:00	31132	11	-44.3	-82.0	53	6
2023-08-13T00:00	31148	11	-44.4	-82.1	58	6
2023-08-13T00:00	31179	11	-44.5	-82.2	61	6
2023-08-13T00:00	31188	11	-44.4	-82.1	63	6
2023-08-13T00:00	31222	11	-44.2	-82.0	65	6
2023-08-13T00:00	31260	11	-43.8	-81.7	68	6
2023-08-13T00:00	31270	11	-43.6	-81.5	71	6
2023-08-13T00:00	31305	11	-43.5	-81.5	73	7
2023-08-13T00:00	31328	11	-43.5	-81.5	73	7
2023-08-13T00:00	31346	10	-43.3	-81.3	73	8
2023-08-13T00:00	31376	10	-42.9	-81.1	72	8
2023-08-13T00:00	31390	10	-42.8	-81.0	72	9
2023-08-13T00:00	31434	10	-42.8	-81.0	73	9
2023-08-13T00:00	31451	10	-42.7	-80.9	76	8
2023-08-13T00:00	31487	10	-42.6	-80.8	80	8
2023-08-13T00:00	31510	10	-42.6	-80.8	85	8
2023-08-13T00:00	31533	10	-42.7	-80.9	89	8
2023-08-13T00:00	31559	10	-42.8	-81.0	92	8
2023-08-13T00:00	31589	10	-42.8	-81.0	93	8
2023-08-13T00:00	31612	10	-42.8	-81.0	94	8
2023-08-13T00:00	31639	10	-42.7	-80.9	93	8
2023-08-13T00:00	31655	10	-42.7	-80.9	92	8
2023-08-13T00:00	31684	10	-42.6	-80.8	91	8
2023-08-13T00:00	31729	10	-42.4	-80.7	90	9
2023-08-13T00:00	31741	10	-42.2	-80.6	90	9
2023-08-13T00:00	31776	10	-41.9	-80.4	90	9
2023-08-13T00:00	31786	10	-41.8	-80.3	90	10
2023-08-13T00:00	31794	10	-41.8	-80.3	91	10
2023-08-13T00:00	31847	10	-41.9	-80.4	91	11
2023-08-13T00:00	31870	10	-41.9	-80.4	90	11
2023-08-13T00:00	31906	10	-41.9	-80.4	90	12
2023-08-13T00:00	31920	10	-41.9	-80.4	88	12
2023-08-13T00:00	31952	10	-41.9	-80.4	87	12
2023-08-13T00:00	31976	10	-41.9	-80.4	86	12
2023-08-13T00:00	32005	10	-41.8	-80.3	84	12
2023-08-13T00:00	32009	10	-41.8	-80.3	83	12
2023-08-13T00:00	32033	9	-41.8	-80.3	82	12
2023-08-13T00:00	32089	9	-41.8	-80.3	81	12
2023-08-13T00:00	32091	9	-41.6	-80.1	80	11
2023-08-13T00:00	32113	9	-41.4	-80.0	79	11
2023-08-13T00:00	32167	9	-41.3	-79.9	79	11
2023-08-13T00:00	32190	9	-41.3	-79.9	78	10
2023-08-13T00:00	32219	9	-41.5	-80.1	78	10
2023-08-13T00:00	32229	9	-41.5	-80.1	79	10
2023-08-13T00:00	32278	9	-41.4	-80.0	79	10
2023-08-13T00:00	32327	9	-41.3	-79.9	79	10
2023-08-13T00:00	32345	9	-41.2	-79.9	78	11
2023-08-13T00:00	32370	9	-41.2	-79.9	76	11
2023-08-13T00:00	32388	9	-41.1	-79.8	74	11
2023-08-13T00:00	32422	9	-41.0	-79.7	73	11
2023-08-13T00:00	32444	9	-40.7	-79.5	72	12
2023-08-13T00:00	32452	9	-40.5	-79.4	73	12
2023-08-13T00:00	32514	9	-40.5	-79.4	75	12
2023-08-13T00:00	32531	9	-40.6	-79.5	79	12
2023-08-13T00:00	32542	9	-40.4	-79.3	83	13
2023-08-13T00:00	32584	9	-40.0	-79.0	86	13
2023-08-13T00:00	32599	9	-39.8	-78.9	88	14
2023-08-13T00:00	32624	9	-39.6	-78.8	89	14
2023-08-13T00:00	32655	9	-39.4	-78.6	90	14
2023-08-13T00:00	32663	9	-39.3	-78.5	89	14
2023-08-13T00:00	32707	9	-39.1	-78.4	88	13
2023-08-13T00:00	32748	9	-38.9	-78.3	86	13
2023-08-13T00:00	32758	9	-38.7	-78.1	84	13
2023-08-13T00:00	32782	9	-38.6	-78.1	82	13
2023-08-13T00:00	32800	8	-38.6	-78.1	80	13
2023-08-13T00:00	32834	8	-38.6	-78.1	78	13
2023-08-13T00:00	32868	8	-38.8	-78.2	76	13
2023-08-13T00:00	32890	8	-38.9	-78.3	74	13
2023-08-13T00:00	32894	8	-38.9	-78.3	72	14
2023-08-13T00:00	32949	8	-38.8	-78.2	71	14
2023-08-13T00:00	32984	8	-38.4	-77.9	74	14
2023-08-13T00:00	33001	8	-38.1	-77.7	76	13
2023-08-13T00:00	33024	8	-37.8	-77.5	79	13
2023-08-13T00:00	33066	8	-37.9	-77.6	82	13
2023-08-13T00:00	33109	8	-37.8	-77.5	86	12
2023-08-13T00:00	33126	8	-37.9	-77.6	88	12
2023-08-13T00:00	33165	8	-37.8	-77.5	94	12
2023-08-13T00:00	33176	8	-37.6	-77.4	96	12
2023-08-13T00:00	33206	8	-37.5	-77.3	99	12
2023-08-13T00:00	33228	8	-37.4	-77.2	101	12
2023-08-13T00:00	33250	8	-37.4	-77.2	103	12
2023-08-13T00:00	33281	8	-37.4	-77.2	102	12
2023-08-13T00:00	33296	8	-37.3	-77.2	101	12
2023-08-13T00:00	33328	8	-37.4	-77.2	98	12
2023-08-13T00:00	33356	8	-37.1	-77.0	94	11
2023-08-13T00:00	33364	8	-37.0	-77.0	91	11
2023-08-13T00:00	33398	8	-36.8	-76.8	88	11
2023-08-13T00:00	33425	8	-36.6	-76.7	86	11
2023-08-13T00:00	33442	8	-36.4	-76.5	85	11
2023-08-13T00:00	33467	8	-36.2	-76.4	84	11
2023-08-13T00:00	33482	8	-35.7	-76.1	84	11
2023-08-13T00:00	33487	8	-35.2	-75.7	83	10
2023-08-13T00:00	33514	8	-34.9	-75.5	81	10
2023-08-13T00:00	33538	8	-34.8	-75.4	81	10
2023-08-13T00:00	33558	8	-34.7	-75.4	80	10
2023-08-13T00:00	33604	8	-34.7	-75.4	79	9
2023-08-13T00:00	33634	8	-34.6	-75.3	79	10
2023-08-13T00:00	33650	8	-34.6	-75.3	79	9
2023-08-13T00:00	33673	7	-34.5	-75.2	80	9
2023-08-13T06:00	116	1005	18.5	18.5	270	2
2023-08-13T06:00	140	1002	17.8	17.8	268	2
2023-08-13T06:00	160	999	17.6	17.6	271	2
2023-08-13T06:00	184	997	17.5	17.5	277	3
2023-08-13T06:00	209	994	17.4	17.4	286	4
2023-08-13T06:00	231	991	17.3	17.3	296	4
2023-08-13T06:00	258	988	17.1	17.1	306	4
2023-08-13T06:00	277	986	17.2	15.8	315	5
2023-08-13T06:00	299	984	17.6	14.3	322	5
2023-08-13T06:00	320	981	17.8	13.2	328	6
2023-08-13T06:00	344	978	17.6	12.9	332	6
2023-08-13T06:00	361	976	17.6	12.9	335	6
2023-08-13T06:00	384	974	18.1	6.6	337	7
2023-08-13T06:00	402	972	18.1	5.8	338	7
2023-08-13T06:00	418	970	18.1	5.5	338	7
2023-08-13T06:00	436	968	17.9	6.4	337	7
2023-08-13T06:00	462	965	17.6	8.2	335	7
2023-08-13T06:00	490	962	17.4	8.1	333	6
2023-08-13T06:00	518	959	17.1	8.5	329	6
2023-08-13T06:00	549	955	16.8	8.6	324	6
2023-08-13T06:00	577	952	16.6	9.1	318	6
2023-08-13T06:00	604	949	16.1	12.0	312	6
2023-08-13T06:00	633	946	15.9	10.9	307	6
2023-08-13T06:00	659	943	15.5	13.9	303	6
2023-08-13T06:00	686	940	15.3	14.3	301	6
2023-08-13T06:00	713	937	15.2	13.1	299	6
2023-08-13T06:00	736	934	15.3	12.8	299	7
2023-08-13T06:00	763	931	15.2	12.7	298	7
2023-08-13T06:00	788	929	15.1	12.6	297	7
2023-08-13T06:00	816	926	14.8	13.0	295	7
2023-08-13T06:00	844	923	14.4	13.6	293	7
2023-08-13T06:00	869	920	14.2	13.8	291	7
2023-08-13T06:00	897	917	14.2	13.1	289	7
2023-08-13T06:00	921	914	14.1	12.8	287	7
2023-08-13T06:00	946	912	14.1	11.8	284	7
2023-08-13T06:00	969	909	14.0	11.2	282	7
2023-08-13T06:00	994	906	14.1	10.1	279	7
2023-08-13T06:00	1016	904	14.2	9.0	277	8
2023-08-13T06:00	1036	902	14.3	8.4	276	8
2023-08-13T06:00	1058	900	14.8	5.1	275	9
2023-08-13T06:00	1080	897	15.0	5.4	274	9
2023-08-13T06:00	1104	895	14.9	5.6	273	10
2023-08-13T06:00	1124	892	14.7	5.7	272	11
2023-08-13T06:00	1148	890	14.7	6.4	271	11
2023-08-13T06:00	1170	888	14.8	7.2	268	12
2023-08-13T06:00	1194	885	14.7	7.6	266	12
2023-08-13T06:00	1212	883	14.5	7.7	263	13
2023-08-13T06:00	1236	881	14.4	9.1	261	13
2023-08-13T06:00	1254	879	14.3	9.7	259	13
2023-08-13T06:00	1281	876	14.1	9.9	257	13
2023-08-13T06:00	1308	873	13.8	9.8	256	13
2023-08-13T06:00	1335	871	13.6	9.8	255	12
2023-08-13T06:00	1357	868	13.4	9.9	255	12
2023-08-13T06:00	1382	866	13.2	9.8	254	13
2023-08-13T06:00	1406	863	13.0	9.8	254	13
2023-08-13T06:00	1426	861	12.8	9.7	253	13
2023-08-13T06:00	1448	859	12.6	9.8	253	14
2023-08-13T06:00	1474	856	12.4	9.7	253	14
2023-08-13T06:00	1500	854	12.2	9.6	253	13
2023-08-13T06:00	1528	851	12.0	9.5	254	13
2023-08-13T06:00	1558	848	11.7	9.4	254	13
2023-08-13T06:00	1586	845	11.5	9.4	253	13
2023-08-13T06:00	1614	842	11.2	9.3	252	13
2023-08-13T06:00	1641	839	11.0	9.2	251	13
2023-08-13T06:00	1671	836	10.8	9.2	250	13
2023-08-13T06:00	1702	833	10.6	9.0	249	13
2023-08-13T06:00	1726	831	10.4	9.0	248	14
2023-08-13T06:00	1754	828	10.5	8.3	248	14
2023-08-13T06:00	1782	825	10.3	8.1	249	13
2023-08-13T06:00	1811	823	10.1	8.0	250	13
2023-08-13T06:00	1840	820	9.9	7.8	251	13
2023-08-13T06:00	1870	817	9.7	7.7	251	13
2023-08-13T06:00	1894	814	9.6	7.7	250	13
2023-08-13T06:00	1926	811	9.5	7.2	249	12
2023-08-13T06:00	1957	808	9.3	7.1	247	12
2023-08-13T06:00	1982	806	9.1	6.9	245	12
2023-08-13T06:00	2007	803	8.9	6.7	244	12
2023-08-13T06:00	2035	801	8.7	6.5	244	12
2023-08-13T06:00	2063	798	8.4	6.2	244	12
2023-08-13T06:00	2090	795	8.2	6.3	244	12
2023-08-13T06:00	2121	792	7.9	6.1	244	13
2023-08-13T06:00	2147	790	7.8	6.0	244	13
2023-08-13T06:00	2170	788	7.5	5.9	243	13
2023-08-13T06:00	2196	785	7.3	5.8	243	14
2023-08-13T06:00	2224	783	7.1		243	14
2023-08-13T06:00	2252	780	6.9	5.5	243	14
2023-08-13T06:00	2279	777	6.6	5.3	243	14
2023-08-13T06:00	2306	775	6.5	5.0	243	14
2023-08-13T06:00	2331	772	6.2	4.8	242	14
2023-08-13T06:00	2358	770	6.0	4.8	242	14
2023-08-13T06:00	2382	768	5.9	4.0	242	14
2023-08-13T06:00	2404	765	5.7	4.2	242	14
2023-08-13T06:00	2434	763	5.5	3.7	244	13
2023-08-13T06:00	2463	760	5.9	1.3	245	13
2023-08-13T06:00	2486	758	6.0	1.8	248	12
2023-08-13T06:00	2508	756	5.7	2.3	250	12
2023-08-13T06:00	2526	754	5.7	2.1	251	11
2023-08-13T06:00	2557	752	6.0	-2.2	253	12
2023-08-13T06:00	2583	749	6.5	-9.0	254	12
2023-08-13T06:00	2610	747	6.5	-9.6	255	13
2023-08-13T06:00	2632	745	6.3	-7.3	257	14
2023-08-13T06:00	2653	743	6.1	-5.8	258	15
2023-08-13T06:00	2677	741	6.0	-5.0	258	15
2023-08-13T06:00	2696	738	5.9	-0.4	257	15
2023-08-13T06:00	2725	736	5.7	-0.1	255	15
2023-08-13T06:00	2743	734	5.6	-0.6	253	15
2023-08-13T06:00	2771	732	5.8	-5.5	251	15
2023-08-13T06:00	2796	730	5.8	-8.6	249	15
2023-08-13T06:00	2820	728	5.6	-7.1	247	15
2023-08-13T06:00	2850	725	5.3	-5.2	247	15
2023-08-13T06:00	2872	723	5.1	-3.2	246	15
2023-08-13T06:00	2899	721	4.9	-3.1	246	14
2023-08-13T06:00	2926	718	4.6	-2.5	247	14
2023-08-13T06:00	2948	716	4.4	-1.1	247	13
2023-08-13T06:00	2965	715	4.6	-5.6	248	13
2023-08-13T06:00	2981	713	4.5	-6.5	247	12
2023-08-13T06:00	3009	711	4.3	-6.9	246	12
2023-08-13T06:00	3034	709	4.2	-8.7	244	12
2023-08-13T06:00	3063	706	4.1	-10.5	242	12
2023-08-13T06:00	3089	704	4.0	-11.8	241	12
2023-08-13T06:00	3113	702	3.7	-4.9	240	12
2023-08-13T06:00	3137	700	3.6	-4.1	239	11
2023-08-13T06:00	3160	698	3.2	-1.9	239	12
2023-08-13T06:00	3181	696	3.0	-2.2	240	12
2023-08-13T06:00	3210	694	2.9	-3.0	241	12
2023-08-13T06:00	3230	692	2.7	-2.4	242	12
2023-08-13T06:00	3253	690	2.5	-2.4	243	12
2023-08-13T06:00	3279	688	2.6	-6.5	244	12
2023-08-13T06:00	3305	686	3.3	-25.3	244	12
2023-08-13T06:00	3325	684	3.2	-20.9	245	13
2023-08-13T06:00	3350	682	2.9	-12.9	247	13
2023-08-13T06:00	3371	680	3.0	-16.1	248	14
2023-08-13T06:00	3396	678	2.9	-17.3	250	14
2023-08-13T06:00	3420	676	2.7	-17.8	251	13
2023-08-13T06:00	3439	674	2.5	-18.2	251	13
2023-08-13T06:00	3465	672	2.3	-19.4	251	13
2023-08-13T06:00	3493	670	2.1	-21.1	250	13
2023-08-13T06:00	3514	668	2.0	-22.3	248	13
2023-08-13T06:00	3541	666	2.1	-28.6	247	13
2023-08-13T06:00	3564	664	2.2	-32.5	245	13
2023-08-13T06:00	3587	662	2.2	-32.2	244	13
2023-08-13T06:00	3606	660	2.1	-32.5	244	13
2023-08-13T06:00	3633	658	2.0	-32.6	245	14
2023-08-13T06:00	3664	656	1.8	-33.0	246	14
2023-08-13T06:00	3694	653	1.8	-33.4	247	14
2023-08-13T06:00	3715	651	1.7	-33.0	248	15
2023-08-13T06:00	3743	649	1.7	-33.3	249	15
2023-08-13T06:00	3765	647	1.6	-33.3	249	15
2023-08-13T06:00	3794	645	1.4	-33.2	249	15
2023-08-13T06:00	3819	643	1.1	-33.4	249	15
2023-08-13T06:00	3846	641	0.9	-33.6	249	15
2023-08-13T06:00	3866	639	0.8	-33.4	248	15
2023-08-13T06:00	3896	637	0.6	-34.0	248	15
2023-08-13T06:00	3930	634	0.4	-36.9	248	15
2023-08-13T06:00	3961	632	0.3	-37.6	249	15
2023-08-13T06:00	3982	630	0.4	-33.9	250	15
2023-08-13T06:00	4007	628	0.4	-27.5	250	15
2023-08-13T06:00	4031	626	0.3	-26.7	250	15
2023-08-13T06:00	4055	624	0.1	-26.8	249	16
2023-08-13T06:00	4083	622	0.1	-27.6	248	16
2023-08-13T06:00	4102	621	0.1	-30.0	248	15
2023-08-13T06:00	4121	619	0.2	-34.0	249	15
2023-08-13T06:00	4150	617	0.1	-35.6	251	15
2023-08-13T06:00	4176	615	-0.1	-37.2	253	15
2023-08-13T06:00	4196	613	-0.2	-37.3	254	15
2023-08-13T06:00	4221	611	-0.4	-37.4	255	15
2023-08-13T06:00	4254	609	-0.6	-37.6	255	16
2023-08-13T06:00	4277	608	-0.6	-37.9	255	16
2023-08-13T06:00	4297	606	-0.8	-38.0	256	17
2023-08-13T06:00	4316	605	-0.8	-38.7	256	17
2023-08-13T06:00	4335	603	-0.9	-38.8	256	18
2023-08-13T06:00	4356	601	-1.0	-39.2	257	18
2023-08-13T06:00	4373	600	-0.9	-40.3	256	18
2023-08-13T06:00	4394	598	-0.8	-41.0	256	19
2023-08-13T06:00	4418	597	-0.7	-41.4	255	19
2023-08-13T06:00	4446	595	-0.8	-41.5	254	19
2023-08-13T06:00	4473	593	-0.8	-41.5	254	19
2023-08-13T06:00	4499	591	-0.9	-41.1	253	19
2023-08-13T06:00	4524	589	-1.0	-40.7	253	18
2023-08-13T06:00	4550	587	-1.1	-40.0	254	18
2023-08-13T06:00	4579	585	-1.3	-39.8	254	17
2023-08-13T06:00	4602	583	-1.4	-39.5	254	17
2023-08-13T06:00	4630	581	-1.6	-39.6	253	17
2023-08-13T06:00	4659	579	-1.8	-39.4	252	17
2023-08-13T06:00	4680	577	-1.9	-37.9	251	18
2023-08-13T06:00	4701	576	-2.0	-37.2	251	18
2023-08-13T06:00	4722	574	-2.2	-36.8	250	19
2023-08-13T06:00	4754	572	-2.4	-36.7	250	19
2023-08-13T06:00	4784	570	-2.6	-36.6	250	19
2023-08-13T06:00	4812	568	-2.8	-36.5	250	19
2023-08-13T06:00	4832	566	-3.0	-36.7	250	19
2023-08-13T06:00	4858	565	-3.2	-36.6	250	18
2023-08-13T06:00	4887	563	-3.4	-35.9	250	18
2023-08-13T06:00	4914	561	-3.6	-35.7	249	17
2023-08-13T06:00	4943	559	-3.8	-35.6	249	17
2023-08-13T06:00	4967	557	-4.0	-35.6	249	17
2023-08-13T06:00	4996	555	-4.2	-35.4	248	17
2023-08-13T06:00	5031	552	-4.5	-35.4	247	16
2023-08-13T06:00	5053	551	-4.7	-35.4	247	16
2023-08-13T06:00	5073	549	-4.9	-35.5	246	16
2023-08-13T06:00	5094	548	-5.0	-35.6	244	16
2023-08-13T06:00	5122	546	-5.2	-35.8	243	17
2023-08-13T06:00	5153	544	-5.4	-35.9	242	17
2023-08-13T06:00	5175	542	-5.6	-36.1	241	17
2023-08-13T06:00	5195	541	-5.7	-36.0	241	18
2023-08-13T06:00	5218	539	-5.8	-35.6	242	18
2023-08-13T06:00	5248	537	-5.9	-34.1	243	18
2023-08-13T06:00	5273	535	-6.1	-34.0	245	18
2023-08-13T06:00	5301	534	-6.3	-33.5	247	18
2023-08-13T06:00	5329	532	-6.5	-33.2	248	18
2023-08-13T06:00	5357	530	-6.6	-32.4	250	18
2023-08-13T06:00	5387	528	-6.7	-32.2	251	18
2023-08-13T06:00	5412	526	-6.9	-32.1	251	18
2023-08-13T06:00	5441	524	-7.2	-32.0	251	17
2023-08-13T06:00	5470	522	-7.4	-31.8	251	17
2023-08-13T06:00	5493	521	-7.6	-31.6	249	17
2023-08-13T06:00	5523	519	-7.8	-30.5	248	17
2023-08-13T06:00	5551	517	-7.9	-29.7	247	17
2023-08-13T06:00	5580	515	-8.1	-29.3	246	17
2023-08-13T06:00	5609	513	-8.3	-29.1	246	17
2023-08-13T06:00	5632	511	-8.5	-28.9	248	17
2023-08-13T06:00	5656	510	-8.7	-27.7	249	17
2023-08-13T06:00	5686	508	-8.9	-27.0	251	17
2023-08-13T06:00	5709	506	-9.2	-27.0	252	17
2023-08-13T06:00	5737	505	-9.4	-26.3	252	17
2023-08-13T06:00	5760	503	-9.6	-25.3	252	17
2023-08-13T06:00	5785	501	-9.7	-24.8	251	17
2023-08-13T06:00	5811	500	-9.8	-24.3	250	17
2023-08-13T06:00	5839	498	-10.1	-23.8	249	17
2023-08-13T06:00	5857	497	-10.2	-23.8	248	17
2023-08-13T06:00	5881	495	-10.4	-23.8	247	17
2023-08-13T06:00	5903	494	-10.5	-23.8	245	17
2023-08-13T06:00	5932	492	-10.8	-23.9	244	17
2023-08-13T06:00	5962	490	-11.0	-24.0	243	17
2023-08-13T06:00	5985	489	-11.2	-24.2	242	17
2023-08-13T06:00	6002	487	-11.3	-24.2	243	17
2023-08-13T06:00	6024	486	-11.5	-24.3	243	17
2023-08-13T06:00	6051	484	-11.7	-24.2	244	16
2023-08-13T06:00	6082	482	-11.9	-23.3	244	16
2023-08-13T06:00	6110	481	-12.2	-22.9	245	15
2023-08-13T06:00	6140	479	-12.4	-22.8	245	15
2023-08-13T06:00	6170	477	-12.6	-22.8	246	15
2023-08-13T06:00	6196	475	-12.9	-22.8	247	15
2023-08-13T06:00	6225	474	-13.1	-22.8	247	15
2023-08-13T06:00	6249	472	-13.4	-23.0	247	15
2023-08-13T06:00	6276	470	-13.6	-23.0	246	16
2023-08-13T06:00	6305	469	-13.9	-22.8	245	16
2023-08-13T06:00	6332	467	-14.1	-23.0	244	17
2023-08-13T06:00	6360	465	-14.4	-23.2	243	17
2023-08-13T06:00	6383	464	-14.6	-23.3	243	17
2023-08-13T06:00	6404	462	-14.8	-23.7	244	17
2023-08-13T06:00	6428	461	-15.0	-23.8	244	17
2023-08-13T06:00	6457	459	-15.2	-24.0	244	16
2023-08-13T06:00	6480	458	-15.4	-23.7	245	16
2023-08-13T06:00	6510	456	-15.7	-23.7	245	16
2023-08-13T06:00	6541	454	-15.9	-23.5	246	16
2023-08-13T06:00	6570	452	-16.2	-24.0	247	16
2023-08-13T06:00	6588	451	-16.3	-24.1	248	16
2023-08-13T06:00	6607	450	-16.5	-24.0	249	16
2023-08-13T06:00	6626	449	-16.7	-24.2	249	16
2023-08-13T06:00	6646	448	-16.8	-24.1	249	16
2023-08-13T06:00	6666	447	-17.0	-24.2	248	16
2023-08-13T06:00	6689	445	-17.2	-25.2	248	16
2023-08-13T06:00	6711	444	-17.4	-25.0	248	16
2023-08-13T06:00	6734	443	-17.5	-26.1	248	16
2023-08-13T06:00	6762	441	-17.6	-27.2	248	16
2023-08-13T06:00	6787	440	-17.8	-25.7	248	16
2023-08-13T06:00	6807	438	-18.0	-23.8	250	17
2023-08-13T06:00	6832	437	-18.2	-23.9	251	17
2023-08-13T06:00	6852	436	-18.5	-24.4	253	17
2023-08-13T06:00	6878	434	-18.7	-24.5	255	17
2023-08-13T06:00	6904	433	-18.9	-24.3	257	17
2023-08-13T06:00	6924	431	-19.2	-23.3	258	17
2023-08-13T06:00	6949	430	-19.4	-23.2	258	17
2023-08-13T06:00	6979	428	-19.7	-23.3	258	17
2023-08-13T06:00	7009	427	-19.9	-23.0	258	18
2023-08-13T06:00	7035	425	-20.2	-23.3	259	18
2023-08-13T06:00	7064	423	-20.4	-22.5	259	18
2023-08-13T06:00	7093	422	-19.9	-21.9	258	19
2023-08-13T06:00	7120	420	-19.6	-22.2	258	19
2023-08-13T06:00	7151	418	-19.6	-22.4	256	19
2023-08-13T06:00	7182	417	-19.7	-22.6	255	18
2023-08-13T06:00	7211	415	-19.8	-22.8	253	18
2023-08-13T06:00	7239	414	-19.9	-23.1	252	17
2023-08-13T06:00	7268	412	-20.0	-23.2	252	17
2023-08-13T06:00	7302	410	-20.3	-23.4	252	17
2023-08-13T06:00	7333	408	-20.6	-23.5	253	17
2023-08-13T06:00	7365	407	-20.7	-23.6	253	18
2023-08-13T06:00	7391	405	-20.7	-24.0	253	18
2023-08-13T06:00	7419	404	-20.8	-24.2	252	19
2023-08-13T06:00	7443	402	-20.9	-24.6	251	19
2023-08-13T06:00	7469	401	-21.0	-24.7	249	19
2023-08-13T06:00	7498	399	-21.2	-25.1	248	19
2023-08-13T06:00	7534	398	-21.4	-25.5	247	18
2023-08-13T06:00	7558	396	-21.6	-25.6	248	18
2023-08-13T06:00	7583	395	-21.7	-25.7	248	18
2023-08-13T06:00	7611	393	-21.9	-25.9	249	18
2023-08-13T06:00	7639	392	-22.1	-26.2	250	18
2023-08-13T06:00	7671	390	-22.4	-26.4	251	18
2023-08-13T06:00	7694	389	-22.6	-26.6	252	18
2023-08-13T06:00	7724	387	-22.8	-26.6	252	18
2023-08-13T06:00	7757	385	-23.1	-27.0	252	18
2023-08-13T06:00	7791	384	-23.3	-27.3	252	18
2023-08-13T06:00	7820	382	-23.5	-27.6	252	18
2023-08-13T06:00	7847	381	-23.7	-27.7	252	18
2023-08-13T06:00	7876	379	-23.9	-28.0	252	19
2023-08-13T06:00	7902	378	-24.1	-28.4	252	19
2023-08-13T06:00	7925	377	-24.3	-28.7	252	19
2023-08-13T06:00	7951	375	-24.5	-28.9	252	19
2023-08-13T06:00	7983	374	-24.7	-29.0	251	19
2023-08-13T06:00	8009	372	-24.9	-29.2	251	19
2023-08-13T06:00	8035	371	-25.2	-29.5	251	19
2023-08-13T06:00	8067	369	-25.4	-29.8	252	19
2023-08-13T06:00	8097	368	-25.7	-30.1	253	19
2023-08-13T06:00	8128	366	-25.9	-30.4	253	19
2023-08-13T06:00	8153	365	-26.1	-30.7	253	19
2023-08-13T06:00	8186	363	-26.4	-31.3	254	19
2023-08-13T06:00	8213	362	-26.6	-31.4	254	19
2023-08-13T06:00	8239	361	-26.8	-31.2	254	19
2023-08-13T06:00	8268	359	-27.1	-31.4	254	19
2023-08-13T06:00	8296	358	-27.3	-31.7	255	19
2023-08-13T06:00	8330	356	-27.6	-31.9	255	20
2023-08-13T06:00	8360	355	-27.9	-32.1	254	20
2023-08-13T06:00	8392	353	-28.1	-32.5	254	20
2023-08-13T06:00	8415	352	-28.2	-33.1	254	20
2023-08-13T06:00	8442	351	-28.5	-33.3	253	20
2023-08-13T06:00	8479	349	-28.8	-33.7	253	20
2023-08-13T06:00	8506	348	-28.9	-34.8	252	20
2023-08-13T06:00	8535	346	-29.0	-35.0	252	20
2023-08-13T06:00	8566	345	-29.2	-35.9	252	21
2023-08-13T06:00	8596	343	-29.5	-36.3	253	21
2023-08-13T06:00	8625	342	-29.7	-36.3	254	21
2023-08-13T06:00	8658	340	-30.0	-36.3	255	21
2023-08-13T06:00	8689	339	-30.3	-36.6	255	21
2023-08-13T06:00	8722	337	-30.6	-37.0	255	21
2023-08-13T06:00	8752	336	-30.9	-37.0	255	22
2023-08-13T06:00	8785	334	-31.2	-37.0	254	22
2023-08-13T06:00	8812	333	-31.4	-37.0	254	22
2023-08-13T06:00	8844	332	-31.7	-37.1	253	22
2023-08-13T06:00	8874	330	-32.0	-37.3	253	22
2023-08-13T06:00	8902	329	-32.2	-37.0	253	22
2023-08-13T06:00	8931	327	-32.5	-37.4	253	21
2023-08-13T06:00	8955	326	-32.7	-37.6	253	21
2023-08-13T06:00	8981	325	-33.0	-37.7	253	20
2023-08-13T06:00	9013	324	-33.3	-37.8	253	20
2023-08-13T06:00	9041	322	-33.5	-38.0	252	20
2023-08-13T06:00	9068	321	-33.8	-38.4	252	20
2023-08-13T06:00	9097	320	-34.0	-38.5	251	20
2023-08-13T06:00	9129	318	-34.3	-38.5	251	21
2023-08-13T06:00	9156	317	-34.5	-38.7	251	21
2023-08-13T06:00	9182	316	-34.8	-38.9	250	21
2023-08-13T06:00	9205	315	-35.0	-38.9	249	21
2023-08-13T06:00	9229	314	-35.2	-39.0	248	21
2023-08-13T06:00	9256	313	-35.5	-39.2	248	21
2023-08-13T06:00	9286	311	-35.7	-39.4	247	21
2023-08-13T06:00	9313	310	-36.0	-39.8	247	21
2023-08-13T06:00	9340	309	-36.2	-40.1	247	21
2023-08-13T06:00	9364	308	-36.4	-40.1	247	21
2023-08-13T06:00	9388	307	-36.6	-40.3	248	21
2023-08-13T06:00	9414	305	-36.7	-40.4	248	21
2023-08-13T06:00	9445	304	-37.0	-40.9	249	21
2023-08-13T06:00	9478	303	-37.2	-41.1	249	21
2023-08-13T06:00	9508	301	-37.5	-41.3	249	21
2023-08-13T06:00	9533	300	-37.7	-41.5	249	22
2023-08-13T06:00	9555	299	-37.8	-41.7	249	22
2023-08-13T06:00	9577	298	-38.0	-41.9	250	22
2023-08-13T06:00	9599	298	-38.2	-42.1	250	22
2023-08-13T06:00	9618	297	-38.4	-42.2	250	22
2023-08-13T06:00	9639	296	-38.5	-42.2	251	22
2023-08-13T06:00	9660	295	-38.7	-42.3	251	22
2023-08-13T06:00	9680	294	-38.9	-42.3	251	22
2023-08-13T06:00	9701	293	-39.1	-42.6	251	22
2023-08-13T06:00	9719	292	-39.2	-42.7	251	22
2023-08-13T06:00	9740	291	-39.4	-42.9	251	21
2023-08-13T06:00	9759	291	-39.6	-43.2	252	21
2023-08-13T06:00	9781	290	-39.7	-43.2	252	21
2023-08-13T06:00	9799	289	-40.0	-43.6	252	21
2023-08-13T06:00	9819	288	-40.0	-43.7	252	21
2023-08-13T06:00	9839	287	-40.2	-44.1	251	21
2023-08-13T06:00	9859	286	-40.3	-44.1	251	21
2023-08-13T06:00	9880	285	-40.4	-44.3	251	21
2023-08-13T06:00	9901	285	-40.7	-44.7	250	21
2023-08-13T06:00	9922	284	-40.8	-44.8	250	21
2023-08-13T06:00	9944	283	-41.0	-45.0	250	21
2023-08-13T06:00	9965	282	-41.1	-45.1	250	21
2023-08-13T06:00	9986	281	-41.3	-45.4	250	21
2023-08-13T06:00	10007	280	-41.5	-45.5	250	20
2023-08-13T06:00	10030	279	-41.7	-45.6	249	20
2023-08-13T06:00	10051	278	-41.9	-45.7	249	20
2023-08-13T06:00	10071	278	-42.0	-45.8	249	20
2023-08-13T06:00	10095	277	-42.2	-45.9	249	20
2023-08-13T06:00	10114	276	-42.4	-46.0	249	20
2023-08-13T06:00	10132	275	-42.6	-46.2	248	20
2023-08-13T06:00	10153	274	-42.8	-46.3	248	20
2023-08-13T06:00	10175	273	-42.9	-46.5	248	20
2023-08-13T06:00	10196	272	-43.2	-46.7	248	20
2023-08-13T06:00	10217	272	-43.3	-46.5	248	21
2023-08-13T06:00	10238	271	-43.5	-46.6	248	21
2023-08-13T06:00	10259	270	-43.8	-46.8	248	21
2023-08-13T06:00	10282	269	-44.0	-46.9	248	21
2023-08-13T06:00	10300	268	-44.1	-47.0	248	21
2023-08-13T06:00	10324	267	-44.3	-47.1	249	21
2023-08-13T06:00	10343	267	-44.6	-47.2	249	21
2023-08-13T06:00	10366	266	-44.7	-47.4	249	21
2023-08-13T06:00	10387	265	-44.9	-47.5	249	21
2023-08-13T06:00	10408	264	-45.1	-47.5	249	21
2023-08-13T06:00	10430	263	-45.3	-47.6	249	21
2023-08-13T06:00	10452	262	-45.5	-47.9	250	21
2023-08-13T06:00	10472	261	-45.7	-48.3	250	21
2023-08-13T06:00	10493	261	-45.8	-48.3	250	21
2023-08-13T06:00	10514	260	-46.0	-48.3	250	21
2023-08-13T06:00	10535	259	-46.2	-48.4	250	21
2023-08-13T06:00	10554	258	-46.4	-48.6	250	21
2023-08-13T06:00	10576	257	-46.6	-48.8	250	21
2023-08-13T06:00	10595	257	-46.7	-49.0	250	21
2023-08-13T06:00	10615	256	-46.9	-49.3	250	21
2023-08-13T06:00	10635	255	-47.1	-49.5	250	21
2023-08-13T06:00	10658	254	-47.2	-49.4	250	21
2023-08-13T06:00	10681	253	-47.5	-49.5	250	21
2023-08-13T06:00	10702	253	-47.7	-49.5	250	21
2023-08-13T06:00	10723	252	-47.9	-49.5	250	21
2023-08-13T06:00	10744	251	-48.1	-49.7	250	21
2023-08-13T06:00	10764	250	-48.2	-50.0	250	21
2023-08-13T06:00	10787	249	-48.4	-50.3	250	21
2023-08-13T06:00	10810	249	-48.6	-50.6	250	21
2023-08-13T06:00	10830	248	-48.7	-50.9	250	21
2023-08-13T06:00	10851	247	-48.9	-51.2	250	21
2023-08-13T06:00	10873	246	-49.0	-51.5	250	21
2023-08-13T06:00	10892	245	-49.1	-51.8	250	21
2023-08-13T06:00	10913	245	-49.2	-52.0	249	21
2023-08-13T06:00	10934	244	-49.5	-52.3	249	21
2023-08-13T06:00	10955	243	-49.6	-52.7	248	21
2023-08-13T06:00	10974	242	-49.7	-53.1	248	21
2023-08-13T06:00	10995	242	-49.9	-53.5	248	21
2023-08-13T06:00	11015	241	-50.1	-53.6	248	21
2023-08-13T06:00	11038	240	-50.2	-53.6	248	21
2023-08-13T06:00	11060	239	-50.4	-53.8	248	21
2023-08-13T06:00	11079	238	-50.6	-54.0	247	21
2023-08-13T06:00	11102	238	-50.8	-54.1	247	21
2023-08-13T06:00	11123	237	-51.0	-54.2	247	21
2023-08-13T06:00	11145	236	-51.2	-54.3	246	21
2023-08-13T06:00	11166	235	-51.3	-54.5	246	21
2023-08-13T06:00	11185	235	-51.4	-54.8	246	21
2023-08-13T06:00	11206	234	-51.6	-55.0	246	21
2023-08-13T06:00	11227	233	-51.7	-55.1	246	21
2023-08-13T06:00	11248	232	-51.9	-55.3	246	21
2023-08-13T06:00	11269	232	-52.1	-55.5	246	21
2023-08-13T06:00	11290	231	-52.2	-55.6	246	21
2023-08-13T06:00	11311	230	-52.4	-55.9	246	21
2023-08-13T06:00	11333	229	-52.5	-56.1	246	21
2023-08-13T06:00	11353	229	-52.8	-56.4	245	21
2023-08-13T06:00	11374	228	-52.9	-56.4	245	21
2023-08-13T06:00	11395	227	-53.1	-56.6	245	21
2023-08-13T06:00	11416	226	-53.2	-56.7	245	21
2023-08-13T06:00	11436	226	-53.4	-57.0	245	21
2023-08-13T06:00	11459	225	-53.6	-57.3	245	21
2023-08-13T06:00	11481	224	-53.7	-57.5	245	21
2023-08-13T06:00	11503	223	-53.9	-57.8	245	21
2023-08-13T06:00	11524	223	-54.1	-58.2	245	21
2023-08-13T06:00	11546	222	-54.2	-58.5	245	21
2023-08-13T06:00	11567	221	-54.4	-59.0	245	21
2023-08-13T06:00	11589	220	-54.5	-59.2	245	21
2023-08-13T06:00	11611	220	-54.6	-59.2	245	21
2023-08-13T06:00	11631	219	-54.8	-59.3	245	21
2023-08-13T06:00	11655	218	-55.0	-59.5	246	21
2023-08-13T06:00	11675	217	-55.1	-59.7	246	21
2023-08-13T06:00	11698	217	-55.2	-60.0	246	22
2023-08-13T06:00	11721	216	-55.4	-60.3	247	22
2023-08-13T06:00	11741	215	-55.5	-60.3	247	22
2023-08-13T06:00	11763	214	-55.7	-60.5	247	22
2023-08-13T06:00	11785	214	-55.9	-60.8	247	22
2023-08-13T06:00	11807	213	-56.1	-61.1	247	22
2023-08-13T06:00	11828	212	-56.2	-61.2	247	22
2023-08-13T06:00	11849	212	-56.4	-61.4	248	22
2023-08-13T06:00	11872	211	-56.5	-61.4	248	22
2023-08-13T06:00	11893	210	-56.7	-61.5	248	22
2023-08-13T06:00	11914	209	-56.8	-61.6	248	22
2023-08-13T06:00	11939	209	-57.0	-61.7	248	22
2023-08-13T06:00	11962	208	-57.2	-61.8	248	22
2023-08-13T06:00	11984	207	-57.3	-61.8	247	22
2023-08-13T06:00	12005	206	-57.4	-61.7	247	22
2023-08-13T06:00	12028	206	-57.6	-61.8	246	23
2023-08-13T06:00	12052	205	-57.8	-61.9	246	23
2023-08-13T06:00	12075	204	-57.7	-61.7	245	23
2023-08-13T06:00	12096	203	-57.8	-61.7	245	23
2023-08-13T06:00	12117	203	-57.8	-61.7	245	24
2023-08-13T06:00	12140	202	-58.0	-61.9	245	24
2023-08-13T06:00	12158	201	-58.0	-62.0	245	24
2023-08-13T06:00	12180	201	-58.2	-62.3	246	24
2023-08-13T06:00	12206	200	-58.3	-62.6	246	24
2023-08-13T06:00	12226	199	-58.3	-62.8	246	24
2023-08-13T06:00	12246	199	-58.2	-62.9	246	24
2023-08-13T06:00	12268	198	-58.2	-63.1	247	24
2023-08-13T06:00	12286	197	-58.2	-63.2	247	24
2023-08-13T06:00	12309	197	-58.3	-63.2	247	24
2023-08-13T06:00	12332	196	-58.5	-63.2	247	25
2023-08-13T06:00	12352	195	-58.6	-63.1	247	25
2023-08-13T06:00	12374	195	-58.8	-63.2	248	25
2023-08-13T06:00	12396	194	-59.0	-63.5	248	25
2023-08-13T06:00	12415	193	-59.1	-63.6	249	24
2023-08-13T06:00	12438	193	-59.2	-63.7	250	24
2023-08-13T06:00	12457	192	-59.3	-63.7	252	24
2023-08-13T06:00	12479	191	-59.5	-63.7	254	23
2023-08-13T06:00	12501	191	-59.6	-63.9	256	23
2023-08-13T06:00	12521	190	-59.5	-64.3	257	22
2023-08-13T06:00	12541	190	-58.7	-64.7	258	22
2023-08-13T06:00	12563	189	-58.3	-66.1	259	21
2023-08-13T06:00	12583	188	-58.2	-68.1	258	20
2023-08-13T06:00	12605	188	-57.7	-69.7	256	19
2023-08-13T06:00	12628	187	-57.3	-71.4	255	19
2023-08-13T06:00	12647	186	-57.1	-72.8	253	19
2023-08-13T06:00	12668	186	-56.8	-73.2	252	19
2023-08-13T06:00	12692	185	-56.6	-73.1	251	20
2023-08-13T06:00	12711	184	-56.4	-72.8	252	20
2023-08-13T06:00	12733	184	-56.3	-72.6	252	20
2023-08-13T06:00	12753	183	-56.3	-72.7	253	20
2023-08-13T06:00	12778	183	-56.4	-73.5	254	20
2023-08-13T06:00	12798	182	-55.9	-74.1	255	19
2023-08-13T06:00	12818	181	-55.5	-75.0	255	18
2023-08-13T06:00	12841	181	-55.2	-75.7	254	18
2023-08-13T06:00	12859	180	-55.0	-75.7	253	17
2023-08-13T06:00	12882	180	-54.7	-75.4	252	17
2023-08-13T06:00	12904	179	-54.5	-75.1	251	17
2023-08-13T06:00	12924	178	-54.3	-75.3	250	17
2023-08-13T06:00	12944	178	-53.6	-75.5	250	16
2023-08-13T06:00	12965	177	-53.4	-76.4	250	16
2023-08-13T06:00	12987	177	-52.7	-77.1	250	16
2023-08-13T06:00	13007	176	-52.0	-77.7	249	15
2023-08-13T06:00	13027	176	-51.6	-78.1	247	14
2023-08-13T06:00	13050	175	-51.2	-78.4	244	13
2023-08-13T06:00	13073	174	-50.8	-78.4	240	13
2023-08-13T06:00	13096	174	-50.8	-78.4	236	12
2023-08-13T06:00	13122	173	-50.7	-78.3	232	12
2023-08-13T06:00	13144	172	-50.6	-78.2	229	12
2023-08-13T06:00	13165	172	-50.6	-78.2	227	12
2023-08-13T06:00	13189	171	-50.8	-78.1	225	13
2023-08-13T06:00	13211	171	-50.9	-78.2	224	13
2023-08-13T06:00	13231	170	-51.1	-78.3	223	13
2023-08-13T06:00	13252	170	-51.2	-78.4	223	14
2023-08-13T06:00	13273	169	-51.4	-78.5	223	14
2023-08-13T06:00	13294	169	-51.5	-78.3	222	14
2023-08-13T06:00	13314	168	-51.7	-78.5	222	15
2023-08-13T06:00	13336	167	-51.9	-78.6	223	15
2023-08-13T06:00	13355	167	-52.1	-78.5	223	16
2023-08-13T06:00	13379	166	-52.2	-78.6	223	16
2023-08-13T06:00	13399	166	-52.4	-78.8	224	17
2023-08-13T06:00	13421	165	-52.5	-78.8	225	17
2023-08-13T06:00	13439	165	-52.7	-79.0	226	18
2023-08-13T06:00	13462	164	-52.7	-79.0	228	18
2023-08-13T06:00	13482	164	-52.8	-79.1	229	19
2023-08-13T06:00	13503	163	-52.8	-79.1	231	19
2023-08-13T06:00	13524	163	-52.6	-79.2	232	19
2023-08-13T06:00	13545	162	-52.6	-79.2	233	19
2023-08-13T06:00	13567	162	-52.5	-79.1	235	19
2023-08-13T06:00	13592	161	-52.3	-79.0	236	18
2023-08-13T06:00	13614	160	-52.4	-79.0	237	18
2023-08-13T06:00	13635	160	-52.5	-79.1	238	18
2023-08-13T06:00	13657	159	-52.5	-79.1	238	18
2023-08-13T06:00	13678	159	-52.4	-79.0	239	19
2023-08-13T06:00	13701	158	-52.5	-79.1	240	19
2023-08-13T06:00	13726	158	-52.5	-79.1	240	20
2023-08-13T06:00	13748	157	-52.5	-79.1	241	20
2023-08-13T06:00	13771	157	-52.5	-79.4	241	21
2023-08-13T06:00	13794	156	-52.2	-79.5	242	21
2023-08-13T06:00	13817	155	-52.2	-79.5	242	21
2023-08-13T06:00	13840	155	-52.1	-79.4	243	21
2023-08-13T06:00	13864	154	-52.2	-79.5	245	21
2023-08-13T06:00	13887	154	-52.4	-79.6	247	21
2023-08-13T06:00	13912	153	-52.3	-79.5	249	21
2023-08-13T06:00	13936	153	-52.3	-79.5	250	21
2023-08-13T06:00	13958	152	-52.1	-79.4	252	20
2023-08-13T06:00	13980	152	-52.1	-79.7	252	20
2023-08-13T06:00	14004	151	-51.9	-79.5	252	19
2023-08-13T06:00	14029	150	-51.8	-79.8	252	18
2023-08-13T06:00	14056	150	-51.8	-79.8	251	18
2023-08-13T06:00	14077	149	-51.8	-80.1	250	17
2023-08-13T06:00	14102	149	-51.9	-80.2	248	16
2023-08-13T06:00	14123	148	-52.0	-80.0	247	16
2023-08-13T06:00	14146	148	-52.1	-80.0	245	16
2023-08-13T06:00	14171	147	-52.0	-80.3	243	15
2023-08-13T06:00	14193	147	-51.9	-80.2	241	15
2023-08-13T06:00	14221	146	-51.9	-80.2	238	15
2023-08-13T06:00	14248	145	-51.8	-80.1	236	15
2023-08-13T06:00	14272	145	-51.8	-79.8	234	15
2023-08-13T06:00	14298	144	-52.0	-80.0	232	15
2023-08-13T06:00	14322	144	-52.2	-79.8	231	15
2023-08-13T06:00	14343	143	-52.4	-79.6	231	15
2023-08-13T06:00	14365	143	-52.6	-79.8	231	15
2023-08-13T06:00	14390	142	-52.8	-79.6	231	16
2023-08-13T06:00	14414	142	-53.0	-79.8	231	16
2023-08-13T06:00	14437	141	-53.3	-79.7	231	17
2023-08-13T06:00	14462	141	-53.4	-79.8	231	17
2023-08-13T06:00	14486	140	-53.6	-79.7	231	17
2023-08-13T06:00	14509	140	-53.8	-79.8	231	18
2023-08-13T06:00	14530	139	-54.0	-80.0	231	18
2023-08-13T06:00	14553	139	-54.1	-80.1	232	18
2023-08-13T06:00	14573	138	-54.2	-80.2	233	18
2023-08-13T06:00	14597	138	-54.0	-80.0	234	18
2023-08-13T06:00	14620	137	-54.0	-80.0	235	17
2023-08-13T06:00	14641	137	-53.9	-79.9	236	17
2023-08-13T06:00	14661	136	-53.9	-80.2	236	16
2023-08-13T06:00	14685	136	-53.9	-80.2	237	16
2023-08-13T06:00	14706	135	-54.0	-80.3	238	15
2023-08-13T06:00	14727	135	-54.0	-80.3	239	15
2023-08-13T06:00	14749	135	-54.0	-80.3	240	14
2023-08-13T06:00	14768	134	-54.1	-80.4	240	14
2023-08-13T06:00	14794	134	-54.2	-80.4	241	14
2023-08-13T06:00	14815	133	-54.1	-80.4	240	14
2023-08-13T06:00	14837	133	-54.2	-80.7	238	14
2023-08-13T06:00	14861	132	-54.3	-80.8	236	14
2023-08-13T06:00	14884	132	-53.7	-80.3	234	14
2023-08-13T06:00	14906	131	-53.4	-80.1	232	14
2023-08-13T06:00	14929	131	-53.5	-80.2	230	14
2023-08-13T06:00	14952	130	-53.6	-80.2	228	14
2023-08-13T06:00	14976	130	-53.8	-80.1	226	14
2023-08-13T06:00	15007	129	-54.0	-80.3	224	15
2023-08-13T06:00	15033	129	-54.2	-80.2	222	15
2023-08-13T06:00	15057	128	-54.5	-80.4	221	15
2023-08-13T06:00	15079	128	-54.6	-80.5	220	15
2023-08-13T06:00	15103	127	-54.5	-80.4	219	15
2023-08-13T06:00	15123	127	-54.4	-80.1	219	14
2023-08-13T06:00	15145	126	-54.5	-80.1	220	14
2023-08-13T06:00	15167	126	-54.6	-80.2	221	14
2023-08-13T06:00	15191	126	-54.8	-80.4	222	14
2023-08-13T06:00	15213	125	-55.0	-80.5	223	14
2023-08-13T06:00	15235	125	-55.0	-80.5	225	14
2023-08-13T06:00	15259	124	-55.0	-80.8	226	14
2023-08-13T06:00	15284	124	-55.0	-80.8	228	14
2023-08-13T06:00	15307	123	-54.9	-81.0	229	14
2023-08-13T06:00	15329	123	-54.8	-81.2	231	14
2023-08-13T06:00	15355	122	-54.8	-81.2	232	14
2023-08-13T06:00	15381	122	-54.9	-81.5	233	14
2023-08-13T06:00	15405	121	-54.8	-81.5	234	14
2023-08-13T06:00	15430	121	-54.7	-81.4	236	14
2023-08-13T06:00	15454	121	-54.6	-81.6	237	13
2023-08-13T06:00	15479	120	-54.8	-81.8	237	13
2023-08-13T06:00	15505	120	-54.9	-81.9	238	13
2023-08-13T06:00	15530	119	-55.0	-81.9	238	13
2023-08-13T06:00	15556	119	-55.1	-82.0	238	12
2023-08-13T06:00	15580	118	-55.0	-81.9	237	11
2023-08-13T06:00	15606	118	-54.7	-82.0	235	11
2023-08-13T06:00	15633	117	-54.6	-81.9	232	10
2023-08-13T06:00	15652	117	-54.7	-82.0	229	10
2023-08-13T06:00	15680	116	-54.7	-82.0	226	10
2023-08-13T06:00	15707	116	-54.8	-82.1	222	10
2023-08-13T06:00	15729	115	-54.9	-82.2	220	10
2023-08-13T06:00	15753	115	-55.0	-81.9	217	10
2023-08-13T06:00	15778	115	-55.1	-82.0	216	11
2023-08-13T06:00	15801	114	-55.2	-82.1	215	11
2023-08-13T06:00	15823	114	-55.3	-82.2	215	12
2023-08-13T06:00	15845	113	-55.6	-82.1	217	12
2023-08-13T06:00	15869	113	-55.7	-82.2	220	12
2023-08-13T06:00	15893	113	-55.8	-82.5	223	12
2023-08-13T06:00	15915	112	-55.6	-82.4	226	12
2023-08-13T06:00	15936	112	-55.5	-82.3	229	12
2023-08-13T06:00	15959	111	-55.3	-82.5	231	12
2023-08-13T06:00	15982	111	-55.1	-82.3	233	12
2023-08-13T06:00	16003	111	-55.1	-82.3	234	12
2023-08-13T06:00	16026	110	-55.2	-82.4	235	12
2023-08-13T06:00	16048	110	-55.3	-82.5	235	11
2023-08-13T06:00	16072	109	-55.4	-82.6	235	11
2023-08-13T06:00	16095	109	-55.2	-82.4	234	11
2023-08-13T06:00	16117	109	-55.2	-82.4	232	11
2023-08-13T06:00	16143	108	-55.3	-82.5	231	10
2023-08-13T06:00	16164	108	-55.4	-82.6	230	10
2023-08-13T06:00	16187	107	-55.6	-82.7	229	11
2023-08-13T06:00	16210	107	-55.8	-82.5	229	11
2023-08-13T06:00	16233	107	-55.9	-82.6	229	11
2023-08-13T06:00	16257	106	-56.0	-82.7	229	11
2023-08-13T06:00	16280	106	-56.1	-82.8	229	10
2023-08-13T06:00	16305	105	-56.2	-82.9	229	10
2023-08-13T06:00	16329	105	-56.2	-83.2	228	10
2023-08-13T06:00	16351	105	-55.9	-82.9	227	10
2023-08-13T06:00	16374	104	-55.9	-83.3	225	10
2023-08-13T06:00	16399	104	-55.9	-83.3	223	10
2023-08-13T06:00	16424	104	-55.6	-83.4	219	10
2023-08-13T06:00	16448	103	-55.2	-83.1	216	10
2023-08-13T06:00	16474	103	-54.9	-83.3	211	10
2023-08-13T06:00	16495	102	-54.8	-83.2	208	10
2023-08-13T06:00	16520	102	-54.8	-83.2	205	10
2023-08-13T06:00	16546	102	-54.8	-83.2	203	11
2023-08-13T06:00	16569	101	-54.7	-83.1	203	11
2023-08-13T06:00	16591	101	-54.7	-83.1	203	12
2023-08-13T06:00	16615	100	-54.8	-83.2	203	12
2023-08-13T06:00	16639	100	-54.9	-83.3	204	12
2023-08-13T06:00	16661	100	-55.1	-83.0	205	12
2023-08-13T06:00	16682	99	-55.2	-83.1	207	12
2023-08-13T06:00	16708	99	-55.4	-83.6	209	12
2023-08-13T06:00	16729	99	-55.1	-83.4	211	12
2023-08-13T06:00	16751	98	-54.9	-83.3	212	12
2023-08-13T06:00	16773	98	-54.7	-83.5	211	11
2023-08-13T06:00	16800	98	-54.8	-83.6	210	11
2023-08-13T06:00	16824	97	-54.8	-83.6	210	11
2023-08-13T06:00	16845	97	-54.7	-83.5	210	11
2023-08-13T06:00	16869	97	-54.9	-83.7	211	11
2023-08-13T06:00	16896	96	-55.0		214	11
2023-08-13T06:00	16918	96	-54.9	-83.3	217	12
2023-08-13T06:00	16939	95	-55.0		220	12
2023-08-13T06:00	16964	95	-55.2	-83.5	223	12
2023-08-13T06:00	16984	95	-55.3	-83.6	225	12
2023-08-13T06:00	17010	94	-55.3	-83.6	228	12
2023-08-13T06:00	17033	94	-55.3	-84.0	230	12
2023-08-13T06:00	17059	94	-55.0	-83.7	233	12
2023-08-13T06:00	17083	93	-55.0	-83.7	235	12
2023-08-13T06:00	17107	93	-54.9	-83.7	237	11
2023-08-13T06:00	17130	93	-54.7	-83.9	238	11
2023-08-13T06:00	17153	92	-54.8	-84.0	239	10
2023-08-13T06:00	17178	92	-54.8	-84.0	239	10
2023-08-13T06:00	17203	92	-54.7	-83.9	238	10
2023-08-13T06:00	17226	91	-54.5	-83.8	236	9
2023-08-13T06:00	17252	91	-54.4	-83.7	234	9
2023-08-13T06:00	17278	91	-54.2	-83.6	231	9
2023-08-13T06:00	17303	90	-54.3	-83.6	227	8
2023-08-13T06:00	17327	90	-54.2	-83.6	223	8
2023-08-13T06:00	17352	90	-54.2	-83.6	219	8
2023-08-13T06:00	17374	89	-54.2	-83.6	215	8
2023-08-13T06:00	17400	89	-54.1	-83.5	211	8
2023-08-13T06:00	17422	89	-54.0	-83.4	209	8
2023-08-13T06:00	17445	88	-54.1	-83.5	208	8
2023-08-13T06:00	17467	88	-54.2	-83.6	208	9
2023-08-13T06:00	17489	88	-54.4	-83.7	208	9
2023-08-13T06:00	17512	87	-54.6	-83.9	210	9
2023-08-13T06:00	17535	87	-54.5	-83.8	212	10
2023-08-13T06:00	17556	87	-54.6	-83.9	213	10
2023-08-13T06:00	17581	86	-54.6	-83.9	215	9
2023-08-13T06:00	17607	86	-54.5	-83.8	216	9
2023-08-13T06:00	17628	86	-54.5	-83.8	218	9
2023-08-13T06:00	17650	85	-54.5	-83.8	219	9
2023-08-13T06:00	17669	85	-54.6	-83.9	220	8
2023-08-13T06:00	17697	85	-54.4	-83.7	220	8
2023-08-13T06:00	17719	85	-54.3	-83.6	220	8
2023-08-13T06:00	17741	84	-54.4	-83.7	219	8
2023-08-13T06:00	17761	84	-54.5	-83.8	219	8
2023-08-13T06:00	17787	84	-54.5	-83.8	219	7
2023-08-13T06:00	17812	83	-54.5	-83.8	219	7
2023-08-13T06:00	17832	83	-54.6	-83.9	219	7
2023-08-13T06:00	17855	83	-54.7	-83.9	219	8
2023-08-13T06:00	17879	82	-54.7	-83.9	219	8
2023-08-13T06:00	17903	82	-54.7	-83.9	218	7
2023-08-13T06:00	17924	82	-54.7	-83.9	218	7
2023-08-13T06:00	17948	82	-54.7	-83.9	217	7
2023-08-13T06:00	17974	81	-54.6	-83.9	218	7
2023-08-13T06:00	17996	81	-54.7	-83.9	219	7
2023-08-13T06:00	18022	81	-54.8	-84.0	219	7
2023-08-13T06:00	18047	80	-54.9	-84.1	219	7
2023-08-13T06:00	18072	80	-54.9	-84.1	218	6
2023-08-13T06:00	18097	80	-55.0	-84.2	216	6
2023-08-13T06:00	18123	79	-55.1	-84.2	213	6
2023-08-13T06:00	18146	79	-55.2	-84.3	212	5
2023-08-13T06:00	18170	79	-55.3	-84.0	211	5
2023-08-13T06:00	18196	78	-55.4	-84.0	212	5
2023-08-13T06:00	18223	78	-55.5	-84.1	215	5
2023-08-13T06:00	18244	78	-55.5	-84.1	218	5
2023-08-13T06:00	18267	78	-55.6	-84.2	221	5
2023-08-13T06:00	18296	77	-55.7	-84.3	223	4
2023-08-13T06:00	18318	77	-55.7	-84.3	223	4
2023-08-13T06:00	18339	77	-55.7	-84.3	222	4
2023-08-13T06:00	18364	76	-55.8	-84.3	219	4
2023-08-13T06:00	18387	76	-55.8	-84.3	216	4
2023-08-13T06:00	18414	76	-55.9	-84.4	213	5
2023-08-13T06:00	18439	76	-55.8	-84.3	213	5
2023-08-13T06:00	18460	75	-55.8	-84.3	214	6
2023-08-13T06:00	18481	75	-55.9	-84.4	216	6
2023-08-13T06:00	18510	75	-56.0	-84.5	218	7
2023-08-13T06:00	18535	74	-55.9	-84.8	219	7
2023-08-13T06:00	18555	74	-55.7	-84.7	221	7
2023-08-13T06:00	18582	74	-55.5	-84.5	222	7
2023-08-13T06:00	18603	74	-55.5	-84.5	223	6
2023-08-13T06:00	18625	73	-55.2	-84.8	225	6
2023-08-13T06:00	18650	73	-55.1	-84.7	228	5
2023-08-13T06:00	18676	73	-54.9	-84.6	231	5
2023-08-13T06:00	18700	73	-54.6	-84.3	233	4
2023-08-13T06:00	18720	72	-54.5	-84.3	233	4
2023-08-13T06:00	18746	72	-54.4	-84.2	228	3
2023-08-13T06:00	18767	72	-54.4	-84.2	218	3
2023-08-13T06:00	18792	71	-54.3	-84.1	204	3
2023-08-13T06:00	18817	71	-54.2	-84.0	194	3
2023-08-13T06:00	18843	71	-54.1	-84.0	189	4
2023-08-13T06:00	18870	71	-54.1	-84.0	189	5
2023-08-13T06:00	18896	70	-54.3	-84.1	192	5
2023-08-13T06:00	18916	70	-54.3	-84.1	196	5
2023-08-13T06:00	18941	70	-54.4	-84.2	201	6
2023-08-13T06:00	18968	70	-54.4	-84.2	205	6
2023-08-13T06:00	18993	69	-54.5	-84.3	210	6
2023-08-13T06:00	19018	69	-54.5	-84.3	214	6
2023-08-13T06:00	19042	69	-54.4	-84.2	216	5
2023-08-13T06:00	19069	68	-54.2	-84.0	216	5
2023-08-13T06:00	19092	68	-54.2	-84.0	214	5
2023-08-13T06:00	19115	68	-54.4	-84.2	212	4
2023-08-13T06:00	19138	68	-54.6	-84.3	208	4
2023-08-13T06:00	19163	67	-54.9	-84.1	203	4
2023-08-13T06:00	19190	67	-55.0	-84.2	198	3
2023-08-13T06:00	19214	67	-54.9	-84.1	193	3
2023-08-13T06:00	19240	67	-54.9	-84.1	188	3
2023-08-13T06:00	19263	66	-54.9	-84.1	185	4
2023-08-13T06:00	19291	66	-55.1	-84.2	183	4
2023-08-13T06:00	19314	66	-55.3	-84.4	182	4
2023-08-13T06:00	19340	66	-55.5	-84.5	182	4
2023-08-13T06:00	19363	65	-55.5	-84.5	183	4
2023-08-13T06:00	19389	65	-55.4	-84.5	186	4
2023-08-13T06:00	19419	65	-55.3	-84.4	188	4
2023-08-13T06:00	19441	65	-55.3	-84.4	191	5
2023-08-13T06:00	19465	64	-55.3	-84.4	193	5
2023-08-13T06:00	19491	64	-55.5	-84.5	193	5
2023-08-13T06:00	19515	64	-55.7	-84.7	193	6
2023-08-13T06:00	19544	64	-55.8	-84.8	191	6
2023-08-13T06:00	19566	63	-55.9	-84.8	189	6
2023-08-13T06:00	19596	63	-56.0	-84.9	188	5
2023-08-13T06:00	19618	63	-55.8	-84.8	187	5
2023-08-13T06:00	19641	63	-55.4	-84.9	188	4
2023-08-13T06:00	19667	62	-55.2	-84.8	192	4
2023-08-13T06:00	19697	62	-55.1	-84.7	197	4
2023-08-13T06:00	19721	62	-55.1	-84.7	202	4
2023-08-13T06:00	19745	62	-55.1	-84.7	204	4
2023-08-13T06:00	19776	61	-55.2	-84.8	201	3
2023-08-13T06:00	19796	61	-55.2	-84.8	192	3
2023-08-13T06:00	19827	61	-55.1	-84.7	177	3
2023-08-13T06:00	19850	61	-54.9	-84.6	159	3
2023-08-13T06:00	19875	60	-54.8	-84.5	146	3
2023-08-13T06:00	19902	60	-54.8	-84.5	138	4
2023-08-13T06:00	19923	60	-54.9	-84.6	136	4
2023-08-13T06:00	19948	60	-54.9	-84.6	139	3
2023-08-13T06:00	19975	59	-54.7	-84.4	146	3
2023-08-13T06:00	20000	59	-54.7	-84.4	157	3
2023-08-13T06:00	20022	59	-54.8	-84.5	170	3
2023-08-13T06:00	20047	59	-54.9	-84.6	182	3
2023-08-13T06:00	20076	58	-55.0	-84.6	192	3
2023-08-13T06:00	20101	58	-55.1	-84.7	198	3
2023-08-13T06:00	20124	58	-55.1	-84.7	202	3
2023-08-13T06:00	20148	58	-55.2	-84.8	200	3
2023-08-13T06:00	20174	58	-55.3	-84.9	190	2
2023-08-13T06:00	20197	57	-55.3	-84.9	168	2
2023-08-13T06:00	20223	57	-55.2	-84.8	145	2
2023-08-13T06:00	20250	57	-55.1	-84.7	131	3
2023-08-13T06:00	20273	57	-54.9	-84.6	125	4
2023-08-13T06:00	20299	56	-54.7	-84.9	122	4
2023-08-13T06:00	20321	56	-54.6	-84.8	122	4
2023-08-13T06:00	20345	56	-54.3	-84.6	124	4
2023-08-13T06:00	20367	56	-54.1	-84.5	127	4
2023-08-13T06:00	20394	56	-54.0	-84.4	133	4
2023-08-13T06:00	20417	55	-54.0	-84.4	140	4
2023-08-13T06:00	20444	55	-53.8	-84.2	147	4
2023-08-13T06:00	20468	55	-53.7	-84.2	150	4
2023-08-13T06:00	20491	55	-53.8	-84.2	151	5
2023-08-13T06:00	20518	55	-54.0	-84.4	149	6
2023-08-13T06:00	20543	54	-53.9	-83.8	147	6
2023-08-13T06:00	20567	54	-53.9	-83.8	146	7
2023-08-13T06:00	20592	54	-54.1	-84.0	145	8
2023-08-13T06:00	20621	54	-54.2	-84.0	146	8
2023-08-13T06:00	20642	54	-54.1	-84.0	148	8
2023-08-13T06:00	20669	53	-53.8	-83.7	152	8
2023-08-13T06:00	20691	53	-53.8	-84.2	156	8
2023-08-13T06:00	20721	53	-54.0	-84.4	160	8
2023-08-13T06:00	20747	53	-54.1	-84.5	163	7
2023-08-13T06:00	20773	52	-54.0	-84.4	166	7
2023-08-13T06:00	20792	52	-54.0	-84.4	168	6
2023-08-13T06:00	20822	52	-53.9	-84.3	168	6
2023-08-13T06:00	20850	52	-53.9	-83.8	167	5
2023-08-13T06:00	20876	52	-54.0	-83.9	165	5
2023-08-13T06:00	20900	51	-54.2	-84.0	163	4
2023-08-13T06:00	20925	51	-54.2	-84.0	161	4
2023-08-13T06:00	20954	51	-54.1	-84.0	159	3
2023-08-13T06:00	20978	51	-54.0	-83.9	156	2
2023-08-13T06:00	21001	51	-54.1	-84.0	149	2
2023-08-13T06:00	21028	50	-54.1	-84.0	137	1
2023-08-13T06:00	21054	50	-54.0	-84.4	114	1
2023-08-13T06:00	21079	50	-53.7	-84.2	79	1
2023-08-13T06:00	21106	50	-53.8	-84.2	51	1
2023-08-13T06:00	21134	50	-53.9	-84.3	39	1
2023-08-13T06:00	21158	49	-54.1	-84.0	36	2
2023-08-13T06:00	21183	49	-54.2	-84.0	40	2
2023-08-13T06:00	21209	49	-54.2	-84.0	46	2
2023-08-13T06:00	21240	49	-54.2	-84.0	53	2
2023-08-13T06:00	21263	49	-54.2	-84.0	62	2
2023-08-13T06:00	21289	48	-54.3	-84.1	72	2
2023-08-13T06:00	21313	48	-54.4	-84.2	82	2
2023-08-13T06:00	21341	48	-54.4	-84.2	95	2
2023-08-13T06:00	21364	48	-54.2	-84.0	110	2
2023-08-13T06:00	21394	48	-54.2	-84.0	126	2
2023-08-13T06:00	21423	47	-54.3	-84.1	140	2
2023-08-13T06:00	21447	47	-54.3	-84.6	150	2
2023-08-13T06:00	21473	47	-54.3	-84.6	155	2
2023-08-13T06:00	21500	47	-54.2	-84.5	156	2
2023-08-13T06:00	21526	47	-53.9	-84.3	150	2
2023-08-13T06:00	21553	46	-53.8	-84.2	133	2
2023-08-13T06:00	21582	46	-53.5	-84.0	113	2
2023-08-13T06:00	21605	46	-53.4	-83.9	101	2
2023-08-13T06:00	21634	46	-53.3	-83.9	97	3
2023-08-13T06:00	21654	46	-53.4	-83.9	97	4
2023-08-13T06:00	21688	45	-53.4	-83.9	100	4
2023-08-13T06:00	21716	45	-53.3	-83.9	103	5
2023-08-13T06:00	21738	45	-53.2	-83.8	106	5
2023-08-13T06:00	21763	45	-53.1	-83.7	108	6
2023-08-13T06:00	21792	45	-53.0	-83.6	108	6
2023-08-13T06:00	21819	45	-53.0	-83.6	108	7
2023-08-13T06:00	21840	44	-53.1	-83.7	107	7
2023-08-13T06:00	21864	44	-53.3	-83.9	107	7
2023-08-13T06:00	21892	44	-53.5	-84.0	108	8
2023-08-13T06:00	21918	44	-53.6	-83.6	110	8
2023-08-13T06:00	21945	44	-53.8	-83.7	113	8
2023-08-13T06:00	21972	44	-53.9	-83.8	118	8
2023-08-13T06:00	21996	43	-54.0	-83.9	122	9
2023-08-13T06:00	22022	43	-54.0	-83.9	127	9
2023-08-13T06:00	22047	43	-54.1	-84.0	131	8
2023-08-13T06:00	22072	43	-54.3	-84.1	134	8
2023-08-13T06:00	22098	43	-54.4	-84.2	136	8
2023-08-13T06:00	22125	42	-54.4	-84.2	137	8
2023-08-13T06:00	22151	42	-54.5	-84.3	138	7
2023-08-13T06:00	22173	42	-54.6	-84.3	139	7
2023-08-13T06:00	22205	42	-54.7	-84.4	138	6
2023-08-13T06:00	22227	42	-54.7	-84.4	137	6
2023-08-13T06:00	22256	42	-54.6	-84.3	134	6
2023-08-13T06:00	22278	41	-54.5	-84.3	130	5
2023-08-13T06:00	22306	41	-54.5	-84.3	125	5
2023-08-13T06:00	22331	41	-54.6	-84.3	120	5
2023-08-13T06:00	22362	41	-54.7	-84.4	116	5
2023-08-13T06:00	22385	41	-54.7	-84.4	112	6
2023-08-13T06:00	22417	41	-54.6	-84.3	109	6
2023-08-13T06:00	22438	40	-54.5	-84.3	108	7
2023-08-13T06:00	22468	40	-54.5	-84.3	107	7
2023-08-13T06:00	22492	40	-54.5	-84.3	108	8
2023-08-13T06:00	22517	40	-54.6	-84.3	109	9
2023-08-13T06:00	22544	40	-54.7	-84.4	111	9
2023-08-13T06:00	22573	40	-54.8	-84.5	114	9
2023-08-13T06:00	22600	39	-54.9	-84.6	118	9
2023-08-13T06:00	22625	39	-54.9	-84.6	121	9
2023-08-13T06:00	22658	39	-54.9	-84.6	125	9
2023-08-13T06:00	22686	39	-54.9	-84.6	130	9
2023-08-13T06:00	22713	39	-54.8	-84.5	134	8
2023-08-13T06:00	22740	39	-54.8	-84.5	139	7
2023-08-13T06:00	22768	38	-54.8	-84.5	144	7
2023-08-13T06:00	22798	38	-54.8	-85.0	147	6
2023-08-13T06:00	22818	38	-54.7	-84.9	147	6
2023-08-13T06:00	22853	38	-54.6	-84.8	144	5
2023-08-13T06:00	22879	38	-54.4	-84.7	136	6
2023-08-13T06:00	22906	38	-54.1	-84.5	128	6
2023-08-13T06:00	22932	37	-54.0	-84.4	121	7
2023-08-13T06:00	22960	37	-54.0	-84.4	116	8
2023-08-13T06:00	22985	37	-54.0	-84.4	113	8
2023-08-13T06:00	23013	37	-53.9	-84.3	112	9
2023-08-13T06:00	23037	37	-53.9	-84.3	113	8
2023-08-13T06:00	23063	37	-53.6	-84.6	116	8
2023-08-13T06:00	23089	37	-53.4	-84.5	119	7
2023-08-13T06:00	23121	36	-53.4	-84.5	123	7
2023-08-13T06:00	23144	36	-53.0	-84.2	126	6
2023-08-13T06:00	23168	36	-52.6	-83.9	128	6
2023-08-13T06:00	23202	36	-52.6	-83.9	130	5
2023-08-13T06:00	23220	36	-52.7	-84.0	132	5
2023-08-13T06:00	23242	36	-52.8	-84.1	135	5
2023-08-13T06:00	23275	36	-52.8	-84.1	138	5
2023-08-13T06:00	23301	35	-52.6	-83.9	141	4
2023-08-13T06:00	23327	35	-52.6	-83.9	142	4
2023-08-13T06:00	23351	35	-52.7	-84.0	142	4
2023-08-13T06:00	23378	35	-52.7	-84.0	139	4
2023-08-13T06:00	23402	35	-52.7	-84.0	135	4
2023-08-13T06:00	23426	35	-52.6	-83.9	128	4
2023-08-13T06:00	23459	35	-52.6	-83.9	121	4
2023-08-13T06:00	23485	34	-52.6	-83.9	115	4
2023-08-13T06:00	23509	34	-52.5	-83.8	109	4
2023-08-13T06:00	23535	34	-52.4	-83.8	104	4
2023-08-13T06:00	23560	34	-52.3	-83.7	101	4
2023-08-13T06:00	23588	34	-52.2	-83.6	99	4
2023-08-13T06:00	23614	34	-52.3	-83.7	97	5
2023-08-13T06:00	23643	34	-52.4	-83.8	95	5
2023-08-13T06:00	23671	33	-52.4	-83.8	93	6
2023-08-13T06:00	23695	33	-52.4	-83.8	92	7
2023-08-13T06:00	23728	33	-52.4	-83.8	92	8
2023-08-13T06:00	23747	33	-52.5	-83.8	93	8
2023-08-13T06:00	23781	33	-52.6	-83.9	95	9
2023-08-13T06:00	23808	33	-52.6	-83.3	98	9
2023-08-13T06:00	23828	33	-52.7	-83.4	102	9
2023-08-13T06:00	23861	32	-52.9	-83.6	106	9
2023-08-13T06:00	23890	32	-53.1	-83.7	110	10
2023-08-13T06:00	23920	32	-53.2	-83.8	114	10
2023-08-13T06:00	23944	32	-53.3	-83.9	119	9
2023-08-13T06:00	23984	32	-53.3	-83.9	123	9
2023-08-13T06:00	24008	32	-53.2	-83.8	128	9
2023-08-13T06:00	24035	32	-53.2	-83.8	133	8
2023-08-13T06:00	24066	31	-53.2	-84.4	137	8
2023-08-13T06:00	24095	31	-53.1	-84.3	140	7
2023-08-13T06:00	24123	31	-53.0	-84.2	141	7
2023-08-13T06:00	24149	31	-52.9	-84.1	142	6
2023-08-13T06:00	24179	31	-52.8	-84.1	141	5
2023-08-13T06:00	24210	31	-52.6	-83.9	139	5
2023-08-13T06:00	24238	31	-52.4	-83.8	135	4
2023-08-13T06:00	24275	30	-52.2	-84.2	129	4
2023-08-13T06:00	24306	30	-52.0	-84.1	123	4
2023-08-13T06:00	24332	30	-51.9	-84.0	117	4
2023-08-13T06:00	24359	30	-51.8	-83.9	112	4
2023-08-13T06:00	24386	30	-51.7	-83.9	111	5
2023-08-13T06:00	24420	30	-51.6	-83.8	111	5
2023-08-13T06:00	24448	30	-51.6	-83.8	113	6
2023-08-13T06:00	24480	29	-51.6	-83.8	115	6
2023-08-13T06:00	24511	29	-51.6	-83.2	116	7
2023-08-13T06:00	24531	29	-51.7	-83.2	117	7
2023-08-13T06:00	24561	29	-51.7	-83.2	117	7
2023-08-13T06:00	24596	29	-51.8	-83.3	116	7
2023-08-13T06:00	24618	29	-51.8	-83.3	115	7
2023-08-13T06:00	24652	29	-51.9	-83.4	114	8
2023-08-13T06:00	24684	29	-51.9	-83.4	114	8
2023-08-13T06:00	24722	28	-51.8	-83.3	115	9
2023-08-13T06:00	24741	28	-51.8	-83.3	116	9
2023-08-13T06:00	24776	28	-51.8	-83.3	118	9
2023-08-13T06:00	24808	28	-51.9	-83.4	120	9
2023-08-13T06:00	24830	28	-51.8	-83.3	121	8
2023-08-13T06:00	24858	28	-51.8	-83.3	122	8
2023-08-13T06:00	24891	28	-51.9	-83.4	122	7
2023-08-13T06:00	24914	28	-51.9	-83.4	122	6
2023-08-13T06:00	24947	27	-52.0	-83.5	120	5
2023-08-13T06:00	24977	27	-52.0	-83.5	117	4
2023-08-13T06:00	25013	27	-52.1	-83.5	107	3
2023-08-13T06:00	25035	27	-52.0	-83.5	88	3
2023-08-13T06:00	25070	27	-51.8	-83.3	64	3
2023-08-13T06:00	25085	27	-51.5	-83.7	45	3
2023-08-13T06:00	25122	27	-51.4	-83.6	35	3
2023-08-13T06:00	25142	27	-51.5	-83.7	28	4
2023-08-13T06:00	25173	27	-51.5	-83.7	26	4
2023-08-13T06:00	25200	26	-51.4	-83.6	26	4
2023-08-13T06:00	25226	26	-51.3	-83.6	28	4
2023-08-13T06:00	25253	26	-51.3	-82.9	33	4
2023-08-13T06:00	25281	26	-51.4	-83.0	38	4
2023-08-13T06:00	25307	26	-51.5	-83.1	43	4
2023-08-13T06:00	25331	26	-51.6	-83.2	47	4
2023-08-13T06:00	25366	26	-51.6	-83.2	50	4
2023-08-13T06:00	25385	26	-51.6	-83.2	53	4
2023-08-13T06:00	25417	26	-51.7	-83.2	55	5
2023-08-13T06:00	25444	25	-51.8	-83.3	57	5
2023-08-13T06:00	25474	25	-51.8	-83.3	58	5
2023-08-13T06:00	25501	25	-51.8	-83.3	59	5
2023-08-13T06:00	25530	25	-51.9	-83.4	60	5
2023-08-13T06:00	25550	25	-51.7	-83.9	62	5
2023-08-13T06:00	25587	25	-51.5	-83.7	65	5
2023-08-13T06:00	25608	25	-51.5	-83.7	70	5
2023-08-13T06:00	25633	25	-51.4	-83.6	76	5
2023-08-13T06:00	25671	25	-51.3	-83.6	84	5
2023-08-13T06:00	25693	24	-51.2	-83.5	91	6
2023-08-13T06:00	25724	24	-51.2	-83.5	95	6
2023-08-13T06:00	25746	24	-51.2	-83.5	98	5
2023-08-13T06:00	25779	24	-51.3	-83.6	98	5
2023-08-13T06:00	25806	24	-51.3	-83.6	95	5
2023-08-13T06:00	25835	24	-51.2	-83.5	92	5
2023-08-13T06:00	25862	24	-51.2	-83.5	89	5
2023-08-13T06:00	25900	24	-51.3	-83.6	86	5
2023-08-13T06:00	25926	24	-51.4	-83.6	86	5
2023-08-13T06:00	25948	23	-51.3	-83.6	87	5
2023-08-13T06:00	25988	23	-51.3	-83.6	90	5
2023-08-13T06:00	26021	23	-51.3	-83.6	93	5
2023-08-13T06:00	26040	23	-51.3	-83.6	96	5
2023-08-13T06:00	26076	23	-51.2	-83.5	99	5
2023-08-13T06:00	26099	23	-51.1	-83.4	101	5
2023-08-13T06:00	26123	23	-50.9	-83.3	105	5
2023-08-13T06:00	26157	23	-50.9	-83.3	109	5
2023-08-13T06:00	26185	23	-50.9	-83.3	113	5
2023-08-13T06:00	26215	23	-50.7	-83.1	117	5
2023-08-13T06:00	26240	22	-50.6	-83.1	119	4
2023-08-13T06:00	26280	22	-50.5	-83.0	118	3
2023-08-13T06:00	26307	22	-50.5	-83.0	113	3
2023-08-13T06:00	26338	22	-50.4	-82.9	104	2
2023-08-13T06:00	26361	22	-50.2	-82.8	92	2
2023-08-13T06:00	26393	22	-50.0	-83.3	79	2
2023-08-13T06:00	26422	22	-49.9	-83.2	69	2
2023-08-13T06:00	26455	22	-49.8	-83.2	63	3
2023-08-13T06:00	26484	22	-49.7	-83.1	60	3
2023-08-13T06:00	26503	22	-49.6	-83.0	58	4
2023-08-13T06:00	26544	21	-49.5	-82.9	57	4
2023-08-13T06:00	26573	21	-49.5	-82.9	57	5
2023-08-13T06:00	26602	21	-49.5	-82.9	58	5
2023-08-13T06:00	26625	21	-49.5	-82.9	59	6
2023-08-13T06:00	26664	21	-49.4	-82.9	61	6
2023-08-13T06:00	26691	21	-49.5	-82.9	62	6
2023-08-13T06:00	26721	21	-49.5	-82.9	63	6
2023-08-13T06:00	26755	21	-49.5	-82.9	64	6
2023-08-13T06:00	26782	21	-49.2	-82.7	65	6
2023-08-13T06:00	26814	21	-49.0	-82.6	66	5
2023-08-13T06:00	26842	21	-49.1	-82.7	68	5
2023-08-13T06:00	26870	20	-49.2	-82.7	69	5
2023-08-13T06:00	26900	20	-49.3	-82.8	71	5
2023-08-13T06:00	26923	20	-49.3	-82.8	73	5
2023-08-13T06:00	26966	20	-49.2	-82.7	75	5
2023-08-13T06:00	26979	20	-49.2	-82.7	78	6
2023-08-13T06:00	27021	20	-49.3	-82.8	80	6
2023-08-13T06:00	27045	20	-49.3	-82.8	83	6
2023-08-13T06:00	27068	20	-49.3	-82.8	86	7
2023-08-13T06:00	27111	20	-49.4	-82.9	91	6
2023-08-13T06:00	27137	20	-49.4	-82.9	96	6
2023-08-13T06:00	27172	20	-49.4	-82.9	102	6
2023-08-13T06:00	27196	19	-49.4	-82.9	106	5
2023-08-13T06:00	27229	19	-49.4	-82.9	107	5
2023-08-13T06:00	27247	19	-49.3	-82.8	104	5
2023-08-13T06:00	27287	19	-49.3	-82.8	97	5
2023-08-13T06:00	27324	19	-49.2	-82.7	89	5
2023-08-13T06:00	27350	19	-49.1	-82.7	83	5
2023-08-13T06:00	27375	19	-49.1	-82.7	79	6
2023-08-13T06:00	27413	19	-49.0	-82.6	77	7
2023-08-13T06:00	27444	19	-48.8	-82.4	77	8
2023-08-13T06:00	27461	19	-48.7	-82.4	78	8
2023-08-13T06:00	27500	19	-48.7	-82.4	80	9
2023-08-13T06:00	27526	18	-48.5	-82.2	81	9
2023-08-13T06:00	27550	18	-48.3	-82.1	83	10
2023-08-13T06:00	27578	18	-48.3	-82.1	84	10
2023-08-13T06:00	27622	18	-48.3	-82.1	84	10
2023-08-13T06:00	27645	18	-48.4	-82.2	85	10
2023-08-13T06:00	27663	18	-48.4	-82.2	86	10
2023-08-13T06:00	27703	18	-48.3	-82.1	88	10
2023-08-13T06:00	27736	18	-48.2	-82.0	90	10
2023-08-13T06:00	27761	18	-48.0	-81.9	91	9
2023-08-13T06:00	27789	18	-47.9	-82.6	92	9
2023-08-13T06:00	27829	18	-47.8	-82.5	92	9
2023-08-13T06:00	27851	18	-47.5	-82.3	90	8
2023-08-13T06:00	27889	18	-47.3	-82.2	88	8
2023-08-13T06:00	27917	17	-47.2	-82.1	85	8
2023-08-13T06:00	27940	17	-47.0	-81.9	81	8
2023-08-13T06:00	27964	17	-46.9	-81.9	77	8
2023-08-13T06:00	27999	17	-46.9	-81.9	75	9
2023-08-13T06:00	28036	17	-46.9	-81.9	73	9
2023-08-13T06:00	28059	17	-46.9	-81.9	72	10
2023-08-13T06:00	28083	17	-46.9	-81.9	72	10
2023-08-13T06:00	28125	17	-47.0	-81.9	73	10
2023-08-13T06:00	28154	17	-47.0	-81.9	73	10
2023-08-13T06:00	28189	17	-46.9	-81.9	73	10
2023-08-13T06:00	28219	17	-47.0	-81.9	73	9
2023-08-13T06:00	28246	17	-47.1	-82.0	72	8
2023-08-13T06:00	28275	17	-47.1	-82.0	72	7
2023-08-13T06:00	28310	16	-47.0	-81.9	71	6
2023-08-13T06:00	28341	16	-47.1	-81.2	70	6
2023-08-13T06:00	28357	16	-47.3	-81.4	69	5
2023-08-13T06:00	28406	16	-47.4	-81.4	69	5
2023-08-13T06:00	28427	16	-47.5	-81.5	68	5
2023-08-13T06:00	28448	16	-47.5	-81.5	67	5
2023-08-13T06:00	28490	16	-47.5	-81.5	66	5
2023-08-13T06:00	28514	16	-47.4	-81.4	66	5
2023-08-13T06:00	28549	16	-47.3	-81.4	66	6
2023-08-13T06:00	28572	16	-47.4	-81.4	66	6
2023-08-13T06:00	28608	16	-47.5	-81.5	68	7
2023-08-13T06:00	28628	16	-47.5	-81.5	71	7
2023-08-13T06:00	28654	16	-47.6	-82.4	75	7
2023-08-13T06:00	28690	16	-47.5	-82.3	80	7
2023-08-13T06:00	28723	15	-47.4	-82.2	87	7
2023-08-13T06:00	28741	15	-47.2	-82.1	93	7
2023-08-13T06:00	28784	15	-47.1	-82.0	100	6
2023-08-13T06:00	28808	15	-47.1	-82.0	104	6
2023-08-13T06:00	28841	15	-47.1	-82.0	106	6
2023-08-13T06:00	28855	15	-47.1	-82.0	106	6
2023-08-13T06:00	28890	15	-47.0	-81.9	102	6
2023-08-13T06:00	28921	15	-46.9	-81.9	96	6
2023-08-13T06:00	28957	15	-46.9	-81.9	89	6
2023-08-13T06:00	28976	15	-46.8	-81.8	81	6
2023-08-13T06:00	29013	15	-46.7	-81.7	75	6
2023-08-13T06:00	29044	15	-46.5	-81.6	71	7
2023-08-13T06:00	29085	15	-46.2	-82.3	69	7
2023-08-13T06:00	29105	15	-45.9	-82.1	67	7
2023-08-13T06:00	29137	15	-45.6	-81.9	66	8
2023-08-13T06:00	29151	14	-45.4	-81.7	66	8
2023-08-13T06:00	29182	14	-45.2	-81.6	67	8
2023-08-13T06:00	29229	14	-44.9	-81.4	69	9
2023-08-13T06:00	29244	14	-44.7	-81.2	71	9
2023-08-13T06:00	29275	14	-44.5	-81.1	73	9
2023-08-13T06:00	29314	14	-44.3	-80.9	76	9
2023-08-13T06:00	29340	14	-44.1	-80.8	78	9
2023-08-13T06:00	29373	14	-44.1	-80.8	81	9
2023-08-13T06:00	29405	14	-44.0	-80.7	82	9
2023-08-13T06:00	29445	14	-43.9	-80.7	84	9
2023-08-13T06:00	29457	14	-43.9	-80.7	84	9
2023-08-13T06:00	29502	14	-43.9	-80.7	84	9
2023-08-13T06:00	29537	14	-43.8	-80.6	83	8
2023-08-13T06:00	29566	14	-43.9	-80.7	82	8
2023-08-13T06:00	29591	14	-44.0	-80.7	80	8
2023-08-13T06:00	29626	13	-44.1	-80.8	78	8
2023-08-13T06:00	29660	13	-44.2	-80.9	76	8
2023-08-13T06:00	29669	13	-44.3	-80.9	75	9
2023-08-13T06:00	29733	13	-44.4	-81.0	75	9
2023-08-13T06:00	29771	13	-44.4	-81.0	76	10
2023-08-13T06:00	29786	13	-44.3	-80.9	78	11
2023-08-13T06:00	29813	13	-44.3	-80.9	81	11
2023-08-13T06:00	29852	13	-44.3	-80.9	84	12
2023-08-13T06:00	29885	13	-44.1	-80.8	87	12
2023-08-13T06:00	29903	13	-44.1	-80.8	90	11
2023-08-13T06:00	29960	13	-44.1	-80.8	93	10
2023-08-13T06:00	29986	13	-44.2	-80.9	94	9
2023-08-13T06:00	30023	13	-44.2	-80.9	94	8
2023-08-13T06:00	30052	13	-44.0	-80.7	91	7
2023-08-13T06:00	30074	13	-43.6	-80.4	87	6
2023-08-13T06:00	30110	13	-43.3	-80.2	81	6
2023-08-13T06:00	30152	12	-43.1	-80.1	74	5
2023-08-13T06:00	30173	12	-42.9	-81.1	70	6
2023-08-13T06:00	30213	12	-42.9	-81.1	67	6
2023-08-13T06:00	30254	12	-42.8	-81.0	67	7
2023-08-13T06:00	30271	12	-42.7	-79.8	68	8
2023-08-13T06:00	30287	12	-42.7	-79.8	70	9
2023-08-13T06:00	30336	12	-42.7	-79.8	71	11
2023-08-13T06:00	30379	12	-42.7	-79.8	73	12
2023-08-13T06:00	30400	12	-42.7	-79.8	74	13
2023-08-13T06:00	30419	12	-42.6	-79.7	75	14
2023-08-13T06:00	30457	12	-42.4	-80.7	77	14
2023-08-13T06:00	30501	12	-42.2	-80.6	80	14
2023-08-13T06:00	30522	12	-42.1	-80.5	82	14
2023-08-13T06:00	30548	12	-42.0	-80.4	86	14
2023-08-13T06:00	30585	12	-41.8	-80.3	89	13
2023-08-13T06:00	30602	12	-41.7	-80.2	93	13
2023-08-13T06:00	30652	12	-41.7	-80.2	96	12
2023-08-13T06:00	30676	12	-41.7	-80.2	99	12
2023-08-13T06:00	30699	12	-41.8	-80.3	101	11
2023-08-13T06:00	30738	11	-41.8	-80.3	102	11
2023-08-13T06:00	30767	11	-41.8	-80.3	102	11
2023-08-13T06:00	30801	11	-41.8	-80.3	100	11
2023-08-13T06:00	30824	11	-41.8	-80.3	98	12
2023-08-13T06:00	30840	11	-41.8	-80.3	96	12
2023-08-13T06:00	30876	11	-41.9	-80.4	95	13
2023-08-13T06:00	30904	11	-41.8	-80.3	95	14
2023-08-13T06:00	30936	11	-41.7	-80.2	95	14
2023-08-13T06:00	30961	11	-41.7	-80.2	96	14
2023-08-13T06:00	31010	11	-41.7	-80.2	98	14
2023-08-13T06:00	31013	11	-41.6	-80.1	101	14
2023-08-13T06:00	31043	11	-41.5	-80.1	103	13
2023-08-13T06:00	31073	11	-41.5	-80.1	104	12
2023-08-13T06:00	31112	11	-41.3	-79.9	105	11
2023-08-13T06:00	31155	11	-41.0	-79.7	104	11
2023-08-13T06:00	31194	11	-40.6	-79.5	100	9
2023-08-13T06:00	31249	11	-40.5	-79.4	97	9
2023-08-13T06:00	31261	11	-40.4	-79.3	95	9
2023-08-13T06:00	31277	11	-40.2	-79.2	94	9
2023-08-13T06:00	31323	11	-40.1	-79.1	93	9
2023-08-13T06:00	31348	10	-40.0	-79.0	94	9
2023-08-13T06:00	31373	10	-39.9	-79.0	95	9
2023-08-13T06:00	31416	10	-39.8	-78.9	96	9
2023-08-13T06:00	31434	10	-39.7	-78.8	98	8
2023-08-13T06:00	31489	10	-39.6	-78.8	99	8
2023-08-13T06:00	31498	10	-39.5	-78.7	99	7
2023-08-13T06:00	31559	10	-39.5	-78.7	99	7
2023-08-13T06:00	31585	10	-39.5	-78.7	99	7
2023-08-13T06:00	31605	10	-39.3	-78.5	99	8
2023-08-13T06:00	31632	10	-39.1	-78.4	99	8
2023-08-13T06:00	31664	10	-39.0	-78.3	100	8
2023-08-13T06:00	31704	10	-38.9	-78.3	102	8
2023-08-13T06:00	31750	10	-38.8	-78.2	103	8
2023-08-13T06:00	31771	10	-38.8	-78.2	105	8
2023-08-13T06:00	31806	10	-38.7	-78.1	108	8
2023-08-13T06:00	31843	10	-38.7	-78.1	109	8
2023-08-13T06:00	31877	10	-38.7	-78.1	110	8
2023-08-13T06:00	31919	10	-38.7	-78.1	111	8
2023-08-13T06:00	31934	10	-38.7	-78.1	110	9
2023-08-13T06:00	31979	10	-38.7	-78.1	110	9
2023-08-13T06:00	32009	9	-38.6	-78.1	110	9
2023-08-13T06:00	32065	9	-38.7	-78.1	109	10
2023-08-13T06:00	32092	9	-38.8	-78.2	109	10
2023-08-13T06:00	32118	9	-39.0	-78.3	108	10
2023-08-13T06:00	32141	9	-39.2	-78.5	107	10
2023-08-13T06:00	32159	9	-39.3	-78.5	106	10
2023-08-13T06:00	32216	9	-39.5	-78.7	105	10
2023-08-13T06:00	32257	9	-39.5	-78.7	103	10
2023-08-13T06:00	32268	9	-39.7	-78.8	100	9
2023-08-13T06:00	32309	9	-39.8	-78.9	98	9
2023-08-13T06:00	32360	9	-39.9	-79.0	95	8
2023-08-13T06:00	32380	9	-39.9	-79.0	93	7
2023-08-13T06:00	32401	9	-39.9	-79.0	93	7
2023-08-13T06:00	32449	9	-39.8	-78.9	93	6
2023-08-13T06:00	32456	9	-39.8	-78.9	94	6
2023-08-13T06:00	32501	9	-39.8	-78.9	95	6
2023-08-13T06:00	32524	9	-39.8	-78.9	96	7
2023-08-13T06:00	32578	9	-39.8	-78.9	97	7
2023-08-13T06:00	32609	9	-39.7	-78.8	99	8
2023-08-13T06:00	32628	9	-39.7	-78.8	101	8
2023-08-13T06:00	32655	9	-39.7	-78.8	105	9
2023-08-13T06:00	32687	9	-39.7	-78.8	109	10
2023-08-13T06:00	32727	9	-39.8	-78.9	112	10
2023-08-13T06:00	32757	9	-39.9	-79.0	115	11
2023-08-13T06:00	32772	8	-40.1	-79.1	115	11
2023-08-13T06:00	32811	8	-40.2	-79.2	114	10
2023-08-13T06:00	32842	8	-40.2	-79.2	111	10
2023-08-13T06:00	32881	8	-39.9	-79.0	107	9
2023-08-13T06:00	32890	8	-39.5	-78.7	102	9
2023-08-13T06:00	32940	8	-39.2	-78.5	97	8
2023-08-13T06:00	32974	8	-39.1	-78.4	91	8
2023-08-13T06:00	32986	8	-38.9	-78.3	87	8
2023-08-13T06:00	33016	8	-38.7	-78.1	85	8
2023-08-13T06:00	33038	8	-38.6	-78.1	84	7
2023-08-13T06:00	33088	8	-38.5	-78.0	83	7
2023-08-13T06:00	33103	8	-38.4	-77.9	83	7
2023-08-13T06:00	33139	8	-38.3	-77.9	81	7
2023-08-13T06:00	33160	8	-38.2	-77.8	77	8
2023-08-13T06:00	33173	8	-38.2	-77.8	74	8
2023-08-13T06:00	33219	8	-38.3	-77.9	71	9
2023-08-13T06:00	33290	8	-38.4	-77.9	69	10
2023-08-13T06:00	33303	8	-38.3	-77.9	70	10
2023-08-13T06:00	33372	8	-38.2	-77.8	72	10
2023-08-13T06:00	33375	8	-38.3	-77.9	76	10
2023-08-13T06:00	33424	8	-38.4	-77.9	80	10
2023-08-13T06:00	33448	8	-38.4	-77.9	85	10
2023-08-13T06:00	33485	8	-38.5	-78.0	88	10
2023-08-13T06:00	33495	8	-38.5	-78.0	90	10
2023-08-13T06:00	33514	8	-38.6	-78.1	90	10
2023-08-13T06:00	33563	8	-38.6	-78.1	89	10
2023-08-13T06:00	33580	8	-38.7	-78.1	88	11
2023-08-13T06:00	33630	8	-38.8	-78.2	88	11
2023-08-13T06:00	33648	7	-38.8	-78.2	88	11
2023-08-13T06:00	33693	7	-38.9	-78.3	91	12
2023-08-13T06:00	33736	7	-38.9	-78.3	93	12
2023-08-13T06:00	33742	7	-38.9	-78.3	96	12
2023-08-13T06:00	33772	7	-39.0	-78.3	99	12
2023-08-13T06:00	33810	7	-39.2	-78.5	101	12
2023-08-13T06:00	33876	7	-39.3	-78.5	103	12
2023-08-13T06:00	33902	7	-39.4	-78.6	102	12
2023-08-13T06:00	33958	7	-39.3	-78.5	100	12
2023-08-13T06:00	33964	7	-39.4	-78.6	99	12
2023-08-13T06:00	34022	7	-39.3	-78.5	98	11
2023-08-13T06:00	34035	7	-39.3	-78.5	99	11
2023-08-13T06:00	34076	7	-39.1	-78.4	101	10
2023-08-13T06:00	34101	7	-38.9	-78.3	104	9
2023-08-13T06:00	34127	7	-38.8	-78.2	109	9
2023-08-13T06:00	34153	7	-38.7	-78.1	115	8
2023-08-13T06:00	34172	7	-38.7	-78.1	120	8
2023-08-13T06:00	34202	7	-38.7	-78.1	122	8
2023-08-13T06:00	34244	7	-38.6	-78.1	120	8
2023-08-13T06:00	34292	7	-38.5	-78.0	116	8
2023-08-13T06:00	34300	7	-38.5	-78.0	111	9
2023-08-13T06:00	34332	7	-38.4	-77.9	107	10
2023-08-13T06:00	34364	7	-38.3	-77.9	105	11
2023-08-13T06:00	34406	7	-38.3	-77.9	104	11
2023-08-13T06:00	34434	7	-38.2	-77.8	104	12
2023-08-13T06:00	34503	7	-37.9	-77.6	107	12
2023-08-13T06:00	34527	7	-37.8	-77.5	108	12
2023-08-13T06:00	34600	7	-37.6	-77.4	108	12
2023-08-13T06:00	34633	7	-36.8	-76.8	109	12
2023-08-13T06:00	34640	6	-36.3	-76.5	110	12
2023-08-13T06:00	34695	6	-36.0	-76.3	111	11
2023-08-13T06:00	34707	6	-35.6	-76.0	112	11
2023-08-13T12:00	112	1006	24.8	14.0	230	3
2023-08-13T12:00	135	1003	23.0	10.9	261	3
2023-08-13T12:00	158	1000	22.8	10.5	259	3
2023-08-13T12:00	184	998	22.6	10.4	257	3
2023-08-13T12:00	208	995	22.3	10.3	253	4
2023-08-13T12:00	232	992	22.1	10.4	248	4
2023-08-13T12:00	254	989	21.9	10.4	243	4
2023-08-13T12:00	279	987	21.6	10.3	241	4
2023-08-13T12:00	300	984	21.4	10.2	240	4
2023-08-13T12:00	317	982	21.3	10.5	241	4
2023-08-13T12:00	340	980	21.0	10.5	242	3
2023-08-13T12:00	362	977	20.8	10.6	243	3
2023-08-13T12:00	383	975	20.6	10.7	243	3
2023-08-13T12:00	412	972	20.4	10.0	241	4
2023-08-13T12:00	427	970	20.2	10.4	240	4
2023-08-13T12:00	450	967	20.0	10.0	238	4
2023-08-13T12:00	466	965	19.8	10.1	237	4
2023-08-13T12:00	489	963	19.6	10.2	236	4
2023-08-13T12:00	506	961	19.4	10.2	236	3
2023-08-13T12:00	530	959	19.2	10.0	236	3
2023-08-13T12:00	547	957	19.0	10.0	238	3
2023-08-13T12:00	566	954	18.8	10.0	241	3
2023-08-13T12:00	590	952	18.6	10.0	247	3
2023-08-13T12:00	615	949	18.4	9.9	253	3
2023-08-13T12:00	631	947	18.2	9.8	258	4
2023-08-13T12:00	653	945	18.0	9.7	261	4
2023-08-13T12:00	676	942	17.8	10.1	259	4
2023-08-13T12:00	704	939	17.5	9.7	256	4
2023-08-13T12:00	729	936	17.3	9.8	251	3
2023-08-13T12:00	759	933	17.0	9.8	245	3
2023-08-13T12:00	783	930	16.8	10.1	240	3
2023-08-13T12:00	813	927	16.5	9.8	235	3
2023-08-13T12:00	851	923	16.2	10.1	231	3
2023-08-13T12:00	889	919	15.8	9.9	229	3
2023-08-13T12:00	924	915	15.5	9.8	231	4
2023-08-13T12:00	959	912	15.2	9.9	233	4
2023-08-13T12:00	988	908	14.9	9.7	237	5
2023-08-13T12:00	1016	905	14.6	9.8	241	5
2023-08-13T12:00	1041	903	14.4	9.9	244	5
2023-08-13T12:00	1074	899	14.1	9.0	248	5
2023-08-13T12:00	1104	896	13.9	8.1	251	5
2023-08-13T12:00	1135	893	13.6	8.2	251	5
2023-08-13T12:00	1156	890	13.4	8.0	250	5
2023-08-13T12:00	1185	887	13.1	7.9	247	5
2023-08-13T12:00	1212	885	12.9	8.0	244	6
2023-08-13T12:00	1237	882	12.6	7.8	242	6
2023-08-13T12:00	1266	879	12.4	8.1	241	7
2023-08-13T12:00	1294	876	12.2	8.0	241	7
2023-08-13T12:00	1323	873	11.9	7.7	241	8
2023-08-13T12:00	1353	870	11.8	7.6	242	8
2023-08-13T12:00	1380	867	11.6	7.5	244	9
2023-08-13T12:00	1406	864	11.4	7.0	246	9
2023-08-13T12:00	1433	861	11.2	6.7	249	10
2023-08-13T12:00	1467	858	10.9	6.4	251	10
2023-08-13T12:00	1494	855	10.9	5.6	252	11
2023-08-13T12:00	1526	852	10.9	5.0	252	11
2023-08-13T12:00	1557	849	11.1	4.5	251	11
2023-08-13T12:00	1580	847	10.9	4.6	251	11
2023-08-13T12:00	1603	844	10.7	4.6	251	11
2023-08-13T12:00	1633	841	10.4	4.3	251	11
2023-08-13T12:00	1663	838	10.3	4.3	251	11
2023-08-13T12:00	1694	835	10.2	4.4	251	11
2023-08-13T12:00	1724	832	10.0	4.4	251	11
2023-08-13T12:00	1754	829	9.7	4.2	252	12
2023-08-13T12:00	1779	826	9.5	4.3	253	12
2023-08-13T12:00	1809	824	9.3	4.3	253	12
2023-08-13T12:00	1836	821	9.0	4.3	254	12
2023-08-13T12:00	1863	818	8.8	4.1	253	12
2023-08-13T12:00	1888	816	8.7	4.2	252	12
2023-08-13T12:00	1912	813	8.6	4.3	251	12
2023-08-13T12:00	1946	810	8.3	4.4	250	12
2023-08-13T12:00	1972	807	8.1	4.7	249	12
2023-08-13T12:00	2001	805	7.8	4.6	249	12
2023-08-13T12:00	2024	802	7.6	4.7	250	12
2023-08-13T12:00	2050	800	7.4	4.7	252	12
2023-08-13T12:00	2073	798	7.2	4.8	254	12
2023-08-13T12:00	2101	795	6.9	4.7	254	12
2023-08-13T12:00	2128	792	6.6	4.6	253	12
2023-08-13T12:00	2150	790	6.4	4.6	249	12
2023-08-13T12:00	2174	788	6.2	4.9	245	12
2023-08-13T12:00	2197	786	6.0	4.7	242	12
2023-08-13T12:00	2222	783	5.8	4.6	241	11
2023-08-13T12:00	2242	781	5.6	4.6	242	11
2023-08-13T12:00	2276	778	5.3	4.6	244	11
2023-08-13T12:00	2303	776	5.1	4.5	246	12
2023-08-13T12:00	2327	773	4.9	4.5	246	12
2023-08-13T12:00	2351	771	4.7	4.4	245	12
2023-08-13T12:00	2370	769	4.5	4.1	244	12
2023-08-13T12:00	2388	767	4.4	4.1	244	13
2023-08-13T12:00	2417	765	4.2	3.0	244	13
2023-08-13T12:00	2447	762	4.2	3.1	246	13
2023-08-13T12:00	2469	760	4.0	3.2	248	13
2023-08-13T12:00	2487	758	3.9	3.2	249	12
2023-08-13T12:00	2511	756	3.6	3.4	251	12
2023-08-13T12:00	2531	754	3.5	3.3	252	12
2023-08-13T12:00	2551	752	3.4	3.4	253	11
2023-08-13T12:00	2569	751	3.4	3.4	254	11
2023-08-13T12:00	2588	749	3.2	3.2	255	12
2023-08-13T12:00	2607	747	3.0	2.8	255	12
2023-08-13T12:00	2627	745	2.9	2.7	255	12
2023-08-13T12:00	2642	744	2.8	2.8	255	12
2023-08-13T12:00	2667	742	2.6	2.2	254	12
2023-08-13T12:00	2681	740	2.6	2.3	253	12
2023-08-13T12:00	2702	739	2.8	-0.4	252	12
2023-08-13T12:00	2719	737	3.9	-7.3	251	12
2023-08-13T12:00	2738	735	5.5	-11.4	249	12
2023-08-13T12:00	2759	733	6.0	-10.7	247	12
2023-08-13T12:00	2778	732	6.1	-13.3	245	13
2023-08-13T12:00	2796	730	6.3	-15.0	245	12
2023-08-13T12:00	2809	729	6.4	-13.1	247	12
2023-08-13T12:00	2823	728	6.4	-16.2	249	12
2023-08-13T12:00	2846	726	6.5	-16.7	250	11
2023-08-13T12:00	2861	724	6.7	-18.6	250	11
2023-08-13T12:00	2884	722	6.6	-19.0	248	11
2023-08-13T12:00	2900	721	6.6	-18.9	245	11
2023-08-13T12:00	2924	719	6.5	-16.7	242	11
2023-08-13T12:00	2943	717	6.5	-16.3	240	11
2023-08-13T12:00	2968	715	6.4	-13.3	238	11
2023-08-13T12:00	2985	713	6.4	-13.0	236	11
2023-08-13T12:00	3006	712	6.3	-13.7	235	11
2023-08-13T12:00	3020	710	6.2	-13.8	234	10
2023-08-13T12:00	3044	708	6.1	-13.5	234	10
2023-08-13T12:00	3058	707	6.0	-13.2	236	9
2023-08-13T12:00	3084	705	5.8	-14.2	239	9
2023-08-13T12:00	3105	703	5.7	-16.2	242	9
2023-08-13T12:00	3119	702	5.5	-16.5	245	9
2023-08-13T12:00	3138	700	5.4	-17.0	247	9
2023-08-13T12:00	3164	698	5.2	-17.2	249	10
2023-08-13T12:00	3185	696	5.1	-17.7	250	10
2023-08-13T12:00	3208	694	5.0	-17.0	252	11
2023-08-13T12:00	3224	693	4.8	-16.6	254	11
2023-08-13T12:00	3250	691	4.6	-17.2	255	11
2023-08-13T12:00	3272	689	4.7	-20.9	257	11
2023-08-13T12:00	3293	687	4.8	-31.7	257	11
2023-08-13T12:00	3314	685	4.9	-33.6	257	11
2023-08-13T12:00	3344	683	4.7	-33.7	257	11
2023-08-13T12:00	3369	681	4.5	-34.2	256	11
2023-08-13T12:00	3395	678	4.4	-34.2	255	12
2023-08-13T12:00	3418	677	4.2	-34.4	255	12
2023-08-13T12:00	3438	675	4.1	-34.4	256	12
2023-08-13T12:00	3459	673	4.0	-33.9	257	13
2023-08-13T12:00	3486	671	3.8	-33.4	258	13
2023-08-13T12:00	3512	669	3.6	-32.8	257	13
2023-08-13T12:00	3543	666	3.3	-34.6	256	14
2023-08-13T12:00	3572	664	3.2	-33.3	255	15
2023-08-13T12:00	3600	662	3.1	-34.2	253	15
2023-08-13T12:00	3621	660	2.9	-34.6	252	15
2023-08-13T12:00	3643	658	2.9	-35.2	251	15
2023-08-13T12:00	3667	656	2.8	-35.6	250	15
2023-08-13T12:00	3694	654	2.6	-35.7	249	15
2023-08-13T12:00	3719	652	2.5	-35.8	249	15
2023-08-13T12:00	3747	649	2.3	-35.9	248	15
2023-08-13T12:00	3785	647	2.1	-36.1	248	15
2023-08-13T12:00	3813	644	1.9	-36.2	249	14
2023-08-13T12:00	3839	642	1.7	-36.0	249	13
2023-08-13T12:00	3862	640	1.5	-36.1	250	12
2023-08-13T12:00	3891	638	1.3	-36.3	250	12
2023-08-13T12:00	3917	636	1.2	-36.3	250	11
2023-08-13T12:00	3945	634	1.0	-35.9	250	11
2023-08-13T12:00	3966	632	0.8	-35.7	250	11
2023-08-13T12:00	3995	630	0.5	-35.9	250	11
2023-08-13T12:00	4015	628	0.3	-35.7	250	12
2023-08-13T12:00	4039	626	0.1	-35.9	251	12
2023-08-13T12:00	4067	624	-0.2	-35.8	252	12
2023-08-13T12:00	4086	623	-0.3	-35.9	254	13
2023-08-13T12:00	4106	621	-0.4	-36.2	257	13
2023-08-13T12:00	4139	619	-0.5	-37.8	259	14
2023-08-13T12:00	4162	617	-0.5	-38.5	259	14
2023-08-13T12:00	4179	615	-0.6	-38.9	259	14
2023-08-13T12:00	4204	614	-0.5	-39.2	259	14
2023-08-13T12:00	4231	611	-0.5	-39.6	258	14
2023-08-13T12:00	4265	609	-0.5	-39.2	259	14
2023-08-13T12:00	4298	607	-0.4	-40.3	261	14
2023-08-13T12:00	4315	605	-0.5	-40.0	264	14
2023-08-13T12:00	4332	604	-0.5	-39.6	267	14
2023-08-13T12:00	4355	602	-0.7	-35.4	269	15
2023-08-13T12:00	4388	600	-0.9	-32.2	270	15
2023-08-13T12:00	4416	598	-1.1	-30.8	270	15
2023-08-13T12:00	4435	596	-1.2	-29.8	269	15
2023-08-13T12:00	4453	595	-1.2	-29.4	268	15
2023-08-13T12:00	4475	593	-1.4	-28.6	267	15
2023-08-13T12:00	4503	591	-1.6	-26.3	266	16
2023-08-13T12:00	4531	589	-1.8	-25.8	265	16
2023-08-13T12:00	4546	588	-1.9	-25.5	265	16
2023-08-13T12:00	4564	587	-2.0	-25.5	264	16
2023-08-13T12:00	4581	585	-2.1	-25.4	262	16
2023-08-13T12:00	4598	584	-2.2	-25.6	261	16
2023-08-13T12:00	4614	583	-2.2	-28.9	261	17
2023-08-13T12:00	4631	581	-2.2	-29.0	261	17
2023-08-13T12:00	4655	580	-2.1	-27.2	261	17
2023-08-13T12:00	4679	578	-2.2	-22.3	261	18
2023-08-13T12:00	4703	576	-2.3	-19.6	261	18
2023-08-13T12:00	4729	574	-2.5	-21.0	261	18
2023-08-13T12:00	4758	572	-2.7	-21.6	260	17
2023-08-13T12:00	4778	571	-2.9	-21.5	259	17
2023-08-13T12:00	4802	569	-3.1	-18.2	259	17
2023-08-13T12:00	4829	567	-3.4	-17.2	259	17
2023-08-13T12:00	4857	565	-3.5	-17.7	259	18
2023-08-13T12:00	4872	564	-3.6	-18.0	259	19
2023-08-13T12:00	4888	563	-3.7	-18.2	259	19
2023-08-13T12:00	4904	562	-3.9	-18.5	259	20
2023-08-13T12:00	4926	560	-4.1	-17.4	259	20
2023-08-13T12:00	4956	558	-4.3	-17.0	258	21
2023-08-13T12:00	4973	557	-4.5	-17.0	258	21
2023-08-13T12:00	4992	556	-4.6	-17.0	257	21
2023-08-13T12:00	5015	554	-4.8	-17.0	256	22
2023-08-13T12:00	5047	552	-5.1	-17.0	256	22
2023-08-13T12:00	5066	550	-5.1	-17.5	255	22
2023-08-13T12:00	5083	549	-5.3	-17.5	255	22
2023-08-13T12:00	5098	548	-5.4	-17.4	254	22
2023-08-13T12:00	5116	547	-5.4	-16.7	253	21
2023-08-13T12:00	5135	546	-5.6	-17.7	252	21
2023-08-13T12:00	5158	544	-5.8	-17.1	251	20
2023-08-13T12:00	5187	542	-6.0	-18.3	250	20
2023-08-13T12:00	5209	540	-6.1	-18.6	250	20
2023-08-13T12:00	5228	539	-6.2	-19.4	249	21
2023-08-13T12:00	5255	537	-6.5	-19.3	249	21
2023-08-13T12:00	5280	536	-6.7	-19.9	250	22
2023-08-13T12:00	5301	534	-6.9	-20.3	250	22
2023-08-13T12:00	5319	533	-7.0	-20.2	250	22
2023-08-13T12:00	5346	531	-7.2	-21.3	250	22
2023-08-13T12:00	5370	529	-7.4	-21.2	249	21
2023-08-13T12:00	5401	527	-7.6	-20.9	249	21
2023-08-13T12:00	5423	526	-7.7		248	21
2023-08-13T12:00	5448	524	-7.9	-20.5	247	21
2023-08-13T12:00	5480	522	-8.2	-20.7	247	21
2023-08-13T12:00	5502	521	-8.3	-22.2	246	21
2023-08-13T12:00	5516	519	-8.5	-22.6	246	21
2023-08-13T12:00	5534	518	-8.6	-22.7	246	21
2023-08-13T12:00	5552	517	-8.8	-22.2	246	21
2023-08-13T12:00	5569	516	-8.9	-20.8	245	20
2023-08-13T12:00	5592	514	-9.1	-21.4	245	20
2023-08-13T12:00	5621	513	-9.3	-21.0	244	20
2023-08-13T12:00	5647	511	-9.5	-20.4	245	20
2023-08-13T12:00	5671	509	-9.8	-19.8	246	20
2023-08-13T12:00	5702	507	-10.0	-19.0	247	20
2023-08-13T12:00	5728	505	-10.3	-19.6	248	20
2023-08-13T12:00	5761	503	-10.6	-19.7	249	19
2023-08-13T12:00	5792	501	-10.8	-18.2	250	18
2023-08-13T12:00	5815	500	-10.9	-17.1	250	17
2023-08-13T12:00	5846	498	-11.2	-16.1	251	16
2023-08-13T12:00	5863	497	-11.3	-16.1	251	15
2023-08-13T12:00	5881	496	-11.4	-14.7	250	15
2023-08-13T12:00	5900	494	-11.5	-14.4	249	14
2023-08-13T12:00	5920	493	-11.5	-13.9	247	14
2023-08-13T12:00	5954	491	-11.6	-13.6	245	14
2023-08-13T12:00	5978	489	-11.7	-13.6	243	14
2023-08-13T12:00	6009	487	-11.6	-14.0	243	14
2023-08-13T12:00	6027	486	-11.7	-14.0	243	14
2023-08-13T12:00	6048	485	-11.9	-14.2	245	14
2023-08-13T12:00	6083	483	-12.2	-14.4	247	15
2023-08-13T12:00	6110	481	-12.5	-14.5	249	15
2023-08-13T12:00	6141	479	-12.7	-14.9	250	16
2023-08-13T12:00	6161	478	-12.9	-15.9	251	17
2023-08-13T12:00	6176	477	-12.9	-17.2	252	17
2023-08-13T12:00	6195	476	-12.8	-17.5	252	17
2023-08-13T12:00	6218	474	-12.9	-17.8	252	17
2023-08-13T12:00	6248	472	-13.1	-18.0	252	16
2023-08-13T12:00	6275	471	-13.4	-18.3	252	16
2023-08-13T12:00	6306	469	-13.6	-18.4	252	16
2023-08-13T12:00	6335	467	-13.8	-18.0	251	16
2023-08-13T12:00	6369	465	-14.1	-18.1	250	16
2023-08-13T12:00	6394	463	-14.3	-18.5	249	17
2023-08-13T12:00	6419	462	-14.5	-18.5	248	17
2023-08-13T12:00	6447	460	-14.8	-18.7	248	18
2023-08-13T12:00	6477	458	-15.0	-18.8	248	19
2023-08-13T12:00	6507	456	-15.2	-18.9	248	19
2023-08-13T12:00	6536	455	-15.5	-19.1	248	18
2023-08-13T12:00	6568	453	-15.7	-19.2	249	18
2023-08-13T12:00	6600	451	-15.9	-19.3	249	17
2023-08-13T12:00	6631	449	-16.1	-19.1	250	17
2023-08-13T12:00	6662	447	-16.2	-18.7	250	17
2023-08-13T12:00	6693	445	-16.3	-18.7	250	17
2023-08-13T12:00	6727	443	-16.6	-19.0	250	18
2023-08-13T12:00	6768	441	-16.8	-19.4	249	18
2023-08-13T12:00	6788	440	-17.0	-19.5	249	18
2023-08-13T12:00	6808	438	-17.1	-19.5	249	18
2023-08-13T12:00	6837	437	-17.3	-19.6	249	18
2023-08-13T12:00	6867	435	-17.4	-20.1	250	18
2023-08-13T12:00	6898	433	-17.6	-20.2	250	18
2023-08-13T12:00	6931	431	-17.9	-20.2	250	18
2023-08-13T12:00	6966	429	-18.3	-20.4	249	18
2023-08-13T12:00	6998	428	-18.5	-20.8	248	18
2023-08-13T12:00	7025	426	-18.7	-20.9	247	18
2023-08-13T12:00	7053	424	-18.9	-21.1	246	18
2023-08-13T12:00	7085	423	-19.1	-21.4	246	19
2023-08-13T12:00	7115	421	-19.4	-21.7	247	19
2023-08-13T12:00	7150	419	-19.6	-21.8	248	19
2023-08-13T12:00	7180	417	-19.8	-22.1	248	19
2023-08-13T12:00	7209	416	-20.0	-22.5	249	19
2023-08-13T12:00	7245	414	-20.2	-22.9	249	19
2023-08-13T12:00	7268	412	-20.4	-22.9	249	19
2023-08-13T12:00	7291	411	-20.6	-23.0	249	19
2023-08-13T12:00	7314	410	-20.8	-23.0	249	19
2023-08-13T12:00	7335	409	-21.0	-23.2	249	19
2023-08-13T12:00	7361	407	-21.2	-23.3	249	19
2023-08-13T12:00	7393	405	-21.4	-23.6	249	19
2023-08-13T12:00	7425	404	-21.6	-23.6	249	19
2023-08-13T12:00	7455	402	-21.8	-23.7	248	20
2023-08-13T12:00	7488	400	-22.1	-24.0	248	20
2023-08-13T12:00	7528	398	-22.3	-24.4	249	20
2023-08-13T12:00	7563	396	-22.6	-24.7	249	20
2023-08-13T12:00	7590	395	-22.7	-25.1	249	20
2023-08-13T12:00	7610	394	-22.8	-25.4	249	19
2023-08-13T12:00	7630	393	-22.9	-25.6	249	19
2023-08-13T12:00	7652	391	-23.1	-25.8	249	19
2023-08-13T12:00	7674	390	-23.2	-26.0	248	18
2023-08-13T12:00	7700	389	-23.4	-26.3	249	18
2023-08-13T12:00	7725	388	-23.6	-26.4	249	19
2023-08-13T12:00	7753	386	-23.8	-26.6	251	19
2023-08-13T12:00	7784	384	-24.0	-27.1	252	19
2023-08-13T12:00	7817	383	-24.3	-27.3	252	19
2023-08-13T12:00	7847	381	-24.5	-27.3	252	19
2023-08-13T12:00	7879	379	-24.8	-27.7	251	18
2023-08-13T12:00	7915	378	-25.1	-28.0	250	18
2023-08-13T12:00	7945	376	-25.4	-28.2	249	18
2023-08-13T12:00	7976	374	-25.6	-28.4	249	18
2023-08-13T12:00	8008	373	-25.9	-28.7	250	18
2023-08-13T12:00	8043	371	-26.2	-28.8	250	18
2023-08-13T12:00	8075	369	-26.4	-29.1	251	18
2023-08-13T12:00	8110	368	-26.7	-29.2	251	19
2023-08-13T12:00	8145	366	-27.0	-29.5	251	19
2023-08-13T12:00	8177	364	-27.2	-29.8	251	19
2023-08-13T12:00	8207	363	-27.5	-30.2	251	20
2023-08-13T12:00	8237	361	-27.6	-30.4	250	21
2023-08-13T12:00	8268	359	-27.9	-30.5	250	21
2023-08-13T12:00	8303	358	-28.2	-30.7	249	21
2023-08-13T12:00	8330	356	-28.5	-31.0	249	22
2023-08-13T12:00	8359	355	-28.7	-31.3	249	22
2023-08-13T12:00	8384	354	-28.9	-31.4	250	22
2023-08-13T12:00	8416	352	-29.1	-31.2	250	22
2023-08-13T12:00	8443	351	-29.4	-31.5	250	22
2023-08-13T12:00	8470	349	-29.5	-32.0	250	22
2023-08-13T12:00	8502	348	-29.8	-32.2	249	23
2023-08-13T12:00	8534	346	-30.1	-32.7	248	23
2023-08-13T12:00	8570	345	-30.3	-32.9	247	23
2023-08-13T12:00	8608	343	-30.6	-33.2	247	23
2023-08-13T12:00	8635	341	-30.8	-33.5	247	23
2023-08-13T12:00	8669	340	-31.1	-33.7	247	23
2023-08-13T12:00	8703	338	-31.4	-34.0	247	23
2023-08-13T12:00	8726	337	-31.6	-34.1	248	24
2023-08-13T12:00	8755	336	-31.8	-34.3	247	24
2023-08-13T12:00	8786	334	-32.1	-34.6	247	24
2023-08-13T12:00	8819	333	-32.4	-34.6	247	24
2023-08-13T12:00	8853	331	-32.7	-34.7	247	25
2023-08-13T12:00	8881	330	-32.9	-34.9	248	25
2023-08-13T12:00	8912	328	-33.2	-35.2	248	25
2023-08-13T12:00	8940	327	-33.4	-35.4	248	25
2023-08-13T12:00	8967	326	-33.6	-35.6	248	24
2023-08-13T12:00	8997	324	-33.9	-35.8	248	24
2023-08-13T12:00	9032	323	-34.2		249	23
2023-08-13T12:00	9065	321	-34.5	-36.7	249	23
2023-08-13T12:00	9104	320	-34.9	-36.9	250	23
2023-08-13T12:00	9131	318	-35.1	-37.2	250	22
2023-08-13T12:00	9150	317	-35.3	-37.3	250	22
2023-08-13T12:00	9170	316	-35.4	-37.4	249	22
2023-08-13T12:00	9192	316	-35.6	-37.9	249	22
2023-08-13T12:00	9213	315	-35.8	-38.2	249	22
2023-08-13T12:00	9235	314	-36.0	-38.6	249	22
2023-08-13T12:00	9261	312	-36.2	-39.0	249	22
2023-08-13T12:00	9291	311	-36.4	-39.1	249	21
2023-08-13T12:00	9317	310	-36.7	-39.2	249	21
2023-08-13T12:00	9345	309	-36.9	-39.5	248	22
2023-08-13T12:00	9378	307	-37.1	-40.0	248	22
2023-08-13T12:00	9405	306	-37.3	-40.0	247	22
2023-08-13T12:00	9438	305	-37.6	-40.4	247	22
2023-08-13T12:00	9462	303	-37.8	-40.7	248	22
2023-08-13T12:00	9488	302	-38.0	-40.8	248	21
2023-08-13T12:00	9517	301	-38.3	-40.9	248	21
2023-08-13T12:00	9551	300	-38.6	-41.3	247	21
2023-08-13T12:00	9579	298	-38.8	-41.3	247	20
2023-08-13T12:00	9608	297	-39.1	-41.5	248	20
2023-08-13T12:00	9638	296	-39.4	-41.8	249	21
2023-08-13T12:00	9664	295	-39.6	-42.0	249	21
2023-08-13T12:00	9693	293	-39.8	-42.2	250	21
2023-08-13T12:00	9725	292	-40.1	-42.7	250	21
2023-08-13T12:00	9753	291	-40.3	-43.0	250	22
2023-08-13T12:00	9779	290	-40.5	-43.1	250	22
2023-08-13T12:00	9806	289	-40.7	-43.1	250	23
2023-08-13T12:00	9835	287	-40.9	-43.5	250	23
2023-08-13T12:00	9863	286	-41.1	-44.0	249	23
2023-08-13T12:00	9891	285	-41.3	-44.2	249	23
2023-08-13T12:00	9921	284	-41.5	-44.4	249	24
2023-08-13T12:00	9948	283	-41.6	-45.0	249	24
2023-08-13T12:00	9978	281	-41.7	-45.4	250	24
2023-08-13T12:00	10008	280	-41.9	-45.6	251	24
2023-08-13T12:00	10035	279	-42.2	-45.9	252	24
2023-08-13T12:00	10059	278	-42.4	-46.3	253	24
2023-08-13T12:00	10083	277	-42.6	-47.0	254	24
2023-08-13T12:00	10103	276	-42.7	-47.4	255	23
2023-08-13T12:00	10122	275	-42.9	-47.6	255	23
2023-08-13T12:00	10141	275	-43.1	-47.9	255	23
2023-08-13T12:00	10159	274	-43.2	-48.3	255	23
2023-08-13T12:00	10175	273	-43.4	-48.7	255	23
2023-08-13T12:00	10192	273	-43.5	-48.7	254	24
2023-08-13T12:00	10213	272	-43.7	-48.9	254	24
2023-08-13T12:00	10229	271	-43.8	-49.2	253	24
2023-08-13T12:00	10248	270	-44.0	-49.3	253	24
2023-08-13T12:00	10267	270	-44.1	-49.2	252	24
2023-08-13T12:00	10284	269	-44.3	-49.2	252	24
2023-08-13T12:00	10301	268	-44.4	-49.2	252	24
2023-08-13T12:00	10320	267	-44.6	-49.5	252	24
2023-08-13T12:00	10336	267	-44.7	-49.6	252	24
2023-08-13T12:00	10356	266	-44.9	-49.8	252	25
2023-08-13T12:00	10375	265	-45.1	-50.1	252	25
2023-08-13T12:00	10395	264	-45.2	-50.4	252	25
2023-08-13T12:00	10413	264	-45.4	-50.6	252	25
2023-08-13T12:00	10433	263	-45.6	-50.8	252	25
2023-08-13T12:00	10450	262	-45.7	-51.0	252	25
2023-08-13T12:00	10470	261	-45.9	-51.1	252	25
2023-08-13T12:00	10488	261	-46.0	-51.3	252	25
2023-08-13T12:00	10506	260	-46.2	-51.4	252	25
2023-08-13T12:00	10525	259	-46.4	-51.4	252	25
2023-08-13T12:00	10545	259	-46.6	-51.7	252	25
2023-08-13T12:00	10564	258	-46.7	-51.7	251	25
2023-08-13T12:00	10584	257	-46.9	-52.0	251	25
2023-08-13T12:00	10602	256	-47.1	-52.3	251	25
2023-08-13T12:00	10621	256	-47.3	-52.5	250	25
2023-08-13T12:00	10640	255	-47.5	-52.6	250	25
2023-08-13T12:00	10659	254	-47.7	-52.6	250	25
2023-08-13T12:00	10677	253	-47.8	-52.8	250	25
2023-08-13T12:00	10697	253	-47.9	-53.0	250	25
2023-08-13T12:00	10715	252	-48.1	-53.2	250	25
2023-08-13T12:00	10734	251	-48.3	-53.5	250	25
2023-08-13T12:00	10753	251	-48.5	-53.6	250	25
2023-08-13T12:00	10774	250	-48.7	-54.0	250	25
2023-08-13T12:00	10793	249	-48.8	-54.7	250	25
2023-08-13T12:00	10813	248	-49.0	-55.1	250	25
2023-08-13T12:00	10831	248	-49.2	-54.9	249	25
2023-08-13T12:00	10852	247	-49.3	-54.7	249	25
2023-08-13T12:00	10871	246	-49.5	-55.0	248	25
2023-08-13T12:00	10888	245	-49.7	-55.1	248	25
2023-08-13T12:00	10909	245	-49.8	-55.2	247	24
2023-08-13T12:00	10928	244	-49.9	-55.2	247	24
2023-08-13T12:00	10947	243	-50.1	-55.3	246	24
2023-08-13T12:00	10969	242	-50.2	-55.5	245	24
2023-08-13T12:00	10988	242	-50.4	-56.0	244	24
2023-08-13T12:00	11006	241	-50.5		244	24
2023-08-13T12:00	11026	240	-50.7	-56.5	243	24
2023-08-13T12:00	11047	240	-50.9	-56.6	243	24
2023-08-13T12:00	11066	239	-51.0	-56.8	243	24
2023-08-13T12:00	11086	238	-51.2	-57.1	243	24
2023-08-13T12:00	11106	237	-51.3	-57.2	242	23
2023-08-13T12:00	11126	237	-51.5	-57.3	242	23
2023-08-13T12:00	11145	236	-51.7	-57.4	242	23
2023-08-13T12:00	11167	235	-51.7	-57.4	242	23
2023-08-13T12:00	11185	234	-51.9	-57.6	242	23
2023-08-13T12:00	11205	234	-52.1	-57.6	242	23
2023-08-13T12:00	11222	233	-52.2	-57.6	242	23
2023-08-13T12:00	11241	232	-52.3	-57.8	242	23
2023-08-13T12:00	11263	232	-52.5	-57.9	242	23
2023-08-13T12:00	11283	231	-52.6	-58.0	242	23
2023-08-13T12:00	11303	230	-52.8	-58.2	242	23
2023-08-13T12:00	11323	230	-53.0	-58.5	241	24
2023-08-13T12:00	11343	229	-53.1	-58.7	241	24
2023-08-13T12:00	11365	228	-53.3	-58.9	240	24
2023-08-13T12:00	11383	227	-53.4	-59.0	240	24
2023-08-13T12:00	11403	227	-53.6	-59.0	240	24
2023-08-13T12:00	11422	226	-53.8	-58.9	240	24
2023-08-13T12:00	11445	225	-54.0	-58.9	241	24
2023-08-13T12:00	11464	225	-54.2	-58.9	241	25
2023-08-13T12:00	11484	224	-54.3	-59.0	242	25
2023-08-13T12:00	11505	223	-54.5	-59.1	242	25
2023-08-13T12:00	11527	222	-54.7	-59.1	242	25
2023-08-13T12:00	11547	222	-54.9	-59.1	241	25
2023-08-13T12:00	11571	221	-55.0	-59.4	240	25
2023-08-13T12:00	11591	220	-55.1	-59.8	239	26
2023-08-13T12:00	11613	219	-55.2	-60.1	238	26
2023-08-13T12:00	11632	219	-55.3	-60.3	238	26
2023-08-13T12:00	11654	218	-55.5	-60.4	237	26
2023-08-13T12:00	11673	217	-55.7	-60.5	237	26
2023-08-13T12:00	11692	217	-55.8	-60.5	237	26
2023-08-13T12:00	11714	216	-56.0	-60.6	238	26
2023-08-13T12:00	11736	215	-56.2	-60.7	239	26
2023-08-13T12:00	11759	214	-56.4	-60.8	240	26
2023-08-13T12:00	11784	214	-56.6	-60.7	241	26
2023-08-13T12:00	11805	213	-56.7	-60.5	241	26
2023-08-13T12:00	11827	212	-56.7	-60.2	242	25
2023-08-13T12:00	11848	211	-56.8	-60.2	243	25
2023-08-13T12:00	11868	211	-56.9	-60.5	244	24
2023-08-13T12:00	11889	210	-57.0	-61.0	245	24
2023-08-13T12:00	11910	209	-57.0	-61.5	245	23
2023-08-13T12:00	11931	209	-57.1	-62.0	246	23
2023-08-13T12:00	11953	208	-57.1	-62.2	246	23
2023-08-13T12:00	11974	207	-57.3	-62.4	246	23
2023-08-13T12:00	11995	207	-57.2	-62.2	246	23
2023-08-13T12:00	12016	206	-57.1	-62.1	246	23
2023-08-13T12:00	12035	205	-57.1	-62.4	245	23
2023-08-13T12:00	12057	205	-57.0	-62.8	246	23
2023-08-13T12:00	12078	204	-57.1	-63.4	246	23
2023-08-13T12:00	12099	203	-57.1	-64.1	246	23
2023-08-13T12:00	12120	203	-57.1	-64.6	247	23
2023-08-13T12:00	12141	202	-57.1	-64.9	247	23
2023-08-13T12:00	12161	201	-57.2	-65.4	248	23
2023-08-13T12:00	12181	201	-57.1	-65.9	248	23
2023-08-13T12:00	12204	200	-57.1	-66.5	249	23
2023-08-13T12:00	12225	199	-56.9	-66.8	250	23
2023-08-13T12:00	12246	199	-57.0	-67.2	252	23
2023-08-13T12:00	12267	198	-57.1	-67.4	253	22
2023-08-13T12:00	12287	197	-57.1	-67.4	253	22
2023-08-13T12:00	12307	197	-57.2	-67.5	252	22
2023-08-13T12:00	12328	196	-57.3	-67.7	251	22
2023-08-13T12:00	12347	195	-57.3	-68.0	250	23
2023-08-13T12:00	12376	195	-57.3	-68.8	248	23
2023-08-13T12:00	12402	194	-56.7	-69.2	246	24
2023-08-13T12:00	12423	193	-56.7	-69.7	245	24
2023-08-13T12:00	12444	192	-56.7	-70.0	245	24
2023-08-13T12:00	12466	192	-56.7	-70.3	245	24
2023-08-13T12:00	12485	191	-56.7	-70.7	245	24
2023-08-13T12:00	12508	190	-56.3	-71.2	244	24
2023-08-13T12:00	12531	190	-55.9	-71.8	244	23
2023-08-13T12:00	12552	189	-55.7	-72.4	243	23
2023-08-13T12:00	12574	189	-55.7	-72.8	242	23
2023-08-13T12:00	12594	188	-55.8	-72.9	241	23
2023-08-13T12:00	12613	187	-56.0	-72.8	241	23
2023-08-13T12:00	12632	187	-56.1	-72.8	241	23
2023-08-13T12:00	12650	186	-56.3	-73.1	241	23
2023-08-13T12:00	12672	186	-56.1		241	23
2023-08-13T12:00	12693	185	-55.9	-73.6	241	23
2023-08-13T12:00	12712	184	-55.8	-74.1	241	23
2023-08-13T12:00	12735	184	-55.7	-74.7	242	23
2023-08-13T12:00	12756	183	-55.4	-75.5	243	23
2023-08-13T12:00	12777	183	-55.0	-76.1	244	22
2023-08-13T12:00	12795	182	-54.4	-76.3	245	22
2023-08-13T12:00	12815	181	-54.1	-76.5	246	22
2023-08-13T12:00	12838	181	-54.1	-76.7	248	22
2023-08-13T12:00	12859	180	-54.1	-76.7	249	21
2023-08-13T12:00	12880	180	-54.1	-76.7	250	21
2023-08-13T12:00	12901	179	-54.2	-76.9	251	21
2023-08-13T12:00	12920	179	-54.1	-76.8	252	21
2023-08-13T12:00	12941	178	-54.2	-77.1	252	20
2023-08-13T12:00	12963	177	-54.0	-77.2	251	20
2023-08-13T12:00	12982	177	-53.8	-77.3	250	20
2023-08-13T12:00	13004	176	-53.8	-77.4	248	19
2023-08-13T12:00	13025	176	-53.9	-77.7	247	20
2023-08-13T12:00	13045	175	-53.9	-77.7	245	20
2023-08-13T12:00	13066	175	-54.0	-78.0	244	20
2023-08-13T12:00	13088	174	-54.0	-78.2	243	20
2023-08-13T12:00	13107	173	-53.8	-78.2	243	21
2023-08-13T12:00	13128	173	-53.6	-78.5	244	21
2023-08-13T12:00	13147	172	-52.9	-78.4	245	21
2023-08-13T12:00	13168	172	-52.8	-78.8	246	20
2023-08-13T12:00	13189	171	-52.7	-79.0	247	20
2023-08-13T12:00	13211	171	-52.5	-79.4	248	20
2023-08-13T12:00	13231	170	-51.9	-79.5	248	19
2023-08-13T12:00	13250	170	-51.6	-79.6	248	19
2023-08-13T12:00	13273	169	-51.4	-79.5	247	18
2023-08-13T12:00	13294	168	-51.4	-79.8	245	18
2023-08-13T12:00	13313	168	-51.4	-79.8	244	18
2023-08-13T12:00	13336	167	-51.5	-79.9	242	17
2023-08-13T12:00	13357	167	-51.4	-79.8	240	17
2023-08-13T12:00	13375	166	-51.2	-79.7	239	17
2023-08-13T12:00	13404	166	-51.1	-80.0	237	17
2023-08-13T12:00	13424	165	-51.2	-80.1	235	17
2023-08-13T12:00	13447	165	-51.1	-80.0	234	18
2023-08-13T12:00	13468	164	-51.2	-79.7	232	18
2023-08-13T12:00	13490	163	-51.4	-79.8	232	18
2023-08-13T12:00	13512	163	-51.6	-80.0	231	18
2023-08-13T12:00	13536	162	-51.8	-80.1	230	18
2023-08-13T12:00	13560	162	-51.9	-79.9	230	18
2023-08-13T12:00	13579	161	-52.1	-80.0	230	18
2023-08-13T12:00	13602	161	-52.4	-80.3	230	18
2023-08-13T12:00	13623	160	-52.5	-80.3	230	18
2023-08-13T12:00	13645	160	-52.4	-80.3	231	18
2023-08-13T12:00	13663	159	-52.4	-80.3	231	18
2023-08-13T12:00	13689	159	-52.4	-80.3	231	18
2023-08-13T12:00	13710	158	-52.2	-80.1	231	18
2023-08-13T12:00	13732	158	-52.2	-80.1	231	19
2023-08-13T12:00	13750	157	-52.4	-80.3	231	19
2023-08-13T12:00	13774	156	-52.6	-80.4	232	19
2023-08-13T12:00	13794	156	-52.8	-80.6	233	19
2023-08-13T12:00	13816	155	-52.9	-80.3	235	20
2023-08-13T12:00	13835	155	-52.8	-80.2	236	20
2023-08-13T12:00	13855	154	-52.8	-80.2	238	19
2023-08-13T12:00	13880	154	-52.6	-80.1	240	19
2023-08-13T12:00	13900	153	-52.6	-80.1	242	19
2023-08-13T12:00	13924	153	-52.7	-80.2	245	18
2023-08-13T12:00	13946	152	-52.8	-80.2	247	18
2023-08-13T12:00	13964	152	-52.9	-80.3	249	18
2023-08-13T12:00	13984	151	-52.9	-80.0	250	17
2023-08-13T12:00	14003	151	-52.8	-79.9	250	17
2023-08-13T12:00	14028	150	-52.7	-79.8	248	17
2023-08-13T12:00	14051	150	-52.7	-79.8	246	16
2023-08-13T12:00	14074	149	-52.8	-79.9	244	16
2023-08-13T12:00	14096	149	-52.9	-79.7	242	16
2023-08-13T12:00	14116	148	-53.0	-79.8	241	16
2023-08-13T12:00	14138	148	-53.2	-79.9	241	17
2023-08-13T12:00	14158	147	-53.2	-79.9	241	17
2023-08-13T12:00	14179	147	-53.4	-79.8	241	17
2023-08-13T12:00	14199	146	-53.4	-79.8	241	18
2023-08-13T12:00	14221	146	-53.5	-79.9	241	18
2023-08-13T12:00	14241	146	-53.6	-80.0	242	18
2023-08-13T12:00	14261	145	-53.8	-79.8	242	18
2023-08-13T12:00	14281	145	-53.9	-79.9	243	18
2023-08-13T12:00	14304	144	-53.9	-79.9	243	18
2023-08-13T12:00	14326	144	-53.9	-79.9	244	18
2023-08-13T12:00	14343	143	-53.9	-79.9	244	18
2023-08-13T12:00	14364	143	-54.0	-80.3	245	18
2023-08-13T12:00	14386	142	-54.0	-80.3	245	17
2023-08-13T12:00	14407	142	-54.0	-80.6	245	17
2023-08-13T12:00	14428	141	-53.9	-80.5	244	16
2023-08-13T12:00	14449	141	-53.9	-80.5	244	16
2023-08-13T12:00	14468	140	-53.8	-80.4	244	16
2023-08-13T12:00	14489	140	-53.5	-80.2	244	15
2023-08-13T12:00	14512	140	-53.2	-79.9	244	15
2023-08-13T12:00	14535	139	-53.2	-80.2	245	15
2023-08-13T12:00	14556	139	-53.1	-80.5	245	15
2023-08-13T12:00	14575	138	-53.1	-80.8	244	15
2023-08-13T12:00	14597	138	-52.9	-80.6	243	15
2023-08-13T12:00	14618	137	-52.7	-80.5	241	15
2023-08-13T12:00	14639	137	-52.5	-80.7	240	15
2023-08-13T12:00	14662	136	-52.6	-80.8	239	15
2023-08-13T12:00	14684	136	-52.7	-80.8	238	15
2023-08-13T12:00	14705	135	-52.9	-81.0	237	15
2023-08-13T12:00	14724	135	-53.1	-80.8	236	16
2023-08-13T12:00	14748	135	-53.3	-80.9	234	16
2023-08-13T12:00	14769	134	-53.5	-81.1	232	16
2023-08-13T12:00	14792	134	-53.7	-81.3	231	16
2023-08-13T12:00	14815	133	-53.8	-81.3	230	17
2023-08-13T12:00	14837	133	-54.0	-81.5	229	17
2023-08-13T12:00	14861	132	-54.1	-81.6	230	16
2023-08-13T12:00	14885	132	-54.2	-81.6	230	16
2023-08-13T12:00	14905	131	-54.3	-82.1	231	16
2023-08-13T12:00	14928	131	-54.2	-82.0	231	16
2023-08-13T12:00	14948	130	-54.2	-82.0	231	16
2023-08-13T12:00	14971	130	-54.1	-81.9	231	16
2023-08-13T12:00	14990	130	-54.0	-82.2	231	16
2023-08-13T12:00	15013	129	-54.1	-82.3	232	17
2023-08-13T12:00	15036	129	-54.2	-82.3	232	17
2023-08-13T12:00	15058	128	-54.2	-82.3	233	17
2023-08-13T12:00	15079	128	-54.1	-82.3	235	18
2023-08-13T12:00	15099	127	-54.0	-82.2	236	18
2023-08-13T12:00	15120	127	-54.0	-82.2	236	18
2023-08-13T12:00	15140	127	-54.0	-82.2	237	18
2023-08-13T12:00	15162	126	-54.1	-82.3	237	18
2023-08-13T12:00	15183	126	-54.1	-82.3	237	18
2023-08-13T12:00	15205	125	-54.1	-82.3	237	17
2023-08-13T12:00	15226	125	-54.2	-82.7	237	17
2023-08-13T12:00	15247	124	-54.0	-82.6	237	17
2023-08-13T12:00	15266	124	-54.0	-82.6	237	16
2023-08-13T12:00	15290	124	-54.0	-83.0	235	15
2023-08-13T12:00	15310	123	-53.8	-82.8	233	14
2023-08-13T12:00	15334	123	-53.6	-83.1	231	14
2023-08-13T12:00	15357	122	-53.2	-82.8	228	13
2023-08-13T12:00	15379	122	-53.0	-82.7	226	13
2023-08-13T12:00	15400	122	-53.1	-82.7	223	13
2023-08-13T12:00	15422	121	-53.0	-82.2	221	13
2023-08-13T12:00	15445	121	-53.0	-82.2	219	13
2023-08-13T12:00	15466	120	-53.2	-82.4	217	13
2023-08-13T12:00	15489	120	-53.3	-82.0	216	14
2023-08-13T12:00	15511	119	-53.5	-82.2	216	14
2023-08-13T12:00	15532	119	-53.7	-82.3	217	14
2023-08-13T12:00	15554	119	-53.8	-82.0	217	15
2023-08-13T12:00	15573	118	-53.9	-82.1	217	15
2023-08-13T12:00	15597	118	-54.0	-82.2	217	15
2023-08-13T12:00	15618	117	-54.1	-82.3	216	15
2023-08-13T12:00	15638	117	-54.2	-82.3	217	14
2023-08-13T12:00	15658	117	-54.2	-82.3	217	14
2023-08-13T12:00	15680	116	-54.2	-82.3	219	14
2023-08-13T12:00	15701	116	-54.1	-82.3	220	14
2023-08-13T12:00	15723	116	-54.1	-82.6	221	13
2023-08-13T12:00	15746	115	-54.1	-82.6	223	13
2023-08-13T12:00	15769	115	-54.1	-82.6	224	13
2023-08-13T12:00	15789	114	-54.0	-82.6	226	13
2023-08-13T12:00	15813	114	-53.9	-82.5	227	12
2023-08-13T12:00	15833	114	-54.0	-82.6	228	12
2023-08-13T12:00	15856	113	-54.1	-82.6	229	12
2023-08-13T12:00	15878	113	-54.1	-82.6	229	12
2023-08-13T12:00	15903	112	-54.1	-82.6	229	12
2023-08-13T12:00	15924	112	-54.1	-82.6	228	11
2023-08-13T12:00	15947	112	-54.3	-82.8	227	11
2023-08-13T12:00	15970	111	-54.2	-82.7	227	11
2023-08-13T12:00	15992	111	-54.3	-82.8	226	11
2023-08-13T12:00	16015	110	-54.5	-82.6	225	11
2023-08-13T12:00	16037	110	-54.6	-82.6	225	11
2023-08-13T12:00	16063	110	-54.6	-82.6	223	10
2023-08-13T12:00	16085	109	-54.6	-82.6	221	10
2023-08-13T12:00	16108	109	-54.7	-82.7	218	10
2023-08-13T12:00	16132	108	-54.8	-82.8	214	10
2023-08-13T12:00	16157	108	-54.8	-82.8	210	10
2023-08-13T12:00	16183	108	-54.7	-82.7	207	10
2023-08-13T12:00	16206	107	-54.8	-82.8	205	10
2023-08-13T12:00	16230	107	-55.0	-82.9	205	10
2023-08-13T12:00	16251	106	-55.1	-83.0	207	11
2023-08-13T12:00	16274	106	-55.2	-83.1	210	11
2023-08-13T12:00	16298	106	-55.3	-82.8	213	11
2023-08-13T12:00	16319	105	-55.3	-83.2	215	12
2023-08-13T12:00	16342	105	-55.3	-83.2	217	12
2023-08-13T12:00	16363	105	-55.4	-83.3	219	13
2023-08-13T12:00	16387	104	-55.3	-83.2	220	13
2023-08-13T12:00	16409	104	-55.3	-83.2	222	13
2023-08-13T12:00	16431	103	-55.3	-83.2	224	13
2023-08-13T12:00	16454	103	-55.4	-83.3	226	13
2023-08-13T12:00	16474	103	-55.5		228	13
2023-08-13T12:00	16498	102	-55.5		229	12
2023-08-13T12:00	16519	102	-55.4	-83.6	230	12
2023-08-13T12:00	16540	102	-55.3	-83.6	231	11
2023-08-13T12:00	16563	101	-55.0		231	11
2023-08-13T12:00	16585	101	-54.8	-83.6	230	10
2023-08-13T12:00	16606	101	-54.8	-83.6	229	10
2023-08-13T12:00	16629	100	-54.7	-83.5	227	9
2023-08-13T12:00	16651	100	-54.7	-83.5	226	9
2023-08-13T12:00	16671	100	-54.4	-83.7	224	8
2023-08-13T12:00	16693	99	-54.1	-83.5	223	9
2023-08-13T12:00	16714	99	-54.1	-83.5	224	9
2023-08-13T12:00	16736	99	-54.2	-83.6	225	9
2023-08-13T12:00	16758	98	-54.3	-83.6	226	9
2023-08-13T12:00	16777	98	-54.5	-83.8	228	10
2023-08-13T12:00	16800	98	-54.6	-83.4	228	10
2023-08-13T12:00	16821	97	-54.7	-83.5	227	10
2023-08-13T12:00	16842	97	-54.8	-83.6	225	10
2023-08-13T12:00	16866	97	-54.9	-83.7	222	10
2023-08-13T12:00	16887	96	-54.8	-83.6	219	10
2023-08-13T12:00	16906	96	-54.7	-83.9	217	10
2023-08-13T12:00	16930	96	-54.8	-84.0	216	11
2023-08-13T12:00	16950	95	-54.8	-84.0	216	11
2023-08-13T12:00	16973	95	-54.9	-84.1	215	10
2023-08-13T12:00	16992	95	-54.9	-84.1	214	10
2023-08-13T12:00	17013	94	-54.9	-84.1	212	10
2023-08-13T12:00	17033	94	-54.8	-84.0	210	9
2023-08-13T12:00	17058	94	-54.8	-84.0	208	9
2023-08-13T12:00	17080	93	-54.9	-84.1	207	9
2023-08-13T12:00	17105	93	-55.1	-84.2	207	8
2023-08-13T12:00	17127	93	-55.2	-84.3	206	8
2023-08-13T12:00	17150	92	-55.3	-84.4	206	8
2023-08-13T12:00	17175	92	-55.3	-84.4	206	8
2023-08-13T12:00	17197	92	-55.1	-84.2	206	8
2023-08-13T12:00	17219	91	-55.0	-84.2	206	8
2023-08-13T12:00	17241	91	-54.9	-84.1	207	8
2023-08-13T12:00	17261	91	-54.8	-84.0	209	8
2023-08-13T12:00	17288	90	-55.0	-84.2	211	8
2023-08-13T12:00	17311	90	-55.1	-84.2	213	8
2023-08-13T12:00	17335	90	-55.1	-84.2	214	8
2023-08-13T12:00	17357	89	-55.1	-84.2	216	8
2023-08-13T12:00	17381	89	-55.0	-84.2	216	8
2023-08-13T12:00	17403	89	-54.9	-84.1	217	8
2023-08-13T12:00	17430	89	-55.0	-84.2	218	8
2023-08-13T12:00	17450	88	-55.2	-84.3	218	8
2023-08-13T12:00	17476	88	-55.2	-84.3	218	8
2023-08-13T12:00	17499	88	-55.3	-84.4	219	8
2023-08-13T12:00	17523	87	-55.2	-84.3	219	9
2023-08-13T12:00	17549	87	-55.1	-84.2	220	9
2023-08-13T12:00	17571	87	-55.1	-84.2	220	10
2023-08-13T12:00	17593	86	-55.2	-84.3	221	10
2023-08-13T12:00	17614	86	-55.3	-84.4	222	11
2023-08-13T12:00	17636	86	-55.4	-84.5	223	11
2023-08-13T12:00	17660	85	-55.5	-84.5	224	10
2023-08-13T12:00	17685	85	-55.6	-84.6	225	10
2023-08-13T12:00	17707	85	-55.7	-84.7	225	10
2023-08-13T12:00	17730	84	-55.6	-84.6	226	10
2023-08-13T12:00	17750	84	-55.5	-84.5	225	10
2023-08-13T12:00	17773	84	-55.6	-84.6	225	10
2023-08-13T12:00	17795	84	-55.7	-84.7	224	10
2023-08-13T12:00	17820	83	-55.8	-84.8	222	10
2023-08-13T12:00	17841	83	-55.9	-84.8	220	10
2023-08-13T12:00	17867	83	-55.9	-84.8	218	9
2023-08-13T12:00	17891	82	-55.9	-85.3	216	9
2023-08-13T12:00	17910	82	-55.4	-84.9	216	8
2023-08-13T12:00	17934	82	-55.0	-84.6	217	8
2023-08-13T12:00	17956	81	-54.8	-85.0	219	8
2023-08-13T12:00	17978	81	-54.5	-84.8	222	8
2023-08-13T12:00	18003	81	-54.6	-84.8	224	8
2023-08-13T12:00	18026	81	-54.7	-84.4	226	8
2023-08-13T12:00	18046	80	-54.8	-84.5	228	8
2023-08-13T12:00	18069	80	-54.9	-84.6	229	8
2023-08-13T12:00	18092	80	-55.0	-84.6	231	8
2023-08-13T12:00	18114	79	-55.1	-84.7	233	7
2023-08-13T12:00	18137	79	-55.1	-84.7	234	7
2023-08-13T12:00	18160	79	-55.1	-84.7	237	7
2023-08-13T12:00	18183	79	-55.2	-84.8	239	7
2023-08-13T12:00	18205	78	-55.3	-84.4	241	7
2023-08-13T12:00	18226	78	-55.4	-84.5	243	6
2023-08-13T12:00	18253	78	-55.5	-84.5	245	6
2023-08-13T12:00	18271	78	-55.7	-84.7	246	5
2023-08-13T12:00	18297	77	-55.7	-84.7	244	5
2023-08-13T12:00	18316	77	-55.6	-85.1	238	4
2023-08-13T12:00	18344	77	-55.5	-85.0	229	4
2023-08-13T12:00	18366	76	-55.3	-84.9	219	4
2023-08-13T12:00	18390	76	-55.3	-84.9	210	4
2023-08-13T12:00	18415	76	-55.4	-84.9	202	4
2023-08-13T12:00	18436	76	-55.6	-84.6	195	4
2023-08-13T12:00	18460	75	-55.8	-84.8	190	5
2023-08-13T12:00	18485	75	-55.9	-84.8	185	5
2023-08-13T12:00	18509	75	-56.1	-85.0	183	6
2023-08-13T12:00	18530	74	-56.3	-85.1	183	7
2023-08-13T12:00	18556	74	-56.4	-85.2	184	8
2023-08-13T12:00	18579	74	-56.3	-85.1	186	8
2023-08-13T12:00	18596	74	-56.1	-85.0	189	8
2023-08-13T12:00	18623	73	-56.1	-85.0	192	8
2023-08-13T12:00	18642	73	-56.1	-85.0	195	8
2023-08-13T12:00	18664	73	-56.2	-85.1	197	8
2023-08-13T12:00	18691	73	-56.2	-85.5	200	7
2023-08-13T12:00	18713	72	-56.0		203	7
2023-08-13T12:00	18733	72	-55.8	-85.2	205	7
2023-08-13T12:00	18760	72	-55.8	-85.2	207	7
2023-08-13T12:00	18783	72	-55.7	-85.2	209	8
2023-08-13T12:00	18807	71	-55.8	-85.2	211	8
2023-08-13T12:00	18826	71	-56.0	-84.9	213	8
2023-08-13T12:00	18852	71	-56.1	-85.0	215	8
2023-08-13T12:00	18875	71	-56.3	-85.1	217	8
2023-08-13T12:00	18899	70	-56.4	-85.2	219	8
2023-08-13T12:00	18920	70	-56.4	-85.2	220	8
2023-08-13T12:00	18947	70	-56.4	-85.2	222	8
2023-08-13T12:00	18972	69	-56.3	-85.1	223	7
2023-08-13T12:00	18994	69	-56.4	-85.2	223	7
2023-08-13T12:00	19021	69	-56.5	-85.3	223	6
2023-08-13T12:00	19043	69	-56.4	-85.7	222	6
2023-08-13T12:00	19065	68	-56.3	-85.6	220	5
2023-08-13T12:00	19088	68	-56.3	-85.6	218	5
2023-08-13T12:00	19115	68	-56.0		215	5
2023-08-13T12:00	19141	68	-55.9	-85.3	214	5
2023-08-13T12:00	19164	67	-55.8	-85.7	213	6
2023-08-13T12:00	19187	67	-55.7	-85.7	212	6
2023-08-13T12:00	19210	67	-55.7	-85.7	211	6
2023-08-13T12:00	19235	67	-55.5	-85.5	209	6
2023-08-13T12:00	19255	66	-55.3	-85.4	207	6
2023-08-13T12:00	19279	66	-55.1	-85.2	204	6
2023-08-13T12:00	19302	66	-54.9	-85.1	203	6
2023-08-13T12:00	19328	66	-54.8	-85.0	204	6
2023-08-13T12:00	19350	65	-54.8	-85.0	208	5
2023-08-13T12:00	19375	65	-54.8	-85.0	215	5
2023-08-13T12:00	19399	65	-54.8	-85.0	220	5
2023-08-13T12:00	19420	65	-54.7	-84.9	223	5
2023-08-13T12:00	19440	65	-54.6	-84.8	222	5
2023-08-13T12:00	19467	64	-54.5	-84.8	218	5
2023-08-13T12:00	19490	64	-54.3	-84.6	211	5
2023-08-13T12:00	19513	64	-54.2	-84.5	205	5
2023-08-13T12:00	19537	64	-54.1	-85.0	198	6
2023-08-13T12:00	19562	63	-54.1	-85.0	192	6
2023-08-13T12:00	19588	63	-54.1	-85.0	186	6
2023-08-13T12:00	19607	63	-54.0	-84.9	182	6
2023-08-13T12:00	19631	63	-53.9	-84.9	179	6
2023-08-13T12:00	19656	62	-53.9	-84.9	178	6
2023-08-13T12:00	19677	62	-54.0	-84.9	178	6
2023-08-13T12:00	19700	62	-54.0	-84.4	179	7
2023-08-13T12:00	19727	62	-54.1	-84.5	179	7
2023-08-13T12:00	19749	62	-54.1	-85.0	177	6
2023-08-13T12:00	19773	61	-53.9	-84.9	174	6
2023-08-13T12:00	19799	61	-53.7	-84.7	168	6
2023-08-13T12:00	19822	61	-53.4	-84.5	162	6
2023-08-13T12:00	19851	61	-53.4	-84.5	155	5
2023-08-13T12:00	19872	60	-53.5	-84.6	150	6
2023-08-13T12:00	19895	60	-53.5	-84.6	146	6
2023-08-13T12:00	19920	60	-53.5	-84.6	144	6
2023-08-13T12:00	19941	60	-53.6	-84.6	143	6
2023-08-13T12:00	19964	59	-53.6	-84.6	144	7
2023-08-13T12:00	19992	59	-53.4	-84.5	146	7
2023-08-13T12:00	20014	59	-53.3	-84.4	148	8
2023-08-13T12:00	20035	59	-53.5	-84.6	151	8
2023-08-13T12:00	20063	59	-53.6	-84.1	154	8
2023-08-13T12:00	20083	58	-53.8	-84.2	157	8
2023-08-13T12:00	20108	58	-54.0	-84.4	161	8
2023-08-13T12:00	20133	58	-54.1	-84.5	165	8
2023-08-13T12:00	20155	58	-54.2	-84.5	169	8
2023-08-13T12:00	20181	58	-54.3	-84.6	173	8
2023-08-13T12:00	20204	57	-54.5	-84.8	178	8
2023-08-13T12:00	20227	57	-54.6	-84.8	183	8
2023-08-13T12:00	20253	57	-54.6	-84.8	187	8
2023-08-13T12:00	20276	57	-54.5	-84.8	189	8
2023-08-13T12:00	20299	56	-54.1	-85.0	190	7
2023-08-13T12:00	20326	56	-53.7	-84.7	190	7
2023-08-13T12:00	20350	56	-53.6	-84.6	189	6
2023-08-13T12:00	20372	56	-53.5	-84.6	189	6
2023-08-13T12:00	20398	56	-53.4	-84.5	189	5
2023-08-13T12:00	20421	55	-53.5	-84.6	191	5
2023-08-13T12:00	20447	55	-53.6	-84.6	195	4
2023-08-13T12:00	20473	55	-53.5	-84.6	201	4
2023-08-13T12:00	20496	55	-53.5	-84.6	208	4
2023-08-13T12:00	20522	55	-53.5	-84.6	215	4
2023-08-13T12:00	20546	54	-53.6	-84.6	223	3
2023-08-13T12:00	20569	54	-53.7	-84.2	231	3
2023-08-13T12:00	20593	54	-53.7	-84.2	238	3
2023-08-13T12:00	20621	54	-53.9	-84.3	244	3
2023-08-13T12:00	20643	54	-54.0	-84.4	246	3
2023-08-13T12:00	20667	53	-54.0	-84.4	245	2
2023-08-13T12:00	20690	53	-53.9	-84.9	237	2
2023-08-13T12:00	20714	53	-53.7	-84.7	220	2
2023-08-13T12:00	20738	53	-53.5	-84.6	194	2
2023-08-13T12:00	20765	53	-53.4	-84.5	171	2
2023-08-13T12:00	20789	52	-53.3	-84.4	157	3
2023-08-13T12:00	20812	52	-53.3	-84.4	149	4
2023-08-13T12:00	20837	52	-53.3	-84.4	144	4
2023-08-13T12:00	20859	52	-53.4	-84.5	140	5
2023-08-13T12:00	20888	52	-53.5	-84.6	137	5
2023-08-13T12:00	20915	51	-53.5	-84.6	134	6
2023-08-13T12:00	20939	51	-53.5	-84.6	133	6
2023-08-13T12:00	20964	51	-53.4	-84.5	133	6
2023-08-13T12:00	20988	51	-53.4	-84.5	134	6
2023-08-13T12:00	21014	51	-53.3	-84.4	137	7
2023-08-13T12:00	21039	50	-53.4	-84.5	141	7
2023-08-13T12:00	21067	50	-53.4	-84.5	145	7
2023-08-13T12:00	21086	50	-53.4	-84.5	149	8
2023-08-13T12:00	21115	50	-53.5	-84.6	152	8
2023-08-13T12:00	21138	50	-53.4	-84.5	155	9
2023-08-13T12:00	21165	49	-53.3	-84.4	157	9
2023-08-13T12:00	21192	49	-53.3	-84.4	159	9
2023-08-13T12:00	21218	49	-53.4	-84.5	160	9
2023-08-13T12:00	21241	49	-53.4	-84.5	161	9
2023-08-13T12:00	21263	49	-53.3	-84.4	162	9
2023-08-13T12:00	21294	48	-53.2	-84.4	162	9
2023-08-13T12:00	21317	48	-53.3	-84.4	162	8
2023-08-13T12:00	21346	48	-53.4	-84.5	162	8
2023-08-13T12:00	21367	48	-53.5	-84.6	161	8
2023-08-13T12:00	21395	48	-53.6	-84.6	161	7
2023-08-13T12:00	21423	47	-53.7	-84.7	160	7
2023-08-13T12:00	21447	47	-53.8	-84.2	159	7
2023-08-13T12:00	21471	47	-53.9	-84.3	156	7
2023-08-13T12:00	21493	47	-53.9	-84.3	153	7
2023-08-13T12:00	21520	47	-53.8	-84.2	151	8
2023-08-13T12:00	21546	47	-53.8	-84.2	150	8
2023-08-13T12:00	21575	46	-53.8	-84.8	151	8
2023-08-13T12:00	21592	46	-53.9	-84.9	153	8
2023-08-13T12:00	21619	46	-53.9	-84.9	156	9
2023-08-13T12:00	21643	46	-53.9	-84.9	159	9
2023-08-13T12:00	21674	46	-53.9	-84.9	163	9
2023-08-13T12:00	21696	45	-53.8	-84.8	167	9
2023-08-13T12:00	21718	45	-53.7	-84.7	170	9
2023-08-13T12:00	21740	45	-53.7	-84.7	173	8
2023-08-13T12:00	21760	45	-53.8	-84.8	175	8
2023-08-13T12:00	21787	45	-53.9	-84.3	177	8
2023-08-13T12:00	21812	45	-54.0	-84.4	179	8
2023-08-13T12:00	21840	44	-54.1	-84.5	182	7
2023-08-13T12:00	21861	44	-54.2	-84.5	185	6
2023-08-13T12:00	21885	44	-54.2	-84.5	189	5
2023-08-13T12:00	21908	44	-54.1	-85.0	191	4
2023-08-13T12:00	21929	44	-53.9	-84.9	190	3
2023-08-13T12:00	21954	44	-53.6	-84.6	183	3
2023-08-13T12:00	21979	43	-53.4	-84.5	165	2
2023-08-13T12:00	22002	43	-53.4	-84.5	140	2
2023-08-13T12:00	22031	43	-53.3	-84.4	123	2
2023-08-13T12:00	22048	43	-53.2	-84.4	116	3
2023-08-13T12:00	22077	43	-53.1	-84.3	115	3
2023-08-13T12:00	22099	43	-53.2	-84.4	116	4
2023-08-13T12:00	22119	43	-53.2	-84.4	119	4
2023-08-13T12:00	22141	42	-53.2	-84.4	123	5
2023-08-13T12:00	22166	42	-53.1	-84.3	128	5
2023-08-13T12:00	22190	42	-53.1	-84.3	133	5
2023-08-13T12:00	22212	42	-53.3	-84.4	138	6
2023-08-13T12:00	22238	42	-53.4	-84.5	142	6
2023-08-13T12:00	22261	42	-53.5	-84.6	146	7
2023-08-13T12:00	22289	41	-53.7	-84.7	149	7
2023-08-13T12:00	22305	41	-53.7	-84.2	150	7
2023-08-13T12:00	22332	41	-53.7	-84.2	151	8
2023-08-13T12:00	22359	41	-53.8	-84.2	151	8
2023-08-13T12:00	22382	41	-54.0	-84.4	151	8
2023-08-13T12:00	22408	41	-54.2	-84.5	150	9
2023-08-13T12:00	22434	41	-54.4	-84.7	151	9
2023-08-13T12:00	22458	40	-54.6	-84.8	152	9
2023-08-13T12:00	22484	40	-54.6	-84.8	154	8
2023-08-13T12:00	22510	40	-54.6	-84.8	157	8
2023-08-13T12:00	22533	40	-54.6	-84.8	159	7
2023-08-13T12:00	22564	40	-54.7	-84.9	160	7
2023-08-13T12:00	22589	40	-54.6	-84.8	160	6
2023-08-13T12:00	22610	39	-54.4	-85.2	158	5
2023-08-13T12:00	22635	39	-54.2	-85.1	154	4
2023-08-13T12:00	22663	39	-54.1	-85.0	147	3
2023-08-13T12:00	22686	39	-54.0	-84.9	136	3
2023-08-13T12:00	22708	39	-54.0	-84.9	125	2
2023-08-13T12:00	22737	39	-54.0	-84.9	118	2
2023-08-13T12:00	22759	39	-53.8	-84.8	117	3
2023-08-13T12:00	22782	38	-53.7	-84.7	120	3
2023-08-13T12:00	22804	38	-53.6	-84.6	126	4
2023-08-13T12:00	22831	38	-53.6	-84.6	133	4
2023-08-13T12:00	22856	38	-53.7	-84.7	141	5
2023-08-13T12:00	22885	38	-53.8	-84.8	147	6
2023-08-13T12:00	22907	38	-53.9	-84.9	153	6
2023-08-13T12:00	22930	38	-53.9	-84.9	157	6
2023-08-13T12:00	22959	37	-53.8	-84.8	161	6
2023-08-13T12:00	22983	37	-53.8	-84.8	164	6
2023-08-13T12:00	23003	37	-53.7	-84.7	165	6
2023-08-13T12:00	23028	37	-53.6	-84.6	166	5
2023-08-13T12:00	23053	37	-53.5	-84.6	166	5
2023-08-13T12:00	23075	37	-53.3	-84.4	165	4
2023-08-13T12:00	23096	37	-53.1	-84.9	164	4
2023-08-13T12:00	23118	36	-53.1	-84.9	161	3
2023-08-13T12:00	23149	36	-53.0	-84.8	156	3
2023-08-13T12:00	23167	36	-52.9	-84.7	145	2
2023-08-13T12:00	23191	36	-52.9	-84.1	125	2
2023-08-13T12:00	23222	36	-53.1	-84.3	102	2
2023-08-13T12:00	23241	36	-53.0	-84.2	88	3
2023-08-13T12:00	23265	36	-53.0	-84.8	82	3
2023-08-13T12:00	23293	35	-52.9	-84.7	80	4
2023-08-13T12:00	23313	35	-52.7	-84.6	80	4
2023-08-13T12:00	23338	35	-52.5	-84.4	80	5
2023-08-13T12:00	23364	35	-52.5	-84.4	79	5
2023-08-13T12:00	23383	35	-52.3	-84.3	80	6
2023-08-13T12:00	23414	35	-52.2	-84.2	82	6
2023-08-13T12:00	23434	35	-52.3	-84.3	86	6
2023-08-13T12:00	23458	35	-52.3	-84.3	92	6
2023-08-13T12:00	23481	34	-52.1	-84.2	99	6
2023-08-13T12:00	23512	34	-52.0	-84.1	106	6
2023-08-13T12:00	23532	34	-51.8	-83.9	113	6
2023-08-13T12:00	23559	34	-51.6	-83.8	118	6
2023-08-13T12:00	23580	34	-51.7	-83.9	125	6
2023-08-13T12:00	23605	34	-51.9	-84.0	131	6
2023-08-13T12:00	23630	34	-51.9	-84.0	138	6
2023-08-13T12:00	23654	34	-51.9	-84.0	144	6
2023-08-13T12:00	23677	33	-51.9	-84.0	149	6
2023-08-13T12:00	23704	33	-51.9	-84.0	152	6
2023-08-13T12:00	23732	33	-51.9	-84.0	153	6
2023-08-13T12:00	23754	33	-51.9	-84.0	152	5
2023-08-13T12:00	23778	33	-51.9	-84.0	146	4
2023-08-13T12:00	23809	33	-51.8	-83.9	136	4
2023-08-13T12:00	23831	33	-51.7	-83.9	122	3
2023-08-13T12:00	23860	32	-51.6	-83.8	106	3
2023-08-13T12:00	23882	32	-51.5	-83.7	93	3
2023-08-13T12:00	23908	32	-51.6	-83.8	82	4
2023-08-13T12:00	23934	32	-51.6	-83.8	73	4
2023-08-13T12:00	23959	32	-51.8	-83.9	68	4
2023-08-13T12:00	23988	32	-51.9	-84.0	67	5
2023-08-13T12:00	24011	32	-52.1	-84.2	68	5
2023-08-13T12:00	24040	32	-52.1	-84.2	71	6
2023-08-13T12:00	24063	31	-52.1	-84.2	74	6
2023-08-13T12:00	24094	31	-52.1	-84.2	77	7
2023-08-13T12:00	24123	31	-52.0	-84.1	79	8
2023-08-13T12:00	24152	31	-52.0	-84.1	81	8
2023-08-13T12:00	24177	31	-52.1	-84.2	83	9
2023-08-13T12:00	24202	31	-52.2	-84.2	84	9
2023-08-13T12:00	24225	31	-52.3	-84.3	86	10
2023-08-13T12:00	24256	31	-52.3	-84.3	88	10
2023-08-13T12:00	24285	30	-52.3	-84.3	91	10
2023-08-13T12:00	24309	30	-52.2	-84.2	93	10
2023-08-13T12:00	24343	30	-52.2	-84.2	95	10
2023-08-13T12:00	24362	30	-52.1	-84.2	97	10
2023-08-13T12:00	24392	30	-52.0	-84.1	99	10
2023-08-13T12:00	24413	30	-52.0	-84.1	101	9
2023-08-13T12:00	24442	30	-52.1	-84.2	103	9
2023-08-13T12:00	24467	30	-52.2	-84.2	105	8
2023-08-13T12:00	24498	29	-52.3	-84.3	108	8
2023-08-13T12:00	24527	29	-52.4	-84.4	111	7
2023-08-13T12:00	24553	29	-52.4	-84.4	114	7
2023-08-13T12:00	24578	29	-52.4	-84.4	118	6
2023-08-13T12:00	24602	29	-52.5	-84.4	122	6
2023-08-13T12:00	24631	29	-52.5	-84.4	125	6
2023-08-13T12:00	24655	29	-52.5	-84.4	129	6
2023-08-13T12:00	24685	29	-52.6	-84.5	132	6
2023-08-13T12:00	24711	28	-52.6	-84.5	136	6
2023-08-13T12:00	24734	28	-52.6	-84.5	140	6
2023-08-13T12:00	24763	28	-52.5	-84.4	144	5
2023-08-13T12:00	24789	28	-52.5	-84.4	148	5
2023-08-13T12:00	24815	28	-52.5	-84.4	149	4
2023-08-13T12:00	24840	28	-52.4	-84.4	148	4
2023-08-13T12:00	24869	28	-52.3	-84.3	142	4
2023-08-13T12:00	24895	28	-52.3	-84.3	133	4
2023-08-13T12:00	24923	28	-52.2	-84.2	124	4
2023-08-13T12:00	24947	27	-52.1	-84.2	118	4
2023-08-13T12:00	24968	27	-51.9	-84.0	115	5
2023-08-13T12:00	24989	27	-51.8	-83.9	114	6
2023-08-13T12:00	25016	27	-51.8	-83.9	115	7
2023-08-13T12:00	25042	27	-51.8	-83.9	116	7
2023-08-13T12:00	25077	27	-51.8	-83.9	117	7
2023-08-13T12:00	25099	27	-51.8	-83.9	120	7
2023-08-13T12:00	25123	27	-51.8	-84.6	122	7
2023-08-13T12:00	25154	27	-51.7	-84.5	125	7
2023-08-13T12:00	25174	27	-51.5	-84.4	128	7
2023-08-13T12:00	25209	26	-51.3	-84.3	130	6
2023-08-13T12:00	25226	26	-51.3	-84.3	129	6
2023-08-13T12:00	25264	26	-51.3	-84.3	126	6
2023-08-13T12:00	25274	26	-51.2	-84.2	122	6
2023-08-13T12:00	25312	26	-51.2	-84.2	117	7
2023-08-13T12:00	25335	26	-51.1	-84.1	114	8
2023-08-13T12:00	25361	26	-50.9	-84.0	113	8
2023-08-13T12:00	25390	26	-50.8	-83.9	112	9
2023-08-13T12:00	25416	26	-50.6	-83.7	113	9
2023-08-13T12:00	25439	25	-50.6	-83.7	115	8
2023-08-13T12:00	25468	25	-50.7	-83.8	116	8
2023-08-13T12:00	25487	25	-50.7	-83.8	117	7
2023-08-13T12:00	25518	25	-50.7	-83.8	118	6
2023-08-13T12:00	25539	25	-50.7	-83.8	118	6
2023-08-13T12:00	25578	25	-50.8	-83.9	118	5
2023-08-13T12:00	25600	25	-50.9	-84.0	119	5
2023-08-13T12:00	25637	25	-51.0	-84.0	120	4
2023-08-13T12:00	25661	25	-51.0	-84.0	120	4
2023-08-13T12:00	25688	25	-51.0	-84.0	117	4
2023-08-13T12:00	25716	24	-51.0	-84.0	112	4
2023-08-13T12:00	25741	24	-50.9	-84.0	104	4
2023-08-13T12:00	25772	24	-50.8	-83.9	97	4
2023-08-13T12:00	25797	24	-50.8	-83.9	90	4
2023-08-13T12:00	25831	24	-50.6	-83.7	86	5
2023-08-13T12:00	25855	24	-50.5	-83.7	83	5
2023-08-13T12:00	25891	24	-50.4	-83.6	81	5
2023-08-13T12:00	25925	24	-50.3	-83.5	81	5
2023-08-13T12:00	25950	24	-50.3	-83.5	83	5
2023-08-13T12:00	25978	23	-50.3	-83.5	86	5
2023-08-13T12:00	26005	23	-50.4	-83.6	90	5
2023-08-13T12:00	26036	23	-50.3	-83.5	94	5
2023-08-13T12:00	26072	23	-50.2	-83.5	98	5
2023-08-13T12:00	26090	23	-50.2	-83.5	102	5
2023-08-13T12:00	26124	23	-50.1	-83.4	105	5
2023-08-13T12:00	26142	23	-50.1	-83.4	108	5
2023-08-13T12:00	26179	23	-50.0	-83.3	110	5
2023-08-13T12:00	26206	23	-50.0	-83.3	110	5
2023-08-13T12:00	26234	23	-50.0	-83.3	108	5
2023-08-13T12:00	26264	22	-50.0	-83.3	107	6
2023-08-13T12:00	26287	22	-50.0	-83.3	106	6
2023-08-13T12:00	26320	22	-49.9	-83.2	107	7
2023-08-13T12:00	26346	22	-49.9	-83.2	110	7
2023-08-13T12:00	26370	22	-49.9	-83.2	114	8
2023-08-13T12:00	26402	22	-49.8	-83.2	118	8
2023-08-13T12:00	26421	22	-49.8	-83.2	122	8
2023-08-13T12:00	26457	22	-49.7	-83.1	125	9
2023-08-13T12:00	26487	22	-49.7	-83.1	127	9
2023-08-13T12:00	26517	22	-49.7	-83.1	129	9
2023-08-13T12:00	26538	22	-49.8	-84.0	130	9
2023-08-13T12:00	26562	21	-49.7	-83.9	130	9
2023-08-13T12:00	26594	21	-49.5	-83.7	129	9
2023-08-13T12:00	26626	21	-49.4	-83.7	127	8
2023-08-13T12:00	26652	21	-49.4	-83.7	123	8
2023-08-13T12:00	26679	21	-49.5	-83.7	120	8
2023-08-13T12:00	26701	21	-49.4	-83.7	117	8
2023-08-13T12:00	26731	21	-49.3	-83.6	117	8
2023-08-13T12:00	26764	21	-49.2	-83.5	118	8
2023-08-13T12:00	26785	21	-49.0	-83.4	121	8
2023-08-13T12:00	26810	21	-48.9	-83.3	125	8
2023-08-13T12:00	26841	21	-48.9	-83.3	128	8
2023-08-13T12:00	26870	20	-48.8	-83.2	131	7
2023-08-13T12:00	26901	20	-48.8	-83.2	132	7
2023-08-13T12:00	26929	20	-48.7	-83.2	132	7
2023-08-13T12:00	26955	20	-48.7	-83.2	129	6
2023-08-13T12:00	26984	20	-48.8	-83.2	123	5
2023-08-13T12:00	27009	20	-48.8	-83.2	115	5
2023-08-13T12:00	27045	20	-48.8	-83.2	105	5
2023-08-13T12:00	27077	20	-48.8	-83.2	98	5
2023-08-13T12:00	27102	20	-48.8	-83.2	93	5
2023-08-13T12:00	27118	20	-48.8	-83.2	92	6
2023-08-13T12:00	27149	20	-48.8	-83.2	93	6
2023-08-13T12:00	27163	20	-48.6	-83.1	95	7
2023-08-13T12:00	27209	19	-48.5	-83.0	97	7
2023-08-13T12:00	27230	19	-48.5	-83.0	99	7
2023-08-13T12:00	27257	19	-48.6	-83.1	102	7
2023-08-13T12:00	27299	19	-48.7	-83.2	106	7
2023-08-13T12:00	27323	19	-48.6	-83.1	110	7
2023-08-13T12:00	27348	19	-48.7	-83.2	114	7
2023-08-13T12:00	27378	19	-48.7	-83.2	118	7
2023-08-13T12:00	27399	19	-48.7	-83.2	123	7
2023-08-13T12:00	27438	19	-48.7	-83.2	127	7
2023-08-13T12:00	27465	19	-48.7	-83.2	131	7
2023-08-13T12:00	27481	19	-48.8	-83.2	136	7
2023-08-13T12:00	27523	19	-48.8	-83.2	142	7
2023-08-13T12:00	27553	18	-48.8	-83.2	147	7
2023-08-13T12:00	27580	18	-48.8	-83.2	152	6
2023-08-13T12:00	27607	18	-48.9	-83.3	156	6
2023-08-13T12:00	27634	18	-48.9	-83.3	161	5
2023-08-13T12:00	27658	18	-48.7	-83.2	166	5
2023-08-13T12:00	27682	18	-48.4	-82.9	173	4
2023-08-13T12:00	27708	18	-48.3	-82.9	182	4
2023-08-13T12:00	27749	18	-48.3	-82.9	189	3
2023-08-13T12:00	27765	18	-48.3	-82.9	194	3
2023-08-13T12:00	27800	18	-48.1	-82.7	193	3
2023-08-13T12:00	27813	18	-47.9	-82.6	187	3
2023-08-13T12:00	27851	18	-47.8	-83.4	175	3
2023-08-13T12:00	27887	18	-47.7	-83.4	161	3
2023-08-13T12:00	27910	17	-47.6	-83.3	147	3
2023-08-13T12:00	27939	17	-47.5	-83.2	136	4
2023-08-13T12:00	27959	17	-47.4	-83.1	129	4
2023-08-13T12:00	27980	17	-47.3	-83.1	125	4
2023-08-13T12:00	28016	17	-47.1	-82.9	121	4
2023-08-13T12:00	28046	17	-46.9	-82.8	119	4
2023-08-13T12:00	28065	17	-46.8	-82.7	116	4
2023-08-13T12:00	28093	17	-46.9	-82.8	113	4
2023-08-13T12:00	28123	17	-47.0	-82.9	110	4
2023-08-13T12:00	28137	17	-47.0	-82.9	106	4
2023-08-13T12:00	28167	17	-46.8	-82.7	102	4
2023-08-13T12:00	28200	17	-46.7	-82.6	98	4
2023-08-13T12:00	28223	17	-46.6	-82.6	97	4
2023-08-13T12:00	28257	17	-46.5	-82.5	99	4
2023-08-13T12:00	28274	17	-46.4	-82.4	103	5
2023-08-13T12:00	28310	16	-46.1	-82.2	108	5
2023-08-13T12:00	28335	16	-45.9	-82.1	115	5
2023-08-13T12:00	28357	16	-45.7	-81.9	123	5
2023-08-13T12:00	28389	16	-45.5	-81.8	130	5
2023-08-13T12:00	28418	16	-45.4	-81.7	136	5
2023-08-13T12:00	28447	16	-45.4	-81.7	142	5
2023-08-13T12:00	28472	16	-45.4	-81.7	148	4
2023-08-13T12:00	28503	16	-45.4	-81.7	155	4
2023-08-13T12:00	28521	16	-45.2	-81.6	161	4
2023-08-13T12:00	28555	16	-45.1	-81.5	165	3
2023-08-13T12:00	28587	16	-45.0	-82.5	164	3
2023-08-13T12:00	28604	16	-44.8	-82.4	156	3
2023-08-13T12:00	28636	16	-44.6	-82.2	141	3
2023-08-13T12:00	28667	16	-44.4	-82.1	122	3
2023-08-13T12:00	28680	16	-44.3	-82.0	109	4
2023-08-13T12:00	28721	15	-44.2	-82.0	101	5
2023-08-13T12:00	28745	15	-44.1	-81.9	97	6
2023-08-13T12:00	28783	15	-43.9	-81.8	95	7
2023-08-13T12:00	28804	15	-43.8	-81.7	97	7
2023-08-13T12:00	28835	15	-43.8	-81.7	100	8
2023-08-13T12:00	28869	15	-43.7	-81.6	105	8
2023-08-13T12:00	28888	15	-43.6	-81.5	110	8
2023-08-13T12:00	28930	15	-43.7	-81.6	116	8
2023-08-13T12:00	28941	15	-43.8	-81.7	120	8
2023-08-13T12:00	28973	15	-43.9	-81.8	123	8
2023-08-13T12:00	29016	15	-44.0	-81.8	125	8
2023-08-13T12:00	29034	15	-44.0	-81.8	126	8
2023-08-13T12:00	29069	15	-44.0	-81.8	127	8
2023-08-13T12:00	29078	15	-43.9	-81.8	126	8
2023-08-13T12:00	29120	15	-43.9	-81.8	126	8
2023-08-13T12:00	29153	15	-43.9	-81.8	126	7
2023-08-13T12:00	29170	14	-44.0	-81.8	128	7
2023-08-13T12:00	29205	14	-44.0	-81.8	131	6
2023-08-13T12:00	29229	14	-44.0	-81.8	136	6
2023-08-13T12:00	29248	14	-44.0	-81.8	142	6
2023-08-13T12:00	29281	14	-44.1	-81.9	148	5
2023-08-13T12:00	29312	14	-44.1	-81.9	154	5
2023-08-13T12:00	29338	14	-44.1	-81.9	159	4
2023-08-13T12:00	29367	14	-43.9	-81.8	163	4
2023-08-13T12:00	29391	14	-43.7	-81.6	164	3
2023-08-13T12:00	29413	14	-43.6	-81.5	161	3
2023-08-13T12:00	29454	14	-43.4	-81.4	149	2
2023-08-13T12:00	29477	14	-43.1	-81.2	129	2
2023-08-13T12:00	29500	14	-42.9	-81.1	111	3
2023-08-13T12:00	29534	14	-42.7	-80.9	102	4
2023-08-13T12:00	29545	14	-42.5	-80.8	99	5
2023-08-13T12:00	29567	14	-42.5	-80.8	98	5
2023-08-13T12:00	29612	14	-42.4	-80.7	99	5
2023-08-13T12:00	29637	14	-42.2	-80.6	100	5
2023-08-13T12:00	29653	13	-42.0	-80.4	102	5
2023-08-13T12:00	29676	13	-41.9	-80.4	104	5
2023-08-13T12:00	29702	13	-41.7	-80.2	106	6
2023-08-13T12:00	29723	13	-41.7	-80.2	105	6
2023-08-13T12:00	29759	13	-41.8	-80.3	103	6
2023-08-13T12:00	29772	13	-41.8	-80.3	99	6
2023-08-13T12:00	29815	13	-41.8	-80.3	94	6
2023-08-13T12:00	29836	13	-41.7	-80.2	88	6
2023-08-13T12:00	29869	13	-41.7	-80.2	83	6
2023-08-13T12:00	29883	13	-41.6	-80.1	78	6
2023-08-13T12:00	29926	13	-41.4	-80.0	75	6
2023-08-13T12:00	29949	13	-41.5	-80.1	75	6
2023-08-13T12:00	29980	13	-41.6	-80.1	76	6
2023-08-13T12:00	29986	13	-41.8	-80.3	78	7
2023-08-13T12:00	30014	13	-42.0	-80.4	83	7
2023-08-13T12:00	30056	13	-42.2	-80.6	88	7
2023-08-13T12:00	30079	13	-42.3	-80.6	93	7
2023-08-13T12:00	30109	13	-42.2	-80.6	97	7
2023-08-13T12:00	30127	13	-42.4	-80.7	102	8
2023-08-13T12:00	30162	13	-42.6	-80.8	105	8
2023-08-13T12:00	30181	12	-42.7	-80.9	107	7
2023-08-13T12:00	30219	12	-42.7	-80.9	109	7
2023-08-13T12:00	30251	12	-42.8	-81.0	109	7
2023-08-13T12:00	30272	12	-42.8	-81.0	109	6
2023-08-13T12:00	30294	12	-42.7	-80.9	107	6
2023-08-13T12:00	30328	12	-42.6	-80.8	104	5
2023-08-13T12:00	30372	12	-42.6	-80.8	101	4
2023-08-13T12:00	30396	12	-42.7	-80.9	96	4
2023-08-13T12:00	30424	12	-42.7	-80.9	90	3
2023-08-13T12:00	30436	12	-42.8	-81.0	81	2
2023-08-13T12:00	30483	12	-42.8	-81.0	64	2
2023-08-13T12:00	30517	12	-42.7	-80.9	40	2
2023-08-13T12:00	30546	12	-42.6	-80.8	19	2
2023-08-13T12:00	30575	12	-42.5	-80.8	7	2
2023-08-13T12:00	30610	12	-42.5	-80.8	3	3
2023-08-13T12:00	30636	12	-42.4	-80.7	4	4
2023-08-13T12:00	30662	12	-42.4	-80.7	7	4
2023-08-13T12:00	30695	12	-42.4	-80.7	10	5
2023-08-13T12:00	30715	12	-42.3	-80.6	12	6
2023-08-13T12:00	30751	11	-42.2	-80.6	14	6
2023-08-13T12:00	30776	11	-42.2	-80.6	16	7
2023-08-13T12:00	30815	11	-42.2	-80.6	19	7
2023-08-13T12:00	30829	11	-42.2	-80.6	23	7
2023-08-13T12:00	30867	11	-42.2	-80.6	29	6
2023-08-13T12:00	30893	11	-42.2	-80.6	37	6
2023-08-13T12:00	30920	11	-42.3	-80.6	47	6
2023-08-13T12:00	30955	11	-42.4	-80.7	57	5
2023-08-13T12:00	30983	11	-42.5	-80.8	66	5
2023-08-13T12:00	31005	11	-42.6	-80.8	75	5
2023-08-13T12:00	31016	11	-42.7	-80.9	83	5
2023-08-13T12:00	31056	11	-42.7	-80.9	90	5
2023-08-13T12:00	31095	11	-42.7	-80.9	96	5
2023-08-13T12:00	31124	11	-42.6	-80.8	100	5
2023-08-13T12:00	31157	11	-42.5	-80.8	104	4
2023-08-13T12:00	31182	11	-42.3	-80.6	104	4
2023-08-13T12:00	31200	11	-42.2	-80.6	102	4
2023-08-13T12:00	31231	11	-42.1	-80.5	97	4
2023-08-13T12:00	31271	11	-42.0	-80.4	90	4
2023-08-13T12:00	31294	11	-41.9	-80.4	84	5
2023-08-13T12:00	31317	11	-41.8	-80.3	80	5
2023-08-13T12:00	31339	11	-41.8	-80.3	78	6
2023-08-13T12:00	31383	10	-41.7	-80.2	77	7
2023-08-13T12:00	31400	10	-41.7	-80.2	78	7
2023-08-13T12:00	31428	10	-41.7	-80.2	79	7
2023-08-13T12:00	31464	10	-41.6	-80.1	80	7
2023-08-13T12:00	31496	10	-41.4	-80.0	82	7
2023-08-13T12:00	31520	10	-41.4	-80.0	84	7
2023-08-13T12:00	31548	10	-41.4	-80.0	86	6
2023-08-13T12:00	31569	10	-41.4	-80.0	88	6
2023-08-13T12:00	31583	10	-41.5	-80.1	89	6
2023-08-13T12:00	31632	10	-41.6	-80.1	88	5
2023-08-13T12:00	31678	10	-41.8	-80.3	83	6
2023-08-13T12:00	31704	10	-41.9	-80.4	81	7
2023-08-13T12:00	31714	10	-41.9	-80.4	79	7
2023-08-13T12:00	31747	10	-41.8	-80.3	79	8
2023-08-13T12:00	31798	10	-41.7	-80.2	79	9
2023-08-13T12:00	31805	10	-41.5	-80.1	79	9
2023-08-13T12:00	31849	10	-41.4	-80.0	80	10
2023-08-13T12:00	31861	10	-41.3	-79.9	80	10
2023-08-13T12:00	31886	10	-41.3	-79.9	80	10
2023-08-13T12:00	31933	10	-41.2	-79.9	81	9
2023-08-13T12:00	31957	10	-41.2	-79.9	80	9
2023-08-13T12:00	31981	10	-41.2	-79.9	79	8
2023-08-13T12:00	32020	10	-41.3	-79.9	78	8
2023-08-13T12:00	32046	9	-41.4	-80.0	75	8
2023-08-13T12:00	32090	9	-41.4	-80.0	73	7
2023-08-13T12:00	32102	9	-41.4	-80.0	70	7
2023-08-13T12:00	32133	9	-41.5	-80.1	68	7
2023-08-13T12:00	32174	9	-41.5	-80.1	67	7
2023-08-13T12:00	32209	9	-41.6	-80.1	66	7
2023-08-13T12:00	32233	9	-41.6	-80.1	66	7
2023-08-13T12:00	32252	9	-41.5	-80.1	67	7
2023-08-13T12:00	32292	9	-41.4	-80.0	67	7
2023-08-13T12:00	32316	9	-41.4	-80.0	68	6
2023-08-13T12:00	32359	9	-41.4	-80.0	70	7
2023-08-13T12:00	32379	9	-41.3	-79.9	74	7
2023-08-13T12:00	32407	9	-41.1	-79.8	77	8
2023-08-13T12:00	32422	9	-40.8	-79.6	81	9
2023-08-13T12:00	32469	9	-40.6	-79.5	85	9
2023-08-13T12:00	32505	9	-40.6	-79.5	88	10
2023-08-13T12:00	32520	9	-40.6	-79.5	92	11
2023-08-13T12:00	32541	9	-40.7	-79.5	95	11
2023-08-13T12:00	32577	9	-40.6	-79.5	98	11
2023-08-13T12:00	32604	9	-40.5	-79.4	100	11
2023-08-13T18:00	118	1003	24.6	14.4	69	1
2023-08-13T18:00	148	1000	24.6	13.8	70	1
2023-08-13T18:00	171	997	24.5	13.3	83	2
2023-08-13T18:00	196	994	24.3	13.2	91	2
2023-08-13T18:00	219	992	24.0	13.1	96	2
2023-08-13T18:00	244	989	23.8	13.1	99	2
2023-08-13T18:00	269	986	23.6	13.2	99	2
2023-08-13T18:00	295	983	23.3	13.1	98	2
2023-08-13T18:00	319	980	23.1	13.1	96	3
2023-08-13T18:00	345	978	22.8	13.0	95	3
2023-08-13T18:00	370	975	22.6	13.0	97	3
2023-08-13T18:00	396	972	22.3	12.9	102	3
2023-08-13T18:00	422	969	22.1	12.7	111	3
2023-08-13T18:00	446	966	21.9	12.7	121	3
2023-08-13T18:00	465	964	21.7	12.7	130	3
2023-08-13T18:00	490	961	21.5	12.6	135	3
2023-08-13T18:00	518	958	21.2	12.6	137	2
2023-08-13T18:00	544	955	20.9	12.4	134	2
2023-08-13T18:00	567	953	20.7	12.5	128	2
2023-08-13T18:00	589	950	20.5	12.5	120	2
2023-08-13T18:00	620	947	20.2	12.4	113	2
2023-08-13T18:00	643	945	20.0	12.3	108	2
2023-08-13T18:00	665	942	19.8	12.6	107	2
2023-08-13T18:00	697	939	19.5	12.1	107	2
2023-08-13T18:00	721	936	19.3	12.1	109	2
2023-08-13T18:00	744	934	19.0	12.2	112	2
2023-08-13T18:00	767	931	18.8	12.1	115	2
2023-08-13T18:00	795	928	18.5	12.0	120	2
2023-08-13T18:00	821	925	18.3	12.0	128	2
2023-08-13T18:00	845	923	18.0	12.0	140	2
2023-08-13T18:00	874	920	17.8	12.0	153	2
2023-08-13T18:00	895	917	17.5	11.8	165	2
2023-08-13T18:00	920	914	17.4	11.7	173	1
2023-08-13T18:00	952	911	17.1	11.6	175	1
2023-08-13T18:00	976	908	16.8	11.6	172	1
2023-08-13T18:00	1005	905	16.6	11.4	168	2
2023-08-13T18:00	1034	903	16.3	11.0	167	2
2023-08-13T18:00	1060	900	16.1	10.9	168	2
2023-08-13T18:00	1088	897	15.9	10.7	173	2
2023-08-13T18:00	1110	894	15.7	10.7	180	2
2023-08-13T18:00	1137	891	15.5	10.6	187	3
2023-08-13T18:00	1165	888	15.2	10.5	192	3
2023-08-13T18:00	1195	885	15.0	10.5	195	3
2023-08-13T18:00	1228	882	14.7	10.4	196	3
2023-08-13T18:00	1251	880	14.5	10.5	199	3
2023-08-13T18:00	1279	877	14.2	10.4	204	3
2023-08-13T18:00	1305	874	14.0	10.3	212	3
2023-08-13T18:00	1329	871	13.7	10.3	222	3
2023-08-13T18:00	1359	868	13.4	10.2	230	3
2023-08-13T18:00	1392	865	13.1	10.2	233	3
2023-08-13T18:00	1415	863	12.9	10.1	233	4
2023-08-13T18:00	1443	860	12.7	10.1	232	4
2023-08-13T18:00	1466	857	12.5	9.8	231	5
2023-08-13T18:00	1490	855	12.3	9.9	232	5
2023-08-13T18:00	1514	853	12.0	9.7	233	5
2023-08-13T18:00	1538	850	11.8	9.7	235	5
2023-08-13T18:00	1557	848	11.7	9.6	238	6
2023-08-13T18:00	1590	845	11.4	9.4	240	6
2023-08-13T18:00	1613	843	11.4	8.7	242	6
2023-08-13T18:00	1635	840	11.2	8.7	244	7
2023-08-13T18:00	1664	838	10.8	8.8	245	7
2023-08-13T18:00	1689	835	10.8	8.1	245	8
2023-08-13T18:00	1712	833	10.7	7.9	245	9
2023-08-13T18:00	1741	830	10.5	7.7	245	9
2023-08-13T18:00	1763	828	10.3	7.4	245	10
2023-08-13T18:00	1786	825	10.1	7.4	245	10
2023-08-13T18:00	1806	823	10.0	7.0	245	11
2023-08-13T18:00	1828	821	9.8	6.9	245	11
2023-08-13T18:00	1854	819	9.9	5.3	245	12
2023-08-13T18:00	1879	816	9.8	4.1	245	12
2023-08-13T18:00	1899	814	9.7	4.0	244	13
2023-08-13T18:00	1923	812	9.8	2.3	244	13
2023-08-13T18:00	1944	810	9.6	4.1	243	14
2023-08-13T18:00	1965	808	9.4	4.3	242	15
2023-08-13T18:00	1992	805	9.3	4.1	241	15
2023-08-13T18:00	2014	803	9.1	4.8	240	15
2023-08-13T18:00	2037	801	9.0	5.9	239	15
2023-08-13T18:00	2063	798	8.8	5.7	238	15
2023-08-13T18:00	2087	796	8.6	5.5	237	14
2023-08-13T18:00	2110	794	8.3	5.5	238	14
2023-08-13T18:00	2132	792	8.1	5.7	239	15
2023-08-13T18:00	2152	790	8.0	6.0	240	15
2023-08-13T18:00	2172	788	7.8	5.8	241	15
2023-08-13T18:00	2194	786	7.7	5.4	241	14
2023-08-13T18:00	2211	784	7.6	5.5	241	14
2023-08-13T18:00	2236	782	7.3	5.2	239	14
2023-08-13T18:00	2257	780	7.2	4.6	237	14
2023-08-13T18:00	2282	777	7.0	4.1	236	15
2023-08-13T18:00	2303	775	6.9	4.2	236	15
2023-08-13T18:00	2328	773	6.7	3.7	237	15
2023-08-13T18:00	2354	771	6.5	3.2	238	15
2023-08-13T18:00	2379	768	6.6	3.3	240	16
2023-08-13T18:00	2400	766	6.7	2.3	240	16
2023-08-13T18:00	2420	764	7.4	-2.0	240	16
2023-08-13T18:00	2446	762	8.2	-5.2	239	16
2023-08-13T18:00	2474	759	8.3	-6.1	239	16
2023-08-13T18:00	2501	757	8.2	-7.7	238	16
2023-08-13T18:00	2528	755	8.1	-8.7	238	16
2023-08-13T18:00	2559	752	8.0	-8.7	238	15
2023-08-13T18:00	2583	750	7.9	-9.1	238	15
2023-08-13T18:00	2608	747	7.9	-9.8	238	15
2023-08-13T18:00	2629	745	7.8	-10.5	239	14
2023-08-13T18:00	2653	743	7.7	-11.2	240	14
2023-08-13T18:00	2674	741	7.6	-11.6	241	14
2023-08-13T18:00	2699	739	7.8	-12.2	241	14
2023-08-13T18:00	2722	737	7.8	-12.5	240	14
2023-08-13T18:00	2745	735	7.8	-12.5	239	14
2023-08-13T18:00	2773	732	7.8	-11.5	238	14
2023-08-13T18:00	2802	730	7.6	-10.9	237	14
2023-08-13T18:00	2831	727	7.5	-10.7	236	13
2023-08-13T18:00	2856	725	7.3	-10.5	235	14
2023-08-13T18:00	2880	723	7.2	-11.2	235	14
2023-08-13T18:00	2902	721	7.1	-12.0	236	14
2023-08-13T18:00	2933	718	6.9	-12.5	239	14
2023-08-13T18:00	2955	716	6.8	-12.7	241	14
2023-08-13T18:00	2978	714	6.7	-12.9	244	14
2023-08-13T18:00	3001	712	6.6	-13.1	245	13
2023-08-13T18:00	3027	710	6.6	-13.8	245	13
2023-08-13T18:00	3051	708	6.4	-13.7	244	13
2023-08-13T18:00	3074	706	6.3	-15.0	244	12
2023-08-13T18:00	3098	704	6.1	-15.9	244	12
2023-08-13T18:00	3121	702	5.9	-16.2	244	12
2023-08-13T18:00	3143	700	5.8	-16.4	244	12
2023-08-13T18:00	3169	698	5.5	-16.7	244	12
2023-08-13T18:00	3193	696	5.4	-16.7	244	11
2023-08-13T18:00	3219	694	5.2	-16.7	245	11
2023-08-13T18:00	3246	691	5.1	-17.3	247	11
2023-08-13T18:00	3272	689	5.0	-16.6	250	11
2023-08-13T18:00	3299	687	4.7	-16.5	254	11
2023-08-13T18:00	3322	685	4.6	-16.2	258	11
2023-08-13T18:00	3342	683	4.5	-17.5	262	11
2023-08-13T18:00	3370	681	4.5	-17.5	265	11
2023-08-13T18:00	3395	679	4.5	-18.5	268	11
2023-08-13T18:00	3417	677	4.7	-20.4	270	11
2023-08-13T18:00	3447	675	4.6	-22.5	270	11
2023-08-13T18:00	3472	672	4.8	-27.4	269	11
2023-08-13T18:00	3496	671	4.7	-26.2	266	11
2023-08-13T18:00	3515	669	4.6	-25.5	263	11
2023-08-13T18:00	3545	666	4.4	-24.1	261	11
2023-08-13T18:00	3574	664	4.2	-23.7	259	11
2023-08-13T18:00	3592	662	4.1	-23.6	259	12
2023-08-13T18:00	3618	661	4.2	-25.4	259	12
2023-08-13T18:00	3640	659	4.1	-26.9	259	12
2023-08-13T18:00	3664	657	3.9	-28.1	259	12
2023-08-13T18:00	3692	654	3.8	-28.9	257	13
2023-08-13T18:00	3718	652	3.7	-29.4	256	13
2023-08-13T18:00	3739	651	3.5	-29.1	255	13
2023-08-13T18:00	3765	649	3.3	-29.1	254	14
2023-08-13T18:00	3789	647	3.1	-29.2	254	13
2023-08-13T18:00	3817	644	2.9	-29.9	254	13
2023-08-13T18:00	3843	642	2.7	-30.4	252	13
2023-08-13T18:00	3871	640	2.5	-33.2	250	13
2023-08-13T18:00	3898	638	2.4	-35.2	249	14
2023-08-13T18:00	3918	636	2.4	-36.2	247	14
2023-08-13T18:00	3945	634	2.2		247	14
2023-08-13T18:00	3971	632	2.0	-35.5	247	14
2023-08-13T18:00	3992	630	1.8	-31.9	247	14
2023-08-13T18:00	4018	629	1.6	-28.0	247	14
2023-08-13T18:00	4042	627	1.4	-24.3	247	13
2023-08-13T18:00	4067	625	1.1	-21.3	246	13
2023-08-13T18:00	4088	623	0.9	-18.3	245	13
2023-08-13T18:00	4130	620	0.7	-19.3	245	13
2023-08-13T18:00	4162	617	0.5	-16.8	244	12
2023-08-13T18:00	4188	615	0.5	-17.2	243	12
2023-08-13T18:00	4216	613	0.4	-17.1	243	13
2023-08-13T18:00	4242	611	0.2	-17.7	243	13
2023-08-13T18:00	4269	609	0.1	-18.1	244	14
2023-08-13T18:00	4301	607	0.0	-21.9	244	14
2023-08-13T18:00	4330	605	-0.2	-23.2	245	14
2023-08-13T18:00	4357	603	-0.4	-23.2	244	14
2023-08-13T18:00	4384	600	-0.6	-24.0	243	14
2023-08-13T18:00	4413	598	-0.8	-23.5	241	13
2023-08-13T18:00	4435	597	-1.0	-23.9	240	13
2023-08-13T18:00	4463	595	-1.1	-21.2	239	12
2023-08-13T18:00	4487	593	-1.3	-21.4	239	12
2023-08-13T18:00	4519	590	-1.5	-19.9	240	12
2023-08-13T18:00	4552	588	-1.8	-18.4	241	12
2023-08-13T18:00	4577	586	-2.0	-15.9	243	12
2023-08-13T18:00	4602	584	-2.3	-15.3	244	12
2023-08-13T18:00	4640	582	-2.7	-13.7	246	11
2023-08-13T18:00	4671	579	-2.9	-13.7	246	11
2023-08-13T18:00	4704	577	-3.3	-13.8	246	11
2023-08-13T18:00	4739	574	-3.6	-14.0	245	10
2023-08-13T18:00	4758	573	-3.8	-14.1	243	10
2023-08-13T18:00	4782	571	-4.0	-14.0	241	10
2023-08-13T18:00	4805	569	-4.2	-13.9	239	10
2023-08-13T18:00	4831	568	-4.4	-14.0	237	10
2023-08-13T18:00	4860	566	-4.6	-13.9	236	11
2023-08-13T18:00	4887	563	-4.9	-14.0	234	11
2023-08-13T18:00	4929	561	-5.2	-14.0	233	11
2023-08-13T18:00	4954	559	-5.4	-14.3	233	11
2023-08-13T18:00	4975	557	-5.7	-14.4	234	11
2023-08-13T18:00	5011	555	-6.0	-14.5	236	11
2023-08-13T18:00	5034	553	-6.2	-14.8	238	11
2023-08-13T18:00	5056	552	-6.4	-14.9	240	11
2023-08-13T18:00	5074	550	-6.6	-15.1	242	11
2023-08-13T18:00	5095	549	-6.8	-15.2	243	11
2023-08-13T18:00	5118	547	-7.0	-15.3	245	11
2023-08-13T18:00	5143	545	-7.2	-15.3	246	11
2023-08-13T18:00	5173	543	-7.5	-15.5	247	11
2023-08-13T18:00	5202	541	-7.7	-15.6	247	11
2023-08-13T18:00	5220	540	-7.9	-15.5	245	11
2023-08-13T18:00	5247	538	-8.1	-15.5	243	11
2023-08-13T18:00	5271	537	-8.4	-15.7	240	11
2023-08-13T18:00	5291	535	-8.5	-16.2	237	11
2023-08-13T18:00	5318	533	-8.8	-16.6	235	12
2023-08-13T18:00	5347	531	-9.0	-17.0	234	12
2023-08-13T18:00	5370	530	-9.1	-17.2	234	13
2023-08-13T18:00	5393	528	-9.1	-18.2	235	13
2023-08-13T18:00	5420	526	-9.3	-18.7	237	14
2023-08-13T18:00	5443	525	-9.5	-19.1	239	15
2023-08-13T18:00	5468	523	-9.7	-19.4	241	15
2023-08-13T18:00	5497	521	-9.9	-20.1	242	16
2023-08-13T18:00	5521	519	-10.1	-20.2	243	16
2023-08-13T18:00	5547	518	-10.3	-20.3	244	16
2023-08-13T18:00	5578	516	-10.6	-20.6	243	16
2023-08-13T18:00	5599	514	-10.8	-20.8	242	15
2023-08-13T18:00	5624	513	-11.0	-20.9	240	15
2023-08-13T18:00	5639	511	-11.2	-21.0	237	15
2023-08-13T18:00	5661	510	-11.3	-21.5	234	15
2023-08-13T18:00	5685	509	-11.6	-21.4	233	15
2023-08-13T18:00	5705	507	-11.8	-21.7	232	15
2023-08-13T18:00	5728	506	-12.0	-21.2	232	15
2023-08-13T18:00	5752	504	-12.2	-22.2	233	15
2023-08-13T18:00	5778	502	-12.4	-22.0	234	15
2023-08-13T18:00	5796	501	-12.6	-21.9	236	15
2023-08-13T18:00	5817	500	-12.8	-21.9	237	15
2023-08-13T18:00	5841	498	-13.1	-22.2	238	15
2023-08-13T18:00	5867	497	-13.4	-22.3	238	16
2023-08-13T18:00	5885	495	-13.5	-22.1	238	17
2023-08-13T18:00	5909	494	-13.7	-22.5	237	17
2023-08-13T18:00	5931	492	-13.9	-23.1	237	17
2023-08-13T18:00	5952	491	-14.1	-23.0	236	16
2023-08-13T18:00	5971	490	-14.3	-23.3	236	16
2023-08-13T18:00	6000	488	-14.6	-23.4	236	15
2023-08-13T18:00	6018	487	-14.8	-23.1	236	14
2023-08-13T18:00	6043	485	-15.0	-23.2	235	14
2023-08-13T18:00	6068	483	-15.2	-23.5	235	15
2023-08-13T18:00	6093	482	-15.5	-23.1	236	15
2023-08-13T18:00	6124	480	-15.8	-23.8	238	16
2023-08-13T18:00	6153	478	-16.1	-23.5	241	16
2023-08-13T18:00	6182	476	-16.3	-23.1	245	16
2023-08-13T18:00	6207	475	-16.5	-21.6	249	16
2023-08-13T18:00	6234	473	-15.4	-17.3	253	16
2023-08-13T18:00	6261	471	-14.9	-16.8	256	15
2023-08-13T18:00	6283	470	-14.5	-16.4	258	15
2023-08-13T18:00	6307	468	-14.4	-16.4	259	14
2023-08-13T18:00	6331	467	-14.5	-16.5	259	13
2023-08-13T18:00	6354	466	-14.7	-16.6	257	12
2023-08-13T18:00	6381	464	-14.7	-16.6	254	11
2023-08-13T18:00	6400	463	-14.8	-16.7	250	10
2023-08-13T18:00	6420	462	-14.9	-16.8	246	10
2023-08-13T18:00	6439	460	-14.9	-16.9	242	10
2023-08-13T18:00	6461	459	-14.9	-17.0	239	10
2023-08-13T18:00	6485	458	-15.0	-17.1	237	10
2023-08-13T18:00	6509	456	-15.2	-17.2	235	10
2023-08-13T18:00	6539	454	-15.2	-17.3	234	10
2023-08-13T18:00	6560	453	-15.3	-17.3	234	10
2023-08-13T18:00	6594	451	-15.5	-17.5	235	10
2023-08-13T18:00	6613	450	-15.6	-17.6	236	11
2023-08-13T18:00	6643	448	-15.7	-17.7	237	12
2023-08-13T18:00	6663	447	-15.8	-18.0	237	12
2023-08-13T18:00	6686	446	-15.9	-18.2	237	13
2023-08-13T18:00	6709	444	-16.0	-18.1	235	13
2023-08-13T18:00	6735	443	-16.1	-18.1	234	13
2023-08-13T18:00	6764	441	-16.2	-18.4	234	13
2023-08-13T18:00	6791	439	-16.3	-18.6	235	13
2023-08-13T18:00	6814	438	-16.5	-18.7	236	13
2023-08-13T18:00	6840	436	-16.7	-18.8	238	14
2023-08-13T18:00	6874	435	-17.0	-19.1	240	14
2023-08-13T18:00	6895	433	-17.1	-19.2	241	15
2023-08-13T18:00	6919	432	-17.2	-19.3	240	16
2023-08-13T18:00	6945	430	-17.3	-19.5	239	16
2023-08-13T18:00	6971	429	-17.5	-19.9	239	17
2023-08-13T18:00	7002	427	-17.8	-20.0	238	17
2023-08-13T18:00	7031	426	-18.0	-20.1	239	17
2023-08-13T18:00	7060	424	-18.2	-20.6	241	17
2023-08-13T18:00	7080	423	-18.3	-20.7	242	17
2023-08-13T18:00	7109	421	-18.6	-20.9	243	18
2023-08-13T18:00	7140	419	-18.7	-21.1	243	18
2023-08-13T18:00	7165	418	-18.8	-21.2	243	18
2023-08-13T18:00	7189	417	-19.0	-21.5	243	19
2023-08-13T18:00	7220	415	-19.2	-21.6	243	19
2023-08-13T18:00	7248	413	-19.4	-21.8	242	19
2023-08-13T18:00	7279	412	-19.6	-22.0	242	19
2023-08-13T18:00	7310	410	-19.8	-22.1	242	19
2023-08-13T18:00	7340	408	-20.1	-22.4	242	19
2023-08-13T18:00	7366	407	-20.3	-22.5	241	18
2023-08-13T18:00	7392	405	-20.5	-22.6	241	18
2023-08-13T18:00	7420	404	-20.7	-22.8	241	18
2023-08-13T18:00	7448	402	-21.0	-23.0	241	18
2023-08-13T18:00	7479	401	-21.2	-23.2	241	19
2023-08-13T18:00	7506	399	-21.4	-23.3	242	19
2023-08-13T18:00	7541	397	-21.6	-23.5	243	19
2023-08-13T18:00	7566	396	-21.9	-23.7	244	20
2023-08-13T18:00	7591	395	-22.1	-23.9	244	20
2023-08-13T18:00	7623	393	-22.3	-24.1	245	20
2023-08-13T18:00	7655	391	-22.5	-24.2	245	20
2023-08-13T18:00	7686	390	-22.8	-24.7	246	20
2023-08-13T18:00	7716	388	-23.0	-24.9	247	20
2023-08-13T18:00	7745	386	-23.2	-25.1	247	20
2023-08-13T18:00	7775	385	-23.5	-25.4	248	20
2023-08-13T18:00	7808	383	-23.7	-25.7	247	20
2023-08-13T18:00	7838	382	-24.0	-26.0	246	20
2023-08-13T18:00	7863	380	-24.1	-26.1	246	20
2023-08-13T18:00	7887	379	-24.3	-26.4	246	20
2023-08-13T18:00	7911	378	-24.5	-26.5	246	21
2023-08-13T18:00	7941	376	-24.7	-26.7	246	21
2023-08-13T18:00	7968	375	-24.9	-27.0	246	21
2023-08-13T18:00	7994	374	-25.1	-27.0	245	21
2023-08-13T18:00	8021	372	-25.3	-27.3	245	21
2023-08-13T18:00	8053	370	-25.6	-27.6	244	21
2023-08-13T18:00	8079	369	-25.8	-27.9	244	21
2023-08-13T18:00	8103	368	-25.9	-28.1	245	21
2023-08-13T18:00	8126	367	-26.1	-28.2	246	21
2023-08-13T18:00	8151	365	-26.3	-28.4	246	21
2023-08-13T18:00	8179	364	-26.5	-28.6	247	21
2023-08-13T18:00	8210	363	-26.8	-29.0	246	21
2023-08-13T18:00	8239	361	-26.9	-29.3	246	21
2023-08-13T18:00	8260	360	-27.1	-29.4	246	21
2023-08-13T18:00	8284	359	-27.2	-29.5	246	21
2023-08-13T18:00	8307	358	-27.4	-29.7	246	21
2023-08-13T18:00	8332	356	-27.6	-29.9	246	21
2023-08-13T18:00	8357	355	-27.8	-30.0	246	21
2023-08-13T18:00	8383	354	-28.0	-30.1	246	21
2023-08-13T18:00	8412	352	-28.3	-30.4	246	21
2023-08-13T18:00	8439	351	-28.5	-30.8	245	21
2023-08-13T18:00	8467	350	-28.7	-31.0	245	21
2023-08-13T18:00	8492	348	-28.9	-31.0	245	21
2023-08-13T18:00	8523	347	-29.2	-31.1	245	21
2023-08-13T18:00	8552	346	-29.4	-31.6	246	21
2023-08-13T18:00	8581	344	-29.7	-31.8	246	21
2023-08-13T18:00	8610	343	-29.9	-32.3	246	22
2023-08-13T18:00	8635	342	-30.1	-32.4	245	22
2023-08-13T18:00	8666	340	-30.3	-32.5	245	22
2023-08-13T18:00	8694	339	-30.5	-32.7	244	21
2023-08-13T18:00	8721	338	-30.7	-32.9	244	21
2023-08-13T18:00	8747	336	-31.0	-33.2	244	21
2023-08-13T18:00	8782	335	-31.3	-33.4	244	21
2023-08-13T18:00	8806	333	-31.5	-33.6	244	21
2023-08-13T18:00	8836	332	-31.8	-33.7	245	22
2023-08-13T18:00	8866	331	-32.0	-33.9	245	22
2023-08-13T18:00	8895	329	-32.3		245	22
2023-08-13T18:00	8919	328	-32.5	-34.3	245	22
2023-08-13T18:00	8947	327	-32.7		245	22
2023-08-13T18:00	8978	326	-33.0	-34.9	245	22
2023-08-13T18:00	8999	324	-33.2	-35.2	245	22
2023-08-13T18:00	9022	323	-33.4	-35.3	245	22
2023-08-13T18:00	9044	322	-33.5	-35.5	244	22
2023-08-13T18:00	9067	321	-33.7	-35.8	244	22
2023-08-13T18:00	9087	320	-33.9	-36.0	244	22
2023-08-13T18:00	9111	319	-34.2	-36.5	244	22
2023-08-13T18:00	9132	318	-34.3	-36.6	244	22
2023-08-13T18:00	9158	317	-34.6	-36.8	244	22
2023-08-13T18:00	9186	316	-34.8	-36.8	243	22
2023-08-13T18:00	9217	315	-35.0	-36.9	243	23
2023-08-13T18:00	9250	313	-35.3	-37.1	243	23
2023-08-13T18:00	9280	312	-35.5	-37.4	243	23
2023-08-13T18:00	9306	311	-35.8	-37.6	243	23
2023-08-13T18:00	9331	309	-36.0	-37.7	243	23
2023-08-13T18:00	9365	308	-36.3	-38.2	243	23
2023-08-13T18:00	9394	307	-36.5	-38.6	243	23
2023-08-13T18:00	9420	306	-36.8	-39.1	242	23
2023-08-13T18:00	9442	305	-37.0	-39.2	242	23
2023-08-13T18:00	9465	303	-37.2	-39.5	242	24
2023-08-13T18:00	9489	302	-37.3	-39.6	242	24
2023-08-13T18:00	9512	301	-37.5	-39.8	241	24
2023-08-13T18:00	9534	300	-37.7	-40.1	241	24
2023-08-13T18:00	9555	300	-37.9	-40.0	241	24
2023-08-13T18:00	9576	299	-38.1	-40.1	241	24
2023-08-13T18:00	9601	298	-38.3	-40.6	241	25
2023-08-13T18:00	9628	296	-38.5	-40.8	241	25
2023-08-13T18:00	9655	295	-38.7	-40.9	241	25
2023-08-13T18:00	9682	294	-38.9	-41.0	241	25
2023-08-13T18:00	9710	293	-39.2	-41.4	241	25
2023-08-13T18:00	9735	292	-39.4	-41.6	241	25
2023-08-13T18:00	9762	291	-39.6	-42.0	241	25
2023-08-13T18:00	9792	289	-39.9	-42.4	242	25
2023-08-13T18:00	9819	288	-40.1	-42.7	242	25
2023-08-13T18:00	9845	287	-40.4	-42.9	242	25
2023-08-13T18:00	9869	286	-40.6	-42.9	242	25
2023-08-13T18:00	9898	285	-40.9	-43.3	242	25
2023-08-13T18:00	9922	284	-41.1	-43.7	242	25
2023-08-13T18:00	9949	283	-41.3	-44.0	242	24
2023-08-13T18:00	9973	282	-41.5	-44.2	241	24
2023-08-13T18:00	10000	281	-41.7	-44.3	241	24
2023-08-13T18:00	10028	280	-41.9	-44.6	240	24
2023-08-13T18:00	10054	278	-42.1	-45.0	240	24
2023-08-13T18:00	10080	277	-42.3	-45.1	241	24
2023-08-13T18:00	10105	276	-42.4	-45.1	241	24
2023-08-13T18:00	10129	275	-42.7	-45.4	242	24
2023-08-13T18:00	10151	275	-42.8	-45.5	242	24
2023-08-13T18:00	10172	274	-43.0	-45.7	243	24
2023-08-13T18:00	10194	273	-43.1	-45.8	243	25
2023-08-13T18:00	10217	272	-43.3	-46.1	244	25
2023-08-13T18:00	10239	271	-43.4	-46.3	244	25
2023-08-13T18:00	10258	270	-43.6	-46.5	244	25
2023-08-13T18:00	10281	269	-43.7	-46.6	244	25
2023-08-13T18:00	10302	268	-43.9	-47.0	244	25
2023-08-13T18:00	10323	268	-44.1	-47.2	245	25
2023-08-13T18:00	10342	267	-44.2	-47.4	245	24
2023-08-13T18:00	10368	266	-44.4	-47.7	246	24
2023-08-13T18:00	10390	265	-44.6	-48.0	247	24
2023-08-13T18:00	10411	264	-44.7	-48.0	248	24
2023-08-13T18:00	10433	263	-44.9	-48.2	248	25
2023-08-13T18:00	10455	262	-45.1	-48.5	248	25
2023-08-13T18:00	10479	261	-45.3	-48.7	248	25
2023-08-13T18:00	10499	261	-45.4	-48.9	248	25
2023-08-13T18:00	10520	260	-45.7	-49.1	248	25
2023-08-13T18:00	10543	259	-45.9	-49.2	248	25
2023-08-13T18:00	10565	258	-46.0	-49.3	248	25
2023-08-13T18:00	10586	257	-46.2	-49.5	247	25
2023-08-13T18:00	10609	256	-46.4	-49.8	247	25
2023-08-13T18:00	10632	255	-46.6	-50.0	247	25
2023-08-13T18:00	10652	255	-46.8	-50.3	247	25
2023-08-13T18:00	10673	254	-47.0	-50.6	247	25
2023-08-13T18:00	10693	253	-47.1	-50.7	248	25
2023-08-13T18:00	10717	252	-47.3	-50.8	249	25
2023-08-13T18:00	10743	251	-47.5	-51.0	249	25
2023-08-13T18:00	10766	250	-47.6	-51.2	250	25
2023-08-13T18:00	10792	249	-47.8	-51.4	251	26
2023-08-13T18:00	10812	249	-48.0	-51.7	251	26
2023-08-13T18:00	10834	248	-48.2	-51.8	252	26
2023-08-13T18:00	10855	247	-48.3	-51.9	252	27
2023-08-13T18:00	10879	246	-48.5	-52.2	253	27
2023-08-13T18:00	10902	245	-48.7	-52.3	253	27
2023-08-13T18:00	10923	244	-48.8	-52.3	253	28
2023-08-13T18:00	10944	244	-49.0	-52.5	253	28
2023-08-13T18:00	10964	243	-49.1	-52.6	252	28
2023-08-13T18:00	10986	242	-49.3	-52.9	252	28
2023-08-13T18:00	11007	241	-49.4	-53.0	252	28
2023-08-13T18:00	11029	241	-49.6	-53.1	252	28
2023-08-13T18:00	11049	240	-49.7	-53.1	252	29
2023-08-13T18:00	11069	239	-49.9	-53.3	252	29
2023-08-13T18:00	11092	238	-50.1	-53.5	252	29
2023-08-13T18:00	11112	237	-50.3	-53.7	251	29
2023-08-13T18:00	11132	237	-50.4	-53.8	251	29
2023-08-13T18:00	11151	236	-50.5	-53.8	251	29
2023-08-13T18:00	11174	235	-50.7	-54.1	251	30
2023-08-13T18:00	11195	234	-50.9	-54.6	251	30
2023-08-13T18:00	11215	234	-51.1	-55.4	251	30
2023-08-13T18:00	11239	233	-51.3	-56.3	251	30
2023-08-13T18:00	11261	232	-51.5	-56.8	251	30
2023-08-13T18:00	11281	231	-51.6	-57.0	251	30
2023-08-13T18:00	11303	231	-51.8	-57.1	251	30
2023-08-13T18:00	11323	230	-52.0	-57.1	250	30
2023-08-13T18:00	11345	229	-52.2	-57.0	250	30
2023-08-13T18:00	11367	228	-52.4	-57.2	250	30
2023-08-13T18:00	11388	228	-52.6	-57.4	250	30
2023-08-13T18:00	11410	227	-52.7	-57.3	250	30
2023-08-13T18:00	11430	226	-52.9	-57.1	250	31
2023-08-13T18:00	11453	225	-53.1	-56.9	250	31
2023-08-13T18:00	11475	225	-53.3	-57.0	250	31
2023-08-13T18:00	11496	224	-53.5	-57.4	250	31
2023-08-13T18:00	11518	223	-53.7	-57.7	250	31
2023-08-13T18:00	11542	222	-53.9	-58.0	250	32
2023-08-13T18:00	11564	221	-54.1	-58.3	250	32
2023-08-13T18:00	11586	221	-54.3	-58.4	250	32
2023-08-13T18:00	11607	220	-54.5	-58.4	250	32
2023-08-13T18:00	11630	219	-54.7	-58.5	250	32
2023-08-13T18:00	11651	218	-54.9	-58.6	250	32
2023-08-13T18:00	11675	218	-55.1	-58.7	251	32
2023-08-13T18:00	11696	217	-55.3	-58.9	251	31
2023-08-13T18:00	11716	216	-55.5	-59.0	251	31
2023-08-13T18:00	11741	215	-55.7	-59.0	251	31
2023-08-13T18:00	11762	215	-55.9	-59.1	252	31
2023-08-13T18:00	11787	214	-56.1	-59.2	252	31
2023-08-13T18:00	11811	213	-56.4	-59.5	252	31
2023-08-13T18:00	11831	212	-56.5	-60.1	253	30
2023-08-13T18:00	11852	212	-56.6	-61.3	253	30
2023-08-13T18:00	11873	211	-56.4	-62.9	253	30
2023-08-13T18:00	11895	210	-56.3	-64.7	254	29
2023-08-13T18:00	11918	210	-56.4	-66.0	255	30
2023-08-13T18:00	11938	209	-56.3	-66.3	255	30
2023-08-13T18:00	11956	208	-56.4	-66.6	256	30
2023-08-13T18:00	11979	207	-56.4	-66.6	256	30
2023-08-13T18:00	12000	207	-56.3	-66.5	257	30
2023-08-13T18:00	12021	206	-56.4	-66.5	257	30
2023-08-13T18:00	12043	205	-56.5	-66.4	257	30
2023-08-13T18:00	12064	205	-56.5	-66.3	257	29
2023-08-13T18:00	12084	204	-56.6	-66.3	258	29
2023-08-13T18:00	12106	203	-56.8	-66.4	258	28
2023-08-13T18:00	12127	203	-56.9	-66.6	257	28
2023-08-13T18:00	12148	202	-56.9	-66.7	257	28
2023-08-13T18:00	12169	201	-56.7	-66.7	256	28
2023-08-13T18:00	12189	201	-56.8	-67.0	256	28
2023-08-13T18:00	12207	200	-56.8	-67.3	255	28
2023-08-13T18:00	12233	199	-56.7	-67.5	254	27
2023-08-13T18:00	12251	199	-56.5	-67.8	253	27
2023-08-13T18:00	12272	198	-56.3	-68.0	253	26
2023-08-13T18:00	12294	197	-56.2	-68.3	252	25
2023-08-13T18:00	12317	197	-56.1	-68.5	252	25
2023-08-13T18:00	12336	196	-56.1	-68.8	252	24
2023-08-13T18:00	12357	195	-56.2	-69.0	252	24
2023-08-13T18:00	12378	195	-56.2	-69.2	251	24
2023-08-13T18:00	12401	194	-56.2	-69.5	251	23
2023-08-13T18:00	12420	194	-56.0	-70.0	251	23
2023-08-13T18:00	12443	193	-55.6	-70.5	251	23
2023-08-13T18:00	12464	192	-55.2	-70.9	251	23
2023-08-13T18:00	12485	192	-55.2	-71.3	251	23
2023-08-13T18:00	12504	191	-55.2	-71.5	251	23
2023-08-13T18:00	12524	190	-55.2	-71.6	250	23
2023-08-13T18:00	12547	190	-55.2	-71.9	250	23
2023-08-13T18:00	12570	189	-54.9	-72.0	249	23
2023-08-13T18:00	12590	188	-54.8	-72.5	249	23
2023-08-13T18:00	12611	188	-54.6	-73.0	248	23
2023-08-13T18:00	12633	187	-54.3	-73.6	248	22
2023-08-13T18:00	12655	187	-54.0	-74.1	247	22
2023-08-13T18:00	12673	186	-53.9	-74.4	247	22
2023-08-13T18:00	12697	185	-53.9	-74.6	247	22
2023-08-13T18:00	12720	185	-53.9	-74.8	246	23
2023-08-13T18:00	12741	184	-53.8	-75.1	246	23
2023-08-13T18:00	12762	183	-53.6	-75.5	245	23
2023-08-13T18:00	12782	183	-53.6	-75.9	244	23
2023-08-13T18:00	12804	182	-53.5	-76.0	244	24
2023-08-13T18:00	12824	182	-53.4	-76.1	244	24
2023-08-13T18:00	12845	181	-53.4	-76.3	244	24
2023-08-13T18:00	12866	181	-53.4	-76.3	245	24
2023-08-13T18:00	12888	180	-53.3	-76.2	246	24
2023-08-13T18:00	12907	179	-53.1	-76.2	248	24
2023-08-13T18:00	12929	179	-53.1	-76.5	249	24
2023-08-13T18:00	12951	178	-53.0	-76.6	251	24
2023-08-13T18:00	12971	178	-52.8	-76.6	252	25
2023-08-13T18:00	12991	177	-52.8	-76.6	253	25
2023-08-13T18:00	13013	176	-52.6	-76.5	254	25
2023-08-13T18:00	13032	176	-52.6	-76.5	254	24
2023-08-13T18:00	13054	175	-52.7	-76.6	254	24
2023-08-13T18:00	13074	175	-52.6	-76.7	254	23
2023-08-13T18:00	13096	174	-52.3	-76.8	254	22
2023-08-13T18:00	13121	174	-52.3	-77.0	253	21
2023-08-13T18:00	13144	173	-52.4	-77.3	253	20
2023-08-13T18:00	13166	172	-52.4	-77.3	252	20
2023-08-13T18:00	13186	172	-52.4	-77.5	252	19
2023-08-13T18:00	13206	171	-52.6	-77.7	252	19
2023-08-13T18:00	13229	171	-52.7	-77.8	251	19
2023-08-13T18:00	13250	170	-52.8	-78.1	251	19
2023-08-13T18:00	13271	170	-52.6	-78.2	250	18
2023-08-13T18:00	13291	169	-52.3	-78.4	250	18
2023-08-13T18:00	13313	168	-52.3	-78.4	248	18
2023-08-13T18:00	13335	168	-52.3	-78.7	247	18
2023-08-13T18:00	13357	167	-52.3	-78.7	246	18
2023-08-13T18:00	13378	167	-52.3	-78.7	244	18
2023-08-13T18:00	13400	166	-52.4	-79.0	243	18
2023-08-13T18:00	13420	166	-52.5	-79.1	243	18
2023-08-13T18:00	13439	165	-52.3	-79.2	242	18
2023-08-13T18:00	13461	165	-52.3	-79.2	242	18
2023-08-13T18:00	13482	164	-52.4	-79.6	243	18
2023-08-13T18:00	13503	164	-52.4	-79.6	243	18
2023-08-13T18:00	13525	163	-52.4	-79.6	243	18
2023-08-13T18:00	13545	162	-52.3	-79.5	242	18
2023-08-13T18:00	13567	162	-52.3	-79.5	242	18
2023-08-13T18:00	13589	161	-52.2	-79.5	242	19
2023-08-13T18:00	13609	161	-52.2	-79.5	242	19
2023-08-13T18:00	13628	160	-52.3	-79.5	243	19
2023-08-13T18:00	13652	160	-52.4	-79.6	243	20
2023-08-13T18:00	13671	159	-52.5	-79.7	243	20
2023-08-13T18:00	13695	159	-52.5	-80.0	243	20
2023-08-13T18:00	13715	158	-52.4	-79.9	243	20
2023-08-13T18:00	13739	158	-52.4	-79.9	244	20
2023-08-13T18:00	13759	157	-52.2	-79.8	245	20
2023-08-13T18:00	13782	157	-52.1	-79.7	246	20
2023-08-13T18:00	13804	156	-52.1	-79.7	246	20
2023-08-13T18:00	13825	156	-52.2	-79.8	247	20
2023-08-13T18:00	13848	155	-52.3	-79.9	248	20
2023-08-13T18:00	13870	155	-52.4	-79.9	249	20
2023-08-13T18:00	13892	154	-52.5	-80.0	251	20
2023-08-13T18:00	13913	154	-52.4	-79.9	252	19
2023-08-13T18:00	13933	153	-52.4	-80.3	253	19
2023-08-13T18:00	13958	152	-52.4	-80.3	253	18
2023-08-13T18:00	13981	152	-52.4	-80.3	253	18
2023-08-13T18:00	14004	151	-52.3	-80.2	253	17
2023-08-13T18:00	14024	151	-52.4	-80.3	253	17
2023-08-13T18:00	14046	150	-52.6	-80.4	253	17
2023-08-13T18:00	14071	150	-52.4	-80.3	253	17
2023-08-13T18:00	14090	149	-52.6	-80.1	252	17
2023-08-13T18:00	14111	149	-52.8	-80.2	252	17
2023-08-13T18:00	14136	148	-53.0	-80.4	252	17
2023-08-13T18:00	14158	148	-53.1	-80.5	253	17
2023-08-13T18:00	14180	147	-53.2	-80.2	253	17
2023-08-13T18:00	14202	147	-53.3	-80.3	254	17
2023-08-13T18:00	14223	146	-53.3	-80.3	255	17
2023-08-13T18:00	14244	146	-53.2	-80.2	255	17
2023-08-13T18:00	14266	145	-53.1	-79.9	254	17
2023-08-13T18:00	14287	145	-53.1	-79.9	253	17
2023-08-13T18:00	14309	144	-53.3	-79.7	252	17
2023-08-13T18:00	14331	144	-53.4	-79.8	251	17
2023-08-13T18:00	14351	143	-53.5	-79.6	250	17
2023-08-13T18:00	14374	143	-53.6	-79.7	249	18
2023-08-13T18:00	14395	142	-53.7	-79.8	248	18
2023-08-13T18:00	14418	142	-53.8	-79.8	247	18
2023-08-13T18:00	14440	141	-53.9	-79.9	246	17
2023-08-13T18:00	14461	141	-53.8	-79.8	245	17
2023-08-13T18:00	14481	141	-53.8	-79.8	245	17
2023-08-13T18:00	14501	140	-53.7	-80.0	246	17
2023-08-13T18:00	14523	140	-53.7	-80.0	247	16
2023-08-13T18:00	14545	139	-53.6	-80.0	248	16
2023-08-13T18:00	14567	139	-53.6	-80.2	249	16
2023-08-13T18:00	14588	138	-53.6	-80.2	250	15
2023-08-13T18:00	14611	138	-53.7	-80.3	251	15
2023-08-13T18:00	14631	137	-53.8	-80.4	250	15
2023-08-13T18:00	14655	137	-53.9	-80.5	249	15
2023-08-13T18:00	14676	136	-53.8	-80.4	248	14
2023-08-13T18:00	14698	136	-53.6	-80.5	246	14
2023-08-13T18:00	14721	135	-53.4	-80.4	244	15
2023-08-13T18:00	14741	135	-53.3	-80.3	242	15
2023-08-13T18:00	14766	134	-53.5	-80.5	240	15
2023-08-13T18:00	14788	134	-53.7	-80.6	239	16
2023-08-13T18:00	14810	134	-53.9	-80.8	239	16
2023-08-13T18:00	14833	133	-53.9	-80.8	239	16
2023-08-13T18:00	14853	133	-54.0	-80.9	240	16
2023-08-13T18:00	14875	132	-54.0	-80.9	242	16
2023-08-13T18:00	14897	132	-53.7	-80.6	244	15
2023-08-13T18:00	14919	131	-53.5	-80.8	246	15
2023-08-13T18:00	14942	131	-53.4	-80.7	248	15
2023-08-13T18:00	14966	130	-53.4	-80.7	251	14
2023-08-13T18:00	14986	130	-53.5	-80.8	252	13
2023-08-13T18:00	15010	129	-53.4	-80.7	253	13
2023-08-13T18:00	15036	129	-53.5	-80.8	254	12
2023-08-13T18:00	15060	128	-53.4	-80.7	254	12
2023-08-13T18:00	15082	128	-53.1	-80.5	253	11
2023-08-13T18:00	15104	128	-53.2	-80.5	252	11
2023-08-13T18:00	15128	127	-53.3	-80.6	251	11
2023-08-13T18:00	15153	127	-53.5	-80.8	250	11
2023-08-13T18:00	15178	126	-53.7	-80.6	248	11
2023-08-13T18:00	15200	126	-53.9	-80.8	246	11
2023-08-13T18:00	15224	125	-54.1	-80.6	244	11
2023-08-13T18:00	15248	125	-54.3	-80.8	242	12
2023-08-13T18:00	15271	124	-54.4	-80.9	240	12
2023-08-13T18:00	15295	124	-54.6	-81.0	238	12
2023-08-13T18:00	15319	123	-54.7	-81.1	236	13
2023-08-13T18:00	15342	123	-54.9	-81.3	235	13
2023-08-13T18:00	15369	122	-55.0	-81.3	234	14
2023-08-13T18:00	15392	122	-55.0	-81.3	233	14
2023-08-13T18:00	15420	121	-55.0	-81.6	233	14
2023-08-13T18:00	15443	121	-55.1	-81.7	233	15
2023-08-13T18:00	15469	121	-55.1	-81.7	233	15
2023-08-13T18:00	15491	120	-55.2	-81.8	232	16
2023-08-13T18:00	15515	120	-55.3	-81.9	232	17
2023-08-13T18:00	15537	119	-55.5	-82.0	232	17
2023-08-13T18:00	15562	119	-55.6	-82.1	232	18
2023-08-13T18:00	15584	118	-55.7	-82.2	232	18
2023-08-13T18:00	15607	118	-55.8	-82.2	233	18
2023-08-13T18:00	15629	118	-55.9	-82.3	234	18
2023-08-13T18:00	15654	117	-56.0	-82.4	235	18
2023-08-13T18:00	15676	117	-56.1	-82.8	236	18
2023-08-13T18:00	15697	116	-56.2	-82.9	237	17
2023-08-13T18:00	15722	116	-56.1	-83.1	238	17
2023-08-13T18:00	15745	115	-55.6	-82.7	240	17
2023-08-13T18:00	15768	115	-55.5	-83.0	242	16
2023-08-13T18:00	15790	115	-55.6	-83.1	244	16
2023-08-13T18:00	15811	114	-55.7	-83.1	246	16
2023-08-13T18:00	15836	114	-55.8	-83.2	248	16
2023-08-13T18:00	15857	113	-55.7	-83.1	250	16
2023-08-13T18:00	15883	113	-55.7	-83.1	251	15
2023-08-13T18:00	15902	113	-55.6	-83.4	252	15
2023-08-13T18:00	15927	112	-55.5		252	14
2023-08-13T18:00	15950	112	-55.5		251	13
2023-08-13T18:00	15970	111	-55.5		250	13
2023-08-13T18:00	15994	111	-55.3	-83.6	248	12
2023-08-13T18:00	16014	111	-54.9	-83.3	245	12
2023-08-13T18:00	16038	110	-54.8	-83.2	242	12
2023-08-13T18:00	16063	110	-54.8	-83.2	238	11
2023-08-13T18:00	16086	109	-54.9	-83.3	235	11
2023-08-13T18:00	16107	109	-55.0		231	11
2023-08-13T18:00	16130	109	-55.0		229	11
2023-08-13T18:00	16152	108	-55.1	-83.4	226	11
2023-08-13T18:00	16176	108	-55.2	-83.5	224	12
2023-08-13T18:00	16196	108	-55.1	-83.4	222	12
2023-08-13T18:00	16218	107	-54.9	-83.3	221	12
2023-08-13T18:00	16240	107	-55.0		220	12
2023-08-13T18:00	16260	106	-55.1	-83.4	220	12
2023-08-13T18:00	16285	106	-55.2	-83.1	220	12
2023-08-13T18:00	16308	106	-55.2	-83.5	220	12
2023-08-13T18:00	16330	105	-54.9	-83.3	221	12
2023-08-13T18:00	16352	105	-54.6	-83.0	223	12
2023-08-13T18:00	16374	105	-54.7	-83.1	225	13
2023-08-13T18:00	16396	104	-54.9	-82.9	227	13
2023-08-13T18:00	16419	104	-55.0	-82.9	230	14
2023-08-13T18:00	16441	103	-54.9	-82.9	232	14
2023-08-13T18:00	16461	103	-54.9	-82.9	234	14
2023-08-13T18:00	16485	103	-54.9	-82.9	236	15
2023-08-13T18:00	16507	102	-54.9	-82.9	238	15
2023-08-13T18:00	16530	102	-54.9	-82.9	240	15
2023-08-13T18:00	16550	102	-54.9	-82.9	242	16
2023-08-13T18:00	16570	101	-55.0	-82.9	243	16
2023-08-13T18:00	16591	101	-55.1	-83.0	245	16
2023-08-13T18:00	16613	101	-55.1	-83.0	246	16
2023-08-13T18:00	16635	100	-55.1	-83.0	247	16
2023-08-13T18:00	16656	100	-55.0	-82.9	247	15
2023-08-13T18:00	16676	100	-55.1	-83.0	247	14
2023-08-13T18:00	16697	99	-55.0		245	13
2023-08-13T18:00	16718	99	-54.6	-83.0	243	12
2023-08-13T18:00	16743	99	-54.5	-83.4	239	11
2023-08-13T18:00	16765	98	-54.4	-83.3	235	10
2023-08-13T18:00	16790	98	-54.3	-83.2	231	9
2023-08-13T18:00	16813	98	-54.2	-83.1	227	9
2023-08-13T18:00	16834	97	-54.2	-83.1	223	9
2023-08-13T18:00	16855	97	-54.2	-82.7	221	9
2023-08-13T18:00	16881	97	-54.4	-82.9	219	9
2023-08-13T18:00	16903	96	-54.6	-83.0	218	9
2023-08-13T18:00	16928	96	-54.8	-83.2	218	10
2023-08-13T18:00	16949	96	-54.9	-83.3	217	10
2023-08-13T18:00	16973	95	-55.0		217	11
2023-08-13T18:00	16995	95	-55.1	-83.4	218	11
2023-08-13T18:00	17018	95	-55.2	-83.5	218	11
2023-08-13T18:00	17040	94	-55.3	-83.6	220	11
2023-08-13T18:00	17063	94	-55.4	-83.6	221	11
2023-08-13T18:00	17085	94	-55.4	-83.6	222	11
2023-08-13T18:00	17109	93	-55.1	-83.4	224	11
2023-08-13T18:00	17133	93	-55.1	-83.4	225	11
2023-08-13T18:00	17158	93	-55.3	-83.6	225	10
2023-08-13T18:00	17182	92	-55.4	-83.6	226	10
2023-08-13T18:00	17203	92	-55.6	-83.8	226	10
2023-08-13T18:00	17227	92	-55.6	-83.8	225	9
2023-08-13T18:00	17247	91	-55.5	-83.7	223	9
2023-08-13T18:00	17271	91	-55.3	-83.6	221	9
2023-08-13T18:00	17297	91	-55.3	-83.6	218	9
2023-08-13T18:00	17319	90	-55.2	-83.5	216	9
2023-08-13T18:00	17343	90	-55.3	-83.6	214	9
2023-08-13T18:00	17365	90	-55.5	-83.7	214	9
2023-08-13T18:00	17390	89	-55.7	-83.9	213	9
2023-08-13T18:00	17413	89	-55.7	-83.9	213	10
2023-08-13T18:00	17436	89	-55.7	-83.9	212	10
2023-08-13T18:00	17460	88	-55.7	-84.3	210	10
2023-08-13T18:00	17482	88	-55.6	-84.2	209	10
2023-08-13T18:00	17508	88	-55.2	-83.9	208	10
2023-08-13T18:00	17532	87	-55.0	-83.7	209	10
2023-08-13T18:00	17554	87	-55.1	-83.8	211	10
2023-08-13T18:00	17579	87	-55.2	-84.3	213	10
2023-08-13T18:00	17599	86	-55.2	-84.3	216	10
2023-08-13T18:00	17622	86	-54.9	-84.1	219	10
2023-08-13T18:00	17645	86	-54.5	-83.8	222	10
2023-08-13T18:00	17666	85	-54.5	-83.8	224	10
2023-08-13T18:00	17688	85	-54.4	-83.7	227	9
2023-08-13T18:00	17711	85	-54.3	-84.1	229	9
2023-08-13T18:00	17733	85	-54.2	-84.0	230	9
2023-08-13T18:00	17756	84	-54.1	-84.0	230	9
2023-08-13T18:00	17776	84	-54.0	-83.9	229	8
2023-08-13T18:00	17804	84	-53.9	-83.3	226	8
2023-08-13T18:00	17824	83	-54.0	-83.4	223	8
2023-08-13T18:00	17850	83	-54.1	-83.5	219	8
2023-08-13T18:00	17871	83	-54.2	-83.6	216	7
2023-08-13T18:00	17895	82	-54.1	-83.5	214	7
2023-08-13T18:00	17918	82	-54.1	-83.5	212	7
2023-08-13T18:00	17940	82	-54.2	-83.6	210	7
2023-08-13T18:00	17964	82	-54.3	-83.6	206	7
2023-08-13T18:00	17989	81	-54.4	-83.7	202	6
2023-08-13T18:00	18011	81	-54.5	-83.8	198	6
2023-08-13T18:00	18035	81	-54.5	-83.8	194	7
2023-08-13T18:00	18059	80	-54.6	-83.9	192	7
2023-08-13T18:00	18083	80	-54.8	-83.6	192	6
2023-08-13T18:00	18105	80	-55.0	-83.7	193	6
2023-08-13T18:00	18128	79	-55.1	-83.8	194	6
2023-08-13T18:00	18154	79	-55.3	-84.0	195	6
2023-08-13T18:00	18178	79	-55.4	-84.0	195	6
2023-08-13T18:00	18201	79	-55.5	-84.1	194	6
2023-08-13T18:00	18224	78	-55.7	-84.3	192	7
2023-08-13T18:00	18249	78	-55.8	-84.3	190	7
2023-08-13T18:00	18273	78	-55.9	-84.4	189	8
2023-08-13T18:00	18302	77	-55.9	-84.4	189	8
2023-08-13T18:00	18323	77	-55.9	-84.0	189	9
2023-08-13T18:00	18349	77	-56.1	-84.2	191	9
2023-08-13T18:00	18372	77	-56.2	-84.2	193	9
2023-08-13T18:00	18396	76	-56.3	-84.3	196	10
2023-08-13T18:00	18421	76	-56.4	-84.8	199	10
2023-08-13T18:00	18446	76	-56.5	-84.9	203	10
2023-08-13T18:00	18473	75	-56.5	-84.5	206	11
2023-08-13T18:00	18495	75	-56.4	-84.4	209	11
2023-08-13T18:00	18519	75	-56.5	-84.9	213	11
2023-08-13T18:00	18542	74	-56.6	-84.9	216	11
2023-08-13T18:00	18565	74	-56.5	-84.9	218	11
2023-08-13T18:00	18591	74	-56.5	-84.9	221	11
2023-08-13T18:00	18614	74	-56.5	-84.9	223	11
2023-08-13T18:00	18639	73	-56.5	-84.9	224	10
2023-08-13T18:00	18664	73	-56.6	-84.9	225	10
2023-08-13T18:00	18689	73	-56.2	-85.1	226	9
2023-08-13T18:00	18712	72	-56.0	-84.9	227	8
2023-08-13T18:00	18738	72	-55.7	-84.7	227	7
2023-08-13T18:00	18762	72	-55.5	-84.5	226	7
2023-08-13T18:00	18786	72	-55.4	-84.5	225	7
2023-08-13T18:00	18811	71	-55.4	-84.9	224	6
2023-08-13T18:00	18832	71	-55.2	-84.8	221	6
2023-08-13T18:00	18862	71	-55.1	-84.7	217	6
2023-08-13T18:00	18884	71	-55.0	-84.6	212	5
2023-08-13T18:00	18910	70	-54.9	-84.6	206	5
2023-08-13T18:00	18936	70	-54.9	-84.6	200	5
2023-08-13T18:00	18959	70	-54.9	-84.6	196	5
2023-08-13T18:00	18984	70	-54.9	-84.6	194	5
2023-08-13T18:00	19005	69	-54.9	-84.6	195	5
2023-08-13T18:00	19030	69	-54.9	-84.6	197	6
2023-08-13T18:00	19053	69	-54.8	-84.5	201	6
2023-08-13T18:00	19076	69	-54.8	-84.5	205	6
2023-08-13T18:00	19099	68	-54.6	-84.3	208	6
2023-08-13T18:00	19119	68	-54.3	-84.6	210	6
2023-08-13T18:00	19146	68	-54.2	-84.5	211	6
2023-08-13T18:00	19170	68	-54.2	-84.5	211	6
2023-08-13T18:00	19191	67	-54.1	-84.5	211	6
2023-08-13T18:00	19218	67	-54.1	-84.5	211	6
2023-08-13T18:00	19241	67	-54.1	-84.0	211	6
2023-08-13T18:00	19265	67	-54.2	-84.0	212	6
2023-08-13T18:00	19290	66	-54.3	-84.1	215	6
2023-08-13T18:00	19313	66	-54.5	-84.3	218	6
2023-08-13T18:00	19338	66	-54.6	-84.3	221	6
2023-08-13T18:00	19364	65	-54.6	-84.3	223	6
2023-08-13T18:00	19387	65	-54.7	-84.4	223	5
2023-08-13T18:00	19413	65	-54.6	-84.3	220	5
2023-08-13T18:00	19434	65	-54.6	-84.3	214	5
2023-08-13T18:00	19458	65	-54.7	-84.4	209	5
2023-08-13T18:00	19481	64	-54.9	-84.6	206	5
2023-08-13T18:00	19509	64	-55.0	-84.2	205	5
2023-08-13T18:00	19532	64	-55.2	-84.8	207	5
2023-08-13T18:00	19555	64	-55.1	-84.7	210	6
2023-08-13T18:00	19579	63	-55.0	-84.6	213	6
2023-08-13T18:00	19605	63	-54.9	-84.6	216	6
2023-08-13T18:00	19628	63	-55.0	-84.6	218	7
2023-08-13T18:00	19656	63	-55.0	-84.6	219	7
2023-08-13T18:00	19675	62	-54.8	-84.5	221	7
2023-08-13T18:00	19699	62	-54.8	-84.5	223	7
2023-08-13T18:00	19724	62	-54.9	-84.6	226	7
2023-08-13T18:00	19749	62	-55.0	-84.6	231	6
2023-08-13T18:00	19775	61	-55.0	-84.6	236	6
2023-08-13T18:00	19798	61	-55.0	-84.6	241	5
2023-08-13T18:00	19825	61	-54.8	-84.5	246	5
2023-08-13T18:00	19849	61	-54.7	-84.4	248	5
2023-08-13T18:00	19876	60	-54.8	-84.5	245	4
2023-08-13T18:00	19900	60	-54.8	-84.5	237	4
2023-08-13T18:00	19924	60	-54.7	-84.9	225	4
2023-08-13T18:00	19952	60	-54.5	-84.8	212	4
2023-08-13T18:00	19974	60	-54.5	-84.8	202	5
2023-08-13T18:00	20000	59	-54.6	-84.8	197	5
2023-08-13T18:00	20025	59	-54.6	-84.8	195	6
2023-08-13T18:00	20046	59	-54.6	-84.8	196	5
2023-08-13T18:00	20075	59	-54.5	-84.8	198	5
2023-08-13T18:00	20095	58	-54.4	-84.7	204	5
2023-08-13T18:00	20122	58	-54.1	-84.5	213	4
2023-08-13T18:00	20151	58	-53.8	-84.2	229	4
2023-08-13T18:00	20176	58	-53.8	-84.8	246	3
2023-08-13T18:00	20203	57	-53.9	-84.9	260	3
2023-08-13T18:00	20225	57	-53.9	-84.9	269	4
2023-08-13T18:00	20253	57	-53.7	-84.7	274	3
2023-08-13T18:00	20280	57	-53.4	-84.5	274	3
2023-08-13T18:00	20308	57	-53.3	-84.4	268	3
2023-08-13T18:00	20328	56	-53.4	-84.5	256	3
2023-08-13T18:00	20357	56	-53.6	-84.1	241	3
2023-08-13T18:00	20379	56	-53.7	-84.2	229	3
2023-08-13T18:00	20407	56	-53.7	-84.2	221	3
2023-08-13T18:00	20433	55	-53.9	-84.3	215	4
2023-08-13T18:00	20459	55	-53.9	-84.3	209	4
2023-08-13T18:00	20485	55	-54.1	-84.5	203	3
2023-08-13T18:00	20511	55	-54.1	-84.5	195	3
2023-08-13T18:00	20536	55	-54.0	-84.4	184	3
2023-08-13T18:00	20561	54	-54.0	-84.4	174	3
2023-08-13T18:00	20584	54	-54.0	-84.4	164	3
2023-08-13T18:00	20611	54	-53.9	-84.3	157	3
2023-08-13T18:00	20636	54	-54.0	-84.4	151	4
2023-08-13T18:00	20660	53	-54.0	-84.4	148	4
2023-08-13T18:00	20686	53	-53.9	-84.3	147	4
2023-08-13T18:00	20710	53	-53.9	-84.3	149	4
2023-08-13T18:00	20737	53	-53.8	-84.2	152	4
2023-08-13T18:00	20762	53	-53.7	-84.2	157	4
2023-08-13T18:00	20785	52	-53.6	-84.6	161	4
2023-08-13T18:00	20809	52	-53.5	-84.6	162	4
2023-08-13T18:00	20836	52	-53.5	-84.6	161	4
2023-08-13T18:00	20859	52	-53.4	-84.5	158	5
2023-08-13T18:00	20884	52	-53.3	-83.9	157	6
2023-08-13T18:00	20912	51	-53.4	-83.9	156	6
2023-08-13T18:00	20938	51	-53.6	-84.1	156	7
2023-08-13T18:00	20963	51	-53.8	-84.2	158	7
2023-08-13T18:00	20984	51	-53.9	-84.3	160	7
2023-08-13T18:00	21009	51	-53.8	-84.2	163	7
2023-08-13T18:00	21031	50	-53.8	-84.2	167	7
2023-08-13T18:00	21053	50	-53.7	-84.7	171	7
2023-08-13T18:00	21076	50	-53.6	-84.6	174	7
2023-08-13T18:00	21104	50	-53.5	-84.6	177	7
2023-08-13T18:00	21126	50	-53.5	-84.6	180	7
2023-08-13T18:00	21151	50	-53.5	-84.6	183	7
2023-08-13T18:00	21176	49	-53.6	-84.1	188	7
2023-08-13T18:00	21203	49	-53.7	-84.2	193	7
2023-08-13T18:00	21230	49	-53.7	-84.2	199	6
2023-08-13T18:00	21248	49	-53.8	-84.2	204	5
2023-08-13T18:00	21271	49	-53.9	-84.3	207	5
2023-08-13T18:00	21300	48	-53.9	-84.3	208	4
2023-08-13T18:00	21320	48	-53.9	-84.3	204	3
2023-08-13T18:00	21352	48	-53.8	-84.8	195	3
2023-08-13T18:00	21375	48	-53.8	-84.8	179	2
2023-08-13T18:00	21408	48	-53.6	-84.6	164	2
2023-08-13T18:00	21428	47	-53.6	-84.6	156	3
2023-08-13T18:00	21454	47	-53.6	-84.1	154	3
2023-08-13T18:00	21481	47	-53.6	-84.1	158	3
2023-08-13T18:00	21502	47	-53.6	-84.1	165	3
2023-08-13T18:00	21533	47	-53.6	-84.1	172	4
2023-08-13T18:00	21558	47	-53.8	-84.2	180	4
2023-08-13T18:00	21586	46	-54.0	-84.4	187	4
2023-08-13T18:00	21609	46	-54.2	-84.5	194	4
2023-08-13T18:00	21640	46	-54.3	-84.6	202	4
2023-08-13T18:00	21664	46	-54.3	-84.6	208	4
2023-08-13T18:00	21688	46	-54.3	-84.6	215	4
2023-08-13T18:00	21715	45	-54.3	-84.6	222	3
2023-08-13T18:00	21738	45	-54.2	-84.5	231	2
2023-08-13T18:00	21767	45	-53.9	-84.3	253	1
2023-08-13T18:00	21796	45	-53.7	-84.2	333	1
2023-08-13T18:00	21822	45	-53.7	-84.2	21	1
2023-08-13T18:00	21844	44	-53.8	-84.2	37	2
2023-08-13T18:00	21872	44	-53.9	-84.3	51	2
2023-08-13T18:00	21895	44	-53.9	-84.3	65	2
2023-08-13T18:00	21925	44	-53.9	-84.3	78	3
2023-08-13T18:00	21949	44	-53.9	-84.3	89	3
2023-08-13T18:00	21977	44	-54.0	-84.4	97	4
2023-08-13T18:00	22009	43	-54.2	-84.5	102	4
2023-08-13T18:00	22031	43	-54.4	-84.7	106	5
2023-08-13T18:00	22057	43	-54.5	-84.8	109	6
2023-08-13T18:00	22079	43	-54.4	-84.7	113	6
2023-08-13T18:00	22111	43	-54.4	-84.7	118	6
2023-08-13T18:00	22137	43	-54.5	-84.8	123	7
2023-08-13T18:00	22163	42	-54.5	-84.8	127	7
2023-08-13T18:00	22186	42	-54.4	-84.7	130	6
2023-08-13T18:00	22215	42	-54.2	-84.5	133	6
2023-08-13T18:00	22243	42	-54.2	-84.5	134	5
2023-08-13T18:00	22269	42	-54.4	-84.7	134	5
2023-08-13T18:00	22291	41	-54.4	-84.7	132	4
2023-08-13T18:00	22320	41	-54.1	-84.5	127	3
2023-08-13T18:00	22345	41	-54.0	-84.4	120	3
2023-08-13T18:00	22370	41	-54.0	-84.4	110	3
2023-08-13T18:00	22403	41	-54.0	-84.4	102	2
2023-08-13T18:00	22425	41	-54.0	-84.4	98	2
2023-08-13T18:00	22449	40	-54.0	-84.4	100	3
2023-08-13T18:00	22473	40	-53.8	-84.2	104	3
2023-08-13T18:00	22501	40	-53.7	-84.2	107	4
2023-08-13T18:00	22531	40	-53.8	-84.2	108	4
2023-08-13T18:00	22558	40	-53.9	-84.3	107	5
2023-08-13T18:00	22581	40	-54.0	-84.4	106	6
2023-08-13T18:00	22611	39	-54.2	-84.5	105	7
2023-08-13T18:00	22637	39	-54.2	-84.5	104	7
2023-08-13T18:00	22664	39	-54.3	-84.6	105	8
2023-08-13T18:00	22689	39	-54.4	-84.7	106	9
2023-08-13T18:00	22716	39	-54.5	-84.8	107	9
2023-08-13T18:00	22747	39	-54.6	-84.8	108	9
2023-08-13T18:00	22771	39	-54.6	-84.8	110	9
2023-08-13T18:00	22796	38	-54.6	-84.8	113	9
2023-08-13T18:00	22823	38	-54.5	-84.8	115	8
2023-08-13T18:00	22852	38	-54.4	-84.7	118	8
2023-08-13T18:00	22875	38	-54.4	-84.7	120	7
2023-08-13T18:00	22901	38	-54.5	-84.8	121	7
2023-08-13T18:00	22926	38	-54.5	-84.8	122	6
2023-08-13T18:00	22953	37	-54.7	-84.9	122	5
2023-08-13T18:00	22983	37	-54.7	-84.9	122	5
2023-08-13T18:00	23007	37	-54.6	-84.8	121	4
2023-08-13T18:00	23036	37	-54.6	-84.8	120	4
2023-08-13T18:00	23064	37	-54.7	-84.9	120	4
2023-08-13T18:00	23088	37	-54.6	-84.8	120	4
2023-08-13T18:00	23113	37	-54.7	-84.9	120	4
2023-08-13T18:00	23138	36	-54.7	-84.9	120	4
2023-08-13T18:00	23166	36	-54.7	-84.4	119	5
2023-08-13T18:00	23196	36	-54.9	-84.6	118	5
2023-08-13T18:00	23218	36	-55.0	-84.6	117	5
2023-08-13T18:00	23241	36	-55.1	-84.7	116	5
2023-08-13T18:00	23272	36	-55.4	-84.9	117	5
2023-08-13T18:00	23298	35	-55.5	-85.0	119	5
2023-08-13T18:00	23325	35	-55.6	-85.1	122	5
2023-08-13T18:00	23350	35	-55.6	-85.1	126	6
2023-08-13T18:00	23383	35	-55.6	-85.1	128	6
2023-08-13T18:00	23405	35	-55.4	-85.4	128	6
2023-08-13T18:00	23430	35	-55.1	-85.2	127	7
2023-08-13T18:00	23457	35	-54.9	-85.1	125	8
2023-08-13T18:00	23485	34	-54.6	-84.8	124	8
2023-08-13T18:00	23510	34	-54.6	-85.4	125	9
2023-08-13T18:00	23535	34	-54.6	-85.4	126	10
2023-08-13T18:00	23566	34	-54.6	-85.4	129	10
2023-08-13T18:00	23589	34	-54.4	-85.2	130	10
2023-08-13T18:00	23618	34	-54.2	-85.1	131	9
2023-08-13T18:00	23646	34	-54.0	-84.9	131	8
2023-08-13T18:00	23668	33	-53.9	-84.9	131	8
2023-08-13T18:00	23697	33	-53.8	-84.8	129	7
2023-08-13T18:00	23726	33	-53.8	-84.8	128	6
2023-08-13T18:00	23750	33	-54.0	-84.4	128	5
2023-08-13T18:00	23778	33	-54.1	-84.5	127	4
2023-08-13T18:00	23803	33	-54.1	-84.5	124	4
2023-08-13T18:00	23835	33	-54.1	-84.5	117	3
2023-08-13T18:00	23862	32	-54.1	-84.5	107	3
2023-08-13T18:00	23890	32	-54.1	-84.5	93	2
2023-08-13T18:00	23916	32	-54.1	-84.5	79	2
2023-08-13T18:00	23945	32	-54.2	-84.5	69	3
2023-08-13T18:00	23968	32	-54.3	-84.6	64	3
2023-08-13T18:00	24004	32	-54.4	-84.7	63	3
2023-08-13T18:00	24031	32	-54.5	-84.8	66	4
2023-08-13T18:00	24057	32	-54.2	-84.5	73	4
2023-08-13T18:00	24083	31	-54.3	-84.6	82	4
2023-08-13T18:00	24108	31	-54.4	-84.7	93	5
2023-08-13T18:00	24136	31	-54.5	-84.8	104	5
2023-08-13T18:00	24163	31	-54.6	-84.8	115	5
2023-08-13T18:00	24190	31	-54.5	-84.8	123	6
2023-08-13T18:00	24217	31	-54.4	-84.7	130	6
2023-08-13T18:00	24237	31	-54.4	-84.7	134	7
2023-08-13T18:00	24266	30	-54.5	-84.8	137	7
2023-08-13T18:00	24298	30	-54.4	-84.7	140	7
2023-08-13T18:00	24320	30	-54.5	-84.8	141	7
2023-08-13T18:00	24352	30	-54.4	-85.2	143	7
2023-08-13T18:00	24377	30	-54.2	-85.1	145	6
2023-08-13T18:00	24405	30	-54.0	-84.9	146	6
2023-08-13T18:00	24428	30	-53.8	-84.8	146	5
2023-08-13T18:00	24459	30	-53.5	-85.2	143	5
2023-08-13T18:00	24483	29	-53.3	-85.0	137	4
2023-08-13T18:00	24506	29	-53.1	-84.9	127	4
2023-08-13T18:00	24536	29	-52.8	-84.7	114	4
2023-08-13T18:00	24562	29	-52.7	-84.6	100	4
2023-08-13T18:00	24585	29	-52.6	-84.5	89	5
2023-08-13T18:00	24611	29	-52.3	-84.3	82	5
2023-08-13T18:00	24642	29	-52.0	-84.1	78	6
2023-08-13T18:00	24671	29	-51.9	-84.0	76	7
2023-08-13T18:00	24698	29	-51.6	-83.8	76	7
2023-08-13T18:00	24717	28	-51.5	-83.7	78	7
2023-08-13T18:00	24747	28	-51.6	-83.8	81	7
2023-08-13T18:00	24778	28	-51.5	-83.7	86	7
2023-08-13T18:00	24804	28	-51.4	-83.6	90	7
2023-08-13T18:00	24832	28	-51.4	-83.6	94	7
2023-08-13T18:00	24863	28	-51.5	-83.7	96	7
2023-08-13T18:00	24891	28	-51.4	-83.6	96	6
2023-08-13T18:00	24923	28	-51.1	-83.4	95	6
2023-08-13T18:00	24949	27	-51.0	-83.3	94	6
2023-08-13T18:00	24978	27	-51.0	-83.3	94	6
2023-08-13T18:00	25004	27	-51.0	-83.3	93	6
2023-08-13T18:00	25037	27	-50.9	-83.3	93	6
2023-08-13T18:00	25066	27	-50.7	-83.1	92	6
2023-08-13T18:00	25101	27	-50.6	-83.1	92	6
2023-08-13T18:00	25130	27	-50.5	-83.0	93	6
2023-08-13T18:00	25155	27	-50.5	-83.0	93	6
2023-08-13T18:00	25181	26	-50.5	-83.0	94	6
2023-08-13T18:00	25210	26	-50.4	-82.9	95	6
2023-08-13T18:00	25239	26	-50.5	-83.0	95	6
2023-08-13T18:00	25275	26	-50.5	-83.0	96	5
2023-08-13T18:00	25299	26	-50.6	-83.1	97	5
2023-08-13T18:00	25328	26	-50.7	-83.1	97	5
2023-08-13T18:00	25361	26	-50.6	-83.1	96	5
2023-08-13T18:00	25384	26	-50.4	-82.9	96	6
2023-08-13T18:00	25415	26	-50.2	-82.8	95	6
2023-08-13T18:00	25449	25	-50.2	-82.8	93	7
2023-08-13T18:00	25480	25	-50.4	-82.9	91	7
2023-08-13T18:00	25510	25	-50.6	-83.1	89	7
2023-08-13T18:00	25534	25	-50.7	-83.1	86	7
2023-08-13T18:00	25561	25	-50.7	-83.1	84	7
2023-08-13T18:00	25590	25	-50.5	-83.0	83	7
2023-08-13T18:00	25624	25	-50.2	-82.8	84	7
2023-08-13T18:00	25646	25	-50.1	-83.4	86	7
2023-08-13T18:00	25674	25	-50.1	-83.4	89	7
2023-08-13T18:00	25709	24	-50.0	-83.3	94	6
2023-08-13T18:00	25732	24	-49.8	-83.2	99	6
2023-08-13T18:00	25773	24	-49.7	-83.1	104	6
2023-08-13T18:00	25795	24	-49.7	-83.1	108	7
2023-08-13T18:00	25822	24	-49.7	-83.1	110	7
2023-08-13T18:00	25843	24	-49.6	-83.0	110	7
2023-08-13T18:00	25877	24	-49.7	-83.1	109	7
2023-08-13T18:00	25908	24	-49.7	-83.1	107	7
2023-08-13T18:00	25930	24	-49.4	-82.9	106	6
2023-08-13T18:00	25954	24	-49.4	-82.9	105	6
2023-08-13T18:00	25992	23	-49.5	-82.9	105	6
2023-08-13T18:00	26019	23	-49.5	-82.9	105	5
2023-08-13T18:00	26042	23	-49.5	-82.9	106	5
2023-08-13T18:00	26077	23	-49.7	-83.1	107	5
2023-08-13T18:00	26099	23	-49.8	-82.5	108	4
2023-08-13T18:00	26125	23	-49.8	-82.5	107	4
2023-08-13T18:00	26152	23	-49.8	-82.5	105	4
2023-08-13T18:00	26184	23	-49.8	-83.2	102	4
2023-08-13T18:00	26212	23	-49.9	-83.2	96	3
2023-08-13T18:00	26242	23	-49.8	-83.2	87	3
2023-08-13T18:00	26276	22	-49.7	-83.1	74	3
2023-08-13T18:00	26290	22	-49.6	-83.0	56	3
2023-08-13T18:00	26324	22	-49.4	-82.9	37	3
2023-08-13T18:00	26349	22	-49.3	-82.8	21	3
2023-08-13T18:00	26388	22	-49.3	-82.8	9	3
2023-08-13T18:00	26415	22	-49.1	-82.7	0	3
2023-08-13T18:00	26440	22	-49.1	-82.7	356	3
2023-08-13T18:00	26461	22	-49.1	-82.7	355	3
2023-08-13T18:00	26503	22	-49.2	-82.7	358	3
2023-08-13T18:00	26519	22	-49.2	-82.7	4	2
2023-08-13T18:00	26548	22	-49.2	-82.7	12	2
2023-08-13T18:00	26578	21	-49.2	-82.7	22	2
2023-08-13T18:00	26603	21	-49.3	-82.8	33	2
2023-08-13T18:00	26632	21	-49.4	-82.9	44	3
2023-08-13T18:00	26662	21	-49.5	-82.9	52	3
2023-08-13T18:00	26686	21	-49.4	-82.9	57	3
2023-08-13T18:00	26714	21	-49.3	-82.8	60	3
2023-08-13T18:00	26748	21	-49.4	-82.9	60	3
2023-08-13T18:00	26775	21	-49.4	-82.9	58	3
2023-08-13T18:00	26805	21	-49.4	-82.9	54	3
2023-08-13T18:00	26840	21	-49.4	-82.9	50	4
2023-08-13T18:00	26865	20	-49.5	-82.9	48	4
2023-08-13T18:00	26905	20	-49.5	-82.9	48	5
2023-08-13T18:00	26920	20	-49.4	-82.9	51	5
2023-08-13T18:00	26952	20	-49.4	-82.9	55	6
2023-08-13T18:00	26981	20	-49.2	-82.7	59	6
2023-08-13T18:00	27015	20	-49.2	-82.7	63	6
2023-08-13T18:00	27043	20	-49.3	-82.8	65	7
2023-08-13T18:00	27083	20	-49.3	-82.8	67	6
2023-08-13T18:00	27108	20	-49.4	-82.9	69	6
2023-08-13T18:00	27136	20	-49.4	-82.9	70	6
2023-08-13T18:00	27169	20	-49.3	-82.8	70	6
2023-08-13T18:00	27194	19	-49.2	-82.7	71	5
2023-08-13T18:00	27228	19	-49.1	-82.7	70	5
2023-08-13T18:00	27259	19	-48.7	-83.2	69	4
2023-08-13T18:00	27281	19	-48.4	-82.9	67	4
2023-08-13T18:00	27312	19	-48.1	-82.7	63	4
2023-08-13T18:00	27339	19	-48.0	-82.7	59	4
2023-08-13T18:00	27377	19	-47.9	-82.6	56	5
2023-08-13T18:00	27400	19	-48.0	-82.7	53	5
2023-08-13T18:00	27434	19	-47.9	-82.6	51	6
2023-08-13T18:00	27452	19	-47.7	-82.4	50	7
2023-08-13T18:00	27490	19	-47.6	-82.4	50	7
2023-08-13T18:00	27517	19	-47.7	-82.4	52	7
2023-08-13T18:00	27536	18	-47.7	-82.4	55	8
2023-08-13T18:00	27570	18	-47.7	-82.4	59	8
2023-08-13T18:00	27602	18	-47.5	-82.3	62	8
2023-08-13T18:00	27629	18	-47.4	-82.2	64	8
2023-08-13T18:00	27658	18	-47.3	-82.2	65	8
2023-08-13T18:00	27682	18	-47.3	-82.2	66	8
2023-08-13T18:00	27716	18	-47.2	-82.1	67	8
2023-08-13T18:00	27736	18	-47.1	-82.0	68	7
2023-08-13T18:00	27774	18	-46.9	-81.9	70	7
2023-08-13T18:00	27800	18	-47.0	-81.9	71	7
2023-08-13T18:00	27827	18	-47.1	-82.0	71	6
2023-08-13T18:00	27863	18	-47.0	-81.9	68	6
2023-08-13T18:00	27889	18	-46.7	-81.7	64	7
2023-08-13T18:00	27916	17	-46.3	-81.4	60	7
2023-08-13T18:00	27949	17	-46.0	-82.1	58	7
2023-08-13T18:00	27983	17	-45.8	-82.0	58	6
2023-08-13T18:00	28010	17	-45.6	-81.9	59	6
2023-08-13T18:00	28030	17	-45.5	-81.8	63	6
2023-08-13T18:00	28060	17	-45.4	-81.7	66	6
2023-08-13T18:00	28089	17	-45.2	-81.6	69	6
2023-08-13T18:00	28110	17	-45.1	-81.5	69	6
2023-08-13T18:00	28149	17	-45.1	-81.5	67	7
2023-08-13T18:00	28180	17	-45.1	-81.5	62	7
2023-08-13T18:00	28208	17	-45.0	-81.4	57	7
2023-08-13T18:00	28242	17	-44.9	-81.4	52	7
2023-08-13T18:00	28272	17	-44.8	-81.3	48	7
2023-08-13T18:00	28312	16	-44.8	-81.3	46	7
2023-08-13T18:00	28333	16	-44.8	-81.3	46	8
2023-08-13T18:00	28367	16	-44.9	-81.4	48	8
2023-08-13T18:00	28392	16	-45.0	-81.4	51	8
2023-08-13T18:00	28425	16	-45.1	-80.6	55	9
2023-08-13T18:00	28450	16	-45.1	-80.6	60	9
2023-08-13T18:00	28478	16	-45.3	-80.7	64	9
2023-08-13T18:00	28510	16	-45.5	-80.9	68	10
2023-08-13T18:00	28545	16	-45.6	-80.9	71	10
2023-08-13T18:00	28568	16	-45.8	-81.1	74	10
2023-08-13T18:00	28607	16	-45.9	-81.2	76	11
2023-08-13T18:00	28624	16	-46.1	-81.3	78	11
2023-08-13T18:00	28659	16	-46.2	-81.4	79	11
2023-08-13T18:00	28680	16	-46.2	-81.4	79	10
2023-08-13T18:00	28722	15	-46.3	-81.4	80	10
2023-08-13T18:00	28754	15	-46.4	-81.5	80	10
2023-08-13T18:00	28774	15	-46.3	-81.4	81	9
2023-08-13T18:00	28805	15	-46.3	-81.4	83	9
2023-08-13T18:00	28842	15	-46.4	-81.5	84	9
2023-08-13T18:00	28860	15	-46.4	-81.5	85	8
2023-08-13T18:00	28891	15	-46.2	-81.4	84	8
2023-08-13T18:00	28921	15	-46.1	-81.3	82	8
2023-08-13T18:00	28951	15	-46.0	-82.1	79	7
2023-08-13T18:00	28984	15	-45.8	-82.0	76	7
2023-08-13T18:00	29011	15	-45.6	-81.9	74	6
2023-08-13T18:00	29041	15	-45.5	-81.8	71	6
2023-08-13T18:00	29070	15	-45.5	-81.8	68	6
2023-08-13T18:00	29101	15	-45.5	-81.8	64	6
2023-08-13T18:00	29137	15	-45.6	-81.9	61	6
2023-08-13T18:00	29162	14	-45.6	-81.9	59	6
2023-08-13T18:00	29194	14	-45.6	-81.9	58	6
2023-08-13T18:00	29229	14	-45.5	-81.8	57	6
2023-08-13T18:00	29252	14	-45.4	-81.7	58	6
2023-08-13T18:00	29272	14	-45.2	-81.6	58	6
2023-08-13T18:00	29317	14	-45.1	-81.5	59	7
2023-08-13T18:00	29340	14	-45.1	-81.5	59	7
2023-08-13T18:00	29370	14	-45.1	-81.5	59	8
2023-08-13T18:00	29404	14	-45.2	-81.6	58	8
2023-08-13T18:00	29429	14	-45.0	-81.4	58	9
2023-08-13T18:00	29472	14	-44.8	-81.3	58	9
2023-08-13T18:00	29496	14	-44.6	-81.2	59	10
2023-08-13T18:00	29525	14	-44.3	-80.9	61	10
2023-08-13T18:00	29552	14	-44.1	-80.8	64	10
2023-08-13T18:00	29585	14	-44.1	-80.8	68	10
2023-08-13T18:00	29623	14	-44.1	-80.8	71	10
2023-08-13T18:00	29638	13	-44.0	-80.7	75	10
2023-08-13T18:00	29664	13	-43.9	-80.7	79	9
2023-08-13T18:00	29704	13	-43.8	-80.6	82	9
2023-08-13T18:00	29734	13	-43.6	-80.4	84	9
2023-08-13T18:00	29763	13	-43.5	-80.4	86	9
2023-08-13T18:00	29803	13	-43.4	-80.3	87	8
2023-08-13T18:00	29827	13	-43.5	-80.4	88	8
2023-08-13T18:00	29860	13	-43.6	-80.4	89	7
2023-08-13T18:00	29890	13	-43.6	-80.4	89	7
2023-08-13T18:00	29927	13	-43.7	-80.5	88	6
2023-08-13T18:00	29950	13	-43.8	-80.6	87	6
2023-08-13T18:00	29985	13	-43.7	-80.5	84	5
2023-08-13T18:00	30006	13	-43.6	-80.4	81	5
2023-08-13T18:00	30052	13	-43.3	-80.2	77	5
2023-08-13T18:00	30088	13	-43.2	-80.2	73	5
2023-08-13T18:00	30106	13	-43.1	-81.2	69	5
2023-08-13T18:00	30142	13	-43.0	-81.1	64	5
2023-08-13T18:00	30177	12	-43.0	-81.1	61	6
2023-08-13T18:00	30204	12	-43.0	-81.1	58	6
2023-08-13T18:00	30252	12	-42.9	-81.1	58	6
2023-08-13T18:00	30270	12	-42.8	-81.0	58	7
2023-08-13T18:00	30311	12	-42.8	-81.0	60	7
2023-08-13T18:00	30342	12	-42.7	-80.9	62	7
2023-08-13T18:00	30347	12	-42.7	-80.9	65	8
2023-08-13T18:00	30389	12	-42.7	-80.9	68	8
2023-08-13T18:00	30425	12	-42.7	-80.9	71	9
2023-08-13T18:00	30465	12	-42.6	-80.8	74	9
2023-08-13T18:00	30496	12	-42.4	-80.7	76	10
2023-08-13T18:00	30513	12	-42.4	-80.7	78	10
2023-08-13T18:00	30565	12	-42.4	-80.7	80	10
2023-08-13T18:00	30597	12	-42.4	-80.7	82	10
2023-08-13T18:00	30626	12	-42.3	-80.6	83	10
2023-08-13T18:00	30660	12	-42.2	-80.6	85	9
2023-08-13T18:00	30682	12	-42.2	-80.6	87	9
2023-08-13T18:00	30714	12	-42.2	-80.6	89	8
2023-08-13T18:00	30739	11	-42.2	-80.6	90	7
2023-08-13T18:00	30793	11	-42.1	-80.5	89	6
2023-08-13T18:00	30810	11	-42.0	-80.4	85	6
2023-08-13T18:00	30852	11	-41.9	-80.4	79	5
2023-08-13T18:00	30877	11	-41.8	-80.3	72	5
2023-08-13T18:00	30899	11	-41.6	-80.1	66	6
2023-08-13T18:00	30933	11	-41.3	-79.9	62	6
2023-08-13T18:00	30977	11	-41.3	-79.9	61	7
2023-08-13T18:00	31005	11	-41.1	-79.8	61	8
2023-08-13T18:00	31021	11	-40.9	-79.7	62	8
2023-08-13T18:00	31067	11	-40.8	-79.6	64	9
2023-08-13T18:00	31088	11	-40.8	-79.6	66	9
2023-08-13T18:00	31131	11	-40.7	-79.5	69	9
2023-08-13T18:00	31171	11	-40.7	-79.5	72	9
2023-08-13T18:00	31189	11	-40.8	-79.6	73	9
2023-08-13T18:00	31225	11	-40.6	-79.5	74	9
2023-08-13T18:00	31236	11	-40.3	-79.2	73	9
2023-08-13T18:00	31274	11	-40.2	-79.2	72	9
2023-08-13T18:00	31303	11	-39.9	-79.0	72	10
2023-08-13T18:00	31328	11	-39.6	-78.8	72	10
2023-08-13T18:00	31364	10	-39.4	-78.6	73	10
2023-08-13T18:00	31390	10	-39.2	-78.5	75	10
2023-08-13T18:00	31419	10	-39.2	-78.5	76	10
2023-08-13T18:00	31452	10	-39.4	-78.6	78	9
2023-08-13T18:00	31486	10	-39.5	-78.7	80	9
2023-08-13T18:00	31525	10	-39.6	-78.8	83	9
2023-08-13T18:00	31541	10	-39.6	-78.8	85	9
2023-08-13T18:00	31582	10	-39.5	-78.7	86	9
2023-08-13T18:00	31597	10	-39.4	-78.6	86	9
2023-08-13T18:00	31644	10	-39.2	-78.5	85	10
2023-08-13T18:00	31658	10	-39.1	-78.4	85	10
2023-08-13T18:00	31704	10	-39.0	-78.3	84	10
2023-08-13T18:00	31716	10	-38.9	-78.3	84	11
2023-08-13T18:00	31754	10	-38.8	-78.2	84	11
2023-08-13T18:00	31791	10	-38.8	-78.2	85	11
2023-08-13T18:00	31833	10	-38.7	-78.1	87	11
2023-08-13T18:00	31838	10	-38.6	-78.1	89	11
2023-08-13T18:00	31870	10	-38.5	-78.0	92	12
2023-08-13T18:00	31906	10	-38.5	-78.0	95	12
2023-08-13T18:00	31933	10	-38.5	-78.0	99	12
2023-08-13T18:00	31973	10	-38.2	-77.8	102	12
2023-08-13T18:00	32006	10	-38.0	-77.6	106	12
2023-08-13T18:00	32032	10	-38.1	-77.7	109	11
2023-08-13T18:00	32061	9	-38.1	-77.7	111	11
2023-08-13T18:00	32103	9	-38.1	-77.7	112	10
2023-08-13T18:00	32138	9	-38.2	-77.8	112	9
2023-08-13T18:00	32154	9	-38.2	-77.8	109	9
2023-08-13T18:00	32181	9	-38.1	-77.7	103	8
2023-08-13T18:00	32231	9	-37.8	-77.5	97	8
2023-08-13T18:00	32241	9	-37.6	-77.4	91	8
2023-08-13T18:00	32269	9	-37.3	-77.2	87	8
2023-08-13T18:00	32310	9	-37.0	-77.0	84	8
2023-08-13T18:00	32343	9	-36.9	-76.9	84	9
2023-08-13T18:00	32351	9	-36.7	-76.7	84	9
2023-08-13T18:00	32391	9	-36.6	-76.7	85	10
2023-08-13T18:00	32428	9	-36.5	-76.6	85	10
2023-08-13T18:00	32458	9	-36.3	-76.5	86	11
2023-08-13T18:00	32500	9	-36.2	-76.4	86	11
2023-08-13T18:00	32518	9	-36.0	-76.3	88	11
2023-08-13T18:00	32534	9	-36.0	-76.3	89	12
2023-08-13T18:00	32569	9	-36.1	-76.3	91	12
2023-08-13T18:00	32601	9	-36.1	-76.3	93	11
2023-08-13T18:00	32648	9	-36.0	-76.3	94	11
2023-08-13T18:00	32673	9	-36.0	-76.3	95	11
2023-08-13T18:00	32709	9	-35.9	-76.2	97	11
2023-08-13T18:00	32725	9	-36.0	-76.3	100	11
2023-08-13T18:00	32766	9	-36.1	-76.3	103	10
2023-08-13T18:00	32790	9	-36.3	-76.5	106	10
2023-08-13T18:00	32822	8	-36.5	-76.6	109	10
2023-08-13T18:00	32858	8	-36.6	-76.7	111	10
2023-08-13T18:00	32882	8	-36.6	-76.7	112	10
2023-08-13T18:00	32911	8	-36.7	-76.7	111	9
2023-08-13T18:00	32937	8	-36.8	-76.8	110	9
2023-08-13T18:00	32995	8	-36.9	-76.9	109	9
2023-08-13T18:00	33010	8	-37.1	-77.0	108	9
2023-08-13T18:00	33012	8	-37.2	-77.1	108	9
2023-08-13T18:00	33068	8	-37.2	-77.1	108	8
2023-08-13T18:00	33119	8	-37.1	-77.0	108	9
2023-08-13T18:00	33139	8	-37.1	-77.0	107	9
2023-08-13T18:00	33175	8	-37.1	-77.0	106	9
2023-08-13T18:00	33215	8	-37.0	-77.0	104	9
2023-08-13T18:00	33232	8	-36.8	-76.8	102	10
2023-08-13T18:00	33249	8	-36.7	-76.7	99	10
2023-08-13T18:00	33285	8	-36.7	-76.7	96	11
2023-08-13T18:00	33320	8	-36.8	-76.8	94	11
2023-08-13T18:00	33345	8	-36.9	-76.9	92	11
2023-08-13T18:00	33377	8	-36.9	-76.9	92	11
2023-08-13T18:00	33426	8	-37.0	-77.0	92	11
2023-08-13T18:00	33444	8	-37.0	-77.0	94	11
2023-08-13T18:00	33477	8	-37.0	-77.0	96	10
2023-08-13T18:00	33510	8	-37.1	-77.0	99	10
2023-08-13T18:00	33519	8	-37.2	-77.1	103	9
2023-08-13T18:00	33574	8	-37.0	-77.0	106	8
2023-08-13T18:00	33599	8	-36.9	-76.9	109	8
2023-08-13T18:00	33642	8	-37.0	-77.0	109	7
2023-08-13T18:00	33681	8	-37.1	-77.0	107	6
2023-08-13T18:00	33712	7	-37.0	-77.0	102	6
2023-08-13T18:00	33743	7	-36.7	-76.7	95	5
2023-08-13T18:00	33773	7	-36.4	-76.5	87	5
2023-08-13T18:00	33798	7	-36.3	-76.5	80	5
2023-08-13T18:00	33826	7	-36.4	-76.5	77	5
2023-08-13T18:00	33862	7	-36.5	-76.6	76	5
2023-08-13T18:00	33886	7	-36.3	-76.5	76	6
2023-08-13T18:00	33937	7	-36.0	-76.3	76	6
2023-08-13T18:00	33957	7	-35.8	-76.1	76	6
2023-08-13T18:00	33982	7	-35.7	-76.1	75	7
2023-08-13T18:00	34002	7	-35.4	-75.8	73	7
2023-08-13T18:00	34068	7	-35.0	-75.6	72	7
2023-08-13T18:00	34105	7	-34.6	-75.3	69	7
2023-08-13T18:00	34123	7	-34.5	-75.2	69	7
2023-08-13T18:00	34182	7	-34.4	-75.2	69	6
2023-08-13T18:00	34228	7	-34.4	-75.2	69	6
2023-08-13T18:00	34260	7	-34.4	-75.2	67	6
2023-08-13T18:00	34292	7	-34.1	-75.0	65	6
2023-08-14T00:00	116	1004	21.2	13.5	105	3
2023-08-14T00:00	143	1001	22.0	12.8	112	4
2023-08-14T00:00	164	998	22.2	12.7	117	6
2023-08-14T00:00	191	995	22.5	12.1	121	8
2023-08-14T00:00	216	992	23.2	11.6	124	9
2023-08-14T00:00	238	990	23.5	12.6	126	9
2023-08-14T00:00	262	987	23.4	13.3	128	9
2023-08-14T00:00	287	984	23.2	13.5	130	9
2023-08-14T00:00	313	981	23.1	13.4	132	8
2023-08-14T00:00	335	979	23.1	13.4	134	8
2023-08-14T00:00	358	976	22.9	13.1	135	8
2023-08-14T00:00	383	973	22.7	13.0	136	8
2023-08-14T00:00	405	971	22.5	12.9	137	8
2023-08-14T00:00	433	968	22.3	12.6	137	8
2023-08-14T00:00	456	965	22.1	12.7	137	7
2023-08-14T00:00	481	962	21.9	12.8	137	7
2023-08-14T00:00	506	960	21.7	12.9	138	6
2023-08-14T00:00	531	957	21.6	13.1	140	6
2023-08-14T00:00	553	954	21.5	13.5	143	6
2023-08-14T00:00	579	952	21.2	13.4	146	6
2023-08-14T00:00	604	949	21.0	13.5	148	7
2023-08-14T00:00	628	946	20.8	13.4	151	7
2023-08-14T00:00	651	944	20.6	13.4	153	7
2023-08-14T00:00	674	941	20.4	13.5	156	8
2023-08-14T00:00	700	938	20.2	13.6	159	8
2023-08-14T00:00	724	936	20.0	13.5	162	8
2023-08-14T00:00	742	934	19.8	13.4	166	8
2023-08-14T00:00	758	932	19.7	13.7	169	8
2023-08-14T00:00	777	930	19.7	14.0	172	8
2023-08-14T00:00	800	928	19.6	14.0	176	8
2023-08-14T00:00	825	925	19.5	13.9	180	7
2023-08-14T00:00	855	922	19.4	13.9	185	7
2023-08-14T00:00	882	919	19.2	13.8	190	7
2023-08-14T00:00	903	916	19.0	13.9	193	7
2023-08-14T00:00	931	914	18.7	13.8	195	7
2023-08-14T00:00	950	912	18.5	13.7	197	7
2023-08-14T00:00	970	909	18.4	13.7	201	7
2023-08-14T00:00	990	907	18.2	13.4	207	7
2023-08-14T00:00	1012	905	18.1	13.2	214	7
2023-08-14T00:00	1040	902	17.9	13.0	220	6
2023-08-14T00:00	1077	898	17.5	12.8	223	6
2023-08-14T00:00	1101	896	17.3	12.9	223	6
2023-08-14T00:00	1123	893	17.1	12.8	220	6
2023-08-14T00:00	1146	891	16.9	12.9	216	6
2023-08-14T00:00	1170	888	16.7	12.7	214	6
2023-08-14T00:00	1194	886	16.4	12.6	214	6
2023-08-14T00:00	1217	884	16.2	12.7	213	6
2023-08-14T00:00	1243	881	16.0	12.7	212	7
2023-08-14T00:00	1263	879	15.8	12.3	210	7
2023-08-14T00:00	1281	877	15.7	12.0	209	7
2023-08-14T00:00	1300	875	15.5	12.0	209	8
2023-08-14T00:00	1321	873	15.3	11.9	210	8
2023-08-14T00:00	1342	871	15.1	11.9	213	8
2023-08-14T00:00	1365	868	15.0	11.7	215	8
2023-08-14T00:00	1387	866	14.8	11.5	218	8
2023-08-14T00:00	1413	863	14.6	11.4	221	8
2023-08-14T00:00	1432	861	14.4	11.4	224	7
2023-08-14T00:00	1456	859	14.2	11.3	228	7
2023-08-14T00:00	1478	857	14.0	11.3	232	7
2023-08-14T00:00	1504	854	13.8	11.1	234	7
2023-08-14T00:00	1529	852	13.5	11.1	235	6
2023-08-14T00:00	1551	849	13.3	11.1	233	6
2023-08-14T00:00	1573	847	13.2	10.8	229	6
2023-08-14T00:00	1596	845	13.1	10.6	227	6
2023-08-14T00:00	1619	843	12.9	10.5	227	6
2023-08-14T00:00	1644	840	12.6	10.2	228	6
2023-08-14T00:00	1664	838	12.5	10.3	229	6
2023-08-14T00:00	1686	836	12.3	10.3	229	5
2023-08-14T00:00	1707	834	12.1	9.9	228	5
2023-08-14T00:00	1728	832	11.9	9.8	227	5
2023-08-14T00:00	1753	829	11.7	9.5	226	6
2023-08-14T00:00	1771	827	11.6	9.6	227	6
2023-08-14T00:00	1797	825	11.4	9.4	227	6
2023-08-14T00:00	1822	823	11.2	9.3	226	5
2023-08-14T00:00	1841	821	11.0	9.2	225	5
2023-08-14T00:00	1862	819	10.9	9.1	225	5
2023-08-14T00:00	1887	816	10.7	9.1	227	6
2023-08-14T00:00	1904	814	10.5	9.1	227	6
2023-08-14T00:00	1922	813	10.3	9.1	226	6
2023-08-14T00:00	1938	811	10.1	9.5	223	7
2023-08-14T00:00	1960	809	10.0	9.5	219	7
2023-08-14T00:00	1983	807	9.7	9.2	216	8
2023-08-14T00:00	2013	804	9.9	7.9	215	9
2023-08-14T00:00	2038	801	10.0	7.4	218	9
2023-08-14T00:00	2066	799	9.7	7.2	221	10
2023-08-14T00:00	2098	796	9.4	7.0	226	10
2023-08-14T00:00	2129	793	9.2	6.9	229	10
2023-08-14T00:00	2156	790	8.9	6.5	232	11
2023-08-14T00:00	2185	787	8.7	6.7	233	11
2023-08-14T00:00	2222	784	8.4	6.3	233	11
2023-08-14T00:00	2247	781	8.1	6.4	233	11
2023-08-14T00:00	2278	779	7.8	6.3	231	11
2023-08-14T00:00	2304	776	7.5	6.2	229	11
2023-08-14T00:00	2335	773	7.3	6.2	227	12
2023-08-14T00:00	2360	771	7.1	5.8	225	12
2023-08-14T00:00	2385	769	6.8	5.8	224	12
2023-08-14T00:00	2412	766	6.8	5.5	222	11
2023-08-14T00:00	2437	764	6.5	5.3	221	11
2023-08-14T00:00	2465	761	6.3	5.3	220	11
2023-08-14T00:00	2492	759	6.0	5.1	219	10
2023-08-14T00:00	2522	756	5.8	4.8	219	10
2023-08-14T00:00	2552	753	5.7	4.6	219	11
2023-08-14T00:00	2578	751	5.3	4.8	220	11
2023-08-14T00:00	2611	748	5.0	4.9	222	12
2023-08-14T00:00	2638	745	4.7	4.6	224	12
2023-08-14T00:00	2672	742	4.4	4.4	226	13
2023-08-14T00:00	2698	740	4.3	3.7	228	13
2023-08-14T00:00	2724	737	4.2	1.6	231	13
2023-08-14T00:00	2753	735	4.8	-0.5	234	13
2023-08-14T00:00	2785	732	4.8	-1.9	237	13
2023-08-14T00:00	2810	730	4.6	-2.8	240	13
2023-08-14T00:00	2837	727	5.7	-10.8	243	13
2023-08-14T00:00	2869	724	6.1	-14.7	245	13
2023-08-14T00:00	2897	722	6.1	-14.0	247	13
2023-08-14T00:00	2927	719	5.8	-15.0	248	13
2023-08-14T00:00	2950	717	5.6	-15.8	250	13
2023-08-14T00:00	2972	715	5.6	-19.3	253	13
2023-08-14T00:00	2992	714	5.5		255	13
2023-08-14T00:00	3014	712	5.7	-29.2	257	14
2023-08-14T00:00	3031	710	5.5	-28.9	257	14
2023-08-14T00:00	3054	708	5.4	-28.2	257	14
2023-08-14T00:00	3079	706	5.2	-28.0	256	14
2023-08-14T00:00	3104	704	4.9	-27.6	255	14
2023-08-14T00:00	3115	703	4.8	-27.5	254	15
2023-08-14T00:00	3130	702	4.7	-27.3	253	15
2023-08-14T00:00	3151	700	4.5	-23.4	251	15
2023-08-14T00:00	3176	698	4.3	-12.2	249	15
2023-08-14T00:00	3201	696	4.3	-12.9	247	15
2023-08-14T00:00	3216	694	4.3	-12.1	246	14
2023-08-14T00:00	3232	693	4.2	-11.3	245	14
2023-08-14T00:00	3250	691	4.0	-10.3	245	14
2023-08-14T00:00	3270	689	3.8	-10.0	246	13
2023-08-14T00:00	3298	687	3.5	-7.8	247	13
2023-08-14T00:00	3322	685	3.2	-6.2	248	12
2023-08-14T00:00	3342	684	3.0	-5.7	249	11
2023-08-14T00:00	3356	682	2.9	-6.3	249	11
2023-08-14T00:00	3373	681	2.8	-6.9	249	10
2023-08-14T00:00	3393	679	2.7		249	10
2023-08-14T00:00	3411	678	2.4	-4.2	249	11
2023-08-14T00:00	3436	676	2.2	-3.9	249	11
2023-08-14T00:00	3457	674	2.0	-4.3	248	11
2023-08-14T00:00	3476	672	1.8	-4.0	247	11
2023-08-14T00:00	3500	670	1.6	-3.8	245	10
2023-08-14T00:00	3523	669	1.4		244	10
2023-08-14T00:00	3536	667	1.3	-3.8	243	10
2023-08-14T00:00	3563	665	1.2	-5.0	242	11
2023-08-14T00:00	3584	663	1.3	-10.2	241	11
2023-08-14T00:00	3603	662	1.4	-15.7	240	11
2023-08-14T00:00	3625	660	1.6	-25.0	238	11
2023-08-14T00:00	3652	658	1.6	-28.2	237	11
2023-08-14T00:00	3664	657	1.6	-27.6	237	11
2023-08-14T00:00	3679	656	1.7	-27.3	239	11
2023-08-14T00:00	3695	654	1.7	-29.7	241	12
2023-08-14T00:00	3717	652	1.9	-33.9	242	12
2023-08-14T00:00	3739	651	2.1	-39.6	244	13
2023-08-14T00:00	3760	649	2.2	-37.4	245	14
2023-08-14T00:00	3778	648	2.2	-37.4	247	14
2023-08-14T00:00	3797	646	2.2	-37.4	250	14
2023-08-14T00:00	3820	644	2.2	-35.1	252	14
2023-08-14T00:00	3845	642	2.2		254	14
2023-08-14T00:00	3861	641	2.3	-28.8	255	14
2023-08-14T00:00	3873	640	2.3	-18.1	255	14
2023-08-14T00:00	3888	639	2.2	-13.4	253	14
2023-08-14T00:00	3900	638	2.1	-14.9	250	14
2023-08-14T00:00	3914	637	2.1	-17.7	247	13
2023-08-14T00:00	3935	635	2.0	-15.9	245	13
2023-08-14T00:00	3958	633	1.7	-12.3	243	13
2023-08-14T00:00	3980	632	1.6	-12.9	242	13
2023-08-14T00:00	4002	630	1.6	-15.3	243	13
2023-08-14T00:00	4019	628	1.6	-21.8	243	12
2023-08-14T00:00	4039	627	1.4	-14.8	244	12
2023-08-14T00:00	4058	625	1.3	-16.1	244	13
2023-08-14T00:00	4080	624	1.1	-14.4	244	13
2023-08-14T00:00	4097	622	1.0	-14.7	244	13
2023-08-14T00:00	4120	621	0.9	-19.3	244	14
2023-08-14T00:00	4137	619	1.1	-26.5	243	14
2023-08-14T00:00	4161	617	0.9	-28.1	243	14
2023-08-14T00:00	4184	616	0.7	-17.4	243	15
2023-08-14T00:00	4202	614	0.5	-13.6	243	15
2023-08-14T00:00	4216	613	0.6	-17.7	244	15
2023-08-14T00:00	4240	611	0.8	-29.3	244	15
2023-08-14T00:00	4259	610	0.8	-30.8	244	15
2023-08-14T00:00	4285	608	0.6	-33.8	244	14
2023-08-14T00:00	4301	607	0.5	-33.8	245	14
2023-08-14T00:00	4318	606	0.3	-35.2	246	14
2023-08-14T00:00	4336	604	0.2	-34.8	247	14
2023-08-14T00:00	4361	602	0.0	-36.2	249	14
2023-08-14T00:00	4391	600	-0.3	-38.3	250	14
2023-08-14T00:00	4410	599	-0.4	-39.9	251	14
2023-08-14T00:00	4424	597	-0.5	-40.0	251	14
2023-08-14T00:00	4441	596	-0.7	-40.1	250	14
2023-08-14T00:00	4461	595	-0.8	-40.6	249	14
2023-08-14T00:00	4482	593	-1.0	-40.7	247	15
2023-08-14T00:00	4512	591	-1.2	-40.5	247	15
2023-08-14T00:00	4536	589	-1.3	-40.5	247	16
2023-08-14T00:00	4565	587	-1.5	-40.3	248	16
2023-08-14T00:00	4600	585	-1.6	-33.1	250	17
2023-08-14T00:00	4626	583	-1.7	-28.6	250	17
2023-08-14T00:00	4646	581	-1.8	-23.4	250	17
2023-08-14T00:00	4665	580	-1.9	-20.9	248	16
2023-08-14T00:00	4687	578	-2.1	-17.7	247	16
2023-08-14T00:00	4718	576	-2.4	-16.4	246	16
2023-08-14T00:00	4746	574	-2.7	-15.3	246	16
2023-08-14T00:00	4777	572	-3.0	-13.8	247	16
2023-08-14T00:00	4806	570	-3.2	-13.3	248	16
2023-08-14T00:00	4832	568	-3.5	-13.3	249	16
2023-08-14T00:00	4861	565	-3.8	-12.7	251	16
2023-08-14T00:00	4897	563	-4.1	-12.1	251	16
2023-08-14T00:00	4931	561	-4.5	-11.6	252	15
2023-08-14T00:00	4950	559	-4.7	-11.5	251	16
2023-08-14T00:00	4970	558	-4.9	-11.4	250	16
2023-08-14T00:00	4991	556	-5.1	-11.4	249	16
2023-08-14T00:00	5012	555	-5.3	-11.4	249	16
2023-08-14T00:00	5030	553	-5.5	-11.5	248	16
2023-08-14T00:00	5053	552	-5.7	-11.5	248	16
2023-08-14T00:00	5075	550	-5.8	-11.7	247	16
2023-08-14T00:00	5101	548	-6.1	-11.8	247	16
2023-08-14T00:00	5133	546	-6.3	-11.9	247	16
2023-08-14T00:00	5158	544	-6.5	-12.1	248	16
2023-08-14T00:00	5190	542	-6.7	-12.5	248	16
2023-08-14T00:00	5223	540	-7.0	-13.0	249	16
2023-08-14T00:00	5248	538	-7.1	-13.1	249	16
2023-08-14T00:00	5275	536	-7.3	-13.1	249	16
2023-08-14T00:00	5310	534	-7.5	-14.0	250	16
2023-08-14T00:00	5337	532	-7.6	-14.5	250	16
2023-08-14T00:00	5371	530	-7.9	-14.2	250	16
2023-08-14T00:00	5405	528	-8.3	-13.8	249	16
2023-08-14T00:00	5428	526	-8.4	-14.1	248	16
2023-08-14T00:00	5451	525	-8.6	-13.8	247	16
2023-08-14T00:00	5472	523	-8.8	-13.9	245	16
2023-08-14T00:00	5498	521	-8.9	-15.4	244	16
2023-08-14T00:00	5527	519	-9.1	-16.7	244	16
2023-08-14T00:00	5566	517	-9.3	-16.1	243	16
2023-08-14T00:00	5593	515	-9.3	-17.0	243	16
2023-08-14T00:00	5616	513	-9.5	-17.1	244	16
2023-08-14T00:00	5636	512	-9.6	-17.2	245	16
2023-08-14T00:00	5658	511	-9.8	-17.5	245	16
2023-08-14T00:00	5678	509	-10.0	-17.7	246	15
2023-08-14T00:00	5701	508	-10.1	-18.0	246	15
2023-08-14T00:00	5723	506	-10.3	-18.3	246	15
2023-08-14T00:00	5747	505	-10.5	-18.4	246	15
2023-08-14T00:00	5774	503	-10.8	-18.6	246	15
2023-08-14T00:00	5803	501	-11.0	-18.8	247	15
2023-08-14T00:00	5837	499	-11.3	-19.0	248	15
2023-08-14T00:00	5860	497	-11.4	-19.1	250	15
2023-08-14T00:00	5882	496	-11.6	-19.3	251	15
2023-08-14T00:00	5911	494	-11.7	-19.2	251	16
2023-08-14T00:00	5942	492	-12.0	-19.3	251	16
2023-08-14T00:00	5979	490	-12.3	-19.9	251	16
2023-08-14T00:00	6000	488	-12.5	-20.0	251	16
2023-08-14T00:00	6020	487	-12.7	-20.2	250	16
2023-08-14T00:00	6043	486	-12.9	-20.5	249	15
2023-08-14T00:00	6069	484	-13.2	-20.9	248	15
2023-08-14T00:00	6099	482	-13.4	-21.2	249	14
2023-08-14T00:00	6122	481	-13.6	-21.8	251	14
2023-08-14T00:00	6148	479	-13.6	-23.7	254	14
2023-08-14T00:00	6180	477	-13.8	-23.9	257	14
2023-08-14T00:00	6203	475	-13.9	-23.9	258	15
2023-08-14T00:00	6231	474	-14.1	-23.7	259	15
2023-08-14T00:00	6263	472	-14.3	-23.8	257	15
2023-08-14T00:00	6287	470	-14.5	-23.6	256	15
2023-08-14T00:00	6310	469	-14.7	-23.3	254	16
2023-08-14T00:00	6343	467	-14.9	-22.8	254	16
2023-08-14T00:00	6375	465	-15.1	-20.9	254	16
2023-08-14T00:00	6402	463	-15.4	-20.5	255	16
2023-08-14T00:00	6431	461	-15.7	-20.7	257	16
2023-08-14T00:00	6452	460	-15.9	-20.5	258	16
2023-08-14T00:00	6475	459	-16.1	-20.4	259	16
2023-08-14T00:00	6503	457	-16.4	-20.6	259	16
2023-08-14T00:00	6534	455	-16.7	-19.5	258	16
2023-08-14T00:00	6563	453	-16.9	-19.5	257	17
2023-08-14T00:00	6579	452	-17.1	-19.5	256	17
2023-08-14T00:00	6596	451	-17.2	-19.5	255	17
2023-08-14T00:00	6615	450	-17.4	-19.9	253	17
2023-08-14T00:00	6634	449	-17.5	-20.4	253	17
2023-08-14T00:00	6658	448	-17.6	-20.8	252	17
2023-08-14T00:00	6683	446	-17.8	-21.1	252	18
2023-08-14T00:00	6709	445	-18.0	-21.0	252	18
2023-08-14T00:00	6738	443	-18.2	-21.0	252	18
2023-08-14T00:00	6762	441	-18.5	-21.1	252	18
2023-08-14T00:00	6789	440	-18.7	-21.2	252	18
2023-08-14T00:00	6821	438	-19.0	-21.6	253	19
2023-08-14T00:00	6851	436	-19.1	-24.2	254	19
2023-08-14T00:00	6879	435	-18.4	-35.7	256	19
2023-08-14T00:00	6909	433	-18.2	-38.0	257	19
2023-08-14T00:00	6933	431	-18.4	-37.9	259	19
2023-08-14T00:00	6959	430	-18.5	-39.4	260	19
2023-08-14T00:00	6988	428	-18.5	-37.7	261	19
2023-08-14T00:00	7017	427	-18.8	-29.8	261	18
2023-08-14T00:00	7047	425	-19.1	-27.7	262	18
2023-08-14T00:00	7074	423	-19.3	-28.3	263	18
2023-08-14T00:00	7106	422	-19.6	-28.5	264	18
2023-08-14T00:00	7134	420	-19.7	-29.0	264	18
2023-08-14T00:00	7157	419	-19.9	-29.6	265	18
2023-08-14T00:00	7184	417	-20.1	-30.3	265	18
2023-08-14T00:00	7212	416	-20.2	-32.7	266	17
2023-08-14T00:00	7243	414	-20.3	-35.0	266	17
2023-08-14T00:00	7275	412	-20.4	-38.4	266	17
2023-08-14T00:00	7294	411	-20.5	-38.5	267	17
2023-08-14T00:00	7315	410	-20.7	-38.7	267	18
2023-08-14T00:00	7342	408	-20.9	-38.8	267	18
2023-08-14T00:00	7369	407	-21.2	-39.1	266	18
2023-08-14T00:00	7397	405	-21.4	-39.3	266	18
2023-08-14T00:00	7428	404	-21.7	-39.2	266	18
2023-08-14T00:00	7458	402	-22.0	-39.3	266	18
2023-08-14T00:00	7485	401	-22.2	-39.4	265	19
2023-08-14T00:00	7511	399	-22.5	-39.6	265	19
2023-08-14T00:00	7541	397	-22.7	-39.7	265	19
2023-08-14T00:00	7567	396	-22.9	-39.3	265	19
2023-08-14T00:00	7592	395	-23.1	-39.1	264	19
2023-08-14T00:00	7616	393	-23.3	-39.3	264	19
2023-08-14T00:00	7641	392	-23.4	-41.1	264	20
2023-08-14T00:00	7669	391	-23.2	-43.9	264	20
2023-08-14T00:00	7692	389	-23.3	-42.9	264	20
2023-08-14T00:00	7720	388	-23.6	-41.3	265	20
2023-08-14T00:00	7749	386	-23.8	-40.4	265	20
2023-08-14T00:00	7781	385	-24.1	-41.4	265	20
2023-08-14T00:00	7807	383	-24.3	-41.6	265	20
2023-08-14T00:00	7829	382	-24.4	-42.2	265	20
2023-08-14T00:00	7853	381	-24.6	-42.5	265	20
2023-08-14T00:00	7879	379	-24.8	-42.6	264	20
2023-08-14T00:00	7904	378	-25.0	-42.9	264	20
2023-08-14T00:00	7930	377	-25.2	-43.2	264	20
2023-08-14T00:00	7957	375	-25.4	-42.9	264	20
2023-08-14T00:00	7984	374	-25.6	-42.8	263	20
2023-08-14T00:00	8012	373	-25.9	-42.9	263	20
2023-08-14T00:00	8047	371	-26.2	-43.2	263	20
2023-08-14T00:00	8071	369	-26.4	-43.5	263	21
2023-08-14T00:00	8093	368	-26.6	-44.1	264	21
2023-08-14T00:00	8114	367	-26.7	-44.9	264	21
2023-08-14T00:00	8136	366	-26.8	-45.0	264	21
2023-08-14T00:00	8165	365	-27.1	-45.4	264	20
2023-08-14T00:00	8192	363	-27.3	-45.9	265	20
2023-08-14T00:00	8217	362	-27.5	-45.8	265	20
2023-08-14T00:00	8239	361	-27.7	-45.8	265	20
2023-08-14T00:00	8264	360	-27.9	-46.2	265	20
2023-08-14T00:00	8293	358	-28.1	-46.1	265	20
2023-08-14T00:00	8319	357	-28.4	-46.3	266	20
2023-08-14T00:00	8346	356	-28.6	-46.5	266	21
2023-08-14T00:00	8370	354	-28.9	-46.7	267	21
2023-08-14T00:00	8398	353	-29.1	-46.8	267	21
2023-08-14T00:00	8424	352	-29.4	-47.1	267	20
2023-08-14T00:00	8453	350	-29.7	-47.3	268	20
2023-08-14T00:00	8479	349	-29.9	-47.7	268	20
2023-08-14T00:00	8506	348	-30.1	-48.2	268	20
2023-08-14T00:00	8535	346	-30.4	-48.8	268	20
2023-08-14T00:00	8565	345	-30.7	-48.9	268	20
2023-08-14T00:00	8597	343	-31.0	-49.2	268	20
2023-08-14T00:00	8628	342	-31.2	-49.3	268	20
2023-08-14T00:00	8654	341	-31.4	-48.6	268	20
2023-08-14T00:00	8679	339	-31.7	-47.7	267	20
2023-08-14T00:00	8707	338	-31.9	-47.9	266	20
2023-08-14T00:00	8733	337	-32.1	-47.8	265	21
2023-08-14T00:00	8766	335	-32.4	-48.2	264	21
2023-08-14T00:00	8800	334	-32.7	-48.6	264	21
2023-08-14T00:00	8830	332	-32.9	-48.9	264	22
2023-08-14T00:00	8856	331	-33.1	-49.3	265	22
2023-08-14T00:00	8883	330	-33.3		265	22
2023-08-14T00:00	8908	329	-33.4	-51.6	265	23
2023-08-14T00:00	8936	327	-33.6	-52.1	265	23
2023-08-14T00:00	8958	326	-33.7	-52.3	265	23
2023-08-14T00:00	8981	325	-33.9	-52.3	265	23
2023-08-14T00:00	9004	324	-34.1	-52.1	264	23
2023-08-14T00:00	9027	323	-34.3	-52.0	264	23
2023-08-14T00:00	9047	322	-34.4	-51.6	263	24
2023-08-14T00:00	9070	321	-34.6	-51.4	262	24
2023-08-14T00:00	9092	320	-34.8	-51.4	261	24
2023-08-14T00:00	9113	319	-35.0	-50.9	260	24
2023-08-14T00:00	9138	318	-35.1	-50.1	260	24
2023-08-14T00:00	9164	317	-35.4	-50.5	259	24
2023-08-14T00:00	9190	316	-35.5	-50.6	259	24
2023-08-14T00:00	9214	315	-35.8	-50.5	259	25
2023-08-14T00:00	9236	313	-36.0	-50.4	259	25
2023-08-14T00:00	9259	312	-36.2	-50.4	259	24
2023-08-14T00:00	9283	311	-36.4	-50.3	259	24
2023-08-14T00:00	9306	310	-36.6	-50.3	259	24
2023-08-14T00:00	9331	309	-36.9	-50.6	259	24
2023-08-14T00:00	9354	308	-37.1	-50.8	259	24
2023-08-14T00:00	9381	307	-37.3	-51.0	260	24
2023-08-14T00:00	9403	306	-37.5	-51.0	260	23
2023-08-14T00:00	9425	305	-37.7	-51.1	261	23
2023-08-14T00:00	9449	304	-37.9	-51.3	261	23
2023-08-14T00:00	9471	303	-38.1	-51.5	260	23
2023-08-14T00:00	9493	302	-38.3		260	23
2023-08-14T00:00	9517	301	-38.5	-51.3	260	23
2023-08-14T00:00	9540	300	-38.7	-51.2	259	23
2023-08-14T00:00	9564	299	-38.9	-51.2	259	23
2023-08-14T00:00	9585	298	-39.2	-51.5	260	23
2023-08-14T00:00	9608	297	-39.4	-51.4	260	23
2023-08-14T00:00	9628	296	-39.5	-51.5	260	23
2023-08-14T00:00	9647	295	-39.7	-51.5	261	23
2023-08-14T00:00	9668	294	-39.9	-51.6	261	23
2023-08-14T00:00	9688	294	-40.1		261	23
2023-08-14T00:00	9707	293	-40.3	-51.6	261	23
2023-08-14T00:00	9728	292	-40.5	-51.6	261	23
2023-08-14T00:00	9747	291	-40.7	-51.7	261	23
2023-08-14T00:00	9767	290	-40.9	-51.7	261	22
2023-08-14T00:00	9788	289	-41.0	-51.7	260	22
2023-08-14T00:00	9807	288	-41.2	-52.0	260	23
2023-08-14T00:00	9827	288	-41.4	-52.3	260	23
2023-08-14T00:00	9848	287	-41.5	-52.6	259	23
2023-08-14T00:00	9867	286	-41.7	-53.0	258	23
2023-08-14T00:00	9884	285	-41.9	-53.5	258	23
2023-08-14T00:00	9906	284	-42.0	-53.8	257	23
2023-08-14T00:00	9925	283	-42.2	-53.9	257	23
2023-08-14T00:00	9954	282	-42.4	-53.8	256	23
2023-08-14T00:00	9985	281	-42.7	-53.7	256	23
2023-08-14T00:00	10007	280	-42.9	-53.8	255	23
2023-08-14T00:00	10026	279	-43.1	-53.5	255	24
2023-08-14T00:00	10048	278	-43.2	-52.8	255	24
2023-08-14T00:00	10072	277	-43.5	-52.8	255	25
2023-08-14T00:00	10094	276	-43.7	-52.9	255	25
2023-08-14T00:00	10115	276	-43.9	-53.1	255	25
2023-08-14T00:00	10134	275	-44.1	-53.0	256	25
2023-08-14T00:00	10157	274	-44.3	-52.8	256	26
2023-08-14T00:00	10178	273	-44.5	-52.8	256	26
2023-08-14T00:00	10197	272	-44.7	-53.0	256	26
2023-08-14T00:00	10218	271	-44.9	-53.3	256	26
2023-08-14T00:00	10238	271	-45.0	-53.5	256	26
2023-08-14T00:00	10256	270	-45.2	-53.6	256	26
2023-08-14T00:00	10274	269	-45.3	-54.1	256	26
2023-08-14T00:00	10294	268	-45.5	-54.6	256	26
2023-08-14T00:00	10310	268	-45.6	-54.6	256	26
2023-08-14T00:00	10329	267	-45.8	-54.6	257	26
2023-08-14T00:00	10348	266	-46.0	-54.6	257	26
2023-08-14T00:00	10365	265	-46.1	-54.6	257	26
2023-08-14T00:00	10381	265	-46.3	-54.8	257	26
2023-08-14T00:00	10400	264	-46.4	-54.9	258	26
2023-08-14T00:00	10419	263	-46.6	-55.1	258	26
2023-08-14T00:00	10437	263	-46.8	-55.2	258	26
2023-08-14T00:00	10454	262	-46.9	-55.2	258	26
2023-08-14T00:00	10474	261	-47.1	-55.4	258	26
2023-08-14T00:00	10491	260	-47.2	-55.5	258	26
2023-08-14T00:00	10510	260	-47.4	-55.6	258	26
2023-08-14T00:00	10528	259	-47.6	-55.8	258	26
2023-08-14T00:00	10549	258	-47.7	-55.9	258	26
2023-08-14T00:00	10567	258	-47.8	-56.4	258	26
2023-08-14T00:00	10585	257	-47.8	-56.9	258	26
2023-08-14T00:00	10602	256	-47.9	-57.2	258	26
2023-08-14T00:00	10623	255	-48.0	-57.3	258	26
2023-08-14T00:00	10640	255	-48.2	-57.4	257	26
2023-08-14T00:00	10659	254	-48.3	-57.3	257	26
2023-08-14T00:00	10675	253	-48.5	-57.5	257	26
2023-08-14T00:00	10695	253	-48.6	-57.6	257	26
2023-08-14T00:00	10717	252	-48.6	-57.9	257	26
2023-08-14T00:00	10736	251	-48.8	-58.3	257	26
2023-08-14T00:00	10758	250	-49.0	-58.3	257	26
2023-08-14T00:00	10777	249	-49.1	-58.2	257	26
2023-08-14T00:00	10794	249	-49.3	-58.2	257	26
2023-08-14T00:00	10816	248	-49.5	-58.3	257	26
2023-08-14T00:00	10837	247	-49.6	-58.4	257	26
2023-08-14T00:00	10856	246	-49.8	-58.7	257	27
2023-08-14T00:00	10875	246	-49.9	-58.9	257	27
2023-08-14T00:00	10896	245	-49.9	-59.7	257	27
2023-08-14T00:00	10914	244	-49.6	-60.5	257	28
2023-08-14T00:00	10936	243	-49.7	-60.9	257	28
2023-08-14T00:00	10954	243	-49.9	-60.8	257	28
2023-08-14T00:00	10974	242	-50.0	-60.7	257	28
2023-08-14T00:00	10994	241	-50.2	-60.9	257	28
2023-08-14T00:00	11015	241	-50.3	-61.5	257	28
2023-08-14T00:00	11036	240	-50.2	-62.1	257	28
2023-08-14T00:00	11055	239	-50.2	-62.5	257	27
2023-08-14T00:00	11077	238	-50.4	-62.9	257	27
2023-08-14T00:00	11097	238	-50.5	-63.2	256	27
2023-08-14T00:00	11116	237	-50.7	-63.6	256	27
2023-08-14T00:00	11138	236	-50.8	-64.2	256	27
2023-08-14T00:00	11157	235	-50.7	-64.8	255	28
2023-08-14T00:00	11177	235	-50.6	-65.5	255	28
2023-08-14T00:00	11195	234	-50.3	-65.8	255	28
2023-08-14T00:00	11212	233	-50.4	-66.0	256	29
2023-08-14T00:00	11231	233	-50.6	-66.0	256	29
2023-08-14T00:00	11251	232	-50.7	-66.1	256	29
2023-08-14T00:00	11270	231	-50.8	-66.3	256	30
2023-08-14T00:00	11288	231	-50.9	-66.4	256	30
2023-08-14T00:00	11308	230	-51.0	-66.5	256	30
2023-08-14T00:00	11325	229	-51.0	-66.5	255	30
2023-08-14T00:00	11344	229	-51.1	-66.6	255	30
2023-08-14T00:00	11362	228	-51.2	-66.8	254	30
2023-08-14T00:00	11381	227	-51.1	-66.7	253	30
2023-08-14T00:00	11399	227	-51.1	-66.8	253	30
2023-08-14T00:00	11419	226	-51.2	-66.9	253	29
2023-08-14T00:00	11436	225	-51.3	-66.9	253	29
2023-08-14T00:00	11456	225	-51.5	-66.9	254	29
2023-08-14T00:00	11475	224	-51.6	-66.9	254	28
2023-08-14T00:00	11493	223	-51.7	-66.9	254	28
2023-08-14T00:00	11511	223	-51.8	-67.0	254	28
2023-08-14T00:00	11531	222	-52.0	-67.0	253	28
2023-08-14T00:00	11550	222	-52.1	-67.0	253	28
2023-08-14T00:00	11569	221	-52.1	-67.0	253	28
2023-08-14T00:00	11589	220	-52.2	-67.0	253	28
2023-08-14T00:00	11607	220	-52.3	-67.0	254	28
2023-08-14T00:00	11625	219	-52.5	-67.1	254	29
2023-08-14T00:00	11644	218	-52.6	-67.0	255	29
2023-08-14T00:00	11662	218	-52.8	-67.0	255	29
2023-08-14T00:00	11683	217	-52.9	-66.9	256	29
2023-08-14T00:00	11705	216	-52.9	-66.9	256	30
2023-08-14T00:00	11723	216	-53.0	-67.0	257	30
2023-08-14T00:00	11742	215	-53.1	-67.1	257	30
2023-08-14T00:00	11761	214	-53.3	-67.3	257	29
2023-08-14T00:00	11778	214	-52.8	-67.2	256	29
2023-08-14T00:00	11797	213	-52.5	-67.5	256	29
2023-08-14T00:00	11816	213	-52.5	-67.8	256	28
2023-08-14T00:00	11834	212	-52.6	-68.1	255	28
2023-08-14T00:00	11852	211	-52.6	-68.1	255	27
2023-08-14T00:00	11870	211	-52.7	-68.3	255	27
2023-08-14T00:00	11889	210	-52.7	-68.5	254	27
2023-08-14T00:00	11908	210	-52.8	-68.6	254	27
2023-08-14T00:00	11929	209	-52.8	-68.8	254	27
2023-08-14T00:00	11948	208	-52.7	-69.0	254	28
2023-08-14T00:00	11966	208	-52.7	-69.3	254	28
2023-08-14T00:00	11988	207	-52.8	-69.4	254	28
2023-08-14T00:00	12007	206	-53.0	-69.5	254	29
2023-08-14T00:00	12026	206	-53.1	-69.4	254	29
2023-08-14T00:00	12045	205	-53.2	-69.5	254	29
2023-08-14T00:00	12063	205	-53.3	-69.6	254	28
2023-08-14T00:00	12084	204	-53.2	-69.8	254	28
2023-08-14T00:00	12104	203	-53.2	-70.1	253	28
2023-08-14T00:00	12121	203	-53.2	-70.4	252	28
2023-08-14T00:00	12142	202	-53.0	-70.6	252	28
2023-08-14T00:00	12161	202	-52.9	-70.9	251	29
2023-08-14T00:00	12180	201	-53.0	-71.0	250	29
2023-08-14T00:00	12199	200	-53.0	-71.1	249	29
2023-08-14T00:00	12218	200	-53.1	-71.3	248	29
2023-08-14T00:00	12236	199	-53.2	-71.4	247	30
2023-08-14T00:00	12258	199	-53.3	-71.4	246	30
2023-08-14T00:00	12277	198	-53.4	-71.5	246	30
2023-08-14T00:00	12295	197	-53.4	-71.6	246	30
2023-08-14T00:00	12315	197	-53.5	-71.7	246	30
2023-08-14T00:00	12335	196	-53.7	-71.9	246	30
2023-08-14T00:00	12353	196	-53.6	-71.9	247	30
2023-08-14T00:00	12372	195	-53.6	-72.2	248	30
2023-08-14T00:00	12392	194	-53.7	-72.5	249	31
2023-08-14T00:00	12413	194	-53.7	-72.6	250	31
2023-08-14T00:00	12432	193	-53.7	-72.9	251	31
2023-08-14T00:00	12452	193	-53.5	-73.2	252	31
2023-08-14T00:00	12470	192	-53.4	-73.5	253	30
2023-08-14T00:00	12490	191	-53.5	-73.8	255	30
2023-08-14T00:00	12509	191	-53.6	-73.9	256	30
2023-08-14T00:00	12530	190	-53.6	-74.1	257	29
2023-08-14T00:00	12548	190	-53.6	-74.5	257	29
2023-08-14T00:00	12567	189	-53.5	-74.9	258	28
2023-08-14T00:00	12587	189	-52.9	-75.2	258	28
2023-08-14T00:00	12608	188	-52.4	-75.6	257	27
2023-08-14T00:00	12627	187	-52.5	-76.0	257	27
2023-08-14T00:00	12647	187	-52.5	-76.0	256	27
2023-08-14T00:00	12667	186	-52.5	-76.0	255	26
2023-08-14T00:00	12687	186	-52.6	-76.3	255	26
2023-08-14T00:00	12708	185	-52.4		254	26
2023-08-14T00:00	12728	185	-52.5	-76.4	254	26
2023-08-14T00:00	12748	184	-52.5	-76.6	254	26
2023-08-14T00:00	12767	183	-52.6	-76.9	255	26
2023-08-14T00:00	12789	183	-52.5	-77.0	255	26
2023-08-14T00:00	12808	182	-52.5	-77.2	256	26
2023-08-14T00:00	12826	182	-52.6	-77.3	256	26
2023-08-14T00:00	12845	181	-52.7	-77.3	256	26
2023-08-14T00:00	12867	181	-52.9	-77.5	257	26
2023-08-14T00:00	12886	180	-53.0	-77.6	258	26
2023-08-14T00:00	12906	179	-53.0	-77.8	258	25
2023-08-14T00:00	12928	179	-53.0	-78.0	259	25
2023-08-14T00:00	12947	178	-52.8	-78.3	259	25
2023-08-14T00:00	12968	178	-52.7		259	25
2023-08-14T00:00	12990	177	-52.8	-78.8	259	25
2023-08-14T00:00	13013	177	-52.9	-78.9	258	25
2023-08-14T00:00	13036	176	-52.8	-78.8	257	25
2023-08-14T00:00	13055	175	-52.7	-79.0	256	25
2023-08-14T00:00	13079	175	-52.7	-79.0	255	25
2023-08-14T00:00	13098	174	-52.8	-79.1	255	26
2023-08-14T00:00	13119	174	-53.0	-79.2	255	26
2023-08-14T00:00	13137	173	-53.1	-79.3	255	26
2023-08-14T00:00	13156	173	-53.0	-79.5	255	26
2023-08-14T00:00	13176	172	-52.8	-79.6	256	25
2023-08-14T00:00	13198	172	-52.2	-79.8	256	25
2023-08-14T00:00	13219	171	-52.1	-80.0	256	25
2023-08-14T00:00	13239	171	-51.6	-80.0	255	25
2023-08-14T00:00	13258	170	-51.4	-80.2	254	25
2023-08-14T00:00	13281	169	-51.5	-80.3	253	25
2023-08-14T00:00	13301	169	-51.4	-80.2	252	25
2023-08-14T00:00	13320	168	-51.5	-80.3	252	25
2023-08-14T00:00	13339	168	-51.6	-80.0	252	25
2023-08-14T00:00	13358	167	-51.8	-80.1	252	25
2023-08-14T00:00	13377	167	-51.9	-80.2	253	25
2023-08-14T00:00	13395	166	-51.9	-80.6	253	25
2023-08-14T00:00	13413	166	-51.7	-80.4	254	25
2023-08-14T00:00	13431	166	-51.7	-80.4	255	24
2023-08-14T00:00	13450	165	-51.6	-80.4	255	24
2023-08-14T00:00	13469	165	-51.7	-80.4	256	24
2023-08-14T00:00	13485	164	-51.7	-80.4	256	24
2023-08-14T00:00	13506	164	-51.7	-80.8	257	24
2023-08-14T00:00	13522	163	-51.7	-80.8	257	23
2023-08-14T00:00	13544	163	-51.6	-80.8	257	23
2023-08-14T00:00	13561	162	-51.6	-80.8	257	23
2023-08-14T00:00	13580	162	-51.4	-80.6	257	22
2023-08-14T00:00	13598	161	-51.5	-81.1	257	22
2023-08-14T00:00	13618	161	-51.4	-81.0	257	21
2023-08-14T00:00	13636	160	-51.3	-80.9	257	21
2023-08-14T00:00	13657	160	-51.4	-81.0	256	20
2023-08-14T00:00	13675	159	-51.5	-81.1	256	20
2023-08-14T00:00	13697	159	-51.6	-81.2	255	19
2023-08-14T00:00	13716	158	-51.5	-81.1	254	19
2023-08-14T00:00	13734	158	-51.6	-81.6	253	19
2023-08-14T00:00	13752	158	-51.5	-81.5	253	19
2023-08-14T00:00	13771	157	-51.6	-81.6	252	19
2023-08-14T00:00	13789	157	-51.5	-81.5	252	19
2023-08-14T00:00	13808	156	-51.3	-81.4	251	19
2023-08-14T00:00	13826	156	-51.2	-81.3	250	19
2023-08-14T00:00	13846	155	-51.1	-81.7	249	19
2023-08-14T00:00	13863	155	-51.1	-81.7	248	19
2023-08-14T00:00	13883	154	-51.1	-81.7	246	18
2023-08-14T00:00	13901	154	-50.9	-81.6	246	18
2023-08-14T00:00	13920	154	-51.0	-81.6	245	18
2023-08-14T00:00	13938	153	-51.0	-81.6	246	18
2023-08-14T00:00	13956	153	-51.1	-81.7	247	18
2023-08-14T00:00	13979	152	-51.0	-81.6	248	18
2023-08-14T00:00	13998	152	-50.9	-81.6	249	18
2023-08-14T00:00	14016	151	-51.0	-81.6	250	18
2023-08-14T00:00	14035	151	-51.0	-81.6	251	18
2023-08-14T00:00	14053	150	-51.1	-81.7	252	18
2023-08-14T00:00	14070	150	-51.2	-81.8	252	18
2023-08-14T00:00	14091	150	-51.3	-81.9	252	17
2023-08-14T00:00	14110	149	-51.5	-81.5	252	17
2023-08-14T00:00	14133	149	-51.6	-81.6	252	17
2023-08-14T00:00	14152	148	-51.6	-81.6	252	17
2023-08-14T00:00	14173	148	-51.6	-81.6	252	17
2023-08-14T00:00	14190	147	-51.7	-81.7	252	18
2023-08-14T00:00	14211	147	-51.7	-81.7	252	18
2023-08-14T00:00	14232	146	-51.9	-81.4	252	18
2023-08-14T00:00	14253	146	-52.0	-81.5	253	18
2023-08-14T00:00	14271	145	-52.1	-81.1	253	18
2023-08-14T00:00	14291	145	-52.2	-80.8	253	18
2023-08-14T00:00	14315	144	-52.3	-80.9	252	18
2023-08-14T00:00	14337	144	-52.3	-80.9	251	18
2023-08-14T00:00	14358	144	-52.0	-80.7	249	18
2023-08-14T00:00	14378	143	-52.1	-80.7	248	18
2023-08-14T00:00	14401	143	-52.3	-80.9	247	18
2023-08-14T00:00	14425	142	-52.5	-81.0	247	18
2023-08-14T00:00	14446	142	-52.7	-81.2	247	18
2023-08-14T00:00	14469	141	-52.8	-81.3	247	18
2023-08-14T00:00	14494	141	-52.9	-81.4	247	18
2023-08-14T00:00	14518	140	-52.6	-81.1	248	18
2023-08-14T00:00	14543	139	-52.8	-81.3	248	17
2023-08-14T00:00	14561	139	-52.9	-81.4	248	17
2023-08-14T00:00	14579	139	-53.1	-81.5	247	17
2023-08-14T00:00	14601	138	-53.1	-81.5	246	17
2023-08-14T00:00	14621	138	-53.2	-81.6	245	17
2023-08-14T00:00	14640	137	-53.2	-81.6	244	16
2023-08-14T00:00	14660	137	-53.3	-81.7	244	16
2023-08-14T00:00	14681	137	-53.3	-81.7	243	17
2023-08-14T00:00	14699	136	-53.4	-81.4	243	17
2023-08-14T00:00	14719	136	-53.5	-81.4	243	17
2023-08-14T00:00	14741	135	-53.6	-81.5	244	17
2023-08-14T00:00	14761	135	-53.8	-81.7	245	17
2023-08-14T00:00	14781	134	-54.0	-81.8	247	17
2023-08-14T00:00	14801	134	-54.1	-81.9	249	16
2023-08-14T00:00	14822	134	-54.2	-82.0	252	16
2023-08-14T00:00	14841	133	-54.2	-82.0	254	16
2023-08-14T00:00	14861	133	-54.3	-82.1	256	15
2023-08-14T00:00	14882	132	-54.3	-82.1	257	15
2023-08-14T00:00	14902	132	-54.3	-82.1	257	14
2023-08-14T00:00	14921	131	-54.3	-82.4	256	14
2023-08-14T00:00	14941	131	-54.2	-82.3	255	13
2023-08-14T00:00	14961	131	-54.3	-82.4	253	13
2023-08-14T00:00	14981	130	-54.4	-82.5	251	13
2023-08-14T00:00	15003	130	-54.6	-82.3	249	13
2023-08-14T00:00	15023	129	-54.7	-82.4	247	13
2023-08-14T00:00	15047	129	-54.9	-82.5	245	13
2023-08-14T00:00	15065	129	-55.1	-82.7	244	13
2023-08-14T00:00	15090	128	-55.2	-82.4	243	13
2023-08-14T00:00	15108	128	-55.4	-82.6	242	13
2023-08-14T00:00	15126	127	-55.6	-82.7	241	14
2023-08-14T00:00	15148	127	-55.7	-82.5	240	14
2023-08-14T00:00	15169	126	-55.9	-82.6	239	14
2023-08-14T00:00	15189	126	-56.0	-82.7	239	15
2023-08-14T00:00	15210	126	-56.2	-82.9	239	15
2023-08-14T00:00	15233	125	-56.3	-82.9	240	15
2023-08-14T00:00	15254	125	-56.5	-83.1	241	16
2023-08-14T00:00	15273	124	-56.3	-83.3	243	16
2023-08-14T00:00	15293	124	-56.1	-83.4	245	16
2023-08-14T00:00	15313	124	-55.1	-83.0	247	16
2023-08-14T00:00	15331	123	-54.9	-83.3	249	16
2023-08-14T00:00	15353	123	-54.9	-83.3	250	15
2023-08-14T00:00	15368	123	-55.0	-83.7	250	15
2023-08-14T00:00	15389	122	-54.9	-83.7	249	14
2023-08-14T00:00	15412	122	-54.8	-83.6	247	14
2023-08-14T00:00	15431	121	-54.6	-83.4	245	13
2023-08-14T00:00	15452	121	-54.5	-83.4	242	13
2023-08-14T00:00	15475	121	-54.5	-83.4	240	14
2023-08-14T00:00	15493	120	-54.5	-83.4	239	14
2023-08-14T00:00	15513	120	-54.6	-83.4	238	15
2023-08-14T00:00	15531	119	-54.7	-83.1	239	15
2023-08-14T00:00	15553	119	-54.8	-83.2	239	15
2023-08-14T00:00	15574	119	-54.9	-83.3	240	16
2023-08-14T00:00	15592	118	-54.9	-83.3	242	16
2023-08-14T00:00	15611	118	-55.0		243	16
2023-08-14T00:00	15632	118	-55.1	-83.8	244	16
2023-08-14T00:00	15652	117	-55.0	-83.7	246	15
2023-08-14T00:00	15672	117	-55.0	-83.7	247	15
2023-08-14T00:00	15691	117	-54.8	-83.6	248	14
2023-08-14T00:00	15713	116	-54.8	-84.0	249	14
2023-08-14T00:00	15733	116	-54.9	-84.1	250	14
2023-08-14T00:00	15753	115	-54.8	-84.0	250	13
2023-08-14T00:00	15774	115	-54.8	-84.0	250	13
2023-08-14T00:00	15794	115	-54.6	-83.9	250	14
2023-08-14T00:00	15816	114	-54.7	-83.9	250	14
2023-08-14T00:00	15837	114	-54.7	-83.9	250	15
2023-08-14T00:00	15857	114	-54.8	-84.0	250	15
2023-08-14T00:00	15880	113	-54.9	-84.1	251	16
2023-08-14T00:00	15900	113	-55.0	-84.2	252	16
2023-08-14T00:00	15921	112	-55.2	-84.3	253	16
2023-08-14T00:00	15942	112	-55.3	-84.4	255	16
2023-08-14T00:00	15962	112	-55.4	-84.5	256	16
2023-08-14T00:00	15985	111	-55.3	-84.4	258	15
2023-08-14T00:00	16002	111	-55.3	-84.4	260	15
2023-08-14T00:00	16021	111	-55.2	-84.8	261	15
2023-08-14T00:00	16041	110	-55.1	-84.7	262	14
2023-08-14T00:00	16062	110	-55.1	-84.7	263	14
2023-08-14T00:00	16085	110	-55.1	-84.7	263	13
2023-08-14T00:00	16105	109	-55.2	-84.8	262	12
2023-08-14T00:00	16123	109	-55.1	-85.2	260	12
2023-08-14T00:00	16143	109	-54.8	-85.0	257	11
2023-08-14T00:00	16166	108	-54.8	-85.0	253	11
2023-08-14T00:00	16186	108	-54.8	-85.5	249	11
2023-08-14T00:00	16206	108	-54.8	-85.5	246	10
2023-08-14T00:00	16227	107	-54.8	-85.5	242	10
2023-08-14T00:00	16248	107	-54.8	-85.0	238	10
2023-08-14T00:00	16269	106	-55.0	-85.1	235	11
2023-08-14T00:00	16292	106	-55.1	-85.2	231	11
2023-08-14T00:00	16311	106	-55.3	-85.4	229	11
2023-08-14T00:00	16334	105	-55.4	-85.4	227	11
2023-08-14T00:00	16357	105	-55.2	-85.3	226	11
2023-08-14T00:00	16377	105	-55.3	-85.4	226	11
2023-08-14T00:00	16395	104	-55.4	-85.4	227	12
2023-08-14T00:00	16417	104	-55.5	-85.5	228	12
2023-08-14T00:00	16434	104	-55.6	-85.6	229	12
2023-08-14T00:00	16451	103	-55.5	-85.5	229	12
2023-08-14T00:00	16473	103	-55.6	-85.1	229	13
2023-08-14T00:00	16493	103	-55.7	-85.2	229	13
2023-08-14T00:00	16514	102	-55.8	-85.2	229	13
2023-08-14T00:00	16533	102	-55.9	-85.3	228	13
2023-08-14T00:00	16552	102	-56.0		228	13
2023-08-14T00:00	16574	101	-56.1	-85.5	228	13
2023-08-14T00:00	16593	101	-56.2	-85.5	227	13
2023-08-14T00:00	16614	101	-56.1	-86.0	227	12
2023-08-14T00:00	16634	101	-55.5	-85.5	227	12
2023-08-14T00:00	16655	100	-55.5	-85.5	227	12
2023-08-14T00:00	16675	100	-55.7	-85.7	227	12
2023-08-14T00:00	16691	100	-55.8	-85.7	228	11
2023-08-14T00:00	16712	99	-56.0	-85.9	229	11
2023-08-14T00:00	16732	99	-56.1	-86.0	231	10
2023-08-14T00:00	16752	99	-56.3	-86.1	232	10
2023-08-14T00:00	16773	98	-56.3	-86.1	233	10
2023-08-14T00:00	16792	98	-56.4	-86.2	233	9
2023-08-14T00:00	16815	98	-56.2	-86.0	233	9
2023-08-14T00:00	16836	97	-56.0	-85.9	231	9
2023-08-14T00:00	16856	97	-55.6	-86.1	229	9
2023-08-14T00:00	16878	97	-55.5	-86.1	226	9
2023-08-14T00:00	16899	96	-55.5	-86.1	224	10
2023-08-14T00:00	16919	96	-55.6	-85.6	222	10
2023-08-14T00:00	16940	96	-55.7	-85.7	219	10
2023-08-14T00:00	16964	95	-55.8	-85.7	217	10
2023-08-14T00:00	16986	95	-55.9	-85.8	215	9
2023-08-14T00:00	17006	95	-55.9	-85.8	213	10
2023-08-14T00:00	17029	94	-56.0	-85.9	212	10
2023-08-14T00:00	17049	94	-55.6	-85.6	213	10
2023-08-14T00:00	17071	94	-55.7	-85.7	215	10
2023-08-14T00:00	17095	94	-55.8	-85.2	217	10
2023-08-14T00:00	17118	93	-55.9	-85.3	220	10
2023-08-14T00:00	17139	93	-55.9	-85.3	222	10
2023-08-14T00:00	17162	93	-56.0		223	10
2023-08-14T00:00	17183	92	-56.0		224	10
2023-08-14T00:00	17206	92	-55.9	-85.3	224	10
2023-08-14T00:00	17228	92	-56.0		222	11
2023-08-14T00:00	17248	91	-56.0		221	11
2023-08-14T00:00	17271	91	-56.1	-85.5	219	11
2023-08-14T00:00	17290	91	-56.2	-85.5	218	11
2023-08-14T00:00	17316	90	-56.4	-85.7	217	11
2023-08-14T00:00	17338	90	-56.5	-85.8	216	11
2023-08-14T00:00	17360	90	-56.4	-85.7	216	12
2023-08-14T00:00	17380	89	-56.5	-85.8	217	12
2023-08-14T00:00	17402	89	-56.5	-85.8	218	12
2023-08-14T00:00	17425	89	-56.4	-85.7	219	12
2023-08-14T00:00	17449	88	-56.6	-85.8	220	13
2023-08-14T00:00	17470	88	-56.7	-85.9	222	13
2023-08-14T00:00	17492	88	-56.8	-86.0	224	13
2023-08-14T00:00	17514	88	-56.9	-86.1	225	13
2023-08-14T00:00	17533	87	-57.1	-86.2	226	13
2023-08-14T00:00	17557	87	-57.3	-85.9	228	13
2023-08-14T00:00	17577	87	-57.3	-85.9	229	13
2023-08-14T00:00	17597	86	-57.4	-86.0	230	13
2023-08-14T00:00	17619	86	-57.5	-86.1	232	12
2023-08-14T00:00	17640	86	-57.5	-86.1	233	12
2023-08-14T00:00	17659	86	-57.5	-86.5	234	12
2023-08-14T00:00	17681	85	-57.3	-86.4	236	11
2023-08-14T00:00	17702	85	-57.2	-86.8	237	11
2023-08-14T00:00	17722	85	-57.1	-86.7	239	11
2023-08-14T00:00	17745	84	-56.8	-86.5	239	11
2023-08-14T00:00	17765	84	-56.4	-86.2	239	11
2023-08-14T00:00	17786	84	-56.3	-86.6	238	11
2023-08-14T00:00	17806	84	-55.9	-86.3	236	11
2023-08-14T00:00	17829	83	-55.8	-86.3	233	11
2023-08-14T00:00	17849	83	-55.8	-86.3	231	11
2023-08-14T00:00	17871	83	-55.8	-86.3	229	11
2023-08-14T00:00	17896	82	-56.0	-86.4	227	11
2023-08-14T00:00	17915	82	-56.2	-86.6	225	11
2023-08-14T00:00	17938	82	-56.3	-86.6	223	11
2023-08-14T00:00	17960	82	-55.8	-86.3	222	11
2023-08-14T00:00	17981	81	-55.1	-85.8	221	11
2023-08-14T00:00	18000	81	-55.1	-85.8	220	12
2023-08-14T00:00	18022	81	-55.2	-85.8	219	12
2023-08-14T00:00	18046	81	-55.4	-86.0	219	13
2023-08-14T00:00	18065	80	-55.4	-86.6	220	13
2023-08-14T00:00	18086	80	-55.0	-86.3	221	13
2023-08-14T00:00	18105	80	-54.8	-86.1	223	13
2023-08-14T00:00	18128	79	-54.9	-86.2	225	13
2023-08-14T00:00	18146	79	-54.8	-86.1	227	13
2023-08-14T00:00	18166	79	-54.9	-86.2	230	13
2023-08-14T00:00	18187	79	-55.0	-86.3	232	12
2023-08-14T00:00	18208	78	-55.0	-86.3	235	12
2023-08-14T00:00	18228	78	-54.9	-86.2	237	12
2023-08-14T00:00	18249	78	-54.8	-86.1	239	11
2023-08-14T00:00	18269	78	-54.7	-86.1	241	11
2023-08-14T00:00	18290	77	-54.4	-85.8	242	11
2023-08-14T00:00	18311	77	-54.2	-85.7	242	10
2023-08-14T00:00	18329	77	-54.1	-85.6	243	10
2023-08-14T00:00	18353	77	-54.0	-85.5	243	9
2023-08-14T00:00	18377	76	-53.8	-85.4	243	9
2023-08-14T00:00	18395	76	-53.8	-85.4	243	8
2023-08-14T00:00	18416	76	-53.8	-85.4	243	8
2023-08-14T00:00	18438	76	-54.0	-85.5	243	7
2023-08-14T00:00	18461	75	-54.2	-85.7	242	7
2023-08-14T00:00	18481	75	-54.2	-85.7	241	7
2023-08-14T00:00	18501	75	-54.3	-85.8	240	6
2023-08-14T00:00	18524	75	-54.4	-85.8	239	6
2023-08-14T00:00	18548	74	-54.4	-85.8	236	5
2023-08-14T00:00	18570	74	-54.5	-85.9	232	5
2023-08-14T00:00	18593	74	-54.6	-86.0	226	5
2023-08-14T00:00	18614	74	-54.7	-86.1	217	4
2023-08-14T00:00	18636	73	-54.7	-86.1	207	4
2023-08-14T00:00	18660	73	-54.8	-86.1	197	5
2023-08-14T00:00	18681	73	-54.5	-85.9	188	5
2023-08-14T00:00	18704	73	-54.3	-85.8	182	5
2023-08-14T00:00	18727	72	-54.2	-85.7	179	6
2023-08-14T00:00	18750	72	-54.3	-85.8	179	6
2023-08-14T00:00	18768	72	-54.5	-85.9	181	7
2023-08-14T00:00	18792	72	-54.3	-85.8	183	7
2023-08-14T00:00	18814	71	-54.4	-85.8	186	8
2023-08-14T00:00	18840	71	-54.5	-85.9	187	8
2023-08-14T00:00	18861	71	-54.6	-86.0	188	8
2023-08-14T00:00	18885	71	-54.8	-86.1	187	9
2023-08-14T00:00	18904	70	-55.0	-86.3	187	9
2023-08-14T00:00	18926	70	-55.1	-86.4	186	9
2023-08-14T00:00	18949	70	-55.2	-86.4	187	9
2023-08-14T00:00	18973	70	-55.2	-86.4	189	9
2023-08-14T00:00	18994	69	-55.3	-86.5	193	9
2023-08-14T00:00	19016	69	-55.3	-86.5	197	8
2023-08-14T00:00	19035	69	-55.4	-86.6	201	8
2023-08-14T00:00	19058	69	-55.3	-86.5	205	8
2023-08-14T00:00	19080	68	-55.3	-86.5	207	8
2023-08-14T00:00	19099	68	-55.3	-86.5	207	8
2023-08-14T00:00	19122	68	-55.1	-86.4	206	8
2023-08-14T00:00	19145	68	-55.1	-86.4	203	7
2023-08-14T00:00	19167	68	-55.2	-86.4	201	8
2023-08-14T00:00	19190	67	-55.2	-86.4	199	8
2023-08-14T00:00	19207	67	-55.2	-86.4	199	8
2023-08-14T00:00	19232	67	-55.2	-86.4	199	9
2023-08-14T00:00	19254	67	-55.4	-86.6	200	9
2023-08-14T00:00	19275	66	-55.5	-86.1	201	10
2023-08-14T00:00	19298	66	-55.6	-86.1	203	10
2023-08-14T00:00	19320	66	-55.8	-86.3	205	10
2023-08-14T00:00	19341	66	-56.0	-86.4	206	9
2023-08-14T00:00	19365	66	-56.2	-86.6	208	9
2023-08-14T00:00	19386	65	-56.2	-86.6	209	8
2023-08-14T00:00	19406	65	-56.3	-86.6	208	8
2023-08-14T00:00	19430	65	-56.3	-86.6	207	7
2023-08-14T00:00	19449	65	-56.3	-86.6	203	7
2023-08-14T00:00	19471	64	-56.2	-86.6	199	6
2023-08-14T00:00	19492	64	-56.1	-86.5	195	6
2023-08-14T00:00	19518	64	-56.0	-87.0	192	6
2023-08-14T00:00	19542	64	-56.2	-87.2	192	6
2023-08-14T00:00	19564	63	-56.0	-87.0	194	6
2023-08-14T00:00	19587	63	-55.8	-86.9	197	6
2023-08-14T00:00	19611	63	-55.7	-86.8	200	6
2023-08-14T00:00	19633	63	-55.5	-87.3	201	5
2023-08-14T00:00	19654	63	-55.2	-87.1	198	5
2023-08-14T00:00	19676	62	-54.7	-86.7	190	5
2023-08-14T00:00	19698	62	-54.6	-86.7	181	5
2023-08-14T00:00	19721	62	-54.0	-86.2	174	5
2023-08-14T00:00	19742	62	-53.8	-86.1	170	5
2023-08-14T00:00	19764	62	-53.9	-86.2	169	6
2023-08-14T00:00	19790	61	-54.0	-86.2	169	7
2023-08-14T00:00	19811	61	-54.1	-86.3	171	7
2023-08-14T00:00	19837	61	-54.1	-86.3	173	8
2023-08-14T00:00	19863	61	-54.2	-86.4	176	8
2023-08-14T00:00	19884	60	-54.3	-86.4	180	8
2023-08-14T00:00	19909	60	-54.2	-86.4	184	8
2023-08-14T00:00	19928	60	-54.3	-86.4	188	8
2023-08-14T00:00	19955	60	-54.4	-85.8	192	8
2023-08-14T00:00	19976	59	-54.5	-85.9	196	8
2023-08-14T00:00	20004	59	-54.5	-85.9	200	8
2023-08-14T00:00	20027	59	-54.7	-86.1	204	8
2023-08-14T00:00	20048	59	-54.6	-86.0	208	8
2023-08-14T00:00	20073	59	-54.7	-86.1	212	7
2023-08-14T00:00	20096	58	-54.8	-86.1	216	7
2023-08-14T00:00	20117	58	-54.8	-86.1	218	7
2023-08-14T00:00	20139	58	-54.9	-86.2	220	6
2023-08-14T00:00	20166	58	-54.9	-86.2	219	5
2023-08-14T00:00	20192	58	-54.9	-86.9	217	5
2023-08-14T00:00	20217	57	-54.6	-86.7	211	5
2023-08-14T00:00	20240	57	-54.5	-86.6	204	5
2023-08-14T00:00	20261	57	-54.6	-86.7	196	5
2023-08-14T00:00	20286	57	-54.7	-86.7	189	5
2023-08-14T00:00	20315	56	-54.7	-86.7	183	5
2023-08-14T00:00	20338	56	-54.7	-86.7	177	4
2023-08-14T00:00	20360	56	-54.8	-86.8	172	4
2023-08-14T00:00	20381	56	-54.6	-86.7	165	3
2023-08-14T00:00	20404	56	-54.6	-86.7	158	3
2023-08-14T00:00	20426	55	-54.6	-86.7	149	3
2023-08-14T00:00	20448	55	-54.4	-86.5	142	3
2023-08-14T00:00	20472	55	-54.2	-86.4	136	3
2023-08-14T00:00	20496	55	-54.1	-86.3	134	3
2023-08-14T00:00	20520	55	-54.1	-86.3	135	3
2023-08-14T00:00	20543	54	-54.2	-86.4	137	4
2023-08-14T00:00	20565	54	-54.3	-86.4	141	4
2023-08-14T00:00	20589	54	-54.4	-86.5	144	4
2023-08-14T00:00	20613	54	-54.5	-85.9	147	5
2023-08-14T00:00	20638	54	-54.7	-86.1	149	5
2023-08-14T00:00	20660	53	-54.8	-86.1	150	5
2023-08-14T00:00	20684	53	-54.9	-86.2	151	5
2023-08-14T00:00	20706	53	-54.9	-86.2	153	5
2023-08-14T00:00	20730	53	-54.7	-86.1	155	6
2023-08-14T00:00	20753	53	-54.8	-86.1	159	6
2023-08-14T00:00	20778	53	-55.0	-86.3	162	6
2023-08-14T00:00	20805	52	-55.2	-86.4	165	6
2023-08-14T00:00	20827	52	-55.4	-86.6	168	7
2023-08-14T00:00	20851	52	-55.6	-86.7	170	6
2023-08-14T00:00	20873	52	-55.7	-86.8	172	6
2023-08-14T00:00	20895	52	-55.3	-86.5	173	6
2023-08-14T00:00	20920	51	-55.0	-87.0	175	5
2023-08-14T00:00	20944	51	-54.8	-86.8	178	5
2023-08-14T00:00	20965	51	-54.8	-86.8	182	5
2023-08-14T00:00	20992	51	-54.9	-86.9	189	4
2023-08-14T00:00	21014	51	-54.8	-86.8	196	4
2023-08-14T00:00	21036	50	-54.9	-86.9	202	5
2023-08-14T00:00	21064	50	-54.9	-86.9	207	5
2023-08-14T00:00	21084	50	-55.0	-87.0	211	4
2023-08-14T00:00	21108	50	-54.9	-86.9	213	4
2023-08-14T00:00	21130	50	-54.6	-86.7	214	3
2023-08-14T00:00	21155	50	-54.5	-86.6	215	2
2023-08-14T00:00	21175	49	-54.3	-86.4	212	2
2023-08-14T00:00	21200	49	-54.3	-86.4	189	1
2023-08-14T00:00	21225	49	-54.2	-86.4	89	1
2023-08-14T00:00	21252	49	-54.1	-86.3	75	2
2023-08-14T00:00	21277	49	-54.1	-86.3	78	2
2023-08-14T00:00	21297	48	-54.1	-86.3	84	3
2023-08-14T00:00	21324	48	-54.1	-86.3	92	3
2023-08-14T00:00	21346	48	-54.2	-86.4	99	3
2023-08-14T00:00	21369	48	-54.3	-86.4	104	4
2023-08-14T00:00	21392	48	-54.4	-86.5	109	4
2023-08-14T00:00	21415	48	-54.6	-86.7	113	4
2023-08-14T00:00	21438	47	-54.5	-86.6	118	4
2023-08-14T00:00	21464	47	-54.7	-86.7	122	4
2023-08-14T00:00	21487	47	-54.7	-86.7	124	4
2023-08-14T00:00	21512	47	-54.6	-86.7	123	4
2023-08-14T00:00	21537	47	-54.6	-86.7	119	4
2023-08-14T00:00	21556	46	-54.4	-86.5	113	4
2023-08-14T00:00	21582	46	-54.3	-86.4	108	4
2023-08-14T00:00	21604	46	-54.0	-86.2	104	4
2023-08-14T00:00	21628	46	-53.9	-86.2	103	5
2023-08-14T00:00	21652	46	-54.0	-86.2	104	5
2023-08-14T00:00	21672	46	-54.1	-86.3	106	5
2023-08-14T00:00	21697	45	-54.0	-86.2	110	5
2023-08-14T00:00	21722	45	-54.0	-86.2	114	6
2023-08-14T00:00	21746	45	-54.1	-86.3	120	6
2023-08-14T00:00	21767	45	-54.2	-86.4	125	7
2023-08-14T00:00	21795	45	-54.3	-86.4	132	7
2023-08-14T00:00	21817	45	-54.2	-86.4	138	7
2023-08-14T00:00	21839	44	-54.1	-86.3	143	8
2023-08-14T00:00	21865	44	-53.9	-86.2	149	8
2023-08-14T00:00	21884	44	-53.7	-86.0	154	8
2023-08-14T00:00	21910	44	-53.6		159	8
2023-08-14T00:00	21935	44	-53.6	-86.7	164	8
2023-08-14T00:00	21959	44	-53.8	-86.8	168	8
2023-08-14T00:00	21979	44	-53.6	-86.7	172	7
2023-08-14T00:00	22005	43	-53.4	-86.5	174	7
2023-08-14T00:00	22028	43	-53.5	-86.6	175	7
2023-08-14T00:00	22048	43	-53.5	-85.9	175	6
2023-08-14T00:00	22071	43	-53.4	-85.8	175	6
2023-08-14T00:00	22095	43	-53.4	-85.8	175	6
2023-08-14T00:00	22121	43	-53.4	-85.8	174	6
2023-08-14T00:00	22143	42	-53.4	-85.8	171	5
2023-08-14T00:00	22167	42	-53.4	-86.5	167	5
2023-08-14T00:00	22191	42	-53.4	-86.5	161	5
2023-08-14T00:00	22218	42	-53.3	-86.5	154	5
2023-08-14T00:00	22241	42	-53.3	-86.5	146	5
2023-08-14T00:00	22265	42	-53.4	-86.5	139	5
2023-08-14T00:00	22285	42	-53.4	-85.8	134	5
2023-08-14T00:00	22309	41	-53.4	-85.8	131	5
2023-08-14T00:00	22336	41	-53.4	-85.8	132	6
2023-08-14T00:00	22362	41	-53.4	-85.8	134	6
2023-08-14T00:00	22384	41	-53.3	-85.7	138	6
2023-08-14T00:00	22409	41	-53.4	-85.8	142	6
2023-08-14T00:00	22434	41	-53.5	-85.9	146	6
2023-08-14T00:00	22457	40	-53.5	-85.9	148	6
2023-08-14T00:00	22484	40	-53.5	-85.9	149	5
2023-08-14T00:00	22509	40	-53.7	-86.0	149	5
2023-08-14T00:00	22534	40	-53.8	-86.1	149	5
2023-08-14T00:00	22559	40	-53.9	-86.2	148	4
2023-08-14T00:00	22580	40	-54.0	-86.2	147	4
2023-08-14T00:00	22610	39	-54.0	-86.2	146	4
2023-08-14T00:00	22635	39	-54.1	-86.3	144	4
2023-08-14T00:00	22659	39	-54.0	-86.2	142	3
2023-08-14T00:00	22687	39	-54.0	-86.2	141	4
2023-08-14T00:00	22709	39	-53.9	-86.2	141	4
2023-08-14T00:00	22737	39	-54.0	-86.2	141	4
2023-08-14T00:00	22760	39	-54.1	-86.3	142	4
2023-08-14T00:00	22786	38	-54.1	-86.3	142	4
2023-08-14T00:00	22811	38	-54.2	-86.4	140	4
2023-08-14T00:00	22841	38	-54.2	-86.4	135	3
2023-08-14T00:00	22861	38	-54.2	-86.4	128	3
2023-08-14T00:00	22880	38	-54.1	-86.3	120	3
2023-08-14T00:00	22909	38	-54.1	-86.3	113	4
2023-08-14T00:00	22938	38	-53.9	-86.2	109	4
2023-08-14T00:00	22965	37	-53.9	-86.2	108	5
2023-08-14T00:00	22989	37	-53.8	-86.1	110	5
2023-08-14T00:00	23012	37	-53.8	-86.1	112	5
2023-08-14T00:00	23040	37	-53.9	-86.2	115	5
2023-08-14T00:00	23063	37	-53.9	-86.9	118	4
2023-08-14T00:00	23088	37	-53.7	-86.8	120	4
2023-08-14T00:00	23111	37	-53.6	-86.7	120	4
2023-08-14T00:00	23134	36	-53.3	-86.5	119	4
2023-08-14T00:00	23158	36	-53.3	-86.5	120	4
2023-08-14T00:00	23181	36	-53.4	-86.5	121	5
2023-08-14T00:00	23207	36	-53.3	-86.5	123	5
2023-08-14T00:00	23232	36	-52.9	-86.2	126	6
2023-08-14T00:00	23255	36	-52.8	-86.1	129	7
2023-08-14T00:00	23280	36	-52.9	-86.2	133	7
2023-08-14T00:00	23302	35	-53.0	-86.3	136	7
2023-08-14T00:00	23322	35	-53.1	-86.3	138	7
2023-08-14T00:00	23346	35	-53.1	-86.3	140	7
2023-08-14T00:00	23370	35	-53.1	-86.3	140	7
2023-08-14T00:00	23397	35	-52.9	-86.2	139	6
2023-08-14T00:00	23423	35	-52.8	-86.1	135	5
2023-08-14T00:00	23450	35	-52.5	-85.9	129	5
2023-08-14T00:00	23467	35	-52.4	-85.8	121	4
2023-08-14T00:00	23495	34	-52.5	-85.9	111	4
2023-08-14T00:00	23519	34	-52.6		100	3
2023-08-14T00:00	23538	34	-52.7	-86.0	90	3
2023-08-14T00:00	23563	34	-52.6		85	3
2023-08-14T00:00	23583	34	-52.6		84	4
2023-08-14T00:00	23612	34	-52.6		86	4
2023-08-14T00:00	23631	34	-52.5	-85.9	88	5
2023-08-14T00:00	23658	34	-52.5	-85.9	90	5
2023-08-14T00:00	23681	33	-52.5	-85.9	90	6
2023-08-14T00:00	23710	33	-52.6		91	6
2023-08-14T00:00	23735	33	-52.8	-86.1	91	7
2023-08-14T00:00	23757	33	-52.8	-86.1	92	7
2023-08-14T00:00	23779	33	-52.9	-86.2	93	8
2023-08-14T00:00	23807	33	-53.0	-86.3	94	8
2023-08-14T00:00	23828	33	-53.1	-86.3	96	8
2023-08-14T00:00	23855	33	-53.2	-85.6	97	8
2023-08-14T00:00	23879	32	-53.4	-85.8	99	8
2023-08-14T00:00	23906	32	-53.5	-85.9	101	8
2023-08-14T00:00	23930	32	-53.6	-86.7	102	8
2023-08-14T00:00	23956	32	-53.6	-86.7	104	7
2023-08-14T00:00	23984	32	-53.4	-86.5	106	7
2023-08-14T00:00	24012	32	-53.2	-86.4	107	6
2023-08-14T00:00	24037	32	-52.8	-86.1	109	5
2023-08-14T00:00	24061	32	-52.7	-86.0	112	5
2023-08-14T00:00	24086	31	-52.7	-86.0	113	4
2023-08-14T00:00	24112	31	-52.7	-86.0	113	4
2023-08-14T00:00	24132	31	-52.8	-86.1	109	4
2023-08-14T00:00	24161	31	-52.8	-86.1	102	3
2023-08-14T00:00	24193	31	-52.8	-86.1	92	4
2023-08-14T00:00	24217	31	-52.8	-86.1	84	4
2023-08-14T00:00	24246	31	-52.9	-86.2	78	4
2023-08-14T00:00	24270	31	-52.8	-86.1	76	5
2023-08-14T00:00	24288	30	-52.7	-86.0	76	5
2023-08-14T00:00	24320	30	-52.9	-86.2	77	6
2023-08-14T00:00	24341	30	-52.9	-86.2	80	7
2023-08-14T00:00	24374	30	-52.9	-86.2	82	7
2023-08-14T00:00	24400	30	-52.7	-86.0	84	8
2023-08-14T00:00	24426	30	-52.7	-86.0	87	8
2023-08-14T00:00	24456	30	-52.7	-86.0	89	9
2023-08-14T00:00	24478	30	-52.6		92	9
2023-08-14T00:00	24504	29	-52.5	-85.9	95	9
2023-08-14T00:00	24531	29	-52.6		97	10
2023-08-14T00:00	24559	29	-52.6		100	10
2023-08-14T00:00	24586	29	-52.7	-86.0	102	10
2023-08-14T00:00	24608	29	-52.8	-86.1	104	10
2023-08-14T00:00	24637	29	-52.9	-86.2	106	10
2023-08-14T00:00	24664	29	-53.0	-86.3	107	11
2023-08-14T00:00	24691	29	-53.1	-86.3	107	11
2023-08-14T00:00	24716	28	-53.2	-86.4	108	11
2023-08-14T00:00	24745	28	-53.2	-86.4	110	12
2023-08-14T00:00	24771	28	-53.1	-86.3	112	12
2023-08-14T00:00	24795	28	-53.1	-86.3	114	12
2023-08-14T00:00	24819	28	-53.1	-86.3	117	11
2023-08-14T00:00	24848	28	-53.0	-86.3	120	11
2023-08-14T00:00	24882	28	-52.9	-86.2	124	10
2023-08-14T00:00	24899	28	-52.9	-86.2	128	9
2023-08-14T00:00	24928	28	-53.0	-86.3	131	9
2023-08-14T00:00	24956	27	-53.0	-86.3	134	8
2023-08-14T00:00	24976	27	-52.9	-86.2	135	8
2023-08-14T00:00	25003	27	-52.7	-86.0	134	7
2023-08-14T00:00	25027	27	-52.6		131	7
2023-08-14T00:00	25049	27	-52.5	-85.9	128	7
2023-08-14T00:00	25080	27	-52.4	-85.8	125	7
2023-08-14T00:00	25106	27	-52.4	-85.8	122	8
2023-08-14T00:00	25127	27	-52.5	-85.9	119	8
2023-08-14T00:00	25152	27	-52.6		118	9
2023-08-14T00:00	25176	27	-52.7	-86.0	117	9
2023-08-14T00:00	25204	26	-52.8	-86.1	117	10
2023-08-14T00:00	25230	26	-52.7	-86.0	117	10
2023-08-14T00:00	25250	26	-52.6		119	10
2023-08-14T00:00	25278	26	-52.3	-86.6	121	9
2023-08-14T00:00	25297	26	-52.4	-86.7	123	9
2023-08-14T00:00	25325	26	-52.1	-86.5	125	8
2023-08-14T00:00	25352	26	-51.9	-86.3	127	7
2023-08-14T00:00	25375	26	-51.7	-86.2	129	7
2023-08-14T00:00	25396	26	-51.6	-86.1	131	6
2023-08-14T00:00	25422	26	-51.5	-86.1	133	6
2023-08-14T00:00	25442	25	-51.6	-86.1	135	5
2023-08-14T00:00	25470	25	-51.6	-86.1	137	5
2023-08-14T00:00	25493	25	-51.5	-86.1	140	5
2023-08-14T00:00	25519	25	-51.5	-86.1	144	4
2023-08-14T00:00	25536	25	-51.4	-86.0	146	4
2023-08-14T00:00	25564	25	-51.4	-86.0	147	4
2023-08-14T00:00	25588	25	-51.4	-86.0	142	3
2023-08-14T00:00	25615	25	-51.4	-86.0	135	4
2023-08-14T00:00	25640	25	-51.2	-85.8	128	4
2023-08-14T00:00	25660	25	-51.2	-85.8	123	5
2023-08-14T00:00	25682	25	-51.3	-85.9	121	5
2023-08-14T00:00	25718	24	-51.2	-85.8	120	6
2023-08-14T00:00	25736	24	-51.2	-85.8	121	6
2023-08-14T00:00	25762	24	-51.1	-85.8	124	6
2023-08-14T00:00	25784	24	-50.9	-85.6	127	6
2023-08-14T00:00	25807	24	-50.7	-85.5	131	6
2023-08-14T00:00	25834	24	-50.6	-85.4	136	5
2023-08-14T00:00	25861	24	-50.5	-85.3	144	4
2023-08-14T00:00	25890	24	-50.5	-85.3	153	3
2023-08-14T00:00	25910	24	-50.4	-85.3	162	2
2023-08-14T00:00	25933	24	-50.5	-85.3	168	2
2023-08-14T00:00	25962	24	-50.5	-85.3	167	2
2023-08-14T00:00	25984	23	-50.0	-86.0	156	1
2023-08-14T00:00	26017	23	-49.9	-86.0	137	1
2023-08-14T00:00	26034	23	-49.7	-85.8	116	2
2023-08-14T00:00	26068	23	-49.6	-85.8	100	2
2023-08-14T00:00	26085	23	-49.6	-85.8	90	2
2023-08-14T00:00	26113	23	-49.6	-85.8	84	3
2023-08-14T00:00	26142	23	-49.5	-85.7	81	4
2023-08-14T00:00	26168	23	-49.3	-85.5	79	4
2023-08-14T00:00	26191	23	-49.2	-85.5	79	4
2023-08-14T00:00	26215	23	-49.2	-85.5	80	5
2023-08-14T00:00	26241	23	-49.0	-85.3	82	5
2023-08-14T00:00	26265	22	-49.0	-85.3	84	5
2023-08-14T00:00	26293	22	-49.0	-85.3	86	5
2023-08-14T00:00	26326	22	-49.1	-85.4	88	6
2023-08-14T00:00	26344	22	-49.0	-85.3	91	6
2023-08-14T00:00	26371	22	-49.0	-85.3	94	6
2023-08-14T00:00	26403	22	-48.9	-85.3	97	6
2023-08-14T00:00	26427	22	-48.8	-85.2	100	6
2023-08-14T00:00	26453	22	-48.7	-85.1	103	6
2023-08-14T00:00	26480	22	-48.8	-85.2	106	6
2023-08-14T00:00	26511	22	-48.5	-85.0	107	6
2023-08-14T00:00	26534	22	-48.3	-84.8	107	5
2023-08-14T00:00	26555	21	-48.2	-84.8	106	5
2023-08-14T00:00	26586	21	-48.1	-84.7	104	5
2023-08-14T00:00	26617	21	-48.1	-84.7	102	5
2023-08-14T00:00	26634	21	-48.2	-84.8	100	6
2023-08-14T00:00	26659	21	-48.2	-84.8	100	6
2023-08-14T00:00	26686	21	-48.1	-84.7	100	6
2023-08-14T00:00	26718	21	-48.0	-84.6	102	6
2023-08-14T00:00	26741	21	-48.1	-84.7	104	7
2023-08-14T00:00	26768	21	-48.1	-84.7	107	7
2023-08-14T00:00	26793	21	-48.3	-84.8	110	7
2023-08-14T00:00	26816	21	-48.2	-84.8	113	7
2023-08-14T00:00	26853	21	-48.2	-84.8	116	7
2023-08-14T00:00	26865	20	-48.1	-84.7	118	7
2023-08-14T00:00	26897	20	-48.1	-84.7	121	7
2023-08-14T00:00	26929	20	-48.2	-84.8	122	7
2023-08-14T00:00	26947	20	-48.2	-84.8	123	6
2023-08-14T00:00	26974	20	-48.1	-84.7	122	6
2023-08-14T00:00	27001	20	-48.0	-84.6	118	5
2023-08-14T00:00	27026	20	-47.9	-84.6	113	5
2023-08-14T00:00	27055	20	-47.7	-84.4	107	4
2023-08-14T00:00	27087	20	-47.8	-84.5	102	4
2023-08-14T00:00	27107	20	-47.9	-84.6	101	4
2023-08-14T00:00	27127	20	-48.0	-84.6	102	4
2023-08-14T00:00	27156	20	-47.8	-84.5	105	5
2023-08-14T00:00	27189	20	-47.7	-84.4	108	5
2023-08-14T00:00	27208	19	-47.7	-84.4	109	5
2023-08-14T00:00	27236	19	-47.7	-84.4	110	5
2023-08-14T00:00	27255	19	-47.8	-84.5	109	5
2023-08-14T00:00	27280	19	-47.8	-84.5	109	5
2023-08-14T00:00	27312	19	-47.9	-84.6	109	5
2023-08-14T00:00	27341	19	-47.9	-84.6	110	6
2023-08-14T00:00	27362	19	-48.0	-84.6	111	6
2023-08-14T00:00	27399	19	-48.0	-84.6	114	6
2023-08-14T00:00	27407	19	-48.0	-84.6	118	6
2023-08-14T00:00	27433	19	-48.0	-84.6	122	6
2023-08-14T00:00	27460	19	-48.0	-84.6	127	6
2023-08-14T00:00	27488	19	-48.0	-84.6	131	6
2023-08-14T00:00	27516	19	-48.0	-84.6	133	6
2023-08-14T00:00	27537	19	-47.9	-84.6	136	6
2023-08-14T00:00	27564	18	-48.0	-84.6	138	6
2023-08-14T00:00	27591	18	-48.2	-84.8	140	6
2023-08-14T00:00	27620	18	-48.2	-84.8	143	6
2023-08-14T00:00	27640	18	-48.2	-84.8	147	5
2023-08-14T00:00	27671	18	-48.0	-84.6	151	5
2023-08-14T00:00	27694	18	-47.8	-84.5	156	5
2023-08-14T00:00	27718	18	-47.7	-84.4	158	5
2023-08-14T00:00	27744	18	-47.5	-84.3	158	5
2023-08-14T00:00	27767	18	-47.4	-84.2	156	5
2023-08-14T00:00	27807	18	-47.4	-84.2	153	5
2023-08-14T00:00	27816	18	-47.3	-84.1	148	5
2023-08-14T00:00	27856	18	-47.2	-84.1	143	4
2023-08-14T00:00	27869	18	-47.3	-84.1	138	4
2023-08-14T00:00	27893	18	-47.5	-84.3	133	4
2023-08-14T00:00	27925	17	-47.6	-84.3	129	4
2023-08-14T00:00	27944	17	-47.8	-84.5	127	4
2023-08-14T00:00	27974	17	-48.0	-84.6	125	4
2023-08-14T00:00	28008	17	-48.0	-84.6	123	4
2023-08-14T00:00	28035	17	-48.0	-84.6	121	4
2023-08-14T00:00	28058	17	-48.0	-84.6	118	4
2023-08-14T00:00	28089	17	-48.0	-84.6	116	4
2023-08-14T00:00	28114	17	-48.0	-84.6	113	4
2023-08-14T00:00	28148	17	-47.9	-84.6	111	4
2023-08-14T00:00	28163	17	-47.8	-84.5	110	4
2023-08-14T00:00	28197	17	-47.6	-84.3	108	4
2023-08-14T00:00	28227	17	-47.6	-84.3	107	4
2023-08-14T00:00	28240	17	-47.6	-84.3	106	5
2023-08-14T00:00	28279	17	-47.6	-84.3	107	5
2023-08-14T00:00	28306	16	-47.6	-84.3	108	6
2023-08-14T00:00	28325	16	-47.4	-84.2	110	6
2023-08-14T00:00	28356	16	-47.3	-84.1	112	6
2023-08-14T00:00	28384	16	-47.5	-84.3	113	7
2023-08-14T00:00	28414	16	-47.5	-84.3	115	7
2023-08-14T00:00	28429	16	-47.5	-84.3	117	7
2023-08-14T00:00	28455	16	-47.7	-84.4	119	6
2023-08-14T00:00	28492	16	-47.7	-84.4	121	6
2023-08-14T00:00	28519	16	-47.5	-84.3	124	6
2023-08-14T00:00	28534	16	-47.1	-84.0	125	5
2023-08-14T00:00	28578	16	-46.9	-83.9	126	5
2023-08-14T00:00	28595	16	-46.7	-83.7	126	5
2023-08-14T00:00	28627	16	-46.4	-83.5	127	4
2023-08-14T00:00	28654	16	-46.2	-83.4	127	4
2023-08-14T00:00	28668	16	-46.0	-83.2	129	3
2023-08-14T00:00	28717	16	-46.1	-83.3	130	3
2023-08-14T00:00	28726	15	-46.1	-83.3	131	3
2023-08-14T00:00	28757	15	-46.0	-83.2	131	3
2023-08-14T00:00	28781	15	-46.0	-83.2	129	3
2023-08-14T00:00	28812	15	-46.1	-83.3	127	4
2023-08-14T00:00	28846	15	-46.1	-83.3	125	4
2023-08-14T00:00	28869	15	-46.0	-83.2	125	4
2023-08-14T00:00	28895	15	-46.0	-83.2	126	4
2023-08-14T00:00	28917	15	-46.0	-83.2	127	5
2023-08-14T00:00	28951	15	-46.0	-83.2	127	5
2023-08-14T00:00	28969	15	-46.0	-83.2	126	5
2023-08-14T00:00	29005	15	-45.8	-83.1	123	6
2023-08-14T00:00	29033	15	-45.8	-83.1	120	6
2023-08-14T00:00	29054	15	-46.0	-83.2	117	6
2023-08-14T00:00	29094	15	-46.0	-83.2	114	6
2023-08-14T00:00	29107	15	-45.9	-83.2	112	7
2023-08-14T00:00	29143	15	-45.7	-83.0	111	7
2023-08-14T00:00	29177	14	-45.6	-82.9	110	7
2023-08-14T00:00	29202	14	-45.6	-82.9	112	7
2023-08-14T00:00	29233	14	-45.5	-82.9	115	7
2023-08-14T00:00	29257	14	-45.6	-82.9	120	7
2023-08-14T00:00	29299	14	-45.5	-82.9	124	7
2023-08-14T00:00	29309	14	-45.5	-82.9	126	7
2023-08-14T00:00	29338	14	-45.5	-82.9	127	7
2023-08-14T00:00	29373	14	-45.5	-82.9	126	7
2023-08-14T00:00	29397	14	-45.4	-82.8	126	7
2023-08-14T00:00	29415	14	-45.3	-82.7	127	6
2023-08-14T00:00	29444	14	-45.3	-82.7	130	6
2023-08-14T00:00	29469	14	-45.1	-82.6	134	6
2023-08-14T00:00	29501	14	-45.0	-82.5	139	6
2023-08-14T00:00	29535	14	-45.0	-82.5	143	5
2023-08-14T00:00	29553	14	-45.1	-82.6	146	5
2023-08-14T00:00	29589	14	-45.2	-82.7	147	5
2023-08-14T00:00	29615	14	-45.2	-82.7	147	4
2023-08-14T00:00	29641	13	-45.0	-82.5	149	4
2023-08-14T00:00	29666	13	-44.9	-82.5	153	3
2023-08-14T00:00	29691	13	-44.9	-82.5	158	2
2023-08-14T00:00	29728	13	-44.8	-82.4	160	2
2023-08-14T00:00	29750	13	-44.8	-82.4	152	2
2023-08-14T00:00	29781	13	-44.8	-82.4	135	2
2023-08-14T00:00	29798	13	-44.5	-82.2	113	2
2023-08-14T00:00	29821	13	-44.4	-82.1	98	2
2023-08-14T00:00	29846	13	-44.4	-82.1	89	3
2023-08-14T00:00	29885	13	-44.4	-82.1	82	3
2023-08-14T00:00	29911	13	-44.4	-82.1	79	4
2023-08-14T00:00	29944	13	-44.5	-82.2	78	4
2023-08-14T00:00	29971	13	-44.4	-82.1	80	5
2023-08-14T00:00	29991	13	-44.3	-82.0	83	5
2023-08-14T00:00	30029	13	-44.2	-82.0	86	5
2023-08-14T00:00	30034	13	-44.2	-82.0	89	6
2023-08-14T00:00	30071	13	-44.2	-82.0	89	6
2023-08-14T00:00	30107	13	-44.3	-82.0	89	6
2023-08-14T00:00	30129	13	-44.2	-82.0	87	6
2023-08-14T00:00	30159	12	-44.2	-82.0	85	6
2023-08-14T00:00	30173	12	-44.1	-81.9	83	6
2023-08-14T00:00	30211	12	-44.1	-81.9	82	6
2023-08-14T00:00	30240	12	-44.1	-81.9	82	6
2023-08-14T00:00	30254	12	-44.2	-82.0	82	6
2023-08-14T00:00	30302	12	-44.3	-82.0	82	7
2023-08-14T00:00	30318	12	-44.4	-82.1	82	7
2023-08-14T00:00	30333	12	-44.2	-82.0	82	7
2023-08-14T00:00	30368	12	-44.1	-81.9	84	6
2023-08-14T00:00	30398	12	-43.9	-81.8	86	6
2023-08-14T00:00	30426	12	-44.1	-81.9	88	6
2023-08-14T00:00	30452	12	-44.1	-81.9	91	6
2023-08-14T00:00	30484	12	-44.1	-81.9	93	6
2023-08-14T00:00	30504	12	-44.1	-81.9	95	7
2023-08-14T00:00	30535	12	-44.1	-81.9	97	7
2023-08-14T00:00	30553	12	-44.1	-81.9	98	7
2023-08-14T00:00	30586	12	-44.2	-82.0	98	7
2023-08-14T00:00	30613	12	-44.0	-81.8	98	7
2023-08-14T00:00	30653	12	-44.0	-81.8	97	7
2023-08-14T00:00	30672	12	-43.9	-81.8	96	6
2023-08-14T00:00	30693	12	-43.8	-81.7	94	6
2023-08-14T00:00	30726	11	-43.7	-81.6	91	6
2023-08-14T00:00	30754	11	-43.6	-81.5	88	6
2023-08-14T00:00	30786	11	-43.6	-81.5	84	6
2023-08-14T00:00	30798	11	-43.6	-81.5	81	6
2023-08-14T00:00	30837	11	-43.2	-81.3	78	7
2023-08-14T00:00	30871	11	-43.0	-81.1	75	7
2023-08-14T00:00	30906	11	-42.9	-81.1	73	7
2023-08-14T00:00	30911	11	-42.8	-81.0	73	8
2023-08-14T00:00	30942	11	-42.8	-81.0	73	8
2023-08-14T00:00	30971	11	-42.8	-81.0	75	8
2023-08-14T00:00	30987	11	-42.7	-80.9	78	8
2023-08-14T00:00	31019	11	-42.6	-80.8	81	8
2023-08-14T00:00	31034	11	-42.6	-80.8	85	8
2023-08-14T00:00	31084	11	-42.5	-80.8	89	7
2023-08-14T00:00	31100	11	-42.3	-80.6	93	7
2023-08-14T00:00	31142	11	-42.2	-80.6	96	7
2023-08-14T00:00	31149	11	-42.0	-80.4	99	6
2023-08-14T00:00	31181	11	-42.1	-80.5	101	6
2023-08-14T00:00	31217	11	-42.3	-80.6	102	6
2023-08-14T00:00	31237	11	-42.4	-80.7	101	5
2023-08-14T00:00	31269	11	-42.5	-80.8	96	5
2023-08-14T00:00	31294	11	-42.5	-80.8	90	4
2023-08-14T00:00	31330	11	-42.4	-80.7	80	4
2023-08-14T00:00	31342	10	-42.2	-80.6	71	4
2023-08-14T00:00	31371	10	-41.9	-80.4	64	5
2023-08-14T00:00	31401	10	-41.9	-80.4	59	5
2023-08-14T00:00	31432	10	-41.8	-80.3	57	5
2023-08-14T00:00	31452	10	-41.7	-80.2	57	5
2023-08-14T00:00	31490	10	-41.6	-80.1	60	5
2023-08-14T00:00	31510	10	-41.5	-80.1	64	5
2023-08-14T00:00	31541	10	-41.6	-80.1	69	5
2023-08-14T00:00	31559	10	-41.5	-80.1	72	5
2023-08-14T00:00	31590	10	-41.6	-80.1	73	5
2023-08-14T00:00	31627	10	-41.6	-80.1	71	5
2023-08-14T00:00	31655	10	-41.5	-80.1	66	5
2023-08-14T00:00	31676	10	-41.5	-80.1	61	5
2023-08-14T00:00	31694	10	-41.5	-80.1	56	4
2023-08-14T00:00	31722	10	-41.6	-80.1	52	4
2023-08-14T00:00	31756	10	-41.6	-80.1	50	4
2023-08-14T00:00	31788	10	-41.6	-80.1	48	4
2023-08-14T00:00	31808	10	-41.6	-80.1	45	4
2023-08-14T00:00	31843	10	-41.7	-80.2	42	4
2023-08-14T00:00	31849	10	-41.8	-80.3	39	4
2023-08-14T00:00	31891	10	-41.8	-80.3	36	4
2023-08-14T00:00	31913	10	-41.7	-80.2	35	4
2023-08-14T00:00	31952	10	-41.7	-80.2	34	4
2023-08-14T00:00	31975	10	-41.8	-80.3	33	4
2023-08-14T00:00	31992	10	-41.8	-80.3	32	4
2023-08-14T00:00	32023	9	-41.9	-80.4	31	4
2023-08-14T00:00	32049	9	-41.9	-80.4	31	4
2023-08-14T00:00	32076	9	-42.0	-80.4	30	3
2023-08-14T00:00	32085	9	-42.1	-80.5	30	3
2023-08-14T00:00	32123	9	-42.2	-80.6	30	2
2023-08-14T00:00	32166	9	-42.3	-80.6	30	2
2023-08-14T00:00	32204	9	-42.3	-80.6	29	2
2023-08-14T00:00	32221	9	-42.3	-80.6	27	3
2023-08-14T00:00	32227	9	-42.3	-80.6	26	3
2023-08-14T00:00	32244	9	-42.3	-80.6	25	4
2023-08-14T00:00	32278	9	-42.3	-80.6	23	5
2023-08-14T00:00	32314	9	-42.5	-80.8	23	6
2023-08-14T00:00	32339	9	-42.6	-80.8	23	7
2023-08-14T00:00	32358	9	-42.3	-80.6	24	8
2023-08-14T00:00	32402	9	-42.3	-80.6	26	9
2023-08-14T00:00	32428	9	-42.2	-80.6	28	10
2023-08-14T00:00	32442	9	-42.0	-80.4	31	10
2023-08-14T00:00	32469	9	-41.6	-80.1	33	11
2023-08-14T00:00	32511	9	-41.4	-80.0	35	12
2023-08-14T00:00	32528	9	-41.4	-80.0	37	12
2023-08-14T00:00	32558	9	-41.3	-79.9	39	11
2023-08-14T00:00	32610	9	-41.0	-79.7	45	10
2023-08-14T00:00	32619	9	-40.9	-79.7	48	10
2023-08-14T00:00	32639	9	-41.0	-79.7	52	9
2023-08-14T00:00	32680	9	-40.9	-79.7	54	9
2023-08-14T00:00	32693	9	-41.1	-79.8	56	8
2023-08-14T00:00	32726	9	-41.3	-79.9	57	8
2023-08-14T00:00	32754	9	-41.3	-79.9	57	8
2023-08-14T00:00	32785	8	-41.4	-80.0	56	7
2023-08-14T00:00	32802	8	-41.4	-80.0	54	7
2023-08-14T00:00	32849	8	-41.3	-79.9	51	6
2023-08-14T00:00	32865	8	-40.8	-79.6	42	7
2023-08-14T00:00	32908	8	-40.8	-79.6	38	7
2023-08-14T00:00	32936	8	-40.8	-79.6	37	8
2023-08-14T00:00	32944	8	-40.8	-79.6	36	9
2023-08-14T00:00	32983	8	-40.5	-79.4	36	9
2023-08-14T00:00	33001	8	-40.4	-79.3	37	10
2023-08-14T00:00	33017	8	-40.0	-79.0	38	10
2023-08-14T00:00	33055	8	-39.8	-78.9	39	11
2023-08-14T00:00	33091	8	-39.6	-78.8	42	11
2023-08-14T00:00	33107	8	-39.6	-78.8	46	12
2023-08-14T00:00	33112	8	-39.5	-78.7	50	12
2023-08-14T00:00	33150	8	-39.3	-78.5	55	13
2023-08-14T00:00	33178	8	-39.0	-78.3	59	13
2023-08-14T00:00	33189	8	-38.6	-78.1	61	13
2023-08-14T00:00	33223	8	-38.3	-77.9	63	13
2023-08-14T00:00	33243	8	-38.0	-77.6	64	13
2023-08-14T00:00	33249	8	-37.9	-77.6	65	13
2023-08-14T00:00	33320	8	-37.9	-77.6	65	13
2023-08-14T00:00	33328	8	-37.7	-77.4	64	12
2023-08-14T00:00	33368	8	-37.3	-77.2	64	12
2023-08-14T00:00	33381	8	-37.0	-77.0	64	12
2023-08-14T00:00	33409	8	-36.7	-76.7	64	13
2023-08-14T00:00	33416	8	-36.4	-76.5	63	13
2023-08-14T00:00	33449	8	-36.2	-76.4	63	13
2023-08-14T00:00	33478	8	-36.1	-76.3	63	14
2023-08-14T00:00	33511	8	-35.8	-76.1	63	14
2023-08-14T00:00	33539	8	-35.6	-76.0	64	15
2023-08-14T00:00	33547	8	-35.5	-75.9	65	15
2023-08-14T00:00	33591	8	-35.3	-75.8	67	16
2023-08-14T00:00	33603	8	-35.2	-75.7	69	16
2023-08-14T00:00	33621	8	-35.1	-75.6	72	17
2023-08-14T00:00	33662	7	-35.0	-75.6	74	17
2023-08-14T00:00	33706	7	-35.0	-75.6	77	17
2023-08-14T00:00	33710	7	-35.2	-75.7	81	17
2023-08-14T00:00	33744	7	-35.0	-75.6	84	16
2023-08-14T00:00	33765	7	-35.0	-75.6	86	16
2023-08-14T00:00	33795	7	-35.0	-75.6	88	15
2023-08-14T00:00	33820	7	-35.1	-75.6	88	15
2023-08-14T00:00	33838	7	-35.2	-75.7	87	14
2023-08-14T00:00	33864	7	-35.2	-75.7	85	14
2023-08-14T00:00	33892	7	-35.2	-75.7	84	13
2023-08-14T00:00	33933	7	-35.2	-75.7	81	13
2023-08-14T00:00	33957	7	-35.1	-75.6	79	12
2023-08-14T00:00	33963	7	-35.2	-75.7	75	12
2023-08-14T00:00	34001	7	-35.2	-75.7	72	11
2023-08-14T00:00	34013	7	-35.1	-75.6	68	11
2023-08-14T00:00	34053	7	-35.1	-75.6	66	11
2023-08-14T00:00	34102	7	-35.1	-75.6	64	11
2023-08-14T00:00	34120	7	-35.1	-75.6	64	11
2023-08-14T00:00	34130	7	-35.2	-75.7	65	11
2023-08-14T00:00	34147	7	-35.2	-75.7	67	11
2023-08-14T00:00	34174	7	-35.3	-75.8	70	12
2023-08-14T00:00	34201	7	-35.3	-75.8	73	12
2023-08-14T00:00	34229	7	-35.4	-75.8	76	12
2023-08-14T00:00	34252	7	-35.4	-75.8	80	13
2023-08-14T00:00	34275	7	-35.2	-75.7	83	13
2023-08-14T00:00	34301	7	-34.9	-75.5	86	13
2023-08-14T00:00	34332	7	-34.9	-75.5	89	13
2023-08-14T00:00	34380	7	-34.9	-75.5	92	13
2023-08-14T00:00	34397	7	-35.1	-75.6	95	13
2023-08-14T00:00	34420	7	-35.1	-75.6	94	12
2023-08-14T00:00	34442	7	-35.1	-75.6	91	11
2023-08-14T00:00	34477	7	-34.7	-75.4	87	11
2023-08-14T00:00	34511	7	-34.7	-75.4	82	10
2023-08-14T00:00	34525	7	-34.7	-75.4	78	9
2023-08-14T00:00	34538	7	-34.6	-75.3	76	9
2023-08-14T00:00	34574	7	-34.4	-75.2	76	9
2023-08-14T00:00	34606	7	-34.2	-75.0	78	9
2023-08-14T00:00	34612	7	-34.1	-75.0	82	9
2023-08-14T00:00	34661	6	-34.2	-75.0	87	8
2023-08-14T00:00	34679	6	-34.2	-75.0	92	8
2023-08-14T00:00	34714	6	-34.2	-75.0	98	8
2023-08-14T00:00	34738	6	-33.9	-74.8	103	8
2023-08-14T00:00	34742	6	-33.8	-74.7	107	8
2023-08-14T00:00	34751	6	-33.8	-74.7	109	8
2023-08-14T00:00	34798	6	-33.7	-74.7	109	7
2023-08-14T00:00	34829	6	-33.6	-74.6	107	6
2023-08-14T00:00	34838	6	-33.3	-74.4	102	5
2023-08-14T00:00	34866	6	-32.7	-74.0	92	5
2023-08-14T00:00	34903	6	-32.1	-73.6	77	4
2023-08-14T00:00	34917	6	-31.9	-73.4	62	4
2023-08-14T00:00	34970	6	-31.9	-73.4	50	5
2023-08-14T00:00	35013	6	-31.8	-73.4	37	6
2023-08-14T00:00	35016	6	-31.7	-73.3	33	7
2023-08-14T00:00	35036	6	-31.6	-73.2	30	8
2023-08-14T00:00	35060	6	-31.6	-73.2	28	9
2023-08-14T00:00	35109	6	-31.6	-73.2	27	9
2023-08-14T00:00	35154	6	-31.6	-73.2	28	10
2023-08-14T00:00	35182	6	-31.5	-73.2	32	10
2023-08-14T00:00	35204	6	-31.4	-73.1	35	10
2023-08-14T00:00	35225	6	-31.4	-73.1	37	9
2023-08-14T00:00	35261	6	-31.2	-73.0	40	8
2023-08-14T00:00	35295	6	-31.2	-73.0	43	8
2023-08-14T00:00	35315	6	-31.4	-73.1	46	7
2023-08-14T00:00	35370	6	-31.3	-73.0	48	7
2023-08-14T00:00	35420	6	-31.4	-73.1	48	7
2023-08-14T00:00	35437	6	-31.1	-72.9	43	8
2023-08-14T00:00	35474	6	-31.0	-72.8	41	8
2023-08-14T00:00	35510	6	-31.0	-72.8	37	9
2023-08-14T00:00	35546	6	-30.8	-72.7	35	9
2023-08-14T00:00	35556	6	-30.6	-72.5	35	10
2023-08-14T00:00	35579	6	-30.5	-72.5	34	11
2023-08-14T00:00	35606	6	-30.5	-72.5	34	11
2023-08-14T00:00	35641	6	-30.7	-72.6	35	12
2023-08-14T00:00	35653	6	-30.5	-72.5	37	12
2023-08-14T00:00	35677	6	-30.6	-72.5	38	13
2023-08-14T00:00	35710	6	-30.4	-72.4	40	13
2023-08-14T00:00	35739	6	-30.4	-72.4	42	13
2023-08-14T00:00	35761	6	-30.4	-72.4	44	13
2023-08-14T00:00	35778	6	-30.6	-72.5	45	13
2023-08-14T00:00	35802	6	-30.7	-72.6	46	13
2023-08-14T00:00	35814	6	-30.8	-72.7	47	13
2023-08-14T00:00	35859	5	-30.9	-72.8	48	13
2023-08-14T00:00	35891	5	-31.1	-72.9	50	14
2023-08-14T00:00	35895	5	-31.1	-72.9	52	14
2023-08-14T00:00	35913	5	-31.3	-73.0	53	15
2023-08-14T00:00	35934	5	-31.4	-73.1	55	15
2023-08-14T00:00	35974	5	-31.3	-73.0	57	16
2023-08-14T00:00	35983	5	-31.3	-73.0	58	16
2023-08-14T00:00	36018	5	-31.3	-73.0	60	17
2023-08-14T00:00	36044	5	-31.3	-73.0	61	17
2023-08-14T00:00	36069	5	-31.4	-73.1	62	17
2023-08-14T00:00	36101	5	-31.5	-73.2	63	16
2023-08-14T00:00	36117	5	-31.5	-73.2	64	17
2023-08-14T06:00	112	1004	19.0	14.5	280	2
2023-08-14T06:00	134	1002	19.6	14.5	278	3
2023-08-14T06:00	161	999	20.1	14.3	280	4
2023-08-14T06:00	180	996	20.0	14.3	283	5
2023-08-14T06:00	203	993	20.1	13.9	287	5
2023-08-14T06:00	226	991	20.7	13.6	291	5
2023-08-14T06:00	252	988	21.1	13.2	293	5
2023-08-14T06:00	284	985	21.1	13.5	294	5
2023-08-14T06:00	306	982	21.0	13.3	292	5
2023-08-14T06:00	328	979	20.9	13.3	290	5
2023-08-14T06:00	354	977	20.7	13.4	286	6
2023-08-14T06:00	376	974	20.5	13.9	283	6
2023-08-14T06:00	401	971	20.3	13.9	281	6
2023-08-14T06:00	420	969	20.3	12.8	278	6
2023-08-14T06:00	444	966	20.2	12.7	275	6
2023-08-14T06:00	470	963	19.9	12.4	271	6
2023-08-14T06:00	492	961	19.9		268	7
2023-08-14T06:00	512	959	19.9	9.7	264	7
2023-08-14T06:00	535	956	20.0	8.1	261	7
2023-08-14T06:00	558	954	20.5	5.1	259	7
2023-08-14T06:00	579	951	20.5	4.6	258	7
2023-08-14T06:00	600	949	20.4	4.6	258	7
2023-08-14T06:00	620	947	20.3	4.4	260	7
2023-08-14T06:00	642	944	20.2	4.1	262	7
2023-08-14T06:00	665	942	20.1	4.0	265	7
2023-08-14T06:00	687	939	19.9	3.8	267	7
2023-08-14T06:00	713	937	19.7	3.6	270	7
2023-08-14T06:00	733	934	19.6	3.2	274	7
2023-08-14T06:00	755	932	19.5	3.3	277	8
2023-08-14T06:00	778	930	19.4	3.6	279	8
2023-08-14T06:00	799	927	19.2	3.9	281	8
2023-08-14T06:00	821	925	19.0	4.6	282	9
2023-08-14T06:00	847	922	18.8	4.6	282	9
2023-08-14T06:00	869	920	18.6	4.8	282	9
2023-08-14T06:00	889	917	18.4	5.1	281	9
2023-08-14T06:00	913	915	18.2	5.9	280	10
2023-08-14T06:00	936	912	18.0	6.1	279	10
2023-08-14T06:00	965	910	17.8	6.4	278	10
2023-08-14T06:00	992	907	17.6	6.8	277	11
2023-08-14T06:00	1011	904	17.4		276	11
2023-08-14T06:00	1035	902	17.2	6.9	275	11
2023-08-14T06:00	1057	899	17.0	6.8	274	11
2023-08-14T06:00	1089	897	16.7	6.6	272	11
2023-08-14T06:00	1111	894	16.6	6.6	271	11
2023-08-14T06:00	1134	892	16.4	6.3	271	11
2023-08-14T06:00	1155	889	16.2	6.6	270	12
2023-08-14T06:00	1177	887	16.0	6.6	270	12
2023-08-14T06:00	1202	885	15.8	7.1	271	12
2023-08-14T06:00	1223	882	15.7	6.8	272	13
2023-08-14T06:00	1242	880	15.5	6.8	272	13
2023-08-14T06:00	1264	878	15.3	6.7	273	13
2023-08-14T06:00	1287	876	15.2	6.1	272	13
2023-08-14T06:00	1308	874	15.0	6.1	271	13
2023-08-14T06:00	1331	871	14.8	6.4	270	13
2023-08-14T06:00	1351	869	14.6	6.3	269	13
2023-08-14T06:00	1371	867	14.4	6.5	269	13
2023-08-14T06:00	1392	865	14.2	6.8	268	13
2023-08-14T06:00	1413	863	14.0	6.8	268	14
2023-08-14T06:00	1434	861	13.8	6.9	267	14
2023-08-14T06:00	1454	859	13.6	6.9	267	13
2023-08-14T06:00	1475	856	13.4	6.7	266	13
2023-08-14T06:00	1499	854	13.2	6.6	265	13
2023-08-14T06:00	1521	852	13.0	6.5	264	13
2023-08-14T06:00	1544	849	12.8	6.5	264	13
2023-08-14T06:00	1572	847	12.6	6.3	264	13
2023-08-14T06:00	1594	844	12.5	6.1	264	13
2023-08-14T06:00	1618	842	12.2	5.6	264	13
2023-08-14T06:00	1641	840	12.2	5.1	264	13
2023-08-14T06:00	1662	837	12.1	4.9	264	13
2023-08-14T06:00	1695	834	11.9	4.3	263	13
2023-08-14T06:00	1725	831	11.6	3.9	263	13
2023-08-14T06:00	1750	829	11.4	3.7	262	13
2023-08-14T06:00	1777	826	11.2	3.3	262	13
2023-08-14T06:00	1800	824	11.0	3.4	262	13
2023-08-14T06:00	1825	821	10.8	3.4	262	13
2023-08-14T06:00	1854	819	10.6	3.1	261	13
2023-08-14T06:00	1881	816	10.4	3.1	259	13
2023-08-14T06:00	1906	813	10.2	2.8	256	12
2023-08-14T06:00	1933	811	9.9	2.5	253	12
2023-08-14T06:00	1956	809	9.8	2.3	250	12
2023-08-14T06:00	1977	807	9.8	1.9	248	12
2023-08-14T06:00	1998	804	9.9	1.0	248	13
2023-08-14T06:00	2023	802	9.9	1.4	248	13
2023-08-14T06:00	2049	800	9.8	0.5	248	13
2023-08-14T06:00	2070	798	10.0	-2.1	249	13
2023-08-14T06:00	2089	796	10.1	-3.7	250	13
2023-08-14T06:00	2116	793	9.9	-1.0	250	13
2023-08-14T06:00	2135	791	9.9	-2.2	250	13
2023-08-14T06:00	2155	789	9.9	-2.6	249	13
2023-08-14T06:00	2180	787	10.0	-3.2	248	13
2023-08-14T06:00	2205	785	9.9	-2.7	246	13
2023-08-14T06:00	2229	783	10.1	-4.2	245	13
2023-08-14T06:00	2248	781	10.0	-3.4	244	13
2023-08-14T06:00	2272	778	9.8	-3.4	244	12
2023-08-14T06:00	2296	776	9.9	-5.5	244	12
2023-08-14T06:00	2321	774	10.0	-6.6	243	12
2023-08-14T06:00	2343	772	10.1	-8.0	243	12
2023-08-14T06:00	2366	770	10.1	-8.6	242	12
2023-08-14T06:00	2386	768	10.1	-9.7	241	12
2023-08-14T06:00	2408	766	10.2	-11.0	241	11
2023-08-14T06:00	2433	763	10.4	-13.6	241	10
2023-08-14T06:00	2455	761	10.4	-17.0	242	10
2023-08-14T06:00	2477	759	10.5	-20.7	242	9
2023-08-14T06:00	2508	757	10.4	-23.5	239	8
2023-08-14T06:00	2532	754	10.3	-24.5	236	8
2023-08-14T06:00	2555	752	10.1	-24.5	231	8
2023-08-14T06:00	2576	750	10.0	-25.3	228	8
2023-08-14T06:00	2600	748	9.8	-25.4	227	8
2023-08-14T06:00	2623	746	9.6	-25.4	228	8
2023-08-14T06:00	2650	744	9.5	-25.4	230	8
2023-08-14T06:00	2675	741	9.3	-26.2	232	8
2023-08-14T06:00	2700	739	9.1	-26.3	235	8
2023-08-14T06:00	2719	738	9.0	-26.2	238	8
2023-08-14T06:00	2740	736	8.9	-28.7	242	8
2023-08-14T06:00	2762	734	8.8	-29.1	244	8
2023-08-14T06:00	2791	731	8.6	-29.5	246	8
2023-08-14T06:00	2811	729	8.4	-29.6	248	8
2023-08-14T06:00	2832	727	8.2	-29.7	249	8
2023-08-14T06:00	2858	725	8.0	-29.9	251	8
2023-08-14T06:00	2878	723	7.8	-30.0	253	8
2023-08-14T06:00	2901	722	7.6	-30.1	254	8
2023-08-14T06:00	2922	720	7.4	-30.2	255	9
2023-08-14T06:00	2946	718	7.2	-30.4	255	9
2023-08-14T06:00	2971	715	6.9	-30.3	255	9
2023-08-14T06:00	2994	713	6.7	-30.7	255	10
2023-08-14T06:00	3019	711	6.6	-31.0	255	10
2023-08-14T06:00	3044	709	6.4	-32.3	255	10
2023-08-14T06:00	3071	707	6.4	-34.0	255	10
2023-08-14T06:00	3096	705	6.2	-34.5	255	9
2023-08-14T06:00	3115	703	6.1		255	9
2023-08-14T06:00	3133	701	6.0	-35.0	255	9
2023-08-14T06:00	3155	699	6.0	-33.5	255	9
2023-08-14T06:00	3176	698	6.2	-31.3	255	10
2023-08-14T06:00	3201	696	6.1	-31.1	254	11
2023-08-14T06:00	3219	694	6.0	-31.2	254	11
2023-08-14T06:00	3243	692	5.9	-31.2	253	12
2023-08-14T06:00	3267	690	5.9	-31.2	253	12
2023-08-14T06:00	3291	688	5.9	-30.5	253	12
2023-08-14T06:00	3313	686	5.9	-27.7	253	12
2023-08-14T06:00	3337	684	5.8	-21.2	254	12
2023-08-14T06:00	3357	682	5.5	-7.8	254	12
2023-08-14T06:00	3379	681	5.2	-5.9	253	12
2023-08-14T06:00	3400	679	4.9	-5.1	251	12
2023-08-14T06:00	3432	676	4.6	-5.3	250	12
2023-08-14T06:00	3455	674	4.5	-8.6	248	13
2023-08-14T06:00	3477	672	4.5	-12.4	247	13
2023-08-14T06:00	3502	670	4.3	-10.4	246	13
2023-08-14T06:00	3520	669	4.1	-9.2	246	13
2023-08-14T06:00	3537	667	4.0	-11.1	246	13
2023-08-14T06:00	3561	665	4.0	-12.3	246	12
2023-08-14T06:00	3588	663	3.8	-12.3	245	12
2023-08-14T06:00	3611	661	3.5	-7.9	244	12
2023-08-14T06:00	3638	659	3.3	-7.8	243	12
2023-08-14T06:00	3663	657	3.1	-7.8	242	12
2023-08-14T06:00	3682	656	2.9	-7.6	241	12
2023-08-14T06:00	3698	654	2.7	-7.6	240	12
2023-08-14T06:00	3716	653	2.5	-7.3	240	12
2023-08-14T06:00	3736	651	2.4	-7.5	239	12
2023-08-14T06:00	3755	650	2.4	-8.2	239	12
2023-08-14T06:00	3772	648	2.3	-8.3	238	12
2023-08-14T06:00	3790	647	2.2	-8.3	238	12
2023-08-14T06:00	3812	645	2.1	-8.6	238	12
2023-08-14T06:00	3841	643	1.9	-9.0	239	12
2023-08-14T06:00	3861	641	1.8	-9.2	240	12
2023-08-14T06:00	3880	640	1.7	-9.2	241	12
2023-08-14T06:00	3900	638	1.5	-9.1	242	12
2023-08-14T06:00	3921	637	1.3	-9.0	243	12
2023-08-14T06:00	3940	635	1.1	-8.8	244	12
2023-08-14T06:00	3963	633	0.9	-8.4	246	12
2023-08-14T06:00	3987	631	0.7	-7.4	248	12
2023-08-14T06:00	4013	629	0.4	-6.8	250	12
2023-08-14T06:00	4041	627	0.2	-6.5	252	12
2023-08-14T06:00	4067	625	-0.1	-6.3	253	12
2023-08-14T06:00	4089	623	-0.3	-6.2	253	12
2023-08-14T06:00	4114	621	-0.5	-6.3	251	12
2023-08-14T06:00	4139	619	-0.6	-6.5	249	13
2023-08-14T06:00	4160	618	-0.7	-6.5	246	13
2023-08-14T06:00	4179	616	-0.7	-8.0	243	13
2023-08-14T06:00	4201	615	-0.7	-10.6	241	13
2023-08-14T06:00	4223	613	-0.9	-10.2	240	13
2023-08-14T06:00	4248	611	-1.1	-10.1	238	13
2023-08-14T06:00	4273	609	-1.3	-10.2	237	13
2023-08-14T06:00	4299	607	-1.5	-10.3	236	13
2023-08-14T06:00	4319	606	-1.6	-10.1	236	13
2023-08-14T06:00	4336	604	-1.8	-9.1	237	13
2023-08-14T06:00	4355	603	-1.9	-8.9	238	13
2023-08-14T06:00	4375	601	-2.1	-9.0	239	13
2023-08-14T06:00	4391	600	-2.2	-9.1	239	13
2023-08-14T06:00	4410	599	-2.4	-8.3	240	13
2023-08-14T06:00	4429	597	-2.6	-8.4	240	14
2023-08-14T06:00	4449	596	-2.8	-8.4	240	14
2023-08-14T06:00	4469	594	-2.9	-8.3	239	14
2023-08-14T06:00	4487	593	-3.1	-8.6	239	14
2023-08-14T06:00	4512	591	-3.2	-9.2	239	14
2023-08-14T06:00	4540	589	-3.4	-9.2	239	14
2023-08-14T06:00	4567	587	-3.5	-9.3	239	14
2023-08-14T06:00	4591	585	-3.7	-9.7	239	13
2023-08-14T06:00	4608	584	-3.8	-10.5	238	13
2023-08-14T06:00	4631	582	-3.8	-11.4	236	13
2023-08-14T06:00	4656	580	-3.9	-11.5	234	13
2023-08-14T06:00	4678	579	-4.0	-11.7	233	13
2023-08-14T06:00	4694	578	-4.1	-12.0	232	13
2023-08-14T06:00	4712	576	-4.2	-12.3	232	13
2023-08-14T06:00	4733	575	-4.2	-13.9	233	13
2023-08-14T06:00	4758	573	-4.3	-14.4	234	13
2023-08-14T06:00	4782	571	-4.4	-14.8	236	12
2023-08-14T06:00	4800	570	-4.5	-15.4	237	13
2023-08-14T06:00	4820	568	-4.7	-14.9	238	13
2023-08-14T06:00	4844	567	-4.8	-15.3	239	13
2023-08-14T06:00	4870	565	-4.9	-15.9	241	13
2023-08-14T06:00	4892	563	-4.9	-17.0	242	13
2023-08-14T06:00	4916	562	-4.9	-19.5	242	14
2023-08-14T06:00	4944	560	-5.0	-19.4	242	14
2023-08-14T06:00	4964	558	-5.1	-19.4	242	14
2023-08-14T06:00	4989	556	-5.2	-19.6	241	14
2023-08-14T06:00	5012	555	-5.4	-19.9	239	15
2023-08-14T06:00	5028	554	-5.5	-20.3	238	14
2023-08-14T06:00	5044	552	-5.6	-20.1	237	14
2023-08-14T06:00	5064	551	-5.8	-18.9	236	14
2023-08-14T06:00	5082	550	-5.9	-18.5	235	14
2023-08-14T06:00	5100	549	-6.0	-19.0	235	14
2023-08-14T06:00	5117	547	-6.2	-18.5	234	14
2023-08-14T06:00	5136	546	-6.3	-18.1	234	14
2023-08-14T06:00	5153	545	-6.5	-18.4	234	14
2023-08-14T06:00	5171	544	-6.7	-17.4	234	14
2023-08-14T06:00	5189	542	-6.8	-17.5	234	14
2023-08-14T06:00	5208	541	-7.0	-17.8	235	14
2023-08-14T06:00	5226	540	-7.1	-17.8	235	14
2023-08-14T06:00	5245	538	-7.3	-17.9	236	14
2023-08-14T06:00	5264	537	-7.4	-18.9	237	14
2023-08-14T06:00	5282	536	-7.5	-20.4	237	14
2023-08-14T06:00	5302	535	-7.5	-22.6	238	14
2023-08-14T06:00	5321	533	-7.6	-23.8	239	14
2023-08-14T06:00	5338	532	-7.8	-25.1	239	14
2023-08-14T06:00	5359	531	-7.9	-24.8	240	14
2023-08-14T06:00	5377	529	-8.0	-23.6	240	14
2023-08-14T06:00	5395	528	-8.1	-20.9	240	14
2023-08-14T06:00	5413	527	-8.2	-19.5	240	14
2023-08-14T06:00	5433	526	-8.3	-19.0	241	15
2023-08-14T06:00	5453	524	-8.4	-19.2	242	15
2023-08-14T06:00	5475	523	-8.5	-19.5	243	15
2023-08-14T06:00	5492	522	-8.7	-18.8	244	15
2023-08-14T06:00	5512	520	-8.9	-17.4	245	15
2023-08-14T06:00	5531	519	-8.9	-17.8	245	15
2023-08-14T06:00	5551	518	-9.0	-17.8	245	15
2023-08-14T06:00	5570	516	-9.1	-18.0	244	15
2023-08-14T06:00	5589	515	-9.2	-18.0	243	15
2023-08-14T06:00	5609	514	-9.2	-18.6	243	16
2023-08-14T06:00	5628	513	-9.3	-18.3	242	16
2023-08-14T06:00	5648	511	-9.4	-18.9	241	16
2023-08-14T06:00	5666	510	-9.5	-19.4	240	16
2023-08-14T06:00	5687	509	-9.6	-18.9	240	16
2023-08-14T06:00	5705	507	-9.7	-18.4	239	16
2023-08-14T06:00	5723	506	-9.8	-18.6	239	16
2023-08-14T06:00	5740	505	-9.9	-18.6	239	16
2023-08-14T06:00	5758	504	-10.0	-18.9	240	16
2023-08-14T06:00	5778	503	-10.2	-19.1	240	16
2023-08-14T06:00	5797	501	-10.3	-18.8	241	16
2023-08-14T06:00	5818	500	-10.4	-19.1	242	16
2023-08-14T06:00	5837	499	-10.6	-19.1	242	16
2023-08-14T06:00	5856	498	-10.7	-19.4	243	16
2023-08-14T06:00	5875	496	-10.8	-19.5	243	15
2023-08-14T06:00	5892	495	-10.9	-19.5	243	15
2023-08-14T06:00	5911	494	-11.1	-19.6	244	15
2023-08-14T06:00	5930	493	-11.2	-19.8	244	15
2023-08-14T06:00	5951	491	-11.3	-20.2	243	15
2023-08-14T06:00	5975	490	-11.5	-20.5	243	15
2023-08-14T06:00	5998	488	-11.7	-21.4	244	14
2023-08-14T06:00	6022	487	-11.7	-24.9	245	14
2023-08-14T06:00	6053	485	-11.8	-24.8	246	14
2023-08-14T06:00	6086	483	-12.1	-24.5	247	14
2023-08-14T06:00	6113	481	-12.4	-24.5	248	13
2023-08-14T06:00	6147	479	-12.7	-24.6	248	13
2023-08-14T06:00	6173	477	-12.8	-24.9	247	13
2023-08-14T06:00	6201	476	-12.7	-26.8	246	13
2023-08-14T06:00	6227	474	-12.7	-29.9	244	13
2023-08-14T06:00	6252	472	-12.9	-27.4	242	13
2023-08-14T06:00	6279	471	-13.1	-26.1	241	13
2023-08-14T06:00	6306	469	-13.4	-24.1	240	13
2023-08-14T06:00	6335	467	-13.6	-24.6	241	14
2023-08-14T06:00	6362	466	-13.8	-24.9	241	14
2023-08-14T06:00	6390	464	-14.0	-25.2	243	14
2023-08-14T06:00	6418	462	-14.3	-25.6	245	13
2023-08-14T06:00	6447	461	-14.4	-25.8	247	13
2023-08-14T06:00	6472	459	-14.5	-26.5	250	13
2023-08-14T06:00	6502	457	-14.7	-26.1	252	14
2023-08-14T06:00	6530	455	-14.9	-26.2	253	14
2023-08-14T06:00	6558	454	-15.1	-26.5	253	14
2023-08-14T06:00	6585	452	-15.3	-26.9	252	15
2023-08-14T06:00	6615	450	-15.4	-27.3	251	15
2023-08-14T06:00	6642	449	-15.6	-27.2	250	15
2023-08-14T06:00	6669	447	-15.7	-27.4	249	15
2023-08-14T06:00	6701	445	-16.0	-27.5	249	14
2023-08-14T06:00	6729	444	-16.2	-27.7	249	14
2023-08-14T06:00	6756	442	-16.5	-27.9	250	14
2023-08-14T06:00	6782	441	-16.7	-28.0	251	15
2023-08-14T06:00	6806	439	-16.9	-28.1	251	15
2023-08-14T06:00	6834	438	-17.1	-28.3	252	15
2023-08-14T06:00	6860	436	-17.3	-28.4	252	14
2023-08-14T06:00	6889	434	-17.5	-28.7	252	14
2023-08-14T06:00	6916	433	-17.7	-28.7	252	14
2023-08-14T06:00	6946	431	-17.9	-29.2	252	14
2023-08-14T06:00	6974	429	-18.1	-29.6	253	14
2023-08-14T06:00	6999	428	-18.2	-29.7	253	14
2023-08-14T06:00	7019	427	-18.4	-29.8	253	14
2023-08-14T06:00	7042	425	-18.6	-30.3	253	15
2023-08-14T06:00	7067	424	-18.8	-29.8	252	15
2023-08-14T06:00	7089	423	-19.1	-29.9	252	15
2023-08-14T06:00	7120	421	-19.3	-30.2	252	15
2023-08-14T06:00	7147	420	-19.4	-30.9	251	15
2023-08-14T06:00	7171	418	-19.6	-31.4	251	15
2023-08-14T06:00	7199	417	-19.7	-31.5	250	16
2023-08-14T06:00	7228	415	-19.8	-31.9	250	16
2023-08-14T06:00	7256	413	-19.9	-31.6	250	16
2023-08-14T06:00	7284	412	-20.1	-32.0	249	16
2023-08-14T06:00	7312	410	-20.3	-32.3	249	16
2023-08-14T06:00	7339	409	-20.5	-32.4	249	16
2023-08-14T06:00	7360	408	-20.7	-32.6	249	16
2023-08-14T06:00	7385	406	-20.9	-32.8	250	16
2023-08-14T06:00	7408	405	-21.1	-33.0	250	16
2023-08-14T06:00	7434	404	-21.2	-33.8	250	16
2023-08-14T06:00	7461	402	-21.4	-34.3	250	17
2023-08-14T06:00	7489	401	-21.6	-35.2	250	17
2023-08-14T06:00	7520	399	-21.8	-35.6	250	17
2023-08-14T06:00	7548	397	-22.0	-35.2	250	18
2023-08-14T06:00	7577	396	-22.2	-35.7	250	18
2023-08-14T06:00	7603	394	-22.4	-36.1	251	17
2023-08-14T06:00	7633	393	-22.5	-36.8	251	18
2023-08-14T06:00	7661	391	-22.6	-37.0	253	18
2023-08-14T06:00	7692	390	-22.8	-36.8	254	18
2023-08-14T06:00	7724	388	-22.9	-37.5	255	18
2023-08-14T06:00	7752	387	-23.0	-37.5	255	19
2023-08-14T06:00	7781	385	-23.2	-38.2	256	19
2023-08-14T06:00	7807	384	-23.4	-38.5	256	19
2023-08-14T06:00	7830	382	-23.6	-39.2	256	19
2023-08-14T06:00	7857	381	-23.8	-42.1	256	20
2023-08-14T06:00	7887	379	-24.0	-44.7	257	20
2023-08-14T06:00	7918	378	-24.2	-44.2	257	20
2023-08-14T06:00	7947	376	-24.5	-40.3	257	20
2023-08-14T06:00	7974	375	-24.7	-39.4	258	20
2023-08-14T06:00	8003	373	-25.0	-38.7	258	20
2023-08-14T06:00	8033	372	-25.3	-38.3	258	20
2023-08-14T06:00	8061	370	-25.5	-37.5	259	19
2023-08-14T06:00	8095	369	-25.9	-37.0	259	19
2023-08-14T06:00	8125	367	-26.2	-36.5	260	19
2023-08-14T06:00	8154	366	-26.4	-36.4	260	19
2023-08-14T06:00	8182	364	-26.7	-36.5	260	20
2023-08-14T06:00	8214	363	-27.0	-36.5	260	20
2023-08-14T06:00	8244	361	-27.3	-36.5	259	21
2023-08-14T06:00	8275	360	-27.6	-36.7	259	21
2023-08-14T06:00	8302	358	-27.8	-36.9	259	21
2023-08-14T06:00	8334	357	-28.1	-37.1	259	21
2023-08-14T06:00	8367	355	-28.4	-37.1	259	21
2023-08-14T06:00	8400	353	-28.7	-37.2	260	20
2023-08-14T06:00	8433	352	-29.0	-37.2	260	20
2023-08-14T06:00	8460	350	-29.2	-37.1	261	20
2023-08-14T06:00	8492	349	-29.5	-37.3	261	20
2023-08-14T06:00	8526	347	-29.8	-37.5	261	20
2023-08-14T06:00	8554	346	-30.0	-37.7	261	20
2023-08-14T06:00	8583	344	-30.2	-38.3	260	20
2023-08-14T06:00	8609	343	-30.3	-38.9	259	20
2023-08-14T06:00	8639	342	-30.5	-39.4	258	21
2023-08-14T06:00	8668	340	-30.8	-39.8	258	21
2023-08-14T06:00	8700	339	-31.0	-40.0	257	21
2023-08-14T06:00	8730	337	-31.2	-40.9	257	21
2023-08-14T06:00	8761	336	-31.5	-40.9	257	21
2023-08-14T06:00	8793	334	-31.7	-40.8	257	21
2023-08-14T06:00	8824	333	-32.0	-40.9	257	21
2023-08-14T06:00	8855	331	-32.3	-41.0	257	21
2023-08-14T06:00	8886	330	-32.6	-41.1	257	21
2023-08-14T06:00	8911	329	-32.9	-41.2	257	22
2023-08-14T06:00	8937	328	-33.2	-41.2	257	22
2023-08-14T06:00	8966	326	-33.4	-41.2	258	22
2023-08-14T06:00	8995	325	-33.7	-41.3	258	22
2023-08-14T06:00	9023	324	-34.0	-41.6	258	22
2023-08-14T06:00	9054	322	-34.2	-42.1	259	22
2023-08-14T06:00	9079	321	-34.4	-42.5	259	22
2023-08-14T06:00	9107	320	-34.6	-43.7	260	22
2023-08-14T06:00	9138	318	-34.8	-44.1	260	22
2023-08-14T06:00	9164	317	-35.1	-44.6	261	23
2023-08-14T06:00	9195	316	-35.3	-45.3	261	23
2023-08-14T06:00	9221	315	-35.4	-46.9	262	23
2023-08-14T06:00	9245	314	-35.6	-47.4	262	23
2023-08-14T06:00	9269	312	-35.8	-47.5	262	23
2023-08-14T06:00	9295	311	-36.0	-47.9	262	23
2023-08-14T06:00	9324	310	-36.3	-48.6	262	24
2023-08-14T06:00	9351	309	-36.5	-49.3	262	24
2023-08-14T06:00	9380	307	-36.6	-50.1	262	24
2023-08-14T06:00	9412	306	-36.9	-50.3	262	24
2023-08-14T06:00	9442	305	-37.2	-50.4	261	24
2023-08-14T06:00	9471	303	-37.5	-50.6	261	24
2023-08-14T06:00	9499	302	-37.7	-50.6	260	24
2023-08-14T06:00	9528	301	-38.0	-50.6	260	25
2023-08-14T06:00	9557	300	-38.2	-50.8	260	25
2023-08-14T06:00	9583	299	-38.5	-51.0	259	25
2023-08-14T06:00	9612	297	-38.7	-51.2	259	25
2023-08-14T06:00	9641	296	-38.9	-51.4	259	25
2023-08-14T06:00	9671	295	-39.2	-51.1	258	25
2023-08-14T06:00	9701	293	-39.4	-49.7	259	25
2023-08-14T06:00	9729	292	-39.7	-49.5	259	25
2023-08-14T06:00	9756	291	-39.9	-49.7	260	25
2023-08-14T06:00	9784	290	-40.2	-49.8	260	25
2023-08-14T06:00	9813	289	-40.5	-50.0	261	25
2023-08-14T06:00	9842	288	-40.8	-49.4	261	25
2023-08-14T06:00	9867	286	-41.0	-49.0	261	25
2023-08-14T06:00	9890	285	-41.2	-48.5	261	26
2023-08-14T06:00	9912	285	-41.4	-48.2	261	26
2023-08-14T06:00	9933	284	-41.6	-48.7	261	26
2023-08-14T06:00	9957	283	-41.8	-49.5	262	26
2023-08-14T06:00	9979	282	-41.9	-46.9	262	26
2023-08-14T06:00	10004	281	-42.1	-46.6	262	27
2023-08-14T06:00	10028	280	-42.3	-47.3	263	27
2023-08-14T06:00	10056	279	-42.4	-47.8	263	27
2023-08-14T06:00	10084	277	-42.5	-48.6	263	27
2023-08-14T06:00	10112	276	-42.7	-48.7	263	27
2023-08-14T06:00	10135	275	-42.8	-47.9	263	28
2023-08-14T06:00	10158	274	-43.0	-47.8	262	28
2023-08-14T06:00	10182	273	-43.1	-48.1	262	29
2023-08-14T06:00	10205	272	-43.2	-48.2	263	29
2023-08-14T06:00	10227	272	-43.4	-48.0	263	30
2023-08-14T06:00	10250	271	-43.5	-47.7	263	31
2023-08-14T06:00	10277	270	-43.7	-47.8	263	31
2023-08-14T06:00	10301	269	-43.8	-48.0	263	31
2023-08-14T06:00	10328	268	-44.0	-48.3	263	32
2023-08-14T06:00	10351	267	-44.1	-48.6	263	32
2023-08-14T06:00	10374	266	-44.3	-48.9	263	32
2023-08-14T06:00	10396	265	-44.5	-48.8	263	33
2023-08-14T06:00	10423	264	-44.7	-48.7	263	33
2023-08-14T06:00	10449	263	-45.0	-48.8	263	34
2023-08-14T06:00	10474	262	-45.2	-48.7	262	34
2023-08-14T06:00	10499	261	-45.4	-48.6	262	34
2023-08-14T06:00	10526	260	-45.6	-48.7	261	34
2023-08-14T06:00	10554	259	-45.8	-49.0	261	34
2023-08-14T06:00	10577	258	-46.0	-49.2	261	34
2023-08-14T06:00	10603	257	-46.3		261	34
2023-08-14T06:00	10626	256	-46.5	-49.6	262	34
2023-08-14T06:00	10652	255	-46.7	-49.9	262	34
2023-08-14T06:00	10674	254	-46.9	-50.2	262	34
2023-08-14T06:00	10695	253	-47.1	-50.6	262	34
2023-08-14T06:00	10714	252	-47.2	-50.8	262	34
2023-08-14T06:00	10734	252	-47.4	-50.9	261	34
2023-08-14T06:00	10753	251	-47.6	-51.1	261	34
2023-08-14T06:00	10771	250	-47.8	-51.4	261	34
2023-08-14T06:00	10790	250	-47.9	-51.7	261	34
2023-08-14T06:00	10808	249	-48.0		261	34
2023-08-14T06:00	10827	248	-48.2	-51.5	261	34
2023-08-14T06:00	10848	247	-48.4	-51.6	261	34
2023-08-14T06:00	10865	247	-48.6	-51.8	261	34
2023-08-14T06:00	10884	246	-48.7	-51.9	261	34
2023-08-14T06:00	10902	245	-48.9	-52.0	261	34
2023-08-14T06:00	10920	245	-49.0	-52.1	261	34
2023-08-14T06:00	10939	244	-49.1	-52.5	261	34
2023-08-14T06:00	10961	243	-49.3	-52.7	261	34
2023-08-14T06:00	10981	242	-49.5	-52.8	261	34
2023-08-14T06:00	10999	242	-49.6	-52.8	262	34
2023-08-14T06:00	11018	241	-49.8	-53.1	262	34
2023-08-14T06:00	11038	240	-49.9	-53.3	261	34
2023-08-14T06:00	11058	240	-50.1	-53.4	261	34
2023-08-14T06:00	11078	239	-50.3	-53.5	261	34
2023-08-14T06:00	11096	238	-50.4	-53.7	261	34
2023-08-14T06:00	11116	237	-50.6	-54.2	261	34
2023-08-14T06:00	11136	237	-50.8	-54.6	261	34
2023-08-14T06:00	11156	236	-51.0	-54.5	261	34
2023-08-14T06:00	11176	235	-51.1	-54.2	261	34
2023-08-14T06:00	11197	235	-51.3	-54.2	261	34
2023-08-14T06:00	11218	234	-51.4	-54.5	260	34
2023-08-14T06:00	11238	233	-51.6	-55.0	260	34
2023-08-14T06:00	11259	232	-51.8	-55.4	260	34
2023-08-14T06:00	11279	232	-51.9	-55.5	260	34
2023-08-14T06:00	11300	231	-52.1	-55.6	260	34
2023-08-14T06:00	11319	230	-52.3	-55.6	260	35
2023-08-14T06:00	11339	229	-52.4	-55.7	260	35
2023-08-14T06:00	11356	229	-52.6	-56.2	260	35
2023-08-14T06:00	11377	228	-52.8	-56.6	260	35
2023-08-14T06:00	11398	227	-52.9	-56.7	260	35
2023-08-14T06:00	11418	227	-53.1	-56.8	260	35
2023-08-14T06:00	11437	226	-53.3	-56.9	260	35
2023-08-14T06:00	11458	225	-53.5	-57.2	260	35
2023-08-14T06:00	11479	224	-53.6	-57.4	260	35
2023-08-14T06:00	11501	224	-53.7	-57.5	260	35
2023-08-14T06:00	11520	223	-53.8	-57.6	260	35
2023-08-14T06:00	11541	222	-53.9	-57.6	260	35
2023-08-14T06:00	11559	222	-54.1	-57.6	260	35
2023-08-14T06:00	11580	221	-54.3	-57.5	260	35
2023-08-14T06:00	11601	220	-54.3	-57.5	261	35
2023-08-14T06:00	11622	220	-54.3	-58.1	261	35
2023-08-14T06:00	11643	219	-54.4	-59.0	261	34
2023-08-14T06:00	11660	218	-54.5	-59.4	262	34
2023-08-14T06:00	11682	217	-54.5	-59.2	262	34
2023-08-14T06:00	11704	217	-54.6	-59.2	263	34
2023-08-14T06:00	11722	216	-54.6	-59.0	263	34
2023-08-14T06:00	11743	215	-54.7	-58.5	263	34
2023-08-14T06:00	11763	215	-54.8	-58.0	263	33
2023-08-14T06:00	11784	214	-55.0	-58.0	263	33
2023-08-14T06:00	11805	213	-55.2	-58.3	262	33
2023-08-14T06:00	11824	213	-55.2	-58.7	262	32
2023-08-14T06:00	11843	212	-55.2	-59.8	262	32
2023-08-14T06:00	11864	211	-55.2	-62.0	262	32
2023-08-14T06:00	11884	211	-55.0	-65.3	263	32
2023-08-14T06:00	11903	210	-54.9	-67.5	263	32
2023-08-14T06:00	11923	209	-54.9	-66.1	263	32
2023-08-14T06:00	11943	209	-55.0	-63.5	264	33
2023-08-14T06:00	11964	208	-54.7	-61.8	264	33
2023-08-14T06:00	11986	207	-54.7	-62.0	264	33
2023-08-14T06:00	12003	207	-54.8	-62.8	265	33
2023-08-14T06:00	12024	206	-54.7	-62.9	265	33
2023-08-14T06:00	12043	206	-54.4	-62.6	265	33
2023-08-14T06:00	12063	205	-54.3	-62.9	265	33
2023-08-14T06:00	12080	204	-54.3	-63.5	265	33
2023-08-14T06:00	12100	204	-54.3	-63.9	265	33
2023-08-14T06:00	12119	203	-54.4	-64.1	265	33
2023-08-14T06:00	12140	202	-54.5	-64.4	265	32
2023-08-14T06:00	12160	202	-54.5	-65.0	264	32
2023-08-14T06:00	12179	201	-54.5	-66.2	264	31
2023-08-14T06:00	12198	201	-54.5	-68.2	263	31
2023-08-14T06:00	12218	200	-54.4	-69.9	263	30
2023-08-14T06:00	12237	199	-54.3	-70.4	263	30
2023-08-14T06:00	12257	199	-54.4	-70.4	263	30
2023-08-14T06:00	12275	198	-54.5	-70.3	263	30
2023-08-14T06:00	12298	198	-54.7	-70.2	264	29
2023-08-14T06:00	12316	197	-54.7	-69.9	264	29
2023-08-14T06:00	12337	196	-54.8	-69.8	263	29
2023-08-14T06:00	12357	196	-54.9	-70.0	263	29
2023-08-14T06:00	12379	195	-54.9	-70.3	262	29
2023-08-14T06:00	12398	194	-54.6	-70.8	261	28
2023-08-14T06:00	12419	194	-54.4	-71.5	260	28
2023-08-14T06:00	12438	193	-54.1	-71.9	259	28
2023-08-14T06:00	12458	193	-54.1	-72.1	259	27
2023-08-14T06:00	12479	192	-54.0	-72.2	258	27
2023-08-14T06:00	12501	191	-54.1	-72.5	256	26
2023-08-14T06:00	12521	191	-54.1	-72.5	255	26
2023-08-14T06:00	12541	190	-54.1	-72.7	255	26
2023-08-14T06:00	12562	190	-54.1	-72.9	254	26
2023-08-14T06:00	12585	189	-54.1	-73.1	253	26
2023-08-14T06:00	12604	188	-54.1	-73.1	253	26
2023-08-14T06:00	12625	188	-54.3	-73.2	252	26
2023-08-14T06:00	12647	187	-54.5	-73.2	251	26
2023-08-14T06:00	12668	186	-54.5	-73.2	250	26
2023-08-14T06:00	12689	186	-54.6	-73.4	248	27
2023-08-14T06:00	12710	185	-54.5	-73.5	247	27
2023-08-14T06:00	12730	185	-54.6	-73.8	247	27
2023-08-14T06:00	12751	184	-54.5	-73.8	247	28
2023-08-14T06:00	12772	183	-54.6	-73.9	247	28
2023-08-14T06:00	12790	183	-54.6	-73.9	247	29
2023-08-14T06:00	12810	182	-54.5	-73.9	248	29
2023-08-14T06:00	12831	182	-54.6	-74.1	248	29
2023-08-14T06:00	12851	181	-54.6	-74.3	249	29
2023-08-14T06:00	12872	181	-54.5	-74.3	250	29
2023-08-14T06:00	12893	180	-54.6	-74.5	250	29
2023-08-14T06:00	12912	179	-54.7	-74.6	251	29
2023-08-14T06:00	12933	179	-54.8	-74.7	252	29
2023-08-14T06:00	12953	178	-54.8	-74.8	252	29
2023-08-14T06:00	12975	178	-54.9	-75.0	253	28
2023-08-14T06:00	12995	177	-54.8	-75.1	253	28
2023-08-14T06:00	13017	177	-54.9	-75.2	254	28
2023-08-14T06:00	13037	176	-55.0	-75.4	254	28
2023-08-14T06:00	13057	175	-55.0	-75.3	255	27
2023-08-14T06:00	13077	175	-55.1	-75.3	255	27
2023-08-14T06:00	13098	174	-55.1	-75.3	256	27
2023-08-14T06:00	13116	174	-55.2	-75.3	257	27
2023-08-14T06:00	13137	173	-55.3	-75.4	257	27
2023-08-14T06:00	13157	173	-55.3	-75.4	258	27
2023-08-14T06:00	13176	172	-55.4	-75.6	259	27
2023-08-14T06:00	13194	172	-55.3	-75.6	260	27
2023-08-14T06:00	13217	171	-55.3	-76.1	260	26
2023-08-14T06:00	13237	171	-54.7	-76.1	261	26
2023-08-14T06:00	13255	170	-54.4	-76.6	261	25
2023-08-14T06:00	13274	170	-54.5	-77.0	261	25
2023-08-14T06:00	13294	169	-54.4	-77.1	260	25
2023-08-14T06:00	13316	168	-54.3	-77.3	260	25
2023-08-14T06:00	13336	168	-54.2	-77.4	260	25
2023-08-14T06:00	13353	167	-54.1	-77.5	260	26
2023-08-14T06:00	13374	167	-54.2	-77.8	260	26
2023-08-14T06:00	13393	166	-54.1	-77.5	261	26
2023-08-14T06:00	13412	166	-54.2	-77.6	261	26
2023-08-14T06:00	13434	165	-54.2	-77.6	261	25
2023-08-14T06:00	13454	165	-54.2	-77.8	262	25
2023-08-14T06:00	13475	164	-54.0	-78.0	262	24
2023-08-14T06:00	13495	164	-53.8	-78.2	262	24
2023-08-14T06:00	13515	163	-53.6	-78.5	261	23
2023-08-14T06:00	13534	163	-53.4	-78.8	261	23
2023-08-14T06:00	13555	162	-52.8	-78.8	261	22
2023-08-14T06:00	13578	162	-52.7	-79.0	260	22
2023-08-14T06:00	13600	161	-52.8	-79.3	260	21
2023-08-14T06:00	13620	161	-52.7	-79.3	261	21
2023-08-14T06:00	13640	160	-52.7	-79.3	261	21
2023-08-14T06:00	13662	160	-52.8	-79.3	262	22
2023-08-14T06:00	13685	159	-52.9	-79.4	262	22
2023-08-14T06:00	13706	159	-53.0	-79.5	263	22
2023-08-14T06:00	13728	158	-53.1	-79.3	264	22
2023-08-14T06:00	13751	157	-53.1	-79.6	265	22
2023-08-14T06:00	13773	157	-53.1	-79.6	266	23
2023-08-14T06:00	13798	156	-53.0	-79.5	268	23
2023-08-14T06:00	13821	156	-53.0	-79.5	269	23
2023-08-14T06:00	13845	155	-53.0	-79.5	270	24
2023-08-14T06:00	13866	155	-53.0	-79.8	271	23
2023-08-14T06:00	13891	154	-52.8	-79.6	271	23
2023-08-14T06:00	13913	154	-52.8	-79.6	271	22
2023-08-14T06:00	13936	153	-52.6	-79.8	271	21
2023-08-14T06:00	13958	152	-52.5	-79.7	270	20
2023-08-14T06:00	13980	152	-52.3	-79.5	270	19
2023-08-14T06:00	14004	151	-52.0	-79.6	268	19
2023-08-14T06:00	14030	151	-52.1	-79.7	266	18
2023-08-14T06:00	14063	150	-52.3	-79.9	264	17
2023-08-14T06:00	14101	149	-52.2	-79.8	260	16
2023-08-14T06:00	14140	148	-52.2	-79.8	256	15
2023-08-14T06:00	14163	148	-52.1	-79.7	251	14
2023-08-14T06:00	14199	147	-52.0	-80.0	245	14
2023-08-14T06:00	14231	146	-51.7	-79.7	239	15
2023-08-14T06:00	14257	146	-51.9	-79.9	234	15
2023-08-14T06:00	14292	145	-51.9	-79.5	230	16
2023-08-14T06:00	14320	144	-52.1	-79.7	228	16
2023-08-14T06:00	14352	143	-52.4	-79.6	226	17
2023-08-14T06:00	14385	143	-52.7	-79.8	226	17
2023-08-14T06:00	14412	142	-53.0	-79.8	225	18
2023-08-14T06:00	14440	142	-53.2	-79.9	225	18
2023-08-14T06:00	14475	141	-53.5	-80.2	224	19
2023-08-14T06:00	14502	140	-53.8	-80.1	223	20
2023-08-14T06:00	14526	140	-54.0	-80.3	221	20
2023-08-14T06:00	14553	139	-54.3	-80.2	221	20
2023-08-14T06:00	14575	139	-54.5	-80.4	220	21
2023-08-14T06:00	14597	138	-54.7	-80.3	220	21
2023-08-14T06:00	14622	138	-54.9	-80.4	220	21
2023-08-14T06:00	14645	137	-55.1	-80.6	220	21
2023-08-14T06:00	14667	137	-55.2	-80.7	220	21
2023-08-14T06:00	14688	136	-54.9	-80.4	221	21
2023-08-14T06:00	14711	136	-54.6	-80.2	222	20
2023-08-14T06:00	14731	135	-54.7	-80.3	223	20
2023-08-14T06:00	14753	135	-54.9	-80.4	225	20
2023-08-14T06:00	14771	134	-54.9	-80.4	227	20
2023-08-14T06:00	14793	134	-55.0	-80.8	228	20
2023-08-14T06:00	14813	134	-54.9	-80.7	229	19
2023-08-14T06:00	14834	133	-55.0	-80.8	230	19
2023-08-14T06:00	14855	133	-55.1	-80.9	231	19
2023-08-14T06:00	14878	132	-55.2	-80.9	232	18
2023-08-14T06:00	14899	132	-55.4	-80.8	233	18
2023-08-14T06:00	14919	131	-55.5	-80.9	235	18
2023-08-14T06:00	14941	131	-55.6	-81.0	236	17
2023-08-14T06:00	14965	130	-55.6	-81.3	237	17
2023-08-14T06:00	14985	130	-55.5	-81.2	238	17
2023-08-14T06:00	15008	130	-55.4	-81.4	238	17
2023-08-14T06:00	15029	129	-55.5	-81.4	238	17
2023-08-14T06:00	15052	129	-55.4	-81.4	238	18
2023-08-14T06:00	15074	128	-55.4	-81.4	238	18
2023-08-14T06:00	15095	128	-55.5	-81.4	239	18
2023-08-14T06:00	15118	127	-55.8	-81.7	239	19
2023-08-14T06:00	15140	127	-55.9	-81.5	241	19
2023-08-14T06:00	15162	126	-56.1	-81.6	242	19
2023-08-14T06:00	15181	126	-56.2	-81.5	243	19
2023-08-14T06:00	15204	126	-56.4	-81.6	244	19
2023-08-14T06:00	15225	125	-56.6	-81.8	244	18
2023-08-14T06:00	15246	125	-56.8	-81.9	245	18
2023-08-14T06:00	15268	124	-56.7	-81.9	245	17
2023-08-14T06:00	15290	124	-56.4	-81.9	246	17
2023-08-14T06:00	15308	124	-56.5	-82.0	247	16
2023-08-14T06:00	15331	123	-56.5	-82.2	247	16
2023-08-14T06:00	15351	123	-56.5	-82.2	248	15
2023-08-14T06:00	15373	122	-56.4	-82.1	248	15
2023-08-14T06:00	15397	122	-56.4	-82.4	249	14
2023-08-14T06:00	15418	121	-56.3	-82.3	249	13
2023-08-14T06:00	15443	121	-56.1	-82.2	249	13
2023-08-14T06:00	15465	121	-56.2	-82.3	249	12
2023-08-14T06:00	15485	120	-56.3	-82.3	249	12
2023-08-14T06:00	15509	120	-56.4	-82.4	250	11
2023-08-14T06:00	15534	119	-56.5	-82.5	250	10
2023-08-14T06:00	15556	119	-56.6	-82.3	251	9
2023-08-14T06:00	15577	118	-56.7	-82.4	251	8
2023-08-14T06:00	15601	118	-56.7	-82.4	250	7
2023-08-14T06:00	15623	118	-56.7	-82.7	248	7
2023-08-14T06:00	15645	117	-56.6	-82.6	244	6
2023-08-14T06:00	15666	117	-56.5	-82.8	238	6
2023-08-14T06:00	15690	116	-56.4	-82.7	231	6
2023-08-14T06:00	15715	116	-56.5	-82.8	224	6
2023-08-14T06:00	15737	115	-56.4	-82.7	219	7
2023-08-14T06:00	15759	115	-56.4	-82.7	214	7
2023-08-14T06:00	15782	115	-56.5	-82.8	212	8
2023-08-14T06:00	15807	114	-56.6	-82.9	210	8
2023-08-14T06:00	15829	114	-56.7	-82.9	210	8
2023-08-14T06:00	15850	113	-56.8	-83.0	211	9
2023-08-14T06:00	15875	113	-57.0	-82.9	212	9
2023-08-14T06:00	15898	113	-57.1	-83.0	214	10
2023-08-14T06:00	15921	112	-57.2	-83.0	216	10
2023-08-14T06:00	15945	112	-57.4	-83.2	217	11
2023-08-14T06:00	15967	111	-57.5	-83.3	219	11
2023-08-14T06:00	15991	111	-57.5	-83.3	219	12
2023-08-14T06:00	16015	111	-57.6	-83.3	219	12
2023-08-14T06:00	16039	110	-57.4	-83.2	219	13
2023-08-14T06:00	16064	110	-57.1	-83.0	218	13
2023-08-14T06:00	16086	109	-57.1	-83.0	218	14
2023-08-14T06:00	16109	109	-57.3	-83.1	219	14
2023-08-14T06:00	16129	108	-57.4	-83.2	219	14
2023-08-14T06:00	16156	108	-57.6	-83.3	220	13
2023-08-14T06:00	16175	108	-57.6	-83.3	221	13
2023-08-14T06:00	16200	107	-57.5	-83.6	222	12
2023-08-14T06:00	16218	107	-57.5	-83.6	223	11
2023-08-14T06:00	16243	107	-57.5	-83.6	222	11
2023-08-14T06:00	16265	106	-57.5	-83.6	222	10
2023-08-14T06:00	16286	106	-57.5	-83.6	221	10
2023-08-14T06:00	16309	105	-57.4	-83.5	220	10
2023-08-14T06:00	16330	105	-57.1	-83.5	219	10
2023-08-14T06:00	16354	105	-57.0	-83.5	220	11
2023-08-14T06:00	16375	104	-57.1	-83.5	221	12
2023-08-14T06:00	16398	104	-57.2	-83.9	223	12
2023-08-14T06:00	16421	104	-57.1	-83.9	226	13
2023-08-14T06:00	16445	103	-57.2	-83.9	228	14
2023-08-14T06:00	16466	103	-57.2	-83.9	229	15
2023-08-14T06:00	16490	103	-57.3	-84.0	230	15
2023-08-14T06:00	16510	102	-57.4	-84.1	230	15
2023-08-14T06:00	16531	102	-57.3	-84.4	228	14
2023-08-14T06:00	16547	102	-56.7	-84.2	226	14
2023-08-14T06:00	16571	101	-55.8	-84.3	223	13
2023-08-14T06:00	16588	101	-55.4	-84.0	220	13
2023-08-14T06:00	16610	101	-54.6	-83.9	217	13
2023-08-14T06:00	16631	100	-54.4	-83.7	215	13
2023-08-14T06:00	16653	100	-54.6	-83.9	215	13
2023-08-14T06:00	16674	100	-54.8	-83.6	215	13
2023-08-14T06:00	16693	99	-54.9	-83.7	216	13
2023-08-14T06:00	16713	99	-55.0	-83.7	217	13
2023-08-14T06:00	16733	99	-54.9	-83.7	218	13
2023-08-14T06:00	16753	98	-54.9	-83.7	219	13
2023-08-14T06:00	16774	98	-54.8	-83.6	220	13
2023-08-14T06:00	16793	98	-54.7	-83.5	221	13
2023-08-14T06:00	16814	97	-54.7	-83.5	221	13
2023-08-14T06:00	16833	97	-54.7	-83.5	221	13
2023-08-14T06:00	16855	97	-54.6	-83.4	222	14
2023-08-14T06:00	16877	96	-54.7	-83.5	222	14
2023-08-14T06:00	16897	96	-54.9	-83.3	224	14
2023-08-14T06:00	16918	96	-55.1	-83.4	226	14
2023-08-14T06:00	16939	96	-55.3	-83.6	228	14
2023-08-14T06:00	16960	95	-55.3	-83.6	230	14
2023-08-14T06:00	16985	95	-55.2	-83.5	232	14
2023-08-14T06:00	17004	95	-55.4	-83.6	235	13
2023-08-14T06:00	17028	94	-55.5	-83.7	237	13
2023-08-14T06:00	17052	94	-55.6	-83.8	238	13
2023-08-14T06:00	17073	94	-55.6	-83.8	240	13
2023-08-14T06:00	17093	93	-55.6	-83.8	240	12
2023-08-14T06:00	17119	93	-55.6	-83.8	241	12
2023-08-14T06:00	17137	93	-55.6	-83.8	240	12
2023-08-14T06:00	17162	92	-55.6	-83.8	239	11
2023-08-14T06:00	17184	92	-55.7	-83.9	238	11
2023-08-14T06:00	17207	92	-55.7	-83.9	236	11
2023-08-14T06:00	17232	91	-55.7	-83.9	233	11
2023-08-14T06:00	17256	91	-55.7	-83.9	232	10
2023-08-14T06:00	17275	91	-55.8	-84.3	231	10
2023-08-14T06:00	17298	90	-55.8	-84.3	230	10
2023-08-14T06:00	17323	90	-55.5	-84.1	230	9
2023-08-14T06:00	17347	90	-55.2	-83.9	229	9
2023-08-14T06:00	17369	89	-55.3	-84.0	228	9
2023-08-14T06:00	17395	89	-55.2	-84.3	226	9
2023-08-14T06:00	17417	89	-55.0	-84.2	224	9
2023-08-14T06:00	17443	88	-54.9	-84.1	222	9
2023-08-14T06:00	17469	88	-54.8	-84.0	220	9
2023-08-14T06:00	17490	88	-54.8	-84.0	218	9
2023-08-14T06:00	17513	87	-54.8	-84.0	217	9
2023-08-14T06:00	17539	87	-54.9	-83.7	216	9
2023-08-14T06:00	17562	87	-55.1	-83.8	215	10
2023-08-14T06:00	17587	86	-55.3	-84.0	215	10
2023-08-14T06:00	17607	86	-55.4	-84.0	214	10
2023-08-14T06:00	17628	86	-55.6	-83.8	214	10
2023-08-14T06:00	17653	85	-55.8	-83.9	215	10
2023-08-14T06:00	17678	85	-56.0	-84.1	216	10
2023-08-14T06:00	17699	85	-56.0	-84.1	217	10
2023-08-14T06:00	17721	85	-56.0	-84.1	218	10
2023-08-14T06:00	17745	84	-56.0	-84.1	219	10
2023-08-14T06:00	17766	84	-56.0	-84.1	220	9
2023-08-14T06:00	17787	84	-56.1	-84.2	220	9
2023-08-14T06:00	17810	83	-56.1	-84.6	221	9
2023-08-14T06:00	17833	83	-56.2	-84.6	221	9
2023-08-14T06:00	17855	83	-56.0	-84.5	221	9
2023-08-14T06:00	17878	82	-55.8	-84.3	221	9
2023-08-14T06:00	17901	82	-55.8	-84.3	222	9
2023-08-14T06:00	17921	82	-55.8	-84.3	224	9
2023-08-14T06:00	17947	82	-55.9	-84.4	226	10
2023-08-14T06:00	17968	81	-56.1	-84.6	228	10
2023-08-14T06:00	17991	81	-56.2	-84.6	230	9
2023-08-14T06:00	18015	81	-56.2	-84.6	232	9
2023-08-14T06:00	18036	80	-56.2	-84.6	233	9
2023-08-14T06:00	18062	80	-56.2	-84.6	233	9
2023-08-14T06:00	18081	80	-56.1	-84.6	233	9
2023-08-14T06:00	18106	80	-55.9	-84.4	232	9
2023-08-14T06:00	18132	79	-55.9	-84.4	233	9
2023-08-14T06:00	18152	79	-55.8	-84.3	234	9
2023-08-14T06:00	18174	79	-56.0	-84.5	236	9
2023-08-14T06:00	18198	78	-56.1	-84.6	238	9
2023-08-14T06:00	18220	78	-56.2	-84.6	240	9
2023-08-14T06:00	18246	78	-56.1	-84.6	243	8
2023-08-14T06:00	18270	78	-56.1	-84.6	244	8
2023-08-14T06:00	18292	77	-55.9	-84.8	244	7
2023-08-14T06:00	18311	77	-55.6	-84.6	241	6
2023-08-14T06:00	18338	77	-55.2	-84.3	237	6
2023-08-14T06:00	18360	76	-55.4	-84.5	231	5
2023-08-14T06:00	18385	76	-55.4	-84.5	223	5
2023-08-14T06:00	18410	76	-55.4	-84.5	216	5
2023-08-14T06:00	18436	76	-55.4	-84.5	208	5
2023-08-14T06:00	18462	75	-55.6	-84.2	200	6
2023-08-14T06:00	18487	75	-55.8	-84.3	193	6
2023-08-14T06:00	18510	75	-55.9	-84.4	188	6
2023-08-14T06:00	18536	74	-56.1	-84.6	184	7
2023-08-14T06:00	18560	74	-56.3	-84.7	181	7
2023-08-14T06:00	18584	74	-56.4	-84.8	181	8
2023-08-14T06:00	18608	74	-56.3	-84.7	181	8
2023-08-14T06:00	18632	73	-56.3	-84.7	182	8
2023-08-14T06:00	18656	73	-56.5	-84.9	184	8
2023-08-14T06:00	18680	73	-56.6	-84.9	186	9
2023-08-14T06:00	18706	72	-56.7	-84.6	187	9
2023-08-14T06:00	18732	72	-56.9	-84.8	188	9
2023-08-14T06:00	18754	72	-57.0	-84.8	189	10
2023-08-14T06:00	18778	72	-57.0	-84.8	191	10
2023-08-14T06:00	18799	71	-57.0	-84.8	193	10
2023-08-14T06:00	18824	71	-57.0	-85.2	196	10
2023-08-14T06:00	18845	71	-57.0	-85.2	200	10
2023-08-14T06:00	18870	71	-56.9	-85.2	204	9
2023-08-14T06:00	18894	70	-56.8	-85.1	208	9
2023-08-14T06:00	18917	70	-56.6	-84.9	211	9
2023-08-14T06:00	18941	70	-56.6	-84.9	214	9
2023-08-14T06:00	18967	70	-56.7	-85.0	217	9
2023-08-14T06:00	18986	69	-56.7	-85.0	220	9
2023-08-14T06:00	19007	69	-56.7	-85.0	223	9
2023-08-14T06:00	19030	69	-56.8	-85.1	226	9
2023-08-14T06:00	19050	69	-56.9	-85.2	228	10
2023-08-14T06:00	19074	68	-56.8	-85.1	230	10
2023-08-14T06:00	19096	68	-56.9	-85.2	231	10
2023-08-14T06:00	19118	68	-57.1	-85.3	231	10
2023-08-14T06:00	19140	68	-57.2	-85.4	231	10
2023-08-14T06:00	19159	67	-57.3	-85.5	231	10
2023-08-14T06:00	19182	67	-57.3	-85.5	231	9
2023-08-14T06:00	19206	67	-57.1	-85.3	229	8
2023-08-14T06:00	19226	67	-56.9	-85.2	228	7
2023-08-14T06:00	19250	66	-56.9	-85.2	226	6
2023-08-14T06:00	19270	66	-56.9	-85.6	223	6
2023-08-14T06:00	19291	66	-56.6	-85.4	220	5
2023-08-14T06:00	19310	66	-56.6	-85.4	217	5
2023-08-14T06:00	19332	66	-56.6	-85.4	213	4
2023-08-14T06:00	19353	65	-56.2	-85.1	210	4
2023-08-14T06:00	19373	65	-56.1	-85.0	207	5
2023-08-14T06:00	19394	65	-56.1	-85.0	206	5
2023-08-14T06:00	19418	65	-56.2	-85.1	207	5
2023-08-14T06:00	19439	64	-56.2	-85.1	209	6
2023-08-14T06:00	19463	64	-56.2	-85.1	212	6
2023-08-14T06:00	19484	64	-56.2	-85.1	216	7
2023-08-14T06:00	19503	64	-56.2	-85.1	221	7
2023-08-14T06:00	19528	64	-56.1	-85.0	224	8
2023-08-14T06:00	19551	63	-56.1	-85.0	227	8
2023-08-14T06:00	19571	63	-56.0	-84.9	229	8
2023-08-14T06:00	19591	63	-56.0	-84.9	231	9
2023-08-14T06:00	19616	63	-56.0	-84.9	232	9
2023-08-14T06:00	19638	63	-56.1	-85.0	234	8
2023-08-14T06:00	19664	62	-56.1	-85.0	236	8
2023-08-14T06:00	19681	62	-56.1	-85.0	238	7
2023-08-14T06:00	19704	62	-56.2	-85.1	241	7
2023-08-14T06:00	19728	62	-56.2	-85.1	243	6
2023-08-14T06:00	19748	61	-56.1	-85.0	243	6
2023-08-14T06:00	19770	61	-55.8	-85.2	241	5
2023-08-14T06:00	19797	61	-55.7	-85.2	237	5
2023-08-14T06:00	19819	61	-55.5	-85.0	229	4
2023-08-14T06:00	19843	61	-55.1	-84.7	220	4
2023-08-14T06:00	19863	60	-55.1	-84.7	210	4
2023-08-14T06:00	19891	60	-55.1	-84.7	201	3
2023-08-14T06:00	19915	60	-54.8	-85.0	194	3
2023-08-14T06:00	19939	60	-54.5	-84.8	187	3
2023-08-14T06:00	19961	59	-54.6	-84.8	179	2
2023-08-14T06:00	19986	59	-54.6	-84.3	170	2
2023-08-14T06:00	20013	59	-54.7	-84.4	159	2
2023-08-14T06:00	20039	59	-54.8	-84.5	150	2
2023-08-14T06:00	20062	58	-54.9	-84.6	144	3
2023-08-14T06:00	20085	58	-54.9	-84.6	142	4
2023-08-14T06:00	20115	58	-54.8	-84.5	141	4
2023-08-14T06:00	20138	58	-54.7	-84.4	142	5
2023-08-14T06:00	20162	58	-54.8	-84.5	144	5
2023-08-14T06:00	20192	57	-54.9	-84.6	147	6
2023-08-14T06:00	20214	57	-55.1	-84.7	151	6
2023-08-14T06:00	20239	57	-55.3	-84.4	155	6
2023-08-14T06:00	20263	57	-55.4	-84.5	160	7
2023-08-14T06:00	20288	56	-55.6	-84.6	165	7
2023-08-14T06:00	20309	56	-55.6	-84.6	169	7
2023-08-14T06:00	20334	56	-55.7	-84.7	172	8
2023-08-14T06:00	20359	56	-55.5	-84.5	174	8
2023-08-14T06:00	20383	56	-55.4	-84.9	175	8
2023-08-14T06:00	20408	55	-55.2	-84.8	177	8
2023-08-14T06:00	20433	55	-55.3	-84.9	180	8
2023-08-14T06:00	20451	55	-55.4	-84.9	182	8
2023-08-14T06:00	20482	55	-55.5	-85.0	185	8
2023-08-14T06:00	20499	55	-55.6	-85.1	187	7
2023-08-14T06:00	20525	54	-55.4	-84.9	188	7
2023-08-14T06:00	20548	54	-55.2	-84.8	189	7
2023-08-14T06:00	20575	54	-55.2	-84.8	190	7
2023-08-14T06:00	20599	54	-55.3	-84.9	190	6
2023-08-14T06:00	20621	54	-55.3	-84.9	192	6
2023-08-14T06:00	20643	53	-55.2	-84.8	195	5
2023-08-14T06:00	20665	53	-54.9	-84.6	198	5
2023-08-14T06:00	20689	53	-54.6	-84.8	203	5
2023-08-14T06:00	20713	53	-54.5	-84.3	207	5
2023-08-14T06:00	20736	53	-54.6	-84.3	210	5
2023-08-14T06:00	20763	52	-54.7	-84.4	211	5
2023-08-14T06:00	20784	52	-54.7	-84.4	210	4
2023-08-14T06:00	20809	52	-54.6	-84.3	206	4
2023-08-14T06:00	20835	52	-54.5	-84.3	201	4
2023-08-14T06:00	20854	52	-54.4	-84.2	192	4
2023-08-14T06:00	20879	51	-54.4	-84.2	182	3
2023-08-14T06:00	20903	51	-54.4	-84.2	169	3
2023-08-14T06:00	20925	51	-54.4	-84.2	159	3
2023-08-14T06:00	20950	51	-54.5	-84.3	151	3
2023-08-14T06:00	20971	51	-54.4	-84.2	147	3
2023-08-14T06:00	20998	51	-54.4	-84.2	146	4
2023-08-14T06:00	21020	50	-54.4	-84.2	147	4
2023-08-14T06:00	21047	50	-54.4	-84.2	149	4
2023-08-14T06:00	21071	50	-54.6	-84.3	151	5
2023-08-14T06:00	21093	50	-54.8	-84.5	153	5
2023-08-14T06:00	21120	50	-54.9	-84.6	155	5
2023-08-14T06:00	21143	49	-55.0	-84.6	157	6
2023-08-14T06:00	21169	49	-55.1	-84.7	158	6
2023-08-14T06:00	21195	49	-55.1	-84.7	158	6
2023-08-14T06:00	21218	49	-55.2	-84.8	157	7
2023-08-14T06:00	21243	49	-55.2	-84.8	155	7
2023-08-14T06:00	21267	48	-55.1	-84.7	154	7
2023-08-14T06:00	21295	48	-55.0	-84.6	152	7
2023-08-14T06:00	21318	48	-55.0	-84.6	151	6
2023-08-14T06:00	21342	48	-55.0	-84.6	151	6
2023-08-14T06:00	21366	48	-54.9	-84.6	151	5
2023-08-14T06:00	21390	48	-54.9	-84.6	151	5
2023-08-14T06:00	21416	47	-54.9	-84.6	150	5
2023-08-14T06:00	21438	47	-54.8	-84.5	150	5
2023-08-14T06:00	21466	47	-54.5	-84.3	150	6
2023-08-14T06:00	21492	47	-54.5	-84.3	150	6
2023-08-14T06:00	21519	47	-54.5	-84.3	151	6
2023-08-14T06:00	21544	46	-54.6	-84.3	152	7
2023-08-14T06:00	21569	46	-54.7	-84.4	154	7
2023-08-14T06:00	21592	46	-54.8	-84.5	156	7
2023-08-14T06:00	21617	46	-55.0	-84.6	160	7
2023-08-14T06:00	21645	46	-55.1	-84.7	163	7
2023-08-14T06:00	21672	45	-55.2	-84.8	167	7
2023-08-14T06:00	21692	45	-55.2	-84.8	170	7
2023-08-14T06:00	21715	45	-55.2	-84.8	172	7
2023-08-14T06:00	21745	45	-55.3	-84.9	174	7
2023-08-14T06:00	21767	45	-55.3	-84.9	177	7
2023-08-14T06:00	21794	45	-55.3	-84.9	181	6
2023-08-14T06:00	21817	44	-55.4	-84.9	185	6
2023-08-14T06:00	21843	44	-55.5	-85.0	190	6
2023-08-14T06:00	21865	44	-55.4	-84.9	193	5
2023-08-14T06:00	21895	44	-55.2	-84.8	195	5
2023-08-14T06:00	21917	44	-55.1	-84.7	196	4
2023-08-14T06:00	21945	44	-55.1	-84.7	197	4
2023-08-14T06:00	21971	43	-55.2	-84.8	199	3
2023-08-14T06:00	21997	43	-55.2	-84.8	204	2
2023-08-14T06:00	22020	43	-55.1	-84.7	213	1
2023-08-14T06:00	22047	43	-55.2	-84.8	245	1
2023-08-14T06:00	22075	43	-55.2	-84.8	338	1
2023-08-14T06:00	22100	43	-55.1	-84.7	5	1
2023-08-14T06:00	22124	42	-55.1	-84.7	15	2
2023-08-14T06:00	22146	42	-55.0	-84.6	21	2
2023-08-14T06:00	22175	42	-54.9	-84.6	26	2
2023-08-14T06:00	22198	42	-54.9	-84.6	32	2
2023-08-14T06:00	22228	42	-54.9	-84.6	40	2
2023-08-14T06:00	22249	42	-54.9	-84.6	52	2
2023-08-14T06:00	22272	41	-55.0	-84.6	71	2
2023-08-14T06:00	22296	41	-55.2	-84.8	90	2
2023-08-14T06:00	22322	41	-55.4	-84.5	105	2
2023-08-14T06:00	22347	41	-55.5	-84.5	115	3
2023-08-14T06:00	22368	41	-55.6	-84.6	122	3
2023-08-14T06:00	22392	41	-55.6	-85.1	127	2
2023-08-14T06:00	22419	40	-55.5	-85.0	132	2
2023-08-14T06:00	22443	40	-55.4	-84.9	134	2
2023-08-14T06:00	22465	40	-55.2	-84.8	130	1
2023-08-14T06:00	22492	40	-55.1	-84.7	121	1
2023-08-14T06:00	22520	40	-54.9	-84.6	114	1
2023-08-14T06:00	22543	40	-54.8	-85.0	111	1
2023-08-14T06:00	22567	40	-55.0	-85.1	113	2
2023-08-14T06:00	22593	39	-55.0	-85.1	115	2
2023-08-14T06:00	22618	39	-55.0	-84.6	117	1
2023-08-14T06:00	22641	39	-54.8	-84.5	117	1
2023-08-14T06:00	22673	39	-54.7	-84.4	113	1
2023-08-14T06:00	22695	39	-54.7	-84.4	108	1
2023-08-14T06:00	22721	39	-54.8	-84.5	105	2
2023-08-14T06:00	22750	38	-54.9	-84.6	103	2
2023-08-14T06:00	22777	38	-54.9	-84.6	102	3
2023-08-14T06:00	22800	38	-54.8	-84.5	101	4
2023-08-14T06:00	22827	38	-54.9	-84.6	101	5
2023-08-14T06:00	22854	38	-55.0	-84.6	102	5
2023-08-14T06:00	22878	38	-54.9	-84.6	103	6
2023-08-14T06:00	22905	37	-54.8	-85.0	105	7
2023-08-14T06:00	22935	37	-54.7	-84.9	107	7
2023-08-14T06:00	22958	37	-54.6	-84.8	109	7
2023-08-14T06:00	22984	37	-54.4	-84.7	112	7
2023-08-14T06:00	23010	37	-54.4	-84.7	115	7
2023-08-14T06:00	23037	37	-54.4	-84.7	117	6
2023-08-14T06:00	23059	37	-54.6	-84.8	120	6
2023-08-14T06:00	23083	36	-54.7	-84.4	123	6
2023-08-14T06:00	23109	36	-54.7	-84.4	125	5
2023-08-14T06:00	23142	36	-54.7	-84.4	126	5
2023-08-14T06:00	23166	36	-54.7	-84.4	127	5
2023-08-14T06:00	23194	36	-54.7	-84.4	128	4
2023-08-14T06:00	23216	36	-54.7	-84.4	129	4
2023-08-14T06:00	23246	36	-54.8	-84.5	128	3
2023-08-14T06:00	23271	35	-54.8	-84.5	124	3
2023-08-14T06:00	23294	35	-55.0	-84.6	117	3
2023-08-14T06:00	23319	35	-54.9	-84.6	107	2
2023-08-14T06:00	23345	35	-54.9	-85.1	96	2
2023-08-14T06:00	23370	35	-54.7	-84.9	87	3
2023-08-14T06:00	23395	35	-54.6	-84.8	81	3
2023-08-14T06:00	23422	35	-54.6	-84.8	76	3
2023-08-14T06:00	23449	34	-54.5	-84.8	73	4
2023-08-14T06:00	23470	34	-54.5	-84.8	71	4
2023-08-14T06:00	23498	34	-54.4	-84.7	71	5
2023-08-14T06:00	23518	34	-54.5	-84.8	73	6
2023-08-14T06:00	23552	34	-54.7	-84.4	76	6
2023-08-14T06:00	23577	34	-54.8	-84.5	80	7
2023-08-14T06:00	23605	34	-54.8	-84.5	83	7
2023-08-14T06:00	23626	33	-54.9	-84.6	87	7
2023-08-14T06:00	23651	33	-54.8	-84.5	91	8
2023-08-14T06:00	23678	33	-54.9	-84.6	95	8
2023-08-14T06:00	23702	33	-54.9	-84.6	99	8
2023-08-14T06:00	23731	33	-54.8	-85.0	104	8
2023-08-14T06:00	23756	33	-54.8	-85.0	107	8
2023-08-14T06:00	23783	33	-54.6	-84.8	110	8
2023-08-14T06:00	23813	33	-54.4	-84.7	111	8
2023-08-14T06:00	23835	32	-54.3	-84.6	111	8
2023-08-14T06:00	23859	32	-54.1	-85.0	109	8
2023-08-14T06:00	23888	32	-53.9	-84.9	106	7
2023-08-14T06:00	23914	32	-53.6	-84.6	104	7
2023-08-14T06:00	23940	32	-53.4	-84.5	102	7
2023-08-14T06:00	23967	32	-53.4	-84.5	100	8
2023-08-14T06:00	23992	32	-53.5	-84.6	100	8
2023-08-14T06:00	24019	32	-53.5	-84.0	101	8
2023-08-14T06:00	24044	31	-53.6	-84.1	103	8
2023-08-14T06:00	24075	31	-53.9	-84.3	105	8
2023-08-14T06:00	24101	31	-54.0	-84.4	108	8
2023-08-14T06:00	24129	31	-53.9	-84.3	111	8
2023-08-14T06:00	24157	31	-53.9	-84.3	114	8
2023-08-14T06:00	24180	31	-54.1	-84.5	116	7
2023-08-14T06:00	24206	31	-54.2	-84.5	118	7
2023-08-14T06:00	24237	30	-54.1	-84.5	118	7
2023-08-14T06:00	24264	30	-53.9	-84.3	118	7
2023-08-14T06:00	24290	30	-53.7	-84.2	118	6
2023-08-14T06:00	24316	30	-53.7	-84.2	117	6
2023-08-14T06:00	24342	30	-53.8	-84.8	117	6
2023-08-14T06:00	24374	30	-53.6	-84.6	117	5
2023-08-14T06:00	24396	30	-53.5	-84.6	116	5
2023-08-14T06:00	24421	30	-53.4	-84.5	116	5
2023-08-14T06:00	24446	29	-53.1	-84.3	116	5
2023-08-14T06:00	24479	29	-53.0	-84.2	115	4
2023-08-14T06:00	24504	29	-53.0	-84.2	115	4
2023-08-14T06:00	24533	29	-52.9	-84.1	113	4
2023-08-14T06:00	24555	29	-52.8	-84.1	111	4
2023-08-14T06:00	24586	29	-52.7	-84.0	108	4
2023-08-14T06:00	24610	29	-52.7	-84.0	101	4
2023-08-14T06:00	24635	29	-52.6	-83.9	92	3
2023-08-14T06:00	24664	29	-52.6	-83.9	79	3
2023-08-14T06:00	24684	28	-52.6	-83.9	67	3
2023-08-14T06:00	24719	28	-52.5	-83.8	59	4
2023-08-14T06:00	24739	28	-52.5	-83.8	54	4
2023-08-14T06:00	24770	28	-52.4	-83.8	53	5
2023-08-14T06:00	24795	28	-52.3	-83.7	54	5
2023-08-14T06:00	24820	28	-52.2	-83.6	58	5
2023-08-14T06:00	24848	28	-52.1	-83.5	64	5
2023-08-14T06:00	24869	28	-52.0	-83.5	72	5
2023-08-14T06:00	24895	27	-52.0	-83.5	81	5
2023-08-14T06:00	24915	27	-52.1	-83.5	89	5
2023-08-14T06:00	24951	27	-52.1	-83.5	95	5
2023-08-14T06:00	24976	27	-52.1	-83.5	97	4
2023-08-14T06:00	25003	27	-51.9	-84.0	94	4
2023-08-14T06:00	25027	27	-51.6	-83.8	88	4
2023-08-14T06:00	25051	27	-51.3	-83.6	80	4
2023-08-14T06:00	25085	27	-51.2	-83.5	73	4
2023-08-14T06:00	25110	27	-51.0	-83.3	68	5
2023-08-14T06:00	25133	27	-50.9	-83.3	66	6
2023-08-14T06:00	25154	26	-50.7	-83.1	66	7
2023-08-14T06:00	25179	26	-50.5	-83.7	66	7
2023-08-14T06:00	25209	26	-50.2	-83.5	68	8
2023-08-14T06:00	25231	26	-49.9	-83.2	70	9
2023-08-14T06:00	25267	26	-49.9	-83.2	72	9
2023-08-14T06:00	25285	26	-49.8	-82.5	75	9
2023-08-14T06:00	25311	26	-49.8	-82.5	79	8
2023-08-14T06:00	25342	26	-49.8	-82.5	83	8
2023-08-14T06:00	25368	26	-49.7	-82.4	86	7
2023-08-14T06:00	25391	25	-49.7	-82.4	89	6
2023-08-14T06:00	25416	25	-49.7	-82.4	90	6
2023-08-14T06:00	25453	25	-49.5	-82.9	88	6
2023-08-14T06:00	25477	25	-49.4	-82.9	86	5
2023-08-14T06:00	25508	25	-49.3	-82.8	82	5
2023-08-14T06:00	25536	25	-49.3	-82.1	78	5
2023-08-14T06:00	25557	25	-49.4	-82.2	74	5
2023-08-14T06:00	25585	25	-49.5	-82.3	71	5
2023-08-14T06:00	25607	25	-49.6	-82.3	68	5
2023-08-14T06:00	25639	25	-49.7	-82.4	65	6
2023-08-14T06:00	25669	24	-49.7	-82.4	62	6
2023-08-14T06:00	25693	24	-49.8	-82.5	60	7
2023-08-14T06:00	25723	24	-49.9	-82.5	59	7
2023-08-14T06:00	25755	24	-49.9	-82.5	59	7
2023-08-14T06:00	25776	24	-50.0	-82.6	61	8
2023-08-14T06:00	25807	24	-50.1	-82.7	64	8
2023-08-14T06:00	25829	24	-50.1	-82.7	68	8
2023-08-14T06:00	25861	24	-50.1	-82.7	72	8
2023-08-14T06:00	25891	24	-50.1	-82.7	76	8
2023-08-14T06:00	25916	24	-50.1	-82.7	81	8
2023-08-14T06:00	25944	23	-50.2	-82.8	85	7
2023-08-14T06:00	25968	23	-50.2	-82.8	88	7
2023-08-14T06:00	25995	23	-50.3	-82.8	91	7
2023-08-14T06:00	26022	23	-50.0	-82.6	93	8
2023-08-14T06:00	26058	23	-49.8	-82.5	95	8
2023-08-14T06:00	26078	23	-49.8	-83.2	98	8
2023-08-14T06:00	26113	23	-49.8	-83.2	100	8
2023-08-14T06:00	26139	23	-49.6	-82.3	102	7
2023-08-14T06:00	26163	23	-49.5	-82.3	105	6
2023-08-14T06:00	26196	23	-49.5	-82.3	108	6
2023-08-14T06:00	26223	22	-49.5	-82.3	111	5
2023-08-14T06:00	26245	22	-49.6	-82.3	115	4
2023-08-14T06:00	26281	22	-49.8	-82.5	120	3
2023-08-14T06:00	26308	22	-49.8	-82.5	125	3
2023-08-14T06:00	26326	22	-49.7	-83.1	128	2
2023-08-14T06:00	26358	22	-49.7	-83.1	126	2
2023-08-14T06:00	26386	22	-49.6	-83.0	115	2
2023-08-14T06:00	26414	22	-49.5	-82.9	96	2
2023-08-14T06:00	26440	22	-49.5	-82.9	80	2
2023-08-14T06:00	26479	22	-49.4	-82.9	72	2
2023-08-14T06:00	26518	22	-49.5	-82.9	69	3
2023-08-14T06:00	26528	21	-49.6	-83.0	69	3
2023-08-14T06:00	26561	21	-49.6	-83.0	69	3
2023-08-14T06:00	26595	21	-49.6	-83.0	70	3
2023-08-14T06:00	26617	21	-49.6	-83.0	72	3
2023-08-14T06:00	26647	21	-49.6	-83.0	73	3
2023-08-14T06:00	26670	21	-49.5	-82.9	75	3
2023-08-14T06:00	26705	21	-49.4	-82.9	77	3
2023-08-14T06:00	26740	21	-49.3	-82.8	78	3
2023-08-14T06:00	26766	21	-49.3	-82.8	78	4
2023-08-14T06:00	26802	21	-49.4	-82.9	76	4
2023-08-14T06:00	26824	20	-49.3	-82.8	74	4
2023-08-14T06:00	26860	20	-49.2	-82.7	71	4
2023-08-14T06:00	26892	20	-49.1	-82.7	70	4
2023-08-14T06:00	26911	20	-49.0	-82.6	72	4
2023-08-14T06:00	26956	20	-48.9	-82.5	77	4
2023-08-14T06:00	26977	20	-48.8	-82.4	84	4
2023-08-14T06:00	26997	20	-48.8	-82.4	90	4
2023-08-14T06:00	27033	20	-49.0	-82.6	95	5
2023-08-14T06:00	27062	20	-49.1	-82.7	99	5
2023-08-14T06:00	27085	20	-49.1	-82.7	101	5
2023-08-14T06:00	27114	20	-49.1	-82.7	102	6
2023-08-14T06:00	27146	19	-49.0	-82.6	102	6
2023-08-14T06:00	27178	19	-48.9	-82.5	102	6
2023-08-14T06:00	27208	19	-48.9	-82.5	101	6
2023-08-14T06:00	27240	19	-48.9	-82.5	100	5
2023-08-14T06:00	27267	19	-48.8	-82.4	99	5
2023-08-14T06:00	27301	19	-48.7	-82.4	96	5
2023-08-14T06:00	27321	19	-48.6	-82.3	92	4
2023-08-14T06:00	27351	19	-48.4	-82.2	87	4
2023-08-14T06:00	27388	19	-48.1	-81.9	81	4
2023-08-14T06:00	27413	19	-48.1	-81.9	74	4
2023-08-14T06:00	27446	19	-48.1	-81.9	68	5
2023-08-14T06:00	27471	19	-48.1	-81.9	62	5
2023-08-14T06:00	27512	18	-48.1	-81.9	57	5
2023-08-14T06:00	27538	18	-47.9	-81.8	54	6
2023-08-14T06:00	27564	18	-47.9	-81.8	51	6
2023-08-14T06:00	27597	18	-47.8	-81.7	50	6
2023-08-14T06:00	27616	18	-47.7	-81.6	51	6
2023-08-14T06:00	27642	18	-47.7	-82.4	54	6
2023-08-14T06:00	27664	18	-47.7	-82.4	58	6
2023-08-14T06:00	27703	18	-47.7	-82.4	63	6
2023-08-14T06:00	27729	18	-47.7	-82.4	66	6
2023-08-14T06:00	27760	18	-47.3	-82.2	69	6
2023-08-14T06:00	27779	18	-47.1	-82.0	71	6
2023-08-14T06:00	27812	18	-47.2	-82.1	74	7
2023-08-14T06:00	27849	18	-47.2	-82.1	76	7
2023-08-14T06:00	27863	17	-47.2	-82.1	79	8
2023-08-14T06:00	27894	17	-47.2	-82.1	82	8
2023-08-14T06:00	27923	17	-47.2	-82.1	84	8
2023-08-14T06:00	27955	17	-47.1	-82.0	87	8
2023-08-14T06:00	27977	17	-47.0	-81.9	89	8
2023-08-14T06:00	27999	17	-46.9	-81.9	92	7
2023-08-14T06:00	28030	17	-46.9	-81.9	94	7
2023-08-14T06:00	28072	17	-46.9	-81.9	95	7
2023-08-14T06:00	28086	17	-46.9	-81.9	95	6
2023-08-14T06:00	28114	17	-46.8	-81.8	93	6
2023-08-14T06:00	28147	17	-46.8	-81.8	91	5
2023-08-14T06:00	28168	17	-46.8	-81.8	87	5
2023-08-14T06:00	28190	17	-46.8	-81.8	82	5
2023-08-14T06:00	28223	17	-46.8	-81.8	77	5
2023-08-14T06:00	28257	16	-46.9	-81.9	72	5
2023-08-14T06:00	28275	16	-47.0	-81.9	66	5
2023-08-14T06:00	28312	16	-47.1	-82.0	62	5
2023-08-14T06:00	28342	16	-47.1	-82.0	59	5
2023-08-14T06:00	28371	16	-47.1	-82.0	57	6
2023-08-14T06:00	28397	16	-47.2	-82.1	58	6
2023-08-14T06:00	28431	16	-47.1	-82.0	60	7
2023-08-14T06:00	28443	16	-47.1	-82.0	62	7
2023-08-14T06:00	28488	16	-47.1	-82.0	64	8
2023-08-14T06:00	28516	16	-47.0	-81.9	65	8
2023-08-14T06:00	28545	16	-47.0	-81.9	66	9
2023-08-14T06:00	28572	16	-47.1	-82.0	66	9
2023-08-14T06:00	28601	16	-47.1	-82.0	66	9
2023-08-14T06:00	28627	16	-47.2	-82.1	66	9
2023-08-14T06:00	28657	16	-47.2	-82.1	67	9
2023-08-14T06:00	28690	15	-47.2	-82.1	68	8
2023-08-14T06:00	28730	15	-47.1	-82.0	68	8
2023-08-14T06:00	28746	15	-47.2	-82.1	67	7
2023-08-14T06:00	28774	15	-47.3	-82.2	63	7
2023-08-14T06:00	28810	15	-47.3	-82.2	58	7
2023-08-14T06:00	28839	15	-47.3	-82.2	51	7
2023-08-14T06:00	28858	15	-47.3	-82.2	46	7
2023-08-14T06:00	28903	15	-47.2	-82.1	41	7
2023-08-14T06:00	28916	15	-47.2	-82.1	39	7
2023-08-14T06:00	28968	15	-47.1	-82.0	39	7
2023-08-14T06:00	28992	15	-47.1	-82.0	40	7
2023-08-14T06:00	29021	15	-47.3	-82.2	43	7
2023-08-14T06:00	29047	15	-47.5	-82.3	48	7
2023-08-14T06:00	29088	15	-47.6	-82.4	54	7
2023-08-14T06:00	29107	15	-47.7	-81.6	60	7
2023-08-14T06:00	29152	14	-47.6	-82.4	64	7
2023-08-14T06:00	29171	14	-47.6	-82.4	66	7
2023-08-14T06:00	29198	14	-47.5	-82.3	66	7
2023-08-14T06:00	29227	14	-47.2	-82.1	63	7
2023-08-14T06:00	29264	14	-47.2	-82.1	59	7
2023-08-14T06:00	29294	14	-47.3	-82.2	54	7
2023-08-14T06:00	29325	14	-47.5	-82.3	50	7
2023-08-14T06:00	29352	14	-47.6	-82.4	47	7
2023-08-14T06:00	29390	14	-47.6	-82.4	47	8
2023-08-14T06:00	29401	14	-47.5	-82.3	48	8
2023-08-14T06:00	29440	14	-47.4	-82.2	50	9
2023-08-14T06:00	29463	14	-47.3	-82.2	54	9
2023-08-14T06:00	29510	14	-47.2	-82.1	58	9
2023-08-14T06:00	29529	14	-47.0	-81.9	62	10
2023-08-14T06:00	29567	14	-46.9	-81.9	65	10
2023-08-14T06:00	29589	13	-46.7	-81.7	66	11
2023-08-14T06:00	29617	13	-46.5	-81.6	67	11
2023-08-14T06:00	29650	13	-46.3	-82.4	68	11
2023-08-14T06:00	29682	13	-46.2	-82.3	70	11
2023-08-14T06:00	29716	13	-46.0	-82.1	72	11
2023-08-14T06:00	29742	13	-46.0	-82.1	76	11
2023-08-14T06:00	29756	13	-45.9	-82.1	79	11
2023-08-14T06:00	29799	13	-45.8	-82.0	83	11
2023-08-14T06:00	29821	13	-45.8	-82.0	85	11
2023-08-14T06:00	29853	13	-45.7	-81.9	86	11
2023-08-14T06:00	29881	13	-45.6	-81.9	86	11
2023-08-14T06:00	29907	13	-45.5	-81.8	85	11
2023-08-14T06:00	29945	13	-45.4	-81.7	85	11
2023-08-14T06:00	29970	13	-45.3	-81.6	86	11
2023-08-14T06:00	29984	13	-45.0	-81.4	87	11
2023-08-14T06:00	30026	13	-44.8	-81.3	90	11
2023-08-14T06:00	30037	13	-44.7	-81.2	91	11
2023-08-14T06:00	30077	13	-44.6	-81.2	91	11
2023-08-14T06:00	30122	12	-44.5	-81.1	89	11
2023-08-14T06:00	30143	12	-44.2	-80.9	86	10
2023-08-14T06:00	30178	12	-44.0	-80.7	83	10
2023-08-14T06:00	30190	12	-43.8	-80.6	82	10
2023-08-14T06:00	30207	12	-43.6	-80.4	82	10
2023-08-14T06:00	30247	12	-43.4	-80.3	84	10
2023-08-14T06:00	30268	12	-43.4	-80.3	85	9
2023-08-14T06:00	30303	12	-43.4	-80.3	85	9
2023-08-14T06:00	30329	12	-43.2	-80.2	85	9
2023-08-14T06:00	30356	12	-43.1	-80.1	84	8
2023-08-14T06:00	30390	12	-43.0	-80.0	83	8
2023-08-14T06:00	30403	12	-43.1	-80.1	81	8
2023-08-14T06:00	30431	12	-43.1	-80.1	80	8
2023-08-14T06:00	30466	12	-43.0	-80.0	78	9
2023-08-14T06:00	30499	12	-42.9	-81.1	78	9
2023-08-14T06:00	30518	12	-42.8	-81.0	78	9
2023-08-14T06:00	30561	12	-42.6	-80.8	79	10
2023-08-14T06:00	30572	12	-42.5	-80.8	80	10
2023-08-14T06:00	30614	12	-42.4	-80.7	81	10
2023-08-14T06:00	30645	12	-42.2	-80.6	81	10
2023-08-14T06:00	30665	11	-42.0	-80.4	81	11
2023-08-14T06:00	30701	11	-41.8	-80.3	80	11
2023-08-14T06:00	30718	11	-41.7	-80.2	80	11
2023-08-14T06:00	30746	11	-41.6	-80.1	80	12
2023-08-14T06:00	30765	11	-41.4	-80.0	81	12
2023-08-14T06:00	30803	11	-41.2	-79.9	82	13
2023-08-14T06:00	30844	11	-41.0	-79.7	84	14
2023-08-14T06:00	30885	11	-40.8	-79.6	85	15
2023-08-14T06:00	30927	11	-40.6	-79.5	86	16
2023-08-14T06:00	30967	11	-40.5	-79.4	86	15
2023-08-14T06:00	30990	11	-40.5	-79.4	87	15
2023-08-14T06:00	31022	11	-40.3	-79.2	88	15
2023-08-14T06:00	31044	11	-40.2	-79.2	89	15
2023-08-14T06:00	31071	11	-40.2	-79.2	91	14
2023-08-14T06:00	31111	11	-40.1	-79.1	92	14
2023-08-14T06:00	31136	11	-40.1	-79.1	93	14
2023-08-14T06:00	31176	11	-40.1	-79.1	93	14
2023-08-14T06:00	31193	11	-40.0	-79.0	93	14
2023-08-14T06:00	31231	11	-39.9	-79.0	93	14
2023-08-14T06:00	31260	11	-39.8	-78.9	93	14
2023-08-14T06:00	31279	10	-39.7	-78.8	93	14
2023-08-14T06:00	31310	10	-39.6	-78.8	93	14
2023-08-14T06:00	31356	10	-39.5	-78.7	94	14
2023-08-14T06:00	31395	10	-39.4	-78.6	94	14
2023-08-14T06:00	31400	10	-39.3	-78.5	94	15
2023-08-14T06:00	31437	10	-39.1	-78.4	94	15
2023-08-14T06:00	31484	10	-38.9	-78.3	94	16
2023-08-14T06:00	31504	10	-38.7	-78.1	95	16
2023-08-14T06:00	31532	10	-38.5	-78.0	96	17
2023-08-14T06:00	31566	10	-38.3	-77.9	98	18
2023-08-14T06:00	31596	10	-38.2	-77.8	101	18
2023-08-14T06:00	31619	10	-38.2	-77.8	104	18
2023-08-14T06:00	31661	10	-38.2	-77.8	106	19
2023-08-14T06:00	31691	10	-38.2	-77.8	109	19
2023-08-14T06:00	31712	10	-38.0	-77.6	110	18
2023-08-14T06:00	31728	10	-37.9	-77.6	111	18
2023-08-14T06:00	31789	10	-37.9	-77.6	111	17
2023-08-14T06:00	31815	10	-37.7	-77.4	110	17
2023-08-14T06:00	31819	10	-37.6	-77.4	110	16
2023-08-14T06:00	31854	10	-37.5	-77.3	109	15
2023-08-14T06:00	31890	10	-37.4	-77.2	109	15
2023-08-14T06:00	31942	10	-37.3	-77.2	108	14
2023-08-14T06:00	31958	10	-37.2	-77.1	108	14
2023-08-14T06:00	31994	9	-37.0	-77.0	107	14
2023-08-14T06:00	32017	9	-37.0	-77.0	106	14
2023-08-14T06:00	32059	9	-37.0	-77.0	104	14
2023-08-14T06:00	32078	9	-37.0	-77.0	103	14
2023-08-14T06:00	32105	9	-37.0	-77.0	102	14
2023-08-14T06:00	32150	9	-36.9	-76.9	103	14
2023-08-14T06:00	32186	9	-36.9	-76.9	105	14
2023-08-14T06:00	32200	9	-37.0	-77.0	108	14
2023-08-14T06:00	32230	9	-37.1	-77.0	112	15
2023-08-14T06:00	32257	9	-37.2	-77.1	115	15
2023-08-14T06:00	32284	9	-37.3	-77.2	118	16
2023-08-14T06:00	32316	9	-37.4	-77.2	120	16
2023-08-14T06:00	32360	9	-37.4	-77.2	123	16
2023-08-14T06:00	32368	9	-37.3	-77.2	126	16
2023-08-14T06:00	32398	9	-37.1	-77.0	128	16
2023-08-14T06:00	32442	9	-36.9	-76.9	131	15
2023-08-14T06:00	32461	9	-36.7	-76.7	135	15
2023-08-14T06:00	32524	9	-36.7	-76.7	138	15
2023-08-14T06:00	32545	9	-36.6	-76.7	141	15
2023-08-14T06:00	32573	9	-36.4	-76.5	143	15
2023-08-14T06:00	32591	9	-36.2	-76.4	144	14
2023-08-14T06:00	32616	9	-36.1	-76.3	144	14
2023-08-14T06:00	32656	9	-36.1	-76.3	143	13
2023-08-14T06:00	32675	9	-36.1	-76.3	142	13
2023-08-14T06:00	32706	9	-36.0	-76.3	141	12
2023-08-14T06:00	32737	9	-35.8	-76.1	139	12
2023-08-14T06:00	32775	8	-35.8	-76.1	137	11
2023-08-14T06:00	32808	8	-35.8	-76.1	135	11
2023-08-14T06:00	32841	8	-35.8	-76.1	133	10
2023-08-14T06:00	32855	8	-35.9	-76.2	129	10
2023-08-14T06:00	32894	8	-36.0	-76.3	126	10
2023-08-14T06:00	32926	8	-36.0	-76.3	122	9
2023-08-14T06:00	32939	8	-36.0	-76.3	117	9
2023-08-14T06:00	32981	8	-36.0	-76.3	113	9
2023-08-14T06:00	33001	8	-36.1	-76.3	110	9
2023-08-14T06:00	33029	8	-36.2	-76.4	107	9
2023-08-14T06:00	33066	8	-36.2	-76.4	105	10
2023-08-14T06:00	33091	8	-36.2	-76.4	104	10
2023-08-14T06:00	33137	8	-36.3	-76.5	104	10
2023-08-14T06:00	33155	8	-36.3	-76.5	105	9
2023-08-14T06:00	33174	8	-36.3	-76.5	106	9
2023-08-14T06:00	33222	8	-36.3	-76.5	107	9
2023-08-14T06:00	33228	8	-36.3	-76.5	108	9
2023-08-14T06:00	33262	8	-36.4	-76.5	109	9
2023-08-14T06:00	33308	8	-36.5	-76.6	110	9
2023-08-14T06:00	33332	8	-36.6	-76.7	112	9
2023-08-14T06:00	33334	8	-36.7	-76.7	114	8
2023-08-14T06:00	33368	8	-36.8	-76.8	116	8
2023-08-14T06:00	33399	8	-36.9	-76.9	118	7
2023-08-14T06:00	33468	8	-36.9	-76.9	119	7
2023-08-14T06:00	33499	8	-36.9	-76.9	118	7
2023-08-14T06:00	33523	8	-36.9	-76.9	114	7
2023-08-14T06:00	33564	8	-36.9	-76.9	109	7
2023-08-14T06:00	33618	8	-36.8	-76.8	101	7
2023-08-14T06:00	33632	7	-36.3	-76.5	85	7
2023-08-14T06:00	33670	7	-36.0	-76.3	79	8
2023-08-14T06:00	33706	7	-35.8	-76.1	77	8
2023-08-14T06:00	33718	7	-35.8	-76.1	77	9
2023-08-14T06:00	33763	7	-35.7	-76.1	79	10
2023-08-14T06:00	33792	7	-35.5	-75.9	83	11
2023-08-14T06:00	33803	7	-35.4	-75.8	87	11
2023-08-14T06:00	33853	7	-35.4	-75.8	92	12
2023-08-14T12:00	-999					
2023-08-14T12:00	136	1002	26.1	14.8	162	2
2023-08-14T12:00	158	999	25.8	14.4	159	2
2023-08-14T12:00	187	996	25.5	14.3	158	2
2023-08-14T12:00	223	992	25.2	14.1	159	3
2023-08-14T12:00	259	988	24.9	14.1	162	3
2023-08-14T12:00	295	984	24.4	13.9	167	3
2023-08-14T12:00	332	980	24.0	13.8	173	3
2023-08-14T12:00	369	975	23.7	13.8	178	3
2023-08-14T12:00	404	972	23.3	13.7	183	3
2023-08-14T12:00	440	968	22.8	13.6	186	2
2023-08-14T12:00	470	964	22.5	13.6	186	2
2023-08-14T12:00	498	961	22.3	13.5	179	1
2023-08-14T12:00	534	957	21.9	13.4	166	1
2023-08-14T12:00	567	954	21.6	13.3	157	2
2023-08-14T12:00	600	950	21.2	13.2	155	2
2023-08-14T12:00	622	947	21.0	13.0	155	3
2023-08-14T12:00	653	944	20.7	12.9	156	3
2023-08-14T12:00	675	942	20.6	11.9	156	3
2023-08-14T12:00	701	939	20.4	12.0	158	3
2023-08-14T12:00	721	937	20.2	12.1	163	3
2023-08-14T12:00	754	933	19.9	12.1	169	4
2023-08-14T12:00	787	930	19.5	12.2	173	4
2023-08-14T12:00	806	927	19.3	12.2	176	5
2023-08-14T12:00	829	925	19.1	12.2	177	5
2023-08-14T12:00	848	923	19.2	11.3	177	5
2023-08-14T12:00	867	921	19.2	10.6	177	4
2023-08-14T12:00	886	919	19.1	10.6	178	4
2023-08-14T12:00	902	917	19.0	10.6	180	4
2023-08-14T12:00	925	915	18.8	10.7	183	4
2023-08-14T12:00	947	913	18.6	10.6	188	4
2023-08-14T12:00	967	910	18.4	10.6	193	4
2023-08-14T12:00	990	908	18.2	10.7	199	4
2023-08-14T12:00	1015	905	18.0	10.9	205	4
2023-08-14T12:00	1041	903	17.7	11.0	208	5
2023-08-14T12:00	1066	900	17.5	11.2	209	5
2023-08-14T12:00	1090	897	17.3	10.8	209	5
2023-08-14T12:00	1113	895	17.1	11.0	209	6
2023-08-14T12:00	1138	892	16.9	11.1	209	6
2023-08-14T12:00	1162	890	16.7	11.2	210	7
2023-08-14T12:00	1186	887	16.6	11.1	211	7
2023-08-14T12:00	1207	885	16.5	11.6	212	7
2023-08-14T12:00	1223	883	16.5		213	7
2023-08-14T12:00	1243	881	16.4	10.7	213	7
2023-08-14T12:00	1261	879	16.4	10.2	213	7
2023-08-14T12:00	1283	877	16.3	9.2	213	7
2023-08-14T12:00	1305	875	16.1	9.0	214	7
2023-08-14T12:00	1335	872	16.0	8.7	217	7
2023-08-14T12:00	1357	870	15.8	8.7	222	7
2023-08-14T12:00	1382	867	15.6	8.9	227	7
2023-08-14T12:00	1406	865	15.5	9.5	232	7
2023-08-14T12:00	1428	862	15.3	10.1	235	8
2023-08-14T12:00	1458	859	15.0	10.4	236	8
2023-08-14T12:00	1482	857	14.8	10.6	237	8
2023-08-14T12:00	1513	854	14.6	9.9	236	8
2023-08-14T12:00	1532	852	14.4	11.0	235	8
2023-08-14T12:00	1552	850	14.2	11.3	235	8
2023-08-14T12:00	1578	847	14.1	11.1	235	8
2023-08-14T12:00	1599	845	14.0	9.8	237	9
2023-08-14T12:00	1620	843	13.9	9.2	239	9
2023-08-14T12:00	1643	841	13.8	8.9	242	9
2023-08-14T12:00	1666	838	13.6	8.9	245	10
2023-08-14T12:00	1690	836	13.5	8.8	247	10
2023-08-14T12:00	1713	834	13.2	8.8	247	10
2023-08-14T12:00	1741	831	13.1	9.0	246	11
2023-08-14T12:00	1766	829	12.9	9.1	245	12
2023-08-14T12:00	1791	826	12.7	9.2	244	12
2023-08-14T12:00	1811	824	12.5	9.2	242	13
2023-08-14T12:00	1835	822	12.4	9.4	241	13
2023-08-14T12:00	1857	820	12.4		240	13
2023-08-14T12:00	1886	817	12.2	9.7	238	12
2023-08-14T12:00	1916	814	12.0	9.6	236	12
2023-08-14T12:00	1945	811	11.7	9.8	235	12
2023-08-14T12:00	1972	808	11.5	9.6	233	12
2023-08-14T12:00	1999	806	11.3	9.3	232	12
2023-08-14T12:00	2036	803	11.0	9.1	231	12
2023-08-14T12:00	2056	800	10.8	9.2	229	12
2023-08-14T12:00	2082	798	10.5	9.2	226	12
2023-08-14T12:00	2113	795	10.3	9.1	225	12
2023-08-14T12:00	2140	793	10.0	8.9	224	12
2023-08-14T12:00	2164	790	9.8	8.7	224	12
2023-08-14T12:00	2192	788	9.7	8.2	226	12
2023-08-14T12:00	2218	785	9.8	5.0	227	12
2023-08-14T12:00	2245	783	10.4	-4.7	230	12
2023-08-14T12:00	2268	780	10.5	-4.3	232	12
2023-08-14T12:00	2292	778	10.3	-3.9	234	12
2023-08-14T12:00	2315	776	10.2	-5.5	236	11
2023-08-14T12:00	2341	773	10.4	-10.4	237	11
2023-08-14T12:00	2370	771	11.0	-24.6	239	11
2023-08-14T12:00	2394	769	11.0	-26.9	241	11
2023-08-14T12:00	2420	766	10.9	-27.4	242	11
2023-08-14T12:00	2450	763	10.7	-28.1	243	11
2023-08-14T12:00	2481	761	10.6	-29.3	244	11
2023-08-14T12:00	2513	758	10.6	-31.3	244	11
2023-08-14T12:00	2540	755	10.6	-33.3	245	11
2023-08-14T12:00	2569	753	10.5	-34.3	245	11
2023-08-14T12:00	2594	750	10.4	-33.9	245	11
2023-08-14T12:00	2623	748	10.3	-33.9	244	11
2023-08-14T12:00	2651	745	10.1	-34.1	243	11
2023-08-14T12:00	2681	743	9.9	-34.7	240	11
2023-08-14T12:00	2709	740	9.8	-32.6	237	12
2023-08-14T12:00	2736	738	9.7	-31.5	233	12
2023-08-14T12:00	2762	735	9.6	-32.3	230	13
2023-08-14T12:00	2788	733	9.4	-32.1	228	13
2023-08-14T12:00	2812	731	9.3	-30.4	226	13
2023-08-14T12:00	2832	729	9.2	-29.9	226	13
2023-08-14T12:00	2861	727	9.0	-29.7	226	13
2023-08-14T12:00	2889	724	8.8	-30.2	228	13
2023-08-14T12:00	2918	721	8.6	-30.6	231	12
2023-08-14T12:00	2953	719	8.5	-30.7	233	12
2023-08-14T12:00	2984	716	8.4	-30.4	235	12
2023-08-14T12:00	3006	714	8.2	-30.3	237	12
2023-08-14T12:00	3032	712	8.1	-29.8	238	12
2023-08-14T12:00	3054	710	8.1	-26.0	238	12
2023-08-14T12:00	3073	708	8.0	-23.6	237	12
2023-08-14T12:00	3094	706	7.8	-21.7	237	13
2023-08-14T12:00	3118	704	7.7	-18.2	236	13
2023-08-14T12:00	3142	702	7.5	-18.7	235	13
2023-08-14T12:00	3171	700	7.1	-9.3	235	12
2023-08-14T12:00	3192	698	6.8	-4.6	234	12
2023-08-14T12:00	3220	696	6.4		234	12
2023-08-14T12:00	3243	694	6.2	-3.1	233	12
2023-08-14T12:00	3268	692	5.9	-3.1	233	12
2023-08-14T12:00	3290	690	5.7	-3.1	231	12
2023-08-14T12:00	3307	688	5.5	-2.1	229	13
2023-08-14T12:00	3331	686	5.3	-1.9	227	13
2023-08-14T12:00	3356	684	5.1	-2.2	225	14
2023-08-14T12:00	3377	682	5.0	-2.4	224	14
2023-08-14T12:00	3406	680	4.8	-2.9	224	15
2023-08-14T12:00	3435	678	4.6	-3.1	226	15
2023-08-14T12:00	3462	675	4.4	-3.5	227	15
2023-08-14T12:00	3485	673	4.1	-3.4	227	15
2023-08-14T12:00	3511	671	3.9	-3.3	227	15
2023-08-14T12:00	3533	669	3.7	-3.0	226	15
2023-08-14T12:00	3553	668	3.4	-3.0	225	15
2023-08-14T12:00	3574	666	3.3	-3.0	226	15
2023-08-14T12:00	3595	664	3.0	-3.0	228	15
2023-08-14T12:00	3620	662	2.8	-3.0	230	15
2023-08-14T12:00	3651	660	2.5	-3.0	233	15
2023-08-14T12:00	3680	657	2.2	-3.1	233	16
2023-08-14T12:00	3709	655	1.9	-2.8	233	16
2023-08-14T12:00	3735	653	1.7		231	16
2023-08-14T12:00	3758	651	1.5	-3.0	229	16
2023-08-14T12:00	3781	649	1.3	-3.2	228	16
2023-08-14T12:00	3803	647	1.1	-3.5	227	16
2023-08-14T12:00	3835	645	0.9	-4.1	227	16
2023-08-14T12:00	3869	642	0.7	-4.4	227	16
2023-08-14T12:00	3898	640	0.5	-4.6	229	16
2023-08-14T12:00	3924	638	0.3	-5.3	231	15
2023-08-14T12:00	3949	636	0.1	-6.0	233	15
2023-08-14T12:00	3972	634	0.0	-6.1	235	15
2023-08-14T12:00	3997	632	-0.2	-6.4	235	16
2023-08-14T12:00	4019	630	-0.3	-6.3	235	16
2023-08-14T12:00	4040	629	-0.5	-5.7	234	17
2023-08-14T12:00	4062	627	-0.7	-4.9	234	17
2023-08-14T12:00	4089	625	-0.9	-4.6	234	18
2023-08-14T12:00	4115	623	-1.2	-3.5	235	17
2023-08-14T12:00	4147	620	-1.4	-4.7	236	17
2023-08-14T12:00	4176	618	-1.5	-5.2	238	17
2023-08-14T12:00	4203	616	-1.8	-5.5	238	17
2023-08-14T12:00	4233	613	-2.0	-6.0	237	16
2023-08-14T12:00	4264	611	-2.3	-6.4	235	16
2023-08-14T12:00	4293	609	-2.5	-6.9	233	16
2023-08-14T12:00	4309	608	-2.6	-7.0	231	16
2023-08-14T12:00	4331	606	-2.8	-7.6	229	16
2023-08-14T12:00	4358	604	-3.0	-8.5	228	16
2023-08-14T12:00	4384	602	-3.1	-9.6	227	16
2023-08-14T12:00	4424	599	-3.3	-10.2	227	16
2023-08-14T12:00	4449	597	-3.3	-12.0	226	16
2023-08-14T12:00	4480	595	-3.2	-13.0	226	16
2023-08-14T12:00	4513	592	-3.3	-14.8	227	16
2023-08-14T12:00	4542	590	-3.4	-13.9	227	16
2023-08-14T12:00	4568	588	-3.6	-13.2	227	15
2023-08-14T12:00	4589	587	-3.8	-13.4	228	15
2023-08-14T12:00	4609	585	-3.9	-13.6	229	14
2023-08-14T12:00	4627	584	-4.1	-13.8	229	14
2023-08-14T12:00	4654	582	-4.1	-15.1	230	14
2023-08-14T12:00	4681	580	-4.3	-13.9	231	14
2023-08-14T12:00	4707	578	-4.4	-13.4	231	14
2023-08-14T12:00	4737	576	-4.3	-16.2	230	14
2023-08-14T12:00	4770	573	-4.4	-17.5	230	14
2023-08-14T12:00	4800	571	-4.5	-19.8	230	14
2023-08-14T12:00	4829	569	-4.6	-18.0	231	15
2023-08-14T12:00	4848	568	-4.7	-19.0	232	16
2023-08-14T12:00	4868	566	-4.8	-19.9	233	16
2023-08-14T12:00	4893	564	-4.9	-21.0	234	17
2023-08-14T12:00	4920	562	-4.9	-21.9	234	17
2023-08-14T12:00	4947	561	-5.0	-22.4	234	17
2023-08-14T12:00	4975	558	-5.2	-22.3	235	17
2023-08-14T12:00	5010	556	-5.4	-21.9	235	17
2023-08-14T12:00	5038	554	-5.6	-22.9	236	16
2023-08-14T12:00	5064	552	-5.7	-25.0	238	16
2023-08-14T12:00	5095	550	-5.8	-26.7	240	15
2023-08-14T12:00	5124	548	-5.9	-25.8	242	15
2023-08-14T12:00	5142	547	-5.9	-26.1	244	15
2023-08-14T12:00	5158	546	-6.0	-24.8	244	15
2023-08-14T12:00	5175	544	-6.1	-23.0	243	15
2023-08-14T12:00	5193	543	-6.2	-23.7	241	16
2023-08-14T12:00	5213	542	-6.3	-24.4	240	16
2023-08-14T12:00	5232	541	-6.4	-25.7	240	16
2023-08-14T12:00	5252	539	-6.5	-23.8	240	16
2023-08-14T12:00	5283	537	-6.7	-22.4	240	16
2023-08-14T12:00	5311	535	-6.9	-22.2	241	16
2023-08-14T12:00	5336	533	-7.1	-21.4	241	15
2023-08-14T12:00	5366	531	-7.4	-21.3	240	15
2023-08-14T12:00	5396	529	-7.7	-21.1	238	14
2023-08-14T12:00	5429	527	-8.0	-20.0	237	14
2023-08-14T12:00	5456	525	-8.2	-20.2	236	14
2023-08-14T12:00	5475	524	-8.4	-20.1	235	14
2023-08-14T12:00	5494	523	-8.6	-19.5	236	15
2023-08-14T12:00	5518	521	-8.8	-18.7	236	16
2023-08-14T12:00	5552	519	-9.0	-17.9	236	16
2023-08-14T12:00	5586	517	-9.2	-17.7	236	17
2023-08-14T12:00	5610	515	-9.3	-18.2	236	17
2023-08-14T12:00	5628	514	-9.5	-17.9	235	17
2023-08-14T12:00	5648	512	-9.6	-17.3	234	17
2023-08-14T12:00	5678	510	-9.9	-17.2	233	17
2023-08-14T12:00	5707	508	-10.0	-18.1	232	17
2023-08-14T12:00	5737	506	-10.3	-17.8	231	17
2023-08-14T12:00	5766	505	-10.5	-17.3	231	18
2023-08-14T12:00	5796	503	-10.7	-16.9	232	18
2023-08-14T12:00	5820	501	-10.8	-17.0	234	18
2023-08-14T12:00	5841	500	-11.0	-17.0	236	18
2023-08-14T12:00	5866	498	-11.2	-17.2	237	18
2023-08-14T12:00	5895	496	-11.3	-18.3	238	18
2023-08-14T12:00	5921	494	-11.5	-18.6	237	19
2023-08-14T12:00	5955	492	-11.8	-19.8	235	19
2023-08-14T12:00	5984	490	-11.9	-21.5	233	19
2023-08-14T12:00	6012	489	-12.1		231	19
2023-08-14T12:00	6033	487	-12.0	-23.1	230	19
2023-08-14T12:00	6053	486	-12.1	-22.2	230	19
2023-08-14T12:00	6079	484	-12.2	-22.6	229	19
2023-08-14T12:00	6114	482	-12.4	-23.2	229	19
2023-08-14T12:00	6147	480	-12.6	-24.2	228	19
2023-08-14T12:00	6170	478	-12.7	-25.2	228	19
2023-08-14T12:00	6204	477	-12.7	-26.5	228	18
2023-08-14T12:00	6229	475	-12.7	-32.4	229	18
2023-08-14T12:00	6248	474	-12.7	-22.3	230	18
2023-08-14T12:00	6268	472	-12.8	-22.8	231	18
2023-08-14T12:00	6291	471	-12.9	-22.7	231	18
2023-08-14T12:00	6322	469	-13.1	-24.2	232	19
2023-08-14T12:00	6359	467	-13.3	-25.5	233	19
2023-08-14T12:00	6389	465	-13.5	-30.3	233	19
2023-08-14T12:00	6419	463	-13.7	-32.6	233	19
2023-08-14T12:00	6437	462	-13.8	-36.9	233	18
2023-08-14T12:00	6458	461	-13.9	-38.2	233	18
2023-08-14T12:00	6480	459	-14.0	-37.6	232	17
2023-08-14T12:00	6509	458	-14.3	-38.4	231	17
2023-08-14T12:00	6541	456	-14.5	-38.1	231	17
2023-08-14T12:00	6565	454	-14.7	-36.9	231	17
2023-08-14T12:00	6601	452	-14.9	-35.4	232	17
2023-08-14T12:00	6633	450	-15.0	-33.4	234	17
2023-08-14T12:00	6654	449	-15.2	-31.1	235	17
2023-08-14T12:00	6688	447	-15.5	-30.3	235	17
2023-08-14T12:00	6718	445	-15.8	-28.2	235	17
2023-08-14T12:00	6742	444	-16.0	-27.1	235	17
2023-08-14T12:00	6764	443	-16.2	-26.3	235	17
2023-08-14T12:00	6788	441	-16.4	-27.0	236	17
2023-08-14T12:00	6812	440	-16.6	-27.9	237	17
2023-08-14T12:00	6842	438	-16.7	-26.9	239	17
2023-08-14T12:00	6879	436	-16.9	-26.1	240	17
2023-08-14T12:00	6905	434	-17.1	-26.6	241	17
2023-08-14T12:00	6923	433	-17.2	-27.7	241	17
2023-08-14T12:00	6948	432	-17.4	-27.9	241	17
2023-08-14T12:00	6982	430	-17.8	-28.4	239	18
2023-08-14T12:00	7018	428	-18.1	-28.2	237	18
2023-08-14T12:00	7048	426	-18.3	-25.5	235	19
2023-08-14T12:00	7065	425	-18.2	-23.1	234	19
2023-08-14T12:00	7086	424	-18.2	-22.6	233	19
2023-08-14T12:00	7111	422	-18.4	-23.1	232	19
2023-08-14T12:00	7142	421	-18.5	-23.8	232	19
2023-08-14T12:00	7172	419	-18.6	-23.5	232	19
2023-08-14T12:00	7196	418	-18.8	-23.4	232	19
2023-08-14T12:00	7216	417	-19.0	-23.1	232	19
2023-08-14T12:00	7242	415	-19.2	-22.8	232	19
2023-08-14T12:00	7271	414	-19.4	-22.4	233	19
2023-08-14T12:00	7302	412	-19.5	-22.4	232	19
2023-08-14T12:00	7331	410	-19.5	-23.1	232	19
2023-08-14T12:00	7353	409	-19.6	-23.4	231	19
2023-08-14T12:00	7378	408	-19.8	-23.4	231	19
2023-08-14T12:00	7411	406	-20.0	-23.6	231	19
2023-08-14T12:00	7443	404	-20.3	-24.2	232	19
2023-08-14T12:00	7463	403	-20.4	-24.3	232	19
2023-08-14T12:00	7486	402	-20.6	-24.2	232	19
2023-08-14T12:00	7509	401	-20.8	-24.3	232	19
2023-08-14T12:00	7529	399	-20.9	-24.2	232	19
2023-08-14T12:00	7553	398	-21.1	-24.9	231	19
2023-08-14T12:00	7588	396	-21.4	-25.2	231	19
2023-08-14T12:00	7619	395	-21.6	-25.5	230	20
2023-08-14T12:00	7653	393	-21.8	-26.0	230	20
2023-08-14T12:00	7678	391	-21.9	-26.5	229	20
2023-08-14T12:00	7699	390	-22.1	-26.6	228	20
2023-08-14T12:00	7729	389	-22.3	-26.6	228	20
2023-08-14T12:00	7751	387	-22.5	-26.8	228	20
2023-08-14T12:00	7778	386	-22.8	-26.9	229	20
2023-08-14T12:00	7811	384	-23.1	-27.1	230	21
2023-08-14T12:00	7840	383	-23.3	-27.3	232	21
2023-08-14T12:00	7863	382	-23.5	-27.5	233	22
2023-08-14T12:00	7893	380	-23.7	-27.8	234	23
2023-08-14T12:00	7925	378	-23.9	-28.1	234	23
2023-08-14T12:00	7957	377	-24.1	-28.7	234	24
2023-08-14T12:00	7992	375	-24.1	-28.9	233	24
2023-08-14T12:00	8025	373	-24.4	-29.4	232	24
2023-08-14T12:00	8056	372	-24.6	-29.7	232	24
2023-08-14T12:00	8084	370	-24.8	-30.4	231	24
2023-08-14T12:00	8116	369	-25.0	-31.0	231	24
2023-08-14T12:00	8149	367	-25.2	-30.3	231	24
2023-08-14T12:00	8179	366	-25.5	-30.4	231	24
2023-08-14T12:00	8205	364	-25.8	-30.5	231	24
2023-08-14T12:00	8237	363	-26.0	-31.1	231	24
2023-08-14T12:00	8268	361	-26.2	-31.5	231	24
2023-08-14T12:00	8293	360	-26.4	-32.2	230	23
2023-08-14T12:00	8318	358	-26.6	-32.8	230	23
2023-08-14T12:00	8347	357	-26.8	-32.9	230	24
2023-08-14T12:00	8376	356	-27.1	-33.3	229	24
2023-08-14T12:00	8406	354	-27.4	-33.6	229	24
2023-08-14T12:00	8441	352	-27.7	-33.4	228	24
2023-08-14T12:00	8476	351	-28.0	-33.9	228	24
2023-08-14T12:00	8513	349	-28.3	-33.8	228	25
2023-08-14T12:00	8550	347	-28.6	-34.3	228	25
2023-08-14T12:00	8576	346	-28.9	-34.4	228	25
2023-08-14T12:00	8597	345	-29.0	-34.5	228	25
2023-08-14T12:00	8617	344	-29.2	-34.7	228	25
2023-08-14T12:00	8642	343	-29.4	-35.0	229	25
2023-08-14T12:00	8666	342	-29.6	-35.5	229	25
2023-08-14T12:00	8694	340	-29.8	-35.9	229	25
2023-08-14T12:00	8725	339	-30.1	-35.5	229	25
2023-08-14T12:00	8754	337	-30.3	-35.4	229	25
2023-08-14T12:00	8785	336	-30.6	-35.4	230	26
2023-08-14T12:00	8816	334	-30.8	-36.4	230	26
2023-08-14T12:00	8847	333	-31.1	-37.1	230	26
2023-08-14T12:00	8880	331	-31.4	-37.5	230	26
2023-08-14T12:00	8909	330	-31.5	-38.4	230	26
2023-08-14T12:00	8944	328	-31.6	-38.1	231	26
2023-08-14T12:00	8979	327	-31.8	-38.2	231	26
2023-08-14T12:00	9007	325	-32.1	-38.1	231	26
2023-08-14T12:00	9037	324	-32.4	-38.1	231	26
2023-08-14T12:00	9072	323	-32.7	-38.2	232	26
2023-08-14T12:00	9107	321	-33.1	-38.6	232	25
2023-08-14T12:00	9146	319	-33.4	-39.8	233	25
2023-08-14T12:00	9180	318	-33.7	-40.7	234	25
2023-08-14T12:00	9205	317	-33.9	-40.8	235	26
2023-08-14T12:00	9230	315	-34.1	-41.5	235	25
2023-08-14T12:00	9257	314	-34.3	-41.6	235	25
2023-08-14T12:00	9287	313	-34.6	-41.8	235	25
2023-08-14T12:00	9313	312	-34.8	-42.6	236	24
2023-08-14T12:00	9339	310	-35.0	-43.2	236	24
2023-08-14T12:00	9370	309	-35.2	-43.2	236	23
2023-08-14T12:00	9403	308	-35.5	-43.2	237	22
2023-08-14T12:00	9440	306	-35.8	-43.6	237	22
2023-08-14T12:00	9470	305	-36.1	-43.8	237	23
2023-08-14T12:00	9500	303	-36.4	-44.0	237	23
2023-08-14T12:00	9526	302	-36.6	-44.0	238	24
2023-08-14T12:00	9554	301	-36.9	-44.1	239	25
2023-08-14T12:00	9586	300	-37.2	-44.4	241	26
2023-08-14T12:00	9613	299	-37.4	-45.5	242	26
2023-08-14T12:00	9634	298	-37.5	-45.6	243	26
2023-08-14T12:00	9656	297	-37.8	-45.6	244	25
2023-08-14T12:00	9678	296	-37.9	-47.2	244	25
2023-08-14T12:00	9697	295	-38.0	-46.9	244	24
2023-08-14T12:00	9718	294	-38.2	-46.2	243	24
2023-08-14T12:00	9745	293	-38.4	-47.0	243	24
2023-08-14T12:00	9773	292	-38.6	-47.6	243	24
2023-08-14T12:00	9802	290	-38.8	-47.4	244	25
2023-08-14T12:00	9828	289	-39.1	-47.4	245	25
2023-08-14T12:00	9858	288	-39.3	-47.3	246	25
2023-08-14T12:00	9885	287	-39.6	-48.6	247	25
2023-08-14T12:00	9914	286	-39.8	-50.7	247	25
2023-08-14T12:00	9943	284	-39.9	-53.9	248	25
2023-08-14T12:00	9969	283	-40.0	-56.0	249	25
2023-08-14T12:00	9990	282	-40.1	-55.4	250	25
2023-08-14T12:00	10016	281	-40.3	-53.9	251	24
2023-08-14T12:00	10041	280	-40.5	-53.1	251	24
2023-08-14T12:00	10065	279	-40.7	-52.5	252	24
2023-08-14T12:00	10093	278	-40.9	-52.0	252	25
2023-08-14T12:00	10126	277	-41.2	-51.2	252	25
2023-08-14T12:00	10157	276	-41.5	-51.2	252	25
2023-08-14T12:00	10180	275	-41.7	-51.5	253	24
2023-08-14T12:00	10207	274	-42.0	-51.2	253	24
2023-08-14T12:00	10237	272	-42.3	-51.1	253	24
2023-08-14T12:00	10263	271	-42.6	-51.1	253	24
2023-08-14T12:00	10289	270	-42.8	-50.4	252	24
2023-08-14T12:00	10319	269	-43.0	-50.6	252	24
2023-08-14T12:00	10346	268	-43.3	-51.3	252	24
2023-08-14T12:00	10376	267	-43.6	-51.6	252	24
2023-08-14T12:00	10409	266	-43.9	-51.9	251	24
2023-08-14T12:00	10437	264	-44.2	-52.4	251	23
2023-08-14T12:00	10467	263	-44.5	-52.5	251	23
2023-08-14T12:00	10501	262	-44.7	-52.4	251	23
2023-08-14T12:00	10530	261	-45.0	-52.5	251	23
2023-08-14T12:00	10557	260	-45.2	-52.4	252	23
2023-08-14T12:00	10581	259	-45.4	-52.7	252	24
2023-08-14T12:00	10612	258	-45.7	-53.1	253	24
2023-08-14T12:00	10645	256	-46.0	-53.2	253	25
2023-08-14T12:00	10679	255	-46.3	-52.7	254	25
2023-08-14T12:00	10713	254	-46.6	-52.6	254	25
2023-08-14T12:00	10732	253	-46.8	-52.4	254	25
2023-08-14T12:00	10760	252	-47.1	-52.2	254	25
2023-08-14T12:00	10783	251	-47.3	-52.2	254	25
2023-08-14T12:00	10814	250	-47.6	-52.4	254	25
2023-08-14T12:00	10845	249	-47.8	-52.6	254	25
2023-08-14T12:00	10875	248	-48.1	-52.8	255	25
2023-08-14T12:00	10905	246	-48.4	-53.0	255	25
2023-08-14T12:00	10935	245	-48.7	-53.1	256	25
2023-08-14T12:00	10963	244	-49.0	-53.2	256	25
2023-08-14T12:00	11001	243	-49.3	-53.6	257	26
2023-08-14T12:00	11031	242	-49.6	-53.8	257	26
2023-08-14T12:00	11065	241	-49.9	-53.9	257	27
2023-08-14T12:00	11095	239	-50.2	-54.1	257	27
2023-08-14T12:00	11118	239	-50.3	-54.4	257	27
2023-08-14T12:00	11145	238	-50.6	-54.9	256	27
2023-08-14T12:00	11178	236	-50.9	-55.3	256	28
2023-08-14T12:00	11203	235	-51.1	-55.5	257	28
2023-08-14T12:00	11234	234	-51.4	-55.5	257	29
2023-08-14T12:00	11266	233	-51.7	-55.7	258	30
2023-08-14T12:00	11303	232	-52.1	-56.0	259	30
2023-08-14T12:00	11328	231	-52.3	-56.1	260	31
2023-08-14T12:00	11364	230	-52.6	-56.5	260	31
2023-08-14T12:00	11392	229	-52.9	-56.9	260	32
2023-08-14T12:00	11417	228	-53.0	-57.5	261	32
2023-08-14T12:00	11448	227	-53.2	-58.2	261	32
2023-08-14T12:00	11472	226	-53.5	-58.3	261	32
2023-08-14T12:00	11505	225	-53.8	-58.2	261	32
2023-08-14T12:00	11525	224	-54.0	-58.3	261	33
2023-08-14T12:00	11545	223	-54.2	-58.6	261	33
2023-08-14T12:00	11570	222	-54.4	-58.7	261	33
2023-08-14T12:00	11590	222	-54.6	-58.6	262	33
2023-08-14T12:00	11612	221	-54.8	-58.4	262	32
2023-08-14T12:00	11633	220	-55.0	-58.3	262	32
2023-08-14T12:00	11651	220	-55.1	-58.3	262	32
2023-08-14T12:00	11672	219	-55.3	-58.8	262	32
2023-08-14T12:00	11693	218	-55.5	-59.6	263	31
2023-08-14T12:00	11714	217	-55.5	-60.1	263	31
2023-08-14T12:00	11735	217	-55.7	-60.7	263	31
2023-08-14T12:00	11760	216	-55.8	-61.0	263	30
2023-08-14T12:00	11781	215	-56.0	-61.2	262	29
2023-08-14T12:00	11806	214	-56.2	-61.4	262	28
2023-08-14T12:00	11837	213	-56.2	-61.7	261	27
2023-08-14T12:00	11863	212	-56.0	-61.9	260	26
2023-08-14T12:00	11885	212	-56.1	-62.3	258	25
2023-08-14T12:00	11910	211	-56.1	-62.4	256	24
2023-08-14T12:00	11933	210	-56.0	-62.3	254	24
2023-08-14T12:00	11958	209	-55.8	-62.4	253	23
2023-08-14T12:00	11991	208	-55.8	-62.5	251	22
2023-08-14T12:00	12017	207	-56.0	-62.6	249	22
2023-08-14T12:00	12046	206	-56.2	-62.6	247	22
2023-08-14T12:00	12075	205	-56.5	-62.5	245	22
2023-08-14T12:00	12110	204	-56.7	-62.4	242	22
2023-08-14T12:00	12136	204	-56.9	-62.3	240	22
2023-08-14T12:00	12160	203	-57.0	-62.4	238	22
2023-08-14T12:00	12176	202	-57.0	-62.5	237	22
2023-08-14T12:00	12199	202	-57.0	-62.6	237	23
2023-08-14T12:00	12222	201	-57.1	-62.7	238	23
2023-08-14T12:00	12241	200	-57.2	-63.0	238	24
2023-08-14T12:00	12264	199	-57.1	-63.1	239	25
2023-08-14T12:00	12283	199	-57.2	-63.6	239	25
2023-08-14T12:00	12304	198	-57.2	-63.8	240	26
2023-08-14T12:00	12321	198	-57.2	-64.1	241	26
2023-08-14T12:00	12342	197	-57.1	-64.3	241	26
2023-08-14T12:00	12366	196	-57.2	-64.8	241	26
2023-08-14T12:00	12385	196	-57.1	-65.2	241	26
2023-08-14T12:00	12408	195	-57.2	-66.0	241	26
2023-08-14T12:00	12431	194	-57.2	-67.5	240	26
2023-08-14T12:00	12452	194	-56.4	-69.4	238	26
2023-08-14T12:00	12473	193	-55.5	-71.7	236	26
2023-08-14T12:00	12496	192	-55.1	-73.6	234	26
2023-08-14T12:00	12521	192	-54.9	-74.1	232	26
2023-08-14T12:00	12541	191	-54.4	-73.8	231	26
2023-08-14T12:00	12560	190	-54.2	-73.7	230	25
2023-08-14T12:00	12581	190	-54.0	-73.7	230	25
2023-08-14T12:00	12601	189	-53.9	-73.6	231	25
2023-08-14T12:00	12621	189	-53.7	-73.4	231	24
2023-08-14T12:00	12643	188	-53.7	-73.4	232	24
2023-08-14T12:00	12664	187	-53.7	-73.3	233	24
2023-08-14T12:00	12682	187	-53.8	-73.3	233	23
2023-08-14T12:00	12702	186	-53.9	-73.3	233	23
2023-08-14T12:00	12723	186	-54.0	-73.4	233	23
2023-08-14T12:00	12743	185	-54.0	-73.4	232	22
2023-08-14T12:00	12764	184	-53.9	-73.4	231	22
2023-08-14T12:00	12785	184	-53.8	-73.6	230	22
2023-08-14T12:00	12809	183	-53.7	-73.9	229	23
2023-08-14T12:00	12828	183	-53.4	-74.1	228	23
2023-08-14T12:00	12846	182	-53.3	-74.1	227	23
2023-08-14T12:00	12870	181	-53.4	-73.8	227	24
2023-08-14T12:00	12890	181	-53.4	-73.5	226	24
2023-08-14T12:00	12910	180	-53.5	-73.3	225	24
2023-08-14T12:00	12930	180	-53.7	-73.3	224	24
2023-08-14T12:00	12952	179	-53.9	-73.4	224	24
2023-08-14T12:00	12978	178	-54.0	-73.3	223	25
2023-08-14T12:00	13000	178	-54.2	-73.3	222	25
2023-08-14T12:00	13025	177	-54.4	-73.3	222	25
2023-08-14T12:00	13051	176	-54.6	-73.3	221	25
2023-08-14T12:00	13071	176	-54.8	-73.3	222	25
2023-08-14T12:00	13094	175	-54.9	-73.3	222	26
2023-08-14T12:00	13114	175	-55.0	-73.5	224	26
2023-08-14T12:00	13134	174	-55.0	-73.6	225	26
2023-08-14T12:00	13155	173	-55.1	-73.8	227	26
2023-08-14T12:00	13180	173	-54.9	-73.8	228	26
2023-08-14T12:00	13197	172	-54.8	-73.8	229	27
2023-08-14T12:00	13217	172	-54.8	-73.8	230	27
2023-08-14T12:00	13238	171	-54.9	-73.9	230	27
2023-08-14T12:00	13258	171	-55.0	-73.9	231	27
2023-08-14T12:00	13279	170	-55.2	-74.1	232	27
2023-08-14T12:00	13300	170	-55.3	-74.3	234	26
2023-08-14T12:00	13325	169	-55.3	-74.6	235	25
2023-08-14T12:00	13349	168	-55.4	-74.9	236	25
2023-08-14T12:00	13369	168	-55.4	-75.5	237	24
2023-08-14T12:00	13391	167	-55.4	-76.1	237	24
2023-08-14T12:00	13412	167	-55.4	-76.6	238	24
2023-08-14T12:00	13428	166	-55.3	-76.9	238	24
2023-08-14T12:00	13450	166	-55.3	-77.2	238	24
2023-08-14T12:00	13471	165	-55.2	-77.2	238	24
2023-08-14T12:00	13489	165	-55.0	-77.5	239	25
2023-08-14T12:00	13512	164	-54.9	-77.8	239	25
2023-08-14T12:00	13531	164	-54.8	-77.9	240	25
2023-08-14T12:00	13554	163	-54.7	-78.0	240	25
2023-08-14T12:00	13575	162	-54.7	-78.2	241	25
2023-08-14T12:00	13596	162	-54.5	-78.0	241	25
2023-08-14T12:00	13616	161	-54.2	-77.9	241	24
2023-08-14T12:00	13638	161	-54.0	-78.0	241	23
2023-08-14T12:00	13662	160	-53.9	-77.9	241	23
2023-08-14T12:00	13682	160	-53.8	-78.0	241	22
2023-08-14T12:00	13708	159	-53.8	-78.4	240	21
2023-08-14T12:00	13729	159	-53.7	-78.6	239	20
2023-08-14T12:00	13757	158	-53.3	-78.7	238	20
2023-08-14T12:00	13785	157	-52.9	-78.6	236	19
2023-08-14T12:00	13810	157	-52.9	-78.9	233	19
2023-08-14T12:00	13838	156	-53.0	-78.7	230	19
2023-08-14T12:00	13875	155	-53.1	-78.8	228	19
2023-08-14T12:00	13908	154	-53.3	-78.7	226	19
2023-08-14T12:00	13936	154	-53.6	-78.7	226	20
2023-08-14T12:00	13964	153	-53.8	-78.6	225	20
2023-08-14T12:00	13983	152	-54.0	-78.6	225	20
2023-08-14T12:00	14007	152	-54.3	-78.6	225	20
2023-08-14T12:00	14029	151	-54.5	-78.6	226	20
2023-08-14T12:00	14049	151	-54.6	-78.6	226	21
2023-08-14T12:00	14075	150	-54.8	-78.6	227	21
2023-08-14T12:00	14096	150	-54.9	-78.5	227	22
2023-08-14T12:00	14118	149	-55.0	-78.6	228	22
2023-08-14T12:00	14137	149	-55.1	-78.7	228	22
2023-08-14T12:00	14160	148	-55.3	-78.6	228	23
2023-08-14T12:00	14180	148	-55.4	-78.7	228	23
2023-08-14T12:00	14203	147	-55.5		228	23
2023-08-14T12:00	14221	147	-55.4	-78.9	227	23
2023-08-14T12:00	14242	146	-55.4	-78.9	227	23
2023-08-14T12:00	14266	146	-55.3	-79.0	227	23
2023-08-14T12:00	14286	145	-55.4	-79.1	227	23
2023-08-14T12:00	14305	145	-55.6	-79.1	227	24
2023-08-14T12:00	14331	144	-55.8	-79.2	228	24
2023-08-14T12:00	14350	144	-55.8	-79.4	229	24
2023-08-14T12:00	14370	143	-55.4	-79.3	230	24
2023-08-14T12:00	14391	143	-55.3	-79.4	231	24
2023-08-14T12:00	14411	143	-55.3	-79.4	231	24
2023-08-14T12:00	14432	142	-55.4	-79.5	231	24
2023-08-14T12:00	14455	142	-55.6	-79.6	231	24
2023-08-14T12:00	14476	141	-55.7	-79.7	231	23
2023-08-14T12:00	14496	141	-55.6	-79.6	231	23
2023-08-14T12:00	14515	140	-55.6	-79.8	230	23
2023-08-14T12:00	14539	140	-55.6	-79.8	231	23
2023-08-14T12:00	14559	139	-55.5	-79.8	231	23
2023-08-14T12:00	14577	139	-55.5	-80.0	232	23
2023-08-14T12:00	14598	138	-55.6	-80.1	233	22
2023-08-14T12:00	14622	138	-55.5	-80.0	234	22
2023-08-14T12:00	14641	138	-55.5	-80.2	236	21
2023-08-14T12:00	14660	137	-55.4	-80.1	238	21
2023-08-14T12:00	14681	137	-55.4	-80.1	239	20
2023-08-14T12:00	14703	136	-55.4	-80.1	240	20
2023-08-14T12:00	14724	136	-55.3	-80.0	240	20
2023-08-14T12:00	14744	135	-55.3	-80.3	241	19
2023-08-14T12:00	14765	135	-55.4	-80.4	241	19
2023-08-14T12:00	14784	134	-55.6	-80.5	241	19
2023-08-14T12:00	14804	134	-55.6	-80.5	241	19
2023-08-14T12:00	14828	134	-55.4	-80.4	240	18
2023-08-14T12:00	14847	133	-55.3	-80.3	239	18
2023-08-14T12:00	14868	133	-55.3	-80.5	238	18
2023-08-14T12:00	14891	132	-55.4	-80.6	238	18
2023-08-14T12:00	14911	132	-55.4	-80.6	239	18
2023-08-14T12:00	14932	131	-55.3	-80.5	239	18
2023-08-14T12:00	14954	131	-55.3	-80.8	239	18
2023-08-14T12:00	14975	130	-55.3	-80.8	238	17
2023-08-14T12:00	14998	130	-55.3	-81.0	236	17
2023-08-14T12:00	15021	130	-55.1	-80.9	234	17
2023-08-14T12:00	15046	129	-55.0	-81.1	232	17
2023-08-14T12:00	15068	129	-55.0	-81.1	229	17
2023-08-14T12:00	15087	128	-55.0	-81.1	227	17
2023-08-14T12:00	15109	128	-55.1	-80.9	226	17
2023-08-14T12:00	15131	127	-55.2	-80.7	225	17
2023-08-14T12:00	15154	127	-55.4	-80.8	225	17
2023-08-14T12:00	15178	126	-55.6	-80.8	225	18
2023-08-14T12:00	15196	126	-55.6	-80.8	226	18
2023-08-14T12:00	15219	126	-55.7	-80.8	227	18
2023-08-14T12:00	15240	125	-55.7	-81.1	228	18
2023-08-14T12:00	15261	125	-55.8	-81.2	229	18
2023-08-14T12:00	15282	124	-55.9	-81.2	230	17
2023-08-14T12:00	15303	124	-55.8	-81.2	230	17
2023-08-14T12:00	15325	124	-55.9	-81.2	230	17
2023-08-14T12:00	15345	123	-56.0	-81.6	229	16
2023-08-14T12:00	15366	123	-55.8	-81.4	228	16
2023-08-14T12:00	15391	122	-55.7	-81.6	227	16
2023-08-14T12:00	15413	122	-55.7	-81.6	225	16
2023-08-14T12:00	15433	121	-55.6	-81.5	225	16
2023-08-14T12:00	15453	121	-55.5	-81.4	225	17
2023-08-14T12:00	15478	121	-55.5	-81.4	226	17
2023-08-14T12:00	15499	120	-55.5	-81.4	227	17
2023-08-14T12:00	15522	120	-55.6	-81.5	228	17
2023-08-14T12:00	15543	119	-55.6	-81.5	230	17
2023-08-14T12:00	15565	119	-55.4	-81.4	231	17
2023-08-14T12:00	15586	119	-55.3	-81.3	233	17
2023-08-14T12:00	15609	118	-55.4	-81.4	235	16
2023-08-14T12:00	15629	118	-55.5	-81.4	236	16
2023-08-14T12:00	15653	117	-55.4	-81.4	236	16
2023-08-14T12:00	15676	117	-55.3	-81.6	236	15
2023-08-14T12:00	15697	117	-55.1	-81.4	235	14
2023-08-14T12:00	15717	116	-55.1	-81.4	233	14
2023-08-14T12:00	15740	116	-55.2	-81.5	232	14
2023-08-14T12:00	15762	115	-55.1	-81.4	231	13
2023-08-14T12:00	15780	115	-55.1	-81.4	230	13
2023-08-14T12:00	15802	115	-55.1	-81.4	229	14
2023-08-14T12:00	15822	114	-54.9	-81.3	227	14
2023-08-14T12:00	15842	114	-55.0	-81.3	226	15
2023-08-14T12:00	15867	113	-55.1	-81.4	224	15
2023-08-14T12:00	15888	113	-55.2	-81.5	223	16
2023-08-14T12:00	15910	113	-55.3	-81.6	223	16
2023-08-14T12:00	15931	112	-55.4	-81.4	222	16
2023-08-14T12:00	15957	112	-55.6	-81.5	223	17
2023-08-14T12:00	15976	112	-55.8	-81.7	223	17
2023-08-14T12:00	15995	111	-55.9	-81.8	224	17
2023-08-14T12:00	16017	111	-56.1	-81.6	225	16
2023-08-14T12:00	16038	110	-56.2	-81.7	225	16
2023-08-14T12:00	16063	110	-56.3	-81.8	226	15
2023-08-14T12:00	16081	110	-56.3	-81.8	227	15
2023-08-14T12:00	16104	109	-56.4	-81.9	227	15
2023-08-14T12:00	16124	109	-56.4	-81.9	228	16
2023-08-14T12:00	16145	109	-56.6	-82.0	228	16
2023-08-14T12:00	16167	108	-56.7	-82.1	229	16
2023-08-14T12:00	16190	108	-56.7	-82.1	229	17
2023-08-14T12:00	16212	107	-56.8	-82.2	230	17
2023-08-14T12:00	16233	107	-56.9	-82.3	231	16
2023-08-14T12:00	16256	107	-57.0	-82.3	232	16
2023-08-14T12:00	16279	106	-57.0	-82.3	233	16
2023-08-14T12:00	16302	106	-56.8	-82.5	235	15
2023-08-14T12:00	16324	106	-56.7	-82.4	237	15
2023-08-14T12:00	16347	105	-56.6	-82.6	240	14
2023-08-14T12:00	16366	105	-56.5	-82.5	242	14
2023-08-14T12:00	16390	104	-56.4	-82.4	245	13
2023-08-14T12:00	16415	104	-56.1	-82.5	247	13
2023-08-14T12:00	16436	104	-56.2	-82.6	250	12
2023-08-14T12:00	16458	103	-56.2	-82.6	252	12
2023-08-14T12:00	16479	103	-56.4	-82.7	252	11
2023-08-14T12:00	16503	103	-56.3	-82.6	252	11
2023-08-14T12:00	16526	102	-56.1	-82.8	251	11
2023-08-14T12:00	16549	102	-55.8	-82.5	249	10
2023-08-14T12:00	16570	102	-55.5	-82.6	248	11
2023-08-14T12:00	16593	101	-55.3	-82.5	246	11
2023-08-14T12:00	16613	101	-55.3	-82.5	245	11
2023-08-14T12:00	16636	101	-55.4	-82.6	244	10
2023-08-14T12:00	16659	100	-55.4	-82.6	243	10
2023-08-14T12:00	16680	100	-55.5	-82.6	241	10
2023-08-14T12:00	16701	100	-55.6	-82.7	239	10
2023-08-14T12:00	16724	99	-55.7	-82.8	237	10
2023-08-14T12:00	16749	99	-55.7	-82.8	236	10
2023-08-14T12:00	16769	98	-55.7	-82.8	235	10
2023-08-14T12:00	16791	98	-55.7	-82.8	234	11
2023-08-14T12:00	16816	98	-55.7	-82.5	235	11
2023-08-14T12:00	16837	97	-55.8	-82.5	236	11
2023-08-14T12:00	16859	97	-56.0	-82.7	237	12
2023-08-14T12:00	16883	97	-56.2	-82.9	238	12
2023-08-14T12:00	16904	96	-56.3	-82.6	239	13
2023-08-14T12:00	16926	96	-56.5	-82.8	241	13
2023-08-14T12:00	16949	96	-56.6	-82.9	242	13
2023-08-14T12:00	16973	95	-56.8	-83.0	243	13
2023-08-14T12:00	16992	95	-56.9	-83.1	244	13
2023-08-14T12:00	17014	95	-56.9	-83.1	245	13
2023-08-14T12:00	17033	94	-56.9	-83.1	246	12
2023-08-14T12:00	17058	94	-56.9	-83.4	246	11
2023-08-14T12:00	17079	94	-56.8	-83.3	246	10
2023-08-14T12:00	17103	93	-56.7	-83.2	245	9
2023-08-14T12:00	17124	93	-56.6	-83.2	244	9
2023-08-14T12:00	17148	93	-56.5	-83.1	241	8
2023-08-14T12:00	17171	92	-56.5	-83.1	238	8
2023-08-14T12:00	17196	92	-56.5	-83.1	234	7
2023-08-14T12:00	17216	92	-56.4	-83.0	230	7
2023-08-14T12:00	17239	91	-56.5	-83.1	227	7
2023-08-14T12:00	17254	91	-56.6	-83.2	225	7
2023-08-14T12:00	17279	91	-56.6	-83.2	223	8
2023-08-14T12:00	17301	91	-56.5	-83.1	223	8
2023-08-14T12:00	17323	90	-56.4	-83.0	223	8
2023-08-14T12:00	17348	90	-56.5	-83.1	223	9
2023-08-14T12:00	17370	90	-56.6	-83.2	223	9
2023-08-14T12:00	17389	89	-56.7	-83.2	222	10
2023-08-14T12:00	17415	89	-56.9	-83.4	222	10
2023-08-14T12:00	17435	89	-56.8	-83.3	221	11
2023-08-14T12:00	17456	88	-56.6	-83.2	220	11
2023-08-14T12:00	17479	88	-56.5	-83.1	220	11
2023-08-14T12:00	17500	88	-56.5	-83.4	219	11
2023-08-14T12:00	17523	87	-56.3	-83.3	219	11
2023-08-14T12:00	17548	87	-56.2	-83.2	218	11
2023-08-14T12:00	17569	87	-56.2	-83.2	219	11
2023-08-14T12:00	17591	86	-56.1	-83.1	219	11
2023-08-14T12:00	17616	86	-56.2	-83.5	219	11
2023-08-14T12:00	17637	86	-56.1	-83.4	219	11
2023-08-14T12:00	17663	86	-55.9	-83.3	219	10
2023-08-14T12:00	17682	85	-55.8	-83.2	219	10
2023-08-14T12:00	17706	85	-55.7	-83.1	218	10
2023-08-14T12:00	17728	85	-55.5	-83.0	216	10
2023-08-14T12:00	17749	84	-55.6	-83.1	215	11
2023-08-14T12:00	17777	84	-55.7	-83.1	214	11
2023-08-14T12:00	17797	84	-55.8	-83.2	215	11
2023-08-14T12:00	17819	83	-55.9	-82.9	216	11
2023-08-14T12:00	17841	83	-56.1	-83.1	217	11
2023-08-14T12:00	17864	83	-56.2	-83.2	219	11
2023-08-14T12:00	17884	83	-56.3	-83.3	222	11
2023-08-14T12:00	17906	82	-56.3	-83.3	223	10
2023-08-14T12:00	17929	82	-56.3	-83.3	224	10
2023-08-14T12:00	17951	82	-56.4	-83.3	223	9
2023-08-14T12:00	17973	81	-56.4	-83.3	222	9
2023-08-14T12:00	17996	81	-56.3	-83.6	219	8
2023-08-14T12:00	18019	81	-56.1	-83.4	217	8
2023-08-14T12:00	18042	81	-55.8	-83.2	215	8
2023-08-14T12:00	18061	80	-55.6	-83.4	215	7
2023-08-14T12:00	18084	80	-55.5		216	7
2023-08-14T12:00	18107	80	-55.4	-83.3	217	7
2023-08-14T12:00	18123	80	-55.5		217	7
2023-08-14T12:00	18151	79	-55.6	-83.1	217	8
2023-08-14T12:00	18173	79	-55.7	-83.1	216	8
2023-08-14T12:00	18195	79	-55.7	-83.1	215	7
2023-08-14T12:00	18218	78	-55.7	-83.1	212	7
2023-08-14T12:00	18242	78	-55.8	-83.2	210	7
2023-08-14T12:00	18260	78	-55.8	-83.2	207	7
2023-08-14T12:00	18288	78	-55.8	-83.2	204	6
2023-08-14T12:00	18309	77	-55.9	-83.3	200	6
2023-08-14T12:00	18331	77	-56.1	-83.1	197	6
2023-08-14T12:00	18351	77	-56.3	-83.3	194	7
2023-08-14T12:00	18374	76	-56.4	-83.3	191	7
2023-08-14T12:00	18401	76	-56.3	-83.3	190	7
2023-08-14T12:00	18424	76	-56.4	-83.3	189	8
2023-08-14T12:00	18444	76	-56.6	-83.5	188	8
2023-08-14T12:00	18467	75	-56.8	-83.3	189	9
2023-08-14T12:00	18489	75	-57.0	-83.5	189	9
2023-08-14T12:00	18513	75	-57.1	-83.5	191	10
2023-08-14T12:00	18533	75	-57.2	-83.6	192	10
2023-08-14T12:00	18559	74	-57.3	-83.7	194	11
2023-08-14T12:00	18585	74	-57.4	-83.8	197	11
2023-08-14T12:00	18607	74	-57.4	-83.8	199	11
2023-08-14T12:00	18630	73	-57.5	-83.9	202	11
2023-08-14T12:00	18652	73	-57.5	-83.9	205	11
2023-08-14T12:00	18676	73	-57.6	-83.9	209	10
2023-08-14T12:00	18700	73	-57.6	-83.9	212	10
2023-08-14T12:00	18719	72	-57.6	-84.3	216	10
2023-08-14T12:00	18745	72	-57.5	-84.2	218	10
2023-08-14T12:00	18771	72	-57.4	-84.1	220	10
2023-08-14T12:00	18788	72	-57.2	-83.9	220	10
2023-08-14T12:00	18817	71	-57.1	-83.9	220	10
2023-08-14T12:00	18838	71	-57.2	-84.3	218	10
2023-08-14T12:00	18863	71	-57.1	-84.2	217	9
2023-08-14T12:00	18884	71	-56.8	-84.0	216	9
2023-08-14T12:00	18908	70	-56.8	-84.0	215	8
2023-08-14T12:00	18932	70	-56.6	-84.2	215	8
2023-08-14T12:00	18956	70	-56.4	-84.0	214	7
2023-08-14T12:00	18974	70	-56.2	-83.9	213	6
2023-08-14T12:00	19003	69	-56.0	-83.7	209	6
2023-08-14T12:00	19022	69	-56.0	-83.7	203	5
2023-08-14T12:00	19045	69	-55.9	-84.0	195	5
2023-08-14T12:00	19070	69	-55.4	-83.6	187	6
2023-08-14T12:00	19091	68	-55.1	-83.4	182	6
2023-08-14T12:00	19112	68	-55.0		179	6
2023-08-14T12:00	19135	68	-55.1	-83.4	178	7
2023-08-14T12:00	19162	68	-55.3	-83.2	178	7
2023-08-14T12:00	19183	67	-55.5		179	7
2023-08-14T12:00	19202	67	-55.6	-83.4	181	8
2023-08-14T12:00	19228	67	-55.5	-83.0	184	8
2023-08-14T12:00	19255	67	-55.6	-83.1	187	8
2023-08-14T12:00	19277	66	-55.8	-83.2	191	8
2023-08-14T12:00	19298	66	-56.0	-83.4	194	8
2023-08-14T12:00	19322	66	-56.0	-83.4	197	8
2023-08-14T12:00	19347	66	-55.8	-83.6	199	8
2023-08-14T12:00	19364	65	-55.7	-83.5	199	7
2023-08-14T12:00	19388	65	-55.7	-83.5	197	6
2023-08-14T12:00	19415	65	-55.6	-83.4	194	6
2023-08-14T12:00	19435	65	-55.6	-83.4	189	5
2023-08-14T12:00	19458	64	-55.6	-83.4	183	5
2023-08-14T12:00	19484	64	-55.6	-83.4	179	5
2023-08-14T12:00	19509	64	-55.8	-83.6	177	5
2023-08-14T12:00	19529	64	-55.7	-83.5	177	5
2023-08-14T12:00	19554	64	-55.5		177	5
2023-08-14T12:00	19576	63	-55.4	-83.3	177	6
2023-08-14T12:00	19600	63	-55.3	-83.6	178	6
2023-08-14T12:00	19626	63	-55.1	-83.4	178	6
2023-08-14T12:00	19646	63	-55.1	-83.4	179	6
2023-08-14T12:00	19666	62	-54.9	-83.3	180	6
2023-08-14T12:00	19695	62	-55.0		181	6
2023-08-14T12:00	19720	62	-55.0		182	6
2023-08-14T12:00	19742	62	-54.8	-83.2	182	7
2023-08-14T12:00	19765	61	-54.7	-83.1	182	7
2023-08-14T12:00	19790	61	-54.8	-83.2	182	8
2023-08-14T12:00	19814	61	-54.9	-82.9	183	8
2023-08-14T12:00	19841	61	-55.0	-82.9	185	8
2023-08-14T12:00	19864	60	-55.1	-83.0	188	9
2023-08-14T12:00	19885	60	-55.2	-83.1	191	9
2023-08-14T12:00	19914	60	-55.3	-83.2	195	8
2023-08-14T12:00	19941	60	-55.2	-83.1	199	8
2023-08-14T12:00	19962	60	-55.2	-83.1	202	8
2023-08-14T12:00	19986	59	-55.2	-83.1	205	8
2023-08-14T12:00	20014	59	-55.1	-83.4	206	7
2023-08-14T12:00	20037	59	-55.0		205	7
2023-08-14T12:00	20065	59	-55.0		203	6
2023-08-14T12:00	20087	58	-54.9	-83.3	200	6
2023-08-14T12:00	20110	58	-54.7	-83.1	197	6
2023-08-14T12:00	20137	58	-54.7	-83.1	194	5
2023-08-14T12:00	20161	58	-54.7	-83.1	192	5
2023-08-14T12:00	20188	58	-54.6	-83.0	191	4
2023-08-14T12:00	20212	57	-54.5	-82.9	192	4
2023-08-14T12:00	20237	57	-54.5	-82.9	193	3
2023-08-14T12:00	20261	57	-54.6	-83.0	196	2
2023-08-14T12:00	20286	57	-54.5	-82.9	199	2
2023-08-14T12:00	20310	56	-54.6	-83.0	199	2
2023-08-14T12:00	20336	56	-54.6	-83.0	196	2
2023-08-14T12:00	20361	56	-54.5	-82.9	194	2
2023-08-14T12:00	20390	56	-54.4	-82.9	193	3
2023-08-14T12:00	20412	56	-54.6	-83.0	195	3
2023-08-14T12:00	20437	55	-54.7	-82.7	197	4
2023-08-14T12:00	20460	55	-54.9	-82.9	200	4
2023-08-14T12:00	20487	55	-55.0	-82.9	201	4
2023-08-14T12:00	20518	55	-55.0	-82.9	200	4
2023-08-14T12:00	20543	54	-55.1	-83.0	197	4
2023-08-14T12:00	20565	54	-55.1	-83.4	191	4
2023-08-14T12:00	20588	54	-54.9	-83.3	183	4
2023-08-14T12:00	20611	54	-54.6	-83.0	174	3
2023-08-14T12:00	20635	54	-54.3	-83.2	167	3
2023-08-14T12:00	20656	53	-54.1	-83.1	159	3
2023-08-14T12:00	20681	53	-54.1	-83.1	151	3
2023-08-14T12:00	20706	53	-54.0	-83.0	142	3
2023-08-14T12:00	20736	53	-54.0	-83.0	134	4
2023-08-14T12:00	20758	53	-54.1	-82.6	128	4
2023-08-14T12:00	20782	52	-54.2	-82.7	126	5
2023-08-14T12:00	20807	52	-54.4	-82.9	126	5
2023-08-14T12:00	20831	52	-54.5	-82.9	130	5
2023-08-14T12:00	20854	52	-54.5	-82.9	134	5
2023-08-14T12:00	20883	52	-54.4	-82.9	139	6
2023-08-14T12:00	20903	51	-54.1	-82.6	142	6
2023-08-14T12:00	20927	51	-54.0	-82.6	145	6
2023-08-14T12:00	20951	51	-54.1	-83.1	147	5
2023-08-14T12:00	20974	51	-54.1	-83.1	148	5
2023-08-14T12:00	21002	51	-53.9	-82.9	148	5
2023-08-14T12:00	21030	50	-53.9	-82.9	147	5
2023-08-14T12:00	21053	50	-53.9	-82.9	146	6
2023-08-14T12:00	21076	50	-53.8	-82.4	146	6
2023-08-14T12:00	21099	50	-53.9	-82.5	146	6
2023-08-14T12:00	21116	50	-54.0	-82.6	147	7
2023-08-14T12:00	21154	50	-54.0	-82.6	149	7
2023-08-14T12:00	21176	49	-53.9	-82.5	150	7
2023-08-14T12:00	21205	49	-53.9	-82.5	151	7
2023-08-14T12:00	21227	49	-54.0	-82.6	151	6
2023-08-14T12:00	21260	49	-54.0	-82.6	151	6
2023-08-14T12:00	21279	49	-54.1	-82.6	151	6
2023-08-14T12:00	21303	48	-54.1	-82.6	152	6
2023-08-14T12:00	21330	48	-54.1	-82.6	155	6
2023-08-14T12:00	21354	48	-54.0	-83.0	159	6
2023-08-14T12:00	21376	48	-53.9	-82.9	163	6
2023-08-14T12:00	21404	48	-53.8	-82.8	166	6
2023-08-14T12:00	21430	47	-53.5	-82.6	167	6
2023-08-14T12:00	21451	47	-53.3	-82.5	166	5
2023-08-14T12:00	21479	47	-53.3	-82.5	162	5
2023-08-14T12:00	21506	47	-53.3	-82.5	157	5
2023-08-14T12:00	21536	47	-53.3	-82.5	149	4
2023-08-14T12:00	21555	46	-53.4	-82.5	141	4
2023-08-14T12:00	21580	46	-53.5	-82.6	132	4
2023-08-14T12:00	21606	46	-53.4	-82.5	125	5
2023-08-14T12:00	21636	46	-53.2	-82.4	120	5
2023-08-14T12:00	21666	46	-53.2	-82.4	118	5
2023-08-14T12:00	21693	46	-53.2	-82.4	117	6
2023-08-14T12:00	21714	45	-53.1	-82.3	117	6
2023-08-14T12:00	21740	45	-53.1	-82.3	118	7
2023-08-14T12:00	21770	45	-53.2	-82.4	119	7
2023-08-14T12:00	21794	45	-53.4	-82.5	121	8
2023-08-14T12:00	21822	45	-53.5	-82.6	123	8
2023-08-14T12:00	21851	44	-53.5	-82.6	126	9
2023-08-14T12:00	21875	44	-53.5	-82.6	130	9
2023-08-14T12:00	21905	44	-53.3	-82.5	134	10
2023-08-14T12:00	21926	44	-53.3	-82.5	139	10
2023-08-14T12:00	21951	44	-53.2	-82.4	143	10
2023-08-14T12:00	21980	44	-53.2	-82.4	147	10
2023-08-14T12:00	22007	43	-53.3	-82.5	151	10
2023-08-14T12:00	22032	43	-53.4	-82.5	155	10
2023-08-14T12:00	22060	43	-53.4	-82.5	159	10
2023-08-14T12:00	22084	43	-53.5	-82.6	163	10
2023-08-14T12:00	22109	43	-53.5	-82.6	166	10
2023-08-14T12:00	22133	42	-53.4	-82.5	168	10
2023-08-14T12:00	22160	42	-53.4	-82.5	169	10
2023-08-14T12:00	22190	42	-53.5	-82.6	169	10
2023-08-14T12:00	22216	42	-53.5	-82.2	168	9
2023-08-14T12:00	22240	42	-53.6	-82.3	165	9
2023-08-14T12:00	22261	42	-53.7	-82.3	162	9
2023-08-14T12:00	22286	41	-53.7	-82.3	160	9
2023-08-14T12:00	22315	41	-53.8	-82.4	158	9
2023-08-14T12:00	22342	41	-53.8	-82.4	157	8
2023-08-14T12:00	22358	41	-53.9	-82.5	158	8
2023-08-14T12:00	22385	41	-54.1	-82.6	159	8
2023-08-14T12:00	22413	41	-54.2	-82.7	160	8
2023-08-14T12:00	22444	40	-54.3	-82.8	160	7
2023-08-14T12:00	22469	40	-54.3	-82.8	158	7
2023-08-14T12:00	22491	40	-54.2	-82.7	155	7
2023-08-14T12:00	22512	40	-54.2	-82.7	151	8
2023-08-14T12:00	22540	40	-54.3	-82.8	147	8
2023-08-14T12:00	22562	40	-54.4	-82.9	145	8
2023-08-14T12:00	22587	40	-54.4	-82.9	144	9
2023-08-14T12:00	22616	39	-54.4	-82.9	144	9
2023-08-14T12:00	22641	39	-54.1	-82.6	146	9
2023-08-14T12:00	22666	39	-54.1	-83.1	148	9
2023-08-14T12:00	22690	39	-54.2	-83.1	151	9
2023-08-14T12:00	22712	39	-54.1	-83.1	154	9
2023-08-14T12:00	22750	39	-54.1	-83.1	158	9
2023-08-14T12:00	22767	38	-54.1	-83.1	162	9
2023-08-14T12:00	22807	38	-54.0	-82.6	166	9
2023-08-14T12:00	22825	38	-54.0	-82.6	170	9
2023-08-14T12:00	22849	38	-54.2	-82.7	174	8
2023-08-14T12:00	22881	38	-54.4	-82.9	179	7
2023-08-14T12:00	22895	38	-54.5	-82.9	183	6
2023-08-14T12:00	22929	38	-54.4	-82.9	187	5
2023-08-14T12:00	22960	37	-54.2	-83.1	191	4
2023-08-14T12:00	22978	37	-54.0	-83.0	192	4
2023-08-14T12:00	23011	37	-53.7	-82.8	190	3
2023-08-14T12:00	23027	37	-53.5	-82.6	183	3
2023-08-14T12:00	23061	37	-53.4	-83.0	172	3
2023-08-14T12:00	23088	37	-53.4	-82.5	159	3
2023-08-14T12:00	23113	36	-53.6	-82.7	145	3
2023-08-14T12:00	23141	36	-53.6	-82.7	134	4
2023-08-14T12:00	23164	36	-53.4	-83.0	127	4
2023-08-14T12:00	23186	36	-53.1	-82.7	123	4
2023-08-14T12:00	23218	36	-52.9	-82.6	122	5
2023-08-14T12:00	23239	36	-53.1	-82.3	122	5
2023-08-14T12:00	23265	36	-53.3	-82.5	124	6
2023-08-14T12:00	23296	35	-53.3	-82.5	126	6
2023-08-14T12:00	23321	35	-53.4	-82.5	128	6
2023-08-14T12:00	23347	35	-53.4	-82.5	130	6
2023-08-14T12:00	23372	35	-53.4	-82.5	131	6
2023-08-14T12:00	23407	35	-53.5	-82.6	133	6
2023-08-14T12:00	23436	35	-53.5	-82.6	136	6
2023-08-14T12:00	23452	35	-53.5	-82.6	139	6
2023-08-14T12:00	23480	34	-53.5	-82.6	143	6
2023-08-14T12:00	23510	34	-53.5	-82.6	147	6
2023-08-14T12:00	23532	34	-53.3	-82.9	152	5
2023-08-14T12:00	23558	34	-53.0	-82.7	156	5
2023-08-14T12:00	23584	34	-52.8	-82.5	160	5
2023-08-14T12:00	23612	34	-52.6	-82.4	162	4
2023-08-14T12:00	23634	34	-52.5	-82.3	164	4
2023-08-14T12:00	23655	34	-52.4	-82.2	165	4
2023-08-14T12:00	23693	33	-52.5	-82.3	167	3
2023-08-14T12:00	23714	33	-52.5	-82.3	169	3
2023-08-14T12:00	23741	33	-52.5	-82.3	171	3
2023-08-14T12:00	23776	33	-52.5	-82.3	173	3
2023-08-14T12:00	23792	33	-52.6	-82.4	174	3
2023-08-14T12:00	23828	33	-52.6	-81.9	174	3
2023-08-14T12:00	23852	33	-52.7	-82.0	173	3
2023-08-14T12:00	23873	32	-52.8	-82.1	172	3
2023-08-14T12:00	23903	32	-52.9	-82.1	169	4
2023-08-14T12:00	23923	32	-53.1	-82.3	167	4
2023-08-14T12:00	23948	32	-53.2	-82.4	164	4
2023-08-14T12:00	23973	32	-53.3	-82.5	161	4
2023-08-14T12:00	24012	32	-53.4	-82.5	158	4
2023-08-14T12:00	24024	32	-53.5	-82.6	155	4
2023-08-14T12:00	24050	32	-53.5	-82.6	152	4
2023-08-14T12:00	24085	31	-53.5	-82.6	148	4
2023-08-14T12:00	24109	31	-53.3	-82.5	145	4
2023-08-14T12:00	24134	31	-53.2	-82.8	143	4
2023-08-14T12:00	24160	31	-53.1	-82.7	141	4
2023-08-14T12:00	24182	31	-53.2	-82.4	139	4
2023-08-14T12:00	24209	31	-53.2	-82.4	137	4
2023-08-14T12:00	24236	31	-53.3	-82.5	133	4
2023-08-14T12:00	24257	31	-53.4	-82.5	130	4
2023-08-14T12:00	24286	30	-53.5	-82.6	127	4
2023-08-14T12:00	24315	30	-53.4	-82.5	125	4
2023-08-14T12:00	24335	30	-53.1	-82.3	123	4
2023-08-14T12:00	24356	30	-53.0	-82.7	121	4
2023-08-14T12:00	24387	30	-53.1	-82.7	119	4
2023-08-14T12:00	24416	30	-53.0	-82.7	117	5
2023-08-14T12:00	24446	30	-52.9	-82.6	113	5
2023-08-14T12:00	24471	30	-52.7	-82.4	110	5
2023-08-14T12:00	24497	29	-52.5	-82.3	108	5
2023-08-14T12:00	24529	29	-52.5	-82.3	106	6
2023-08-14T12:00	24550	29	-52.6	-82.4	106	6
2023-08-14T12:00	24590	29	-52.7	-82.4	105	6
2023-08-14T12:00	24614	29	-52.6	-82.4	105	6
2023-08-14T12:00	24639	29	-52.6	-82.4	105	6
2023-08-14T12:00	24668	29	-52.7	-82.4	104	6
2023-08-14T12:00	24696	29	-52.8	-82.5	103	6
2023-08-14T12:00	24728	28	-52.8	-82.5	102	6
2023-08-14T12:00	24755	28	-52.8	-82.5	102	7
2023-08-14T12:00	24784	28	-52.7	-82.0	103	7
2023-08-14T12:00	24819	28	-52.8	-82.1	105	7
2023-08-14T12:00	24846	28	-53.0	-82.2	109	8
2023-08-14T12:00	24869	28	-53.2	-82.4	113	8
2023-08-14T12:00	24900	28	-53.1	-82.7	118	7
2023-08-14T12:00	24937	28	-53.0	-82.7	124	7
2023-08-14T12:00	24966	27	-52.9	-82.6	128	7
2023-08-14T12:00	24986	27	-52.9	-82.6	130	7
2023-08-14T12:00	25017	27	-52.9	-82.6	131	6
2023-08-14T12:00	25051	27	-52.7	-82.4	129	6
2023-08-14T12:00	25082	27	-52.6	-82.4	127	6
2023-08-14T12:00	25101	27	-52.5	-82.3	125	6
2023-08-14T12:00	25131	27	-52.6	-82.4	123	6
2023-08-14T12:00	25169	27	-52.8	-82.5	123	7
2023-08-14T12:00	25196	26	-52.8	-82.5	123	7
2023-08-14T12:00	25229	26	-52.7	-82.4	123	8
2023-08-14T12:00	25251	26	-52.7	-82.4	124	8
2023-08-14T12:00	25281	26	-52.6	-82.4	125	8
2023-08-14T12:00	25297	26	-52.5	-82.3	127	9
2023-08-14T12:00	25332	26	-52.4	-82.2	130	9
2023-08-14T12:00	25371	26	-52.4	-82.2	133	9
2023-08-14T12:00	25390	26	-52.3	-82.1	136	10
2023-08-14T12:00	25418	26	-52.3	-82.1	138	10
2023-08-14T12:00	25440	25	-52.3	-82.1	139	9
2023-08-14T12:00	25475	25	-52.2	-82.1	140	9
2023-08-14T12:00	25505	25	-52.0	-82.4	141	8
2023-08-14T12:00	25536	25	-52.0	-82.4	143	7
2023-08-14T12:00	25561	25	-51.8	-82.2	145	6
2023-08-14T12:00	25581	25	-51.7	-82.2	148	6
2023-08-14T12:00	25610	25	-51.5	-82.0	151	6
2023-08-14T12:00	25631	25	-51.3	-81.9	152	6
2023-08-14T12:00	25655	25	-51.2	-81.8	152	6
2023-08-14T12:00	25693	24	-51.1	-81.7	150	6
2023-08-14T12:00	25724	24	-51.0	-81.6	148	6
2023-08-14T12:00	25741	24	-51.0	-81.6	146	6
2023-08-14T12:00	25770	24	-50.9	-81.6	144	6
2023-08-14T12:00	25808	24	-50.9	-81.6	145	7
2023-08-14T12:00	25826	24	-50.9	-81.6	146	7
2023-08-14T12:00	25856	24	-50.7	-81.4	150	7
2023-08-14T12:00	25875	24	-50.6	-81.3	153	8
2023-08-14T12:00	25903	24	-50.6	-81.3	157	8
2023-08-14T12:00	25935	24	-50.7	-81.4	160	8
2023-08-14T12:00	25960	23	-50.8	-81.5	162	9
2023-08-14T12:00	25976	23	-50.8	-81.5	164	9
2023-08-14T12:00	26002	23	-50.7	-81.4	165	8
2023-08-14T12:00	26036	23	-50.7	-81.4	165	8
2023-08-14T12:00	26073	23	-50.8	-81.5	165	7
2023-08-14T12:00	26093	23	-50.7	-81.4	164	7
2023-08-14T12:00	26109	23	-50.7	-81.4	164	6
2023-08-14T12:00	26145	23	-50.7	-81.4	165	5
2023-08-14T12:00	26163	23	-50.7	-81.4	167	4
2023-08-14T12:00	26206	23	-50.7	-81.4	170	4
2023-08-14T12:00	26228	23	-50.7	-81.4	172	3
2023-08-14T12:00	26262	22	-50.6	-81.3	173	3
2023-08-14T12:00	26284	22	-50.6	-81.3	171	2
2023-08-14T12:00	26321	22	-50.6	-81.9	158	1
2023-08-14T12:00	26342	22	-50.6	-81.9	124	1
2023-08-14T12:00	26367	22	-50.4	-81.2	94	1
2023-08-14T12:00	26403	22	-50.3	-81.1	86	2
2023-08-14T12:00	26434	22	-50.3	-81.1	88	3
2023-08-14T12:00	26458	22	-50.4	-81.2	93	3
2023-08-14T12:00	26490	22	-50.3	-81.1	97	4
2023-08-14T12:00	26517	22	-50.0	-81.4	100	4
2023-08-14T12:00	26545	21	-50.0	-81.4	101	5
2023-08-14T12:00	26565	21	-49.9	-81.3	101	6
2023-08-14T12:00	26603	21	-49.9	-81.3	99	6
2023-08-14T12:00	26627	21	-49.7	-81.2	98	7
2023-08-14T12:00	26652	21	-49.7	-81.2	97	7
2023-08-14T12:00	26697	21	-49.9	-81.3	97	7
2023-08-14T12:00	26738	21	-50.0	-80.9	98	7
2023-08-14T12:00	26743	21	-50.1	-81.0	100	7
2023-08-14T12:00	26784	21	-50.1	-81.0	102	7
2023-08-14T12:00	26813	21	-50.3	-81.1	104	6
2023-08-14T12:00	26844	21	-50.2	-81.0	106	6
2023-08-14T12:00	26862	20	-50.1	-81.0	107	6
2023-08-14T12:00	26904	20	-49.9	-80.8	109	5
2023-08-14T12:00	26929	20	-50.0	-80.9	112	5
2023-08-14T12:00	26956	20	-50.2	-81.0	115	5
2023-08-14T12:00	26985	20	-50.2	-81.0	119	5
2023-08-14T12:00	27008	20	-50.2	-81.0	125	5
2023-08-14T12:00	27038	20	-50.3	-81.1	131	5
2023-08-14T12:00	27062	20	-50.3	-81.1	138	5
2023-08-14T12:00	27106	20	-50.4	-81.2	145	5
2023-08-14T12:00	27136	20	-50.5	-81.3	152	5
2023-08-14T12:00	27190	19	-50.3	-81.6	162	5
2023-08-14T12:00	27216	19	-50.4	-81.7	164	5
2023-08-14T12:00	27236	19	-50.2		163	5
2023-08-14T12:00	27282	19	-50.0	-81.4	157	4
2023-08-14T12:00	27284	19	-49.9	-81.3	144	4
2023-08-14T12:00	27320	19	-49.9	-81.3	127	4
2023-08-14T12:00	27346	19	-49.7	-81.2	109	4
2023-08-14T12:00	27376	19	-49.6	-81.1	97	5
2023-08-14T12:00	27409	19	-49.6	-81.1	90	6
2023-08-14T12:00	27442	19	-49.6	-81.1	87	6
2023-08-14T12:00	27461	19	-49.5	-81.1	88	7
2023-08-14T12:00	27485	19	-49.3	-81.5	91	7
2023-08-14T12:00	27514	19	-49.1	-81.3	96	7
2023-08-14T12:00	27549	18	-49.0	-80.7	100	8
2023-08-14T12:00	27578	18	-49.1	-80.8	105	8
2023-08-14T12:00	27605	18	-49.1	-80.8	109	8
2023-08-14T12:00	27636	18	-48.8	-80.5	113	8
2023-08-14T12:00	27669	18	-48.8	-80.5	116	8
2023-08-14T12:00	27682	18	-48.8	-80.5	118	8
2023-08-14T12:00	27709	18	-48.7	-80.5	119	8
2023-08-14T12:00	27740	18	-48.7	-81.0	120	8
2023-08-14T12:00	27771	18	-48.6	-81.0	120	7
2023-08-14T12:00	27805	18	-48.6	-81.0	119	7
2023-08-14T12:00	27823	18	-48.6	-81.0	117	6
2023-08-14T12:00	27856	18	-48.6	-81.0	115	6
2023-08-14T12:00	27871	18	-48.5	-80.9	114	6
2023-08-14T12:00	27915	17	-48.5	-80.9	113	7
2023-08-14T12:00	27938	17	-48.4	-80.8	113	7
2023-08-14T12:00	27967	17	-48.1	-80.6	114	7
2023-08-14T12:00	27994	17	-47.9	-80.4	116	7
2023-08-14T12:00	28037	17	-47.6	-80.2	119	7
2023-08-14T12:00	28068	17	-47.4	-80.1	122	7
2023-08-14T12:00	28092	17	-47.4	-80.1	124	6
2023-08-14T12:00	28108	17	-47.3	-80.0	124	6
2023-08-14T12:00	28144	17	-47.2	-79.9	122	5
2023-08-14T12:00	28177	17	-47.1	-79.9	118	5
2023-08-14T12:00	28223	17	-47.1	-79.9	113	5
2023-08-14T12:00	28240	17	-47.2	-79.9	108	5
2023-08-14T12:00	28266	17	-47.2	-79.9	105	5
2023-08-14T12:00	28309	16	-47.3	-80.0	102	6
2023-08-14T12:00	28328	16	-47.2	-79.9	101	7
2023-08-14T12:00	28360	16	-47.1	-79.9	102	8
2023-08-14T12:00	28388	16	-47.0	-79.8	103	9
2023-08-14T12:00	28426	16	-46.9	-79.7	106	9
2023-08-14T12:00	28463	16	-46.7	-80.2	108	10
2023-08-14T12:00	28489	16	-46.5	-80.1	111	10
2023-08-14T12:00	28510	16	-46.4	-80.0	114	10
2023-08-14T12:00	28548	16	-46.4	-80.0	116	10
2023-08-14T12:00	28571	16	-46.4	-80.0	118	9
2023-08-14T12:00	28604	16	-46.5	-80.1	118	9
2023-08-14T12:00	28616	16	-46.5	-80.1	118	8
2023-08-14T12:00	28659	16	-46.5	-80.1	117	8
2023-08-14T12:00	28692	16	-46.4	-80.0	115	8
2023-08-14T12:00	28723	15	-46.1	-79.8	113	9
2023-08-14T12:00	28744	15	-45.8	-79.6	111	9
2023-08-14T12:00	28785	15	-45.7	-79.5	110	10
2023-08-14T12:00	28816	15	-45.7	-79.5	110	10
2023-08-14T12:00	28853	15	-45.6		111	10
2023-08-14T12:00	28895	15	-45.5	-79.3	115	10
2023-08-14T12:00	28911	15	-45.4	-79.3	118	9
2023-08-14T12:00	28952	15	-45.4	-79.3	121	9
2023-08-14T12:00	28972	15	-45.3	-79.2	121	8
2023-08-14T12:00	29000	15	-45.2	-79.1	121	8
2023-08-14T12:00	29015	15	-45.1	-79.0	120	8
2023-08-14T12:00	29066	15	-45.0	-79.0	119	8
2023-08-14T12:00	29075	15	-44.9	-78.9	119	8
2023-08-14T12:00	29103	15	-44.8	-78.8	120	8
2023-08-14T12:00	29126	15	-44.7	-78.8	121	7
2023-08-14T12:00	29151	14	-44.7	-78.8	122	7
2023-08-14T12:00	29183	14	-44.7	-78.8	122	7
2023-08-14T12:00	29207	14	-44.6	-78.7	121	7
2023-08-14T12:00	29212	14	-44.6	-78.7	120	7
2023-08-14T12:00	29270	14	-44.6	-78.7	121	7
2023-08-14T12:00	29289	14	-44.6	-78.7	122	8
2023-08-14T12:00	29312	14	-44.5	-78.6	126	8
2023-08-14T12:00	29353	14	-44.5	-78.6	130	8
2023-08-14T12:00	29372	14	-44.4	-78.5	135	8
2023-08-14T12:00	29405	14	-44.5	-78.6	140	7
2023-08-14T12:00	29444	14	-44.5	-79.3	145	7
2023-08-14T12:00	29454	14	-44.4	-79.3	148	6
2023-08-14T12:00	29497	14	-44.0	-79.0	149	4
2023-08-14T12:00	29539	14	-43.5	-78.6	141	3
2023-08-14T12:00	29553	14	-43.1	-78.3	113	2
2023-08-14T12:00	29592	14	-43.0	-78.3	64	2
2023-08-14T12:00	29605	14	-43.0	-78.3	41	3
2023-08-14T12:00	29618	13	-42.9	-78.2	34	4
2023-08-14T12:00	29680	13	-42.7	-78.0	31	4
2023-08-14T12:00	29682	13	-42.7	-78.0	32	4
2023-08-14T12:00	29717	13	-42.7	-78.0	32	5
2023-08-14T12:00	29752	13	-42.7	-78.0	33	5
2023-08-14T12:00	29806	13	-42.8	-78.1	34	4
2023-08-14T12:00	29814	13	-42.8	-78.1	36	4
2023-08-14T12:00	29828	13	-42.9	-78.2	38	4
2023-08-14T12:00	29851	13	-42.8	-78.1	41	4
2023-08-14T12:00	29905	13	-42.7	-78.0	45	3
2023-08-14T12:00	29946	13	-42.6	-78.0	47	3
2023-08-14T12:00	29953	13	-42.5	-77.9	46	3
2023-08-14T12:00	29984	13	-42.4	-77.8	40	2
2023-08-14T12:00	30025	13	-42.4	-77.8	31	2
2023-08-14T12:00	30054	13	-42.4	-77.8	24	2
2023-08-14T12:00	30077	13	-42.5	-77.9	24	2
2023-08-14T12:00	30115	13	-42.6	-78.0	32	3
2023-08-14T12:00	30140	12	-42.8	-78.1	42	3
2023-08-14T12:00	30183	12	-42.8	-78.1	51	4
2023-08-14T12:00	30222	12	-42.7	-78.0	56	5
2023-08-14T12:00	30226	12	-42.7	-78.0	59	5
2023-08-14T12:00	30267	12	-42.7	-78.0	58	6
2023-08-14T12:00	30303	12	-42.7	-78.0	58	6
2023-08-14T12:00	30337	12	-42.9	-78.2	57	7
2023-08-14T12:00	30362	12	-43.0	-78.3	58	7
2023-08-14T12:00	30402	12	-43.0	-78.3	60	7
2023-08-14T12:00	30406	12	-43.0	-78.3	63	7
2023-08-14T12:00	30446	12	-43.0	-78.3	68	7
2023-08-14T12:00	30502	12	-42.8	-78.1	72	7
2023-08-14T12:00	30538	12	-42.8	-78.1	78	6
2023-08-14T12:00	30554	12	-42.8	-78.1	77	6
2023-08-14T12:00	30591	12	-42.6	-78.0	76	6
2023-08-14T12:00	30612	12	-42.3	-77.8	74	5
2023-08-14T12:00	30652	12	-42.1	-77.6	73	5
2023-08-14T12:00	30670	12	-42.0	-77.5	75	5
2023-08-14T12:00	30696	12	-42.1	-77.6	77	6
2023-08-14T12:00	30732	11	-42.1	-77.6	81	5
2023-08-14T12:00	30747	11	-42.2	-77.7	83	5
2023-08-14T12:00	30780	11	-42.3	-77.8	85	5
2023-08-14T12:00	30805	11	-42.3	-77.8	85	5
2023-08-14T12:00	30829	11	-42.3	-77.8	84	5
2023-08-14T12:00	30854	11	-42.3	-77.8	84	5
2023-08-14T12:00	30872	11	-42.2	-77.7	84	4
2023-08-14T12:00	30936	11	-42.0	-77.5	86	4
2023-08-14T12:00	30940	11	-41.8	-77.4	87	4
2023-08-14T12:00	30963	11	-41.8	-77.4	86	4
2023-08-14T12:00	30978	11	-41.8	-78.2	83	3
2023-08-14T12:00	31019	11	-41.8	-78.2	75	3
2023-08-14T12:00	31062	11	-41.7	-78.2	66	3
2023-08-14T12:00	31112	11	-41.7	-78.2	58	3
2023-08-14T12:00	31165	11	-41.3	-77.9	56	3
2023-08-14T12:00	31186	11	-41.2	-77.8	62	3
2023-08-14T12:00	31206	11	-41.1	-77.7	70	3
2023-08-14T12:00	31252	11	-41.0	-77.7	80	4
2023-08-14T12:00	31291	11	-40.8	-77.5	90	4
2023-08-14T12:00	31314	11	-40.5		100	4
2023-08-14T12:00	31331	10	-40.2	-77.1	109	4
2023-08-14T12:00	31366	10	-40.0	-76.9	118	5
2023-08-14T12:00	31399	10	-40.1	-77.0	126	5
2023-08-14T12:00	31409	10	-40.1	-77.0	133	4
2023-08-14T12:00	31470	10	-40.1	-77.0	138	4
2023-08-14T12:00	31486	10	-40.0	-76.9	142	4
2023-08-14T12:00	31527	10	-40.0	-76.9	144	4
2023-08-14T12:00	31550	10	-40.1	-77.0	145	4
2023-08-14T12:00	31593	10	-40.3	-77.2	146	3
2023-08-14T12:00	31615	10	-40.4	-77.2	147	3
2023-08-14T12:00	31659	10	-40.5		150	3
2023-08-14T12:00	31695	10	-40.5		154	2
2023-08-14T12:00	31699	10	-40.6	-77.4	158	2
2023-08-14T12:00	31726	10	-40.6	-77.4	163	1
2023-08-14T12:00	31759	10	-40.5		172	1
2023-08-14T12:00	31803	10	-40.5		299	0
2023-08-14T12:00	31819	10	-40.6	-77.4	332	1
2023-08-14T12:00	31847	10	-40.7	-77.4	338	2
2023-08-14T12:00	31896	10	-40.6	-77.4	343	3
2023-08-14T12:00	31950	10	-40.4	-77.2	349	4
2023-08-14T12:00	31960	10	-40.1	-77.0	357	4
2023-08-14T12:00	32000	10	-39.8	-76.8	7	5
2023-08-14T12:00	32015	9	-39.6	-76.7	18	5
2023-08-14T12:00	32037	9	-39.4	-76.5	28	5
2023-08-14T12:00	32073	9	-39.3	-76.4	37	5
2023-08-14T12:00	32084	9	-39.1	-76.3	46	4
2023-08-14T12:00	32145	9	-39.1	-76.3	55	4
2023-08-14T12:00	32193	9	-39.3	-76.4	79	4
2023-08-14T12:00	32258	9	-39.5	-76.6	99	4
2023-08-14T12:00	32309	9	-39.5	-76.6	108	3
2023-08-14T12:00	32329	9	-39.5	-76.6	108	3
2023-08-14T12:00	32349	9	-39.3	-76.4	102	2
2023-08-14T12:00	32365	9	-39.2	-76.4	87	2
2023-08-14T12:00	32387	9	-39.3	-76.4	67	2
2023-08-14T12:00	32460	9	-39.2	-76.4	52	2
2023-08-14T12:00	32487	9	-39.1	-76.3	44	3
2023-08-14T12:00	32496	9	-38.9	-76.2	41	4
2023-08-14T12:00	32513	9	-38.9	-77.1	42	4
2023-08-14T12:00	32555	9	-38.9	-77.1	43	5
2023-08-14T12:00	32558	9	-38.9	-77.1	45	6
2023-08-14T12:00	32588	9	-38.9	-77.1	47	6
2023-08-14T12:00	32625	9	-38.9	-77.1	48	7
2023-08-14T12:00	32636	9	-39.0	-77.2	49	8
2023-08-14T12:00	32663	9	-39.0	-77.2	50	8
2023-08-14T12:00	32706	9	-38.9	-77.1	52	9
2023-08-14T12:00	32733	9	-38.8	-77.1	53	9
2023-08-14T12:00	32765	9	-38.8	-77.1	53	10
2023-08-14T12:00	32773	9	-38.8	-77.1	54	10
2023-08-14T12:00	32829	8	-38.9	-76.2	54	10
2023-08-14T12:00	32840	8	-39.0	-77.2	55	10
2023-08-14T12:00	32861	8	-38.9	-77.1	56	11
2023-08-14T12:00	32878	8	-38.7	-77.0	59	11
2023-08-14T12:00	32910	8	-38.5	-76.9	62	10
2023-08-14T12:00	32936	8	-38.4	-76.8	67	10
2023-08-14T12:00	32974	8	-38.1	-76.6	72	10
2023-08-14T12:00	33005	8	-37.9	-76.4	79	10
2023-08-14T12:00	33025	8	-37.6	-76.2	85	10
2023-08-14T12:00	33061	8	-37.2	-75.9	91	10
2023-08-14T12:00	33100	8	-37.0	-75.8	96	9
2023-08-14T12:00	33157	8	-37.0	-77.0	100	9
2023-08-14T12:00	33182	8	-36.7	-76.7	106	8
2023-08-14T12:00	33230	8	-36.5	-76.6	106	8
2023-08-14T12:00	33246	8	-36.5	-76.6	106	8
2023-08-14T12:00	33277	8	-36.4	-75.4	105	8
2023-08-14T12:00	33293	8	-36.4	-75.4	102	8
2023-08-14T12:00	33343	8	-36.4	-75.4	100	8
2023-08-14T12:00	33364	8	-36.4	-75.4	98	8
2023-08-14T12:00	33391	8	-36.4	-75.4	98	8
2023-08-14T12:00	33409	8	-36.4	-75.4	100	9
2023-08-14T12:00	33451	8	-36.3	-75.3	105	9
2023-08-14T12:00	33493	8	-36.1	-75.2	110	9
2023-08-14T12:00	33502	8	-36.0	-75.1	115	9
2023-08-14T12:00	33568	8	-35.9	-76.2	119	9
2023-08-14T12:00	33581	8	-35.9	-76.2	123	9
2023-08-14T12:00	33598	8	-35.9	-76.2	126	9
2023-08-14T12:00	33643	8	-35.7	-76.1	128	8
2023-08-14T12:00	33670	7	-35.6	-76.0	131	7
2023-08-14T12:00	33675	7	-35.6	-76.0	135	6
2023-08-14T12:00	33715	7	-35.7	-76.1	139	6
2023-08-14T12:00	33731	7	-35.8	-76.1	142	5
2023-08-14T12:00	33769	7	-35.8	-76.1	142	4
2023-08-14T12:00	33817	7	-35.8	-76.1	118	3
2023-08-14T12:00	33842	7	-35.7	-76.1	94	3
2023-08-14T12:00	33875	7	-35.5	-75.9	77	4
2023-08-14T12:00	33943	7	-34.9	-75.5	63	6
2023-08-14T12:00	33955	7	-34.6	-75.3	61	7
2023-08-14T12:00	33961	7	-34.5	-75.2	61	7
2023-08-14T12:00	34003	7	-34.4	-75.2	61	7
2023-08-14T12:00	34021	7	-34.3	-75.1	62	7
2023-08-14T12:00	34029	7	-34.2	-75.0	64	6
2023-08-14T12:00	34055	7	-34.2	-75.0	66	6
2023-08-14T12:00	34081	7	-34.2	-75.0	68	6
2023-08-14T12:00	34091	7	-34.1	-75.0	70	6
2023-08-14T12:00	34133	7	-33.9	-74.8	73	7
2023-08-14T12:00	34138	7	-33.6	-74.6	74	7
2023-08-14T12:00	34177	7	-33.3	-74.4	74	8
2023-08-14T12:00	34193	7	-33.0	-74.2	75	8
2023-08-14T12:00	34228	7	-32.8	-74.1	74	9
2023-08-14T12:00	34269	7	-32.7	-74.0	74	9
2023-08-14T12:00	34297	7	-32.5	-73.8	74	9
2023-08-14T12:00	34338	7	-32.5	-73.8	75	9
2023-08-14T12:00	34340	7	-32.4	-73.8	75	9
2023-08-14T12:00	34378	7	-32.3	-73.7	75	10
2023-08-14T12:00	34420	7	-31.8	-73.4	72	10
2023-08-14T12:00	34484	7	-31.5	-73.2	70	11
2023-08-14T12:00	34486	7	-31.1	-72.9	69	11
2023-08-14T12:00	34510	7	-30.7	-72.6	68	12
2023-08-14T12:00	34562	7	-30.5	-72.5	69	12
2023-08-14T12:00	34586	7	-30.3	-72.3	71	13
2023-08-14T18:00	117	1003	18.8	18.4	107	4
2023-08-14T18:00	138	1001	18.8	17.9	112	5
2023-08-14T18:00	165	998	19.1	16.8	119	6
2023-08-14T18:00	186	995	20.3	16.0	126	7
2023-08-14T18:00	207	993	22.1	15.4	133	7
2023-08-14T18:00	225	991	23.9	15.6	139	7
2023-08-14T18:00	238	989	24.3	15.2	144	7
2023-08-14T18:00	255	987	24.2	15.6	147	6
2023-08-14T18:00	274	985	24.0	14.8	149	6
2023-08-14T18:00	298	982	24.9	13.9	152	6
2023-08-14T18:00	322	980	25.3	13.2	156	5
2023-08-14T18:00	341	977	25.4	13.9	161	5
2023-08-14T18:00	366	975	25.4	13.7	168	5
2023-08-14T18:00	386	973	25.2	13.6	175	5
2023-08-14T18:00	409	970	25.2	13.5	183	5
2023-08-14T18:00	432	968	25.2	12.9	191	5
2023-08-14T18:00	455	965	25.3	12.4	197	5
2023-08-14T18:00	479	962	25.2	12.1	202	5
2023-08-14T18:00	507	959	25.2	11.4	205	6
2023-08-14T18:00	538	956	25.3	11.3	205	6
2023-08-14T18:00	571	953	24.9	11.2	205	6
2023-08-14T18:00	600	949	24.8	11.1	205	6
2023-08-14T18:00	630	946	24.5	11.1	206	6
2023-08-14T18:00	660	943	24.1	10.9	208	7
2023-08-14T18:00	693	939	24.0	10.8	209	7
2023-08-14T18:00	723	936	23.7	10.7	211	7
2023-08-14T18:00	747	933	23.5	10.7	212	7
2023-08-14T18:00	776	930	23.3	10.5	213	7
2023-08-14T18:00	803	927	23.2	10.4	215	7
2023-08-14T18:00	835	924	23.0	10.3	218	7
2023-08-14T18:00	865	921	22.9	10.1	220	7
2023-08-14T18:00	896	918	22.5	10.2	222	7
2023-08-14T18:00	930	914	22.2	10.0	224	7
2023-08-14T18:00	960	911	21.9	10.0	224	8
2023-08-14T18:00	991	908	21.6	9.9	224	8
2023-08-14T18:00	1016	905	21.2	10.2	224	8
2023-08-14T18:00	1044	902	21.0	10.0	224	9
2023-08-14T18:00	1068	899	20.8	9.9	224	9
2023-08-14T18:00	1097	897	20.7	9.7	224	9
2023-08-14T18:00	1119	894	20.7	9.6	225	9
2023-08-14T18:00	1145	892	20.5	9.6	225	9
2023-08-14T18:00	1172	889	20.2	9.5	225	9
2023-08-14T18:00	1195	886	20.0	9.3	226	9
2023-08-14T18:00	1223	884	19.8	9.3	226	9
2023-08-14T18:00	1250	881	19.6	9.3	227	9
2023-08-14T18:00	1279	878	19.4	9.1	229	9
2023-08-14T18:00	1306	875	19.1	9.1	231	9
2023-08-14T18:00	1335	872	18.9	9.0	233	9
2023-08-14T18:00	1365	869	18.6	8.9	234	9
2023-08-14T18:00	1396	866	18.3	8.9	234	9
2023-08-14T18:00	1425	863	18.1	8.8	233	9
2023-08-14T18:00	1450	860	18.0	8.6	232	9
2023-08-14T18:00	1477	858	17.8	8.6	231	9
2023-08-14T18:00	1505	855	17.6	8.5	230	10
2023-08-14T18:00	1532	852	17.3	8.4	230	9
2023-08-14T18:00	1559	850	17.1	8.4	231	9
2023-08-14T18:00	1585	847	16.9	8.1	231	9
2023-08-14T18:00	1613	844	16.6	8.1	231	10
2023-08-14T18:00	1638	842	16.4	8.2	230	10
2023-08-14T18:00	1668	839	16.2	8.0	229	10
2023-08-14T18:00	1695	836	15.9	7.8	228	10
2023-08-14T18:00	1721	834	15.7	7.7	227	11
2023-08-14T18:00	1750	831	15.5	7.7	226	11
2023-08-14T18:00	1779	828	15.3	7.7	226	11
2023-08-14T18:00	1807	825	15.2	7.5	226	12
2023-08-14T18:00	1841	822	14.9	7.3	225	12
2023-08-14T18:00	1865	820	14.7	7.3	225	12
2023-08-14T18:00	1888	817	14.5	7.4	225	11
2023-08-14T18:00	1915	815	14.2	7.2	225	11
2023-08-14T18:00	1941	812	14.0	7.2	225	11
2023-08-14T18:00	1968	810	13.7	7.0	225	11
2023-08-14T18:00	1994	807	13.5	7.1	226	11
2023-08-14T18:00	2018	805	13.2	7.0	227	11
2023-08-14T18:00	2040	803	13.2	6.9	228	11
2023-08-14T18:00	2065	800	13.0	6.6	230	10
2023-08-14T18:00	2090	798	12.8	6.5	233	10
2023-08-14T18:00	2112	796	12.7	6.6	235	10
2023-08-14T18:00	2143	793	12.6	6.0	236	10
2023-08-14T18:00	2172	790	12.6	5.8	237	10
2023-08-14T18:00	2201	788	12.5	5.9	237	10
2023-08-14T18:00	2230	785	12.2	5.7	237	11
2023-08-14T18:00	2265	782	11.8	5.7	236	11
2023-08-14T18:00	2294	779	11.5	5.7	236	11
2023-08-14T18:00	2320	776	11.3	5.8	235	11
2023-08-14T18:00	2346	774	11.0	5.8	234	11
2023-08-14T18:00	2370	772	10.8	5.7	234	11
2023-08-14T18:00	2397	769	10.6	5.5	233	11
2023-08-14T18:00	2429	766	10.7	5.3	233	11
2023-08-14T18:00	2455	764	10.5	5.1	233	12
2023-08-14T18:00	2483	761	10.4	5.0	232	12
2023-08-14T18:00	2512	759	10.2	5.0	231	12
2023-08-14T18:00	2539	756	9.9	4.9	230	11
2023-08-14T18:00	2566	754	9.7	4.8	228	11
2023-08-14T18:00	2595	751	9.8	4.4	226	11
2023-08-14T18:00	2623	749	9.6	4.3	224	11
2023-08-14T18:00	2648	746	9.4	4.4	223	11
2023-08-14T18:00	2677	744	9.3	4.1	223	11
2023-08-14T18:00	2705	741	9.1	4.1	223	11
2023-08-14T18:00	2733	739	8.8	4.0	224	11
2023-08-14T18:00	2764	736	8.6	3.8	225	11
2023-08-14T18:00	2796	733	8.5	3.6	226	11
2023-08-14T18:00	2828	730	8.3	3.3	226	12
2023-08-14T18:00	2862	727	7.9	3.3	227	12
2023-08-14T18:00	2896	725	7.6	3.2	228	12
2023-08-14T18:00	2926	722	7.3	3.1	230	12
2023-08-14T18:00	2955	719	7.1	3.1	231	12
2023-08-14T18:00	2987	716	6.8	2.9	233	11
2023-08-14T18:00	3023	713	6.5	2.7	234	11
2023-08-14T18:00	3056	711	6.2	2.1	235	11
2023-08-14T18:00	3085	708	6.0	2.0	236	11
2023-08-14T18:00	3112	706	5.8	2.1	237	11
2023-08-14T18:00	3145	703	5.5	2.0	237	11
2023-08-14T18:00	3171	701	5.4	2.3	238	11
2023-08-14T18:00	3201	698	5.2	2.3	238	11
2023-08-14T18:00	3225	696	5.1	2.0	237	11
2023-08-14T18:00	3255	694	5.0	1.9	237	11
2023-08-14T18:00	3280	691	4.8	1.8	237	11
2023-08-14T18:00	3308	689	4.6	1.7	237	11
2023-08-14T18:00	3333	687	4.4	1.7	239	11
2023-08-14T18:00	3363	684	4.1	1.3	241	11
2023-08-14T18:00	3389	682	3.9	1.1	243	11
2023-08-14T18:00	3418	680	3.6	0.7	245	11
2023-08-14T18:00	3445	677	3.4	0.7	246	12
2023-08-14T18:00	3474	675	3.2	0.3	246	12
2023-08-14T18:00	3509	672	3.0	0.0	247	12
2023-08-14T18:00	3543	669	2.7	-0.1	246	12
2023-08-14T18:00	3574	667	2.5	0.1	246	12
2023-08-14T18:00	3599	665	2.3	-0.1	245	12
2023-08-14T18:00	3634	662	2.1	-0.3	245	12
2023-08-14T18:00	3664	659	2.0	0.1	244	12
2023-08-14T18:00	3690	657	1.9	0.1	243	12
2023-08-14T18:00	3712	655	1.7	0.2	243	12
2023-08-14T18:00	3735	654	1.4	0.1	244	13
2023-08-14T18:00	3763	652	1.2	0.2	244	13
2023-08-14T18:00	3787	650	1.0	0.3	245	13
2023-08-14T18:00	3810	648	0.9	-0.1	246	13
2023-08-14T18:00	3833	646	0.8	-0.3	247	14
2023-08-14T18:00	3859	644	0.6	-0.2	248	14
2023-08-14T18:00	3878	642	0.4	-0.4	249	14
2023-08-14T18:00	3904	640	0.3	-0.7	250	14
2023-08-14T18:00	3925	639	0.2	-0.8	252	15
2023-08-14T18:00	3942	637	0.0	-0.8	254	15
2023-08-14T18:00	3962	635	-0.1	-0.9	256	15
2023-08-14T18:00	3985	634	-0.1	-0.8	258	14
2023-08-14T18:00	4001	632	-0.2	-0.7	259	14
2023-08-14T18:00	4023	631	-0.4	-0.8	260	14
2023-08-14T18:00	4039	629	-0.3	-2.0	260	14
2023-08-14T18:00	4057	628	-0.3	-2.5	261	14
2023-08-14T18:00	4074	627	-0.4	-3.1	263	15
2023-08-14T18:00	4091	625	-0.3	-3.8	264	15
2023-08-14T18:00	4103	624	-0.4	-4.1	265	15
2023-08-14T18:00	4120	623	-0.4	-4.0	265	16
2023-08-14T18:00	4139	622	-0.6	-3.8	266	16
2023-08-14T18:00	4150	621	-0.8	-3.8	266	17
2023-08-14T18:00	4168	619	-0.9	-3.8	266	17
2023-08-14T18:00	4183	618	-1.0	-3.9	267	17
2023-08-14T18:00	4198	617	-1.1	-4.0	267	18
2023-08-14T18:00	4211	616	-1.2	-3.9	267	17
2023-08-14T18:00	4230	615	-1.3	-3.9	266	17
2023-08-14T18:00	4246	613	-1.5	-4.0	265	17
2023-08-14T18:00	4258	612	-1.5	-3.5	264	17
2023-08-14T18:00	4275	611	-1.5	-4.6	262	17
2023-08-14T18:00	4290	610	-1.6	-4.5	259	17
2023-08-14T18:00	4308	609	-1.7	-4.4	257	17
2023-08-14T18:00	4321	608	-1.8	-4.5	257	16
2023-08-14T18:00	4330	607	-1.9	-4.6	257	16
2023-08-14T18:00	4339	606	-2.1	-4.2	259	16
2023-08-14T18:00	4345	606	-2.2	-4.0	262	16
2023-08-14T18:00	4353	605	-2.2	-4.2	264	17
2023-08-14T18:00	4363	604	-2.1	-4.5	265	17
2023-08-14T18:00	4372	604	-2.2	-4.7	265	18
2023-08-14T18:00	4383	603	-2.2	-4.7	264	19
2023-08-14T18:00	4393	602	-2.2	-4.5	263	20
2023-08-14T18:00	4402	601	-2.4	-4.6	261	20
2023-08-14T18:00	4410	601	-2.5	-4.6	260	21
2023-08-14T18:00	4419	600	-2.6	-4.6	258	21
2023-08-14T18:00	4431	599	-2.7	-4.6	256	21
2023-08-14T18:00	4444	598	-2.8	-4.5	255	20
2023-08-14T18:00	4454	597	-2.9	-4.5	254	20
2023-08-14T18:00	4469	596	-3.0	-4.5	254	20
2023-08-14T18:00	4480	596	-2.9	-4.6	255	19
2023-08-14T18:00	4494	595	-3.0	-4.3	256	19
2023-08-14T18:00	4506	593	-3.2	-4.5	257	19
2023-08-14T18:00	4524	592	-3.4	-4.6	257	19
2023-08-14T18:00	4535	591	-3.3	-4.4	258	18
2023-08-14T18:00	4549	590	-3.5	-4.6	258	18
2023-08-14T18:00	4567	589	-3.7	-4.8	258	18
2023-08-14T18:00	4583	588	-3.7	-4.9	259	18
2023-08-14T18:00	4599	586	-3.6	-5.2	259	18
2023-08-14T18:00	4614	585	-3.7		258	19
2023-08-14T18:00	4631	584	-4.0	-5.3	258	19
2023-08-14T18:00	4648	583	-4.0	-5.7	257	19
2023-08-14T18:00	4666	582	-4.2	-5.6	257	19
2023-08-14T18:00	4685	580	-4.3	-5.4	256	19
2023-08-14T18:00	4704	579	-4.3	-5.5	256	19
2023-08-14T18:00	4725	577	-4.4	-5.7	256	19
2023-08-14T18:00	4744	576	-4.5	-5.5	256	19
2023-08-14T18:00	4765	574	-4.7	-5.7	256	20
2023-08-14T18:00	4783	573	-4.9	-5.9	256	20
2023-08-14T18:00	4801	572	-4.8	-5.9	256	20
2023-08-14T18:00	4822	570	-4.8	-6.0	256	21
2023-08-14T18:00	4841	569	-4.9	-5.8	255	21
2023-08-14T18:00	4864	567	-5.0	-6.0	255	21
2023-08-14T18:00	4886	566	-5.2	-6.1	254	20
2023-08-14T18:00	4908	564	-5.3	-6.2	254	20
2023-08-14T18:00	4931	562	-5.5	-6.3	253	19
2023-08-14T18:00	4953	561	-5.5	-6.3	253	18
2023-08-14T18:00	4977	559	-5.6	-6.4	253	17
2023-08-14T18:00	4990	558	-5.8	-6.4	252	17
2023-08-14T18:00	5017	556	-5.8	-6.3	251	17
2023-08-14T18:00	5044	554	-5.9	-6.2	249	17
2023-08-14T18:00	5066	553	-5.8	-6.0	249	17
2023-08-14T18:00	5093	551	-6.0	-6.0	250	17
2023-08-14T18:00	5124	549	-6.1	-6.2	252	17
2023-08-14T18:00	5145	548	-6.3	-6.4	255	17
2023-08-14T18:00	5168	546	-6.3	-6.5	258	17
2023-08-14T18:00	5187	544	-6.3	-6.6	260	17
2023-08-14T18:00	5209	543	-6.7	-6.8	259	16
2023-08-14T18:00	5226	541	-6.7	-6.8	258	16
2023-08-14T18:00	5253	540	-6.8	-7.1	255	15
2023-08-14T18:00	5279	538	-6.9	-7.2	252	13
2023-08-14T18:00	5304	536	-7.0	-7.4	250	12
2023-08-14T18:00	5325	535	-7.1	-7.4	249	10
2023-08-14T18:00	5345	534	-7.2	-7.5	249	9
2023-08-14T18:00	5366	532	-7.3	-7.6	251	9
2023-08-14T18:00	5390	530	-7.5	-8.0	254	9
2023-08-14T18:00	5414	529	-7.6	-7.8	256	9
2023-08-14T18:00	5441	527	-7.8	-7.9	257	9
2023-08-14T18:00	5468	525	-7.8	-7.9	257	9
2023-08-14T18:00	5495	523	-8.1	-8.4	256	9
2023-08-14T18:00	5520	522	-8.0	-8.4	254	9
2023-08-14T18:00	5551	520	-8.1	-8.4	254	9
2023-08-14T18:00	5577	518	-8.3	-8.8	254	8
2023-08-14T18:00	5599	516	-8.4	-8.9	255	8
2023-08-14T18:00	5621	515	-8.5		256	8
2023-08-14T18:00	5640	514	-8.6	-9.3	255	9
2023-08-14T18:00	5661	512	-8.7	-9.4	255	9
2023-08-14T18:00	5677	511	-8.8	-9.5	254	9
2023-08-14T18:00	5701	510	-8.9	-9.7	254	9
2023-08-14T18:00	5720	508	-9.0	-9.8	253	9
2023-08-14T18:00	5742	507	-9.0	-9.7	252	9
2023-08-14T18:00	5766	505	-9.1	-9.8	252	9
2023-08-14T18:00	5794	503	-9.2	-9.8	251	10
2023-08-14T18:00	5823	502	-9.4	-9.9	250	11
2023-08-14T18:00	5848	500	-9.5	-10.1	249	11
2023-08-14T18:00	5870	499	-9.7	-10.4	248	11
2023-08-14T18:00	5896	497	-9.8	-10.5	247	11
2023-08-14T18:00	5923	495	-10.0	-10.6	247	11
2023-08-14T18:00	5946	494	-10.1	-10.8	248	12
2023-08-14T18:00	5965	492	-10.3	-11.0	251	12
2023-08-14T18:00	5989	491	-10.4	-11.2	253	12
2023-08-14T18:00	6006	490	-10.5	-11.3	254	12
2023-08-14T18:00	6027	489	-10.6	-11.3	254	12
2023-08-14T18:00	6050	487	-10.8	-11.6	253	12
2023-08-14T18:00	6073	486	-10.9	-11.8	251	11
2023-08-14T18:00	6097	484	-11.0	-11.9	249	11
2023-08-14T18:00	6119	483	-11.2	-11.8	248	11
2023-08-14T18:00	6145	481	-11.3	-11.9	246	11
2023-08-14T18:00	6169	480	-11.4	-12.3	244	11
2023-08-14T18:00	6191	478	-11.5	-12.4	241	11
2023-08-14T18:00	6215	477	-11.7	-12.5	239	11
2023-08-14T18:00	6237	475	-11.8	-12.7	237	11
2023-08-14T18:00	6262	474	-12.0	-12.9	236	11
2023-08-14T18:00	6285	472	-12.0	-13.0	236	11
2023-08-14T18:00	6308	471	-12.1	-13.0	238	11
2023-08-14T18:00	6331	470	-12.3	-13.2	240	10
2023-08-14T18:00	6354	468	-12.4	-13.2	244	10
2023-08-14T18:00	6376	467	-12.6		249	10
2023-08-14T18:00	6401	465	-12.7	-13.7	255	10
2023-08-14T18:00	6429	464	-12.8	-13.8	259	9
2023-08-14T18:00	6459	462	-13.0	-13.9	261	10
2023-08-14T18:00	6488	460	-13.2	-14.1	260	10
2023-08-14T18:00	6513	459	-13.4	-14.3	257	10
2023-08-14T18:00	6539	457	-13.6	-14.5	253	10
2023-08-14T18:00	6566	455	-13.7	-14.5	250	10
2023-08-14T18:00	6590	454	-13.9	-14.8	247	10
2023-08-14T18:00	6613	453	-14.0	-15.0	246	10
2023-08-14T18:00	6633	451	-14.1	-15.2	246	9
2023-08-14T18:00	6656	450	-14.3	-15.5	248	9
2023-08-14T18:00	6682	449	-14.4	-15.7	249	9
2023-08-14T18:00	6701	447	-14.4	-15.8	249	8
2023-08-14T18:00	6726	446	-14.6	-15.8	249	8
2023-08-14T18:00	6745	445	-14.7	-15.9	248	8
2023-08-14T18:00	6765	444	-14.9	-16.2	248	8
2023-08-14T18:00	6787	442	-15.1	-16.2	250	8
2023-08-14T18:00	6818	441	-15.3	-16.3	254	7
2023-08-14T18:00	6840	439	-15.4		258	7
2023-08-14T18:00	6861	438	-15.5	-16.7	263	6
2023-08-14T18:00	6885	437	-15.7	-17.1	268	5
2023-08-14T18:00	6904	435	-15.8	-17.1	273	5
2023-08-14T18:00	6925	434	-16.0	-17.3	278	4
2023-08-14T18:00	6943	433	-16.1	-17.5	283	4
2023-08-14T18:00	6967	432	-16.3	-17.6	284	5
2023-08-14T18:00	6990	431	-16.4	-17.5	283	6
2023-08-14T18:00	7011	429	-16.6	-17.9	280	6
2023-08-14T18:00	7035	428	-16.7	-17.9	276	6
2023-08-14T18:00	7061	427	-16.9	-18.1	274	5
2023-08-14T18:00	7078	425	-17.0	-18.2	275	5
2023-08-14T18:00	7105	424	-17.2	-18.2	283	4
2023-08-14T18:00	7129	423	-17.4	-18.5	293	5
2023-08-14T18:00	7147	422	-17.5	-18.2	298	5
2023-08-14T18:00	7172	420	-17.7	-18.5	296	6
2023-08-14T18:00	7195	419	-17.9	-18.8	290	6
2023-08-14T18:00	7216	418	-18.0	-19.1	282	6
2023-08-14T18:00	7237	417	-18.2	-19.5	274	5
2023-08-14T18:00	7257	415	-18.3	-19.8	269	4
2023-08-14T18:00	7275	415	-18.4	-19.9	269	3
2023-08-14T18:00	7290	414	-18.5	-20.1	281	2
2023-08-14T18:00	7316	412	-18.6	-20.2	306	1
2023-08-14T18:00	7330	411	-18.7	-20.1	316	1
2023-08-14T18:00	7343	410	-18.8	-19.3	301	2
2023-08-14T18:00	7371	410	-18.8	-18.8	285	3
2023-08-14T18:00	7384	408	-19.0	-19.0	275	3
2023-08-14T18:00	7407	407	-19.1	-19.1	271	4
2023-08-14T18:00	7411	407	-19.2	-19.2	270	4
2023-08-14T18:00	7438	405	-19.4	-19.4	272	4
2023-08-14T18:00	7462	404	-19.5	-19.5	275	4
2023-08-14T18:00	7481	403	-19.6	-19.6	279	4
2023-08-14T18:00	7504	402	-19.7	-19.7	287	4
2023-08-14T18:00	7517	401	-19.8	-19.8	297	4
2023-08-14T18:00	7533	400	-19.9	-19.9	307	4
2023-08-14T18:00	7550	399	-20.1	-20.1	316	4
2023-08-14T18:00	7566	399	-20.2	-20.2	320	4
2023-08-14T18:00	7579	398	-20.3	-20.3	321	4
2023-08-14T18:00	7601	397	-20.3	-20.3	320	4
2023-08-14T18:00	7625	396	-20.4	-20.4	316	4
2023-08-14T18:00	7643	394	-20.6	-20.6	311	4
2023-08-14T18:00	7661	394	-20.7	-20.7	304	4
2023-08-14T18:00	7679	393	-20.8	-20.8	294	4
2023-08-14T18:00	7697	392	-20.9	-20.9	282	4
2023-08-14T18:00	7715	391	-21.1	-21.1	271	4
2023-08-14T18:00	7733	390	-21.2	-21.2	261	4
2023-08-14T18:00	7751	389	-21.3	-21.3	254	4
2023-08-14T18:00	7770	388	-21.4	-21.4	250	4
2023-08-14T18:00	7788	387	-21.6	-21.6	250	4
2023-08-14T18:00	7811	386	-21.7	-21.7	253	4
2023-08-14T18:00	7826	385	-21.9	-21.9	258	4
2023-08-14T18:00	7850	384	-22.0	-22.0	263	4
2023-08-14T18:00	7868	383	-22.2	-22.2	266	4
2023-08-14T18:00	7887	382	-22.3	-22.3	267	4
2023-08-14T18:00	7908	381	-22.4	-22.4	265	4
2023-08-14T18:00	7922	380	-22.6	-22.6	261	4
2023-08-14T18:00	7937	379	-22.7	-22.7	255	4
2023-08-14T18:00	7960	378	-22.8	-22.8	249	5
2023-08-14T18:00	7975	377	-23.0	-23.0	244	5
2023-08-14T18:00	8001	376	-23.2	-23.2	241	5
2023-08-14T18:00	8017	375	-23.3	-23.3	241	5
2023-08-14T18:00	8033	374	-23.4	-23.4	244	5
2023-08-14T18:00	8052	373	-23.6	-23.6	250	5
2023-08-14T18:00	8075	372	-23.7	-23.8	258	5
2023-08-14T18:00	8102	371	-23.8	-24.0	265	5
2023-08-14T18:00	8118	370	-24.0	-24.1	269	5
2023-08-14T18:00	8132	369	-24.1	-24.2	269	6
2023-08-14T18:00	8150	368	-24.2	-24.6	265	6
2023-08-14T18:00	8176	367	-24.4	-25.2	259	6
2023-08-14T18:00	8203	366	-24.6	-25.4	252	6
2023-08-14T18:00	8227	364	-24.7	-25.7	246	6
2023-08-14T18:00	8255	363	-24.9	-26.0	241	6
2023-08-14T18:00	8281	361	-25.1	-26.1	239	6
2023-08-14T18:00	8314	360	-25.3	-26.5	238	6
2023-08-14T18:00	8339	359	-25.5	-26.4	237	6
2023-08-14T18:00	8371	357	-25.8	-26.7	235	6
2023-08-14T18:00	8396	356	-26.0	-27.0	233	6
2023-08-14T18:00	8429	354	-26.2	-27.5	230	7
2023-08-14T18:00	8456	353	-26.4	-27.8	227	7
2023-08-14T18:00	8487	351	-26.6	-28.1	224	7
2023-08-14T18:00	8513	350	-26.8	-28.3	222	7
2023-08-14T18:00	8538	349	-27.0	-28.7	221	7
2023-08-14T18:00	8564	348	-27.1	-28.9	220	7
2023-08-14T18:00	8594	346	-27.3	-29.2	220	7
2023-08-14T18:00	8617	345	-27.5	-29.5	218	6
2023-08-14T18:00	8642	344	-27.6	-29.5	216	7
2023-08-14T18:00	8668	343	-27.7	-29.8	215	7
2023-08-14T18:00	8698	341	-28.0	-30.1	213	8
2023-08-14T18:00	8724	340	-28.1	-30.3	213	9
2023-08-14T18:00	8750	339	-28.3	-30.5	214	10
2023-08-14T18:00	8777	338	-28.5	-30.7	214	11
2023-08-14T18:00	8803	336	-28.7	-31.0	213	11
2023-08-14T18:00	8831	335	-28.9	-31.3	211	10
2023-08-14T18:00	8853	334	-29.0	-31.4	209	10
2023-08-14T18:00	8878	333	-29.2	-31.6	206	10
2023-08-14T18:00	8906	332	-29.4	-31.9	205	10
2023-08-14T18:00	8934	330	-29.6	-32.2	205	9
2023-08-14T18:00	8963	329	-29.8	-32.3	206	9
2023-08-14T18:00	8991	328	-30.0	-32.6	207	9
2023-08-14T18:00	9018	326	-30.2	-32.7	207	9
2023-08-14T18:00	9049	325	-30.5		206	9
2023-08-14T18:00	9078	324	-30.7	-33.3	205	9
2023-08-14T18:00	9109	322	-30.9	-33.6	203	9
2023-08-14T18:00	9137	321	-31.2	-33.9	202	10
2023-08-14T18:00	9166	320	-31.4	-34.1	202	10
2023-08-14T18:00	9196	318	-31.6	-34.3	201	10
2023-08-14T18:00	9232	317	-31.9	-34.6	201	10
2023-08-14T18:00	9262	315	-32.2	-34.9	200	10
2023-08-14T18:00	9301	314	-32.7	-35.3	201	11
2023-08-14T18:00	9337	312	-33.0	-35.5	203	11
2023-08-14T18:00	9368	311	-33.3	-35.9	207	12
2023-08-14T18:00	9412	309	-33.7	-36.2	213	12
2023-08-14T18:00	9453	307	-34.1	-36.8	217	13
2023-08-14T18:00	9473	306	-34.3	-36.5	219	13
2023-08-14T18:00	9496	305	-34.4	-36.9	219	14
2023-08-14T18:00	9518	304	-34.6	-37.1	216	14
2023-08-14T18:00	9542	303	-34.8	-37.1	212	14
2023-08-14T18:00	9574	302	-35.3	-37.7	208	14
2023-08-14T18:00	9601	300	-35.4	-38.0	205	13
2023-08-14T18:00	9625	299	-35.6	-38.3	204	13
2023-08-14T18:00	9654	298	-35.9	-38.3	205	13
2023-08-14T18:00	9682	297	-36.1	-38.6	206	13
2023-08-14T18:00	9709	296	-36.3	-39.1	209	13
2023-08-14T18:00	9736	295	-36.6	-39.3	212	12
2023-08-14T18:00	9771	293	-37.0	-39.4	215	12
2023-08-14T18:00	9798	292	-37.2	-39.6	216	13
2023-08-14T18:00	9825	291	-37.4	-40.0	217	13
2023-08-14T18:00	9863	289	-37.6	-40.4	217	13
2023-08-14T18:00	9888	288	-37.8	-40.7	218	12
2023-08-14T18:00	9916	287	-38.0	-40.7	219	12
2023-08-14T18:00	9943	286	-38.3	-40.9	221	12
2023-08-14T18:00	9976	285	-38.6	-41.9	223	13
2023-08-14T18:00	9997	284	-38.9	-42.0	225	13
2023-08-14T18:00	10024	283	-39.1	-41.7	226	13
2023-08-14T18:00	10052	281	-39.4	-41.9	227	13
2023-08-14T18:00	10084	280	-39.6	-42.2	227	14
2023-08-14T18:00	10109	279	-39.8	-42.2	228	14
2023-08-14T18:00	10138	278	-40.1	-42.1	228	14
2023-08-14T18:00	10170	277	-40.4	-42.4	229	14
2023-08-14T18:00	10200	275	-40.6	-42.7	230	15
2023-08-14T18:00	10235	274	-40.9	-42.7	231	15
2023-08-14T18:00	10257	273	-41.1	-42.5	232	16
2023-08-14T18:00	10296	272	-41.4	-42.6	233	16
2023-08-14T18:00	10320	271	-41.6	-42.6	232	16
2023-08-14T18:00	10345	270	-41.9	-42.7	232	16
2023-08-14T18:00	10370	269	-42.1	-42.9	231	16
2023-08-14T18:00	10396	268	-42.3	-43.2	230	16
2023-08-14T18:00	10424	266	-42.6	-43.3	230	16
2023-08-14T18:00	10451	265	-42.8	-43.5	231	16
2023-08-14T18:00	10482	264	-43.1	-44.4	231	16
2023-08-14T18:00	10514	263	-43.4	-45.6	231	16
2023-08-14T18:00	10550	262	-43.7	-45.9	231	16
2023-08-14T18:00	10577	261	-43.9	-45.5	231	16
2023-08-14T18:00	10599	260	-44.1	-45.4	231	16
2023-08-14T18:00	10624	259	-44.4	-46.8	232	16
2023-08-14T18:00	10653	257	-44.7	-48.0	232	16
2023-08-14T18:00	10690	256	-45.0	-47.7	232	16
2023-08-14T18:00	10712	255	-45.2	-46.9	232	17
2023-08-14T18:00	10734	254	-45.4	-47.4	232	17
2023-08-14T18:00	10760	253	-45.7	-48.6	232	17
2023-08-14T18:00	10799	252	-46.1	-49.5	231	16
2023-08-14T18:00	10825	251	-46.3	-49.3	231	16
2023-08-14T18:00	10854	250	-46.6	-49.2	231	17
2023-08-14T18:00	10875	249	-46.8	-50.0	231	17
2023-08-14T18:00	10896	248	-47.0	-50.3	231	17
2023-08-14T18:00	10924	247	-47.3	-50.4	231	17
2023-08-14T18:00	10948	246	-47.6	-50.9	230	18
2023-08-14T18:00	10976	245	-47.8	-51.1	230	18
2023-08-14T18:00	11003	244	-48.1	-51.2	230	18
2023-08-14T18:00	11034	243	-48.3	-51.2	230	18
2023-08-14T18:00	11067	242	-48.5	-51.1	230	18
2023-08-14T18:00	11091	241	-48.6	-50.8	230	18
2023-08-14T18:00	11121	240	-48.9	-51.1	231	19
2023-08-14T18:00	11146	239	-49.2	-50.8	231	19
2023-08-14T18:00	11172	238	-49.4	-50.6	231	19
2023-08-14T18:00	11198	237	-49.6	-50.6	230	19
2023-08-14T18:00	11226	236	-49.8	-50.6	230	19
2023-08-14T18:00	11252	235	-50.1	-51.1	229	19
2023-08-14T18:00	11279	234	-50.3	-51.5	229	19
2023-08-14T18:00	11307	233	-50.6	-51.7	229	19
2023-08-14T18:00	11332	232	-50.8	-52.1	229	19
2023-08-14T18:00	11361	231	-51.1	-52.6	230	19
2023-08-14T18:00	11389	230	-51.4	-53.3	230	20
2023-08-14T18:00	11414	229	-51.7		231	20
2023-08-14T18:00	11440	229	-51.9	-53.9	231	20
2023-08-14T18:00	11466	228	-52.2	-54.2	231	20
2023-08-14T18:00	11494	227	-52.4	-54.5	232	20
2023-08-14T18:00	11518	226	-52.6	-54.9	232	20
2023-08-14T18:00	11551	225	-52.9	-55.2	231	20
2023-08-14T18:00	11579	224	-53.2	-55.2	231	21
2023-08-14T18:00	11608	223	-53.4	-55.1	230	21
2023-08-14T18:00	11634	222	-53.7	-55.3	230	21
2023-08-14T18:00	11662	221	-53.9	-55.4	229	21
2023-08-14T18:00	11686	220	-54.1	-55.5	227	21
2023-08-14T18:00	11714	219	-54.4	-55.7	226	21
2023-08-14T18:00	11746	218	-54.6	-55.7	225	21
2023-08-14T18:00	11780	217	-54.8	-55.8	225	22
2023-08-14T18:00	11809	216	-55.0	-56.1	225	22
2023-08-14T18:00	11835	215	-55.1	-56.2	225	23
2023-08-14T18:00	11862	214	-55.3	-56.6	226	24
2023-08-14T18:00	11885	213	-55.4	-57.2	227	24
2023-08-14T18:00	11911	212	-55.5	-57.9	228	24
2023-08-14T18:00	11933	212	-55.6	-57.6	228	25
2023-08-14T18:00	11958	211	-55.6	-57.1	229	25
2023-08-14T18:00	11982	210	-55.7	-57.5	229	25
2023-08-14T18:00	12009	209	-55.9	-58.8	229	25
2023-08-14T18:00	12032	208	-56.1	-60.1	229	25
2023-08-14T18:00	12060	207	-56.3	-60.7	229	25
2023-08-14T18:00	12081	207	-56.5	-60.7	229	25
2023-08-14T18:00	12105	206	-56.7	-60.6	229	25
2023-08-14T18:00	12134	205	-57.0	-60.7	229	25
2023-08-14T18:00	12158	204	-57.2	-60.7	228	25
2023-08-14T18:00	12182	203	-57.5	-60.7	228	25
2023-08-14T18:00	12206	203	-57.7	-60.8	228	25
2023-08-14T18:00	12228	202	-57.9	-61.0	227	25
2023-08-14T18:00	12248	201	-58.0	-61.1	227	24
2023-08-14T18:00	12272	201	-58.1	-61.3	226	24
2023-08-14T18:00	12293	200	-58.3	-61.4	226	24
2023-08-14T18:00	12322	199	-58.5	-61.5	225	24
2023-08-14T18:00	12348	198	-58.8	-61.7	225	24
2023-08-14T18:00	12374	197	-59.0	-61.9	225	24
2023-08-14T18:00	12398	197	-59.2	-62.1	224	24
2023-08-14T18:00	12422	196	-59.5	-62.2	224	24
2023-08-14T18:00	12443	195	-59.6	-62.2	223	24
2023-08-14T18:00	12469	194	-59.9	-62.5	222	24
2023-08-14T18:00	12494	194	-60.1	-62.6	222	24
2023-08-14T18:00	12517	193	-60.3	-62.9	222	24
2023-08-14T18:00	12544	192	-60.5	-63.4	222	24
2023-08-14T18:00	12574	191	-60.6		222	25
2023-08-14T18:00	12597	190	-60.5	-64.2	222	25
2023-08-14T18:00	12624	190	-60.7	-64.6	221	26
2023-08-14T18:00	12654	189	-60.9	-64.9	221	27
2023-08-14T18:00	12677	188	-61.1	-65.1	220	28
2023-08-14T18:00	12716	187	-61.4	-65.4	220	28
2023-08-14T18:00	12742	186	-61.2	-65.3	220	29
2023-08-14T18:00	12765	185	-61.1	-65.1	221	29
2023-08-14T18:00	12791	184	-61.1	-65.2	223	29
2023-08-14T18:00	12831	183	-61.1	-65.5	226	29
2023-08-14T18:00	12876	182	-59.9	-64.9	229	28
2023-08-14T18:00	12918	181	-59.3	-64.9	233	28
2023-08-14T18:00	12938	180	-59.1	-65.1	235	28
2023-08-14T18:00	12962	180	-59.2	-65.1	236	28
2023-08-14T18:00	12990	179	-59.2	-64.7	237	29
2023-08-14T18:00	13013	178	-59.3	-64.6	237	29
2023-08-14T18:00	13034	178	-59.0	-64.6	238	28
2023-08-14T18:00	13054	177	-57.9	-64.0	238	28
2023-08-14T18:00	13074	176	-57.7	-64.5	239	28
2023-08-14T18:00	13090	176	-57.1	-65.1	239	27
2023-08-14T18:00	13107	175	-56.6	-66.2	240	27
2023-08-14T18:00	13127	175	-55.6	-66.6	240	27
2023-08-14T18:00	13141	175	-55.1	-66.8	239	27
2023-08-14T18:00	13162	174	-55.2	-67.3	238	27
2023-08-14T18:00	13186	173	-55.0	-68.1	238	28
2023-08-14T18:00	13203	173	-54.6	-69.0	237	28
2023-08-14T18:00	13221	172	-54.5	-69.7	237	28
2023-08-14T18:00	13241	172	-54.2	-70.2	238	28
2023-08-14T18:00	13256	171	-54.1	-71.1	238	27
2023-08-14T18:00	13279	171	-53.9	-71.9	239	27
2023-08-14T18:00	13296	170	-53.4	-72.0	240	27
2023-08-14T18:00	13316	170	-53.0	-71.6	240	27
2023-08-14T18:00	13334	169	-52.8	-71.0	241	27
2023-08-14T18:00	13353	169	-52.8	-70.8	241	27
2023-08-14T18:00	13376	168	-52.8	-71.0	242	26
2023-08-14T18:00	13394	168	-52.9	-72.0	243	26
2023-08-14T18:00	13414	167	-52.8	-72.9	243	25
2023-08-14T18:00	13436	167	-52.6	-72.9	244	25
2023-08-14T18:00	13456	166	-52.6	-72.2	244	24
2023-08-14T18:00	13476	166	-52.3	-71.3	244	24
2023-08-14T18:00	13497	165	-51.8	-70.9	243	24
2023-08-14T18:00	13518	165	-51.8	-71.4	243	23
2023-08-14T18:00	13540	164	-52.0	-72.1	242	23
2023-08-14T18:00	13560	164	-51.9	-72.1	241	24
2023-08-14T18:00	13580	163	-51.8	-72.0	240	24
2023-08-14T18:00	13601	163	-52.0	-72.1	239	24
2023-08-14T18:00	13623	162	-52.1	-72.2	239	24
2023-08-14T18:00	13645	161	-52.1	-72.3	239	24
2023-08-14T18:00	13668	161	-52.0	-72.6	240	24
2023-08-14T18:00	13689	160	-51.9	-72.6	240	24
2023-08-14T18:00	13711	160	-51.9	-72.6	242	24
2023-08-14T18:00	13735	159	-52.0	-72.7	243	23
2023-08-14T18:00	13756	159	-52.1	-72.9	244	23
2023-08-14T18:00	13779	158	-52.2	-73.1	246	23
2023-08-14T18:00	13800	158	-52.3	-73.2	247	23
2023-08-14T18:00	13821	157	-52.4	-73.4	249	23
2023-08-14T18:00	13845	157	-52.4	-73.4	250	22
2023-08-14T18:00	13866	156	-52.4	-73.4	250	22
2023-08-14T18:00	13888	155	-52.3	-73.6	251	21
2023-08-14T18:00	13912	155	-52.1	-74.0	252	20
2023-08-14T18:00	13935	154	-51.9	-74.4	252	19
2023-08-14T18:00	13957	154	-51.6	-73.7	252	18
2023-08-14T18:00	13982	153	-51.5	-72.9	252	18
2023-08-14T18:00	14000	153	-51.5	-72.2	251	18
2023-08-14T18:00	14027	152	-51.7	-72.2	251	18
2023-08-14T18:00	14053	152	-51.8	-72.7	250	18
2023-08-14T18:00	14076	151	-51.8	-73.2	249	18
2023-08-14T18:00	14097	151	-52.0	-73.7	248	18
2023-08-14T18:00	14120	150	-52.1	-74.0	248	18
2023-08-14T18:00	14142	149	-52.3	-74.5	247	18
2023-08-14T18:00	14167	149	-52.3	-74.7	246	17
2023-08-14T18:00	14187	148	-52.0	-74.8	246	16
2023-08-14T18:00	14210	148	-52.1	-74.7	247	16
2023-08-14T18:00	14231	147	-52.1	-74.6	247	15
2023-08-14T18:00	14252	147	-52.1	-74.4	248	15
2023-08-14T18:00	14273	147	-52.2	-74.7	248	14
2023-08-14T18:00	14291	146	-52.2	-74.8	247	14
2023-08-14T18:00	14315	146	-52.1	-74.9	246	13
2023-08-14T18:00	14337	145	-52.0	-75.0	244	13
2023-08-14T18:00	14358	145	-52.0	-75.1	243	12
2023-08-14T18:00	14378	144	-51.7	-74.9	242	12
2023-08-14T18:00	14398	144	-51.7	-74.7	241	12
2023-08-14T18:00	14418	143	-51.9	-74.9	240	11
2023-08-14T18:00	14440	143	-52.0	-74.8	240	11
2023-08-14T18:00	14459	142	-52.2	-74.8	239	11
2023-08-14T18:00	14479	142	-52.4	-75.1	239	11
2023-08-14T18:00	14501	141	-52.6	-75.5	238	11
2023-08-14T18:00	14523	141	-52.8	-75.6	238	11
2023-08-14T18:00	14541	141	-52.9	-75.5	237	11
2023-08-14T18:00	14559	140	-53.1	-75.4	236	10
2023-08-14T18:00	14580	140	-53.3	-75.1	235	10
2023-08-14T18:00	14608	139	-53.5	-75.2	233	10
2023-08-14T18:00	14632	139	-53.7	-75.6	231	10
2023-08-14T18:00	14656	138	-53.9	-76.0	230	10
2023-08-14T18:00	14677	138	-54.0	-76.3	228	9
2023-08-14T18:00	14697	137	-54.3	-76.7	227	9
2023-08-14T18:00	14717	137	-54.4	-76.7	227	9
2023-08-14T18:00	14734	136	-54.6	-77.1	226	10
2023-08-14T18:00	14754	136	-54.8	-77.2	226	10
2023-08-14T18:00	14772	136	-54.9	-77.3	226	10
2023-08-14T18:00	14794	135	-55.1	-77.5	225	11
2023-08-14T18:00	14812	135	-55.3	-77.5	225	11
2023-08-14T18:00	14828	134	-55.4	-77.3	224	11
2023-08-14T18:00	14851	134	-55.5	-77.2	222	11
2023-08-14T18:00	14871	133	-55.5	-77.2	220	12
2023-08-14T18:00	14893	133	-55.5	-77.1	216	12
2023-08-14T18:00	14915	133	-55.4	-76.8	213	13
2023-08-14T18:00	14944	132	-55.3	-76.8	209	14
2023-08-14T18:00	14974	131	-54.4	-76.2	206	14
2023-08-14T18:00	15000	131	-54.3	-76.4	204	15
2023-08-14T18:00	15021	130	-54.1	-76.5	202	16
2023-08-14T18:00	15048	130	-54.3	-77.1	201	16
2023-08-14T18:00	15070	129	-54.4	-77.7	200	16
2023-08-14T18:00	15093	129	-54.4	-77.9	199	16
2023-08-14T18:00	15113	129	-54.5	-78.0	199	17
2023-08-14T18:00	15135	128	-54.6	-78.1	200	17
2023-08-14T18:00	15160	128	-54.8	-78.1	201	17
2023-08-14T18:00	15185	127	-55.0	-78.2	203	16
2023-08-14T18:00	15206	127	-55.1	-78.1	205	17
2023-08-14T18:00	15230	126	-55.4	-78.4	207	17
2023-08-14T18:00	15254	126	-55.5	-78.3	209	17
2023-08-14T18:00	15279	125	-55.8	-78.4	211	17
2023-08-14T18:00	15305	125	-55.9	-78.3	213	17
2023-08-14T18:00	15331	124	-55.9	-78.0	216	16
2023-08-14T18:00	15357	124	-55.6	-77.4	218	16
2023-08-14T18:00	15393	123	-55.8	-77.6	221	16
2023-08-14T18:00	15423	122	-55.9	-77.8	224	16
2023-08-14T18:00	15456	122	-56.1	-78.4	227	15
2023-08-14T18:00	15484	121	-56.2	-79.0	230	15
2023-08-14T18:00	15509	121	-56.1	-79.1	232	15
2023-08-14T18:00	15532	120	-56.2	-79.4	235	15
2023-08-14T18:00	15560	120	-56.4	-79.5	236	14
2023-08-14T18:00	15585	119	-56.5	-79.6	238	14
2023-08-14T18:00	15609	119	-56.6	-79.7	238	13
2023-08-14T18:00	15631	119	-56.6	-79.9	237	13
2023-08-14T18:00	15654	118	-56.7	-80.1	236	12
2023-08-14T18:00	15680	118	-56.3	-79.8	234	12
2023-08-14T18:00	15704	117	-56.4	-79.9	232	12
2023-08-14T18:00	15728	117	-56.5	-80.0	231	12
2023-08-14T18:00	15749	116	-56.7	-80.1	230	11
2023-08-14T18:00	15778	116	-56.9	-80.3	229	11
2023-08-14T18:00	15808	115	-56.9	-80.3	229	11
2023-08-14T18:00	15835	115	-57.0	-80.4	229	11
2023-08-14T18:00	15856	114	-57.2	-80.5	230	11
2023-08-14T18:00	15877	114	-57.3	-80.6	231	11
2023-08-14T18:00	15903	114	-57.3	-80.4	233	11
2023-08-14T18:00	15925	113	-57.3	-80.4	234	11
2023-08-14T18:00	15945	113	-57.5	-80.6	234	11
2023-08-14T18:00	15973	112	-57.4	-80.5	234	11
2023-08-14T18:00	15998	112	-57.2	-80.5	234	12
2023-08-14T18:00	16020	111	-57.1	-80.6	234	12
2023-08-14T18:00	16047	111	-57.1	-80.8	234	12
2023-08-14T18:00	16072	111	-56.7	-80.5	233	12
2023-08-14T18:00	16098	110	-56.9	-80.9	233	12
2023-08-14T18:00	16126	110	-56.8	-80.8	233	12
2023-08-14T18:00	16153	109	-56.4	-80.3	232	12
2023-08-14T18:00	16185	109	-56.0	-79.8	230	12
2023-08-14T18:00	16219	108	-55.9	-79.3	227	12
2023-08-14T18:00	16254	107	-55.5	-78.6	223	11
2023-08-14T18:00	16296	107	-55.9	-78.6	218	10
2023-08-14T18:00	16341	106	-55.9	-78.4	213	10
2023-08-14T18:00	16387	105	-56.2	-78.8	209	10
2023-08-14T18:00	16413	105	-56.3	-78.9	207	10
2023-08-14T18:00	16442	104	-56.6	-79.3	206	11
2023-08-14T18:00	16464	104	-56.8	-79.5	206	12
2023-08-14T18:00	16498	103	-56.8	-79.7	206	13
2023-08-14T18:00	16520	103	-57.0	-80.0	206	14
2023-08-14T18:00	16539	103	-57.0	-80.4	207	15
2023-08-14T18:00	16559	102	-56.5	-80.6	208	15
2023-08-14T18:00	16578	102	-56.5	-81.2	209	15
2023-08-14T18:00	16596	102	-56.7	-81.6	211	15
2023-08-14T18:00	16614	101	-56.8	-81.9	212	15
2023-08-14T18:00	16631	101	-56.8	-81.9	214	15
2023-08-14T18:00	16650	101	-56.9	-81.8	216	15
2023-08-14T18:00	16667	101	-56.7	-81.6	217	14
2023-08-14T18:00	16687	100	-56.5	-81.5	217	14
2023-08-14T18:00	16705	100	-56.7	-81.9	216	14
2023-08-14T18:00	16724	100	-56.5	-81.7	214	13
2023-08-14T18:00	16743	99	-56.2	-81.7	212	13
2023-08-14T18:00	16760	99	-55.8	-81.7	210	12
2023-08-14T18:00	16777	99	-55.6	-81.5	207	12
2023-08-14T18:00	16796	99	-55.4	-81.6	203	11
2023-08-14T18:00	16815	98	-55.4	-81.6	200	11
2023-08-14T18:00	16836	98	-54.8	-81.5	197	11
2023-08-14T18:00	16859	98	-54.4	-81.2	196	11
2023-08-14T18:00	16876	97	-54.5	-81.2	196	11
2023-08-14T18:00	16899	97	-54.6	-81.3	197	11
2023-08-14T18:00	16917	97	-54.7	-81.4	199	11
2023-08-14T18:00	16942	96	-54.8	-81.5	201	11
2023-08-14T18:00	16961	96	-55.0	-81.3	203	11
2023-08-14T18:00	16985	96	-55.1	-81.4	204	11
2023-08-14T18:00	17008	95	-54.9	-81.3	205	11
2023-08-14T18:00	17031	95	-54.9	-81.3	205	12
2023-08-14T18:00	17058	95	-55.1	-81.4	205	12
2023-08-14T18:00	17079	94	-55.0	-81.3	205	12
2023-08-14T18:00	17100	94	-55.0	-81.6	205	12
2023-08-14T18:00	17126	94	-55.1	-81.7	205	12
2023-08-14T18:00	17149	93	-55.3	-81.9	205	12
2023-08-14T18:00	17172	93	-55.3	-81.9	206	12
2023-08-14T18:00	17201	93	-55.3	-81.9	206	12
2023-08-14T18:00	17224	92	-55.3	-81.9	206	12
2023-08-14T18:00	17249	92	-55.4	-81.9	206	12
2023-08-14T18:00	17277	91	-55.6	-82.1	206	12
2023-08-14T18:00	17301	91	-55.7	-82.2	206	12
2023-08-14T18:00	17328	91	-55.9	-82.0	206	12
2023-08-14T18:00	17355	90	-56.1	-82.2	208	12
2023-08-14T18:00	17379	90	-56.3	-82.3	209	12
2023-08-14T18:00	17405	90	-56.4	-82.4	211	12
2023-08-14T18:00	17431	89	-56.5	-82.5	212	11
2023-08-14T18:00	17455	89	-56.5	-82.8	214	11
2023-08-14T18:00	17482	89	-56.5	-82.8	215	11
2023-08-14T18:00	17504	88	-56.4	-82.7	216	12
2023-08-14T18:00	17533	88	-56.5	-82.8	217	12
2023-08-14T18:00	17556	88	-56.6	-82.6	219	12
2023-08-14T18:00	17581	87	-56.8	-82.7	220	12
2023-08-14T18:00	17606	87	-56.9	-82.8	220	12
2023-08-14T18:00	17630	87	-57.1	-83.0	221	12
2023-08-14T18:00	17655	86	-57.2	-83.0	221	12
2023-08-14T18:00	17679	86	-57.1	-83.2	221	11
2023-08-14T18:00	17702	86	-57.0	-83.2	220	11
2023-08-14T18:00	17727	85	-57.2	-83.3	220	10
2023-08-14T18:00	17751	85	-57.3	-83.4	219	10
2023-08-14T18:00	17770	85	-57.3	-83.4	217	10
2023-08-14T18:00	17793	84	-57.3	-83.4	216	10
2023-08-14T18:00	17819	84	-57.2	-83.6	214	10
2023-08-14T18:00	17841	84	-56.7	-83.2	213	11
2023-08-14T18:00	17861	83	-56.4	-83.3	213	11
2023-08-14T18:00	17885	83	-56.2	-83.5	212	12
2023-08-14T18:00	17902	83	-56.0	-83.4	212	12
2023-08-14T18:00	17921	83	-55.8	-83.2	212	12
2023-08-14T18:00	17942	82	-55.7	-83.1	213	12
2023-08-14T18:00	17962	82	-55.8	-83.2	214	12
2023-08-14T18:00	17984	82	-56.0	-83.4	216	12
2023-08-14T18:00	18006	82	-56.1	-83.1	219	12
2023-08-14T18:00	18025	81	-56.1	-83.1	222	12
2023-08-14T18:00	18044	81	-56.1	-83.1	224	12
2023-08-14T18:00	18066	81	-56.1	-83.1	227	12
2023-08-14T18:00	18085	81	-56.1	-83.1	229	12
2023-08-14T18:00	18106	80	-56.1	-83.1	230	12
2023-08-14T18:00	18124	80	-56.0	-82.7	231	11
2023-08-14T18:00	18152	80	-56.0	-82.7	231	11
2023-08-14T18:00	18167	80	-55.9	-82.6	231	10
2023-08-14T18:00	18189	79	-56.0	-82.7	229	9
2023-08-14T18:00	18207	79	-55.7	-82.5	227	8
2023-08-14T18:00	18228	79	-55.6	-82.4	226	8
2023-08-14T18:00	18250	79	-55.3	-82.5	224	7
2023-08-14T18:00	18268	78	-55.4	-82.9	223	7
2023-08-14T18:00	18289	78	-55.5	-83.0	222	7
2023-08-14T18:00	18307	78	-55.5		223	8
2023-08-14T18:00	18330	78	-55.6	-83.4	223	8
2023-08-14T18:00	18347	77	-55.5		223	9
2023-08-14T18:00	18373	77	-55.6	-83.4	223	9
2023-08-14T18:00	18389	77	-55.7	-83.5	222	9
2023-08-14T18:00	18416	76	-55.7	-83.5	221	9
2023-08-14T18:00	18437	76	-55.6	-83.4	220	9
2023-08-14T18:00	18461	76	-55.3	-83.2	218	9
2023-08-14T18:00	18481	76	-55.4	-83.3	217	8
2023-08-14T18:00	18501	75	-55.5		217	8
2023-08-14T18:00	18524	75	-55.4	-83.3	218	8
2023-08-14T18:00	18548	75	-55.4	-83.3	219	8
2023-08-14T18:00	18563	75	-55.2	-83.1	220	8
2023-08-14T18:00	18590	74	-54.5	-82.9	221	8
2023-08-14T18:00	18606	74	-54.5	-82.9	222	7
2023-08-14T18:00	18632	74	-54.3	-83.2	222	7
2023-08-14T18:00	18649	74	-54.0	-83.0	222	6
2023-08-14T18:00	18675	73	-54.1	-83.1	223	6
2023-08-14T18:00	18697	73	-54.1	-83.1	224	6
2023-08-14T18:00	18717	73	-54.0	-83.0	225	6
2023-08-14T18:00	18739	73	-53.6	-82.7	226	6
2023-08-14T18:00	18762	72	-53.8	-82.8	227	6
2023-08-14T18:00	18782	72	-53.9	-82.9	227	7
2023-08-14T18:00	18806	72	-54.0	-82.6	226	7
2023-08-14T18:00	18833	72	-54.1	-82.6	226	8
2023-08-14T18:00	18854	71	-54.0	-82.6	225	8
2023-08-14T18:00	18877	71	-54.1	-82.6	224	9
2023-08-14T18:00	18900	71	-54.3	-82.8	223	9
2023-08-14T18:00	18917	71	-54.5	-82.6	223	9
2023-08-14T18:00	18943	70	-54.6	-82.6	223	9
2023-08-14T18:00	18966	70	-54.7	-83.1	224	9
2023-08-14T18:00	18984	70	-54.8	-83.2	226	9
2023-08-14T18:00	19006	70	-54.7	-83.1	227	8
2023-08-14T18:00	19027	69	-54.7	-83.1	229	8
2023-08-14T18:00	19050	69	-54.8	-83.2	230	8
2023-08-14T18:00	19071	69	-55.0		232	8
2023-08-14T18:00	19092	69	-54.9	-83.3	233	8
2023-08-14T18:00	19111	69	-54.7	-83.1	234	8
2023-08-14T18:00	19136	68	-54.8	-83.2	236	8
2023-08-14T18:00	19156	68	-54.7	-83.1	238	8
2023-08-14T18:00	19174	68	-54.8	-83.2	240	8
2023-08-14T18:00	19196	68	-54.9	-83.3	242	8
2023-08-14T18:00	19211	68	-55.0		244	8
2023-08-14T18:00	19237	67	-55.0		246	7
2023-08-14T18:00	19256	67	-55.0		249	7
2023-08-14T18:00	19279	67	-54.8	-83.2	251	6
2023-08-14T18:00	19306	67	-54.3	-83.2	253	6
2023-08-14T18:00	19325	66	-54.3	-83.2	253	5
2023-08-14T18:00	19350	66	-54.4	-83.3	252	5
2023-08-14T18:00	19378	66	-54.6	-83.0	249	5
2023-08-14T18:00	19402	66	-54.8	-83.2	246	4
2023-08-14T18:00	19426	65	-54.9	-83.3	241	4
2023-08-14T18:00	19447	65	-55.0	-82.9	234	4
2023-08-14T18:00	19474	65	-55.1	-83.0	226	4
2023-08-14T18:00	19496	65	-55.3	-83.2	217	4
2023-08-14T18:00	19521	64	-55.4	-83.3	210	5
2023-08-14T18:00	19545	64	-55.5		205	5
2023-08-14T18:00	19570	64	-55.7	-83.5	202	6
2023-08-14T18:00	19594	64	-55.8	-83.6	199	6
2023-08-14T18:00	19621	63	-55.8	-83.6	198	6
2023-08-14T18:00	19642	63	-55.8	-83.6	196	6
2023-08-14T18:00	19666	63	-55.7	-83.9	195	6
2023-08-14T18:00	19690	63	-55.6	-83.8	195	6
2023-08-14T18:00	19717	62	-55.5	-83.7	195	6
2023-08-14T18:00	19741	62	-55.6	-83.8	197	6
2023-08-14T18:00	19762	62	-55.7	-83.9	197	7
2023-08-14T18:00	19788	62	-55.7	-83.9	198	7
2023-08-14T18:00	19814	61	-55.8	-83.9	197	7
2023-08-14T18:00	19839	61	-56.0	-84.1	197	8
2023-08-14T18:00	19865	61	-56.0	-83.7	197	8
2023-08-14T18:00	19885	61	-56.0	-84.1	198	8
2023-08-14T18:00	19908	61	-56.0	-84.1	199	8
2023-08-14T18:00	19935	60	-55.9	-84.0	202	7
2023-08-14T18:00	19960	60	-55.9	-84.0	205	7
2023-08-14T18:00	19987	60	-56.0	-84.1	209	6
2023-08-14T18:00	20009	60	-56.1	-84.2	212	6
2023-08-14T18:00	20035	59	-55.7	-83.9	215	5
2023-08-14T18:00	20065	59	-55.6	-84.2	218	4
2023-08-14T18:00	20092	59	-55.5	-84.1	219	4
2023-08-14T18:00	20111	59	-55.4	-84.0	218	4
2023-08-14T18:00	20131	58	-55.5	-83.7	215	4
2023-08-14T18:00	20163	58	-55.6	-83.8	211	4
2023-08-14T18:00	20191	58	-55.7	-83.9	208	5
2023-08-14T18:00	20223	58	-55.7	-83.9	206	5
2023-08-14T18:00	20247	57	-55.8	-83.9	206	6
2023-08-14T18:00	20269	57	-55.9	-84.0	207	6
2023-08-14T18:00	20288	57	-55.8	-83.9	207	6
2023-08-14T18:00	20314	57	-55.6	-84.2	207	6
2023-08-14T18:00	20342	57	-55.5	-84.1	205	5
2023-08-14T18:00	20366	56	-55.2	-83.9	199	5
2023-08-14T18:00	20391	56	-54.9	-84.1	188	4
2023-08-14T18:00	20416	56	-54.8	-84.0	175	4
2023-08-14T18:00	20438	56	-54.7	-83.9	165	4
2023-08-14T18:00	20463	56	-54.6	-83.9	160	5
2023-08-14T18:00	20483	55	-54.5	-83.8	158	5
2023-08-14T18:00	20510	55	-54.5	-83.4	159	6
2023-08-14T18:00	20520	55	-54.7	-83.5	161	6
2023-08-14T18:00	20547	55	-54.8	-83.6	165	6
2023-08-14T18:00	20575	55	-55.0	-83.7	170	6
2023-08-14T18:00	20599	54	-54.9	-83.7	176	6
2023-08-14T18:00	20617	54	-55.0	-83.7	183	6
2023-08-14T18:00	20641	54	-55.2	-83.5	190	6
2023-08-14T18:00	20657	54	-55.3	-83.6	196	6
2023-08-14T18:00	20682	54	-55.4	-83.6	201	6
2023-08-14T18:00	20700	53	-55.5	-83.7	204	6
2023-08-14T18:00	20721	53	-55.4	-83.6	205	6
2023-08-14T18:00	20741	53	-55.5	-83.7	205	6
2023-08-14T18:00	20765	53	-55.5	-84.1	203	6
2023-08-14T18:00	20787	53	-55.3	-84.0	201	5
2023-08-14T18:00	20806	53	-55.4	-84.0	199	5
2023-08-14T18:00	20828	52	-55.2	-83.9	201	5
2023-08-14T18:00	20849	52	-55.1	-83.8	204	5
2023-08-14T18:00	20872	52	-55.1	-83.8	209	5
2023-08-14T18:00	20888	52	-54.9	-84.1	214	5
2023-08-14T18:00	20915	52	-54.8	-84.0	218	5
2023-08-14T18:00	20934	52	-54.7	-83.9	222	5
2023-08-14T18:00	20961	51	-54.6	-83.9	224	5
2023-08-14T18:00	20980	51	-54.6	-83.9	226	5
2023-08-14T18:00	21003	51	-54.7	-83.5	228	5
2023-08-14T18:00	21024	51	-54.8	-83.6	231	5
2023-08-14T18:00	21047	51	-54.9	-83.7	235	5
2023-08-14T18:00	21071	50	-54.9	-83.7	239	4
2023-08-14T18:00	21091	50	-54.9	-83.7	245	4
2023-08-14T18:00	21119	50	-54.7	-83.9	252	3
2023-08-14T18:00	21143	50	-54.5	-83.8	257	3
2023-08-14T18:00	21167	50	-54.5	-83.8	260	3
2023-08-14T18:00	21190	50	-54.3	-83.6	261	3
2023-08-14T18:00	21212	49	-54.5	-83.8	261	3
2023-08-14T18:00	21239	49	-54.6	-83.4	259	3
2023-08-14T18:00	21260	49	-54.6	-83.4	256	2
2023-08-14T18:00	21287	49	-54.6	-83.4	251	2
2023-08-14T18:00	21310	49	-54.6	-83.4	240	2
2023-08-14T18:00	21337	48	-54.5	-83.4	218	1
2023-08-14T18:00	21361	48	-54.5	-83.4	189	1
2023-08-14T18:00	21387	48	-54.6	-83.4	170	2
2023-08-14T18:00	21407	48	-54.6	-83.4	162	2
2023-08-14T18:00	21437	48	-54.6	-83.9	158	2
2023-08-14T18:00	21460	47	-54.5	-83.8	155	3
2023-08-14T18:00	21487	47	-54.5	-83.8	151	3
2023-08-14T18:00	21506	47	-54.6	-83.9	147	3
2023-08-14T18:00	21528	47	-54.4	-83.7	143	3
2023-08-14T18:00	21554	47	-54.3	-83.6	140	4
2023-08-14T18:00	21574	47	-54.2	-83.6	139	4
2023-08-14T18:00	21604	46	-54.1	-83.5	138	4
2023-08-14T18:00	21629	46	-54.0	-83.4	137	4
2023-08-14T18:00	21645	46	-54.0	-83.4	135	5
2023-08-14T18:00	21677	46	-54.1	-83.5	132	5
2023-08-14T18:00	21698	46	-54.2	-83.6	131	5
2023-08-14T18:00	21723	46	-54.2	-83.6	131	5
2023-08-14T18:00	21753	45	-54.4	-83.3	134	5
2023-08-14T18:00	21777	45	-54.5	-83.4	139	5
2023-08-14T18:00	21803	45	-54.6	-83.4	145	5
2023-08-14T18:00	21829	45	-54.5	-83.4	152	5
2023-08-14T18:00	21852	45	-54.4	-83.3	158	5
2023-08-14T18:00	21876	45	-54.4	-83.3	162	5
2023-08-14T18:00	21903	44	-54.5	-83.8	166	5
2023-08-14T18:00	21930	44	-54.5	-83.8	168	5
2023-08-14T18:00	21953	44	-54.4	-83.7	169	5
2023-08-14T18:00	21978	44	-54.3	-83.6	169	6
2023-08-14T18:00	21997	44	-54.4	-83.7	169	6
2023-08-14T18:00	22026	43	-54.4	-83.7	169	5
2023-08-14T18:00	22042	43	-54.4	-83.7	169	5
2023-08-14T18:00	22067	43	-54.4	-83.7	169	4
2023-08-14T18:00	22097	43	-54.5	-83.4	166	4
2023-08-14T18:00	22116	43	-54.5	-83.4	160	3
2023-08-14T18:00	22143	43	-54.5	-83.4	149	3
2023-08-14T18:00	22168	43	-54.6	-83.4	135	3
2023-08-14T18:00	22192	42	-54.7	-83.5	123	3
2023-08-14T18:00	22216	42	-54.8	-83.6	114	4
2023-08-14T18:00	22238	42	-54.7	-83.5	109	4
2023-08-14T18:00	22260	42	-54.8	-83.6	105	5
2023-08-14T18:00	22282	42	-54.5	-83.8	103	5
2023-08-14T18:00	22306	42	-54.4	-83.7	103	5
2023-08-14T18:00	22328	41	-54.2	-83.6	104	6
2023-08-14T18:00	22358	41	-54.4	-83.7	106	6
2023-08-14T18:00	22378	41	-54.7	-83.9	110	6
2023-08-14T18:00	22399	41	-54.8	-84.0	115	6
2023-08-14T18:00	22415	41	-54.6	-83.9	120	6
2023-08-14T18:00	22446	41	-54.5	-83.8	125	6
2023-08-14T18:00	22467	41	-54.4	-83.7	129	6
2023-08-14T18:00	22492	40	-54.3	-83.6	131	6
2023-08-14T18:00	22512	40	-54.3	-83.6	132	5
2023-08-14T18:00	22540	40	-54.3	-83.6	132	5
2023-08-14T18:00	22562	40	-54.4	-83.7	132	5
2023-08-14T18:00	22586	40	-54.5	-83.8	134	5
2023-08-14T18:00	22606	40	-54.5	-83.8	138	5
2023-08-14T18:00	22637	40	-54.4	-83.7	144	5
2023-08-14T18:00	22652	39	-54.2	-83.6	152	5
2023-08-14T18:00	22675	39	-54.2	-83.6	159	5
2023-08-14T18:00	22701	39	-54.2	-83.6	164	5
2023-08-14T18:00	22722	39	-54.2	-83.6	167	5
2023-08-14T18:00	22755	39	-54.3	-83.6	167	4
2023-08-14T18:00	22775	39	-54.3	-83.6	164	4
2023-08-14T18:00	22809	39	-54.1	-83.5	156	3
2023-08-14T18:00	22829	38	-54.2	-83.6	145	3
2023-08-14T18:00	22854	38	-54.2	-83.6	129	3
2023-08-14T18:00	22878	38	-54.2	-83.6	115	3
2023-08-14T18:00	22901	38	-54.3	-83.6	105	3
2023-08-14T18:00	22928	38	-54.1	-83.5	100	4
2023-08-14T18:00	22957	38	-54.2	-83.6	98	5
2023-08-14T18:00	22982	37	-54.2	-83.6	97	5
2023-08-14T18:00	23009	37	-54.0	-83.4	97	6
2023-08-14T18:00	23037	37	-54.1	-83.5	98	7
2023-08-14T18:00	23065	37	-54.3	-83.6	100	8
2023-08-14T18:00	23089	37	-54.5	-83.4	103	8
2023-08-14T18:00	23115	37	-54.5	-83.4	106	9
2023-08-14T18:00	23149	37	-54.7	-83.5	108	10
2023-08-14T18:00	23177	36	-54.8	-83.6	111	10
2023-08-14T18:00	23206	36	-55.0	-83.7	113	10
2023-08-14T18:00	23230	36	-55.1	-83.8	115	10
2023-08-14T18:00	23263	36	-55.0	-83.7	117	10
2023-08-14T18:00	23293	36	-55.1	-83.8	119	9
2023-08-14T18:00	23314	36	-55.3	-84.0	121	9
2023-08-14T18:00	23344	35	-55.4	-84.0	124	8
2023-08-14T18:00	23368	35	-55.4	-84.0	125	8
2023-08-14T18:00	23393	35	-55.4	-84.0	126	7
2023-08-14T18:00	23420	35	-55.5	-84.1	127	6
2023-08-14T18:00	23450	35	-55.3	-84.0	127	6
2023-08-14T18:00	23472	35	-55.1	-84.2	127	5
2023-08-14T18:00	23496	35	-55.0	-84.2	129	4
2023-08-14T18:00	23518	34	-54.9	-84.1	132	4
2023-08-14T18:00	23540	34	-55.0	-84.2	136	4
2023-08-14T18:00	23563	34	-55.0	-84.2	142	4
2023-08-14T18:00	23585	34	-54.9	-84.1	147	4
2023-08-14T18:00	23619	34	-54.7	-83.9	152	3
2023-08-14T18:00	23636	34	-54.6	-83.9	156	3
2023-08-14T18:00	23667	34	-54.6	-83.9	158	3
2023-08-14T18:00	23689	34	-54.5	-83.8	159	3
2023-08-14T18:00	23710	33	-54.4	-83.7	156	3
2023-08-14T18:00	23733	33	-54.4	-83.7	150	3
2023-08-14T18:00	23753	33	-54.4	-83.7	140	3
2023-08-14T18:00	23785	33	-54.4	-83.7	126	3
2023-08-14T18:00	23810	33	-54.4	-83.7	113	3
2023-08-14T18:00	23825	33	-54.4	-83.7	102	3
2023-08-14T18:00	23857	33	-54.3	-83.6	95	4
2023-08-14T18:00	23882	33	-54.4	-83.7	92	4
2023-08-14T18:00	23895	32	-54.5	-83.8	92	4
2023-08-14T18:00	23917	32	-54.6	-83.9	93	4
2023-08-14T18:00	23947	32	-54.7	-83.9	95	5
2023-08-14T18:00	23965	32	-54.6	-83.9	97	5
2023-08-14T18:00	23988	32	-54.5	-83.8	98	5
2023-08-14T18:00	24007	32	-54.4	-83.7	99	5
2023-08-14T18:00	24041	32	-54.2	-84.0	99	6
2023-08-14T18:00	24054	32	-54.1	-84.0	100	6
2023-08-14T18:00	24079	32	-54.0	-83.9	102	6
2023-08-14T18:00	24107	31	-53.9	-83.8	105	6
2023-08-14T18:00	24130	31	-53.7	-83.7	109	6
2023-08-14T18:00	24152	31	-53.7	-83.7	112	6
2023-08-14T18:00	24178	31	-53.6	-83.6	114	7
2023-08-14T18:00	24198	31	-53.4	-83.4	115	7
2023-08-14T18:00	24228	31	-53.4	-83.4	115	7
2023-08-14T18:00	24258	31	-53.4	-83.4	115	7
2023-08-14T18:00	24280	31	-53.5	-83.5	116	7
2023-08-14T18:00	24302	30	-53.5	-83.5	117	7
2023-08-14T18:00	24324	30	-53.7	-83.7	120	6
2023-08-14T18:00	24346	30	-53.7	-83.7	124	6
2023-08-14T18:00	24375	30	-53.6	-83.6	128	6
2023-08-14T18:00	24404	30	-53.5	-83.5	132	6
2023-08-14T18:00	24426	30	-53.5	-83.5	135	6
2023-08-14T18:00	24452	30	-53.5	-83.5	138	6
2023-08-14T18:00	24486	30	-53.4	-83.4	140	6
2023-08-14T18:00	24514	30	-53.4	-83.4	142	6
2023-08-14T18:00	24537	29	-53.3		144	5
2023-08-14T18:00	24564	29	-53.3		145	5
2023-08-14T18:00	24585	29	-53.2	-83.3	144	5
2023-08-14T18:00	24619	29	-53.3		143	4
2023-08-14T18:00	24644	29	-53.3		141	4
2023-08-14T18:00	24666	29	-53.2	-83.3	138	3
2023-08-14T18:00	24693	29	-53.2	-83.3	134	3
2023-08-14T18:00	24719	29	-53.2	-83.3	131	2
2023-08-14T18:00	24744	28	-53.2	-83.3	129	2
2023-08-14T18:00	24772	28	-53.1	-83.2	129	2
2023-08-14T18:00	24794	28	-53.0	-83.1	129	3
2023-08-14T18:00	24814	28	-52.9	-83.1	127	3
2023-08-14T18:00	24851	28	-53.0	-83.1	122	3
2023-08-14T18:00	24875	28	-52.9	-83.6	113	3
2023-08-14T18:00	24894	28	-52.6	-83.3	101	3
2023-08-14T18:00	24928	28	-52.4	-83.2	89	3
2023-08-14T18:00	24950	28	-52.2	-83.1	82	3
2023-08-14T18:00	24968	27	-52.0	-82.9	79	4
2023-08-14T18:00	24995	27	-52.1	-83.0	79	4
2023-08-14T18:00	25021	27	-52.1	-83.0	83	4
2023-08-14T18:00	25043	27	-52.1	-83.0	88	4
2023-08-14T18:00	25061	27	-52.0	-82.9	95	5
2023-08-14T18:00	25080	27	-51.9	-82.8	102	5
2023-08-14T18:00	25113	27	-51.9	-82.8	108	5
2023-08-14T18:00	25139	27	-51.8	-82.8	113	5
2023-08-14T18:00	25172	27	-51.8	-82.8	117	4
2023-08-14T18:00	25188	27	-51.9	-82.8	119	4
2023-08-14T18:00	25217	26	-51.8	-82.8	118	4
2023-08-14T18:00	25235	26	-51.5	-82.5	113	4
2023-08-14T18:00	25273	26	-51.2	-82.3	105	4
2023-08-14T18:00	25293	26	-51.1	-82.2	95	4
2023-08-14T18:00	25326	26	-51.2	-82.3	84	4
2023-08-14T18:00	25345	26	-51.3	-82.4	75	4
2023-08-14T18:00	25378	26	-51.3	-82.4	67	4
2023-08-14T18:00	25407	26	-51.3	-82.4	62	4
2023-08-14T18:00	25434	26	-51.2	-82.3	61	4
2023-08-14T18:00	25458	26	-51.1	-82.2	64	4
2023-08-14T18:00	25486	25	-50.9	-82.1	70	4
2023-08-14T18:00	25508	25	-51.0	-82.2	75	5
2023-08-14T18:00	25524	25	-51.0	-82.7	80	5
2023-08-14T18:00	25562	25	-50.9	-82.7	82	6
2023-08-14T18:00	25579	25	-50.8	-82.6	84	6
2023-08-14T18:00	25609	25	-50.6	-82.4	85	7
2023-08-14T18:00	25645	25	-50.4	-82.3	85	7
2023-08-14T18:00	25667	25	-50.3	-82.2	86	7
2023-08-14T18:00	25697	25	-50.2	-82.1	87	7
2023-08-14T18:00	25721	24	-50.1	-82.1	87	7
2023-08-14T18:00	25742	24	-50.1	-82.1	87	7
2023-08-14T18:00	25774	24	-50.2	-82.1	86	6
2023-08-14T18:00	25791	24	-50.1	-82.1	83	6
2023-08-14T18:00	25825	24	-50.1	-82.1	80	6
2023-08-14T18:00	25849	24	-50.2	-82.1	74	5
2023-08-14T18:00	25882	24	-50.3	-81.6	68	5
2023-08-14T18:00	25913	24	-50.3	-81.6	62	6
2023-08-14T18:00	25938	24	-50.3	-82.2	57	6
2023-08-14T18:00	25962	24	-50.2	-82.1	53	7
2023-08-14T18:00	25992	24	-50.2	-82.1	51	7
2023-08-14T18:00	26018	23	-50.1	-82.1	50	8
2023-08-14T18:00	26038	23	-50.1	-82.1	50	9
2023-08-14T18:00	26064	23	-50.1	-82.1	52	9
2023-08-14T18:00	26086	23	-50.0	-82.0	54	9
2023-08-14T18:00	26119	23	-50.0	-82.0	58	9
2023-08-14T18:00	26150	23	-49.9	-81.9	62	8
2023-08-14T18:00	26179	23	-49.9	-81.9	66	8
2023-08-14T18:00	26204	23	-49.9	-81.9	71	8
2023-08-14T18:00	26232	23	-50.0	-82.0	75	8
2023-08-14T18:00	26252	23	-50.0	-82.0	79	8
2023-08-14T18:00	26282	22	-50.1	-81.5	83	8
2023-08-14T18:00	26308	22	-50.3	-81.6	87	8
2023-08-14T18:00	26335	22	-50.3	-81.6	91	8
2023-08-14T18:00	26362	22	-50.3	-81.6	95	8
2023-08-14T18:00	26387	22	-50.2	-82.1	99	8
2023-08-14T18:00	26411	22	-50.1	-82.1	102	8
2023-08-14T18:00	26434	22	-50.1	-82.1	106	7
2023-08-14T18:00	26452	22	-50.2	-82.1	110	7
2023-08-14T18:00	26489	22	-50.3	-82.2	114	7
2023-08-14T18:00	26514	22	-50.2	-82.1	118	6
2023-08-14T18:00	26532	22	-50.1	-82.1	121	6
2023-08-14T18:00	26559	22	-50.0	-82.0	124	6
2023-08-14T18:00	26577	21	-50.0	-82.0	126	6
2023-08-14T18:00	26604	21	-50.0	-82.0	128	6
2023-08-14T18:00	26637	21	-49.9	-81.9	130	6
2023-08-14T18:00	26663	21	-49.9	-81.9	130	5
2023-08-14T18:00	26686	21	-50.0	-82.0	129	5
2023-08-14T18:00	26719	21	-50.0	-82.0	126	5
2023-08-14T18:00	26737	21	-50.1	-82.1	124	5
2023-08-14T18:00	26758	21	-50.2	-82.1	122	5
2023-08-14T18:00	26785	21	-50.2	-82.1	122	5
2023-08-14T18:00	26804	21	-50.1	-82.1	123	5
2023-08-14T18:00	26833	21	-50.1	-82.1	124	5
2023-08-14T18:00	26849	21	-50.1	-82.1	123	5
2023-08-14T18:00	26894	20	-49.9	-81.9	120	4
2023-08-14T18:00	26915	20	-49.9	-81.9	114	4
2023-08-14T18:00	26929	20	-49.7	-81.8	106	4
2023-08-14T18:00	26955	20	-49.5	-82.3	99	4
2023-08-14T18:00	26974	20	-49.2	-82.0	93	4
2023-08-14T18:00	27011	20	-48.8	-81.7	89	4
2023-08-14T18:00	27028	20	-48.7	-81.7	86	4
2023-08-14T18:00	27039	20	-48.6	-81.6	83	4
2023-08-14T18:00	27067	20	-48.6	-81.6	80	5
2023-08-14T18:00	27103	20	-48.4	-81.4	78	5
2023-08-14T18:00	27120	20	-48.4	-81.4	77	6
2023-08-14T18:00	27147	20	-48.5	-81.5	76	7
2023-08-14T18:00	27177	20	-48.5	-81.5	78	7
2023-08-14T18:00	27197	20	-48.6	-81.0	80	7
2023-08-14T18:00	27216	19	-48.7	-81.0	85	8
2023-08-14T18:00	27239	19	-48.7	-81.7	92	8
2023-08-14T18:00	27263	19	-48.6	-81.6	99	8
2023-08-14T18:00	27293	19	-48.4	-81.4	107	8
2023-08-14T18:00	27320	19	-48.4	-81.4	113	8
2023-08-14T18:00	27336	19	-48.4	-81.4	119	8
2023-08-14T18:00	27356	19	-48.4	-81.4	124	7
2023-08-14T18:00	27387	19	-48.3	-81.4	129	7
2023-08-14T18:00	27421	19	-48.1	-81.2	134	6
2023-08-14T18:00	27438	19	-47.9	-81.1	138	6
2023-08-14T18:00	27468	19	-47.8	-81.0	142	5
2023-08-14T18:00	27491	19	-47.7	-80.9	145	4
2023-08-14T18:00	27522	19	-47.3	-80.6	144	4
2023-08-14T18:00	27543	19	-47.2	-80.6	139	3
2023-08-14T18:00	27573	18	-47.2	-80.6	130	3
2023-08-14T18:00	27612	18	-47.1	-80.5	118	3
2023-08-14T18:00	27630	18	-47.1	-80.5	107	3
2023-08-14T18:00	27648	18	-47.0	-80.4	99	3
2023-08-14T18:00	27679	18	-46.8	-81.0	92	3
2023-08-14T18:00	27717	18	-46.7	-80.9	86	3
2023-08-14T18:00	27733	18	-46.6	-80.9	80	3
2023-08-14T18:00	27770	18	-46.4	-80.7	74	3
2023-08-14T18:00	27803	18	-46.5	-80.1	68	3
2023-08-14T18:00	27829	18	-46.5	-80.1	65	3
2023-08-14T18:00	27849	18	-46.5	-80.1	63	3
2023-08-14T18:00	27877	18	-46.5	-80.1	63	3
2023-08-14T18:00	27905	18	-46.5	-80.1	61	3
2023-08-14T18:00	27942	17	-46.4	-80.7	57	3
2023-08-14T18:00	27959	17	-46.4	-80.7	50	3
2023-08-14T18:00	27993	17	-46.2	-80.6	45	3
2023-08-14T18:00	28034	17	-46.2	-80.6	41	4
2023-08-14T18:00	28053	17	-46.3	-79.9	40	5
2023-08-14T18:00	28089	17	-46.4	-80.0	41	5
2023-08-14T18:00	28113	17	-46.3	-79.9	44	5
2023-08-14T18:00	28146	17	-46.3	-79.9	48	5
2023-08-14T18:00	28180	17	-46.4	-80.0	54	5
2023-08-14T18:00	28207	17	-46.4	-80.0	62	5
2023-08-14T18:00	28245	17	-46.5	-80.1	70	5
2023-08-14T18:00	28269	17	-46.7	-80.2	77	5
2023-08-14T18:00	28308	17	-46.8	-80.3	82	5
2023-08-14T18:00	28334	16	-46.9	-80.4	85	5
2023-08-14T18:00	28369	16	-47.0	-80.4	86	4
2023-08-14T18:00	28399	16	-46.8	-80.3	87	4
2023-08-14T18:00	28435	16	-46.6	-80.1	86	3
2023-08-14T18:00	28456	16	-46.7	-80.2	85	3
2023-08-14T18:00	28484	16	-46.7	-80.2	82	2
2023-08-14T18:00	28522	16	-46.8	-80.3	75	2
2023-08-14T18:00	28535	16	-46.9	-80.4	64	2
2023-08-14T18:00	28575	16	-46.8	-80.3	51	2
2023-08-14T18:00	28599	16	-46.7	-80.9	43	3
2023-08-14T18:00	28613	16	-46.5	-80.8	40	3
2023-08-14T18:00	28658	16	-46.2	-80.6	41	4
2023-08-14T18:00	28679	16	-46.0	-80.4	43	5
2023-08-14T18:00	28706	16	-45.9	-80.3	47	7
2023-08-14T18:00	28743	16	-45.7	-80.2	50	8
2023-08-14T18:00	28772	15	-45.7	-80.2	52	8
2023-08-14T18:00	28796	15	-45.7	-80.2	53	9
2023-08-14T18:00	28835	15	-45.9	-80.3	54	9
2023-08-14T18:00	28860	15	-46.0	-80.4	55	9
2023-08-14T18:00	28873	15	-46.0	-80.4	55	9
2023-08-14T18:00	28902	15	-46.0	-80.4	55	9
2023-08-14T18:00	28936	15	-46.0	-80.4	55	8
2023-08-14T18:00	28969	15	-46.0	-80.4	54	7
2023-08-14T18:00	28987	15	-46.0	-80.4	53	7
2023-08-14T18:00	29018	15	-46.0	-80.4	51	6
2023-08-14T18:00	29037	15	-45.9	-80.3	49	6
2023-08-14T18:00	29071	15	-46.0	-80.4	48	7
2023-08-14T18:00	29074	15	-45.7	-80.2	48	7
2023-08-14T18:00	29126	15	-45.7	-80.2	49	7
2023-08-14T18:00	29155	15	-45.7	-80.2	49	8
2023-08-14T18:00	29181	15	-45.7	-80.2	50	8
2023-08-14T18:00	29204	14	-45.6	-80.1	52	8
2023-08-14T18:00	29225	14	-45.7	-80.2	53	8
2023-08-14T18:00	29267	14	-45.8	-80.3	55	8
2023-08-14T18:00	29291	14	-45.9	-80.3	57	8
2023-08-14T18:00	29317	14	-45.5	-80.1	60	9
2023-08-14T18:00	29347	14	-45.5	-80.1	62	9
2023-08-14T18:00	29374	14	-45.3	-79.9	64	9
2023-08-14T18:00	29400	14	-45.0	-79.7	65	9
2023-08-14T18:00	29429	14	-44.6	-80.2	66	9
2023-08-14T18:00	29442	14	-44.4	-80.1	66	9
2023-08-14T18:00	29485	14	-44.5	-80.1	66	9
2023-08-14T18:00	29529	14	-44.6	-79.4	67	10
2023-08-14T18:00	29536	14	-44.6	-79.4	68	10
2023-08-14T18:00	29563	14	-44.7	-79.5	69	11
2023-08-14T18:00	29604	14	-44.7	-79.5	70	11
2023-08-14T18:00	29644	14	-44.8	-79.6	72	12
2023-08-14T18:00	29665	13	-44.8	-79.6	75	12
2023-08-14T18:00	29701	13	-44.8	-79.6	77	12
2023-08-14T18:00	29729	13	-44.9	-79.6	80	12
2023-08-14T18:00	29753	13	-45.0	-79.7	82	12
2023-08-14T18:00	29796	13	-44.6	-79.4	85	12
2023-08-14T18:00	29812	13	-44.3	-79.2	86	11
2023-08-14T18:00	29842	13	-44.3	-80.0	87	11
2023-08-14T18:00	29883	13	-44.3	-80.0	87	11
2023-08-14T18:00	29898	13	-44.3	-80.0	87	11
2023-08-14T18:00	29941	13	-44.1	-79.9	86	11
2023-08-14T18:00	29963	13	-44.0	-79.8	86	11
2023-08-14T18:00	30016	13	-43.8	-79.6	86	11
2023-08-14T18:00	30024	13	-43.5	-79.4	86	10
2023-08-14T18:00	30059	13	-43.5	-79.4	87	10
2023-08-14T18:00	30081	13	-43.4	-79.4	89	10
2023-08-14T18:00	30112	13	-43.4	-79.4	92	10
2023-08-14T18:00	30139	13	-43.4	-79.4	95	10
2023-08-14T18:00	30176	13	-43.2	-79.2	97	10
2023-08-14T18:00	30196	12	-43.2	-79.2	99	9
2023-08-14T18:00	30230	12	-43.0	-79.1	100	9
2023-08-14T18:00	30263	12	-43.0	-79.1	99	8
2023-08-14T18:00	30290	12	-43.0	-79.1	96	8
2023-08-14T18:00	30312	12	-42.8	-78.9	91	7
2023-08-14T18:00	30339	12	-42.6	-78.8	85	7
2023-08-14T18:00	30378	12	-42.5	-78.7	80	7
2023-08-14T18:00	30402	12	-42.4	-78.7	75	7
2023-08-14T18:00	30429	12	-42.4	-78.7	73	7
2023-08-14T18:00	30458	12	-42.3		72	8
2023-08-14T18:00	30475	12	-42.1	-78.4	73	8
2023-08-14T18:00	30515	12	-42.1	-78.4	74	9
2023-08-14T18:00	30527	12	-42.1	-78.4	75	9
2023-08-14T18:00	30555	12	-42.0	-78.4	76	10
2023-08-14T18:00	30582	12	-42.0	-78.4	77	10
2023-08-14T18:00	30614	12	-41.8	-78.2	78	10
2023-08-14T18:00	30637	12	-41.8	-78.2	78	10
2023-08-14T18:00	30654	12	-41.6	-78.1	77	10
2023-08-14T18:00	30692	12	-41.5	-78.0	77	9
2023-08-14T18:00	30710	12	-41.4	-78.9	77	9
2023-08-14T18:00	30746	12	-41.3	-78.8	78	9
2023-08-14T18:00	30760	11	-41.3	-78.8	80	9
2023-08-14T18:00	30806	11	-41.4	-78.9	83	9
2023-08-14T18:00	30838	11	-41.3	-78.8	85	10
2023-08-14T18:00	30843	11	-41.3	-77.9	88	10
2023-08-14T18:00	30853	11	-41.2	-77.8	90	11
2023-08-14T18:00	30897	11	-41.0	-77.7	91	11
2023-08-14T18:00	30901	11	-41.1	-77.7	92	12
2023-08-14T18:00	30950	11	-41.2	-78.8	92	12
2023-08-14T18:00	30977	11	-41.1	-78.7	92	12
2023-08-14T18:00	31012	11	-41.1	-78.7	92	11
2023-08-14T18:00	31046	11	-40.9		93	11
2023-08-14T18:00	31069	11	-40.6	-78.3	93	11
2023-08-14T18:00	31104	11	-40.5	-78.3	95	10
2023-08-14T18:00	31130	11	-40.3	-78.1	95	10
2023-08-14T18:00	31162	11	-40.2	-78.0	95	10
2023-08-14T18:00	31182	11	-40.2	-78.0	94	10
2023-08-14T18:00	31233	11	-40.2	-78.0	92	9
2023-08-14T18:00	31254	11	-40.2	-78.0	91	9
2023-08-14T18:00	31284	11	-40.0	-77.9	90	9
2023-08-14T18:00	31309	11	-40.1	-78.0	90	8
2023-08-14T18:00	31346	11	-40.2	-78.0	91	8
2023-08-14T18:00	31376	10	-40.3	-78.1	91	8
2023-08-14T18:00	31404	10	-40.3	-78.1	89	8
2023-08-14T18:00	31442	10	-40.2	-78.0	86	8
2023-08-14T18:00	31472	10	-40.1	-78.0	84	9
2023-08-14T18:00	31505	10	-40.1	-78.0	81	9
2023-08-14T18:00	31538	10	-39.9	-77.8	80	9
2023-08-14T18:00	31555	10	-39.9	-77.8	80	9
2023-08-14T18:00	31602	10	-39.9	-77.8	82	9
2023-08-14T18:00	31640	10	-39.8	-77.8	84	9
2023-08-14T18:00	31664	10	-39.8	-77.8	86	10
2023-08-14T18:00	31687	10	-39.6	-77.6	89	10
2023-08-14T18:00	31754	10	-39.6	-77.6	92	11
2023-08-14T18:00	31774	10	-39.6	-77.6	94	12
2023-08-14T18:00	31792	10	-39.4	-77.5	97	13
2023-08-14T18:00	31805	10	-39.1	-77.3	99	14
2023-08-14T18:00	31851	10	-38.7	-77.0	101	14
2023-08-14T18:00	31860	10	-38.6	-76.9	103	15
2023-08-14T18:00	31925	10	-38.7	-77.0	105	15
2023-08-14T18:00	31957	10	-38.9	-77.1	107	15
2023-08-14T18:00	31974	10	-38.9	-77.1	108	14
2023-08-14T18:00	32000	10	-38.8	-77.1	110	14
2023-08-14T18:00	32036	10	-38.5	-76.9	111	14
2023-08-14T18:00	32077	9	-38.4	-76.8	111	13
2023-08-14T18:00	32110	9	-38.5	-76.9	112	11
2023-08-14T18:00	32155	9	-38.5	-76.9	112	11
2023-08-14T18:00	32179	9	-38.6	-76.9	112	10
2023-08-14T18:00	32222	9	-38.8	-77.1	111	10
2023-08-14T18:00	32225	9	-39.1	-77.3	109	9
2023-08-14T18:00	32264	9	-39.1	-77.3	106	9
2023-08-14T18:00	32298	9	-39.0	-77.2	102	9
2023-08-14T18:00	32317	9	-38.9	-77.1	98	9
2023-08-14T18:00	32363	9	-39.0	-77.2	94	9
2023-08-14T18:00	32398	9	-38.9	-77.1	90	9
2023-08-14T18:00	32408	9	-38.9	-77.1	86	9
2023-08-14T18:00	32452	9	-39.0	-77.2	83	9
2023-08-14T18:00	32479	9	-39.0	-77.2	81	9
2023-08-14T18:00	32508	9	-38.9	-77.1	81	9
2023-08-14T18:00	32536	9	-39.0	-77.2	82	9
2023-08-14T18:00	32569	9	-39.1	-77.3	85	9
2023-08-14T18:00	32585	9	-39.2	-77.3	88	9
2023-08-14T18:00	32604	9	-39.4	-77.5	93	9
2023-08-14T18:00	32644	9	-39.4	-77.5	98	9
2023-08-14T18:00	32669	9	-39.6	-77.6	103	9
2023-08-14T18:00	32696	9	-39.6	-77.6	108	9
2023-08-14T18:00	32721	9	-39.6	-77.6	113	9
2023-08-14T18:00	32773	9	-39.7	-77.7	118	9
2023-08-14T18:00	32784	9	-39.7	-77.7	121	9
2023-08-14T18:00	32798	9	-39.5	-77.6	124	9
2023-08-14T18:00	32831	8	-39.4	-77.5	127	10
2023-08-14T18:00	32874	8	-39.4	-77.5	130	10
2023-08-14T18:00	32905	8	-39.4	-77.5	133	10
2023-08-14T18:00	32935	8	-39.5	-77.6	135	10
2023-08-14T18:00	32974	8	-39.6	-77.6	137	9
2023-08-14T18:00	33002	8	-39.7	-77.7	139	8
2023-08-14T18:00	33030	8	-39.6	-77.6	141	7
2023-08-14T18:00	33042	8	-39.3	-77.4	143	6
2023-08-14T18:00	33093	8	-39.2	-77.3	146	5
2023-08-14T18:00	33099	8	-38.8	-78.2	150	3
2023-08-14T18:00	33157	8	-38.7	-78.1	146	2
2023-08-14T18:00	33168	8	-38.5	-78.0	124	1
2023-08-14T18:00	33184	8	-38.2	-77.8	40	1
2023-08-14T18:00	33222	8	-37.9	-77.6	11	2
2023-08-14T18:00	33260	8	-37.7	-77.4	3	3
2023-08-14T18:00	33264	8	-37.5	-77.3	1	4
2023-08-14T18:00	33304	8	-37.4	-77.2	2	5
2023-08-14T18:00	33318	8	-37.3	-77.2	3	6
2023-08-14T18:00	33345	8	-36.9	-76.9	10	6
2023-08-14T18:00	33389	8	-36.8	-76.8	15	6
2023-08-14T18:00	33408	8	-36.7	-76.7	20	7
2023-08-14T18:00	33428	8	-36.7	-76.7	24	7
2023-08-14T18:00	33458	8	-36.6	-76.7	28	7
2023-08-14T18:00	33459	8	-36.6	-76.7	31	7
2023-08-14T18:00	33500	8	-36.6	-76.7	33	7
2023-08-14T18:00	33509	8	-36.6	-76.7	35	7
2023-08-14T18:00	33569	8	-36.5	-76.6	37	7
2023-08-14T18:00	33581	8	-36.5	-76.6	38	6
2023-08-14T18:00	33597	8	-36.6	-76.7	38	6
2023-08-14T18:00	33625	8	-36.7	-76.7	37	6
2023-08-14T18:00	33644	8	-36.7	-76.7	35	6
2023-08-14T18:00	33668	8	-36.7	-76.7	33	6
2023-08-14T18:00	33702	7	-36.6	-76.7	32	6
2023-08-14T18:00	33733	7	-36.4	-76.5	31	7
2023-08-14T18:00	33760	7	-36.2	-76.4	31	8
2023-08-14T18:00	33778	7	-36.2	-76.4	32	9
2023-08-14T18:00	33806	7	-36.2	-76.4	33	10
2023-08-14T18:00	33842	7	-36.1	-76.3	35	10
2023-08-14T18:00	33860	7	-36.1	-76.3	38	11
2023-08-14T18:00	33897	7	-36.0	-76.3	41	11
2023-08-14T18:00	33915	7	-36.0	-76.3	45	12
2023-08-14T18:00	33952	7	-35.8	-76.1	50	12
2023-08-14T18:00	33971	7	-35.8	-76.1	55	12
2023-08-14T18:00	34006	7	-35.8	-76.1	60	12
2023-08-14T18:00	34049	7	-35.8	-76.1	64	12
2023-08-14T18:00	34093	7	-35.8	-76.1	73	10
2023-08-14T18:00	34138	7	-35.8	-76.1	77	10
2023-08-14T18:00	34189	7	-35.8	-76.1	83	8
2023-08-14T18:00	34205	7	-35.9	-76.2	85	7
2023-08-14T18:00	34217	7	-36.0	-76.3	85	7
2023-08-14T18:00	34249	7	-36.0	-76.3	83	7
2023-08-14T18:00	34321	7	-36.0	-76.3	80	7
2023-08-14T18:00	34322	7	-35.8	-76.1	76	7
2023-08-14T18:00	34392	7	-35.6	-76.0	73	7
2023-08-14T18:00	34399	7	-35.6	-76.0	72	8
2023-08-14T18:00	34436	7	-35.5	-75.9	73	8
2023-08-14T18:00	34466	7	-35.3	-75.8	75	9
2023-08-14T18:00	34474	7	-35.2	-75.7	76	9
2023-08-14T18:00	34526	7	-35.1	-75.6	79	9
2023-08-14T18:00	34580	7	-35.2	-75.7	80	9
2023-08-14T18:00	34636	7	-35.2	-75.7	82	9
2023-08-14T18:00	34640	7	-35.1	-75.6	84	9
2023-08-14T18:00	34665	7	-35.1	-75.6	85	8
2023-08-14T18:00	34719	6	-35.1	-75.6	86	8
2023-08-14T18:00	34745	6	-35.1	-75.6	87	7
2023-08-14T18:00	34761	6	-35.1	-75.6	88	7
2023-08-14T18:00	34823	6	-34.8	-75.4	97	6
2023-08-14T18:00	34866	6	-34.6	-75.3	103	6
2023-08-14T18:00	34899	6	-34.4	-75.2	108	6
2023-08-14T18:00	34926	6	-34.4	-75.2	111	6
2023-08-14T18:00	34950	6	-34.5	-75.2	112	6
2023-08-14T18:00	34991	6	-34.5	-75.2	110	6
2023-08-14T18:00	35030	6	-34.5	-75.2	107	6
2023-08-14T18:00	35057	6	-34.4	-75.2	103	6
2023-08-14T18:00	35078	6	-34.3	-75.1	99	6
2023-08-14T18:00	35097	6	-34.2	-75.0	95	6
2023-08-14T18:00	35102	6	-34.2	-75.0	92	6
2023-08-14T18:00	35147	6	-34.1	-75.0	90	6
2023-08-14T18:00	35211	6	-33.9	-74.8	89	5
2023-08-14T18:00	35224	6	-33.6	-74.6	87	5
2023-08-14T18:00	35277	6	-33.7	-74.7	83	5
2023-08-14T18:00	35279	6	-33.6	-74.6	76	5
2023-08-14T18:00	35306	6	-33.1	-74.3	69	6
2023-08-14T18:00	35321	6	-33.0	-74.2	61	7
2023-08-14T18:00	35364	6	-33.0	-74.2	55	8
2023-08-14T18:00	35381	6	-33.0	-74.2	49	8
2023-08-14T18:00	35416	6	-32.8	-74.1	46	9
2023-08-14T18:00	35456	6	-32.8	-74.1	44	10
2023-08-14T18:00	35466	6	-32.7	-74.0	44	11
2023-08-14T18:00	35504	6	-32.7	-74.0	45	11
2023-08-14T18:00	35516	6	-32.6	-73.9	47	11
2023-08-14T18:00	35545	6	-32.5	-73.8	50	11
2023-08-14T18:00	35601	6	-32.4	-73.8	54	11
2023-08-14T18:00	35621	6	-32.5	-73.8	65	10
2023-08-14T18:00	35645	6	-32.6	-73.9	69	10
2023-08-14T18:00	35713	6	-32.6	-73.9	71	10
2023-08-14T18:00	35719	6	-32.6	-73.9	73	10
2023-08-14T18:00	35728	6	-32.6	-73.9	74	10
2023-08-14T18:00	35764	6	-32.6	-73.9	75	10
2023-08-14T18:00	35787	6	-32.5	-73.8	76	10
2023-08-14T18:00	35841	6	-32.3	-73.7	78	10
2023-08-14T18:00	35846	6	-32.0	-73.5	84	10
2023-08-14T18:00	35853	5	-31.9	-73.4	87	9
2023-08-14T18:00	35934	5	-31.7	-73.3	91	9
2023-08-14T18:00	35958	5	-31.6	-73.2	99	8
2023-08-14T18:00	36013	5	-31.6	-73.2	103	8
2023-08-14T18:00	36028	5	-31.6	-73.2	107	7
2023-08-14T18:00	36079	5	-31.6	-73.2	112	7
2023-08-14T18:00	36103	5	-31.5	-73.2	117	6
2023-08-14T18:00	36138	5	-31.4	-73.1	117	5
2023-08-14T18:00	36185	5	-31.3	-73.0	113	5
2023-08-14T18:00	36186	5	-31.2	-73.0	100	6
2023-08-14T18:00	36202	5	-30.6	-72.5	93	6
2023-08-14T18:00	36260	5	-30.8	-72.7	87	7
2023-08-14T18:00	36280	5	-30.2	-72.3	83	8
2023-08-14T18:00	36290	5	-30.0	-72.1	79	8
2023-08-14T18:00	36355	5	-29.9	-72.1	77	9
2023-08-14T18:00	36371	5	-29.7	-71.9	74	11
2023-08-14T18:00	36379	5	-29.7	-71.9	73	12
2023-08-14T18:00	36428	5	-29.5	-71.8	74	13
2023-08-14T18:00	36439	5	-29.4	-71.7	75	14
2023-08-14T18:00	36454	5	-29.3	-71.7	79	15
2023-08-14T18:00	36465	5	-29.2	-71.6	83	15
2023-08-15T00:00	115	1002	20.3	19.1	120	3
2023-08-15T00:00	141	999	20.9	18.8	135	4
2023-08-15T00:00	166	996	22.3	18.4	141	5
2023-08-15T00:00	194	993	23.8	17.6	146	7
2023-08-15T00:00	213	990	24.3	17.3	148	8
2023-08-15T00:00	238	988	24.6	16.9	149	10
2023-08-15T00:00	261	985	25.1	16.5	150	11
2023-08-15T00:00	283	983	25.3	16.2	151	11
2023-08-15T00:00	306	980	25.5	17.6	153	11
2023-08-15T00:00	325	978	25.6	17.8	156	12
2023-08-15T00:00	349	975	25.9	18.2	160	11
2023-08-15T00:00	373	973	26.0	18.2	164	11
2023-08-15T00:00	396	970	26.0	18.2	166	11
2023-08-15T00:00	422	967	26.0	18.1	169	11
2023-08-15T00:00	446	965	26.0	18.0	171	11
2023-08-15T00:00	472	962	26.1	17.8	173	11
2023-08-15T00:00	493	960	25.9	17.9	175	11
2023-08-15T00:00	517	957	25.7	18.0	177	12
2023-08-15T00:00	542	954	25.6	17.8	178	12
2023-08-15T00:00	570	951	25.5	17.2	180	12
2023-08-15T00:00	594	949	25.3	17.0	180	12
2023-08-15T00:00	617	946	25.2	16.4	181	12
2023-08-15T00:00	642	944	25.0	15.9	182	12
2023-08-15T00:00	667	941	24.9	15.9	183	12
2023-08-15T00:00	690	939	24.9	15.1	184	12
2023-08-15T00:00	713	936	24.9	14.5	185	12
2023-08-15T00:00	737	933	24.9	14.0	185	12
2023-08-15T00:00	757	931	24.9	13.8	186	12
2023-08-15T00:00	777	929	24.7	15.3	187	11
2023-08-15T00:00	802	927	24.4	16.4	188	11
2023-08-15T00:00	826	924	24.1	16.8	190	10
2023-08-15T00:00	859	921	23.8	16.9	192	10
2023-08-15T00:00	887	918	23.5	16.7	194	10
2023-08-15T00:00	907	916	23.4	16.9	195	10
2023-08-15T00:00	926	914	23.3	16.7	195	10
2023-08-15T00:00	945	912	23.1	16.6	195	10
2023-08-15T00:00	968	909	23.0	16.6	196	9
2023-08-15T00:00	990	907	22.7		197	9
2023-08-15T00:00	1013	904	22.5	16.3	197	9
2023-08-15T00:00	1038	902	22.3	16.4	198	8
2023-08-15T00:00	1063	899	22.1	16.1	200	8
2023-08-15T00:00	1087	897	21.9	16.1	202	7
2023-08-15T00:00	1111	894	21.6	16.4	204	7
2023-08-15T00:00	1132	892	21.4	16.1	205	6
2023-08-15T00:00	1153	890	21.3	15.9	205	6
2023-08-15T00:00	1172	888	21.1		204	6
2023-08-15T00:00	1208	885	20.9	15.2	203	6
2023-08-15T00:00	1235	882	20.6	15.1	202	7
2023-08-15T00:00	1256	880	20.4	15.1	203	7
2023-08-15T00:00	1275	877	20.2	15.0	203	7
2023-08-15T00:00	1297	875	20.0	15.0	204	7
2023-08-15T00:00	1318	873	19.8		204	7
2023-08-15T00:00	1344	870	19.6	14.9	204	7
2023-08-15T00:00	1378	867	19.3	14.6	205	7
2023-08-15T00:00	1403	865	19.2	14.6	205	7
2023-08-15T00:00	1429	862	19.0	14.3	205	8
2023-08-15T00:00	1454	860	18.9	14.1	205	8
2023-08-15T00:00	1483	857	18.7	13.6	206	8
2023-08-15T00:00	1507	854	18.5	13.5	207	8
2023-08-15T00:00	1533	852	18.3	13.3	210	8
2023-08-15T00:00	1560	849	18.1	13.1	215	8
2023-08-15T00:00	1580	847	17.9	12.8	219	8
2023-08-15T00:00	1604	845	17.8	12.4	222	8
2023-08-15T00:00	1629	842	17.7	12.5	223	8
2023-08-15T00:00	1651	840	17.6	12.1	223	8
2023-08-15T00:00	1674	838	17.4	11.6	223	8
2023-08-15T00:00	1694	836	17.3	11.5	224	8
2023-08-15T00:00	1720	833	17.2	10.7	225	8
2023-08-15T00:00	1750	830	17.2	9.9	227	9
2023-08-15T00:00	1779	828	17.0	9.5	229	9
2023-08-15T00:00	1805	825	16.8	9.6	229	9
2023-08-15T00:00	1827	823	16.6	9.1	229	9
2023-08-15T00:00	1848	821	16.5	8.6	229	9
2023-08-15T00:00	1875	818	16.4	7.6	229	8
2023-08-15T00:00	1894	816	16.3	7.1	230	8
2023-08-15T00:00	1917	814	16.2	6.9	232	8
2023-08-15T00:00	1935	812	16.0	6.8	234	8
2023-08-15T00:00	1959	810	15.8	6.8	234	8
2023-08-15T00:00	1990	808	15.6	6.4	234	8
2023-08-15T00:00	2007	806	15.5		232	8
2023-08-15T00:00	2030	804	15.3	6.6	229	8
2023-08-15T00:00	2055	801	15.1	6.3	227	7
2023-08-15T00:00	2074	799	14.9	6.0	225	7
2023-08-15T00:00	2100	797	14.7	5.5	225	6
2023-08-15T00:00	2119	795	14.5	5.7	226	6
2023-08-15T00:00	2153	792	14.2	5.2	226	6
2023-08-15T00:00	2178	789	14.0	4.7	225	7
2023-08-15T00:00	2209	787	13.8	4.8	223	7
2023-08-15T00:00	2235	784	13.6	4.9	220	8
2023-08-15T00:00	2257	782	13.3	5.0	218	8
2023-08-15T00:00	2278	780	13.2	4.7	217	8
2023-08-15T00:00	2307	778	12.9	4.8	217	8
2023-08-15T00:00	2327	776	12.7	4.9	218	9
2023-08-15T00:00	2357	773	12.4	5.0	219	8
2023-08-15T00:00	2385	770	12.2	5.1	222	8
2023-08-15T00:00	2410	768	11.9	5.3	227	8
2023-08-15T00:00	2439	766	11.7	5.2	231	8
2023-08-15T00:00	2462	764	11.4	5.1	233	8
2023-08-15T00:00	2480	762	11.3	5.2	232	8
2023-08-15T00:00	2498	760	11.1	5.0	227	8
2023-08-15T00:00	2521	758	10.9	4.9	220	8
2023-08-15T00:00	2540	756	10.8	4.9	213	8
2023-08-15T00:00	2568	754	10.6	4.1	206	9
2023-08-15T00:00	2595	751	10.5	3.5	202	9
2023-08-15T00:00	2614	750	10.5	3.5	199	9
2023-08-15T00:00	2633	748	10.4	2.8	198	9
2023-08-15T00:00	2655	746	10.3	2.8	198	9
2023-08-15T00:00	2679	744	10.2	1.9	200	9
2023-08-15T00:00	2710	741	10.1	1.8	204	9
2023-08-15T00:00	2733	739	9.8	2.9	209	9
2023-08-15T00:00	2759	737	9.6	2.7	212	9
2023-08-15T00:00	2779	735	9.5	2.6	213	9
2023-08-15T00:00	2810	732	9.2	3.8	212	10
2023-08-15T00:00	2837	730	9.2	2.8	211	10
2023-08-15T00:00	2860	728	9.0	2.4	210	11
2023-08-15T00:00	2888	725	8.9	1.4	211	11
2023-08-15T00:00	2908	723	8.7	1.3	212	11
2023-08-15T00:00	2931	721	8.5	1.1	213	11
2023-08-15T00:00	2959	719	8.3	1.1	213	11
2023-08-15T00:00	2978	717	8.1	1.1	213	10
2023-08-15T00:00	3003	715	7.9	1.7	211	10
2023-08-15T00:00	3029	713	7.6	1.9	209	9
2023-08-15T00:00	3057	711	7.4	2.1	207	9
2023-08-15T00:00	3091	708	7.1	2.1	206	10
2023-08-15T00:00	3122	705	6.8	2.4	207	10
2023-08-15T00:00	3150	703	6.6	2.5	208	10
2023-08-15T00:00	3174	701	6.5	2.3	210	10
2023-08-15T00:00	3193	699	6.3	1.9	211	10
2023-08-15T00:00	3210	698	6.3	1.5	211	10
2023-08-15T00:00	3226	696	6.2	1.6	210	11
2023-08-15T00:00	3246	694	6.1	1.6	209	11
2023-08-15T00:00	3272	692	5.9	1.4	209	12
2023-08-15T00:00	3300	690	5.6	1.1	209	12
2023-08-15T00:00	3318	688	5.5	1.1	210	12
2023-08-15T00:00	3339	687	5.3	0.9	210	12
2023-08-15T00:00	3364	684	5.0	0.7	210	12
2023-08-15T00:00	3393	682	4.8	0.4	210	11
2023-08-15T00:00	3417	680	4.6	0.4	211	11
2023-08-15T00:00	3434	679	4.5	-1.0	212	11
2023-08-15T00:00	3457	677	4.7	-1.8	213	11
2023-08-15T00:00	3486	674	4.5	-1.9	214	11
2023-08-15T00:00	3513	672	4.3	-2.0	214	11
2023-08-15T00:00	3546	669	4.0	-2.1	214	10
2023-08-15T00:00	3581	667	3.8	-1.7	212	10
2023-08-15T00:00	3599	665	3.8	-1.3	211	10
2023-08-15T00:00	3616	664	3.7	-0.9	210	10
2023-08-15T00:00	3640	662	3.4	-0.4	209	10
2023-08-15T00:00	3665	660	3.3	-0.5	209	10
2023-08-15T00:00	3690	658	3.0	-0.8	209	11
2023-08-15T00:00	3722	655	2.8	-0.8	210	11
2023-08-15T00:00	3750	653	2.6	-0.7	210	11
2023-08-15T00:00	3774	651	2.4	-0.8	210	11
2023-08-15T00:00	3791	649	2.3	-0.7	211	12
2023-08-15T00:00	3811	648	2.1	-0.8	211	12
2023-08-15T00:00	3832	646	1.9	-0.8	211	13
2023-08-15T00:00	3858	644	1.7	-1.4	210	13
2023-08-15T00:00	3884	642	1.5	-1.8	209	13
2023-08-15T00:00	3906	640	1.4	-1.9	208	13
2023-08-15T00:00	3928	638	1.3	-1.8	208	13
2023-08-15T00:00	3955	636	1.1	-2.0	208	12
2023-08-15T00:00	3984	634	0.9	-2.1	208	12
2023-08-15T00:00	4013	632	0.7	-2.6	207	12
2023-08-15T00:00	4036	630	0.5	-2.5	206	12
2023-08-15T00:00	4063	628	0.3	-2.6	205	12
2023-08-15T00:00	4087	626	0.2	-2.8	204	12
2023-08-15T00:00	4110	624	0.0	-3.0	204	12
2023-08-15T00:00	4139	622	-0.3	-3.3	204	11
2023-08-15T00:00	4166	620	-0.5	-3.3	205	11
2023-08-15T00:00	4191	618	-0.7	-3.4	205	12
2023-08-15T00:00	4209	617	-0.9	-3.5	204	12
2023-08-15T00:00	4230	615	-1.1	-3.8	203	12
2023-08-15T00:00	4251	613	-1.2	-4.0	203	12
2023-08-15T00:00	4273	612	-1.4	-4.2	202	12
2023-08-15T00:00	4302	609	-1.6	-4.3	202	12
2023-08-15T00:00	4333	607	-1.9	-4.5	202	12
2023-08-15T00:00	4358	605	-2.1	-4.1	201	12
2023-08-15T00:00	4375	604	-2.3	-4.0	201	12
2023-08-15T00:00	4394	602	-2.5	-3.9	201	13
2023-08-15T00:00	4415	601	-2.6	-3.9	201	14
2023-08-15T00:00	4447	599	-2.8	-3.8	202	14
2023-08-15T00:00	4474	597	-3.1	-4.0	203	15
2023-08-15T00:00	4492	595	-3.2	-4.0	204	15
2023-08-15T00:00	4511	594	-3.4	-4.1	204	15
2023-08-15T00:00	4526	592	-3.5	-4.0	205	14
2023-08-15T00:00	4543	591	-3.7	-4.1	206	14
2023-08-15T00:00	4566	589	-3.8	-4.0	206	14
2023-08-15T00:00	4599	587	-4.1	-4.3	206	14
2023-08-15T00:00	4638	584	-4.4	-4.6	205	14
2023-08-15T00:00	4663	582	-4.5	-4.9	204	14
2023-08-15T00:00	4679	581	-4.5		204	14
2023-08-15T00:00	4698	580	-4.5	-5.3	204	14
2023-08-15T00:00	4717	578	-4.7	-5.3	206	14
2023-08-15T00:00	4751	576	-4.9	-5.4	207	15
2023-08-15T00:00	4773	574	-5.1	-5.7	208	15
2023-08-15T00:00	4789	573	-5.1	-6.0	209	15
2023-08-15T00:00	4808	572	-5.1	-6.1	210	15
2023-08-15T00:00	4832	570	-5.1	-6.5	211	15
2023-08-15T00:00	4858	568	-4.8	-8.3	211	16
2023-08-15T00:00	4883	566	-4.9	-7.5	211	16
2023-08-15T00:00	4909	565	-5.1	-7.1	210	15
2023-08-15T00:00	4932	563	-5.1	-7.2	208	15
2023-08-15T00:00	4967	560	-5.3	-8.0	206	14
2023-08-15T00:00	4994	558	-5.3	-9.3	205	13
2023-08-15T00:00	5020	557	-5.4	-10.5	205	13
2023-08-15T00:00	5046	555	-5.7	-10.1	205	12
2023-08-15T00:00	5068	553	-5.9	-10.3	206	11
2023-08-15T00:00	5086	552	-6.0	-10.5	207	11
2023-08-15T00:00	5108	550	-6.1	-11.2	208	11
2023-08-15T00:00	5132	549	-6.3	-11.7	208	11
2023-08-15T00:00	5153	547	-6.4	-11.7	207	11
2023-08-15T00:00	5174	546	-6.5	-12.3	207	11
2023-08-15T00:00	5197	544	-6.6	-12.4	207	12
2023-08-15T00:00	5229	542	-6.9	-12.5	207	12
2023-08-15T00:00	5259	540	-7.1	-13.0	208	12
2023-08-15T00:00	5285	538	-7.2	-13.4	208	13
2023-08-15T00:00	5312	536	-7.3	-14.0	207	13
2023-08-15T00:00	5342	534	-7.6	-14.3	206	13
2023-08-15T00:00	5361	533	-7.7	-14.5	204	13
2023-08-15T00:00	5379	531	-7.9	-14.1	203	13
2023-08-15T00:00	5397	530	-8.0	-14.8	202	13
2023-08-15T00:00	5415	529	-8.0	-15.2	201	13
2023-08-15T00:00	5435	528	-8.0	-15.9	201	13
2023-08-15T00:00	5453	526	-8.2	-15.2	200	13
2023-08-15T00:00	5471	525	-8.3	-15.3	200	13
2023-08-15T00:00	5489	524	-8.5	-15.4	199	13
2023-08-15T00:00	5508	523	-8.6	-15.3	199	13
2023-08-15T00:00	5527	522	-8.7	-14.9	198	13
2023-08-15T00:00	5545	520	-8.9	-14.5	198	13
2023-08-15T00:00	5564	519	-8.9	-14.0	197	13
2023-08-15T00:00	5585	518	-9.1	-14.2	196	13
2023-08-15T00:00	5603	516	-9.2	-14.2	195	13
2023-08-15T00:00	5624	515	-9.4	-14.4	194	13
2023-08-15T00:00	5641	514	-9.6	-14.7	194	13
2023-08-15T00:00	5661	513	-9.7	-15.7	194	13
2023-08-15T00:00	5680	511	-9.7	-16.9	195	13
2023-08-15T00:00	5705	510	-9.9	-17.0	198	12
2023-08-15T00:00	5736	508	-10.2	-15.1	200	12
2023-08-15T00:00	5771	505	-10.4	-15.3	202	12
2023-08-15T00:00	5795	504	-10.6	-15.7	203	12
2023-08-15T00:00	5820	502	-10.7	-16.3	203	12
2023-08-15T00:00	5850	500	-10.7	-20.3	203	12
2023-08-15T00:00	5881	498	-10.9	-18.8	202	12
2023-08-15T00:00	5908	496	-11.2	-17.6	203	13
2023-08-15T00:00	5935	495	-11.5	-15.4	204	13
2023-08-15T00:00	5959	493	-11.5	-19.2	204	13
2023-08-15T00:00	5988	491	-11.5	-19.9	205	13
2023-08-15T00:00	6021	489	-11.5	-15.7	205	13
2023-08-15T00:00	6052	487	-11.6	-18.2	205	13
2023-08-15T00:00	6084	485	-11.8	-17.3	205	13
2023-08-15T00:00	6105	484	-11.9	-17.3	206	13
2023-08-15T00:00	6129	482	-12.2	-17.1	208	13
2023-08-15T00:00	6159	480	-12.5	-16.1	209	13
2023-08-15T00:00	6191	478	-12.8	-14.9	211	13
2023-08-15T00:00	6219	477	-13.0	-14.4	212	13
2023-08-15T00:00	6250	475	-13.2	-14.6	212	14
2023-08-15T00:00	6275	473	-13.3	-14.8	211	14
2023-08-15T00:00	6295	472	-13.4	-15.0	211	14
2023-08-15T00:00	6319	470	-13.4	-15.4	211	14
2023-08-15T00:00	6349	469	-13.6	-15.3	212	15
2023-08-15T00:00	6378	467	-13.8	-15.3	214	15
2023-08-15T00:00	6408	465	-14.1	-15.6	216	15
2023-08-15T00:00	6433	463	-14.3	-15.6	218	15
2023-08-15T00:00	6469	461	-14.5	-15.7	220	15
2023-08-15T00:00	6499	459	-14.6	-15.8	222	15
2023-08-15T00:00	6525	458	-14.8	-16.0	222	15
2023-08-15T00:00	6555	456	-14.9	-16.2	222	15
2023-08-15T00:00	6590	454	-15.2	-16.6	222	15
2023-08-15T00:00	6615	452	-15.2	-16.9	223	15
2023-08-15T00:00	6642	451	-15.4	-17.3	223	15
2023-08-15T00:00	6673	449	-15.6	-17.4	224	16
2023-08-15T00:00	6702	447	-15.8	-17.5	225	16
2023-08-15T00:00	6733	445	-15.9	-18.1	225	17
2023-08-15T00:00	6765	443	-16.2	-18.2	225	17
2023-08-15T00:00	6800	441	-16.4	-18.5	226	17
2023-08-15T00:00	6833	439	-16.7	-18.6	227	17
2023-08-15T00:00	6864	438	-16.9	-18.6	228	17
2023-08-15T00:00	6893	436	-17.0	-19.0	230	17
2023-08-15T00:00	6918	435	-17.0	-19.1	232	17
2023-08-15T00:00	6936	433	-17.0	-19.4	234	17
2023-08-15T00:00	6955	432	-17.0	-19.6	235	17
2023-08-15T00:00	6975	431	-17.1	-19.7	236	17
2023-08-15T00:00	6992	430	-17.3	-19.8	236	17
2023-08-15T00:00	7012	429	-17.5	-19.8	237	16
2023-08-15T00:00	7030	428	-17.6	-19.8	237	16
2023-08-15T00:00	7049	427	-17.8	-20.0	237	16
2023-08-15T00:00	7069	426	-17.9	-19.9	237	16
2023-08-15T00:00	7087	425	-18.1	-20.0	238	16
2023-08-15T00:00	7107	424	-18.3	-20.0	238	15
2023-08-15T00:00	7125	423	-18.5	-20.1	238	15
2023-08-15T00:00	7145	422	-18.6	-20.1	237	15
2023-08-15T00:00	7162	421	-18.8	-20.2	237	15
2023-08-15T00:00	7182	420	-18.9	-20.1	237	15
2023-08-15T00:00	7200	418	-19.0	-20.4	236	15
2023-08-15T00:00	7220	417	-18.9	-20.8	236	16
2023-08-15T00:00	7239	416	-19.0	-20.8	236	16
2023-08-15T00:00	7257	415	-19.1	-20.8	236	16
2023-08-15T00:00	7277	414	-19.2	-21.0	236	16
2023-08-15T00:00	7296	413	-19.3	-21.1	236	17
2023-08-15T00:00	7316	412	-19.4	-21.3	236	17
2023-08-15T00:00	7334	411	-19.5	-21.5	236	17
2023-08-15T00:00	7353	410	-19.6	-21.9	235	17
2023-08-15T00:00	7372	409	-19.6	-21.9	235	17
2023-08-15T00:00	7393	408	-19.8	-22.1	235	17
2023-08-15T00:00	7412	407	-20.0	-22.1	235	17
2023-08-15T00:00	7430	406	-20.1	-22.2	235	17
2023-08-15T00:00	7456	404	-20.3	-22.4	235	16
2023-08-15T00:00	7485	403	-20.6	-22.7	235	16
2023-08-15T00:00	7514	401	-20.7	-23.4	236	16
2023-08-15T00:00	7538	400	-20.7	-23.7	236	16
2023-08-15T00:00	7573	398	-21.0	-23.6	237	16
2023-08-15T00:00	7596	397	-21.2	-23.7	237	16
2023-08-15T00:00	7615	396	-21.4	-23.7	236	16
2023-08-15T00:00	7634	395	-21.5	-23.7	235	16
2023-08-15T00:00	7654	394	-21.6	-24.0	235	16
2023-08-15T00:00	7679	392	-21.8	-24.4	235	16
2023-08-15T00:00	7708	391	-21.9	-24.5	236	15
2023-08-15T00:00	7734	389	-22.1	-25.1	237	15
2023-08-15T00:00	7758	388	-22.3	-25.3	237	15
2023-08-15T00:00	7785	387	-22.4	-25.9	237	15
2023-08-15T00:00	7810	385	-22.5	-26.2	236	15
2023-08-15T00:00	7840	384	-22.7	-26.3	235	14
2023-08-15T00:00	7866	382	-22.8	-26.5	234	14
2023-08-15T00:00	7894	381	-23.0	-27.0	233	14
2023-08-15T00:00	7922	380	-23.1	-27.3	233	14
2023-08-15T00:00	7953	378	-23.4	-27.5	233	14
2023-08-15T00:00	7978	377	-23.6	-27.6	233	15
2023-08-15T00:00	8001	375	-23.8	-28.1	233	15
2023-08-15T00:00	8025	374	-23.9	-28.5	233	15
2023-08-15T00:00	8052	373	-24.1	-28.9	233	15
2023-08-15T00:00	8081	371	-24.3	-29.0	233	15
2023-08-15T00:00	8112	370	-24.5	-29.3	234	15
2023-08-15T00:00	8139	368	-24.7	-29.8	234	15
2023-08-15T00:00	8165	367	-24.9	-29.7	234	15
2023-08-15T00:00	8194	366	-25.1	-29.4	234	15
2023-08-15T00:00	8224	364	-25.4	-29.5	233	16
2023-08-15T00:00	8253	363	-25.7		232	16
2023-08-15T00:00	8280	361	-25.9	-29.7	230	16
2023-08-15T00:00	8303	360	-26.1	-29.9	229	16
2023-08-15T00:00	8334	359	-26.3	-30.4	228	17
2023-08-15T00:00	8359	357	-26.3	-30.9	227	17
2023-08-15T00:00	8390	356	-26.3	-32.2	226	17
2023-08-15T00:00	8416	355	-26.4	-32.6	226	17
2023-08-15T00:00	8441	353	-26.5	-33.1	225	17
2023-08-15T00:00	8466	352	-26.6	-33.3	226	17
2023-08-15T00:00	8496	351	-26.9	-33.5	226	17
2023-08-15T00:00	8521	349	-27.1	-33.4	226	17
2023-08-15T00:00	8550	348	-27.4	-33.7	226	17
2023-08-15T00:00	8577	347	-27.6	-34.1	226	17
2023-08-15T00:00	8606	345	-27.8	-34.1	226	17
2023-08-15T00:00	8631	344	-28.1	-34.2	225	17
2023-08-15T00:00	8656	343	-28.3	-34.3	225	17
2023-08-15T00:00	8681	342	-28.5	-34.5	225	17
2023-08-15T00:00	8706	341	-28.7		224	17
2023-08-15T00:00	8736	339	-29.0	-34.9	224	18
2023-08-15T00:00	8762	338	-29.3	-34.7	223	18
2023-08-15T00:00	8788	337	-29.5	-34.6	223	18
2023-08-15T00:00	8811	336	-29.7	-34.7	223	17
2023-08-15T00:00	8839	334	-30.0	-34.6	223	17
2023-08-15T00:00	8872	333	-30.3	-34.8	224	17
2023-08-15T00:00	8905	331	-30.6	-35.1	225	16
2023-08-15T00:00	8937	330	-30.9	-35.3	226	16
2023-08-15T00:00	8970	328	-31.2	-35.3	226	16
2023-08-15T00:00	9001	327	-31.5	-35.3	226	16
2023-08-15T00:00	9030	325	-31.8	-35.3	226	17
2023-08-15T00:00	9060	324	-32.1	-35.4	226	17
2023-08-15T00:00	9088	323	-32.4	-35.5	226	18
2023-08-15T00:00	9120	321	-32.7	-35.8	227	18
2023-08-15T00:00	9146	320	-32.8	-35.8	227	18
2023-08-15T00:00	9174	319	-32.9	-35.8	227	18
2023-08-15T00:00	9198	318	-33.1	-35.9	226	18
2023-08-15T00:00	9227	317	-33.3	-36.5	226	18
2023-08-15T00:00	9251	315	-33.6	-36.5	226	18
2023-08-15T00:00	9275	314	-33.8	-36.8	226	18
2023-08-15T00:00	9303	313	-34.0	-37.3	227	18
2023-08-15T00:00	9335	312	-34.3	-37.3	227	19
2023-08-15T00:00	9361	310	-34.6	-37.5	227	19
2023-08-15T00:00	9386	309	-34.8	-37.6	227	19
2023-08-15T00:00	9409	308	-35.0	-37.8	226	19
2023-08-15T00:00	9437	307	-35.3	-38.0	225	19
2023-08-15T00:00	9464	306	-35.5	-38.3	224	19
2023-08-15T00:00	9493	305	-35.8	-38.8	223	19
2023-08-15T00:00	9517	304	-36.0	-38.9	222	19
2023-08-15T00:00	9549	302	-36.3	-39.0	223	19
2023-08-15T00:00	9576	301	-36.6	-39.3	223	19
2023-08-15T00:00	9607	300	-36.8	-39.8	225	19
2023-08-15T00:00	9626	299	-36.9	-40.0	226	20
2023-08-15T00:00	9651	298	-37.1	-40.0	226	20
2023-08-15T00:00	9674	297	-37.3	-40.0	226	20
2023-08-15T00:00	9699	296	-37.5	-40.2	225	20
2023-08-15T00:00	9725	295	-37.7	-40.8	225	20
2023-08-15T00:00	9751	294	-37.9	-41.0	226	20
2023-08-15T00:00	9774	293	-38.1	-41.2	227	20
2023-08-15T00:00	9798	291	-38.3	-41.5	229	20
2023-08-15T00:00	9833	290	-38.6	-41.9	231	20
2023-08-15T00:00	9850	289	-38.6	-42.1	232	20
2023-08-15T00:00	9873	288	-38.7	-42.3	233	20
2023-08-15T00:00	9892	287	-38.9	-42.3	234	20
2023-08-15T00:00	9913	287	-39.0	-42.1	234	21
2023-08-15T00:00	9932	286	-39.2	-42.3	234	21
2023-08-15T00:00	9952	285	-39.4	-42.8	234	21
2023-08-15T00:00	9972	284	-39.5	-42.9	234	21
2023-08-15T00:00	9992	283	-39.7	-42.9	234	22
2023-08-15T00:00	10024	282	-40.0	-43.0	234	22
2023-08-15T00:00	10050	281	-40.2	-43.4	234	22
2023-08-15T00:00	10070	280	-40.5	-43.7	234	22
2023-08-15T00:00	10101	279	-40.7	-45.3	233	22
2023-08-15T00:00	10126	278	-40.9	-45.0	233	22
2023-08-15T00:00	10152	277	-41.1	-44.6	234	22
2023-08-15T00:00	10172	276	-41.3	-45.0	235	22
2023-08-15T00:00	10190	275	-41.5	-45.8	235	22
2023-08-15T00:00	10209	274	-41.7	-46.1	236	22
2023-08-15T00:00	10229	274	-41.8	-46.4	236	22
2023-08-15T00:00	10247	273	-42.0	-46.8	236	22
2023-08-15T00:00	10266	272	-42.2	-46.7	236	22
2023-08-15T00:00	10283	271	-42.4	-46.7	236	22
2023-08-15T00:00	10300	271	-42.5	-47.0	236	22
2023-08-15T00:00	10321	270	-42.7	-47.1	236	22
2023-08-15T00:00	10340	269	-42.9	-47.7	235	22
2023-08-15T00:00	10362	268	-43.1	-48.3	235	22
2023-08-15T00:00	10380	268	-43.2	-48.1	235	22
2023-08-15T00:00	10400	267	-43.4	-47.9	235	22
2023-08-15T00:00	10418	266	-43.5	-48.2	235	22
2023-08-15T00:00	10435	265	-43.7	-48.5	236	22
2023-08-15T00:00	10451	265	-43.8	-48.8	236	23
2023-08-15T00:00	10469	264	-44.0	-49.1	236	23
2023-08-15T00:00	10487	263	-44.1	-49.5	236	23
2023-08-15T00:00	10504	263	-44.2	-49.5	236	23
2023-08-15T00:00	10522	262	-44.4	-49.5	236	23
2023-08-15T00:00	10538	261	-44.5	-49.6	236	23
2023-08-15T00:00	10555	261	-44.6	-49.9	237	22
2023-08-15T00:00	10574	260	-44.7	-50.3	237	22
2023-08-15T00:00	10591	259	-44.8	-50.6	237	22
2023-08-15T00:00	10611	259	-44.9	-51.0	237	22
2023-08-15T00:00	10628	258	-45.1	-51.5	237	21
2023-08-15T00:00	10646	257	-45.2	-51.8	237	21
2023-08-15T00:00	10666	256	-45.3	-52.0	237	21
2023-08-15T00:00	10683	256	-45.5	-52.1	238	20
2023-08-15T00:00	10700	255	-45.6	-52.3	238	20
2023-08-15T00:00	10720	254	-45.8	-52.4	238	20
2023-08-15T00:00	10739	254	-46.0	-52.5	238	20
2023-08-15T00:00	10756	253	-46.1	-52.6	238	20
2023-08-15T00:00	10773	252	-46.2	-52.7	238	19
2023-08-15T00:00	10790	252	-46.4	-52.9	238	19
2023-08-15T00:00	10809	251	-46.5	-53.3	237	19
2023-08-15T00:00	10828	250	-46.6	-53.7	237	19
2023-08-15T00:00	10851	249	-46.8	-53.9	236	19
2023-08-15T00:00	10868	249	-47.0	-54.2	235	18
2023-08-15T00:00	10884	248	-47.1	-54.6	234	18
2023-08-15T00:00	10903	247	-47.2	-54.7	234	18
2023-08-15T00:00	10919	247	-47.3	-54.2	234	18
2023-08-15T00:00	10938	246	-47.5	-54.0	233	19
2023-08-15T00:00	10955	245	-47.6	-53.9	233	18
2023-08-15T00:00	10974	245	-47.8	-54.1	233	18
2023-08-15T00:00	10992	244	-48.0	-54.3	232	18
2023-08-15T00:00	11011	243	-48.1	-54.3	232	18
2023-08-15T00:00	11033	243	-48.4	-54.3	232	18
2023-08-15T00:00	11053	242	-48.5	-54.1	231	18
2023-08-15T00:00	11070	241	-48.7	-54.1	231	17
2023-08-15T00:00	11086	241	-48.9	-54.1	231	17
2023-08-15T00:00	11105	240	-49.0	-54.2	231	17
2023-08-15T00:00	11124	239	-49.2	-54.5	231	17
2023-08-15T00:00	11144	239	-49.4	-54.7	231	17
2023-08-15T00:00	11161	238	-49.5	-54.8	231	17
2023-08-15T00:00	11180	237	-49.7	-54.9	231	16
2023-08-15T00:00	11199	237	-49.8	-54.9	231	16
2023-08-15T00:00	11216	236	-50.0	-55.0	231	16
2023-08-15T00:00	11233	235	-50.2	-55.1	231	16
2023-08-15T00:00	11253	235	-50.3	-55.2	231	16
2023-08-15T00:00	11271	234	-50.5	-55.4	231	16
2023-08-15T00:00	11289	233	-50.6	-55.5	231	16
2023-08-15T00:00	11306	233	-50.8	-55.6	231	16
2023-08-15T00:00	11324	232	-51.0	-55.9	231	16
2023-08-15T00:00	11341	231	-51.1	-56.0	231	16
2023-08-15T00:00	11360	231	-51.3	-56.1	230	16
2023-08-15T00:00	11380	230	-51.5	-56.4	230	16
2023-08-15T00:00	11397	229	-51.6	-56.5	230	16
2023-08-15T00:00	11416	229	-51.8	-56.9	230	16
2023-08-15T00:00	11435	228	-51.9	-57.2	230	17
2023-08-15T00:00	11454	227	-52.1	-57.7	229	17
2023-08-15T00:00	11472	227	-52.2	-58.4	229	17
2023-08-15T00:00	11502	226	-52.4	-59.5	228	18
2023-08-15T00:00	11532	225	-52.3	-60.2	228	18
2023-08-15T00:00	11553	224	-52.5	-60.5	228	19
2023-08-15T00:00	11574	223	-52.6	-60.3	229	19
2023-08-15T00:00	11593	223	-52.8	-60.1	230	19
2023-08-15T00:00	11618	222	-53.0	-60.0	231	20
2023-08-15T00:00	11640	221	-53.3	-60.0	233	20
2023-08-15T00:00	11666	220	-53.5	-60.0	233	20
2023-08-15T00:00	11690	219	-53.7	-60.0	233	20
2023-08-15T00:00	11716	218	-54.0	-60.0	233	20
2023-08-15T00:00	11737	218	-54.2	-60.1	233	21
2023-08-15T00:00	11764	217	-54.4	-60.1	233	22
2023-08-15T00:00	11802	216	-54.7	-60.4	234	22
2023-08-15T00:00	11823	215	-55.0	-60.6	234	22
2023-08-15T00:00	11848	214	-55.2	-60.7	233	22
2023-08-15T00:00	11870	213	-55.4	-60.8	232	21
2023-08-15T00:00	11896	212	-55.6	-61.0	231	21
2023-08-15T00:00	11922	211	-55.6	-61.2	229	20
2023-08-15T00:00	11944	211	-55.6	-61.4	228	20
2023-08-15T00:00	11965	210	-55.6	-61.7	227	20
2023-08-15T00:00	11990	209	-55.4	-61.6	227	20
2023-08-15T00:00	12020	208	-55.7	-61.7	227	20
2023-08-15T00:00	12056	207	-56.1	-61.8	227	20
2023-08-15T00:00	12083	206	-56.3	-61.8	227	19
2023-08-15T00:00	12105	205	-56.5	-61.9	227	19
2023-08-15T00:00	12127	205	-56.7	-61.9	227	19
2023-08-15T00:00	12148	204	-56.9	-62.0	227	19
2023-08-15T00:00	12176	203	-57.1	-62.1	227	20
2023-08-15T00:00	12199	202	-57.3	-62.3	227	20
2023-08-15T00:00	12224	202	-57.5	-62.6	227	21
2023-08-15T00:00	12252	201	-57.8	-62.8	228	22
2023-08-15T00:00	12281	200	-58.0	-62.8	228	22
2023-08-15T00:00	12305	199	-58.2	-62.8	228	22
2023-08-15T00:00	12331	198	-58.5	-63.0	229	22
2023-08-15T00:00	12357	197	-58.7	-63.0	229	22
2023-08-15T00:00	12381	197	-59.0	-63.1	229	22
2023-08-15T00:00	12407	196	-59.2	-63.1	230	22
2023-08-15T00:00	12425	195	-59.4	-63.2	230	23
2023-08-15T00:00	12447	195	-59.6	-63.4	231	23
2023-08-15T00:00	12463	194	-59.7	-63.4	231	23
2023-08-15T00:00	12482	194	-59.8	-63.4	231	23
2023-08-15T00:00	12503	193	-60.0	-63.6	231	23
2023-08-15T00:00	12520	192	-60.1	-63.8	231	23
2023-08-15T00:00	12539	192	-60.3	-64.1	232	23
2023-08-15T00:00	12555	191	-60.4	-64.5	232	23
2023-08-15T00:00	12572	191	-60.4	-64.8	231	23
2023-08-15T00:00	12590	190	-60.4	-65.0	231	23
2023-08-15T00:00	12606	190	-60.4	-65.3	231	22
2023-08-15T00:00	12623	189	-60.1	-65.3	230	21
2023-08-15T00:00	12638	189	-60.0	-65.7	229	20
2023-08-15T00:00	12657	188	-59.8	-66.3	228	20
2023-08-15T00:00	12674	188	-59.6	-67.2	227	19
2023-08-15T00:00	12692	187	-59.4	-68.1	227	19
2023-08-15T00:00	12710	187	-59.2	-68.8	226	18
2023-08-15T00:00	12725	186	-59.1	-69.4	225	19
2023-08-15T00:00	12742	186	-59.1	-70.0	225	19
2023-08-15T00:00	12759	185	-58.9	-70.5	226	19
2023-08-15T00:00	12777	185	-58.9	-71.2	227	20
2023-08-15T00:00	12794	184	-58.6	-71.7	228	21
2023-08-15T00:00	12812	184	-58.0	-72.1	230	21
2023-08-15T00:00	12830	183	-57.4	-72.6	231	22
2023-08-15T00:00	12848	183	-56.5	-73.0	233	22
2023-08-15T00:00	12866	182	-56.0	-73.6	234	23
2023-08-15T00:00	12881	182	-55.7	-74.0	235	23
2023-08-15T00:00	12904	181	-55.4	-74.1	237	23
2023-08-15T00:00	12930	180	-54.8	-73.7	238	23
2023-08-15T00:00	12952	180	-54.6	-73.6	239	22
2023-08-15T00:00	12975	179	-54.8	-73.8	240	22
2023-08-15T00:00	12998	178	-55.0	-73.8	240	22
2023-08-15T00:00	13023	178	-55.2	-73.7	240	22
2023-08-15T00:00	13043	177	-55.3	-73.6	240	22
2023-08-15T00:00	13062	176	-55.5	-73.8	239	22
2023-08-15T00:00	13084	176	-55.5	-73.8	238	22
2023-08-15T00:00	13105	175	-55.3	-73.8	238	22
2023-08-15T00:00	13127	175	-55.3	-74.2	237	22
2023-08-15T00:00	13148	174	-55.3	-74.5	237	22
2023-08-15T00:00	13169	174	-55.2	-74.6	237	22
2023-08-15T00:00	13190	173	-55.3	-74.9	237	22
2023-08-15T00:00	13211	172	-55.4	-75.0	237	22
2023-08-15T00:00	13231	172	-55.6	-75.3	236	22
2023-08-15T00:00	13252	171	-55.6	-75.6	235	22
2023-08-15T00:00	13273	171	-55.4	-75.9	233	22
2023-08-15T00:00	13294	170	-55.3	-76.4	232	22
2023-08-15T00:00	13318	170	-55.5	-77.2	230	22
2023-08-15T00:00	13341	169	-55.0	-77.4	229	22
2023-08-15T00:00	13360	168	-54.6	-77.7	229	22
2023-08-15T00:00	13381	168	-54.6	-78.1	228	22
2023-08-15T00:00	13403	167	-54.7	-78.2	228	22
2023-08-15T00:00	13424	167	-54.2	-77.8	227	22
2023-08-15T00:00	13445	166	-53.9	-77.3	225	22
2023-08-15T00:00	13466	166	-53.9	-77.2	223	21
2023-08-15T00:00	13488	165	-53.6	-76.9	222	21
2023-08-15T00:00	13511	165	-53.4	-76.6	221	21
2023-08-15T00:00	13534	164	-53.4	-76.8	220	21
2023-08-15T00:00	13554	163	-53.5	-76.8	220	21
2023-08-15T00:00	13573	163	-53.7	-77.2	221	21
2023-08-15T00:00	13600	162	-53.5	-77.4	222	21
2023-08-15T00:00	13620	162	-53.2	-77.5	224	21
2023-08-15T00:00	13636	161	-53.2	-78.0	225	21
2023-08-15T00:00	13656	161	-53.0	-78.0	226	21
2023-08-15T00:00	13675	160	-52.9	-78.2	227	21
2023-08-15T00:00	13695	160	-52.9	-78.4	228	20
2023-08-15T00:00	13715	159	-52.9	-78.4	229	20
2023-08-15T00:00	13735	159	-52.6	-78.4	229	20
2023-08-15T00:00	13753	158	-52.7		229	19
2023-08-15T00:00	13773	158	-52.6	-78.4	229	19
2023-08-15T00:00	13792	157	-52.4	-78.5	228	19
2023-08-15T00:00	13812	157	-52.5	-78.6	227	18
2023-08-15T00:00	13834	157	-52.4	-78.5	225	18
2023-08-15T00:00	13852	156	-52.4	-78.5	224	17
2023-08-15T00:00	13869	156	-52.4	-78.5	224	17
2023-08-15T00:00	13892	155	-52.4	-78.5	224	17
2023-08-15T00:00	13911	155	-52.4	-78.5	224	17
2023-08-15T00:00	13930	154	-52.5	-78.8	225	16
2023-08-15T00:00	13951	154	-52.6	-78.9	225	16
2023-08-15T00:00	13970	153	-52.8	-79.1	225	16
2023-08-15T00:00	13988	153	-53.0	-79.2	225	16
2023-08-15T00:00	14008	152	-53.1	-79.0	225	15
2023-08-15T00:00	14026	152	-53.2	-79.1	226	15
2023-08-15T00:00	14047	151	-53.0	-78.7	226	15
2023-08-15T00:00	14067	151	-53.0	-78.5	226	14
2023-08-15T00:00	14087	150	-53.0	-78.5	227	13
2023-08-15T00:00	14108	150	-53.0	-78.7	226	13
2023-08-15T00:00	14126	150	-53.1	-78.8	225	13
2023-08-15T00:00	14145	149	-53.1	-79.0	225	12
2023-08-15T00:00	14165	149	-53.2	-79.1	224	12
2023-08-15T00:00	14182	148	-53.3	-79.5	223	12
2023-08-15T00:00	14201	148	-53.3	-79.7	222	12
2023-08-15T00:00	14222	147	-53.5	-79.9	221	12
2023-08-15T00:00	14239	147	-53.5	-79.6	219	12
2023-08-15T00:00	14260	147	-53.6	-79.7	218	12
2023-08-15T00:00	14279	146	-53.3	-79.2	216	12
2023-08-15T00:00	14297	146	-53.2	-79.1	215	12
2023-08-15T00:00	14316	145	-53.3	-79.2	215	12
2023-08-15T00:00	14334	145	-53.4	-79.3	214	12
2023-08-15T00:00	14356	144	-53.4	-79.3	213	12
2023-08-15T00:00	14375	144	-53.5	-79.4	212	12
2023-08-15T00:00	14394	143	-53.6	-79.4	211	12
2023-08-15T00:00	14413	143	-53.5	-79.4	209	12
2023-08-15T00:00	14433	143	-53.5	-79.4	207	12
2023-08-15T00:00	14453	142	-53.6	-79.7	206	13
2023-08-15T00:00	14471	142	-53.6	-79.7	206	13
2023-08-15T00:00	14494	141	-53.7	-80.0	206	14
2023-08-15T00:00	14514	141	-53.7	-80.0	206	14
2023-08-15T00:00	14533	140	-53.8	-80.1	207	14
2023-08-15T00:00	14552	140	-53.9	-80.2	208	15
2023-08-15T00:00	14575	139	-53.7	-80.3	210	15
2023-08-15T00:00	14594	139	-53.6	-80.5	212	15
2023-08-15T00:00	14616	139	-53.5	-80.5	213	15
2023-08-15T00:00	14637	138	-53.5	-80.8	214	15
2023-08-15T00:00	14658	138	-53.4	-80.7	215	15
2023-08-15T00:00	14680	137	-53.4	-80.7	215	15
2023-08-15T00:00	14702	137	-53.4	-80.7	216	15
2023-08-15T00:00	14721	136	-53.4	-80.7	216	15
2023-08-15T00:00	14744	136	-53.3	-80.6	217	15
2023-08-15T00:00	14763	135	-53.3	-80.6	217	15
2023-08-15T00:00	14785	135	-53.4	-80.7	217	15
2023-08-15T00:00	14807	135	-53.3	-80.6	217	16
2023-08-15T00:00	14831	134	-53.5	-80.8	216	16
2023-08-15T00:00	14854	134	-53.7	-80.9	215	17
2023-08-15T00:00	14880	133	-53.9	-81.1	214	17
2023-08-15T00:00	14904	133	-54.1	-80.9	213	18
2023-08-15T00:00	14927	132	-54.2	-81.0	213	18
2023-08-15T00:00	14951	132	-54.4	-81.2	214	18
2023-08-15T00:00	14973	131	-54.7	-81.1	214	19
2023-08-15T00:00	14996	131	-54.8	-81.2	216	19
2023-08-15T00:00	15019	130	-54.9	-81.3	218	19
2023-08-15T00:00	15043	130	-54.8	-81.2	220	19
2023-08-15T00:00	15063	129	-54.9	-81.3	221	19
2023-08-15T00:00	15086	129	-54.8	-81.2	223	19
2023-08-15T00:00	15107	128	-54.9	-81.3	224	19
2023-08-15T00:00	15128	128	-55.0	-81.3	226	19
2023-08-15T00:00	15151	128	-55.1	-81.4	227	19
2023-08-15T00:00	15173	127	-55.2	-81.5	228	19
2023-08-15T00:00	15194	127	-55.4	-81.6	229	19
2023-08-15T00:00	15216	126	-55.5	-81.7	230	19
2023-08-15T00:00	15237	126	-55.5	-81.4	230	19
2023-08-15T00:00	15256	125	-55.6	-81.5	230	18
2023-08-15T00:00	15280	125	-55.7	-81.6	230	18
2023-08-15T00:00	15304	124	-55.9	-81.8	231	17
2023-08-15T00:00	15326	124	-55.9	-81.8	231	17
2023-08-15T00:00	15350	124	-56.1	-81.9	231	16
2023-08-15T00:00	15372	123	-56.3	-82.1	231	15
2023-08-15T00:00	15398	123	-56.3	-82.1	231	14
2023-08-15T00:00	15417	122	-56.4	-82.1	230	14
2023-08-15T00:00	15439	122	-56.5	-82.2	230	13
2023-08-15T00:00	15459	121	-56.5	-82.5	228	13
2023-08-15T00:00	15480	121	-56.5	-82.5	227	13
2023-08-15T00:00	15502	121	-56.4	-82.4	226	13
2023-08-15T00:00	15525	120	-56.4	-82.4	225	13
2023-08-15T00:00	15546	120	-56.5	-82.5	223	13
2023-08-15T00:00	15566	119	-56.5	-82.5	222	13
2023-08-15T00:00	15587	119	-56.7	-82.7	222	13
2023-08-15T00:00	15608	119	-56.7	-82.7	222	13
2023-08-15T00:00	15630	118	-56.8	-82.7	222	12
2023-08-15T00:00	15651	118	-56.6	-82.6	222	12
2023-08-15T00:00	15672	117	-56.7	-82.7	222	12
2023-08-15T00:00	15694	117	-56.8	-82.7	222	12
2023-08-15T00:00	15715	117	-57.0	-82.6	222	12
2023-08-15T00:00	15736	116	-57.2	-82.8	221	12
2023-08-15T00:00	15757	116	-57.4	-82.9	219	12
2023-08-15T00:00	15778	116	-57.3	-82.8	217	12
2023-08-15T00:00	15796	115	-57.4	-82.9	215	12
2023-08-15T00:00	15818	115	-57.2	-82.8	213	13
2023-08-15T00:00	15835	114	-57.2	-83.0	212	13
2023-08-15T00:00	15857	114	-57.2	-83.0	211	14
2023-08-15T00:00	15877	114	-57.2	-83.0	210	14
2023-08-15T00:00	15898	113	-57.1	-83.0	210	15
2023-08-15T00:00	15917	113	-57.0	-82.9	211	15
2023-08-15T00:00	15940	113	-57.0	-82.9	213	16
2023-08-15T00:00	15960	112	-57.1	-83.0	214	16
2023-08-15T00:00	15982	112	-56.9	-83.1	217	16
2023-08-15T00:00	16002	111	-56.9	-83.1	219	16
2023-08-15T00:00	16024	111	-56.9	-83.4	220	16
2023-08-15T00:00	16046	111	-56.3	-82.9	222	16
2023-08-15T00:00	16069	110	-56.1	-83.1	224	16
2023-08-15T00:00	16090	110	-55.8	-82.9	225	16
2023-08-15T00:00	16111	110	-55.9	-82.9	227	16
2023-08-15T00:00	16136	109	-56.1	-83.1	229	17
2023-08-15T00:00	16158	109	-56.3	-82.9	231	17
2023-08-15T00:00	16179	108	-56.5	-83.1	233	17
2023-08-15T00:00	16202	108	-56.6	-83.2	235	17
2023-08-15T00:00	16222	108	-56.3	-82.9	236	16
2023-08-15T00:00	16242	107	-56.0	-83.0	238	16
2023-08-15T00:00	16263	107	-56.0	-83.0	238	16
2023-08-15T00:00	16283	107	-55.9	-82.9	239	16
2023-08-15T00:00	16303	106	-56.1	-83.1	239	15
2023-08-15T00:00	16326	106	-56.2	-83.2	239	15
2023-08-15T00:00	16350	106	-56.0	-83.4	238	14
2023-08-15T00:00	16367	105	-55.9	-83.3	238	14
2023-08-15T00:00	16387	105	-55.4	-83.3	237	14
2023-08-15T00:00	16412	105	-55.3	-83.2	235	13
2023-08-15T00:00	16437	104	-55.3	-83.2	233	13
2023-08-15T00:00	16455	104	-55.0	-82.9	231	13
2023-08-15T00:00	16478	103	-55.0	-82.9	229	13
2023-08-15T00:00	16499	103	-55.1	-83.0	227	13
2023-08-15T00:00	16518	103	-55.1	-83.4	224	13
2023-08-15T00:00	16539	102	-54.9	-83.3	223	13
2023-08-15T00:00	16559	102	-54.8	-83.2	222	12
2023-08-15T00:00	16578	102	-54.8	-83.2	221	12
2023-08-15T00:00	16600	102	-54.8	-83.2	221	12
2023-08-15T00:00	16620	101	-54.9	-83.3	221	11
2023-08-15T00:00	16639	101	-55.0		221	11
2023-08-15T00:00	16661	101	-55.1	-83.4	221	11
2023-08-15T00:00	16682	100	-55.2	-83.5	221	11
2023-08-15T00:00	16703	100	-55.2	-83.5	221	11
2023-08-15T00:00	16724	100	-55.1	-83.4	221	11
2023-08-15T00:00	16744	99	-55.2	-83.5	222	11
2023-08-15T00:00	16765	99	-55.3	-83.6	223	12
2023-08-15T00:00	16784	99	-55.4	-83.3	224	12
2023-08-15T00:00	16806	98	-55.5		224	12
2023-08-15T00:00	16825	98	-55.6	-83.4	224	13
2023-08-15T00:00	16846	98	-55.7	-83.5	223	13
2023-08-15T00:00	16868	97	-55.8	-83.6	223	14
2023-08-15T00:00	16886	97	-56.0	-83.7	223	14
2023-08-15T00:00	16908	97	-56.1	-83.4	223	14
2023-08-15T00:00	16930	96	-56.2	-83.5	224	14
2023-08-15T00:00	16950	96	-56.4	-83.7	225	14
2023-08-15T00:00	16972	96	-56.5	-83.7	227	14
2023-08-15T00:00	16991	95	-56.7	-83.9	229	14
2023-08-15T00:00	17013	95	-56.8	-84.0	231	14
2023-08-15T00:00	17035	95	-56.8	-84.0	233	14
2023-08-15T00:00	17054	94	-56.6	-84.2	235	14
2023-08-15T00:00	17078	94	-56.0	-83.7	238	13
2023-08-15T00:00	17102	94	-55.9	-84.0	240	13
2023-08-15T00:00	17122	94	-55.9	-84.0	242	13
2023-08-15T00:00	17144	93	-56.0	-84.1	245	12
2023-08-15T00:00	17166	93	-56.1	-84.2	248	11
2023-08-15T00:00	17190	93	-56.2	-84.2	250	11
2023-08-15T00:00	17211	92	-56.2	-84.2	252	10
2023-08-15T00:00	17234	92	-56.0	-84.1	252	9
2023-08-15T00:00	17253	92	-55.6	-83.8	251	9
2023-08-15T00:00	17276	91	-55.7	-84.3	249	8
2023-08-15T00:00	17298	91	-55.8	-84.3	245	7
2023-08-15T00:00	17322	91	-55.6	-84.2	242	7
2023-08-15T00:00	17340	90	-55.7	-84.3	238	7
2023-08-15T00:00	17362	90	-55.8	-83.9	236	7
2023-08-15T00:00	17383	90	-55.9	-84.0	236	6
2023-08-15T00:00	17406	89	-56.1	-84.2	237	6
2023-08-15T00:00	17426	89	-56.2	-84.2	238	6
2023-08-15T00:00	17444	89	-56.3	-84.3	238	6
2023-08-15T00:00	17468	89	-56.3	-84.3	237	6
2023-08-15T00:00	17490	88	-56.4	-84.4	234	6
2023-08-15T00:00	17511	88	-56.3	-84.3	230	7
2023-08-15T00:00	17532	88	-56.2	-84.2	227	7
2023-08-15T00:00	17551	87	-56.2	-84.2	225	7
2023-08-15T00:00	17573	87	-56.3	-84.3	224	8
2023-08-15T00:00	17594	87	-56.5	-84.5	223	8
2023-08-15T00:00	17616	87	-56.7	-84.6	223	8
2023-08-15T00:00	17639	86	-56.8	-84.7	222	8
2023-08-15T00:00	17658	86	-56.9	-84.4	220	9
2023-08-15T00:00	17682	86	-57.0	-84.5	218	9
2023-08-15T00:00	17700	85	-57.2	-84.6	217	10
2023-08-15T00:00	17724	85	-57.3	-84.7	216	10
2023-08-15T00:00	17743	85	-57.5	-84.9	216	10
2023-08-15T00:00	17764	85	-57.3	-85.1	217	11
2023-08-15T00:00	17783	84	-57.2	-85.0	219	11
2023-08-15T00:00	17804	84	-57.3	-85.1	222	11
2023-08-15T00:00	17824	84	-56.7	-85.0	225	11
2023-08-15T00:00	17847	83	-56.4	-84.8	228	11
2023-08-15T00:00	17867	83	-56.1	-84.6	230	11
2023-08-15T00:00	17890	83	-56.2	-84.6	232	11
2023-08-15T00:00	17912	83	-56.3	-84.7	235	10
2023-08-15T00:00	17933	82	-56.4	-84.8	237	10
2023-08-15T00:00	17956	82	-56.5	-84.9	240	10
2023-08-15T00:00	17977	82	-56.5	-84.9	243	10
2023-08-15T00:00	17996	81	-56.7	-84.6	245	10
2023-08-15T00:00	18020	81	-56.8	-84.7	247	10
2023-08-15T00:00	18042	81	-56.7	-85.0	248	9
2023-08-15T00:00	18066	81	-56.5	-84.9	248	9
2023-08-15T00:00	18087	80	-56.6	-84.9	248	8
2023-08-15T00:00	18110	80	-56.6	-84.9	248	7
2023-08-15T00:00	18131	80	-56.5	-84.9	247	6
2023-08-15T00:00	18155	79	-56.3	-84.7	247	5
2023-08-15T00:00	18176	79	-56.4	-84.8	247	5
2023-08-15T00:00	18197	79	-56.5	-84.9	245	4
2023-08-15T00:00	18223	79	-56.5	-84.9	242	4
2023-08-15T00:00	18246	78	-56.6	-84.9	235	3
2023-08-15T00:00	18268	78	-56.3	-84.7	225	3
2023-08-15T00:00	18293	78	-56.2	-84.6	215	4
2023-08-15T00:00	18314	78	-56.1	-84.6	206	4
2023-08-15T00:00	18338	77	-56.2	-84.6	199	5
2023-08-15T00:00	18363	77	-56.4	-84.8	195	5
2023-08-15T00:00	18386	77	-56.4	-84.8	193	6
2023-08-15T00:00	18407	76	-56.5	-84.9	194	7
2023-08-15T00:00	18429	76	-56.6	-84.9	196	7
2023-08-15T00:00	18453	76	-56.6	-84.9	199	7
2023-08-15T00:00	18479	76	-56.7	-85.0	202	8
2023-08-15T00:00	18498	75	-56.8	-85.1	205	8
2023-08-15T00:00	18518	75	-56.9	-85.2	208	8
2023-08-15T00:00	18543	75	-56.9	-85.2	208	8
2023-08-15T00:00	18564	74	-56.8	-85.1	208	7
2023-08-15T00:00	18586	74	-56.7	-85.0	206	7
2023-08-15T00:00	18608	74	-56.6	-84.9	204	8
2023-08-15T00:00	18629	74	-56.4	-85.2	202	8
2023-08-15T00:00	18651	73	-56.3	-85.1	202	8
2023-08-15T00:00	18676	73	-56.2	-85.1	202	8
2023-08-15T00:00	18694	73	-56.3	-85.1	203	8
2023-08-15T00:00	18716	73	-56.4	-84.8	204	8
2023-08-15T00:00	18739	72	-56.5	-84.9	205	8
2023-08-15T00:00	18760	72	-56.6	-84.9	205	8
2023-08-15T00:00	18781	72	-56.6	-84.9	206	8
2023-08-15T00:00	18801	72	-56.7	-85.0	206	7
2023-08-15T00:00	18825	72	-56.7	-85.0	206	7
2023-08-15T00:00	18845	71	-56.6	-85.4	204	7
2023-08-15T00:00	18864	71	-56.4	-85.2	202	7
2023-08-15T00:00	18886	71	-56.5	-85.3	200	7
2023-08-15T00:00	18907	71	-56.5	-85.3	199	8
2023-08-15T00:00	18925	70	-56.5	-85.3	199	7
2023-08-15T00:00	18944	70	-56.6	-85.4	202	7
2023-08-15T00:00	18966	70	-56.7	-85.4	205	7
2023-08-15T00:00	18990	70	-56.5	-85.3	210	7
2023-08-15T00:00	19008	69	-56.5	-84.9	214	7
2023-08-15T00:00	19027	69	-56.6	-84.9	217	7
2023-08-15T00:00	19046	69	-56.6	-84.9	219	7
2023-08-15T00:00	19070	69	-56.7	-85.0	220	7
2023-08-15T00:00	19092	69	-56.8	-85.1	219	7
2023-08-15T00:00	19109	68	-56.8	-85.5	217	7
2023-08-15T00:00	19133	68	-56.6	-85.4	215	7
2023-08-15T00:00	19157	68	-56.6	-85.4	212	6
2023-08-15T00:00	19179	68	-56.5	-85.3	208	6
2023-08-15T00:00	19197	67	-56.6	-85.4	205	6
2023-08-15T00:00	19220	67	-56.5	-85.3	201	6
2023-08-15T00:00	19241	67	-56.4	-85.2	198	6
2023-08-15T00:00	19261	67	-56.5	-85.3	193	6
2023-08-15T00:00	19285	66	-56.6	-85.4	189	6
2023-08-15T00:00	19307	66	-56.7	-85.4	185	6
2023-08-15T00:00	19329	66	-56.8	-85.5	182	6
2023-08-15T00:00	19353	66	-56.8	-85.5	182	6
2023-08-15T00:00	19372	66	-56.7	-85.4	184	6
2023-08-15T00:00	19395	65	-56.6	-85.4	188	6
2023-08-15T00:00	19422	65	-56.5	-85.3	193	7
2023-08-15T00:00	19442	65	-56.4	-85.7	197	7
2023-08-15T00:00	19466	65	-56.1	-85.5	202	7
2023-08-15T00:00	19489	64	-56.1	-85.5	206	8
2023-08-15T00:00	19514	64	-56.0		210	8
2023-08-15T00:00	19536	64	-56.1	-85.5	214	7
2023-08-15T00:00	19558	64	-56.0		217	7
2023-08-15T00:00	19583	63	-55.9	-85.3	219	7
2023-08-15T00:00	19608	63	-56.0		220	7
2023-08-15T00:00	19634	63	-56.0		219	7
2023-08-15T00:00	19658	63	-55.6	-85.1	219	7
2023-08-15T00:00	19683	62	-55.5	-85.0	219	7
2023-08-15T00:00	19710	62	-55.7	-85.2	221	7
2023-08-15T00:00	19736	62	-55.8	-85.2	223	6
2023-08-15T00:00	19761	62	-55.7	-85.2	226	6
2023-08-15T00:00	19785	61	-55.7	-85.2	229	6
2023-08-15T00:00	19807	61	-55.6	-85.1	232	5
2023-08-15T00:00	19835	61	-55.2	-84.8	234	4
2023-08-15T00:00	19856	61	-55.2	-85.3	233	4
2023-08-15T00:00	19878	61	-55.1	-85.2	228	3
2023-08-15T00:00	19902	60	-55.0	-85.1	219	3
2023-08-15T00:00	19930	60	-54.9	-85.1	209	3
2023-08-15T00:00	19951	60	-54.8	-85.0	200	3
2023-08-15T00:00	19976	60	-54.9	-85.1	195	4
2023-08-15T00:00	20001	59	-55.0	-84.6	193	4
2023-08-15T00:00	20021	59	-55.0	-84.6	192	5
2023-08-15T00:00	20042	59	-55.2	-84.8	191	5
2023-08-15T00:00	20067	59	-55.3	-84.9	190	6
2023-08-15T00:00	20089	59	-55.4	-84.9	189	6
2023-08-15T00:00	20114	58	-55.5	-85.0	188	7
2023-08-15T00:00	20139	58	-55.6	-85.1	188	7
2023-08-15T00:00	20159	58	-55.6	-85.1	190	7
2023-08-15T00:00	20181	58	-55.7	-85.2	192	7
2023-08-15T00:00	20206	58	-55.9	-85.3	194	7
2023-08-15T00:00	20228	57	-55.9	-85.3	196	6
2023-08-15T00:00	20251	57	-56.0		196	6
2023-08-15T00:00	20272	57	-56.0		195	5
2023-08-15T00:00	20295	57	-55.7	-85.2	193	5
2023-08-15T00:00	20319	57	-55.7	-85.7	191	5
2023-08-15T00:00	20339	56	-55.5	-85.5	190	5
2023-08-15T00:00	20363	56	-55.2	-85.3	189	5
2023-08-15T00:00	20383	56	-55.1	-85.2	189	5
2023-08-15T00:00	20405	56	-55.2	-85.3	189	5
2023-08-15T00:00	20425	56	-55.3	-85.4	190	6
2023-08-15T00:00	20449	55	-55.3	-85.4	190	5
2023-08-15T00:00	20464	55	-55.1	-85.2	190	5
2023-08-15T00:00	20486	55	-55.1	-85.2	189	5
2023-08-15T00:00	20509	55	-55.0	-85.1	186	4
2023-08-15T00:00	20525	55	-54.9	-85.1	180	4
2023-08-15T00:00	20545	55	-54.7	-85.5	174	4
2023-08-15T00:00	20564	54	-54.4	-85.2	169	4
2023-08-15T00:00	20587	54	-54.1	-85.0	168	4
2023-08-15T00:00	20609	54	-54.2	-85.1	170	4
2023-08-15T00:00	20635	54	-54.1	-85.0	174	5
2023-08-15T00:00	20651	54	-54.1	-85.0	177	6
2023-08-15T00:00	20672	54	-54.2	-85.1	179	6
2023-08-15T00:00	20692	53	-54.3	-84.6	180	6
2023-08-15T00:00	20711	53	-54.5	-85.3	180	6
2023-08-15T00:00	20737	53	-54.3	-85.2	179	5
2023-08-15T00:00	20761	53	-54.2	-85.1	177	4
2023-08-15T00:00	20781	53	-54.0	-84.9	171	3
2023-08-15T00:00	20803	52	-53.8	-84.8	161	3
2023-08-15T00:00	20829	52	-53.8	-84.8	149	2
2023-08-15T00:00	20847	52	-53.8	-84.8	137	2
2023-08-15T00:00	20875	52	-53.8	-84.8	129	2
2023-08-15T00:00	20905	52	-54.0	-84.4	126	2
2023-08-15T00:00	20922	51	-54.2	-84.5	128	2
2023-08-15T00:00	20947	51	-54.3	-84.6	134	2
2023-08-15T00:00	20973	51	-54.4	-84.7	142	2
2023-08-15T00:00	20998	51	-54.4	-84.7	148	2
2023-08-15T00:00	21024	51	-54.5	-84.8	152	2
2023-08-15T00:00	21047	50	-54.7	-84.9	153	2
2023-08-15T00:00	21075	50	-54.8	-85.0	152	2
2023-08-15T00:00	21099	50	-54.9	-85.1	148	2
2023-08-15T00:00	21120	50	-55.0	-85.1	143	3
2023-08-15T00:00	21150	50	-55.1	-85.2	139	3
2023-08-15T00:00	21175	49	-55.1	-85.2	135	3
2023-08-15T00:00	21200	49	-55.2	-85.3	132	4
2023-08-15T00:00	21225	49	-54.9	-85.1	131	4
2023-08-15T00:00	21245	49	-54.9	-85.1	130	4
2023-08-15T00:00	21271	49	-54.6	-84.8	132	5
2023-08-15T00:00	21294	49	-54.6	-84.8	134	5
2023-08-15T00:00	21321	48	-54.9	-85.1	137	6
2023-08-15T00:00	21345	48	-55.0	-85.1	139	6
2023-08-15T00:00	21368	48	-55.0	-85.1	141	7
2023-08-15T00:00	21392	48	-55.1	-85.2	142	7
2023-08-15T00:00	21416	48	-55.2	-85.3	142	8
2023-08-15T00:00	21440	47	-55.3	-85.4	143	7
2023-08-15T00:00	21462	47	-55.1	-85.2	144	7
2023-08-15T00:00	21481	47	-55.2	-85.3	146	7
2023-08-15T00:00	21505	47	-55.3	-85.4	149	6
2023-08-15T00:00	21526	47	-55.3	-85.4	151	6
2023-08-15T00:00	21552	47	-55.3	-85.4	153	5
2023-08-15T00:00	21570	46	-55.4	-85.4	153	5
2023-08-15T00:00	21587	46	-55.4	-85.4	152	5
2023-08-15T00:00	21612	46	-55.5	-85.0	150	4
2023-08-15T00:00	21636	46	-55.6	-85.1	149	4
2023-08-15T00:00	21656	46	-55.6	-85.1	147	4
2023-08-15T00:00	21678	46	-55.6	-85.6	147	3
2023-08-15T00:00	21695	46	-55.6	-85.6	147	3
2023-08-15T00:00	21722	45	-55.7	-85.7	149	3
2023-08-15T00:00	21744	45	-55.8	-85.7	150	3
2023-08-15T00:00	21762	45	-55.7	-85.7	151	3
2023-08-15T00:00	21784	45	-55.7	-85.7	151	4
2023-08-15T00:00	21804	45	-55.6	-85.6	150	4
2023-08-15T00:00	21825	45	-55.5	-85.5	151	4
2023-08-15T00:00	21845	45	-55.4	-85.4	151	4
2023-08-15T00:00	21873	44	-55.3	-85.4	151	4
2023-08-15T00:00	21890	44	-55.3	-85.4	150	4
2023-08-15T00:00	21909	44	-55.2	-85.3	149	4
2023-08-15T00:00	21933	44	-55.3	-85.4	148	4
2023-08-15T00:00	21954	44	-55.4	-85.4	147	3
2023-08-15T00:00	21974	44	-55.3	-85.4	146	3
2023-08-15T00:00	21997	43	-55.2	-85.3	146	3
2023-08-15T00:00	22020	43	-55.1	-85.2	147	3
2023-08-15T00:00	22040	43	-54.8	-85.0	148	3
2023-08-15T00:00	22057	43	-54.8	-85.0	149	3
2023-08-15T00:00	22082	43	-54.9	-85.1	151	3
2023-08-15T00:00	22111	43	-55.0	-85.1	152	3
2023-08-15T00:00	22128	43	-55.0	-85.1	152	4
2023-08-15T00:00	22155	42	-54.9	-85.1	151	4
2023-08-15T00:00	22179	42	-54.6	-84.8	149	4
2023-08-15T00:00	22204	42	-54.5	-84.8	146	5
2023-08-15T00:00	22228	42	-54.5	-85.3	144	5
2023-08-15T00:00	22248	42	-54.7	-85.5	142	5
2023-08-15T00:00	22277	42	-54.6	-85.4	141	5
2023-08-15T00:00	22296	41	-54.1	-85.0	139	5
2023-08-15T00:00	22323	41	-54.0	-84.9	138	5
2023-08-15T00:00	22349	41	-54.1	-85.0	136	5
2023-08-15T00:00	22368	41	-54.0	-84.9	135	5
2023-08-15T00:00	22392	41	-54.1	-85.0	134	5
2023-08-15T00:00	22420	41	-54.1	-85.0	132	5
2023-08-15T00:00	22445	41	-54.1	-85.0	131	5
2023-08-15T00:00	22471	40	-54.0	-84.9	130	4
2023-08-15T00:00	22495	40	-54.1	-85.0	129	4
2023-08-15T00:00	22521	40	-54.1	-85.0	126	4
2023-08-15T00:00	22544	40	-54.1	-85.0	122	3
2023-08-15T00:00	22569	40	-53.9	-84.9	117	3
2023-08-15T00:00	22592	40	-53.9	-84.9	110	3
2023-08-15T00:00	22621	39	-53.9	-84.9	106	4
2023-08-15T00:00	22645	39	-53.7	-84.7	103	4
2023-08-15T00:00	22665	39	-53.6	-84.6	102	4
2023-08-15T00:00	22687	39	-53.8	-84.8	102	5
2023-08-15T00:00	22715	39	-53.9	-84.9	103	5
2023-08-15T00:00	22739	39	-53.9	-84.9	104	6
2023-08-15T00:00	22765	39	-54.0	-84.4	106	6
2023-08-15T00:00	22786	38	-54.1	-84.5	109	6
2023-08-15T00:00	22811	38	-54.2	-84.5	113	6
2023-08-15T00:00	22838	38	-54.3	-84.6	119	6
2023-08-15T00:00	22858	38	-54.2	-85.1	126	6
2023-08-15T00:00	22880	38	-53.9	-84.9	135	6
2023-08-15T00:00	22910	38	-53.9	-84.9	144	6
2023-08-15T00:00	22929	38	-53.9	-84.9	152	6
2023-08-15T00:00	22956	37	-53.9	-84.9	160	7
2023-08-15T00:00	22977	37	-53.8	-84.8	165	7
2023-08-15T00:00	23002	37	-54.0	-84.9	168	7
2023-08-15T00:00	23028	37	-53.9	-84.9	168	6
2023-08-15T00:00	23047	37	-54.0	-84.9	167	6
2023-08-15T00:00	23076	37	-53.9	-84.9	162	5
2023-08-15T00:00	23104	37	-53.8	-84.8	156	4
2023-08-15T00:00	23121	36	-53.5	-84.6	146	4
2023-08-15T00:00	23148	36	-53.4	-84.5	135	4
2023-08-15T00:00	23173	36	-53.2	-84.4	125	4
2023-08-15T00:00	23199	36	-53.2	-84.4	118	4
2023-08-15T00:00	23224	36	-53.2	-84.4	113	5
2023-08-15T00:00	23251	36	-53.2	-84.4	111	5
2023-08-15T00:00	23271	36	-53.3	-84.4	110	5
2023-08-15T00:00	23297	36	-53.4	-84.5	110	5
2023-08-15T00:00	23324	35	-53.5	-84.6	110	5
2023-08-15T00:00	23346	35	-53.6	-84.6	109	5
2023-08-15T00:00	23374	35	-53.7	-84.7	108	5
2023-08-15T00:00	23396	35	-53.8	-84.8	106	5
2023-08-15T00:00	23431	35	-53.8	-84.8	103	5
2023-08-15T00:00	23454	35	-53.7	-84.7	100	6
2023-08-15T00:00	23475	35	-53.6	-84.6	96	6
2023-08-15T00:00	23509	34	-53.7	-84.7	91	6
2023-08-15T00:00	23531	34	-53.7	-84.7	87	6
2023-08-15T00:00	23558	34	-53.6	-84.6	84	6
2023-08-15T00:00	23578	34	-53.6	-84.6	82	7
2023-08-15T00:00	23614	34	-53.5	-84.6	82	7
2023-08-15T00:00	23632	34	-53.7	-84.7	84	7
2023-08-15T00:00	23665	34	-53.7	-84.7	87	7
2023-08-15T00:00	23684	33	-53.6	-84.6	91	8
2023-08-15T00:00	23718	33	-53.7	-84.7	96	8
2023-08-15T00:00	23740	33	-53.6	-84.6	100	8
2023-08-15T00:00	23759	33	-53.4	-84.5	105	9
2023-08-15T00:00	23789	33	-53.0	-84.2	109	9
2023-08-15T00:00	23812	33	-53.0	-84.8	113	9
2023-08-15T00:00	23840	33	-53.0	-84.8	115	9
2023-08-15T00:00	23868	33	-53.1	-84.9	117	9
2023-08-15T00:00	23894	32	-53.1	-84.9	118	9
2023-08-15T00:00	23917	32	-53.0	-84.8	119	8
2023-08-15T00:00	23941	32	-52.8	-84.7	120	7
2023-08-15T00:00	23975	32	-52.7	-84.6	121	7
2023-08-15T00:00	24001	32	-52.7	-84.6	122	7
2023-08-15T00:00	24023	32	-52.9	-84.7	124	6
2023-08-15T00:00	24044	32	-53.0	-84.2	126	6
2023-08-15T00:00	24073	31	-53.0	-84.2	128	5
2023-08-15T00:00	24100	31	-53.1	-84.3	130	5
2023-08-15T00:00	24128	31	-53.2	-84.4	130	4
2023-08-15T00:00	24158	31	-53.2	-84.4	127	4
2023-08-15T00:00	24175	31	-53.2	-84.4	120	3
2023-08-15T00:00	24201	31	-53.1	-84.9	110	3
2023-08-15T00:00	24223	31	-53.0	-84.8	98	3
2023-08-15T00:00	24249	31	-52.9	-84.7	87	3
2023-08-15T00:00	24272	31	-52.8	-84.7	79	3
2023-08-15T00:00	24299	30	-52.6	-84.5	74	4
2023-08-15T00:00	24321	30	-52.4	-84.4	71	4
2023-08-15T00:00	24344	30	-52.4	-84.4	71	4
2023-08-15T00:00	24369	30	-52.6	-84.5	71	4
2023-08-15T00:00	24384	30	-52.6	-84.5	72	3
2023-08-15T00:00	24411	30	-52.7	-84.6	72	3
2023-08-15T00:00	24441	30	-52.8	-84.1	71	3
2023-08-15T00:00	24464	30	-53.0	-84.2	71	3
2023-08-15T00:00	24490	30	-53.0	-84.2	73	3
2023-08-15T00:00	24510	29	-52.9	-84.7	77	4
2023-08-15T00:00	24538	29	-52.9	-84.7	82	4
2023-08-15T00:00	24558	29	-52.6	-84.5	86	5
2023-08-15T00:00	24585	29	-52.4	-84.4	88	6
2023-08-15T00:00	24617	29	-52.4	-84.4	88	6
2023-08-15T00:00	24634	29	-52.4	-84.4	88	7
2023-08-15T00:00	24656	29	-52.3	-84.3	87	7
2023-08-15T00:00	24682	29	-52.3	-84.3	86	7
2023-08-15T00:00	24707	29	-52.2	-84.2	85	7
2023-08-15T00:00	24724	28	-52.0	-84.1	86	7
2023-08-15T00:00	24759	28	-52.0	-84.1	87	8
2023-08-15T00:00	24771	28	-52.0	-84.1	88	8
2023-08-15T00:00	24797	28	-52.1	-84.2	90	8
2023-08-15T00:00	24819	28	-52.2	-84.2	93	8
2023-08-15T00:00	24843	28	-52.2	-84.2	96	8
2023-08-15T00:00	24867	28	-52.4	-84.4	99	7
2023-08-15T00:00	24893	28	-52.4	-84.4	103	7
2023-08-15T00:00	24920	28	-52.4	-84.4	106	7
2023-08-15T00:00	24950	28	-52.4	-84.4	109	6
2023-08-15T00:00	24966	27	-52.4	-84.4	112	6
2023-08-15T00:00	24993	27	-52.4	-84.4	114	6
2023-08-15T00:00	25021	27	-52.4	-84.4	117	6
2023-08-15T00:00	25035	27	-52.4	-84.4	119	6
2023-08-15T00:00	25064	27	-52.3	-84.3	121	6
2023-08-15T00:00	25081	27	-52.4	-84.4	122	6
2023-08-15T00:00	25113	27	-52.5	-84.4	122	5
2023-08-15T00:00	25133	27	-52.4	-84.4	121	5
2023-08-15T00:00	25164	27	-52.4	-84.4	119	5
2023-08-15T00:00	25184	27	-52.1	-84.2	117	5
2023-08-15T00:00	25210	26	-51.9	-84.0	115	5
2023-08-15T00:00	25232	26	-51.9	-84.0	113	5
2023-08-15T00:00	25262	26	-52.0	-84.1	112	5
2023-08-15T00:00	25285	26	-52.1	-84.2	110	5
2023-08-15T00:00	25306	26	-52.2	-84.2	109	5
2023-08-15T00:00	25334	26	-52.2	-84.2	107	6
2023-08-15T00:00	25364	26	-52.3	-84.3	106	6
2023-08-15T00:00	25394	26	-52.3	-84.3	105	6
2023-08-15T00:00	25416	26	-52.4	-84.4	105	6
2023-08-15T00:00	25440	26	-52.5	-84.4	107	7
2023-08-15T00:00	25463	25	-52.5	-84.4	109	7
2023-08-15T00:00	25493	25	-52.5	-84.4	111	7
2023-08-15T00:00	25521	25	-52.5	-84.4	113	7
2023-08-15T00:00	25546	25	-52.4	-84.4	116	7
2023-08-15T00:00	25572	25	-52.3	-84.3	118	7
2023-08-15T00:00	25595	25	-52.2	-84.2	119	7
2023-08-15T00:00	25625	25	-52.3	-84.3	121	7
2023-08-15T00:00	25655	25	-52.3	-84.3	122	7
2023-08-15T00:00	25686	25	-52.2	-84.2	123	7
2023-08-15T00:00	25715	24	-52.2	-84.2	124	7
2023-08-15T00:00	25743	24	-52.1	-84.2	124	7
2023-08-15T00:00	25764	24	-52.1	-84.2	124	6
2023-08-15T00:00	25807	24	-52.0	-84.1	124	6
2023-08-15T00:00	25826	24	-52.0	-84.1	123	6
2023-08-15T00:00	25853	24	-51.9	-84.0	122	6
2023-08-15T00:00	25883	24	-52.0	-84.1	121	6
2023-08-15T00:00	25914	24	-52.1	-84.2	120	6
2023-08-15T00:00	25930	24	-52.2	-84.2	118	6
2023-08-15T00:00	25960	24	-52.3	-84.3	116	6
2023-08-15T00:00	25999	23	-52.4	-84.4	114	6
2023-08-15T00:00	26023	23	-52.5	-84.4	113	6
2023-08-15T00:00	26046	23	-52.5	-84.4	113	7
2023-08-15T00:00	26075	23	-52.4	-84.4	115	7
2023-08-15T00:00	26101	23	-52.4	-84.4	117	7
2023-08-15T00:00	26134	23	-52.4	-84.4	120	8
2023-08-15T00:00	26154	23	-52.4	-84.4	123	8
2023-08-15T00:00	26178	23	-52.3	-84.3	126	8
2023-08-15T00:00	26203	23	-52.1	-84.8	129	8
2023-08-15T00:00	26225	23	-51.9	-84.7	132	7
2023-08-15T00:00	26247	22	-51.7	-84.5	134	7
2023-08-15T00:00	26277	22	-51.7	-84.5	135	6
2023-08-15T00:00	26294	22	-51.7	-84.5	135	6
2023-08-15T00:00	26320	22	-51.3	-84.3	132	5
2023-08-15T00:00	26354	22	-51.3	-84.3	126	4
2023-08-15T00:00	26376	22	-51.1	-84.1	115	4
2023-08-15T00:00	26403	22	-51.0	-84.0	100	3
2023-08-15T00:00	26430	22	-50.8	-83.9	85	3
2023-08-15T00:00	26447	22	-50.8	-83.9	74	3
2023-08-15T00:00	26468	22	-50.8	-83.9	69	4
2023-08-15T00:00	26497	22	-50.8	-83.9	67	4
2023-08-15T00:00	26521	22	-50.8	-83.9	67	4
2023-08-15T00:00	26548	22	-50.3	-84.3	68	4
2023-08-15T00:00	26569	21	-50.1	-84.2	68	5
2023-08-15T00:00	26593	21	-49.9	-84.0	69	5
2023-08-15T00:00	26611	21	-49.7	-83.9	70	5
2023-08-15T00:00	26634	21	-49.6	-83.8	73	5
2023-08-15T00:00	26662	21	-49.5	-83.7	77	5
2023-08-15T00:00	26690	21	-49.4	-83.7	82	6
2023-08-15T00:00	26716	21	-49.4	-83.7	87	6
2023-08-15T00:00	26739	21	-49.5	-83.7	89	6
2023-08-15T00:00	26768	21	-49.5	-82.9	89	6
2023-08-15T00:00	26792	21	-49.6	-83.0	89	7
2023-08-15T00:00	26808	21	-49.5	-82.9	89	7
2023-08-15T00:00	26840	21	-49.5	-82.9	89	7
2023-08-15T00:00	26854	20	-49.5	-82.9	90	8
2023-08-15T00:00	26897	20	-49.5	-82.9	91	8
2023-08-15T00:00	26912	20	-49.4	-83.7	92	8
2023-08-15T00:00	26947	20	-49.5	-83.7	93	8
2023-08-15T00:00	26969	20	-49.6	-83.8	93	8
2023-08-15T00:00	26986	20	-49.5	-83.7	94	8
2023-08-15T00:00	27016	20	-49.5	-83.7	94	7
2023-08-15T00:00	27052	20	-49.1	-83.4	93	6
2023-08-15T00:00	27075	20	-48.9	-83.3	92	6
2023-08-15T00:00	27105	20	-48.6	-83.1	90	5
2023-08-15T00:00	27125	20	-48.7	-83.2	87	4
2023-08-15T00:00	27162	20	-48.7	-83.2	82	4
2023-08-15T00:00	27182	19	-48.6	-83.1	76	4
2023-08-15T00:00	27211	19	-48.6	-83.1	68	4
2023-08-15T00:00	27233	19	-48.3	-82.9	58	4
2023-08-15T00:00	27265	19	-48.2	-82.8	48	4
2023-08-15T00:00	27291	19	-48.2	-82.8	41	4
2023-08-15T00:00	27324	19	-48.0	-82.7	37	5
2023-08-15T00:00	27349	19	-47.9	-82.6	35	6
2023-08-15T00:00	27379	19	-47.9	-82.6	36	7
2023-08-15T00:00	27409	19	-47.9	-82.6	38	7
2023-08-15T00:00	27441	19	-47.8	-82.5	40	8
2023-08-15T00:00	27460	19	-47.9	-82.6	42	8
2023-08-15T00:00	27491	19	-48.0	-82.7	44	8
2023-08-15T00:00	27517	19	-48.1	-82.7	46	8
2023-08-15T00:00	27551	18	-48.2	-82.8	48	8
2023-08-15T00:00	27572	18	-48.2	-82.8	50	8
2023-08-15T00:00	27600	18	-48.2	-82.8	53	8
2023-08-15T00:00	27628	18	-48.1	-82.7	56	8
2023-08-15T00:00	27654	18	-48.1	-82.7	59	8
2023-08-15T00:00	27681	18	-48.1	-82.7	63	8
2023-08-15T00:00	27705	18	-47.9	-82.6	67	8
2023-08-15T00:00	27738	18	-48.0	-82.7	70	8
2023-08-15T00:00	27759	18	-48.1	-82.7	73	8
2023-08-15T00:00	27789	18	-48.1	-82.7	76	8
2023-08-15T00:00	27814	18	-48.3	-82.9	79	8
2023-08-15T00:00	27847	18	-48.4	-82.9	82	8
2023-08-15T00:00	27871	18	-48.5	-83.0	84	8
2023-08-15T00:00	27900	18	-48.5	-83.0	85	8
2023-08-15T00:00	27933	17	-48.6	-83.1	86	8
2023-08-15T00:00	27953	17	-48.7	-83.2	86	8
2023-08-15T00:00	27976	17	-48.7	-83.2	86	8
2023-08-15T00:00	28009	17	-48.6	-83.1	85	8
2023-08-15T00:00	28031	17	-48.6	-83.1	84	8
2023-08-15T00:00	28066	17	-48.7	-83.2	83	8
2023-08-15T00:00	28094	17	-48.6	-83.1	80	7
2023-08-15T00:00	28113	17	-48.5	-83.0	77	7
2023-08-15T00:00	28144	17	-48.5	-83.0	73	7
2023-08-15T00:00	28165	17	-48.5	-83.0	68	7
2023-08-15T00:00	28205	17	-48.5	-83.0	64	7
2023-08-15T00:00	28229	17	-48.4	-82.9	60	7
2023-08-15T00:00	28247	17	-48.5	-83.0	57	7
2023-08-15T00:00	28264	17	-48.2	-82.8	55	7
2023-08-15T00:00	28297	16	-48.2	-82.8	55	8
2023-08-15T00:00	28326	16	-48.1	-82.7	55	8
2023-08-15T00:00	28357	16	-47.8	-82.5	56	8
2023-08-15T00:00	28380	16	-47.7	-82.4	57	8
2023-08-15T00:00	28396	16	-47.7	-82.4	58	8
2023-08-15T00:00	28434	16	-48.0	-82.7	60	8
2023-08-15T00:00	28453	16	-47.9	-82.6	62	9
2023-08-15T00:00	28477	16	-48.0	-82.7	64	9
2023-08-15T00:00	28502	16	-48.0	-82.7	67	9
2023-08-15T00:00	28536	16	-47.9	-82.6	70	9
2023-08-15T00:00	28556	16	-48.0	-82.7	74	9
2023-08-15T00:00	28583	16	-48.1	-82.7	77	9
2023-08-15T00:00	28596	16	-48.1	-82.7	80	10
2023-08-15T00:00	28627	16	-48.2	-82.8	84	10
2023-08-15T00:00	28654	16	-48.2	-82.8	88	10
2023-08-15T00:00	28682	16	-48.1	-82.7	93	10
2023-08-15T00:00	28697	16	-48.0	-82.7	98	10
2023-08-15T00:00	28723	15	-48.0	-82.7	102	10
2023-08-15T00:00	28762	15	-48.1	-83.6	105	10
2023-08-15T00:00	28773	15	-48.0	-83.6	106	10
2023-08-15T00:00	28794	15	-47.9	-83.5	105	10
2023-08-15T00:00	28815	15	-47.5	-83.2	102	9
2023-08-15T00:00	28845	15	-47.3	-83.1	97	9
2023-08-15T00:00	28868	15	-47.1	-82.9	92	9
2023-08-15T00:00	28894	15	-46.7	-82.6	88	9
2023-08-15T00:00	28916	15	-46.5	-82.5	85	9
2023-08-15T00:00	28936	15	-46.2	-82.3	85	10
2023-08-15T00:00	28952	15	-45.9	-83.2	85	10
2023-08-15T00:00	28967	15	-45.8	-83.1	86	10
2023-08-15T00:00	28999	15	-45.5	-82.9	88	10
2023-08-15T00:00	29032	15	-45.1	-82.6	89	10
2023-08-15T00:00	29048	15	-44.8	-82.4	91	10
2023-08-15T00:00	29070	15	-44.7	-82.3	94	10
2023-08-15T00:00	29087	15	-44.7	-82.3	96	10
2023-08-15T00:00	29109	15	-44.7	-82.3	99	9
2023-08-15T00:00	29133	15	-44.7	-82.3	103	9
2023-08-15T00:00	29155	14	-44.5	-82.2	108	8
2023-08-15T00:00	29183	14	-44.5	-82.2	113	8
2023-08-15T00:00	29190	14	-44.6	-82.2	118	8
2023-08-15T00:00	29238	14	-44.4	-82.1	124	8
2023-08-15T00:00	29257	14	-44.3	-82.0	128	8
2023-08-15T00:00	29271	14	-44.2	-82.0	133	8
2023-08-15T00:00	29303	14	-44.1	-81.9	137	9
2023-08-15T00:00	29324	14	-44.1	-81.9	141	9
2023-08-15T00:00	29344	14	-44.2	-82.0	145	9
2023-08-15T00:00	29373	14	-44.1	-81.9	148	8
2023-08-15T00:00	29399	14	-43.8	-81.7	150	8
2023-08-15T00:00	29433	14	-43.7	-81.6	152	7
2023-08-15T00:00	29459	14	-43.6	-81.5	153	6
2023-08-15T00:00	29474	14	-43.4	-81.4	152	6
2023-08-15T00:00	29525	14	-43.3	-81.3	151	6
2023-08-15T00:00	29537	14	-43.4	-81.4	150	6
2023-08-15T00:00	29571	14	-43.2	-81.3	148	6
2023-08-15T00:00	29596	14	-43.0	-81.1	146	6
2023-08-15T00:00	29645	13	-42.9	-81.1	143	6
2023-08-15T00:00	29664	13	-42.8	-81.0	140	6
2023-08-15T00:00	29693	13	-42.6	-80.8	138	5
2023-08-15T00:00	29738	13	-42.5	-80.8	138	5
2023-08-15T00:00	29763	13	-42.4	-80.7	140	4
2023-08-15T00:00	29796	13	-42.5	-80.8	143	4
2023-08-15T00:00	29825	13	-42.4	-80.7	147	4
2023-08-15T00:00	29864	13	-42.4	-80.7	150	3
2023-08-15T00:00	29898	13	-42.6	-80.8	152	3
2023-08-15T00:00	29922	13	-42.6	-80.8	152	2
2023-08-15T00:00	29972	13	-42.7	-80.9	151	2
2023-08-15T00:00	30006	13	-42.8	-81.0	145	2
2023-08-15T00:00	30034	13	-42.9	-81.1	130	1
2023-08-15T00:00	30071	13	-43.1	-81.2	106	1
2023-08-15T00:00	30103	13	-43.2	-81.3	87	2
2023-08-15T00:00	30139	13	-43.2	-81.3	77	2
2023-08-15T00:00	30165	12	-43.3	-81.3	72	3
2023-08-15T00:00	30185	12	-43.3	-81.3	72	3
2023-08-15T00:00	30231	12	-43.3	-81.3	75	4
2023-08-15T00:00	30271	12	-43.3	-81.3	80	4
2023-08-15T00:00	30302	12	-43.2	-81.3	87	4
2023-08-15T00:00	30350	12	-43.2	-81.3	93	5
2023-08-15T00:00	30388	12	-43.3	-81.3	100	5
2023-08-15T00:00	30394	12	-43.3	-81.3	108	5
2023-08-15T00:00	30445	12	-43.2	-81.3	115	5
2023-08-15T00:00	30468	12	-43.3	-81.3	121	5
2023-08-15T00:00	30505	12	-43.3	-81.3	127	5
2023-08-15T00:00	30532	12	-43.4	-81.4	130	6
2023-08-15T00:00	30565	12	-43.3	-81.3	132	6
2023-08-15T00:00	30586	12	-43.3	-81.3	132	6
2023-08-15T00:00	30617	12	-43.3	-81.3	132	7
2023-08-15T00:00	30639	12	-43.2	-81.3	132	7
2023-08-15T00:00	30664	12	-43.2	-81.3	132	7
2023-08-15T00:00	30695	12	-43.0	-81.1	132	7
2023-08-15T00:00	30725	11	-42.5	-80.8	132	6
2023-08-15T00:00	30753	11	-42.5	-80.8	131	5
2023-08-15T00:00	30757	11	-42.4	-80.7	130	4
2023-08-15T00:00	30793	11	-42.3	-80.6	128	3
2023-08-15T00:00	30811	11	-42.1	-80.5	124	2
2023-08-15T00:00	30834	11	-41.9	-80.4	117	2
2023-08-15T00:00	30864	11	-41.9	-80.4	105	2
2023-08-15T00:00	30889	11	-41.8	-80.3	91	2
2023-08-15T00:00	30908	11	-41.7	-80.2	80	2
2023-08-15T00:00	30941	11	-41.7	-80.2	72	2
2023-08-15T00:00	30956	11	-41.7	-80.2	67	3
2023-08-15T00:00	30984	11	-41.6	-80.1	62	3
2023-08-15T00:00	31004	11	-41.7	-80.2	57	3
2023-08-15T00:00	31029	11	-41.7	-80.2	52	4
2023-08-15T00:00	31038	11	-41.7	-80.2	50	4
2023-08-15T00:00	31060	11	-41.6	-80.1	49	4
2023-08-15T00:00	31087	11	-41.6	-80.1	52	4
2023-08-15T00:00	31100	11	-41.6	-80.1	56	4
2023-08-15T00:00	31115	11	-41.4	-80.0	60	4
2023-08-15T00:00	31154	11	-41.4	-80.0	62	4
2023-08-15T00:00	31182	11	-41.4	-80.0	62	4
2023-08-15T00:00	31186	11	-41.2	-79.9	62	4
2023-08-15T00:00	31224	11	-41.4	-80.0	60	4
2023-08-15T00:00	31255	11	-41.4	-80.0	58	5
2023-08-15T00:00	31282	11	-41.4	-80.0	58	5
2023-08-15T00:00	31300	11	-41.3	-79.9	57	5
2023-08-15T00:00	31335	10	-41.0	-79.7	56	6
2023-08-15T00:00	31375	10	-40.8	-79.6	55	7
2023-08-15T00:00	31384	10	-40.6	-79.5	54	7
2023-08-15T00:00	31415	10	-40.5	-79.4	53	7
2023-08-15T00:00	31428	10	-40.2	-79.2	54	8
2023-08-15T00:00	31473	10	-40.2	-79.2	55	8
2023-08-15T00:00	31484	10	-40.2	-79.2	58	8
2023-08-15T00:00	31510	10	-40.2	-79.2	59	8
2023-08-15T00:00	31530	10	-40.1	-79.1	61	8
2023-08-15T00:00	31576	10	-40.1	-79.1	60	8
2023-08-15T00:00	31583	10	-40.1	-79.1	59	7
2023-08-15T00:00	31608	10	-40.0	-79.0	55	7
2023-08-15T00:00	31646	10	-40.2	-79.2	51	6
2023-08-15T00:00	31663	10	-40.0	-79.0	45	5
2023-08-15T00:00	31700	10	-40.2	-79.2	38	4
2023-08-15T00:00	31715	10	-40.3	-79.2	30	4
2023-08-15T00:00	31743	10	-40.4	-79.3	23	4
2023-08-15T00:00	31778	10	-40.6	-79.5	17	3
2023-08-15T00:00	31799	10	-40.8	-79.6	13	3
2023-08-15T00:00	31830	10	-40.9	-79.7	10	3
2023-08-15T00:00	31847	10	-40.6	-79.5	9	4
2023-08-15T00:00	31877	10	-40.2	-79.2	11	4
2023-08-15T00:00	31908	10	-40.3	-79.2	15	5
2023-08-15T00:00	31945	10	-40.1	-79.1	20	5
2023-08-15T00:00	31966	10	-40.0	-79.0	26	6
2023-08-15T00:00	32001	10	-39.8	-78.9	33	6
2023-08-15T00:00	32025	9	-39.6	-78.8	39	7
2023-08-15T00:00	32048	9	-39.5	-78.7	44	8
2023-08-15T00:00	32074	9	-39.3	-78.5	47	8
2023-08-15T00:00	32114	9	-39.1	-78.4	50	8
2023-08-15T00:00	32148	9	-39.0	-78.3	52	8
2023-08-15T00:00	32170	9	-38.8	-78.2	54	7
2023-08-15T00:00	32195	9	-38.6	-78.1	56	7
2023-08-15T00:00	32212	9	-38.6	-78.1	58	7
2023-08-15T00:00	32250	9	-38.5	-78.0	59	7
2023-08-15T00:00	32254	9	-38.3	-77.9	59	7
2023-08-15T00:00	32309	9	-38.1	-77.7	58	8
2023-08-15T00:00	32313	9	-38.1	-77.7	56	8
2023-08-15T00:00	32345	9	-38.0	-77.6	53	8
2023-08-15T00:00	32376	9	-38.0	-77.6	51	8
2023-08-15T00:00	32409	9	-37.9	-77.6	50	8
2023-08-15T00:00	32430	9	-37.9	-77.6	48	8
2023-08-15T00:00	32463	9	-37.9	-77.6	47	8
2023-08-15T00:00	32477	9	-38.0	-77.6	46	8
2023-08-15T00:00	32481	9	-37.8	-77.5	47	9
2023-08-15T00:00	32535	9	-37.7	-77.4	48	9
2023-08-15T00:00	32579	9	-37.4	-77.2	54	11
2023-08-15T00:00	32594	9	-37.1	-77.0	58	12
2023-08-15T00:00	32638	9	-37.0	-77.0	63	13
2023-08-15T00:00	32659	9	-36.7	-76.7	67	13
2023-08-15T00:00	32686	9	-36.6	-76.7	70	13
2023-08-15T00:00	32701	9	-36.8	-76.8	73	14
2023-08-15T00:00	32752	9	-36.6	-76.7	76	14
2023-08-15T00:00	32761	9	-36.5	-76.6	79	14
2023-08-15T00:00	32788	9	-36.5	-76.6	82	15
2023-08-15T00:00	32819	8	-36.5	-76.6	86	15
2023-08-15T00:00	32828	8	-36.3	-76.5	90	15
2023-08-15T00:00	32871	8	-36.1	-76.3	93	14
2023-08-15T00:00	32896	8	-36.0	-76.3	97	14
2023-08-15T00:00	32942	8	-36.0	-76.3	100	13
2023-08-15T00:00	32955	8	-36.0	-76.3	103	13
2023-08-15T00:00	32980	8	-35.8	-76.1	106	12
2023-08-15T00:00	33004	8	-35.7	-76.1	108	12
2023-08-15T00:00	33056	8	-35.7	-76.1	109	11
2023-08-15T00:00	33088	8	-35.7	-76.1	106	10
2023-08-15T00:00	33115	8	-35.7	-76.1	102	10
2023-08-15T00:00	33158	8	-35.7	-76.1	97	10
2023-08-15T00:00	33208	8	-35.6	-76.0	92	10
2023-08-15T00:00	33220	8	-35.7	-76.1	88	11
2023-08-15T00:00	33251	8	-35.5	-75.9	85	12
2023-08-15T00:00	33277	8	-35.4	-75.8	84	12
2023-08-15T00:00	33289	8	-35.2	-75.7	84	13
2023-08-15T00:00	33324	8	-35.0	-75.6	86	14
2023-08-15T00:00	33335	8	-35.0	-75.6	88	14
2023-08-15T00:00	33396	8	-35.1	-75.6	90	14
2023-08-15T00:00	33424	8	-35.3	-75.8	93	14
2023-08-15T00:00	33443	8	-35.4	-75.8	96	15
2023-08-15T00:00	33466	8	-35.5	-75.9	98	15
2023-08-15T00:00	33501	8	-35.5	-75.9	100	14
2023-08-15T00:00	33512	8	-35.4	-75.8	102	14
2023-08-15T00:00	33536	8	-35.3	-75.8	104	14
2023-08-15T00:00	33577	8	-35.4	-75.8	105	13
2023-08-15T00:00	33605	8	-35.4	-75.8	105	12
2023-08-15T00:00	33610	8	-35.2	-75.7	105	12
2023-08-15T00:00	33653	8	-35.0	-75.6	104	11
2023-08-15T00:00	33687	7	-34.9	-75.5	102	10
2023-08-15T00:00	33708	7	-34.9	-75.5	100	10
2023-08-15T00:00	33717	7	-35.0	-75.6	98	10
2023-08-15T00:00	33733	7	-35.0	-75.6	95	10
2023-08-15T00:00	33771	7	-35.3	-75.8	92	10
2023-08-15T00:00	33829	7	-35.1	-75.6	90	10
2023-08-15T00:00	33876	7	-35.0	-75.6	89	11
2023-08-15T00:00	33901	7	-34.6	-75.3	92	12
2023-08-15T00:00	33932	7	-34.6	-75.3	95	12
2023-08-15T00:00	33959	7	-34.7	-75.4	97	12
2023-08-15T00:00	33985	7	-34.5	-75.2	99	12
2023-08-15T00:00	34022	7	-34.3	-75.1	102	11
2023-08-15T00:00	34035	7	-34.1	-75.0	103	10
2023-08-15T00:00	34060	7	-34.0	-74.9	103	10
2023-08-15T00:00	34102	7	-33.9	-74.8	103	9
2023-08-15T00:00	34130	7	-33.6	-74.6	102	9
2023-08-15T00:00	34151	7	-33.3	-74.4	102	9
2023-08-15T00:00	34177	7	-33.2	-74.3	101	8
2023-08-15T00:00	34200	7	-33.2	-74.3	99	8
2023-08-15T00:00	34215	7	-33.1	-74.3	97	8
2023-08-15T00:00	34270	7	-33.0	-74.2	94	8
2023-08-15T00:00	34295	7	-32.9	-74.1	87	7
2023-08-15T00:00	34319	7	-32.7	-74.0	80	7
2023-08-15T00:00	34364	7	-32.7	-74.0	77	7
2023-08-15T00:00	34410	7	-32.6	-73.9	75	7
2023-08-15T00:00	34443	7	-32.5	-73.8	73	6
2023-08-15T00:00	34458	7	-32.4	-73.8	71	6
2023-08-15T00:00	34473	7	-32.3	-73.7	71	6
2023-08-15T00:00	34514	7	-32.4	-73.8	72	6
2023-08-15T00:00	34521	7	-32.4	-73.8	74	5
2023-08-15T00:00	34563	7	-32.4	-73.8	74	5
2023-08-15T00:00	34584	7	-32.4	-73.8	72	4
2023-08-15T00:00	34617	7	-32.3	-73.7	68	4
2023-08-15T00:00	34632	7	-32.1	-73.6	61	4
2023-08-15T00:00	34668	7	-32.1	-73.6	57	4
2023-08-15T00:00	34688	6	-32.0	-73.5	56	4
2023-08-15T00:00	34726	6	-32.1	-73.6	58	5
2023-08-15T00:00	34734	6	-31.8	-73.4	62	6
2023-08-15T00:00	34741	6	-31.7	-73.3	67	6
2023-08-15T00:00	34772	6	-31.7	-73.3	71	7
2023-08-15T00:00	34806	6	-31.9	-73.4	75	8
2023-08-15T00:00	34854	6	-32.0	-73.5	79	8
2023-08-15T00:00	34858	6	-32.1	-73.6	83	9
2023-08-15T00:00	34874	6	-32.2	-73.6	86	9
2023-08-15T00:00	34898	6	-32.2	-73.6	89	10
2023-08-15T00:00	34936	6	-32.4	-73.8	92	11
2023-08-15T00:00	34947	6	-32.6	-73.9	96	12
2023-08-15T00:00	34986	6	-32.7	-74.0	97	13
2023-08-15T00:00	34993	6	-32.6	-73.9	98	13
2023-08-15T00:00	35016	6	-32.6	-73.9	100	14
2023-08-15T00:00	35073	6	-32.0	-73.5	102	13
2023-08-15T00:00	35074	6	-32.0	-73.5	102	13
2023-08-15T00:00	35123	6	-31.7	-73.3	101	12
2023-08-15T00:00	35173	6	-31.0	-72.8	97	9
2023-08-15T00:00	35184	6	-30.8	-72.7	97	8
2023-08-15T00:00	35226	6	-30.8	-72.7	96	8
2023-08-15T00:00	35238	6	-30.9	-72.8	95	7
2023-08-15T00:00	35270	6	-30.8	-72.7	93	7
2023-08-15T00:00	35286	6	-30.9	-72.8	90	6
2023-08-15T00:00	35319	6	-30.4	-72.4	79	5
2023-08-15T00:00	35327	6	-30.4	-72.4	71	4
2023-08-15T00:00	35363	6	-30.4	-72.4	61	4
2023-08-15T00:00	35369	6	-30.5	-72.5	51	4
2023-08-15T00:00	35384	6	-30.5	-72.5	42	4
2023-08-15T00:00	35396	6	-30.5	-72.5	38	5
2023-08-15T00:00	35418	6	-30.4	-72.4	37	6
2023-08-15T00:00	35449	6	-30.2	-72.3	38	7
2023-08-15T00:00	35506	6	-29.9	-72.1	40	7
2023-08-15T00:00	35548	6	-29.7	-71.9	39	8
2023-08-15T00:00	35570	6	-29.7	-71.9	38	8
2023-08-15T00:00	35598	6	-29.8	-72.0	37	8
2023-08-15T00:00	35614	6	-30.0	-72.1	38	7
2023-08-15T00:00	35664	6	-30.2	-72.3	39	7
2023-08-15T00:00	35708	6	-30.2	-72.3	41	7
2023-08-15T00:00	35713	6	-30.5	-72.5	44	6
2023-08-15T00:00	35715	6	-30.4	-72.4	48	6
2023-08-15T00:00	35761	6	-30.7	-72.6	54	6
2023-08-15T00:00	35786	6	-30.7	-72.6	60	7
2023-08-15T00:00	35814	6	-30.9	-72.8	65	7
2023-08-15T00:00	35836	6	-31.2	-73.0	70	8
2023-08-15T00:00	35863	5	-31.3	-73.0	74	8
2023-08-15T00:00	35899	5	-31.4	-73.1	78	9
2023-08-15T00:00	35920	5	-31.5	-73.2	82	10
2023-08-15T00:00	35980	5	-31.5	-73.2	84	10
2023-08-15T00:00	35991	5	-31.6	-73.2	87	11
2023-08-15T00:00	36021	5	-31.6	-73.2	88	11
2023-08-15T00:00	36029	5	-31.7	-73.3	90	11
2023-08-15T00:00	36074	5	-31.7	-73.3	91	11
2023-08-15T00:00	36123	5	-31.6	-73.2	92	11
2023-08-15T00:00	36141	5	-31.3	-73.0	93	11
2023-08-15T00:00	36151	5	-31.2	-73.0	93	11
2023-08-15T00:00	36194	5	-31.3	-73.0	91	10
2023-08-15T00:00	36201	5	-31.4	-73.1	88	10
2023-08-15T00:00	36226	5	-31.2	-73.0	84	9
2023-08-15T00:00	36262	5	-31.1	-72.9	80	8
2023-08-15T00:00	36317	5	-30.8	-72.7	74	8
2023-08-15T00:00	36329	5	-30.7	-72.6	62	7
2023-08-15T00:00	36365	5	-30.7	-72.6	54	7
2023-08-15T00:00	36434	5	-30.6	-72.5	41	7
2023-08-15T00:00	36464	5	-30.6	-72.5	37	7
2023-08-15T00:00	36477	5	-30.6	-72.5	34	8
2023-08-15T00:00	36488	5	-30.5	-72.5	33	8
2023-08-15T00:00	36512	5	-30.5	-72.5	32	9
2023-08-15T06:00	112	1003	18.8	18.5	140	2
2023-08-15T06:00	138	1000	18.9	18.7	143	3
2023-08-15T06:00	162	997	19.1	18.5	145	4
2023-08-15T06:00	189	994	19.1	18.4	146	6
2023-08-15T06:00	214	991	19.3	18.2	148	6
2023-08-15T06:00	240	988	20.1	17.7	151	7
2023-08-15T06:00	265	985	20.2	17.8	154	7
2023-08-15T06:00	288	983	20.3	17.4	159	7
2023-08-15T06:00	317	979	20.4	16.9	165	7
2023-08-15T06:00	345	976	20.6	16.7	173	7
2023-08-15T06:00	372	973	21.1	16.4	182	7
2023-08-15T06:00	401	970	21.4	16.4	193	7
2023-08-15T06:00	424	967	21.6	16.5	203	7
2023-08-15T06:00	447	965	21.7	16.5	212	7
2023-08-15T06:00	472	962	21.8	16.4	219	7
2023-08-15T06:00	499	959	22.2	16.5	225	8
2023-08-15T06:00	524	956	22.2	16.5	230	8
2023-08-15T06:00	550	953	22.3	16.4	234	8
2023-08-15T06:00	576	951	22.4	16.1	236	8
2023-08-15T06:00	599	948	22.6	15.7	237	9
2023-08-15T06:00	627	945	22.8	15.9	238	9
2023-08-15T06:00	654	942	22.8	16.0	237	9
2023-08-15T06:00	681	939	22.7	15.9	236	9
2023-08-15T06:00	713	936	22.5	15.8	233	9
2023-08-15T06:00	742	933	22.3	16.4	231	9
2023-08-15T06:00	771	930	22.1	16.5	229	8
2023-08-15T06:00	801	926	21.9	16.4	228	8
2023-08-15T06:00	829	923	21.8	16.2	229	8
2023-08-15T06:00	861	920	21.5	16.2	231	8
2023-08-15T06:00	887	917	21.3	16.0	234	8
2023-08-15T06:00	914	914	21.2	15.6	238	7
2023-08-15T06:00	939	912	21.2	14.9	241	7
2023-08-15T06:00	969	909	21.6	12.5	244	7
2023-08-15T06:00	998	906	21.7		247	6
2023-08-15T06:00	1028	903	21.6	10.9	249	6
2023-08-15T06:00	1054	900	21.3	11.0	250	6
2023-08-15T06:00	1079	897	21.1	11.4	250	6
2023-08-15T06:00	1112	894	20.7	11.9	249	7
2023-08-15T06:00	1140	891	20.5	11.9	247	7
2023-08-15T06:00	1164	888	20.3	12.4	244	7
2023-08-15T06:00	1192	886	19.9	12.7	242	7
2023-08-15T06:00	1219	883	19.7	13.5	241	7
2023-08-15T06:00	1247	880	19.3	14.4	241	8
2023-08-15T06:00	1271	877	19.1	14.5	241	8
2023-08-15T06:00	1299	874	18.9	14.4	241	8
2023-08-15T06:00	1339	871	18.5	14.3	240	9
2023-08-15T06:00	1374	867	18.3	14.3	240	9
2023-08-15T06:00	1400	864	18.1	14.5	240	10
2023-08-15T06:00	1429	862	18.3	13.4	239	11
2023-08-15T06:00	1454	859	18.3	12.2	239	11
2023-08-15T06:00	1481	856	18.2	12.2	239	11
2023-08-15T06:00	1510	854	18.4	10.3	239	11
2023-08-15T06:00	1534	851	18.5	8.4	239	11
2023-08-15T06:00	1563	848	18.2	8.3	239	11
2023-08-15T06:00	1592	845	18.0	8.3	238	11
2023-08-15T06:00	1621	843	17.8	8.2	236	11
2023-08-15T06:00	1647	840	17.5	8.2	235	11
2023-08-15T06:00	1672	837	17.3	8.9	233	11
2023-08-15T06:00	1700	835	16.9	9.9	230	11
2023-08-15T06:00	1726	832	16.7	10.3	228	11
2023-08-15T06:00	1755	829	16.4	10.7	226	11
2023-08-15T06:00	1783	827	16.1	10.8	224	12
2023-08-15T06:00	1809	824	15.8	11.1	223	12
2023-08-15T06:00	1839	821	15.5	11.6	222	12
2023-08-15T06:00	1868	819	15.2	11.9	222	13
2023-08-15T06:00	1894	816	14.8	13.0	221	13
2023-08-15T06:00	1923	813	14.7	11.5	221	13
2023-08-15T06:00	1952	810	14.6	10.0	221	13
2023-08-15T06:00	1984	807	14.5	9.0	221	13
2023-08-15T06:00	2015	804	14.4	8.3	222	14
2023-08-15T06:00	2044	802	14.3	7.9	223	14
2023-08-15T06:00	2073	799	14.1	7.5	225	14
2023-08-15T06:00	2103	796	13.9	7.3	226	14
2023-08-15T06:00	2128	793	13.7	7.3	226	14
2023-08-15T06:00	2157	791	13.5	6.9	227	14
2023-08-15T06:00	2185	788	13.2	6.8	227	14
2023-08-15T06:00	2213	786	12.9	6.6	227	14
2023-08-15T06:00	2240	783	12.7	6.7	227	14
2023-08-15T06:00	2265	781	12.4	6.5	227	14
2023-08-15T06:00	2297	778	12.1	6.4	227	14
2023-08-15T06:00	2324	775	11.9	6.5	227	14
2023-08-15T06:00	2355	772	11.6	6.6	227	14
2023-08-15T06:00	2387	770	11.3		227	14
2023-08-15T06:00	2416	767	11.2	5.8	227	14
2023-08-15T06:00	2447	764	11.0	6.0	227	14
2023-08-15T06:00	2477	761	10.7	6.0	226	14
2023-08-15T06:00	2504	759	10.5	5.9	225	14
2023-08-15T06:00	2533	756	10.2	5.8	224	14
2023-08-15T06:00	2563	754	10.0	5.2	223	14
2023-08-15T06:00	2593	751	9.9	5.0	223	14
2023-08-15T06:00	2623	748	9.6	4.7	224	14
2023-08-15T06:00	2652	745	9.4	4.4	225	13
2023-08-15T06:00	2680	743	9.4	3.9	226	13
2023-08-15T06:00	2708	740	9.2	3.8	228	13
2023-08-15T06:00	2738	738	9.0	3.6	229	13
2023-08-15T06:00	2766	735	9.0	2.8	230	12
2023-08-15T06:00	2795	733	8.9	2.8	230	12
2023-08-15T06:00	2824	730	8.7	2.9	230	12
2023-08-15T06:00	2852	728	8.6	2.8	230	12
2023-08-15T06:00	2881	725	8.3	2.4	229	12
2023-08-15T06:00	2911	723	8.1	2.2	229	12
2023-08-15T06:00	2938	720	7.9	1.8	229	12
2023-08-15T06:00	2967	718	7.7	2.3	229	12
2023-08-15T06:00	2993	715	7.4	2.8	229	12
2023-08-15T06:00	3024	713	7.2	2.9	229	12
2023-08-15T06:00	3053	710	6.9	2.8	230	12
2023-08-15T06:00	3083	708	6.7	2.4	230	12
2023-08-15T06:00	3111	705	6.5	2.0	230	12
2023-08-15T06:00	3141	703	6.3	1.5	230	12
2023-08-15T06:00	3169	700	6.2	1.3	231	12
2023-08-15T06:00	3197	698	6.0	1.0	231	12
2023-08-15T06:00	3226	695	5.8	0.8	232	11
2023-08-15T06:00	3254	693	5.6	0.7	233	11
2023-08-15T06:00	3281	691	5.4	0.7	234	11
2023-08-15T06:00	3311	688	5.2		236	11
2023-08-15T06:00	3340	686	5.4	-0.2	238	11
2023-08-15T06:00	3368	683	5.2	0.2	239	11
2023-08-15T06:00	3396	681	5.0	0.2	240	11
2023-08-15T06:00	3423	679	4.8	0.1	240	11
2023-08-15T06:00	3451	676	4.6	-0.2	240	11
2023-08-15T06:00	3481	674	4.4	-0.2	238	11
2023-08-15T06:00	3509	672	4.1	-0.3	237	11
2023-08-15T06:00	3538	669	4.0	-0.3	236	11
2023-08-15T06:00	3566	667	3.8	-0.3	236	11
2023-08-15T06:00	3595	665	3.6	-0.6	236	11
2023-08-15T06:00	3627	662	3.4	-1.0	236	12
2023-08-15T06:00	3656	660	3.2	-1.4	236	12
2023-08-15T06:00	3686	657	3.0	-1.6	236	12
2023-08-15T06:00	3716	655	2.9	-1.9	236	12
2023-08-15T06:00	3742	653	2.7	-2.1	236	12
2023-08-15T06:00	3769	651	2.5	-2.9	236	12
2023-08-15T06:00	3795	648	2.3	-3.0	236	12
2023-08-15T06:00	3825	646	2.1	-3.4	235	12
2023-08-15T06:00	3853	644	2.0	-3.7	235	12
2023-08-15T06:00	3879	642	1.9		235	12
2023-08-15T06:00	3908	639	1.7	-3.9	236	12
2023-08-15T06:00	3936	637	1.5	-3.9	237	12
2023-08-15T06:00	3967	635	1.3	-3.4	238	12
2023-08-15T06:00	3995	633	1.1	-3.3	238	12
2023-08-15T06:00	4024	630	0.8	-3.7	238	12
2023-08-15T06:00	4050	628	0.6	-3.8	238	11
2023-08-15T06:00	4078	626	0.3	-4.0	237	11
2023-08-15T06:00	4106	624	0.1	-4.9	237	11
2023-08-15T06:00	4137	622	-0.1	-5.4	237	11
2023-08-15T06:00	4166	619	-0.3	-5.4	237	11
2023-08-15T06:00	4195	617	-0.6	-5.2	237	11
2023-08-15T06:00	4222	615	-0.8	-5.3	238	11
2023-08-15T06:00	4253	613	-1.0	-5.5	239	11
2023-08-15T06:00	4283	610	-1.3	-5.6	239	11
2023-08-15T06:00	4312	608	-1.5	-5.7	239	11
2023-08-15T06:00	4341	606	-1.7	-6.4	239	11
2023-08-15T06:00	4372	604	-1.9	-6.4	239	12
2023-08-15T06:00	4399	601	-2.1	-6.6	238	12
2023-08-15T06:00	4429	599	-2.2	-6.9	237	12
2023-08-15T06:00	4459	597	-2.3	-7.2	236	12
2023-08-15T06:00	4489	595	-2.5	-7.5	236	13
2023-08-15T06:00	4519	592	-2.7	-8.2	235	13
2023-08-15T06:00	4550	590	-2.9	-8.1	234	13
2023-08-15T06:00	4579	588	-3.1	-8.3	233	13
2023-08-15T06:00	4611	586	-3.2	-8.7	232	13
2023-08-15T06:00	4637	584	-3.3	-9.1	231	14
2023-08-15T06:00	4667	581	-3.3	-9.8	230	14
2023-08-15T06:00	4696	579	-3.4	-10.5	230	14
2023-08-15T06:00	4726	577	-3.6	-10.7	229	14
2023-08-15T06:00	4753	575	-3.8	-11.0	227	15
2023-08-15T06:00	4781	573	-3.9	-10.7	226	15
2023-08-15T06:00	4809	571	-4.1	-10.8	225	15
2023-08-15T06:00	4839	569	-4.3	-10.6	225	15
2023-08-15T06:00	4866	567	-4.6	-10.5	224	15
2023-08-15T06:00	4894	565	-4.8	-10.5	224	15
2023-08-15T06:00	4924	563	-5.1	-10.5	224	16
2023-08-15T06:00	4952	561	-5.3	-10.6	223	16
2023-08-15T06:00	4978	559	-5.6	-10.8	223	16
2023-08-15T06:00	5008	557	-5.8	-11.0	223	16
2023-08-15T06:00	5038	555	-6.1	-11.1	223	16
2023-08-15T06:00	5066	553	-6.4	-11.1	223	16
2023-08-15T06:00	5096	551	-6.6	-11.1	224	16
2023-08-15T06:00	5126	548	-6.9	-11.0	224	16
2023-08-15T06:00	5157	546	-7.2	-11.1	224	16
2023-08-15T06:00	5185	544	-7.5	-11.0	224	16
2023-08-15T06:00	5215	542	-7.7	-11.2	225	16
2023-08-15T06:00	5246	540	-7.9	-11.9	225	16
2023-08-15T06:00	5276	538	-8.1	-12.2	226	16
2023-08-15T06:00	5306	536	-8.3		226	16
2023-08-15T06:00	5336	534	-8.5	-12.7	226	16
2023-08-15T06:00	5368	532	-8.8	-13.5	227	16
2023-08-15T06:00	5400	530	-9.0	-14.0	227	16
2023-08-15T06:00	5431	527	-9.3	-13.6	226	16
2023-08-15T06:00	5464	525	-9.6	-14.0	226	16
2023-08-15T06:00	5496	523	-9.8	-14.3	226	16
2023-08-15T06:00	5526	521	-10.1	-14.4	226	15
2023-08-15T06:00	5558	519	-10.1	-15.8	227	15
2023-08-15T06:00	5589	517	-9.7	-20.3	227	15
2023-08-15T06:00	5620	515	-9.7	-22.9	228	15
2023-08-15T06:00	5650	513	-9.7	-23.5	229	15
2023-08-15T06:00	5681	511	-9.8	-22.2	230	15
2023-08-15T06:00	5712	509	-10.0	-21.8	231	15
2023-08-15T06:00	5742	507	-10.0	-19.8	232	16
2023-08-15T06:00	5771	505	-10.2	-18.5	232	16
2023-08-15T06:00	5804	502	-10.3	-22.8	233	16
2023-08-15T06:00	5836	500	-10.4	-25.9	233	16
2023-08-15T06:00	5867	498	-10.7	-23.2	233	17
2023-08-15T06:00	5896	496	-11.0	-17.4	233	17
2023-08-15T06:00	5927	495	-11.2	-19.5	234	17
2023-08-15T06:00	5959	492	-11.5	-20.0	234	17
2023-08-15T06:00	5993	490	-11.7	-21.6	235	17
2023-08-15T06:00	6019	489	-11.9	-21.6	236	17
2023-08-15T06:00	6051	487	-12.2	-20.7	236	17
2023-08-15T06:00	6081	485	-12.5	-20.3	236	17
2023-08-15T06:00	6112	483	-12.8	-19.8	236	17
2023-08-15T06:00	6142	481	-13.0	-20.6	235	16
2023-08-15T06:00	6172	479	-13.1		234	16
2023-08-15T06:00	6204	477	-13.2	-23.2	232	16
2023-08-15T06:00	6232	475	-13.3	-23.4	230	16
2023-08-15T06:00	6264	473	-13.5	-22.6	229	15
2023-08-15T06:00	6294	471	-13.3	-24.8	227	15
2023-08-15T06:00	6325	469	-13.3	-21.0	226	15
2023-08-15T06:00	6356	467	-13.6	-20.4	225	15
2023-08-15T06:00	6385	466	-13.8	-20.1	225	15
2023-08-15T06:00	6414	464	-13.9	-21.1	224	15
2023-08-15T06:00	6443	462	-14.0	-23.7	224	16
2023-08-15T06:00	6471	460	-14.0	-23.6	225	16
2023-08-15T06:00	6499	459	-14.2	-25.1	226	16
2023-08-15T06:00	6528	457	-14.2	-25.1	228	16
2023-08-15T06:00	6559	455	-14.6	-21.3	230	16
2023-08-15T06:00	6590	453	-14.7	-21.7	232	15
2023-08-15T06:00	6621	451	-14.5	-28.6	233	14
2023-08-15T06:00	6651	450	-14.6	-24.2	234	14
2023-08-15T06:00	6684	448	-14.8	-23.2	234	14
2023-08-15T06:00	6714	446	-15.0	-23.8	234	14
2023-08-15T06:00	6745	444	-15.2	-23.9	234	14
2023-08-15T06:00	6774	442	-15.5	-24.2	234	14
2023-08-15T06:00	6797	441	-15.7	-24.3	234	14
2023-08-15T06:00	6828	439	-16.0	-24.6	234	14
2023-08-15T06:00	6861	437	-16.2	-26.2	234	13
2023-08-15T06:00	6891	436	-16.1	-31.0	234	13
2023-08-15T06:00	6919	434	-16.3	-30.2	236	13
2023-08-15T06:00	6947	432	-16.5	-30.4	238	13
2023-08-15T06:00	6979	431	-16.8	-31.2	240	13
2023-08-15T06:00	7011	429	-16.9	-33.5	242	13
2023-08-15T06:00	7041	427	-17.1	-31.7	244	13
2023-08-15T06:00	7068	425	-17.2		247	13
2023-08-15T06:00	7100	424	-17.4	-33.4	248	13
2023-08-15T06:00	7132	422	-17.6	-33.5	250	13
2023-08-15T06:00	7160	420	-17.9	-33.7	250	13
2023-08-15T06:00	7191	419	-18.1	-33.9	250	13
2023-08-15T06:00	7220	417	-18.3	-34.2	250	14
2023-08-15T06:00	7250	415	-18.4	-34.9	249	14
2023-08-15T06:00	7279	414	-18.7	-35.0	248	14
2023-08-15T06:00	7310	412	-18.9	-35.2	247	14
2023-08-15T06:00	7338	410	-19.2	-35.4	246	14
2023-08-15T06:00	7363	409	-19.3	-35.4	245	15
2023-08-15T06:00	7392	407	-19.6	-35.6	244	15
2023-08-15T06:00	7431	405	-19.9	-35.7	243	15
2023-08-15T06:00	7466	403	-20.3	-35.8	243	16
2023-08-15T06:00	7498	402	-20.5	-35.8	242	16
2023-08-15T06:00	7529	400	-20.8	-34.8	242	16
2023-08-15T06:00	7561	398	-21.1	-34.3	242	16
2023-08-15T06:00	7593	396	-21.3	-33.8	242	16
2023-08-15T06:00	7625	395	-21.6	-32.2	241	17
2023-08-15T06:00	7663	393	-21.9	-30.5	241	17
2023-08-15T06:00	7694	391	-22.2	-30.5	240	17
2023-08-15T06:00	7726	389	-22.4	-30.4	240	17
2023-08-15T06:00	7761	388	-22.7	-30.0	240	17
2023-08-15T06:00	7784	386	-22.9	-30.3	240	17
2023-08-15T06:00	7816	385	-23.1	-31.1	240	17
2023-08-15T06:00	7844	383	-23.4	-31.5	240	16
2023-08-15T06:00	7874	382	-23.6	-30.0	238	16
2023-08-15T06:00	7900	380	-23.8	-29.8	237	16
2023-08-15T06:00	7930	379	-23.9	-30.3	235	15
2023-08-15T06:00	7965	377	-24.1	-30.5	235	15
2023-08-15T06:00	7996	375	-24.3	-30.6	235	14
2023-08-15T06:00	8027	374	-24.6	-30.8	235	14
2023-08-15T06:00	8057	372	-24.9	-30.5	236	14
2023-08-15T06:00	8089	370	-25.1	-30.5	236	14
2023-08-15T06:00	8115	369	-25.4	-30.8	235	14
2023-08-15T06:00	8144	368	-25.7	-30.8	234	15
2023-08-15T06:00	8180	366	-26.0	-30.4	233	15
2023-08-15T06:00	8202	365	-26.1	-30.5	232	15
2023-08-15T06:00	8234	363	-26.3	-31.2	232	15
2023-08-15T06:00	8262	362	-26.4	-31.7	232	15
2023-08-15T06:00	8294	360	-26.7	-31.6	232	15
2023-08-15T06:00	8324	359	-27.0	-31.9	232	15
2023-08-15T06:00	8350	357	-27.2	-32.0	232	15
2023-08-15T06:00	8377	356	-27.4	-32.3	231	15
2023-08-15T06:00	8407	355	-27.7	-33.0	229	15
2023-08-15T06:00	8439	353	-28.0	-33.4	228	16
2023-08-15T06:00	8474	351	-28.2	-34.4	227	16
2023-08-15T06:00	8505	350	-28.4	-34.6	227	17
2023-08-15T06:00	8531	348	-28.6	-35.0	227	17
2023-08-15T06:00	8562	347	-28.8	-35.5	228	17
2023-08-15T06:00	8598	345	-28.9	-35.8	227	16
2023-08-15T06:00	8632	344	-29.2	-36.0	227	16
2023-08-15T06:00	8665	342	-29.4	-36.1	226	16
2023-08-15T06:00	8699	340	-29.7	-36.5	225	16
2023-08-15T06:00	8727	339	-29.9	-36.5	224	16
2023-08-15T06:00	8754	338	-30.1	-36.1	224	16
2023-08-15T06:00	8789	336	-30.4	-36.1	224	15
2023-08-15T06:00	8822	335	-30.7	-36.6	223	15
2023-08-15T06:00	8848	333	-30.8	-36.7	223	15
2023-08-15T06:00	8871	332	-31.0	-37.0	224	15
2023-08-15T06:00	8893	331	-31.2	-36.9	224	15
2023-08-15T06:00	8917	330	-31.4	-37.2	225	15
2023-08-15T06:00	8946	329	-31.6	-37.4	225	15
2023-08-15T06:00	8982	327	-31.9	-37.7	226	15
2023-08-15T06:00	9012	326	-32.2	-38.0	226	16
2023-08-15T06:00	9039	324	-32.4	-38.5	225	16
2023-08-15T06:00	9065	323	-32.6	-38.4	224	16
2023-08-15T06:00	9092	322	-32.9	-38.5	224	16
2023-08-15T06:00	9114	321	-33.1	-38.6	223	16
2023-08-15T06:00	9137	320	-33.3	-38.7	222	16
2023-08-15T06:00	9157	319	-33.5	-38.9	222	15
2023-08-15T06:00	9183	318	-33.7	-39.0	221	15
2023-08-15T06:00	9215	316	-34.0	-39.1	221	15
2023-08-15T06:00	9245	315	-34.3	-39.1	221	14
2023-08-15T06:00	9280	314	-34.6	-39.3	221	14
2023-08-15T06:00	9310	312	-34.8	-39.6	220	14
2023-08-15T06:00	9335	311	-34.9	-40.9	220	14
2023-08-15T06:00	9366	310	-35.1	-41.9	218	14
2023-08-15T06:00	9393	308	-35.3	-42.1	217	14
2023-08-15T06:00	9417	307	-35.5	-42.1	217	14
2023-08-15T06:00	9439	306	-35.7	-42.1	217	15
2023-08-15T06:00	9466	305	-36.0	-42.1	217	15
2023-08-15T06:00	9493	304	-36.1	-45.3	218	16
2023-08-15T06:00	9530	302	-36.2	-49.0	218	16
2023-08-15T06:00	9564	301	-36.5	-48.4	218	16
2023-08-15T06:00	9595	300	-36.8	-48.4	218	16
2023-08-15T06:00	9618	299	-37.0	-48.5	217	16
2023-08-15T06:00	9641	298	-37.2	-48.4	217	16
2023-08-15T06:00	9671	296	-37.5	-48.5	216	16
2023-08-15T06:00	9695	295	-37.7	-48.9	215	16
2023-08-15T06:00	9720	294	-37.9	-49.3	215	16
2023-08-15T06:00	9746	293	-38.2	-50.2	216	16
2023-08-15T06:00	9768	292	-38.4	-50.2	216	16
2023-08-15T06:00	9794	291	-38.6	-50.1	217	16
2023-08-15T06:00	9821	290	-38.8	-50.6	217	16
2023-08-15T06:00	9845	289	-39.0	-51.0	216	16
2023-08-15T06:00	9870	288	-39.2	-50.8	216	16
2023-08-15T06:00	9892	287	-39.4	-51.2	215	16
2023-08-15T06:00	9917	286	-39.6	-51.5	214	16
2023-08-15T06:00	9939	285	-39.6	-51.9	213	17
2023-08-15T06:00	9964	284	-39.8	-52.2	213	17
2023-08-15T06:00	9988	283	-40.0	-52.2	213	17
2023-08-15T06:00	10014	282	-40.2	-52.2	213	17
2023-08-15T06:00	10038	281	-40.4	-52.0	213	17
2023-08-15T06:00	10063	280	-40.6	-51.7	212	17
2023-08-15T06:00	10087	279	-40.8	-51.7	212	17
2023-08-15T06:00	10112	278	-41.0	-51.8	212	17
2023-08-15T06:00	10135	277	-41.3	-52.0	211	17
2023-08-15T06:00	10162	276	-41.5	-51.9	211	18
2023-08-15T06:00	10195	274	-41.8	-52.0	211	18
2023-08-15T06:00	10223	273	-42.0	-52.1	211	18
2023-08-15T06:00	10248	272	-42.2	-52.1	211	18
2023-08-15T06:00	10274	271	-42.4	-52.1	211	17
2023-08-15T06:00	10302	270	-42.7	-52.3	211	17
2023-08-15T06:00	10331	269	-42.9	-52.4	210	17
2023-08-15T06:00	10359	268	-43.2	-52.5	210	17
2023-08-15T06:00	10384	267	-43.4	-52.1	210	17
2023-08-15T06:00	10412	266	-43.6	-52.0	209	17
2023-08-15T06:00	10441	265	-43.9	-52.2	209	17
2023-08-15T06:00	10466	264	-44.1	-52.4	209	17
2023-08-15T06:00	10495	263	-44.4	-52.6	209	16
2023-08-15T06:00	10519	262	-44.6	-52.9	210	16
2023-08-15T06:00	10543	261	-44.8	-53.1	210	16
2023-08-15T06:00	10571	260	-45.0	-53.1	210	16
2023-08-15T06:00	10596	259	-45.2	-53.2	210	16
2023-08-15T06:00	10621	258	-45.5	-53.3	210	16
2023-08-15T06:00	10647	257	-45.7	-53.3	210	16
2023-08-15T06:00	10677	255	-46.0	-53.3	209	16
2023-08-15T06:00	10704	254	-46.2	-53.3	209	16
2023-08-15T06:00	10729	253	-46.5	-53.5	208	15
2023-08-15T06:00	10756	252	-46.7	-53.6	207	15
2023-08-15T06:00	10782	251	-46.9	-53.9	206	15
2023-08-15T06:00	10808	250	-47.1	-54.3	205	15
2023-08-15T06:00	10837	249	-47.4	-54.2	204	16
2023-08-15T06:00	10865	248	-47.6	-53.7	202	16
2023-08-15T06:00	10893	247	-47.8	-53.0	200	16
2023-08-15T06:00	10918	246	-48.0	-52.7	199	16
2023-08-15T06:00	10943	245	-48.2	-53.3	197	17
2023-08-15T06:00	10972	244	-48.2	-54.7	195	17
2023-08-15T06:00	11001	243	-48.4	-55.9	194	17
2023-08-15T06:00	11030	242	-48.6	-57.0	194	18
2023-08-15T06:00	11057	241	-48.7	-57.0	194	18
2023-08-15T06:00	11085	240	-49.0	-56.5	194	18
2023-08-15T06:00	11112	239	-49.2	-56.1	194	19
2023-08-15T06:00	11137	238	-49.5	-56.2	194	19
2023-08-15T06:00	11163	237	-49.7	-56.3	194	19
2023-08-15T06:00	11189	236	-49.9	-56.0	194	19
2023-08-15T06:00	11216	235	-50.0	-55.1	194	19
2023-08-15T06:00	11246	234	-50.2	-55.0	194	19
2023-08-15T06:00	11271	233	-50.4	-56.4	194	19
2023-08-15T06:00	11293	233	-50.5	-57.8	194	19
2023-08-15T06:00	11318	232	-50.7	-58.3	194	19
2023-08-15T06:00	11343	231	-50.9	-58.3	194	19
2023-08-15T06:00	11368	230	-51.1	-58.4	193	19
2023-08-15T06:00	11389	229	-51.2	-58.4	193	19
2023-08-15T06:00	11415	228	-51.4	-58.4	194	19
2023-08-15T06:00	11438	227	-51.7	-58.5	194	19
2023-08-15T06:00	11463	227	-51.9	-58.5	195	19
2023-08-15T06:00	11491	226	-52.1	-58.5	196	20
2023-08-15T06:00	11518	225	-52.3	-58.6	197	20
2023-08-15T06:00	11545	224	-52.5	-58.7	199	20
2023-08-15T06:00	11570	223	-52.7	-58.7	200	20
2023-08-15T06:00	11597	222	-53.0	-58.8	201	21
2023-08-15T06:00	11627	221	-53.2	-58.8	202	21
2023-08-15T06:00	11650	220	-53.4	-59.0	204	21
2023-08-15T06:00	11673	219	-53.5	-59.2	205	21
2023-08-15T06:00	11696	219	-53.7	-59.5	206	21
2023-08-15T06:00	11717	218	-53.9	-59.7	206	21
2023-08-15T06:00	11740	217	-54.1	-59.9	207	20
2023-08-15T06:00	11763	216	-54.2	-60.1	207	20
2023-08-15T06:00	11786	216	-54.4	-60.2	208	20
2023-08-15T06:00	11807	215	-54.6	-60.2	208	20
2023-08-15T06:00	11832	214	-54.8	-60.1	208	20
2023-08-15T06:00	11855	213	-55.0	-60.1	209	20
2023-08-15T06:00	11880	212	-55.2	-60.0	210	20
2023-08-15T06:00	11903	212	-55.5	-60.1	210	20
2023-08-15T06:00	11928	211	-55.7	-60.1	211	20
2023-08-15T06:00	11952	210	-55.9	-60.1	212	20
2023-08-15T06:00	11975	209	-56.2	-60.3	212	20
2023-08-15T06:00	11999	208	-56.3	-60.2	213	20
2023-08-15T06:00	12022	208	-56.6	-60.3	213	20
2023-08-15T06:00	12044	207	-56.7	-60.3	214	20
2023-08-15T06:00	12066	206	-57.0	-60.5	215	20
2023-08-15T06:00	12087	206	-57.1	-60.8	216	21
2023-08-15T06:00	12113	205	-57.2	-61.3	217	21
2023-08-15T06:00	12135	204	-56.9	-61.8	218	21
2023-08-15T06:00	12158	203	-56.9	-62.5	218	21
2023-08-15T06:00	12181	203	-57.1	-62.8	218	21
2023-08-15T06:00	12206	202	-57.3	-62.6	218	21
2023-08-15T06:00	12227	201	-57.5	-62.2	217	21
2023-08-15T06:00	12250	200	-57.6	-61.8	217	21
2023-08-15T06:00	12272	200	-57.8	-61.7	218	21
2023-08-15T06:00	12298	199	-58.0	-62.0	219	22
2023-08-15T06:00	12323	198	-58.0	-62.6	221	22
2023-08-15T06:00	12348	197	-57.7	-63.5	223	23
2023-08-15T06:00	12386	196	-57.4	-64.6	226	23
2023-08-15T06:00	12414	195	-57.5	-65.7	228	23
2023-08-15T06:00	12436	194	-57.6	-66.3	229	22
2023-08-15T06:00	12462	194	-57.7	-66.8	229	22
2023-08-15T06:00	12489	193	-57.8	-67.1	229	21
2023-08-15T06:00	12514	192	-57.9	-67.2	229	21
2023-08-15T06:00	12539	191	-58.0	-67.3	228	20
2023-08-15T06:00	12565	191	-58.1	-67.5	227	20
2023-08-15T06:00	12589	190	-58.1	-67.8	227	20
2023-08-15T06:00	12616	189	-58.1	-68.2	227	20
2023-08-15T06:00	12640	188	-58.0	-69.0	227	20
2023-08-15T06:00	12664	188	-57.4	-69.4	227	20
2023-08-15T06:00	12691	187	-57.3	-70.1	227	20
2023-08-15T06:00	12713	186	-57.3	-70.5	227	20
2023-08-15T06:00	12740	185	-57.3	-70.7	226	20
2023-08-15T06:00	12763	185	-57.3	-70.9	226	20
2023-08-15T06:00	12787	184	-57.1	-70.9	226	20
2023-08-15T06:00	12810	183	-57.1	-71.0	226	20
2023-08-15T06:00	12836	183	-57.3	-71.3	226	20
2023-08-15T06:00	12859	182	-57.4	-71.5	226	19
2023-08-15T06:00	12886	181	-57.4	-71.6	227	19
2023-08-15T06:00	12912	180	-57.2	-71.7	227	19
2023-08-15T06:00	12935	180	-57.3		227	19
2023-08-15T06:00	12958	179	-57.3	-72.2	227	19
2023-08-15T06:00	12985	178	-57.2	-72.4	228	19
2023-08-15T06:00	13008	178	-57.2	-72.6	228	19
2023-08-15T06:00	13029	177	-57.2	-72.9	228	19
2023-08-15T06:00	13054	176	-57.0	-72.8	228	19
2023-08-15T06:00	13078	176	-56.8	-72.7	228	19
2023-08-15T06:00	13100	175	-56.7	-72.6	228	19
2023-08-15T06:00	13123	174	-56.4	-72.5	228	18
2023-08-15T06:00	13146	174	-56.1	-72.7	227	18
2023-08-15T06:00	13169	173	-56.1	-73.2	227	18
2023-08-15T06:00	13189	173	-56.1	-73.6	227	18
2023-08-15T06:00	13210	172	-56.0	-74.0	227	18
2023-08-15T06:00	13230	172	-56.0	-74.7	226	18
2023-08-15T06:00	13252	171	-55.5	-75.0	225	19
2023-08-15T06:00	13273	170	-55.5	-75.9	225	19
2023-08-15T06:00	13296	170	-55.4	-76.4	224	20
2023-08-15T06:00	13316	169	-55.4	-77.0	224	20
2023-08-15T06:00	13337	169	-55.2	-77.2	224	21
2023-08-15T06:00	13358	168	-55.0	-77.5	223	21
2023-08-15T06:00	13378	168	-54.9	-77.8	224	21
2023-08-15T06:00	13397	167	-54.9	-78.0	224	21
2023-08-15T06:00	13418	167	-55.0	-78.0	224	21
2023-08-15T06:00	13438	166	-55.0	-77.9	224	21
2023-08-15T06:00	13458	166	-55.0	-77.9	224	21
2023-08-15T06:00	13478	165	-55.0	-77.9	224	21
2023-08-15T06:00	13497	165	-54.8	-77.7	223	21
2023-08-15T06:00	13519	164	-54.6	-77.6	223	21
2023-08-15T06:00	13537	163	-54.4	-77.2	223	21
2023-08-15T06:00	13559	163	-54.5	-77.1	223	21
2023-08-15T06:00	13581	162	-54.5	-77.1	224	21
2023-08-15T06:00	13603	162	-54.2	-77.1	225	20
2023-08-15T06:00	13624	161	-54.2	-77.2	227	20
2023-08-15T06:00	13652	161	-54.2	-77.6	229	19
2023-08-15T06:00	13674	160	-53.9	-77.7	230	18
2023-08-15T06:00	13699	159	-53.6	-77.9	229	17
2023-08-15T06:00	13721	159	-53.4	-78.3	228	16
2023-08-15T06:00	13743	158	-52.9	-78.6	226	16
2023-08-15T06:00	13765	158	-52.9	-79.1	224	16
2023-08-15T06:00	13788	157	-52.7	-79.3	221	16
2023-08-15T06:00	13811	157	-52.7	-79.3	220	16
2023-08-15T06:00	13835	156	-52.8	-79.3	219	16
2023-08-15T06:00	13857	156	-52.8	-79.3	219	17
2023-08-15T06:00	13879	155	-52.9	-79.4	219	17
2023-08-15T06:00	13905	154	-53.0	-79.2	219	17
2023-08-15T06:00	13927	154	-53.1	-79.3	220	18
2023-08-15T06:00	13952	153	-53.1	-79.3	220	18
2023-08-15T06:00	13976	153	-53.1	-79.0	220	19
2023-08-15T06:00	14000	152	-53.3	-79.2	221	19
2023-08-15T06:00	14025	152	-53.5	-79.1	222	20
2023-08-15T06:00	14052	151	-53.6	-78.9	223	20
2023-08-15T06:00	14076	150	-53.8	-79.1	225	21
2023-08-15T06:00	14100	150	-53.8	-79.1	225	21
2023-08-15T06:00	14127	149	-53.6	-78.7	226	21
2023-08-15T06:00	14151	149	-53.4	-78.8	226	21
2023-08-15T06:00	14176	148	-53.2	-78.6	225	21
2023-08-15T06:00	14201	147	-53.2	-78.9	224	21
2023-08-15T06:00	14227	147	-53.4	-79.3	224	21
2023-08-15T06:00	14252	146	-53.5	-79.4	223	21
2023-08-15T06:00	14277	146	-53.5	-79.4	222	21
2023-08-15T06:00	14305	145	-53.4	-79.5	221	21
2023-08-15T06:00	14329	145	-53.5	-79.6	220	20
2023-08-15T06:00	14356	144	-53.6	-79.7	220	20
2023-08-15T06:00	14380	143	-53.7	-79.8	220	20
2023-08-15T06:00	14404	143	-53.7	-79.8	220	20
2023-08-15T06:00	14429	142	-53.8	-79.8	221	19
2023-08-15T06:00	14454	142	-54.0	-80.0	221	19
2023-08-15T06:00	14479	141	-54.1	-80.1	222	18
2023-08-15T06:00	14504	141	-54.1	-80.1	223	18
2023-08-15T06:00	14530	140	-54.2	-80.2	223	18
2023-08-15T06:00	14552	140	-54.3	-80.2	224	17
2023-08-15T06:00	14576	139	-54.4	-80.3	225	17
2023-08-15T06:00	14602	139	-54.5	-80.4	227	17
2023-08-15T06:00	14623	138	-54.7	-80.6	228	17
2023-08-15T06:00	14647	138	-54.8	-80.6	230	16
2023-08-15T06:00	14670	137	-55.0	-80.8	231	16
2023-08-15T06:00	14693	137	-55.0	-80.8	232	16
2023-08-15T06:00	14714	136	-55.0	-80.8	232	16
2023-08-15T06:00	14736	136	-55.0	-80.8	233	16
2023-08-15T06:00	14759	135	-55.1	-81.1	233	16
2023-08-15T06:00	14781	135	-54.9	-81.0	232	16
2023-08-15T06:00	14802	134	-54.6	-81.0	231	16
2023-08-15T06:00	14824	134	-54.6	-81.0	230	16
2023-08-15T06:00	14848	133	-54.7	-81.4	228	16
2023-08-15T06:00	14871	133	-54.8	-81.2	227	17
2023-08-15T06:00	14892	132	-54.9	-81.3	226	17
2023-08-15T06:00	14915	132	-55.1	-81.4	226	17
2023-08-15T06:00	14937	131	-55.2	-81.2	226	17
2023-08-15T06:00	14959	131	-55.4	-81.4	226	18
2023-08-15T06:00	14977	131	-55.5	-81.4	227	18
2023-08-15T06:00	14999	130	-55.4	-81.4	229	18
2023-08-15T06:00	15021	130	-55.1	-81.4	231	18
2023-08-15T06:00	15042	129	-54.8	-81.2	233	18
2023-08-15T06:00	15063	129	-54.7	-81.4	235	17
2023-08-15T06:00	15085	128	-54.8	-81.5	237	17
2023-08-15T06:00	15106	128	-54.7	-81.4	238	17
2023-08-15T06:00	15126	128	-54.6	-81.6	238	16
2023-08-15T06:00	15150	127	-54.6	-81.6	238	16
2023-08-15T06:00	15169	127	-54.7	-81.7	238	15
2023-08-15T06:00	15192	126	-54.8	-82.1	238	15
2023-08-15T06:00	15212	126	-54.7	-82.0	237	15
2023-08-15T06:00	15234	125	-54.8	-82.1	236	15
2023-08-15T06:00	15255	125	-54.9	-82.2	234	15
2023-08-15T06:00	15280	125	-54.5	-82.2	231	15
2023-08-15T06:00	15304	124	-53.4	-81.7	228	15
2023-08-15T06:00	15328	124	-53.2	-81.6	226	15
2023-08-15T06:00	15357	123	-53.5	-81.8	223	15
2023-08-15T06:00	15383	123	-53.7	-82.0	222	16
2023-08-15T06:00	15408	122	-53.9	-81.7	221	16
2023-08-15T06:00	15434	122	-54.1	-81.9	220	16
2023-08-15T06:00	15456	121	-54.3	-82.1	221	16
2023-08-15T06:00	15479	121	-54.3	-82.1	223	16
2023-08-15T06:00	15501	120	-54.3	-82.1	225	16
2023-08-15T06:00	15526	120	-54.4	-82.1	227	16
2023-08-15T06:00	15549	119	-54.3	-82.1	230	16
2023-08-15T06:00	15574	119	-54.3	-82.1	231	15
2023-08-15T06:00	15598	119	-54.4	-82.1	233	15
2023-08-15T06:00	15622	118	-54.5	-82.2	234	14
2023-08-15T06:00	15647	118	-54.7	-82.0	234	14
2023-08-15T06:00	15672	117	-54.8	-82.1	235	13
2023-08-15T06:00	15697	117	-54.9	-82.2	236	12
2023-08-15T06:00	15723	116	-55.1	-82.3	237	12
2023-08-15T06:00	15747	116	-55.2	-82.4	239	11
2023-08-15T06:00	15771	115	-55.4	-82.6	240	10
2023-08-15T06:00	15796	115	-55.5	-82.3	241	10
2023-08-15T06:00	15821	115	-55.7	-82.5	241	9
2023-08-15T06:00	15843	114	-55.7	-82.5	240	9
2023-08-15T06:00	15870	114	-55.7	-82.8	237	8
2023-08-15T06:00	15894	113	-55.5	-82.6	235	8
2023-08-15T06:00	15920	113	-55.5	-82.6	232	7
2023-08-15T06:00	15945	112	-55.4	-82.6	229	7
2023-08-15T06:00	15968	112	-55.3	-82.8	226	7
2023-08-15T06:00	15991	111	-55.3	-82.8	224	6
2023-08-15T06:00	16018	111	-55.4	-82.6	223	6
2023-08-15T06:00	16040	111	-55.6	-82.7	223	6
2023-08-15T06:00	16063	110	-55.8	-82.9	224	6
2023-08-15T06:00	16088	110	-55.9	-82.9	225	7
2023-08-15T06:00	16114	109	-55.9	-82.9	226	7
2023-08-15T06:00	16135	109	-56.0	-83.0	225	7
2023-08-15T06:00	16159	109	-55.8	-83.2	223	7
2023-08-15T06:00	16180	108	-55.6	-83.1	219	7
2023-08-15T06:00	16204	108	-55.4	-82.9	214	7
2023-08-15T06:00	16226	107	-55.4	-82.9	209	7
2023-08-15T06:00	16251	107	-55.5	-83.0	204	7
2023-08-15T06:00	16275	107	-55.5	-83.0	198	7
2023-08-15T06:00	16297	106	-55.6	-83.1	193	7
2023-08-15T06:00	16321	106	-55.8	-83.2	188	8
2023-08-15T06:00	16345	106	-55.9	-83.3	184	8
2023-08-15T06:00	16366	105	-56.0	-83.4	181	9
2023-08-15T06:00	16390	105	-56.1	-83.1	180	9
2023-08-15T06:00	16413	104	-56.2	-83.2	179	10
2023-08-15T06:00	16435	104	-56.4	-83.3	179	10
2023-08-15T06:00	16456	104	-56.6	-83.5	180	10
2023-08-15T06:00	16479	103	-56.7	-83.2	181	10
2023-08-15T06:00	16502	103	-56.9	-83.4	184	10
2023-08-15T06:00	16527	102	-57.0	-83.5	187	11
2023-08-15T06:00	16551	102	-57.1	-83.5	191	11
2023-08-15T06:00	16579	102	-57.3	-83.7	195	11
2023-08-15T06:00	16603	101	-57.4	-83.8	200	11
2023-08-15T06:00	16625	101	-57.5	-83.9	204	11
2023-08-15T06:00	16648	101	-57.5	-83.9	208	11
2023-08-15T06:00	16673	100	-57.5	-83.9	212	11
2023-08-15T06:00	16696	100	-57.5	-83.9	215	11
2023-08-15T06:00	16721	99	-57.7	-84.0	217	11
2023-08-15T06:00	16744	99	-57.8	-83.8	219	11
2023-08-15T06:00	16769	99	-57.9	-83.9	222	11
2023-08-15T06:00	16793	98	-58.1	-84.0	225	11
2023-08-15T06:00	16818	98	-58.2	-84.1	228	11
2023-08-15T06:00	16842	97	-58.3	-84.2	231	11
2023-08-15T06:00	16865	97	-58.2	-84.1	233	11
2023-08-15T06:00	16889	97	-58.2	-84.1	235	10
2023-08-15T06:00	16915	96	-58.2	-84.1	236	10
2023-08-15T06:00	16943	96	-58.2	-84.4	236	9
2023-08-15T06:00	16970	96	-58.0	-84.2	234	9
2023-08-15T06:00	16992	95	-58.0	-84.2	230	9
2023-08-15T06:00	17016	95	-57.9	-84.5	226	9
2023-08-15T06:00	17046	94	-57.9	-84.5	221	9
2023-08-15T06:00	17071	94	-57.9	-84.5	218	10
2023-08-15T06:00	17099	94	-57.9	-84.5	216	10
2023-08-15T06:00	17126	93	-58.0	-84.6	216	11
2023-08-15T06:00	17152	93	-58.2	-84.7	216	12
2023-08-15T06:00	17181	92	-58.4	-84.6	216	12
2023-08-15T06:00	17206	92	-58.6	-84.7	217	12
2023-08-15T06:00	17233	92	-58.7	-84.8	217	13
2023-08-15T06:00	17256	91	-58.6	-85.0	217	13
2023-08-15T06:00	17285	91	-58.4	-84.9	218	12
2023-08-15T06:00	17308	91	-58.4	-85.2	218	12
2023-08-15T06:00	17336	90	-58.3	-85.1	218	11
2023-08-15T06:00	17362	90	-58.1	-85.3	217	11
2023-08-15T06:00	17388	89	-58.0	-85.2	216	10
2023-08-15T06:00	17414	89	-57.9	-85.2	214	10
2023-08-15T06:00	17436	89	-57.7	-85.4	212	10
2023-08-15T06:00	17462	88	-57.7	-85.4	211	10
2023-08-15T06:00	17491	88	-57.3	-85.1	211	11
2023-08-15T06:00	17512	88	-56.8	-85.1	213	11
2023-08-15T06:00	17536	87	-56.7	-85.0	215	11
2023-08-15T06:00	17560	87	-56.6	-84.9	216	11
2023-08-15T06:00	17586	87	-56.6	-84.9	217	11
2023-08-15T06:00	17609	86	-56.7	-85.0	217	10
2023-08-15T06:00	17633	86	-56.6	-84.9	216	9
2023-08-15T06:00	17656	86	-56.4	-84.8	214	8
2023-08-15T06:00	17684	85	-56.3	-85.1	210	7
2023-08-15T06:00	17708	85	-56.2	-85.1	204	6
2023-08-15T06:00	17733	85	-56.1	-85.0	197	6
2023-08-15T06:00	17757	84	-56.1	-85.0	189	6
2023-08-15T06:00	17782	84	-56.0	-84.9	181	6
2023-08-15T06:00	17805	84	-55.8	-84.8	174	6
2023-08-15T06:00	17835	83	-55.8	-84.8	170	7
2023-08-15T06:00	17859	83	-55.9	-84.8	168	8
2023-08-15T06:00	17884	83	-56.1	-85.0	168	8
2023-08-15T06:00	17908	82	-56.2	-85.1	169	9
2023-08-15T06:00	17934	82	-56.1	-85.0	172	9
2023-08-15T06:00	17955	82	-56.0	-84.9	176	9
2023-08-15T06:00	17984	81	-56.0	-84.9	179	9
2023-08-15T06:00	18010	81	-56.0	-84.9	182	10
2023-08-15T06:00	18032	81	-56.0	-84.9	183	10
2023-08-15T06:00	18058	80	-56.1	-85.0	183	10
2023-08-15T06:00	18078	80	-56.2	-85.1	182	10
2023-08-15T06:00	18107	80	-56.2	-85.1	181	10
2023-08-15T06:00	18132	80	-56.0	-84.9	180	11
2023-08-15T06:00	18157	79	-55.9	-84.8	181	11
2023-08-15T06:00	18185	79	-56.0	-84.9	182	11
2023-08-15T06:00	18209	79	-56.1	-85.0	184	11
2023-08-15T06:00	18234	78	-56.1	-85.0	187	11
2023-08-15T06:00	18264	78	-55.9	-84.8	190	10
2023-08-15T06:00	18288	78	-55.9	-84.8	194	10
2023-08-15T06:00	18317	77	-56.0	-84.9	197	9
2023-08-15T06:00	18340	77	-56.0	-84.9	201	9
2023-08-15T06:00	18369	77	-56.1	-85.0	204	9
2023-08-15T06:00	18395	76	-56.2	-85.1	207	9
2023-08-15T06:00	18419	76	-56.3	-85.1	210	9
2023-08-15T06:00	18446	76	-56.5	-84.9	212	9
2023-08-15T06:00	18475	75	-56.7	-85.0	214	8
2023-08-15T06:00	18499	75	-56.8	-85.1	216	8
2023-08-15T06:00	18521	75	-56.9	-85.2	218	7
2023-08-15T06:00	18545	74	-56.9	-85.2	219	7
2023-08-15T06:00	18572	74	-57.0	-85.2	220	7
2023-08-15T06:00	18596	74	-57.0	-85.2	219	6
2023-08-15T06:00	18620	74	-57.1	-85.3	216	6
2023-08-15T06:00	18642	73	-57.1	-85.3	211	6
2023-08-15T06:00	18668	73	-57.1	-85.7	205	6
2023-08-15T06:00	18693	73	-56.9	-85.6	200	6
2023-08-15T06:00	18716	73	-56.9	-85.6	196	6
2023-08-15T06:00	18740	72	-57.0	-85.7	194	6
2023-08-15T06:00	18765	72	-57.0	-85.7	194	6
2023-08-15T06:00	18791	72	-56.8	-85.5	196	5
2023-08-15T06:00	18815	71	-56.8	-85.5	197	5
2023-08-15T06:00	18838	71	-56.8	-85.5	197	5
2023-08-15T06:00	18863	71	-56.8	-85.5	195	5
2023-08-15T06:00	18888	71	-56.7	-85.9	192	4
2023-08-15T06:00	18911	70	-56.4	-85.7	189	4
2023-08-15T06:00	18933	70	-56.2	-85.5	187	5
2023-08-15T06:00	18961	70	-56.1	-85.5	187	5
2023-08-15T06:00	18987	69	-56.1	-85.5	188	5
2023-08-15T06:00	19012	69	-56.1	-85.5	188	6
2023-08-15T06:00	19036	69	-56.0		189	6
2023-08-15T06:00	19061	69	-56.0		189	7
2023-08-15T06:00	19083	68	-56.1	-85.5	190	7
2023-08-15T06:00	19111	68	-56.2	-85.5	191	8
2023-08-15T06:00	19132	68	-56.3	-85.6	192	8
2023-08-15T06:00	19156	68	-56.4	-85.2	192	8
2023-08-15T06:00	19183	67	-56.4	-85.7	194	8
2023-08-15T06:00	19208	67	-56.3	-85.6	195	8
2023-08-15T06:00	19234	67	-56.1	-85.5	197	7
2023-08-15T06:00	19258	67	-55.8	-85.2	198	6
2023-08-15T06:00	19285	66	-55.7	-85.7	200	5
2023-08-15T06:00	19315	66	-55.6	-85.6	200	4
2023-08-15T06:00	19340	66	-55.3	-85.4	198	4
2023-08-15T06:00	19364	65	-55.1	-85.2	195	3
2023-08-15T06:00	19390	65	-55.2	-85.3	190	3
2023-08-15T06:00	19412	65	-55.3	-85.4	185	3
2023-08-15T06:00	19443	65	-55.4	-84.9	179	4
2023-08-15T06:00	19468	64	-55.5	-85.0	174	4
2023-08-15T06:00	19494	64	-55.5	-85.0	170	4
2023-08-15T06:00	19519	64	-55.5	-85.0	166	4
2023-08-15T06:00	19545	64	-55.5	-85.0	163	5
2023-08-15T06:00	19574	63	-55.3	-84.9	163	5
2023-08-15T06:00	19597	63	-55.3	-84.9	164	5
2023-08-15T06:00	19623	63	-55.5	-85.0	166	6
2023-08-15T06:00	19650	63	-55.5	-85.0	169	6
2023-08-15T06:00	19673	62	-55.6	-85.1	170	7
2023-08-15T06:00	19697	62	-55.8	-85.2	171	7
2023-08-15T06:00	19725	62	-55.9	-85.3	172	7
2023-08-15T06:00	19751	62	-56.1	-85.5	172	7
2023-08-15T06:00	19775	61	-56.1	-85.5	171	7
2023-08-15T06:00	19800	61	-56.0		171	7
2023-08-15T06:00	19830	61	-56.2	-85.5	171	7
2023-08-15T06:00	19853	61	-56.2	-85.5	171	7
2023-08-15T06:00	19878	60	-56.3	-85.6	170	6
2023-08-15T06:00	19903	60	-56.4	-85.7	169	6
2023-08-15T06:00	19926	60	-56.5	-85.8	168	6
2023-08-15T06:00	19957	60	-56.6	-85.8	169	5
2023-08-15T06:00	19978	59	-56.4	-85.7	170	5
2023-08-15T06:00	20004	59	-56.2	-85.5	174	5
2023-08-15T06:00	20031	59	-56.2	-85.5	179	5
2023-08-15T06:00	20055	59	-56.3	-85.6	184	5
2023-08-15T06:00	20079	59	-56.4	-85.7	187	5
2023-08-15T06:00	20100	58	-56.5	-85.8	188	4
2023-08-15T06:00	20127	58	-56.5	-85.8	186	4
2023-08-15T06:00	20157	58	-56.7	-85.9	182	4
2023-08-15T06:00	20180	58	-56.8	-86.0	177	4
2023-08-15T06:00	20203	57	-56.6	-85.8	174	4
2023-08-15T06:00	20229	57	-56.6	-85.8	172	4
2023-08-15T06:00	20257	57	-56.5	-85.8	172	5
2023-08-15T06:00	20283	57	-56.4	-85.7	174	4
2023-08-15T06:00	20310	56	-56.2	-86.0	176	4
2023-08-15T06:00	20338	56	-56.1	-86.0	178	4
2023-08-15T06:00	20363	56	-56.0	-85.9	180	3
2023-08-15T06:00	20392	56	-55.8	-85.7	180	3
2023-08-15T06:00	20415	55	-55.7	-85.7	179	3
2023-08-15T06:00	20446	55	-55.7	-85.7	177	3
2023-08-15T06:00	20472	55	-55.8	-85.7	175	4
2023-08-15T06:00	20498	55	-55.9	-85.8	175	4
2023-08-15T06:00	20525	55	-55.7	-85.7	176	4
2023-08-15T06:00	20556	54	-55.5	-85.5	179	4
2023-08-15T06:00	20582	54	-55.5	-85.5	185	4
2023-08-15T06:00	20609	54	-55.7	-85.7	193	4
2023-08-15T06:00	20637	54	-55.8	-85.7	200	4
2023-08-15T06:00	20664	53	-55.8	-85.7	205	4
2023-08-15T06:00	20691	53	-56.0	-85.9	207	4
2023-08-15T06:00	20714	53	-56.1	-86.0	205	4
2023-08-15T06:00	20745	53	-55.8	-85.7	197	3
2023-08-15T06:00	20773	52	-55.5	-85.5	181	3
2023-08-15T06:00	20801	52	-55.4	-85.4	159	2
2023-08-15T06:00	20831	52	-55.5	-85.5	138	3
2023-08-15T06:00	20856	52	-55.4	-85.4	126	3
2023-08-15T06:00	20880	52	-55.4	-85.4	121	4
2023-08-15T06:00	20912	51	-55.5	-85.5	121	4
2023-08-15T06:00	20936	51	-55.5	-85.5	124	5
2023-08-15T06:00	20959	51	-55.6	-85.6	129	6
2023-08-15T06:00	20989	51	-55.6	-85.6	135	6
2023-08-15T06:00	21014	51	-55.5	-85.5	141	7
2023-08-15T06:00	21041	50	-55.6	-85.6	148	7
2023-08-15T06:00	21068	50	-55.5	-85.5	155	8
2023-08-15T06:00	21097	50	-55.5	-85.5	161	8
2023-08-15T06:00	21124	50	-55.5	-85.5	166	9
2023-08-15T06:00	21146	49	-55.5	-85.5	171	9
2023-08-15T06:00	21176	49	-55.6	-85.6	175	9
2023-08-15T06:00	21201	49	-55.7	-85.7	179	10
2023-08-15T06:00	21224	49	-55.8	-85.2	182	10
2023-08-15T06:00	21249	49	-55.9	-85.3	185	10
2023-08-15T06:00	21277	48	-56.0		188	10
2023-08-15T06:00	21304	48	-56.2	-85.5	190	10
2023-08-15T06:00	21329	48	-56.3	-85.6	192	10
2023-08-15T06:00	21349	48	-56.3	-85.6	191	9
2023-08-15T06:00	21377	48	-56.2	-86.0	190	9
2023-08-15T06:00	21404	48	-56.0	-85.9	187	8
2023-08-15T06:00	21432	47	-55.9	-85.8	182	7
2023-08-15T06:00	21454	47	-55.8	-85.7	176	6
2023-08-15T06:00	21478	47	-55.8	-85.7	169	6
2023-08-15T06:00	21508	47	-55.8	-85.7	161	6
2023-08-15T06:00	21533	47	-55.7	-85.7	153	6
2023-08-15T06:00	21555	46	-55.7	-85.7	147	6
2023-08-15T06:00	21580	46	-55.7	-85.7	143	6
2023-08-15T06:00	21607	46	-55.6	-85.6	143	7
2023-08-15T06:00	21634	46	-55.3	-85.9	144	7
2023-08-15T06:00	21657	46	-55.0	-85.7	145	7
2023-08-15T06:00	21683	46	-54.9	-85.6	146	7
2023-08-15T06:00	21705	45	-54.8	-85.5	146	7
2023-08-15T06:00	21733	45	-54.5	-85.3	146	6
2023-08-15T06:00	21758	45	-54.3	-85.2	146	6
2023-08-15T06:00	21784	45	-54.2	-85.1	148	5
2023-08-15T06:00	21806	45	-54.1	-85.0	151	5
2023-08-15T06:00	21837	44	-54.1	-85.0	154	5
2023-08-15T06:00	21863	44	-54.3	-85.2	157	5
2023-08-15T06:00	21892	44	-54.4	-85.2	157	4
2023-08-15T06:00	21917	44	-54.4	-84.7	155	4
2023-08-15T06:00	21943	44	-54.5	-84.8	152	4
2023-08-15T06:00	21971	44	-54.6	-84.8	149	4
2023-08-15T06:00	21998	43	-54.7	-84.9	146	4
2023-08-15T06:00	22021	43	-54.8	-85.0	144	3
2023-08-15T06:00	22052	43	-54.9	-85.1	143	3
2023-08-15T06:00	22082	43	-54.9	-85.1	145	3
2023-08-15T06:00	22111	43	-55.1	-85.2	149	2
2023-08-15T06:00	22136	42	-55.3	-85.4	156	2
2023-08-15T06:00	22166	42	-55.4	-85.4	162	2
2023-08-15T06:00	22196	42	-55.4	-85.4	166	2
2023-08-15T06:00	22220	42	-55.4	-85.4	165	2
2023-08-15T06:00	22249	42	-55.4	-85.4	160	1
2023-08-15T06:00	22282	41	-55.4	-85.4	153	1
2023-08-15T06:00	22308	41	-55.4	-85.4	148	1
2023-08-15T06:00	22336	41	-55.5	-85.5	148	1
2023-08-15T06:00	22366	41	-55.5	-85.5	149	2
2023-08-15T06:00	22393	41	-55.6	-85.6	150	2
2023-08-15T06:00	22423	41	-55.7	-85.7	149	2
2023-08-15T06:00	22457	40	-55.8	-85.7	148	3
2023-08-15T06:00	22479	40	-55.9	-85.3	145	3
2023-08-15T06:00	22511	40	-56.0		142	3
2023-08-15T06:00	22533	40	-56.1	-86.0	136	3
2023-08-15T06:00	22567	40	-56.1	-86.0	130	4
2023-08-15T06:00	22594	39	-56.1	-86.0	122	4
2023-08-15T06:00	22620	39	-56.0	-85.9	116	4
2023-08-15T06:00	22653	39	-55.9	-85.8	111	5
2023-08-15T06:00	22680	39	-55.9	-85.8	108	5
2023-08-15T06:00	22709	39	-55.7	-85.7	108	6
2023-08-15T06:00	22731	39	-55.4	-85.4	109	7
2023-08-15T06:00	22760	38	-55.4	-86.0	112	7
2023-08-15T06:00	22792	38	-55.3	-85.9	117	7
2023-08-15T06:00	22820	38	-55.3	-85.9	121	7
2023-08-15T06:00	22848	38	-55.2	-85.8	127	7
2023-08-15T06:00	22875	38	-55.1	-85.8	132	6
2023-08-15T06:00	22899	38	-55.0	-85.7	136	6
2023-08-15T06:00	22931	37	-55.0	-85.7	139	5
2023-08-15T06:00	22953	37	-55.0	-85.7	139	5
2023-08-15T06:00	22984	37	-55.1	-85.8	136	4
2023-08-15T06:00	23012	37	-55.1	-85.2	129	3
2023-08-15T06:00	23032	37	-55.2	-85.3	116	3
2023-08-15T06:00	23063	37	-55.1	-85.2	102	3
2023-08-15T06:00	23085	37	-55.0	-85.1	92	3
2023-08-15T06:00	23113	36	-55.2	-85.3	88	4
2023-08-15T06:00	23137	36	-55.2	-85.3	90	4
2023-08-15T06:00	23166	36	-55.0	-85.7	96	5
2023-08-15T06:00	23193	36	-54.9	-85.6	103	5
2023-08-15T06:00	23219	36	-54.8	-85.5	111	5
2023-08-15T06:00	23248	36	-54.8	-85.5	117	5
2023-08-15T06:00	23274	35	-54.7	-85.5	121	6
2023-08-15T06:00	23297	35	-54.5	-85.3	123	6
2023-08-15T06:00	23325	35	-54.4	-85.2	125	6
2023-08-15T06:00	23353	35	-54.4	-85.2	126	6
2023-08-15T06:00	23378	35	-54.4	-85.2	126	6
2023-08-15T06:00	23402	35	-54.4	-85.2	126	7
2023-08-15T06:00	23428	35	-54.4	-85.2	125	6
2023-08-15T06:00	23455	34	-54.4	-85.2	125	6
2023-08-15T06:00	23487	34	-54.3	-85.2	124	6
2023-08-15T06:00	23511	34	-54.3	-85.2	124	6
2023-08-15T06:00	23540	34	-54.4	-85.2	125	6
2023-08-15T06:00	23564	34	-54.3	-85.2	127	6
2023-08-15T06:00	23592	34	-54.3	-85.2	130	6
2023-08-15T06:00	23620	34	-54.4	-85.2	133	6
2023-08-15T06:00	23650	33	-54.4	-85.2	137	7
2023-08-15T06:00	23681	33	-54.4	-85.2	140	7
2023-08-15T06:00	23703	33	-54.4	-85.2	143	6
2023-08-15T06:00	23729	33	-54.6	-85.4	147	6
2023-08-15T06:00	23767	33	-54.7	-85.5	151	5
2023-08-15T06:00	23788	33	-54.7	-85.5	155	5
2023-08-15T06:00	23812	33	-54.6	-85.4	158	4
2023-08-15T06:00	23846	32	-54.6	-85.4	159	4
2023-08-15T06:00	23877	32	-54.5	-85.3	159	3
2023-08-15T06:00	23903	32	-54.4	-85.2	157	3
2023-08-15T06:00	23937	32	-54.4	-85.2	153	2
2023-08-15T06:00	23962	32	-54.4	-85.2	145	2
2023-08-15T06:00	23993	32	-54.5	-85.3	131	2
2023-08-15T06:00	24029	32	-54.6	-85.4	111	2
2023-08-15T06:00	24056	31	-54.7	-85.5	91	2
2023-08-15T06:00	24088	31	-54.9	-85.6	78	2
2023-08-15T06:00	24121	31	-55.0	-85.7	69	3
2023-08-15T06:00	24145	31	-55.2	-85.8	65	3
2023-08-15T06:00	24187	31	-55.2	-85.8	63	4
2023-08-15T06:00	24211	31	-55.0	-85.7	65	4
2023-08-15T06:00	24244	30	-55.0	-85.7	69	5
2023-08-15T06:00	24278	30	-54.9	-85.6	75	5
2023-08-15T06:00	24301	30	-54.9	-85.6	82	5
2023-08-15T06:00	24333	30	-55.1	-85.8	89	6
2023-08-15T06:00	24366	30	-55.3	-85.4	94	6
2023-08-15T06:00	24401	30	-55.4	-85.4	98	6
2023-08-15T06:00	24425	30	-55.4	-85.4	99	6
2023-08-15T06:00	24449	29	-55.4	-85.4	99	6
2023-08-15T06:00	24480	29	-55.5	-85.5	98	6
2023-08-15T06:00	24516	29	-55.6	-86.1	96	6
2023-08-15T06:00	24545	29	-55.6	-86.1	96	5
2023-08-15T06:00	24577	29	-55.4	-86.0	97	5
2023-08-15T06:00	24605	29	-55.4	-86.0	100	5
2023-08-15T06:00	24630	29	-55.4	-86.0	103	5
2023-08-15T06:00	24665	29	-55.5	-86.1	106	5
2023-08-15T06:00	24694	28	-55.5	-86.1	109	5
2023-08-15T06:00	24724	28	-55.4	-86.0	112	5
2023-08-15T06:00	24747	28	-55.3	-85.9	114	5
2023-08-15T06:00	24780	28	-55.2	-85.8	116	5
2023-08-15T06:00	24808	28	-55.2	-85.8	120	5
2023-08-15T06:00	24835	28	-55.2	-85.8	123	5
2023-08-15T06:00	24863	28	-55.1	-85.8	127	4
2023-08-15T06:00	24891	28	-55.1	-85.8	129	4
2023-08-15T06:00	24921	27	-55.0	-86.3	128	3
2023-08-15T06:00	24944	27	-54.7	-86.1	121	3
2023-08-15T06:00	24977	27	-54.4	-85.8	104	2
2023-08-15T06:00	24995	27	-54.2	-85.7	83	2
2023-08-15T06:00	25022	27	-53.8	-85.4	69	2
2023-08-15T06:00	25046	27	-53.7	-85.3	62	3
2023-08-15T06:00	25071	27	-53.6	-85.3	59	3
2023-08-15T06:00	25106	27	-53.4	-85.1	59	3
2023-08-15T06:00	25125	27	-53.4	-85.1	60	3
2023-08-15T06:00	25156	26	-53.3	-85.0	63	3
2023-08-15T06:00	25178	26	-53.1	-84.9	67	4
2023-08-15T06:00	25205	26	-52.9	-85.4	71	4
2023-08-15T06:00	25228	26	-52.8	-85.3	76	4
2023-08-15T06:00	25255	26	-52.6	-85.2	80	5
2023-08-15T06:00	25289	26	-52.5	-85.1	84	5
2023-08-15T06:00	25312	26	-52.2	-84.9	87	5
2023-08-15T06:00	25338	26	-51.9	-84.7	89	5
2023-08-15T06:00	25361	26	-51.7	-84.5	90	5
2023-08-15T06:00	25384	26	-51.6	-84.5	89	5
2023-08-15T06:00	25414	25	-51.4	-84.3	87	5
2023-08-15T06:00	25442	25	-51.2	-85.0	83	5
2023-08-15T06:00	25464	25	-50.9	-84.7	79	5
2023-08-15T06:00	25501	25	-50.7	-84.6	75	5
2023-08-15T06:00	25529	25	-50.5	-84.5	73	4
2023-08-15T06:00	25547	25	-50.3	-84.3	74	4
2023-08-15T06:00	25584	25	-50.2	-84.2	80	4
2023-08-15T06:00	25602	25	-50.2	-84.2	88	4
2023-08-15T06:00	25637	25	-50.2	-84.2	97	4
2023-08-15T06:00	25659	24	-50.1	-84.2	103	4
2023-08-15T06:00	25689	24	-50.0	-84.1	106	4
2023-08-15T06:00	25730	24	-49.9	-84.0	106	3
2023-08-15T06:00	25757	24	-49.8	-84.0	103	3
2023-08-15T06:00	25784	24	-49.5	-83.7	98	3
2023-08-15T06:00	25818	24	-49.2	-83.5	92	3
2023-08-15T06:00	25851	24	-49.1	-83.4	84	3
2023-08-15T06:00	25877	24	-49.0	-83.4	77	4
2023-08-15T06:00	25905	24	-49.0	-83.4	70	4
2023-08-15T06:00	25942	23	-49.0	-83.4	66	5
2023-08-15T06:00	25969	23	-49.0	-83.4	63	5
2023-08-15T06:00	26008	23	-49.1	-83.4	61	6
2023-08-15T06:00	26031	23	-49.2	-83.5	61	7
2023-08-15T06:00	26065	23	-49.3	-83.6	61	8
2023-08-15T06:00	26097	23	-49.4	-83.7	63	9
2023-08-15T06:00	26134	23	-49.4	-83.7	66	9
2023-08-15T06:00	26164	23	-49.4	-83.7	70	10
2023-08-15T06:00	26196	23	-49.5	-82.9	75	10
2023-08-15T06:00	26227	22	-49.8	-83.2	79	10
2023-08-15T06:00	26262	22	-49.8	-83.2	83	10
2023-08-15T06:00	26301	22	-49.7	-83.1	87	10
2023-08-15T06:00	26325	22	-49.5	-83.7	90	9
2023-08-15T06:00	26366	22	-49.5	-83.7	92	9
2023-08-15T06:00	26397	22	-49.6	-83.8	93	9
2023-08-15T06:00	26429	22	-49.5	-83.7	93	9
2023-08-15T06:00	26460	22	-49.5	-83.7	92	9
2023-08-15T06:00	26489	22	-49.6	-83.8	90	9
2023-08-15T06:00	26519	21	-49.8	-84.0	89	10
2023-08-15T06:00	26548	21	-49.9	-84.0	88	10
2023-08-15T06:00	26575	21	-49.8	-84.0	88	10
2023-08-15T06:00	26612	21	-49.7	-83.9	89	9
2023-08-15T06:00	26637	21	-49.5	-83.7	90	9
2023-08-15T06:00	26670	21	-49.5	-83.7	92	9
2023-08-15T06:00	26690	21	-49.6	-83.8	94	8
2023-08-15T06:00	26722	21	-49.7	-83.9	95	8
2023-08-15T06:00	26761	21	-49.8	-84.0	97	8
2023-08-15T06:00	26786	21	-49.9	-83.2	98	8
2023-08-15T06:00	26819	21	-49.9	-83.2	100	8
2023-08-15T06:00	26842	20	-50.0	-83.3	100	7
2023-08-15T06:00	26868	20	-50.0	-83.3	100	7
2023-08-15T06:00	26892	20	-50.1	-83.4	99	7
2023-08-15T06:00	26920	20	-50.1	-83.4	98	7
2023-08-15T06:00	26952	20	-50.2	-83.5	98	7
2023-08-15T06:00	26985	20	-50.1	-83.4	97	7
2023-08-15T06:00	27006	20	-50.1	-84.2	97	7
2023-08-15T06:00	27043	20	-50.1	-84.2	97	8
2023-08-15T06:00	27067	20	-50.1	-84.2	96	8
2023-08-15T06:00	27088	20	-50.1	-84.2	96	8
2023-08-15T06:00	27121	20	-50.0	-84.1	95	8
2023-08-15T06:00	27146	19	-49.9	-84.0	95	8
2023-08-15T06:00	27179	19	-49.8	-84.0	95	8
2023-08-15T06:00	27209	19	-49.8	-84.0	95	8
2023-08-15T06:00	27248	19	-49.7	-83.9	96	8
2023-08-15T06:00	27271	19	-49.6	-83.8	97	7
2023-08-15T06:00	27298	19	-49.6	-83.8	99	7
2023-08-15T06:00	27331	19	-49.5	-83.7	102	7
2023-08-15T06:00	27363	19	-49.4	-83.7	104	7
2023-08-15T06:00	27398	19	-49.3	-83.6	107	8
2023-08-15T06:00	27414	19	-49.0	-83.4	110	8
2023-08-15T06:00	27457	19	-48.9	-83.3	112	8
2023-08-15T06:00	27491	19	-48.9	-83.3	114	8
2023-08-15T06:00	27519	18	-48.9	-83.3	116	8
2023-08-15T06:00	27559	18	-48.7	-84.1	118	8
2023-08-15T06:00	27584	18	-48.6		120	8
2023-08-15T06:00	27618	18	-48.4	-83.8	122	7
2023-08-15T06:00	27650	18	-48.1	-83.6	123	7
2023-08-15T06:00	27686	18	-47.9	-83.5	124	7
2023-08-15T06:00	27701	18	-47.8	-83.4	124	6
2023-08-15T06:00	27742	18	-47.8	-83.4	124	6
2023-08-15T06:00	27776	18	-47.7	-83.4	123	6
2023-08-15T06:00	27808	18	-47.7	-83.4	122	5
2023-08-15T06:00	27841	18	-47.6	-83.3	120	5
2023-08-15T06:00	27878	17	-47.4	-83.1	119	6
2023-08-15T06:00	27898	17	-47.2	-83.0	119	6
2023-08-15T06:00	27941	17	-47.1	-82.9	118	7
2023-08-15T06:00	27969	17	-47.1	-82.9	117	7
2023-08-15T06:00	27999	17	-47.1	-82.9	116	7
2023-08-15T06:00	28033	17	-47.0	-82.9	115	8
2023-08-15T06:00	28063	17	-46.9	-82.8	114	8
2023-08-15T06:00	28088	17	-46.8	-82.7	114	8
2023-08-15T06:00	28129	17	-46.6	-82.6	115	7
2023-08-15T06:00	28148	17	-46.5	-82.5	117	7
2023-08-15T06:00	28181	17	-46.3	-82.4	120	6
2023-08-15T06:00	28211	17	-46.2	-82.3	124	6
2023-08-15T06:00	28237	17	-46.2	-82.3	129	6
2023-08-15T06:00	28280	16	-46.1	-82.2	133	5
2023-08-15T06:00	28306	16	-45.9	-82.1	136	5
2023-08-15T06:00	28334	16	-45.8	-82.0	140	4
2023-08-15T06:00	28350	16	-45.7	-81.9	144	3
2023-08-15T06:00	28395	16	-45.7	-81.9	147	3
2023-08-15T06:00	28424	16	-45.6	-81.9	146	2
2023-08-15T06:00	28441	16	-45.5	-81.8	133	1
2023-08-15T06:00	28467	16	-45.5	-81.8	94	1
2023-08-15T06:00	28504	16	-45.5	-81.8	64	1
2023-08-15T06:00	28537	16	-45.5	-81.8	56	2
2023-08-15T06:00	28565	16	-45.5	-81.8	56	3
2023-08-15T06:00	28606	16	-45.5	-81.8	58	3
2023-08-15T06:00	28623	16	-45.6	-81.9	61	3
2023-08-15T06:00	28651	16	-45.7	-81.9	64	3
2023-08-15T06:00	28685	15	-45.8	-82.0	66	3
2023-08-15T06:00	28707	15	-45.9	-82.1	66	3
2023-08-15T06:00	28757	15	-46.0	-82.1	65	3
2023-08-15T06:00	28773	15	-46.1	-82.2	64	3
2023-08-15T06:00	28805	15	-46.0	-82.1	64	3
2023-08-15T06:00	28832	15	-45.9	-82.1	62	3
2023-08-15T06:00	28865	15	-46.0	-82.1	60	3
2023-08-15T06:00	28896	15	-46.0	-82.1	56	3
2023-08-15T06:00	28929	15	-45.9	-82.1	48	2
2023-08-15T06:00	28971	15	-46.0	-82.1	40	2
2023-08-15T06:00	28988	15	-46.0	-82.1	31	2
2023-08-15T06:00	29032	15	-45.9	-82.1	23	2
2023-08-15T06:00	29055	15	-45.8	-83.1	18	3
2023-08-15T06:00	29081	15	-45.7	-83.0	16	3
2023-08-15T06:00	29115	14	-45.4	-82.8	15	3
2023-08-15T06:00	29135	14	-45.1	-82.6	15	4
2023-08-15T06:00	29189	14	-45.1	-82.6	14	5
2023-08-15T06:00	29208	14	-45.1	-82.6	13	5
2023-08-15T06:00	29251	14	-45.2	-82.7	11	6
2023-08-15T06:00	29280	14	-45.2	-82.7	11	7
2023-08-15T06:00	29317	14	-45.1	-82.6	11	8
2023-08-15T06:00	29351	14	-44.9	-82.5	13	9
2023-08-15T06:00	29392	14	-44.8	-82.4	16	10
2023-08-15T06:00	29409	14	-44.8	-82.4	20	10
2023-08-15T06:00	29448	14	-44.8	-82.4	26	11
2023-08-15T06:00	29497	14	-44.7	-82.3	32	11
2023-08-15T06:00	29523	14	-44.7	-82.3	38	11
2023-08-15T06:00	29549	14	-44.7	-82.3	43	11
2023-08-15T06:00	29581	14	-44.8	-82.4	46	11
2023-08-15T06:00	29615	13	-44.9	-82.5	48	11
2023-08-15T06:00	29657	13	-45.0	-82.5	49	11
2023-08-15T06:00	29693	13	-44.9	-82.5	48	10
2023-08-15T06:00	29719	13	-44.9	-82.5	47	10
2023-08-15T06:00	29746	13	-44.9	-82.5	46	10
2023-08-15T06:00	29792	13	-45.0	-82.5	46	9
2023-08-15T06:00	29817	13	-45.0	-82.5	48	9
2023-08-15T06:00	29850	13	-44.8	-82.4	51	10
2023-08-15T06:00	29880	13	-44.7	-82.3	54	10
2023-08-15T06:00	29927	13	-44.7	-82.3	58	10
2023-08-15T06:00	29952	13	-44.7	-82.3	62	10
2023-08-15T06:00	29989	13	-44.8	-82.4	66	11
2023-08-15T06:00	30011	13	-44.9	-82.5	70	11
2023-08-15T06:00	30063	13	-44.8	-82.4	74	11
2023-08-15T06:00	30075	13	-44.7	-82.3	77	11
2023-08-15T06:00	30115	13	-44.7	-82.3	79	11
2023-08-15T06:00	30135	12	-44.7	-82.3	82	11
2023-08-15T06:00	30182	12	-44.7	-82.3	83	11
2023-08-15T06:00	30222	12	-44.8	-82.4	85	11
2023-08-15T06:00	30250	12	-44.7	-82.3	86	11
2023-08-15T06:00	30273	12	-44.7	-82.3	87	11
2023-08-15T06:00	30299	12	-44.7	-82.3	86	11
2023-08-15T06:00	30325	12	-44.7	-82.3	85	11
2023-08-15T06:00	30350	12	-44.8	-82.4	83	10
2023-08-15T06:00	30392	12	-44.7	-82.3	80	10
2023-08-15T06:00	30432	12	-44.5	-82.2	77	10
2023-08-15T06:00	30469	12	-44.4	-82.1	74	10
2023-08-15T06:00	30497	12	-44.4	-82.1	72	10
2023-08-15T06:00	30512	12	-44.1	-81.9	71	10
2023-08-15T06:00	30555	12	-43.9	-81.8	70	10
2023-08-15T06:00	30593	12	-43.6	-81.5	70	10
2023-08-15T06:00	30627	12	-43.3	-81.3	70	10
2023-08-15T06:00	30642	12	-43.3	-81.3	71	10
2023-08-15T06:00	30677	11	-43.3	-81.3	71	11
2023-08-15T06:00	30729	11	-43.4	-81.4	72	11
2023-08-15T06:00	30742	11	-43.4	-81.4	72	12
2023-08-15T06:00	30785	11	-43.3	-81.3	73	12
2023-08-15T06:00	30824	11	-43.2	-81.3	73	13
2023-08-15T06:00	30834	11	-43.2	-81.3	74	13
2023-08-15T06:00	30874	11	-43.2	-81.3	75	13
2023-08-15T06:00	30915	11	-43.0	-81.1	76	13
2023-08-15T06:00	30945	11	-42.7	-80.9	78	13
2023-08-15T06:00	30985	11	-42.5	-80.8	81	13
2023-08-15T06:00	31001	11	-42.3	-80.6	84	13
2023-08-15T06:00	31040	11	-42.3	-80.6	88	13
2023-08-15T06:00	31066	11	-42.4	-80.7	91	13
2023-08-15T06:00	31098	11	-42.4	-80.7	95	12
2023-08-15T06:00	31148	11	-42.5	-80.8	97	12
2023-08-15T06:00	31184	11	-42.4	-80.7	100	13
2023-08-15T06:00	31204	11	-42.3	-80.6	102	13
2023-08-15T06:00	31245	11	-42.4	-80.7	104	13
2023-08-15T06:00	31277	11	-42.4	-80.7	105	13
2023-08-15T06:00	31305	10	-42.2	-80.6	104	13
2023-08-15T12:00	-999					
2023-08-15T12:00	133	1001	27.5	18.5	239	2
2023-08-15T12:00	154	999	27.2	18.2	229	3
2023-08-15T12:00	179	996	27.0	18.0	222	3
2023-08-15T12:00	204	993	26.8	18.2	216	3
2023-08-15T12:00	231	990	26.7	18.5	210	3
2023-08-15T12:00	257	987	26.5	18.3	206	2
2023-08-15T12:00	284	984	26.2	18.3	205	2
2023-08-15T12:00	316	980	25.8	18.1	208	2
2023-08-15T12:00	351	977	25.6	18.2	213	3
2023-08-15T12:00	385	973	25.2	18.1	217	3
2023-08-15T12:00	410	970	24.8	17.8	218	3
2023-08-15T12:00	429	968	24.5	17.7	220	3
2023-08-15T12:00	450	966	24.3	17.7	222	3
2023-08-15T12:00	472	963	24.1	17.7	227	3
2023-08-15T12:00	498	960	23.8	17.6	234	3
2023-08-15T12:00	530	957	23.5	17.6	242	2
2023-08-15T12:00	564	953	23.2	17.5	246	2
2023-08-15T12:00	588	950	22.9	17.6	244	2
2023-08-15T12:00	619	947	22.7	17.5	237	2
2023-08-15T12:00	646	944	22.4	17.5	229	3
2023-08-15T12:00	669	942	22.2	17.5	226	3
2023-08-15T12:00	686	940	22.0	17.2	225	4
2023-08-15T12:00	707	938	21.8	17.2	225	4
2023-08-15T12:00	728	935	21.7	17.2	225	4
2023-08-15T12:00	749	933	21.5	17.0	223	4
2023-08-15T12:00	775	930	21.3	17.0	218	4
2023-08-15T12:00	797	928	21.1	17.0	211	4
2023-08-15T12:00	822	925	20.8	17.0	205	4
2023-08-15T12:00	844	923	20.6	16.9	201	5
2023-08-15T12:00	866	921	20.4	16.7	200	5
2023-08-15T12:00	889	918	20.4	16.2	201	5
2023-08-15T12:00	908	916	20.4	16.0	204	6
2023-08-15T12:00	933	913	20.8	15.4	207	6
2023-08-15T12:00	955	911	21.3	14.9	210	7
2023-08-15T12:00	979	909	21.9	14.9	214	7
2023-08-15T12:00	1000	906	21.9	14.9	217	7
2023-08-15T12:00	1028	904	21.8	14.7	220	8
2023-08-15T12:00	1054	901	21.7	14.6	223	8
2023-08-15T12:00	1085	898	21.4	14.3	226	8
2023-08-15T12:00	1118	894	21.2	14.1	229	8
2023-08-15T12:00	1140	892	21.0	14.2	233	8
2023-08-15T12:00	1166	889	20.7	14.2	236	8
2023-08-15T12:00	1193	887	20.5	13.9	239	9
2023-08-15T12:00	1214	884	20.3	14.1	240	9
2023-08-15T12:00	1237	882	20.1	14.0	241	9
2023-08-15T12:00	1258	880	19.9	13.7	241	9
2023-08-15T12:00	1285	877	19.8	12.9	243	8
2023-08-15T12:00	1306	875	19.6	12.9	244	8
2023-08-15T12:00	1328	873	19.4	12.8	244	8
2023-08-15T12:00	1350	871	19.2	12.8	243	9
2023-08-15T12:00	1370	869	19.0	12.6	242	9
2023-08-15T12:00	1391	867	18.8	12.5	241	9
2023-08-15T12:00	1412	864	18.6	12.2	241	9
2023-08-15T12:00	1442	862	18.4	12.0	242	8
2023-08-15T12:00	1465	859	18.2	11.8	244	8
2023-08-15T12:00	1486	857	18.0	11.9	246	7
2023-08-15T12:00	1513	854	17.7	11.8	248	7
2023-08-15T12:00	1536	852	17.5	11.7	248	6
2023-08-15T12:00	1559	850	17.4	11.4	248	7
2023-08-15T12:00	1581	847	17.3	11.2	248	7
2023-08-15T12:00	1607	845	17.1	10.7	248	8
2023-08-15T12:00	1629	843	17.1	10.2	247	8
2023-08-15T12:00	1654	840	17.1	10.1	245	8
2023-08-15T12:00	1686	837	17.1	9.9	243	9
2023-08-15T12:00	1713	835	17.0	9.8	240	9
2023-08-15T12:00	1736	832	16.8	9.7	237	9
2023-08-15T12:00	1759	830	16.7	9.5	234	9
2023-08-15T12:00	1779	828	16.5	9.5	231	9
2023-08-15T12:00	1808	825	16.3	9.3	227	9
2023-08-15T12:00	1834	823	16.2	9.1	223	9
2023-08-15T12:00	1858	820	15.9	8.9	219	9
2023-08-15T12:00	1883	818	15.7	8.8	216	10
2023-08-15T12:00	1912	815	15.6	8.3	215	10
2023-08-15T12:00	1938	813	15.4	8.2	216	10
2023-08-15T12:00	1962	811	15.2	8.0	217	11
2023-08-15T12:00	1984	808	15.1	7.7	217	11
2023-08-15T12:00	2003	806	14.9	7.7	218	11
2023-08-15T12:00	2034	804	14.8	6.9	218	11
2023-08-15T12:00	2057	801	14.9	6.2	218	12
2023-08-15T12:00	2084	799	14.8	6.0	217	12
2023-08-15T12:00	2109	796	14.6	5.6	217	13
2023-08-15T12:00	2138	794	14.5	6.0	215	13
2023-08-15T12:00	2159	792	14.3	6.1	213	13
2023-08-15T12:00	2182	789	14.2	5.9	211	13
2023-08-15T12:00	2211	787	14.0	5.8	209	13
2023-08-15T12:00	2235	785	13.8	5.4	207	13
2023-08-15T12:00	2265	782	13.6	4.5	206	13
2023-08-15T12:00	2286	780	13.5	4.5	205	13
2023-08-15T12:00	2311	778	13.3	4.7	204	14
2023-08-15T12:00	2334	776	13.1	4.4	203	14
2023-08-15T12:00	2353	773	13.0	4.3	202	14
2023-08-15T12:00	2381	771	12.8	4.0	201	15
2023-08-15T12:00	2407	769	12.6	4.0	200	15
2023-08-15T12:00	2432	767	12.4	4.3	201	15
2023-08-15T12:00	2453	765	12.3	4.5	202	15
2023-08-15T12:00	2477	763	12.1	4.6	203	14
2023-08-15T12:00	2498	761	11.9	4.4	205	14
2023-08-15T12:00	2519	759	11.7	4.7	208	14
2023-08-15T12:00	2541	757	11.5	4.9	210	15
2023-08-15T12:00	2563	754	11.3	5.1	213	15
2023-08-15T12:00	2594	752	11.0	4.9	216	15
2023-08-15T12:00	2618	750	10.9	5.1	218	15
2023-08-15T12:00	2638	748	10.8	5.0	219	14
2023-08-15T12:00	2663	746	10.7	4.7	220	14
2023-08-15T12:00	2686	744	10.6	4.1	220	14
2023-08-15T12:00	2712	741	10.4	4.0	219	14
2023-08-15T12:00	2740	739	10.2	4.1	218	14
2023-08-15T12:00	2764	736	9.9	4.2	218	15
2023-08-15T12:00	2794	734	9.7	4.0	217	15
2023-08-15T12:00	2813	732	9.5	3.9	217	15
2023-08-15T12:00	2842	730	9.3	3.9	217	15
2023-08-15T12:00	2863	728	9.1	3.9	217	15
2023-08-15T12:00	2883	726	8.9	3.9	215	16
2023-08-15T12:00	2902	724	8.7	3.7	214	16
2023-08-15T12:00	2923	723	8.5	3.6	212	15
2023-08-15T12:00	2940	721	8.4	3.4	211	15
2023-08-15T12:00	2960	719	8.2	3.2	211	15
2023-08-15T12:00	2987	717	8.0	3.0	210	15
2023-08-15T12:00	3012	715	7.8	3.0	209	15
2023-08-15T12:00	3030	713	7.6	3.0	207	15
2023-08-15T12:00	3058	711	7.4	2.9	206	15
2023-08-15T12:00	3087	709	7.2	2.8	206	15
2023-08-15T12:00	3116	706	7.0	2.4	206	15
2023-08-15T12:00	3141	704	6.7	2.6	207	15
2023-08-15T12:00	3166	702	6.5	2.7	209	15
2023-08-15T12:00	3187	700	6.3	2.7	210	15
2023-08-15T12:00	3212	698	6.1	2.4	209	15
2023-08-15T12:00	3232	696	6.0	2.1	208	15
2023-08-15T12:00	3249	695	5.8	2.3	207	15
2023-08-15T12:00	3277	692	5.6	2.7	205	15
2023-08-15T12:00	3301	691	5.4	2.7	203	16
2023-08-15T12:00	3316	689	5.3	2.7	202	15
2023-08-15T12:00	3341	687	5.1	2.7	202	15
2023-08-15T12:00	3371	685	4.9	2.1	202	15
2023-08-15T12:00	3391	683	4.8	1.7	203	15
2023-08-15T12:00	3418	680	4.6	1.3	205	16
2023-08-15T12:00	3447	678	4.4	0.6	207	16
2023-08-15T12:00	3471	676	4.2	0.8	209	17
2023-08-15T12:00	3492	674	4.1	1.0	211	17
2023-08-15T12:00	3512	673	3.9	1.2	213	17
2023-08-15T12:00	3537	671	3.8	0.9	214	17
2023-08-15T12:00	3562	669	3.6	0.8	216	16
2023-08-15T12:00	3582	667	3.5	0.8	216	16
2023-08-15T12:00	3608	665	3.4	0.9	216	16
2023-08-15T12:00	3630	663	3.3	1.2	215	16
2023-08-15T12:00	3655	661	3.2	1.2	216	16
2023-08-15T12:00	3675	659	3.2	0.7	216	16
2023-08-15T12:00	3693	658	3.1	0.5	216	16
2023-08-15T12:00	3713	656	3.0	0.3	216	16
2023-08-15T12:00	3742	654	3.0	0.0	216	16
2023-08-15T12:00	3766	652	2.8	-0.2	217	16
2023-08-15T12:00	3803	649	2.5	-0.4	218	17
2023-08-15T12:00	3834	647	2.3	-0.9	219	18
2023-08-15T12:00	3855	645	2.2	-1.0	220	18
2023-08-15T12:00	3875	643	2.1	-1.5	221	18
2023-08-15T12:00	3891	642	2.0	-1.5	222	18
2023-08-15T12:00	3911	641	1.9	-1.5	222	18
2023-08-15T12:00	3927	639	1.8	-1.7	222	18
2023-08-15T12:00	3948	637	1.6	-1.9	222	18
2023-08-15T12:00	3971	636	1.5	-1.8	221	18
2023-08-15T12:00	3996	634	1.2	-2.0	222	18
2023-08-15T12:00	4023	631	1.1	-2.4	222	19
2023-08-15T12:00	4054	629	0.9	-2.9	223	18
2023-08-15T12:00	4085	627	0.6	-3.0	225	18
2023-08-15T12:00	4115	624	0.3	-2.9	226	18
2023-08-15T12:00	4141	622	0.1	-2.5	227	18
2023-08-15T12:00	4167	620	-0.1	-3.0	227	18
2023-08-15T12:00	4188	619	-0.2	-3.0	228	19
2023-08-15T12:00	4216	617	-0.4	-3.7	229	19
2023-08-15T12:00	4247	614	-0.6	-4.1	230	19
2023-08-15T12:00	4272	612	-0.7	-4.4	232	18
2023-08-15T12:00	4295	611	-0.9	-4.5	232	18
2023-08-15T12:00	4319	609	-1.1	-4.4	233	18
2023-08-15T12:00	4350	606	-1.4	-4.4	233	18
2023-08-15T12:00	4374	604	-1.7	-4.3	233	19
2023-08-15T12:00	4398	603	-1.9	-4.2	234	19
2023-08-15T12:00	4418	601	-2.1	-3.8	234	19
2023-08-15T12:00	4439	599	-2.3	-3.8	234	20
2023-08-15T12:00	4470	597	-2.6	-3.6	234	20
2023-08-15T12:00	4499	595	-2.9	-3.7	233	20
2023-08-15T12:00	4517	594	-3.1	-3.7	232	20
2023-08-15T12:00	4547	591	-3.4	-3.8	231	20
2023-08-15T12:00	4579	589	-3.7	-4.0	231	20
2023-08-15T12:00	4603	587	-3.9	-3.9	232	19
2023-08-15T12:00	4632	585	-4.1	-4.2	233	19
2023-08-15T12:00	4653	584	-4.3	-4.4	234	19
2023-08-15T12:00	4677	582	-4.4	-4.4	234	19
2023-08-15T12:00	4706	580	-4.4	-4.4	233	19
2023-08-15T12:00	4733	578	-4.6	-4.6	233	19
2023-08-15T12:00	4754	576	-4.8	-4.8	233	19
2023-08-15T12:00	4774	575	-5.0	-5.0	233	19
2023-08-15T12:00	4802	573	-5.3		234	19
2023-08-15T12:00	4834	570	-5.6	-5.6	235	18
2023-08-15T12:00	4858	569	-5.7	-5.7	236	18
2023-08-15T12:00	4885	567	-5.9	-5.9	238	17
2023-08-15T12:00	4909	565	-6.0	-6.0	239	17
2023-08-15T12:00	4931	563	-6.2	-6.2	240	16
2023-08-15T12:00	4952	562	-6.4	-6.4	240	16
2023-08-15T12:00	4971	560	-6.6	-6.6	238	16
2023-08-15T12:00	5000	558	-6.7	-7.0	236	16
2023-08-15T12:00	5025	557	-6.9	-7.4	235	17
2023-08-15T12:00	5052	555	-7.2	-7.9	235	17
2023-08-15T12:00	5081	553	-7.2	-7.7	236	17
2023-08-15T12:00	5107	551	-7.4	-7.8	236	17
2023-08-15T12:00	5127	549	-7.4	-8.0	236	17
2023-08-15T12:00	5150	548	-7.2	-8.1	235	17
2023-08-15T12:00	5175	546	-7.3	-8.1	233	18
2023-08-15T12:00	5202	544	-7.4	-8.3	232	18
2023-08-15T12:00	5225	542	-7.6	-8.5	231	18
2023-08-15T12:00	5251	541	-7.7	-8.4	231	18
2023-08-15T12:00	5274	539	-7.9	-8.4	231	18
2023-08-15T12:00	5295	538	-8.1	-8.6	232	18
2023-08-15T12:00	5323	536	-8.3	-8.7	234	18
2023-08-15T12:00	5353	534	-8.3	-9.2	235	17
2023-08-15T12:00	5371	532	-7.9	-10.1	237	17
2023-08-15T12:00	5397	531	-7.6	-11.0	238	17
2023-08-15T12:00	5429	529	-7.8	-11.1	238	17
2023-08-15T12:00	5445	527	-8.0	-11.2	238	17
2023-08-15T12:00	5461	526	-8.1	-11.5	238	17
2023-08-15T12:00	5480	525	-8.2	-11.5	238	17
2023-08-15T12:00	5499	524	-8.3	-11.8	237	17
2023-08-15T12:00	5519	522	-8.4	-11.9	237	17
2023-08-15T12:00	5548	521	-8.7	-12.0	237	17
2023-08-15T12:00	5575	519	-8.9	-12.2	236	18
2023-08-15T12:00	5604	517	-9.1	-12.4	235	18
2023-08-15T12:00	5619	516	-9.3	-12.5	234	18
2023-08-15T12:00	5636	515	-9.3	-12.7	233	18
2023-08-15T12:00	5654	513	-9.4	-12.9	232	18
2023-08-15T12:00	5673	512	-9.6	-12.9	231	18
2023-08-15T12:00	5698	510	-9.6	-14.0	229	17
2023-08-15T12:00	5727	509	-9.6	-14.9	228	17
2023-08-15T12:00	5758	507	-9.7	-15.6	226	17
2023-08-15T12:00	5782	505	-9.9	-15.8	225	17
2023-08-15T12:00	5797	504	-10.0	-16.1	224	18
2023-08-15T12:00	5816	503	-10.0	-16.9	223	18
2023-08-15T12:00	5836	501	-10.0		222	18
2023-08-15T12:00	5858	500	-9.9	-18.1	221	18
2023-08-15T12:00	5886	498	-9.8	-16.6	218	18
2023-08-15T12:00	5917	496	-9.9	-15.6	215	17
2023-08-15T12:00	5939	495	-9.9	-16.0	213	17
2023-08-15T12:00	5969	493	-10.1	-16.8	211	17
2023-08-15T12:00	5988	492	-10.2	-17.2	211	17
2023-08-15T12:00	6010	490	-10.5	-17.4	211	17
2023-08-15T12:00	6029	489	-10.6	-18.0	211	18
2023-08-15T12:00	6051	488	-10.8	-18.0	210	18
2023-08-15T12:00	6076	486	-10.9	-19.7	210	18
2023-08-15T12:00	6105	484	-11.2	-21.9	210	18
2023-08-15T12:00	6135	482	-11.4	-23.4	210	18
2023-08-15T12:00	6163	481	-11.5	-24.3	210	18
2023-08-15T12:00	6193	479	-11.7	-25.1	210	18
2023-08-15T12:00	6227	477	-11.8	-24.9	210	18
2023-08-15T12:00	6253	475	-12.1	-23.9	210	18
2023-08-15T12:00	6278	473	-12.3	-23.6	212	18
2023-08-15T12:00	6311	471	-12.6	-23.1	213	18
2023-08-15T12:00	6354	469	-13.0	-20.8	215	18
2023-08-15T12:00	6382	467	-13.2	-20.4	217	18
2023-08-15T12:00	6413	465	-13.5	-19.8	218	18
2023-08-15T12:00	6433	464	-13.7	-19.9	219	18
2023-08-15T12:00	6452	463	-13.9	-19.9	219	18
2023-08-15T12:00	6475	461	-14.1	-20.0	218	18
2023-08-15T12:00	6497	460	-14.3	-20.1	218	17
2023-08-15T12:00	6523	458	-14.5	-21.4	217	17
2023-08-15T12:00	6560	456	-14.8	-22.7	216	17
2023-08-15T12:00	6590	454	-15.0	-23.4	216	17
2023-08-15T12:00	6623	452	-15.2	-24.5	217	17
2023-08-15T12:00	6650	451	-15.4	-24.6	218	18
2023-08-15T12:00	6679	449	-15.6	-23.8	219	18
2023-08-15T12:00	6714	447	-15.9	-23.4	221	18
2023-08-15T12:00	6746	445	-16.0	-23.0	222	18
2023-08-15T12:00	6774	443	-16.0	-23.8	223	18
2023-08-15T12:00	6799	442	-16.2	-24.1	223	18
2023-08-15T12:00	6830	440	-16.4	-25.7	223	17
2023-08-15T12:00	6862	438	-16.5	-25.0	222	17
2023-08-15T12:00	6892	436	-16.7	-25.8	221	16
2023-08-15T12:00	6932	434	-16.8	-27.6	219	16
2023-08-15T12:00	6958	433	-17.0	-28.2	218	16
2023-08-15T12:00	6977	432	-17.1	-28.0	218	16
2023-08-15T12:00	6994	431	-17.3	-27.8	217	16
2023-08-15T12:00	7014	430	-17.4	-27.8	217	16
2023-08-15T12:00	7031	428	-17.5	-28.2	216	16
2023-08-15T12:00	7050	427	-17.7	-27.8	215	16
2023-08-15T12:00	7072	426	-17.8	-27.2	214	16
2023-08-15T12:00	7092	425	-17.9	-27.5	214	16
2023-08-15T12:00	7114	424	-18.1	-26.6	213	16
2023-08-15T12:00	7142	422	-18.3	-26.8	214	16
2023-08-15T12:00	7174	420	-18.4	-27.5	215	17
2023-08-15T12:00	7205	419	-18.7	-27.8	215	17
2023-08-15T12:00	7243	417	-19.0	-28.1	215	17
2023-08-15T12:00	7269	415	-19.2	-28.4	215	18
2023-08-15T12:00	7290	414	-19.3	-28.8	214	18
2023-08-15T12:00	7310	413	-19.4	-29.2	213	17
2023-08-15T12:00	7330	412	-19.5	-29.3	213	17
2023-08-15T12:00	7351	410	-19.7	-29.0	213	17
2023-08-15T12:00	7374	409	-19.9	-28.9	212	17
2023-08-15T12:00	7393	408	-20.0	-29.0	212	17
2023-08-15T12:00	7416	407	-20.2	-29.3	213	17
2023-08-15T12:00	7439	406	-20.5	-28.9	213	17
2023-08-15T12:00	7468	404	-20.7	-28.9	213	17
2023-08-15T12:00	7500	402	-21.0	-29.0	214	17
2023-08-15T12:00	7535	400	-21.4	-29.0	214	17
2023-08-15T12:00	7565	399	-21.7	-29.1	215	17
2023-08-15T12:00	7597	397	-22.0		215	16
2023-08-15T12:00	7620	396	-22.2	-28.9	215	16
2023-08-15T12:00	7648	394	-22.5	-28.9	216	16
2023-08-15T12:00	7667	393	-22.7	-27.6	216	16
2023-08-15T12:00	7689	392	-22.8	-26.9	216	16
2023-08-15T12:00	7716	391	-22.9	-28.0	216	17
2023-08-15T12:00	7745	389	-23.1	-29.3	215	17
2023-08-15T12:00	7774	387	-23.3	-30.5	215	17
2023-08-15T12:00	7811	386	-23.5	-31.6	214	16
2023-08-15T12:00	7834	384	-23.5	-35.1	214	16
2023-08-15T12:00	7860	383	-23.6	-35.7	214	16
2023-08-15T12:00	7884	382	-23.7	-35.6	213	16
2023-08-15T12:00	7910	380	-23.8	-36.4	213	16
2023-08-15T12:00	7935	379	-23.9	-37.0	213	16
2023-08-15T12:00	7967	377	-24.2	-37.7	212	16
2023-08-15T12:00	8001	376	-24.4	-37.4	212	15
2023-08-15T12:00	8026	374	-24.7	-36.5	212	15
2023-08-15T12:00	8056	373	-25.0	-36.3	212	15
2023-08-15T12:00	8084	372	-25.1	-37.3	212	15
2023-08-15T12:00	8107	370	-25.3	-38.2	211	15
2023-08-15T12:00	8133	369	-25.5	-39.5	210	15
2023-08-15T12:00	8162	367	-25.7	-40.1	209	15
2023-08-15T12:00	8194	366	-25.9	-41.3	209	15
2023-08-15T12:00	8229	364	-26.2	-41.7	209	15
2023-08-15T12:00	8260	363	-26.5	-42.1	210	15
2023-08-15T12:00	8288	361	-26.8	-42.3	210	15
2023-08-15T12:00	8317	360	-27.0	-42.7	211	14
2023-08-15T12:00	8344	358	-27.2	-43.4	212	13
2023-08-15T12:00	8366	357	-27.4	-43.9	212	13
2023-08-15T12:00	8385	356	-27.4	-44.3	212	13
2023-08-15T12:00	8404	355	-27.6	-44.3	211	13
2023-08-15T12:00	8424	354	-27.7	-45.0	210	13
2023-08-15T12:00	8444	353	-27.8	-45.9	210	14
2023-08-15T12:00	8462	352	-27.9	-44.9	210	14
2023-08-15T12:00	8482	352	-28.0	-45.2	211	14
2023-08-15T12:00	8499	351	-28.1	-45.5	211	14
2023-08-15T12:00	8520	350	-28.3	-45.8	212	14
2023-08-15T12:00	8538	349	-28.5	-45.8	212	14
2023-08-15T12:00	8557	348	-28.6	-46.0	213	14
2023-08-15T12:00	8577	347	-28.8	-46.2	213	14
2023-08-15T12:00	8595	346	-29.0	-46.2	213	14
2023-08-15T12:00	8615	345	-29.1	-46.2	213	14
2023-08-15T12:00	8633	344	-29.4	-46.3	212	14
2023-08-15T12:00	8653	343	-29.5	-46.3	212	14
2023-08-15T12:00	8674	342	-29.7	-46.1	211	14
2023-08-15T12:00	8694	341	-29.9	-46.2	211	14
2023-08-15T12:00	8715	340	-30.1	-46.2	211	14
2023-08-15T12:00	8738	339	-30.3	-46.1	212	14
2023-08-15T12:00	8760	338	-30.5	-46.3	213	14
2023-08-15T12:00	8787	337	-30.8	-46.0	215	14
2023-08-15T12:00	8824	335	-31.0	-45.8	215	14
2023-08-15T12:00	8856	334	-31.3	-46.9	215	14
2023-08-15T12:00	8885	332	-31.5	-46.4	215	14
2023-08-15T12:00	8912	331	-31.7	-44.4	214	14
2023-08-15T12:00	8935	330	-31.9	-43.4	213	14
2023-08-15T12:00	8958	329	-32.1	-43.3	213	14
2023-08-15T12:00	8984	328	-32.3	-44.5	213	13
2023-08-15T12:00	9008	326	-32.4	-44.9	214	13
2023-08-15T12:00	9032	325	-32.7	-44.9	214	13
2023-08-15T12:00	9052	324	-32.9	-44.5	215	13
2023-08-15T12:00	9073	323	-33.0	-43.3	215	13
2023-08-15T12:00	9091	323	-33.2	-43.4	215	13
2023-08-15T12:00	9112	322	-33.4	-43.5	215	13
2023-08-15T12:00	9130	321	-33.6	-43.6	216	13
2023-08-15T12:00	9148	320	-33.8	-43.7	216	13
2023-08-15T12:00	9167	319	-34.0	-43.6	216	13
2023-08-15T12:00	9186	318	-34.1	-43.7	216	13
2023-08-15T12:00	9205	317	-34.3	-43.8	216	13
2023-08-15T12:00	9223	317	-34.5	-43.8	215	13
2023-08-15T12:00	9241	316	-34.7	-44.1	215	13
2023-08-15T12:00	9261	315	-34.8	-44.3	215	13
2023-08-15T12:00	9280	314	-35.1	-44.4	215	13
2023-08-15T12:00	9298	313	-35.3	-44.4	215	13
2023-08-15T12:00	9319	312	-35.4	-44.7	215	13
2023-08-15T12:00	9338	311	-35.7	-44.9	215	13
2023-08-15T12:00	9359	311	-35.8	-45.0	215	13
2023-08-15T12:00	9378	310	-36.1	-45.3	216	13
2023-08-15T12:00	9396	309	-36.2	-45.6	216	13
2023-08-15T12:00	9416	308	-36.3	-45.7	216	13
2023-08-15T12:00	9436	307	-36.5	-46.5	217	13
2023-08-15T12:00	9454	306	-36.7	-46.5	218	13
2023-08-15T12:00	9474	305	-36.8	-46.8	218	14
2023-08-15T12:00	9492	305	-36.9	-47.0	218	14
2023-08-15T12:00	9512	304	-37.0	-47.3	218	14
2023-08-15T12:00	9530	303	-37.2	-47.4	217	14
2023-08-15T12:00	9550	302	-37.3	-47.5	216	14
2023-08-15T12:00	9568	301	-37.5	-47.7	216	15
2023-08-15T12:00	9588	300	-37.7	-48.3	216	15
2023-08-15T12:00	9606	300	-37.6	-49.6	216	15
2023-08-15T12:00	9624	299	-37.6	-49.7	216	15
2023-08-15T12:00	9643	298	-37.7	-49.5	216	16
2023-08-15T12:00	9661	297	-37.8	-51.6	216	16
2023-08-15T12:00	9682	296	-37.8	-51.5	216	16
2023-08-15T12:00	9701	296	-38.0	-50.0	216	16
2023-08-15T12:00	9720	295	-38.1	-50.5	215	16
2023-08-15T12:00	9739	294	-38.3	-50.9	215	16
2023-08-15T12:00	9761	293	-38.5	-51.1	215	15
2023-08-15T12:00	9783	292	-38.6	-51.8	215	15
2023-08-15T12:00	9805	291	-38.8		215	14
2023-08-15T12:00	9825	290	-38.9	-53.1	215	14
2023-08-15T12:00	9846	289	-39.1	-53.3	214	14
2023-08-15T12:00	9871	288	-39.4	-53.3	214	14
2023-08-15T12:00	9889	288	-39.5	-53.6	214	14
2023-08-15T12:00	9910	287	-39.7	-53.8	214	14
2023-08-15T12:00	9929	286	-39.9	-54.2	214	14
2023-08-15T12:00	9955	285	-40.2	-54.8	215	14
2023-08-15T12:00	9973	284	-40.3	-55.2	215	13
2023-08-15T12:00	9997	283	-40.5	-55.2	216	13
2023-08-15T12:00	10017	282	-40.7	-55.3	216	13
2023-08-15T12:00	10035	281	-40.9	-55.5	216	13
2023-08-15T12:00	10052	281	-41.0	-55.4	217	13
2023-08-15T12:00	10074	280	-41.2	-55.5	216	13
2023-08-15T12:00	10093	279	-41.3	-55.7	215	13
2023-08-15T12:00	10111	278	-41.4	-55.7	214	13
2023-08-15T12:00	10129	278	-41.6	-55.5	213	13
2023-08-15T12:00	10151	277	-41.7	-55.4	212	13
2023-08-15T12:00	10168	276	-42.0	-55.6	211	13
2023-08-15T12:00	10189	275	-42.2	-55.5	211	13
2023-08-15T12:00	10211	274	-42.4	-55.1	210	13
2023-08-15T12:00	10229	273	-42.5	-54.2	210	14
2023-08-15T12:00	10250	273	-42.6	-54.0	209	13
2023-08-15T12:00	10268	272	-42.7	-54.3	209	13
2023-08-15T12:00	10290	271	-42.9	-54.4	209	13
2023-08-15T12:00	10309	270	-43.1	-54.6	209	13
2023-08-15T12:00	10327	270	-43.3	-54.7	209	13
2023-08-15T12:00	10347	269	-43.4	-54.7	209	13
2023-08-15T12:00	10369	268	-43.6	-54.7	208	13
2023-08-15T12:00	10392	267	-43.8	-54.9	208	13
2023-08-15T12:00	10418	266	-44.0	-55.0	208	13
2023-08-15T12:00	10440	265	-44.3	-55.1	208	13
2023-08-15T12:00	10462	264	-44.4	-55.2	208	13
2023-08-15T12:00	10484	263	-44.7	-55.3	209	13
2023-08-15T12:00	10504	263	-44.9	-55.3	210	13
2023-08-15T12:00	10523	262	-45.0	-55.6	211	13
2023-08-15T12:00	10541	261	-45.1	-56.0	212	13
2023-08-15T12:00	10558	260	-45.2	-56.4	212	13
2023-08-15T12:00	10579	260	-45.3	-56.7	213	12
2023-08-15T12:00	10596	259	-45.4	-56.9	213	12
2023-08-15T12:00	10617	258	-45.5	-56.9	214	12
2023-08-15T12:00	10636	257	-45.7	-56.9	214	12
2023-08-15T12:00	10656	257	-45.8	-57.0	215	12
2023-08-15T12:00	10674	256	-45.9	-57.1	216	12
2023-08-15T12:00	10696	255	-46.0	-57.1	216	12
2023-08-15T12:00	10716	254	-46.2	-57.3	217	12
2023-08-15T12:00	10737	254	-46.3	-57.7	217	11
2023-08-15T12:00	10756	253	-46.4	-57.9	217	11
2023-08-15T12:00	10775	252	-46.6	-57.8	217	11
2023-08-15T12:00	10795	251	-46.7	-57.7	217	11
2023-08-15T12:00	10814	251	-46.8	-57.9	217	11
2023-08-15T12:00	10835	250	-46.9	-58.2	217	11
2023-08-15T12:00	10857	249	-47.0	-58.4	217	11
2023-08-15T12:00	10876	248	-47.1	-58.6	217	11
2023-08-15T12:00	10901	247	-47.3	-58.6	217	11
2023-08-15T12:00	10921	247	-47.5	-58.6	217	11
2023-08-15T12:00	10943	246	-47.7	-58.6	217	11
2023-08-15T12:00	10963	245	-47.8	-58.3	217	11
2023-08-15T12:00	10982	244	-48.0	-58.0	217	11
2023-08-15T12:00	11001	244	-48.2	-57.7	218	11
2023-08-15T12:00	11024	243	-48.3	-57.0	219	11
2023-08-15T12:00	11044	242	-48.5	-56.8	219	11
2023-08-15T12:00	11069	241	-48.6	-57.7	219	11
2023-08-15T12:00	11093	240	-48.8	-58.6	219	12
2023-08-15T12:00	11116	239	-49.1	-59.1	218	12
2023-08-15T12:00	11142	238	-49.1	-59.5	217	13
2023-08-15T12:00	11162	238	-49.3	-59.8	217	13
2023-08-15T12:00	11184	237	-49.6	-60.0	216	14
2023-08-15T12:00	11205	236	-49.7	-60.5	215	14
2023-08-15T12:00	11225	235	-49.8	-60.9	213	14
2023-08-15T12:00	11246	235	-50.0	-61.2	212	14
2023-08-15T12:00	11268	234	-50.0	-61.3	211	14
2023-08-15T12:00	11288	233	-50.1	-61.3	210	14
2023-08-15T12:00	11308	232	-50.3	-61.3	209	13
2023-08-15T12:00	11331	232	-50.3	-61.2	209	13
2023-08-15T12:00	11348	231	-50.5	-61.2	209	13
2023-08-15T12:00	11368	230	-50.7	-61.2	209	13
2023-08-15T12:00	11390	230	-50.9	-61.1	209	13
2023-08-15T12:00	11409	229	-51.1	-61.2	209	13
2023-08-15T12:00	11430	228	-51.3	-61.2	208	13
2023-08-15T12:00	11449	227	-51.4	-61.1	208	13
2023-08-15T12:00	11470	227	-51.6	-61.2	207	13
2023-08-15T12:00	11489	226	-51.8	-61.3	207	13
2023-08-15T12:00	11512	225	-52.0	-61.4	207	12
2023-08-15T12:00	11530	225	-52.2	-61.3	208	12
2023-08-15T12:00	11551	224	-52.4	-61.3	209	12
2023-08-15T12:00	11570	223	-52.5	-61.3	209	12
2023-08-15T12:00	11590	223	-52.6	-61.5	210	12
2023-08-15T12:00	11610	222	-52.5	-61.7	210	12
2023-08-15T12:00	11633	221	-52.6	-62.1	210	12
2023-08-15T12:00	11650	220	-52.5	-62.5	210	12
2023-08-15T12:00	11673	220	-52.2	-62.9	211	12
2023-08-15T12:00	11695	219	-52.1	-63.4	212	12
2023-08-15T12:00	11716	218	-52.2	-63.5	213	12
2023-08-15T12:00	11740	217	-52.3	-63.5	215	12
2023-08-15T12:00	11763	217	-52.5	-63.5	216	11
2023-08-15T12:00	11786	216	-52.6	-63.5	217	11
2023-08-15T12:00	11809	215	-52.7	-63.4	218	11
2023-08-15T12:00	11830	214	-52.7	-63.2	219	11
2023-08-15T12:00	11849	214	-52.6	-62.9	220	11
2023-08-15T12:00	11868	213	-52.8	-63.2	221	11
2023-08-15T12:00	11893	212	-52.9	-63.4	224	11
2023-08-15T12:00	11920	211	-53.1	-63.5	227	11
2023-08-15T12:00	11952	210	-53.3	-63.3	229	11
2023-08-15T12:00	11980	210	-53.5	-63.3	230	11
2023-08-15T12:00	12001	209	-53.7	-63.4	230	11
2023-08-15T12:00	12023	208	-53.9	-63.5	229	11
2023-08-15T12:00	12041	208	-54.1	-63.4	228	11
2023-08-15T12:00	12060	207	-54.2	-63.3	227	11
2023-08-15T12:00	12080	206	-54.4	-63.3	226	11
2023-08-15T12:00	12099	206	-54.6	-63.4	226	11
2023-08-15T12:00	12119	205	-54.8	-63.6	227	12
2023-08-15T12:00	12141	204	-55.0	-63.7	227	12
2023-08-15T12:00	12159	204	-55.1	-63.7	227	12
2023-08-15T12:00	12179	203	-55.3	-63.8	226	12
2023-08-15T12:00	12202	202	-55.5	-63.9	226	12
2023-08-15T12:00	12221	202	-55.7	-64.0	226	13
2023-08-15T12:00	12244	201	-55.9	-64.1	226	13
2023-08-15T12:00	12264	200	-56.0	-64.2	227	13
2023-08-15T12:00	12287	200	-56.2	-64.4	227	13
2023-08-15T12:00	12306	199	-56.4	-64.5	228	13
2023-08-15T12:00	12326	198	-56.6	-64.7	228	12
2023-08-15T12:00	12346	198	-56.8	-64.8	228	12
2023-08-15T12:00	12367	197	-56.9	-64.9	227	12
2023-08-15T12:00	12385	197	-57.1	-65.0	226	12
2023-08-15T12:00	12404	196	-57.3	-65.0	224	12
2023-08-15T12:00	12424	195	-57.5	-65.1	223	12
2023-08-15T12:00	12446	195	-57.6	-65.1	221	12
2023-08-15T12:00	12466	194	-57.8	-65.3	220	12
2023-08-15T12:00	12486	194	-57.8	-65.3	218	12
2023-08-15T12:00	12505	193	-58.0	-65.5	217	12
2023-08-15T12:00	12528	192	-58.1	-65.5	216	12
2023-08-15T12:00	12546	192	-58.3	-65.5	216	12
2023-08-15T12:00	12567	191	-58.5	-65.4	215	13
2023-08-15T12:00	12587	190	-58.6	-65.1	215	13
2023-08-15T12:00	12607	190	-58.8	-65.1	215	13
2023-08-15T12:00	12628	189	-59.0	-65.1	215	13
2023-08-15T12:00	12646	189	-59.2	-65.2	216	13
2023-08-15T12:00	12668	188	-59.4	-65.5	216	14
2023-08-15T12:00	12685	187	-59.5	-65.8	216	15
2023-08-15T12:00	12705	187	-59.6	-66.2	216	15
2023-08-15T12:00	12728	186	-59.6	-66.5	216	16
2023-08-15T12:00	12748	186	-59.7	-66.6	216	16
2023-08-15T12:00	12766	185	-59.7	-66.4	215	16
2023-08-15T12:00	12785	184	-59.5	-66.3	214	16
2023-08-15T12:00	12808	184	-59.5	-67.0	213	16
2023-08-15T12:00	12827	183	-59.1	-67.5	211	16
2023-08-15T12:00	12846	183	-58.5	-67.3	209	16
2023-08-15T12:00	12866	182	-58.3	-66.6	208	16
2023-08-15T12:00	12886	182	-58.2	-65.8	207	17
2023-08-15T12:00	12908	181	-58.3	-65.7	206	18
2023-08-15T12:00	12935	180	-58.2	-66.4	206	19
2023-08-15T12:00	12969	179	-57.7	-67.9	206	21
2023-08-15T12:00	12995	178	-57.4	-70.1	205	22
2023-08-15T12:00	13011	178	-57.2	-72.1	206	23
2023-08-15T12:00	13032	177	-56.9	-73.0	206	23
2023-08-15T12:00	13052	177	-56.7	-73.3	207	23
2023-08-15T12:00	13072	176	-56.7	-73.2	209	22
2023-08-15T12:00	13092	176	-56.7	-73.1	211	21
2023-08-15T12:00	13112	175	-56.7	-73.2	213	21
2023-08-15T12:00	13137	175	-56.6	-73.4	215	21
2023-08-15T12:00	13156	174	-56.3	-73.5	217	20
2023-08-15T12:00	13179	173	-56.1	-73.7	217	20
2023-08-15T12:00	13202	173	-55.9	-73.9	216	20
2023-08-15T12:00	13221	172	-55.7	-74.4	215	20
2023-08-15T12:00	13246	172	-55.1	-74.9	212	19
2023-08-15T12:00	13268	171	-54.7	-75.5	210	19
2023-08-15T12:00	13291	170	-54.8	-75.9	207	19
2023-08-15T12:00	13314	170	-54.7	-76.0	205	19
2023-08-15T12:00	13337	169	-54.8	-76.1	204	20
2023-08-15T12:00	13359	169	-55.0	-76.1	203	20
2023-08-15T12:00	13379	168	-55.1	-76.3	202	20
2023-08-15T12:00	13406	167	-55.1	-76.5	202	21
2023-08-15T12:00	13426	167	-55.1	-76.6	203	22
2023-08-15T12:00	13451	166	-55.1		203	22
2023-08-15T12:00	13474	166	-55.1	-76.9	204	23
2023-08-15T12:00	13497	165	-55.0	-76.8	205	23
2023-08-15T12:00	13515	164	-55.1	-77.0	207	24
2023-08-15T12:00	13539	164	-55.2	-77.1	208	24
2023-08-15T12:00	13562	163	-55.4	-77.3	209	25
2023-08-15T12:00	13582	163	-55.5	-77.5	210	25
2023-08-15T12:00	13603	162	-55.4	-77.6	211	24
2023-08-15T12:00	13623	162	-54.9	-77.5	212	24
2023-08-15T12:00	13646	161	-54.6	-77.2	212	24
2023-08-15T12:00	13665	161	-54.4	-77.1	212	24
2023-08-15T12:00	13686	160	-54.1	-77.0	211	24
2023-08-15T12:00	13704	160	-53.8	-77.3	211	24
2023-08-15T12:00	13723	159	-53.3	-77.4	211	25
2023-08-15T12:00	13743	159	-53.1	-77.9	211	25
2023-08-15T12:00	13760	158	-53.2	-78.2	212	25
2023-08-15T12:00	13780	158	-53.3	-78.3	212	25
2023-08-15T12:00	13798	157	-53.4	-78.3	212	25
2023-08-15T12:00	13817	157	-53.5	-78.2	213	26
2023-08-15T12:00	13834	156	-53.6	-78.3	213	26
2023-08-15T12:00	13851	156	-53.8	-78.4	214	26
2023-08-15T12:00	13872	156	-53.9	-78.3	214	26
2023-08-15T12:00	13889	155	-54.0	-78.2	215	26
2023-08-15T12:00	13911	155	-54.1	-78.3	216	26
2023-08-15T12:00	13927	154	-54.2	-78.3	216	26
2023-08-15T12:00	13946	154	-54.3	-78.6	217	26
2023-08-15T12:00	13963	153	-54.2	-78.5	218	26
2023-08-15T12:00	13983	153	-54.1	-78.5	219	25
2023-08-15T12:00	14004	152	-54.1	-78.5	220	25
2023-08-15T12:00	14023	152	-54.2	-78.7	221	24
2023-08-15T12:00	14042	151	-54.3	-78.8	222	24
2023-08-15T12:00	14062	151	-54.2	-78.7	223	23
2023-08-15T12:00	14082	150	-54.1	-78.9	223	23
2023-08-15T12:00	14105	150	-53.9	-78.7	223	22
2023-08-15T12:00	14124	150	-53.5	-78.4	223	22
2023-08-15T12:00	14145	149	-53.4	-78.3	222	21
2023-08-15T12:00	14169	149	-53.4	-78.6	222	21
2023-08-15T12:00	14190	148	-53.4	-78.8	221	20
2023-08-15T12:00	14207	148	-53.3	-78.7	221	20
2023-08-15T12:00	14231	147	-53.3	-78.9	221	20
2023-08-15T12:00	14248	147	-53.2	-78.9	222	20
2023-08-15T12:00	14270	146	-53.1	-78.8	223	20
2023-08-15T12:00	14291	146	-53.1	-78.8	224	20
2023-08-15T12:00	14312	145	-53.2	-78.9	224	21
2023-08-15T12:00	14335	145	-53.3	-78.9	225	21
2023-08-15T12:00	14354	144	-53.4	-79.0	225	21
2023-08-15T12:00	14376	144	-53.5	-79.1	225	20
2023-08-15T12:00	14397	143	-53.5	-79.1	225	20
2023-08-15T12:00	14419	143	-53.5	-79.1	225	20
2023-08-15T12:00	14441	142	-53.6	-79.2	225	20
2023-08-15T12:00	14462	142	-53.7	-79.3	226	19
2023-08-15T12:00	14483	141	-53.8	-79.3	225	19
2023-08-15T12:00	14506	141	-53.8	-79.3	225	19
2023-08-15T12:00	14526	140	-53.8	-79.6	225	19
2023-08-15T12:00	14551	140	-53.9	-79.7	225	19
2023-08-15T12:00	14574	139	-54.1	-79.8	225	19
2023-08-15T12:00	14598	139	-54.2	-79.9	226	19
2023-08-15T12:00	14618	138	-54.1	-79.8	227	19
2023-08-15T12:00	14640	138	-54.1	-80.1	229	19
2023-08-15T12:00	14663	138	-53.9	-79.9	231	18
2023-08-15T12:00	14684	137	-53.8	-79.8	233	18
2023-08-15T12:00	14708	137	-53.9	-80.2	234	18
2023-08-15T12:00	14730	136	-53.9	-80.2	234	17
2023-08-15T12:00	14753	136	-53.6	-80.2	234	17
2023-08-15T12:00	14775	135	-53.4	-80.1	233	16
2023-08-15T12:00	14797	135	-53.4	-80.4	232	16
2023-08-15T12:00	14817	134	-53.4	-80.4	230	15
2023-08-15T12:00	14839	134	-53.6	-80.5	229	14
2023-08-15T12:00	14859	133	-53.6	-80.5	227	14
2023-08-15T12:00	14883	133	-53.6	-80.5	225	13
2023-08-15T12:00	14903	132	-53.5	-80.5	224	12
2023-08-15T12:00	14920	132	-53.6	-80.5	222	12
2023-08-15T12:00	14947	132	-53.6	-80.5	221	12
2023-08-15T12:00	14967	131	-53.6	-80.5	220	12
2023-08-15T12:00	14989	131	-53.7	-80.6	219	12
2023-08-15T12:00	15007	130	-53.9	-80.8	218	12
2023-08-15T12:00	15030	130	-54.1	-80.9	216	12
2023-08-15T12:00	15050	129	-54.1	-80.9	214	12
2023-08-15T12:00	15073	129	-54.2	-81.0	211	12
2023-08-15T12:00	15093	129	-54.1	-80.9	209	12
2023-08-15T12:00	15112	128	-54.2	-81.0	207	12
2023-08-15T12:00	15136	128	-54.3	-81.1	205	12
2023-08-15T12:00	15156	127	-54.3	-80.8	204	12
2023-08-15T12:00	15179	127	-54.4	-80.9	202	13
2023-08-15T12:00	15196	127	-54.6	-81.0	201	13
2023-08-15T12:00	15220	126	-54.9	-81.3	200	13
2023-08-15T12:00	15243	126	-55.0	-81.1	198	13
2023-08-15T12:00	15262	125	-55.2	-81.2	196	13
2023-08-15T12:00	15283	125	-55.4	-81.1	194	13
2023-08-15T12:00	15307	124	-55.5	-81.2	192	13
2023-08-15T12:00	15327	124	-55.5	-81.2	192	14
2023-08-15T12:00	15346	124	-55.7	-81.3	192	14
2023-08-15T12:00	15367	123	-55.8	-81.4	193	14
2023-08-15T12:00	15388	123	-55.9	-81.5	195	15
2023-08-15T12:00	15409	122	-56.0	-81.6	197	15
2023-08-15T12:00	15429	122	-56.0	-81.6	200	16
2023-08-15T12:00	15449	122	-56.1	-81.6	202	16
2023-08-15T12:00	15468	121	-56.2	-81.7	204	17
2023-08-15T12:00	15492	121	-56.2	-81.7	205	17
2023-08-15T12:00	15512	120	-56.3	-81.8	206	17
2023-08-15T12:00	15534	120	-56.4	-82.1	207	16
2023-08-15T12:00	15556	120	-56.2	-82.0	207	16
2023-08-15T12:00	15575	119	-55.9	-82.0	206	15
2023-08-15T12:00	15598	119	-55.8	-82.0	206	14
2023-08-15T12:00	15624	118	-55.8	-82.0	205	14
2023-08-15T12:00	15643	118	-55.9	-82.0	204	14
2023-08-15T12:00	15667	118	-55.8	-82.0	202	14
2023-08-15T12:00	15693	117	-55.6	-82.1	201	14
2023-08-15T12:00	15717	117	-55.4	-81.9	199	15
2023-08-15T12:00	15738	116	-55.4	-81.9	198	15
2023-08-15T12:00	15761	116	-55.4	-81.9	197	15
2023-08-15T12:00	15783	115	-55.5	-82.0	197	15
2023-08-15T12:00	15807	115	-55.6	-82.1	198	16
2023-08-15T12:00	15831	115	-55.8	-82.2	199	16
2023-08-15T12:00	15852	114	-55.8	-82.2	200	17
2023-08-15T12:00	15876	114	-55.8	-82.0	201	17
2023-08-15T12:00	15898	113	-55.8	-82.0	203	17
2023-08-15T12:00	15922	113	-55.9	-82.0	205	16
2023-08-15T12:00	15944	113	-56.0	-82.4	206	16
2023-08-15T12:00	15970	112	-56.0	-82.4	208	16
2023-08-15T12:00	15992	112	-56.0	-82.4	209	16
2023-08-15T12:00	16008	111	-55.9	-82.3	209	16
2023-08-15T12:00	16037	111	-55.7	-82.2	209	16
2023-08-15T12:00	16058	111	-55.7	-82.2	209	16
2023-08-15T12:00	16080	110	-55.7	-82.2	210	16
2023-08-15T12:00	16098	110	-55.8	-82.2	210	16
2023-08-15T12:00	16123	109	-55.9	-82.3	210	16
2023-08-15T12:00	16144	109	-56.0	-82.4	211	15
2023-08-15T12:00	16164	109	-55.9	-82.6	212	15
2023-08-15T12:00	16184	108	-55.7	-82.5	213	14
2023-08-15T12:00	16206	108	-55.7	-82.5	213	14
2023-08-15T12:00	16228	108	-55.8	-82.5	213	14
2023-08-15T12:00	16248	107	-55.8	-82.5	212	14
2023-08-15T12:00	16269	107	-55.8	-82.2	209	14
2023-08-15T12:00	16289	107	-55.9	-82.6	206	14
2023-08-15T12:00	16313	106	-55.8	-82.5	203	14
2023-08-15T12:00	16334	106	-55.8	-82.5	201	14
2023-08-15T12:00	16356	105	-55.8	-82.5	199	14
2023-08-15T12:00	16378	105	-55.8	-82.5	197	14
2023-08-15T12:00	16397	105	-55.8	-82.5	197	14
2023-08-15T12:00	16418	104	-55.8	-82.5	197	15
2023-08-15T12:00	16437	104	-55.7	-82.5	198	15
2023-08-15T12:00	16457	104	-55.7	-82.5	200	15
2023-08-15T12:00	16477	104	-55.6	-82.4	201	15
2023-08-15T12:00	16497	103	-55.6	-82.7	203	15
2023-08-15T12:00	16512	103	-55.6	-82.4	205	15
2023-08-15T12:00	16534	103	-55.8	-82.5	206	15
2023-08-15T12:00	16558	102	-56.0	-82.7	207	15
2023-08-15T12:00	16579	102	-56.0	-82.7	208	14
2023-08-15T12:00	16600	102	-55.9	-82.6	209	14
2023-08-15T12:00	16621	101	-55.8	-82.9	210	13
2023-08-15T12:00	16644	101	-55.8	-82.9	211	13
2023-08-15T12:00	16665	100	-55.8	-82.9	212	12
2023-08-15T12:00	16688	100	-55.8	-82.9	214	12
2023-08-15T12:00	16710	100	-55.9	-82.9	216	12
2023-08-15T12:00	16730	99	-55.9	-82.9	218	11
2023-08-15T12:00	16752	99	-56.0	-83.0	220	11
2023-08-15T12:00	16771	99	-56.1	-83.1	220	10
2023-08-15T12:00	16796	98	-56.2	-83.2	219	10
2023-08-15T12:00	16821	98	-56.0	-83.0	217	10
2023-08-15T12:00	16839	98	-55.9	-82.9	213	10
2023-08-15T12:00	16866	97	-55.9	-82.9	209	10
2023-08-15T12:00	16888	97	-55.9	-82.9	206	11
2023-08-15T12:00	16914	97	-56.1	-83.1	203	11
2023-08-15T12:00	16936	96	-56.2	-83.2	200	11
2023-08-15T12:00	16960	96	-56.3	-83.3	199	11
2023-08-15T12:00	16983	96	-56.4	-83.3	198	11
2023-08-15T12:00	17006	95	-56.5	-83.4	198	11
2023-08-15T12:00	17031	95	-56.4	-83.3	198	11
2023-08-15T12:00	17058	94	-56.4	-83.3	198	10
2023-08-15T12:00	17083	94	-56.5	-83.4	198	11
2023-08-15T12:00	17105	94	-56.6	-83.8	198	11
2023-08-15T12:00	17131	93	-56.8	-84.0	198	11
2023-08-15T12:00	17155	93	-56.5	-83.7	198	12
2023-08-15T12:00	17183	93	-56.1	-83.4	199	13
2023-08-15T12:00	17207	92	-56.3	-83.6	200	13
2023-08-15T12:00	17234	92	-56.4	-83.7	201	14
2023-08-15T12:00	17257	92	-56.4	-84.0	202	14
2023-08-15T12:00	17278	91	-56.3	-83.9	204	14
2023-08-15T12:00	17308	91	-56.0	-83.7	204	14
2023-08-15T12:00	17333	90	-55.8	-83.9	205	14
2023-08-15T12:00	17361	90	-55.8	-83.9	205	14
2023-08-15T12:00	17385	90	-55.5	-83.7	205	15
2023-08-15T12:00	17409	89	-55.5	-83.7	206	15
2023-08-15T12:00	17432	89	-55.6	-83.8	207	16
2023-08-15T12:00	17457	89	-55.7	-83.9	208	17
2023-08-15T12:00	17483	88	-55.6	-83.8	211	17
2023-08-15T12:00	17505	88	-55.6	-83.8	213	17
2023-08-15T12:00	17531	88	-55.6	-83.8	216	17
2023-08-15T12:00	17553	87	-55.5	-83.7	219	16
2023-08-15T12:00	17576	87	-55.4	-83.6	222	16
2023-08-15T12:00	17596	87	-55.4	-83.6	225	16
2023-08-15T12:00	17621	86	-55.3	-83.6	227	16
2023-08-15T12:00	17646	86	-55.3	-83.6	228	15
2023-08-15T12:00	17669	86	-55.3	-83.6	229	15
2023-08-15T12:00	17690	86	-55.4	-83.6	230	14
2023-08-15T12:00	17713	85	-55.4	-83.6	230	14
2023-08-15T12:00	17736	85	-55.5	-83.7	229	13
2023-08-15T12:00	17756	85	-55.6	-83.8	229	13
2023-08-15T12:00	17781	84	-55.7	-83.9	228	12
2023-08-15T12:00	17801	84	-55.6	-83.8	226	12
2023-08-15T12:00	17826	84	-55.5	-83.7	225	11
2023-08-15T12:00	17850	83	-55.4	-83.6	223	11
2023-08-15T12:00	17868	83	-55.3	-84.0	221	11
2023-08-15T12:00	17889	83	-55.3	-84.0	219	11
2023-08-15T12:00	17914	83	-55.2	-83.9	218	11
2023-08-15T12:00	17938	82	-55.1	-83.8	218	12
2023-08-15T12:00	17956	82	-55.1	-83.8	219	12
2023-08-15T12:00	17985	82	-55.2	-83.9	220	12
2023-08-15T12:00	18004	81	-55.3	-83.6	222	12
2023-08-15T12:00	18025	81	-55.4	-83.6	224	11
2023-08-15T12:00	18047	81	-55.3	-84.0	225	11
2023-08-15T12:00	18068	81	-55.1	-83.8	225	10
2023-08-15T12:00	18091	80	-55.1	-83.8	224	10
2023-08-15T12:00	18116	80	-55.1	-83.8	223	10
2023-08-15T12:00	18141	80	-55.1	-83.8	221	9
2023-08-15T12:00	18162	79	-54.9	-83.7	219	9
2023-08-15T12:00	18186	79	-55.0	-83.7	217	9
2023-08-15T12:00	18208	79	-54.9	-83.7	215	8
2023-08-15T12:00	18232	79	-54.8	-83.6	214	8
2023-08-15T12:00	18255	78	-54.7	-83.5	214	7
2023-08-15T12:00	18281	78	-54.7	-83.5	214	7
2023-08-15T12:00	18304	78	-54.7	-83.5	214	7
2023-08-15T12:00	18329	77	-54.8	-83.6	213	6
2023-08-15T12:00	18353	77	-54.9	-83.7	211	6
2023-08-15T12:00	18378	77	-54.9	-83.7	208	6
2023-08-15T12:00	18402	76	-55.0	-83.7	205	6
2023-08-15T12:00	18432	76	-55.1	-83.8	201	6
2023-08-15T12:00	18455	76	-55.1	-83.8	199	6
2023-08-15T12:00	18482	76	-55.2	-83.5	198	7
2023-08-15T12:00	18507	75	-55.4	-83.6	197	7
2023-08-15T12:00	18532	75	-55.7	-83.9	197	7
2023-08-15T12:00	18563	75	-55.9	-83.6	197	7
2023-08-15T12:00	18587	74	-56.0	-83.7	197	7
2023-08-15T12:00	18619	74	-56.3	-83.9	198	8
2023-08-15T12:00	18645	74	-56.7	-84.2	199	8
2023-08-15T12:00	18670	73	-56.9	-84.0	200	8
2023-08-15T12:00	18699	73	-57.1	-84.2	202	9
2023-08-15T12:00	18725	73	-57.3	-84.4	204	9
2023-08-15T12:00	18751	72	-57.5	-84.5	205	9
2023-08-15T12:00	18780	72	-57.5	-84.5	205	8
2023-08-15T12:00	18798	72	-57.5	-84.5	205	8
2023-08-15T12:00	18828	72	-57.5	-84.9	204	8
2023-08-15T12:00	18855	71	-57.5	-84.9	202	7
2023-08-15T12:00	18880	71	-57.5	-84.9	201	7
2023-08-15T12:00	18909	71	-57.7	-85.0	199	7
2023-08-15T12:00	18931	70	-57.8	-84.7	197	7
2023-08-15T12:00	18957	70	-57.9	-84.8	196	7
2023-08-15T12:00	18983	70	-58.0	-84.9	197	8
2023-08-15T12:00	19010	70	-58.0	-84.9	198	9
2023-08-15T12:00	19040	69	-58.2	-85.0	200	9
2023-08-15T12:00	19060	69	-58.4	-85.2	202	9
2023-08-15T12:00	19082	69	-58.5	-85.3	204	9
2023-08-15T12:00	19107	68	-58.5	-85.3	206	8
2023-08-15T12:00	19134	68	-58.5	-85.3	209	8
2023-08-15T12:00	19159	68	-58.3	-85.5	211	8
2023-08-15T12:00	19180	68	-58.2	-85.4	214	7
2023-08-15T12:00	19202	67	-58.2	-85.4	216	7
2023-08-15T12:00	19226	67	-58.2	-85.4	217	7
2023-08-15T12:00	19250	67	-58.3	-85.5	217	6
2023-08-15T12:00	19271	67	-57.9	-85.5	215	6
2023-08-15T12:00	19301	66	-57.4	-85.2	211	6
2023-08-15T12:00	19320	66	-57.1	-85.3	206	6
2023-08-15T12:00	19342	66	-56.8	-85.1	203	6
2023-08-15T12:00	19364	66	-56.6	-84.9	199	6
2023-08-15T12:00	19390	65	-56.4	-85.2	196	6
2023-08-15T12:00	19412	65	-56.3	-84.7	193	6
2023-08-15T12:00	19431	65	-56.3	-84.7	189	6
2023-08-15T12:00	19459	65	-56.3	-84.7	185	6
2023-08-15T12:00	19481	65	-56.3	-84.7	181	6
2023-08-15T12:00	19502	64	-56.3	-84.7	179	7
2023-08-15T12:00	19522	64	-56.2	-84.6	179	7
2023-08-15T12:00	19547	64	-56.2	-84.6	181	7
2023-08-15T12:00	19572	64	-56.3	-84.3	183	8
2023-08-15T12:00	19591	63	-56.5	-84.5	185	8
2023-08-15T12:00	19615	63	-56.5	-84.5	187	8
2023-08-15T12:00	19637	63	-56.5	-84.9	188	8
2023-08-15T12:00	19661	63	-56.5	-84.9	187	8
2023-08-15T12:00	19682	62	-56.6	-84.9	186	7
2023-08-15T12:00	19702	62	-56.3	-84.7	183	6
2023-08-15T12:00	19728	62	-55.7	-84.7	179	6
2023-08-15T12:00	19747	62	-55.6	-84.6	174	5
2023-08-15T12:00	19774	62	-55.7	-84.7	167	5
2023-08-15T12:00	19797	61	-55.8	-84.8	159	4
2023-08-15T12:00	19821	61	-55.7	-84.7	151	4
2023-08-15T12:00	19847	61	-55.6	-84.6	144	4
2023-08-15T12:00	19870	61	-55.6	-84.6	140	4
2023-08-15T12:00	19891	60	-55.6	-84.6	139	5
2023-08-15T12:00	19909	60	-55.5	-84.5	141	5
2023-08-15T12:00	19939	60	-55.3	-84.4	144	5
2023-08-15T12:00	19966	60	-55.1	-84.2	148	6
2023-08-15T12:00	19988	60	-55.0	-84.2	152	6
2023-08-15T12:00	20018	59	-55.0	-84.2	157	7
2023-08-15T12:00	20034	59	-55.1	-84.2	161	7
2023-08-15T12:00	20065	59	-55.2	-84.3	165	8
2023-08-15T12:00	20095	59	-55.4	-84.5	170	8
2023-08-15T12:00	20117	58	-55.5	-84.1	174	8
2023-08-15T12:00	20146	58	-55.5	-84.5	179	8
2023-08-15T12:00	20169	58	-55.4	-84.5	183	8
2023-08-15T12:00	20194	58	-55.2	-84.3	186	8
2023-08-15T12:00	20220	57	-55.2	-84.3	188	8
2023-08-15T12:00	20245	57	-55.2	-84.3	189	8
2023-08-15T12:00	20269	57	-55.2	-84.3	188	8
2023-08-15T12:00	20298	57	-55.2	-84.3	186	7
2023-08-15T12:00	20316	57	-55.2	-84.3	184	7
2023-08-15T12:00	20345	56	-55.2	-84.3	181	7
2023-08-15T12:00	20370	56	-55.1	-84.2	177	6
2023-08-15T12:00	20386	56	-55.1	-84.2	172	6
2023-08-15T12:00	20412	56	-55.2	-84.3	166	5
2023-08-15T12:00	20439	56	-55.2	-84.3	158	5
2023-08-15T12:00	20463	55	-55.0	-84.2	149	5
2023-08-15T12:00	20486	55	-54.8	-84.0	140	5
2023-08-15T12:00	20513	55	-54.8	-84.0	134	5
2023-08-15T12:00	20537	55	-54.8	-84.5	129	5
2023-08-15T12:00	20558	54	-54.8	-84.5	128	5
2023-08-15T12:00	20582	54	-54.9	-84.6	129	5
2023-08-15T12:00	20602	54	-54.8	-84.5	133	5
2023-08-15T12:00	20624	54	-54.5	-84.3	137	6
2023-08-15T12:00	20646	54	-54.2	-84.0	142	6
2023-08-15T12:00	20665	54	-54.0	-83.9	147	6
2023-08-15T12:00	20693	53	-54.0	-83.9	152	6
2023-08-15T12:00	20708	53	-54.2	-84.0	157	6
2023-08-15T12:00	20729	53	-54.3	-84.1	162	6
2023-08-15T12:00	20751	53	-54.4	-83.7	168	7
2023-08-15T12:00	20778	53	-54.5	-83.8	174	7
2023-08-15T12:00	20798	52	-54.5	-83.8	179	7
2023-08-15T12:00	20818	52	-54.6	-83.9	183	7
2023-08-15T12:00	20841	52	-54.7	-84.4	188	6
2023-08-15T12:00	20857	52	-54.7	-84.4	194	6
2023-08-15T12:00	20884	52	-54.4	-84.2	202	5
2023-08-15T12:00	20906	52	-54.0	-83.9	210	5
2023-08-15T12:00	20925	51	-53.9	-83.8	219	4
2023-08-15T12:00	20951	51	-53.9	-83.8	227	4
2023-08-15T12:00	20976	51	-53.8	-83.7	234	3
2023-08-15T12:00	20994	51	-53.7	-83.7	242	3
2023-08-15T12:00	21015	51	-53.7	-83.7	252	2
2023-08-15T12:00	21036	51	-53.7	-83.7	273	1
2023-08-15T12:00	21062	50	-53.7	-83.7	340	1
2023-08-15T12:00	21084	50	-53.7	-83.7	39	1
2023-08-15T12:00	21107	50	-53.7	-83.7	60	2
2023-08-15T12:00	21129	50	-53.6	-83.6	73	3
2023-08-15T12:00	21153	50	-53.3	-83.9	84	3
2023-08-15T12:00	21179	49	-53.0	-83.6	94	3
2023-08-15T12:00	21203	49	-53.0	-83.6	104	4
2023-08-15T12:00	21225	49	-53.1	-83.7	115	4
2023-08-15T12:00	21248	49	-53.1	-83.2	125	4
2023-08-15T12:00	21271	49	-53.2	-83.3	135	4
2023-08-15T12:00	21300	49	-53.3		143	5
2023-08-15T12:00	21319	48	-53.2	-83.3	151	5
2023-08-15T12:00	21351	48	-53.3		158	5
2023-08-15T12:00	21381	48	-53.3		164	6
2023-08-15T12:00	21404	48	-53.6	-83.6	169	6
2023-08-15T12:00	21432	48	-53.6	-83.6	173	6
2023-08-15T12:00	21454	47	-53.7	-83.7	176	7
2023-08-15T12:00	21484	47	-53.7	-83.7	178	7
2023-08-15T12:00	21508	47	-53.7	-83.7	179	7
2023-08-15T12:00	21540	47	-53.7	-83.7	178	7
2023-08-15T12:00	21567	47	-53.7	-83.7	177	6
2023-08-15T12:00	21594	46	-53.6	-83.6	175	6
2023-08-15T12:00	21621	46	-53.7	-83.7	173	6
2023-08-15T12:00	21650	46	-53.7	-83.7	171	6
2023-08-15T12:00	21681	46	-53.6	-83.6	170	6
2023-08-15T12:00	21714	46	-53.6	-83.6	169	6
2023-08-15T12:00	21739	45	-53.7	-83.7	167	6
2023-08-15T12:00	21762	45	-53.7	-83.7	164	6
2023-08-15T12:00	21788	45	-53.8	-83.7	159	6
2023-08-15T12:00	21825	45	-53.9	-83.8	153	6
2023-08-15T12:00	21846	45	-54.0	-83.4	148	6
2023-08-15T12:00	21873	44	-54.2	-83.6	143	6
2023-08-15T12:00	21900	44	-54.4	-83.7	140	7
2023-08-15T12:00	21926	44	-54.5	-83.8	139	7
2023-08-15T12:00	21961	44	-54.5	-83.8	139	7
2023-08-15T12:00	21987	44	-54.6	-83.9	140	8
2023-08-15T12:00	22010	43	-54.7	-83.9	141	8
2023-08-15T12:00	22042	43	-54.7	-83.9	144	8
2023-08-15T12:00	22059	43	-54.8	-84.0	147	8
2023-08-15T12:00	22091	43	-54.8	-84.0	149	8
2023-08-15T12:00	22115	43	-54.9	-84.1	150	8
2023-08-15T12:00	22145	43	-55.0	-84.2	150	7
2023-08-15T12:00	22161	42	-55.1	-84.2	150	7
2023-08-15T12:00	22190	42	-55.1	-84.2	149	7
2023-08-15T12:00	22216	42	-55.1	-84.2	148	7
2023-08-15T12:00	22240	42	-55.1	-84.2	148	7
2023-08-15T12:00	22267	42	-55.0	-84.2	148	7
2023-08-15T12:00	22292	42	-54.9	-84.1	149	7
2023-08-15T12:00	22311	41	-54.8	-84.0	151	6
2023-08-15T12:00	22334	41	-54.8	-84.0	153	6
2023-08-15T12:00	22366	41	-54.8	-84.0	155	5
2023-08-15T12:00	22396	41	-54.9	-84.1	156	5
2023-08-15T12:00	22412	41	-55.0	-84.2	156	5
2023-08-15T12:00	22437	41	-55.1	-84.2	156	4
2023-08-15T12:00	22468	40	-55.1	-84.2	156	4
2023-08-15T12:00	22490	40	-55.1	-84.2	156	4
2023-08-15T12:00	22510	40	-55.1	-84.2	156	4
2023-08-15T12:00	22538	40	-55.2	-84.3	154	4
2023-08-15T12:00	22560	40	-55.3	-84.4	151	4
2023-08-15T12:00	22586	40	-55.3	-84.4	147	4
2023-08-15T12:00	22614	40	-55.5	-84.5	143	4
2023-08-15T12:00	22637	39	-55.7	-84.3	141	4
2023-08-15T12:00	22668	39	-55.7	-84.3	140	5
2023-08-15T12:00	22690	39	-55.7	-84.3	142	5
2023-08-15T12:00	22714	39	-55.7	-84.7	146	5
2023-08-15T12:00	22744	39	-55.6	-84.6	150	5
2023-08-15T12:00	22772	39	-55.8	-84.8	154	5
2023-08-15T12:00	22796	38	-55.9	-84.8	157	5
2023-08-15T12:00	22817	38	-55.8	-84.8	159	5
2023-08-15T12:00	22851	38	-55.8	-84.8	162	4
2023-08-15T12:00	22867	38	-55.8	-84.8	164	4
2023-08-15T12:00	22904	38	-55.8	-84.8	166	3
2023-08-15T12:00	22924	38	-55.8	-84.8	166	2
2023-08-15T12:00	22952	37	-55.8	-84.8	158	1
2023-08-15T12:00	22982	37	-55.7	-84.7	137	1
2023-08-15T12:00	23005	37	-55.5	-84.5	119	2
2023-08-15T12:00	23032	37	-55.3	-84.4	114	2
2023-08-15T12:00	23058	37	-55.2	-84.3	116	3
2023-08-15T12:00	23089	37	-55.3	-84.4	119	4
2023-08-15T12:00	23118	37	-55.3	-84.4	125	4
2023-08-15T12:00	23141	36	-55.4	-84.5	130	5
2023-08-15T12:00	23171	36	-55.5	-84.5	134	5
2023-08-15T12:00	23191	36	-55.6	-84.6	138	5
2023-08-15T12:00	23218	36	-55.7	-84.7	139	5
2023-08-15T12:00	23251	36	-55.6	-84.6	139	5
2023-08-15T12:00	23276	36	-55.4	-84.5	138	5
2023-08-15T12:00	23304	36	-55.2	-84.8	136	4
2023-08-15T12:00	23327	35	-55.2	-84.8	134	4
2023-08-15T12:00	23356	35	-55.2	-84.8	131	4
2023-08-15T12:00	23376	35	-55.2	-84.8	125	4
2023-08-15T12:00	23403	35	-55.1	-84.7	115	4
2023-08-15T12:00	23429	35	-55.1	-84.7	103	4
2023-08-15T12:00	23461	35	-55.0	-84.6	92	4
2023-08-15T12:00	23483	35	-55.0	-84.6	86	5
2023-08-15T12:00	23501	34	-54.8	-84.5	83	5
2023-08-15T12:00	23538	34	-54.5	-84.3	83	5
2023-08-15T12:00	23560	34	-54.3	-84.1	85	6
2023-08-15T12:00	23587	34	-54.2	-84.5	86	5
2023-08-15T12:00	23611	34	-54.1	-84.5	87	5
2023-08-15T12:00	23648	34	-54.0	-83.9	86	5
2023-08-15T12:00	23665	34	-54.0	-83.9	84	5
2023-08-15T12:00	23690	33	-54.1	-84.0	80	4
2023-08-15T12:00	23705	33	-54.2	-84.0	75	4
2023-08-15T12:00	23736	33	-54.2	-84.0	71	5
2023-08-15T12:00	23768	33	-54.2	-84.0	68	5
2023-08-15T12:00	23791	33	-54.2	-84.0	68	5
2023-08-15T12:00	23812	33	-54.1	-84.0	71	6
2023-08-15T12:00	23843	33	-54.0	-83.9	75	6
2023-08-15T12:00	23860	33	-53.8	-84.2	81	7
2023-08-15T12:00	23889	32	-53.8	-84.2	86	7
2023-08-15T12:00	23912	32	-53.9	-84.3	91	7
2023-08-15T12:00	23938	32	-53.8	-84.2	95	7
2023-08-15T12:00	23963	32	-53.7	-84.2	99	7
2023-08-15T12:00	23987	32	-53.6	-84.1	102	7
2023-08-15T12:00	24013	32	-53.7	-84.2	105	7
2023-08-15T12:00	24037	32	-53.7	-84.2	107	6
2023-08-15T12:00	24063	32	-53.7	-84.2	107	6
2023-08-15T12:00	24085	31	-53.7	-84.2	106	6
2023-08-15T12:00	24108	31	-53.6	-84.1	105	5
2023-08-15T12:00	24139	31	-53.6	-84.1	104	6
2023-08-15T12:00	24165	31	-53.5	-84.0	105	6
2023-08-15T12:00	24188	31	-53.4	-83.9	107	6
2023-08-15T12:00	24217	31	-53.4	-83.9	110	6
2023-08-15T12:00	24239	31	-53.4	-83.9	114	5
2023-08-15T12:00	24270	31	-53.3	-83.9	119	5
2023-08-15T12:00	24290	30	-53.2	-83.8	123	5
2023-08-15T12:00	24316	30	-53.1	-83.7	128	5
2023-08-15T12:00	24348	30	-53.0	-83.6	131	5
2023-08-15T12:00	24365	30	-52.9	-83.6	134	5
2023-08-15T12:00	24395	30	-52.8	-83.5	136	5
2023-08-15T12:00	24415	30	-52.8	-83.5	137	5
2023-08-15T12:00	24454	30	-52.8	-83.5	136	5
2023-08-15T12:00	24475	30	-52.7	-83.4	133	4
2023-08-15T12:00	24503	29	-52.7	-83.4	127	4
2023-08-15T12:00	24536	29	-52.6	-83.3	119	4
2023-08-15T12:00	24555	29	-52.5	-83.3	111	4
2023-08-15T12:00	24581	29	-52.4	-83.8	106	4
2023-08-15T12:00	24607	29	-52.4	-83.2	102	4
2023-08-15T12:00	24637	29	-52.3	-83.1	100	5
2023-08-15T12:00	24662	29	-52.4	-83.2	97	5
2023-08-15T12:00	24692	29	-52.5	-83.3	96	5
2023-08-15T12:00	24731	28	-52.5	-83.3	96	5
2023-08-15T12:00	24750	28	-52.6	-83.3	99	5
2023-08-15T12:00	24777	28	-52.7	-83.4	103	6
2023-08-15T12:00	24810	28	-52.8	-83.5	107	6
2023-08-15T12:00	24842	28	-52.9	-83.6	112	6
2023-08-15T12:00	24855	28	-53.0	-83.6	114	7
2023-08-15T12:00	24891	28	-53.0	-83.6	114	7
2023-08-15T12:00	24922	28	-53.1	-83.7	114	8
2023-08-15T12:00	24943	28	-53.1	-83.7	112	8
2023-08-15T12:00	24978	27	-53.3		111	8
2023-08-15T12:00	25003	27	-53.4	-83.4	110	9
2023-08-15T12:00	25026	27	-53.5	-83.5	110	9
2023-08-15T12:00	25059	27	-53.6	-83.6	111	10
2023-08-15T12:00	25073	27	-53.7	-83.7	112	10
2023-08-15T12:00	25113	27	-53.7	-83.7	113	11
2023-08-15T12:00	25138	27	-53.7	-83.7	114	11
2023-08-15T12:00	25173	27	-53.7	-83.7	117	11
2023-08-15T12:00	25174	27	-53.7	-84.2	120	11
2023-08-15T12:00	25213	26	-53.7	-84.2	123	11
2023-08-15T12:00	25226	26	-53.7	-84.2	127	11
2023-08-15T12:00	25260	26	-53.6	-84.1	130	11
2023-08-15T12:00	25285	26	-53.7	-84.2	133	11
2023-08-15T12:00	25308	26	-53.7	-84.2	135	11
2023-08-15T12:00	25326	26	-53.8	-84.2	136	10
2023-08-15T12:00	25361	26	-53.7	-84.2	135	10
2023-08-15T12:00	25381	26	-53.6	-84.1	134	9
2023-08-15T12:00	25401	26	-53.4	-83.9	132	8
2023-08-15T12:00	25426	26	-53.4	-83.9	131	8
2023-08-15T12:00	25449	25	-53.4	-83.9	130	7
2023-08-15T12:00	25472	25	-53.3	-83.9	130	7
2023-08-15T12:00	25497	25	-53.1	-83.7	130	7
2023-08-15T12:00	25525	25	-53.0	-84.2	130	7
2023-08-15T12:00	25554	25	-52.9	-84.1	128	7
2023-08-15T12:00	25565	25	-52.8	-84.1	125	7
2023-08-15T12:00	25593	25	-52.7	-84.0	121	7
2023-08-15T12:00	25613	25	-52.6	-83.9	117	7
2023-08-15T12:00	25649	25	-52.5	-83.8	113	6
2023-08-15T12:00	25680	25	-52.3	-83.7	109	6
2023-08-15T12:00	25695	24	-52.2	-83.6	106	6
2023-08-15T12:00	25723	24	-52.1	-83.5	103	6
2023-08-15T12:00	25757	24	-52.0	-83.5	99	6
2023-08-15T12:00	25776	24	-52.1	-83.5	96	6
2023-08-15T12:00	25808	24	-52.1	-83.5	92	6
2023-08-15T12:00	25834	24	-52.0	-83.5	89	6
2023-08-15T12:00	25863	24	-51.8	-83.3	85	6
2023-08-15T12:00	25890	24	-51.7	-83.2	83	6
2023-08-15T12:00	25911	24	-51.7	-83.2	82	6
2023-08-15T12:00	25953	24	-51.7	-83.2	84	6
2023-08-15T12:00	25977	23	-51.7	-83.2	87	7
2023-08-15T12:00	26005	23	-51.8	-83.3	91	7
2023-08-15T12:00	26031	23	-51.8	-83.3	95	7
2023-08-15T12:00	26054	23	-51.9	-83.4	99	7
2023-08-15T12:00	26101	23	-52.0	-83.5	102	7
2023-08-15T12:00	26119	23	-52.0	-83.5	103	7
2023-08-15T12:00	26163	23	-52.0	-83.5	104	7
2023-08-15T12:00	26189	23	-52.0	-83.5	105	7
2023-08-15T12:00	26226	23	-52.1	-83.5	107	7
2023-08-15T12:00	26261	22	-52.2	-83.6	111	7
2023-08-15T12:00	26273	22	-52.2	-83.6	117	7
2023-08-15T12:00	26314	22	-52.1	-83.5	124	7
2023-08-15T12:00	26346	22	-52.2	-83.6	129	8
2023-08-15T12:00	26371	22	-52.2	-83.6	133	8
2023-08-15T12:00	26395	22	-52.3	-83.7	136	8
2023-08-15T12:00	26439	22	-52.3	-83.7	137	8
2023-08-15T12:00	26461	22	-52.3	-83.7	138	8
2023-08-15T12:00	26500	22	-52.3	-83.7	138	7
2023-08-15T12:00	26530	22	-52.3	-83.7	138	7
2023-08-15T12:00	26556	21	-52.3	-83.7	139	6
2023-08-15T12:00	26588	21	-52.2	-83.6	141	6
2023-08-15T12:00	26601	21	-52.2	-83.6	143	5
2023-08-15T12:00	26619	21	-52.1	-83.5	145	5
2023-08-15T12:00	26659	21	-51.9	-83.4	145	5
2023-08-15T12:00	26703	21	-51.8	-83.3	145	4
2023-08-15T12:00	26723	21	-51.7	-83.2	144	4
2023-08-15T12:00	26749	21	-51.7	-83.2	141	4
2023-08-15T12:00	26782	21	-51.6	-83.2	136	3
2023-08-15T12:00	26806	21	-51.5	-83.1	128	3
2023-08-15T12:00	26835	21	-51.3	-83.6	114	2
2023-08-15T12:00	26863	20	-51.2	-83.5	94	2
2023-08-15T12:00	26890	20	-51.1	-83.4	73	2
2023-08-15T12:00	26915	20	-51.0	-83.3	58	3
2023-08-15T12:00	26940	20	-50.9	-83.3	50	3
2023-08-15T12:00	26962	20	-50.7	-83.1	46	3
2023-08-15T12:00	26982	20	-50.3	-82.8	45	3
2023-08-15T12:00	27016	20	-50.2	-82.8	47	3
2023-08-15T12:00	27036	20	-50.1	-82.7	51	3
2023-08-15T12:00	27062	20	-49.9	-82.5	57	3
2023-08-15T12:00	27085	20	-49.8	-82.5	63	3
2023-08-15T12:00	27121	20	-49.7	-82.4	70	3
2023-08-15T12:00	27143	20	-49.5	-82.9	76	3
2023-08-15T12:00	27160	20	-49.3	-82.8	80	3
2023-08-15T12:00	27195	19	-49.1	-82.7	82	3
2023-08-15T12:00	27224	19	-49.0	-81.9	83	3
2023-08-15T12:00	27247	19	-49.0	-81.9	82	4
2023-08-15T12:00	27271	19	-48.9	-81.8	81	4
2023-08-15T12:00	27294	19	-48.9	-82.5	78	4
2023-08-15T12:00	27318	19	-48.8	-82.4	71	4
2023-08-15T12:00	27344	19	-48.7	-82.4	62	4
2023-08-15T12:00	27368	19	-48.5	-82.2	51	4
2023-08-15T12:00	27388	19	-48.3	-82.1	40	4
2023-08-15T12:00	27418	19	-48.2	-82.0	32	4
2023-08-15T12:00	27440	19	-48.1	-81.9	28	5
2023-08-15T12:00	27472	19	-48.1	-81.9	27	5
2023-08-15T12:00	27489	19	-48.2	-82.0	31	5
2023-08-15T12:00	27516	19	-48.2	-82.0	39	4
2023-08-15T12:00	27548	18	-48.2	-82.0	51	4
2023-08-15T12:00	27565	18	-48.1	-81.9	64	4
2023-08-15T12:00	27592	18	-48.1	-81.9	74	4
2023-08-15T12:00	27631	18	-48.2	-82.0	80	4
2023-08-15T12:00	27645	18	-48.2	-82.0	82	5
2023-08-15T12:00	27682	18	-48.0	-81.9	81	5
2023-08-15T12:00	27694	18	-47.8	-81.7	77	5
2023-08-15T12:00	27739	18	-47.7	-81.6	71	5
2023-08-15T12:00	27759	18	-47.6	-81.6	65	4
2023-08-15T12:00	27798	18	-47.6	-81.6	58	4
2023-08-15T12:00	27820	18	-47.7	-81.6	51	4
2023-08-15T12:00	27836	18	-47.8	-81.7	47	4
2023-08-15T12:00	27874	18	-47.9	-81.8	45	5
2023-08-15T12:00	27904	17	-47.9	-81.8	45	5
2023-08-15T12:00	27923	17	-47.9	-81.8	47	5
2023-08-15T12:00	27959	17	-47.9	-81.8	51	5
2023-08-15T12:00	27978	17	-48.0	-81.9	56	5
2023-08-15T12:00	27992	17	-48.0	-81.9	62	5
2023-08-15T12:00	28046	17	-48.0	-81.9	69	5
2023-08-15T12:00	28079	17	-48.0	-81.9	75	5
2023-08-15T12:00	28099	17	-48.0	-81.9	80	5
2023-08-15T12:00	28131	17	-48.0	-81.9	82	5
2023-08-15T12:00	28171	17	-47.9	-81.8	84	5
2023-08-15T12:00	28174	17	-47.6	-81.6	85	5
2023-08-15T12:00	28214	17	-47.3	-81.4	86	5
2023-08-15T12:00	28240	17	-47.2	-81.3	87	5
2023-08-15T12:00	28264	17	-47.0	-81.1	87	5
2023-08-15T12:00	28290	16	-47.0	-81.1	85	5
2023-08-15T12:00	28318	16	-46.9	-81.1	82	5
2023-08-15T12:00	28349	16	-46.9	-81.1	78	5
2023-08-15T12:00	28378	16	-46.8	-81.0	75	5
2023-08-15T12:00	28405	16	-46.8	-81.0	74	5
2023-08-15T12:00	28432	16	-46.9	-81.1	74	6
2023-08-15T12:00	28446	16	-47.0	-81.1	75	6
2023-08-15T12:00	28481	16	-47.0	-81.1	76	7
2023-08-15T12:00	28503	16	-47.1	-81.2	77	7
2023-08-15T12:00	28544	16	-47.1	-81.2	78	8
2023-08-15T12:00	28564	16	-47.1	-81.2	80	8
2023-08-15T12:00	28586	16	-47.1	-81.2	82	8
2023-08-15T12:00	28614	16	-47.0	-81.1	85	8
2023-08-15T12:00	28643	16	-46.9	-81.1	88	8
2023-08-15T12:00	28673	16	-46.8	-81.0	92	8
2023-08-15T12:00	28692	16	-46.7	-80.9	96	7
2023-08-15T12:00	28723	15	-46.6	-80.9	99	8
2023-08-15T12:00	28737	15	-46.5	-80.8	100	8
2023-08-15T12:00	28779	15	-46.4	-80.7	101	9
2023-08-15T12:00	28801	15	-46.3	-80.6	100	9
2023-08-15T12:00	28831	15	-46.3	-81.4	99	10
2023-08-15T12:00	28872	15	-46.3	-81.4	97	10
2023-08-15T12:00	28888	15	-46.2	-81.4	97	11
2023-08-15T12:00	28919	15	-46.1	-81.3	96	11
2023-08-15T12:00	28937	15	-46.0	-81.2	96	11
2023-08-15T12:00	28988	15	-45.9	-81.2	97	11
2023-08-15T12:00	28996	15	-45.8	-81.1	98	12
2023-08-15T12:00	29022	15	-45.7	-81.0	100	12
2023-08-15T12:00	29059	15	-45.6	-80.9	102	12
2023-08-15T12:00	29084	15	-45.6	-80.9	105	13
2023-08-15T12:00	29098	15	-45.5	-80.9	108	13
2023-08-15T12:00	29142	15	-45.4	-80.8	110	13
2023-08-15T12:00	29170	14	-45.4	-80.8	113	13
2023-08-15T12:00	29193	14	-45.5	-80.9	115	12
2023-08-15T12:00	29218	14	-45.6	-80.9	116	13
2023-08-15T12:00	29249	14	-45.6	-80.9	116	13
2023-08-15T12:00	29284	14	-45.5	-80.9	117	13
2023-08-15T12:00	29318	14	-45.4	-80.8	118	13
2023-08-15T12:00	29337	14	-45.3	-80.7	120	14
2023-08-15T12:00	29360	14	-45.2	-80.7	122	13
2023-08-15T12:00	29398	14	-45.2	-80.7	125	13
2023-08-15T12:00	29423	14	-45.2	-80.7	128	13
2023-08-15T12:00	29440	14	-45.2	-80.7	131	12
2023-08-15T12:00	29475	14	-45.1	-80.6	135	12
2023-08-15T12:00	29515	14	-45.1	-80.6	137	11
2023-08-15T12:00	29535	14	-45.1	-80.6	139	11
2023-08-15T12:00	29566	14	-45.1	-80.6	139	11
2023-08-15T12:00	29594	14	-44.9	-80.4	137	10
2023-08-15T12:00	29616	13	-44.7	-80.3	135	10
2023-08-15T12:00	29643	13	-44.4	-80.1	133	9
2023-08-15T12:00	29662	13	-44.3	-80.0	131	9
2023-08-15T12:00	29703	13	-44.2	-80.9	129	9
2023-08-15T12:00	29724	13	-44.1	-80.8	129	8
2023-08-15T12:00	29756	13	-43.9	-80.7	129	8
2023-08-15T12:00	29780	13	-43.6	-80.4	129	7
2023-08-15T12:00	29797	13	-43.5	-80.4	130	7
2023-08-15T12:00	29816	13	-43.3	-80.2	132	7
2023-08-15T12:00	29861	13	-43.0	-80.0	134	7
2023-08-15T12:00	29878	13	-42.7	-79.8	137	7
2023-08-15T12:00	29903	13	-42.4	-79.6	140	7
2023-08-15T12:00	29938	13	-42.0	-79.3	144	6
2023-08-15T12:00	29964	13	-41.8	-79.2	147	6
2023-08-15T12:00	29990	13	-41.6	-80.1	149	5
2023-08-15T12:00	30007	13	-41.4	-80.0	149	4
2023-08-15T12:00	30024	13	-41.3	-79.9	145	3
2023-08-15T12:00	30036	13	-41.2	-79.9	137	3
2023-08-15T12:00	30076	13	-41.2	-79.9	128	3
2023-08-15T12:00	30094	13	-41.1	-79.8	122	4
2023-08-15T12:00	30104	13	-40.9	-79.7	119	4
2023-08-15T12:00	30161	12	-40.7	-79.5	119	5
2023-08-15T12:00	30170	12	-40.5	-79.4	121	5
2023-08-15T12:00	30203	12	-40.3	-79.2	124	6
2023-08-15T12:00	30221	12	-40.3	-79.2	128	6
2023-08-15T12:00	30243	12	-40.3	-79.2	132	6
2023-08-15T12:00	30285	12	-40.3	-79.2	135	6
2023-08-15T12:00	30305	12	-40.3	-79.2	136	6
2023-08-15T12:00	30336	12	-40.2	-79.2	135	7
2023-08-15T12:00	30356	12	-40.1	-79.1	134	7
2023-08-15T12:00	30400	12	-40.1	-79.1	133	7
2023-08-15T12:00	30438	12	-40.1	-79.1	132	7
2023-08-15T12:00	30461	12	-40.0	-79.0	133	7
2023-08-15T12:00	30501	12	-40.0	-79.0	135	7
2023-08-15T12:00	30517	12	-40.0	-79.0	138	7
2023-08-15T12:00	30529	12	-39.9	-79.0	141	7
2023-08-15T12:00	30567	12	-39.7	-78.8	145	7
2023-08-15T12:00	30626	12	-39.5	-78.7	152	7
2023-08-15T12:00	30659	12	-39.4	-78.6	156	6
2023-08-15T12:00	30699	12	-39.4	-78.6	160	6
2023-08-15T12:00	30738	11	-39.4	-78.6	163	5
2023-08-15T12:00	30752	11	-39.5	-78.7	167	4
2023-08-15T12:00	30799	11	-39.6	-78.8	172	4
2023-08-15T12:00	30846	11	-39.7	-78.8	178	3
2023-08-15T12:00	30874	11	-39.7	-78.8	189	3
2023-08-15T12:00	30896	11	-39.7	-78.8	205	2
2023-08-15T12:00	30947	11	-39.8	-78.9	230	2
2023-08-15T12:00	30988	11	-39.8	-78.9	258	2
2023-08-15T12:00	31031	11	-39.8	-78.9	280	2
2023-08-15T12:00	31060	11	-39.9	-79.0	295	3
2023-08-15T12:00	31080	11	-39.9	-79.0	305	3
2023-08-15T12:00	31117	11	-40.0	-79.0	314	4
2023-08-15T12:00	31155	11	-40.1	-79.1	321	4
2023-08-15T12:00	31185	11	-40.2	-79.2	328	4
2023-08-15T12:00	31214	11	-40.2	-79.2	334	4
2023-08-15T12:00	31242	11	-40.2	-79.2	341	4
2023-08-15T12:00	31280	11	-40.0	-79.0	347	4
2023-08-15T12:00	31327	11	-40.0	-79.0	354	4
2023-08-15T12:00	31357	10	-39.9	-79.0	360	4
2023-08-15T12:00	31402	10	-39.9	-79.0	5	4
2023-08-15T12:00	31422	10	-40.0	-79.0	9	4
2023-08-15T12:00	31446	10	-40.0	-79.0	15	4
2023-08-15T12:00	31509	10	-40.0	-79.0	25	3
2023-08-15T12:00	31545	10	-40.0	-79.0	42	3
2023-08-15T12:00	31572	10	-40.1	-79.1	66	3
2023-08-15T12:00	31584	10	-40.1	-79.1	89	3
2023-08-15T12:00	31655	10	-40.1	-79.1	101	4
2023-08-15T12:00	31682	10	-40.2	-79.2	107	5
2023-08-15T12:00	31708	10	-40.2	-79.2	107	5
2023-08-15T12:00	31752	10	-40.1	-79.1	103	5
2023-08-15T12:00	31777	10	-39.9	-79.0	96	5
2023-08-15T12:00	31802	10	-39.7	-78.8	87	5
2023-08-15T12:00	31821	10	-39.6	-78.8	76	5
2023-08-15T12:00	31836	10	-39.6	-78.8	68	5
2023-08-15T12:00	31892	10	-39.5	-78.7	63	5
2023-08-15T12:00	31914	10	-39.4	-78.6	61	6
2023-08-15T12:00	31934	10	-39.4	-78.6	62	7
2023-08-15T12:00	31968	10	-39.3	-78.5	65	7
2023-08-15T12:00	32000	10	-39.2	-78.5	70	8
2023-08-15T12:00	32032	9	-38.9	-78.3	76	8
2023-08-15T12:00	32088	9	-38.4	-77.9	90	8
2023-08-15T12:00	32093	9	-38.4	-77.9	98	8
2023-08-15T12:00	32123	9	-38.4	-77.9	105	8
2023-08-15T12:00	32159	9	-38.3	-77.9	112	8
2023-08-15T12:00	32187	9	-38.3	-77.9	118	8
2023-08-15T12:00	32203	9	-38.3	-77.9	121	8
2023-08-15T12:00	32256	9	-38.5	-78.0	123	8
2023-08-15T12:00	32297	9	-38.4	-77.9	121	7
2023-08-15T12:00	32315	9	-38.1	-77.7	118	7
2023-08-15T12:00	32335	9	-37.9	-77.6	114	6
2023-08-15T12:00	32358	9	-37.8	-77.5	108	6
2023-08-15T12:00	32414	9	-37.7	-77.4	101	6
2023-08-15T12:00	32415	9	-37.5	-77.3	93	6
2023-08-15T12:00	32441	9	-37.1	-77.0	86	6
2023-08-15T12:00	32465	9	-36.6	-76.7	81	7
2023-08-15T12:00	32492	9	-36.2	-76.4	78	8
2023-08-15T12:00	32534	9	-35.9	-76.2	77	8
2023-08-15T12:00	32566	9	-35.7	-76.1	79	9
2023-08-15T12:00	32577	9	-35.7	-76.1	82	9
2023-08-15T12:00	32626	9	-35.7	-76.1	86	9
2023-08-15T12:00	32667	9	-35.8	-76.1	90	10
2023-08-15T12:00	32698	9	-36.0	-76.3	95	10
2023-08-15T12:00	32727	9	-36.2	-76.4	100	11
2023-08-15T12:00	32754	9	-36.3	-76.5	103	11
2023-08-15T12:00	32802	8	-36.4	-76.5	107	12
2023-08-15T12:00	32844	8	-36.4	-76.5	106	11
2023-08-15T18:00	115	1002	28.1	20.7	342	1
2023-08-15T18:00	144	999	29.0	19.7	339	2
2023-08-15T18:00	167	997	29.1	18.9	338	2
2023-08-15T18:00	193	994	28.9	18.8	335	2
2023-08-15T18:00	215	991	28.7	18.7	331	2
2023-08-15T18:00	240	988	28.5	18.7	327	2
2023-08-15T18:00	268	985	28.3	18.7	323	2
2023-08-15T18:00	298	982	28.0	18.6	321	2
2023-08-15T18:00	329	979	27.8	18.6	320	2
2023-08-15T18:00	361	975	27.5	18.4	321	2
2023-08-15T18:00	394	972	27.2	18.4	324	2
2023-08-15T18:00	423	968	26.9	18.4	326	2
2023-08-15T18:00	455	965	26.6	18.4	327	2
2023-08-15T18:00	488	961	26.3	18.3	328	2
2023-08-15T18:00	522	958	26.0	18.3	328	2
2023-08-15T18:00	552	954	25.7	18.2	328	2
2023-08-15T18:00	582	951	25.4	18.2	328	2
2023-08-15T18:00	610	948	25.2	18.2	328	2
2023-08-15T18:00	641	945	24.9	18.1	328	2
2023-08-15T18:00	668	942	24.6	17.9	328	2
2023-08-15T18:00	698	939	24.4	17.9	326	2
2023-08-15T18:00	728	935	24.1	17.7	322	2
2023-08-15T18:00	756	932	23.8	17.6	316	2
2023-08-15T18:00	787	929	23.6	17.6	305	2
2023-08-15T18:00	816	926	23.4	17.2	292	2
2023-08-15T18:00	844	923	23.2	16.9	278	2
2023-08-15T18:00	877	920	23.2	16.0	264	2
2023-08-15T18:00	906	917	23.5	14.5	254	3
2023-08-15T18:00	935	913	23.3	14.0	245	3
2023-08-15T18:00	969	910	23.2	13.6	238	3
2023-08-15T18:00	997	907	22.9	13.2	233	4
2023-08-15T18:00	1028	904	22.8	12.6	228	4
2023-08-15T18:00	1057	901	22.5	12.3	223	4
2023-08-15T18:00	1085	898	22.3	12.4	218	4
2023-08-15T18:00	1115	895	22.0	12.3	213	4
2023-08-15T18:00	1146	892	21.8	12.8	206	4
2023-08-15T18:00	1176	889	21.5	13.1	198	4
2023-08-15T18:00	1203	886	21.3	13.2	190	5
2023-08-15T18:00	1231	883	21.1	13.1	183	5
2023-08-15T18:00	1259	880	20.9	13.1	178	5
2023-08-15T18:00	1283	878	20.7	12.9	176	6
2023-08-15T18:00	1311	875	20.6	12.6	175	6
2023-08-15T18:00	1341	872	20.5	12.5	174	6
2023-08-15T18:00	1369	869	20.3	12.3	174	7
2023-08-15T18:00	1397	866	20.1	12.3	174	7
2023-08-15T18:00	1423	864	19.9	12.4	175	7
2023-08-15T18:00	1450	861	19.6	12.3	176	7
2023-08-15T18:00	1473	858	19.4	12.1	178	7
2023-08-15T18:00	1501	856	19.2	11.7	181	7
2023-08-15T18:00	1526	853	19.0	11.5	183	7
2023-08-15T18:00	1553	851	18.8	11.3	185	7
2023-08-15T18:00	1580	848	18.5	11.2	186	7
2023-08-15T18:00	1606	845	18.3	11.4	186	7
2023-08-15T18:00	1633	843	18.0	11.2	186	7
2023-08-15T18:00	1663	840	17.8	11.2	186	7
2023-08-15T18:00	1689	837	17.5	11.0	186	7
2023-08-15T18:00	1714	835	17.2	11.2	187	7
2023-08-15T18:00	1744	832	17.0	11.3	188	7
2023-08-15T18:00	1769	829	16.8	11.2	190	7
2023-08-15T18:00	1798	827	16.5	11.0	191	8
2023-08-15T18:00	1825	824	16.3	10.9	191	8
2023-08-15T18:00	1854	821	16.0	10.8	190	8
2023-08-15T18:00	1885	818	15.8	10.6	189	8
2023-08-15T18:00	1914	816	15.5	10.7	189	8
2023-08-15T18:00	1945	813	15.2	10.5	189	8
2023-08-15T18:00	1974	810	14.9	10.4	189	8
2023-08-15T18:00	2004	807	14.6	10.3	191	8
2023-08-15T18:00	2034	804	14.4	9.9	192	8
2023-08-15T18:00	2064	801	14.2	9.8	194	8
2023-08-15T18:00	2094	798	13.9	10.0	196	8
2023-08-15T18:00	2122	796	13.6	10.3	198	9
2023-08-15T18:00	2153	793	13.3	10.2	199	9
2023-08-15T18:00	2185	790	13.1		200	9
2023-08-15T18:00	2215	787	12.9	10.2	201	9
2023-08-15T18:00	2245	784	12.7	10.4	202	9
2023-08-15T18:00	2276	781	12.4	10.5	204	8
2023-08-15T18:00	2304	779	12.2	10.5	205	8
2023-08-15T18:00	2335	776	11.9	10.4	207	8
2023-08-15T18:00	2363	773	11.6	10.4	209	8
2023-08-15T18:00	2395	770	11.3	10.3	211	8
2023-08-15T18:00	2425	768	11.1	10.4	211	8
2023-08-15T18:00	2453	765	10.8	9.9	211	8
2023-08-15T18:00	2484	762	10.6	9.6	211	8
2023-08-15T18:00	2514	759	10.5	9.0	211	8
2023-08-15T18:00	2546	757	10.3	9.0	211	8
2023-08-15T18:00	2576	754	10.1	8.2	212	8
2023-08-15T18:00	2606	751	10.3	6.2	214	8
2023-08-15T18:00	2639	748	10.2	5.9	215	8
2023-08-15T18:00	2668	746	10.0	5.8	217	8
2023-08-15T18:00	2698	743	9.8	5.4	218	8
2023-08-15T18:00	2729	740	9.6	5.2	218	9
2023-08-15T18:00	2758	737	9.4	5.1	219	9
2023-08-15T18:00	2789	735	9.1	5.0	219	9
2023-08-15T18:00	2821	732	8.8	4.7	218	9
2023-08-15T18:00	2851	729	8.6	4.5	217	9
2023-08-15T18:00	2881	727	8.4	4.4	216	9
2023-08-15T18:00	2913	724	8.2	4.0	215	9
2023-08-15T18:00	2943	721	8.0	3.8	214	9
2023-08-15T18:00	2974	719	7.8	3.8	213	9
2023-08-15T18:00	3005	716	7.5	3.6	212	9
2023-08-15T18:00	3038	713	7.2	3.6	211	9
2023-08-15T18:00	3071	710	7.0	3.4	210	9
2023-08-15T18:00	3101	707	6.8	3.2	209	9
2023-08-15T18:00	3135	705	6.6	3.2	208	10
2023-08-15T18:00	3166	702	6.4	3.2	207	10
2023-08-15T18:00	3200	699	6.1	3.1	207	10
2023-08-15T18:00	3232	697	5.9	3.1	206	10
2023-08-15T18:00	3261	694	5.7	2.8	206	11
2023-08-15T18:00	3293	691	5.5	2.6	206	11
2023-08-15T18:00	3325	689	5.3	2.3	206	11
2023-08-15T18:00	3356	686	5.1	2.3	206	11
2023-08-15T18:00	3387	683	4.8	2.1	206	11
2023-08-15T18:00	3419	681	4.6	2.1	205	12
2023-08-15T18:00	3452	678	4.3	2.2	204	12
2023-08-15T18:00	3483	675	4.0	2.5	204	12
2023-08-15T18:00	3514	673	3.8	2.6	203	12
2023-08-15T18:00	3546	670	3.6	1.8	203	12
2023-08-15T18:00	3578	668	3.4	2.1	203	12
2023-08-15T18:00	3610	665	3.1	1.8	204	12
2023-08-15T18:00	3641	662	2.9	1.3	204	12
2023-08-15T18:00	3672	660	2.8	1.1	205	12
2023-08-15T18:00	3702	657	2.8	0.4	206	12
2023-08-15T18:00	3734	655	2.5	0.5	208	12
2023-08-15T18:00	3765	652	2.3	0.5	209	12
2023-08-15T18:00	3794	650	2.2	0.1	210	12
2023-08-15T18:00	3823	648	2.0	0.1	212	11
2023-08-15T18:00	3855	645	1.8	0.1	213	11
2023-08-15T18:00	3886	643	1.5	0.0	214	11
2023-08-15T18:00	3917	640	1.3	-0.1	215	11
2023-08-15T18:00	3946	638	1.1	-0.3	215	11
2023-08-15T18:00	3977	635	0.8	-0.4	215	12
2023-08-15T18:00	4007	633	0.5	-0.5	214	12
2023-08-15T18:00	4037	631	0.3	-0.5	213	12
2023-08-15T18:00	4067	628	0.0	-0.7	212	12
2023-08-15T18:00	4097	626	-0.3	-0.8	212	12
2023-08-15T18:00	4127	624	-0.5	-0.8	211	12
2023-08-15T18:00	4160	621	-0.8	-1.0	210	12
2023-08-15T18:00	4186	619	-0.9	-1.1	209	12
2023-08-15T18:00	4215	617	-1.1	-1.2	208	12
2023-08-15T18:00	4245	614	-1.3	-1.4	208	12
2023-08-15T18:00	4276	612	-1.6	-1.6	207	12
2023-08-15T18:00	4307	610	-1.8	-1.8	206	12
2023-08-15T18:00	4339	607	-1.9	-2.0	206	12
2023-08-15T18:00	4370	605	-2.1	-2.3	205	12
2023-08-15T18:00	4400	603	-2.3	-2.5	205	12
2023-08-15T18:00	4429	600	-2.5	-2.6	204	12
2023-08-15T18:00	4463	598	-2.7	-2.9	204	12
2023-08-15T18:00	4495	596	-3.0	-3.0	203	12
2023-08-15T18:00	4524	593	-3.2	-3.2	204	12
2023-08-15T18:00	4552	591	-3.4	-3.4	205	12
2023-08-15T18:00	4582	589	-3.6	-3.6	207	12
2023-08-15T18:00	4612	587	-3.8	-3.8	208	11
2023-08-15T18:00	4635	585	-3.7	-4.0	208	11
2023-08-15T18:00	4656	583	-3.8	-4.0	208	11
2023-08-15T18:00	4683	582	-4.0	-4.2	208	11
2023-08-15T18:00	4706	580	-4.1	-4.3	208	11
2023-08-15T18:00	4731	578	-4.2	-4.6	209	12
2023-08-15T18:00	4759	576	-4.2	-5.3	210	12
2023-08-15T18:00	4784	574	-3.9	-7.0	211	12
2023-08-15T18:00	4809	572	-3.8	-7.6	212	11
2023-08-15T18:00	4836	570	-4.0	-7.6	212	11
2023-08-15T18:00	4860	569	-4.1	-7.9	212	11
2023-08-15T18:00	4884	567	-4.3	-7.9	212	11
2023-08-15T18:00	4907	565	-4.4	-8.0	213	11
2023-08-15T18:00	4934	563	-4.6	-8.4	214	11
2023-08-15T18:00	4961	561	-4.8	-8.3	214	11
2023-08-15T18:00	4988	559	-5.0	-8.2	215	11
2023-08-15T18:00	5018	557	-5.2	-8.3	215	11
2023-08-15T18:00	5046	555	-5.4	-8.4	215	11
2023-08-15T18:00	5073	553	-5.6	-8.7	214	11
2023-08-15T18:00	5101	551	-5.8	-9.3	214	12
2023-08-15T18:00	5128	550	-6.0	-9.0	213	12
2023-08-15T18:00	5156	548	-6.1	-9.5	212	11
2023-08-15T18:00	5184	546	-6.1	-10.8	211	11
2023-08-15T18:00	5213	544	-6.2	-10.9	210	12
2023-08-15T18:00	5241	542	-6.4	-10.6	210	12
2023-08-15T18:00	5266	540	-6.7	-9.9	210	12
2023-08-15T18:00	5293	538	-7.0	-9.8	210	12
2023-08-15T18:00	5320	536	-7.2		210	12
2023-08-15T18:00	5348	534	-7.5	-10.0	210	12
2023-08-15T18:00	5372	533	-7.7	-9.8	210	12
2023-08-15T18:00	5399	531	-8.0	-9.7	209	12
2023-08-15T18:00	5427	529	-8.2	-9.8	208	12
2023-08-15T18:00	5456	527	-8.4	-10.2	207	12
2023-08-15T18:00	5481	525	-8.4	-11.6	206	12
2023-08-15T18:00	5509	523	-8.5	-12.4	205	12
2023-08-15T18:00	5538	521	-8.7	-12.8	205	12
2023-08-15T18:00	5566	519	-9.0	-13.0	204	12
2023-08-15T18:00	5595	518	-9.2	-13.1	204	12
2023-08-15T18:00	5624	516	-9.5	-13.1	203	13
2023-08-15T18:00	5653	514	-9.8	-13.1	203	13
2023-08-15T18:00	5681	512	-10.0	-12.9	203	13
2023-08-15T18:00	5710	510	-10.2	-12.3	203	13
2023-08-15T18:00	5739	508	-10.4	-12.3	204	13
2023-08-15T18:00	5768	506	-10.7	-12.4	205	13
2023-08-15T18:00	5796	504	-10.9	-12.6	207	13
2023-08-15T18:00	5824	502	-11.1	-13.0	208	13
2023-08-15T18:00	5855	500	-11.0	-13.4	209	13
2023-08-15T18:00	5884	499	-11.1	-13.7	209	13
2023-08-15T18:00	5913	497	-11.2	-13.8	209	13
2023-08-15T18:00	5945	495	-11.4	-13.8	209	13
2023-08-15T18:00	5975	493	-11.7	-13.8	208	13
2023-08-15T18:00	6009	491	-12.0	-14.0	208	13
2023-08-15T18:00	6037	489	-12.2	-14.0	208	14
2023-08-15T18:00	6069	487	-12.4	-14.0	208	14
2023-08-15T18:00	6099	485	-12.7	-14.2	208	14
2023-08-15T18:00	6131	483	-12.9	-14.4	208	14
2023-08-15T18:00	6161	481	-13.1	-15.1	208	14
2023-08-15T18:00	6193	479	-13.4	-15.5	209	14
2023-08-15T18:00	6226	477	-13.7	-15.6	210	14
2023-08-15T18:00	6257	475	-13.8	-16.7	211	14
2023-08-15T18:00	6289	473	-14.1	-16.8	211	14
2023-08-15T18:00	6319	471	-14.4	-17.5	212	14
2023-08-15T18:00	6352	469	-14.6	-18.6	213	14
2023-08-15T18:00	6385	467	-14.9	-19.0	213	14
2023-08-15T18:00	6416	465	-15.2	-18.9	214	14
2023-08-15T18:00	6444	463	-15.4	-19.1	213	14
2023-08-15T18:00	6476	461	-15.7	-19.7	212	14
2023-08-15T18:00	6506	459	-15.9	-19.4	211	14
2023-08-15T18:00	6538	458	-15.9	-22.8	210	14
2023-08-15T18:00	6568	456	-16.1	-23.5	209	14
2023-08-15T18:00	6602	454	-16.2	-22.0	207	13
2023-08-15T18:00	6627	452	-16.4	-21.6	206	13
2023-08-15T18:00	6655	450	-16.6	-20.6	205	13
2023-08-15T18:00	6686	449	-16.7	-18.6	204	13
2023-08-15T18:00	6718	447	-16.9	-20.0	203	13
2023-08-15T18:00	6749	445	-17.0	-20.5	202	13
2023-08-15T18:00	6778	443	-17.2	-22.4	202	14
2023-08-15T18:00	6807	441	-17.1	-26.2	201	14
2023-08-15T18:00	6835	440	-17.2	-26.1	200	14
2023-08-15T18:00	6860	438	-17.3	-25.7	200	14
2023-08-15T18:00	6885	437	-17.5	-24.6	200	14
2023-08-15T18:00	6911	435	-17.6	-26.5	199	14
2023-08-15T18:00	6942	434	-17.8	-25.9	200	14
2023-08-15T18:00	6971	432	-18.0	-24.0	200	13
2023-08-15T18:00	7001	430	-18.1	-24.3	201	13
2023-08-15T18:00	7028	428	-18.2	-25.9	202	13
2023-08-15T18:00	7061	427	-18.3	-24.4	203	13
2023-08-15T18:00	7089	425	-18.4	-24.8	203	14
2023-08-15T18:00	7117	423	-18.6	-25.6	204	14
2023-08-15T18:00	7147	422	-18.9	-25.2	205	15
2023-08-15T18:00	7176	420	-19.1	-26.7	205	15
2023-08-15T18:00	7204	419	-19.1	-29.0	205	15
2023-08-15T18:00	7235	417	-19.3	-28.7	205	15
2023-08-15T18:00	7259	415	-19.4	-28.1	204	16
2023-08-15T18:00	7290	414	-19.6	-28.1	204	16
2023-08-15T18:00	7313	412	-19.6	-32.7	203	16
2023-08-15T18:00	7338	411	-19.8	-31.6	203	17
2023-08-15T18:00	7369	409	-19.9	-31.5	203	17
2023-08-15T18:00	7395	408	-20.1	-31.7	203	17
2023-08-15T18:00	7419	407	-20.3	-31.6	203	18
2023-08-15T18:00	7449	405	-20.6	-31.5	204	18
2023-08-15T18:00	7472	404	-20.8	-31.3	205	18
2023-08-15T18:00	7505	402	-21.1	-31.7	205	18
2023-08-15T18:00	7535	400	-21.3	-32.5	206	18
2023-08-15T18:00	7566	399	-21.6	-33.1	206	18
2023-08-15T18:00	7593	397	-21.8	-33.9	207	18
2023-08-15T18:00	7615	396	-21.7	-32.2	207	17
2023-08-15T18:00	7645	394	-22.0	-31.1	207	17
2023-08-15T18:00	7676	393	-22.2	-32.1	207	17
2023-08-15T18:00	7696	392	-22.4	-32.7	207	16
2023-08-15T18:00	7720	390	-22.7	-32.9	207	16
2023-08-15T18:00	7746	389	-22.9	-33.3	207	16
2023-08-15T18:00	7768	388	-23.1	-34.1	208	16
2023-08-15T18:00	7796	386	-23.3	-35.2	209	16
2023-08-15T18:00	7825	385	-23.5	-33.8	209	16
2023-08-15T18:00	7853	383	-23.8	-32.1	210	16
2023-08-15T18:00	7878	382	-24.0	-31.0	210	16
2023-08-15T18:00	7906	381	-24.3	-30.8	211	16
2023-08-15T18:00	7931	379	-24.5	-30.2	211	16
2023-08-15T18:00	7954	378	-24.7	-29.8	213	15
2023-08-15T18:00	7990	376	-24.9	-29.3	214	15
2023-08-15T18:00	8015	375	-25.0	-30.0	215	14
2023-08-15T18:00	8042	373	-25.2	-30.3	215	14
2023-08-15T18:00	8069	372	-25.4	-29.9	214	14
2023-08-15T18:00	8100	371	-25.6	-29.9	214	13
2023-08-15T18:00	8131	369	-25.9	-30.0	213	13
2023-08-15T18:00	8162	367	-26.2	-29.7	213	14
2023-08-15T18:00	8189	366	-26.5	-29.2	213	14
2023-08-15T18:00	8215	365	-26.7	-28.6	213	14
2023-08-15T18:00	8237	364	-26.9	-28.6	212	14
2023-08-15T18:00	8257	362	-27.1	-28.6	212	14
2023-08-15T18:00	8284	361	-27.4	-28.7	212	14
2023-08-15T18:00	8309	360	-27.6	-29.1	211	14
2023-08-15T18:00	8340	358	-27.8	-29.5	211	14
2023-08-15T18:00	8367	357	-28.0	-29.4	210	14
2023-08-15T18:00	8390	356	-28.1	-29.3	208	15
2023-08-15T18:00	8419	355	-28.1	-32.7	207	15
2023-08-15T18:00	8445	353	-28.2	-33.6	207	16
2023-08-15T18:00	8465	352	-28.3	-32.9	206	16
2023-08-15T18:00	8491	351	-28.5	-32.9	206	17
2023-08-15T18:00	8514	350	-28.6	-34.0	206	17
2023-08-15T18:00	8541	349	-28.8	-35.2	206	17
2023-08-15T18:00	8562	347	-28.9	-37.1	205	17
2023-08-15T18:00	8587	346	-29.1	-40.5	204	17
2023-08-15T18:00	8615	345	-29.3	-36.7	203	17
2023-08-15T18:00	8644	344	-29.6	-34.3	202	17
2023-08-15T18:00	8671	342	-29.8	-35.2	201	16
2023-08-15T18:00	8700	341	-30.0	-38.3	201	16
2023-08-15T18:00	8723	340	-30.1	-40.7	200	16
2023-08-15T18:00	8746	339	-30.3	-39.6	200	16
2023-08-15T18:00	8778	337	-30.6	-38.6	200	17
2023-08-15T18:00	8807	336	-30.9	-38.8	200	17
2023-08-15T18:00	8831	335	-31.1	-37.7	198	17
2023-08-15T18:00	8862	333	-31.2	-36.7	197	17
2023-08-15T18:00	8891	332	-31.4	-37.3	196	17
2023-08-15T18:00	8913	331	-31.6	-37.2	195	18
2023-08-15T18:00	8942	329	-31.9	-37.4	194	18
2023-08-15T18:00	8972	328	-32.2	-37.7	195	18
2023-08-15T18:00	8997	327	-32.4	-38.1	196	19
2023-08-15T18:00	9024	326	-32.5	-38.0	197	19
2023-08-15T18:00	9047	324	-32.7	-37.8	198	19
2023-08-15T18:00	9074	323	-32.9	-37.5	199	18
2023-08-15T18:00	9105	322	-33.2	-37.5	201	18
2023-08-15T18:00	9135	321	-33.4	-38.2	202	18
2023-08-15T18:00	9158	319	-33.6	-39.1	203	17
2023-08-15T18:00	9187	318	-33.8	-39.4	204	17
2023-08-15T18:00	9214	317	-34.1	-39.6	204	17
2023-08-15T18:00	9243	316	-34.2	-39.3	204	17
2023-08-15T18:00	9271	314	-34.3	-39.3	203	17
2023-08-15T18:00	9302	313	-34.5	-39.3	203	17
2023-08-15T18:00	9329	312	-34.7	-39.5	202	17
2023-08-15T18:00	9353	311	-34.9	-39.4	202	17
2023-08-15T18:00	9382	309	-35.1	-39.3	203	17
2023-08-15T18:00	9413	308	-35.3	-39.5	204	17
2023-08-15T18:00	9439	307	-35.5	-39.8	204	17
2023-08-15T18:00	9468	306	-35.8	-39.9	204	17
2023-08-15T18:00	9492	304	-35.9	-39.8	203	18
2023-08-15T18:00	9522	303	-36.1	-40.0	203	18
2023-08-15T18:00	9547	302	-36.3	-40.3	203	18
2023-08-15T18:00	9578	301	-36.6	-40.5	203	19
2023-08-15T18:00	9610	299	-36.9	-40.8	205	19
2023-08-15T18:00	9642	298	-37.1	-40.9	208	19
2023-08-15T18:00	9671	297	-37.3		210	19
2023-08-15T18:00	9701	295	-37.5	-41.2	211	19
2023-08-15T18:00	9726	294	-37.7	-41.6	211	19
2023-08-15T18:00	9751	293	-37.8	-41.5	211	19
2023-08-15T18:00	9777	292	-38.0	-41.6	211	19
2023-08-15T18:00	9807	291	-38.2	-41.9	211	19
2023-08-15T18:00	9837	290	-38.5	-42.2	212	20
2023-08-15T18:00	9865	289	-38.7	-42.4	213	20
2023-08-15T18:00	9895	287	-39.0	-42.7	214	20
2023-08-15T18:00	9921	286	-39.2	-42.9	215	21
2023-08-15T18:00	9945	285	-39.4	-43.1	216	21
2023-08-15T18:00	9979	284	-39.7	-43.2	216	21
2023-08-15T18:00	10009	283	-40.0	-43.7	216	20
2023-08-15T18:00	10038	281	-40.3	-44.0	216	20
2023-08-15T18:00	10069	280	-40.5	-44.0	216	20
2023-08-15T18:00	10097	279	-40.7	-44.2	215	20
2023-08-15T18:00	10130	278	-41.0	-44.4	215	20
2023-08-15T18:00	10165	276	-41.3	-44.6	214	20
2023-08-15T18:00	10198	275	-41.6	-44.9	214	20
2023-08-15T18:00	10224	274	-41.8	-45.0	214	20
2023-08-15T18:00	10251	273	-42.0	-45.0	214	20
2023-08-15T18:00	10282	271	-42.3	-45.3	214	20
2023-08-15T18:00	10311	270	-42.5	-45.5	215	20
2023-08-15T18:00	10341	269	-42.8	-45.7	215	20
2023-08-15T18:00	10368	268	-43.0	-45.8	216	20
2023-08-15T18:00	10399	267	-43.3	-46.1	216	19
2023-08-15T18:00	10425	266	-43.5	-46.3	217	19
2023-08-15T18:00	10451	265	-43.7	-46.6	218	19
2023-08-15T18:00	10476	264	-43.9	-46.7	218	18
2023-08-15T18:00	10505	263	-44.2	-47.1	218	18
2023-08-15T18:00	10533	261	-44.4	-47.4	217	18
2023-08-15T18:00	10561	260	-44.6	-47.7	218	18
2023-08-15T18:00	10587	259	-44.9	-48.1	218	18
2023-08-15T18:00	10614	258	-45.1	-48.3	219	18
2023-08-15T18:00	10640	257	-45.3	-48.3	219	18
2023-08-15T18:00	10670	256	-45.6	-48.9	220	18
2023-08-15T18:00	10700	255	-45.8		220	17
2023-08-15T18:00	10731	254	-46.0	-50.1	220	17
2023-08-15T18:00	10756	253	-46.2	-50.4	220	17
2023-08-15T18:00	10782	252	-46.4	-50.5	220	17
2023-08-15T18:00	10810	251	-46.7		219	17
2023-08-15T18:00	10840	250	-46.9	-51.0	219	17
2023-08-15T18:00	10870	249	-47.2	-51.3	219	17
2023-08-15T18:00	10897	248	-47.4	-51.3	219	17
2023-08-15T18:00	10919	247	-47.7	-51.4	218	18
2023-08-15T18:00	10946	246	-47.8	-51.5	218	18
2023-08-15T18:00	10971	245	-48.1	-51.8	218	18
2023-08-15T18:00	10999	244	-48.3	-52.0	218	18
2023-08-15T18:00	11029	243	-48.6	-52.3	217	18
2023-08-15T18:00	11055	242	-48.8	-52.4	216	18
2023-08-15T18:00	11088	240	-49.1	-52.5	216	18
2023-08-15T18:00	11116	239	-49.3	-52.8	215	18
2023-08-15T18:00	11141	238	-49.5	-53.1	215	18
2023-08-15T18:00	11168	237	-49.7	-53.4	216	18
2023-08-15T18:00	11196	237	-50.0	-53.7	216	18
2023-08-15T18:00	11219	236	-50.2	-54.0	216	18
2023-08-15T18:00	11244	235	-50.4	-54.1	216	18
2023-08-15T18:00	11269	234	-50.6	-54.4	215	18
2023-08-15T18:00	11297	233	-50.9	-54.7	215	18
2023-08-15T18:00	11325	232	-51.1	-55.1	215	18
2023-08-15T18:00	11355	231	-51.3	-55.3	216	18
2023-08-15T18:00	11380	230	-51.5	-55.5	216	19
2023-08-15T18:00	11410	229	-51.8	-55.7	217	19
2023-08-15T18:00	11440	228	-52.0	-56.0	219	19
2023-08-15T18:00	11465	227	-52.2	-56.3	220	19
2023-08-15T18:00	11497	226	-52.3	-56.3	220	19
2023-08-15T18:00	11526	225	-52.6	-56.5	221	19
2023-08-15T18:00	11558	224	-52.8	-56.8	221	19
2023-08-15T18:00	11587	223	-53.1	-57.1	221	19
2023-08-15T18:00	11614	222	-53.3	-57.3	221	19
2023-08-15T18:00	11642	221	-53.5	-57.5	220	20
2023-08-15T18:00	11671	220	-53.7	-57.7	220	20
2023-08-15T18:00	11698	219	-53.8	-57.9	219	20
2023-08-15T18:00	11722	218	-53.9	-58.1	219	21
2023-08-15T18:00	11748	217	-54.1	-58.2	219	21
2023-08-15T18:00	11779	216	-54.4	-58.5	219	21
2023-08-15T18:00	11809	215	-54.6	-58.7	219	21
2023-08-15T18:00	11839	214	-54.8	-58.9	219	21
2023-08-15T18:00	11869	213	-55.1	-59.2	220	21
2023-08-15T18:00	11899	212	-55.3	-59.5	220	21
2023-08-15T18:00	11929	211	-55.6	-59.8	220	21
2023-08-15T18:00	11959	210	-55.9	-60.1	219	21
2023-08-15T18:00	11982	209	-56.0	-60.3	219	21
2023-08-15T18:00	12008	208	-56.3		219	21
2023-08-15T18:00	12034	208	-56.5	-60.8	219	21
2023-08-15T18:00	12062	207	-56.7	-60.9	218	21
2023-08-15T18:00	12091	206	-57.0	-61.2	217	20
2023-08-15T18:00	12124	205	-57.2	-61.4	215	20
2023-08-15T18:00	12152	204	-57.4	-61.6	213	20
2023-08-15T18:00	12179	203	-57.7	-61.9	212	20
2023-08-15T18:00	12209	202	-57.9	-62.0	210	20
2023-08-15T18:00	12237	201	-58.0	-62.1	209	20
2023-08-15T18:00	12260	200	-58.1	-62.1	209	20
2023-08-15T18:00	12288	199	-58.3	-62.3	210	21
2023-08-15T18:00	12316	199	-58.5	-62.5	211	21
2023-08-15T18:00	12349	197	-58.7	-62.5	212	22
2023-08-15T18:00	12389	196	-58.6	-62.3	213	23
2023-08-15T18:00	12411	196	-58.2	-61.9	215	24
2023-08-15T18:00	12437	195	-58.0	-61.7	217	25
2023-08-15T18:00	12470	194	-58.2	-62.0	219	26
2023-08-15T18:00	12506	193	-58.5	-62.3	220	27
2023-08-15T18:00	12544	192	-58.6	-62.4	221	27
2023-08-15T18:00	12567	191	-58.4	-62.2	222	28
2023-08-15T18:00	12590	190	-58.2	-61.9	221	27
2023-08-15T18:00	12616	189	-58.0	-61.6	220	27
2023-08-15T18:00	12644	188	-57.7	-61.3	219	26
2023-08-15T18:00	12668	188	-57.2	-60.8	218	26
2023-08-15T18:00	12692	187	-57.2	-60.9	217	25
2023-08-15T18:00	12714	186	-57.2	-61.0	217	25
2023-08-15T18:00	12741	186	-57.1	-61.1	216	25
2023-08-15T18:00	12765	185	-57.2	-61.2	215	24
2023-08-15T18:00	12788	184	-57.4	-61.4	215	24
2023-08-15T18:00	12810	184	-57.5	-61.5	214	24
2023-08-15T18:00	12835	183	-57.4	-61.4	212	23
2023-08-15T18:00	12860	182	-57.5	-61.5	211	23
2023-08-15T18:00	12885	181	-57.6	-61.5	210	22
2023-08-15T18:00	12908	181	-57.5	-61.3	209	21
2023-08-15T18:00	12935	180	-56.8	-60.5	207	20
2023-08-15T18:00	12957	179	-56.3	-60.3	205	20
2023-08-15T18:00	12981	179	-55.7	-60.5	204	19
2023-08-15T18:00	13000	178	-55.5	-62.2	202	18
2023-08-15T18:00	13018	178	-55.1	-65.3	200	18
2023-08-15T18:00	13041	177	-54.7	-70.8	199	18
2023-08-15T18:00	13061	176	-54.5	-81.2	199	19
2023-08-15T18:00	13081	176	-54.5	-89.2	199	19
2023-08-15T18:00	13101	175	-54.5	-86.6	201	20
2023-08-15T18:00	13122	175	-54.3		203	20
2023-08-15T18:00	13143	174	-54.1	-76.2	206	21
2023-08-15T18:00	13172	173	-53.6	-72.3	209	21
2023-08-15T18:00	13209	173	-52.7	-68.5	213	22
2023-08-15T18:00	13240	172	-52.9	-66.4	216	22
2023-08-15T18:00	13274	171	-53.2	-65.1	218	23
2023-08-15T18:00	13299	170	-53.3	-64.4	220	23
2023-08-15T18:00	13324	169	-53.5	-64.2	221	24
2023-08-15T18:00	13355	169	-53.8	-64.3	222	24
2023-08-15T18:00	13381	168	-54.0	-64.4	222	24
2023-08-15T18:00	13405	167	-54.2	-64.9	222	24
2023-08-15T18:00	13429	167	-54.4	-65.9	222	24
2023-08-15T18:00	13456	166	-54.6	-67.3	222	24
2023-08-15T18:00	13482	165	-54.8	-69.2	223	24
2023-08-15T18:00	13507	165	-54.9	-71.0	223	24
2023-08-15T18:00	13533	164	-55.0	-73.0	224	23
2023-08-15T18:00	13561	163	-55.0	-75.1	226	23
2023-08-15T18:00	13588	163	-54.9	-76.9	227	23
2023-08-15T18:00	13612	162	-54.9	-76.7	227	22
2023-08-15T18:00	13636	161	-54.8	-75.2	228	22
2023-08-15T18:00	13659	161	-54.8	-74.1	228	21
2023-08-15T18:00	13684	160	-54.5	-74.1	228	20
2023-08-15T18:00	13706	160	-54.0	-75.2	227	20
2023-08-15T18:00	13731	159	-53.8	-77.1	225	19
2023-08-15T18:00	13756	158	-53.6	-78.5	224	19
2023-08-15T18:00	13777	158	-53.3	-78.9	222	19
2023-08-15T18:00	13800	157	-53.0	-79.0	220	18
2023-08-15T18:00	13828	157	-52.7	-78.7	219	18
2023-08-15T18:00	13853	156	-52.7	-78.7	218	18
2023-08-15T18:00	13875	155	-52.9	-78.9	217	18
2023-08-15T18:00	13899	155	-53.0	-78.7	216	18
2023-08-15T18:00	13923	154	-53.1	-78.6	215	18
2023-08-15T18:00	13946	154	-53.3	-78.7	215	18
2023-08-15T18:00	13969	153	-53.5	-78.9	214	18
2023-08-15T18:00	13992	153	-53.6	-78.9	214	18
2023-08-15T18:00	14015	152	-53.7	-79.0	214	18
2023-08-15T18:00	14039	152	-53.7	-79.0	215	18
2023-08-15T18:00	14064	151	-53.5	-78.9	216	17
2023-08-15T18:00	14088	150	-53.3	-78.7	216	17
2023-08-15T18:00	14109	150	-53.1	-78.6	217	17
2023-08-15T18:00	14133	149	-52.8	-78.6	217	16
2023-08-15T18:00	14158	149	-52.6	-78.4	216	16
2023-08-15T18:00	14182	148	-52.4	-78.2	215	16
2023-08-15T18:00	14206	148	-52.5	-78.6	213	15
2023-08-15T18:00	14229	147	-52.7	-78.7	212	15
2023-08-15T18:00	14253	147	-52.6	-78.4	211	15
2023-08-15T18:00	14277	146	-52.8	-78.6	210	15
2023-08-15T18:00	14301	146	-52.7		209	15
2023-08-15T18:00	14322	145	-52.8	-78.8	209	16
2023-08-15T18:00	14347	144	-52.7	-78.7	210	16
2023-08-15T18:00	14371	144	-52.6	-78.7	212	16
2023-08-15T18:00	14394	143	-52.6	-78.9	214	17
2023-08-15T18:00	14418	143	-52.7	-79.0	217	17
2023-08-15T18:00	14441	142	-52.9	-79.1	219	16
2023-08-15T18:00	14467	142	-52.9	-79.1	222	16
2023-08-15T18:00	14493	141	-52.9	-79.1	225	16
2023-08-15T18:00	14518	141	-53.0	-79.2	228	16
2023-08-15T18:00	14540	140	-53.1	-79.3	230	15
2023-08-15T18:00	14567	140	-53.3	-79.5	231	14
2023-08-15T18:00	14591	139	-53.2	-79.7	231	14
2023-08-15T18:00	14614	139	-52.9	-79.4	230	13
2023-08-15T18:00	14638	138	-52.5	-79.4	228	13
2023-08-15T18:00	14661	138	-52.4	-79.3	225	12
2023-08-15T18:00	14688	137	-52.6	-79.5	223	12
2023-08-15T18:00	14709	137	-52.7	-79.6	221	12
2023-08-15T18:00	14732	136	-52.8	-79.6	219	12
2023-08-15T18:00	14757	136	-52.9	-79.7	219	13
2023-08-15T18:00	14781	135	-53.2	-79.7	219	13
2023-08-15T18:00	14805	135	-53.4	-79.8	218	13
2023-08-15T18:00	14829	134	-53.6	-79.7	217	14
2023-08-15T18:00	14858	133	-53.9	-79.9	215	14
2023-08-15T18:00	14883	133	-54.1	-80.1	213	14
2023-08-15T18:00	14906	132	-54.3		211	14
2023-08-15T18:00	14928	132	-54.5	-80.1	209	14
2023-08-15T18:00	14952	132	-54.6	-80.2	208	14
2023-08-15T18:00	14974	131	-54.7	-80.3	206	14
2023-08-15T18:00	14996	131	-54.7	-80.3	205	14
2023-08-15T18:00	15017	130	-54.6	-80.2	205	14
2023-08-15T18:00	15041	130	-54.7	-80.3	205	14
2023-08-15T18:00	15062	129	-54.9	-80.2	206	14
2023-08-15T18:00	15083	129	-55.1	-80.4	206	15
2023-08-15T18:00	15106	128	-55.2	-80.4	207	15
2023-08-15T18:00	15128	128	-55.3	-80.5	207	15
2023-08-15T18:00	15150	128	-55.3	-80.8	208	16
2023-08-15T18:00	15170	127	-55.2	-80.7	208	16
2023-08-15T18:00	15192	127	-54.9	-80.7	208	16
2023-08-15T18:00	15216	126	-54.9	-80.7	209	16
2023-08-15T18:00	15238	126	-55.1	-80.9	210	16
2023-08-15T18:00	15260	125	-55.2	-80.7	211	17
2023-08-15T18:00	15284	125	-55.4	-80.8	212	17
2023-08-15T18:00	15306	124	-55.5	-80.9	214	17
2023-08-15T18:00	15329	124	-55.4	-80.8	215	17
2023-08-15T18:00	15353	124	-55.5	-80.9	217	17
2023-08-15T18:00	15375	123	-55.6	-81.0	219	17
2023-08-15T18:00	15399	123	-55.6	-81.0	220	17
2023-08-15T18:00	15419	122	-55.6	-81.0	222	17
2023-08-15T18:00	15443	122	-55.6	-81.0	223	17
2023-08-15T18:00	15469	121	-55.7	-81.3	225	18
2023-08-15T18:00	15490	121	-55.7	-81.3	226	18
2023-08-15T18:00	15515	120	-55.6	-81.3	227	18
2023-08-15T18:00	15539	120	-55.7	-81.3	227	18
2023-08-15T18:00	15564	119	-55.8	-81.4	227	18
2023-08-15T18:00	15588	119	-55.9	-81.5	226	17
2023-08-15T18:00	15611	119	-55.9	-81.5	225	17
2023-08-15T18:00	15636	118	-55.6	-81.3	225	16
2023-08-15T18:00	15662	118	-55.6	-81.5	224	16
2023-08-15T18:00	15685	117	-55.4	-81.4	224	15
2023-08-15T18:00	15708	117	-55.6	-81.5	224	15
2023-08-15T18:00	15736	116	-55.7	-81.6	224	15
2023-08-15T18:00	15758	116	-55.8	-81.4	223	14
2023-08-15T18:00	15782	115	-55.9	-81.5	223	14
2023-08-15T18:00	15807	115	-56.0	-81.6	222	13
2023-08-15T18:00	15833	115	-56.2	-81.7	222	13
2023-08-15T18:00	15857	114	-56.4	-81.6	221	13
2023-08-15T18:00	15881	114	-56.5	-81.7	221	12
2023-08-15T18:00	15907	113	-56.7	-81.6	221	12
2023-08-15T18:00	15932	113	-56.9	-81.8	220	12
2023-08-15T18:00	15958	112	-57.1	-81.9	220	11
2023-08-15T18:00	15984	112	-57.3	-81.8	219	11
2023-08-15T18:00	16008	111	-57.4	-81.9	217	11
2023-08-15T18:00	16033	111	-57.6	-82.1	215	10
2023-08-15T18:00	16056	111	-57.8	-82.2	212	10
2023-08-15T18:00	16083	110	-57.7	-82.4	209	9
2023-08-15T18:00	16107	110	-57.3	-82.3	205	9
2023-08-15T18:00	16129	109	-56.8	-82.2	201	9
2023-08-15T18:00	16154	109	-56.5	-82.2	198	10
2023-08-15T18:00	16178	108	-56.3	-82.3	196	10
2023-08-15T18:00	16200	108	-56.0	-82.4	196	11
2023-08-15T18:00	16224	108	-55.8	-82.2	196	12
2023-08-15T18:00	16249	107	-55.5	-82.0	196	12
2023-08-15T18:00	16271	107	-55.4	-81.9	197	13
2023-08-15T18:00	16298	106	-55.5	-82.0	197	14
2023-08-15T18:00	16318	106	-55.4	-81.9	198	14
2023-08-15T18:00	16340	106	-55.5	-82.0	198	15
2023-08-15T18:00	16361	105	-55.6	-82.1	199	15
2023-08-15T18:00	16384	105	-55.8	-82.0	200	15
2023-08-15T18:00	16405	105	-55.9	-82.0	200	15
2023-08-15T18:00	16430	104	-56.1	-82.2	201	15
2023-08-15T18:00	16450	104	-56.2	-82.3	202	15
2023-08-15T18:00	16470	104	-56.2	-82.3	203	15
2023-08-15T18:00	16492	103	-56.1	-82.5	204	15
2023-08-15T18:00	16517	103	-55.7	-82.2	205	14
2023-08-15T18:00	16540	102	-55.6	-82.4	206	14
2023-08-15T18:00	16564	102	-55.6	-82.4	206	13
2023-08-15T18:00	16587	102	-55.1	-82.3	205	13
2023-08-15T18:00	16611	101	-54.9	-82.2	204	12
2023-08-15T18:00	16632	101	-54.9	-82.5	203	12
2023-08-15T18:00	16656	101	-54.8	-82.4	203	12
2023-08-15T18:00	16682	100	-54.7	-82.4	204	12
2023-08-15T18:00	16702	100	-54.8	-82.4	205	12
2023-08-15T18:00	16726	100	-54.9	-82.5	207	12
2023-08-15T18:00	16748	99	-54.8	-82.4	210	12
2023-08-15T18:00	16773	99	-54.6	-82.6	213	12
2023-08-15T18:00	16794	98	-54.4	-82.5	216	11
2023-08-15T18:00	16818	98	-54.2	-82.3	220	11
2023-08-15T18:00	16841	98	-54.2	-82.3	223	11
2023-08-15T18:00	16868	97	-54.3	-82.4	225	11
2023-08-15T18:00	16895	97	-54.4	-82.5	227	10
2023-08-15T18:00	16916	97	-54.3	-82.4	227	10
2023-08-15T18:00	16942	96	-54.2	-82.3	227	10
2023-08-15T18:00	16965	96	-54.1	-82.3	227	10
2023-08-15T18:00	16992	95	-54.2	-82.3	227	10
2023-08-15T18:00	17015	95	-54.3	-82.4	228	10
2023-08-15T18:00	17044	95	-54.3	-82.4	230	11
2023-08-15T18:00	17072	94	-54.4	-82.5	233	11
2023-08-15T18:00	17100	94	-54.5	-82.6	236	11
2023-08-15T18:00	17125	94	-54.6	-82.6	238	12
2023-08-15T18:00	17148	93	-54.8	-82.4	241	12
2023-08-15T18:00	17174	93	-54.9	-82.5	242	12
2023-08-15T18:00	17200	92	-55.0	-82.9	243	11
2023-08-15T18:00	17224	92	-54.8	-82.8	244	11
2023-08-15T18:00	17251	92	-54.7	-82.7	244	10
2023-08-15T18:00	17278	91	-54.6	-82.6	244	10
2023-08-15T18:00	17302	91	-54.7	-82.7	244	9
2023-08-15T18:00	17327	91	-54.7	-82.7	245	9
2023-08-15T18:00	17354	90	-54.8	-82.8	245	8
2023-08-15T18:00	17376	90	-55.0	-82.9	246	8
2023-08-15T18:00	17402	90	-55.0	-82.9	244	7
2023-08-15T18:00	17430	89	-54.9	-82.9	242	7
2023-08-15T18:00	17455	89	-54.9	-82.9	238	7
2023-08-15T18:00	17484	88	-54.9	-82.9	231	6
2023-08-15T18:00	17513	88	-55.1	-83.0	223	6
2023-08-15T18:00	17539	88	-55.2	-82.7	214	6
2023-08-15T18:00	17568	87	-55.4	-82.9	204	6
2023-08-15T18:00	17599	87	-55.6	-83.1	195	7
2023-08-15T18:00	17631	86	-55.6	-83.1	187	7
2023-08-15T18:00	17660	86	-55.8	-82.9	181	7
2023-08-15T18:00	17692	86	-56.2	-83.2	176	8
2023-08-15T18:00	17722	85	-56.5	-83.4	173	8
2023-08-15T18:00	17746	85	-56.4	-83.3	170	9
2023-08-15T18:00	17775	84	-56.2	-83.2	169	9
2023-08-15T18:00	17800	84	-56.3	-83.6	169	10
2023-08-15T18:00	17827	84	-56.5	-83.7	170	10
2023-08-15T18:00	17847	84	-56.5	-83.7	171	11
2023-08-15T18:00	17870	83	-56.2	-83.5	172	11
2023-08-15T18:00	17893	83	-56.0	-83.7	174	11
2023-08-15T18:00	17914	83	-55.8	-83.6	177	11
2023-08-15T18:00	17933	82	-55.8	-83.6	179	11
2023-08-15T18:00	17959	82	-55.9	-83.6	182	11
2023-08-15T18:00	17977	82	-56.0	-83.4	185	11
2023-08-15T18:00	17995	82	-56.1	-83.4	188	11
2023-08-15T18:00	18014	81	-56.2	-83.5	191	11
2023-08-15T18:00	18036	81	-56.3	-83.6	194	11
2023-08-15T18:00	18056	81	-56.4	-83.7	196	11
2023-08-15T18:00	18074	81	-56.5	-83.7	199	11
2023-08-15T18:00	18093	80	-56.7	-83.9	202	11
2023-08-15T18:00	18114	80	-56.8	-84.0	206	10
2023-08-15T18:00	18133	80	-56.8	-84.0	209	10
2023-08-15T18:00	18154	80	-56.6	-83.8	211	10
2023-08-15T18:00	18171	79	-56.3	-83.9	212	9
2023-08-15T18:00	18197	79	-56.2	-83.9	212	9
2023-08-15T18:00	18213	79	-56.1	-83.8	211	9
2023-08-15T18:00	18234	79	-56.0	-83.7	209	9
2023-08-15T18:00	18254	78	-56.0	-83.7	208	8
2023-08-15T18:00	18277	78	-56.0	-83.7	208	8
2023-08-15T18:00	18297	78	-56.0	-83.7	208	8
2023-08-15T18:00	18317	78	-56.1	-83.8	210	8
2023-08-15T18:00	18334	77	-56.0	-83.7	212	8
2023-08-15T18:00	18353	77	-56.0	-83.7	214	8
2023-08-15T18:00	18375	77	-56.0	-83.7	215	8
2023-08-15T18:00	18394	77	-56.0	-83.7	216	8
2023-08-15T18:00	18419	76	-55.8	-83.6	216	8
2023-08-15T18:00	18437	76	-55.8	-83.9	217	7
2023-08-15T18:00	18460	76	-55.5	-83.7	217	7
2023-08-15T18:00	18482	76	-55.3	-83.6	216	7
2023-08-15T18:00	18504	75	-55.3	-83.6	216	6
2023-08-15T18:00	18525	75	-55.2	-83.5	215	6
2023-08-15T18:00	18548	75	-55.0		216	6
2023-08-15T18:00	18569	75	-55.0		218	6
2023-08-15T18:00	18588	74	-55.1	-83.4	221	5
2023-08-15T18:00	18613	74	-55.2	-83.5	224	5
2023-08-15T18:00	18637	74	-55.3	-83.6	224	5
2023-08-15T18:00	18660	73	-55.3	-83.6	222	5
2023-08-15T18:00	18684	73	-55.2	-83.5	218	5
2023-08-15T18:00	18705	73	-55.2	-83.5	212	5
2023-08-15T18:00	18728	73	-55.2	-83.5	206	5
2023-08-15T18:00	18752	72	-55.2	-83.5	201	5
2023-08-15T18:00	18776	72	-55.3	-83.6	195	5
2023-08-15T18:00	18799	72	-55.2	-83.5	191	5
2023-08-15T18:00	18826	72	-55.2	-83.5	187	5
2023-08-15T18:00	18847	71	-55.2	-83.5	185	5
2023-08-15T18:00	18872	71	-55.2	-83.5	185	5
2023-08-15T18:00	18897	71	-55.3	-83.6	187	5
2023-08-15T18:00	18924	71	-55.3	-83.6	190	4
2023-08-15T18:00	18949	70	-55.4	-83.6	194	4
2023-08-15T18:00	18973	70	-55.5	-83.7	195	4
2023-08-15T18:00	19000	70	-55.5	-83.7	194	4
2023-08-15T18:00	19025	69	-55.6	-83.4	190	4
2023-08-15T18:00	19051	69	-55.7	-83.5	185	4
2023-08-15T18:00	19077	69	-55.8	-83.6	181	5
2023-08-15T18:00	19106	69	-56.0	-83.7	178	5
2023-08-15T18:00	19131	68	-56.1	-83.8	176	6
2023-08-15T18:00	19159	68	-56.3	-83.6	175	6
2023-08-15T18:00	19182	68	-56.4	-84.0	175	6
2023-08-15T18:00	19210	67	-56.5	-84.1	176	6
2023-08-15T18:00	19238	67	-56.6	-84.2	178	6
2023-08-15T18:00	19264	67	-56.7	-83.9	180	6
2023-08-15T18:00	19286	67	-56.7	-83.9	183	5
2023-08-15T18:00	19312	66	-56.8	-84.0	186	5
2023-08-15T18:00	19341	66	-56.8	-84.0	187	4
2023-08-15T18:00	19363	66	-56.9	-84.0	186	4
2023-08-15T18:00	19389	66	-57.1	-84.2	183	4
2023-08-15T18:00	19411	65	-57.2	-84.3	180	4
2023-08-15T18:00	19440	65	-57.1	-84.2	178	5
2023-08-15T18:00	19461	65	-57.2	-84.3	177	5
2023-08-15T18:00	19486	65	-57.1	-84.2	178	5
2023-08-15T18:00	19512	64	-57.0	-84.1	180	5
2023-08-15T18:00	19539	64	-57.1	-84.2	183	5
2023-08-15T18:00	19564	64	-57.2	-84.3	185	5
2023-08-15T18:00	19591	64	-57.3	-84.4	187	5
2023-08-15T18:00	19612	63	-57.4	-84.4	189	5
2023-08-15T18:00	19636	63	-57.5	-84.5	190	5
2023-08-15T18:00	19659	63	-57.5	-84.5	192	4
2023-08-15T18:00	19684	63	-57.5	-84.5	195	4
2023-08-15T18:00	19708	62	-57.4	-84.4	197	4
2023-08-15T18:00	19731	62	-57.5	-84.5	197	3
2023-08-15T18:00	19754	62	-57.5	-84.5	193	3
2023-08-15T18:00	19781	62	-57.5	-84.9	184	3
2023-08-15T18:00	19806	61	-57.5	-84.9	172	3
2023-08-15T18:00	19828	61	-57.3	-84.7	161	4
2023-08-15T18:00	19852	61	-57.2	-84.6	154	4
2023-08-15T18:00	19872	61	-57.2	-84.6	151	5
2023-08-15T18:00	19899	60	-57.3	-84.7	150	6
2023-08-15T18:00	19922	60	-57.2	-84.6	150	6
2023-08-15T18:00	19946	60	-57.1	-84.6	151	7
2023-08-15T18:00	19972	60	-57.2	-84.6	152	8
2023-08-15T18:00	19990	60	-57.3	-84.7	154	8
2023-08-15T18:00	20014	59	-57.4	-84.8	156	8
2023-08-15T18:00	20037	59	-57.4	-84.4	158	8
2023-08-15T18:00	20061	59	-57.5	-84.9	161	8
2023-08-15T18:00	20085	59	-57.4	-84.8	163	7
2023-08-15T18:00	20108	58	-57.1	-84.6	165	6
2023-08-15T18:00	20131	58	-57.1	-84.6	167	6
2023-08-15T18:00	20154	58	-57.0	-84.8	167	6
2023-08-15T18:00	20182	58	-56.9	-84.8	165	5
2023-08-15T18:00	20204	58	-56.4	-84.8	163	5
2023-08-15T18:00	20226	57	-56.1	-84.6	160	5
2023-08-15T18:00	20254	57	-55.9	-84.4	159	6
2023-08-15T18:00	20279	57	-55.4	-84.5	160	6
2023-08-15T18:00	20302	57	-54.9	-84.1	162	7
2023-08-15T18:00	20322	57	-54.9	-84.1	164	7
2023-08-15T18:00	20356	56	-54.9	-83.7	166	8
2023-08-15T18:00	20378	56	-55.0	-83.7	169	8
2023-08-15T18:00	20402	56	-55.1	-83.8	172	9
2023-08-15T18:00	20426	56	-55.2	-83.5	177	9
2023-08-15T18:00	20452	55	-55.4	-83.6	181	9
2023-08-15T18:00	20475	55	-55.6	-83.8	185	9
2023-08-15T18:00	20501	55	-55.6	-83.8	188	9
2023-08-15T18:00	20526	55	-55.3	-83.6	190	9
2023-08-15T18:00	20549	55	-55.1	-83.8	192	8
2023-08-15T18:00	20574	54	-55.1	-83.8	193	7
2023-08-15T18:00	20600	54	-55.0	-83.7	194	6
2023-08-15T18:00	20624	54	-54.9	-83.7	195	6
2023-08-15T18:00	20650	54	-54.9	-83.7	197	5
2023-08-15T18:00	20674	54	-55.0	-83.7	200	5
2023-08-15T18:00	20696	53	-54.9	-83.7	203	5
2023-08-15T18:00	20723	53	-54.8	-83.6	206	4
2023-08-15T18:00	20746	53	-54.6	-83.9	210	4
2023-08-15T18:00	20770	53	-54.4	-83.7	212	4
2023-08-15T18:00	20796	53	-54.2	-83.6	212	3
2023-08-15T18:00	20820	52	-54.3	-83.6	210	3
2023-08-15T18:00	20843	52	-54.3	-83.6	204	3
2023-08-15T18:00	20871	52	-54.1	-83.5	194	2
2023-08-15T18:00	20896	52	-54.1	-83.5	183	2
2023-08-15T18:00	20918	52	-54.1	-83.1	171	2
2023-08-15T18:00	20941	51	-54.2	-83.1	157	2
2023-08-15T18:00	20967	51	-54.4	-83.3	143	2
2023-08-15T18:00	20988	51	-54.6	-83.4	130	2
2023-08-15T18:00	21018	51	-54.6	-83.4	123	3
2023-08-15T18:00	21044	51	-54.7	-83.5	121	3
2023-08-15T18:00	21068	50	-54.8	-83.2	123	4
2023-08-15T18:00	21090	50	-54.8	-83.6	128	4
2023-08-15T18:00	21118	50	-54.9	-83.7	134	4
2023-08-15T18:00	21137	50	-55.0	-83.7	141	4
2023-08-15T18:00	21162	50	-54.9	-83.7	147	5
2023-08-15T18:00	21187	49	-54.9	-83.3	154	5
2023-08-15T18:00	21214	49	-55.0		160	5
2023-08-15T18:00	21238	49	-55.2	-83.5	166	5
2023-08-15T18:00	21260	49	-55.3	-83.6	172	5
2023-08-15T18:00	21290	49	-55.4	-83.6	180	5
2023-08-15T18:00	21312	48	-55.3	-84.0	187	5
2023-08-15T18:00	21336	48	-55.0	-83.7	194	5
2023-08-15T18:00	21364	48	-54.8	-83.6	201	5
2023-08-15T18:00	21391	48	-54.6	-83.9	207	4
2023-08-15T18:00	21414	48	-54.5	-83.8	212	4
2023-08-15T18:00	21436	48	-54.2	-83.6	217	3
2023-08-15T18:00	21466	47	-54.1	-83.5	224	2
2023-08-15T18:00	21487	47	-54.2	-83.6	236	2
2023-08-15T18:00	21515	47	-54.3	-83.2	253	1
2023-08-15T18:00	21540	47	-54.3	-83.2	273	1
2023-08-15T18:00	21567	47	-54.4	-83.3	294	1
2023-08-15T18:00	21595	46	-54.3	-83.2	319	1
2023-08-15T18:00	21620	46	-54.2	-83.1	2	1
2023-08-15T18:00	21643	46	-54.1	-83.1	73	1
2023-08-15T18:00	21671	46	-54.2	-83.1	112	1
2023-08-15T18:00	21697	46	-54.2	-83.1	131	2
2023-08-15T18:00	21725	45	-54.3	-83.2	142	3
2023-08-15T18:00	21755	45	-54.5	-83.4	148	3
2023-08-15T18:00	21778	45	-54.4	-83.3	152	4
2023-08-15T18:00	21807	45	-54.3	-83.2	154	4
2023-08-15T18:00	21833	45	-54.4	-83.3	155	4
2023-08-15T18:00	21860	44	-54.6	-83.4	155	4
2023-08-15T18:00	21889	44	-54.7	-83.5	154	5
2023-08-15T18:00	21917	44	-54.8	-83.2	154	5
2023-08-15T18:00	21941	44	-54.8	-83.2	154	5
2023-08-15T18:00	21970	44	-54.9	-83.3	155	5
2023-08-15T18:00	22000	44	-55.0		157	5
2023-08-15T18:00	22023	43	-55.1	-83.4	159	6
2023-08-15T18:00	22049	43	-55.0		161	6
2023-08-15T18:00	22082	43	-54.9	-83.7	163	5
2023-08-15T18:00	22107	43	-55.1	-83.8	165	5
2023-08-15T18:00	22134	43	-55.1	-83.8	167	5
2023-08-15T18:00	22156	42	-55.0	-83.7	167	5
2023-08-15T18:00	22183	42	-55.0	-83.7	166	5
2023-08-15T18:00	22207	42	-54.7	-83.5	161	4
2023-08-15T18:00	22238	42	-54.6	-83.4	152	4
2023-08-15T18:00	22262	42	-54.7	-83.5	141	4
2023-08-15T18:00	22288	42	-54.7	-83.5	133	4
2023-08-15T18:00	22311	41	-54.6	-83.4	127	5
2023-08-15T18:00	22334	41	-54.5	-83.4	126	5
2023-08-15T18:00	22358	41	-54.4	-83.3	126	6
2023-08-15T18:00	22384	41	-54.5	-83.4	127	6
2023-08-15T18:00	22410	41	-54.5	-83.4	130	6
2023-08-15T18:00	22439	41	-54.5	-83.4	132	6
2023-08-15T18:00	22466	40	-54.5	-83.4	136	6
2023-08-15T18:00	22492	40	-54.6	-83.4	139	6
2023-08-15T18:00	22512	40	-54.7	-83.5	143	6
2023-08-15T18:00	22538	40	-54.8	-83.6	146	6
2023-08-15T18:00	22566	40	-54.8	-83.6	148	6
2023-08-15T18:00	22591	40	-54.9	-83.7	149	6
2023-08-15T18:00	22618	40	-54.9	-83.7	148	5
2023-08-15T18:00	22645	39	-54.9	-83.7	145	5
2023-08-15T18:00	22671	39	-54.9	-83.7	140	5
2023-08-15T18:00	22698	39	-54.8	-83.6	133	4
2023-08-15T18:00	22721	39	-54.7	-83.5	126	4
2023-08-15T18:00	22746	39	-54.6	-83.4	120	5
2023-08-15T18:00	22774	39	-54.6	-83.4	116	5
2023-08-15T18:00	22803	38	-54.7	-83.5	114	6
2023-08-15T18:00	22828	38	-54.7	-83.5	114	6
2023-08-15T18:00	22853	38	-54.7	-83.5	114	7
2023-08-15T18:00	22880	38	-54.8	-83.6	116	7
2023-08-15T18:00	22908	38	-54.9	-83.7	118	7
2023-08-15T18:00	22933	38	-54.9	-83.7	119	7
2023-08-15T18:00	22954	37	-55.0	-83.7	120	7
2023-08-15T18:00	22983	37	-54.9	-83.7	121	6
2023-08-15T18:00	23009	37	-54.8	-83.6	123	6
2023-08-15T18:00	23041	37	-54.8	-83.6	126	5
2023-08-15T18:00	23067	37	-54.8	-83.6	131	5
2023-08-15T18:00	23091	37	-54.9	-83.7	136	5
2023-08-15T18:00	23123	37	-55.1	-83.8	142	5
2023-08-15T18:00	23152	36	-55.2	-83.5	147	5
2023-08-15T18:00	23171	36	-55.3	-83.6	151	5
2023-08-15T18:00	23199	36	-55.4	-83.6	151	4
2023-08-15T18:00	23226	36	-55.5	-83.7	149	4
2023-08-15T18:00	23253	36	-55.5	-83.7	143	4
2023-08-15T18:00	23274	36	-55.4	-83.6	135	4
2023-08-15T18:00	23306	36	-55.5	-83.7	127	4
2023-08-15T18:00	23332	35	-55.5	-83.7	121	4
2023-08-15T18:00	23358	35	-55.5	-83.7	117	5
2023-08-15T18:00	23379	35	-55.6	-83.8	115	5
2023-08-15T18:00	23405	35	-55.6	-83.8	114	6
2023-08-15T18:00	23436	35	-55.6	-84.2	115	7
2023-08-15T18:00	23458	35	-55.6	-84.2	116	7
2023-08-15T18:00	23489	34	-55.5	-84.1	118	8
2023-08-15T18:00	23509	34	-55.4	-84.0	120	8
2023-08-15T18:00	23534	34	-55.3	-84.0	123	8
2023-08-15T18:00	23564	34	-55.4	-84.0	126	8
2023-08-15T18:00	23584	34	-55.4	-84.0	129	8
2023-08-15T18:00	23611	34	-55.6	-84.2	132	8
2023-08-15T18:00	23641	34	-55.6	-84.2	134	7
2023-08-15T18:00	23661	34	-55.6	-84.2	135	7
2023-08-15T18:00	23684	33	-55.5	-84.1	135	6
2023-08-15T18:00	23714	33	-55.4	-84.0	133	6
2023-08-15T18:00	23740	33	-55.3	-84.0	131	5
2023-08-15T18:00	23763	33	-55.2	-83.9	130	5
2023-08-15T18:00	23786	33	-55.0	-83.7	130	5
2023-08-15T18:00	23809	33	-55.0	-83.7	130	5
2023-08-15T18:00	23832	33	-55.0	-83.7	130	6
2023-08-15T18:00	23857	33	-54.9	-83.7	129	6
2023-08-15T18:00	23878	32	-54.9	-83.7	128	5
2023-08-15T18:00	23904	32	-54.8	-83.6	126	5
2023-08-15T18:00	23925	32	-54.8	-83.6	123	5
2023-08-15T18:00	23952	32	-54.8	-83.6	120	5
2023-08-15T18:00	23976	32	-54.9	-83.7	117	5
2023-08-15T18:00	24002	32	-55.0	-83.7	115	4
2023-08-15T18:00	24033	32	-55.0	-83.7	113	4
2023-08-15T18:00	24052	32	-55.0	-83.7	111	4
2023-08-15T18:00	24076	31	-55.0	-83.7	110	4
2023-08-15T18:00	24099	31	-54.9	-83.7	109	4
2023-08-15T18:00	24122	31	-54.8	-83.6	109	4
2023-08-15T18:00	24150	31	-54.7	-83.9	110	5
2023-08-15T18:00	24177	31	-54.6	-83.9	111	5
2023-08-15T18:00	24207	31	-54.7	-83.9	113	5
2023-08-15T18:00	24226	31	-54.6	-83.9	116	5
2023-08-15T18:00	24252	31	-54.5	-83.8	120	5
2023-08-15T18:00	24274	30	-54.4	-83.7	123	5
2023-08-15T18:00	24302	30	-54.4	-83.7	125	5
2023-08-15T18:00	24327	30	-54.4	-83.7	125	5
2023-08-15T18:00	24352	30	-54.5	-83.8	123	5
2023-08-15T18:00	24383	30	-54.5	-83.4	119	5
2023-08-15T18:00	24414	30	-54.6	-83.4	115	5
2023-08-15T18:00	24440	30	-54.6	-83.4	112	5
2023-08-15T18:00	24471	30	-54.6	-83.4	109	4
2023-08-15T18:00	24506	29	-54.6	-83.4	106	4
2023-08-15T18:00	24526	29	-54.6	-83.4	102	4
2023-08-15T18:00	24555	29	-54.7	-83.5	96	4
2023-08-15T18:00	24588	29	-54.7	-83.5	89	4
2023-08-15T18:00	24616	29	-54.8	-83.6	84	4
2023-08-15T18:00	24645	29	-54.9	-83.7	80	4
2023-08-15T18:00	24675	29	-54.9	-83.7	77	4
2023-08-15T18:00	24707	29	-54.9	-83.7	76	5
2023-08-15T18:00	24736	28	-54.9	-83.7	76	5
2023-08-15T18:00	24760	28	-54.9	-83.7	76	5
2023-08-15T18:00	24794	28	-55.0	-83.7	77	5
2023-08-15T18:00	24831	28	-54.9	-84.1	79	5
2023-08-15T18:00	24850	28	-54.8	-84.0	83	4
2023-08-15T18:00	24884	28	-54.7	-83.9	87	4
2023-08-15T18:00	24906	28	-54.7	-83.9	92	4
2023-08-15T18:00	24944	27	-54.7	-83.9	94	3
2023-08-15T18:00	24970	27	-54.7	-83.9	94	3
2023-08-15T18:00	25004	27	-54.6	-83.9	91	3
2023-08-15T18:00	25022	27	-54.5	-83.8	88	2
2023-08-15T18:00	25051	27	-54.4	-83.7	87	2
2023-08-15T18:00	25075	27	-54.4	-83.7	92	2
2023-08-15T18:00	25104	27	-54.4	-83.7	101	2
2023-08-15T18:00	25137	27	-54.6	-83.9	114	1
2023-08-15T18:00	25156	27	-54.6	-83.9	130	1
2023-08-15T18:00	25183	26	-54.6	-83.9	153	1
2023-08-15T18:00	25210	26	-54.5	-83.8	221	0
2023-08-15T18:00	25233	26	-54.2	-83.6	314	1
2023-08-15T18:00	25252	26	-54.0	-83.4	338	1
2023-08-15T18:00	25277	26	-53.8	-83.7	353	2
2023-08-15T18:00	25307	26	-53.7	-83.7	4	2
2023-08-15T18:00	25324	26	-53.6	-83.6	13	3
2023-08-15T18:00	25344	26	-53.5	-83.5	21	3
2023-08-15T18:00	25371	26	-53.3		28	3
2023-08-15T18:00	25392	26	-53.1	-83.2	35	3
2023-08-15T18:00	25417	26	-52.8	-83.0	40	4
2023-08-15T18:00	25434	25	-52.7	-82.9	43	4
2023-08-15T18:00	25459	25	-52.7	-82.9	45	4
2023-08-15T18:00	25486	25	-52.5	-83.3	46	4
2023-08-15T18:00	25507	25	-52.3	-83.1	47	4
2023-08-15T18:00	25525	25	-52.2	-83.1	48	4
2023-08-15T18:00	25554	25	-52.2	-83.1	50	4
2023-08-15T18:00	25573	25	-52.2	-83.1	53	4
2023-08-15T18:00	25600	25	-51.8	-82.8	56	4
2023-08-15T18:00	25623	25	-51.5	-82.5	59	4
2023-08-15T18:00	25645	25	-51.4	-82.5	62	4
2023-08-15T18:00	25673	25	-51.3	-82.4	63	4
2023-08-15T18:00	25699	24	-51.3	-82.4	65	4
2023-08-15T18:00	25718	24	-51.2	-82.3	68	4
2023-08-15T18:00	25754	24	-51.0	-82.2	71	5
2023-08-15T18:00	25772	24	-50.8	-82.0	74	5
2023-08-15T18:00	25799	24	-50.8	-82.0	76	5
2023-08-15T18:00	25832	24	-50.6	-81.9	76	5
2023-08-15T18:00	25857	24	-50.4	-81.7	74	4
2023-08-15T18:00	25882	24	-50.3	-82.2	69	4
2023-08-15T18:00	25912	24	-50.2	-82.1	61	4
2023-08-15T18:00	25944	24	-49.8	-81.8	53	4
2023-08-15T18:00	25964	23	-49.5	-81.6	47	4
2023-08-15T18:00	25997	23	-49.4	-81.6	42	5
2023-08-15T18:00	26036	23	-49.3	-81.5	37	5
2023-08-15T18:00	26061	23	-49.2	-81.4	33	6
2023-08-15T18:00	26090	23	-49.1	-81.3	30	7
2023-08-15T18:00	26117	23	-49.0	-81.3	29	7
2023-08-15T18:00	26149	23	-48.8		29	7
2023-08-15T18:00	26177	23	-48.5	-80.9	31	8
2023-08-15T18:00	26210	23	-48.4	-80.8	33	8
2023-08-15T18:00	26231	23	-48.5	-80.9	36	8
2023-08-15T18:00	26266	22	-48.5	-80.9	39	8
2023-08-15T18:00	26302	22	-48.4	-80.8	41	8
2023-08-15T18:00	26323	22	-48.6	-81.0	42	8
2023-08-15T18:00	26346	22	-48.7	-81.0	43	8
2023-08-15T18:00	26381	22	-48.8		45	8
2023-08-15T18:00	26415	22	-48.9	-80.6	46	7
2023-08-15T18:00	26440	22	-48.9	-80.6	48	7
2023-08-15T18:00	26477	22	-48.9	-80.6	50	8
2023-08-15T18:00	26493	22	-48.9	-81.2	52	8
2023-08-15T18:00	26523	22	-48.8		55	8
2023-08-15T18:00	26550	21	-48.7	-81.0	58	8
2023-08-15T18:00	26571	21	-48.8		62	8
2023-08-15T18:00	26600	21	-48.9	-81.2	68	9
2023-08-15T18:00	26630	21	-48.8		73	9
2023-08-15T18:00	26654	21	-48.7	-81.0	78	9
2023-08-15T18:00	26681	21	-48.6	-81.0	81	9
2023-08-15T18:00	26695	21	-48.5	-80.9	83	9
2023-08-15T18:00	26721	21	-48.4	-80.8	83	8
2023-08-15T18:00	26746	21	-48.3	-80.7	82	8
2023-08-15T18:00	26777	21	-48.2	-80.7	81	8
2023-08-15T18:00	26791	21	-48.1	-80.6	80	7
2023-08-15T18:00	26818	21	-48.1	-80.6	79	6
2023-08-15T18:00	26844	21	-48.1	-80.6	78	6
2023-08-15T18:00	26867	20	-48.0	-80.5	77	5
2023-08-15T18:00	26885	20	-47.8	-80.4	77	5
2023-08-15T18:00	26902	20	-47.8	-80.4	77	4
2023-08-15T18:00	26939	20	-47.7	-80.3	77	4
2023-08-15T18:00	26964	20	-47.6	-80.2	77	4
2023-08-15T18:00	26976	20	-47.5	-80.2	76	4
2023-08-15T18:00	27009	20	-47.5	-80.2	75	4
2023-08-15T18:00	27038	20	-47.4	-80.7	74	4
2023-08-15T18:00	27048	20	-47.2	-80.6	73	4
2023-08-15T18:00	27078	20	-47.0	-80.4	73	4
2023-08-15T18:00	27102	20	-47.0	-80.4	74	3
2023-08-15T18:00	27133	20	-47.0	-80.4	76	3
2023-08-15T18:00	27151	20	-47.0	-80.4	79	4
2023-08-15T18:00	27189	19	-47.1	-80.5	84	4
2023-08-15T18:00	27210	19	-47.1	-80.5	88	4
2023-08-15T18:00	27238	19	-47.1	-79.9	92	4
2023-08-15T18:00	27274	19	-47.1	-79.9	94	4
2023-08-15T18:00	27301	19	-47.1	-79.9	95	5
2023-08-15T18:00	27330	19	-47.1	-79.9	95	5
2023-08-15T18:00	27363	19	-47.1	-79.9	95	5
2023-08-15T18:00	27397	19	-47.1	-79.9	94	5
2023-08-15T18:00	27426	19	-47.1	-79.9	92	5
2023-08-15T18:00	27465	19	-47.1	-79.9	91	4
2023-08-15T18:00	27497	19	-47.2	-79.9	89	4
2023-08-15T18:00	27524	19	-47.3	-80.0	88	3
2023-08-15T18:00	27556	18	-47.4	-80.1	87	3
2023-08-15T18:00	27598	18	-47.6	-80.2	87	3
2023-08-15T18:00	27632	18	-47.9	-80.4	89	3
2023-08-15T18:00	27667	18	-48.1	-80.6	93	3
2023-08-15T18:00	27708	18	-48.1	-80.6	97	3
2023-08-15T18:00	27738	18	-48.3	-80.2	101	4
2023-08-15T18:00	27773	18	-48.6	-80.4	104	4
2023-08-15T18:00	27817	18	-48.7	-80.5	108	5
2023-08-15T18:00	27854	18	-48.8	-80.5	111	5
2023-08-15T18:00	27884	18	-49.0	-80.7	115	6
2023-08-15T18:00	27916	17	-49.0	-80.7	118	7
2023-08-15T18:00	27948	17	-48.9	-81.2	119	7
2023-08-15T18:00	27990	17	-48.9	-81.2	120	7
2023-08-15T18:00	28021	17	-48.9	-81.2	119	7
2023-08-15T18:00	28065	17	-48.9	-81.2	118	7
2023-08-15T18:00	28085	17	-49.0	-81.3	117	7
2023-08-15T18:00	28117	17	-49.0	-81.3	116	6
2023-08-15T18:00	28145	17	-49.1	-81.3	116	5
2023-08-15T18:00	28176	17	-49.1	-81.3	116	5
2023-08-15T18:00	28201	17	-49.1	-81.3	116	4
2023-08-15T18:00	28240	17	-49.0	-81.3	115	4
2023-08-15T18:00	28270	17	-49.1	-81.3	113	4
2023-08-15T18:00	28295	16	-49.1	-81.3	112	5
2023-08-15T18:00	28322	16	-49.1	-81.3	111	5
2023-08-15T18:00	28347	16	-49.0	-81.3	111	6
2023-08-15T18:00	28376	16	-48.9	-81.2	112	6
2023-08-15T18:00	28385	16	-48.8		112	6
2023-08-15T18:00	28427	16	-48.7	-81.0	113	6
2023-08-15T18:00	28446	16	-48.5	-80.9	114	6
2023-08-15T18:00	28469	16	-48.4	-80.8	117	6
2023-08-15T18:00	28500	16	-48.4	-80.8	121	6
2023-08-15T18:00	28531	16	-48.3	-80.7	125	7
2023-08-15T18:00	28546	16	-48.3	-80.7	127	7
2023-08-15T18:00	28551	16	-48.2	-80.7	129	8
2023-08-15T18:00	28584	16	-48.3	-80.7	129	8
2023-08-15T18:00	28613	16	-48.2	-81.3	129	7
2023-08-15T18:00	28636	16	-48.1	-81.2	127	7
2023-08-15T18:00	28653	16	-47.8	-81.0	123	6
2023-08-15T18:00	28675	16	-47.4	-80.7	117	6
2023-08-15T18:00	28703	16	-47.1	-80.5	111	6
2023-08-15T18:00	28709	15	-47.0	-80.4	108	6
2023-08-15T18:00	28746	15	-46.8	-81.0	107	6
2023-08-15T18:00	28774	15	-46.4	-80.7	109	6
2023-08-15T18:00	28799	15	-46.1	-80.5	113	6
2023-08-15T18:00	28814	15	-45.9	-80.3	117	6
2023-08-15T18:00	28850	15	-45.8	-80.3	120	5
2023-08-15T18:00	28875	15	-45.5	-80.1	123	5
2023-08-15T18:00	28903	15	-45.2	-79.8	125	5
2023-08-15T18:00	28926	15	-44.9	-79.6	128	5
2023-08-15T18:00	28960	15	-44.5	-79.3	131	5
2023-08-15T18:00	28992	15	-44.3	-79.2	134	5
2023-08-15T18:00	29004	15	-44.2	-79.1	135	5
2023-08-15T18:00	29051	15	-44.1	-79.0	134	4
2023-08-15T18:00	29085	15	-44.0	-79.0	129	4
2023-08-15T18:00	29112	15	-43.9	-78.9	120	4
2023-08-15T18:00	29148	15	-43.7	-78.8	109	3
2023-08-15T18:00	29178	14	-43.7	-78.8	98	3
2023-08-15T18:00	29216	14	-43.7	-78.8	86	3
2023-08-15T18:00	29251	14	-43.7	-78.8	74	2
2023-08-15T18:00	29275	14	-43.5	-78.6	60	2
2023-08-15T18:00	29308	14	-43.3	-78.5	50	2
2023-08-15T18:00	29346	14	-43.1	-78.3	46	3
2023-08-15T18:00	29388	14	-43.0	-79.1	48	4
2023-08-15T18:00	29416	14	-43.0	-79.1	51	5
2023-08-15T18:00	29460	14	-42.8	-78.9	54	6
2023-08-15T18:00	29484	14	-42.6	-78.8	56	7
2023-08-15T18:00	29522	14	-42.5	-78.7	58	7
2023-08-15T18:00	29554	14	-42.3		59	8
2023-08-15T18:00	29594	14	-42.4	-78.7	61	8
2023-08-15T18:00	29637	13	-42.3		63	8
2023-08-15T18:00	29673	13	-42.1	-78.4	65	8
2023-08-15T18:00	29700	13	-42.2	-78.5	66	8
2023-08-15T18:00	29744	13	-42.3		67	8
2023-08-15T18:00	29759	13	-42.4	-77.8	66	8
2023-08-15T18:00	29802	13	-42.5	-77.9	65	7
2023-08-15T18:00	29828	13	-42.6	-78.0	63	7
2023-08-15T18:00	29865	13	-42.6	-78.0	60	7
2023-08-15T18:00	29897	13	-42.6	-78.0	56	6
2023-08-15T18:00	29926	13	-42.8	-78.1	52	7
2023-08-15T18:00	29972	13	-42.9	-78.2	49	7
2023-08-15T18:00	29986	13	-43.0	-78.3	47	8
2023-08-15T18:00	30029	13	-42.9	-78.2	46	8
2023-08-15T18:00	30054	13	-42.9	-78.2	45	9
2023-08-15T18:00	30082	13	-43.0	-78.3	46	10
2023-08-15T18:00	30125	13	-43.2	-78.4	46	11
2023-08-15T18:00	30148	13	-43.3	-78.5	47	11
2023-08-15T18:00	30174	12	-43.5	-78.6	48	12
2023-08-15T18:00	30204	12	-43.7	-78.8	50	12
2023-08-15T18:00	30234	12	-43.9	-78.9	51	12
2023-08-15T18:00	30263	12	-44.1	-79.0	53	12
2023-08-15T18:00	30298	12	-43.9	-78.9	56	12
2023-08-15T18:00	30310	12	-43.7	-78.8	59	12
2023-08-15T18:00	30358	12	-43.9	-78.9	62	11
2023-08-15T18:00	30365	12	-44.1	-79.0	64	11
2023-08-15T18:00	30387	12	-44.2	-79.1	66	10
2023-08-15T18:00	30417	12	-44.2	-79.1	67	10
2023-08-15T18:00	30444	12	-43.8	-78.8	66	10
2023-08-15T18:00	30468	12	-43.5	-78.6	64	10
2023-08-15T18:00	30490	12	-43.3	-79.3	61	9
2023-08-15T18:00	30514	12	-43.0	-79.1	59	10
2023-08-15T18:00	30537	12	-42.9	-79.0	59	10
2023-08-15T18:00	30574	12	-42.8	-78.9	59	10
2023-08-15T18:00	30584	12	-42.5	-78.7	60	10
2023-08-15T18:00	30621	12	-42.1	-78.4	60	10
2023-08-15T18:00	30651	12	-41.7	-78.2	60	10
2023-08-15T18:00	30654	12	-41.6	-78.1	60	11
2023-08-15T18:00	30705	12	-41.3	-77.9	60	11
2023-08-15T18:00	30729	11	-41.1	-78.7	62	12
2023-08-15T18:00	30759	11	-40.8	-78.5	65	13
2023-08-15T18:00	30796	11	-40.6	-78.3	69	13
2023-08-15T18:00	30813	11	-40.4	-78.2	73	14
2023-08-15T18:00	30862	11	-40.0	-77.9	77	15
2023-08-15T18:00	30873	11	-39.8	-77.8	80	16
2023-08-15T18:00	30915	11	-39.7	-77.7	82	16
2023-08-15T18:00	30929	11	-39.4	-77.5	85	16
2023-08-15T18:00	30973	11	-39.3	-77.4	87	16
2023-08-15T18:00	31003	11	-39.0	-77.2	90	16
2023-08-15T18:00	31032	11	-38.9	-77.1	93	16
2023-08-15T18:00	31058	11	-39.0	-77.2	96	16
2023-08-15T18:00	31098	11	-38.9	-77.1	99	16
2023-08-15T18:00	31147	11	-39.0	-77.2	102	16
2023-08-15T18:00	31165	11	-39.2	-77.3	104	15
2023-08-15T18:00	31216	11	-39.2	-76.4	107	15
2023-08-15T18:00	31245	11	-39.4	-76.5	109	15
2023-08-15T18:00	31265	11	-39.6	-76.7	110	14
2023-08-15T18:00	31314	11	-39.7	-76.7	112	13
2023-08-15T18:00	31346	10	-39.8	-76.8	113	12
2023-08-15T18:00	31368	10	-40.1	-77.0	115	11
2023-08-15T18:00	31384	10	-40.2	-77.1	118	11
2023-08-15T18:00	31434	10	-40.2	-77.1	121	10
2023-08-15T18:00	31495	10	-40.2	-77.1	123	9
2023-08-15T18:00	31498	10	-40.1	-77.0	125	9
2023-08-15T18:00	31530	10	-40.0	-76.9	124	8
2023-08-15T18:00	31560	10	-39.9	-77.8	122	8
2023-08-15T18:00	31592	10	-39.7	-77.7	119	9
2023-08-15T18:00	31641	10	-39.6	-77.6	116	9
2023-08-15T18:00	31659	10	-39.6	-77.6	114	10
2023-08-15T18:00	31687	10	-39.6	-77.6	113	10
2023-08-15T18:00	31729	10	-39.7	-77.7	112	11
2023-08-15T18:00	31742	10	-39.7	-77.7	112	11
2023-08-15T18:00	31788	10	-39.6	-77.6	113	12
2023-08-15T18:00	31822	10	-39.6	-77.6	113	11
2023-08-15T18:00	31846	10	-39.5	-77.6	114	11
2023-08-15T18:00	31871	10	-39.4	-77.5	114	11
2023-08-15T18:00	31895	10	-39.4	-77.5	115	10
2023-08-15T18:00	31940	10	-39.5	-77.6	114	10
2023-08-15T18:00	31957	10	-39.7	-77.7	113	9
2023-08-15T18:00	32002	10	-39.7	-77.7	110	9
2023-08-15T18:00	32017	10	-39.8	-77.8	106	9
2023-08-15T18:00	32044	9	-39.8	-77.8	103	9
2023-08-15T18:00	32081	9	-39.5	-77.6	100	9
2023-08-15T18:00	32090	9	-39.3	-77.4	98	10
2023-08-15T18:00	32132	9	-38.8	-77.1	97	11
2023-08-15T18:00	32154	9	-38.3	-76.7	97	12
2023-08-15T18:00	32182	9	-38.1	-76.6	97	12
2023-08-15T18:00	32215	9	-38.0	-76.5	98	12
2023-08-15T18:00	32239	9	-37.8	-76.4	101	12
2023-08-15T18:00	32289	9	-37.6	-76.2	103	11
2023-08-15T18:00	32305	9	-37.6	-76.2	106	11
2023-08-15T18:00	32311	9	-37.5	-76.2	110	10
2023-08-15T18:00	32359	9	-37.5	-76.2	114	10
2023-08-15T18:00	32379	9	-37.6	-76.2	118	10
2023-08-15T18:00	32399	9	-37.6	-76.2	121	9
2023-08-15T18:00	32439	9	-37.6	-76.2	125	9
2023-08-15T18:00	32457	9	-37.5	-76.2	127	9
2023-08-15T18:00	32495	9	-37.5	-76.2	130	9
2023-08-15T18:00	32502	9	-37.6	-76.2	132	8
2023-08-15T18:00	32525	9	-37.7	-76.3	135	8
2023-08-15T18:00	32556	9	-37.7	-76.3	138	7
2023-08-15T18:00	32574	9	-37.7	-76.3	140	6
2023-08-15T18:00	32604	9	-37.7	-76.3	143	6
2023-08-15T18:00	32640	9	-37.6	-76.2	146	5
2023-08-15T18:00	32672	9	-37.7	-76.3	150	4
2023-08-15T18:00	32677	9	-37.8	-76.4	153	3
2023-08-15T18:00	32726	9	-37.7	-76.3	159	2
2023-08-15T18:00	32753	9	-37.6	-76.2	181	1
2023-08-15T18:00	32772	9	-37.4	-76.1	296	1
2023-08-15T18:00	32799	8	-37.2	-77.1	315	2
2023-08-15T18:00	32830	8	-37.2	-77.1	320	3
2023-08-15T18:00	32851	8	-37.2	-77.1	324	3
2023-08-15T18:00	32895	8	-37.3	-77.2	330	3
2023-08-15T18:00	32947	8	-37.2	-77.1	338	3
2023-08-15T18:00	32956	8	-37.0	-77.0	354	2
2023-08-15T18:00	32967	8	-37.1	-77.0	15	2
2023-08-15T18:00	32978	8	-37.1	-77.0	36	2
2023-08-15T18:00	33011	8	-36.9	-76.9	49	2
2023-08-15T18:00	33049	8	-36.6	-76.7	54	2
2023-08-15T18:00	33067	8	-36.6	-76.7	52	2
2023-08-15T18:00	33116	8	-36.7	-76.7	45	2
2023-08-15T18:00	33137	8	-36.7	-76.7	35	2
2023-08-15T18:00	33195	8	-36.5	-76.6	19	3
2023-08-15T18:00	33229	8	-36.4	-76.5	17	4
2023-08-15T18:00	33249	8	-36.3	-76.5	17	4
2023-08-15T18:00	33286	8	-36.3	-76.5	18	5
2023-08-15T18:00	33303	8	-36.2	-76.4	20	5
2023-08-15T18:00	33323	8	-36.1	-76.3	22	6
2023-08-15T18:00	33360	8	-36.0	-76.3	23	6
2023-08-15T18:00	33403	8	-35.8	-76.1	26	6
2023-08-15T18:00	33413	8	-35.8	-76.1	28	6
2023-08-15T18:00	33444	8	-35.7	-76.1	32	6
2023-08-15T18:00	33458	8	-35.7	-76.1	37	6
2023-08-15T18:00	33487	8	-36.0	-76.3	44	5
2023-08-15T18:00	33522	8	-36.2	-76.4	52	5
2023-08-15T18:00	33568	8	-36.3	-76.5	59	5
2023-08-15T18:00	33579	8	-36.3	-76.5	63	4
2023-08-15T18:00	33630	8	-36.2	-76.4	62	4
2023-08-15T18:00	33635	8	-36.0	-76.3	56	4
2023-08-15T18:00	33659	8	-35.9	-76.2	45	4
2023-08-15T18:00	33697	7	-35.7	-76.1	34	4
2023-08-15T18:00	33710	7	-35.4	-75.8	26	5
2023-08-15T18:00	33731	7	-35.3	-75.8	23	5
2023-08-15T18:00	33769	7	-35.1	-75.6	24	6
2023-08-15T18:00	33795	7	-34.6	-75.3	26	7
2023-08-15T18:00	33847	7	-34.3	-75.1	31	7
2023-08-15T18:00	33860	7	-34.1	-75.0	36	8
2023-08-15T18:00	33874	7	-33.8	-74.7	41	8
2023-08-15T18:00	33883	7	-33.5	-74.5	45	9
2023-08-15T18:00	33909	7	-33.3	-74.4	49	9
2023-08-15T18:00	33941	7	-33.2	-74.3	53	10
2023-08-15T18:00	33953	7	-33.2	-74.3	56	10
2023-08-15T18:00	33981	7	-33.0	-74.2	60	10
2023-08-15T18:00	34013	7	-32.7	-74.0	64	10
2023-08-15T18:00	34019	7	-32.7	-74.0	68	10
2023-08-15T18:00	34082	7	-32.8	-74.1	73	10
2023-08-15T18:00	34100	7	-32.9	-74.1	78	10
2023-08-15T18:00	34111	7	-32.9	-74.1	83	10
2023-08-15T18:00	34119	7	-32.9	-74.1	87	10
2023-08-15T18:00	34141	7	-32.9	-74.1	90	10
2023-08-15T18:00	34163	7	-33.0	-74.2	92	9
2023-08-15T18:00	34207	7	-32.9	-74.1	92	9
2023-08-15T18:00	34265	7	-32.5	-73.8	86	7
2023-08-15T18:00	34296	7	-32.2	-73.6	80	6
2023-08-15T18:00	34324	7	-32.2	-73.6	74	6
2023-08-15T18:00	34331	7	-32.1	-73.6	69	5
2023-08-15T18:00	34375	7	-32.1	-73.6	65	5
2023-08-15T18:00	34397	7	-32.1	-73.6	63	5
2023-08-15T18:00	34408	7	-32.2	-73.6	62	6
2023-08-15T18:00	34430	7	-32.3	-73.7	62	6
2023-08-15T18:00	34492	7	-32.4	-73.8	62	6
2023-08-15T18:00	34493	7	-32.4	-73.8	62	7
2023-08-15T18:00	34521	7	-32.4	-73.8	62	7
2023-08-15T18:00	34560	7	-32.4	-73.8	62	8
2023-08-15T18:00	34592	7	-32.3	-73.7	63	8
2023-08-15T18:00	34627	7	-32.4	-73.8	65	8
2023-08-15T18:00	34672	7	-32.5	-73.8	67	8
2023-08-15T18:00	34708	6	-32.4	-73.8	69	8
2023-08-15T18:00	34729	6	-32.2	-73.6	71	8
2023-08-15T18:00	34742	6	-32.1	-73.6	71	8
2023-08-15T18:00	34777	6	-32.1	-73.6	71	8
2023-08-15T18:00	34841	6	-32.1	-73.6	70	8
2023-08-15T18:00	34880	6	-32.2	-73.6	68	9
2023-08-15T18:00	34898	6	-32.3	-73.7	65	9
2023-08-15T18:00	34991	6	-32.3	-73.7	58	10
2023-08-15T18:00	35019	6	-32.2	-73.6	55	10
2023-08-15T18:00	35020	6	-32.2	-73.6	54	11
2023-08-15T18:00	35059	6	-32.2	-73.6	53	11
2023-08-15T18:00	35085	6	-32.2	-73.6	54	11
2023-08-15T18:00	35100	6	-32.1	-73.6	55	11
2023-08-15T18:00	35157	6	-32.1	-73.6	57	11
2023-08-15T18:00	35180	6	-32.1	-73.6	60	10
2023-08-15T18:00	35201	6	-32.1	-73.6	63	10
2023-08-15T18:00	35259	6	-32.0	-73.5	66	9
2023-08-15T18:00	35292	6	-31.8	-73.4	69	9
2023-08-15T18:00	35312	6	-31.6	-73.2	72	9
2023-08-15T18:00	35331	6	-31.4	-73.1	75	9
2023-08-15T18:00	35348	6	-31.1	-72.9	78	9
2023-08-15T18:00	35379	6	-30.7	-72.6	81	9
2023-08-15T18:00	35401	6	-30.5	-72.5	84	8
2023-08-15T18:00	35462	6	-30.4	-72.4	87	8
2023-08-15T18:00	35490	6	-30.1	-72.2	93	7
2023-08-15T18:00	35509	6	-30.1	-72.2	95	6
2023-08-15T18:00	35530	6	-30.2	-72.3	98	6
2023-08-15T18:00	35578	6	-30.3	-72.3	101	6
2023-08-15T18:00	35608	6	-30.4	-72.4	102	6
2023-08-15T18:00	35612	6	-30.4	-72.4	100	5
2023-08-15T18:00	35627	6	-30.2	-72.3	95	5
2023-08-15T18:00	35638	6	-29.2	-71.6	85	5
2023-08-15T18:00	35648	6	-28.5	-71.1	74	5
2023-08-15T18:00	35687	6	-27.9	-70.7	65	6
2023-08-15T18:00	35700	6	-27.5	-70.4	60	7
2023-08-15T18:00	35730	6	-27.4	-70.4	58	8
2023-08-15T18:00	35743	6	-27.5	-70.4	56	9
2023-08-15T18:00	35781	6	-27.3	-70.3	55	9
2023-08-15T18:00	35801	6	-27.1	-70.2	54	10
2023-08-15T18:00	35834	6	-26.8	-69.9	53	10
2023-08-15T18:00	35855	6	-26.5	-69.7	51	10
2023-08-15T18:00	35890	5	-26.3	-69.6	51	10
2023-08-15T18:00	35906	5	-26.1		52	10
2023-08-15T18:00	35963	5	-25.7	-69.2	54	10
2023-08-15T18:00	35991	5	-25.6	-69.1	56	10
2023-08-15T18:00	36029	5	-25.4	-69.0	59	11
2023-08-15T18:00	36032	5	-25.3	-68.9	62	11
2023-08-15T18:00	36056	5	-25.3	-68.9	63	11
2023-08-15T18:00	36120	5	-25.2	-68.9	64	11
2023-08-15T18:00	36143	5	-25.2	-68.9	64	10
2023-08-16T00:00	114	1004	20.8	20.5	319	2
2023-08-16T00:00	140	1001	21.0	20.1	333	3
2023-08-16T00:00	165	999	21.3	19.8	333	4
2023-08-16T00:00	191	996	21.8	19.5	334	5
2023-08-16T00:00	216	993	22.3	18.9	336	6
2023-08-16T00:00	243	990	22.6	18.6	340	8
2023-08-16T00:00	270	987	22.7	18.0	344	8
2023-08-16T00:00	296	983	22.9	17.9	348	9
2023-08-16T00:00	330	980	22.8	17.9	353	9
2023-08-16T00:00	355	977	22.7	18.1	359	9
2023-08-16T00:00	381	974	22.7	18.1	3	9
2023-08-16T00:00	408	971	22.6	17.4	5	9
2023-08-16T00:00	431	968	22.5	17.1	5	9
2023-08-16T00:00	457	965	22.3	17.0	4	9
2023-08-16T00:00	490	962	22.0	16.5	3	9
2023-08-16T00:00	514	959	21.9	16.5	2	9
2023-08-16T00:00	538	957	21.7	16.6	2	9
2023-08-16T00:00	563	954	21.4	16.5	2	9
2023-08-16T00:00	584	952	21.3	16.6	2	9
2023-08-16T00:00	605	949	21.1	16.2	360	8
2023-08-16T00:00	632	946	21.1		357	8
2023-08-16T00:00	658	943	21.0	15.2	354	7
2023-08-16T00:00	690	940	20.9	15.1	353	6
2023-08-16T00:00	716	937	20.7	15.2	352	6
2023-08-16T00:00	740	935	20.6	15.8	353	6
2023-08-16T00:00	769	932	20.4	15.9	355	5
2023-08-16T00:00	798	928	20.3	15.8	356	5
2023-08-16T00:00	825	926	20.4	15.9	355	4
2023-08-16T00:00	854	923	20.2	15.9	352	4
2023-08-16T00:00	881	920	20.1	15.8	349	4
2023-08-16T00:00	905	917	19.9	15.8	344	3
2023-08-16T00:00	931	914	19.7	15.8	336	2
2023-08-16T00:00	958	911	19.8	15.7	316	1
2023-08-16T00:00	987	908	19.6	15.7	266	1
2023-08-16T00:00	1013	906	19.5	15.5	228	2
2023-08-16T00:00	1038	903	19.7	14.9	217	3
2023-08-16T00:00	1067	900	19.5	14.8	215	3
2023-08-16T00:00	1096	897	19.4	14.1	214	4
2023-08-16T00:00	1126	894	19.5	12.9	214	4
2023-08-16T00:00	1154	891	19.4	13.1	212	5
2023-08-16T00:00	1180	888	19.2	13.1	210	5
2023-08-16T00:00	1209	885	19.0	13.4	206	5
2023-08-16T00:00	1238	882	18.9	13.2	202	5
2023-08-16T00:00	1267	879	18.9	12.9	197	5
2023-08-16T00:00	1299	876	18.9	12.9	192	5
2023-08-16T00:00	1327	873	18.6	13.1	186	5
2023-08-16T00:00	1352	870	18.4	13.4	180	5
2023-08-16T00:00	1386	867	18.1	13.8	175	5
2023-08-16T00:00	1416	864	17.9	14.2	171	5
2023-08-16T00:00	1442	862	17.7	14.6	171	6
2023-08-16T00:00	1468	859	17.6	14.4	172	6
2023-08-16T00:00	1494	856	17.5	14.1	175	6
2023-08-16T00:00	1520	854	17.3	13.8	179	7
2023-08-16T00:00	1544	851	17.1	13.6	185	7
2023-08-16T00:00	1569	849	17.0	13.7	190	7
2023-08-16T00:00	1601	846	16.8	13.4	195	8
2023-08-16T00:00	1635	842	16.6	12.9	198	8
2023-08-16T00:00	1664	840	16.4	12.4	200	9
2023-08-16T00:00	1693	837	16.3	12.0	200	9
2023-08-16T00:00	1721	834	16.1	11.4	199	10
2023-08-16T00:00	1744	832	16.0	11.2	199	10
2023-08-16T00:00	1773	829	15.9	11.1	199	10
2023-08-16T00:00	1805	826	15.6	11.3	199	11
2023-08-16T00:00	1836	823	15.4	11.0	200	11
2023-08-16T00:00	1857	821	15.3	10.8	201	11
2023-08-16T00:00	1880	818	15.1	10.6	202	12
2023-08-16T00:00	1903	816	14.9	10.6	203	12
2023-08-16T00:00	1933	813	14.7	10.3	205	11
2023-08-16T00:00	1960	811	14.5	10.0	207	11
2023-08-16T00:00	1987	808	14.3	9.8	209	11
2023-08-16T00:00	2019	805	14.1	9.3	210	11
2023-08-16T00:00	2052	802	13.9	8.9	210	11
2023-08-16T00:00	2080	799	13.7	8.2	210	11
2023-08-16T00:00	2111	796	13.6	6.6	209	11
2023-08-16T00:00	2143	794	13.5	4.9	207	10
2023-08-16T00:00	2171	791	13.5	4.9	206	11
2023-08-16T00:00	2199	788	13.3	7.9	204	11
2023-08-16T00:00	2228	786	13.1	7.6	204	11
2023-08-16T00:00	2253	783	12.8	9.5	206	11
2023-08-16T00:00	2282	780	12.6	9.5	208	11
2023-08-16T00:00	2314	778	12.4	9.5	210	11
2023-08-16T00:00	2339	775	12.2	9.8	211	11
2023-08-16T00:00	2363	773	12.0	9.6	212	11
2023-08-16T00:00	2391	770	12.1	6.9	211	12
2023-08-16T00:00	2416	768	12.0	6.1	210	12
2023-08-16T00:00	2446	765	11.8	5.5	209	12
2023-08-16T00:00	2477	763	11.6	5.5	208	12
2023-08-16T00:00	2501	760	11.4	5.1	207	12
2023-08-16T00:00	2531	758	11.3	4.9	206	12
2023-08-16T00:00	2561	755	11.0	4.6	207	12
2023-08-16T00:00	2584	753	10.8	4.7	208	12
2023-08-16T00:00	2607	751	10.6	4.7	209	12
2023-08-16T00:00	2630	749	10.4	4.6	211	12
2023-08-16T00:00	2648	747	10.3	3.8	212	12
2023-08-16T00:00	2671	745	10.3	3.5	213	12
2023-08-16T00:00	2690	743	10.1	3.3	212	12
2023-08-16T00:00	2711	741	10.0	3.2	211	12
2023-08-16T00:00	2741	739	9.8	3.2	209	12
2023-08-16T00:00	2767	737	9.6	3.3	207	11
2023-08-16T00:00	2793	734	9.3	3.1	206	11
2023-08-16T00:00	2820	732	9.1	3.2	206	10
2023-08-16T00:00	2849	729	8.8	3.1	206	10
2023-08-16T00:00	2878	727	8.5	3.0	206	10
2023-08-16T00:00	2907	724	8.2	2.9	207	11
2023-08-16T00:00	2936	722	8.0	3.0	207	11
2023-08-16T00:00	2963	719	7.7	2.9	208	11
2023-08-16T00:00	2989	717	7.6	2.8	209	11
2023-08-16T00:00	3016	715	7.4		209	11
2023-08-16T00:00	3043	712	7.2	3.4	210	11
2023-08-16T00:00	3070	710	6.9	3.4	209	11
2023-08-16T00:00	3095	708	6.8	3.3	209	12
2023-08-16T00:00	3127	705	6.8	2.7	208	12
2023-08-16T00:00	3154	703	6.6	2.4	207	12
2023-08-16T00:00	3178	701	6.4	2.3	207	12
2023-08-16T00:00	3202	698	6.2	2.2	208	12
2023-08-16T00:00	3234	696	5.9	2.0	208	13
2023-08-16T00:00	3265	693	5.6	1.6	209	13
2023-08-16T00:00	3291	691	5.5		209	14
2023-08-16T00:00	3322	689	5.3	0.6	208	14
2023-08-16T00:00	3348	686	5.2	0.4	207	15
2023-08-16T00:00	3375	684	4.9	0.2	206	15
2023-08-16T00:00	3403	682	4.7	0.2	205	15
2023-08-16T00:00	3434	679	4.4	0.0	203	15
2023-08-16T00:00	3465	677	4.3	-0.7	200	15
2023-08-16T00:00	3494	674	4.1	-0.6	198	14
2023-08-16T00:00	3529	671	3.8	-0.6	195	14
2023-08-16T00:00	3555	669	3.6	-0.5	193	14
2023-08-16T00:00	3580	667	3.4	0.1	192	13
2023-08-16T00:00	3608	665	3.2	0.1	193	13
2023-08-16T00:00	3635	663	2.9	0.3	194	13
2023-08-16T00:00	3662	660	2.6	0.3	195	14
2023-08-16T00:00	3693	658	2.3	0.2	196	14
2023-08-16T00:00	3719	656	2.1	0.3	196	14
2023-08-16T00:00	3749	653	1.9	0.5	196	15
2023-08-16T00:00	3775	651	1.7	0.6	196	15
2023-08-16T00:00	3798	649	1.6	-0.1	196	15
2023-08-16T00:00	3823	647	1.4	-0.2	196	15
2023-08-16T00:00	3852	645	1.2	-0.5	195	15
2023-08-16T00:00	3879	643	0.9	-0.5	195	15
2023-08-16T00:00	3907	640	0.7	-0.7	194	15
2023-08-16T00:00	3942	638	0.3	-0.8	194	15
2023-08-16T00:00	3974	635	0.0	-0.9	194	15
2023-08-16T00:00	3999	633	-0.2	-1.0	194	15
2023-08-16T00:00	4025	631	-0.4	-1.3	194	15
2023-08-16T00:00	4058	629	-0.6	-2.0	195	15
2023-08-16T00:00	4089	626	-0.9	-2.1	195	15
2023-08-16T00:00	4121	624	-1.2	-2.5	195	15
2023-08-16T00:00	4150	622	-1.4	-2.6	195	14
2023-08-16T00:00	4174	620	-1.5	-2.7	195	14
2023-08-16T00:00	4195	618	-1.6	-2.9	193	14
2023-08-16T00:00	4220	616	-1.6	-3.1	192	14
2023-08-16T00:00	4247	614	-1.8	-3.2	190	15
2023-08-16T00:00	4271	612	-2.0	-3.4	188	15
2023-08-16T00:00	4298	610	-2.2	-3.5	187	15
2023-08-16T00:00	4324	608	-2.3	-3.5	186	15
2023-08-16T00:00	4347	606	-2.5	-3.8	185	15
2023-08-16T00:00	4374	604	-2.7	-4.0	185	15
2023-08-16T00:00	4399	602	-2.7	-4.0	185	15
2023-08-16T00:00	4422	601	-2.7	-4.3	185	15
2023-08-16T00:00	4449	599	-2.9	-4.4	185	15
2023-08-16T00:00	4471	597	-3.1	-4.5	185	15
2023-08-16T00:00	4495	595	-3.3	-4.7	185	15
2023-08-16T00:00	4519	593	-3.5	-4.8	186	16
2023-08-16T00:00	4544	591	-3.7	-4.9	186	16
2023-08-16T00:00	4569	590	-3.9	-5.0	187	15
2023-08-16T00:00	4592	588	-4.1	-5.1	189	15
2023-08-16T00:00	4623	586	-4.3	-5.1	191	15
2023-08-16T00:00	4649	584	-4.4	-5.1	192	15
2023-08-16T00:00	4672	582	-4.4	-4.9	194	14
2023-08-16T00:00	4700	580	-4.5	-5.1	194	14
2023-08-16T00:00	4724	578	-4.5	-5.2	195	14
2023-08-16T00:00	4750	576	-4.4	-5.2	195	14
2023-08-16T00:00	4777	574	-4.6	-5.5	196	13
2023-08-16T00:00	4806	572	-4.7	-5.6	197	13
2023-08-16T00:00	4835	570	-4.9	-5.7	199	13
2023-08-16T00:00	4864	568	-5.0	-5.9	201	13
2023-08-16T00:00	4893	566	-5.1	-5.8	203	13
2023-08-16T00:00	4924	564	-5.3	-6.0	205	13
2023-08-16T00:00	4947	562	-5.4	-6.1	208	13
2023-08-16T00:00	4979	560	-5.6	-6.2	210	13
2023-08-16T00:00	5008	558	-5.8	-6.4	211	13
2023-08-16T00:00	5032	556	-5.9	-6.6	212	13
2023-08-16T00:00	5062	554	-6.1	-6.8	213	13
2023-08-16T00:00	5087	552	-6.3	-6.9	213	13
2023-08-16T00:00	5112	550	-6.5	-7.1	213	13
2023-08-16T00:00	5136	548	-6.7	-7.2	212	13
2023-08-16T00:00	5166	546	-6.9	-7.5	211	13
2023-08-16T00:00	5193	545	-7.0	-7.9	208	13
2023-08-16T00:00	5222	543	-7.1	-7.9	206	13
2023-08-16T00:00	5249	541	-7.3	-8.1	205	13
2023-08-16T00:00	5273	539	-7.5	-8.3	204	12
2023-08-16T00:00	5304	537	-7.8	-8.4	205	12
2023-08-16T00:00	5334	535	-8.0	-8.5	205	11
2023-08-16T00:00	5361	533	-8.2	-8.6	205	11
2023-08-16T00:00	5406	530	-8.5	-8.9	203	10
2023-08-16T00:00	5434	528	-8.6	-9.0	200	10
2023-08-16T00:00	5457	526	-8.8	-9.2	197	11
2023-08-16T00:00	5481	525	-8.9	-9.3	196	11
2023-08-16T00:00	5508	523	-9.0	-9.5	197	12
2023-08-16T00:00	5532	521	-9.2	-9.7	198	12
2023-08-16T00:00	5555	520	-9.3	-9.9	199	13
2023-08-16T00:00	5572	518	-9.5	-9.9	200	13
2023-08-16T00:00	5599	517	-9.7	-10.0	201	14
2023-08-16T00:00	5625	515	-9.9	-10.2	202	14
2023-08-16T00:00	5656	513	-10.1	-10.4	204	14
2023-08-16T00:00	5686	511	-10.2	-10.4	205	14
2023-08-16T00:00	5714	509	-10.4	-10.5	207	14
2023-08-16T00:00	5744	507	-10.6	-10.6	209	14
2023-08-16T00:00	5772	505	-10.8	-10.9	210	15
2023-08-16T00:00	5804	503	-10.9	-10.9	209	15
2023-08-16T00:00	5829	502	-11.1	-11.1	208	15
2023-08-16T00:00	5859	500	-11.3	-11.3	206	15
2023-08-16T00:00	5894	498	-11.5	-11.5	204	15
2023-08-16T00:00	5922	496	-11.7	-11.7	202	14
2023-08-16T00:00	5951	494	-12.0	-12.0	200	13
2023-08-16T00:00	5975	492	-12.2	-12.2	199	13
2023-08-16T00:00	5996	491	-12.3	-12.3	199	13
2023-08-16T00:00	6025	489	-12.5	-12.5	199	13
2023-08-16T00:00	6047	487	-12.6	-12.6	200	14
2023-08-16T00:00	6075	486	-12.6	-12.7	201	14
2023-08-16T00:00	6099	484	-12.9	-13.0	203	14
2023-08-16T00:00	6125	482	-13.0	-13.1	203	13
2023-08-16T00:00	6159	481	-13.0	-13.2	202	13
2023-08-16T00:00	6185	479	-13.1	-13.4	200	12
2023-08-16T00:00	6219	477	-13.4	-13.7	198	12
2023-08-16T00:00	6249	475	-13.5	-14.0	197	12
2023-08-16T00:00	6281	473	-13.7	-14.2	197	12
2023-08-16T00:00	6307	471	-13.8	-14.3	199	12
2023-08-16T00:00	6329	470	-14.0	-14.6	200	12
2023-08-16T00:00	6356	468	-14.1	-14.6	201	12
2023-08-16T00:00	6385	466	-14.3	-14.7	199	12
2023-08-16T00:00	6417	465	-14.5	-15.1	197	12
2023-08-16T00:00	6441	463	-14.7	-15.5	194	12
2023-08-16T00:00	6463	462	-14.8	-15.9	193	12
2023-08-16T00:00	6492	460	-15.0	-15.9	193	12
2023-08-16T00:00	6526	458	-15.0	-16.0	194	12
2023-08-16T00:00	6549	456	-15.1	-16.3	194	12
2023-08-16T00:00	6577	455	-15.2	-16.6	194	12
2023-08-16T00:00	6601	453	-15.3	-16.9	193	13
2023-08-16T00:00	6628	452	-15.3	-17.1	190	13
2023-08-16T00:00	6658	450	-15.4	-17.5	188	12
2023-08-16T00:00	6679	449	-15.5	-17.5	188	12
2023-08-16T00:00	6707	447	-15.7	-17.6	189	12
2023-08-16T00:00	6736	445	-16.0	-17.8	191	12
2023-08-16T00:00	6760	444	-16.2	-18.0	193	12
2023-08-16T00:00	6785	442	-16.4	-18.0	195	12
2023-08-16T00:00	6822	440	-16.7	-18.2	197	12
2023-08-16T00:00	6853	438	-16.9	-18.3	199	12
2023-08-16T00:00	6880	437	-17.1	-18.6	201	12
2023-08-16T00:00	6909	435	-17.3	-18.8	203	12
2023-08-16T00:00	6939	433	-17.4	-19.2	205	12
2023-08-16T00:00	6968	432	-17.6		207	12
2023-08-16T00:00	6986	431	-17.6	-19.7	208	12
2023-08-16T00:00	7009	429	-17.7	-19.3	209	12
2023-08-16T00:00	7037	428	-17.8	-19.5	208	12
2023-08-16T00:00	7070	426	-18.0	-19.9	208	12
2023-08-16T00:00	7100	424	-18.1	-20.1	207	11
2023-08-16T00:00	7128	423	-18.2	-20.7	207	11
2023-08-16T00:00	7148	421	-18.4	-20.8	207	10
2023-08-16T00:00	7171	420	-18.6	-20.9	209	10
2023-08-16T00:00	7206	418	-18.8	-21.0	211	10
2023-08-16T00:00	7237	416	-19.1	-21.2	214	11
2023-08-16T00:00	7269	415	-19.2	-21.3	216	12
2023-08-16T00:00	7294	413	-19.3	-21.7	217	13
2023-08-16T00:00	7313	412	-19.5	-22.0	216	13
2023-08-16T00:00	7335	411	-19.6	-22.2	216	13
2023-08-16T00:00	7360	410	-19.8	-22.9	215	13
2023-08-16T00:00	7391	408	-20.0	-23.4	215	13
2023-08-16T00:00	7418	406	-20.2	-23.4	216	13
2023-08-16T00:00	7454	405	-20.6	-23.9	216	13
2023-08-16T00:00	7479	403	-20.8	-24.1	217	13
2023-08-16T00:00	7505	402	-21.0	-24.6	217	12
2023-08-16T00:00	7532	400	-21.2	-25.3	217	12
2023-08-16T00:00	7567	398	-21.5	-25.6	217	12
2023-08-16T00:00	7596	397	-21.6	-26.2	217	13
2023-08-16T00:00	7620	395	-21.8	-26.2	216	13
2023-08-16T00:00	7644	394	-21.9	-26.4	216	13
2023-08-16T00:00	7669	393	-22.1	-26.6	216	14
2023-08-16T00:00	7699	391	-22.3	-26.8	216	14
2023-08-16T00:00	7731	390	-22.6	-27.0	216	15
2023-08-16T00:00	7755	388	-22.8	-27.0	215	15
2023-08-16T00:00	7779	387	-23.0	-27.1	215	15
2023-08-16T00:00	7809	385	-23.3	-27.2	214	14
2023-08-16T00:00	7841	384	-23.5	-27.5	213	14
2023-08-16T00:00	7867	382	-23.7	-27.7	212	14
2023-08-16T00:00	7897	381	-23.9	-27.7	211	14
2023-08-16T00:00	7933	379	-24.1	-27.5	211	14
2023-08-16T00:00	7967	377	-24.4	-27.5	211	14
2023-08-16T00:00	7996	376	-24.5	-27.4	211	14
2023-08-16T00:00	8023	374	-24.6	-28.4	210	15
2023-08-16T00:00	8052	373	-24.8	-28.8	208	15
2023-08-16T00:00	8082	371	-25.1	-29.0	207	15
2023-08-16T00:00	8103	370	-25.3	-29.1	207	16
2023-08-16T00:00	8125	369	-25.4	-29.6	207	16
2023-08-16T00:00	8156	368	-25.7	-29.6	207	15
2023-08-16T00:00	8184	366	-25.9	-29.4	206	15
2023-08-16T00:00	8210	365	-26.1	-29.4	204	15
2023-08-16T00:00	8234	364	-26.2	-29.2	203	15
2023-08-16T00:00	8252	363	-26.3	-29.2	202	15
2023-08-16T00:00	8274	362	-26.4	-29.4	202	15
2023-08-16T00:00	8301	360	-26.6	-30.3	204	14
2023-08-16T00:00	8330	359	-26.8	-30.8	206	14
2023-08-16T00:00	8359	357	-27.0	-31.2	208	14
2023-08-16T00:00	8383	356	-27.2	-31.4	209	14
2023-08-16T00:00	8416	355	-27.4	-31.4	209	14
2023-08-16T00:00	8441	353	-27.7	-31.8	209	14
2023-08-16T00:00	8464	352	-27.9	-32.1	208	14
2023-08-16T00:00	8493	351	-28.1	-32.4	207	14
2023-08-16T00:00	8530	349	-28.4	-33.1	207	14
2023-08-16T00:00	8560	347	-28.6	-33.7	207	15
2023-08-16T00:00	8587	346	-28.8	-33.5	207	15
2023-08-16T00:00	8626	344	-29.2	-33.7	206	16
2023-08-16T00:00	8661	343	-29.5	-34.0	205	16
2023-08-16T00:00	8690	341	-29.8	-33.6	204	16
2023-08-16T00:00	8718	340	-30.1	-33.3	203	15
2023-08-16T00:00	8740	339	-30.4	-33.4	203	15
2023-08-16T00:00	8759	338	-30.6	-33.4	203	15
2023-08-16T00:00	8784	337	-30.8	-33.6	203	15
2023-08-16T00:00	8812	335	-31.0	-33.9	203	15
2023-08-16T00:00	8843	334	-31.3	-34.2	203	16
2023-08-16T00:00	8878	332	-31.6	-34.2	204	16
2023-08-16T00:00	8915	331	-31.9	-34.4	205	16
2023-08-16T00:00	8948	329	-32.2	-34.6	206	16
2023-08-16T00:00	8986	327	-32.5	-34.8	207	15
2023-08-16T00:00	9017	326	-32.7	-34.8	208	15
2023-08-16T00:00	9038	325	-32.9	-34.9	208	15
2023-08-16T00:00	9066	324	-33.1	-35.4	208	15
2023-08-16T00:00	9092	322	-33.3	-36.3	208	15
2023-08-16T00:00	9116	321	-33.6	-36.5	207	16
2023-08-16T00:00	9139	320	-33.8	-36.5	207	16
2023-08-16T00:00	9165	319	-33.9	-36.8	207	16
2023-08-16T00:00	9202	317	-34.2	-37.0	208	17
2023-08-16T00:00	9233	316	-34.3	-37.2	210	17
2023-08-16T00:00	9265	314	-34.5	-37.7	211	17
2023-08-16T00:00	9295	313	-34.7	-37.9	212	17
2023-08-16T00:00	9316	312	-34.9	-38.1	213	17
2023-08-16T00:00	9338	311	-35.1	-38.2	212	17
2023-08-16T00:00	9360	310	-35.2	-38.4	212	16
2023-08-16T00:00	9385	309	-35.4	-38.5	213	16
2023-08-16T00:00	9411	308	-35.7	-38.8	213	16
2023-08-16T00:00	9444	307	-35.9	-39.1	214	16
2023-08-16T00:00	9474	305	-36.1	-39.6	215	16
2023-08-16T00:00	9501	304	-36.4	-39.9	214	16
2023-08-16T00:00	9532	303	-36.6	-40.4	213	16
2023-08-16T00:00	9559	301	-36.9	-41.0	212	16
2023-08-16T00:00	9582	300	-37.1	-40.8	211	16
2023-08-16T00:00	9614	299	-37.4	-40.7	211	16
2023-08-16T00:00	9641	298	-37.6	-41.1	211	16
2023-08-16T00:00	9672	297	-37.9	-41.4	211	16
2023-08-16T00:00	9699	295	-38.2	-41.5	211	17
2023-08-16T00:00	9728	294	-38.4	-41.3	211	17
2023-08-16T00:00	9758	293	-38.7	-41.4	211	17
2023-08-16T00:00	9787	292	-39.0	-41.7	211	17
2023-08-16T00:00	9819	290	-39.3	-41.9	211	17
2023-08-16T00:00	9852	289	-39.6	-42.3	211	17
2023-08-16T00:00	9876	288	-39.8	-42.5	212	16
2023-08-16T00:00	9900	287	-40.0	-42.4	213	16
2023-08-16T00:00	9927	286	-40.3	-42.6	213	17
2023-08-16T00:00	9958	284	-40.5	-43.0	213	17
2023-08-16T00:00	9983	283	-40.8	-43.3	213	17
2023-08-16T00:00	10011	282	-41.0	-43.1	213	17
2023-08-16T00:00	10043	281	-41.2	-43.5	215	17
2023-08-16T00:00	10068	280	-41.5	-43.9	216	16
2023-08-16T00:00	10107	278	-41.8	-44.4	218	16
2023-08-16T00:00	10136	277	-42.0	-47.1	221	16
2023-08-16T00:00	10170	276	-41.9	-53.9	223	16
2023-08-16T00:00	10196	275	-42.2	-54.1	226	16
2023-08-16T00:00	10223	273	-42.4	-52.1	228	17
2023-08-16T00:00	10254	272	-42.7	-51.8	229	17
2023-08-16T00:00	10277	271	-42.9	-52.1	230	18
2023-08-16T00:00	10301	270	-43.2	-53.8	229	18
2023-08-16T00:00	10327	269	-43.4	-54.9	229	17
2023-08-16T00:00	10357	268	-43.7	-54.7	228	17
2023-08-16T00:00	10387	267	-44.0	-54.7	229	16
2023-08-16T00:00	10419	266	-44.3		231	16
2023-08-16T00:00	10447	265	-44.6	-55.3	232	15
2023-08-16T00:00	10480	263	-44.9	-56.0	233	15
2023-08-16T00:00	10505	262	-45.1	-56.0	232	15
2023-08-16T00:00	10534	261	-45.4	-56.8	231	16
2023-08-16T00:00	10562	260	-45.6	-57.9	229	16
2023-08-16T00:00	10586	259	-45.7	-58.0	228	17
2023-08-16T00:00	10608	258	-45.9	-57.9	227	17
2023-08-16T00:00	10632	257	-46.1	-57.8	227	17
2023-08-16T00:00	10660	256	-46.3	-57.7	227	18
2023-08-16T00:00	10685	255	-46.5	-57.9	227	18
2023-08-16T00:00	10712	254	-46.7	-58.1	228	18
2023-08-16T00:00	10739	253	-46.9		228	18
2023-08-16T00:00	10760	252	-47.1	-56.2	228	18
2023-08-16T00:00	10782	252	-47.3	-54.2	227	18
2023-08-16T00:00	10805	251	-47.5	-53.5	227	18
2023-08-16T00:00	10826	250	-47.7	-53.2	227	18
2023-08-16T00:00	10847	249	-47.9	-52.2	226	18
2023-08-16T00:00	10870	248	-48.0	-51.7	226	18
2023-08-16T00:00	10892	247	-48.2	-51.9	225	18
2023-08-16T00:00	10917	246	-48.3		225	18
2023-08-16T00:00	10941	246	-48.5	-51.7	225	18
2023-08-16T00:00	10962	245	-48.7	-51.9	225	18
2023-08-16T00:00	10985	244	-48.8	-52.0	225	19
2023-08-16T00:00	11008	243	-49.0	-52.2	225	19
2023-08-16T00:00	11031	242	-49.1	-52.4	225	19
2023-08-16T00:00	11050	241	-49.3	-52.6	225	20
2023-08-16T00:00	11072	241	-49.5	-52.8	225	20
2023-08-16T00:00	11100	240	-49.6	-52.9	225	20
2023-08-16T00:00	11124	239	-49.9	-53.1	224	20
2023-08-16T00:00	11149	238	-50.1	-53.3	224	20
2023-08-16T00:00	11170	237	-50.3	-53.4	223	20
2023-08-16T00:00	11192	236	-50.4	-53.5	223	20
2023-08-16T00:00	11210	236	-50.6	-53.7	224	20
2023-08-16T00:00	11232	235	-50.8	-54.0	224	20
2023-08-16T00:00	11252	234	-50.9	-54.3	225	20
2023-08-16T00:00	11274	233	-51.1	-54.7	225	21
2023-08-16T00:00	11297	233	-51.2	-54.9	225	21
2023-08-16T00:00	11322	232	-51.5	-55.4	225	21
2023-08-16T00:00	11347	231	-51.6	-55.8	225	22
2023-08-16T00:00	11375	230	-51.8	-56.1	224	22
2023-08-16T00:00	11404	229	-52.0	-56.3	224	23
2023-08-16T00:00	11429	228	-52.2	-56.7	224	24
2023-08-16T00:00	11455	227	-52.3	-56.9	224	24
2023-08-16T00:00	11481	226	-52.5	-57.0	224	25
2023-08-16T00:00	11505	225	-52.7	-57.2	224	25
2023-08-16T00:00	11534	224	-53.0	-57.5	224	25
2023-08-16T00:00	11556	223	-53.2	-57.5	224	25
2023-08-16T00:00	11580	223	-53.4	-57.6	225	24
2023-08-16T00:00	11606	222	-53.6	-57.8	225	24
2023-08-16T00:00	11632	221	-53.9	-58.0	225	24
2023-08-16T00:00	11657	220	-54.1	-58.2	225	24
2023-08-16T00:00	11680	219	-54.3	-58.5	225	24
2023-08-16T00:00	11703	218	-54.5	-58.9	225	24
2023-08-16T00:00	11728	218	-54.8	-59.2	225	24
2023-08-16T00:00	11750	217	-55.0	-59.5	225	23
2023-08-16T00:00	11778	216	-55.2	-59.8	225	23
2023-08-16T00:00	11805	215	-55.4	-60.3	225	23
2023-08-16T00:00	11828	214	-55.5	-60.8	225	22
2023-08-16T00:00	11851	213	-55.5	-61.1	224	22
2023-08-16T00:00	11873	213	-55.7	-61.4	223	22
2023-08-16T00:00	11895	212	-55.9	-61.7	222	21
2023-08-16T00:00	11923	211	-56.0	-61.7	221	21
2023-08-16T00:00	11950	210	-56.1	-61.8	220	22
2023-08-16T00:00	11980	209	-56.2	-61.9	219	22
2023-08-16T00:00	12005	208	-56.3	-62.2	218	22
2023-08-16T00:00	12030	207	-56.4	-62.6	218	22
2023-08-16T00:00	12059	207	-56.3	-63.0	216	22
2023-08-16T00:00	12087	206	-55.9	-63.3	215	22
2023-08-16T00:00	12121	205	-55.7	-63.9	213	22
2023-08-16T00:00	12148	204	-55.5	-65.0	211	21
2023-08-16T00:00	12174	203	-54.6	-66.2	210	21
2023-08-16T00:00	12206	202	-53.6	-67.2	210	21
2023-08-16T00:00	12233	201	-53.8	-67.9	211	21
2023-08-16T00:00	12265	200	-54.1	-67.7	212	22
2023-08-16T00:00	12291	199	-54.3	-67.4	214	22
2023-08-16T00:00	12318	198	-54.5	-67.4	216	22
2023-08-16T00:00	12347	197	-54.7	-67.5	218	21
2023-08-16T00:00	12372	197	-54.7	-67.3	220	21
2023-08-16T00:00	12399	196	-54.8	-67.1	222	21
2023-08-16T00:00	12421	195	-54.9	-67.0	223	21
2023-08-16T00:00	12442	195	-55.0	-67.0	225	21
2023-08-16T00:00	12463	194	-55.1	-67.1	226	21
2023-08-16T00:00	12487	193	-55.2	-67.2	227	21
2023-08-16T00:00	12509	192	-55.0	-67.1	228	21
2023-08-16T00:00	12531	192	-55.0	-67.0	228	21
2023-08-16T00:00	12551	191	-55.1	-67.1	229	21
2023-08-16T00:00	12572	191	-55.2	-67.2	229	21
2023-08-16T00:00	12593	190	-55.3	-67.4	230	20
2023-08-16T00:00	12615	189	-55.0	-67.4	230	19
2023-08-16T00:00	12641	189	-55.1	-67.9	229	19
2023-08-16T00:00	12665	188	-55.2	-68.2	228	19
2023-08-16T00:00	12689	187	-55.2	-68.4	227	18
2023-08-16T00:00	12714	186	-55.3	-68.6	225	18
2023-08-16T00:00	12741	186	-55.4	-68.7	223	18
2023-08-16T00:00	12767	185	-55.6	-68.9	221	17
2023-08-16T00:00	12795	184	-55.6	-69.1	218	17
2023-08-16T00:00	12822	183	-55.7	-69.3	215	17
2023-08-16T00:00	12860	182	-56.0	-69.7	212	17
2023-08-16T00:00	12889	181	-56.1	-70.0	210	17
2023-08-16T00:00	12918	180	-56.3	-70.4	209	18
2023-08-16T00:00	12963	179	-56.5	-70.9	208	18
2023-08-16T00:00	12987	179	-56.6	-71.6	208	18
2023-08-16T00:00	13011	178	-56.3	-72.5	209	18
2023-08-16T00:00	13036	177	-55.8	-73.6	209	18
2023-08-16T00:00	13063	176	-54.5	-73.7	210	18
2023-08-16T00:00	13087	176	-54.4		210	17
2023-08-16T00:00	13114	175	-54.5	-74.0	211	18
2023-08-16T00:00	13137	174	-54.7	-74.1	211	18
2023-08-16T00:00	13157	174	-54.3	-73.9	210	18
2023-08-16T00:00	13182	173	-54.4	-74.3	208	18
2023-08-16T00:00	13216	172	-54.6	-74.6	206	19
2023-08-16T00:00	13246	172	-54.7	-74.7	205	19
2023-08-16T00:00	13266	171	-55.0	-74.9	204	19
2023-08-16T00:00	13289	170	-55.0	-74.9	204	20
2023-08-16T00:00	13310	170	-54.8	-75.0	204	20
2023-08-16T00:00	13331	169	-54.8	-75.1	204	20
2023-08-16T00:00	13353	169	-54.9	-75.2	204	21
2023-08-16T00:00	13376	168	-55.1	-75.3	204	21
2023-08-16T00:00	13399	167	-55.2	-75.4	205	21
2023-08-16T00:00	13420	167	-55.4	-75.5	205	21
2023-08-16T00:00	13444	166	-55.6	-75.6	206	21
2023-08-16T00:00	13466	166	-55.8	-75.7	207	21
2023-08-16T00:00	13487	165	-56.0	-76.0	207	21
2023-08-16T00:00	13509	165	-56.0	-76.1	208	21
2023-08-16T00:00	13531	164	-55.8	-76.3	209	20
2023-08-16T00:00	13552	163	-55.8	-76.5	209	20
2023-08-16T00:00	13573	163	-55.7	-76.7	209	19
2023-08-16T00:00	13593	162	-55.6	-76.9	209	18
2023-08-16T00:00	13615	162	-55.6	-77.0	209	18
2023-08-16T00:00	13638	161	-55.6	-77.3	209	17
2023-08-16T00:00	13660	161	-55.4	-77.1	209	17
2023-08-16T00:00	13683	160	-55.4	-77.3	208	17
2023-08-16T00:00	13703	160	-55.5	-77.3	207	17
2023-08-16T00:00	13723	159	-55.1	-76.9	206	17
2023-08-16T00:00	13745	159	-55.0	-76.8	204	18
2023-08-16T00:00	13764	158	-55.0	-76.8	203	18
2023-08-16T00:00	13785	158	-54.8	-76.8	202	19
2023-08-16T00:00	13805	157	-54.6	-76.9	202	19
2023-08-16T00:00	13828	157	-54.4	-77.2	202	19
2023-08-16T00:00	13845	156	-54.4	-77.9	203	19
2023-08-16T00:00	13867	156	-54.1	-78.7	204	19
2023-08-16T00:00	13887	155	-53.6	-78.9	206	19
2023-08-16T00:00	13908	155	-53.4	-79.3	208	20
2023-08-16T00:00	13928	154	-53.0	-79.2	210	20
2023-08-16T00:00	13947	154	-53.0	-79.2	211	20
2023-08-16T00:00	13970	153	-53.1	-79.0	212	20
2023-08-16T00:00	13990	153	-53.2	-79.1	212	20
2023-08-16T00:00	14009	152	-53.3	-79.2	213	20
2023-08-16T00:00	14030	152	-53.2	-78.9	213	20
2023-08-16T00:00	14052	151	-53.2	-78.9	214	19
2023-08-16T00:00	14072	151	-53.2	-78.6	214	19
2023-08-16T00:00	14095	150	-53.1	-78.6	215	18
2023-08-16T00:00	14116	150	-52.9	-78.6	216	17
2023-08-16T00:00	14137	149	-52.7	-78.7	217	17
2023-08-16T00:00	14156	149	-52.6	-78.9	217	17
2023-08-16T00:00	14176	148	-52.3	-78.7	217	17
2023-08-16T00:00	14194	148	-52.1	-78.5	217	17
2023-08-16T00:00	14214	147	-52.3	-78.7	217	17
2023-08-16T00:00	14236	147	-52.5	-78.8	218	17
2023-08-16T00:00	14258	146	-52.6	-78.7	218	17
2023-08-16T00:00	14278	146	-52.6	-78.7	219	17
2023-08-16T00:00	14298	146	-52.6	-78.7	220	16
2023-08-16T00:00	14316	145	-52.6	-78.9	221	16
2023-08-16T00:00	14337	145	-52.8	-78.8	221	16
2023-08-16T00:00	14358	144	-52.9	-78.9	221	15
2023-08-16T00:00	14379	144	-53.0	-79.0	221	15
2023-08-16T00:00	14399	143	-53.0	-79.0	221	15
2023-08-16T00:00	14421	143	-53.0	-79.0	221	15
2023-08-16T00:00	14440	142	-53.2	-79.1	221	15
2023-08-16T00:00	14462	142	-53.4	-79.3	221	15
2023-08-16T00:00	14483	141	-53.6	-79.4	220	15
2023-08-16T00:00	14504	141	-53.7	-79.3	219	15
2023-08-16T00:00	14525	140	-53.9	-79.4	217	15
2023-08-16T00:00	14545	140	-54.0	-79.5	215	15
2023-08-16T00:00	14567	140	-54.1	-79.6	213	15
2023-08-16T00:00	14586	139	-54.2	-79.7	211	15
2023-08-16T00:00	14607	139	-54.3	-79.7	209	15
2023-08-16T00:00	14630	138	-54.2	-79.9	207	15
2023-08-16T00:00	14650	138	-54.0	-80.0	206	16
2023-08-16T00:00	14671	137	-53.7	-79.8	205	16
2023-08-16T00:00	14691	137	-53.6	-79.7	204	17
2023-08-16T00:00	14712	136	-53.7	-79.8	204	17
2023-08-16T00:00	14731	136	-53.9	-79.9	204	17
2023-08-16T00:00	14752	136	-53.9	-79.9	204	18
2023-08-16T00:00	14773	135	-53.8	-79.8	205	18
2023-08-16T00:00	14795	135	-53.9	-80.2	206	18
2023-08-16T00:00	14816	134	-54.0	-80.0	207	18
2023-08-16T00:00	14837	134	-54.1	-80.1	207	18
2023-08-16T00:00	14858	133	-54.2	-80.2	208	18
2023-08-16T00:00	14880	133	-54.4	-80.3	208	18
2023-08-16T00:00	14900	132	-54.4	-80.3	207	18
2023-08-16T00:00	14920	132	-54.3	-80.2	207	18
2023-08-16T00:00	14941	132	-54.2	-80.4	206	18
2023-08-16T00:00	14963	131	-54.3	-80.5	206	18
2023-08-16T00:00	14981	131	-54.4	-80.3	207	18
2023-08-16T00:00	15004	130	-54.3	-80.2	208	18
2023-08-16T00:00	15024	130	-54.3	-80.2	210	18
2023-08-16T00:00	15045	130	-54.4	-80.3	212	18
2023-08-16T00:00	15069	129	-54.5	-80.4	213	18
2023-08-16T00:00	15088	129	-54.6	-80.5	214	18
2023-08-16T00:00	15109	128	-54.8	-80.6	215	18
2023-08-16T00:00	15131	128	-54.9	-80.4	216	18
2023-08-16T00:00	15151	127	-55.0	-80.5	217	19
2023-08-16T00:00	15175	127	-55.2	-80.7	218	19
2023-08-16T00:00	15196	127	-55.3	-80.5	219	19
2023-08-16T00:00	15217	126	-55.4	-80.6	221	19
2023-08-16T00:00	15237	126	-55.5	-80.7	222	19
2023-08-16T00:00	15256	125	-55.7	-80.8	223	19
2023-08-16T00:00	15277	125	-55.8	-80.9	223	19
2023-08-16T00:00	15294	125	-55.8	-80.9	224	19
2023-08-16T00:00	15316	124	-55.7	-81.1	224	19
2023-08-16T00:00	15337	124	-55.5	-80.9	224	18
2023-08-16T00:00	15358	123	-55.6	-81.0	224	18
2023-08-16T00:00	15378	123	-55.8	-81.4	223	17
2023-08-16T00:00	15399	123	-55.4	-81.1	223	17
2023-08-16T00:00	15422	122	-55.2	-81.2	223	16
2023-08-16T00:00	15442	122	-55.0	-81.3	223	16
2023-08-16T00:00	15465	121	-54.7	-81.1	223	15
2023-08-16T00:00	15487	121	-54.6	-81.3	222	14
2023-08-16T00:00	15506	120	-54.6	-81.3	220	14
2023-08-16T00:00	15530	120	-54.4	-81.2	218	14
2023-08-16T00:00	15550	120	-54.5	-81.2	216	13
2023-08-16T00:00	15574	119	-54.5	-81.2	214	13
2023-08-16T00:00	15593	119	-54.6	-81.3	212	13
2023-08-16T00:00	15614	118	-54.7	-81.4	211	13
2023-08-16T00:00	15637	118	-54.4	-81.2	209	13
2023-08-16T00:00	15658	118	-54.3	-81.1	207	13
2023-08-16T00:00	15683	117	-54.5	-81.2	205	14
2023-08-16T00:00	15704	117	-54.6	-81.3	203	14
2023-08-16T00:00	15727	116	-54.7	-81.4	200	14
2023-08-16T00:00	15754	116	-54.8	-81.5	198	15
2023-08-16T00:00	15775	116	-54.6	-81.3	197	15
2023-08-16T00:00	15798	115	-54.4	-81.5	197	15
2023-08-16T00:00	15823	115	-54.2	-81.3	198	15
2023-08-16T00:00	15843	114	-54.1	-81.2	199	15
2023-08-16T00:00	15865	114	-54.2	-81.6	201	15
2023-08-16T00:00	15889	114	-54.2	-81.6	203	15
2023-08-16T00:00	15914	113	-54.1	-81.2	204	15
2023-08-16T00:00	15936	113	-54.2	-81.3	205	15
2023-08-16T00:00	15957	112	-54.3	-81.4	206	14
2023-08-16T00:00	15982	112	-54.4	-81.5	207	14
2023-08-16T00:00	16005	111	-54.3	-81.4	208	13
2023-08-16T00:00	16026	111	-54.4	-81.8	210	13
2023-08-16T00:00	16050	111	-54.3	-81.7	211	12
2023-08-16T00:00	16073	110	-53.9	-81.4	212	12
2023-08-16T00:00	16096	110	-53.9	-81.4	212	12
2023-08-16T00:00	16119	109	-54.0	-81.5	212	13
2023-08-16T00:00	16143	109	-54.2	-81.6	212	13
2023-08-16T00:00	16166	109	-54.5	-81.5	212	13
2023-08-16T00:00	16188	108	-54.6	-81.6	213	13
2023-08-16T00:00	16209	108	-54.7	-81.7	214	13
2023-08-16T00:00	16234	108	-54.8	-81.5	215	13
2023-08-16T00:00	16255	107	-54.9	-81.5	216	13
2023-08-16T00:00	16278	107	-55.1	-81.7	218	13
2023-08-16T00:00	16299	106	-55.2	-81.8	220	13
2023-08-16T00:00	16321	106	-55.4	-81.9	221	12
2023-08-16T00:00	16343	106	-55.6	-82.1	223	13
2023-08-16T00:00	16364	105	-55.7	-82.2	224	13
2023-08-16T00:00	16383	105	-55.8	-82.2	224	13
2023-08-16T00:00	16405	105	-55.9	-82.0	226	13
2023-08-16T00:00	16424	104	-56.0	-82.1	227	13
2023-08-16T00:00	16445	104	-56.1	-82.2	229	13
2023-08-16T00:00	16465	104	-56.3	-82.3	232	13
2023-08-16T00:00	16485	103	-56.3	-82.3	234	13
2023-08-16T00:00	16505	103	-56.2	-82.6	235	13
2023-08-16T00:00	16525	103	-56.1	-82.5	236	13
2023-08-16T00:00	16543	102	-56.2	-82.6	236	12
2023-08-16T00:00	16564	102	-56.1	-82.5	235	12
2023-08-16T00:00	16586	102	-56.1	-82.8	232	11
2023-08-16T00:00	16605	101	-56.1	-82.8	229	11
2023-08-16T00:00	16628	101	-55.9	-82.6	225	10
2023-08-16T00:00	16653	101	-55.7	-82.8	220	10
2023-08-16T00:00	16673	100	-55.6	-82.7	216	10
2023-08-16T00:00	16693	100	-55.4	-82.6	213	10
2023-08-16T00:00	16717	100	-55.3	-82.5	211	11
2023-08-16T00:00	16738	99	-55.3	-82.5	211	11
2023-08-16T00:00	16759	99	-55.5	-82.6	212	11
2023-08-16T00:00	16779	99	-55.7	-82.8	212	11
2023-08-16T00:00	16801	98	-55.9	-82.6	213	11
2023-08-16T00:00	16823	98	-56.0	-82.7	214	12
2023-08-16T00:00	16846	98	-56.2	-82.9	214	12
2023-08-16T00:00	16866	97	-56.4	-83.0	214	13
2023-08-16T00:00	16886	97	-56.6	-82.9	214	13
2023-08-16T00:00	16909	97	-56.8	-83.0	214	13
2023-08-16T00:00	16933	96	-56.9	-83.1	214	13
2023-08-16T00:00	16952	96	-57.0	-83.2	214	13
2023-08-16T00:00	16975	96	-57.1	-83.2	213	12
2023-08-16T00:00	16993	95	-57.1	-83.5	212	11
2023-08-16T00:00	17017	95	-57.1	-83.5	211	10
2023-08-16T00:00	17036	95	-57.1	-83.5	209	10
2023-08-16T00:00	17063	94	-57.1	-83.5	208	10
2023-08-16T00:00	17082	94	-57.2	-83.6	206	10
2023-08-16T00:00	17104	94	-57.4	-83.8	205	10
2023-08-16T00:00	17125	93	-57.5	-83.9	204	10
2023-08-16T00:00	17144	93	-57.3	-83.7	203	10
2023-08-16T00:00	17165	93	-57.3	-83.7	202	11
2023-08-16T00:00	17187	93	-57.5	-83.9	200	11
2023-08-16T00:00	17210	92	-57.6	-83.9	199	11
2023-08-16T00:00	17232	92	-57.6	-83.9	197	11
2023-08-16T00:00	17253	92	-57.2	-83.9	195	11
2023-08-16T00:00	17276	91	-57.3	-84.0	193	10
2023-08-16T00:00	17301	91	-57.4	-84.1	192	10
2023-08-16T00:00	17322	91	-57.4	-84.1	191	10
2023-08-16T00:00	17343	90	-57.5	-84.2	191	10
2023-08-16T00:00	17363	90	-57.4	-84.4	193	10
2023-08-16T00:00	17387	90	-57.4	-84.4	197	10
2023-08-16T00:00	17409	89	-57.2	-84.3	201	10
2023-08-16T00:00	17430	89	-56.6	-84.2	205	10
2023-08-16T00:00	17452	89	-56.2	-83.9	208	10
2023-08-16T00:00	17471	88	-56.2	-83.9	211	11
2023-08-16T00:00	17496	88	-56.3	-83.9	214	11
2023-08-16T00:00	17519	88	-56.5	-84.1	217	12
2023-08-16T00:00	17538	88	-56.5	-84.1	219	13
2023-08-16T00:00	17557	87	-56.1	-84.2	221	13
2023-08-16T00:00	17579	87	-56.0	-84.1	223	14
2023-08-16T00:00	17603	87	-55.6	-83.8	224	14
2023-08-16T00:00	17623	86	-55.7	-83.9	226	14
2023-08-16T00:00	17642	86	-55.8	-83.9	227	13
2023-08-16T00:00	17665	86	-55.8	-83.9	229	13
2023-08-16T00:00	17687	86	-55.7	-83.9	230	13
2023-08-16T00:00	17710	85	-55.6	-83.8	232	12
2023-08-16T00:00	17731	85	-55.6	-83.8	233	12
2023-08-16T00:00	17752	85	-55.5	-83.7	233	11
2023-08-16T00:00	17773	84	-55.5	-83.7	233	10
2023-08-16T00:00	17796	84	-55.2	-83.9	232	9
2023-08-16T00:00	17819	84	-55.0	-83.7	230	8
2023-08-16T00:00	17841	84	-54.5	-83.8	227	7
2023-08-16T00:00	17860	83	-54.3	-83.6	222	7
2023-08-16T00:00	17885	83	-54.2	-83.6	216	6
2023-08-16T00:00	17904	83	-54.3	-83.6	210	6
2023-08-16T00:00	17928	82	-54.2	-83.6	206	6
2023-08-16T00:00	17950	82	-54.0	-83.4	202	6
2023-08-16T00:00	17970	82	-53.9	-83.3	199	6
2023-08-16T00:00	17995	82	-53.9	-83.3	197	6
2023-08-16T00:00	18016	81	-53.9	-83.3	194	6
2023-08-16T00:00	18036	81	-53.9	-83.3	191	6
2023-08-16T00:00	18059	81	-53.8	-83.3	187	6
2023-08-16T00:00	18077	80	-53.9	-82.9	183	6
2023-08-16T00:00	18101	80	-54.0	-83.0	180	7
2023-08-16T00:00	18122	80	-54.1	-83.1	178	7
2023-08-16T00:00	18147	80	-54.2	-83.1	178	7
2023-08-16T00:00	18166	79	-54.2	-83.1	178	7
2023-08-16T00:00	18189	79	-54.3	-83.2	180	7
2023-08-16T00:00	18212	79	-54.4	-83.3	181	7
2023-08-16T00:00	18232	79	-54.5	-83.4	183	8
2023-08-16T00:00	18254	78	-54.6	-83.4	184	8
2023-08-16T00:00	18274	78	-54.7	-83.5	184	9
2023-08-16T00:00	18299	78	-54.9	-83.7	184	9
2023-08-16T00:00	18320	78	-55.0		184	10
2023-08-16T00:00	18340	77	-55.0		185	10
2023-08-16T00:00	18363	77	-55.2	-83.5	185	10
2023-08-16T00:00	18388	77	-55.4	-83.6	185	10
2023-08-16T00:00	18407	76	-55.4	-83.6	185	10
2023-08-16T00:00	18433	76	-55.3	-83.6	185	10
2023-08-16T00:00	18456	76	-55.3	-83.6	185	11
2023-08-16T00:00	18474	76	-55.4	-83.6	185	11
2023-08-16T00:00	18499	75	-55.6	-83.8	185	11
2023-08-16T00:00	18522	75	-55.7	-83.9	186	11
2023-08-16T00:00	18546	75	-55.7	-83.9	186	11
2023-08-16T00:00	18571	75	-55.7	-84.3	187	11
2023-08-16T00:00	18589	74	-55.5	-84.1	189	10
2023-08-16T00:00	18617	74	-55.3	-84.0	191	10
2023-08-16T00:00	18639	74	-55.1	-83.8	194	10
2023-08-16T00:00	18666	73	-54.9	-84.1	197	10
2023-08-16T00:00	18688	73	-54.7	-83.9	200	10
2023-08-16T00:00	18712	73	-54.8	-84.0	203	10
2023-08-16T00:00	18739	73	-54.8	-84.0	205	10
2023-08-16T00:00	18760	72	-54.8	-84.0	205	10
2023-08-16T00:00	18781	72	-54.4	-83.7	205	10
2023-08-16T00:00	18805	72	-54.2	-83.6	204	10
2023-08-16T00:00	18832	72	-54.2	-83.6	203	9
2023-08-16T00:00	18856	71	-54.3	-83.6	202	9
2023-08-16T00:00	18879	71	-54.4	-83.7	202	9
2023-08-16T00:00	18900	71	-54.4	-83.7	201	9
2023-08-16T00:00	18924	70	-54.4	-83.7	201	8
2023-08-16T00:00	18950	70	-54.3	-83.6	200	8
2023-08-16T00:00	18973	70	-54.4	-83.7	199	8
2023-08-16T00:00	18999	70	-54.5	-83.8	199	8
2023-08-16T00:00	19021	69	-54.4	-83.7	199	9
2023-08-16T00:00	19046	69	-54.4	-83.3	201	9
2023-08-16T00:00	19065	69	-54.6	-83.4	203	9
2023-08-16T00:00	19093	69	-54.7	-83.5	205	9
2023-08-16T00:00	19117	68	-54.9	-83.7	207	9
2023-08-16T00:00	19139	68	-55.0	-83.7	209	10
2023-08-16T00:00	19160	68	-55.0	-83.7	210	10
2023-08-16T00:00	19185	68	-55.1	-83.8	210	9
2023-08-16T00:00	19208	67	-55.3	-84.0	209	9
2023-08-16T00:00	19233	67	-55.4	-84.0	208	9
2023-08-16T00:00	19256	67	-55.2	-83.9	205	8
2023-08-16T00:00	19280	67	-55.1	-83.8	201	8
2023-08-16T00:00	19297	66	-55.1	-83.8	198	8
2023-08-16T00:00	19323	66	-55.2	-83.9	194	8
2023-08-16T00:00	19343	66	-55.4	-84.0	191	8
2023-08-16T00:00	19368	66	-55.5	-84.1	188	8
2023-08-16T00:00	19394	66	-55.6	-84.2	185	7
2023-08-16T00:00	19412	65	-55.7	-83.9	181	7
2023-08-16T00:00	19436	65	-55.8	-83.9	176	8
2023-08-16T00:00	19458	65	-55.9	-84.4	170	8
2023-08-16T00:00	19483	65	-55.9	-84.4	165	8
2023-08-16T00:00	19506	64	-55.9	-84.4	162	9
2023-08-16T00:00	19532	64	-55.9	-84.4	160	9
2023-08-16T00:00	19553	64	-55.9	-84.4	161	9
2023-08-16T00:00	19581	64	-55.5	-84.1	164	9
2023-08-16T00:00	19604	63	-55.2	-83.9	168	9
2023-08-16T00:00	19630	63	-55.3	-84.0	174	8
2023-08-16T00:00	19653	63	-55.5	-84.1	181	8
2023-08-16T00:00	19682	63	-55.6	-84.2	189	8
2023-08-16T00:00	19704	62	-55.7	-84.3	197	8
2023-08-16T00:00	19730	62	-55.7	-84.3	205	7
2023-08-16T00:00	19751	62	-55.6	-84.2	212	7
2023-08-16T00:00	19777	62	-55.5	-84.1	218	7
2023-08-16T00:00	19799	61	-55.5	-84.1	224	7
2023-08-16T00:00	19825	61	-55.4	-84.0	229	6
2023-08-16T00:00	19848	61	-55.4	-84.0	234	6
2023-08-16T00:00	19877	61	-55.5	-84.5	240	5
2023-08-16T00:00	19899	61	-55.4	-84.5	245	4
2023-08-16T00:00	19930	60	-55.2	-84.3	250	3
2023-08-16T00:00	19956	60	-55.2	-84.3	251	3
2023-08-16T00:00	19975	60	-55.2	-84.3	245	2
2023-08-16T00:00	20002	60	-55.2	-84.3	231	2
2023-08-16T00:00	20030	59	-55.0	-84.2	215	2
2023-08-16T00:00	20060	59	-54.9	-84.1	203	3
2023-08-16T00:00	20085	59	-55.0	-84.2	197	3
2023-08-16T00:00	20110	59	-55.1	-84.2	194	3
2023-08-16T00:00	20138	58	-55.2	-83.9	195	3
2023-08-16T00:00	20167	58	-55.1	-84.2	198	3
2023-08-16T00:00	20192	58	-55.0	-84.2	203	2
2023-08-16T00:00	20219	58	-55.1	-84.2	215	2
2023-08-16T00:00	20246	57	-55.2	-83.9	235	1
2023-08-16T00:00	20270	57	-55.2	-83.9	256	1
2023-08-16T00:00	20295	57	-55.4	-84.0	267	1
2023-08-16T00:00	20320	57	-55.4	-84.0	269	1
2023-08-16T00:00	20347	56	-55.3	-84.0	266	1
2023-08-16T00:00	20374	56	-55.3	-84.0	264	1
2023-08-16T00:00	20399	56	-55.4	-84.0	269	0
2023-08-16T00:00	20426	56	-55.2	-83.9	58	0
2023-08-16T00:00	20451	56	-55.2	-84.3	67	1
2023-08-16T00:00	20477	55	-55.2	-84.3	70	2
2023-08-16T00:00	20500	55	-55.3	-84.4	74	2
2023-08-16T00:00	20519	55	-55.3	-84.4	80	3
2023-08-16T00:00	20545	55	-55.2	-84.3	88	3
2023-08-16T00:00	20565	55	-55.1	-84.2	96	4
2023-08-16T00:00	20590	54	-55.2	-84.3	104	4
2023-08-16T00:00	20614	54	-55.1	-84.2	111	5
2023-08-16T00:00	20633	54	-55.0	-84.2	116	5
2023-08-16T00:00	20658	54	-54.7	-83.9	120	6
2023-08-16T00:00	20679	54	-54.7	-83.9	124	6
2023-08-16T00:00	20699	53	-54.7	-83.9	128	6
2023-08-16T00:00	20724	53	-54.7	-83.9	130	6
2023-08-16T00:00	20739	53	-54.8	-84.0	130	6
2023-08-16T00:00	20765	53	-54.9	-84.1	128	7
2023-08-16T00:00	20788	53	-54.7	-83.9	126	7
2023-08-16T00:00	20809	53	-54.8	-84.0	125	7
2023-08-16T00:00	20828	52	-54.8	-84.0	126	7
2023-08-16T00:00	20846	52	-54.8	-84.0	129	7
2023-08-16T00:00	20869	52	-54.8	-84.0	135	7
2023-08-16T00:00	20886	52	-54.8	-84.0	142	7
2023-08-16T00:00	20908	52	-54.9	-84.1	150	7
2023-08-16T00:00	20931	52	-54.9	-84.1	157	7
2023-08-16T00:00	20950	51	-54.9	-84.1	164	7
2023-08-16T00:00	20972	51	-54.8	-84.0	170	7
2023-08-16T00:00	20996	51	-54.9	-84.1	177	7
2023-08-16T00:00	21018	51	-55.1	-84.2	184	7
2023-08-16T00:00	21042	51	-55.1	-84.2	191	7
2023-08-16T00:00	21065	50	-54.8	-84.0	197	7
2023-08-16T00:00	21085	50	-54.8	-84.0	204	7
2023-08-16T00:00	21112	50	-54.9	-84.1	211	6
2023-08-16T00:00	21135	50	-54.9	-84.1	219	6
2023-08-16T00:00	21157	50	-55.0	-84.2	227	5
2023-08-16T00:00	21180	50	-54.9	-84.1	236	4
2023-08-16T00:00	21202	49	-54.5	-84.3	245	4
2023-08-16T00:00	21231	49	-54.2	-84.0	252	3
2023-08-16T00:00	21253	49	-54.1	-84.0	256	2
2023-08-16T00:00	21276	49	-53.9	-83.8	252	2
2023-08-16T00:00	21300	49	-54.0	-83.9	233	1
2023-08-16T00:00	21323	48	-54.1	-84.0	188	1
2023-08-16T00:00	21352	48	-54.2	-83.6	156	1
2023-08-16T00:00	21378	48	-54.4	-83.7	146	2
2023-08-16T00:00	21401	48	-54.5	-83.8	144	3
2023-08-16T00:00	21431	48	-54.5	-83.8	146	3
2023-08-16T00:00	21453	47	-54.3	-83.6	149	4
2023-08-16T00:00	21485	47	-54.3	-83.6	153	4
2023-08-16T00:00	21515	47	-54.2	-83.6	155	4
2023-08-16T00:00	21538	47	-54.1	-84.0	156	4
2023-08-16T00:00	21569	47	-54.1	-84.0	154	4
2023-08-16T00:00	21597	46	-54.2	-84.0	148	4
2023-08-16T00:00	21628	46	-54.0	-83.9	139	3
2023-08-16T00:00	21653	46	-53.8	-83.7	125	3
2023-08-16T00:00	21681	46	-53.8	-83.7	113	3
2023-08-16T00:00	21706	46	-53.8	-83.7	108	3
2023-08-16T00:00	21737	45	-53.6	-83.6	110	3
2023-08-16T00:00	21761	45	-53.3		115	4
2023-08-16T00:00	21796	45	-53.1	-83.2	119	4
2023-08-16T00:00	21824	45	-53.2	-83.3	121	5
2023-08-16T00:00	21849	45	-53.2	-83.3	121	5
2023-08-16T00:00	21879	44	-53.4	-83.4	119	5
2023-08-16T00:00	21901	44	-53.6	-83.6	117	5
2023-08-16T00:00	21931	44	-53.6	-83.6	115	5
2023-08-16T00:00	21956	44	-53.5	-83.5	114	5
2023-08-16T00:00	21981	44	-53.4	-83.0	113	5
2023-08-16T00:00	22010	44	-53.6	-83.1	114	6
2023-08-16T00:00	22028	43	-53.8	-83.3	115	6
2023-08-16T00:00	22063	43	-54.0	-83.4	117	6
2023-08-16T00:00	22088	43	-54.1	-83.5	119	7
2023-08-16T00:00	22108	43	-54.3	-83.6	122	7
2023-08-16T00:00	22133	43	-54.4	-83.7	125	7
2023-08-16T00:00	22159	43	-54.5	-83.8	129	8
2023-08-16T00:00	22185	42	-54.7	-83.9	133	8
2023-08-16T00:00	22208	42	-54.8	-84.0	136	8
2023-08-16T00:00	22232	42	-54.9	-83.7	140	8
2023-08-16T00:00	22249	42	-54.9	-83.7	143	8
2023-08-16T00:00	22276	42	-55.1	-83.8	146	8
2023-08-16T00:00	22299	42	-55.2	-83.9	148	8
2023-08-16T00:00	22322	41	-55.3	-84.0	150	7
2023-08-16T00:00	22347	41	-55.5	-84.1	151	7
2023-08-16T00:00	22370	41	-55.5	-84.1	152	6
2023-08-16T00:00	22388	41	-55.6	-84.2	152	5
2023-08-16T00:00	22408	41	-55.5	-84.5	149	5
2023-08-16T00:00	22435	41	-55.2	-84.3	143	4
2023-08-16T00:00	22458	41	-55.1	-84.2	135	4
2023-08-16T00:00	22476	40	-55.1	-84.2	128	4
2023-08-16T00:00	22499	40	-55.0	-84.2	121	4
2023-08-16T00:00	22517	40	-55.0	-84.2	117	4
2023-08-16T00:00	22545	40	-54.9	-84.1	115	4
2023-08-16T00:00	22562	40	-54.9	-84.1	115	5
2023-08-16T00:00	22590	40	-54.9	-84.1	116	5
2023-08-16T00:00	22604	40	-55.0	-84.2	120	5
2023-08-16T00:00	22624	40	-55.0	-84.2	125	6
2023-08-16T00:00	22651	39	-55.0	-84.2	133	6
2023-08-16T00:00	22671	39	-54.9	-84.1	140	6
2023-08-16T00:00	22700	39	-55.1	-84.2	148	6
2023-08-16T00:00	22721	39	-55.1	-84.2	154	6
2023-08-16T00:00	22744	39	-55.2	-84.3	157	6
2023-08-16T00:00	22768	39	-55.2	-84.3	158	6
2023-08-16T00:00	22793	39	-55.2	-84.3	157	6
2023-08-16T00:00	22820	38	-55.0	-84.2	155	5
2023-08-16T00:00	22842	38	-54.8	-84.5	151	5
2023-08-16T00:00	22871	38	-54.6	-84.3	147	5
2023-08-16T00:00	22889	38	-54.5	-84.3	139	4
2023-08-16T00:00	22913	38	-54.3	-84.1	129	4
2023-08-16T00:00	22939	38	-54.1	-84.0	118	4
2023-08-16T00:00	22970	37	-54.0	-83.9	109	5
2023-08-16T00:00	22992	37	-53.8	-84.2	104	5
2023-08-16T00:00	23024	37	-53.6	-84.1	103	6
2023-08-16T00:00	23046	37	-53.5	-84.0	105	6
2023-08-16T00:00	23069	37	-53.4	-83.9	109	6
2023-08-16T00:00	23097	37	-53.3	-83.9	114	6
2023-08-16T00:00	23123	37	-53.3	-83.9	120	6
2023-08-16T00:00	23153	36	-53.1	-83.7	125	6
2023-08-16T00:00	23174	36	-53.1	-83.7	131	6
2023-08-16T00:00	23203	36	-53.1	-83.7	136	6
2023-08-16T00:00	23232	36	-53.1	-83.7	139	5
2023-08-16T00:00	23257	36	-53.1	-83.2	139	4
2023-08-16T00:00	23282	36	-53.1	-83.2	135	4
2023-08-16T00:00	23315	36	-53.2	-83.3	124	3
2023-08-16T00:00	23335	35	-53.1	-83.2	108	3
2023-08-16T00:00	23361	35	-53.0	-83.1	93	3
2023-08-16T00:00	23396	35	-53.0	-83.1	83	4
2023-08-16T00:00	23420	35	-52.9	-83.1	79	4
2023-08-16T00:00	23449	35	-53.0	-83.1	78	5
2023-08-16T00:00	23475	35	-53.0	-83.1	80	5
2023-08-16T00:00	23503	34	-53.0	-83.1	82	5
2023-08-16T00:00	23529	34	-53.1	-83.2	86	5
2023-08-16T00:00	23559	34	-53.3		89	5
2023-08-16T00:00	23588	34	-53.4	-83.4	94	5
2023-08-16T00:00	23613	34	-53.4	-83.4	99	4
2023-08-16T00:00	23635	34	-53.4	-83.4	104	4
2023-08-16T00:00	23666	34	-53.4	-83.4	108	4
2023-08-16T00:00	23687	34	-53.3		112	4
2023-08-16T00:00	23717	33	-53.3		114	4
2023-08-16T00:00	23744	33	-53.4	-83.4	115	5
2023-08-16T00:00	23763	33	-53.5	-83.5	116	5
2023-08-16T00:00	23792	33	-53.5	-83.5	114	5
2023-08-16T00:00	23821	33	-53.5	-83.5	112	5
2023-08-16T00:00	23849	33	-53.3		109	6
2023-08-16T00:00	23869	33	-53.3		107	6
2023-08-16T00:00	23899	32	-53.3		107	6
2023-08-16T00:00	23926	32	-53.2	-83.3	109	5
2023-08-16T00:00	23941	32	-53.3		112	5
2023-08-16T00:00	23974	32	-53.3		115	5
2023-08-16T00:00	23996	32	-53.4	-83.4	118	5
2023-08-16T00:00	24025	32	-53.4	-83.4	120	5
2023-08-16T00:00	24044	32	-53.5	-83.5	121	5
2023-08-16T00:00	24080	32	-53.5	-83.5	120	5
2023-08-16T00:00	24093	31	-53.5	-83.5	119	4
2023-08-16T00:00	24126	31	-53.5	-83.5	117	4
2023-08-16T00:00	24152	31	-53.4	-83.4	113	3
2023-08-16T00:00	24172	31	-53.4	-83.4	105	3
2023-08-16T00:00	24203	31	-53.5	-83.5	94	2
2023-08-16T00:00	24232	31	-53.6	-83.6	79	2
2023-08-16T00:00	24255	31	-53.6	-83.6	65	2
2023-08-16T00:00	24285	31	-53.6	-83.6	55	2
2023-08-16T00:00	24307	30	-53.6	-83.6	49	3
2023-08-16T00:00	24335	30	-53.6	-83.6	46	3
2023-08-16T00:00	24353	30	-53.8	-83.7	45	3
2023-08-16T00:00	24382	30	-53.8	-83.7	48	3
2023-08-16T00:00	24413	30	-53.9	-83.8	54	3
2023-08-16T00:00	24434	30	-54.0	-83.9	62	4
2023-08-16T00:00	24459	30	-54.1	-84.0	71	4
2023-08-16T00:00	24491	30	-54.0	-83.9	78	5
2023-08-16T00:00	24511	29	-53.9	-83.8	83	5
2023-08-16T00:00	24539	29	-53.9	-83.8	86	5
2023-08-16T00:00	24565	29	-53.9	-83.8	87	6
2023-08-16T00:00	24585	29	-53.8	-83.7	88	6
2023-08-16T00:00	24612	29	-53.7	-83.7	87	6
2023-08-16T00:00	24646	29	-53.5	-84.0	86	5
2023-08-16T00:00	24671	29	-53.5	-84.0	83	5
2023-08-16T00:00	24693	29	-53.3	-83.9	81	5
2023-08-16T00:00	24722	29	-53.2	-83.8	79	5
2023-08-16T00:00	24748	28	-53.1	-83.7	78	5
2023-08-16T00:00	24773	28	-53.0	-83.6	78	5
2023-08-16T00:00	24800	28	-52.9	-83.6	79	5
2023-08-16T00:00	24821	28	-52.9	-83.6	81	5
2023-08-16T00:00	24848	28	-53.0	-83.6	82	6
2023-08-16T00:00	24877	28	-53.0	-83.6	82	6
2023-08-16T00:00	24900	28	-53.0	-83.6	83	7
2023-08-16T00:00	24928	28	-53.0	-83.6	84	7
2023-08-16T00:00	24948	28	-53.0	-83.6	86	7
2023-08-16T00:00	24977	27	-53.0	-83.6	88	7
2023-08-16T00:00	24997	27	-53.0	-83.6	90	8
2023-08-16T00:00	25021	27	-53.0	-83.6	92	8
2023-08-16T00:00	25046	27	-53.0	-83.6	94	8
2023-08-16T00:00	25079	27	-52.9	-83.6	96	9
2023-08-16T00:00	25095	27	-52.9	-83.6	99	9
2023-08-16T00:00	25115	27	-53.1	-83.7	102	9
2023-08-16T00:00	25148	27	-53.2	-83.8	105	10
2023-08-16T00:00	25174	27	-53.3	-83.9	108	10
2023-08-16T00:00	25199	27	-53.2	-83.8	111	10
2023-08-16T00:00	25219	26	-53.2	-83.8	113	10
2023-08-16T00:00	25250	26	-53.1	-83.7	114	9
2023-08-16T00:00	25286	26	-53.1	-83.7	113	9
2023-08-16T00:00	25308	26	-53.0	-83.6	111	8
2023-08-16T00:00	25333	26	-52.8	-83.5	107	8
2023-08-16T00:00	25357	26	-52.6	-83.3	103	8
2023-08-16T00:00	25390	26	-52.7	-83.4	100	7
2023-08-16T00:00	25413	26	-52.7	-83.4	100	7
2023-08-16T00:00	25437	26	-52.8	-83.5	102	7
2023-08-16T00:00	25467	25	-52.8	-83.5	105	7
2023-08-16T00:00	25493	25	-52.7	-83.4	108	7
2023-08-16T00:00	25522	25	-52.7	-83.4	112	7
2023-08-16T00:00	25549	25	-52.6	-83.3	115	7
2023-08-16T00:00	25584	25	-52.6	-83.3	117	7
2023-08-16T00:00	25604	25	-52.3	-83.1	118	7
2023-08-16T00:00	25637	25	-52.2	-83.6	118	7
2023-08-16T00:00	25670	25	-52.0	-83.5	117	7
2023-08-16T00:00	25696	25	-51.9	-83.4	117	7
2023-08-16T00:00	25728	24	-51.8	-83.3	117	7
2023-08-16T00:00	25752	24	-51.8	-83.3	119	6
2023-08-16T00:00	25775	24	-51.8	-83.3	122	6
2023-08-16T00:00	25810	24	-51.8	-83.3	126	6
2023-08-16T00:00	25835	24	-51.9	-82.8	129	6
2023-08-16T00:00	25865	24	-51.9	-82.8	132	6
2023-08-16T00:00	25887	24	-51.9	-82.8	134	7
2023-08-16T00:00	25910	24	-51.8	-82.8	136	6
2023-08-16T00:00	25951	24	-51.8	-82.8	136	6
2023-08-16T00:00	25980	24	-51.9	-82.8	136	6
2023-08-16T00:00	26004	23	-52.0	-82.9	135	6
2023-08-16T00:00	26038	23	-52.0	-82.9	132	6
2023-08-16T00:00	26055	23	-52.0	-82.9	130	6
2023-08-16T00:00	26081	23	-52.1	-83.0	127	6
2023-08-16T00:00	26101	23	-52.2	-83.1	126	6
2023-08-16T00:00	26145	23	-52.3	-83.1	125	6
2023-08-16T00:00	26165	23	-52.2	-83.1	126	7
2023-08-16T00:00	26192	23	-52.2	-83.1	128	7
2023-08-16T00:00	26218	23	-52.0	-82.9	131	7
2023-08-16T00:00	26248	23	-52.0	-82.9	133	7
2023-08-16T00:00	26264	22	-52.0	-82.9	135	7
2023-08-16T00:00	26297	22	-51.9	-82.8	137	7
2023-08-16T00:00	26311	22	-51.9	-82.8	139	7
2023-08-16T00:00	26352	22	-51.9	-82.8	140	8
2023-08-16T00:00	26379	22	-51.9	-82.8	140	8
2023-08-16T00:00	26402	22	-51.9	-82.8	141	8
2023-08-16T00:00	26429	22	-51.9	-82.8	141	8
2023-08-16T00:00	26452	22	-51.9	-82.8	141	8
2023-08-16T00:00	26488	22	-51.9	-82.8	141	8
2023-08-16T00:00	26507	22	-51.9	-82.8	140	8
2023-08-16T00:00	26530	22	-51.8	-82.8	139	8
2023-08-16T00:00	26567	21	-51.9	-82.8	138	8
2023-08-16T00:00	26587	21	-51.9	-82.8	136	8
2023-08-16T00:00	26616	21	-52.0	-82.9	133	8
2023-08-16T00:00	26638	21	-52.1	-83.0	131	7
2023-08-16T00:00	26668	21	-52.2	-83.1	129	7
2023-08-16T00:00	26695	21	-52.1	-83.0	128	7
2023-08-16T00:00	26720	21	-52.0	-83.5	128	6
2023-08-16T00:00	26749	21	-51.7	-83.2	128	6
2023-08-16T00:00	26771	21	-51.6	-83.2	129	5
2023-08-16T00:00	26800	21	-51.5	-83.1	130	5
2023-08-16T00:00	26836	21	-51.5	-83.1	132	4
2023-08-16T00:00	26857	21	-51.6	-83.2	132	4
2023-08-16T00:00	26884	20	-51.6	-83.2	132	4
2023-08-16T00:00	26912	20	-51.7	-83.2	130	4
2023-08-16T00:00	26941	20	-51.7	-83.2	127	4
2023-08-16T00:00	26964	20	-51.6	-83.2	122	4
2023-08-16T00:00	27004	20	-51.4	-83.0	116	4
2023-08-16T00:00	27016	20	-51.2	-82.9	110	4
2023-08-16T00:00	27052	20	-51.1	-82.8	104	5
2023-08-16T00:00	27072	20	-51.0	-82.7	99	6
2023-08-16T00:00	27098	20	-50.8	-83.2	94	6
2023-08-16T00:00	27134	20	-50.5	-83.0	90	7
2023-08-16T00:00	27152	20	-50.4	-82.9	88	8
2023-08-16T00:00	27190	20	-50.4	-82.9	87	8
2023-08-16T00:00	27211	19	-50.3	-82.8	87	8
2023-08-16T00:00	27241	19	-50.1	-82.7	87	8
2023-08-16T00:00	27266	19	-49.8	-82.5	88	8
2023-08-16T00:00	27301	19	-49.6	-82.3	90	7
2023-08-16T00:00	27329	19	-49.6	-82.3	91	7
2023-08-16T00:00	27338	19	-49.6	-82.3	91	6
2023-08-16T00:00	27369	19	-49.6	-82.3	89	6
2023-08-16T00:00	27403	19	-49.5	-82.3	85	5
2023-08-16T00:00	27430	19	-49.3	-82.1	80	5
2023-08-16T00:00	27454	19	-49.0	-81.9	75	5
2023-08-16T00:00	27470	19	-48.5	-82.2	71	5
2023-08-16T00:00	27515	19	-48.2	-82.0	70	5
2023-08-16T00:00	27529	19	-48.0	-81.9	69	6
2023-08-16T00:00	27560	18	-47.9	-81.8	69	6
2023-08-16T00:00	27580	18	-47.8	-81.7	68	6
2023-08-16T00:00	27610	18	-47.7	-81.6	68	6
2023-08-16T00:00	27638	18	-47.7	-81.6	68	6
2023-08-16T00:00	27676	18	-47.7	-81.6	68	6
2023-08-16T00:00	27693	18	-47.7	-81.6	69	6
2023-08-16T00:00	27724	18	-47.5	-81.5	70	6
2023-08-16T00:00	27747	18	-47.3	-81.4	73	6
2023-08-16T00:00	27769	18	-47.2	-81.3	76	6
2023-08-16T00:00	27807	18	-47.0	-81.1	80	6
2023-08-16T00:00	27826	18	-47.0	-81.1	84	6
2023-08-16T00:00	27853	18	-47.1	-81.2	89	6
2023-08-16T00:00	27902	18	-47.2	-81.3	94	6
2023-08-16T00:00	27918	17	-47.3	-81.4	98	6
2023-08-16T00:00	27949	17	-47.3	-81.4	103	6
2023-08-16T00:00	27991	17	-47.2	-81.3	106	5
2023-08-16T00:00	28006	17	-47.0	-81.1	109	5
2023-08-16T00:00	28038	17	-46.8	-81.0	110	4
2023-08-16T00:00	28067	17	-46.7	-80.9	109	4
2023-08-16T00:00	28099	17	-46.6	-80.9	105	3
2023-08-16T00:00	28122	17	-46.4	-80.7	95	3
2023-08-16T00:00	28156	17	-46.3	-80.6	82	2
2023-08-16T00:00	28177	17	-46.3	-80.6	69	2
2023-08-16T00:00	28208	17	-46.4	-80.7	60	3
2023-08-16T00:00	28239	17	-46.2	-80.6	56	3
2023-08-16T00:00	28265	17	-46.1	-80.5	55	3
2023-08-16T00:00	28301	16	-46.0	-80.4	58	3
2023-08-16T00:00	28346	16	-46.1	-80.5	66	3
2023-08-16T00:00	28371	16	-46.2	-80.6	76	3
2023-08-16T00:00	28398	16	-46.2	-80.6	87	4
2023-08-16T00:00	28433	16	-46.2	-80.6	96	4
2023-08-16T00:00	28461	16	-46.2	-80.6	102	4
2023-08-16T00:00	28490	16	-46.2	-80.6	106	5
2023-08-16T00:00	28499	16	-46.2	-80.6	108	5
2023-08-16T00:00	28554	16	-46.2	-80.6	109	4
2023-08-16T00:00	28580	16	-45.8	-80.3	109	4
2023-08-16T00:00	28607	16	-45.7	-80.2	110	3
2023-08-16T00:00	28642	16	-45.6	-80.1	111	3
2023-08-16T00:00	28667	16	-45.6	-80.1	112	3
2023-08-16T00:00	28708	16	-45.6	-80.1	111	3
2023-08-16T00:00	28755	15	-45.4	-80.0	109	3
2023-08-16T00:00	28769	15	-45.4	-80.0	103	3
2023-08-16T00:00	28800	15	-45.3	-79.9	95	3
2023-08-16T00:00	28827	15	-45.4	-80.0	86	3
2023-08-16T00:00	28856	15	-45.5	-80.1	78	3
2023-08-16T00:00	28880	15	-45.6	-80.1	73	4
2023-08-16T00:00	28925	15	-45.5	-80.1	70	4
2023-08-16T00:00	28951	15	-45.5	-80.1	70	5
2023-08-16T00:00	28979	15	-45.7	-80.2	71	6
2023-08-16T00:00	29013	15	-45.5	-80.1	71	7
2023-08-16T00:00	29023	15	-45.5	-80.1	72	7
2023-08-16T00:00	29054	15	-45.7	-80.2	72	8
2023-08-16T00:00	29084	15	-45.8	-80.3	72	8
2023-08-16T00:00	29108	15	-45.7	-80.2	73	9
2023-08-16T00:00	29131	15	-45.6	-80.1	75	9
2023-08-16T00:00	29155	14	-45.4	-80.0	78	10
2023-08-16T00:00	29193	14	-45.3	-79.9	82	10
2023-08-16T00:00	29218	14	-45.3	-80.7	87	10
2023-08-16T00:00	29259	14	-45.2	-80.7	92	11
2023-08-16T00:00	29284	14	-45.2	-80.7	96	11
2023-08-16T00:00	29294	14	-45.1	-80.6	100	11
2023-08-16T00:00	29320	14	-44.9	-80.4	104	11
2023-08-16T00:00	29346	14	-44.7	-80.3	106	11
2023-08-16T00:00	29367	14	-44.7	-80.3	108	10
2023-08-16T00:00	29378	14	-44.7	-80.3	108	10
2023-08-16T00:00	29419	14	-44.6	-80.2	107	10
2023-08-16T00:00	29436	14	-44.5	-80.1	105	9
2023-08-16T00:00	29484	14	-44.5	-80.1	102	9
2023-08-16T00:00	29493	14	-44.4	-80.1	101	8
2023-08-16T00:00	29529	14	-44.0	-79.8	100	8
2023-08-16T00:00	29548	14	-43.9	-79.7	101	8
2023-08-16T00:00	29579	14	-43.8	-79.6	103	7
2023-08-16T00:00	29608	14	-43.8	-79.6	104	7
2023-08-16T00:00	29641	13	-43.9	-79.7	104	7
2023-08-16T00:00	29659	13	-43.5	-79.4	103	7
2023-08-16T00:00	29701	13	-42.9	-80.0	98	7
2023-08-16T00:00	29730	13	-42.7	-79.8	93	6
2023-08-16T00:00	29760	13	-42.7	-79.8	88	6
2023-08-16T00:00	29795	13	-42.7	-78.9	85	6
2023-08-16T00:00	29825	13	-42.7	-78.9	83	6
2023-08-16T00:00	29856	13	-42.7	-78.9	85	6
2023-08-16T00:00	29888	13	-42.8	-78.9	88	6
2023-08-16T00:00	29915	13	-42.8	-78.9	93	6
2023-08-16T00:00	29933	13	-43.0	-79.1	98	5
2023-08-16T00:00	29983	13	-43.2	-79.2	104	5
2023-08-16T00:00	30014	13	-43.3	-79.3	112	5
2023-08-16T00:00	30047	13	-43.2	-79.2	119	5
2023-08-16T00:00	30075	13	-43.0	-79.1	126	5
2023-08-16T00:00	30123	13	-43.1		130	5
2023-08-16T00:00	30154	13	-43.2	-79.2	134	5
2023-08-16T00:00	30179	12	-43.3	-79.3	135	5
2023-08-16T00:00	30210	12	-43.2	-79.2	135	5
2023-08-16T00:00	30254	12	-43.1		135	5
2023-08-16T00:00	30261	12	-42.9	-79.0	137	5
2023-08-16T00:00	30316	12	-43.0	-79.1	139	5
2023-08-16T00:00	30351	12	-43.1		141	5
2023-08-16T00:00	30375	12	-43.3	-79.3	143	6
2023-08-16T00:00	30411	12	-43.2	-79.2	145	6
2023-08-16T00:00	30453	12	-43.3	-79.3	145	6
2023-08-16T00:00	30471	12	-43.2	-79.2	145	6
2023-08-16T00:00	30524	12	-43.3	-79.3	145	6
2023-08-16T00:00	30537	12	-43.3	-79.3	144	6
2023-08-16T00:00	30584	12	-43.4	-79.4	144	6
2023-08-16T00:00	30604	12	-43.5	-79.4	144	6
2023-08-16T00:00	30642	12	-43.6	-79.5	145	5
2023-08-16T00:00	30674	12	-43.6	-79.5	146	5
2023-08-16T00:00	30687	12	-43.7	-79.6	148	5
2023-08-16T00:00	30731	11	-43.7	-79.6	150	5
2023-08-16T00:00	30761	11	-43.6	-79.5	152	5
2023-08-16T00:00	30791	11	-43.6	-79.5	154	5
2023-08-16T00:00	30827	11	-43.4	-79.4	155	5
2023-08-16T00:00	30838	11	-43.4	-79.4	157	5
2023-08-16T00:00	30879	11	-43.5	-79.4	159	4
2023-08-16T00:00	30891	11	-43.7	-79.6	163	3
2023-08-16T00:00	30928	11	-43.8	-79.6	172	3
2023-08-16T00:00	30966	11	-43.9	-79.7	190	2
2023-08-16T00:00	30971	11	-44.1	-79.9	219	2
2023-08-16T00:00	31007	11	-44.0	-79.8	245	2
2023-08-16T00:00	31024	11	-43.7	-79.6	257	2
2023-08-16T00:00	31042	11	-43.5	-79.4	261	2
2023-08-16T00:00	31099	11	-43.5	-79.4	260	2
2023-08-16T00:00	31134	11	-43.4	-80.3	257	2
2023-08-16T00:00	31170	11	-43.0	-80.0	251	0
2023-08-16T00:00	31202	11	-42.8	-79.9	60	1
2023-08-16T00:00	31216	11	-42.4	-79.6	58	2
2023-08-16T00:00	31242	11	-42.2	-79.5	57	3
2023-08-16T00:00	31278	11	-42.0	-79.3	57	4
2023-08-16T00:00	31316	11	-41.7	-79.1	58	5
2023-08-16T00:00	31325	11	-41.5	-79.0	60	6
2023-08-16T00:00	31357	10	-41.3	-78.8	61	7
2023-08-16T00:00	31376	10	-41.1	-78.7	63	8
2023-08-16T00:00	31419	10	-40.8	-79.6	65	8
2023-08-16T00:00	31433	10	-40.5	-79.4	67	9
2023-08-16T00:00	31456	10	-40.2	-79.2	70	9
2023-08-16T00:00	31518	10	-39.8	-78.9	74	8
2023-08-16T00:00	31548	10	-39.6	-78.8	79	8
2023-08-16T00:00	31558	10	-39.5	-78.7	84	7
2023-08-16T00:00	31584	10	-39.7	-78.8	86	7
2023-08-16T00:00	31631	10	-39.7	-78.8	85	7
2023-08-16T00:00	31663	10	-39.7	-78.8	82	7
2023-08-16T00:00	31688	10	-39.7	-78.8	79	7
2023-08-16T00:00	31731	10	-39.7	-78.8	77	8
2023-08-16T00:00	31749	10	-39.6	-78.8	77	8
2023-08-16T00:00	31778	10	-39.6	-78.8	79	7
2023-08-16T00:00	31824	10	-39.5	-78.7	84	7
2023-08-16T00:00	31866	10	-39.4	-78.6	91	6
2023-08-16T00:00	31887	10	-39.4	-78.6	101	6
2023-08-16T00:00	31926	10	-39.5	-78.7	111	6
2023-08-16T00:00	31963	10	-39.5	-77.6	121	6
2023-08-16T00:00	32006	10	-39.7	-77.7	129	6
2023-08-16T00:00	32030	9	-39.8	-77.8	135	5
2023-08-16T00:00	32065	9	-39.7	-78.8	139	5
2023-08-16T00:00	32106	9	-39.5	-78.7	140	4
2023-08-16T00:00	32126	9	-39.3	-78.5	134	4
2023-08-16T00:00	32180	9	-39.2	-78.5	118	3
2023-08-16T00:00	32229	9	-38.9	-78.3	94	3
2023-08-16T00:00	32249	9	-38.7	-78.1	74	4
2023-08-16T00:00	32278	9	-38.3	-77.9	64	5
2023-08-16T00:00	32313	9	-38.2	-77.8	58	6
2023-08-16T00:00	32346	9	-38.3	-77.9	56	7
2023-08-16T00:00	32382	9	-38.2	-77.8	56	7
2023-08-16T00:00	32409	9	-38.1	-77.7	58	8
2023-08-16T00:00	32445	9	-38.0	-77.6	61	9
2023-08-16T00:00	32468	9	-37.8	-77.5	65	10
2023-08-16T00:00	32488	9	-37.8	-77.5	69	11
2023-08-16T00:00	32532	9	-37.4	-77.2	73	11
2023-08-16T00:00	32550	9	-37.1	-77.0	77	12
2023-08-16T00:00	32576	9	-37.0	-77.0	81	13
2023-08-16T00:00	32636	9	-37.1	-77.0	85	14
2023-08-16T00:00	32637	9	-36.9	-76.9	89	14
2023-08-16T00:00	32647	9	-36.9	-76.9	92	14
2023-08-16T00:00	32683	9	-36.6	-76.7	94	14
2023-08-16T00:00	32716	9	-36.4	-76.5	94	14
2023-08-16T00:00	32739	9	-36.1	-76.3	94	13
2023-08-16T00:00	32745	9	-35.9	-76.2	93	13
2023-08-16T00:00	32775	9	-35.8	-76.1	91	12
2023-08-16T00:00	32796	8	-35.8	-76.1	90	12
2023-08-16T00:00	32848	8	-35.8	-76.1	89	12
2023-08-16T00:00	32864	8	-35.9	-76.2	89	13
2023-08-16T00:00	32908	8	-35.9	-76.2	90	13
2023-08-16T00:00	32914	8	-35.9	-76.2	90	13
2023-08-16T00:00	32950	8	-35.9	-76.2	91	13
2023-08-16T00:00	32999	8	-36.0	-76.3	92	12
2023-08-16T00:00	33002	8	-36.0	-76.3	94	12
2023-08-16T00:00	33037	8	-36.1	-76.3	97	12
2023-08-16T00:00	33065	8	-36.0	-76.3	100	12
2023-08-16T00:00	33073	8	-36.0	-76.3	102	12
2023-08-16T00:00	33080	8	-36.1	-76.3	104	13
2023-08-16T00:00	33142	8	-36.2	-76.4	105	13
2023-08-16T00:00	33165	8	-36.2	-76.4	106	12
2023-08-16T00:00	33174	8	-36.2	-76.4	106	12
2023-08-16T00:00	33203	8	-36.3	-76.5	105	11
2023-08-16T00:00	33247	8	-36.4	-76.5	104	10
2023-08-16T00:00	33287	8	-36.3	-76.5	102	10
2023-08-16T00:00	33326	8	-36.4	-76.5	100	9
2023-08-16T00:00	33346	8	-36.5	-76.6	97	9
2023-08-16T00:00	33380	8	-36.5	-76.6	94	8
2023-08-16T00:00	33393	8	-36.5	-76.6	92	8
2023-08-16T00:00	33438	8	-36.5	-76.6	90	8
2023-08-16T00:00	33466	8	-36.4	-76.5	89	8
2023-08-16T00:00	33496	8	-36.3	-76.5	89	9
2023-08-16T00:00	33536	8	-36.3	-76.5	89	9
2023-08-16T00:00	33555	8	-36.3	-76.5	90	10
2023-08-16T00:00	33607	8	-36.0	-76.3	91	11
2023-08-16T00:00	33649	8	-36.0	-76.3	93	11
2023-08-16T00:00	33662	8	-36.0	-76.3	95	12
2023-08-16T00:00	33704	7	-36.0	-76.3	97	11
2023-08-16T00:00	33713	7	-35.7	-76.1	100	11
2023-08-16T00:00	33776	7	-35.5	-75.9	103	10
2023-08-16T00:00	33796	7	-35.5	-75.9	106	9
2023-08-16T00:00	33813	7	-35.4	-75.8	109	8
2023-08-16T00:00	33816	7	-35.3	-75.8	111	7
2023-08-16T00:00	33849	7	-35.2	-75.7	112	6
2023-08-16T00:00	33874	7	-35.1	-75.6	109	5
2023-08-16T00:00	33899	7	-34.9	-75.5	100	4
2023-08-16T00:00	33937	7	-34.6	-75.3	82	3
2023-08-16T00:00	33959	7	-34.0	-74.9	60	3
2023-08-16T00:00	34018	7	-33.6	-74.6	45	4
2023-08-16T00:00	34049	7	-33.4	-74.5	34	5
2023-08-16T00:00	34076	7	-33.4	-74.5	33	6
2023-08-16T00:00	34131	7	-33.3	-74.4	34	7
2023-08-16T00:00	34145	7	-33.2	-74.3	38	8
2023-08-16T00:00	34191	7	-33.1	-74.3	40	9
2023-08-16T00:00	34221	7	-33.1	-74.3	42	9
2023-08-16T00:00	34239	7	-33.2	-74.3	44	9
2023-08-16T00:00	34277	7	-33.2	-74.3	46	10
2023-08-16T00:00	34306	7	-33.3	-74.4	48	10
2023-08-16T00:00	34335	7	-33.4	-74.5	51	10
2023-08-16T00:00	34350	7	-33.5	-74.5	54	9
2023-08-16T00:00	34369	7	-33.6	-74.6	58	9
2023-08-16T00:00	34409	7	-33.6	-74.6	63	9
2023-08-16T00:00	34446	7	-33.7	-74.7	69	8
2023-08-16T00:00	34454	7	-33.7	-74.7	74	8
2023-08-16T00:00	34482	7	-33.9	-74.8	79	7
2023-08-16T00:00	34522	7	-34.0	-74.9	85	7
2023-08-16T00:00	34570	7	-34.1	-75.0	90	6
2023-08-16T00:00	34594	7	-34.2	-75.0	95	6
2023-08-16T00:00	34631	7	-34.3	-75.1	99	6
2023-08-16T00:00	34652	7	-34.3	-75.1	103	6
2023-08-16T00:00	34689	6	-34.0	-74.9	104	6
2023-08-16T00:00	34705	6	-33.8	-74.7	106	6
2023-08-16T00:00	34734	6	-33.8	-74.7	106	6
2023-08-16T00:00	34767	6	-33.9	-74.8	109	6
2023-08-16T00:00	34780	6	-34.1	-75.0	113	7
2023-08-16T00:00	34852	6	-34.1	-75.0	117	8
2023-08-16T00:00	34874	6	-33.7	-74.7	122	9
2023-08-16T00:00	34910	6	-33.6	-74.6	125	10
2023-08-16T00:00	34960	6	-33.5	-74.5	127	11
2023-08-16T00:00	35006	6	-33.3	-74.4	129	12
2023-08-16T00:00	35034	6	-33.4	-74.5	129	12
2023-08-16T00:00	35074	6	-33.3	-74.4	127	12
2023-08-16T00:00	35084	6	-33.2	-74.3	125	12
2023-08-16T00:00	35115	6	-33.0	-74.2	122	11
2023-08-16T00:00	35141	6	-32.9	-74.1	118	11
2023-08-16T00:00	35178	6	-33.0	-74.2	115	11
2023-08-16T00:00	35223	6	-32.9	-74.1	111	10
2023-08-16T00:00	35224	6	-32.7	-74.0	108	9
2023-08-16T00:00	35285	6	-32.4	-73.8	106	9
2023-08-16T00:00	35312	6	-32.2	-73.6	104	9
2023-08-16T00:00	35339	6	-32.2	-73.6	102	8
2023-08-16T00:00	35385	6	-32.3	-73.7	101	8
2023-08-16T00:00	35418	6	-32.4	-73.8	99	7
2023-08-16T00:00	35451	6	-32.6	-73.9	98	7
2023-08-16T00:00	35486	6	-33.0	-74.2	93	7
2023-08-16T00:00	35525	6	-33.1	-74.3	89	7
2023-08-16T00:00	35592	6	-33.2	-74.3	84	7
2023-08-16T00:00	35635	6	-33.3	-74.4	82	8
2023-08-16T00:00	35709	6	-33.0	-74.2	84	10
2023-08-16T00:00	35730	6	-32.8	-74.1	86	10
2023-08-16T00:00	35734	6	-32.8	-74.1	89	11
2023-08-16T00:00	35752	6	-32.9	-74.1	92	12
2023-08-16T00:00	35789	6	-33.0	-74.2	95	12
2023-08-16T00:00	35814	6	-33.0	-74.2	99	13
2023-08-16T00:00	35833	6	-32.9	-74.1	102	13
2023-08-16T00:00	35909	5	-32.9	-74.1	105	14
2023-08-16T00:00	35924	5	-32.5	-73.8	113	14
2023-08-16T00:00	35976	5	-32.3	-73.7	117	13
2023-08-16T00:00	35979	5	-32.0	-73.5	125	12
2023-08-16T00:00	36009	5	-31.8	-73.4	129	12
2023-08-16T00:00	36051	5	-31.6	-73.2	135	11
2023-08-16T00:00	36060	5	-31.4	-73.1	138	10
2023-08-16T00:00	36110	5	-31.2	-73.0	139	10
2023-08-16T00:00	36205	5	-31.1	-72.9	137	9
2023-08-16T00:00	36215	5	-31.4	-73.1	132	8
2023-08-16T00:00	36233	5	-30.5	-72.5	108	8
2023-08-16T00:00	36269	5	-30.4	-72.4	101	8
2023-08-16T00:00	36286	5	-30.2	-72.3	97	9
2023-08-16T00:00	36308	5	-29.9	-72.1	97	9
2023-08-16T00:00	36356	5	-29.6	-71.9	98	10
2023-08-16T06:00	112	1006	19.8	19.5	340	2
2023-08-16T06:00	137	1003	19.8	19.6	342	3
2023-08-16T06:00	163	1000	19.7	19.4	347	4
2023-08-16T06:00	187	997	19.5	19.2	354	4
2023-08-16T06:00	208	995	19.3	19.2	2	5
2023-08-16T06:00	234	992	19.3	19.0	10	5
2023-08-16T06:00	257	989	19.4	18.8	17	6
2023-08-16T06:00	278	986	19.4	18.6	20	6
2023-08-16T06:00	306	984	20.6	17.8	21	7
2023-08-16T06:00	331	981	20.9	17.2	19	7
2023-08-16T06:00	356	978	20.9	17.0	15	7
2023-08-16T06:00	376	976	20.7	16.8	12	8
2023-08-16T06:00	400	973	20.6	16.9	9	8
2023-08-16T06:00	421	971	20.4	16.9	8	8
2023-08-16T06:00	444	968	20.2	16.7	8	8
2023-08-16T06:00	467	965	20.1	16.8	8	8
2023-08-16T06:00	491	963	19.9	16.6	8	8
2023-08-16T06:00	516	960	19.7	16.8	7	8
2023-08-16T06:00	541	957	19.5	16.4	4	8
2023-08-16T06:00	573	954	19.5	16.0	1	8
2023-08-16T06:00	595	951	19.5	15.7	359	7
2023-08-16T06:00	620	949	19.5	15.5	357	7
2023-08-16T06:00	641	946	19.5	15.4	357	7
2023-08-16T06:00	665	944	19.3	15.3	358	6
2023-08-16T06:00	688	941	19.1	15.2	0	6
2023-08-16T06:00	711	939	19.1	15.0	3	6
2023-08-16T06:00	732	936	19.0	14.9	7	5
2023-08-16T06:00	751	934	18.9	14.8	10	5
2023-08-16T06:00	772	932	18.8	14.9	13	4
2023-08-16T06:00	795	929	18.6	14.9	14	4
2023-08-16T06:00	821	927	18.5	14.8	15	3
2023-08-16T06:00	849	924	18.4	15.0	15	3
2023-08-16T06:00	871	921	18.4	15.3	15	2
2023-08-16T06:00	897	918	18.1	15.1	13	2
2023-08-16T06:00	926	915	18.0	15.3	8	1
2023-08-16T06:00	951	913	17.9	15.3	352	1
2023-08-16T06:00	979	910	17.6	15.3	320	1
2023-08-16T06:00	999	907	17.5	15.4	286	1
2023-08-16T06:00	1026	905	17.4	15.5	269	2
2023-08-16T06:00	1051	902	17.3		262	2
2023-08-16T06:00	1072	900	17.2	15.3	261	3
2023-08-16T06:00	1100	897	17.1	15.4	263	3
2023-08-16T06:00	1120	895	16.9	15.2	267	4
2023-08-16T06:00	1143	892	16.8	15.2	271	4
2023-08-16T06:00	1167	890	16.6	15.1	275	5
2023-08-16T06:00	1187	888	16.4	14.9	277	5
2023-08-16T06:00	1209	886	16.3	14.9	279	6
2023-08-16T06:00	1234	883	16.1	14.7	280	6
2023-08-16T06:00	1258	881	15.9	14.6	282	6
2023-08-16T06:00	1283	878	15.7	14.5	282	6
2023-08-16T06:00	1308	875	15.5	14.2	282	6
2023-08-16T06:00	1330	873	15.3	14.0	281	6
2023-08-16T06:00	1349	871	15.1	13.9	280	6
2023-08-16T06:00	1371	869	15.0	13.9	281	6
2023-08-16T06:00	1404	866	14.7	13.3	283	6
2023-08-16T06:00	1424	863	14.6	13.4	287	6
2023-08-16T06:00	1454	861	14.4	13.2	290	6
2023-08-16T06:00	1482	858	14.1	13.3	293	7
2023-08-16T06:00	1508	855	13.8	13.0	294	7
2023-08-16T06:00	1532	853	13.7	13.1	294	8
2023-08-16T06:00	1552	851	13.5	13.0	293	8
2023-08-16T06:00	1571	849	13.4		291	8
2023-08-16T06:00	1593	846	13.3	12.8	288	8
2023-08-16T06:00	1614	844	13.3	12.6	284	8
2023-08-16T06:00	1633	842	13.3	12.2	280	8
2023-08-16T06:00	1654	840	13.4	11.8	277	8
2023-08-16T06:00	1681	838	13.2	11.7	274	8
2023-08-16T06:00	1705	835	13.0	11.6	272	7
2023-08-16T06:00	1729	833	12.8	11.6	271	7
2023-08-16T06:00	1754	830	12.7	11.3	270	6
2023-08-16T06:00	1781	828	12.5	11.1	269	6
2023-08-16T06:00	1809	825	12.3	11.2	269	6
2023-08-16T06:00	1834	823	12.1	11.0	268	6
2023-08-16T06:00	1854	821	12.0	10.7	267	6
2023-08-16T06:00	1876	818	11.9	10.8	266	6
2023-08-16T06:00	1899	816	11.7	10.8	266	7
2023-08-16T06:00	1921	814	11.5	10.6	266	7
2023-08-16T06:00	1939	812	11.3	10.6	266	6
2023-08-16T06:00	1962	810	11.2	10.3	266	6
2023-08-16T06:00	1982	808	11.2	10.2	265	6
2023-08-16T06:00	2007	806	11.1	9.9	261	5
2023-08-16T06:00	2031	803	11.0	9.9	256	6
2023-08-16T06:00	2058	801	10.8	9.7	251	6
2023-08-16T06:00	2079	799	10.7	9.6	246	7
2023-08-16T06:00	2107	796	10.7	9.2	242	7
2023-08-16T06:00	2136	793	10.8	8.9	239	7
2023-08-16T06:00	2160	791	10.7	8.6	236	7
2023-08-16T06:00	2183	789	10.7	8.6	234	7
2023-08-16T06:00	2206	787	10.6	8.7	232	7
2023-08-16T06:00	2233	784	10.5	8.4	232	7
2023-08-16T06:00	2257	782	10.3	8.3	232	7
2023-08-16T06:00	2283	780	10.2	8.2	234	8
2023-08-16T06:00	2308	777	10.0	7.9	236	8
2023-08-16T06:00	2334	775	10.0	7.6	237	8
2023-08-16T06:00	2361	772	10.1	5.5	238	8
2023-08-16T06:00	2392	770	10.3	3.8	238	9
2023-08-16T06:00	2414	767	10.2	3.5	236	9
2023-08-16T06:00	2437	765	10.3	2.9	235	10
2023-08-16T06:00	2457	763	10.2	3.4	235	10
2023-08-16T06:00	2484	761	10.2	2.5	236	10
2023-08-16T06:00	2509	759	10.2	2.1	239	9
2023-08-16T06:00	2538	756	10.2	2.1	243	9
2023-08-16T06:00	2561	754	10.1	2.1	247	9
2023-08-16T06:00	2584	752	9.9	1.6	249	10
2023-08-16T06:00	2610	750	9.8	1.4	251	10
2023-08-16T06:00	2634	747	9.7	0.4	251	10
2023-08-16T06:00	2658	745	9.5	0.1	251	10
2023-08-16T06:00	2684	743	9.2	0.1	250	10
2023-08-16T06:00	2703	741	9.0	-0.2	249	10
2023-08-16T06:00	2730	739	8.8	-0.3	248	10
2023-08-16T06:00	2753	737	8.6	-0.9	248	9
2023-08-16T06:00	2778	735	8.4	-1.8	247	9
2023-08-16T06:00	2801	733	8.2	-1.8	247	10
2023-08-16T06:00	2817	731	8.1	-2.1	246	10
2023-08-16T06:00	2835	729	8.0	-2.1	246	10
2023-08-16T06:00	2865	727	7.7	-2.5	247	9
2023-08-16T06:00	2885	725	7.6	-2.9	248	9
2023-08-16T06:00	2915	723	7.4	-3.1	250	9
2023-08-16T06:00	2940	720	7.2	-3.1	252	8
2023-08-16T06:00	2965	718	7.0	-2.5	253	8
2023-08-16T06:00	2989	716	6.7	-2.3	253	8
2023-08-16T06:00	3013	714	6.5	-1.3	251	8
2023-08-16T06:00	3037	712	6.4	-1.2	250	8
2023-08-16T06:00	3059	710	6.3	-1.2	247	8
2023-08-16T06:00	3088	707	6.0	-1.5	245	8
2023-08-16T06:00	3112	705	5.9	-2.1	242	8
2023-08-16T06:00	3136	703	5.6	-2.2	240	8
2023-08-16T06:00	3161	701	5.5	-2.4	238	9
2023-08-16T06:00	3183	699	5.3	-3.0	236	9
2023-08-16T06:00	3210	697	5.1	-3.1	236	9
2023-08-16T06:00	3233	695	5.0	-2.9	235	10
2023-08-16T06:00	3258	693	4.8	-2.9	234	10
2023-08-16T06:00	3277	691	4.6	-2.8	232	10
2023-08-16T06:00	3305	689	4.4	-2.8	229	11
2023-08-16T06:00	3325	687	4.2	-2.7	226	11
2023-08-16T06:00	3350	685	3.9	-2.4	223	11
2023-08-16T06:00	3377	683	3.7	-2.1	221	12
2023-08-16T06:00	3398	681	3.5	-2.0	221	12
2023-08-16T06:00	3419	679	3.3	-1.8	223	13
2023-08-16T06:00	3446	677	3.2	-2.2	225	14
2023-08-16T06:00	3463	675	3.2	-2.7	227	15
2023-08-16T06:00	3489	673	3.0	-3.1	227	15
2023-08-16T06:00	3514	671	2.9	-3.7	227	15
2023-08-16T06:00	3533	670	2.8	-3.9	226	15
2023-08-16T06:00	3554	668	2.7	-4.3	225	15
2023-08-16T06:00	3580	666	2.5		224	14
2023-08-16T06:00	3601	664	2.4	-5.2	223	14
2023-08-16T06:00	3624	662	2.2	-5.6	223	14
2023-08-16T06:00	3651	660	2.0	-6.1	224	14
2023-08-16T06:00	3674	658	1.9	-7.2	224	14
2023-08-16T06:00	3702	656	1.8	-8.2	224	14
2023-08-16T06:00	3722	654	1.6	-8.3	224	14
2023-08-16T06:00	3751	652	1.5	-9.4	222	14
2023-08-16T06:00	3772	650	1.4	-9.8	220	14
2023-08-16T06:00	3798	648	1.5	-9.6	217	14
2023-08-16T06:00	3823	646	1.4	-9.6	215	13
2023-08-16T06:00	3848	644	1.2	-9.7	213	13
2023-08-16T06:00	3880	642	1.0	-9.5	211	13
2023-08-16T06:00	3905	639	0.7	-9.4	208	13
2023-08-16T06:00	3930	638	0.5	-6.7	205	13
2023-08-16T06:00	3953	636	0.3	-3.8	202	13
2023-08-16T06:00	3975	634	0.1	-2.4	201	13
2023-08-16T06:00	4001	632	-0.2	-1.6	200	13
2023-08-16T06:00	4030	630	-0.4	-1.4	199	14
2023-08-16T06:00	4056	628	-0.7	-1.4	198	14
2023-08-16T06:00	4081	626	-0.9	-1.6	197	14
2023-08-16T06:00	4109	624	-1.2	-1.8	195	14
2023-08-16T06:00	4131	622	-1.4	-1.9	195	14
2023-08-16T06:00	4153	620	-1.4	-2.3	195	14
2023-08-16T06:00	4178	618	-1.4	-2.5	195	14
2023-08-16T06:00	4203	616	-1.6	-2.6	196	13
2023-08-16T06:00	4232	614	-1.8	-2.7	198	13
2023-08-16T06:00	4256	612	-1.9	-3.0	200	13
2023-08-16T06:00	4280	610	-1.9	-3.1	201	14
2023-08-16T06:00	4307	608	-2.1	-3.3	203	14
2023-08-16T06:00	4330	606	-2.3	-3.9	205	14
2023-08-16T06:00	4350	605	-2.2	-4.1	206	14
2023-08-16T06:00	4377	603	-2.4	-4.3	207	14
2023-08-16T06:00	4401	601	-2.6	-4.4	207	14
2023-08-16T06:00	4429	599	-2.8	-4.5	208	14
2023-08-16T06:00	4455	597	-3.0	-4.6	209	14
2023-08-16T06:00	4478	595	-3.2	-4.7	210	14
2023-08-16T06:00	4498	594	-3.4	-4.7	211	14
2023-08-16T06:00	4522	592	-3.6	-4.8	212	14
2023-08-16T06:00	4545	590	-3.8	-4.9	212	14
2023-08-16T06:00	4575	588	-4.0	-4.9	212	14
2023-08-16T06:00	4600	586	-4.2	-5.1	211	14
2023-08-16T06:00	4619	585	-4.4	-5.2	211	14
2023-08-16T06:00	4644	583	-4.6	-5.2	210	14
2023-08-16T06:00	4673	581	-4.8	-5.4	209	14
2023-08-16T06:00	4703	578	-5.1	-5.4	209	15
2023-08-16T06:00	4735	576	-5.4	-5.8	207	15
2023-08-16T06:00	4764	574	-5.6	-5.8	205	14
2023-08-16T06:00	4786	572	-5.8	-5.9	203	14
2023-08-16T06:00	4813	571	-5.8	-6.3	201	13
2023-08-16T06:00	4836	569	-5.9	-6.8	199	13
2023-08-16T06:00	4863	567	-5.8	-7.4	199	13
2023-08-16T06:00	4888	565	-5.6	-7.3	199	13
2023-08-16T06:00	4915	563	-4.8	-8.1	201	13
2023-08-16T06:00	4946	561	-4.9	-8.1	202	13
2023-08-16T06:00	4966	559	-5.1		204	13
2023-08-16T06:00	4988	558	-5.2	-8.3	206	13
2023-08-16T06:00	5014	556	-5.3	-8.5	207	13
2023-08-16T06:00	5041	554	-5.6	-8.8	208	13
2023-08-16T06:00	5062	553	-5.7	-8.9	209	13
2023-08-16T06:00	5083	551	-5.9	-9.0	209	13
2023-08-16T06:00	5103	550	-6.1	-9.1	208	13
2023-08-16T06:00	5125	548	-6.2	-9.2	207	13
2023-08-16T06:00	5144	547	-6.4	-9.3	206	13
2023-08-16T06:00	5172	545	-6.6	-9.5	205	13
2023-08-16T06:00	5192	544	-6.8	-9.7	205	13
2023-08-16T06:00	5210	542	-6.9	-9.9	206	13
2023-08-16T06:00	5234	541	-7.1	-9.9	207	14
2023-08-16T06:00	5259	539	-7.2	-9.9	209	14
2023-08-16T06:00	5284	537	-7.4	-10.2	210	14
2023-08-16T06:00	5311	535	-7.6	-10.2	211	15
2023-08-16T06:00	5331	534	-7.8	-10.2	211	15
2023-08-16T06:00	5358	532	-8.1	-10.3	212	15
2023-08-16T06:00	5385	530	-8.3	-10.4	213	15
2023-08-16T06:00	5410	529	-8.5	-10.4	216	15
2023-08-16T06:00	5433	527	-8.8	-10.5	218	15
2023-08-16T06:00	5464	525	-9.0	-10.5	220	15
2023-08-16T06:00	5492	523	-9.3	-10.7	221	15
2023-08-16T06:00	5514	521	-9.5	-10.6	222	15
2023-08-16T06:00	5538	520	-9.7	-10.7	223	15
2023-08-16T06:00	5558	518	-9.9	-10.9	224	15
2023-08-16T06:00	5581	517	-10.0	-11.7	225	15
2023-08-16T06:00	5606	515	-10.1	-12.0	227	15
2023-08-16T06:00	5630	514	-10.2	-13.2	227	15
2023-08-16T06:00	5655	512	-10.3	-14.7	227	15
2023-08-16T06:00	5676	511	-10.3	-14.3	227	15
2023-08-16T06:00	5695	509	-10.3	-15.5	226	15
2023-08-16T06:00	5723	508	-10.2	-16.2	224	15
2023-08-16T06:00	5746	506	-10.2	-15.8	223	15
2023-08-16T06:00	5777	504	-10.3	-15.9	222	15
2023-08-16T06:00	5799	502	-10.4	-17.0	221	15
2023-08-16T06:00	5827	501	-10.6	-15.8	220	15
2023-08-16T06:00	5843	500	-10.6	-15.6	219	15
2023-08-16T06:00	5862	498	-10.7	-14.7	219	15
2023-08-16T06:00	5885	497	-10.8	-15.1	218	14
2023-08-16T06:00	5912	495	-10.9	-16.1	218	15
2023-08-16T06:00	5943	493	-11.1	-14.6	218	15
2023-08-16T06:00	5968	492	-11.1	-14.6	218	15
2023-08-16T06:00	5994	490	-11.3	-14.9	219	15
2023-08-16T06:00	6016	489	-11.4	-15.1	219	15
2023-08-16T06:00	6041	487	-11.4	-15.4	220	15
2023-08-16T06:00	6071	485	-11.6	-15.4	219	14
2023-08-16T06:00	6096	483	-11.8	-15.6	218	14
2023-08-16T06:00	6124	482	-12.0	-15.7	215	15
2023-08-16T06:00	6152	480	-12.2	-15.9	212	15
2023-08-16T06:00	6181	478	-12.3	-18.1	211	15
2023-08-16T06:00	6208	477	-12.1	-24.0	210	16
2023-08-16T06:00	6235	475	-12.3	-24.6	209	16
2023-08-16T06:00	6260	473	-12.4	-25.5	209	16
2023-08-16T06:00	6287	472	-12.6	-26.4	209	16
2023-08-16T06:00	6314	470	-12.6	-27.5	208	16
2023-08-16T06:00	6340	468	-12.7	-26.7	208	15
2023-08-16T06:00	6368	467	-12.9	-26.9	208	15
2023-08-16T06:00	6399	465	-13.1	-27.0	208	15
2023-08-16T06:00	6430	463	-13.3	-27.0	207	15
2023-08-16T06:00	6459	461	-13.5	-26.3	206	15
2023-08-16T06:00	6489	459	-13.7	-25.6	205	15
2023-08-16T06:00	6517	458	-14.0	-25.7	206	15
2023-08-16T06:00	6547	456	-14.2	-25.6	206	15
2023-08-16T06:00	6581	454	-14.4	-26.6	208	15
2023-08-16T06:00	6607	452	-14.6	-28.3	209	15
2023-08-16T06:00	6636	450	-14.8	-29.6	210	16
2023-08-16T06:00	6669	449	-15.1	-29.9	210	16
2023-08-16T06:00	6697	447	-15.3	-30.9	210	16
2023-08-16T06:00	6730	445	-15.5	-31.0	210	15
2023-08-16T06:00	6765	443	-15.6	-30.5	210	14
2023-08-16T06:00	6792	441	-15.7	-31.4	209	14
2023-08-16T06:00	6813	440	-15.8	-31.2	208	13
2023-08-16T06:00	6838	439	-15.9	-29.8	207	13
2023-08-16T06:00	6868	437	-16.1	-27.8	207	13
2023-08-16T06:00	6898	435	-16.3	-27.6	208	13
2023-08-16T06:00	6926	433	-16.4	-26.5	209	13
2023-08-16T06:00	6961	432	-16.5	-28.9	210	13
2023-08-16T06:00	6989	430	-16.8	-29.3	211	13
2023-08-16T06:00	7017	428	-17.1	-29.6	211	13
2023-08-16T06:00	7040	427	-17.3	-29.0	211	13
2023-08-16T06:00	7068	425	-17.5	-28.5	211	13
2023-08-16T06:00	7099	424	-17.8	-27.6	212	14
2023-08-16T06:00	7130	422	-18.0	-27.6	213	14
2023-08-16T06:00	7158	420	-18.3	-27.8	213	14
2023-08-16T06:00	7186	419	-18.5	-26.7	214	14
2023-08-16T06:00	7218	417	-18.7	-26.3	215	14
2023-08-16T06:00	7244	415	-18.9	-26.7	215	14
2023-08-16T06:00	7273	414	-19.2	-27.0	215	14
2023-08-16T06:00	7299	412	-19.4	-29.3	215	14
2023-08-16T06:00	7328	411	-19.5	-27.9	214	14
2023-08-16T06:00	7355	409	-19.7	-28.2	213	14
2023-08-16T06:00	7383	408	-20.0	-27.5	213	14
2023-08-16T06:00	7415	406	-20.2	-27.7	212	13
2023-08-16T06:00	7445	404	-20.4	-29.6	212	13
2023-08-16T06:00	7477	403	-20.5	-30.3	212	13
2023-08-16T06:00	7508	401	-20.7	-30.9	212	13
2023-08-16T06:00	7537	399	-20.9	-32.2	212	13
2023-08-16T06:00	7570	398	-21.1	-32.2	212	14
2023-08-16T06:00	7601	396	-21.3	-34.4	213	14
2023-08-16T06:00	7624	395	-21.5	-35.4	214	14
2023-08-16T06:00	7645	394	-21.7	-36.8	215	13
2023-08-16T06:00	7668	392	-21.8	-36.8	215	13
2023-08-16T06:00	7692	391	-22.0	-34.6	215	13
2023-08-16T06:00	7715	390	-22.2	-34.3	214	13
2023-08-16T06:00	7746	388	-22.5	-30.8	213	13
2023-08-16T06:00	7777	386	-22.6	-31.7	212	14
2023-08-16T06:00	7810	385	-22.9	-32.1	211	14
2023-08-16T06:00	7840	383	-23.2	-32.0	211	14
2023-08-16T06:00	7868	382	-23.4	-32.0	212	14
2023-08-16T06:00	7899	380	-23.7	-32.3	213	14
2023-08-16T06:00	7921	379	-23.9	-32.4	215	14
2023-08-16T06:00	7944	378	-24.1	-33.2	216	14
2023-08-16T06:00	7969	376	-24.3	-33.0	216	14
2023-08-16T06:00	8000	375	-24.6	-33.2	215	14
2023-08-16T06:00	8026	374	-24.8	-33.3	214	14
2023-08-16T06:00	8054	372	-25.1	-32.9	213	14
2023-08-16T06:00	8086	371	-25.4	-33.5	212	14
2023-08-16T06:00	8111	369	-25.5	-34.5	211	14
2023-08-16T06:00	8137	368	-25.7	-34.9	211	14
2023-08-16T06:00	8166	366	-26.0	-35.2	210	15
2023-08-16T06:00	8195	365	-26.2	-35.4	210	15
2023-08-16T06:00	8222	364	-26.5	-36.2	210	15
2023-08-16T06:00	8247	362	-26.7	-37.6	210	15
2023-08-16T06:00	8277	361	-26.9	-39.7	211	15
2023-08-16T06:00	8303	360	-27.1	-39.2	212	14
2023-08-16T06:00	8328	358	-27.3	-38.5	213	14
2023-08-16T06:00	8356	357	-27.6	-38.8	213	13
2023-08-16T06:00	8387	355	-27.9	-38.2	212	13
2023-08-16T06:00	8411	354	-28.1	-37.7	211	13
2023-08-16T06:00	8436	353	-28.3	-37.3	211	14
2023-08-16T06:00	8457	352	-28.5	-36.8	210	14
2023-08-16T06:00	8482	351	-28.7	-36.9	209	14
2023-08-16T06:00	8506	349	-28.9	-37.1	208	14
2023-08-16T06:00	8531	348	-29.1	-37.5	207	14
2023-08-16T06:00	8558	347	-29.3		206	14
2023-08-16T06:00	8582	346	-29.5	-38.1	206	14
2023-08-16T06:00	8608	345	-29.7	-38.2	207	14
2023-08-16T06:00	8636	343	-30.0	-38.3	207	13
2023-08-16T06:00	8671	342	-30.2	-38.9	208	13
2023-08-16T06:00	8696	340	-30.3	-39.2	209	13
2023-08-16T06:00	8728	339	-30.6	-39.7	209	13
2023-08-16T06:00	8759	337	-30.8	-39.6	209	13
2023-08-16T06:00	8784	336	-31.1	-39.8	209	14
2023-08-16T06:00	8814	335	-31.3	-39.9	210	14
2023-08-16T06:00	8839	334	-31.6	-40.1	210	14
2023-08-16T06:00	8863	332	-31.8	-40.5	210	15
2023-08-16T06:00	8886	331	-32.0	-40.7	209	15
2023-08-16T06:00	8911	330	-32.2	-40.6	209	15
2023-08-16T06:00	8941	329	-32.5	-40.8	209	15
2023-08-16T06:00	8968	327	-32.7	-40.8	209	15
2023-08-16T06:00	8995	326	-32.9	-40.6	209	15
2023-08-16T06:00	9024	325	-33.2	-40.8	210	14
2023-08-16T06:00	9050	324	-33.4	-40.9	211	14
2023-08-16T06:00	9077	322	-33.4	-41.8	212	14
2023-08-16T06:00	9107	321	-33.6	-41.9	214	14
2023-08-16T06:00	9134	320	-33.7	-43.1	215	14
2023-08-16T06:00	9158	319	-33.9	-43.1	216	14
2023-08-16T06:00	9187	317	-34.0	-45.4	217	15
2023-08-16T06:00	9219	316	-34.2	-45.7	219	15
2023-08-16T06:00	9248	315	-34.5	-45.8	220	15
2023-08-16T06:00	9275	313	-34.7	-46.1	221	15
2023-08-16T06:00	9301	312	-35.0	-46.3	221	16
2023-08-16T06:00	9325	311	-35.2	-45.7	221	16
2023-08-16T06:00	9344	310	-35.3	-45.6	221	16
2023-08-16T06:00	9366	309	-35.5	-45.3	220	16
2023-08-16T06:00	9389	308	-35.7	-44.7	220	16
2023-08-16T06:00	9414	307	-35.9	-45.4	220	15
2023-08-16T06:00	9437	306	-36.1	-45.5	220	15
2023-08-16T06:00	9463	305	-36.3	-45.4	220	15
2023-08-16T06:00	9490	304	-36.5	-45.5	220	15
2023-08-16T06:00	9516	303	-36.7	-45.7	219	16
2023-08-16T06:00	9542	302	-37.0	-45.9	218	16
2023-08-16T06:00	9568	300	-37.2	-46.2	217	16
2023-08-16T06:00	9598	299	-37.5	-46.8	216	16
2023-08-16T06:00	9628	298	-37.7	-47.6	216	16
2023-08-16T06:00	9652	297	-37.9	-48.2	215	16
2023-08-16T06:00	9676	296	-38.1	-48.7	215	16
2023-08-16T06:00	9700	295	-38.3	-49.0	214	16
2023-08-16T06:00	9727	294	-38.6	-48.6	213	16
2023-08-16T06:00	9755	292	-38.8	-48.5	213	16
2023-08-16T06:00	9781	291	-39.0	-48.3	212	16
2023-08-16T06:00	9809	290	-39.3	-48.3	212	16
2023-08-16T06:00	9837	289	-39.6	-48.2	212	16
2023-08-16T06:00	9863	288	-39.8		212	16
2023-08-16T06:00	9892	287	-40.1	-45.7	212	16
2023-08-16T06:00	9920	286	-40.3	-45.1	212	16
2023-08-16T06:00	9944	284	-40.5	-46.0	212	16
2023-08-16T06:00	9966	284	-40.7	-47.9	213	16
2023-08-16T06:00	9989	283	-40.9	-48.8	213	16
2023-08-16T06:00	10013	282	-41.1	-49.1	213	16
2023-08-16T06:00	10035	281	-41.3	-49.7	213	16
2023-08-16T06:00	10055	280	-41.5	-50.5	213	16
2023-08-16T06:00	10076	279	-41.7	-50.5	213	16
2023-08-16T06:00	10096	278	-41.9	-50.6	212	15
2023-08-16T06:00	10118	277	-42.1	-51.0	212	15
2023-08-16T06:00	10140	276	-42.2	-50.9	211	15
2023-08-16T06:00	10160	276	-42.4		210	15
2023-08-16T06:00	10183	275	-42.6	-50.7	209	15
2023-08-16T06:00	10203	274	-42.8	-51.0	208	16
2023-08-16T06:00	10224	273	-42.9	-51.5	208	16
2023-08-16T06:00	10246	272	-43.1	-51.9	208	16
2023-08-16T06:00	10268	271	-43.3	-51.5	207	16
2023-08-16T06:00	10291	270	-43.5	-50.7	206	16
2023-08-16T06:00	10313	269	-43.7	-50.4	206	16
2023-08-16T06:00	10334	269	-43.9	-50.0	205	16
2023-08-16T06:00	10352	268	-44.1	-49.9	205	16
2023-08-16T06:00	10374	267	-44.3	-49.3	206	16
2023-08-16T06:00	10397	266	-44.4	-49.0	206	16
2023-08-16T06:00	10418	265	-44.6	-49.4	207	16
2023-08-16T06:00	10437	264	-44.8	-50.0	208	16
2023-08-16T06:00	10459	264	-44.9	-51.7	208	15
2023-08-16T06:00	10480	263	-45.0	-53.1	208	15
2023-08-16T06:00	10503	262	-45.2	-52.8	209	15
2023-08-16T06:00	10524	261	-45.4	-52.5	209	15
2023-08-16T06:00	10547	260	-45.6	-52.5	209	15
2023-08-16T06:00	10569	259	-45.8	-52.5	210	15
2023-08-16T06:00	10590	258	-46.0	-52.7	210	15
2023-08-16T06:00	10611	258	-46.2	-52.8	210	15
2023-08-16T06:00	10631	257	-46.4	-52.7	210	15
2023-08-16T06:00	10650	256	-46.6	-52.5	210	15
2023-08-16T06:00	10671	255	-46.8	-52.5	210	15
2023-08-16T06:00	10693	254	-47.0	-52.2	210	15
2023-08-16T06:00	10715	254	-47.2	-52.0	211	15
2023-08-16T06:00	10736	253	-47.4	-52.2	212	15
2023-08-16T06:00	10762	252	-47.6	-51.9	213	15
2023-08-16T06:00	10790	251	-47.9	-51.4	214	15
2023-08-16T06:00	10813	250	-48.1	-51.5	215	15
2023-08-16T06:00	10834	249	-48.3	-52.2	216	15
2023-08-16T06:00	10857	248	-48.4	-52.5	216	15
2023-08-16T06:00	10879	247	-48.6	-52.6	217	15
2023-08-16T06:00	10901	247	-48.8	-52.7	217	15
2023-08-16T06:00	10924	246	-49.0	-53.0	218	15
2023-08-16T06:00	10945	245	-49.1	-53.9	219	15
2023-08-16T06:00	10967	244	-49.2	-54.8	220	15
2023-08-16T06:00	10988	243	-49.2	-55.2	221	15
2023-08-16T06:00	11007	243	-49.4	-55.4	221	16
2023-08-16T06:00	11027	242	-49.6	-55.3	222	16
2023-08-16T06:00	11050	241	-49.8	-55.3	222	16
2023-08-16T06:00	11071	240	-49.9	-55.2	221	16
2023-08-16T06:00	11092	239	-50.1	-55.0	220	16
2023-08-16T06:00	11111	239	-50.2	-54.6	220	16
2023-08-16T06:00	11132	238	-50.4	-54.6	219	16
2023-08-16T06:00	11152	237	-50.5	-54.8	219	16
2023-08-16T06:00	11173	237	-50.7	-55.0	219	16
2023-08-16T06:00	11195	236	-50.9	-55.1	219	16
2023-08-16T06:00	11214	235	-51.0	-55.2	220	16
2023-08-16T06:00	11235	234	-51.2	-55.2	220	16
2023-08-16T06:00	11258	233	-51.4	-55.3	220	16
2023-08-16T06:00	11277	233	-51.6	-55.4	221	16
2023-08-16T06:00	11299	232	-51.8	-55.4	221	16
2023-08-16T06:00	11318	231	-52.0	-55.5	220	15
2023-08-16T06:00	11337	231	-52.1	-55.5	220	15
2023-08-16T06:00	11356	230	-52.3	-55.9	219	15
2023-08-16T06:00	11378	229	-52.5	-56.5	218	15
2023-08-16T06:00	11399	228	-52.6	-57.0	218	15
2023-08-16T06:00	11418	228	-52.5	-57.4	218	15
2023-08-16T06:00	11439	227	-52.7	-58.0	218	15
2023-08-16T06:00	11458	226	-52.8	-58.1	218	15
2023-08-16T06:00	11479	226	-52.9	-58.3	217	15
2023-08-16T06:00	11499	225	-53.0	-58.6	216	15
2023-08-16T06:00	11521	224	-53.2	-58.9	215	15
2023-08-16T06:00	11541	223	-53.4	-59.4	214	15
2023-08-16T06:00	11563	223	-53.4	-60.0	214	15
2023-08-16T06:00	11583	222	-53.6	-60.8	213	15
2023-08-16T06:00	11605	221	-53.8	-61.1	213	15
2023-08-16T06:00	11625	221	-54.0	-60.9	214	15
2023-08-16T06:00	11646	220	-54.1	-60.3	214	16
2023-08-16T06:00	11668	219	-54.3	-60.1	215	16
2023-08-16T06:00	11689	218	-54.5	-60.1	215	16
2023-08-16T06:00	11709	218	-54.6	-60.0	216	16
2023-08-16T06:00	11729	217	-54.8	-60.1	216	16
2023-08-16T06:00	11751	216	-54.9	-60.3	216	16
2023-08-16T06:00	11773	215	-55.1	-60.7	216	16
2023-08-16T06:00	11795	215	-55.3	-60.9	217	16
2023-08-16T06:00	11819	214	-55.4	-60.7	218	15
2023-08-16T06:00	11842	213	-55.6	-60.6	219	15
2023-08-16T06:00	11864	212	-55.9	-60.7	220	15
2023-08-16T06:00	11888	212	-56.1	-60.7	221	15
2023-08-16T06:00	11913	211	-56.2	-60.7	222	15
2023-08-16T06:00	11933	210	-56.4	-61.1	223	15
2023-08-16T06:00	11955	209	-56.5	-61.8	223	15
2023-08-16T06:00	11977	209	-56.5	-62.4	223	15
2023-08-16T06:00	11999	208	-56.7	-62.8	222	15
2023-08-16T06:00	12019	207	-56.8	-62.9	222	15
2023-08-16T06:00	12042	207	-57.0	-63.0	221	15
2023-08-16T06:00	12062	206	-57.1	-62.9	220	15
2023-08-16T06:00	12085	205	-57.2	-62.8	220	14
2023-08-16T06:00	12106	204	-57.3	-62.6	219	14
2023-08-16T06:00	12129	204	-57.4	-62.5	219	14
2023-08-16T06:00	12151	203	-57.6	-62.5	220	14
2023-08-16T06:00	12176	202	-57.8	-62.4	220	14
2023-08-16T06:00	12196	202	-58.0	-62.5	219	13
2023-08-16T06:00	12216	201	-58.0	-62.5	217	13
2023-08-16T06:00	12236	200	-58.3	-63.0	214	13
2023-08-16T06:00	12259	200	-58.1	-63.3	211	13
2023-08-16T06:00	12286	199	-58.1	-63.9	207	13
2023-08-16T06:00	12308	198	-58.0	-64.4	205	13
2023-08-16T06:00	12330	197	-57.9	-64.6	203	14
2023-08-16T06:00	12352	197	-58.1	-64.9	203	14
2023-08-16T06:00	12373	196	-58.1	-64.9	202	14
2023-08-16T06:00	12391	195	-58.2	-64.8	202	15
2023-08-16T06:00	12413	195	-58.3	-64.8	201	15
2023-08-16T06:00	12435	194	-58.5	-65.0	200	15
2023-08-16T06:00	12456	193	-58.6	-65.1	200	15
2023-08-16T06:00	12478	193	-58.4	-65.1	200	15
2023-08-16T06:00	12499	192	-58.3	-65.4	200	15
2023-08-16T06:00	12519	191	-58.3	-66.0	201	15
2023-08-16T06:00	12539	191	-58.1	-66.4	201	15
2023-08-16T06:00	12562	190	-57.8	-66.8	201	15
2023-08-16T06:00	12582	190	-57.6	-67.2	202	15
2023-08-16T06:00	12600	189	-57.5		203	15
2023-08-16T06:00	12621	188	-57.2	-67.9	203	16
2023-08-16T06:00	12640	188	-57.0	-68.4	203	16
2023-08-16T06:00	12661	187	-56.8	-68.8	203	16
2023-08-16T06:00	12681	187	-56.7	-69.1	202	16
2023-08-16T06:00	12703	186	-56.5	-69.1	202	17
2023-08-16T06:00	12723	185	-56.3	-69.0	201	17
2023-08-16T06:00	12744	185	-56.2	-69.1	200	17
2023-08-16T06:00	12766	184	-56.2	-69.1	200	17
2023-08-16T06:00	12787	184	-56.2	-69.2	200	17
2023-08-16T06:00	12809	183	-56.4	-69.3	200	18
2023-08-16T06:00	12831	182	-56.5	-69.3	201	18
2023-08-16T06:00	12854	182	-56.7	-69.4	202	18
2023-08-16T06:00	12876	181	-56.9	-69.6	204	19
2023-08-16T06:00	12899	180	-57.0	-69.8	206	19
2023-08-16T06:00	12925	180	-57.1	-70.2	209	19
2023-08-16T06:00	12954	179	-57.1	-70.7	213	20
2023-08-16T06:00	12978	178	-56.9	-71.1	216	20
2023-08-16T06:00	13002	177	-56.9	-71.7	219	20
2023-08-16T06:00	13028	177	-56.8	-71.7	222	20
2023-08-16T06:00	13055	176	-56.9	-71.7	223	20
2023-08-16T06:00	13078	175	-57.1	-71.6	224	20
2023-08-16T06:00	13101	175	-57.1	-71.6	224	20
2023-08-16T06:00	13123	174	-57.0	-71.7	223	19
2023-08-16T06:00	13145	173	-56.5	-71.7	222	19
2023-08-16T06:00	13167	173	-56.3		221	19
2023-08-16T06:00	13189	172	-56.4	-72.1	220	19
2023-08-16T06:00	13210	172	-56.5	-72.1	220	19
2023-08-16T06:00	13231	171	-56.6	-72.4	221	19
2023-08-16T06:00	13255	171	-56.7	-73.0	222	19
2023-08-16T06:00	13275	170	-56.2	-73.5	224	20
2023-08-16T06:00	13296	169	-56.0	-74.3	225	20
2023-08-16T06:00	13315	169	-55.9	-75.0	227	20
2023-08-16T06:00	13338	168	-55.7	-75.1	228	20
2023-08-16T06:00	13360	168	-55.7	-75.4	228	20
2023-08-16T06:00	13378	167	-55.6	-75.8	229	19
2023-08-16T06:00	13398	167	-55.6	-76.0	229	19
2023-08-16T06:00	13419	166	-55.3	-76.1	230	18
2023-08-16T06:00	13441	166	-55.3	-76.4	230	18
2023-08-16T06:00	13460	165	-55.0	-76.5	229	17
2023-08-16T06:00	13481	165	-54.8	-77.1	229	16
2023-08-16T06:00	13501	164	-54.3	-77.1	228	15
2023-08-16T06:00	13521	164	-54.2	-77.6	227	15
2023-08-16T06:00	13543	163	-53.8	-77.6	227	15
2023-08-16T06:00	13562	162	-53.5	-77.8	227	15
2023-08-16T06:00	13582	162	-53.4	-78.1	227	15
2023-08-16T06:00	13603	161	-53.6	-78.5	226	15
2023-08-16T06:00	13625	161	-53.7	-78.8	225	15
2023-08-16T06:00	13644	160	-53.9	-78.9	223	14
2023-08-16T06:00	13667	160	-53.8	-79.1	222	14
2023-08-16T06:00	13687	159	-53.7	-79.3	221	14
2023-08-16T06:00	13707	159	-53.5	-79.4	220	14
2023-08-16T06:00	13729	158	-53.4	-79.3	220	14
2023-08-16T06:00	13752	158	-53.4	-79.5	221	14
2023-08-16T06:00	13774	157	-53.4	-79.3	222	14
2023-08-16T06:00	13796	157	-53.3	-78.9	223	15
2023-08-16T06:00	13818	156	-53.3	-78.5	225	15
2023-08-16T06:00	13843	156	-53.2	-78.0	226	15
2023-08-16T06:00	13863	155	-53.2	-77.7	227	14
2023-08-16T06:00	13884	155	-53.1	-77.7	227	14
2023-08-16T06:00	13908	154	-53.0	-77.6	226	14
2023-08-16T06:00	13931	153	-52.9	-77.3	224	13
2023-08-16T06:00	13953	153	-52.7	-77.1	222	13
2023-08-16T06:00	13975	152	-52.5	-76.8	221	13
2023-08-16T06:00	13997	152	-52.5	-76.8	220	13
2023-08-16T06:00	14022	151	-52.6	-76.9	219	13
2023-08-16T06:00	14043	151	-52.5	-77.0	218	14
2023-08-16T06:00	14065	150	-52.4	-77.5	217	14
2023-08-16T06:00	14085	150	-52.3	-78.4	217	14
2023-08-16T06:00	14108	149	-52.2	-79.2	216	14
2023-08-16T06:00	14133	149	-52.2	-79.5	216	14
2023-08-16T06:00	14153	148	-52.3	-79.9	215	14
2023-08-16T06:00	14179	148	-52.3	-79.9	214	14
2023-08-16T06:00	14200	147	-52.3	-79.9	213	14
2023-08-16T06:00	14225	147	-52.5	-79.7	213	13
2023-08-16T06:00	14247	146	-52.3	-79.5	211	13
2023-08-16T06:00	14268	146	-52.3	-79.5	210	13
2023-08-16T06:00	14296	145	-52.2	-79.2	207	13
2023-08-16T06:00	14324	144	-52.3	-79.2	204	14
2023-08-16T06:00	14350	144	-52.2	-79.2	201	14
2023-08-16T06:00	14378	143	-52.1	-79.1	199	14
2023-08-16T06:00	14407	143	-52.2	-79.2	197	15
2023-08-16T06:00	14430	142	-52.4	-79.3	197	15
2023-08-16T06:00	14456	141	-52.6	-79.5	196	15
2023-08-16T06:00	14483	141	-52.8	-79.3	196	16
2023-08-16T06:00	14509	140	-53.1	-79.6	196	16
2023-08-16T06:00	14538	140	-53.3	-79.7	196	17
2023-08-16T06:00	14566	139	-53.5	-79.6	196	17
2023-08-16T06:00	14593	139	-53.7	-79.8	197	17
2023-08-16T06:00	14615	138	-53.9	-79.9	198	18
2023-08-16T06:00	14635	138	-53.8	-79.8	200	18
2023-08-16T06:00	14660	137	-53.8	-79.8	201	17
2023-08-16T06:00	14682	137	-53.9	-80.2	203	17
2023-08-16T06:00	14705	136	-54.0	-80.3	205	17
2023-08-16T06:00	14723	136	-54.0	-80.3	207	17
2023-08-16T06:00	14746	135	-53.9	-80.5	209	17
2023-08-16T06:00	14766	135	-53.3	-80.3	210	17
2023-08-16T06:00	14791	134	-53.3	-80.3	212	17
2023-08-16T06:00	14810	134	-53.3	-80.3	214	17
2023-08-16T06:00	14832	133	-53.3	-80.3	215	17
2023-08-16T06:00	14857	133	-53.5	-80.5	217	17
2023-08-16T06:00	14881	132	-53.6	-80.5	219	16
2023-08-16T06:00	14902	132	-53.7	-80.6	220	16
2023-08-16T06:00	14924	132	-53.8	-80.7	222	15
2023-08-16T06:00	14942	131	-53.7	-80.6	223	15
2023-08-16T06:00	14962	131	-53.7	-80.6	224	14
2023-08-16T06:00	14983	130	-53.9	-80.8	225	14
2023-08-16T06:00	15005	130	-54.0	-80.6	226	13
2023-08-16T06:00	15024	129	-54.0	-80.6	226	13
2023-08-16T06:00	15049	129	-54.1	-80.6	225	13
2023-08-16T06:00	15070	129	-54.2	-81.0	224	12
2023-08-16T06:00	15096	128	-54.0	-80.9	222	12
2023-08-16T06:00	15120	128	-54.0	-80.9	220	12
2023-08-16T06:00	15139	127	-54.2	-81.0	217	12
2023-08-16T06:00	15167	127	-54.4	-80.9	214	12
2023-08-16T06:00	15186	126	-54.6	-81.0	211	12
2023-08-16T06:00	15209	126	-54.7	-81.1	209	12
2023-08-16T06:00	15228	125	-54.8	-80.9	206	12
2023-08-16T06:00	15250	125	-55.0	-81.1	205	12
2023-08-16T06:00	15272	125	-55.1	-81.1	203	13
2023-08-16T06:00	15291	124	-55.1	-81.4	203	13
2023-08-16T06:00	15311	124	-54.9	-81.3	203	13
2023-08-16T06:00	15331	123	-54.6	-81.0	203	13
2023-08-16T06:00	15356	123	-54.6	-81.3	204	13
2023-08-16T06:00	15377	123	-54.3	-81.1	204	13
2023-08-16T06:00	15399	122	-54.1	-81.2	205	12
2023-08-16T06:00	15423	122	-53.8	-81.0	206	12
2023-08-16T06:00	15443	121	-53.7	-81.3	207	12
2023-08-16T06:00	15466	121	-53.6	-81.2	209	11
2023-08-16T06:00	15489	120	-53.4	-81.0	210	11
2023-08-16T06:00	15509	120	-53.5	-81.1	212	12
2023-08-16T06:00	15534	120	-53.7	-81.3	213	12
2023-08-16T06:00	15555	119	-53.8	-81.0	215	12
2023-08-16T06:00	15580	119	-53.9	-81.1	217	12
2023-08-16T06:00	15601	118	-54.1	-81.2	218	12
2023-08-16T06:00	15623	118	-54.2	-81.3	219	12
2023-08-16T06:00	15646	118	-54.3	-81.4	220	12
2023-08-16T06:00	15670	117	-54.4	-81.5	219	13
2023-08-16T06:00	15693	117	-54.4	-81.5	218	13
2023-08-16T06:00	15715	116	-54.5	-81.5	217	13
2023-08-16T06:00	15739	116	-54.6	-81.6	216	13
2023-08-16T06:00	15762	115	-54.5	-81.5	215	13
2023-08-16T06:00	15787	115	-54.3	-81.7	214	13
2023-08-16T06:00	15809	115	-53.9	-81.4	214	13
2023-08-16T06:00	15831	114	-54.0	-81.5	213	13
2023-08-16T06:00	15854	114	-54.0	-81.5	213	14
2023-08-16T06:00	15878	113	-54.1	-81.6	213	14
2023-08-16T06:00	15899	113	-54.2	-81.3	213	14
2023-08-16T06:00	15924	113	-54.3	-81.4	213	14
2023-08-16T06:00	15945	112	-54.5	-81.5	214	14
2023-08-16T06:00	15969	112	-54.6	-81.6	214	14
2023-08-16T06:00	15993	111	-54.7	-81.4	214	14
2023-08-16T06:00	16013	111	-54.9	-81.5	214	15
2023-08-16T06:00	16037	111	-55.1	-81.7	214	15
2023-08-16T06:00	16059	110	-55.2	-81.8	214	15
2023-08-16T06:00	16083	110	-55.3	-81.9	215	16
2023-08-16T06:00	16105	109	-55.3	-81.9	215	16
2023-08-16T06:00	16128	109	-55.4	-81.9	216	16
2023-08-16T06:00	16152	109	-55.3	-81.9	218	15
2023-08-16T06:00	16177	108	-55.2	-81.8	219	15
2023-08-16T06:00	16201	108	-55.3	-82.2	221	15
2023-08-16T06:00	16222	107	-55.4	-81.9	223	15
2023-08-16T06:00	16245	107	-55.4	-81.9	224	15
2023-08-16T06:00	16267	107	-55.4	-81.9	225	15
2023-08-16T06:00	16292	106	-55.5	-82.0	226	15
2023-08-16T06:00	16314	106	-55.6	-82.1	226	15
2023-08-16T06:00	16337	105	-55.7	-82.2	227	14
2023-08-16T06:00	16360	105	-55.9	-82.3	227	14
2023-08-16T06:00	16383	105	-55.7	-82.5	226	13
2023-08-16T06:00	16404	104	-55.6	-82.4	225	13
2023-08-16T06:00	16426	104	-55.5	-82.3	223	12
2023-08-16T06:00	16446	104	-55.5	-82.3	221	11
2023-08-16T06:00	16469	103	-55.7	-82.5	218	11
2023-08-16T06:00	16489	103	-55.7	-82.5	215	11
2023-08-16T06:00	16510	103	-55.4	-82.6	213	11
2023-08-16T06:00	16529	102	-55.5	-82.6	210	11
2023-08-16T06:00	16550	102	-55.5	-82.6	207	11
2023-08-16T06:00	16573	102	-55.6	-82.7	205	11
2023-08-16T06:00	16594	101	-55.6	-82.4	203	11
2023-08-16T06:00	16615	101	-55.7	-82.5	203	11
2023-08-16T06:00	16634	101	-55.9	-82.6	203	11
2023-08-16T06:00	16656	100	-56.0	-83.0	204	11
2023-08-16T06:00	16674	100	-55.7	-82.8	205	11
2023-08-16T06:00	16698	100	-55.4	-82.9	207	11
2023-08-16T06:00	16717	99	-55.3	-82.8	208	12
2023-08-16T06:00	16737	99	-55.1	-83.0	209	12
2023-08-16T06:00	16756	99	-55.0	-82.9	209	12
2023-08-16T06:00	16777	98	-54.9	-82.9	209	12
2023-08-16T06:00	16799	98	-54.7	-83.1	209	12
2023-08-16T06:00	16818	98	-54.5	-82.9	209	13
2023-08-16T06:00	16838	98	-54.4	-82.9	209	13
2023-08-16T06:00	16860	97	-54.3	-83.2	209	13
2023-08-16T06:00	16881	97	-54.1	-83.1	209	13
2023-08-16T06:00	16903	97	-54.1	-83.1	210	12
2023-08-16T06:00	16923	96	-54.2	-83.1	211	12
2023-08-16T06:00	16945	96	-54.3	-83.2	211	11
2023-08-16T06:00	16967	96	-53.9	-82.9	212	11
2023-08-16T06:00	16987	95	-53.8	-82.8	212	11
2023-08-16T06:00	17011	95	-53.9	-82.9	212	11
2023-08-16T06:00	17031	95	-53.9	-82.9	212	11
2023-08-16T06:00	17054	94	-53.9	-82.9	213	10
2023-08-16T06:00	17078	94	-54.0	-83.0	214	10
2023-08-16T06:00	17101	94	-54.0	-83.0	216	10
2023-08-16T06:00	17124	93	-54.1	-83.1	218	9
2023-08-16T06:00	17149	93	-54.1	-83.1	220	9
2023-08-16T06:00	17171	93	-54.0	-83.0	221	8
2023-08-16T06:00	17193	92	-53.8	-82.8	221	8
2023-08-16T06:00	17219	92	-53.6	-82.7	219	7
2023-08-16T06:00	17245	92	-53.4	-82.5	217	7
2023-08-16T06:00	17270	91	-53.6	-82.7	215	7
2023-08-16T06:00	17295	91	-53.8	-82.8	213	6
2023-08-16T06:00	17321	90	-54.0	-83.0	211	6
2023-08-16T06:00	17343	90	-54.1	-83.1	211	6
2023-08-16T06:00	17369	90	-54.0	-83.0	211	5
2023-08-16T06:00	17391	89	-53.9	-82.9	212	5
2023-08-16T06:00	17415	89	-53.9	-82.9	213	5
2023-08-16T06:00	17438	89	-54.1	-83.1	213	4
2023-08-16T06:00	17464	88	-54.3	-83.2	212	4
2023-08-16T06:00	17488	88	-54.4	-83.3	208	4
2023-08-16T06:00	17512	88	-54.1	-83.1	204	4
2023-08-16T06:00	17535	87	-54.0	-83.0	200	5
2023-08-16T06:00	17557	87	-54.1	-83.1	196	5
2023-08-16T06:00	17582	87	-54.3	-83.2	192	6
2023-08-16T06:00	17606	87	-54.2	-83.1	189	6
2023-08-16T06:00	17631	86	-54.3	-83.2	186	6
2023-08-16T06:00	17656	86	-54.4	-83.3	183	7
2023-08-16T06:00	17677	86	-54.4	-83.3	181	7
2023-08-16T06:00	17704	85	-54.5	-82.9	178	7
2023-08-16T06:00	17727	85	-54.6	-83.0	176	7
2023-08-16T06:00	17753	85	-54.7	-83.1	175	8
2023-08-16T06:00	17776	84	-54.9	-83.3	174	8
2023-08-16T06:00	17803	84	-55.0		173	9
2023-08-16T06:00	17829	84	-55.1	-83.4	174	9
2023-08-16T06:00	17848	83	-55.3	-83.2	174	9
2023-08-16T06:00	17873	83	-55.5		176	10
2023-08-16T06:00	17898	83	-55.7	-83.5	177	10
2023-08-16T06:00	17923	82	-55.8	-83.6	179	10
2023-08-16T06:00	17944	82	-56.0	-83.7	181	10
2023-08-16T06:00	17967	82	-56.1	-83.8	182	9
2023-08-16T06:00	17993	81	-56.3	-83.9	184	9
2023-08-16T06:00	18015	81	-56.3	-83.9	185	9
2023-08-16T06:00	18041	81	-56.4	-84.0	187	9
2023-08-16T06:00	18061	81	-56.5	-83.7	189	10
2023-08-16T06:00	18085	80	-56.7	-83.9	191	10
2023-08-16T06:00	18111	80	-56.9	-84.0	193	10
2023-08-16T06:00	18132	80	-57.0	-84.1	195	10
2023-08-16T06:00	18157	79	-57.2	-84.3	198	10
2023-08-16T06:00	18180	79	-57.3	-84.4	201	10
2023-08-16T06:00	18203	79	-57.5	-84.5	204	10
2023-08-16T06:00	18227	78	-57.6	-84.6	208	10
2023-08-16T06:00	18247	78	-57.7	-84.7	211	10
2023-08-16T06:00	18273	78	-57.7	-84.7	214	10
2023-08-16T06:00	18299	78	-57.8	-84.7	217	10
2023-08-16T06:00	18317	77	-57.3	-84.7	218	10
2023-08-16T06:00	18345	77	-57.0	-84.5	219	9
2023-08-16T06:00	18366	77	-56.9	-84.4	220	9
2023-08-16T06:00	18387	76	-56.9	-84.8	222	8
2023-08-16T06:00	18412	76	-56.9	-84.4	225	8
2023-08-16T06:00	18439	76	-56.9	-84.4	228	8
2023-08-16T06:00	18464	76	-57.1	-84.6	231	8
2023-08-16T06:00	18488	75	-57.2	-84.6	234	7
2023-08-16T06:00	18508	75	-57.2	-84.6	235	7
2023-08-16T06:00	18534	75	-57.0	-84.8	233	7
2023-08-16T06:00	18557	74	-56.7	-84.6	229	7
2023-08-16T06:00	18579	74	-56.2	-84.2	224	7
2023-08-16T06:00	18607	74	-56.3	-84.3	218	7
2023-08-16T06:00	18631	74	-56.4	-84.4	214	7
2023-08-16T06:00	18655	73	-56.6	-84.5	210	8
2023-08-16T06:00	18677	73	-56.6	-84.5	209	8
2023-08-16T06:00	18702	73	-56.7	-84.6	209	8
2023-08-16T06:00	18727	73	-56.5	-84.5	211	8
2023-08-16T06:00	18751	72	-56.3	-84.3	212	7
2023-08-16T06:00	18776	72	-56.3	-84.3	214	7
2023-08-16T06:00	18800	72	-56.4	-84.4	215	7
2023-08-16T06:00	18825	71	-56.6	-84.5	214	6
2023-08-16T06:00	18848	71	-56.8	-84.7	213	6
2023-08-16T06:00	18877	71	-56.8	-84.7	212	6
2023-08-16T06:00	18902	71	-56.7	-84.2	212	5
2023-08-16T06:00	18929	70	-56.7	-84.2	211	5
2023-08-16T06:00	18958	70	-56.8	-84.3	209	4
2023-08-16T06:00	18985	70	-57.1	-84.6	206	4
2023-08-16T06:00	19009	69	-57.3	-84.7	202	4
2023-08-16T06:00	19037	69	-57.5	-84.9	198	4
2023-08-16T06:00	19059	69	-57.7	-84.7	195	4
2023-08-16T06:00	19083	69	-57.6	-84.6	192	4
2023-08-16T06:00	19112	68	-57.6	-84.9	189	4
2023-08-16T06:00	19138	68	-57.7	-85.0	186	4
2023-08-16T06:00	19161	68	-57.7	-85.0	180	4
2023-08-16T06:00	19183	67	-57.8	-85.1	172	4
2023-08-16T06:00	19210	67	-57.9	-85.2	163	4
2023-08-16T06:00	19237	67	-58.0	-85.2	154	5
2023-08-16T06:00	19262	67	-58.0	-85.2	147	5
2023-08-16T06:00	19285	66	-57.7	-85.0	145	6
2023-08-16T06:00	19309	66	-57.5	-85.2	145	6
2023-08-16T06:00	19336	66	-57.2	-85.0	148	7
2023-08-16T06:00	19359	66	-56.7	-85.0	154	7
2023-08-16T06:00	19388	65	-56.6	-84.9	160	7
2023-08-16T06:00	19409	65	-56.6	-84.9	167	7
2023-08-16T06:00	19433	65	-56.5	-84.9	174	7
2023-08-16T06:00	19459	65	-56.5	-84.9	181	7
2023-08-16T06:00	19482	64	-56.5	-84.9	187	7
2023-08-16T06:00	19506	64	-56.5	-84.9	194	7
2023-08-16T06:00	19533	64	-56.6	-84.9	202	7
2023-08-16T06:00	19558	64	-56.5	-84.9	209	6
2023-08-16T06:00	19581	63	-56.1	-84.6	216	6
2023-08-16T06:00	19604	63	-56.1	-84.6	222	5
2023-08-16T06:00	19624	63	-56.1	-84.6	226	5
2023-08-16T06:00	19652	63	-55.9	-84.4	227	4
2023-08-16T06:00	19674	62	-55.9	-84.4	224	3
2023-08-16T06:00	19697	62	-55.9	-84.4	215	3
2023-08-16T06:00	19719	62	-56.0	-84.5	202	3
2023-08-16T06:00	19745	62	-56.2	-84.6	186	3
2023-08-16T06:00	19770	62	-56.2	-84.2	169	3
2023-08-16T06:00	19792	61	-56.3	-84.3	155	3
2023-08-16T06:00	19820	61	-56.3	-84.3	146	4
2023-08-16T06:00	19839	61	-56.4	-84.4	142	4
2023-08-16T06:00	19862	61	-56.4	-84.4	141	5
2023-08-16T06:00	19889	60	-56.5	-84.5	142	6
2023-08-16T06:00	19912	60	-56.6	-84.5	143	6
2023-08-16T06:00	19936	60	-56.7	-84.6	144	6
2023-08-16T06:00	19960	60	-56.6	-84.5	146	6
2023-08-16T06:00	19979	60	-56.3	-84.7	147	6
2023-08-16T06:00	20005	59	-56.3	-84.7	150	6
2023-08-16T06:00	20031	59	-56.4	-84.8	154	6
2023-08-16T06:00	20052	59	-56.5	-84.5	158	6
2023-08-16T06:00	20074	59	-56.6	-84.5	161	5
2023-08-16T06:00	20100	58	-56.6	-84.5	162	5
2023-08-16T06:00	20128	58	-56.6	-84.5	162	5
2023-08-16T06:00	20148	58	-56.7	-84.6	160	5
2023-08-16T06:00	20173	58	-56.6	-84.5	158	5
2023-08-16T06:00	20194	58	-56.7	-84.6	158	5
2023-08-16T06:00	20220	57	-56.9	-84.8	158	6
2023-08-16T06:00	20242	57	-56.9	-84.8	159	6
2023-08-16T06:00	20265	57	-56.8	-84.7	160	7
2023-08-16T06:00	20287	57	-56.6	-84.9	160	7
2023-08-16T06:00	20315	56	-56.5	-84.9	159	8
2023-08-16T06:00	20339	56	-56.5	-84.9	159	9
2023-08-16T06:00	20363	56	-56.6	-84.9	159	9
2023-08-16T06:00	20386	56	-56.4	-84.8	161	10
2023-08-16T06:00	20410	56	-56.3	-84.7	163	10
2023-08-16T06:00	20439	55	-56.3	-84.7	166	10
2023-08-16T06:00	20461	55	-56.2	-84.6	169	9
2023-08-16T06:00	20489	55	-56.1	-84.6	173	9
2023-08-16T06:00	20513	55	-56.0	-84.5	177	9
2023-08-16T06:00	20536	55	-56.0	-84.9	181	8
2023-08-16T06:00	20564	54	-56.0	-84.9	185	8
2023-08-16T06:00	20589	54	-55.9	-84.8	189	7
2023-08-16T06:00	20613	54	-55.8	-84.8	192	7
2023-08-16T06:00	20641	54	-55.7	-84.7	194	6
2023-08-16T06:00	20664	53	-55.6	-84.6	196	6
2023-08-16T06:00	20691	53	-55.5	-84.5	199	5
2023-08-16T06:00	20714	53	-55.4	-84.5	203	5
2023-08-16T06:00	20741	53	-55.1	-84.7	208	5
2023-08-16T06:00	20767	53	-54.8	-84.5	215	5
2023-08-16T06:00	20794	52	-54.8	-84.5	222	4
2023-08-16T06:00	20819	52	-54.8	-84.5	229	4
2023-08-16T06:00	20848	52	-54.6	-84.3	236	4
2023-08-16T06:00	20874	52	-54.7	-84.4	243	4
2023-08-16T06:00	20897	52	-54.8	-84.0	247	3
2023-08-16T06:00	20922	51	-54.8	-84.0	247	3
2023-08-16T06:00	20955	51	-54.8	-84.0	243	2
2023-08-16T06:00	20977	51	-54.6	-83.9	233	1
2023-08-16T06:00	21005	51	-54.6	-83.9	215	1
2023-08-16T06:00	21032	50	-54.8	-84.0	193	1
2023-08-16T06:00	21053	50	-54.9	-84.1	172	1
2023-08-16T06:00	21084	50	-54.9	-84.1	149	1
2023-08-16T06:00	21108	50	-54.9	-84.1	128	1
2023-08-16T06:00	21138	50	-55.1	-83.8	113	2
2023-08-16T06:00	21161	49	-55.3	-84.0	104	2
2023-08-16T06:00	21187	49	-55.3	-84.0	101	3
2023-08-16T06:00	21215	49	-55.3	-84.0	101	3
2023-08-16T06:00	21241	49	-55.3	-84.0	104	4
2023-08-16T06:00	21266	49	-55.6	-84.2	109	4
2023-08-16T06:00	21293	48	-55.8	-84.3	115	4
2023-08-16T06:00	21321	48	-55.8	-84.3	123	5
2023-08-16T06:00	21346	48	-55.7	-84.3	131	5
2023-08-16T06:00	21370	48	-55.8	-84.3	140	5
2023-08-16T06:00	21396	48	-55.8	-84.3	148	5
2023-08-16T06:00	21422	47	-55.9	-84.4	155	5
2023-08-16T06:00	21449	47	-55.8	-84.8	161	5
2023-08-16T06:00	21481	47	-55.5	-84.5	165	4
2023-08-16T06:00	21504	47	-55.4	-84.5	169	4
2023-08-16T06:00	21523	47	-55.3	-84.4	168	3
2023-08-16T06:00	21551	47	-55.3	-84.4	160	2
2023-08-16T06:00	21578	46	-55.0	-84.2	141	2
2023-08-16T06:00	21601	46	-54.9	-84.1	123	3
2023-08-16T06:00	21626	46	-54.8	-84.0	114	3
2023-08-16T06:00	21653	46	-54.9	-84.1	111	4
2023-08-16T06:00	21681	46	-54.8	-84.0	111	4
2023-08-16T06:00	21707	45	-54.7	-83.9	114	5
2023-08-16T06:00	21733	45	-54.7	-83.9	117	5
2023-08-16T06:00	21758	45	-54.6	-83.9	121	4
2023-08-16T06:00	21781	45	-54.7	-83.9	125	4
2023-08-16T06:00	21808	45	-54.8	-84.0	129	4
2023-08-16T06:00	21834	45	-55.0	-84.2	132	4
2023-08-16T06:00	21857	44	-54.9	-84.1	134	4
2023-08-16T06:00	21880	44	-54.8	-84.0	133	3
2023-08-16T06:00	21910	44	-54.9	-84.1	132	3
2023-08-16T06:00	21934	44	-55.1	-84.2	130	3
2023-08-16T06:00	21957	44	-55.1	-84.2	129	3
2023-08-16T06:00	21982	43	-55.0	-84.2	130	3
2023-08-16T06:00	22008	43	-55.0	-84.2	132	3
2023-08-16T06:00	22037	43	-55.1	-84.2	130	3
2023-08-16T06:00	22059	43	-55.1	-84.2	123	3
2023-08-16T06:00	22086	43	-55.2	-84.3	108	3
2023-08-16T06:00	22110	43	-55.2	-84.3	91	3
2023-08-16T06:00	22145	42	-55.0	-84.2	78	4
2023-08-16T06:00	22166	42	-54.8	-84.0	71	4
2023-08-16T06:00	22192	42	-54.9	-84.1	70	5
2023-08-16T06:00	22220	42	-55.0	-84.2	73	6
2023-08-16T06:00	22240	42	-54.9	-84.1	77	7
2023-08-16T06:00	22269	42	-54.8	-84.0	83	7
2023-08-16T06:00	22295	41	-54.6	-83.9	89	7
2023-08-16T06:00	22317	41	-54.5	-83.8	95	7
2023-08-16T06:00	22348	41	-54.6	-83.9	100	7
2023-08-16T06:00	22371	41	-54.7	-83.9	103	7
2023-08-16T06:00	22396	41	-54.8	-84.0	105	7
2023-08-16T06:00	22422	41	-54.7	-83.9	106	6
2023-08-16T06:00	22448	40	-54.7	-83.9	106	6
2023-08-16T06:00	22475	40	-54.8	-84.0	105	6
2023-08-16T06:00	22499	40	-54.8	-84.0	103	5
2023-08-16T06:00	22523	40	-54.7	-83.9	100	6
2023-08-16T06:00	22552	40	-54.7	-83.9	97	6
2023-08-16T06:00	22570	40	-54.7	-83.9	93	6
2023-08-16T06:00	22603	39	-54.7	-83.9	90	7
2023-08-16T06:00	22625	39	-54.6	-83.9	86	7
2023-08-16T06:00	22648	39	-54.7	-83.9	84	7
2023-08-16T06:00	22678	39	-54.7	-83.9	83	7
2023-08-16T06:00	22706	39	-54.8	-84.0	84	7
2023-08-16T06:00	22732	39	-54.9	-84.1	87	7
2023-08-16T06:00	22755	39	-55.0	-84.2	90	7
2023-08-16T06:00	22785	38	-55.2	-84.3	93	7
2023-08-16T06:00	22809	38	-55.2	-83.9	95	7
2023-08-16T06:00	22834	38	-55.3	-84.0	97	8
2023-08-16T06:00	22860	38	-55.3	-84.0	98	8
2023-08-16T06:00	22890	38	-55.3	-84.0	99	9
2023-08-16T06:00	22916	38	-55.4	-84.0	99	9
2023-08-16T06:00	22941	37	-55.5	-84.1	100	9
2023-08-16T06:00	22965	37	-55.6	-84.2	100	10
2023-08-16T06:00	22994	37	-55.8	-84.3	101	10
2023-08-16T06:00	23026	37	-55.8	-84.3	101	10
2023-08-16T06:00	23051	37	-55.8	-84.3	103	10
2023-08-16T06:00	23075	37	-55.8	-84.3	105	10
2023-08-16T06:00	23106	36	-56.0	-84.5	108	10
2023-08-16T06:00	23133	36	-56.1	-84.6	111	10
2023-08-16T06:00	23156	36	-56.2	-84.6	115	10
2023-08-16T06:00	23186	36	-56.2	-84.6	117	10
2023-08-16T06:00	23211	36	-56.3	-84.7	119	9
2023-08-16T06:00	23234	36	-56.4	-84.8	121	9
2023-08-16T06:00	23267	36	-56.4	-84.8	121	9
2023-08-16T06:00	23293	35	-56.4	-84.8	122	8
2023-08-16T06:00	23317	35	-56.4	-84.8	123	7
2023-08-16T06:00	23339	35	-56.5	-84.9	124	6
2023-08-16T06:00	23375	35	-56.5	-84.9	126	6
2023-08-16T06:00	23401	35	-56.6	-84.9	127	5
2023-08-16T06:00	23421	35	-56.6	-84.9	127	5
2023-08-16T06:00	23454	35	-56.7	-85.0	126	5
2023-08-16T06:00	23480	34	-56.7	-85.0	124	5
2023-08-16T06:00	23508	34	-56.7	-85.0	121	5
2023-08-16T06:00	23530	34	-56.6	-84.9	121	5
2023-08-16T06:00	23559	34	-56.4	-85.2	121	5
2023-08-16T06:00	23589	34	-56.2	-85.1	123	5
2023-08-16T06:00	23614	34	-56.0	-84.9	125	5
2023-08-16T06:00	23640	34	-55.8	-84.8	126	5
2023-08-16T06:00	23670	33	-55.7	-84.7	126	5
2023-08-16T06:00	23697	33	-55.7	-84.7	123	5
2023-08-16T06:00	23726	33	-55.7	-84.7	120	5
2023-08-16T06:00	23756	33	-55.7	-84.7	116	5
2023-08-16T06:00	23781	33	-55.8	-84.8	112	5
2023-08-16T06:00	23803	33	-55.6	-84.6	110	5
2023-08-16T06:00	23831	33	-55.4	-84.9	109	6
2023-08-16T06:00	23865	32	-55.2	-84.8	110	7
2023-08-16T06:00	23887	32	-55.0	-84.6	112	7
2023-08-16T06:00	23914	32	-54.9	-84.6	114	8
2023-08-16T06:00	23950	32	-54.8	-84.5	117	9
2023-08-16T06:00	23981	32	-54.6	-84.3	120	9
2023-08-16T06:00	24002	32	-54.4	-84.2	123	9
2023-08-16T06:00	24031	32	-54.4	-84.2	125	9
2023-08-16T06:00	24061	31	-54.4	-84.2	127	9
2023-08-16T06:00	24094	31	-54.5	-84.3	128	9
2023-08-16T06:00	24119	31	-54.6	-84.3	129	9
2023-08-16T06:00	24145	31	-54.7	-84.4	129	9
2023-08-16T06:00	24174	31	-54.7	-83.9	129	9
2023-08-16T06:00	24199	31	-54.8	-84.0	129	8
2023-08-16T06:00	24230	31	-54.8	-84.0	130	8
2023-08-16T06:00	24258	30	-54.8	-84.0	130	8
2023-08-16T06:00	24284	30	-54.8	-84.5	131	8
2023-08-16T06:00	24307	30	-54.7	-84.4	133	8
2023-08-16T06:00	24337	30	-54.6	-84.3	134	8
2023-08-16T06:00	24359	30	-54.5	-84.3	135	8
2023-08-16T06:00	24385	30	-54.5	-84.3	136	8
2023-08-16T06:00	24412	30	-54.4	-84.2	135	8
2023-08-16T06:00	24435	30	-54.3	-84.6	133	7
2023-08-16T06:00	24457	30	-54.0	-84.4	129	7
2023-08-16T06:00	24483	29	-53.8	-84.2	126	7
2023-08-16T06:00	24509	29	-53.6	-84.1	125	6
2023-08-16T06:00	24534	29	-53.5	-84.0	125	6
2023-08-16T06:00	24553	29	-53.3	-83.9	127	6
2023-08-16T06:00	24585	29	-53.3	-83.9	131	6
2023-08-16T06:00	24606	29	-53.3	-83.9	135	6
2023-08-16T06:00	24632	29	-53.3	-83.9	139	6
2023-08-16T06:00	24659	29	-53.3	-83.9	141	6
2023-08-16T06:00	24684	28	-53.3	-83.9	142	6
2023-08-16T06:00	24713	28	-53.2	-83.8	140	5
2023-08-16T06:00	24730	28	-53.1	-83.7	137	5
2023-08-16T06:00	24758	28	-53.1	-83.7	131	5
2023-08-16T06:00	24782	28	-53.1	-83.7	125	4
2023-08-16T06:00	24814	28	-53.0	-83.6	118	4
2023-08-16T06:00	24840	28	-52.7	-83.4	113	4
2023-08-16T06:00	24865	28	-52.3	-83.7	107	3
2023-08-16T06:00	24892	28	-52.2	-83.6	102	3
2023-08-16T06:00	24916	27	-52.0	-83.5	95	2
2023-08-16T06:00	24950	27	-51.7	-83.2	88	2
2023-08-16T06:00	24973	27	-51.5	-83.1	82	2
2023-08-16T06:00	25000	27	-51.3	-82.9	78	3
2023-08-16T06:00	25028	27	-51.2	-82.9	76	3
2023-08-16T06:00	25054	27	-51.2	-82.9	75	4
2023-08-16T06:00	25088	27	-51.1	-82.8	74	5
2023-08-16T06:00	25113	27	-51.0	-82.7	73	5
2023-08-16T06:00	25137	27	-50.9	-82.7	71	6
2023-08-16T06:00	25173	26	-51.0	-82.7	70	6
2023-08-16T06:00	25200	26	-51.1	-82.8	70	6
2023-08-16T06:00	25226	26	-51.1	-82.8	71	6
2023-08-16T06:00	25264	26	-51.0	-82.7	73	6
2023-08-16T06:00	25292	26	-51.0	-82.7	75	6
2023-08-16T06:00	25316	26	-51.1	-82.8	78	5
2023-08-16T06:00	25357	26	-51.1	-82.8	80	4
2023-08-16T06:00	25388	26	-51.2	-82.9	80	4
2023-08-16T06:00	25420	25	-51.2	-82.9	77	3
2023-08-16T06:00	25450	25	-51.1	-82.8	72	3
2023-08-16T06:00	25475	25	-51.2	-82.9	66	3
2023-08-16T06:00	25509	25	-51.2	-82.3	61	4
2023-08-16T06:00	25537	25	-51.2	-82.3	58	5
2023-08-16T06:00	25566	25	-51.2	-82.3	56	5
2023-08-16T06:00	25603	25	-51.3	-82.9	54	6
2023-08-16T06:00	25627	25	-51.4	-83.0	52	6
2023-08-16T06:00	25670	25	-51.3	-82.9	50	6
2023-08-16T06:00	25689	24	-51.3	-82.9	49	6
2023-08-16T06:00	25724	24	-51.2	-82.9	50	6
2023-08-16T06:00	25747	24	-51.2	-82.9	51	7
2023-08-16T06:00	25779	24	-51.1	-82.8	53	7
2023-08-16T06:00	25809	24	-51.0	-82.7	55	7
2023-08-16T06:00	25838	24	-50.9	-82.7	58	7
2023-08-16T06:00	25863	24	-50.7	-82.5	60	8
2023-08-16T06:00	25891	24	-50.5		61	8
2023-08-16T06:00	25924	24	-50.3	-82.8	62	7
2023-08-16T06:00	25950	23	-50.2	-82.8	62	7
2023-08-16T06:00	25980	23	-50.0	-82.6	62	7
2023-08-16T06:00	26006	23	-49.9	-82.5	61	7
2023-08-16T06:00	26031	23	-49.9	-82.5	61	6
2023-08-16T06:00	26058	23	-49.8	-82.5	61	5
2023-08-16T06:00	26095	23	-49.8	-82.5	61	5
2023-08-16T06:00	26118	23	-49.7	-82.4	62	4
2023-08-16T06:00	26139	23	-49.6	-82.3	64	4
2023-08-16T06:00	26176	23	-49.6	-82.3	67	4
2023-08-16T06:00	26199	23	-49.6	-82.3	71	4
2023-08-16T06:00	26220	22	-49.5	-82.3	75	5
2023-08-16T06:00	26261	22	-49.4	-82.2	78	5
2023-08-16T06:00	26288	22	-49.2	-82.0	80	6
2023-08-16T06:00	26307	22	-49.1	-82.0	81	6
2023-08-16T06:00	26342	22	-49.1	-82.0	81	6
2023-08-16T06:00	26366	22	-49.0	-81.9	81	6
2023-08-16T06:00	26397	22	-49.0	-81.9	80	6
2023-08-16T06:00	26425	22	-48.7	-81.7	79	6
2023-08-16T06:00	26452	22	-48.5	-81.5	79	7
2023-08-16T06:00	26478	22	-48.3	-81.4	78	7
2023-08-16T06:00	26507	22	-48.2	-81.3	79	8
2023-08-16T06:00	26539	21	-48.2	-81.3	79	8
2023-08-16T06:00	26560	21	-48.3	-81.4	81	9
2023-08-16T06:00	26594	21	-48.5	-81.5	83	9
2023-08-16T06:00	26620	21	-48.6	-81.6	87	9
2023-08-16T06:00	26642	21	-48.6	-81.6	91	8
2023-08-16T06:00	26678	21	-48.7	-81.7	97	8
2023-08-16T06:00	26712	21	-48.6	-81.6	104	7
2023-08-16T06:00	26737	21	-48.5	-81.5	112	7
2023-08-16T06:00	26769	21	-48.5	-81.5	118	7
2023-08-16T06:00	26799	21	-48.5	-81.5	123	7
2023-08-16T06:00	26820	21	-48.3	-81.4	126	6
2023-08-16T06:00	26863	20	-48.2	-81.3	129	6
2023-08-16T06:00	26900	20	-48.3	-81.4	131	5
2023-08-16T06:00	26925	20	-48.2	-81.3	132	4
2023-08-16T06:00	26958	20	-48.3	-81.4	131	3
2023-08-16T06:00	26986	20	-48.3	-81.4	127	3
2023-08-16T06:00	27013	20	-48.3	-81.4	117	2
2023-08-16T06:00	27046	20	-48.3	-81.4	95	1
2023-08-16T06:00	27073	20	-48.2	-81.3	58	1
2023-08-16T06:00	27112	20	-48.1	-81.2	31	1
2023-08-16T06:00	27140	20	-48.1	-81.2	23	2
2023-08-16T06:00	27174	19	-48.0	-81.2	26	2
2023-08-16T06:00	27206	19	-47.9	-81.1	35	2
2023-08-16T06:00	27231	19	-47.9	-81.1	48	3
2023-08-16T06:00	27267	19	-48.1	-81.2	59	3
2023-08-16T06:00	27297	19	-48.2	-81.3	69	4
2023-08-16T06:00	27332	19	-48.2	-81.3	77	4
2023-08-16T06:00	27359	19	-48.2	-81.3	82	5
2023-08-16T06:00	27383	19	-48.2	-81.3	86	5
2023-08-16T06:00	27420	19	-48.3	-81.4	89	6
2023-08-16T06:00	27458	19	-48.4	-81.4	92	6
2023-08-16T06:00	27476	19	-48.5	-81.5	94	6
2023-08-16T06:00	27518	18	-48.4	-81.4	95	6
2023-08-16T06:00	27537	18	-48.3	-81.4	96	6
2023-08-16T06:00	27574	18	-48.4	-81.4	95	5
2023-08-16T06:00	27596	18	-48.4	-81.4	92	5
2023-08-16T06:00	27633	18	-48.4	-81.4	87	5
2023-08-16T06:00	27656	18	-48.4	-81.4	80	4
2023-08-16T06:00	27683	18	-48.4	-81.4	70	4
2023-08-16T06:00	27717	18	-48.3	-81.4	59	4
2023-08-16T06:00	27735	18	-48.2	-81.3	50	4
2023-08-16T06:00	27765	18	-48.0	-81.9	43	4
2023-08-16T06:00	27794	18	-47.8	-81.7	37	4
2023-08-16T06:00	27816	18	-47.6	-81.6	34	4
2023-08-16T06:00	27856	18	-47.4	-81.4	33	4
2023-08-16T06:00	27886	17	-47.3	-81.4	34	4
2023-08-16T06:00	27899	17	-47.3	-81.4	37	5
2023-08-16T06:00	27935	17	-47.1	-81.2	41	5
2023-08-16T06:00	27956	17	-47.0	-81.1	45	5
2023-08-16T06:00	27996	17	-47.1	-81.2	49	6
2023-08-16T06:00	28014	17	-47.2	-81.3	55	6
2023-08-16T06:00	28043	17	-47.0	-81.1	61	7
2023-08-16T06:00	28061	17	-46.9	-81.1	67	7
2023-08-16T06:00	28114	17	-47.1	-81.2	73	7
2023-08-16T06:00	28120	17	-47.3	-81.4	77	7
2023-08-16T06:00	28151	17	-47.4	-81.4	80	7
2023-08-16T06:00	28182	17	-47.5	-80.8	83	7
2023-08-16T06:00	28218	17	-47.4	-80.7	85	7
2023-08-16T06:00	28257	17	-47.4	-80.7	87	7
2023-08-16T06:00	28269	16	-47.5	-81.5	89	7
2023-08-16T06:00	28305	16	-47.5	-81.5	90	7
2023-08-16T06:00	28325	16	-47.5	-81.5	91	7
2023-08-16T06:00	28366	16	-47.4	-81.4	91	6
2023-08-16T06:00	28410	16	-47.2	-81.3	90	6
2023-08-16T06:00	28422	16	-47.1	-81.2	88	6
2023-08-16T06:00	28462	16	-47.0	-81.1	86	6
2023-08-16T06:00	28498	16	-47.2	-81.3	83	6
2023-08-16T06:00	28535	16	-47.3	-81.4	80	6
2023-08-16T06:00	28565	16	-47.3	-81.4	78	6
2023-08-16T06:00	28602	16	-47.5	-81.5	78	7
2023-08-16T06:00	28622	16	-47.6	-81.6	79	7
2023-08-16T06:00	28678	16	-47.4	-81.4	81	8
2023-08-16T06:00	28707	15	-47.1	-81.2	83	8
2023-08-16T06:00	28738	15	-46.9	-81.1	86	8
2023-08-16T06:00	28785	15	-46.8	-81.0	88	8
2023-08-16T06:00	28827	15	-46.7	-80.9	91	8
2023-08-16T06:00	28859	15	-46.6	-80.9	94	7
2023-08-16T06:00	28879	15	-46.5	-80.8	97	7
2023-08-16T06:00	28932	15	-46.4	-80.7	101	7
2023-08-16T06:00	28963	15	-46.4	-80.7	106	6
2023-08-16T06:00	28991	15	-46.4	-80.7	112	6
2023-08-16T06:00	29019	15	-46.4	-80.7	117	6
2023-08-16T06:00	29050	15	-46.3	-80.6	122	6
2023-08-16T06:00	29102	15	-46.3	-81.4	127	6
2023-08-16T06:00	29121	14	-46.2	-81.4	132	6
2023-08-16T06:00	29169	14	-46.0	-81.2	137	6
2023-08-16T06:00	29198	14	-45.7	-81.0	140	5
2023-08-16T06:00	29237	14	-45.6	-80.9	141	5
2023-08-16T06:00	29264	14	-45.5	-80.9	139	4
2023-08-16T06:00	29286	14	-45.3	-80.7	133	4
2023-08-16T06:00	29333	14	-45.1	-80.6	122	3
2023-08-16T06:00	29340	14	-45.0	-80.5	108	3
2023-08-16T06:00	29371	14	-44.9	-80.4	95	3
2023-08-16T06:00	29397	14	-44.7	-80.3	85	4
2023-08-16T06:00	29441	14	-44.5	-80.1	77	4
2023-08-16T06:00	29472	14	-44.4	-80.1	71	4
2023-08-16T06:00	29492	14	-44.3	-80.0	65	5
2023-08-16T06:00	29533	14	-44.0	-79.8	59	5
2023-08-16T06:00	29550	14	-43.8	-79.6	53	5
2023-08-16T06:00	29584	14	-43.6	-80.4	49	5
2023-08-16T06:00	29612	13	-43.6	-79.5	47	5
2023-08-16T06:00	29637	13	-43.6	-79.5	48	5
2023-08-16T06:00	29668	13	-43.6	-79.5	51	5
2023-08-16T06:00	29683	13	-43.7	-79.6	57	5
2023-08-16T06:00	29723	13	-43.8	-79.6	64	5
2023-08-16T06:00	29765	13	-43.9	-79.7	69	5
2023-08-16T06:00	29789	13	-43.9	-79.7	73	6
2023-08-16T06:00	29812	13	-43.8	-79.6	74	6
2023-08-16T06:00	29838	13	-43.7	-79.6	73	6
2023-08-16T06:00	29872	13	-43.6	-79.5	70	6
2023-08-16T06:00	29891	13	-43.4	-79.4	68	6
2023-08-16T06:00	29939	13	-43.3	-80.2	65	6
2023-08-16T06:00	29959	13	-43.2	-80.2	63	7
2023-08-16T06:00	29983	13	-43.2	-80.2	62	7
2023-08-16T06:00	30019	13	-43.2	-79.2	62	8
2023-08-16T06:00	30059	13	-43.4	-79.4	63	8
2023-08-16T06:00	30079	13	-43.5	-79.4	65	9
2023-08-16T06:00	30106	13	-43.5	-79.4	68	9
2023-08-16T06:00	30150	12	-43.5	-79.4	70	9
2023-08-16T06:00	30163	12	-43.4	-79.4	71	9
2023-08-16T06:00	30196	12	-43.3	-79.3	72	9
2023-08-16T06:00	30225	12	-43.3	-80.2	73	9
2023-08-16T06:00	30261	12	-43.1	-80.1	73	9
2023-08-16T06:00	30281	12	-42.9	-80.0	74	9
2023-08-16T06:00	30334	12	-42.7	-79.8	74	9
2023-08-16T06:00	30351	12	-42.5	-79.7	75	9
2023-08-16T06:00	30395	12	-42.3	-79.5	75	9
2023-08-16T06:00	30412	12	-42.0	-79.3	74	10
2023-08-16T06:00	30453	12	-41.8	-79.2	73	10
2023-08-16T06:00	30482	12	-41.8	-79.2	72	11
2023-08-16T06:00	30514	12	-41.7	-79.1	72	12
2023-08-16T06:00	30561	12	-41.5	-79.0	72	13
2023-08-16T06:00	30586	12	-41.2	-78.8	72	13
2023-08-16T06:00	30616	12	-41.1	-78.7	72	14
2023-08-16T06:00	30650	12	-41.2	-78.8	73	14
2023-08-16T06:00	30697	12	-41.3	-78.8	73	15
2023-08-16T06:00	30710	11	-41.4	-78.9	75	15
2023-08-16T06:00	30750	11	-41.5	-79.0	76	16
2023-08-16T06:00	30779	11	-41.6	-79.0	78	16
2023-08-16T06:00	30817	11	-41.7	-79.1	81	17
2023-08-16T06:00	30851	11	-41.7	-79.1	84	17
2023-08-16T06:00	30882	11	-41.7	-79.1	87	17
2023-08-16T06:00	30922	11	-41.7	-79.1	90	18
2023-08-16T06:00	30934	11	-41.7	-79.1	92	17
2023-08-16T06:00	30976	11	-41.7	-79.1	93	17
2023-08-16T06:00	31017	11	-41.8	-79.2	94	17
2023-08-16T06:00	31042	11	-41.9	-79.2	95	16
2023-08-16T06:00	31073	11	-42.0	-79.3	95	15
2023-08-16T06:00	31091	11	-42.1	-79.4	96	14
2023-08-16T06:00	31123	11	-42.3	-79.5	96	14
2023-08-16T06:00	31175	11	-42.5	-78.7	97	13
2023-08-16T06:00	31199	11	-42.7	-78.9	98	12
2023-08-16T06:00	31247	11	-42.7	-79.8	99	11
2023-08-16T06:00	31268	11	-42.6	-79.7	101	11
2023-08-16T06:00	31297	11	-42.6	-79.7	102	10
2023-08-16T06:00	31328	10	-42.6	-79.7	103	10
2023-08-16T06:00	31362	10	-42.4	-79.6	102	10
2023-08-16T06:00	31398	10	-42.2	-79.5	102	10
2023-08-16T06:00	31423	10	-42.0	-79.3	102	10
2023-08-16T06:00	31457	10	-41.9	-79.2	102	11
2023-08-16T06:00	31477	10	-41.8	-79.2	104	11
2023-08-16T06:00	31529	10	-41.7	-79.1	105	11
2023-08-16T06:00	31547	10	-41.8	-79.2	107	11
2023-08-16T06:00	31578	10	-41.8	-79.2	109	11
2023-08-16T06:00	31615	10	-41.9	-79.2	110	11
2023-08-16T06:00	31643	10	-41.9	-79.2	111	11
2023-08-16T06:00	31685	10	-41.9	-79.2	111	10
2023-08-16T06:00	31719	10	-41.9	-79.2	109	10
2023-08-16T06:00	31734	10	-41.8	-79.2	107	10
2023-08-16T06:00	31770	10	-41.8	-79.2	103	10
2023-08-16T06:00	31804	10	-41.8	-79.2	97	9
2023-08-16T06:00	31837	10	-41.8	-79.2	91	9
2023-08-16T06:00	31877	10	-41.7	-79.1	85	9
2023-08-16T06:00	31881	10	-41.7	-79.1	78	9
2023-08-16T06:00	31942	10	-41.8	-79.2	73	9
2023-08-16T06:00	31952	10	-41.6	-79.0	69	10
2023-08-16T06:00	32005	9	-41.4	-78.9	67	10
2023-08-16T06:00	32024	9	-41.1	-79.8	66	11
2023-08-16T06:00	32062	9	-40.9	-79.7	68	12
2023-08-16T06:00	32085	9	-40.8	-79.6	71	12
2023-08-16T06:00	32132	9	-40.7	-79.5	75	13
2023-08-16T06:00	32154	9	-40.7	-79.5	79	13
2023-08-16T06:00	32185	9	-40.6	-79.5	82	13
2023-08-16T06:00	32218	9	-40.6	-79.5	86	14
2023-08-16T06:00	32247	9	-40.7	-79.5	89	14
2023-08-16T06:00	32282	9	-40.7	-79.5	93	14
2023-08-16T06:00	32346	9	-40.8	-79.6	101	14
2023-08-16T06:00	32373	9	-40.9		105	14
2023-08-16T06:00	32403	9	-40.9		110	14
2023-08-16T06:00	32434	9	-40.9		115	14
2023-08-16T06:00	32495	9	-41.0	-78.6	119	14
2023-08-16T06:00	32517	9	-41.0	-78.6	124	13
2023-08-16T06:00	32554	9	-41.0	-78.6	128	13
2023-08-16T06:00	32590	9	-41.1	-78.7	131	12
2023-08-16T06:00	32602	9	-41.1	-78.7	134	12
2023-08-16T06:00	32630	9	-41.2	-78.8	137	11
2023-08-16T06:00	32670	9	-41.2	-78.8	137	10
2023-08-16T06:00	32724	9	-41.3	-78.8	136	9
2023-08-16T06:00	32750	9	-41.2	-79.9	132	8
2023-08-16T06:00	32780	8	-41.0	-79.7	126	7
2023-08-16T06:00	32814	8	-40.7	-79.5	118	7
2023-08-16T06:00	32846	8	-40.4	-79.3	110	7
2023-08-16T06:00	32878	8	-40.0	-79.0	105	7
2023-08-16T06:00	32883	8	-39.8	-78.9	102	7
2023-08-16T06:00	32925	8	-39.6	-78.8	100	7
2023-08-16T06:00	32971	8	-39.4	-78.6	97	7
2023-08-16T06:00	32978	8	-39.2	-78.5	93	7
2023-08-16T06:00	33011	8	-39.0	-78.3	89	7
2023-08-16T06:00	33037	8	-38.6	-78.1	84	7
2023-08-16T06:00	33087	8	-38.3	-77.9	82	7
2023-08-16T06:00	33098	8	-38.0	-77.6	83	7
2023-08-16T06:00	33113	8	-37.9	-77.6	84	7
2023-08-16T06:00	33160	8	-37.8	-77.5	88	7
2023-08-16T06:00	33190	8	-37.6	-77.4	92	7
2023-08-16T06:00	33229	8	-37.5	-77.3	96	7
2023-08-16T06:00	33233	8	-37.4	-77.2	102	7
2023-08-16T06:00	33244	8	-37.4	-77.2	109	7
2023-08-16T06:00	33285	8	-37.4	-77.2	115	7
2023-08-16T06:00	33322	8	-37.4	-77.2	121	7
2023-08-16T06:00	33338	8	-37.4	-77.2	124	7
2023-08-16T06:00	33391	8	-37.4	-77.2	127	7
2023-08-16T06:00	33422	8	-37.4	-77.2	128	7
2023-08-16T06:00	33447	8	-37.4	-77.2	128	6
2023-08-16T06:00	33469	8	-37.3	-77.2	126	5
2023-08-16T06:00	33501	8	-37.3	-77.2	122	5
2023-08-16T06:00	33556	8	-37.1	-77.0	107	5
2023-08-16T06:00	33586	8	-36.8	-76.8	100	5
2023-08-16T06:00	33608	8	-36.6	-76.7	95	6
2023-08-16T06:00	33667	7	-36.4	-76.5	92	7
2023-08-16T06:00	33692	7	-36.3	-76.5	90	7
2023-08-16T12:00	112	1008	24.5	19.3	50	3
2023-08-16T12:00	133	1005	23.3	18.5	36	2
2023-08-16T12:00	157	1003	23.1	18.1	34	3
2023-08-16T12:00	182	1000	22.8	17.8	30	3
2023-08-16T12:00	202	997	22.5	18.0	27	3
2023-08-16T12:00	224	995	22.4	18.2	25	3
2023-08-16T12:00	244	993	22.2	18.0	24	3
2023-08-16T12:00	271	990	21.9	18.0	25	3
2023-08-16T12:00	292	987	21.7	18.0	26	2
2023-08-16T12:00	319	984	21.5	17.9	26	2
2023-08-16T12:00	344	981	21.2	17.6	23	2
2023-08-16T12:00	379	977	20.9	17.7	21	3
2023-08-16T12:00	410	974	20.6	17.6	18	3
2023-08-16T12:00	437	971	20.4	17.2	15	4
2023-08-16T12:00	460	968	20.1	17.2	12	4
2023-08-16T12:00	490	965	19.8	17.3	8	4
2023-08-16T12:00	511	963	19.6	17.3	6	4
2023-08-16T12:00	532	960	19.5	16.9	5	4
2023-08-16T12:00	562	957	19.3	16.7	5	4
2023-08-16T12:00	586	954	19.1	16.1	6	4
2023-08-16T12:00	612	952	18.9	16.1	7	4
2023-08-16T12:00	633	949	18.8	16.0	4	4
2023-08-16T12:00	659	946	18.5	16.3	358	4
2023-08-16T12:00	681	944	18.2	16.6	350	4
2023-08-16T12:00	709	941	18.0	16.7	341	5
2023-08-16T12:00	740	938	17.7	16.8	333	5
2023-08-16T12:00	762	935	17.5	16.6	329	5
2023-08-16T12:00	782	933	17.3	16.7	326	5
2023-08-16T12:00	804	930	17.2	16.7	323	4
2023-08-16T12:00	823	928	17.0	16.8	321	4
2023-08-16T12:00	843	926	16.8	16.4	317	4
2023-08-16T12:00	864	924	16.7	16.3	312	4
2023-08-16T12:00	888	921	16.8	15.8	309	4
2023-08-16T12:00	908	919	16.8	15.1	306	4
2023-08-16T12:00	930	917	16.8	15.0	306	4
2023-08-16T12:00	958	914	16.4	15.6	308	4
2023-08-16T12:00	975	912	16.0	15.9	311	4
2023-08-16T12:00	1000	909	15.9	15.7	314	4
2023-08-16T12:00	1020	907	15.8	15.6	315	4
2023-08-16T12:00	1044	905	15.6	15.6	313	4
2023-08-16T12:00	1066	902	15.4	15.4	307	4
2023-08-16T12:00	1087	900	15.3	15.3	298	3
2023-08-16T12:00	1111	897	15.2	15.2	287	3
2023-08-16T12:00	1136	895	15.1	15.1	272	3
2023-08-16T12:00	1159	892	14.9	14.9	258	3
2023-08-16T12:00	1184	890	14.7	14.5	249	3
2023-08-16T12:00	1202	888	14.6	14.3	246	3
2023-08-16T12:00	1226	885	14.5	14.3	247	2
2023-08-16T12:00	1246	883	14.7	13.5	251	2
2023-08-16T12:00	1265	881	14.7	13.5	253	2
2023-08-16T12:00	1283	880	14.7	13.4	250	2
2023-08-16T12:00	1301	878	14.5	13.5	242	2
2023-08-16T12:00	1316	876	14.3		235	2
2023-08-16T12:00	1333	874	14.2	13.3	233	2
2023-08-16T12:00	1357	872	14.2	13.0	237	3
2023-08-16T12:00	1381	869	14.2	13.0	247	3
2023-08-16T12:00	1419	866	14.6		256	3
2023-08-16T12:00	1447	863	14.3	11.9	262	4
2023-08-16T12:00	1479	860	14.0	11.7	262	4
2023-08-16T12:00	1497	858	13.8	11.9	259	4
2023-08-16T12:00	1516	855	13.6	11.8	251	3
2023-08-16T12:00	1542	853	13.5		241	3
2023-08-16T12:00	1566	851	13.4	11.4	231	2
2023-08-16T12:00	1587	849	13.3	11.2	225	2
2023-08-16T12:00	1607	846	13.2	11.2	226	2
2023-08-16T12:00	1631	844	12.9	11.0	229	1
2023-08-16T12:00	1652	842	12.8	11.0	225	1
2023-08-16T12:00	1672	840	12.7	10.8	215	2
2023-08-16T12:00	1696	838	12.6	10.7	206	3
2023-08-16T12:00	1714	836	12.6	10.2	200	4
2023-08-16T12:00	1735	834	13.0	9.1	197	4
2023-08-16T12:00	1756	832	13.1	8.7	193	4
2023-08-16T12:00	1775	830	13.1	8.7	187	4
2023-08-16T12:00	1797	828	13.1	8.1	180	3
2023-08-16T12:00	1818	826	13.0	7.6	174	3
2023-08-16T12:00	1836	824	12.9	6.9	174	3
2023-08-16T12:00	1854	822	13.3	5.5	180	3
2023-08-16T12:00	1880	820	13.2	5.5	189	3
2023-08-16T12:00	1901	817	12.9	5.4	200	3
2023-08-16T12:00	1920	816	12.8	5.5	212	3
2023-08-16T12:00	1940	814	12.8	5.2	226	3
2023-08-16T12:00	1957	812	12.7	4.7	238	4
2023-08-16T12:00	1977	810	12.6	4.1	244	4
2023-08-16T12:00	1996	808	12.7	3.5	245	5
2023-08-16T12:00	2014	807	12.8	2.8	242	5
2023-08-16T12:00	2032	805	12.8	2.5	237	6
2023-08-16T12:00	2054	803	12.9	0.9	234	6
2023-08-16T12:00	2072	801	13.0	-0.2	232	6
2023-08-16T12:00	2090	799	12.9	-0.3	232	6
2023-08-16T12:00	2108	798	12.7	0.2	236	6
2023-08-16T12:00	2125	796	12.6	0.5	240	6
2023-08-16T12:00	2143	794	12.5	0.7	242	5
2023-08-16T12:00	2162	792	12.3	0.7	241	5
2023-08-16T12:00	2180	791	12.1	0.7	236	5
2023-08-16T12:00	2206	788	11.9	0.7	228	5
2023-08-16T12:00	2232	786	11.7	0.5	220	5
2023-08-16T12:00	2252	784	11.5	0.6	212	5
2023-08-16T12:00	2270	782	11.4	0.6	205	5
2023-08-16T12:00	2290	780	11.3	0.4	200	5
2023-08-16T12:00	2308	779	11.1	0.2	197	5
2023-08-16T12:00	2331	777	10.9	0.2	197	5
2023-08-16T12:00	2354	774	10.7	0.5	199	6
2023-08-16T12:00	2380	772	10.6	0.7	200	7
2023-08-16T12:00	2398	770	10.5	1.8	201	8
2023-08-16T12:00	2413	769	10.3	2.2	202	8
2023-08-16T12:00	2432	767	10.2	2.3	202	9
2023-08-16T12:00	2450	766	10.1	2.3	202	9
2023-08-16T12:00	2468	764	10.0	2.6	202	9
2023-08-16T12:00	2487	762	9.9	2.6	203	9
2023-08-16T12:00	2505	760	9.9	2.6	203	8
2023-08-16T12:00	2527	759	9.8	2.2	204	8
2023-08-16T12:00	2546	757	9.7	1.9	205	7
2023-08-16T12:00	2564	755	9.5	1.9	205	7
2023-08-16T12:00	2585	753	9.4	2.1	206	7
2023-08-16T12:00	2604	751	9.2	2.2	207	7
2023-08-16T12:00	2632	749	9.0	2.0	209	8
2023-08-16T12:00	2651	747	8.8	1.8	211	8
2023-08-16T12:00	2676	745	8.6	1.9	213	9
2023-08-16T12:00	2699	743	8.4	1.5	215	9
2023-08-16T12:00	2719	741	8.3	1.5	214	10
2023-08-16T12:00	2739	739	8.1	1.4	213	10
2023-08-16T12:00	2761	737	8.1	1.1	210	9
2023-08-16T12:00	2780	736	8.0	0.9	208	9
2023-08-16T12:00	2800	734	7.8	0.8	207	9
2023-08-16T12:00	2830	731	7.6	0.5	209	9
2023-08-16T12:00	2851	729	7.3	0.4	212	9
2023-08-16T12:00	2874	727	7.1	0.3	213	9
2023-08-16T12:00	2901	725	6.9	0.3	212	9
2023-08-16T12:00	2917	723	6.8	-0.1	210	9
2023-08-16T12:00	2940	722	6.6	-0.6	207	9
2023-08-16T12:00	2959	720	6.4	-1.2	206	9
2023-08-16T12:00	2984	718	6.3	-1.4	206	10
2023-08-16T12:00	3012	715	6.2	-1.2	207	10
2023-08-16T12:00	3034	713	6.0	-1.2	209	10
2023-08-16T12:00	3053	711	5.9	-1.4	210	10
2023-08-16T12:00	3080	709	5.6	-1.2	209	9
2023-08-16T12:00	3110	707	5.3	-1.2	207	9
2023-08-16T12:00	3134	705	5.1	-1.1	206	9
2023-08-16T12:00	3152	703	4.9	-1.8	205	8
2023-08-16T12:00	3175	701	4.8	-1.8	205	8
2023-08-16T12:00	3194	699	4.5	-2.0	205	8
2023-08-16T12:00	3219	697	4.4	-2.1	207	8
2023-08-16T12:00	3236	696	4.1	-1.8	208	8
2023-08-16T12:00	3261	694	4.0	-1.6	211	8
2023-08-16T12:00	3281	692	3.8	-1.1	214	9
2023-08-16T12:00	3303	690	3.6	-0.8	218	9
2023-08-16T12:00	3322	689	3.3	-0.6	220	10
2023-08-16T12:00	3343	687	3.3	-0.8	221	10
2023-08-16T12:00	3365	685	3.1	-2.6	222	10
2023-08-16T12:00	3385	683	3.2	-4.9	222	10
2023-08-16T12:00	3409	681	3.2	-4.9	224	9
2023-08-16T12:00	3429	680	3.1	-4.9	226	10
2023-08-16T12:00	3452	678	3.0	-4.9	228	10
2023-08-16T12:00	3472	676	3.0	-5.4	230	11
2023-08-16T12:00	3493	674	2.9	-6.0	231	11
2023-08-16T12:00	3515	672	2.9	-6.1	232	11
2023-08-16T12:00	3538	670	2.8	-6.5	231	11
2023-08-16T12:00	3562	668	2.7	-6.7	230	11
2023-08-16T12:00	3594	666	2.4	-7.1	229	11
2023-08-16T12:00	3614	664	2.2	-7.0	228	10
2023-08-16T12:00	3634	662	2.0	-7.1	227	10
2023-08-16T12:00	3654	661	1.8	-8.0	227	10
2023-08-16T12:00	3675	659	1.8	-9.2	226	10
2023-08-16T12:00	3694	657	1.7	-9.7	226	11
2023-08-16T12:00	3719	656	1.5	-9.8	227	11
2023-08-16T12:00	3740	654	1.3	-9.9	228	11
2023-08-16T12:00	3763	652	1.2	-9.8	229	11
2023-08-16T12:00	3793	650	1.0	-10.0	229	11
2023-08-16T12:00	3813	648	0.7	-10.2	229	11
2023-08-16T12:00	3834	646	0.7	-10.1	228	11
2023-08-16T12:00	3855	644	0.4	-10.0	227	12
2023-08-16T12:00	3879	643	0.2	-10.0	226	12
2023-08-16T12:00	3902	641	0.0	-9.9	226	13
2023-08-16T12:00	3926	639	-0.2	-10.1	226	13
2023-08-16T12:00	3949	637	-0.4	-10.3	226	13
2023-08-16T12:00	3970	635	-0.5	-10.2	226	13
2023-08-16T12:00	3990	634	-0.7	-10.1	225	12
2023-08-16T12:00	4018	632	-1.0		223	12
2023-08-16T12:00	4038	630	-1.1	-9.8	220	12
2023-08-16T12:00	4064	628	-1.2	-10.5	216	11
2023-08-16T12:00	4083	626	-1.4	-11.0	214	12
2023-08-16T12:00	4104	625	-1.5	-11.0	212	12
2023-08-16T12:00	4126	623	-1.6	-11.0	210	13
2023-08-16T12:00	4151	621	-1.7	-11.0	210	14
2023-08-16T12:00	4171	619	-1.8	-11.0	209	14
2023-08-16T12:00	4197	618	-1.9	-10.6	209	15
2023-08-16T12:00	4215	616	-2.1	-10.4	209	15
2023-08-16T12:00	4238	614	-2.2	-9.2	209	16
2023-08-16T12:00	4262	612	-2.4	-8.3	209	16
2023-08-16T12:00	4286	611	-2.6	-7.5	208	16
2023-08-16T12:00	4307	609	-2.9	-7.2	206	16
2023-08-16T12:00	4328	607	-3.0	-6.1	205	15
2023-08-16T12:00	4350	606	-3.3	-5.6	204	15
2023-08-16T12:00	4369	604	-3.5	-4.7	205	15
2023-08-16T12:00	4393	602	-3.7	-4.7	206	15
2023-08-16T12:00	4420	601	-3.8	-4.4	207	15
2023-08-16T12:00	4439	599	-3.5	-4.2	209	15
2023-08-16T12:00	4458	597	-3.4	-5.0	211	15
2023-08-16T12:00	4482	596	-3.4	-5.2	214	15
2023-08-16T12:00	4503	594	-3.5	-5.2	216	15
2023-08-16T12:00	4525	592	-3.5	-5.3	217	16
2023-08-16T12:00	4548	591	-3.6	-5.7	218	16
2023-08-16T12:00	4568	589	-3.5	-6.2	219	16
2023-08-16T12:00	4594	587	-3.7	-5.9	219	15
2023-08-16T12:00	4611	586	-3.7	-6.3	219	14
2023-08-16T12:00	4632	585	-3.8	-6.5	219	14
2023-08-16T12:00	4651	583	-4.0	-7.0	219	13
2023-08-16T12:00	4678	581	-4.0	-9.9	220	13
2023-08-16T12:00	4694	580	-3.9	-15.5	220	13
2023-08-16T12:00	4721	578	-4.0	-17.3	221	14
2023-08-16T12:00	4738	577	-4.0	-21.0	223	14
2023-08-16T12:00	4760	575	-4.2	-23.4	224	14
2023-08-16T12:00	4786	573	-4.4	-25.0	225	14
2023-08-16T12:00	4812	572	-4.5	-29.2	224	14
2023-08-16T12:00	4829	570	-4.6	-31.0	223	13
2023-08-16T12:00	4852	568	-4.7	-31.6	222	13
2023-08-16T12:00	4876	567	-4.9	-31.9	222	12
2023-08-16T12:00	4899	565	-5.1	-32.0	223	12
2023-08-16T12:00	4930	563	-5.4	-32.3	225	11
2023-08-16T12:00	4951	561	-5.6	-31.9	228	11
2023-08-16T12:00	4975	560	-5.7	-30.7	229	11
2023-08-16T12:00	4999	558	-5.8	-30.8	231	10
2023-08-16T12:00	5022	556	-6.0	-30.9	232	10
2023-08-16T12:00	5051	554	-6.2	-31.1	233	10
2023-08-16T12:00	5072	553	-6.4	-31.0	235	11
2023-08-16T12:00	5101	551	-6.6	-31.1	236	11
2023-08-16T12:00	5128	549	-6.8	-31.1	238	11
2023-08-16T12:00	5147	547	-7.1	-30.9	240	12
2023-08-16T12:00	5176	545	-7.3	-31.4	241	12
2023-08-16T12:00	5196	544	-7.5	-31.8	242	11
2023-08-16T12:00	5219	542	-7.6	-32.2	242	11
2023-08-16T12:00	5244	541	-7.6	-33.4	242	11
2023-08-16T12:00	5268	539	-7.7	-33.6	242	11
2023-08-16T12:00	5290	537	-7.8	-34.5	243	11
2023-08-16T12:00	5311	536	-8.0	-34.6	243	11
2023-08-16T12:00	5337	534	-8.1	-34.1	244	10
2023-08-16T12:00	5357	533	-8.2	-33.7	243	10
2023-08-16T12:00	5379	531	-8.3	-33.9	242	9
2023-08-16T12:00	5400	530	-8.1	-34.4	239	9
2023-08-16T12:00	5423	528	-8.2	-34.1	236	9
2023-08-16T12:00	5446	527	-8.2	-34.2	234	9
2023-08-16T12:00	5466	525	-8.3	-34.3	232	9
2023-08-16T12:00	5485	524	-8.2	-33.5	230	9
2023-08-16T12:00	5508	523	-8.3	-33.1	227	9
2023-08-16T12:00	5529	521	-8.5	-32.9	224	9
2023-08-16T12:00	5551	520	-8.6	-33.4	222	9
2023-08-16T12:00	5573	518	-8.8	-34.3	220	9
2023-08-16T12:00	5595	517	-9.0	-35.1	220	9
2023-08-16T12:00	5620	515	-9.1	-34.5	221	9
2023-08-16T12:00	5643	514	-9.3	-34.4	221	8
2023-08-16T12:00	5665	512	-9.3	-34.2	221	8
2023-08-16T12:00	5695	510	-9.4	-35.1	219	8
2023-08-16T12:00	5712	509	-9.6	-35.3	216	8
2023-08-16T12:00	5734	508	-9.7	-35.5	213	8
2023-08-16T12:00	5752	506	-9.9	-35.6	211	9
2023-08-16T12:00	5770	505	-10.0	-35.6	210	9
2023-08-16T12:00	5795	504	-10.2	-35.4	210	9
2023-08-16T12:00	5812	502	-10.4	-35.0	210	9
2023-08-16T12:00	5832	501	-10.4	-36.8	211	10
2023-08-16T12:00	5855	499	-10.5	-37.4	211	10
2023-08-16T12:00	5884	498	-10.6	-37.9	211	10
2023-08-16T12:00	5902	496	-10.7	-38.7	212	10
2023-08-16T12:00	5925	495	-10.7	-39.1	212	10
2023-08-16T12:00	5947	494	-10.9	-39.1	212	9
2023-08-16T12:00	5968	492	-11.0	-40.2	213	8
2023-08-16T12:00	5990	491	-10.9	-41.5	212	8
2023-08-16T12:00	6013	489	-10.8	-41.5	210	8
2023-08-16T12:00	6035	488	-10.9	-41.1	206	8
2023-08-16T12:00	6056	487	-11.0	-40.3	202	8
2023-08-16T12:00	6078	485	-11.1	-39.2	200	8
2023-08-16T12:00	6097	484	-11.2	-37.9	200	8
2023-08-16T12:00	6125	482	-11.5	-37.8	203	8
2023-08-16T12:00	6144	481	-11.6	-37.3	206	8
2023-08-16T12:00	6163	480	-11.9	-36.6	209	8
2023-08-16T12:00	6184	479	-12.0	-36.1	211	8
2023-08-16T12:00	6202	477	-12.1	-36.3	211	8
2023-08-16T12:00	6220	476	-12.3	-36.5	211	8
2023-08-16T12:00	6249	475	-12.5	-36.3	211	8
2023-08-16T12:00	6265	473	-12.8	-36.4	211	8
2023-08-16T12:00	6298	472	-13.0	-36.3	210	7
2023-08-16T12:00	6315	470	-13.2	-36.3	210	7
2023-08-16T12:00	6337	469	-13.3	-36.4	210	7
2023-08-16T12:00	6359	468	-13.5	-36.3	209	8
2023-08-16T12:00	6383	466	-13.8	-36.5	210	8
2023-08-16T12:00	6405	465	-14.1	-36.3	211	8
2023-08-16T12:00	6426	464	-14.3	-36.1	213	8
2023-08-16T12:00	6447	462	-14.4	-36.5	214	8
2023-08-16T12:00	6469	461	-14.6	-35.8	214	8
2023-08-16T12:00	6486	460	-14.6	-36.1	215	8
2023-08-16T12:00	6510	459	-14.8	-35.6	214	8
2023-08-16T12:00	6532	457	-15.0	-36.0	214	9
2023-08-16T12:00	6553	456	-15.1	-36.0	214	9
2023-08-16T12:00	6584	454	-15.2	-39.4	215	10
2023-08-16T12:00	6605	453	-15.3	-41.3	215	11
2023-08-16T12:00	6626	451	-15.5	-40.4	216	11
2023-08-16T12:00	6652	450	-15.7	-40.1	217	11
2023-08-16T12:00	6671	449	-15.9	-39.6	217	10
2023-08-16T12:00	6690	448	-16.1	-39.7	216	10
2023-08-16T12:00	6711	446	-16.2	-39.5	214	10
2023-08-16T12:00	6738	445	-16.4	-39.5	212	9
2023-08-16T12:00	6773	443	-16.8	-39.2	211	9
2023-08-16T12:00	6794	442	-17.0	-38.4	211	10
2023-08-16T12:00	6813	440	-17.0	-32.9	211	10
2023-08-16T12:00	6836	439	-16.9	-26.2	211	10
2023-08-16T12:00	6858	438	-17.1	-26.6	210	10
2023-08-16T12:00	6881	437	-17.3	-27.2	209	10
2023-08-16T12:00	6902	435	-17.5	-27.6	207	10
2023-08-16T12:00	6924	434	-17.6	-28.0	207	11
2023-08-16T12:00	6944	433	-17.8	-28.2	207	11
2023-08-16T12:00	6966	432	-18.0	-28.0	207	11
2023-08-16T12:00	6993	430	-18.2	-27.9	208	11
2023-08-16T12:00	7015	429	-18.3	-30.2	209	11
2023-08-16T12:00	7039	427	-18.1	-36.3	209	11
2023-08-16T12:00	7059	426	-18.2	-35.5	208	11
2023-08-16T12:00	7085	425	-18.4	-32.7	206	11
2023-08-16T12:00	7114	423	-18.6	-29.7	203	11
2023-08-16T12:00	7136	422	-18.8	-31.5	201	11
2023-08-16T12:00	7156	421	-19.0	-31.9	200	12
2023-08-16T12:00	7180	419	-19.2	-32.1	202	12
2023-08-16T12:00	7208	418	-19.3	-32.0	205	12
2023-08-16T12:00	7228	417	-19.7	-31.6	208	13
2023-08-16T12:00	7249	415	-19.8	-31.1	210	13
2023-08-16T12:00	7273	414	-20.1	-30.1	211	13
2023-08-16T12:00	7297	413	-20.3	-29.6	210	13
2023-08-16T12:00	7321	411	-20.4	-29.6	208	12
2023-08-16T12:00	7343	410	-20.7	-29.3	206	12
2023-08-16T12:00	7370	409	-20.8	-30.0	205	12
2023-08-16T12:00	7391	408	-20.8	-30.4	204	12
2023-08-16T12:00	7411	406	-20.8	-30.6	205	12
2023-08-16T12:00	7435	405	-20.9	-30.4	205	13
2023-08-16T12:00	7456	404	-21.2	-30.2	206	13
2023-08-16T12:00	7478	403	-21.3	-30.4	206	13
2023-08-16T12:00	7501	401	-21.5	-30.5	206	13
2023-08-16T12:00	7528	400	-21.7	-30.5	206	13
2023-08-16T12:00	7547	399	-21.9	-30.6	206	13
2023-08-16T12:00	7576	398	-22.1	-30.7	206	14
2023-08-16T12:00	7602	396	-22.3	-31.0	206	14
2023-08-16T12:00	7623	395	-22.5	-31.4	207	14
2023-08-16T12:00	7643	394	-22.6	-32.1	208	13
2023-08-16T12:00	7663	393	-22.8	-34.0	209	13
2023-08-16T12:00	7688	391	-23.0	-34.9	209	13
2023-08-16T12:00	7713	390	-23.0	-36.6	209	13
2023-08-16T12:00	7734	389	-23.0	-36.7	209	13
2023-08-16T12:00	7753	388	-23.1	-36.1	208	13
2023-08-16T12:00	7774	387	-23.1	-36.8	206	13
2023-08-16T12:00	7799	386	-23.3	-36.6	205	13
2023-08-16T12:00	7821	384	-23.6	-36.9	204	14
2023-08-16T12:00	7839	383	-23.7	-37.4	204	14
2023-08-16T12:00	7867	382	-23.8	-36.4	204	14
2023-08-16T12:00	7889	381	-23.9	-35.5	204	14
2023-08-16T12:00	7910	380	-24.1	-30.7	204	14
2023-08-16T12:00	7931	379	-24.3	-29.3	204	14
2023-08-16T12:00	7949	378	-24.4	-30.7	203	14
2023-08-16T12:00	7971	377	-24.5	-29.9	203	14
2023-08-16T12:00	7995	375	-24.7	-29.6	202	14
2023-08-16T12:00	8016	374	-25.0	-30.2	202	14
2023-08-16T12:00	8036	373	-25.2	-30.7	203	14
2023-08-16T12:00	8059	372	-25.4	-30.9	204	14
2023-08-16T12:00	8080	371	-25.5	-31.1	205	14
2023-08-16T12:00	8108	370	-25.7	-31.2	206	14
2023-08-16T12:00	8128	368	-25.9	-31.5	206	14
2023-08-16T12:00	8153	367	-26.1	-31.3	205	14
2023-08-16T12:00	8172	366	-26.3	-31.7	204	14
2023-08-16T12:00	8196	365	-26.4	-31.5	203	14
2023-08-16T12:00	8220	364	-26.7	-31.6	202	14
2023-08-16T12:00	8242	363	-26.9	-31.5	201	14
2023-08-16T12:00	8262	362	-27.1	-31.8	200	14
2023-08-16T12:00	8282	361	-27.2	-34.4	199	13
2023-08-16T12:00	8302	360	-27.4	-36.3	198	13
2023-08-16T12:00	8324	359	-27.5	-36.5	198	13
2023-08-16T12:00	8346	357	-27.7	-37.1	198	13
2023-08-16T12:00	8375	356	-28.0	-33.7	199	13
2023-08-16T12:00	8393	355	-28.2	-35.8	199	13
2023-08-16T12:00	8417	354	-28.3	-36.7	200	14
2023-08-16T12:00	8440	353	-28.5	-37.7	201	14
2023-08-16T12:00	8466	352	-28.7	-38.2	203	13
2023-08-16T12:00	8490	350	-28.9	-41.8	205	12
2023-08-16T12:00	8514	349	-29.1	-43.9	207	12
2023-08-16T12:00	8541	348	-29.3	-47.2	209	11
2023-08-16T12:00	8562	347	-29.5	-47.3	210	10
2023-08-16T12:00	8584	346	-29.7	-47.5	210	10
2023-08-16T12:00	8605	345	-29.9	-47.3	210	11
2023-08-16T12:00	8626	344	-30.1	-46.5	210	11
2023-08-16T12:00	8646	343	-30.2	-46.6	210	11
2023-08-16T12:00	8669	342	-30.4	-47.4	211	11
2023-08-16T12:00	8690	341	-30.6	-47.4	211	11
2023-08-16T12:00	8711	340	-30.7	-45.9	212	11
2023-08-16T12:00	8735	339	-31.0	-47.9	212	11
2023-08-16T12:00	8757	338	-31.2	-51.3	211	11
2023-08-16T12:00	8777	337	-31.3	-51.9	211	11
2023-08-16T12:00	8802	335	-31.6	-50.2	211	11
2023-08-16T12:00	8822	334	-31.7	-48.4	210	12
2023-08-16T12:00	8846	333	-31.9	-48.0	210	12
2023-08-16T12:00	8869	332	-32.2	-49.1	210	12
2023-08-16T12:00	8890	331	-32.2	-48.9	210	12
2023-08-16T12:00	8912	330	-32.4	-47.3	209	12
2023-08-16T12:00	8933	329	-32.7	-46.3	209	12
2023-08-16T12:00	8957	328	-32.9	-45.1	209	12
2023-08-16T12:00	8980	327	-33.0	-44.7	209	12
2023-08-16T12:00	9000	326	-33.2	-45.1	208	13
2023-08-16T12:00	9024	325	-33.5	-46.4	208	13
2023-08-16T12:00	9045	324	-33.4	-46.1	208	13
2023-08-16T12:00	9071	323	-33.6	-48.0	207	13
2023-08-16T12:00	9091	322	-33.8	-49.1	207	13
2023-08-16T12:00	9113	321	-33.9	-46.8	206	13
2023-08-16T12:00	9135	320	-34.1	-44.7	205	13
2023-08-16T12:00	9160	319	-34.3	-45.6	204	13
2023-08-16T12:00	9183	318	-34.5	-46.3	203	12
2023-08-16T12:00	9207	317	-34.7	-46.3	202	12
2023-08-16T12:00	9229	316	-34.9	-46.3	201	12
2023-08-16T12:00	9252	315	-35.2	-46.8	200	12
2023-08-16T12:00	9272	314	-35.4	-47.3	200	12
2023-08-16T12:00	9293	313	-35.5	-47.7	200	12
2023-08-16T12:00	9315	312	-35.8	-47.4	200	12
2023-08-16T12:00	9338	311	-35.9	-47.7	200	12
2023-08-16T12:00	9360	310	-36.2	-48.0	200	12
2023-08-16T12:00	9383	309	-36.4	-48.2	199	12
2023-08-16T12:00	9404	308	-36.6	-48.2	199	12
2023-08-16T12:00	9427	307	-36.7	-47.6	199	12
2023-08-16T12:00	9446	306	-36.8	-47.3	200	12
2023-08-16T12:00	9469	305	-36.9	-46.1	202	12
2023-08-16T12:00	9493	304	-37.1	-45.9	205	12
2023-08-16T12:00	9520	303	-37.4		208	12
2023-08-16T12:00	9542	302	-37.6	-47.6	211	12
2023-08-16T12:00	9572	301	-37.8	-48.2	213	13
2023-08-16T12:00	9592	299	-38.0	-48.9	214	13
2023-08-16T12:00	9626	298	-38.3	-48.5	215	13
2023-08-16T12:00	9648	297	-38.5	-48.8	216	12
2023-08-16T12:00	9679	296	-38.8	-48.9	218	12
2023-08-16T12:00	9694	295	-39.0	-50.2	219	12
2023-08-16T12:00	9716	294	-39.1	-52.2	219	12
2023-08-16T12:00	9736	293	-39.2	-51.8	218	12
2023-08-16T12:00	9758	292	-39.3	-51.0	217	11
2023-08-16T12:00	9777	292	-39.5	-51.2	215	11
2023-08-16T12:00	9797	291	-39.7	-52.7	214	11
2023-08-16T12:00	9816	290	-39.8	-54.4	214	11
2023-08-16T12:00	9838	289	-40.0	-54.4	215	12
2023-08-16T12:00	9856	288	-40.1	-53.9	215	12
2023-08-16T12:00	9877	287	-40.3	-54.2	216	12
2023-08-16T12:00	9897	286	-40.5	-54.3	216	11
2023-08-16T12:00	9918	286	-40.6	-54.5	216	11
2023-08-16T12:00	9938	285	-40.7	-55.1	217	11
2023-08-16T12:00	9958	284	-40.9	-54.9	217	11
2023-08-16T12:00	9980	283	-41.1	-55.6	218	11
2023-08-16T12:00	10001	282	-41.2	-55.9	218	11
2023-08-16T12:00	10021	281	-41.3	-56.1	219	11
2023-08-16T12:00	10042	280	-41.5	-56.3	219	11
2023-08-16T12:00	10063	280	-41.7	-56.5	219	11
2023-08-16T12:00	10083	279	-41.8	-56.4	220	10
2023-08-16T12:00	10104	278	-42.0	-56.4	220	10
2023-08-16T12:00	10122	277	-42.2	-56.4	220	10
2023-08-16T12:00	10142	276	-42.4	-56.2	220	10
2023-08-16T12:00	10162	275	-42.6	-56.3	220	10
2023-08-16T12:00	10183	275	-42.8	-56.4	220	10
2023-08-16T12:00	10202	274	-43.0	-56.4	220	10
2023-08-16T12:00	10223	273	-43.2	-56.3	220	10
2023-08-16T12:00	10242	272	-43.3	-56.2	221	10
2023-08-16T12:00	10261	271	-43.4	-56.1	221	10
2023-08-16T12:00	10280	271	-43.5	-55.6	221	10
2023-08-16T12:00	10299	270	-43.7	-56.4	222	10
2023-08-16T12:00	10319	269	-43.9	-57.5	222	10
2023-08-16T12:00	10341	268	-44.1	-58.2	222	10
2023-08-16T12:00	10361	267	-44.4	-58.1	222	10
2023-08-16T12:00	10381	267	-44.4	-58.2	222	11
2023-08-16T12:00	10400	266	-44.6	-58.3	222	10
2023-08-16T12:00	10420	265	-44.8	-58.1	222	10
2023-08-16T12:00	10440	264	-45.0	-58.2	222	10
2023-08-16T12:00	10461	263	-45.1	-57.9	222	10
2023-08-16T12:00	10481	263	-45.2	-57.0	222	10
2023-08-16T12:00	10500	262	-45.4	-56.4	222	11
2023-08-16T12:00	10521	261	-45.6	-56.5	222	11
2023-08-16T12:00	10542	260	-45.6	-56.9	222	11
2023-08-16T12:00	10571	259	-45.9	-57.0	223	11
2023-08-16T12:00	10595	258	-46.1	-57.1	224	11
2023-08-16T12:00	10615	257	-46.4	-57.1	225	11
2023-08-16T12:00	10636	257	-46.6	-57.3	227	10
2023-08-16T12:00	10659	256	-46.6	-57.4	228	10
2023-08-16T12:00	10680	255	-46.6	-56.5	229	10
2023-08-16T12:00	10699	254	-46.8	-55.1	229	10
2023-08-16T12:00	10721	253	-47.0	-54.9	228	10
2023-08-16T12:00	10742	253	-47.2	-55.3	228	10
2023-08-16T12:00	10763	252	-47.4	-55.3	227	10
2023-08-16T12:00	10784	251	-47.6	-55.3	226	10
2023-08-16T12:00	10802	250	-47.8	-55.2	225	10
2023-08-16T12:00	10827	249	-48.0	-54.9	224	10
2023-08-16T12:00	10847	249	-48.2	-54.9	223	10
2023-08-16T12:00	10868	248	-48.3	-55.4	222	10
2023-08-16T12:00	10888	247	-48.4	-56.6	222	10
2023-08-16T12:00	10906	246	-48.7	-57.7	222	10
2023-08-16T12:00	10927	246	-48.9	-58.2	222	11
2023-08-16T12:00	10949	245	-48.9	-58.4	221	11
2023-08-16T12:00	10969	244	-49.2	-58.3	221	10
2023-08-16T12:00	10989	243	-49.2	-58.0	220	10
2023-08-16T12:00	11012	242	-49.3	-58.2	219	10
2023-08-16T12:00	11032	242	-49.4	-58.6	218	10
2023-08-16T12:00	11053	241	-49.5	-59.0	218	10
2023-08-16T12:00	11075	240	-49.6	-59.2	218	10
2023-08-16T12:00	11096	239	-49.7	-59.4	217	10
2023-08-16T12:00	11116	239	-49.9	-59.5	217	10
2023-08-16T12:00	11137	238	-50.1	-59.4	217	10
2023-08-16T12:00	11160	237	-50.3	-59.3	216	10
2023-08-16T12:00	11181	236	-50.5	-59.4	216	10
2023-08-16T12:00	11205	235	-50.6	-59.8	216	10
2023-08-16T12:00	11226	235	-50.7	-60.1	215	10
2023-08-16T12:00	11250	234	-50.9	-60.3	214	10
2023-08-16T12:00	11273	233	-51.1	-60.3	214	10
2023-08-16T12:00	11296	232	-51.3	-60.2	214	10
2023-08-16T12:00	11317	231	-51.5	-60.2	215	10
2023-08-16T12:00	11338	231	-51.6	-60.2	216	10
2023-08-16T12:00	11365	230	-51.7	-60.1	219	10
2023-08-16T12:00	11394	229	-52.0	-60.1	222	10
2023-08-16T12:00	11420	228	-52.4	-60.2	225	10
2023-08-16T12:00	11442	227	-52.6	-60.1	227	10
2023-08-16T12:00	11464	226	-52.7	-60.2	227	10
2023-08-16T12:00	11489	225	-52.9	-60.2	225	10
2023-08-16T12:00	11514	224	-53.2	-60.2	223	9
2023-08-16T12:00	11535	224	-53.3	-60.2	220	9
2023-08-16T12:00	11555	223	-53.4	-60.3	218	9
2023-08-16T12:00	11578	222	-53.5	-60.5	217	9
2023-08-16T12:00	11601	221	-53.7	-60.8	217	9
2023-08-16T12:00	11626	221	-53.8	-60.8	217	10
2023-08-16T12:00	11644	220	-54.1	-61.1	216	10
2023-08-16T12:00	11670	219	-54.1	-61.2	215	10
2023-08-16T12:00	11690	218	-54.3	-61.7	214	10
2023-08-16T12:00	11715	218	-54.3	-62.1	212	11
2023-08-16T12:00	11737	217	-54.7	-63.0	211	11
2023-08-16T12:00	11758	216	-54.9	-63.7	210	11
2023-08-16T12:00	11780	215	-54.9	-64.1	208	11
2023-08-16T12:00	11803	215	-55.1	-64.4	207	11
2023-08-16T12:00	11824	214	-55.3	-64.1	205	11
2023-08-16T12:00	11848	213	-55.3	-63.5	204	12
2023-08-16T12:00	11871	212	-55.4	-63.8	203	12
2023-08-16T12:00	11893	212	-55.4	-64.6	203	12
2023-08-16T12:00	11915	211	-55.5	-65.4	204	12
2023-08-16T12:00	11940	210	-55.5	-65.5	204	13
2023-08-16T12:00	11960	209	-55.7	-65.3	205	13
2023-08-16T12:00	11987	208	-55.9	-64.7	205	14
2023-08-16T12:00	12010	208	-56.2	-64.1	205	14
2023-08-16T12:00	12034	207	-56.2	-63.4	205	14
2023-08-16T12:00	12056	206	-56.1	-62.9	205	14
2023-08-16T12:00	12081	205	-56.2	-63.0	206	14
2023-08-16T12:00	12103	205	-56.2	-63.3	208	13
2023-08-16T12:00	12123	204	-56.2	-63.9	210	13
2023-08-16T12:00	12149	203	-56.3	-65.1	211	13
2023-08-16T12:00	12171	202	-56.3	-66.7	213	13
2023-08-16T12:00	12196	202	-56.2	-67.7	214	13
2023-08-16T12:00	12221	201	-56.4	-68.2	215	13
2023-08-16T12:00	12245	200	-56.5	-68.2	217	13
2023-08-16T12:00	12266	199	-56.6	-68.1	217	13
2023-08-16T12:00	12290	199	-56.9	-68.1	218	13
2023-08-16T12:00	12314	198	-57.1	-68.2	218	13
2023-08-16T12:00	12337	197	-57.1	-68.7	218	13
2023-08-16T12:00	12363	196	-56.9	-69.1	218	13
2023-08-16T12:00	12387	196	-56.8	-69.3	218	13
2023-08-16T12:00	12409	195	-57.0	-69.4	218	13
2023-08-16T12:00	12431	194	-57.2	-69.5	218	13
2023-08-16T12:00	12454	194	-57.2	-69.5	218	13
2023-08-16T12:00	12477	193	-57.3	-69.6	217	13
2023-08-16T12:00	12503	192	-57.6	-70.0	216	13
2023-08-16T12:00	12530	191	-57.6	-70.1	215	13
2023-08-16T12:00	12553	191	-57.8	-70.4	215	13
2023-08-16T12:00	12573	190	-57.8	-70.6	217	13
2023-08-16T12:00	12596	189	-57.8	-70.8	218	13
2023-08-16T12:00	12618	189	-57.8	-71.0	220	13
2023-08-16T12:00	12640	188	-57.7	-71.1	223	13
2023-08-16T12:00	12665	187	-57.5	-71.1	225	13
2023-08-16T12:00	12687	187	-57.3	-71.3	227	13
2023-08-16T12:00	12707	186	-57.3	-71.4	228	13
2023-08-16T12:00	12730	185	-57.4	-71.6	229	13
2023-08-16T12:00	12752	185	-57.5	-71.8	229	13
2023-08-16T12:00	12772	184	-57.4	-71.9	229	12
2023-08-16T12:00	12794	184	-57.3	-72.5	228	12
2023-08-16T12:00	12814	183	-57.0	-73.1	227	12
2023-08-16T12:00	12835	182	-56.7	-73.6	226	11
2023-08-16T12:00	12856	182	-56.6	-73.9	224	11
2023-08-16T12:00	12874	181	-56.7	-74.1	223	11
2023-08-16T12:00	12896	181	-56.5	-73.9	222	11
2023-08-16T12:00	12915	180	-56.4	-73.7	221	11
2023-08-16T12:00	12933	179	-56.4	-73.9	220	11
2023-08-16T12:00	12955	179	-56.0	-74.1	218	11
2023-08-16T12:00	12975	178	-55.7	-74.6	217	11
2023-08-16T12:00	12998	178	-55.5	-75.2	216	10
2023-08-16T12:00	13018	177	-55.3	-75.6	214	10
2023-08-16T12:00	13039	176	-55.3	-76.0	212	10
2023-08-16T12:00	13064	176	-55.2	-76.1	210	10
2023-08-16T12:00	13084	175	-55.0	-76.5	208	11
2023-08-16T12:00	13105	175	-55.2	-77.1	208	11
2023-08-16T12:00	13127	174	-55.1	-77.8	208	12
2023-08-16T12:00	13148	174	-54.8	-78.4	209	12
2023-08-16T12:00	13169	173	-54.3	-78.8	209	12
2023-08-16T12:00	13188	172	-54.1	-78.9	210	13
2023-08-16T12:00	13208	172	-54.1	-78.9	209	13
2023-08-16T12:00	13229	171	-53.8	-78.6	207	13
2023-08-16T12:00	13252	171	-53.4	-78.6	205	13
2023-08-16T12:00	13276	170	-53.1	-78.6	202	13
2023-08-16T12:00	13297	170	-53.0	-78.5	200	14
2023-08-16T12:00	13321	169	-52.8	-77.9	199	15
2023-08-16T12:00	13344	168	-52.7	-77.3	200	15
2023-08-16T12:00	13366	168	-52.4	-76.3	201	16
2023-08-16T12:00	13386	167	-52.4	-76.0	202	17
2023-08-16T12:00	13407	167	-52.7	-75.9	204	17
2023-08-16T12:00	13428	166	-52.7	-76.0	205	17
2023-08-16T12:00	13451	166	-52.7	-76.4	206	18
2023-08-16T12:00	13470	165	-52.7	-76.8	207	18
2023-08-16T12:00	13492	165	-52.6	-77.1	208	18
2023-08-16T12:00	13515	164	-52.6	-77.5	209	18
2023-08-16T12:00	13536	163	-52.7	-78.0	210	18
2023-08-16T12:00	13561	163	-52.6	-78.2	211	18
2023-08-16T12:00	13584	162	-52.3	-78.2	211	18
2023-08-16T12:00	13607	162	-52.2	-78.6	212	18
2023-08-16T12:00	13628	161	-52.1	-78.8	212	17
2023-08-16T12:00	13652	160	-51.9	-78.6	213	17
2023-08-16T12:00	13676	160	-52.1	-78.8	213	17
2023-08-16T12:00	13699	159	-52.1	-78.5	214	16
2023-08-16T12:00	13723	159	-52.1	-78.5	214	16
2023-08-16T12:00	13745	158	-52.0	-78.5	213	16
2023-08-16T12:00	13771	158	-52.1	-78.8	212	16
2023-08-16T12:00	13793	157	-52.1	-78.8	212	16
2023-08-16T12:00	13815	157	-52.1	-79.1	212	17
2023-08-16T12:00	13835	156	-52.0	-79.0	212	17
2023-08-16T12:00	13859	155	-51.9	-78.9	213	17
2023-08-16T12:00	13882	155	-51.7	-78.8	214	17
2023-08-16T12:00	13908	154	-51.7	-78.5	215	17
2023-08-16T12:00	13928	154	-51.7	-78.5	216	17
2023-08-16T12:00	13953	153	-51.8	-78.3	217	17
2023-08-16T12:00	13974	153	-51.9	-78.4	218	17
2023-08-16T12:00	13997	152	-52.0	-78.2	219	16
2023-08-16T12:00	14021	152	-52.0	-78.2	220	16
2023-08-16T12:00	14044	151	-52.1	-78.3	220	16
2023-08-16T12:00	14066	151	-52.2	-78.1	220	16
2023-08-16T12:00	14089	150	-52.3	-78.2	220	16
2023-08-16T12:00	14113	149	-52.2	-77.8	220	16
2023-08-16T12:00	14136	149	-52.2	-77.6	220	16
2023-08-16T12:00	14159	148	-52.2	-77.4	219	15
2023-08-16T12:00	14181	148	-52.2	-77.6	219	15
2023-08-16T12:00	14202	147	-51.7	-77.5	219	14
2023-08-16T12:00	14224	147	-51.3	-77.6	218	14
2023-08-16T12:00	14243	146	-51.3	-77.9	218	14
2023-08-16T12:00	14268	146	-51.3	-78.2	218	14
2023-08-16T12:00	14287	146	-51.4	-78.3	217	14
2023-08-16T12:00	14306	145	-51.3	-78.5	216	13
2023-08-16T12:00	14327	145	-51.3	-78.8	215	13
2023-08-16T12:00	14349	144	-51.4	-78.8	213	13
2023-08-16T12:00	14368	144	-51.4	-79.2	213	14
2023-08-16T12:00	14390	143	-51.4	-79.2	212	14
2023-08-16T12:00	14411	143	-51.5	-79.2	213	14
2023-08-16T12:00	14436	142	-51.7	-79.4	214	14
2023-08-16T12:00	14456	142	-51.9	-79.5	215	14
2023-08-16T12:00	14479	141	-52.1	-79.7	215	13
2023-08-16T12:00	14501	141	-52.2	-79.5	215	13
2023-08-16T12:00	14523	140	-52.3	-79.5	215	13
2023-08-16T12:00	14544	140	-52.3	-79.5	215	14
2023-08-16T12:00	14564	139	-52.5	-79.7	215	14
2023-08-16T12:00	14584	139	-52.5	-79.7	216	14
2023-08-16T12:00	14605	139	-52.6	-79.8	217	14
2023-08-16T12:00	14626	138	-52.9	-79.7	218	14
2023-08-16T12:00	14649	138	-53.1	-79.9	220	14
2023-08-16T12:00	14671	137	-53.2	-79.9	222	14
2023-08-16T12:00	14692	137	-53.4	-79.8	224	14
2023-08-16T12:00	14713	136	-53.5	-79.9	226	15
2023-08-16T12:00	14736	136	-53.6	-80.0	227	15
2023-08-16T12:00	14759	135	-53.8	-80.1	228	15
2023-08-16T12:00	14775	135	-53.8	-80.1	227	15
2023-08-16T12:00	14798	134	-53.8	-80.1	226	14
2023-08-16T12:00	14819	134	-53.8	-80.4	225	14
2023-08-16T12:00	14839	134	-53.6	-80.2	224	14
2023-08-16T12:00	14864	133	-53.5	-80.2	222	14
2023-08-16T12:00	14884	133	-53.7	-80.3	220	14
2023-08-16T12:00	14905	132	-53.8	-80.1	219	13
2023-08-16T12:00	14926	132	-54.1	-80.4	217	13
2023-08-16T12:00	14946	131	-54.1	-80.4	216	13
2023-08-16T12:00	14966	131	-54.1	-80.4	214	13
2023-08-16T12:00	14988	131	-54.1	-80.4	213	13
2023-08-16T12:00	15010	130	-54.1	-80.4	211	13
2023-08-16T12:00	15032	130	-54.1	-80.4	210	13
2023-08-16T12:00	15053	129	-54.2	-80.4	210	14
2023-08-16T12:00	15075	129	-54.3	-80.5	210	14
2023-08-16T12:00	15098	128	-54.4	-80.9	210	15
2023-08-16T12:00	15120	128	-54.3	-80.8	210	15
2023-08-16T12:00	15141	127	-54.0	-80.6	209	15
2023-08-16T12:00	15161	127	-54.0	-80.6	208	15
2023-08-16T12:00	15186	127	-53.9	-80.8	207	15
2023-08-16T12:00	15206	126	-54.0	-80.9	206	15
2023-08-16T12:00	15227	126	-53.8	-80.7	205	16
2023-08-16T12:00	15250	125	-53.6	-80.5	205	16
2023-08-16T12:00	15274	125	-53.7	-80.3	205	16
2023-08-16T12:00	15298	124	-54.0	-80.6	205	16
2023-08-16T12:00	15319	124	-54.2	-80.7	206	16
2023-08-16T12:00	15343	123	-54.4	-80.6	206	16
2023-08-16T12:00	15367	123	-54.6	-80.7	208	16
2023-08-16T12:00	15390	123	-54.7	-80.8	209	16
2023-08-16T12:00	15411	122	-54.9	-80.7	211	16
2023-08-16T12:00	15431	122	-55.0	-80.8	212	16
2023-08-16T12:00	15456	121	-54.9	-80.7	214	15
2023-08-16T12:00	15479	121	-54.9	-80.7	215	15
2023-08-16T12:00	15505	120	-55.1	-80.9	217	15
2023-08-16T12:00	15530	120	-55.2	-81.2	218	15
2023-08-16T12:00	15552	120	-55.1	-81.1	220	14
2023-08-16T12:00	15580	119	-55.0	-81.1	221	14
2023-08-16T12:00	15603	119	-54.8	-81.2	221	14
2023-08-16T12:00	15627	118	-54.4	-80.9	221	14
2023-08-16T12:00	15650	118	-54.3	-80.8	220	14
2023-08-16T12:00	15679	117	-54.4	-80.9	218	14
2023-08-16T12:00	15702	117	-54.6	-81.0	217	14
2023-08-16T12:00	15725	116	-54.7	-81.1	215	14
2023-08-16T12:00	15751	116	-54.9	-81.3	215	14
2023-08-16T12:00	15775	115	-54.9	-81.3	215	15
2023-08-16T12:00	15803	115	-55.1	-81.4	216	15
2023-08-16T12:00	15826	115	-55.1	-81.4	216	15
2023-08-16T12:00	15851	114	-55.0	-81.3	217	16
2023-08-16T12:00	15875	114	-55.2	-81.5	218	16
2023-08-16T12:00	15901	113	-55.3	-81.6	219	16
2023-08-16T12:00	15926	113	-55.2	-81.5	219	15
2023-08-16T12:00	15946	112	-55.3	-81.6	220	15
2023-08-16T12:00	15971	112	-55.2	-81.5	221	15
2023-08-16T12:00	15997	112	-55.2	-81.5	221	15
2023-08-16T12:00	16021	111	-55.3	-81.6	222	14
2023-08-16T12:00	16044	111	-55.4	-81.6	222	14
2023-08-16T12:00	16070	110	-55.5	-81.4	222	14
2023-08-16T12:00	16094	110	-55.7	-81.6	222	14
2023-08-16T12:00	16117	109	-55.8	-81.7	223	14
2023-08-16T12:00	16141	109	-55.9	-81.8	223	13
2023-08-16T12:00	16166	109	-56.0	-81.8	223	13
2023-08-16T12:00	16189	108	-55.8	-82.0	223	13
2023-08-16T12:00	16212	108	-55.7	-81.9	223	14
2023-08-16T12:00	16235	107	-55.7	-81.9	224	14
2023-08-16T12:00	16261	107	-55.7	-81.9	224	14
2023-08-16T12:00	16283	107	-55.8	-82.0	224	14
2023-08-16T12:00	16305	106	-56.0	-82.1	225	15
2023-08-16T12:00	16327	106	-55.9	-82.0	226	15
2023-08-16T12:00	16348	106	-56.0	-82.1	226	15
2023-08-16T12:00	16372	105	-56.2	-82.3	227	14
2023-08-16T12:00	16396	105	-56.0	-82.4	227	13
2023-08-16T12:00	16429	104	-55.6	-82.1	228	12
2023-08-16T12:00	16454	104	-55.4	-82.2	229	11
2023-08-16T12:00	16478	103	-55.4	-82.2	231	11
2023-08-16T12:00	16499	103	-55.3	-82.2	232	10
2023-08-16T12:00	16520	103	-55.2	-82.4	234	10
2023-08-16T12:00	16542	102	-54.9	-82.2	235	10
2023-08-16T12:00	16564	102	-54.8	-82.1	235	11
2023-08-16T12:00	16587	102	-54.7	-82.0	235	11
2023-08-16T12:00	16606	101	-54.7	-82.0	235	11
2023-08-16T12:00	16627	101	-54.9	-82.2	235	11
2023-08-16T12:00	16651	101	-55.0	-82.3	234	12
2023-08-16T12:00	16673	100	-55.0	-81.9	233	12
2023-08-16T12:00	16695	100	-55.3	-82.2	231	12
2023-08-16T12:00	16716	100	-55.5	-82.3	229	12
2023-08-16T12:00	16739	99	-55.4	-82.2	227	11
2023-08-16T12:00	16765	99	-55.5	-82.6	226	11
2023-08-16T12:00	16788	98	-55.3	-82.5	224	10
2023-08-16T12:00	16807	98	-55.3	-82.5	222	10
2023-08-16T12:00	16829	98	-55.4	-82.6	221	10
2023-08-16T12:00	16851	98	-55.6	-82.4	219	10
2023-08-16T12:00	16871	97	-55.6	-82.4	218	10
2023-08-16T12:00	16894	97	-55.7	-82.8	217	10
2023-08-16T12:00	16916	97	-55.7	-82.8	218	10
2023-08-16T12:00	16936	96	-55.5	-82.6	219	10
2023-08-16T12:00	16959	96	-55.2	-82.4	221	9
2023-08-16T12:00	16980	96	-55.4	-82.6	223	9
2023-08-16T12:00	17001	95	-55.6	-82.7	225	9
2023-08-16T12:00	17022	95	-55.5	-83.0	224	9
2023-08-16T12:00	17043	95	-55.4	-82.9	221	9
2023-08-16T12:00	17066	94	-55.5	-83.0	216	9
2023-08-16T12:00	17087	94	-55.0	-82.9	211	9
2023-08-16T12:00	17110	94	-55.0	-82.9	207	10
2023-08-16T12:00	17134	93	-54.9	-82.9	203	10
2023-08-16T12:00	17161	93	-54.8	-82.8	200	11
2023-08-16T12:00	17187	93	-55.0	-82.9	198	11
2023-08-16T12:00	17210	92	-55.2	-82.7	195	11
2023-08-16T12:00	17231	92	-55.3	-82.8	194	12
2023-08-16T12:00	17255	92	-55.6	-83.1	192	12
2023-08-16T12:00	17279	91	-55.6	-83.1	192	13
2023-08-16T12:00	17301	91	-55.6	-83.1	192	13
2023-08-16T12:00	17324	91	-55.7	-83.1	192	13
2023-08-16T12:00	17347	90	-55.5	-83.0	191	13
2023-08-16T12:00	17370	90	-55.5	-83.0	191	13
2023-08-16T12:00	17392	90	-55.6	-83.1	190	13
2023-08-16T12:00	17417	89	-55.7	-83.1	188	13
2023-08-16T12:00	17441	89	-55.7	-83.1	188	12
2023-08-16T12:00	17462	89	-55.6	-83.4	188	12
2023-08-16T12:00	17489	88	-55.3	-83.2	188	12
2023-08-16T12:00	17508	88	-55.1	-83.0	190	11
2023-08-16T12:00	17535	88	-55.3	-83.2	192	11
2023-08-16T12:00	17557	87	-55.3	-83.2	194	11
2023-08-16T12:00	17577	87	-55.4	-82.9	196	10
2023-08-16T12:00	17602	87	-55.5	-83.0	198	10
2023-08-16T12:00	17624	86	-55.4	-82.9	199	10
2023-08-16T12:00	17645	86	-55.5	-83.0	200	11
2023-08-16T12:00	17671	86	-55.6	-83.1	201	11
2023-08-16T12:00	17691	85	-55.5		202	11
2023-08-16T12:00	17715	85	-55.4	-83.3	202	11
2023-08-16T12:00	17738	85	-55.2	-83.1	202	11
2023-08-16T12:00	17763	85	-55.0	-82.9	202	10
2023-08-16T12:00	17785	84	-54.9	-82.9	203	10
2023-08-16T12:00	17805	84	-54.9	-82.9	204	10
2023-08-16T12:00	17830	84	-54.8	-82.8	207	10
2023-08-16T12:00	17852	83	-54.9	-82.9	210	9
2023-08-16T12:00	17876	83	-55.1	-83.0	213	9
2023-08-16T12:00	17898	83	-55.2	-82.7	216	9
2023-08-16T12:00	17921	82	-55.3	-82.8	219	9
2023-08-16T12:00	17945	82	-55.4	-82.9	220	8
2023-08-16T12:00	17969	82	-55.3	-83.2	220	7
2023-08-16T12:00	17991	82	-55.4	-83.3	218	7
2023-08-16T12:00	18011	81	-55.4	-83.3	214	6
2023-08-16T12:00	18035	81	-55.1	-83.4	209	5
2023-08-16T12:00	18061	81	-54.6	-83.0	203	5
2023-08-16T12:00	18082	80	-54.3	-82.8	196	5
2023-08-16T12:00	18103	80	-54.2	-82.7	190	5
2023-08-16T12:00	18127	80	-54.2	-82.7	185	6
2023-08-16T12:00	18149	80	-54.4	-82.9	179	6
2023-08-16T12:00	18172	79	-54.6	-82.6	175	6
2023-08-16T12:00	18191	79	-54.8	-82.8	173	7
2023-08-16T12:00	18216	79	-55.0	-82.9	171	7
2023-08-16T12:00	18235	79	-55.0	-82.6	171	7
2023-08-16T12:00	18256	78	-55.2	-82.7	171	8
2023-08-16T12:00	18279	78	-55.4	-82.9	172	8
2023-08-16T12:00	18303	78	-55.5	-83.0	173	9
2023-08-16T12:00	18325	77	-55.7	-83.1	173	9
2023-08-16T12:00	18348	77	-55.8	-83.2	175	9
2023-08-16T12:00	18374	77	-55.8	-83.2	177	10
2023-08-16T12:00	18396	77	-55.8	-83.2	179	10
2023-08-16T12:00	18421	76	-56.1	-83.4	182	10
2023-08-16T12:00	18444	76	-56.1	-83.4	185	10
2023-08-16T12:00	18472	76	-56.0	-83.4	187	10
2023-08-16T12:00	18495	75	-56.0	-83.4	189	9
2023-08-16T12:00	18519	75	-56.0	-83.4	191	9
2023-08-16T12:00	18546	75	-56.0	-83.4	193	8
2023-08-16T12:00	18569	74	-56.0	-83.4	195	8
2023-08-16T12:00	18596	74	-56.1	-83.4	197	8
2023-08-16T12:00	18622	74	-56.4	-83.7	199	7
2023-08-16T12:00	18648	74	-56.5	-83.7	200	7
2023-08-16T12:00	18675	73	-56.6	-83.8	200	7
2023-08-16T12:00	18697	73	-56.6	-83.8	197	7
2023-08-16T12:00	18724	73	-56.3	-83.9	193	7
2023-08-16T12:00	18752	72	-56.0	-83.7	187	7
2023-08-16T12:00	18775	72	-56.1	-83.8	182	7
2023-08-16T12:00	18801	72	-56.1	-83.8	178	8
2023-08-16T12:00	18829	72	-56.0	-83.7	176	9
2023-08-16T12:00	18852	71	-56.0	-83.7	176	9
2023-08-16T12:00	18878	71	-55.7	-83.5	176	10
2023-08-16T12:00	18907	71	-55.8	-83.6	177	11
2023-08-16T12:00	18931	70	-56.0	-83.7	178	11
2023-08-16T12:00	18958	70	-56.0	-83.7	179	12
2023-08-16T12:00	18981	70	-56.0	-83.7	180	12
2023-08-16T12:00	19012	69	-55.8	-83.6	181	12
2023-08-16T12:00	19035	69	-55.6	-83.8	182	11
2023-08-16T12:00	19061	69	-55.5	-83.7	183	11
2023-08-16T12:00	19088	69	-55.6	-83.8	182	11
2023-08-16T12:00	19115	68	-55.7	-83.9	182	11
2023-08-16T12:00	19140	68	-55.7	-83.9	181	10
2023-08-16T12:00	19164	68	-55.6	-83.8	180	10
2023-08-16T12:00	19190	68	-55.3	-83.6	180	10
2023-08-16T12:00	19215	67	-55.2	-83.5	181	10
2023-08-16T12:00	19237	67	-55.1	-83.4	182	10
2023-08-16T12:00	19262	67	-55.0		185	10
2023-08-16T12:00	19289	67	-55.3	-83.6	187	10
2023-08-16T12:00	19315	66	-55.5		190	11
2023-08-16T12:00	19336	66	-55.6	-83.4	193	11
2023-08-16T12:00	19362	66	-55.8	-83.6	196	10
2023-08-16T12:00	19389	66	-56.0	-83.7	199	10
2023-08-16T12:00	19412	65	-56.0	-83.7	201	9
2023-08-16T12:00	19434	65	-56.0	-83.7	203	8
2023-08-16T12:00	19455	65	-55.8	-83.6	203	7
2023-08-16T12:00	19483	65	-55.8	-83.6	203	7
2023-08-16T12:00	19505	64	-55.8	-83.6	201	6
2023-08-16T12:00	19530	64	-55.7	-83.5	198	5
2023-08-16T12:00	19558	64	-55.8	-83.6	193	4
2023-08-16T12:00	19581	64	-56.0	-83.7	188	4
2023-08-16T12:00	19604	63	-56.0	-83.7	183	3
2023-08-16T12:00	19626	63	-56.0	-83.7	180	3
2023-08-16T12:00	19652	63	-56.2	-83.9	179	3
2023-08-16T12:00	19678	63	-56.3	-83.9	180	4
2023-08-16T12:00	19703	62	-56.2	-83.9	181	4
2023-08-16T12:00	19727	62	-56.1	-83.8	183	4
2023-08-16T12:00	19750	62	-55.9	-83.6	183	4
2023-08-16T12:00	19774	62	-55.8	-83.6	183	5
2023-08-16T12:00	19795	61	-55.9	-83.6	184	5
2023-08-16T12:00	19819	61	-56.0	-83.7	184	5
2023-08-16T12:00	19846	61	-56.0	-83.7	185	5
2023-08-16T12:00	19872	61	-56.0	-83.7	187	4
2023-08-16T12:00	19894	61	-56.1	-83.8	188	4
2023-08-16T12:00	19916	60	-55.8	-83.6	189	4
2023-08-16T12:00	19939	60	-55.8	-83.6	191	3
2023-08-16T12:00	19968	60	-55.8	-83.6	193	3
2023-08-16T12:00	19992	60	-55.8	-83.9	195	3
2023-08-16T12:00	20014	59	-55.8	-83.9	194	4
2023-08-16T12:00	20045	59	-55.6	-83.8	192	4
2023-08-16T12:00	20069	59	-55.7	-83.9	189	4
2023-08-16T12:00	20096	59	-55.9	-84.0	187	5
2023-08-16T12:00	20123	58	-55.7	-83.9	186	5
2023-08-16T12:00	20145	58	-55.4	-83.6	187	5
2023-08-16T12:00	20174	58	-55.3	-83.6	191	5
2023-08-16T12:00	20198	58	-55.2	-83.5	196	5
2023-08-16T12:00	20228	57	-55.2	-83.5	201	5
2023-08-16T12:00	20251	57	-55.2	-83.5	206	5
2023-08-16T12:00	20276	57	-55.3	-83.6	212	5
2023-08-16T12:00	20305	57	-55.4	-83.6	217	5
2023-08-16T12:00	20328	57	-55.3	-83.6	221	5
2023-08-16T12:00	20357	56	-55.3	-83.6	227	4
2023-08-16T12:00	20381	56	-55.4	-83.6	234	4
2023-08-16T12:00	20406	56	-55.4	-83.6	242	3
2023-08-16T12:00	20435	56	-55.4	-83.6	251	2
2023-08-16T12:00	20461	55	-55.5	-83.7	257	1
2023-08-16T12:00	20486	55	-55.3	-83.6	139	0
2023-08-16T12:00	20513	55	-55.1	-83.4	113	1
2023-08-16T12:00	20537	55	-55.0	-83.7	117	2
2023-08-16T12:00	20570	54	-54.9	-83.7	119	3
2023-08-16T12:00	20594	54	-54.9	-83.7	120	4
2023-08-16T12:00	20621	54	-55.0	-83.7	119	5
2023-08-16T12:00	20650	54	-55.0		116	6
2023-08-16T12:00	20672	54	-55.0		113	7
2023-08-16T12:00	20700	53	-55.1	-83.4	111	7
2023-08-16T12:00	20726	53	-55.0		108	8
2023-08-16T12:00	20750	53	-54.9	-83.7	107	8
2023-08-16T12:00	20782	53	-54.8	-83.6	106	8
2023-08-16T12:00	20803	52	-54.6	-83.4	107	8
2023-08-16T12:00	20828	52	-54.6	-83.4	109	8
2023-08-16T12:00	20856	52	-54.5	-83.4	112	8
2023-08-16T12:00	20880	52	-54.5	-83.4	115	8
2023-08-16T12:00	20906	52	-54.6	-83.0	119	8
2023-08-16T12:00	20927	51	-54.9	-83.3	124	8
2023-08-16T12:00	20953	51	-55.0		129	8
2023-08-16T12:00	20976	51	-54.9	-83.3	134	8
2023-08-16T12:00	21002	51	-55.0		138	9
2023-08-16T12:00	21029	51	-55.1	-83.4	143	9
2023-08-16T12:00	21054	50	-55.2	-83.5	147	9
2023-08-16T12:00	21082	50	-55.3	-83.2	152	9
2023-08-16T12:00	21103	50	-55.5		157	9
2023-08-16T12:00	21129	50	-55.6	-83.4	162	10
2023-08-16T12:00	21156	50	-55.5		167	10
2023-08-16T12:00	21181	49	-55.6	-83.4	171	10
2023-08-16T12:00	21203	49	-55.8	-83.6	175	10
2023-08-16T12:00	21227	49	-55.9	-83.6	178	9
2023-08-16T12:00	21254	49	-55.9	-84.0	180	9
2023-08-16T12:00	21279	49	-55.8	-83.9	181	8
2023-08-16T12:00	21303	49	-55.5	-83.7	181	7
2023-08-16T12:00	21325	48	-55.3	-83.6	178	6
2023-08-16T12:00	21352	48	-55.3	-84.0	174	5
2023-08-16T12:00	21378	48	-55.2	-83.9	166	4
2023-08-16T12:00	21408	48	-55.1	-83.8	156	4
2023-08-16T12:00	21431	48	-55.1	-83.4	147	4
2023-08-16T12:00	21457	47	-55.1	-83.4	142	4
2023-08-16T12:00	21481	47	-54.9	-83.3	142	4
2023-08-16T12:00	21507	47	-55.0		144	4
2023-08-16T12:00	21536	47	-55.1	-83.4	148	4
2023-08-16T12:00	21563	47	-55.1	-83.4	152	4
2023-08-16T12:00	21592	46	-55.1	-83.4	154	4
2023-08-16T12:00	21618	46	-55.2	-83.5	155	4
2023-08-16T12:00	21643	46	-55.2	-83.5	154	3
2023-08-16T12:00	21667	46	-55.3	-83.6	151	3
2023-08-16T12:00	21697	46	-55.3	-83.6	146	3
2023-08-16T12:00	21727	45	-55.3	-83.6	138	3
2023-08-16T12:00	21750	45	-55.4	-83.6	128	3
2023-08-16T12:00	21776	45	-55.5	-83.7	118	3
2023-08-16T12:00	21797	45	-55.4	-83.6	111	3
2023-08-16T12:00	21831	45	-55.2	-83.5	108	4
2023-08-16T12:00	21860	44	-55.1	-83.8	107	4
2023-08-16T12:00	21885	44	-55.0	-83.7	109	4
2023-08-16T12:00	21911	44	-55.0	-83.7	113	4
2023-08-16T12:00	21934	44	-55.0		118	4
2023-08-16T12:00	21964	44	-55.0		122	4
2023-08-16T12:00	21994	44	-55.1	-83.4	126	5
2023-08-16T12:00	22014	43	-55.1	-83.4	129	5
2023-08-16T12:00	22041	43	-55.1	-83.4	132	5
2023-08-16T12:00	22072	43	-54.9	-83.7	135	5
2023-08-16T12:00	22098	43	-54.9	-83.7	138	6
2023-08-16T12:00	22125	43	-55.0	-83.7	140	6
2023-08-16T12:00	22151	42	-55.1	-83.4	142	7
2023-08-16T12:00	22176	42	-55.1	-83.4	144	7
2023-08-16T12:00	22205	42	-55.2	-83.5	144	6
2023-08-16T12:00	22232	42	-55.1	-83.4	144	6
2023-08-16T12:00	22254	42	-55.2	-83.5	143	5
2023-08-16T12:00	22284	42	-55.1	-83.8	140	4
2023-08-16T12:00	22304	41	-54.9	-83.7	134	4
2023-08-16T12:00	22333	41	-54.7	-83.5	128	4
2023-08-16T12:00	22360	41	-54.6	-83.4	122	4
2023-08-16T12:00	22383	41	-54.5	-83.4	120	4
2023-08-16T12:00	22410	41	-54.4	-83.3	120	5
2023-08-16T12:00	22432	41	-54.3	-83.2	122	6
2023-08-16T12:00	22460	40	-54.2	-83.1	125	7
2023-08-16T12:00	22490	40	-54.2	-83.1	127	7
2023-08-16T12:00	22511	40	-54.3	-83.2	128	8
2023-08-16T12:00	22540	40	-54.4	-83.3	129	8
2023-08-16T12:00	22561	40	-54.4	-83.3	129	8
2023-08-16T12:00	22588	40	-54.4	-83.3	130	8
2023-08-16T12:00	22613	40	-54.3	-83.2	130	8
2023-08-16T12:00	22638	39	-54.1	-83.1	130	7
2023-08-16T12:00	22669	39	-54.0	-83.0	130	7
2023-08-16T12:00	22694	39	-53.9	-82.9	131	7
2023-08-16T12:00	22717	39	-54.0	-83.0	132	7
2023-08-16T12:00	22740	39	-54.0	-83.0	135	7
2023-08-16T12:00	22766	39	-53.9	-82.9	138	7
2023-08-16T12:00	22794	38	-53.8	-83.3	139	7
2023-08-16T12:00	22822	38	-53.8	-83.3	137	6
2023-08-16T12:00	22846	38	-53.9	-83.3	132	5
2023-08-16T12:00	22868	38	-53.9	-83.3	123	5
2023-08-16T12:00	22901	38	-53.5	-83.0	113	5
2023-08-16T12:00	22923	38	-53.0	-82.7	104	5
2023-08-16T12:00	22951	37	-52.8	-83.0	98	5
2023-08-16T12:00	22979	37	-52.8	-83.0	96	5
2023-08-16T12:00	23003	37	-52.8	-82.5	94	5
2023-08-16T12:00	23030	37	-52.8	-82.5	94	5
2023-08-16T12:00	23054	37	-52.9	-82.6	95	6
2023-08-16T12:00	23082	37	-53.0	-82.7	97	6
2023-08-16T12:00	23114	37	-53.2	-82.8	100	6
2023-08-16T12:00	23138	36	-53.2	-82.8	103	6
2023-08-16T12:00	23167	36	-53.3	-82.9	107	6
2023-08-16T12:00	23196	36	-53.2	-82.8	111	6
2023-08-16T12:00	23226	36	-53.2	-82.8	113	6
2023-08-16T12:00	23249	36	-53.2	-82.8	114	5
2023-08-16T12:00	23279	36	-53.2	-82.8	114	5
2023-08-16T12:00	23312	35	-52.9	-82.6	114	5
2023-08-16T12:00	23337	35	-52.7	-82.4	114	5
2023-08-16T12:00	23366	35	-52.7	-82.4	115	5
2023-08-16T12:00	23393	35	-52.9	-82.6	116	5
2023-08-16T12:00	23427	35	-53.2	-82.8	118	5
2023-08-16T12:00	23457	35	-53.2	-82.4	121	5
2023-08-16T12:00	23485	35	-53.2	-82.4	122	5
2023-08-16T12:00	23511	34	-53.4	-82.5	123	4
2023-08-16T12:00	23550	34	-53.7	-82.8	122	4
2023-08-16T12:00	23572	34	-53.8	-82.8	120	4
2023-08-16T12:00	23604	34	-53.9	-82.9	118	4
2023-08-16T12:00	23631	34	-53.9	-82.9	117	4
2023-08-16T12:00	23661	34	-53.9	-82.9	116	4
2023-08-16T12:00	23691	33	-54.0	-83.0	117	4
2023-08-16T12:00	23720	33	-54.0	-83.0	118	4
2023-08-16T12:00	23753	33	-54.0	-83.0	121	4
2023-08-16T12:00	23784	33	-54.1	-83.1	125	4
2023-08-16T12:00	23803	33	-54.0	-83.0	130	4
2023-08-16T12:00	23840	33	-54.0	-83.0	135	3
2023-08-16T12:00	23871	33	-54.1	-83.1	140	3
2023-08-16T12:00	23901	32	-54.1	-83.1	143	3
2023-08-16T12:00	23924	32	-54.1	-83.1	144	2
2023-08-16T12:00	23954	32	-54.1	-83.1	138	2
2023-08-16T12:00	23981	32	-54.1	-83.1	117	1
2023-08-16T12:00	24011	32	-54.1	-83.1	80	1
2023-08-16T12:00	24040	32	-54.2	-83.1	58	2
2023-08-16T12:00	24073	32	-54.2	-83.1	52	3
2023-08-16T12:00	24097	31	-54.3	-83.2	52	3
2023-08-16T12:00	24129	31	-54.3	-83.2	54	4
2023-08-16T12:00	24150	31	-54.2	-83.1	58	5
2023-08-16T12:00	24188	31	-54.0	-83.4	61	5
2023-08-16T12:00	24209	31	-53.9	-83.3	62	6
2023-08-16T12:00	24242	31	-53.8	-83.3	63	6
2023-08-16T12:00	24274	31	-53.7	-83.2	63	6
2023-08-16T12:00	24299	30	-53.6	-83.1	63	6
2023-08-16T12:00	24325	30	-53.5	-83.0	64	7
2023-08-16T12:00	24358	30	-53.5	-83.0	65	7
2023-08-16T12:00	24380	30	-53.7	-83.2	67	7
2023-08-16T12:00	24413	30	-53.9	-83.3	69	7
2023-08-16T12:00	24443	30	-54.0	-83.0	70	7
2023-08-16T12:00	24471	30	-53.9	-82.9	72	7
2023-08-16T12:00	24508	29	-53.9	-82.9	74	7
2023-08-16T12:00	24527	29	-53.9	-82.9	76	7
2023-08-16T12:00	24563	29	-54.0	-83.0	79	6
2023-08-16T12:00	24592	29	-54.2	-83.1	82	6
2023-08-16T12:00	24618	29	-54.1	-83.1	84	6
2023-08-16T12:00	24647	29	-54.0	-83.4	86	6
2023-08-16T12:00	24681	29	-53.9	-83.3	87	6
2023-08-16T12:00	24707	29	-53.7	-83.2	87	7
2023-08-16T12:00	24730	28	-53.6	-83.1	87	7
2023-08-16T12:00	24770	28	-53.6	-83.1	87	8
2023-08-16T12:00	24797	28	-53.5	-83.0	88	8
2023-08-16T12:00	24822	28	-53.5	-83.0	89	9
2023-08-16T12:00	24858	28	-53.6	-83.1	91	10
2023-08-16T12:00	24888	28	-53.6	-83.1	93	10
2023-08-16T12:00	24915	28	-53.6	-83.1	96	10
2023-08-16T12:00	24942	28	-53.5	-83.0	98	10
2023-08-16T12:00	24976	27	-53.6	-83.1	99	10
2023-08-16T12:00	25000	27	-53.5	-83.0	100	10
2023-08-16T12:00	25032	27	-53.3	-82.9	100	11
2023-08-16T12:00	25061	27	-53.2	-82.8	100	11
2023-08-16T12:00	25095	27	-53.3	-82.9	101	11
2023-08-16T12:00	25118	27	-53.2	-82.8	101	11
2023-08-16T12:00	25151	27	-53.0	-83.1	102	11
2023-08-16T12:00	25173	27	-52.9	-83.1	103	10
2023-08-16T12:00	25209	26	-52.8	-83.0	105	10
2023-08-16T12:00	25236	26	-52.9	-82.6	107	10
2023-08-16T12:00	25262	26	-53.0	-82.7	111	9
2023-08-16T12:00	25290	26	-53.0	-82.7	114	9
2023-08-16T12:00	25317	26	-53.0	-82.7	117	9
2023-08-16T12:00	25350	26	-53.0	-82.7	119	9
2023-08-16T12:00	25378	26	-53.0	-82.7	120	9
2023-08-16T12:00	25406	26	-52.8	-83.0	119	9
2023-08-16T12:00	25433	26	-52.5	-82.8	118	8
2023-08-16T12:00	25467	25	-52.4	-82.7	116	8
2023-08-16T12:00	25491	25	-52.4	-82.7	113	8
2023-08-16T12:00	25521	25	-52.4	-82.7	109	8
2023-08-16T12:00	25548	25	-52.3	-82.6	104	8
2023-08-16T12:00	25573	25	-52.4	-82.7	99	8
2023-08-16T12:00	25597	25	-52.4	-82.7	96	8
2023-08-16T12:00	25634	25	-52.3	-82.6	94	8
2023-08-16T12:00	25660	25	-52.3	-82.6	95	9
2023-08-16T12:00	25689	25	-52.5	-82.3	98	9
2023-08-16T12:00	25722	24	-52.5	-82.3	102	10
2023-08-16T12:00	25745	24	-52.4	-82.2	105	10
2023-08-16T12:00	25781	24	-52.4	-82.2	108	11
2023-08-16T12:00	25805	24	-52.5	-82.3	111	12
2023-08-16T12:00	25843	24	-52.6	-82.4	113	12
2023-08-16T12:00	25861	24	-52.7	-82.4	115	12
2023-08-16T12:00	25899	24	-52.8	-82.5	117	12
2023-08-16T12:00	25924	24	-52.7	-82.9	118	12
2023-08-16T12:00	25952	24	-52.7	-82.9	120	11
2023-08-16T12:00	25983	23	-52.7	-82.9	122	11
2023-08-16T12:00	26009	23	-52.4	-82.7	125	11
2023-08-16T12:00	26038	23	-52.1	-82.5	126	11
2023-08-16T12:00	26067	23	-51.9	-82.3	128	11
2023-08-16T12:00	26095	23	-51.9	-82.3	128	11
2023-08-16T12:00	26130	23	-51.8	-82.2	127	11
2023-08-16T12:00	26157	23	-51.7	-82.7	124	11
2023-08-16T12:00	26197	23	-51.3	-82.4	121	11
2023-08-16T12:00	26222	23	-51.0	-82.2	119	10
2023-08-16T12:00	26250	22	-50.8	-82.0	118	10
2023-08-16T12:00	26281	22	-50.9	-82.1	119	10
2023-08-16T12:00	26313	22	-51.0	-82.2	120	10
2023-08-16T12:00	26336	22	-50.9	-82.1	123	10
2023-08-16T12:00	26369	22	-50.9	-82.1	125	9
2023-08-16T12:00	26403	22	-50.9	-82.1	128	9
2023-08-16T12:00	26430	22	-51.0	-82.2	130	9
2023-08-16T12:00	26457	22	-50.8	-82.0	132	9
2023-08-16T12:00	26488	22	-50.7		132	8
2023-08-16T12:00	26518	22	-50.6	-81.9	132	8
2023-08-16T12:00	26555	21	-50.6	-81.9	130	8
2023-08-16T12:00	26575	21	-50.5	-81.8	127	8
2023-08-16T12:00	26613	21	-50.4	-81.7	124	7
2023-08-16T12:00	26637	21	-50.3	-81.6	119	7
2023-08-16T12:00	26669	21	-50.2		114	6
2023-08-16T12:00	26690	21	-50.1	-82.1	109	6
2023-08-16T12:00	26728	21	-49.9	-81.9	103	6
2023-08-16T12:00	26755	21	-49.6	-81.7	98	6
2023-08-16T12:00	26786	21	-49.5	-81.6	94	6
2023-08-16T12:00	26814	21	-49.2	-81.4	91	7
2023-08-16T12:00	26842	21	-48.9	-81.2	90	8
2023-08-16T12:00	26863	20	-48.7	-81.0	90	8
2023-08-16T12:00	26898	20	-48.6	-81.0	91	9
2023-08-16T12:00	26928	20	-48.4	-80.8	92	9
2023-08-16T12:00	26952	20	-48.3	-80.7	94	10
2023-08-16T12:00	26993	20	-48.2	-80.7	96	10
2023-08-16T12:00	27012	20	-48.2	-80.7	98	10
2023-08-16T12:00	27043	20	-48.2	-80.7	99	10
2023-08-16T12:00	27075	20	-48.2	-80.7	100	10
2023-08-16T12:00	27103	20	-48.2	-80.7	100	10
2023-08-16T12:00	27131	20	-48.1	-80.6	100	10
2023-08-16T12:00	27158	20	-47.8	-80.4	98	9
2023-08-16T12:00	27187	19	-47.5	-80.8	97	9
2023-08-16T12:00	27211	19	-47.4	-80.7	96	8
2023-08-16T12:00	27245	19	-47.2	-80.6	96	8
2023-08-16T12:00	27274	19	-47.0	-80.4	97	8
2023-08-16T12:00	27308	19	-46.9	-80.4	100	8
2023-08-16T12:00	27334	19	-46.9	-80.4	103	8
2023-08-16T12:00	27366	19	-46.7	-80.2	105	8
2023-08-16T12:00	27388	19	-46.6	-80.1	106	8
2023-08-16T12:00	27423	19	-46.5	-80.1	106	8
2023-08-16T12:00	27469	19	-46.4	-80.0	106	8
2023-08-16T12:00	27482	19	-46.3	-79.9	106	8
2023-08-16T12:00	27523	19	-46.3	-79.9	108	8
2023-08-16T12:00	27563	18	-46.4	-80.0	110	8
2023-08-16T12:00	27581	18	-46.4	-80.0	112	8
2023-08-16T12:00	27608	18	-46.5	-79.4	114	8
2023-08-16T12:00	27642	18	-46.6	-79.5	115	8
2023-08-16T12:00	27682	18	-46.7	-79.6	117	8
2023-08-16T12:00	27712	18	-46.8	-79.6	119	8
2023-08-16T12:00	27744	18	-46.9	-79.7	121	9
2023-08-16T12:00	27780	18	-46.9	-79.7	124	9
2023-08-16T12:00	27821	18	-46.9	-79.7	127	9
2023-08-16T12:00	27844	18	-46.8	-79.6	130	9
2023-08-16T12:00	27880	18	-46.7	-79.6	133	8
2023-08-16T12:00	27925	17	-46.5	-79.4	136	8
2023-08-16T12:00	27957	17	-46.5	-79.4	138	7
2023-08-16T12:00	27993	17	-46.7	-79.6	139	7
2023-08-16T12:00	28029	17	-46.8	-79.6	139	6
2023-08-16T12:00	28053	17	-46.7	-80.2	138	5
2023-08-16T12:00	28084	17	-46.5	-80.1	135	5
2023-08-16T12:00	28124	17	-46.4	-80.0	132	4
2023-08-16T12:00	28156	17	-46.3	-79.9	127	4
2023-08-16T12:00	28191	17	-46.2	-79.8	121	3
2023-08-16T12:00	28215	17	-46.0	-79.7	116	3
2023-08-16T12:00	28249	17	-45.8	-79.6	113	3
2023-08-16T12:00	28276	17	-45.6		113	3
2023-08-16T12:00	28302	16	-45.5	-79.3	117	3
2023-08-16T12:00	28331	16	-45.5	-79.3	124	4
2023-08-16T12:00	28360	16	-45.6		132	4
2023-08-16T12:00	28378	16	-45.5	-79.3	138	4
2023-08-16T12:00	28402	16	-45.6		144	4
2023-08-16T12:00	28439	16	-45.7	-79.5	147	4
2023-08-16T12:00	28470	16	-45.8	-79.6	149	4
2023-08-16T12:00	28500	16	-45.8	-79.6	151	4
2023-08-16T12:00	28523	16	-45.7	-79.5	154	3
2023-08-16T12:00	28553	16	-45.6		159	3
2023-08-16T12:00	28584	16	-45.5	-79.3	167	2
2023-08-16T12:00	28606	16	-45.3	-79.9	176	1
2023-08-16T12:00	28650	16	-45.0	-79.7	185	1
2023-08-16T12:00	28679	16	-44.6	-79.4	25	0
2023-08-16T12:00	28700	16	-44.4	-79.3	28	1
2023-08-16T12:00	28730	15	-44.1	-79.0	34	2
2023-08-16T12:00	28753	15	-43.9	-78.9	38	3
2023-08-16T12:00	28781	15	-43.7	-78.8	41	4
2023-08-16T12:00	28809	15	-43.5	-78.6	42	5
2023-08-16T12:00	28831	15	-43.3	-78.5	42	5
2023-08-16T12:00	28865	15	-43.1	-78.3	42	6
2023-08-16T12:00	28891	15	-43.1	-78.3	42	6
2023-08-16T12:00	28917	15	-43.1	-78.3	43	7
2023-08-16T12:00	28952	15	-43.1	-78.3	45	7
2023-08-16T12:00	28981	15	-43.2	-78.4	49	7
2023-08-16T12:00	29002	15	-43.3	-78.5	54	8
2023-08-16T12:00	29030	15	-43.3	-78.5	60	8
2023-08-16T12:00	29056	15	-43.4	-78.5	66	8
2023-08-16T12:00	29096	15	-43.4	-78.5	72	8
2023-08-16T12:00	29121	15	-43.5	-78.6	78	9
2023-08-16T12:00	29144	15	-43.6	-78.7	83	9
2023-08-16T12:00	29181	14	-43.7	-78.8	88	9
2023-08-16T12:00	29206	14	-43.8	-78.8	92	9
2023-08-16T12:00	29234	14	-43.9	-78.9	97	9
2023-08-16T12:00	29262	14	-43.8	-78.8	102	9
2023-08-16T12:00	29297	14	-43.6	-78.7	107	8
2023-08-16T12:00	29341	14	-43.5	-78.6	112	8
2023-08-16T12:00	29365	14	-43.4	-78.5	117	8
2023-08-16T12:00	29401	14	-43.4	-78.5	122	9
2023-08-16T12:00	29422	14	-43.5	-78.6	125	9
2023-08-16T12:00	29456	14	-43.5	-78.6	127	9
2023-08-16T12:00	29480	14	-43.6	-78.7	128	9
2023-08-16T12:00	29525	14	-43.5	-78.6	129	10
2023-08-16T12:00	29567	14	-43.4	-78.5	128	10
2023-08-16T12:00	29600	14	-43.4	-78.5	127	9
2023-08-16T12:00	29619	14	-43.5	-78.6	126	9
2023-08-16T12:00	29662	13	-43.6	-78.7	125	9
2023-08-16T12:00	29697	13	-43.7	-78.8	123	9
2023-08-16T12:00	29719	13	-43.8	-78.8	122	9
2023-08-16T12:00	29763	13	-43.7	-78.8	122	9
2023-08-16T12:00	29778	13	-43.6	-78.7	121	9
2023-08-16T12:00	29825	13	-43.6	-78.7	121	9
2023-08-16T12:00	29868	13	-43.6	-78.7	120	9
2023-08-16T12:00	29898	13	-43.7	-78.8	119	9
2023-08-16T12:00	29938	13	-43.7	-78.8	117	9
2023-08-16T12:00	29955	13	-43.5	-78.6	116	10
2023-08-16T12:00	29990	13	-43.3	-78.5	115	10
2023-08-16T12:00	30025	13	-43.0	-78.3	115	10
2023-08-16T12:00	30049	13	-42.8	-78.9	115	10
2023-08-16T12:00	30082	13	-42.6	-78.8	115	10
2023-08-16T12:00	30113	13	-42.4	-78.7	116	9
2023-08-16T12:00	30137	13	-42.3		117	9
2023-08-16T12:00	30171	12	-42.3		119	8
2023-08-16T12:00	30196	12	-42.4	-78.7	121	7
2023-08-16T12:00	30232	12	-42.5	-77.9	123	7
2023-08-16T12:00	30255	12	-42.6	-78.0	126	6
2023-08-16T12:00	30291	12	-42.7	-78.0	129	6
2023-08-16T12:00	30311	12	-42.6	-78.0	132	6
2023-08-16T12:00	30347	12	-42.4	-78.7	136	6
2023-08-16T12:00	30376	12	-42.0	-78.4	140	6
2023-08-16T12:00	30411	12	-41.7	-78.2	144	5
2023-08-16T12:00	30436	12	-41.6	-78.1	148	5
2023-08-16T12:00	30456	12	-41.6	-78.1	153	5
2023-08-16T12:00	30485	12	-41.5	-78.0	158	4
2023-08-16T12:00	30525	12	-41.4	-77.9	164	3
2023-08-16T12:00	30557	12	-41.5	-78.0	172	3
2023-08-16T12:00	30577	12	-41.6	-78.1	188	2
2023-08-16T12:00	30610	12	-41.7	-78.2	225	1
2023-08-16T12:00	30632	12	-41.8	-78.2	278	1
2023-08-16T12:00	30658	12	-41.7	-78.2	308	2
2023-08-16T12:00	30692	12	-41.4	-77.9	326	2
2023-08-16T12:00	30720	12	-41.1	-77.7	341	2
2023-08-16T12:00	30746	11	-40.9	-77.6	358	2
2023-08-16T12:00	30792	11	-40.9		17	2
2023-08-16T12:00	30813	11	-40.8	-78.5	34	2
2023-08-16T12:00	30829	11	-40.7	-78.4	47	3
2023-08-16T12:00	30872	11	-40.5	-78.3	55	3
2023-08-16T12:00	30899	11	-40.3	-78.1	61	3
2023-08-16T12:00	30936	11	-40.1	-78.0	64	3
2023-08-16T12:00	30965	11	-40.0	-77.9	65	4
2023-08-16T12:00	30990	11	-40.0	-77.9	66	4
2023-08-16T12:00	31015	11	-40.0	-76.9	67	4
2023-08-16T12:00	31038	11	-39.9	-76.9	70	4
2023-08-16T12:00	31062	11	-39.8	-76.8	73	4
2023-08-16T12:00	31096	11	-39.7	-76.7	79	4
2023-08-16T12:00	31142	11	-39.7	-76.7	86	4
2023-08-16T12:00	31147	11	-39.7	-76.7	97	4
2023-08-16T12:00	31182	11	-39.7	-76.7	109	4
2023-08-16T12:00	31200	11	-39.8	-76.8	121	4
2023-08-16T12:00	31264	11	-39.8	-76.8	130	4
2023-08-16T12:00	31273	11	-39.7	-77.7	135	4
2023-08-16T12:00	31292	11	-39.6	-77.6	137	5
2023-08-16T12:00	31327	11	-39.5	-77.6	137	5
2023-08-16T12:00	31365	10	-39.4	-77.5	135	4
2023-08-16T12:00	31382	10	-39.3	-77.4	133	4
2023-08-16T12:00	31419	10	-39.3	-77.4	130	4
2023-08-16T12:00	31445	10	-39.3	-77.4	127	5
2023-08-16T12:00	31489	10	-39.2	-77.3	124	5
2023-08-16T12:00	31510	10	-39.2	-77.3	121	6
2023-08-16T12:00	31546	10	-39.1	-77.3	119	6
2023-08-16T12:00	31567	10	-39.0	-77.2	118	7
2023-08-16T12:00	31605	10	-38.9	-77.1	119	7
2023-08-16T12:00	31642	10	-38.8	-77.1	121	7
2023-08-16T12:00	31666	10	-38.8	-77.1	124	7
2023-08-16T12:00	31697	10	-38.7	-77.0	127	7
2023-08-16T12:00	31727	10	-38.7	-77.0	130	7
2023-08-16T12:00	31761	10	-38.5	-76.9	133	6
2023-08-16T12:00	31789	10	-38.5	-76.9	136	6
2023-08-16T12:00	31809	10	-38.5	-76.9	138	5
2023-08-16T12:00	31860	10	-38.4	-76.8	139	4
2023-08-16T12:00	31893	10	-38.4	-76.8	138	3
2023-08-16T12:00	31911	10	-38.3	-76.7	129	2
2023-08-16T12:00	31946	10	-38.3	-76.7	78	1
2023-08-16T12:00	31983	10	-38.3	-76.7	14	2
2023-08-16T12:00	32002	10	-38.2	-76.6	1	3
2023-08-16T12:00	32039	10	-38.1	-76.6	357	4
2023-08-16T12:00	32069	9	-38.0	-76.5	357	5
2023-08-16T12:00	32092	9	-38.0	-76.5	358	6
2023-08-16T12:00	32144	9	-38.0	-77.6	1	6
2023-08-16T12:00	32150	9	-37.9	-77.6	6	7
2023-08-16T12:00	32184	9	-37.8	-77.5	11	8
2023-08-16T12:00	32232	9	-37.7	-77.4	17	8
2023-08-16T12:00	32275	9	-37.4	-77.2	27	9
2023-08-16T12:00	32286	9	-37.2	-77.1	32	9
2023-08-16T12:00	32324	9	-37.0	-77.0	38	9
2023-08-16T12:00	32369	9	-37.1	-77.0	44	9
2023-08-16T12:00	32393	9	-37.1	-77.0	50	8
2023-08-16T12:00	32412	9	-37.0	-77.0	57	8
2023-08-16T12:00	32445	9	-37.1	-77.0	64	8
2023-08-16T12:00	32491	9	-37.3	-77.2	70	8
2023-08-16T12:00	32504	9	-37.5	-76.2	76	8
2023-08-16T12:00	32531	9	-37.6	-76.2	82	8
2023-08-16T12:00	32562	9	-37.7	-76.3	88	8
2023-08-16T12:00	32599	9	-38.0	-76.5	94	8
2023-08-16T12:00	32619	9	-38.2	-76.6	97	8
2023-08-16T12:00	32639	9	-38.2	-76.6	99	8
2023-08-16T12:00	32686	9	-38.2	-76.6	97	7
2023-08-16T12:00	32702	9	-38.2	-76.6	95	7
2023-08-16T12:00	32735	9	-38.2	-77.8	93	8
2023-08-16T12:00	32771	9	-38.1	-77.7	93	8
2023-08-16T12:00	32774	9	-38.0	-77.6	94	8
2023-08-16T12:00	32823	9	-38.0	-77.6	97	9
2023-08-16T12:00	32847	8	-38.0	-77.6	101	9
2023-08-16T12:00	32867	8	-38.1	-77.7	105	10
2023-08-16T12:00	32888	8	-38.1	-77.7	108	10
2023-08-16T12:00	32916	8	-38.1	-77.7	110	10
2023-08-16T12:00	32932	8	-38.1	-77.7	111	9
2023-08-16T12:00	32963	8	-38.1	-77.7	110	9
2023-08-16T12:00	32982	8	-38.1	-77.7	109	8
2023-08-16T12:00	33012	8	-38.0	-77.6	106	8
2023-08-16T12:00	33038	8	-37.8	-77.5	101	7
2023-08-16T12:00	33076	8	-37.6	-77.4	95	7
2023-08-16T12:00	33093	8	-37.3	-77.2	87	7
2023-08-16T12:00	33118	8	-37.0	-77.0	80	7
2023-08-16T12:00	33163	8	-36.6	-76.7	75	7
2023-08-16T12:00	33190	8	-36.3	-76.5	73	8
2023-08-16T12:00	33230	8	-35.5	-75.9	72	9
2023-08-16T12:00	33252	8	-35.4	-75.8	73	9
2023-08-16T12:00	33293	8	-35.3	-75.8	75	10
2023-08-16T12:00	33303	8	-35.3	-75.8	77	10
2023-08-16T12:00	33332	8	-35.2	-75.7	81	9
2023-08-16T12:00	33362	8	-35.3	-75.8	87	9
2023-08-16T12:00	33397	8	-35.3	-75.8	93	9
2023-08-16T12:00	33409	8	-35.4	-75.8	100	9
2023-08-16T12:00	33443	8	-35.3	-75.8	106	9
2023-08-16T12:00	33468	8	-35.3	-75.8	110	9
2023-08-16T12:00	33514	8	-35.2	-75.7	111	9
2023-08-16T12:00	33541	8	-35.1	-75.6	109	8
2023-08-16T12:00	33557	8	-34.9	-75.5	106	8
2023-08-16T12:00	33586	8	-34.8	-75.4	103	8
2023-08-16T12:00	33607	8	-34.6	-75.3	99	8
2023-08-16T12:00	33636	8	-34.5	-75.2	96	8
2023-08-16T12:00	33695	8	-34.3	-75.1	94	8
2023-08-16T12:00	33725	7	-34.0	-74.9	92	9
2023-08-16T12:00	33745	7	-33.8	-74.7	92	9
2023-08-16T12:00	33775	7	-33.7	-74.7	91	10
2023-08-16T12:00	33804	7	-33.5	-74.5	92	10
2023-08-16T12:00	33833	7	-33.4	-74.5	94	10
2023-08-16T12:00	33856	7	-33.3	-74.4	96	11
2023-08-16T12:00	33908	7	-33.2	-74.3	99	11
2023-08-16T12:00	33914	7	-33.1	-74.3	102	12
2023-08-16T12:00	33953	7	-33.0	-74.2	105	12
2023-08-16T12:00	33978	7	-32.7	-74.0	107	12
2023-08-16T18:00	121	1006	25.9	18.0	43	2
2023-08-16T18:00	148	1003	25.7	17.0	54	2
2023-08-16T18:00	172	1000	25.5	16.6	58	3
2023-08-16T18:00	195	997	25.3		59	3
2023-08-16T18:00	222	994	25.0	16.3	59	4
2023-08-16T18:00	250	991	24.8	16.3	59	4
2023-08-16T18:00	278	988	24.5	16.4	58	4
2023-08-16T18:00	309	984	24.2	16.3	57	4
2023-08-16T18:00	338	981	23.9	16.3	56	5
2023-08-16T18:00	367	978	23.6	16.0	56	5
2023-08-16T18:00	390	975	23.4	16.1	56	5
2023-08-16T18:00	412	973	23.1	16.0	57	5
2023-08-16T18:00	439	970	22.9	16.0	58	5
2023-08-16T18:00	464	967	22.7	15.9	59	5
2023-08-16T18:00	489	964	22.4	15.8	60	5
2023-08-16T18:00	516	961	22.1	15.8	61	5
2023-08-16T18:00	540	959	21.9	15.9	61	5
2023-08-16T18:00	569	956	21.6	15.8	61	5
2023-08-16T18:00	594	953	21.4	15.8	61	5
2023-08-16T18:00	622	950	21.1	15.8	62	5
2023-08-16T18:00	650	947	20.8	15.7	62	5
2023-08-16T18:00	677	944	20.5	15.6	62	5
2023-08-16T18:00	706	941	20.3	15.6	61	5
2023-08-16T18:00	732	938	20.0	15.6	60	5
2023-08-16T18:00	760	935	19.7	15.5	57	5
2023-08-16T18:00	788	932	19.5	15.5	55	5
2023-08-16T18:00	814	929	19.2	15.3	53	5
2023-08-16T18:00	844	926	19.0	14.9	53	5
2023-08-16T18:00	874	923	18.7	14.9	54	5
2023-08-16T18:00	901	920	18.5	14.9	56	5
2023-08-16T18:00	930	916	18.2	14.9	57	5
2023-08-16T18:00	958	914	18.0	14.8	58	5
2023-08-16T18:00	982	911	17.7	14.8	59	5
2023-08-16T18:00	1011	908	17.4	14.7	58	5
2023-08-16T18:00	1039	905	17.2	14.7	58	5
2023-08-16T18:00	1067	902	16.9	14.6	57	4
2023-08-16T18:00	1095	899	16.7	14.6	56	4
2023-08-16T18:00	1125	896	16.4	14.6	56	4
2023-08-16T18:00	1153	893	16.1	14.5	55	3
2023-08-16T18:00	1183	890	16.0	14.1	53	3
2023-08-16T18:00	1211	887	15.7	14.1	50	3
2023-08-16T18:00	1240	884	15.4	14.1	44	2
2023-08-16T18:00	1268	881	15.2	13.7	37	2
2023-08-16T18:00	1294	878	15.3	12.8	29	2
2023-08-16T18:00	1321	875	15.2	12.6	20	1
2023-08-16T18:00	1346	873	15.0	12.4	10	1
2023-08-16T18:00	1374	870	14.8	12.3	358	1
2023-08-16T18:00	1400	867	14.7	12.2	347	1
2023-08-16T18:00	1428	864	14.4	12.1	337	1
2023-08-16T18:00	1455	862	14.2	12.0	326	1
2023-08-16T18:00	1481	859	14.1	11.9	313	1
2023-08-16T18:00	1508	856	13.9	11.7	299	1
2023-08-16T18:00	1537	853	13.7	11.6	289	2
2023-08-16T18:00	1563	851	13.7	11.4	283	2
2023-08-16T18:00	1592	848	13.5	11.2	280	2
2023-08-16T18:00	1620	845	13.3	11.1	278	3
2023-08-16T18:00	1648	842	13.1	10.8	277	3
2023-08-16T18:00	1675	839	12.9	10.6	274	3
2023-08-16T18:00	1701	837	12.7	10.5	270	3
2023-08-16T18:00	1730	834	12.6	10.5	267	3
2023-08-16T18:00	1758	831	12.5	10.2	266	4
2023-08-16T18:00	1789	828	12.3	9.9	267	4
2023-08-16T18:00	1816	825	12.2	9.9	268	5
2023-08-16T18:00	1845	823	12.2	9.4	269	5
2023-08-16T18:00	1871	820	12.0	9.2	269	5
2023-08-16T18:00	1901	817	11.9	8.8	268	5
2023-08-16T18:00	1927	815	11.9	8.7	267	5
2023-08-16T18:00	1954	812	11.9	8.1	264	5
2023-08-16T18:00	1984	809	11.8	8.0	261	6
2023-08-16T18:00	2014	806	11.7	7.5	257	6
2023-08-16T18:00	2042	804	11.8	6.6	254	6
2023-08-16T18:00	2071	801	11.8	6.3	251	6
2023-08-16T18:00	2101	798	11.9	5.7	249	6
2023-08-16T18:00	2128	795	11.9	4.8	248	6
2023-08-16T18:00	2156	793	12.0	4.7	248	6
2023-08-16T18:00	2185	790	11.8	4.2	249	6
2023-08-16T18:00	2215	787	11.6	4.0	251	6
2023-08-16T18:00	2243	785	11.6	3.4	252	6
2023-08-16T18:00	2270	782	11.4	3.4	252	6
2023-08-16T18:00	2299	779	11.5	3.3	251	7
2023-08-16T18:00	2327	777	11.5	2.6	250	7
2023-08-16T18:00	2356	774	11.4	3.4	249	7
2023-08-16T18:00	2385	771	11.2	3.0	247	7
2023-08-16T18:00	2413	769	11.0	2.9	246	7
2023-08-16T18:00	2444	766	10.8	2.8	245	7
2023-08-16T18:00	2471	763	10.5	2.4	243	7
2023-08-16T18:00	2498	761	10.3	2.4	241	7
2023-08-16T18:00	2528	758	10.1	2.3	238	7
2023-08-16T18:00	2558	755	9.8	2.8	236	7
2023-08-16T18:00	2588	753	9.6	2.9	234	7
2023-08-16T18:00	2616	750	9.4	2.2	233	7
2023-08-16T18:00	2644	748	9.4	1.1	233	7
2023-08-16T18:00	2673	745	9.1	2.7	233	8
2023-08-16T18:00	2702	742	8.8	2.9	234	8
2023-08-16T18:00	2731	740	8.6	2.8	233	8
2023-08-16T18:00	2759	737	8.3	2.6	233	8
2023-08-16T18:00	2789	735	8.1	2.3	232	8
2023-08-16T18:00	2819	732	8.0	2.3	231	8
2023-08-16T18:00	2849	729	7.8	1.9	229	8
2023-08-16T18:00	2876	727	7.6	1.8	228	8
2023-08-16T18:00	2902	725	7.3	1.7	227	8
2023-08-16T18:00	2932	722	7.1	1.6	225	8
2023-08-16T18:00	2961	720	6.9	1.9	225	8
2023-08-16T18:00	2990	717	6.7	1.3	224	8
2023-08-16T18:00	3020	714	6.5	0.8	224	9
2023-08-16T18:00	3050	712	6.2	1.1	223	9
2023-08-16T18:00	3079	709	6.0	0.8	223	9
2023-08-16T18:00	3107	707	5.8	0.6	223	9
2023-08-16T18:00	3136	704	5.5	0.6	223	9
2023-08-16T18:00	3167	702	5.2	0.7	224	9
2023-08-16T18:00	3195	699	5.0	0.7	224	9
2023-08-16T18:00	3226	697	4.7	0.6	224	9
2023-08-16T18:00	3256	694	4.5	0.3	224	9
2023-08-16T18:00	3284	692	4.3	0.0	225	9
2023-08-16T18:00	3314	689	4.1	0.5	225	9
2023-08-16T18:00	3342	687	3.9	-0.1	225	9
2023-08-16T18:00	3373	684	3.7	0.1	225	9
2023-08-16T18:00	3400	682	3.5	-0.4	226	9
2023-08-16T18:00	3430	679	3.3	-0.5	226	9
2023-08-16T18:00	3457	677	3.1	-0.7	225	9
2023-08-16T18:00	3486	675	2.8	-1.1	225	9
2023-08-16T18:00	3516	672	2.6	-1.7	225	9
2023-08-16T18:00	3545	670	2.4	-1.6	224	9
2023-08-16T18:00	3573	668	2.2	-1.8	224	9
2023-08-16T18:00	3602	665	2.0	-2.1	223	9
2023-08-16T18:00	3631	663	1.8	-2.3	222	9
2023-08-16T18:00	3661	660	1.7	-2.7	221	9
2023-08-16T18:00	3691	658	1.6	-3.8	220	9
2023-08-16T18:00	3720	655	1.4	-4.4	220	9
2023-08-16T18:00	3748	653	1.2	-4.5	219	9
2023-08-16T18:00	3777	651	1.0	-4.7	219	9
2023-08-16T18:00	3805	649	0.7	-4.9	219	9
2023-08-16T18:00	3837	646	0.4	-4.3	218	9
2023-08-16T18:00	3866	644	0.2	-3.8	218	9
2023-08-16T18:00	3898	641	0.0	-4.5	217	9
2023-08-16T18:00	3929	639	-0.1	-4.7	217	9
2023-08-16T18:00	3960	636	-0.1	-7.2	217	9
2023-08-16T18:00	3990	634	-0.2	-7.2	217	9
2023-08-16T18:00	4019	631	-0.5	-6.4	216	9
2023-08-16T18:00	4051	629	-0.8	-6.1	216	9
2023-08-16T18:00	4084	626	-1.2	-5.3	214	9
2023-08-16T18:00	4115	624	-1.4	-5.1	213	8
2023-08-16T18:00	4148	622	-1.6	-5.4	211	8
2023-08-16T18:00	4176	619	-1.7	-6.7	210	8
2023-08-16T18:00	4208	617	-1.5	-9.2	210	8
2023-08-16T18:00	4239	614	-1.8	-9.3	209	8
2023-08-16T18:00	4270	612	-2.1	-9.4	209	9
2023-08-16T18:00	4301	610	-2.4	-9.6	208	9
2023-08-16T18:00	4334	607	-2.6	-10.0	207	9
2023-08-16T18:00	4366	605	-2.8	-9.7	206	9
2023-08-16T18:00	4397	602	-3.1	-9.4	206	9
2023-08-16T18:00	4428	600	-3.2	-11.3	207	9
2023-08-16T18:00	4458	598	-3.3	-11.6	209	9
2023-08-16T18:00	4489	595	-3.6	-12.1	212	9
2023-08-16T18:00	4521	593	-3.9	-12.1	214	9
2023-08-16T18:00	4557	590	-3.9	-15.5	216	9
2023-08-16T18:00	4585	588	-4.2	-11.7	217	9
2023-08-16T18:00	4616	586	-4.4	-11.8	216	9
2023-08-16T18:00	4650	583	-4.6	-13.2	215	9
2023-08-16T18:00	4682	581	-4.7	-16.2	212	9
2023-08-16T18:00	4716	578	-4.2	-30.7	210	9
2023-08-16T18:00	4749	576	-4.1	-30.9	208	9
2023-08-16T18:00	4782	574	-4.3	-30.0	208	9
2023-08-16T18:00	4813	571	-4.6	-28.9	207	9
2023-08-16T18:00	4849	569	-4.9	-28.9	207	10
2023-08-16T18:00	4881	566	-5.1	-28.5	206	10
2023-08-16T18:00	4915	564	-5.3	-26.2	205	10
2023-08-16T18:00	4946	562	-5.5		204	10
2023-08-16T18:00	4976	560	-5.7	-19.2	204	10
2023-08-16T18:00	5007	557	-6.1	-17.1	205	10
2023-08-16T18:00	5039	555	-6.5	-14.0	205	10
2023-08-16T18:00	5070	553	-6.8	-13.1	206	10
2023-08-16T18:00	5101	551	-7.0	-13.7	205	10
2023-08-16T18:00	5131	548	-7.2	-11.6	204	10
2023-08-16T18:00	5164	546	-7.5	-12.4	203	10
2023-08-16T18:00	5191	544	-7.6	-15.8	201	10
2023-08-16T18:00	5224	542	-7.8	-17.6	200	10
2023-08-16T18:00	5254	540	-7.8	-29.2	198	9
2023-08-16T18:00	5285	538	-7.9	-31.3	197	9
2023-08-16T18:00	5314	536	-8.0	-31.5	195	9
2023-08-16T18:00	5344	534	-8.1	-32.5	194	9
2023-08-16T18:00	5371	532	-8.2	-32.1	193	9
2023-08-16T18:00	5400	530	-8.4	-32.3	193	8
2023-08-16T18:00	5426	528	-8.7	-30.9	192	8
2023-08-16T18:00	5455	526	-8.9	-23.6	191	8
2023-08-16T18:00	5483	524	-8.6	-35.6	190	8
2023-08-16T18:00	5512	522	-8.7	-36.1	190	8
2023-08-16T18:00	5538	521	-8.5	-36.9	191	8
2023-08-16T18:00	5566	519	-8.5	-36.2	192	8
2023-08-16T18:00	5595	517	-8.7	-36.1	193	8
2023-08-16T18:00	5622	515	-8.9	-35.7	194	8
2023-08-16T18:00	5651	513	-9.2	-35.6	195	8
2023-08-16T18:00	5678	511	-9.3	-35.7	195	8
2023-08-16T18:00	5706	509	-9.4	-36.5	196	8
2023-08-16T18:00	5734	508	-9.4	-37.6	198	7
2023-08-16T18:00	5760	506	-9.3	-38.5	201	7
2023-08-16T18:00	5787	504	-9.4	-38.6	204	7
2023-08-16T18:00	5814	502	-9.5	-38.8	208	7
2023-08-16T18:00	5840	501	-9.7	-39.0	212	7
2023-08-16T18:00	5868	499	-9.9	-39.1	216	8
2023-08-16T18:00	5894	497	-10.0	-39.2	220	8
2023-08-16T18:00	5923	495	-10.2	-39.2	223	8
2023-08-16T18:00	5951	493	-10.4	-39.5	225	7
2023-08-16T18:00	5973	492	-10.6	-39.2	227	7
2023-08-16T18:00	5993	491	-10.6		227	7
2023-08-16T18:00	6013	489	-10.8	-37.3	227	7
2023-08-16T18:00	6036	488	-11.0	-36.8	225	7
2023-08-16T18:00	6066	486	-11.2	-36.8	224	7
2023-08-16T18:00	6089	485	-11.4	-37.3	222	8
2023-08-16T18:00	6116	483	-11.6	-37.8	220	8
2023-08-16T18:00	6135	482	-11.8	-38.1	218	9
2023-08-16T18:00	6159	480	-11.9	-38.9	216	9
2023-08-16T18:00	6186	479	-12.1	-40.7	214	8
2023-08-16T18:00	6205	477	-12.2	-40.5	212	8
2023-08-16T18:00	6226	476	-12.4	-38.8	211	8
2023-08-16T18:00	6252	474	-12.4	-37.9	210	8
2023-08-16T18:00	6285	472	-12.7	-37.8	211	8
2023-08-16T18:00	6315	471	-12.8	-37.9	213	8
2023-08-16T18:00	6344	469	-13.0	-38.3	214	9
2023-08-16T18:00	6371	467	-13.2	-38.2	215	9
2023-08-16T18:00	6398	465	-13.5	-37.3	215	9
2023-08-16T18:00	6430	464	-13.8	-35.6	213	9
2023-08-16T18:00	6460	462	-14.0	-37.5	210	9
2023-08-16T18:00	6487	460	-14.2	-37.1	206	9
2023-08-16T18:00	6523	458	-14.5	-35.2	204	9
2023-08-16T18:00	6550	456	-14.8	-33.9	203	8
2023-08-16T18:00	6580	454	-15.0	-34.6	203	8
2023-08-16T18:00	6608	453	-15.3	-35.5	204	8
2023-08-16T18:00	6635	451	-15.5	-35.3	207	8
2023-08-16T18:00	6657	450	-15.7	-36.7	210	8
2023-08-16T18:00	6690	448	-15.7	-41.5	214	8
2023-08-16T18:00	6721	446	-16.0	-41.9	218	7
2023-08-16T18:00	6748	444	-16.3	-41.9	221	7
2023-08-16T18:00	6778	443	-16.5	-43.2	222	7
2023-08-16T18:00	6806	441	-16.7	-43.6	222	7
2023-08-16T18:00	6833	439	-16.9	-43.8	220	7
2023-08-16T18:00	6865	438	-17.2	-44.3	217	7
2023-08-16T18:00	6887	436	-17.4	-44.6	214	7
2023-08-16T18:00	6918	435	-17.6	-45.1	212	7
2023-08-16T18:00	6945	433	-17.9	-45.5	212	8
2023-08-16T18:00	6975	431	-18.1	-45.5	213	8
2023-08-16T18:00	7000	430	-18.4	-45.7	215	8
2023-08-16T18:00	7027	428	-18.5	-45.7	217	8
2023-08-16T18:00	7058	426	-18.8	-45.5	219	8
2023-08-16T18:00	7090	425	-18.9	-45.0	220	8
2023-08-16T18:00	7120	423	-19.2	-45.1	222	7
2023-08-16T18:00	7151	421	-19.5	-45.1	225	7
2023-08-16T18:00	7183	419	-19.8	-45.1	228	7
2023-08-16T18:00	7214	418	-20.0	-44.5	230	7
2023-08-16T18:00	7244	416	-20.0	-42.9	233	7
2023-08-16T18:00	7276	414	-20.2	-42.3	234	7
2023-08-16T18:00	7306	412	-20.4	-40.8	235	7
2023-08-16T18:00	7333	411	-20.7	-34.9	236	8
2023-08-16T18:00	7364	409	-21.0	-31.9	237	8
2023-08-16T18:00	7395	407	-21.2	-31.8	238	8
2023-08-16T18:00	7422	406	-21.3	-30.4	239	8
2023-08-16T18:00	7447	405	-21.4	-27.1	239	8
2023-08-16T18:00	7475	403	-21.7	-27.1	238	8
2023-08-16T18:00	7506	401	-21.9	-26.9	237	7
2023-08-16T18:00	7530	400	-22.1	-26.8	235	7
2023-08-16T18:00	7553	399	-22.3	-26.6	232	7
2023-08-16T18:00	7579	397	-22.6	-26.7	228	6
2023-08-16T18:00	7610	396	-22.8	-26.7	224	6
2023-08-16T18:00	7634	394	-23.1	-26.9	220	6
2023-08-16T18:00	7662	393	-23.3	-27.0	218	6
2023-08-16T18:00	7684	392	-23.4	-27.0	217	6
2023-08-16T18:00	7713	390	-23.6	-27.4	217	6
2023-08-16T18:00	7735	389	-23.8	-27.6	217	7
2023-08-16T18:00	7759	388	-24.0	-27.9	216	7
2023-08-16T18:00	7783	386	-24.2	-28.8	214	7
2023-08-16T18:00	7807	385	-24.4	-31.3	213	7
2023-08-16T18:00	7831	384	-24.5	-34.6	212	7
2023-08-16T18:00	7858	382	-24.7	-38.6	213	7
2023-08-16T18:00	7885	381	-24.8	-47.6	214	8
2023-08-16T18:00	7913	379	-24.8	-51.6	215	8
2023-08-16T18:00	7947	378	-24.8	-48.5	216	8
2023-08-16T18:00	7975	376	-24.9	-50.2	218	9
2023-08-16T18:00	8000	375	-25.1		219	9
2023-08-16T18:00	8023	374	-25.2	-45.7	221	9
2023-08-16T18:00	8051	372	-25.4	-42.8	223	9
2023-08-16T18:00	8071	371	-25.7	-43.0	224	9
2023-08-16T18:00	8101	370	-25.9	-39.5	225	9
2023-08-16T18:00	8129	368	-26.2	-38.5	226	9
2023-08-16T18:00	8155	367	-26.4	-37.2	227	9
2023-08-16T18:00	8178	366	-26.6	-36.6	227	9
2023-08-16T18:00	8204	365	-26.9	-37.4	226	9
2023-08-16T18:00	8226	364	-27.1	-35.3	226	9
2023-08-16T18:00	8249	362	-27.3	-34.7	225	9
2023-08-16T18:00	8272	361	-27.5	-34.4	225	9
2023-08-16T18:00	8295	360	-27.7	-33.2	226	9
2023-08-16T18:00	8317	359	-27.9	-34.1	226	9
2023-08-16T18:00	8347	357	-28.2	-33.1	227	9
2023-08-16T18:00	8378	356	-28.5	-32.9	227	9
2023-08-16T18:00	8402	355	-28.6	-32.9	226	9
2023-08-16T18:00	8427	353	-28.8	-33.3	224	9
2023-08-16T18:00	8453	352	-29.0	-34.7	222	9
2023-08-16T18:00	8481	351	-29.2	-33.9	222	10
2023-08-16T18:00	8503	350	-29.4	-34.1	222	10
2023-08-16T18:00	8528	348	-29.6	-34.8	224	10
2023-08-16T18:00	8559	347	-29.8	-35.1	226	10
2023-08-16T18:00	8596	345	-30.1	-35.1	229	10
2023-08-16T18:00	8622	344	-30.4	-35.3	231	10
2023-08-16T18:00	8652	343	-30.7	-35.3	231	10
2023-08-16T18:00	8678	341	-30.9	-35.2	231	10
2023-08-16T18:00	8703	340	-31.1	-35.3	230	9
2023-08-16T18:00	8729	339	-31.2	-35.7	229	9
2023-08-16T18:00	8757	337	-31.4	-35.4	228	9
2023-08-16T18:00	8784	336	-31.6	-35.3	228	9
2023-08-16T18:00	8822	335	-31.8	-35.1	229	9
2023-08-16T18:00	8849	333	-32.1	-35.3	232	8
2023-08-16T18:00	8880	332	-32.4	-35.3	235	8
2023-08-16T18:00	8914	330	-32.6	-35.3	238	8
2023-08-16T18:00	8947	329	-32.9	-35.7	242	9
2023-08-16T18:00	8973	327	-33.0	-36.5	244	9
2023-08-16T18:00	9008	326	-33.1	-37.5	245	9
2023-08-16T18:00	9037	324	-33.4	-37.6	245	9
2023-08-16T18:00	9067	323	-33.6	-37.6	246	9
2023-08-16T18:00	9102	321	-34.0	-37.8	247	9
2023-08-16T18:00	9130	320	-34.2	-38.2	249	9
2023-08-16T18:00	9158	319	-34.4	-38.2	252	9
2023-08-16T18:00	9181	318	-34.6	-38.8	254	10
2023-08-16T18:00	9212	316	-34.8	-38.9	256	10
2023-08-16T18:00	9242	315	-35.1	-39.0	256	9
2023-08-16T18:00	9277	313	-35.3	-38.9	256	9
2023-08-16T18:00	9311	312	-35.6	-39.6	254	9
2023-08-16T18:00	9341	311	-35.8	-39.6	253	9
2023-08-16T18:00	9365	309	-36.0	-39.5	252	8
2023-08-16T18:00	9394	308	-36.3	-39.6	252	8
2023-08-16T18:00	9418	307	-36.5	-39.7	252	8
2023-08-16T18:00	9444	306	-36.7	-39.8	252	8
2023-08-16T18:00	9468	305	-36.9	-39.9	252	8
2023-08-16T18:00	9497	304	-37.2	-40.1	253	8
2023-08-16T18:00	9526	302	-37.5	-40.4	255	8
2023-08-16T18:00	9559	301	-37.8	-40.5	257	8
2023-08-16T18:00	9589	300	-38.1	-40.9	259	8
2023-08-16T18:00	9620	298	-38.3	-41.5	260	8
2023-08-16T18:00	9646	297	-38.6	-41.4	259	7
2023-08-16T18:00	9678	296	-38.9	-41.5	258	7
2023-08-16T18:00	9707	295	-39.1	-41.6	257	7
2023-08-16T18:00	9733	293	-39.4	-41.8	256	7
2023-08-16T18:00	9758	292	-39.6	-41.8	256	7
2023-08-16T18:00	9782	291	-39.9	-42.0	255	7
2023-08-16T18:00	9807	290	-40.1	-42.5	255	7
2023-08-16T18:00	9836	289	-40.4	-42.6	253	7
2023-08-16T18:00	9870	288	-40.6		252	7
2023-08-16T18:00	9899	286	-40.8	-43.9	249	7
2023-08-16T18:00	9932	285	-41.0	-44.2	247	7
2023-08-16T18:00	9957	284	-41.2	-45.0	246	7
2023-08-16T18:00	9984	283	-41.3	-46.4	245	7
2023-08-16T18:00	10010	282	-41.2	-47.9	244	7
2023-08-16T18:00	10040	280	-41.3	-48.4	244	7
2023-08-16T18:00	10072	279	-41.5	-48.2	245	6
2023-08-16T18:00	10094	278	-41.7	-47.9	247	6
2023-08-16T18:00	10120	277	-42.0	-47.6	249	6
2023-08-16T18:00	10142	276	-42.2	-47.5	251	6
2023-08-16T18:00	10165	275	-42.4	-47.6	253	6
2023-08-16T18:00	10189	274	-42.6	-47.9	254	6
2023-08-16T18:00	10215	273	-42.7	-48.5	255	7
2023-08-16T18:00	10245	272	-42.9	-49.2	257	7
2023-08-16T18:00	10270	271	-42.9	-50.0	259	7
2023-08-16T18:00	10294	270	-43.1	-50.1	262	7
2023-08-16T18:00	10317	269	-43.2	-50.1	265	7
2023-08-16T18:00	10340	268	-43.4	-50.2	268	7
2023-08-16T18:00	10361	267	-43.6	-50.5	270	7
2023-08-16T18:00	10383	267	-43.7		271	7
2023-08-16T18:00	10404	266	-43.8	-51.5	273	8
2023-08-16T18:00	10429	265	-44.0	-51.4	273	8
2023-08-16T18:00	10453	264	-44.3	-51.5	273	8
2023-08-16T18:00	10476	263	-44.5	-51.6	273	8
2023-08-16T18:00	10499	262	-44.7	-51.8	272	8
2023-08-16T18:00	10523	261	-44.9	-52.0	270	8
2023-08-16T18:00	10551	260	-45.2	-53.1	268	8
2023-08-16T18:00	10573	259	-45.3	-53.7	266	8
2023-08-16T18:00	10595	258	-45.4	-53.9	266	8
2023-08-16T18:00	10617	257	-45.6	-53.7	267	8
2023-08-16T18:00	10642	256	-45.9	-53.7	267	8
2023-08-16T18:00	10664	256	-46.1	-53.7	268	8
2023-08-16T18:00	10688	255	-46.3	-53.6	268	8
2023-08-16T18:00	10710	254	-46.5	-53.7	268	8
2023-08-16T18:00	10731	253	-46.7	-53.7	267	8
2023-08-16T18:00	10753	252	-47.0	-53.8	267	9
2023-08-16T18:00	10778	251	-47.2	-53.9	267	9
2023-08-16T18:00	10799	250	-47.3	-54.0	267	9
2023-08-16T18:00	10820	250	-47.5	-54.5	268	8
2023-08-16T18:00	10843	249	-47.6	-55.3	269	8
2023-08-16T18:00	10865	248	-47.7	-56.2	269	8
2023-08-16T18:00	10888	247	-47.9	-56.7	270	8
2023-08-16T18:00	10908	246	-48.0	-56.8	270	9
2023-08-16T18:00	10934	245	-48.2	-57.0	271	9
2023-08-16T18:00	10958	245	-48.4	-57.1	272	9
2023-08-16T18:00	10981	244	-48.6	-57.2	274	9
2023-08-16T18:00	11002	243	-48.8	-58.1	275	10
2023-08-16T18:00	11032	242	-48.8	-59.0	277	10
2023-08-16T18:00	11057	241	-49.0	-59.6	278	10
2023-08-16T18:00	11081	240	-49.2	-59.6	279	10
2023-08-16T18:00	11100	239	-49.4	-59.4	279	10
2023-08-16T18:00	11121	238	-49.6	-59.2	280	10
2023-08-16T18:00	11143	238	-49.8	-59.1	280	11
2023-08-16T18:00	11167	237	-50.0	-59.3	280	11
2023-08-16T18:00	11186	236	-50.2	-59.6	280	11
2023-08-16T18:00	11208	235	-50.4	-60.3	279	11
2023-08-16T18:00	11232	234	-50.5	-60.4	278	11
2023-08-16T18:00	11251	234	-50.7	-60.3	277	11
2023-08-16T18:00	11273	233	-50.9	-60.2	277	11
2023-08-16T18:00	11294	232	-51.1	-60.1	277	11
2023-08-16T18:00	11315	231	-51.3	-60.2	278	11
2023-08-16T18:00	11335	231	-51.4	-60.1	279	11
2023-08-16T18:00	11356	230	-51.6	-60.2	279	11
2023-08-16T18:00	11379	229	-51.8	-60.2	281	11
2023-08-16T18:00	11398	229	-52.0	-60.3	281	12
2023-08-16T18:00	11419	228	-52.1	-60.4	282	12
2023-08-16T18:00	11439	227	-52.2	-60.4	282	12
2023-08-16T18:00	11460	226	-52.3	-60.5	283	13
2023-08-16T18:00	11483	226	-52.5	-60.6	283	13
2023-08-16T18:00	11505	225	-52.7	-60.6	284	13
2023-08-16T18:00	11524	224	-52.9	-60.6	284	12
2023-08-16T18:00	11549	223	-53.1	-60.7	284	12
2023-08-16T18:00	11571	222	-53.3	-60.7	284	12
2023-08-16T18:00	11591	222	-53.4	-60.5	284	12
2023-08-16T18:00	11614	221	-53.5	-60.2	283	12
2023-08-16T18:00	11634	220	-53.7	-60.2	283	12
2023-08-16T18:00	11657	219	-53.9	-60.5	283	12
2023-08-16T18:00	11684	219	-54.2	-61.0	283	12
2023-08-16T18:00	11711	218	-54.4	-61.4	284	12
2023-08-16T18:00	11738	217	-54.5	-61.5	284	12
2023-08-16T18:00	11761	216	-54.7	-61.5	285	12
2023-08-16T18:00	11783	215	-54.9	-61.3	285	12
2023-08-16T18:00	11805	215	-55.1	-61.0	285	13
2023-08-16T18:00	11827	214	-55.3	-60.8	286	13
2023-08-16T18:00	11851	213	-55.5	-60.7	286	13
2023-08-16T18:00	11873	212	-55.7	-60.8	286	13
2023-08-16T18:00	11895	211	-56.0	-61.1	286	13
2023-08-16T18:00	11921	211	-56.1	-61.1	285	13
2023-08-16T18:00	11939	210	-56.3	-61.2	285	13
2023-08-16T18:00	11960	209	-56.5	-61.4	284	13
2023-08-16T18:00	11980	209	-56.7	-61.5	284	14
2023-08-16T18:00	12004	208	-56.9	-61.7	284	14
2023-08-16T18:00	12025	207	-57.1	-61.7	284	14
2023-08-16T18:00	12051	206	-57.3	-61.8	284	14
2023-08-16T18:00	12081	205	-57.5	-61.9	284	14
2023-08-16T18:00	12105	205	-57.7	-61.9	283	14
2023-08-16T18:00	12131	204	-57.9	-62.0	282	14
2023-08-16T18:00	12153	203	-58.1	-62.1	278	13
2023-08-16T18:00	12182	202	-58.3	-62.6	273	12
2023-08-16T18:00	12213	201	-58.3	-63.5	267	11
2023-08-16T18:00	12245	200	-57.1	-64.0	261	11
2023-08-16T18:00	12264	199	-57.0	-65.7	256	10
2023-08-16T18:00	12290	199	-56.7	-66.8	253	10
2023-08-16T18:00	12313	198	-56.6	-67.4	252	10
2023-08-16T18:00	12339	197	-56.7	-67.7	251	10
2023-08-16T18:00	12366	196	-56.9	-67.6	251	10
2023-08-16T18:00	12390	196	-57.1	-67.5	250	10
2023-08-16T18:00	12417	195	-57.3	-67.2	250	10
2023-08-16T18:00	12445	194	-57.5	-67.1	250	10
2023-08-16T18:00	12469	193	-57.7	-66.9	251	11
2023-08-16T18:00	12492	192	-57.8	-66.7	250	11
2023-08-16T18:00	12515	192	-58.0	-66.6	250	11
2023-08-16T18:00	12541	191	-58.1	-66.8	248	11
2023-08-16T18:00	12563	190	-58.2	-67.6	247	12
2023-08-16T18:00	12589	190	-58.0	-68.9	246	12
2023-08-16T18:00	12609	189	-57.1	-70.3	245	12
2023-08-16T18:00	12633	188	-56.5	-71.8	245	12
2023-08-16T18:00	12656	188	-56.2	-72.5	245	12
2023-08-16T18:00	12679	187	-56.2	-72.9	245	12
2023-08-16T18:00	12700	186	-56.1	-73.1	244	11
2023-08-16T18:00	12730	185	-56.1	-73.7	242	11
2023-08-16T18:00	12762	184	-55.9	-74.1	238	10
2023-08-16T18:00	12788	184	-55.8	-74.6	233	10
2023-08-16T18:00	12814	183	-55.7	-75.1	227	10
2023-08-16T18:00	12843	182	-55.4	-75.3	223	10
2023-08-16T18:00	12870	181	-55.6	-75.4	219	10
2023-08-16T18:00	12899	180	-55.8	-75.6	215	10
2023-08-16T18:00	12924	180	-55.7	-75.5	212	10
2023-08-16T18:00	12946	179	-55.7	-75.8	210	10
2023-08-16T18:00	12968	179	-55.6	-76.0	210	10
2023-08-16T18:00	12990	178	-55.3	-76.1	210	11
2023-08-16T18:00	13014	177	-55.2	-76.5	211	11
2023-08-16T18:00	13038	177	-54.8	-76.8	213	11
2023-08-16T18:00	13059	176	-54.0	-76.7	214	11
2023-08-16T18:00	13081	175	-53.6	-77.1	215	11
2023-08-16T18:00	13103	175	-53.5	-77.4	215	11
2023-08-16T18:00	13127	174	-53.2	-77.1	214	11
2023-08-16T18:00	13150	174	-53.3	-77.4	213	10
2023-08-16T18:00	13174	173	-53.5	-77.4	212	10
2023-08-16T18:00	13194	172	-53.7	-77.5	211	10
2023-08-16T18:00	13220	172	-53.9	-77.5	210	10
2023-08-16T18:00	13241	171	-54.1	-77.7	209	10
2023-08-16T18:00	13266	170	-54.3	-77.7	208	10
2023-08-16T18:00	13291	170	-54.5	-77.6	208	9
2023-08-16T18:00	13316	169	-54.8	-77.7	210	9
2023-08-16T18:00	13344	168	-55.0	-77.7	212	9
2023-08-16T18:00	13375	168	-55.3	-77.8	215	9
2023-08-16T18:00	13395	167	-55.5	-77.8	217	8
2023-08-16T18:00	13420	166	-55.7	-77.8	218	8
2023-08-16T18:00	13443	166	-55.9	-77.8	218	9
2023-08-16T18:00	13465	165	-56.0	-78.2	218	9
2023-08-16T18:00	13486	165	-55.8	-78.7	218	10
2023-08-16T18:00	13523	164	-55.2	-79.1	219	11
2023-08-16T18:00	13553	163	-55.0	-79.8	222	12
2023-08-16T18:00	13583	162	-55.1	-80.6	225	13
2023-08-16T18:00	13607	162	-54.9	-81.0	228	14
2023-08-16T18:00	13629	161	-54.8	-81.2	230	15
2023-08-16T18:00	13648	161	-54.6	-81.3	232	15
2023-08-16T18:00	13668	160	-54.3	-81.4	233	15
2023-08-16T18:00	13689	159	-54.0	-81.5	235	14
2023-08-16T18:00	13708	159	-53.2	-81.2	235	14
2023-08-16T18:00	13728	159	-52.9	-81.0	236	14
2023-08-16T18:00	13751	158	-53.0	-81.4	237	14
2023-08-16T18:00	13771	157	-52.8	-81.3	238	14
2023-08-16T18:00	13791	157	-52.5	-81.0	238	15
2023-08-16T18:00	13812	156	-52.4	-81.0	239	15
2023-08-16T18:00	13833	156	-52.4	-80.6	239	15
2023-08-16T18:00	13855	155	-52.3	-80.9	239	15
2023-08-16T18:00	13875	155	-52.0	-80.7	239	15
2023-08-16T18:00	13897	154	-52.0	-80.7	238	15
2023-08-16T18:00	13919	154	-51.6	-80.0	237	14
2023-08-16T18:00	13942	153	-51.7	-80.1	235	13
2023-08-16T18:00	13967	153	-51.8	-80.1	233	13
2023-08-16T18:00	13989	152	-51.7	-80.4	230	12
2023-08-16T18:00	14012	152	-51.5	-80.3	228	12
2023-08-16T18:00	14033	151	-51.6	-80.4	225	12
2023-08-16T18:00	14057	151	-51.5	-80.3	224	11
2023-08-16T18:00	14080	150	-51.5	-80.3	223	11
2023-08-16T18:00	14103	150	-51.6	-80.4	222	11
2023-08-16T18:00	14124	149	-51.8	-80.5	221	11
2023-08-16T18:00	14144	149	-52.0	-80.3	220	10
2023-08-16T18:00	14171	148	-52.1	-80.4	218	10
2023-08-16T18:00	14193	148	-52.2	-80.5	216	11
2023-08-16T18:00	14216	147	-52.4	-80.6	214	11
2023-08-16T18:00	14240	147	-52.5	-80.7	213	11
2023-08-16T18:00	14264	146	-52.6	-80.8	214	11
2023-08-16T18:00	14288	145	-52.6	-80.8	215	11
2023-08-16T18:00	14309	145	-52.5	-80.7	216	11
2023-08-16T18:00	14334	144	-52.6	-80.8	218	11
2023-08-16T18:00	14356	144	-52.8	-80.9	220	11
2023-08-16T18:00	14382	143	-52.9	-81.0	222	11
2023-08-16T18:00	14403	143	-53.0	-81.1	224	11
2023-08-16T18:00	14427	142	-53.1	-81.1	226	11
2023-08-16T18:00	14449	142	-53.2	-80.9	227	11
2023-08-16T18:00	14473	141	-53.2	-80.9	226	11
2023-08-16T18:00	14496	141	-53.2	-80.9	224	11
2023-08-16T18:00	14518	140	-53.3	-80.9	221	11
2023-08-16T18:00	14547	140	-53.2	-80.9	217	12
2023-08-16T18:00	14572	139	-53.2	-80.5	214	12
2023-08-16T18:00	14597	139	-53.3	-80.3	211	12
2023-08-16T18:00	14618	138	-53.4	-80.1	209	13
2023-08-16T18:00	14642	138	-53.5	-79.9	207	13
2023-08-16T18:00	14663	137	-53.6	-80.0	207	13
2023-08-16T18:00	14691	137	-53.7	-80.0	206	13
2023-08-16T18:00	14714	136	-53.7	-80.0	207	13
2023-08-16T18:00	14734	136	-53.7	-80.3	207	14
2023-08-16T18:00	14757	135	-53.8	-80.4	208	14
2023-08-16T18:00	14780	135	-53.9	-80.5	208	14
2023-08-16T18:00	14803	134	-54.0	-80.9	208	14
2023-08-16T18:00	14825	134	-53.9	-81.1	209	14
2023-08-16T18:00	14847	133	-53.9	-81.4	209	14
2023-08-16T18:00	14872	133	-53.8	-81.3	209	14
2023-08-16T18:00	14895	132	-53.6	-81.5	208	15
2023-08-16T18:00	14920	132	-53.6	-81.5	208	15
2023-08-16T18:00	14942	131	-53.5	-81.4	207	15
2023-08-16T18:00	14966	131	-53.3	-81.3	207	15
2023-08-16T18:00	14988	130	-53.4	-81.4	207	16
2023-08-16T18:00	15012	130	-53.5	-81.4	208	16
2023-08-16T18:00	15037	129	-53.5	-81.4	210	16
2023-08-16T18:00	15059	129	-53.5	-81.4	212	15
2023-08-16T18:00	15084	128	-53.6	-81.5	214	15
2023-08-16T18:00	15107	128	-53.7	-81.6	217	15
2023-08-16T18:00	15132	128	-53.7	-81.6	219	16
2023-08-16T18:00	15156	127	-53.7	-81.6	222	16
2023-08-16T18:00	15182	127	-53.7	-81.6	224	16
2023-08-16T18:00	15207	126	-53.8	-81.3	226	16
2023-08-16T18:00	15230	126	-53.9	-81.4	228	16
2023-08-16T18:00	15255	125	-54.0	-81.5	230	17
2023-08-16T18:00	15281	125	-54.3	-81.7	232	17
2023-08-16T18:00	15301	124	-54.5	-81.9	233	17
2023-08-16T18:00	15323	124	-54.6	-81.9	235	18
2023-08-16T18:00	15350	123	-54.6	-81.9	236	18
2023-08-16T18:00	15368	123	-54.6	-81.9	238	18
2023-08-16T18:00	15393	122	-54.5	-81.9	239	17
2023-08-16T18:00	15415	122	-54.4	-81.8	241	17
2023-08-16T18:00	15436	122	-54.4	-81.8	242	17
2023-08-16T18:00	15459	121	-54.6	-81.9	243	16
2023-08-16T18:00	15478	121	-54.6	-81.9	244	16
2023-08-16T18:00	15503	120	-54.7	-82.0	244	15
2023-08-16T18:00	15526	120	-54.6	-81.9	244	15
2023-08-16T18:00	15548	120	-54.4	-81.8	244	14
2023-08-16T18:00	15572	119	-54.4	-81.8	244	13
2023-08-16T18:00	15595	119	-54.6	-81.9	243	12
2023-08-16T18:00	15617	118	-54.6	-81.9	242	12
2023-08-16T18:00	15639	118	-54.6	-81.9	240	11
2023-08-16T18:00	15663	117	-54.7	-82.0	238	10
2023-08-16T18:00	15685	117	-54.7	-82.0	234	10
2023-08-16T18:00	15707	117	-54.5	-81.9	231	10
2023-08-16T18:00	15728	116	-54.6	-81.9	228	10
2023-08-16T18:00	15751	116	-54.6	-81.9	225	10
2023-08-16T18:00	15773	115	-54.5	-81.9	224	10
2023-08-16T18:00	15795	115	-54.5	-81.9	223	11
2023-08-16T18:00	15816	115	-54.7	-82.0	222	11
2023-08-16T18:00	15838	114	-54.8	-82.1	222	12
2023-08-16T18:00	15861	114	-54.9	-82.2	221	12
2023-08-16T18:00	15887	113	-55.0	-81.9	221	12
2023-08-16T18:00	15909	113	-55.1	-82.0	221	13
2023-08-16T18:00	15931	113	-55.3	-82.2	220	13
2023-08-16T18:00	15953	112	-55.4	-82.2	220	13
2023-08-16T18:00	15978	112	-55.4	-82.2	220	14
2023-08-16T18:00	15999	111	-55.6	-82.4	220	14
2023-08-16T18:00	16021	111	-55.8	-82.5	220	14
2023-08-16T18:00	16045	111	-56.0	-82.7	220	15
2023-08-16T18:00	16069	110	-56.1	-82.8	220	15
2023-08-16T18:00	16094	110	-56.2	-82.6	220	15
2023-08-16T18:00	16116	109	-56.2	-82.9	220	15
2023-08-16T18:00	16140	109	-56.2	-82.9	221	14
2023-08-16T18:00	16163	109	-55.8	-82.5	223	14
2023-08-16T18:00	16187	108	-55.9	-82.9	225	14
2023-08-16T18:00	16212	108	-55.8	-82.9	227	14
2023-08-16T18:00	16234	107	-55.6	-82.7	229	13
2023-08-16T18:00	16257	107	-55.5	-82.6	230	13
2023-08-16T18:00	16282	107	-55.6	-82.7	232	12
2023-08-16T18:00	16307	106	-55.8	-82.9	233	12
2023-08-16T18:00	16329	106	-55.9	-82.9	234	12
2023-08-16T18:00	16353	105	-56.0	-83.0	234	11
2023-08-16T18:00	16379	105	-56.1	-82.8	233	11
2023-08-16T18:00	16402	105	-56.2	-82.9	231	11
2023-08-16T18:00	16424	104	-56.4	-83.0	227	11
2023-08-16T18:00	16447	104	-56.5	-83.4	223	10
2023-08-16T18:00	16471	103	-56.3	-83.3	218	10
2023-08-16T18:00	16495	103	-56.2	-83.2	214	10
2023-08-16T18:00	16519	103	-56.2	-83.5	210	10
2023-08-16T18:00	16541	102	-56.0	-83.4	208	10
2023-08-16T18:00	16564	102	-55.8	-83.6	206	10
2023-08-16T18:00	16586	102	-55.6	-83.4	205	9
2023-08-16T18:00	16608	101	-55.6	-83.4	205	9
2023-08-16T18:00	16633	101	-55.6	-83.8	204	9
2023-08-16T18:00	16654	100	-55.3	-83.6	203	9
2023-08-16T18:00	16676	100	-54.9	-83.7	200	8
2023-08-16T18:00	16700	100	-54.6	-83.9	197	7
2023-08-16T18:00	16725	99	-54.3	-83.6	194	7
2023-08-16T18:00	16746	99	-54.2	-83.6	190	7
2023-08-16T18:00	16771	99	-54.1	-83.5	187	7
2023-08-16T18:00	16796	98	-54.1	-83.5	184	7
2023-08-16T18:00	16817	98	-54.1	-83.5	183	7
2023-08-16T18:00	16842	98	-53.9	-83.3	183	8
2023-08-16T18:00	16864	97	-53.7	-83.2	185	8
2023-08-16T18:00	16887	97	-53.8	-83.3	187	9
2023-08-16T18:00	16910	97	-54.0	-83.4	189	9
2023-08-16T18:00	16932	96	-54.0	-83.4	191	9
2023-08-16T18:00	16954	96	-53.9	-83.3	193	10
2023-08-16T18:00	16978	96	-54.1	-83.5	194	10
2023-08-16T18:00	17000	95	-54.2	-83.6	195	10
2023-08-16T18:00	17021	95	-54.3	-83.6	197	10
2023-08-16T18:00	17046	95	-54.5	-83.8	199	11
2023-08-16T18:00	17068	94	-54.7	-83.5	202	11
2023-08-16T18:00	17090	94	-54.9	-83.7	204	11
2023-08-16T18:00	17115	94	-54.9	-84.1	207	11
2023-08-16T18:00	17136	93	-54.9	-84.1	209	12
2023-08-16T18:00	17162	93	-54.7	-83.9	210	12
2023-08-16T18:00	17182	93	-54.8	-84.0	211	13
2023-08-16T18:00	17206	92	-55.0	-83.7	212	13
2023-08-16T18:00	17231	92	-55.1	-83.8	213	13
2023-08-16T18:00	17255	91	-55.3	-84.0	214	13
2023-08-16T18:00	17277	91	-55.5	-84.1	215	13
2023-08-16T18:00	17301	91	-55.6	-84.2	216	14
2023-08-16T18:00	17325	90	-55.6	-84.2	218	14
2023-08-16T18:00	17349	90	-55.6	-84.6	219	15
2023-08-16T18:00	17369	90	-55.6	-84.6	220	15
2023-08-16T18:00	17391	90	-55.7	-84.7	221	15
2023-08-16T18:00	17413	89	-55.7	-84.7	221	15
2023-08-16T18:00	17439	89	-55.5	-84.5	221	14
2023-08-16T18:00	17460	89	-55.6	-84.6	221	14
2023-08-16T18:00	17484	88	-55.6	-84.6	221	14
2023-08-16T18:00	17506	88	-55.5	-84.5	221	13
2023-08-16T18:00	17527	88	-55.5	-84.5	222	13
2023-08-16T18:00	17553	87	-55.5	-84.5	223	13
2023-08-16T18:00	17578	87	-55.6	-84.6	224	13
2023-08-16T18:00	17600	87	-55.4	-84.5	226	13
2023-08-16T18:00	17623	86	-55.4	-84.5	227	12
2023-08-16T18:00	17646	86	-55.5	-84.5	229	12
2023-08-16T18:00	17669	86	-55.6	-84.6	231	11
2023-08-16T18:00	17690	85	-55.5	-84.5	233	10
2023-08-16T18:00	17712	85	-55.0	-84.2	235	10
2023-08-16T18:00	17738	85	-54.9	-84.1	235	9
2023-08-16T18:00	17759	85	-54.8	-84.0	236	8
2023-08-16T18:00	17782	84	-54.9	-84.1	235	8
2023-08-16T18:00	17807	84	-55.0	-84.6	233	7
2023-08-16T18:00	17830	84	-55.1	-84.7	230	6
2023-08-16T18:00	17851	83	-54.9	-84.6	226	6
2023-08-16T18:00	17874	83	-55.0	-84.6	219	5
2023-08-16T18:00	17900	83	-55.1	-84.7	211	5
2023-08-16T18:00	17923	82	-55.1	-84.7	200	5
2023-08-16T18:00	17949	82	-55.1	-84.2	190	5
2023-08-16T18:00	17974	82	-55.2	-84.3	181	5
2023-08-16T18:00	17998	81	-55.3	-84.4	175	6
2023-08-16T18:00	18024	81	-55.2	-84.3	171	6
2023-08-16T18:00	18046	81	-55.2	-84.8	170	7
2023-08-16T18:00	18071	80	-55.4	-84.9	171	8
2023-08-16T18:00	18098	80	-55.5	-85.0	174	8
2023-08-16T18:00	18124	80	-55.6	-85.1	177	9
2023-08-16T18:00	18148	80	-55.8	-84.8	181	9
2023-08-16T18:00	18170	79	-55.9	-84.8	184	10
2023-08-16T18:00	18198	79	-56.1	-85.0	188	10
2023-08-16T18:00	18225	79	-56.3	-85.1	192	10
2023-08-16T18:00	18251	78	-56.4	-84.8	195	10
2023-08-16T18:00	18275	78	-56.5	-85.3	197	10
2023-08-16T18:00	18300	78	-56.6	-85.4	198	9
2023-08-16T18:00	18325	77	-56.5	-85.3	197	9
2023-08-16T18:00	18353	77	-56.0	-84.9	197	8
2023-08-16T18:00	18377	77	-55.8	-85.2	198	8
2023-08-16T18:00	18402	76	-55.8	-85.2	200	8
2023-08-16T18:00	18429	76	-55.8	-85.2	204	8
2023-08-16T18:00	18456	76	-55.3	-85.4	206	8
2023-08-16T18:00	18483	75	-55.2	-85.3	207	8
2023-08-16T18:00	18508	75	-55.2	-85.3	207	7
2023-08-16T18:00	18530	75	-55.2	-85.3	206	7
2023-08-16T18:00	18557	75	-55.3	-85.4	206	7
2023-08-16T18:00	18584	74	-55.4	-84.9	206	8
2023-08-16T18:00	18611	74	-55.5	-85.0	207	8
2023-08-16T18:00	18635	74	-55.6	-85.1	207	8
2023-08-16T18:00	18661	73	-55.6	-85.1	206	8
2023-08-16T18:00	18687	73	-55.7	-85.2	204	8
2023-08-16T18:00	18708	73	-55.8	-85.2	201	9
2023-08-16T18:00	18736	73	-55.8	-85.2	198	9
2023-08-16T18:00	18762	72	-55.8	-85.2	196	9
2023-08-16T18:00	18789	72	-55.7	-85.7	194	9
2023-08-16T18:00	18812	72	-55.5	-85.5	194	8
2023-08-16T18:00	18840	71	-55.4	-85.4	195	8
2023-08-16T18:00	18860	71	-55.3	-85.4	197	7
2023-08-16T18:00	18890	71	-55.2	-85.3	200	6
2023-08-16T18:00	18908	71	-55.3	-85.4	203	5
2023-08-16T18:00	18937	70	-55.3	-85.4	206	5
2023-08-16T18:00	18956	70	-55.1	-85.2	208	4
2023-08-16T18:00	18980	70	-55.2	-85.3	210	4
2023-08-16T18:00	19005	70	-55.3	-85.4	209	4
2023-08-16T18:00	19028	69	-55.2	-85.3	206	4
2023-08-16T18:00	19051	69	-55.2	-85.3	201	4
2023-08-16T18:00	19071	69	-55.2	-85.3	195	4
2023-08-16T18:00	19097	69	-55.2	-85.3	190	5
2023-08-16T18:00	19119	68	-55.3	-85.4	185	5
2023-08-16T18:00	19139	68	-55.3	-85.4	183	5
2023-08-16T18:00	19162	68	-55.4	-85.4	183	6
2023-08-16T18:00	19185	68	-55.4	-85.4	185	6
2023-08-16T18:00	19203	67	-55.4	-85.4	189	6
2023-08-16T18:00	19228	67	-55.3	-85.9	192	6
2023-08-16T18:00	19250	67	-54.9	-85.6	195	6
2023-08-16T18:00	19272	67	-54.7	-85.5	198	6
2023-08-16T18:00	19294	66	-54.7	-85.5	200	5
2023-08-16T18:00	19316	66	-54.7	-85.5	200	4
2023-08-16T18:00	19338	66	-54.4	-85.2	198	4
2023-08-16T18:00	19361	66	-54.4	-85.2	192	3
2023-08-16T18:00	19385	66	-54.4	-85.2	181	3
2023-08-16T18:00	19404	65	-54.3	-85.2	167	3
2023-08-16T18:00	19430	65	-54.3	-85.2	155	3
2023-08-16T18:00	19452	65	-54.4	-85.2	148	4
2023-08-16T18:00	19476	65	-54.4	-85.2	146	5
2023-08-16T18:00	19501	64	-54.5	-84.8	147	5
2023-08-16T18:00	19524	64	-54.6	-84.8	150	6
2023-08-16T18:00	19546	64	-54.6	-84.8	154	6
2023-08-16T18:00	19574	64	-54.7	-84.9	158	7
2023-08-16T18:00	19599	63	-54.8	-85.0	162	7
2023-08-16T18:00	19629	63	-54.9	-85.1	166	7
2023-08-16T18:00	19651	63	-54.8	-85.0	171	8
2023-08-16T18:00	19678	63	-54.7	-84.9	176	7
2023-08-16T18:00	19704	62	-54.6	-85.4	181	7
2023-08-16T18:00	19731	62	-54.4	-85.2	186	7
2023-08-16T18:00	19757	62	-54.5	-85.3	191	6
2023-08-16T18:00	19779	62	-54.5	-85.3	194	5
2023-08-16T18:00	19809	61	-54.6	-85.4	197	5
2023-08-16T18:00	19836	61	-54.7	-85.5	199	5
2023-08-16T18:00	19862	61	-54.7	-85.5	200	4
2023-08-16T18:00	19889	61	-54.7	-85.5	200	4
2023-08-16T18:00	19915	60	-54.6	-85.4	200	4
2023-08-16T18:00	19943	60	-54.5	-85.3	201	4
2023-08-16T18:00	19968	60	-54.3	-85.2	201	4
2023-08-16T18:00	19997	60	-54.1	-85.0	201	4
2023-08-16T18:00	20023	59	-54.1	-85.0	200	3
2023-08-16T18:00	20052	59	-54.1	-85.0	195	3
2023-08-16T18:00	20078	59	-54.1	-85.0	185	2
2023-08-16T18:00	20104	59	-54.2	-85.1	167	2
2023-08-16T18:00	20136	58	-54.4	-85.2	142	2
2023-08-16T18:00	20162	58	-54.4	-84.7	120	2
2023-08-16T18:00	20190	58	-54.5	-84.8	108	3
2023-08-16T18:00	20215	58	-54.5	-84.8	103	4
2023-08-16T18:00	20245	57	-54.7	-84.9	103	4
2023-08-16T18:00	20276	57	-54.9	-85.1	104	5
2023-08-16T18:00	20306	57	-55.0	-85.1	107	5
2023-08-16T18:00	20328	57	-54.7	-84.9	110	6
2023-08-16T18:00	20352	56	-54.8	-85.0	113	7
2023-08-16T18:00	20380	56	-54.8	-85.0	116	7
2023-08-16T18:00	20405	56	-54.9	-85.1	120	7
2023-08-16T18:00	20429	56	-55.1	-85.2	123	7
2023-08-16T18:00	20460	55	-55.1	-85.2	126	7
2023-08-16T18:00	20484	55	-55.2	-85.3	130	6
2023-08-16T18:00	20509	55	-55.1	-85.2	133	6
2023-08-16T18:00	20533	55	-55.2	-85.3	138	5
2023-08-16T18:00	20560	55	-55.3	-85.4	142	5
2023-08-16T18:00	20583	54	-55.2	-85.3	147	5
2023-08-16T18:00	20608	54	-55.3	-85.4	151	5
2023-08-16T18:00	20638	54	-55.5	-85.5	155	5
2023-08-16T18:00	20662	54	-55.6	-85.6	157	5
2023-08-16T18:00	20688	53	-55.7	-85.2	159	5
2023-08-16T18:00	20710	53	-55.7	-85.7	161	6
2023-08-16T18:00	20736	53	-55.9	-85.8	163	6
2023-08-16T18:00	20759	53	-55.9	-85.8	165	6
2023-08-16T18:00	20788	53	-55.6	-85.6	168	6
2023-08-16T18:00	20811	52	-55.5	-85.5	171	7
2023-08-16T18:00	20838	52	-55.4	-85.4	175	7
2023-08-16T18:00	20860	52	-55.5	-85.5	179	6
2023-08-16T18:00	20886	52	-55.6	-85.6	183	6
2023-08-16T18:00	20912	52	-55.7	-85.7	187	6
2023-08-16T18:00	20940	51	-55.8	-85.7	193	5
2023-08-16T18:00	20963	51	-56.0	-85.9	201	5
2023-08-16T18:00	20991	51	-55.8	-85.7	211	4
2023-08-16T18:00	21017	51	-55.6	-85.6	225	3
2023-08-16T18:00	21042	51	-55.4	-85.4	242	3
2023-08-16T18:00	21066	50	-55.3	-85.4	262	3
2023-08-16T18:00	21092	50	-55.4	-85.4	282	3
2023-08-16T18:00	21121	50	-55.5	-85.5	300	3
2023-08-16T18:00	21146	50	-55.6	-85.6	316	3
2023-08-16T18:00	21169	50	-55.6	-85.6	333	3
2023-08-16T18:00	21198	49	-55.4	-85.4	349	3
2023-08-16T18:00	21226	49	-55.5	-85.5	5	3
2023-08-16T18:00	21253	49	-55.6	-85.6	20	3
2023-08-16T18:00	21279	49	-55.1	-85.2	35	3
2023-08-16T18:00	21304	49	-54.8	-85.5	49	3
2023-08-16T18:00	21334	48	-55.0	-85.7	64	3
2023-08-16T18:00	21363	48	-55.1	-85.2	77	3
2023-08-16T18:00	21388	48	-55.2	-85.3	89	3
2023-08-16T18:00	21415	48	-55.3	-85.4	99	3
2023-08-16T18:00	21440	47	-55.4	-85.4	105	4
2023-08-16T18:00	21466	47	-55.4	-85.4	110	4
2023-08-16T18:00	21497	47	-55.3	-85.4	111	4
2023-08-16T18:00	21522	47	-55.2	-85.3	111	4
2023-08-16T18:00	21549	47	-55.0	-85.1	111	5
2023-08-16T18:00	21573	47	-55.0	-85.1	110	5
2023-08-16T18:00	21606	46	-55.1	-85.2	110	5
2023-08-16T18:00	21628	46	-55.1	-85.2	109	6
2023-08-16T18:00	21661	46	-55.1	-85.2	110	6
2023-08-16T18:00	21689	46	-55.1	-85.2	111	7
2023-08-16T18:00	21713	46	-55.2	-85.3	113	7
2023-08-16T18:00	21739	45	-55.4	-85.4	116	7
2023-08-16T18:00	21769	45	-55.4	-85.4	119	7
2023-08-16T18:00	21792	45	-55.4	-85.4	123	7
2023-08-16T18:00	21819	45	-55.5	-85.5	127	7
2023-08-16T18:00	21845	45	-55.6	-85.6	130	7
2023-08-16T18:00	21869	44	-55.7	-85.7	132	6
2023-08-16T18:00	21897	44	-55.7	-85.7	133	6
2023-08-16T18:00	21921	44	-55.7	-85.7	133	5
2023-08-16T18:00	21946	44	-55.7	-85.7	130	5
2023-08-16T18:00	21972	44	-55.7	-85.7	126	4
2023-08-16T18:00	21999	44	-55.6	-85.6	120	3
2023-08-16T18:00	22022	43	-55.4	-85.4	113	3
2023-08-16T18:00	22052	43	-55.3	-85.9	108	3
2023-08-16T18:00	22077	43	-55.2	-85.8	106	3
2023-08-16T18:00	22106	43	-55.1	-85.8	106	3
2023-08-16T18:00	22132	43	-55.2	-85.3	108	3
2023-08-16T18:00	22157	42	-55.3	-85.4	108	3
2023-08-16T18:00	22185	42	-55.4	-85.4	108	4
2023-08-16T18:00	22211	42	-55.5	-85.5	108	4
2023-08-16T18:00	22233	42	-55.6	-85.6	108	4
2023-08-16T18:00	22263	42	-55.5	-85.5	109	4
2023-08-16T18:00	22289	42	-55.6	-85.6	112	4
2023-08-16T18:00	22314	41	-55.5	-85.5	116	5
2023-08-16T18:00	22340	41	-55.6	-85.6	122	5
2023-08-16T18:00	22365	41	-55.7	-85.7	128	6
2023-08-16T18:00	22392	41	-55.8	-85.7	134	6
2023-08-16T18:00	22418	41	-56.0	-85.9	140	6
2023-08-16T18:00	22442	41	-56.0	-85.9	145	6
2023-08-16T18:00	22469	40	-55.9	-85.8	149	5
2023-08-16T18:00	22495	40	-55.8	-85.7	152	5
2023-08-16T18:00	22520	40	-55.7	-85.7	156	4
2023-08-16T18:00	22545	40	-55.6	-85.6	158	4
2023-08-16T18:00	22578	40	-55.4	-85.4	157	3
2023-08-16T18:00	22603	40	-55.5	-86.1	151	3
2023-08-16T18:00	22626	39	-55.4	-86.0	141	3
2023-08-16T18:00	22655	39	-55.2	-85.8	130	3
2023-08-16T18:00	22683	39	-55.2	-85.8	122	3
2023-08-16T18:00	22708	39	-55.1	-85.8	115	4
2023-08-16T18:00	22731	39	-55.0	-85.7	108	4
2023-08-16T18:00	22764	39	-54.9	-85.6	103	4
2023-08-16T18:00	22794	38	-55.0	-85.7	98	4
2023-08-16T18:00	22813	38	-54.9	-85.6	95	5
2023-08-16T18:00	22835	38	-54.8	-85.5	93	5
2023-08-16T18:00	22867	38	-54.8	-85.5	92	5
2023-08-16T18:00	22891	38	-54.5	-85.3	93	5
2023-08-16T18:00	22918	38	-54.4	-85.2	94	5
2023-08-16T18:00	22943	38	-54.6	-85.4	96	5
2023-08-16T18:00	22970	37	-54.7	-85.5	99	5
2023-08-16T18:00	22995	37	-54.7	-85.5	101	6
2023-08-16T18:00	23026	37	-54.8	-85.5	104	6
2023-08-16T18:00	23055	37	-54.8	-85.5	106	6
2023-08-16T18:00	23084	37	-54.8	-85.5	107	6
2023-08-16T18:00	23107	37	-54.8	-85.5	109	6
2023-08-16T18:00	23132	36	-54.8	-85.5	110	6
2023-08-16T18:00	23160	36	-54.8	-85.5	110	6
2023-08-16T18:00	23186	36	-54.8	-85.5	111	6
2023-08-16T18:00	23210	36	-54.9	-85.6	112	6
2023-08-16T18:00	23233	36	-54.9	-85.6	112	6
2023-08-16T18:00	23267	36	-54.9	-85.6	112	5
2023-08-16T18:00	23295	36	-55.0	-85.7	113	5
2023-08-16T18:00	23321	35	-55.0	-85.7	114	5
2023-08-16T18:00	23346	35	-54.9	-85.6	117	5
2023-08-16T18:00	23376	35	-54.9	-85.6	121	4
2023-08-16T18:00	23400	35	-55.0	-85.7	127	3
2023-08-16T18:00	23428	35	-55.0	-85.7	134	3
2023-08-16T18:00	23455	35	-55.1	-85.8	141	2
2023-08-16T18:00	23476	35	-55.2	-85.8	143	2
2023-08-16T18:00	23508	34	-55.2	-85.8	137	2
2023-08-16T18:00	23535	34	-55.2	-85.8	124	2
2023-08-16T18:00	23565	34	-55.1	-85.8	112	2
2023-08-16T18:00	23587	34	-55.1	-85.8	104	3
2023-08-16T18:00	23614	34	-55.2	-85.8	99	3
2023-08-16T18:00	23652	34	-55.1	-85.8	96	4
2023-08-16T18:00	23678	33	-54.9	-85.6	94	4
2023-08-16T18:00	23698	33	-54.8	-85.5	93	4
2023-08-16T18:00	23729	33	-54.7	-85.5	93	5
2023-08-16T18:00	23751	33	-54.6	-85.4	92	5
2023-08-16T18:00	23781	33	-54.6	-85.4	91	5
2023-08-16T18:00	23816	33	-54.4	-85.2	90	6
2023-08-16T18:00	23838	33	-54.3	-85.2	88	6
2023-08-16T18:00	23867	32	-54.2	-85.1	87	6
2023-08-16T18:00	23895	32	-54.2	-85.1	87	6
2023-08-16T18:00	23918	32	-54.3	-85.2	88	6
2023-08-16T18:00	23954	32	-54.3	-85.2	90	6
2023-08-16T18:00	23977	32	-54.4	-85.2	94	6
2023-08-16T18:00	24002	32	-54.5	-85.3	98	7
2023-08-16T18:00	24035	32	-54.6	-85.4	103	7
2023-08-16T18:00	24067	32	-54.8	-85.5	106	7
2023-08-16T18:00	24089	31	-54.7	-85.5	110	8
2023-08-16T18:00	24124	31	-54.6	-85.4	114	8
2023-08-16T18:00	24150	31	-54.7	-85.5	117	8
2023-08-16T18:00	24179	31	-54.8	-85.5	119	8
2023-08-16T18:00	24200	31	-54.8	-85.5	121	8
2023-08-16T18:00	24233	31	-54.7	-85.5	122	7
2023-08-16T18:00	24261	31	-54.4	-85.2	122	7
2023-08-16T18:00	24287	30	-54.2	-85.7	119	6
2023-08-16T18:00	24318	30	-54.2	-85.7	116	6
2023-08-16T18:00	24353	30	-54.2	-85.7	112	6
2023-08-16T18:00	24386	30	-54.1	-85.6	109	6
2023-08-16T18:00	24409	30	-53.9	-85.5	106	6
2023-08-16T18:00	24438	30	-53.8	-85.4	103	5
2023-08-16T18:00	24468	30	-53.8	-85.4	100	5
2023-08-16T18:00	24499	29	-53.8	-85.4	97	5
2023-08-16T18:00	24520	29	-53.9	-85.5	94	5
2023-08-16T18:00	24549	29	-53.9	-84.9	92	5
2023-08-16T18:00	24575	29	-54.0	-84.9	90	5
2023-08-16T18:00	24605	29	-54.1	-85.0	88	5
2023-08-16T18:00	24641	29	-54.2	-85.1	88	5
2023-08-16T18:00	24664	29	-54.2	-85.1	88	5
2023-08-16T18:00	24689	29	-54.1	-85.0	90	5
2023-08-16T18:00	24722	28	-54.0	-84.9	93	5
2023-08-16T18:00	24751	28	-53.9	-85.5	97	6
2023-08-16T18:00	24772	28	-53.9	-85.5	101	6
2023-08-16T18:00	24799	28	-53.7	-85.3	105	6
2023-08-16T18:00	24832	28	-53.6	-85.3	110	5
2023-08-16T18:00	24857	28	-53.6	-85.3	114	5
2023-08-16T18:00	24880	28	-53.5	-85.2	118	5
2023-08-16T18:00	24912	28	-53.4	-85.1	122	6
2023-08-16T18:00	24937	27	-53.4	-85.1	127	6
2023-08-16T18:00	24966	27	-53.4	-85.1	133	6
2023-08-16T18:00	24992	27	-53.1	-84.9	141	6
2023-08-16T18:00	25019	27	-53.1	-84.9	148	6
2023-08-16T18:00	25039	27	-53.0	-84.8	153	6
2023-08-16T18:00	25070	27	-53.0	-84.8	157	6
2023-08-16T18:00	25097	27	-52.9	-84.7	158	5
2023-08-16T18:00	25123	27	-52.8	-84.7	156	4
2023-08-16T18:00	25150	27	-52.6	-84.5	150	3
2023-08-16T18:00	25173	26	-52.6	-85.2	136	2
2023-08-16T18:00	25199	26	-52.5	-85.1	112	2
2023-08-16T18:00	25230	26	-52.2	-84.9	85	2
2023-08-16T18:00	25258	26	-52.0	-84.8	68	3
2023-08-16T18:00	25282	26	-51.8	-84.6	63	3
2023-08-16T18:00	25308	26	-51.5	-84.4	64	4
2023-08-16T18:00	25343	26	-51.2	-84.2	68	5
2023-08-16T18:00	25358	26	-51.1	-84.1	73	5
2023-08-16T18:00	25393	26	-51.0	-84.0	78	5
2023-08-16T18:00	25423	26	-50.9	-84.0	82	5
2023-08-16T18:00	25444	25	-50.7	-83.8	85	5
2023-08-16T18:00	25470	25	-50.7	-84.6	88	5
2023-08-16T18:00	25504	25	-50.6	-84.5	92	5
2023-08-16T18:00	25522	25	-50.3	-84.3	96	4
2023-08-16T18:00	25556	25	-50.1	-84.2	102	3
2023-08-16T18:00	25575	25	-50.1	-84.2	109	3
2023-08-16T18:00	25611	25	-50.1	-84.2	114	2
2023-08-16T18:00	25633	25	-50.0	-84.1	118	2
2023-08-16T18:00	25665	25	-49.9	-84.0	119	1
2023-08-16T18:00	25690	24	-49.8	-84.0	121	1
2023-08-16T18:00	25713	24	-49.8	-84.0	123	1
2023-08-16T18:00	25744	24	-49.8	-83.2	103	0
2023-08-16T18:00	25778	24	-49.9	-83.2	349	0
2023-08-16T18:00	25798	24	-49.9	-83.2	349	1
2023-08-16T18:00	25831	24	-49.8	-83.2	353	2
2023-08-16T18:00	25847	24	-49.8	-83.2	355	3
2023-08-16T18:00	25890	24	-49.9	-83.2	356	4
2023-08-16T18:00	25917	24	-49.9	-83.2	357	4
2023-08-16T18:00	25939	24	-49.9	-83.2	357	4
2023-08-16T18:00	25972	23	-49.9	-83.2	357	4
2023-08-16T18:00	26002	23	-50.0	-83.3	358	4
2023-08-16T18:00	26022	23	-50.1	-83.4	359	4
2023-08-16T18:00	26070	23	-50.3	-83.5	1	3
2023-08-16T18:00	26088	23	-50.5	-83.7	3	3
2023-08-16T18:00	26119	23	-50.5	-83.7	5	3
2023-08-16T18:00	26145	23	-50.5	-83.7	7	4
2023-08-16T18:00	26177	23	-50.4	-83.6	9	4
2023-08-16T18:00	26215	23	-50.4	-83.6	11	5
2023-08-16T18:00	26238	23	-50.4	-83.6	12	5
2023-08-16T18:00	26274	22	-50.5	-83.7	13	5
2023-08-16T18:00	26291	22	-50.6	-83.7	14	5
2023-08-16T18:00	26326	22	-50.6	-83.7	17	5
2023-08-16T18:00	26345	22	-50.5	-83.7	21	5
2023-08-16T18:00	26380	22	-50.3	-83.5	26	6
2023-08-16T18:00	26414	22	-50.3	-83.5	33	6
2023-08-16T18:00	26446	22	-50.3	-84.3	39	6
2023-08-16T18:00	26470	22	-50.1	-84.2	45	6
2023-08-16T18:00	26489	22	-50.0	-84.1	51	6
2023-08-16T18:00	26530	22	-50.0	-84.1	56	6
2023-08-16T18:00	26560	21	-50.0	-83.3	61	7
2023-08-16T18:00	26593	21	-50.1	-83.4	66	7
2023-08-16T18:00	26614	21	-50.1	-83.4	72	7
2023-08-16T18:00	26652	21	-50.2	-83.5	78	7
2023-08-16T18:00	26677	21	-50.1	-83.4	84	8
2023-08-16T18:00	26701	21	-50.1	-83.4	90	8
2023-08-16T18:00	26741	21	-50.1	-83.4	96	8
2023-08-16T18:00	26768	21	-50.1	-83.4	101	8
2023-08-16T18:00	26801	21	-50.0	-84.1	105	8
2023-08-16T18:00	26830	21	-50.0	-84.1	109	8
2023-08-16T18:00	26849	20	-50.0	-84.1	112	8
2023-08-16T18:00	26888	20	-49.9	-84.0	115	7
2023-08-16T18:00	26921	20	-49.5	-83.7	118	7
2023-08-16T18:00	26952	20	-49.4	-83.7	120	6
2023-08-16T18:00	26977	20	-49.4	-83.7	121	6
2023-08-16T18:00	27011	20	-49.3	-83.6	120	5
2023-08-16T18:00	27039	20	-49.3	-83.6	117	5
2023-08-16T18:00	27066	20	-49.5	-83.7	111	4
2023-08-16T18:00	27099	20	-49.5	-83.7	104	4
2023-08-16T18:00	27129	20	-49.4	-83.7	97	4
2023-08-16T18:00	27158	20	-49.3	-83.6	90	4
2023-08-16T18:00	27197	19	-49.2	-83.5	83	4
2023-08-16T18:00	27223	19	-49.0	-83.4	78	4
2023-08-16T18:00	27246	19	-49.0	-83.4	75	4
2023-08-16T18:00	27293	19	-48.9	-83.3	74	4
2023-08-16T18:00	27315	19	-48.7	-83.2	74	4
2023-08-16T18:00	27338	19	-48.5	-83.0	76	4
2023-08-16T18:00	27367	19	-48.5	-83.9	77	4
2023-08-16T18:00	27411	19	-48.2	-83.7	78	4
2023-08-16T18:00	27431	19	-48.1	-83.6	78	4
2023-08-16T18:00	27457	19	-48.0	-83.6	75	4
2023-08-16T18:00	27495	19	-48.0	-83.6	71	4
2023-08-16T18:00	27521	19	-47.9	-83.5	67	4
2023-08-16T18:00	27556	18	-47.8	-83.4	63	4
2023-08-16T18:00	27584	18	-47.7	-83.4	60	5
2023-08-16T18:00	27612	18	-47.7	-83.4	58	5
2023-08-16T18:00	27643	18	-47.6	-83.3	58	5
2023-08-16T18:00	27674	18	-47.6	-83.3	59	5
2023-08-16T18:00	27699	18	-47.6	-83.3	62	5
2023-08-16T18:00	27724	18	-47.6	-82.4	65	5
2023-08-16T18:00	27752	18	-47.6	-82.4	67	5
2023-08-16T18:00	27778	18	-47.7	-82.4	68	5
2023-08-16T18:00	27822	18	-47.7	-82.4	67	5
2023-08-16T18:00	27843	18	-47.6	-82.4	65	5
2023-08-16T18:00	27873	18	-47.6	-83.3	61	5
2023-08-16T18:00	27890	17	-47.6	-83.3	58	5
2023-08-16T18:00	27929	17	-47.6	-83.3	57	6
2023-08-16T18:00	27954	17	-47.5	-83.2	57	6
2023-08-16T18:00	27976	17	-47.4	-83.1	58	7
2023-08-16T18:00	28017	17	-47.3	-83.1	59	7
2023-08-16T18:00	28034	17	-47.2	-83.0	61	7
2023-08-16T18:00	28068	17	-47.3	-83.1	63	7
2023-08-16T18:00	28099	17	-47.4	-83.1	64	8
2023-08-16T18:00	28125	17	-47.4	-83.1	65	8
2023-08-16T18:00	28155	17	-47.5	-83.2	66	8
2023-08-16T18:00	28179	17	-47.5	-82.3	67	9
2023-08-16T18:00	28217	17	-47.6	-82.4	68	9
2023-08-16T18:00	28226	17	-47.8	-82.5	70	10
2023-08-16T18:00	28273	17	-47.9	-82.6	73	10
2023-08-16T18:00	28300	16	-48.0	-82.7	76	10
2023-08-16T18:00	28336	16	-48.1	-82.7	80	10
2023-08-16T18:00	28346	16	-48.1	-82.7	82	9
2023-08-16T18:00	28391	16	-48.0	-82.7	83	9
2023-08-16T18:00	28427	16	-48.0	-82.7	83	9
2023-08-16T18:00	28453	16	-47.9	-83.5	82	9
2023-08-16T18:00	28486	16	-48.0	-83.6	80	8
2023-08-16T18:00	28508	16	-47.9	-83.5	78	8
2023-08-16T18:00	28527	16	-47.6	-83.3	77	8
2023-08-16T18:00	28567	16	-47.3	-83.1	76	8
2023-08-16T18:00	28596	16	-47.0	-82.9	76	8
2023-08-16T18:00	28607	16	-46.8	-82.7	76	8
2023-08-16T18:00	28649	16	-46.6	-82.6	76	8
2023-08-16T18:00	28693	16	-46.4	-82.4	75	8
2023-08-16T18:00	28721	15	-46.4	-82.4	74	9
2023-08-16T18:00	28740	15	-46.5	-82.5	74	9
2023-08-16T18:00	28779	15	-46.6	-82.6	74	10
2023-08-16T18:00	28800	15	-46.7	-82.6	75	10
2023-08-16T18:00	28839	15	-46.7	-82.6	76	10
2023-08-16T18:00	28862	15	-46.5	-82.5	79	10
2023-08-16T18:00	28916	15	-46.4	-82.4	82	10
2023-08-16T18:00	28940	15	-46.4	-82.4	87	9
2023-08-16T18:00	28959	15	-46.5	-82.5	94	8
2023-08-16T18:00	29002	15	-46.6	-82.6	101	8
2023-08-16T18:00	29026	15	-46.6	-82.6	108	7
2023-08-16T18:00	29049	15	-46.3	-82.4	114	6
2023-08-16T18:00	29081	15	-46.1	-82.2	117	6
2023-08-16T18:00	29132	15	-45.9	-83.2	117	5
2023-08-16T18:00	29161	14	-45.6	-82.9	115	4
2023-08-16T18:00	29182	14	-45.3	-82.7	109	4
2023-08-16T18:00	29211	14	-44.8	-82.4	101	3
2023-08-16T18:00	29245	14	-44.5	-82.2	89	3
2023-08-16T18:00	29270	14	-44.2	-82.0	72	2
2023-08-16T18:00	29313	14	-43.9	-81.8	57	3
2023-08-16T18:00	29330	14	-43.6	-81.5	50	3
2023-08-16T18:00	29352	14	-43.4	-81.4	48	4
2023-08-16T18:00	29396	14	-43.3	-81.3	50	5
2023-08-16T18:00	29425	14	-43.4	-81.4	51	6
2023-08-16T18:00	29460	14	-43.4	-81.4	53	6
2023-08-16T18:00	29493	14	-43.2	-81.3	54	7
2023-08-16T18:00	29497	14	-43.0	-81.1	55	7
2023-08-16T18:00	29543	14	-43.0	-81.1	56	7
2023-08-16T18:00	29569	14	-42.8	-81.0	57	7
2023-08-16T18:00	29585	14	-42.7	-80.9	58	7
2023-08-16T18:00	29624	14	-42.7	-80.9	60	6
2023-08-16T18:00	29648	13	-42.8	-81.0	62	6
2023-08-16T18:00	29678	13	-42.6	-80.8	65	6
2023-08-16T18:00	29718	13	-42.2	-80.6	68	5
2023-08-16T18:00	29738	13	-42.0	-80.4	71	5
2023-08-16T18:00	29757	13	-42.0	-80.4	72	5
2023-08-16T18:00	29799	13	-41.9	-80.4	71	5
2023-08-16T18:00	29822	13	-41.8	-80.3	68	5
2023-08-16T18:00	29851	13	-41.6	-80.1	64	5
2023-08-16T18:00	29881	13	-41.5	-80.1	59	6
2023-08-16T18:00	29910	13	-41.2	-79.9	56	6
2023-08-16T18:00	29939	13	-41.0	-79.7	53	7
2023-08-16T18:00	29972	13	-41.1	-79.8	52	7
2023-08-16T18:00	29992	13	-41.2	-79.9	53	7
2023-08-16T18:00	30022	13	-41.0	-79.7	56	7
2023-08-16T18:00	30057	13	-40.9	-79.7	59	7
2023-08-16T18:00	30083	13	-40.7	-79.5	61	7
2023-08-16T18:00	30113	13	-40.6	-79.5	63	8
2023-08-16T18:00	30141	13	-40.6	-79.5	62	8
2023-08-16T18:00	30168	12	-40.7	-79.5	60	8
2023-08-16T18:00	30216	12	-40.7	-79.5	57	9
2023-08-16T18:00	30222	12	-40.6	-79.5	53	9
2023-08-16T18:00	30269	12	-40.6	-79.5	50	10
2023-08-16T18:00	30295	12	-40.6	-79.5	48	10
2023-08-16T18:00	30332	12	-40.7	-79.5	46	11
2023-08-16T18:00	30367	12	-40.7	-79.5	46	11
2023-08-16T18:00	30387	12	-40.8	-79.6	46	11
2023-08-16T18:00	30421	12	-40.8	-79.6	47	12
2023-08-16T18:00	30444	12	-40.9	-79.7	49	13
2023-08-16T18:00	30468	12	-40.8	-79.6	51	13
2023-08-16T18:00	30502	12	-40.7	-79.5	53	14
2023-08-16T18:00	30543	12	-40.6	-79.5	56	14
2023-08-16T18:00	30567	12	-40.5	-79.4	58	14
2023-08-16T18:00	30595	12	-40.4	-79.3	61	14
2023-08-16T18:00	30627	12	-40.4	-79.3	64	14
2023-08-16T18:00	30653	12	-40.4	-79.3	67	14
2023-08-16T18:00	30681	12	-40.6	-79.5	71	13
2023-08-16T18:00	30718	12	-40.7	-79.5	74	13
2023-08-16T18:00	30756	11	-40.7	-79.5	77	13
2023-08-16T18:00	30789	11	-40.7	-79.5	80	12
2023-08-16T18:00	30811	11	-40.7	-79.5	83	12
2023-08-16T18:00	30835	11	-40.6	-79.5	85	11
2023-08-16T18:00	30878	11	-40.7	-79.5	87	10
2023-08-16T18:00	30905	11	-40.8	-79.6	89	9
2023-08-16T18:00	30926	11	-41.0	-79.7	91	9
2023-08-16T18:00	30959	11	-40.9	-79.7	94	8
2023-08-16T18:00	30983	11	-40.8	-79.6	97	8
2023-08-16T18:00	31032	11	-40.8	-79.6	98	7
2023-08-16T18:00	31064	11	-41.1	-79.8	97	7
2023-08-16T18:00	31069	11	-41.0	-79.7	93	7
2023-08-16T18:00	31108	11	-40.8	-79.6	88	7
2023-08-16T18:00	31140	11	-40.7	-79.5	81	7
2023-08-16T18:00	31188	11	-40.7	-79.5	76	7
2023-08-16T18:00	31223	11	-40.6	-79.5	71	7
2023-08-16T18:00	31266	11	-40.6	-79.5	68	8
2023-08-16T18:00	31272	11	-40.6	-79.5	65	8
2023-08-16T18:00	31304	11	-40.7	-79.5	63	8
2023-08-16T18:00	31351	10	-40.7	-79.5	62	8
2023-08-16T18:00	31395	10	-40.7	-79.5	60	8
2023-08-16T18:00	31439	10	-40.5	-79.4	60	8
2023-08-16T18:00	31472	10	-40.5	-79.4	60	8
2023-08-16T18:00	31505	10	-40.6	-79.5	61	7
2023-08-16T18:00	31528	10	-40.5	-79.4	63	7
2023-08-16T18:00	31565	10	-40.4	-79.3	64	6
2023-08-16T18:00	31595	10	-40.4	-79.3	65	5
2023-08-16T18:00	31633	10	-40.5	-79.4	64	5
2023-08-16T18:00	31640	10	-40.5	-79.4	62	4
2023-08-16T18:00	31692	10	-40.6	-79.5	58	4
2023-08-16T18:00	31718	10	-40.7	-79.5	52	4
2023-08-16T18:00	31747	10	-40.8	-79.6	46	4
2023-08-16T18:00	31775	10	-40.9	-79.7	42	4
2023-08-16T18:00	31799	10	-40.9	-79.7	40	5
2023-08-16T18:00	31834	10	-40.9	-79.7	42	5
2023-08-16T18:00	31870	10	-40.8	-79.6	46	6
2023-08-16T18:00	31874	10	-40.6	-79.5	52	6
2023-08-16T18:00	31930	10	-40.5	-79.4	59	7
2023-08-16T18:00	31931	10	-40.3	-79.2	65	8
2023-08-16T18:00	31990	10	-40.0	-79.0	70	9
2023-08-16T18:00	32015	10	-39.6	-78.8	75	10
2023-08-16T18:00	32067	9	-39.3	-78.5	79	11
2023-08-16T18:00	32108	9	-39.3	-78.5	88	12
2023-08-16T18:00	32123	9	-39.4	-78.6	91	12
2023-08-16T18:00	32171	9	-39.2	-78.5	94	11
2023-08-16T18:00	32213	9	-39.1	-78.4	98	10
2023-08-16T18:00	32269	9	-39.0	-78.3	100	9
2023-08-16T18:00	32308	9	-39.2	-78.5	104	8
2023-08-16T18:00	32330	9	-39.3	-78.5	107	7
2023-08-16T18:00	32373	9	-39.4	-78.6	109	6
2023-08-16T18:00	32412	9	-39.5	-78.7	110	5
2023-08-16T18:00	32456	9	-39.4	-78.6	106	4
2023-08-16T18:00	32470	9	-39.2	-78.5	96	4
2023-08-16T18:00	32477	9	-38.9	-78.3	82	3
2023-08-16T18:00	32553	9	-38.9	-78.3	70	4
2023-08-16T18:00	32562	9	-38.8	-78.2	61	4
2023-08-16T18:00	32595	9	-38.6	-78.1	57	4
2023-08-16T18:00	32635	9	-38.4	-77.9	55	5
2023-08-16T18:00	32660	9	-38.3	-77.9	54	5
2023-08-16T18:00	32695	9	-38.2	-77.8	50	4
2023-08-16T18:00	32740	9	-38.1	-77.7	48	4
2023-08-16T18:00	32753	9	-38.0	-77.6	48	4
2023-08-16T18:00	32781	9	-37.9	-77.6	50	5
2023-08-16T18:00	32802	8	-37.5	-77.3	56	5
2023-08-16T18:00	32831	8	-37.3	-77.2	62	5
2023-08-16T18:00	32867	8	-37.2	-77.1	68	6
2023-08-16T18:00	32877	8	-37.0	-77.0	72	7
2023-08-16T18:00	32934	8	-37.1	-77.0	76	8
2023-08-16T18:00	32951	8	-37.2	-77.1	79	9
2023-08-16T18:00	32967	8	-37.0	-77.0	81	10
2023-08-16T18:00	32996	8	-36.9	-76.9	84	10
2023-08-16T18:00	33011	8	-36.8	-76.8	88	11
2023-08-16T18:00	33077	8	-36.7	-76.7	91	11
2023-08-16T18:00	33079	8	-36.7	-76.7	93	11
2023-08-16T18:00	33122	8	-36.7	-76.7	95	12
2023-08-16T18:00	33138	8	-36.8	-76.8	96	12
2023-08-16T18:00	33156	8	-36.7	-76.7	96	11
2023-08-16T18:00	33191	8	-36.5	-76.6	96	11
2023-08-16T18:00	33213	8	-36.5	-76.6	94	10
2023-08-16T18:00	33256	8	-36.4	-76.5	91	9
2023-08-16T18:00	33260	8	-36.3	-76.5	87	8
2023-08-16T18:00	33286	8	-36.3	-76.5	82	8
2023-08-16T18:00	33323	8	-36.3	-76.5	77	8
2023-08-16T18:00	33363	8	-36.2	-76.4	72	8
2023-08-16T18:00	33379	8	-36.0	-76.3	67	8
2023-08-16T18:00	33393	8	-35.9	-76.2	64	8
2023-08-16T18:00	33426	8	-35.7	-76.1	63	8
2023-08-16T18:00	33435	8	-35.6	-76.0	63	8
2023-08-16T18:00	33481	8	-35.5	-75.9	65	8
2023-08-16T18:00	33483	8	-35.3	-75.8	69	9
2023-08-16T18:00	33535	8	-35.1	-75.6	74	9
2023-08-16T18:00	33578	8	-35.1	-75.6	84	10
2023-08-16T18:00	33597	8	-35.1	-75.6	88	11
2023-08-16T18:00	33604	8	-35.0	-75.6	90	11
2023-08-16T18:00	33653	8	-34.7	-75.4	92	11
2023-08-16T18:00	33675	7	-34.5	-75.2	92	11
2023-08-17T00:00	-999					
2023-08-17T00:00	142	1004	20.0	16.4	56	5
2023-08-17T00:00	167	1001	20.1	16.0	57	7
2023-08-17T00:00	183	999	20.0	15.9	58	8
2023-08-17T00:00	204	996	20.1	15.7	58	9
2023-08-17T00:00	231	994	19.8	15.7	59	10
2023-08-17T00:00	252	991	19.9	15.3	61	10
2023-08-17T00:00	269	989	19.8	15.2	62	11
2023-08-17T00:00	295	986	19.8	14.9	63	11
2023-08-17T00:00	318	983	20.1	14.0	64	12
2023-08-17T00:00	344	980	20.4	13.1	63	12
2023-08-17T00:00	367	978	21.0	11.4	62	12
2023-08-17T00:00	388	975	21.2	10.9	62	12
2023-08-17T00:00	406	973	21.2	10.3	62	12
2023-08-17T00:00	430	971	21.1	10.1	63	11
2023-08-17T00:00	452	968	20.9	11.5	65	11
2023-08-17T00:00	478	965	20.6	13.5	67	11
2023-08-17T00:00	510	962	20.4	14.4	70	10
2023-08-17T00:00	536	959	20.3	14.4	73	10
2023-08-17T00:00	564	956	20.2	14.3	76	9
2023-08-17T00:00	590	953	20.1	15.1	79	9
2023-08-17T00:00	613	950	20.0	14.7	82	8
2023-08-17T00:00	641	947	19.9	14.5	84	8
2023-08-17T00:00	662	945	19.8	14.5	86	7
2023-08-17T00:00	688	942	19.6	14.6	88	7
2023-08-17T00:00	715	939	19.4	14.7	89	7
2023-08-17T00:00	740	936	19.3	14.5	91	6
2023-08-17T00:00	768	934	19.2	14.4	94	6
2023-08-17T00:00	797	930	19.0	14.2	98	5
2023-08-17T00:00	827	927	18.9	14.0	103	4
2023-08-17T00:00	849	925	18.9	13.9	108	4
2023-08-17T00:00	874	922	18.8	13.9	110	4
2023-08-17T00:00	896	920	19.0	13.3	109	4
2023-08-17T00:00	915	918	19.0	12.8	105	4
2023-08-17T00:00	932	916	18.9	12.7	101	4
2023-08-17T00:00	953	913	18.8	12.3	97	3
2023-08-17T00:00	982	911	18.9	12.3	93	3
2023-08-17T00:00	1006	908	18.8	12.2	93	2
2023-08-17T00:00	1029	905	18.6	12.1	99	1
2023-08-17T00:00	1055	903	18.4	12.1	113	1
2023-08-17T00:00	1078	900	18.1	12.0	131	1
2023-08-17T00:00	1101	898	17.9	12.0	144	1
2023-08-17T00:00	1124	896	17.7	12.0	146	1
2023-08-17T00:00	1145	893	17.5	11.8	140	2
2023-08-17T00:00	1163	891	17.4	11.8	125	2
2023-08-17T00:00	1184	889	17.2	11.7	112	2
2023-08-17T00:00	1202	887	17.1	11.7	104	2
2023-08-17T00:00	1228	885	16.9	11.8	101	3
2023-08-17T00:00	1251	882	16.8	11.7	101	3
2023-08-17T00:00	1266	881	16.8	11.6	100	3
2023-08-17T00:00	1291	878	16.7	11.3	98	3
2023-08-17T00:00	1315	876	16.6	11.1	94	3
2023-08-17T00:00	1337	874	16.4	11.0	91	3
2023-08-17T00:00	1356	871	16.3	10.9	91	3
2023-08-17T00:00	1384	869	16.2	10.8	96	2
2023-08-17T00:00	1410	866	16.0	10.6	110	2
2023-08-17T00:00	1438	863	15.8	10.5	130	2
2023-08-17T00:00	1472	860	15.5	10.3	149	2
2023-08-17T00:00	1501	857	15.4	9.9	160	3
2023-08-17T00:00	1525	854	15.3	9.7	166	3
2023-08-17T00:00	1549	852	15.2	9.6	169	3
2023-08-17T00:00	1572	850	15.0	9.6	171	3
2023-08-17T00:00	1597	847	14.7	9.5	175	3
2023-08-17T00:00	1618	845	14.5	9.4	179	3
2023-08-17T00:00	1638	843	14.4	9.4	182	3
2023-08-17T00:00	1659	841	14.4	9.1	181	3
2023-08-17T00:00	1686	838	14.3	8.6	177	3
2023-08-17T00:00	1713	836	14.2	8.3	173	3
2023-08-17T00:00	1741	833	14.0	8.4	169	4
2023-08-17T00:00	1760	831	13.8	8.4	165	4
2023-08-17T00:00	1788	828	13.6	8.3	163	4
2023-08-17T00:00	1810	826	13.4	8.4	163	4
2023-08-17T00:00	1832	824	13.2	8.4	166	4
2023-08-17T00:00	1855	822	13.0	8.4	174	3
2023-08-17T00:00	1886	819	12.7	8.6	184	3
2023-08-17T00:00	1916	816	12.4	8.5	193	3
2023-08-17T00:00	1936	814	12.2	8.5	196	4
2023-08-17T00:00	1961	812	12.0	8.5	193	4
2023-08-17T00:00	1984	809	11.9	8.3	187	4
2023-08-17T00:00	2011	807	11.7	7.8	181	4
2023-08-17T00:00	2037	804	11.7	7.4	176	4
2023-08-17T00:00	2059	802	11.6	7.2	174	4
2023-08-17T00:00	2092	799	11.4	6.9	174	3
2023-08-17T00:00	2120	796	11.2	6.6	175	3
2023-08-17T00:00	2144	794	11.0	6.4	177	3
2023-08-17T00:00	2168	792	11.0	6.2	180	3
2023-08-17T00:00	2195	789	10.8	6.1	182	3
2023-08-17T00:00	2220	787	10.8	5.5	183	4
2023-08-17T00:00	2241	785	10.8	5.4	183	5
2023-08-17T00:00	2267	782	10.7	5.4	183	5
2023-08-17T00:00	2285	781	10.7	5.1	184	6
2023-08-17T00:00	2306	779	10.7	5.1	186	6
2023-08-17T00:00	2331	776	10.6	5.0	188	6
2023-08-17T00:00	2349	774	10.4	5.0	191	6
2023-08-17T00:00	2373	772	10.2	4.9	192	6
2023-08-17T00:00	2400	770	10.0	4.9	193	5
2023-08-17T00:00	2429	767	9.9	4.7	192	5
2023-08-17T00:00	2453	765	9.7	4.6	192	5
2023-08-17T00:00	2473	763	9.6	4.7	192	4
2023-08-17T00:00	2504	760	9.3	4.5	194	4
2023-08-17T00:00	2534	758	9.0	4.4	199	4
2023-08-17T00:00	2557	756	8.8	4.4	205	4
2023-08-17T00:00	2580	753	8.6	4.5	211	4
2023-08-17T00:00	2601	751	8.3	4.3	213	4
2023-08-17T00:00	2628	749	8.1	4.4	210	4
2023-08-17T00:00	2649	747	7.9	4.4	206	5
2023-08-17T00:00	2666	746	7.8	4.5	202	5
2023-08-17T00:00	2684	744	7.7	4.7	199	6
2023-08-17T00:00	2704	742	7.5	5.0	197	5
2023-08-17T00:00	2733	740	7.3	4.9	196	5
2023-08-17T00:00	2756	737	7.1	4.8	195	5
2023-08-17T00:00	2781	735	6.9	4.9	196	4
2023-08-17T00:00	2809	733	6.7	4.8	198	4
2023-08-17T00:00	2835	730	6.5	4.8	202	4
2023-08-17T00:00	2863	728	6.3	4.7	206	5
2023-08-17T00:00	2898	725	6.1	4.2	209	5
2023-08-17T00:00	2921	723	6.0	4.0	211	5
2023-08-17T00:00	2950	720	5.8	3.8	212	5
2023-08-17T00:00	2973	718	5.7	3.5	211	5
2023-08-17T00:00	2995	716	5.6	3.3	209	4
2023-08-17T00:00	3033	713	5.4	1.2	204	4
2023-08-17T00:00	3063	711	5.4	0.2	199	5
2023-08-17T00:00	3088	708	5.2	0.7	195	5
2023-08-17T00:00	3109	707	5.0	0.9	194	5
2023-08-17T00:00	3130	705	4.8	1.1	195	5
2023-08-17T00:00	3153	703	4.5	1.4	197	6
2023-08-17T00:00	3171	701	4.4	1.3	199	6
2023-08-17T00:00	3201	699	4.2	0.7	201	5
2023-08-17T00:00	3227	696	4.0	0.9	202	5
2023-08-17T00:00	3254	694	3.9	0.3	203	5
2023-08-17T00:00	3275	692	3.8	-0.9	207	5
2023-08-17T00:00	3302	690	3.6	-1.2	212	5
2023-08-17T00:00	3328	688	3.4	-1.9	214	5
2023-08-17T00:00	3347	686	3.3	-3.0	213	6
2023-08-17T00:00	3376	684	3.1	-3.0	210	6
2023-08-17T00:00	3399	682	2.9	-0.4	205	7
2023-08-17T00:00	3424	680	2.6	-0.9	201	7
2023-08-17T00:00	3445	678	2.5	-1.3	198	6
2023-08-17T00:00	3469	676	2.3	-1.2	197	6
2023-08-17T00:00	3496	674	2.1	-1.3	197	6
2023-08-17T00:00	3524	671	1.9	-1.5	197	6
2023-08-17T00:00	3550	669	1.8	-2.3	196	6
2023-08-17T00:00	3575	667	1.8	-3.5	195	6
2023-08-17T00:00	3608	664	1.6	-3.3	195	7
2023-08-17T00:00	3635	662	1.3	-2.8	196	7
2023-08-17T00:00	3659	660	1.1	-1.7	199	7
2023-08-17T00:00	3680	658	1.0	-1.7	204	7
2023-08-17T00:00	3706	656	0.9	-2.6	209	7
2023-08-17T00:00	3734	654	0.7	-2.9	214	7
2023-08-17T00:00	3757	652	0.5	-3.5	218	7
2023-08-17T00:00	3783	650	0.3	-4.1	221	7
2023-08-17T00:00	3805	648	0.2	-4.9	223	7
2023-08-17T00:00	3824	647	0.1	-5.4	224	6
2023-08-17T00:00	3848	645	-0.1	-6.2	223	6
2023-08-17T00:00	3879	642	-0.3	-7.0	220	6
2023-08-17T00:00	3905	640	-0.5	-9.3	217	6
2023-08-17T00:00	3939	638	-0.6	-12.0	215	7
2023-08-17T00:00	3966	635	-0.6	-10.2	214	7
2023-08-17T00:00	3984	634	-0.8	-9.8	213	7
2023-08-17T00:00	4002	632	-1.0	-8.6	211	7
2023-08-17T00:00	4021	631	-1.2	-6.3	208	8
2023-08-17T00:00	4047	629	-1.5	-4.1	204	8
2023-08-17T00:00	4081	626	-1.8	-4.7	200	8
2023-08-17T00:00	4103	624	-1.9	-5.0	198	9
2023-08-17T00:00	4128	623	-2.1	-4.9	196	9
2023-08-17T00:00	4148	621	-2.3	-5.6	197	8
2023-08-17T00:00	4165	620	-2.4	-5.6	201	8
2023-08-17T00:00	4185	618	-2.6	-6.4	205	7
2023-08-17T00:00	4209	616	-2.6	-6.3	210	7
2023-08-17T00:00	4247	614	-2.8	-7.0	213	7
2023-08-17T00:00	4266	612	-2.9	-5.1	213	7
2023-08-17T00:00	4285	610	-3.1	-5.2	210	7
2023-08-17T00:00	4318	608	-3.3	-5.1	207	7
2023-08-17T00:00	4340	606	-3.4	-5.7	205	7
2023-08-17T00:00	4370	604	-3.5	-6.5	206	8
2023-08-17T00:00	4386	603	-3.6	-6.6	208	8
2023-08-17T00:00	4401	601	-3.7	-7.1	211	8
2023-08-17T00:00	4421	600	-3.9	-7.7	214	8
2023-08-17T00:00	4447	598	-3.9	-8.1	216	8
2023-08-17T00:00	4477	596	-3.9	-8.4	217	8
2023-08-17T00:00	4497	594	-4.1	-7.6	217	8
2023-08-17T00:00	4514	593	-4.0	-7.2	216	7
2023-08-17T00:00	4532	592	-3.9	-6.7	215	6
2023-08-17T00:00	4551	590	-3.9	-6.7	213	6
2023-08-17T00:00	4574	589	-4.0	-7.3	214	6
2023-08-17T00:00	4590	587	-4.1	-7.3	216	6
2023-08-17T00:00	4612	586	-4.3	-7.8	218	6
2023-08-17T00:00	4631	584	-4.4	-7.9	220	6
2023-08-17T00:00	4662	582	-4.7	-8.1	219	6
2023-08-17T00:00	4687	580	-4.8	-9.0	217	6
2023-08-17T00:00	4716	578	-5.0	-8.7	214	6
2023-08-17T00:00	4742	576	-5.2	-8.8	211	6
2023-08-17T00:00	4754	575	-5.3	-8.7	208	6
2023-08-17T00:00	4770	574	-5.5	-8.8	205	6
2023-08-17T00:00	4788	573	-5.7	-8.9	201	6
2023-08-17T00:00	4810	571	-5.8	-9.0	198	6
2023-08-17T00:00	4837	569	-5.9	-10.6	195	5
2023-08-17T00:00	4865	567	-5.9	-10.2	195	5
2023-08-17T00:00	4878	566	-6.1	-9.4	197	5
2023-08-17T00:00	4899	565	-6.3	-9.2	202	5
2023-08-17T00:00	4917	563	-6.5	-8.6	206	5
2023-08-17T00:00	4951	561	-6.8	-8.6	210	5
2023-08-17T00:00	4970	560	-6.9	-8.7	212	4
2023-08-17T00:00	4987	558	-7.1	-8.8	214	4
2023-08-17T00:00	5011	556	-7.3	-8.7	215	4
2023-08-17T00:00	5046	554	-7.5	-8.9	216	5
2023-08-17T00:00	5075	552	-7.8	-9.4	215	5
2023-08-17T00:00	5104	550	-8.0	-9.8	214	6
2023-08-17T00:00	5122	549	-8.2	-10.3	212	6
2023-08-17T00:00	5140	547	-8.3	-11.3	211	7
2023-08-17T00:00	5159	546	-8.3	-13.2	210	7
2023-08-17T00:00	5182	544	-8.0	-17.7	210	6
2023-08-17T00:00	5213	542	-7.8	-23.3	213	6
2023-08-17T00:00	5238	541	-7.7	-28.3	216	6
2023-08-17T00:00	5254	539	-7.7	-30.0	218	6
2023-08-17T00:00	5276	538	-7.7	-27.5	218	7
2023-08-17T00:00	5307	536	-7.9	-26.6	217	7
2023-08-17T00:00	5331	534	-7.9	-27.4	215	7
2023-08-17T00:00	5348	533	-7.9	-26.5	214	7
2023-08-17T00:00	5371	531	-7.9	-17.9	214	6
2023-08-17T00:00	5398	529	-8.1	-17.0	215	6
2023-08-17T00:00	5433	527	-8.4	-17.5	218	5
2023-08-17T00:00	5457	526	-8.5	-15.9	221	5
2023-08-17T00:00	5476	524	-8.7	-14.4	224	6
2023-08-17T00:00	5496	523	-8.9	-14.0	227	6
2023-08-17T00:00	5513	522	-9.0	-14.4	228	7
2023-08-17T00:00	5530	521	-9.1	-15.2	228	7
2023-08-17T00:00	5550	519	-8.7	-16.7	227	7
2023-08-17T00:00	5569	518	-8.8	-16.3	226	6
2023-08-17T00:00	5589	517	-9.0	-14.6	224	6
2023-08-17T00:00	5615	515	-9.2	-15.2	221	6
2023-08-17T00:00	5645	513	-9.1	-19.5	219	5
2023-08-17T00:00	5672	511	-9.4	-19.7	218	5
2023-08-17T00:00	5703	509	-9.4	-22.6	216	5
2023-08-17T00:00	5719	508	-9.4	-21.9	215	5
2023-08-17T00:00	5735	507	-9.5	-21.6	214	5
2023-08-17T00:00	5757	506	-9.6	-22.9	213	5
2023-08-17T00:00	5774	504	-9.6	-26.9	211	5
2023-08-17T00:00	5804	503	-9.5	-33.9	209	5
2023-08-17T00:00	5833	501	-9.7	-31.4	206	5
2023-08-17T00:00	5864	499	-9.9	-32.6	204	5
2023-08-17T00:00	5893	497	-10.2	-32.1	202	5
2023-08-17T00:00	5916	495	-10.4	-33.2	201	5
2023-08-17T00:00	5941	494	-10.6	-35.3	200	6
2023-08-17T00:00	5975	492	-10.8	-32.7	200	6
2023-08-17T00:00	6006	490	-11.1	-27.2	199	6
2023-08-17T00:00	6033	488	-11.2	-31.7	198	6
2023-08-17T00:00	6065	486	-11.2	-37.7	197	6
2023-08-17T00:00	6097	484	-11.4	-36.5	196	5
2023-08-17T00:00	6125	482	-11.6	-33.6	197	5
2023-08-17T00:00	6156	480	-11.9	-25.0	199	5
2023-08-17T00:00	6185	478	-12.2	-23.3	203	5
2023-08-17T00:00	6217	476	-12.5	-20.3	207	5
2023-08-17T00:00	6242	475	-12.3	-26.6	210	5
2023-08-17T00:00	6276	473	-12.0	-39.4	210	5
2023-08-17T00:00	6303	471	-12.3	-40.1	208	6
2023-08-17T00:00	6335	469	-12.5	-40.6	204	6
2023-08-17T00:00	6366	467	-12.8	-39.4	201	5
2023-08-17T00:00	6390	465	-13.0	-38.1	199	5
2023-08-17T00:00	6424	464	-13.2	-33.4	199	5
2023-08-17T00:00	6453	462	-13.5	-32.1	198	5
2023-08-17T00:00	6480	460	-13.7	-28.6	198	5
2023-08-17T00:00	6515	458	-14.0	-23.7	197	5
2023-08-17T00:00	6544	456	-14.3	-23.7	197	5
2023-08-17T00:00	6577	454	-14.6	-24.4	199	4
2023-08-17T00:00	6608	453	-14.7	-25.1	202	4
2023-08-17T00:00	6627	451	-14.9	-25.3	208	4
2023-08-17T00:00	6649	450	-15.1	-25.2	213	4
2023-08-17T00:00	6677	448	-15.2	-25.1	213	4
2023-08-17T00:00	6709	446	-15.5	-25.1	210	4
2023-08-17T00:00	6741	444	-15.7	-25.3	205	5
2023-08-17T00:00	6772	443	-16.0	-25.6	200	5
2023-08-17T00:00	6802	441	-16.3	-25.4	197	5
2023-08-17T00:00	6834	439	-16.5	-25.6	196	5
2023-08-17T00:00	6860	437	-16.8	-25.7	200	4
2023-08-17T00:00	6894	436	-17.1	-25.9	204	4
2023-08-17T00:00	6925	434	-17.4	-26.0	208	4
2023-08-17T00:00	6954	432	-17.6	-26.0	210	5
2023-08-17T00:00	6981	430	-17.9	-26.1	211	5
2023-08-17T00:00	7008	429	-18.1	-26.1	211	5
2023-08-17T00:00	7033	427	-18.4	-26.1	213	5
2023-08-17T00:00	7063	426	-18.6	-26.2	214	5
2023-08-17T00:00	7087	424	-18.7	-26.2	213	5
2023-08-17T00:00	7111	423	-18.9	-26.1	208	4
2023-08-17T00:00	7133	422	-19.1	-26.2	199	4
2023-08-17T00:00	7148	421	-19.3	-26.1	191	4
2023-08-17T00:00	7167	420	-19.5	-25.9	186	5
2023-08-17T00:00	7185	419	-19.6	-25.8	185	5
2023-08-17T00:00	7205	418	-19.8	-25.9	184	6
2023-08-17T00:00	7223	417	-20.0	-25.9	183	6
2023-08-17T00:00	7242	416	-20.2	-26.0	182	7
2023-08-17T00:00	7273	414	-20.4	-26.1	182	7
2023-08-17T00:00	7291	413	-20.6	-27.3	184	7
2023-08-17T00:00	7309	412	-20.6	-30.4	189	7
2023-08-17T00:00	7343	410	-20.7	-36.9	196	7
2023-08-17T00:00	7368	409	-20.7	-40.9	203	7
2023-08-17T00:00	7391	408	-20.7	-44.3	207	7
2023-08-17T00:00	7404	407	-20.8		208	8
2023-08-17T00:00	7420	406	-21.0	-41.5	206	8
2023-08-17T00:00	7439	405	-21.1	-39.6	204	8
2023-08-17T00:00	7454	404	-21.3	-38.3	202	8
2023-08-17T00:00	7471	403	-21.4	-38.9	200	8
2023-08-17T00:00	7492	402	-21.4	-41.4	200	8
2023-08-17T00:00	7517	400	-21.5	-42.9	199	8
2023-08-17T00:00	7546	399	-21.7	-43.3	198	8
2023-08-17T00:00	7574	397	-21.9	-43.9	196	8
2023-08-17T00:00	7603	396	-22.0	-43.0	195	9
2023-08-17T00:00	7636	394	-22.1	-36.9	195	9
2023-08-17T00:00	7653	393	-22.3	-36.7	197	9
2023-08-17T00:00	7677	392	-22.5	-35.0	199	9
2023-08-17T00:00	7705	390	-22.8	-30.7	200	9
2023-08-17T00:00	7737	389	-23.0	-31.3	201	9
2023-08-17T00:00	7772	387	-23.2	-30.5	201	9
2023-08-17T00:00	7800	385	-23.4	-30.6	200	9
2023-08-17T00:00	7817	384	-23.5	-30.7	200	9
2023-08-17T00:00	7844	383	-23.6	-31.1	201	9
2023-08-17T00:00	7872	382	-23.8	-31.6	203	9
2023-08-17T00:00	7897	380	-24.0	-32.0	206	9
2023-08-17T00:00	7922	379	-24.2	-32.3	208	9
2023-08-17T00:00	7947	378	-24.3	-32.9	209	9
2023-08-17T00:00	7973	376	-24.5	-33.3	210	9
2023-08-17T00:00	8000	375	-24.6	-32.1	211	9
2023-08-17T00:00	8022	374	-24.7	-32.3	211	9
2023-08-17T00:00	8047	372	-24.9	-32.0	212	9
2023-08-17T00:00	8076	371	-25.1	-32.9	212	9
2023-08-17T00:00	8100	370	-25.3	-33.4	213	9
2023-08-17T00:00	8129	368	-25.5	-33.5	212	9
2023-08-17T00:00	8157	367	-25.8	-33.7	211	8
2023-08-17T00:00	8185	365	-26.0	-33.6	209	8
2023-08-17T00:00	8213	364	-26.3	-33.4	206	8
2023-08-17T00:00	8242	363	-26.5	-33.6	204	8
2023-08-17T00:00	8269	361	-26.7	-34.4	203	8
2023-08-17T00:00	8300	360	-27.0	-34.5	204	8
2023-08-17T00:00	8324	359	-27.2	-34.5	206	9
2023-08-17T00:00	8347	357	-27.4	-34.5	208	8
2023-08-17T00:00	8372	356	-27.6	-35.1	210	8
2023-08-17T00:00	8398	355	-27.8	-35.3	211	8
2023-08-17T00:00	8426	353	-28.0	-35.4	210	8
2023-08-17T00:00	8453	352	-28.2	-35.4	209	8
2023-08-17T00:00	8479	351	-28.4	-35.5	206	8
2023-08-17T00:00	8499	350	-28.6	-35.7	203	8
2023-08-17T00:00	8525	349	-28.7	-36.2	201	8
2023-08-17T00:00	8546	348	-28.8	-36.5	198	8
2023-08-17T00:00	8565	347	-28.9	-36.7	197	8
2023-08-17T00:00	8586	346	-29.1	-37.1	195	8
2023-08-17T00:00	8606	345	-29.2	-37.1	194	8
2023-08-17T00:00	8625	344	-29.4	-37.5	194	9
2023-08-17T00:00	8645	343	-29.5	-37.7	193	9
2023-08-17T00:00	8669	342	-29.6	-38.1	193	9
2023-08-17T00:00	8691	341	-29.7	-38.8	193	9
2023-08-17T00:00	8713	340	-29.8	-40.1	194	9
2023-08-17T00:00	8737	338	-29.9	-40.6	195	9
2023-08-17T00:00	8764	337	-30.1	-40.4	196	9
2023-08-17T00:00	8789	336	-30.4	-40.8	197	9
2023-08-17T00:00	8813	335	-30.5	-41.2	199	8
2023-08-17T00:00	8837	334	-30.7	-41.2	201	8
2023-08-17T00:00	8858	333	-30.9	-41.6	203	8
2023-08-17T00:00	8881	332	-31.0	-41.8	205	8
2023-08-17T00:00	8902	331	-31.1	-42.0	206	8
2023-08-17T00:00	8929	329	-31.3	-42.1	207	8
2023-08-17T00:00	8954	328	-31.5	-42.2	208	8
2023-08-17T00:00	8979	327	-31.7	-42.3	208	8
2023-08-17T00:00	9005	326	-32.0	-42.4	209	9
2023-08-17T00:00	9030	325	-32.2	-42.5	210	9
2023-08-17T00:00	9056	323	-32.5	-42.6	212	9
2023-08-17T00:00	9083	322	-32.7	-42.9	214	9
2023-08-17T00:00	9102	321	-32.8	-42.9	216	9
2023-08-17T00:00	9125	320	-33.0	-42.9	217	9
2023-08-17T00:00	9145	319	-33.2	-42.8	217	9
2023-08-17T00:00	9165	319	-33.4	-42.9	217	9
2023-08-17T00:00	9186	318	-33.6	-43.6	217	9
2023-08-17T00:00	9206	317	-33.5	-44.1	217	9
2023-08-17T00:00	9225	316	-33.7	-44.4	217	9
2023-08-17T00:00	9246	315	-33.8	-45.0	218	9
2023-08-17T00:00	9270	314	-34.0	-45.9	218	9
2023-08-17T00:00	9291	313	-34.1	-46.2	218	9
2023-08-17T00:00	9312	312	-34.2	-46.5	218	8
2023-08-17T00:00	9333	311	-34.4	-47.1	217	8
2023-08-17T00:00	9356	310	-34.6		216	8
2023-08-17T00:00	9378	309	-34.8	-47.4	215	8
2023-08-17T00:00	9402	308	-35.0	-47.6	214	7
2023-08-17T00:00	9425	307	-35.1	-47.7	214	7
2023-08-17T00:00	9449	306	-35.3	-47.6	215	7
2023-08-17T00:00	9476	305	-35.6	-47.7	215	7
2023-08-17T00:00	9497	304	-35.8	-47.7	214	7
2023-08-17T00:00	9519	303	-36.0	-47.7	213	7
2023-08-17T00:00	9539	302	-36.2	-47.5	211	7
2023-08-17T00:00	9561	301	-36.4	-47.5	211	7
2023-08-17T00:00	9583	300	-36.7	-47.7	211	7
2023-08-17T00:00	9604	299	-36.9	-47.6	212	7
2023-08-17T00:00	9629	298	-37.1	-47.5	213	7
2023-08-17T00:00	9651	297	-37.3	-46.9	214	8
2023-08-17T00:00	9675	296	-37.5	-47.6	215	8
2023-08-17T00:00	9695	295	-37.6	-48.8	216	8
2023-08-17T00:00	9714	294	-37.7	-49.1	217	8
2023-08-17T00:00	9733	294	-37.8	-49.0	219	8
2023-08-17T00:00	9751	293	-38.0	-49.1	220	8
2023-08-17T00:00	9770	292	-38.2	-49.3	222	8
2023-08-17T00:00	9789	291	-38.3	-49.3	223	8
2023-08-17T00:00	9809	290	-38.5	-49.5	225	8
2023-08-17T00:00	9828	290	-38.6	-49.9	226	8
2023-08-17T00:00	9848	289	-38.8	-50.1	227	8
2023-08-17T00:00	9869	288	-38.9	-50.2	228	8
2023-08-17T00:00	9888	287	-39.1	-50.4	228	9
2023-08-17T00:00	9912	286	-39.3	-50.7	228	9
2023-08-17T00:00	9934	285	-39.5	-50.6	229	9
2023-08-17T00:00	9958	284	-39.7	-50.6	229	9
2023-08-17T00:00	9980	283	-39.9	-50.6	230	9
2023-08-17T00:00	10004	282	-40.1	-50.6	231	9
2023-08-17T00:00	10027	281	-40.4	-50.8	232	9
2023-08-17T00:00	10046	280	-40.6	-50.9	232	10
2023-08-17T00:00	10067	280	-40.7	-50.8	232	10
2023-08-17T00:00	10090	279	-41.0	-51.0	232	10
2023-08-17T00:00	10109	278	-41.2	-51.0	232	10
2023-08-17T00:00	10131	277	-41.4	-51.0	231	9
2023-08-17T00:00	10150	276	-41.6	-51.0	231	9
2023-08-17T00:00	10170	275	-41.8	-51.1	231	9
2023-08-17T00:00	10190	275	-42.0	-51.1	232	9
2023-08-17T00:00	10214	274	-42.2	-51.1	233	9
2023-08-17T00:00	10234	273	-42.4	-51.2	234	9
2023-08-17T00:00	10259	272	-42.6	-51.2	235	9
2023-08-17T00:00	10280	271	-42.8	-51.5	236	8
2023-08-17T00:00	10297	270	-42.8	-51.5	237	8
2023-08-17T00:00	10320	269	-43.0	-50.9	238	8
2023-08-17T00:00	10341	268	-43.2	-50.6	238	8
2023-08-17T00:00	10364	268	-43.4	-50.8	239	8
2023-08-17T00:00	10387	267	-43.6	-50.9	240	8
2023-08-17T00:00	10414	266	-43.8	-51.2	241	7
2023-08-17T00:00	10440	265	-44.0	-51.5	241	7
2023-08-17T00:00	10467	264	-44.3	-52.0	240	6
2023-08-17T00:00	10489	263	-44.4	-52.4	238	6
2023-08-17T00:00	10511	262	-44.6	-52.9	236	6
2023-08-17T00:00	10532	261	-44.8	-53.1	233	6
2023-08-17T00:00	10553	260	-45.0	-53.4	230	6
2023-08-17T00:00	10574	259	-45.2	-53.7	227	6
2023-08-17T00:00	10594	259	-45.4	-54.0	223	6
2023-08-17T00:00	10612	258	-45.5	-54.0	220	6
2023-08-17T00:00	10632	257	-45.6	-54.1	218	7
2023-08-17T00:00	10651	256	-45.7	-54.2	216	7
2023-08-17T00:00	10670	256	-45.8	-54.2	214	7
2023-08-17T00:00	10690	255	-45.8	-53.9	213	7
2023-08-17T00:00	10709	254	-46.0	-53.8	213	7
2023-08-17T00:00	10728	253	-46.1	-53.6	212	7
2023-08-17T00:00	10747	253	-46.3	-53.7	212	7
2023-08-17T00:00	10765	252	-46.5	-54.1	211	7
2023-08-17T00:00	10786	251	-46.6	-54.3	211	7
2023-08-17T00:00	10807	250	-46.8	-54.3	210	7
2023-08-17T00:00	10826	250	-46.9	-54.3	210	7
2023-08-17T00:00	10846	249	-47.0	-55.0	210	7
2023-08-17T00:00	10865	248	-47.1	-55.2	210	8
2023-08-17T00:00	10884	248	-47.3	-55.1	210	8
2023-08-17T00:00	10902	247	-47.4	-55.3	210	8
2023-08-17T00:00	10921	246	-47.6	-55.6	211	8
2023-08-17T00:00	10939	245	-47.8	-55.8	211	8
2023-08-17T00:00	10958	245	-47.9	-55.9	210	8
2023-08-17T00:00	10977	244	-48.1	-56.4	209	8
2023-08-17T00:00	10994	243	-48.2	-56.8	208	8
2023-08-17T00:00	11015	243	-48.3	-56.9	207	8
2023-08-17T00:00	11035	242	-48.5	-56.9	206	8
2023-08-17T00:00	11054	241	-48.7	-56.9	205	8
2023-08-17T00:00	11074	240	-48.9	-57.0	203	8
2023-08-17T00:00	11093	240	-49.0	-57.1	202	8
2023-08-17T00:00	11113	239	-49.2	-57.5	202	8
2023-08-17T00:00	11132	238	-49.3	-58.1	202	8
2023-08-17T00:00	11153	238	-49.5	-58.6	203	8
2023-08-17T00:00	11173	237	-49.6	-58.5	204	8
2023-08-17T00:00	11191	236	-49.8	-58.5	205	8
2023-08-17T00:00	11210	235	-49.9	-58.6	206	8
2023-08-17T00:00	11230	235	-50.1	-58.8	206	8
2023-08-17T00:00	11248	234	-50.2	-59.1	206	8
2023-08-17T00:00	11269	233	-50.3	-59.2	206	8
2023-08-17T00:00	11290	233	-50.5	-59.2	206	8
2023-08-17T00:00	11308	232	-50.7	-59.4	205	8
2023-08-17T00:00	11328	231	-50.8	-59.4	205	8
2023-08-17T00:00	11348	231	-51.0	-59.4	204	8
2023-08-17T00:00	11368	230	-51.2	-59.5	203	8
2023-08-17T00:00	11387	229	-51.4	-59.5	203	8
2023-08-17T00:00	11406	229	-51.5	-59.5	203	8
2023-08-17T00:00	11425	228	-51.7	-59.6	204	8
2023-08-17T00:00	11446	227	-51.9	-59.8	205	9
2023-08-17T00:00	11468	226	-52.1	-60.1	206	9
2023-08-17T00:00	11489	226	-52.2	-60.3	208	9
2023-08-17T00:00	11508	225	-52.3	-60.5	209	9
2023-08-17T00:00	11527	224	-52.5	-60.6	210	9
2023-08-17T00:00	11548	224	-52.6	-60.6	211	9
2023-08-17T00:00	11565	223	-52.8	-60.7	211	9
2023-08-17T00:00	11585	222	-53.0	-60.8	211	9
2023-08-17T00:00	11604	222	-53.1	-60.7	210	9
2023-08-17T00:00	11623	221	-53.3	-60.7	210	9
2023-08-17T00:00	11643	220	-53.5	-60.8	210	9
2023-08-17T00:00	11663	220	-53.7	-60.9	210	9
2023-08-17T00:00	11680	219	-53.9	-60.9	209	9
2023-08-17T00:00	11700	218	-54.0	-60.7	209	8
2023-08-17T00:00	11722	218	-54.2	-60.5	207	8
2023-08-17T00:00	11745	217	-54.4	-60.5	206	8
2023-08-17T00:00	11767	216	-54.6	-60.7	204	8
2023-08-17T00:00	11786	215	-54.8	-60.8	202	8
2023-08-17T00:00	11808	215	-55.0	-61.0	200	8
2023-08-17T00:00	11826	214	-55.2	-61.3	198	8
2023-08-17T00:00	11845	213	-55.2	-61.5	196	8
2023-08-17T00:00	11863	213	-55.3	-61.7	196	8
2023-08-17T00:00	11884	212	-55.5	-61.8	195	9
2023-08-17T00:00	11902	212	-55.7	-61.9	195	9
2023-08-17T00:00	11918	211	-55.8	-61.8	195	9
2023-08-17T00:00	11940	210	-56.0	-61.9	196	9
2023-08-17T00:00	11960	210	-56.2	-61.9	197	9
2023-08-17T00:00	11980	209	-56.4	-62.0	199	9
2023-08-17T00:00	11999	208	-56.6	-62.0	199	9
2023-08-17T00:00	12019	208	-56.8	-62.1	200	9
2023-08-17T00:00	12038	207	-56.9	-62.0	199	9
2023-08-17T00:00	12056	206	-57.1	-62.1	199	9
2023-08-17T00:00	12078	206	-57.3	-62.2	199	9
2023-08-17T00:00	12098	205	-57.4	-62.2	200	8
2023-08-17T00:00	12117	205	-57.6	-62.2	201	8
2023-08-17T00:00	12135	204	-57.8	-62.3	203	8
2023-08-17T00:00	12156	203	-58.0	-62.4	205	8
2023-08-17T00:00	12177	203	-58.1	-62.3	208	9
2023-08-17T00:00	12193	202	-58.3	-62.4	210	9
2023-08-17T00:00	12212	201	-58.5	-62.6	212	9
2023-08-17T00:00	12233	201	-58.6	-62.7	214	9
2023-08-17T00:00	12252	200	-58.6	-62.8	216	9
2023-08-17T00:00	12271	200	-58.7	-63.0	217	9
2023-08-17T00:00	12291	199	-58.8	-63.1	219	8
2023-08-17T00:00	12309	198	-59.0	-63.1	220	8
2023-08-17T00:00	12327	198	-59.2	-63.1	221	8
2023-08-17T00:00	12345	197	-59.3	-63.0	222	8
2023-08-17T00:00	12364	197	-59.4	-63.0	221	8
2023-08-17T00:00	12383	196	-59.6	-63.1	220	8
2023-08-17T00:00	12401	195	-59.7	-63.3	219	8
2023-08-17T00:00	12419	195	-59.7	-64.0	218	8
2023-08-17T00:00	12436	194	-58.9	-64.5	218	8
2023-08-17T00:00	12452	194	-58.6	-65.6	219	8
2023-08-17T00:00	12473	193	-58.1	-66.3	221	7
2023-08-17T00:00	12491	193	-57.9	-66.8	223	7
2023-08-17T00:00	12509	192	-57.8	-67.3	227	7
2023-08-17T00:00	12528	192	-57.7	-67.6	230	7
2023-08-17T00:00	12546	191	-57.8	-67.8	233	6
2023-08-17T00:00	12564	190	-57.9	-67.8	235	6
2023-08-17T00:00	12583	190	-58.0	-67.6	237	6
2023-08-17T00:00	12602	189	-58.2	-67.5	236	6
2023-08-17T00:00	12621	189	-58.2	-67.4	233	5
2023-08-17T00:00	12641	188	-58.2	-67.3	227	5
2023-08-17T00:00	12660	188	-58.2	-67.6	219	5
2023-08-17T00:00	12681	187	-58.2	-68.2	211	6
2023-08-17T00:00	12701	186	-58.2	-69.4	205	7
2023-08-17T00:00	12720	186	-57.3	-70.4	201	7
2023-08-17T00:00	12740	185	-57.0	-71.7	198	8
2023-08-17T00:00	12760	185	-57.0	-72.5	197	9
2023-08-17T00:00	12781	184	-57.1	-72.4	197	10
2023-08-17T00:00	12802	183	-57.1	-72.0	198	10
2023-08-17T00:00	12824	183	-57.1	-72.0	200	11
2023-08-17T00:00	12846	182	-57.0	-72.3	203	12
2023-08-17T00:00	12870	181	-56.5	-72.5	207	12
2023-08-17T00:00	12898	181	-56.5	-73.1	211	13
2023-08-17T00:00	12923	180	-56.4	-73.5	214	14
2023-08-17T00:00	12947	179	-56.4	-73.7	217	14
2023-08-17T00:00	12968	179	-56.5	-74.1	219	14
2023-08-17T00:00	12987	178	-56.4	-74.4	221	14
2023-08-17T00:00	13008	178	-56.0	-74.7	222	14
2023-08-17T00:00	13026	177	-55.6	-75.0	223	14
2023-08-17T00:00	13044	177	-55.5	-75.7	224	14
2023-08-17T00:00	13064	176	-55.3	-76.1	224	14
2023-08-17T00:00	13084	175	-54.9	-76.2	225	14
2023-08-17T00:00	13103	175	-55.0	-76.4	225	14
2023-08-17T00:00	13119	174	-55.1	-76.5	225	14
2023-08-17T00:00	13138	174	-55.1	-76.5	225	13
2023-08-17T00:00	13157	173	-55.2	-76.5	225	13
2023-08-17T00:00	13175	173	-55.2	-76.7	225	13
2023-08-17T00:00	13193	172	-55.2	-76.8	224	13
2023-08-17T00:00	13213	172	-55.2	-77.0	223	13
2023-08-17T00:00	13230	171	-55.2	-77.2	221	13
2023-08-17T00:00	13248	171	-55.1	-77.5	219	13
2023-08-17T00:00	13265	171	-54.9	-77.5	217	13
2023-08-17T00:00	13284	170	-54.9	-77.5	214	13
2023-08-17T00:00	13303	170	-55.0	-77.5	212	13
2023-08-17T00:00	13321	169	-55.1	-77.6	211	13
2023-08-17T00:00	13341	169	-54.9	-77.6	211	13
2023-08-17T00:00	13356	168	-54.8	-77.7	212	13
2023-08-17T00:00	13375	168	-54.7	-77.6	213	13
2023-08-17T00:00	13393	167	-54.5	-77.5	214	13
2023-08-17T00:00	13411	167	-54.5	-77.6	215	13
2023-08-17T00:00	13432	166	-54.6	-77.7	216	13
2023-08-17T00:00	13450	166	-54.5	-77.8	217	12
2023-08-17T00:00	13466	165	-54.5	-77.8	218	13
2023-08-17T00:00	13483	165	-54.6	-77.9	218	13
2023-08-17T00:00	13499	164	-54.7	-78.0	219	13
2023-08-17T00:00	13519	164	-54.8	-78.1	221	13
2023-08-17T00:00	13539	163	-54.8	-78.1	222	14
2023-08-17T00:00	13557	163	-54.9	-78.1	224	14
2023-08-17T00:00	13575	162	-55.0	-78.2	226	14
2023-08-17T00:00	13592	162	-55.2	-78.4	228	15
2023-08-17T00:00	13613	162	-55.2	-78.6	230	15
2023-08-17T00:00	13633	161	-55.2	-78.7	232	15
2023-08-17T00:00	13650	161	-55.1	-78.9	234	15
2023-08-17T00:00	13670	160	-54.9	-78.9	236	15
2023-08-17T00:00	13688	160	-54.8	-79.0	237	14
2023-08-17T00:00	13706	159	-54.7	-79.1	237	14
2023-08-17T00:00	13726	159	-54.7	-79.4	237	13
2023-08-17T00:00	13748	158	-54.5	-79.4	236	12
2023-08-17T00:00	13767	158	-54.0	-79.3	235	12
2023-08-17T00:00	13784	157	-54.0	-79.5	233	11
2023-08-17T00:00	13807	157	-53.7	-79.3	232	10
2023-08-17T00:00	13827	156	-53.6	-79.4	230	10
2023-08-17T00:00	13846	156	-53.3	-79.5	230	9
2023-08-17T00:00	13864	155	-52.8	-79.3	229	9
2023-08-17T00:00	13884	155	-52.5	-79.4	230	9
2023-08-17T00:00	13903	154	-52.4	-79.6	230	9
2023-08-17T00:00	13921	154	-52.2	-79.5	231	10
2023-08-17T00:00	13940	153	-52.1	-79.7	231	11
2023-08-17T00:00	13961	153	-52.0	-79.6	230	11
2023-08-17T00:00	13979	153	-52.0	-79.6	228	11
2023-08-17T00:00	13998	152	-52.1	-80.0	224	11
2023-08-17T00:00	14019	152	-51.9	-80.2	220	12
2023-08-17T00:00	14041	151	-51.2	-79.7	216	12
2023-08-17T00:00	14063	151	-51.2	-79.7	214	12
2023-08-17T00:00	14087	150	-51.2	-79.7	213	12
2023-08-17T00:00	14107	150	-51.4	-79.8	213	12
2023-08-17T00:00	14131	149	-51.6	-79.6	212	13
2023-08-17T00:00	14158	148	-51.7	-79.7	210	13
2023-08-17T00:00	14183	148	-51.9	-79.9	207	13
2023-08-17T00:00	14206	147	-52.0	-80.0	204	14
2023-08-17T00:00	14232	147	-52.2	-79.8	202	15
2023-08-17T00:00	14252	146	-52.4	-79.9	201	15
2023-08-17T00:00	14273	146	-52.5	-80.0	200	16
2023-08-17T00:00	14293	145	-52.5	-80.0	201	16
2023-08-17T00:00	14313	145	-52.4	-79.9	201	16
2023-08-17T00:00	14333	144	-52.4	-79.9	202	16
2023-08-17T00:00	14352	144	-52.3	-79.9	202	15
2023-08-17T00:00	14371	144	-52.3	-79.9	203	15
2023-08-17T00:00	14393	143	-52.3	-79.9	205	14
2023-08-17T00:00	14413	143	-52.4	-79.9	206	14
2023-08-17T00:00	14433	142	-52.4	-79.9	206	14
2023-08-17T00:00	14452	142	-52.4	-79.9	206	14
2023-08-17T00:00	14475	141	-52.4	-79.9	205	14
2023-08-17T00:00	14496	141	-52.3	-79.9	203	14
2023-08-17T00:00	14514	140	-52.3	-79.9	202	14
2023-08-17T00:00	14539	140	-52.3	-79.9	200	14
2023-08-17T00:00	14558	140	-52.3	-79.5	199	14
2023-08-17T00:00	14581	139	-52.4	-79.6	198	15
2023-08-17T00:00	14601	139	-52.4	-79.6	198	15
2023-08-17T00:00	14620	138	-52.5	-79.4	198	15
2023-08-17T00:00	14643	138	-52.4	-79.3	199	15
2023-08-17T00:00	14663	137	-52.5	-79.4	199	15
2023-08-17T00:00	14681	137	-52.6	-79.5	200	16
2023-08-17T00:00	14702	136	-52.7	-79.3	201	16
2023-08-17T00:00	14721	136	-52.8	-79.3	202	16
2023-08-17T00:00	14739	136	-52.9	-79.4	204	16
2023-08-17T00:00	14759	135	-53.0	-79.5	206	16
2023-08-17T00:00	14782	135	-53.1	-79.6	208	16
2023-08-17T00:00	14801	134	-53.2	-79.9	211	16
2023-08-17T00:00	14820	134	-53.3	-80.0	214	16
2023-08-17T00:00	14839	134	-53.3	-80.0	217	16
2023-08-17T00:00	14857	133	-53.4	-80.1	219	16
2023-08-17T00:00	14875	133	-53.4	-80.4	221	16
2023-08-17T00:00	14893	132	-53.4	-80.4	223	16
2023-08-17T00:00	14909	132	-53.3	-80.3	225	16
2023-08-17T00:00	14929	132	-53.2	-80.5	226	15
2023-08-17T00:00	14947	131	-53.1	-80.5	228	15
2023-08-17T00:00	14965	131	-53.1	-80.8	229	14
2023-08-17T00:00	14981	131	-52.9	-80.6	230	14
2023-08-17T00:00	14999	130	-52.9	-80.6	231	14
2023-08-17T00:00	15017	130	-52.9	-80.3	232	13
2023-08-17T00:00	15036	130	-53.0	-80.4	233	13
2023-08-17T00:00	15053	129	-53.1	-80.5	234	12
2023-08-17T00:00	15070	129	-53.2	-80.5	235	12
2023-08-17T00:00	15086	129	-53.3	-80.6	236	11
2023-08-17T00:00	15104	128	-53.3	-80.6	236	11
2023-08-17T00:00	15121	128	-53.3	-80.6	236	10
2023-08-17T00:00	15136	128	-53.1	-80.8	236	10
2023-08-17T00:00	15154	127	-53.1	-80.8	235	10
2023-08-17T00:00	15172	127	-53.2	-80.9	234	9
2023-08-17T00:00	15187	127	-52.4	-80.6	233	9
2023-08-17T00:00	15204	126	-52.5	-80.7	231	9
2023-08-17T00:00	15221	126	-52.4	-80.6	229	8
2023-08-17T00:00	15240	126	-52.5	-80.7	226	8
2023-08-17T00:00	15259	125	-52.5	-80.7	222	8
2023-08-17T00:00	15277	125	-52.5	-80.7	216	8
2023-08-17T00:00	15295	124	-52.4	-80.6	211	8
2023-08-17T00:00	15317	124	-52.4	-80.6	206	8
2023-08-17T00:00	15335	124	-52.4	-80.6	202	8
2023-08-17T00:00	15357	123	-52.5	-80.7	199	8
2023-08-17T00:00	15374	123	-52.6	-80.4	197	9
2023-08-17T00:00	15397	123	-52.8	-80.6	196	9
2023-08-17T00:00	15418	122	-52.9	-80.6	196	10
2023-08-17T00:00	15438	122	-53.0	-80.7	197	10
2023-08-17T00:00	15460	121	-53.1	-80.8	197	11
2023-08-17T00:00	15484	121	-53.3	-80.6	198	12
2023-08-17T00:00	15506	120	-53.4	-80.7	198	12
2023-08-17T00:00	15523	120	-53.6	-80.9	199	13
2023-08-17T00:00	15550	120	-53.8	-81.0	199	13
2023-08-17T00:00	15572	119	-53.9	-81.1	200	14
2023-08-17T00:00	15597	119	-54.1	-81.2	200	14
2023-08-17T00:00	15620	118	-54.2	-81.3	200	15
2023-08-17T00:00	15643	118	-54.2	-81.3	201	15
2023-08-17T00:00	15667	117	-54.2	-81.0	202	16
2023-08-17T00:00	15689	117	-54.4	-81.2	203	16
2023-08-17T00:00	15716	117	-54.6	-81.3	205	16
2023-08-17T00:00	15742	116	-54.8	-81.5	206	16
2023-08-17T00:00	15770	116	-55.0	-81.6	208	15
2023-08-17T00:00	15796	115	-55.1	-81.7	210	15
2023-08-17T00:00	15820	115	-55.3	-81.9	212	15
2023-08-17T00:00	15845	114	-55.4	-81.9	212	15
2023-08-17T00:00	15872	114	-55.4	-81.9	212	15
2023-08-17T00:00	15899	113	-55.5	-82.0	212	14
2023-08-17T00:00	15929	113	-55.4	-81.9	211	14
2023-08-17T00:00	15955	112	-55.1	-81.7	210	13
2023-08-17T00:00	15981	112	-55.2	-81.8	210	12
2023-08-17T00:00	16008	111	-55.3	-82.2	210	11
2023-08-17T00:00	16032	111	-55.4	-82.2	209	11
2023-08-17T00:00	16054	111	-55.2	-82.1	208	10
2023-08-17T00:00	16078	110	-55.3	-82.2	206	10
2023-08-17T00:00	16100	110	-55.3	-82.2	205	10
2023-08-17T00:00	16127	109	-55.0	-81.9	203	10
2023-08-17T00:00	16150	109	-55.0	-81.9	203	10
2023-08-17T00:00	16170	109	-54.9	-81.9	203	10
2023-08-17T00:00	16193	108	-55.1	-82.0	203	10
2023-08-17T00:00	16215	108	-55.3	-82.2	204	10
2023-08-17T00:00	16240	107	-55.6	-82.4	204	10
2023-08-17T00:00	16261	107	-55.7	-82.2	204	9
2023-08-17T00:00	16281	107	-55.7	-82.2	204	9
2023-08-17T00:00	16301	106	-55.7	-82.5	203	9
2023-08-17T00:00	16322	106	-55.7	-82.5	201	9
2023-08-17T00:00	16344	106	-55.7	-82.5	200	8
2023-08-17T00:00	16360	105	-55.8	-82.5	198	8
2023-08-17T00:00	16381	105	-55.9	-82.6	197	8
2023-08-17T00:00	16402	105	-55.9	-82.6	196	8
2023-08-17T00:00	16420	104	-55.9	-82.6	196	9
2023-08-17T00:00	16443	104	-55.9	-82.6	197	9
2023-08-17T00:00	16462	104	-55.9	-82.6	198	9
2023-08-17T00:00	16481	103	-56.0	-82.7	201	10
2023-08-17T00:00	16501	103	-56.2	-82.6	203	10
2023-08-17T00:00	16523	103	-56.3	-82.6	206	11
2023-08-17T00:00	16539	102	-56.3	-82.6	209	11
2023-08-17T00:00	16563	102	-56.3	-82.9	212	12
2023-08-17T00:00	16578	102	-56.3	-82.9	214	12
2023-08-17T00:00	16600	102	-56.3	-82.9	216	13
2023-08-17T00:00	16617	101	-56.0	-83.0	218	13
2023-08-17T00:00	16636	101	-55.7	-82.8	219	13
2023-08-17T00:00	16655	101	-55.8	-83.2	220	13
2023-08-17T00:00	16675	100	-55.8	-83.2	220	13
2023-08-17T00:00	16696	100	-55.7	-83.1	220	13
2023-08-17T00:00	16715	100	-55.6	-83.1	220	13
2023-08-17T00:00	16739	99	-55.7	-83.1	220	13
2023-08-17T00:00	16763	99	-55.8	-82.9	220	13
2023-08-17T00:00	16783	99	-56.0	-83.0	219	12
2023-08-17T00:00	16806	98	-56.1	-83.1	218	12
2023-08-17T00:00	16828	98	-56.0	-83.4	216	11
2023-08-17T00:00	16852	98	-56.1	-83.4	214	11
2023-08-17T00:00	16877	97	-55.9	-83.3	211	10
2023-08-17T00:00	16904	97	-55.9	-83.3	207	10
2023-08-17T00:00	16925	96	-55.7	-83.5	203	11
2023-08-17T00:00	16948	96	-55.6	-83.4	199	11
2023-08-17T00:00	16971	96	-55.5		196	11
2023-08-17T00:00	16999	95	-55.7	-83.5	194	12
2023-08-17T00:00	17021	95	-55.7	-83.1	193	13
2023-08-17T00:00	17047	95	-55.8	-83.2	192	13
2023-08-17T00:00	17072	94	-55.9	-83.3	191	14
2023-08-17T00:00	17094	94	-56.1	-83.4	191	14
2023-08-17T00:00	17119	94	-56.2	-83.5	192	15
2023-08-17T00:00	17143	93	-56.4	-83.7	193	15
2023-08-17T00:00	17163	93	-56.5	-83.7	194	15
2023-08-17T00:00	17184	93	-56.6	-83.8	196	14
2023-08-17T00:00	17206	92	-56.7	-83.9	199	14
2023-08-17T00:00	17232	92	-56.7	-83.9	201	14
2023-08-17T00:00	17254	92	-56.7	-83.9	204	13
2023-08-17T00:00	17276	91	-56.8	-84.0	206	13
2023-08-17T00:00	17300	91	-56.9	-84.0	209	13
2023-08-17T00:00	17323	91	-56.9	-84.0	210	13
2023-08-17T00:00	17346	90	-57.0	-84.1	212	12
2023-08-17T00:00	17368	90	-57.0	-84.1	213	12
2023-08-17T00:00	17389	90	-56.9	-84.0	214	12
2023-08-17T00:00	17412	89	-56.7	-84.2	216	11
2023-08-17T00:00	17435	89	-56.7	-84.2	217	11
2023-08-17T00:00	17458	89	-56.8	-84.3	219	10
2023-08-17T00:00	17481	88	-56.9	-84.4	222	10
2023-08-17T00:00	17503	88	-56.6	-84.2	224	10
2023-08-17T00:00	17522	88	-56.5	-84.1	228	9
2023-08-17T00:00	17544	87	-56.5	-84.1	231	9
2023-08-17T00:00	17565	87	-56.6	-84.2	235	9
2023-08-17T00:00	17584	87	-56.6	-84.2	239	9
2023-08-17T00:00	17605	87	-56.6	-84.2	241	8
2023-08-17T00:00	17625	86	-56.5	-84.1	242	8
2023-08-17T00:00	17645	86	-56.4	-84.4	242	8
2023-08-17T00:00	17663	86	-56.1	-84.2	242	8
2023-08-17T00:00	17685	86	-56.1	-84.2	242	9
2023-08-17T00:00	17701	85	-55.9	-84.0	242	9
2023-08-17T00:00	17720	85	-55.8	-83.9	243	8
2023-08-17T00:00	17739	85	-55.6	-83.8	245	8
2023-08-17T00:00	17759	85	-55.5	-83.7	246	8
2023-08-17T00:00	17779	84	-55.4	-83.6	247	7
2023-08-17T00:00	17795	84	-55.4	-83.6	246	7
2023-08-17T00:00	17819	84	-55.4	-83.6	244	7
2023-08-17T00:00	17838	84	-55.5	-83.7	240	7
2023-08-17T00:00	17860	83	-55.6	-83.8	235	7
2023-08-17T00:00	17882	83	-55.4	-83.6	230	7
2023-08-17T00:00	17906	83	-55.4	-83.6	226	7
2023-08-17T00:00	17926	82	-55.5	-83.7	223	7
2023-08-17T00:00	17949	82	-55.5	-83.7	221	7
2023-08-17T00:00	17970	82	-55.7	-83.9	219	8
2023-08-17T00:00	17994	81	-55.9	-83.6	219	8
2023-08-17T00:00	18018	81	-56.1	-83.8	218	9
2023-08-17T00:00	18041	81	-56.3	-83.9	218	9
2023-08-17T00:00	18066	81	-56.5	-84.1	219	10
2023-08-17T00:00	18090	80	-56.7	-84.2	220	11
2023-08-17T00:00	18113	80	-56.7	-84.2	222	12
2023-08-17T00:00	18137	80	-56.6	-84.2	223	12
2023-08-17T00:00	18160	79	-56.5	-84.5	224	12
2023-08-17T00:00	18186	79	-56.4	-84.4	226	12
2023-08-17T00:00	18211	79	-56.2	-84.2	227	12
2023-08-17T00:00	18236	78	-55.9	-84.4	228	11
2023-08-17T00:00	18259	78	-55.5	-84.1	229	11
2023-08-17T00:00	18282	78	-55.4	-84.0	229	10
2023-08-17T00:00	18304	78	-55.3	-84.0	229	10
2023-08-17T00:00	18328	77	-55.2	-83.9	228	10
2023-08-17T00:00	18348	77	-55.1	-83.8	227	10
2023-08-17T00:00	18375	77	-55.0	-83.7	226	10
2023-08-17T00:00	18400	76	-54.8	-83.6	225	10
2023-08-17T00:00	18419	76	-54.9	-83.7	224	10
2023-08-17T00:00	18441	76	-55.1	-83.8	224	10
2023-08-17T00:00	18465	76	-55.1	-83.8	224	10
2023-08-17T00:00	18487	75	-55.0	-83.7	223	9
2023-08-17T00:00	18508	75	-55.0	-83.7	223	9
2023-08-17T00:00	18529	75	-55.0	-83.7	222	8
2023-08-17T00:00	18549	75	-54.9	-83.7	222	8
2023-08-17T00:00	18569	74	-54.8	-84.0	222	8
2023-08-17T00:00	18589	74	-54.8	-84.0	221	8
2023-08-17T00:00	18608	74	-54.7	-83.9	221	8
2023-08-17T00:00	18631	74	-54.3	-83.6	220	8
2023-08-17T00:00	18647	74	-54.2	-83.6	220	9
2023-08-17T00:00	18666	73	-54.3	-83.6	219	9
2023-08-17T00:00	18681	73	-54.4	-83.7	218	9
2023-08-17T00:00	18699	73	-54.5	-83.8	216	8
2023-08-17T00:00	18721	73	-54.4	-83.7	212	8
2023-08-17T00:00	18763	72	-54.3	-83.6	204	7
2023-08-17T00:00	18808	72	-53.8	-83.3	196	7
2023-08-17T00:00	18836	71	-54.1	-83.5	187	8
2023-08-17T00:00	18853	71	-54.3	-83.6	181	8
2023-08-17T00:00	18885	71	-53.8	-83.3	177	8
2023-08-17T00:00	18908	71	-53.9	-83.3	174	9
2023-08-17T00:00	18938	70	-54.1	-83.5	173	9
2023-08-17T00:00	18962	70	-54.5	-83.4	171	9
2023-08-17T00:00	18986	70	-54.6	-83.4	170	10
2023-08-17T00:00	19012	69	-54.7	-83.5	169	10
2023-08-17T00:00	19040	69	-55.1	-83.8	168	10
2023-08-17T00:00	19061	69	-54.8	-83.6	168	10
2023-08-17T00:00	19081	69	-54.8	-83.6	169	10
2023-08-17T00:00	19105	69	-54.9	-83.7	172	10
2023-08-17T00:00	19122	68	-55.1	-83.8	175	10
2023-08-17T00:00	19151	68	-55.3	-84.0	178	9
2023-08-17T00:00	19178	68	-55.4	-84.0	181	9
2023-08-17T00:00	19206	67	-55.5	-83.7	185	9
2023-08-17T00:00	19229	67	-55.7	-83.9	188	9
2023-08-17T00:00	19248	67	-55.9	-84.0	192	9
2023-08-17T00:00	19273	67	-56.1	-84.2	195	9
2023-08-17T00:00	19296	66	-56.3	-84.3	198	8
2023-08-17T00:00	19319	66	-56.2	-84.2	199	8
2023-08-17T00:00	19341	66	-56.1	-84.2	199	8
2023-08-17T00:00	19367	66	-56.2	-84.2	198	7
2023-08-17T00:00	19390	65	-56.2	-84.2	196	7
2023-08-17T00:00	19415	65	-56.3	-84.3	192	7
2023-08-17T00:00	19443	65	-56.4	-84.4	189	6
2023-08-17T00:00	19466	65	-56.5	-84.5	186	6
2023-08-17T00:00	19495	64	-56.5	-84.5	184	6
2023-08-17T00:00	19519	64	-56.6	-84.5	183	6
2023-08-17T00:00	19543	64	-56.7	-84.6	185	5
2023-08-17T00:00	19566	64	-56.9	-84.8	189	5
2023-08-17T00:00	19594	63	-56.6	-84.5	196	5
2023-08-17T00:00	19622	63	-56.5	-84.5	205	5
2023-08-17T00:00	19646	63	-56.6	-84.5	213	5
2023-08-17T00:00	19674	63	-56.8	-84.7	221	6
2023-08-17T00:00	19702	62	-56.9	-84.8	226	6
2023-08-17T00:00	19728	62	-57.1	-84.9	231	7
2023-08-17T00:00	19755	62	-57.2	-85.0	235	7
2023-08-17T00:00	19779	62	-57.3	-85.1	240	7
2023-08-17T00:00	19802	61	-57.3	-85.1	245	7
2023-08-17T00:00	19830	61	-57.1	-84.9	251	7
2023-08-17T00:00	19858	61	-56.9	-84.8	257	7
2023-08-17T00:00	19884	61	-57.0	-84.8	263	6
2023-08-17T00:00	19907	60	-56.8	-85.1	269	6
2023-08-17T00:00	19932	60	-56.7	-85.0	274	6
2023-08-17T00:00	19958	60	-56.4	-84.8	280	6
2023-08-17T00:00	19985	60	-56.3	-84.7	285	5
2023-08-17T00:00	20005	59	-56.2	-84.6	289	5
2023-08-17T00:00	20023	59	-56.0	-84.5	293	5
2023-08-17T00:00	20054	59	-55.8	-84.3	295	5
2023-08-17T00:00	20075	59	-56.0	-84.5	296	5
2023-08-17T00:00	20096	59	-56.1	-84.6	296	4
2023-08-17T00:00	20120	58	-56.2	-84.6	296	4
2023-08-17T00:00	20143	58	-56.1	-84.6	296	4
2023-08-17T00:00	20161	58	-56.1	-84.6	295	4
2023-08-17T00:00	20185	58	-56.2	-84.6	293	4
2023-08-17T00:00	20209	58	-56.3	-84.3	288	3
2023-08-17T00:00	20231	57	-56.4	-84.4	279	3
2023-08-17T00:00	20255	57	-56.5	-84.5	267	3
2023-08-17T00:00	20276	57	-56.6	-84.5	252	3
2023-08-17T00:00	20300	57	-56.7	-84.6	239	3
2023-08-17T00:00	20319	57	-56.7	-84.6	230	4
2023-08-17T00:00	20343	56	-56.7	-84.6	226	4
2023-08-17T00:00	20367	56	-56.8	-85.1	224	5
2023-08-17T00:00	20388	56	-56.8	-85.1	225	5
2023-08-17T00:00	20413	56	-56.4	-84.8	228	5
2023-08-17T00:00	20437	56	-56.4	-84.8	232	5
2023-08-17T00:00	20461	55	-56.4	-84.8	237	5
2023-08-17T00:00	20487	55	-56.1	-85.0	241	5
2023-08-17T00:00	20514	55	-56.0	-84.9	244	4
2023-08-17T00:00	20538	55	-55.9	-84.8	243	4
2023-08-17T00:00	20563	54	-55.7	-84.7	238	4
2023-08-17T00:00	20588	54	-55.4	-84.5	231	4
2023-08-17T00:00	20613	54	-55.1	-84.2	224	4
2023-08-17T00:00	20644	54	-54.9	-84.1	219	4
2023-08-17T00:00	20667	54	-55.1	-84.2	218	4
2023-08-17T00:00	20694	53	-55.2	-84.3	219	3
2023-08-17T00:00	20723	53	-55.0	-84.2	223	2
2023-08-17T00:00	20749	53	-54.9	-84.1	229	1
2023-08-17T00:00	20782	53	-54.9	-84.6	56	1
2023-08-17T00:00	20810	52	-54.6	-84.3	64	2
2023-08-17T00:00	20840	52	-54.5	-84.3	73	4
2023-08-17T00:00	20870	52	-54.3	-84.1	80	5
2023-08-17T00:00	20906	52	-54.4	-84.2	87	6
2023-08-17T00:00	20932	51	-54.5	-83.8	94	7
2023-08-17T00:00	20959	51	-54.5	-83.8	99	7
2023-08-17T00:00	20986	51	-54.5	-83.8	104	8
2023-08-17T00:00	21011	51	-54.7	-83.9	107	8
2023-08-17T00:00	21040	51	-54.9	-84.1	110	9
2023-08-17T00:00	21063	50	-55.0	-84.2	112	9
2023-08-17T00:00	21088	50	-54.9	-84.1	114	10
2023-08-17T00:00	21111	50	-55.1	-83.8	116	10
2023-08-17T00:00	21134	50	-55.2	-83.9	117	10
2023-08-17T00:00	21159	50	-55.3	-84.0	119	10
2023-08-17T00:00	21185	49	-55.5	-84.1	120	10
2023-08-17T00:00	21208	49	-55.7	-84.3	121	10
2023-08-17T00:00	21227	49	-55.9	-84.4	122	10
2023-08-17T00:00	21252	49	-56.1	-84.2	124	10
2023-08-17T00:00	21279	49	-56.3	-84.3	125	10
2023-08-17T00:00	21297	49	-56.5	-84.5	127	10
2023-08-17T00:00	21323	48	-56.7	-84.6	128	9
2023-08-17T00:00	21349	48	-56.8	-84.7	128	8
2023-08-17T00:00	21378	48	-56.7	-84.6	129	7
2023-08-17T00:00	21398	48	-56.5	-84.9	128	7
2023-08-17T00:00	21422	48	-56.5	-84.9	128	6
2023-08-17T00:00	21444	47	-56.6	-84.9	127	6
2023-08-17T00:00	21466	47	-56.3	-84.7	127	6
2023-08-17T00:00	21494	47	-56.1	-84.6	127	6
2023-08-17T00:00	21521	47	-56.2	-84.6	127	6
2023-08-17T00:00	21543	47	-56.3	-84.7	128	6
2023-08-17T00:00	21567	47	-56.3	-84.7	127	5
2023-08-17T00:00	21587	46	-56.4	-84.8	126	5
2023-08-17T00:00	21619	46	-56.4	-84.8	124	4
2023-08-17T00:00	21641	46	-56.3	-84.7	122	4
2023-08-17T00:00	21666	46	-56.5	-84.9	121	4
2023-08-17T00:00	21691	46	-56.6	-84.9	120	4
2023-08-17T00:00	21715	45	-56.6	-84.9	119	4
2023-08-17T00:00	21741	45	-56.5	-84.9	119	3
2023-08-17T00:00	21764	45	-56.5	-84.9	120	3
2023-08-17T00:00	21791	45	-56.5	-84.9	122	3
2023-08-17T00:00	21816	45	-56.4	-84.8	127	2
2023-08-17T00:00	21839	45	-56.4	-84.8	133	2
2023-08-17T00:00	21865	44	-56.2	-84.6	139	2
2023-08-17T00:00	21891	44	-56.3	-84.7	141	2
2023-08-17T00:00	21913	44	-56.4	-84.8	138	1
2023-08-17T00:00	21937	44	-56.4	-84.8	130	2
2023-08-17T00:00	21964	44	-56.3	-84.7	122	2
2023-08-17T00:00	21992	44	-56.4	-84.8	116	2
2023-08-17T00:00	22014	43	-56.1	-84.6	112	3
2023-08-17T00:00	22037	43	-56.1	-84.6	111	3
2023-08-17T00:00	22062	43	-56.1	-85.0	110	4
2023-08-17T00:00	22087	43	-56.1	-85.0	111	4
2023-08-17T00:00	22112	43	-56.0	-84.9	112	4
2023-08-17T00:00	22138	43	-56.0	-84.9	113	4
2023-08-17T00:00	22164	42	-55.8	-84.8	115	4
2023-08-17T00:00	22192	42	-55.6	-84.6	117	4
2023-08-17T00:00	22213	42	-55.4	-84.5	119	3
2023-08-17T00:00	22237	42	-55.2	-84.3	119	3
2023-08-17T00:00	22265	42	-55.1	-84.7	116	3
2023-08-17T00:00	22287	42	-55.1	-84.7	108	2
2023-08-17T00:00	22312	41	-55.0	-84.2	95	2
2023-08-17T00:00	22335	41	-55.2	-84.3	81	3
2023-08-17T00:00	22361	41	-55.2	-84.3	73	3
2023-08-17T00:00	22385	41	-55.0	-84.2	71	4
2023-08-17T00:00	22414	41	-54.9	-84.6	73	5
2023-08-17T00:00	22436	41	-54.9	-84.6	77	6
2023-08-17T00:00	22461	40	-54.7	-84.4	81	7
2023-08-17T00:00	22484	40	-54.4	-84.2	85	7
2023-08-17T00:00	22506	40	-54.4	-84.2	88	7
2023-08-17T00:00	22533	40	-54.3	-84.1	91	7
2023-08-17T00:00	22558	40	-54.5	-84.3	93	7
2023-08-17T00:00	22580	40	-54.5	-84.3	93	6
2023-08-17T00:00	22611	40	-54.6	-83.9	93	6
2023-08-17T00:00	22630	39	-54.7	-83.9	92	5
2023-08-17T00:00	22655	39	-54.8	-84.0	91	5
2023-08-17T00:00	22682	39	-55.0	-84.2	90	5
2023-08-17T00:00	22708	39	-55.1	-84.2	91	5
2023-08-17T00:00	22731	39	-55.1	-84.2	92	5
2023-08-17T00:00	22764	39	-55.0	-84.2	92	5
2023-08-17T00:00	22789	38	-54.9	-84.6	92	5
2023-08-17T00:00	22806	38	-54.8	-84.5	91	6
2023-08-17T00:00	22836	38	-54.8	-84.5	90	6
2023-08-17T00:00	22860	38	-54.7	-84.4	89	6
2023-08-17T00:00	22886	38	-54.8	-84.5	89	5
2023-08-17T00:00	22912	38	-54.7	-84.4	90	5
2023-08-17T00:00	22937	38	-54.7	-83.9	93	4
2023-08-17T00:00	22964	37	-54.8	-84.0	97	3
2023-08-17T00:00	22985	37	-54.9	-84.1	101	3
2023-08-17T00:00	23007	37	-55.1	-84.2	102	3
2023-08-17T00:00	23037	37	-55.3	-84.4	100	3
2023-08-17T00:00	23058	37	-55.2	-84.3	95	3
2023-08-17T00:00	23086	37	-55.0	-84.6	89	3
2023-08-17T00:00	23107	37	-54.8	-84.5	85	4
2023-08-17T00:00	23130	36	-54.7	-84.4	82	4
2023-08-17T00:00	23155	36	-54.6	-84.3	81	5
2023-08-17T00:00	23180	36	-54.6	-84.3	82	5
2023-08-17T00:00	23206	36	-54.5	-84.3	84	6
2023-08-17T00:00	23229	36	-54.5	-84.3	85	6
2023-08-17T00:00	23258	36	-54.5	-84.3	86	7
2023-08-17T00:00	23278	36	-54.5	-84.3	85	7
2023-08-17T00:00	23298	35	-54.5	-84.3	83	8
2023-08-17T00:00	23320	35	-54.4	-84.2	81	8
2023-08-17T00:00	23352	35	-54.4	-84.2	79	9
2023-08-17T00:00	23374	35	-54.5	-84.3	78	9
2023-08-17T00:00	23396	35	-54.6	-84.3	78	10
2023-08-17T00:00	23416	35	-54.6	-84.3	78	10
2023-08-17T00:00	23443	35	-54.5	-84.3	80	11
2023-08-17T00:00	23465	35	-54.2	-84.0	83	11
2023-08-17T00:00	23495	34	-54.2	-84.0	87	11
2023-08-17T00:00	23518	34	-53.9	-83.8	91	10
2023-08-17T00:00	23543	34	-53.9	-83.8	95	10
2023-08-17T00:00	23569	34	-54.0	-83.9	99	10
2023-08-17T00:00	23601	34	-54.3	-84.1	102	10
2023-08-17T00:00	23623	34	-54.4	-84.2	104	9
2023-08-17T00:00	23645	34	-54.5	-83.8	107	9
2023-08-17T00:00	23666	33	-54.6	-83.9	109	9
2023-08-17T00:00	23695	33	-54.7	-83.9	112	9
2023-08-17T00:00	23713	33	-54.8	-84.0	114	8
2023-08-17T00:00	23737	33	-54.8	-84.0	117	8
2023-08-17T00:00	23769	33	-54.8	-84.0	121	8
2023-08-17T00:00	23786	33	-54.9	-84.1	124	8
2023-08-17T00:00	23807	33	-55.0	-84.2	127	8
2023-08-17T00:00	23836	33	-55.0	-84.6	130	7
2023-08-17T00:00	23865	32	-54.9	-84.6	132	7
2023-08-17T00:00	23883	32	-54.9	-84.6	132	6
2023-08-17T00:00	23905	32	-54.9	-84.6	129	6
2023-08-17T00:00	23936	32	-54.4	-84.2	124	6
2023-08-17T00:00	23959	32	-54.2	-84.0	117	5
2023-08-17T00:00	23982	32	-54.2	-84.0	110	5
2023-08-17T00:00	24009	32	-54.2	-84.0	103	5
2023-08-17T00:00	24037	32	-54.2	-84.0	98	5
2023-08-17T00:00	24060	31	-54.2	-84.0	94	6
2023-08-17T00:00	24090	31	-54.1	-84.5	93	6
2023-08-17T00:00	24108	31	-53.9	-84.3	93	7
2023-08-17T00:00	24143	31	-53.6	-84.1	93	8
2023-08-17T00:00	24167	31	-53.8	-84.2	94	9
2023-08-17T00:00	24194	31	-53.7	-83.7	96	10
2023-08-17T00:00	24224	31	-53.8	-83.7	98	10
2023-08-17T00:00	24249	31	-53.9	-83.8	100	11
2023-08-17T00:00	24273	30	-54.0	-83.9	101	11
2023-08-17T00:00	24306	30	-54.1	-84.0	103	11
2023-08-17T00:00	24328	30	-54.3	-83.6	104	11
2023-08-17T00:00	24351	30	-54.5	-83.8	106	11
2023-08-17T00:00	24384	30	-54.7	-83.9	107	11
2023-08-17T00:00	24419	30	-55.0	-84.2	108	10
2023-08-17T00:00	24440	30	-55.1	-84.2	108	10
2023-08-17T00:00	24471	30	-55.3	-84.4	108	9
2023-08-17T00:00	24502	29	-55.3	-84.4	108	8
2023-08-17T00:00	24524	29	-55.3	-84.4	108	8
2023-08-17T00:00	24547	29	-55.3	-84.4	107	7
2023-08-17T00:00	24587	29	-55.4	-84.5	107	7
2023-08-17T00:00	24604	29	-55.4	-84.5	107	7
2023-08-17T00:00	24629	29	-55.3	-84.9	107	7
2023-08-17T00:00	24659	29	-55.2	-84.8	107	7
2023-08-17T00:00	24690	29	-55.2	-84.8	107	7
2023-08-17T00:00	24710	28	-55.1	-84.7	108	7
2023-08-17T00:00	24738	28	-55.1	-84.7	108	7
2023-08-17T00:00	24764	28	-54.9	-84.6	108	7
2023-08-17T00:00	24793	28	-54.9	-84.6	107	6
2023-08-17T00:00	24827	28	-54.8	-85.0	106	6
2023-08-17T00:00	24850	28	-54.2	-84.5	101	5
2023-08-17T00:00	24877	28	-54.0	-84.4	95	5
2023-08-17T00:00	24895	28	-53.7	-84.2	85	4
2023-08-17T00:00	24930	28	-53.6	-84.1	74	5
2023-08-17T00:00	24945	27	-53.4	-83.9	64	5
2023-08-17T00:00	24971	27	-53.4	-83.9	57	6
2023-08-17T00:00	24990	27	-53.3	-83.9	54	6
2023-08-17T00:00	25017	27	-53.2	-83.8	53	7
2023-08-17T00:00	25043	27	-53.1	-83.7	54	8
2023-08-17T00:00	25065	27	-52.9	-83.6	56	8
2023-08-17T00:00	25088	27	-52.7	-83.4	58	9
2023-08-17T00:00	25111	27	-52.6	-83.3	61	10
2023-08-17T00:00	25139	27	-52.5	-83.3	65	10
2023-08-17T00:00	25160	27	-52.6	-83.3	68	11
2023-08-17T00:00	25193	26	-52.7	-83.4	70	11
2023-08-17T00:00	25206	26	-52.9	-83.6	73	12
2023-08-17T00:00	25228	26	-52.9	-83.6	76	12
2023-08-17T00:00	25252	26	-53.0	-83.6	78	12
2023-08-17T00:00	25271	26	-53.1	-83.7	80	12
2023-08-17T00:00	25299	26	-53.0	-83.6	83	12
2023-08-17T00:00	25327	26	-52.9	-83.6	85	12
2023-08-17T00:00	25354	26	-52.8	-83.5	87	12
2023-08-17T00:00	25376	26	-52.7	-83.4	89	12
2023-08-17T00:00	25401	26	-52.6	-83.3	91	12
2023-08-17T00:00	25435	25	-52.4	-83.2	94	12
2023-08-17T00:00	25460	25	-52.4	-83.2	97	12
2023-08-17T00:00	25484	25	-52.3	-83.1	100	12
2023-08-17T00:00	25510	25	-52.4	-83.2	102	12
2023-08-17T00:00	25545	25	-52.4	-83.2	104	12
2023-08-17T00:00	25580	25	-52.4	-83.2	104	11
2023-08-17T00:00	25600	25	-52.5	-83.3	103	11
2023-08-17T00:00	25630	25	-52.5	-83.3	101	11
2023-08-17T00:00	25661	25	-52.5	-83.3	99	10
2023-08-17T00:00	25691	24	-52.7	-83.4	97	10
2023-08-17T00:00	25715	24	-52.7	-83.4	95	10
2023-08-17T00:00	25737	24	-52.6	-83.3	93	10
2023-08-17T00:00	25762	24	-52.4	-83.2	92	10
2023-08-17T00:00	25799	24	-52.2	-83.6	90	10
2023-08-17T00:00	25821	24	-52.0	-83.5	90	9
2023-08-17T00:00	25855	24	-51.9	-83.4	90	9
2023-08-17T00:00	25879	24	-51.6	-83.2	91	10
2023-08-17T00:00	25910	24	-51.4	-83.0	93	10
2023-08-17T00:00	25930	24	-51.4	-83.0	95	10
2023-08-17T00:00	25964	23	-51.4	-83.0	97	10
2023-08-17T00:00	25990	23	-51.3	-82.9	99	10
2023-08-17T00:00	26019	23	-51.2	-82.9	101	10
2023-08-17T00:00	26048	23	-51.2	-82.9	102	11
2023-08-17T00:00	26072	23	-51.2	-82.9	102	11
2023-08-17T00:00	26099	23	-51.0	-82.7	102	11
2023-08-17T00:00	26131	23	-50.8	-82.6	101	11
2023-08-17T00:00	26157	23	-50.5		101	11
2023-08-17T00:00	26175	23	-50.6	-82.4	101	11
2023-08-17T00:00	26203	23	-50.5		102	11
2023-08-17T00:00	26229	23	-50.5		102	11
2023-08-17T00:00	26246	22	-50.5		102	11
2023-08-17T00:00	26269	22	-50.2	-82.1	101	11
2023-08-17T00:00	26312	22	-50.2	-82.8	100	11
2023-08-17T00:00	26333	22	-50.1	-82.7	99	10
2023-08-17T00:00	26356	22	-50.0	-82.6	98	10
2023-08-17T00:00	26385	22	-49.9	-82.5	98	9
2023-08-17T00:00	26409	22	-49.9	-82.5	99	9
2023-08-17T00:00	26430	22	-49.8	-82.5	100	8
2023-08-17T00:00	26460	22	-49.8	-82.5	101	7
2023-08-17T00:00	26479	22	-49.6	-82.3	103	7
2023-08-17T00:00	26504	22	-49.5	-82.3	105	6
2023-08-17T00:00	26536	21	-49.4	-82.2	106	6
2023-08-17T00:00	26557	21	-49.3	-82.1	106	5
2023-08-17T00:00	26586	21	-49.3	-82.1	103	5
2023-08-17T00:00	26609	21	-49.1	-82.0	98	4
2023-08-17T00:00	26629	21	-49.1	-82.0	91	4
2023-08-17T00:00	26662	21	-49.2	-82.0	82	4
2023-08-17T00:00	26683	21	-49.2	-82.0	74	4
2023-08-17T00:00	26703	21	-49.1	-82.0	68	4
2023-08-17T00:00	26727	21	-49.0	-81.9	65	4
2023-08-17T00:00	26761	21	-49.0	-81.9	64	4
2023-08-17T00:00	26785	21	-48.9	-81.8	65	4
2023-08-17T00:00	26820	21	-48.7	-81.7	67	5
2023-08-17T00:00	26837	20	-48.7	-81.7	70	5
2023-08-17T00:00	26865	20	-48.6	-81.6	73	6
2023-08-17T00:00	26893	20	-48.5	-81.5	75	6
2023-08-17T00:00	26929	20	-48.4	-81.4	78	7
2023-08-17T00:00	26951	20	-48.3	-81.4	79	8
2023-08-17T00:00	26977	20	-48.4	-81.4	81	8
2023-08-17T00:00	27009	20	-48.5	-81.5	83	9
2023-08-17T00:00	27035	20	-48.5	-81.5	86	9
2023-08-17T00:00	27067	20	-48.5	-81.5	89	10
2023-08-17T00:00	27094	20	-48.6	-81.6	94	10
2023-08-17T00:00	27125	20	-48.7	-81.7	99	10
2023-08-17T00:00	27155	20	-48.8	-81.7	105	10
2023-08-17T00:00	27190	19	-48.8	-81.7	110	10
2023-08-17T00:00	27214	19	-48.7	-81.7	114	10
2023-08-17T00:00	27243	19	-48.7	-81.7	117	9
2023-08-17T00:00	27285	19	-48.7	-81.7	119	9
2023-08-17T00:00	27300	19	-48.7	-81.7	120	8
2023-08-17T00:00	27337	19	-48.8	-81.7	120	8
2023-08-17T00:00	27367	19	-48.8	-81.7	118	7
2023-08-17T00:00	27398	19	-48.8	-81.7	116	7
2023-08-17T00:00	27432	19	-48.9	-81.8	114	7
2023-08-17T00:00	27456	19	-48.8	-81.7	111	6
2023-08-17T00:00	27502	19	-48.6	-81.6	109	6
2023-08-17T00:00	27525	18	-48.3	-81.4	107	6
2023-08-17T00:00	27556	18	-48.2	-81.3	106	7
2023-08-17T00:00	27595	18	-48.3	-81.4	105	7
2023-08-17T00:00	27620	18	-48.3	-81.4	104	7
2023-08-17T00:00	27653	18	-48.3	-81.4	102	7
2023-08-17T00:00	27679	18	-48.4	-81.4	99	7
2023-08-17T00:00	27702	18	-48.4	-81.4	97	7
2023-08-17T00:00	27735	18	-48.5	-81.5	97	7
2023-08-17T00:00	27772	18	-48.6	-81.6	97	6
2023-08-17T00:00	27796	18	-48.7	-81.7	100	6
2023-08-17T00:00	27826	18	-48.9	-81.8	103	6
2023-08-17T00:00	27857	18	-49.0	-81.9	107	6
2023-08-17T00:00	27881	18	-49.1	-82.0	111	6
2023-08-17T00:00	27919	17	-49.0	-81.9	115	6
2023-08-17T00:00	27940	17	-49.0	-81.9	118	7
2023-08-17T00:00	27965	17	-48.9	-81.8	120	7
2023-08-17T00:00	27996	17	-49.0	-81.9	120	7
2023-08-17T00:00	28024	17	-48.8	-81.7	118	7
2023-08-17T00:00	28047	17	-48.6	-81.6	115	6
2023-08-17T00:00	28082	17	-48.6	-81.6	110	6
2023-08-17T00:00	28107	17	-48.7	-81.7	106	6
2023-08-17T00:00	28137	17	-48.8	-81.7	103	6
2023-08-17T00:00	28167	17	-48.9	-81.8	100	6
2023-08-17T00:00	28192	17	-48.6	-81.6	98	6
2023-08-17T00:00	28211	17	-48.4	-81.4	96	6
2023-08-17T00:00	28242	17	-48.2	-82.0	93	5
2023-08-17T00:00	28269	16	-48.1	-81.9	89	5
2023-08-17T00:00	28302	16	-48.1	-81.9	84	5
2023-08-17T00:00	28327	16	-47.9	-81.8	79	5
2023-08-17T00:00	28347	16	-47.6	-81.6	76	5
2023-08-17T00:00	28372	16	-47.5	-81.5	74	6
2023-08-17T00:00	28409	16	-47.3	-81.4	75	6
2023-08-17T00:00	28424	16	-47.2	-81.3	77	6
2023-08-17T00:00	28457	16	-47.2	-81.3	80	6
2023-08-17T00:00	28487	16	-47.4	-81.4	84	7
2023-08-17T00:00	28506	16	-47.4	-81.4	88	7
2023-08-17T00:00	28542	16	-47.4	-81.4	92	7
2023-08-17T00:00	28567	16	-47.4	-81.4	94	8
2023-08-17T00:00	28588	16	-47.2	-81.3	96	8
2023-08-17T00:00	28609	16	-47.1	-81.2	95	8
2023-08-17T00:00	28641	16	-47.0	-81.1	92	8
2023-08-17T00:00	28672	16	-46.9	-81.1	88	8
2023-08-17T00:00	28683	15	-46.9	-81.1	84	7
2023-08-17T00:00	28707	15	-46.8	-81.0	81	7
2023-08-17T00:00	28736	15	-46.8	-81.0	79	7
2023-08-17T00:00	28762	15	-46.7	-80.9	79	7
2023-08-17T00:00	28804	15	-46.6	-80.9	79	7
2023-08-17T00:00	28811	15	-46.6	-80.9	79	7
2023-08-17T00:00	28845	15	-46.6	-80.9	80	7
2023-08-17T00:00	28870	15	-46.4	-80.7	80	8
2023-08-17T00:00	28893	15	-46.4	-80.7	80	8
2023-08-17T00:00	28912	15	-46.2	-80.6	79	9
2023-08-17T00:00	28939	15	-45.9	-81.2	78	9
2023-08-17T00:00	28967	15	-45.8	-81.1	76	9
2023-08-17T00:00	28999	15	-45.7	-81.0	74	10
2023-08-17T00:00	29023	15	-45.5	-80.9	73	10
2023-08-17T00:00	29044	15	-45.4	-80.8	72	11
2023-08-17T00:00	29070	15	-45.3	-80.7	71	12
2023-08-17T00:00	29100	15	-45.4	-80.8	72	13
2023-08-17T00:00	29126	14	-45.2	-80.7	73	13
2023-08-17T00:00	29152	14	-44.9	-80.4	74	13
2023-08-17T00:00	29178	14	-44.9	-80.4	76	13
2023-08-17T00:00	29195	14	-44.9	-80.4	78	13
2023-08-17T00:00	29227	14	-44.7	-80.3	81	13
2023-08-17T00:00	29261	14	-44.6	-80.2	83	13
2023-08-17T00:00	29287	14	-44.8	-80.4	86	12
2023-08-17T00:00	29301	14	-44.9	-80.4	89	12
2023-08-17T00:00	29340	14	-45.0	-80.5	92	12
2023-08-17T00:00	29371	14	-45.1	-79.8	95	11
2023-08-17T00:00	29387	14	-45.2	-79.8	97	11
2023-08-17T00:00	29416	14	-45.2	-80.7	100	11
2023-08-17T00:00	29430	14	-45.1	-80.6	102	11
2023-08-17T00:00	29471	14	-44.9	-80.4	105	11
2023-08-17T00:00	29500	14	-44.8	-80.4	108	11
2023-08-17T00:00	29528	14	-44.6	-80.2	110	12
2023-08-17T00:00	29550	14	-44.6	-80.2	112	12
2023-08-17T00:00	29574	14	-44.4	-80.1	113	12
2023-08-17T00:00	29602	14	-44.3	-80.0	114	11
2023-08-17T00:00	29634	13	-44.1	-79.9	113	11
2023-08-17T00:00	29653	13	-44.0	-79.8	111	11
2023-08-17T00:00	29676	13	-43.9	-79.7	110	11
2023-08-17T00:00	29724	13	-43.7	-79.6	108	11
2023-08-17T00:00	29738	13	-43.6	-79.5	107	12
2023-08-17T00:00	29762	13	-43.4	-79.4	107	12
2023-08-17T00:00	29788	13	-43.2	-79.2	107	12
2023-08-17T00:00	29824	13	-43.2	-79.2	107	13
2023-08-17T00:00	29828	13	-43.0	-79.1	108	13
2023-08-17T00:00	29881	13	-43.0	-79.1	108	13
2023-08-17T00:00	29892	13	-43.1		108	13
2023-08-17T00:00	29925	13	-43.2	-79.2	108	13
2023-08-17T00:00	29949	13	-43.3	-79.3	108	13
2023-08-17T00:00	29980	13	-43.4	-79.4	108	13
2023-08-17T00:00	30007	13	-43.5	-79.4	108	13
2023-08-17T00:00	30038	13	-43.4	-79.4	108	13
2023-08-17T00:00	30054	13	-43.4	-79.4	108	12
2023-08-17T00:00	30088	13	-43.4	-79.4	108	12
2023-08-17T00:00	30108	13	-43.4	-79.4	107	11
2023-08-17T00:00	30135	12	-43.4	-79.4	107	11
2023-08-17T00:00	30159	12	-43.3	-79.3	107	10
2023-08-17T00:00	30202	12	-43.4	-79.4	109	10
2023-08-17T00:00	30218	12	-43.3	-79.3	111	10
2023-08-17T00:00	30238	12	-43.2	-79.2	114	9
2023-08-17T00:00	30274	12	-43.0	-80.0	117	9
2023-08-17T00:00	30292	12	-42.9	-80.0	120	9
2023-08-17T00:00	30311	12	-42.7	-79.8	124	9
2023-08-17T00:00	30336	12	-42.4	-79.6	129	9
2023-08-17T00:00	30346	12	-42.1	-79.4	133	9
2023-08-17T00:00	30376	12	-42.1	-79.4	138	9
2023-08-17T00:00	30427	12	-42.0	-79.3	142	9
2023-08-17T00:00	30440	12	-41.9	-79.2	150	8
2023-08-17T00:00	30471	12	-41.9	-79.2	154	8
2023-08-17T00:00	30497	12	-41.2	-78.8	157	7
2023-08-17T00:00	30521	12	-40.9		159	6
2023-08-17T00:00	30536	12	-40.3	-79.2	160	5
2023-08-17T00:00	30571	12	-39.9	-79.0	157	4
2023-08-17T00:00	30587	12	-39.8	-78.9	151	4
2023-08-17T00:00	30610	12	-39.3	-78.5	141	3
2023-08-17T00:00	30646	12	-39.2	-78.5	128	3
2023-08-17T00:00	30651	12	-39.2	-78.5	114	3
2023-08-17T00:00	30690	12	-39.1	-78.4	100	3
2023-08-17T00:00	30705	11	-39.1	-78.4	84	3
2023-08-17T00:00	30728	11	-39.0	-78.3	69	3
2023-08-17T00:00	30747	11	-39.0	-77.2	54	3
2023-08-17T00:00	30774	11	-39.1	-77.3	43	3
2023-08-17T00:00	30804	11	-38.9	-78.3	36	4
2023-08-17T00:00	30816	11	-39.0	-78.3	33	4
2023-08-17T00:00	30856	11	-39.1	-78.4	33	4
2023-08-17T00:00	30864	11	-38.9	-78.3	34	4
2023-08-17T00:00	30903	11	-39.0	-78.3	37	4
2023-08-17T00:00	30933	11	-38.9	-78.3	43	4
2023-08-17T00:00	30962	11	-38.9	-78.3	53	3
2023-08-17T00:00	30997	11	-38.8	-78.2	67	3
2023-08-17T00:00	31025	11	-38.9	-78.3	83	3
2023-08-17T00:00	31059	11	-38.9	-78.3	98	3
2023-08-17T00:00	31082	11	-38.9	-78.3	109	3
2023-08-17T00:00	31130	11	-38.8	-78.2	117	4
2023-08-17T00:00	31148	11	-38.8	-78.2	121	4
2023-08-17T00:00	31191	11	-38.7	-78.1	122	4
2023-08-17T00:00	31204	11	-38.6	-78.1	120	4
2023-08-17T00:00	31254	11	-38.4	-77.9	115	4
2023-08-17T00:00	31271	11	-38.2	-77.8	106	4
2023-08-17T00:00	31300	11	-38.1	-77.7	93	4
2023-08-17T00:00	31328	10	-38.1	-77.7	81	4
2023-08-17T00:00	31362	10	-38.1	-77.7	72	4
2023-08-17T00:00	31409	10	-38.2	-77.8	67	4
2023-08-17T00:00	31451	10	-38.3	-77.9	66	4
2023-08-17T00:00	31473	10	-38.2	-77.8	70	4
2023-08-17T00:00	31489	10	-38.2	-77.8	77	4
2023-08-17T00:00	31527	10	-38.3	-77.9	87	4
2023-08-17T00:00	31567	10	-38.4	-77.9	98	3
2023-08-17T00:00	31599	10	-38.5	-78.0	109	3
2023-08-17T00:00	31613	10	-38.8	-77.1	118	4
2023-08-17T00:00	31653	10	-39.0	-77.2	127	4
2023-08-17T00:00	31675	10	-39.2	-77.3	136	4
2023-08-17T00:00	31721	10	-39.4	-77.5	146	4
2023-08-17T00:00	31730	10	-39.5	-77.6	156	4
2023-08-17T00:00	31741	10	-39.6	-77.6	165	4
2023-08-17T00:00	31785	10	-39.6	-77.6	174	4
2023-08-17T00:00	31813	10	-39.6	-77.6	183	4
2023-08-17T00:00	31836	10	-39.5	-78.7	194	4
2023-08-17T00:00	31859	10	-39.3	-78.5	205	4
2023-08-17T00:00	31890	10	-39.4	-78.6	216	4
2023-08-17T00:00	31929	10	-38.9	-78.3	233	5
2023-08-17T00:00	31965	10	-38.7	-78.1	238	5
2023-08-17T00:00	31990	10	-38.7	-78.1	244	6
2023-08-17T00:00	32016	9	-38.7	-78.1	249	6
2023-08-17T00:00	32051	9	-38.8	-78.2	255	6
2023-08-17T00:00	32064	9	-38.8	-78.2	262	5
2023-08-17T00:00	32091	9	-38.7	-78.1	269	5
2023-08-17T00:00	32106	9	-38.4	-77.9	278	5
2023-08-17T00:00	32162	9	-38.3	-77.9	288	4
2023-08-17T00:00	32173	9	-38.4	-77.9	299	4
2023-08-17T00:00	32235	9	-38.4	-77.9	312	4
2023-08-17T00:00	32263	9	-38.5	-78.0	344	3
2023-08-17T00:00	32278	9	-38.5	-78.0	3	4
2023-08-17T00:00	32300	9	-38.3	-77.9	20	4
2023-08-17T00:00	32317	9	-38.2	-77.8	35	5
2023-08-17T00:00	32345	9	-37.9	-77.6	48	5
2023-08-17T00:00	32382	9	-37.7	-77.4	59	6
2023-08-17T00:00	32407	9	-37.7	-77.4	69	6
2023-08-17T00:00	32429	9	-37.6	-77.4	77	6
2023-08-17T00:00	32466	9	-37.6	-77.4	82	7
2023-08-17T00:00	32510	9	-37.6	-77.4	86	7
2023-08-17T00:00	32520	9	-37.5	-77.3	88	7
2023-08-17T00:00	32545	9	-37.5	-77.3	90	7
2023-08-17T00:00	32555	9	-37.3	-77.2	90	7
2023-08-17T00:00	32597	9	-37.1	-77.0	90	7
2023-08-17T00:00	32634	9	-37.1	-77.0	92	8
2023-08-17T00:00	32651	9	-37.1	-77.0	93	8
2023-08-17T00:00	32664	9	-37.2	-77.1	94	9
2023-08-17T00:00	32704	9	-37.3	-77.2	94	9
2023-08-17T00:00	32740	9	-37.4	-77.2	94	10
2023-08-17T00:00	32750	9	-37.4	-77.2	95	10
2023-08-17T00:00	32784	8	-37.6	-77.4	95	10
2023-08-17T00:00	32805	8	-37.7	-77.4	95	10
2023-08-17T00:00	32824	8	-37.7	-77.4	96	10
2023-08-17T00:00	32860	8	-37.8	-77.5	98	10
2023-08-17T00:00	32887	8	-37.9	-77.6	100	9
2023-08-17T00:00	32924	8	-38.0	-77.6	105	8
2023-08-17T00:00	32969	8	-38.0	-77.6	108	8
2023-08-17T00:00	32982	8	-38.0	-77.6	111	7
2023-08-17T00:00	32989	8	-38.0	-77.6	114	6
2023-08-17T00:00	33036	8	-38.1	-77.7	118	5
2023-08-17T00:00	33053	8	-38.2	-77.8	122	5
2023-08-17T00:00	33086	8	-38.1	-77.7	127	4
2023-08-17T00:00	33109	8	-38.1	-77.7	129	4
2023-08-17T00:00	33140	8	-38.1	-77.7	130	3
2023-08-17T00:00	33146	8	-38.1	-77.7	128	3
2023-08-17T00:00	33198	8	-38.1	-77.7	124	3
2023-08-17T00:00	33224	8	-38.1	-77.7	120	3
2023-08-17T00:00	33235	8	-38.1	-77.7	116	3
2023-08-17T00:00	33271	8	-38.2	-77.8	111	2
2023-08-17T00:00	33310	8	-38.2	-77.8	105	2
2023-08-17T00:00	33334	8	-38.3	-77.9	98	3
2023-08-17T00:00	33357	8	-38.3	-77.9	91	3
2023-08-17T00:00	33392	8	-38.3	-77.9	87	3
2023-08-17T00:00	33413	8	-38.2	-77.8	85	4
2023-08-17T00:00	33445	8	-38.2	-77.8	85	5
2023-08-17T00:00	33459	8	-38.1	-77.7	85	6
2023-08-17T00:00	33502	8	-38.1	-77.7	85	6
2023-08-17T00:00	33530	8	-38.1	-77.7	86	7
2023-08-17T00:00	33552	8	-38.0	-77.6	86	7
2023-08-17T00:00	33589	8	-37.9	-77.6	87	8
2023-08-17T00:00	33621	8	-37.8	-77.5	88	8
2023-08-17T00:00	33660	8	-37.8	-77.5	88	9
2023-08-17T00:00	33684	7	-37.8	-77.5	88	9
2023-08-17T00:00	33734	7	-37.9	-77.6	88	9
2023-08-17T00:00	33788	7	-38.0	-77.6	88	9
2023-08-17T00:00	33795	7	-38.1	-77.7	89	9
2023-08-17T00:00	33836	7	-38.0	-77.6	91	9
2023-08-17T00:00	33861	7	-38.0	-77.6	92	9
2023-08-17T00:00	33878	7	-38.0	-77.6	94	8
2023-08-17T00:00	33897	7	-38.2	-77.8	95	8
2023-08-17T00:00	33958	7	-38.4	-77.9	96	7
2023-08-17T00:00	33966	7	-38.5	-78.0	97	7
2023-08-17T00:00	34025	7	-38.5	-78.0	98	6
2023-08-17T00:00	34060	7	-38.6	-78.1	99	4
2023-08-17T00:00	34074	7	-38.7	-78.1	97	4
2023-08-17T00:00	34097	7	-38.5	-78.0	94	3
2023-08-17T00:00	34136	7	-38.4	-77.9	89	3
2023-08-17T00:00	34172	7	-38.5	-78.0	83	3
2023-08-17T00:00	34174	7	-38.6	-78.1	79	3
2023-08-17T00:00	34220	7	-38.5	-78.0	75	3
2023-08-17T00:00	34253	7	-38.6	-78.1	72	4
2023-08-17T00:00	34262	7	-38.6	-78.1	70	5
2023-08-17T00:00	34287	7	-38.6	-78.1	68	5
2023-08-17T00:00	34322	7	-38.4	-77.9	66	6
2023-08-17T00:00	34335	7	-38.1	-77.7	65	7
2023-08-17T00:00	34359	7	-37.9	-77.6	64	7
2023-08-17T00:00	34399	7	-37.7	-77.4	65	8
2023-08-17T00:00	34416	7	-37.6	-77.4	65	8
2023-08-17T00:00	34450	7	-37.4	-77.2	66	8
2023-08-17T00:00	34463	7	-37.3	-77.2	68	9
2023-08-17T00:00	34481	7	-37.2	-77.1	70	9
2023-08-17T00:00	34485	7	-37.2	-77.1	72	9
2023-08-17T00:00	34489	7	-37.0	-77.0	74	9
2023-08-17T00:00	34528	7	-36.9	-76.9	75	8
2023-08-17T00:00	34533	7	-36.9	-76.9	76	8
2023-08-17T00:00	34569	7	-36.7	-76.7	76	7
2023-08-17T00:00	34602	7	-36.4	-76.5	75	6
2023-08-17T00:00	34623	7	-36.2	-76.4	72	6
2023-08-17T00:00	34625	7	-36.0	-76.3	68	5
2023-08-17T00:00	34636	7	-36.0	-76.3	62	5
2023-08-17T00:00	34638	6	-35.8	-76.1	57	5
2023-08-17T00:00	34670	6	-35.6	-76.0	55	5
2023-08-17T00:00	34730	6	-35.6	-76.0	54	5
2023-08-17T00:00	34753	6	-35.5	-75.9	55	6
2023-08-17T00:00	34783	6	-35.3	-75.8	56	7
2023-08-17T00:00	34797	6	-35.3	-75.8	56	7
2023-08-17T00:00	34825	6	-35.2	-75.7	56	7
2023-08-17T00:00	34868	6	-34.8	-75.4	56	7
2023-08-17T00:00	34896	6	-34.5	-75.2	55	7
2023-08-17T00:00	34927	6	-34.2	-75.0	48	5
2023-08-17T00:00	34938	6	-34.1	-75.0	42	5
2023-08-17T00:00	34966	6	-34.1	-75.0	35	5
2023-08-17T00:00	34981	6	-34.1	-75.0	27	4
2023-08-17T00:00	35002	6	-34.0	-74.9	19	4
2023-08-17T00:00	35013	6	-34.0	-74.9	12	5
2023-08-17T00:00	35045	6	-33.9	-74.8	7	5
2023-08-17T00:00	35101	6	-33.7	-74.7	2	6
2023-08-17T00:00	35104	6	-33.6	-74.6	359	6
2023-08-17T00:00	35121	6	-33.6	-74.6	356	7
2023-08-17T00:00	35152	6	-33.5	-74.5	355	8
2023-08-17T00:00	35172	6	-33.5	-74.5	354	8
2023-08-17T00:00	35201	6	-33.4	-74.5	353	9
2023-08-17T00:00	35227	6	-33.5	-74.5	353	9
2023-08-17T00:00	35246	6	-33.6	-74.6	354	10
2023-08-17T00:00	35269	6	-33.8	-74.7	355	10
2023-08-17T00:00	35299	6	-33.8	-74.7	357	10
2023-08-17T00:00	35322	6	-33.7	-74.7	359	10
2023-08-17T00:00	35354	6	-33.6	-74.6	1	11
2023-08-17T00:00	35391	6	-33.6	-74.6	4	11
2023-08-17T00:00	35400	6	-33.7	-74.7	6	12
2023-08-17T00:00	35435	6	-33.8	-74.7	8	12
2023-08-17T00:00	35476	6	-33.7	-74.7	9	13
2023-08-17T00:00	35491	6	-33.6	-74.6	11	13
2023-08-17T00:00	35492	6	-33.6	-74.6	14	13
2023-08-17T00:00	35530	6	-33.5	-74.5	16	13
2023-08-17T00:00	35565	6	-33.7	-74.7	23	14
2023-08-17T00:00	35568	6	-33.8	-74.7	26	14
2023-08-17T00:00	35596	6	-33.8	-74.7	30	15
2023-08-17T00:00	35627	6	-33.6	-74.6	33	15
2023-08-17T00:00	35634	6	-33.6	-74.6	35	15
2023-08-17T00:00	35654	6	-33.7	-74.7	38	15
2023-08-17T00:00	35699	6	-33.7	-74.7	40	15
2023-08-17T00:00	35720	6	-33.8	-74.7	44	15
2023-08-17T00:00	35722	6	-33.8	-74.7	46	15
2023-08-17T00:00	35727	6	-33.6	-74.6	51	14
2023-08-17T00:00	35752	6	-33.7	-74.7	54	14
2023-08-17T06:00	112	1007	17.6	15.2	50	3
2023-08-17T06:00	135	1004	17.6	15.3	67	3
2023-08-17T06:00	157	1001	17.5	15.0	73	5
2023-08-17T06:00	186	998	17.7	14.7	77	6
2023-08-17T06:00	209	995	18.2	14.8	80	7
2023-08-17T06:00	233	993	18.1	15.0	83	8
2023-08-17T06:00	258	990	18.1	15.5	86	9
2023-08-17T06:00	279	987	18.0	15.4	89	10
2023-08-17T06:00	302	985	17.8	15.5	92	10
2023-08-17T06:00	322	982	18.0	15.9	95	10
2023-08-17T06:00	346	980	18.1	16.2	98	11
2023-08-17T06:00	373	977	18.8	16.0	101	11
2023-08-17T06:00	395	974	18.8	15.8	102	11
2023-08-17T06:00	417	971	18.7		104	11
2023-08-17T06:00	445	969	18.6	15.6	105	11
2023-08-17T06:00	466	966	18.4	15.4	107	10
2023-08-17T06:00	493	963	18.3	15.0	108	10
2023-08-17T06:00	515	961	18.3	14.9	110	10
2023-08-17T06:00	538	958	18.1	15.1	112	10
2023-08-17T06:00	567	955	17.9	14.8	114	10
2023-08-17T06:00	593	952	18.0	14.3	117	9
2023-08-17T06:00	618	949	18.1	13.8	119	9
2023-08-17T06:00	642	946	17.9	13.8	120	9
2023-08-17T06:00	673	943	17.9	13.3	119	9
2023-08-17T06:00	696	941	18.0	12.9	117	9
2023-08-17T06:00	720	938	18.1	12.9	114	9
2023-08-17T06:00	746	935	18.1	12.5	111	9
2023-08-17T06:00	770	932	18.1	12.0	108	9
2023-08-17T06:00	796	930	18.5	12.7	105	9
2023-08-17T06:00	823	927	18.4	12.6	102	8
2023-08-17T06:00	855	923	18.5	12.4	99	8
2023-08-17T06:00	882	920	18.3	12.3	96	8
2023-08-17T06:00	910	917	18.1	12.2	94	8
2023-08-17T06:00	936	915	17.8	12.1	94	8
2023-08-17T06:00	964	911	17.6	12.6	94	8
2023-08-17T06:00	998	908	17.2	12.7	94	8
2023-08-17T06:00	1024	905	17.0	12.7	96	8
2023-08-17T06:00	1055	902	16.7	12.7	97	7
2023-08-17T06:00	1084	899	16.5	12.9	98	7
2023-08-17T06:00	1114	896	16.4	12.7	97	7
2023-08-17T06:00	1141	893	16.2	13.2	95	7
2023-08-17T06:00	1170	890	16.0	13.3	93	7
2023-08-17T06:00	1195	887	15.8	13.4	92	7
2023-08-17T06:00	1217	885	15.6	13.6	92	7
2023-08-17T06:00	1242	882	15.3	14.0	94	7
2023-08-17T06:00	1269	880	15.2	14.1	98	7
2023-08-17T06:00	1294	877	15.0	14.1	101	7
2023-08-17T06:00	1322	874	14.8	13.8	103	7
2023-08-17T06:00	1349	871	14.8	12.9	104	7
2023-08-17T06:00	1375	869	14.6	12.1	105	7
2023-08-17T06:00	1404	866	14.5	11.7	106	7
2023-08-17T06:00	1437	863	14.5	9.9	107	6
2023-08-17T06:00	1458	860	14.9	9.8	107	6
2023-08-17T06:00	1479	858	15.0	9.9	106	5
2023-08-17T06:00	1501	856	15.1	10.4	104	4
2023-08-17T06:00	1526	853	14.8	11.7	99	4
2023-08-17T06:00	1548	851	14.6	11.8	94	4
2023-08-17T06:00	1572	849	14.4	11.8	89	3
2023-08-17T06:00	1596	846	14.2	11.5	85	3
2023-08-17T06:00	1620	844	14.0	11.6	84	3
2023-08-17T06:00	1649	841	13.9	11.3	85	3
2023-08-17T06:00	1676	838	13.7	11.2	89	3
2023-08-17T06:00	1700	836	13.6	11.0	95	4
2023-08-17T06:00	1725	833	13.4	10.8	101	4
2023-08-17T06:00	1750	831	13.2	11.0	106	4
2023-08-17T06:00	1777	828	12.9	11.1	109	4
2023-08-17T06:00	1801	826	12.7	11.1	110	4
2023-08-17T06:00	1829	823	12.5	11.2	110	4
2023-08-17T06:00	1855	821	12.3	11.1	110	4
2023-08-17T06:00	1881	818	12.0	11.1	109	4
2023-08-17T06:00	1907	816	11.8	11.1	109	4
2023-08-17T06:00	1934	813	11.6	11.1	110	4
2023-08-17T06:00	1960	810	11.4	10.9	111	4
2023-08-17T06:00	1987	808	11.2	10.5	114	4
2023-08-17T06:00	2014	805	11.0	10.5	118	4
2023-08-17T06:00	2040	803	10.7	10.5	122	4
2023-08-17T06:00	2066	800	10.5	10.1	126	4
2023-08-17T06:00	2094	798	10.8	9.6	129	4
2023-08-17T06:00	2119	795	10.7	9.5	132	4
2023-08-17T06:00	2146	793	10.6	9.0	136	4
2023-08-17T06:00	2175	790	10.5	8.7	140	4
2023-08-17T06:00	2204	787	10.2	8.8	144	4
2023-08-17T06:00	2238	784	9.9	8.8	146	4
2023-08-17T06:00	2268	781	9.7	8.5	148	4
2023-08-17T06:00	2294	779	9.5	8.4	147	4
2023-08-17T06:00	2320	776	9.3	8.3	146	4
2023-08-17T06:00	2346	774	9.0	8.1	145	4
2023-08-17T06:00	2371	771	8.8	8.0	144	4
2023-08-17T06:00	2399	769	8.7	7.5	145	4
2023-08-17T06:00	2425	767	8.7	6.1	145	4
2023-08-17T06:00	2450	764	8.5	6.3	147	4
2023-08-17T06:00	2476	762	8.5	5.8	148	4
2023-08-17T06:00	2501	760	8.3	5.7	150	4
2023-08-17T06:00	2528	757	8.1	6.4	154	4
2023-08-17T06:00	2556	755	7.8	6.2	157	4
2023-08-17T06:00	2583	752	7.6	6.0	161	3
2023-08-17T06:00	2613	749	7.5	5.5	163	3
2023-08-17T06:00	2638	747	7.4	5.3	162	3
2023-08-17T06:00	2665	745	7.2	5.1	161	3
2023-08-17T06:00	2696	742	7.0	5.2	159	3
2023-08-17T06:00	2722	739	6.7	5.3	158	3
2023-08-17T06:00	2750	737	6.4	5.3	159	3
2023-08-17T06:00	2778	734	6.3	5.1	162	3
2023-08-17T06:00	2805	732	6.2		166	3
2023-08-17T06:00	2833	730	6.1	4.1	170	3
2023-08-17T06:00	2860	727	6.0	4.0	173	3
2023-08-17T06:00	2890	725	5.8	4.0	176	3
2023-08-17T06:00	2921	722	5.5	3.8	178	3
2023-08-17T06:00	2949	719	5.4	3.1	179	3
2023-08-17T06:00	2979	717	5.2	2.9	182	3
2023-08-17T06:00	3010	714	5.0	2.8	185	3
2023-08-17T06:00	3038	712	4.8	2.7	189	3
2023-08-17T06:00	3065	709	4.7	2.5	194	3
2023-08-17T06:00	3093	707	4.4	2.3	198	4
2023-08-17T06:00	3128	704	4.2	2.0	200	4
2023-08-17T06:00	3152	702	4.1	2.1	202	4
2023-08-17T06:00	3177	699	3.9	1.9	203	4
2023-08-17T06:00	3202	697	3.7		204	4
2023-08-17T06:00	3228	695	3.5		206	4
2023-08-17T06:00	3253	693	3.2	1.7	207	4
2023-08-17T06:00	3278	691	3.0	1.6	208	4
2023-08-17T06:00	3304	689	2.8	1.5	207	4
2023-08-17T06:00	3331	686	2.6	1.3	205	4
2023-08-17T06:00	3358	684	2.4	1.3	204	4
2023-08-17T06:00	3384	682	2.1	1.1	204	4
2023-08-17T06:00	3415	679	1.9	0.9	206	4
2023-08-17T06:00	3445	677	1.6	0.7	210	4
2023-08-17T06:00	3470	675	1.4	0.5	214	4
2023-08-17T06:00	3496	672	1.3	0.5	217	5
2023-08-17T06:00	3522	670	1.2	0.1	219	4
2023-08-17T06:00	3549	668	1.0	0.0	219	4
2023-08-17T06:00	3578	666	0.9	-0.1	218	4
2023-08-17T06:00	3603	664	0.8	-0.9	217	4
2023-08-17T06:00	3630	661	0.7	-1.5	215	4
2023-08-17T06:00	3657	659	0.5	-1.8	214	4
2023-08-17T06:00	3684	657	0.4	-2.1	212	4
2023-08-17T06:00	3711	655	0.2	-1.7	209	4
2023-08-17T06:00	3738	653	0.1	-2.6	206	4
2023-08-17T06:00	3767	650	-0.1	-2.2	203	4
2023-08-17T06:00	3796	648	-0.3	-2.3	202	3
2023-08-17T06:00	3825	646	-0.4	-2.6	203	4
2023-08-17T06:00	3850	643	-0.5	-3.8	206	4
2023-08-17T06:00	3878	641	-0.4	-4.8	210	4
2023-08-17T06:00	3908	639	-0.5	-4.7	215	4
2023-08-17T06:00	3935	637	-0.8	-4.6	219	4
2023-08-17T06:00	3963	634	-1.0	-5.1	223	5
2023-08-17T06:00	3993	632	-1.2	-5.2	225	5
2023-08-17T06:00	4021	630	-1.5	-5.0	224	5
2023-08-17T06:00	4049	628	-1.6	-4.4	222	5
2023-08-17T06:00	4080	625	-1.8	-5.2	217	4
2023-08-17T06:00	4110	623	-2.0	-5.7	209	4
2023-08-17T06:00	4135	621	-2.2	-5.6	200	4
2023-08-17T06:00	4166	618	-2.4	-4.9	193	4
2023-08-17T06:00	4198	616	-2.5	-5.0	188	4
2023-08-17T06:00	4231	614	-2.7	-4.8	186	4
2023-08-17T06:00	4262	611	-3.0	-5.2	186	4
2023-08-17T06:00	4297	609	-3.0	-5.3	187	4
2023-08-17T06:00	4326	606	-3.0	-5.7	187	4
2023-08-17T06:00	4355	604	-3.1	-5.8	185	4
2023-08-17T06:00	4383	602	-3.3	-6.2	183	4
2023-08-17T06:00	4411	600	-3.3	-6.5	182	4
2023-08-17T06:00	4439	598	-3.4	-6.8	182	4
2023-08-17T06:00	4468	595	-3.4	-7.6	183	4
2023-08-17T06:00	4496	593	-3.6	-7.7	184	4
2023-08-17T06:00	4526	591	-3.7	-8.0	187	4
2023-08-17T06:00	4554	589	-3.9	-8.2	190	4
2023-08-17T06:00	4584	587	-3.9	-8.1	194	4
2023-08-17T06:00	4614	585	-4.1	-8.1	198	4
2023-08-17T06:00	4640	583	-3.9	-11.0	201	4
2023-08-17T06:00	4668	581	-3.6	-15.4	202	4
2023-08-17T06:00	4695	579	-3.6	-18.7	200	4
2023-08-17T06:00	4722	576	-3.8	-13.5	195	4
2023-08-17T06:00	4753	574	-3.9	-11.6	190	4
2023-08-17T06:00	4780	572	-3.8	-12.1	185	4
2023-08-17T06:00	4810	570	-3.9	-12.5	182	4
2023-08-17T06:00	4838	568	-4.0	-13.6	181	4
2023-08-17T06:00	4867	566	-4.1	-14.6	182	5
2023-08-17T06:00	4896	564	-4.3	-15.1	183	5
2023-08-17T06:00	4925	562	-4.4	-16.0	185	5
2023-08-17T06:00	4951	560	-4.6	-16.8	185	5
2023-08-17T06:00	4985	558	-4.8	-17.9	184	5
2023-08-17T06:00	5014	556	-5.1	-17.0	181	5
2023-08-17T06:00	5041	554	-5.3	-16.9	177	5
2023-08-17T06:00	5071	552	-5.5	-16.1	174	6
2023-08-17T06:00	5100	550	-5.7	-13.5	173	6
2023-08-17T06:00	5130	547	-6.0	-13.0	173	6
2023-08-17T06:00	5159	545	-6.2	-12.8	173	7
2023-08-17T06:00	5189	543	-6.2	-13.7	175	7
2023-08-17T06:00	5214	541	-6.1	-13.9	176	7
2023-08-17T06:00	5245	540	-6.1	-16.2	178	7
2023-08-17T06:00	5272	538	-6.2	-19.0	179	7
2023-08-17T06:00	5303	535	-6.4	-17.5	180	7
2023-08-17T06:00	5332	533	-6.5	-17.0	180	7
2023-08-17T06:00	5363	531	-6.7	-18.3	179	7
2023-08-17T06:00	5390	529	-6.9	-18.3	178	7
2023-08-17T06:00	5421	527	-7.2	-18.3	175	7
2023-08-17T06:00	5447	526	-7.4	-18.1	172	7
2023-08-17T06:00	5479	524	-7.6	-18.2	169	7
2023-08-17T06:00	5507	522	-7.9	-17.9	167	8
2023-08-17T06:00	5538	520	-8.0	-24.0	166	8
2023-08-17T06:00	5568	518	-8.0	-23.8	166	8
2023-08-17T06:00	5596	516	-8.1	-22.8	166	8
2023-08-17T06:00	5625	514	-8.3	-20.4	168	8
2023-08-17T06:00	5653	512	-8.5	-18.1	169	8
2023-08-17T06:00	5681	510	-8.7	-17.9	170	8
2023-08-17T06:00	5705	508	-8.9	-18.0	170	7
2023-08-17T06:00	5735	507	-9.2	-18.1	169	7
2023-08-17T06:00	5763	505	-9.5	-18.4	168	7
2023-08-17T06:00	5792	503	-9.7	-19.3	167	7
2023-08-17T06:00	5824	501	-9.9	-21.0	167	7
2023-08-17T06:00	5853	499	-10.2	-20.6	167	7
2023-08-17T06:00	5886	497	-10.5	-19.1	167	7
2023-08-17T06:00	5916	495	-10.8	-19.4	166	7
2023-08-17T06:00	5946	493	-11.0	-19.0	165	7
2023-08-17T06:00	5975	491	-11.3	-18.1	163	8
2023-08-17T06:00	6007	489	-11.5	-17.9	163	8
2023-08-17T06:00	6035	487	-11.7	-17.9	162	8
2023-08-17T06:00	6068	485	-11.9	-17.5	163	8
2023-08-17T06:00	6096	483	-12.1	-17.6	164	8
2023-08-17T06:00	6126	481	-12.4	-18.3	165	8
2023-08-17T06:00	6153	480	-12.6	-19.1	165	8
2023-08-17T06:00	6184	478	-12.8	-19.3	165	8
2023-08-17T06:00	6214	476	-12.9	-20.0	164	8
2023-08-17T06:00	6243	474	-13.1	-20.2	162	8
2023-08-17T06:00	6270	472	-13.3	-21.2	161	9
2023-08-17T06:00	6300	470	-13.5	-20.5	161	9
2023-08-17T06:00	6336	468	-13.8	-20.0	161	9
2023-08-17T06:00	6366	466	-14.1	-19.3	163	9
2023-08-17T06:00	6396	465	-14.2	-19.8	165	9
2023-08-17T06:00	6417	463	-14.3	-20.0	167	9
2023-08-17T06:00	6449	461	-14.5	-20.3	170	9
2023-08-17T06:00	6482	459	-14.9	-18.6	172	9
2023-08-17T06:00	6515	457	-15.2	-19.1	175	9
2023-08-17T06:00	6538	456	-15.3	-19.3	178	9
2023-08-17T06:00	6574	454	-15.6	-19.6	181	9
2023-08-17T06:00	6605	452	-15.8	-22.2	182	9
2023-08-17T06:00	6635	450	-16.0	-19.2	183	9
2023-08-17T06:00	6667	448	-16.3	-16.3	183	9
2023-08-17T06:00	6703	446	-16.3	-16.8	184	9
2023-08-17T06:00	6732	444	-16.4	-17.1	185	8
2023-08-17T06:00	6761	443	-16.6	-17.5	186	8
2023-08-17T06:00	6792	441	-16.7	-18.1	188	8
2023-08-17T06:00	6820	439	-16.8		189	8
2023-08-17T06:00	6853	437	-16.9	-26.2	190	8
2023-08-17T06:00	6880	436	-17.0	-24.9	189	9
2023-08-17T06:00	6903	434	-17.2	-24.5	187	9
2023-08-17T06:00	6931	433	-17.5	-21.8	184	9
2023-08-17T06:00	6960	431	-17.7	-19.4	181	10
2023-08-17T06:00	6991	429	-18.0	-19.6	178	10
2023-08-17T06:00	7027	427	-18.3	-19.3	177	10
2023-08-17T06:00	7057	426	-18.5	-19.3	176	10
2023-08-17T06:00	7081	424	-18.6	-19.5	176	10
2023-08-17T06:00	7106	423	-18.6	-20.1	176	10
2023-08-17T06:00	7131	421	-18.7	-20.1	176	11
2023-08-17T06:00	7152	420	-18.9	-20.2	176	11
2023-08-17T06:00	7184	418	-19.1	-20.5	177	10
2023-08-17T06:00	7220	416	-19.4	-20.8	178	10
2023-08-17T06:00	7246	415	-19.5	-21.7	180	10
2023-08-17T06:00	7277	413	-19.7	-22.4	181	10
2023-08-17T06:00	7308	412	-20.0	-22.9	180	9
2023-08-17T06:00	7333	410	-20.1	-23.8	178	9
2023-08-17T06:00	7365	408	-20.4	-24.5	176	9
2023-08-17T06:00	7396	407	-20.7	-25.1	175	8
2023-08-17T06:00	7426	405	-20.9	-26.0	174	8
2023-08-17T06:00	7459	403	-21.2	-26.9	175	8
2023-08-17T06:00	7491	401	-21.5	-26.9	177	8
2023-08-17T06:00	7527	400	-21.9	-26.9	179	8
2023-08-17T06:00	7555	398	-22.1	-27.5	181	8
2023-08-17T06:00	7582	397	-22.2	-28.6	183	8
2023-08-17T06:00	7606	395	-22.4	-29.4	185	8
2023-08-17T06:00	7633	394	-22.6	-30.8	187	8
2023-08-17T06:00	7659	392	-22.8	-31.9	187	8
2023-08-17T06:00	7690	391	-23.0	-33.1	187	8
2023-08-17T06:00	7722	389	-23.2	-34.6	185	8
2023-08-17T06:00	7750	388	-23.3	-35.0	184	8
2023-08-17T06:00	7775	386	-23.5	-35.3	183	8
2023-08-17T06:00	7803	385	-23.8	-35.1	184	8
2023-08-17T06:00	7836	383	-24.1	-35.2	185	8
2023-08-17T06:00	7867	381	-24.4	-35.4	186	8
2023-08-17T06:00	7895	380	-24.7	-35.5	187	8
2023-08-17T06:00	7921	379	-24.9	-36.1	188	8
2023-08-17T06:00	7946	377	-25.1	-36.9	188	8
2023-08-17T06:00	7977	376	-25.3	-37.8	189	8
2023-08-17T06:00	8011	374	-25.5	-39.1	190	8
2023-08-17T06:00	8037	373	-25.5	-35.1	192	8
2023-08-17T06:00	8058	371	-25.6	-36.0	194	8
2023-08-17T06:00	8081	370	-25.8	-35.6	195	8
2023-08-17T06:00	8108	369	-26.0	-35.5	196	8
2023-08-17T06:00	8133	368	-26.2	-35.5	195	7
2023-08-17T06:00	8156	366	-26.5	-34.9	194	7
2023-08-17T06:00	8183	365	-26.6	-34.0	192	8
2023-08-17T06:00	8215	364	-26.8	-34.0	190	8
2023-08-17T06:00	8241	362	-27.0	-34.0	188	8
2023-08-17T06:00	8274	361	-27.3	-34.2	187	9
2023-08-17T06:00	8299	359	-27.4	-34.0	187	9
2023-08-17T06:00	8327	358	-27.5	-34.2	187	9
2023-08-17T06:00	8358	356	-27.7	-34.7	187	9
2023-08-17T06:00	8387	355	-28.0	-34.8	186	8
2023-08-17T06:00	8420	353	-28.3	-35.0	185	8
2023-08-17T06:00	8441	352	-28.5	-35.2	184	8
2023-08-17T06:00	8465	351	-28.7	-35.5	183	8
2023-08-17T06:00	8495	350	-28.9	-35.3	184	8
2023-08-17T06:00	8528	348	-29.3	-35.6	186	8
2023-08-17T06:00	8562	346	-29.6	-36.0	189	8
2023-08-17T06:00	8589	345	-29.8	-35.7	193	8
2023-08-17T06:00	8618	344	-30.1	-35.8	197	8
2023-08-17T06:00	8651	342	-30.4	-36.0	199	8
2023-08-17T06:00	8677	341	-30.7	-36.4	201	8
2023-08-17T06:00	8701	340	-30.9	-36.7	202	9
2023-08-17T06:00	8725	338	-31.1	-36.6	202	9
2023-08-17T06:00	8750	337	-31.3	-37.3	202	9
2023-08-17T06:00	8777	336	-31.5	-36.8	201	8
2023-08-17T06:00	8809	335	-31.8	-36.8	201	8
2023-08-17T06:00	8839	333	-32.0	-37.1	200	8
2023-08-17T06:00	8867	332	-32.3	-37.2	199	8
2023-08-17T06:00	8896	330	-32.5	-37.2	197	8
2023-08-17T06:00	8934	329	-32.8	-37.9	195	8
2023-08-17T06:00	8969	327	-33.1	-38.4	193	8
2023-08-17T06:00	9004	325	-33.4	-38.4	191	8
2023-08-17T06:00	9026	324	-33.6	-38.4	191	8
2023-08-17T06:00	9056	323	-33.9	-38.8	190	8
2023-08-17T06:00	9082	322	-34.2	-39.1	189	9
2023-08-17T06:00	9111	320	-34.4	-39.5	188	9
2023-08-17T06:00	9139	319	-34.5	-39.9	188	9
2023-08-17T06:00	9164	318	-34.6	-40.4	187	9
2023-08-17T06:00	9191	317	-34.9	-40.6	187	9
2023-08-17T06:00	9222	315	-35.1	-41.1	187	9
2023-08-17T06:00	9248	314	-35.3	-42.3	188	10
2023-08-17T06:00	9278	313	-35.4	-42.7	189	10
2023-08-17T06:00	9305	312	-35.5	-42.6	190	9
2023-08-17T06:00	9329	311	-35.7	-42.7	191	9
2023-08-17T06:00	9351	310	-35.9	-42.8	192	9
2023-08-17T06:00	9378	308	-36.0	-43.3	193	9
2023-08-17T06:00	9399	307	-36.1	-43.4	192	9
2023-08-17T06:00	9421	306	-36.3	-43.4	192	9
2023-08-17T06:00	9447	305	-36.6	-43.5	191	9
2023-08-17T06:00	9471	304	-36.8		191	9
2023-08-17T06:00	9495	303	-37.0		190	9
2023-08-17T06:00	9520	302	-37.1	-44.8	190	8
2023-08-17T06:00	9552	301	-37.3	-45.3	190	8
2023-08-17T06:00	9576	300	-37.6	-45.4	191	8
2023-08-17T06:00	9601	299	-37.8	-45.3	192	8
2023-08-17T06:00	9629	297	-38.1	-45.3	193	9
2023-08-17T06:00	9656	296	-38.3	-45.4	194	9
2023-08-17T06:00	9684	295	-38.6	-45.7	195	9
2023-08-17T06:00	9709	294	-38.8	-45.7	196	9
2023-08-17T06:00	9734	293	-39.1	-45.8	196	8
2023-08-17T06:00	9756	292	-39.3	-45.7	196	8
2023-08-17T06:00	9782	291	-39.5	-45.8	195	8
2023-08-17T06:00	9809	290	-39.8	-46.0	195	8
2023-08-17T06:00	9833	289	-40.0	-46.1	195	8
2023-08-17T06:00	9857	288	-40.3	-46.2	196	8
2023-08-17T06:00	9881	287	-40.5	-46.2	197	9
2023-08-17T06:00	9908	285	-40.7	-46.4	198	9
2023-08-17T06:00	9940	284	-41.0	-46.5	198	9
2023-08-17T06:00	9963	283	-41.3	-46.0	197	9
2023-08-17T06:00	9992	282	-41.4	-45.1	196	9
2023-08-17T06:00	10022	281	-41.7	-45.5	193	9
2023-08-17T06:00	10049	280	-41.9	-45.7	190	10
2023-08-17T06:00	10073	279	-42.1	-45.8	188	10
2023-08-17T06:00	10097	278	-42.3	-46.2	187	10
2023-08-17T06:00	10120	277	-42.5	-46.3	187	10
2023-08-17T06:00	10144	276	-42.7	-46.4	187	10
2023-08-17T06:00	10171	275	-42.9	-46.4	188	10
2023-08-17T06:00	10203	273	-43.1	-46.4	189	10
2023-08-17T06:00	10229	272	-43.3		190	10
2023-08-17T06:00	10257	271	-43.6	-46.5	191	10
2023-08-17T06:00	10283	270	-43.8	-46.4	192	10
2023-08-17T06:00	10305	269	-44.0	-46.5	191	10
2023-08-17T06:00	10329	268	-44.2	-46.6	190	10
2023-08-17T06:00	10355	267	-44.4	-46.6	190	10
2023-08-17T06:00	10384	266	-44.6	-47.1	190	10
2023-08-17T06:00	10414	265	-44.9	-48.3	191	9
2023-08-17T06:00	10441	264	-45.1	-49.1	193	9
2023-08-17T06:00	10467	263	-45.4	-50.6	196	9
2023-08-17T06:00	10493	262	-45.6	-51.2	198	9
2023-08-17T06:00	10521	261	-45.8	-51.1	199	8
2023-08-17T06:00	10545	260	-46.0	-51.0	200	8
2023-08-17T06:00	10572	259	-46.3	-50.7	200	8
2023-08-17T06:00	10602	258	-46.5	-50.5	200	8
2023-08-17T06:00	10628	256	-46.7	-50.3	199	8
2023-08-17T06:00	10653	255	-47.0	-50.5	199	8
2023-08-17T06:00	10680	254	-47.2	-50.9	198	8
2023-08-17T06:00	10709	253	-47.4	-51.1	198	8
2023-08-17T06:00	10736	252	-47.7	-51.4	199	8
2023-08-17T06:00	10760	251	-47.9	-51.6	199	8
2023-08-17T06:00	10782	251	-48.1	-51.8	199	8
2023-08-17T06:00	10804	250	-48.3	-52.2	198	8
2023-08-17T06:00	10825	249	-48.5	-52.7	197	8
2023-08-17T06:00	10845	248	-48.5	-52.9	196	8
2023-08-17T06:00	10866	247	-48.7	-52.9	195	8
2023-08-17T06:00	10887	247	-48.9	-53.0	194	8
2023-08-17T06:00	10910	246	-49.1	-53.2	194	8
2023-08-17T06:00	10933	245	-49.3	-53.5	194	8
2023-08-17T06:00	10956	244	-49.5	-53.9	194	7
2023-08-17T06:00	10976	243	-49.5	-54.0	194	7
2023-08-17T06:00	11001	242	-49.7	-54.2	195	7
2023-08-17T06:00	11021	242	-49.8	-54.4	197	7
2023-08-17T06:00	11045	241	-50.1	-54.9	199	7
2023-08-17T06:00	11069	240	-50.2	-55.0	202	7
2023-08-17T06:00	11094	239	-50.4	-55.0	205	7
2023-08-17T06:00	11122	238	-50.6	-55.2	208	6
2023-08-17T06:00	11147	237	-50.8	-55.5	210	6
2023-08-17T06:00	11171	236	-51.0	-55.4	213	6
2023-08-17T06:00	11195	235	-51.1	-55.3	214	6
2023-08-17T06:00	11221	234	-51.3	-55.4	215	6
2023-08-17T06:00	11244	233	-51.5	-55.6	215	6
2023-08-17T06:00	11267	233	-51.7	-56.0	214	6
2023-08-17T06:00	11290	232	-51.8	-57.4	214	6
2023-08-17T06:00	11312	231	-51.9	-58.8	213	6
2023-08-17T06:00	11334	230	-52.1	-59.5	213	6
2023-08-17T06:00	11356	229	-52.4	-59.6	212	6
2023-08-17T06:00	11376	229	-52.5	-59.4	210	6
2023-08-17T06:00	11399	228	-52.7	-59.1	209	6
2023-08-17T06:00	11422	227	-53.0	-58.6	207	7
2023-08-17T06:00	11445	226	-53.2	-57.6	207	7
2023-08-17T06:00	11471	225	-53.4	-56.9	207	7
2023-08-17T06:00	11495	225	-53.6	-56.9	207	7
2023-08-17T06:00	11521	224	-53.8	-57.2	207	6
2023-08-17T06:00	11548	223	-54.1	-57.7	207	6
2023-08-17T06:00	11575	222	-54.3	-58.2	206	6
2023-08-17T06:00	11602	221	-54.6	-59.0	205	6
2023-08-17T06:00	11624	220	-54.7	-59.7	204	6
2023-08-17T06:00	11648	219	-54.8	-60.3	203	6
2023-08-17T06:00	11670	219	-54.9	-60.6	201	6
2023-08-17T06:00	11691	218	-55.1	-60.5	200	6
2023-08-17T06:00	11712	217	-55.3	-60.5	198	6
2023-08-17T06:00	11734	216	-55.3	-60.4	197	6
2023-08-17T06:00	11758	216	-55.5	-60.6	196	6
2023-08-17T06:00	11778	215	-55.6	-60.8	196	6
2023-08-17T06:00	11801	214	-55.8	-61.1	195	6
2023-08-17T06:00	11822	213	-55.9	-61.2	195	6
2023-08-17T06:00	11845	213	-56.1	-61.5	193	6
2023-08-17T06:00	11867	212	-56.3	-61.8	191	6
2023-08-17T06:00	11889	211	-56.5	-62.3	188	7
2023-08-17T06:00	11917	210	-56.6	-62.9	186	7
2023-08-17T06:00	11942	209	-56.6	-63.5	184	8
2023-08-17T06:00	11967	209	-56.2	-63.8	184	8
2023-08-17T06:00	11997	208	-55.7	-63.8	187	8
2023-08-17T06:00	12023	207	-55.5	-63.8	191	9
2023-08-17T06:00	12056	206	-55.7	-63.8	197	9
2023-08-17T06:00	12082	205	-55.9	-63.7	204	9
2023-08-17T06:00	12113	204	-56.1	-63.7	210	9
2023-08-17T06:00	12143	203	-56.2	-63.8	217	9
2023-08-17T06:00	12175	202	-56.2	-63.7	222	10
2023-08-17T06:00	12210	201	-56.4	-63.9	225	10
2023-08-17T06:00	12244	200	-56.6	-64.0	227	11
2023-08-17T06:00	12277	199	-56.8	-64.2	227	11
2023-08-17T06:00	12298	198	-57.0	-64.3	227	11
2023-08-17T06:00	12321	197	-57.1	-64.4	227	12
2023-08-17T06:00	12341	197	-57.1	-64.5	228	12
2023-08-17T06:00	12365	196	-57.3	-65.2	230	12
2023-08-17T06:00	12389	195	-57.1	-66.2	232	12
2023-08-17T06:00	12417	194	-56.6	-67.2	234	12
2023-08-17T06:00	12446	193	-56.1	-67.5	236	12
2023-08-17T06:00	12469	193	-56.2	-67.3	236	12
2023-08-17T06:00	12499	192	-56.5	-67.2	236	12
2023-08-17T06:00	12525	191	-56.7	-67.7	236	11
2023-08-17T06:00	12553	190	-56.7	-68.8	235	11
2023-08-17T06:00	12576	189	-56.9	-70.2	233	10
2023-08-17T06:00	12602	189	-57.0	-70.8	232	10
2023-08-17T06:00	12626	188	-57.1	-70.8	230	10
2023-08-17T06:00	12650	187	-57.1	-70.8	227	10
2023-08-17T06:00	12676	187	-57.0	-71.0	224	10
2023-08-17T06:00	12698	186	-57.0	-71.4	221	10
2023-08-17T06:00	12721	185	-56.8	-71.4	217	10
2023-08-17T06:00	12744	185	-56.8	-71.0	214	10
2023-08-17T06:00	12765	184	-56.8	-70.4	210	10
2023-08-17T06:00	12790	183	-56.7	-70.4	206	10
2023-08-17T06:00	12811	183	-56.2	-71.4	203	10
2023-08-17T06:00	12834	182	-55.8	-73.2	200	10
2023-08-17T06:00	12857	181	-55.1	-74.4	199	10
2023-08-17T06:00	12880	181	-55.0	-75.0	199	10
2023-08-17T06:00	12901	180	-55.1	-75.1	200	11
2023-08-17T06:00	12923	179	-55.0	-74.7	203	11
2023-08-17T06:00	12947	179	-55.1	-74.6	207	11
2023-08-17T06:00	12970	178	-55.3	-74.7	212	11
2023-08-17T06:00	12993	177	-55.4	-74.6	217	12
2023-08-17T06:00	13016	177	-55.4	-74.6	221	12
2023-08-17T06:00	13038	176	-55.4	-74.7	224	12
2023-08-17T06:00	13061	176	-55.3	-74.9	227	12
2023-08-17T06:00	13082	175	-55.3	-75.1	229	13
2023-08-17T06:00	13104	174	-55.2	-75.3	230	13
2023-08-17T06:00	13127	174	-55.1	-75.6	232	13
2023-08-17T06:00	13147	173	-55.0	-75.7	233	13
2023-08-17T06:00	13169	173	-55.0	-76.0	234	14
2023-08-17T06:00	13190	172	-55.1	-76.1	234	14
2023-08-17T06:00	13211	171	-55.2	-76.1	235	15
2023-08-17T06:00	13230	171	-55.3	-76.2	235	15
2023-08-17T06:00	13253	170	-55.3	-76.4	236	15
2023-08-17T06:00	13273	170	-55.3	-76.4	237	15
2023-08-17T06:00	13294	169	-55.5	-76.4	238	15
2023-08-17T06:00	13313	169	-55.7	-76.6	238	15
2023-08-17T06:00	13334	168	-55.8	-76.5	239	15
2023-08-17T06:00	13354	168	-55.9	-76.7	239	15
2023-08-17T06:00	13373	167	-55.9	-76.8	239	15
2023-08-17T06:00	13394	167	-55.8	-76.9	239	15
2023-08-17T06:00	13415	166	-55.8	-77.0	239	15
2023-08-17T06:00	13435	166	-55.8	-77.2	240	15
2023-08-17T06:00	13454	165	-55.9	-77.4	241	15
2023-08-17T06:00	13477	164	-56.0	-77.6	241	14
2023-08-17T06:00	13499	164	-55.9	-77.7	241	14
2023-08-17T06:00	13521	163	-55.9	-77.8	240	13
2023-08-17T06:00	13544	163	-55.5	-77.8	238	12
2023-08-17T06:00	13568	162	-55.4	-78.2	236	12
2023-08-17T06:00	13591	162	-55.5	-78.6	233	11
2023-08-17T06:00	13615	161	-55.4	-78.7	229	11
2023-08-17T06:00	13639	160	-55.5	-78.8	226	11
2023-08-17T06:00	13660	160	-55.5	-78.8	225	12
2023-08-17T06:00	13684	159	-55.3	-78.3	224	12
2023-08-17T06:00	13707	159	-55.0	-77.9	224	13
2023-08-17T06:00	13730	158	-54.9	-77.6	225	14
2023-08-17T06:00	13755	157	-54.6	-77.7	226	14
2023-08-17T06:00	13779	157	-54.3	-78.0	225	14
2023-08-17T06:00	13803	156	-54.3	-78.6	224	15
2023-08-17T06:00	13828	156	-54.1	-78.7	222	15
2023-08-17T06:00	13852	155	-53.9	-78.9	220	15
2023-08-17T06:00	13875	155	-53.5	-78.9	218	16
2023-08-17T06:00	13900	154	-53.4	-78.8	217	16
2023-08-17T06:00	13924	153	-53.6	-79.2	217	16
2023-08-17T06:00	13948	153	-53.6	-79.2	218	17
2023-08-17T06:00	13972	152	-53.7	-79.3	220	17
2023-08-17T06:00	13996	152	-53.6	-79.7	222	17
2023-08-17T06:00	14021	151	-53.0	-79.5	225	17
2023-08-17T06:00	14043	151	-52.7	-79.6	228	17
2023-08-17T06:00	14066	150	-52.6	-79.8	230	16
2023-08-17T06:00	14089	149	-52.1	-79.7	231	16
2023-08-17T06:00	14113	149	-51.5	-79.6	231	16
2023-08-17T06:00	14135	148	-51.3	-79.4	231	15
2023-08-17T06:00	14159	148	-51.3	-79.4	231	15
2023-08-17T06:00	14178	147	-51.0	-79.5	231	14
2023-08-17T06:00	14202	147	-50.8	-79.0	232	14
2023-08-17T06:00	14223	146	-50.9	-79.1	233	14
2023-08-17T06:00	14244	146	-50.9	-79.1	234	14
2023-08-17T06:00	14268	145	-50.9	-79.1	234	13
2023-08-17T06:00	14290	145	-51.0	-79.2	235	13
2023-08-17T06:00	14313	144	-51.1	-79.3	235	13
2023-08-17T06:00	14335	144	-51.3	-79.1	234	13
2023-08-17T06:00	14357	143	-51.4	-79.2	233	13
2023-08-17T06:00	14384	143	-51.4	-79.2	232	13
2023-08-17T06:00	14407	142	-51.2	-79.0	231	14
2023-08-17T06:00	14430	142	-51.3	-79.1	230	14
2023-08-17T06:00	14455	141	-51.5	-79.2	230	14
2023-08-17T06:00	14479	141	-51.7	-79.4	229	15
2023-08-17T06:00	14506	140	-51.9	-79.2	229	15
2023-08-17T06:00	14529	140	-52.1	-79.4	228	15
2023-08-17T06:00	14551	139	-52.2	-79.2	227	15
2023-08-17T06:00	14575	139	-52.5	-79.4	227	16
2023-08-17T06:00	14599	138	-52.7	-79.6	227	16
2023-08-17T06:00	14622	138	-52.9	-79.4	228	16
2023-08-17T06:00	14646	137	-53.1	-79.6	228	16
2023-08-17T06:00	14672	137	-53.2	-79.7	229	17
2023-08-17T06:00	14696	136	-53.4	-79.5	229	17
2023-08-17T06:00	14721	136	-53.6	-79.7	230	17
2023-08-17T06:00	14748	135	-53.8	-79.8	231	17
2023-08-17T06:00	14774	134	-53.9	-79.9	232	16
2023-08-17T06:00	14801	134	-53.9	-79.9	233	16
2023-08-17T06:00	14826	133	-54.0	-80.0	235	16
2023-08-17T06:00	14855	133	-54.1	-80.1	236	15
2023-08-17T06:00	14880	132	-53.8	-80.1	237	14
2023-08-17T06:00	14909	132	-53.6	-80.0	238	14
2023-08-17T06:00	14937	131	-53.6	-80.2	239	13
2023-08-17T06:00	14968	130	-53.6	-80.2	239	12
2023-08-17T06:00	15002	130	-53.6	-80.2	238	11
2023-08-17T06:00	15038	129	-53.5	-80.5	235	10
2023-08-17T06:00	15074	128	-53.4	-80.4	229	9
2023-08-17T06:00	15115	128	-53.6	-80.5	222	9
2023-08-17T06:00	15151	127	-53.8	-80.4	214	9
2023-08-17T06:00	15187	126	-53.9	-80.5	207	9
2023-08-17T06:00	15222	125	-54.3	-80.5	202	9
2023-08-17T06:00	15249	125	-54.5	-80.7	198	9
2023-08-17T06:00	15270	124	-54.5	-80.7	195	10
2023-08-17T06:00	15297	124	-54.6	-80.7	194	10
2023-08-17T06:00	15321	124	-54.6	-80.7	194	10
2023-08-17T06:00	15343	123	-54.6	-80.7	194	10
2023-08-17T06:00	15367	123	-54.6	-80.7	195	11
2023-08-17T06:00	15393	122	-54.8	-80.9	196	11
2023-08-17T06:00	15417	122	-54.9	-81.0	197	11
2023-08-17T06:00	15438	121	-55.0	-81.1	199	12
2023-08-17T06:00	15463	121	-55.2	-80.9	199	12
2023-08-17T06:00	15488	120	-55.3	-81.0	200	13
2023-08-17T06:00	15509	120	-55.5	-81.2	201	13
2023-08-17T06:00	15535	119	-55.7	-81.1	202	13
2023-08-17T06:00	15559	119	-55.9	-81.2	203	13
2023-08-17T06:00	15581	119	-56.0	-81.3	205	14
2023-08-17T06:00	15607	118	-56.2	-81.5	206	14
2023-08-17T06:00	15631	118	-56.3	-81.5	208	14
2023-08-17T06:00	15653	117	-56.4	-81.6	210	15
2023-08-17T06:00	15678	117	-56.4	-81.4	212	15
2023-08-17T06:00	15700	116	-56.5	-81.5	214	15
2023-08-17T06:00	15724	116	-56.6	-81.5	215	16
2023-08-17T06:00	15747	116	-56.5	-81.7	217	15
2023-08-17T06:00	15769	115	-56.4	-81.6	218	15
2023-08-17T06:00	15792	115	-56.5	-81.7	220	15
2023-08-17T06:00	15815	114	-56.5	-81.7	222	14
2023-08-17T06:00	15838	114	-56.5	-81.7	224	13
2023-08-17T06:00	15860	113	-56.3	-81.8	226	13
2023-08-17T06:00	15884	113	-56.3	-81.8	227	12
2023-08-17T06:00	15906	113	-56.3	-81.8	228	12
2023-08-17T06:00	15930	112	-56.2	-81.7	227	11
2023-08-17T06:00	15951	112	-56.2	-81.7	226	11
2023-08-17T06:00	15974	111	-56.3	-81.8	225	10
2023-08-17T06:00	15998	111	-56.5	-82.0	223	10
2023-08-17T06:00	16021	111	-56.6	-81.8	221	10
2023-08-17T06:00	16043	110	-56.7	-81.9	219	9
2023-08-17T06:00	16065	110	-56.8	-81.9	218	9
2023-08-17T06:00	16085	109	-56.9	-82.3	218	9
2023-08-17T06:00	16108	109	-56.6	-82.0	218	9
2023-08-17T06:00	16130	109	-56.5	-82.2	218	9
2023-08-17T06:00	16151	108	-56.5	-82.2	219	10
2023-08-17T06:00	16172	108	-56.3	-82.3	220	10
2023-08-17T06:00	16194	108	-56.1	-82.2	221	11
2023-08-17T06:00	16214	107	-56.0	-82.1	222	11
2023-08-17T06:00	16237	107	-56.0	-82.1	223	12
2023-08-17T06:00	16259	107	-56.0	-82.4	225	12
2023-08-17T06:00	16279	106	-56.0	-82.4	226	12
2023-08-17T06:00	16303	106	-55.5	-82.0	227	12
2023-08-17T06:00	16324	105	-55.3	-82.2	227	11
2023-08-17T06:00	16342	105	-55.3	-82.2	227	11
2023-08-17T06:00	16366	105	-55.2	-82.1	227	10
2023-08-17T06:00	16385	104	-55.0	-81.9	227	9
2023-08-17T06:00	16409	104	-55.0	-82.3	227	9
2023-08-17T06:00	16428	104	-55.0	-82.3	228	8
2023-08-17T06:00	16449	103	-55.1	-82.3	230	8
2023-08-17T06:00	16471	103	-55.1	-82.3	231	7
2023-08-17T06:00	16492	103	-55.1	-82.3	232	7
2023-08-17T06:00	16515	102	-54.9	-82.2	233	7
2023-08-17T06:00	16540	102	-54.6	-81.9	232	8
2023-08-17T06:00	16563	102	-54.8	-82.1	232	8
2023-08-17T06:00	16587	101	-55.0	-82.3	231	8
2023-08-17T06:00	16610	101	-55.1	-82.0	231	9
2023-08-17T06:00	16633	100	-55.4	-82.2	230	9
2023-08-17T06:00	16655	100	-55.6	-82.4	229	9
2023-08-17T06:00	16678	100	-55.7	-82.2	228	10
2023-08-17T06:00	16702	99	-56.0	-82.4	227	10
2023-08-17T06:00	16725	99	-56.2	-82.6	225	10
2023-08-17T06:00	16747	99	-56.2	-82.9	223	10
2023-08-17T06:00	16768	98	-55.9	-82.6	222	11
2023-08-17T06:00	16790	98	-55.6	-82.7	221	10
2023-08-17T06:00	16812	98	-55.6	-82.7	220	10
2023-08-17T06:00	16835	97	-55.3	-82.8	221	10
2023-08-17T06:00	16858	97	-55.2	-82.7	222	10
2023-08-17T06:00	16883	97	-55.3	-82.8	223	9
2023-08-17T06:00	16906	96	-55.5	-83.0	225	9
2023-08-17T06:00	16927	96	-55.5	-83.0	228	9
2023-08-17T06:00	16949	96	-55.4	-82.6	231	9
2023-08-17T06:00	16972	95	-55.5	-82.6	234	9
2023-08-17T06:00	16998	95	-55.5	-83.0	238	9
2023-08-17T06:00	17020	95	-55.5	-83.0	240	9
2023-08-17T06:00	17042	94	-55.5	-83.0	242	8
2023-08-17T06:00	17067	94	-55.5	-83.0	243	8
2023-08-17T06:00	17091	94	-55.7	-83.1	243	7
2023-08-17T06:00	17115	93	-55.7	-83.1	242	6
2023-08-17T06:00	17143	93	-55.6	-83.1	239	5
2023-08-17T06:00	17168	92	-55.6	-83.1	234	5
2023-08-17T06:00	17191	92	-55.7	-83.1	227	4
2023-08-17T06:00	17217	92	-55.7	-83.1	220	4
2023-08-17T06:00	17240	91	-55.7	-83.1	214	4
2023-08-17T06:00	17264	91	-55.7	-83.1	211	5
2023-08-17T06:00	17291	91	-55.5		209	5
2023-08-17T06:00	17315	90	-55.3	-83.2	208	6
2023-08-17T06:00	17339	90	-55.3	-83.2	207	6
2023-08-17T06:00	17362	90	-55.4	-83.3	206	6
2023-08-17T06:00	17390	89	-55.2	-83.1	205	7
2023-08-17T06:00	17414	89	-55.2	-82.7	204	7
2023-08-17T06:00	17438	89	-55.3	-82.8	204	7
2023-08-17T06:00	17461	88	-55.4	-82.9	205	7
2023-08-17T06:00	17487	88	-55.3	-82.8	207	7
2023-08-17T06:00	17511	88	-55.3	-82.8	208	7
2023-08-17T06:00	17532	87	-55.3	-82.8	208	7
2023-08-17T06:00	17555	87	-55.5	-83.0	205	6
2023-08-17T06:00	17577	87	-55.5	-83.0	199	6
2023-08-17T06:00	17606	86	-55.4	-82.9	192	6
2023-08-17T06:00	17633	86	-55.3	-82.8	184	6
2023-08-17T06:00	17661	86	-55.5	-83.0	177	7
2023-08-17T06:00	17687	85	-55.4	-82.9	173	7
2023-08-17T06:00	17713	85	-55.6	-83.1	170	8
2023-08-17T06:00	17740	84	-55.7	-83.1	169	8
2023-08-17T06:00	17764	84	-56.0	-83.0	169	9
2023-08-17T06:00	17789	84	-56.2	-83.2	170	9
2023-08-17T06:00	17814	84	-56.4	-83.3	172	8
2023-08-17T06:00	17835	83	-56.3	-83.3	174	8
2023-08-17T06:00	17859	83	-56.2	-83.5	177	8
2023-08-17T06:00	17882	83	-56.1	-83.4	179	8
2023-08-17T06:00	17908	82	-56.1	-83.4	180	7
2023-08-17T06:00	17932	82	-56.1	-83.4	182	7
2023-08-17T06:00	17959	82	-55.9	-83.6	185	7
2023-08-17T06:00	17980	81	-55.8	-83.6	188	7
2023-08-17T06:00	18005	81	-55.7	-83.5	191	6
2023-08-17T06:00	18032	81	-55.3	-83.6	193	6
2023-08-17T06:00	18057	80	-55.0		194	6
2023-08-17T06:00	18083	80	-55.0		193	6
2023-08-17T06:00	18105	80	-55.1	-83.4	190	6
2023-08-17T06:00	18131	79	-55.2	-83.5	184	6
2023-08-17T06:00	18158	79	-55.2	-83.5	177	6
2023-08-17T06:00	18181	79	-55.2	-83.5	170	6
2023-08-17T06:00	18206	78	-55.0		163	7
2023-08-17T06:00	18234	78	-54.7	-83.1	159	7
2023-08-17T06:00	18259	78	-54.5	-82.9	156	8
2023-08-17T06:00	18284	78	-54.5	-82.9	156	8
2023-08-17T06:00	18310	77	-54.7	-83.1	156	8
2023-08-17T06:00	18337	77	-54.8	-83.2	157	8
2023-08-17T06:00	18362	77	-54.9	-83.3	158	8
2023-08-17T06:00	18389	76	-55.1	-83.4	160	8
2023-08-17T06:00	18415	76	-54.8	-83.2	163	8
2023-08-17T06:00	18444	76	-54.6	-83.0	166	8
2023-08-17T06:00	18468	75	-54.6	-83.0	170	7
2023-08-17T06:00	18496	75	-54.6	-83.0	172	7
2023-08-17T06:00	18522	75	-54.6	-83.0	174	6
2023-08-17T06:00	18546	74	-54.7	-83.1	172	5
2023-08-17T06:00	18574	74	-54.8	-83.2	168	5
2023-08-17T06:00	18598	74	-54.6	-83.0	162	4
2023-08-17T06:00	18625	74	-54.6	-83.0	156	4
2023-08-17T06:00	18647	73	-54.7	-83.1	154	4
2023-08-17T06:00	18673	73	-54.8	-83.2	156	4
2023-08-17T06:00	18698	73	-54.8	-83.2	159	5
2023-08-17T06:00	18724	72	-54.8	-83.2	164	5
2023-08-17T06:00	18747	72	-54.9	-83.3	168	5
2023-08-17T06:00	18771	72	-55.0	-82.9	172	6
2023-08-17T06:00	18794	72	-55.1	-83.0	176	6
2023-08-17T06:00	18817	71	-55.2	-83.1	179	6
2023-08-17T06:00	18841	71	-55.3	-83.2	183	6
2023-08-17T06:00	18864	71	-55.3	-83.2	186	6
2023-08-17T06:00	18890	71	-55.3	-83.6	191	6
2023-08-17T06:00	18915	70	-55.2	-83.5	195	6
2023-08-17T06:00	18937	70	-55.3	-83.6	200	5
2023-08-17T06:00	18962	70	-55.2	-83.5	203	5
2023-08-17T06:00	18986	70	-55.1	-83.4	206	4
2023-08-17T06:00	19007	69	-55.4	-83.6	208	4
2023-08-17T06:00	19031	69	-55.4	-83.6	208	3
2023-08-17T06:00	19056	69	-55.3	-83.6	209	3
2023-08-17T06:00	19076	69	-55.1	-83.4	208	2
2023-08-17T06:00	19100	68	-55.2	-83.5	206	2
2023-08-17T06:00	19120	68	-55.2	-83.5	197	2
2023-08-17T06:00	19146	68	-55.2	-83.5	180	1
2023-08-17T06:00	19167	68	-55.4	-83.6	157	2
2023-08-17T06:00	19187	67	-55.5	-83.7	141	2
2023-08-17T06:00	19213	67	-55.5	-83.7	134	3
2023-08-17T06:00	19235	67	-55.4	-83.6	131	3
2023-08-17T06:00	19257	67	-55.3	-83.6	132	4
2023-08-17T06:00	19281	66	-55.2	-83.5	132	5
2023-08-17T06:00	19302	66	-55.2	-83.5	133	6
2023-08-17T06:00	19330	66	-55.4	-83.3	134	6
2023-08-17T06:00	19353	66	-55.6	-83.4	134	7
2023-08-17T06:00	19376	65	-55.7	-83.5	135	7
2023-08-17T06:00	19398	65	-55.8	-83.6	136	7
2023-08-17T06:00	19422	65	-55.8	-83.6	137	6
2023-08-17T06:00	19450	65	-55.8	-83.6	137	6
2023-08-17T06:00	19473	64	-55.9	-83.6	137	5
2023-08-17T06:00	19497	64	-56.0	-83.7	135	5
2023-08-17T06:00	19519	64	-56.1	-83.8	133	5
2023-08-17T06:00	19546	64	-56.2	-83.9	131	4
2023-08-17T06:00	19570	63	-56.2	-83.9	130	5
2023-08-17T06:00	19595	63	-56.2	-83.9	130	5
2023-08-17T06:00	19622	63	-56.2	-83.9	130	5
2023-08-17T06:00	19648	63	-56.2	-83.9	131	6
2023-08-17T06:00	19671	62	-56.4	-84.0	132	7
2023-08-17T06:00	19697	62	-56.4	-84.0	133	7
2023-08-17T06:00	19721	62	-56.5	-83.7	133	8
2023-08-17T06:00	19745	62	-56.6	-83.8	134	8
2023-08-17T06:00	19771	61	-56.7	-83.9	134	9
2023-08-17T06:00	19793	61	-57.0	-84.1	135	9
2023-08-17T06:00	19819	61	-57.1	-84.2	136	10
2023-08-17T06:00	19843	61	-57.2	-84.3	137	10
2023-08-17T06:00	19870	60	-57.4	-84.4	138	10
2023-08-17T06:00	19894	60	-57.5	-84.5	139	10
2023-08-17T06:00	19921	60	-57.3	-84.4	141	10
2023-08-17T06:00	19945	60	-57.4	-84.4	143	9
2023-08-17T06:00	19970	60	-57.3	-84.4	146	8
2023-08-17T06:00	19995	59	-57.4	-84.4	149	8
2023-08-17T06:00	20022	59	-57.5	-84.5	153	7
2023-08-17T06:00	20046	59	-57.5	-84.5	156	6
2023-08-17T06:00	20071	59	-57.6	-84.6	159	6
2023-08-17T06:00	20093	58	-57.6	-84.6	161	5
2023-08-17T06:00	20120	58	-57.6	-84.9	160	5
2023-08-17T06:00	20140	58	-57.3	-84.7	158	5
2023-08-17T06:00	20165	58	-56.9	-84.8	156	5
2023-08-17T06:00	20187	58	-56.3	-84.3	156	6
2023-08-17T06:00	20210	57	-55.8	-84.3	157	6
2023-08-17T06:00	20236	57	-55.6	-84.2	159	7
2023-08-17T06:00	20257	57	-55.7	-84.3	161	7
2023-08-17T06:00	20280	57	-56.0	-84.1	163	7
2023-08-17T06:00	20302	56	-56.1	-84.2	165	7
2023-08-17T06:00	20326	56	-56.3	-84.3	167	7
2023-08-17T06:00	20347	56	-56.2	-84.2	169	7
2023-08-17T06:00	20368	56	-56.0	-84.1	171	6
2023-08-17T06:00	20391	56	-55.9	-84.0	172	5
2023-08-17T06:00	20413	56	-55.9	-84.0	172	5
2023-08-17T06:00	20437	55	-55.9	-84.0	172	4
2023-08-17T06:00	20456	55	-55.9	-84.0	169	3
2023-08-17T06:00	20480	55	-56.1	-84.2	161	2
2023-08-17T06:00	20502	55	-56.0	-84.1	137	1
2023-08-17T06:00	20530	55	-55.7	-83.9	93	1
2023-08-17T06:00	20553	54	-55.4	-83.6	65	2
2023-08-17T06:00	20579	54	-55.4	-84.0	55	2
2023-08-17T06:00	20603	54	-55.4	-84.0	51	3
2023-08-17T06:00	20628	54	-55.4	-83.6	52	3
2023-08-17T06:00	20652	53	-55.5	-83.7	57	3
2023-08-17T06:00	20680	53	-55.6	-83.8	66	3
2023-08-17T06:00	20705	53	-55.6	-83.8	77	3
2023-08-17T06:00	20734	53	-55.7	-83.9	90	3
2023-08-17T06:00	20759	53	-55.7	-83.9	101	4
2023-08-17T06:00	20788	52	-55.8	-83.6	110	4
2023-08-17T06:00	20816	52	-56.0	-83.7	116	5
2023-08-17T06:00	20843	52	-56.0	-83.7	121	5
2023-08-17T06:00	20868	52	-56.2	-83.9	124	5
2023-08-17T06:00	20897	51	-56.3	-83.9	125	5
2023-08-17T06:00	20922	51	-56.5	-84.1	125	5
2023-08-17T06:00	20953	51	-56.5	-84.1	123	4
2023-08-17T06:00	20977	51	-56.6	-84.2	118	4
2023-08-17T06:00	21002	51	-56.6	-84.2	110	3
2023-08-17T06:00	21033	50	-56.4	-84.0	100	3
2023-08-17T06:00	21058	50	-56.2	-84.2	94	3
2023-08-17T06:00	21082	50	-56.3	-84.3	93	3
2023-08-17T06:00	21109	50	-56.2	-84.2	99	4
2023-08-17T06:00	21136	50	-55.9	-84.0	107	4
2023-08-17T06:00	21162	49	-55.6	-83.8	115	4
2023-08-17T06:00	21188	49	-55.6	-84.2	122	5
2023-08-17T06:00	21207	49	-55.6	-84.2	125	6
2023-08-17T06:00	21238	49	-55.5	-84.1	127	6
2023-08-17T06:00	21261	49	-55.1	-83.8	128	6
2023-08-17T06:00	21286	48	-55.0	-83.7	128	7
2023-08-17T06:00	21310	48	-54.9	-83.7	130	7
2023-08-17T06:00	21332	48	-54.9	-83.7	132	7
2023-08-17T06:00	21357	48	-55.1	-83.4	136	7
2023-08-17T06:00	21382	48	-55.3	-83.6	138	7
2023-08-17T06:00	21407	47	-55.4	-83.6	141	6
2023-08-17T06:00	21434	47	-55.6	-83.4	143	6
2023-08-17T06:00	21460	47	-55.9	-83.6	145	6
2023-08-17T06:00	21484	47	-56.0	-83.7	146	6
2023-08-17T06:00	21509	47	-56.2	-83.9	147	6
2023-08-17T06:00	21532	47	-56.3	-83.9	145	5
2023-08-17T06:00	21556	46	-56.4	-84.0	140	5
2023-08-17T06:00	21581	46	-56.2	-83.9	132	5
2023-08-17T06:00	21600	46	-55.9	-84.0	123	5
2023-08-17T06:00	21624	46	-55.7	-83.9	115	5
2023-08-17T06:00	21653	46	-55.6	-83.8	111	6
2023-08-17T06:00	21673	46	-55.5	-84.1	110	7
2023-08-17T06:00	21696	45	-55.4	-84.0	112	7
2023-08-17T06:00	21723	45	-55.3	-83.6	115	8
2023-08-17T06:00	21746	45	-55.4	-83.6	118	9
2023-08-17T06:00	21775	45	-55.5	-83.7	122	9
2023-08-17T06:00	21797	45	-55.4	-83.6	125	10
2023-08-17T06:00	21822	44	-55.1	-83.4	128	10
2023-08-17T06:00	21844	44	-55.1	-83.4	131	10
2023-08-17T06:00	21874	44	-55.3	-83.6	132	10
2023-08-17T06:00	21901	44	-55.5	-83.7	133	10
2023-08-17T06:00	21925	44	-55.6	-83.8	133	9
2023-08-17T06:00	21956	44	-55.7	-83.5	132	9
2023-08-17T06:00	21981	43	-55.8	-83.6	131	8
2023-08-17T06:00	22011	43	-56.1	-83.8	130	7
2023-08-17T06:00	22034	43	-56.2	-83.9	128	7
2023-08-17T06:00	22062	43	-56.2	-83.9	125	6
2023-08-17T06:00	22091	43	-56.2	-83.9	122	5
2023-08-17T06:00	22116	42	-56.1	-84.2	118	5
2023-08-17T06:00	22144	42	-55.8	-83.9	116	5
2023-08-17T06:00	22173	42	-55.8	-83.9	115	5
2023-08-17T06:00	22204	42	-55.8	-83.9	116	5
2023-08-17T06:00	22232	42	-55.9	-84.0	118	5
2023-08-17T06:00	22261	42	-56.0	-84.1	120	5
2023-08-17T06:00	22290	41	-56.1	-84.2	121	5
2023-08-17T06:00	22319	41	-56.2	-84.2	121	5
2023-08-17T06:00	22347	41	-56.3	-83.9	119	6
2023-08-17T06:00	22374	41	-56.4	-84.0	116	6
2023-08-17T06:00	22405	41	-56.3	-84.3	112	6
2023-08-17T06:00	22434	40	-56.2	-84.2	109	6
2023-08-17T06:00	22461	40	-56.2	-84.2	108	6
2023-08-17T06:00	22486	40	-56.0	-84.1	108	6
2023-08-17T06:00	22521	40	-55.7	-84.3	110	6
2023-08-17T06:00	22546	40	-55.6	-84.2	113	6
2023-08-17T06:00	22573	40	-55.6	-84.2	116	6
2023-08-17T06:00	22602	39	-55.5	-84.1	118	5
2023-08-17T06:00	22628	39	-55.4	-84.0	120	5
2023-08-17T06:00	22659	39	-55.4	-84.0	121	5
2023-08-17T06:00	22684	39	-55.3	-84.0	122	5
2023-08-17T06:00	22709	39	-55.2	-83.9	123	5
2023-08-17T06:00	22737	39	-55.2	-83.9	125	5
2023-08-17T06:00	22765	38	-55.2	-83.9	125	4
2023-08-17T06:00	22788	38	-55.1	-83.8	124	4
2023-08-17T06:00	22818	38	-54.8	-83.6	119	4
2023-08-17T06:00	22849	38	-54.7	-83.5	112	4
2023-08-17T06:00	22876	38	-54.8	-83.6	104	4
2023-08-17T06:00	22905	38	-54.7	-83.5	96	5
2023-08-17T06:00	22930	37	-54.5	-83.8	91	5
2023-08-17T06:00	22956	37	-54.4	-83.7	89	6
2023-08-17T06:00	22983	37	-54.3	-83.6	89	6
2023-08-17T06:00	23009	37	-54.3	-83.6	90	7
2023-08-17T06:00	23035	37	-54.2	-83.6	94	7
2023-08-17T06:00	23061	37	-54.2	-83.1	99	7
2023-08-17T06:00	23088	36	-54.4	-83.3	105	7
2023-08-17T06:00	23112	36	-54.4	-83.3	111	7
2023-08-17T06:00	23142	36	-54.5	-83.4	117	7
2023-08-17T06:00	23162	36	-54.6	-83.4	122	7
2023-08-17T06:00	23187	36	-54.7	-83.5	126	7
2023-08-17T06:00	23216	36	-54.8	-83.6	130	8
2023-08-17T06:00	23240	36	-54.7	-83.5	132	8
2023-08-17T06:00	23265	35	-54.6	-83.4	134	8
2023-08-17T06:00	23290	35	-54.7	-83.5	136	8
2023-08-17T06:00	23316	35	-54.7	-83.5	137	8
2023-08-17T06:00	23341	35	-54.8	-83.6	138	7
2023-08-17T06:00	23362	35	-54.8	-83.6	139	7
2023-08-17T06:00	23389	35	-54.8	-83.6	140	6
2023-08-17T06:00	23416	35	-54.7	-83.5	140	6
2023-08-17T06:00	23443	35	-54.8	-83.6	139	6
2023-08-17T06:00	23467	34	-54.9	-83.7	138	5
2023-08-17T06:00	23492	34	-54.9	-83.7	135	5
2023-08-17T06:00	23518	34	-55.0	-83.7	131	5
2023-08-17T06:00	23542	34	-55.1	-83.8	124	4
2023-08-17T06:00	23571	34	-55.1	-83.8	116	4
2023-08-17T06:00	23597	34	-55.0	-83.7	106	4
2023-08-17T06:00	23616	34	-55.0	-83.7	95	3
2023-08-17T06:00	23646	33	-55.0	-83.7	84	3
2023-08-17T06:00	23667	33	-55.0	-83.7	72	3
2023-08-17T06:00	23698	33	-54.8	-83.6	60	3
2023-08-17T06:00	23723	33	-54.8	-83.6	48	3
2023-08-17T06:00	23745	33	-54.8	-83.6	42	3
2023-08-17T06:00	23774	33	-54.8	-83.6	41	3
2023-08-17T06:00	23801	33	-54.8	-83.6	45	4
2023-08-17T06:00	23828	33	-54.8	-83.6	50	4
2023-08-17T06:00	23852	32	-54.8	-83.6	56	5
2023-08-17T06:00	23883	32	-54.9	-83.7	62	6
2023-08-17T06:00	23907	32	-55.0	-83.7	68	6
2023-08-17T06:00	23936	32	-55.0	-83.7	74	7
2023-08-17T06:00	23958	32	-55.0	-83.7	81	7
2023-08-17T06:00	23991	32	-54.8	-83.6	86	7
2023-08-17T06:00	24018	32	-54.8	-83.6	90	7
2023-08-17T06:00	24048	31	-55.1	-83.8	92	7
2023-08-17T06:00	24075	31	-55.3	-84.0	91	7
2023-08-17T06:00	24103	31	-55.1	-83.8	88	6
2023-08-17T06:00	24138	31	-54.9	-83.7	83	6
2023-08-17T06:00	24160	31	-54.7	-83.5	78	6
2023-08-17T06:00	24189	31	-54.6	-83.4	73	6
2023-08-17T06:00	24212	31	-54.6	-83.9	71	6
2023-08-17T06:00	24244	30	-54.4	-83.7	71	7
2023-08-17T06:00	24275	30	-54.3	-83.6	72	7
2023-08-17T06:00	24298	30	-54.2	-83.6	73	8
2023-08-17T06:00	24325	30	-54.0	-83.4	73	9
2023-08-17T06:00	24357	30	-53.9	-83.3	72	9
2023-08-17T06:00	24385	30	-53.8	-83.3	71	9
2023-08-17T06:00	24412	30	-53.9	-83.3	70	9
2023-08-17T06:00	24437	30	-53.9	-83.3	68	9
2023-08-17T06:00	24463	29	-53.9	-83.3	67	9
2023-08-17T06:00	24496	29	-53.9	-83.3	67	9
2023-08-17T06:00	24517	29	-53.8	-83.3	68	9
2023-08-17T06:00	24547	29	-53.9	-83.3	69	9
2023-08-17T06:00	24579	29	-53.9	-83.3	70	9
2023-08-17T06:00	24600	29	-54.0	-83.0	71	9
2023-08-17T06:00	24627	29	-54.1	-83.1	71	9
2023-08-17T06:00	24660	29	-54.3	-83.2	71	9
2023-08-17T06:00	24684	28	-54.4	-83.3	71	9
2023-08-17T06:00	24708	28	-54.5	-83.4	72	10
2023-08-17T06:00	24739	28	-54.4	-83.3	73	10
2023-08-17T06:00	24776	28	-54.4	-83.3	76	10
2023-08-17T06:00	24796	28	-54.4	-83.3	78	11
2023-08-17T06:00	24827	28	-54.4	-83.3	81	11
2023-08-17T06:00	24856	28	-54.5	-83.4	83	12
2023-08-17T06:00	24888	28	-54.6	-83.4	84	12
2023-08-17T06:00	24921	27	-54.8	-83.6	86	12
2023-08-17T06:00	24947	27	-54.9	-83.7	87	11
2023-08-17T06:00	24964	27	-55.1	-83.4	90	11
2023-08-17T06:00	24995	27	-55.2	-83.5	93	10
2023-08-17T06:00	25031	27	-55.2	-83.9	98	9
2023-08-17T06:00	25055	27	-55.1	-83.8	104	9
2023-08-17T06:00	25083	27	-55.1	-83.8	110	8
2023-08-17T06:00	25116	27	-55.0	-83.7	115	8
2023-08-17T06:00	25135	26	-54.8	-84.0	119	7
2023-08-17T06:00	25162	26	-54.6	-83.9	122	7
2023-08-17T06:00	25196	26	-54.5	-83.8	124	6
2023-08-17T06:00	25217	26	-54.4	-83.7	124	6
2023-08-17T06:00	25254	26	-54.2	-83.6	122	5
2023-08-17T06:00	25283	26	-54.1	-83.5	118	5
2023-08-17T06:00	25314	26	-54.1	-83.5	112	5
2023-08-17T06:00	25339	26	-54.2	-83.6	104	5
2023-08-17T06:00	25369	26	-54.1	-83.5	97	5
2023-08-17T06:00	25397	25	-54.0	-83.4	92	5
2023-08-17T06:00	25426	25	-53.9	-83.3	88	6
2023-08-17T06:00	25451	25	-53.7	-83.2	87	7
2023-08-17T06:00	25485	25	-53.5	-83.5	86	8
2023-08-17T06:00	25509	25	-53.4	-83.4	87	9
2023-08-17T06:00	25539	25	-53.3		89	9
2023-08-17T06:00	25564	25	-53.1	-83.2	92	10
2023-08-17T06:00	25600	25	-52.9	-83.1	95	11
2023-08-17T06:00	25621	25	-52.7	-82.9	99	11
2023-08-17T06:00	25650	24	-52.5	-82.8	103	12
2023-08-17T06:00	25693	24	-52.5	-82.8	106	12
2023-08-17T06:00	25711	24	-52.6	-82.8	110	12
2023-08-17T06:00	25741	24	-52.7	-82.4	113	12
2023-08-17T06:00	25774	24	-52.9	-82.6	117	12
2023-08-17T06:00	25799	24	-53.1	-82.7	121	12
2023-08-17T06:00	25821	24	-53.3	-82.9	125	12
2023-08-17T06:00	25853	24	-53.3	-82.9	130	11
2023-08-17T06:00	25881	24	-53.1	-82.7	134	11
2023-08-17T06:00	25908	24	-53.1	-82.7	138	11
2023-08-17T06:00	25938	23	-52.9	-83.1	142	10
2023-08-17T06:00	25961	23	-52.7	-82.9	145	9
2023-08-17T06:00	25984	23	-52.5	-82.8	148	9
2023-08-17T06:00	26013	23	-52.3	-82.6	150	8
2023-08-17T06:00	26041	23	-52.1	-82.5	151	7
2023-08-17T06:00	26076	23	-52.0	-82.4	150	7
2023-08-17T06:00	26101	23	-51.8	-82.2	148	7
2023-08-17T06:00	26132	23	-51.8	-82.2	146	7
2023-08-17T06:00	26156	23	-51.9	-82.3	143	7
2023-08-17T06:00	26184	23	-51.8	-82.2	142	7
2023-08-17T06:00	26211	22	-51.6	-82.1	141	7
2023-08-17T06:00	26241	22	-51.4	-82.5	140	6
2023-08-17T06:00	26276	22	-51.4	-82.5	139	6
2023-08-17T06:00	26304	22	-51.4	-82.5	136	6
2023-08-17T06:00	26342	22	-51.4	-82.5	132	6
2023-08-17T06:00	26365	22	-51.3	-82.4	127	6
2023-08-17T06:00	26398	22	-51.2	-82.3	121	6
2023-08-17T06:00	26421	22	-51.2	-82.3	116	6
2023-08-17T06:00	26453	22	-51.2	-82.3	112	6
2023-08-17T06:00	26481	22	-51.0	-82.2	107	6
2023-08-17T06:00	26517	21	-50.9	-82.1	103	7
2023-08-17T06:00	26543	21	-50.9	-82.1	98	7
2023-08-17T06:00	26577	21	-50.9	-82.1	95	7
2023-08-17T06:00	26604	21	-50.8	-82.0	93	7
2023-08-17T06:00	26641	21	-50.8	-82.0	93	7
2023-08-17T06:00	26667	21	-50.7		95	8
2023-08-17T06:00	26691	21	-50.6	-81.9	96	7
2023-08-17T06:00	26729	21	-50.5	-81.8	98	7
2023-08-17T06:00	26754	21	-50.4	-81.7	100	7
2023-08-17T06:00	26777	21	-50.4	-81.7	102	7
2023-08-17T06:00	26823	20	-50.3	-81.6	104	6
2023-08-17T06:00	26847	20	-50.3	-81.6	106	6
2023-08-17T06:00	26880	20	-50.3	-81.6	109	6
2023-08-17T06:00	26908	20	-50.3	-81.6	111	5
2023-08-17T06:00	26935	20	-50.2		112	4
2023-08-17T06:00	26966	20	-50.0	-81.4	112	3
2023-08-17T06:00	26995	20	-49.9	-81.3	109	1
2023-08-17T06:00	27025	20	-49.9	-81.3	64	0
2023-08-17T06:00	27051	20	-49.9	-81.3	334	1
2023-08-17T06:00	27074	20	-49.8	-81.3	332	2
2023-08-17T06:00	27112	20	-49.8	-81.8	342	2
2023-08-17T06:00	27143	19	-49.4	-81.6	357	3
2023-08-17T06:00	27165	19	-48.9	-81.2	14	3
2023-08-17T06:00	27196	19	-48.7	-81.0	27	4
2023-08-17T06:00	27223	19	-48.6	-81.0	37	4
2023-08-17T06:00	27252	19	-48.6	-81.0	42	5
2023-08-17T06:00	27293	19	-48.4	-80.8	44	5
2023-08-17T06:00	27312	19	-48.3	-80.7	45	6
2023-08-17T06:00	27352	19	-48.3	-80.7	46	6
2023-08-17T06:00	27373	19	-48.4	-80.8	47	6
2023-08-17T06:00	27403	19	-48.4	-80.8	49	6
2023-08-17T06:00	27435	19	-48.3	-80.7	51	7
2023-08-17T06:00	27466	19	-48.2	-80.7	53	7
2023-08-17T06:00	27506	18	-48.1	-80.6	53	7
2023-08-17T06:00	27525	18	-48.0	-80.5	53	7
2023-08-17T06:00	27557	18	-47.9	-80.4	51	7
2023-08-17T06:00	27590	18	-47.8	-80.4	49	7
2023-08-17T06:00	27629	18	-47.7	-80.3	45	7
2023-08-17T06:00	27657	18	-47.6	-80.2	42	7
2023-08-17T06:00	27684	18	-47.4	-80.1	41	7
2023-08-17T06:00	27712	18	-47.3	-80.0	40	7
2023-08-17T06:00	27747	18	-47.2	-79.9	41	7
2023-08-17T06:00	27782	18	-47.3	-80.0	42	6
2023-08-17T06:00	27806	18	-47.3	-80.0	44	6
2023-08-17T06:00	27836	18	-47.4	-80.1	45	6
2023-08-17T06:00	27864	17	-47.4	-80.1	47	5
2023-08-17T06:00	27901	17	-47.3	-80.0	49	5
2023-08-17T06:00	27922	17	-47.4	-80.1	52	5
2023-08-17T06:00	27954	17	-47.5	-80.2	56	6
2023-08-17T06:00	27987	17	-47.5	-80.2	61	6
2023-08-17T06:00	28019	17	-47.5	-80.2	67	6
2023-08-17T06:00	28044	17	-47.7	-80.3	73	6
2023-08-17T06:00	28067	17	-47.7	-80.3	78	7
2023-08-17T06:00	28091	17	-47.6	-80.2	81	7
2023-08-17T06:00	28137	17	-47.6	-80.2	82	7
2023-08-17T06:00	28165	17	-47.5	-80.2	82	7
2023-08-17T06:00	28183	17	-47.6	-80.2	81	7
2023-08-17T06:00	28217	17	-47.5	-80.2	79	7
2023-08-17T06:00	28238	16	-47.3	-80.0	76	6
2023-08-17T06:00	28265	16	-47.1	-80.5	74	6
2023-08-17T06:00	28302	16	-47.0	-80.4	71	5
2023-08-17T06:00	28325	16	-46.9	-80.4	68	5
2023-08-17T06:00	28358	16	-46.7	-80.2	66	5
2023-08-17T06:00	28385	16	-46.5	-80.1	66	5
2023-08-17T06:00	28401	16	-46.4	-80.0	68	5
2023-08-17T06:00	28429	16	-46.2	-79.8	72	5
2023-08-17T06:00	28466	16	-46.1	-79.8	77	5
2023-08-17T06:00	28495	16	-45.9	-79.6	79	6
2023-08-17T06:00	28522	16	-45.7	-79.5	81	6
2023-08-17T06:00	28544	16	-45.7	-79.5	81	6
2023-08-17T06:00	28575	16	-45.7	-79.5	81	6
2023-08-17T06:00	28613	16	-45.6		83	6
2023-08-17T06:00	28647	16	-45.5	-79.3	87	6
2023-08-17T06:00	28675	15	-45.5	-79.3	93	6
2023-08-17T06:00	28709	15	-45.5	-79.3	102	6
2023-08-17T06:00	28726	15	-45.6		110	6
2023-08-17T06:00	28766	15	-45.7	-79.5	119	6
2023-08-17T06:00	28791	15	-45.7	-79.5	126	6
2023-08-17T06:00	28841	15	-45.8	-79.6	132	6
2023-08-17T06:00	28862	15	-45.9	-79.6	135	6
2023-08-17T06:00	28901	15	-46.0	-79.7	136	5
2023-08-17T06:00	28926	15	-46.0	-79.7	134	5
2023-08-17T06:00	28957	15	-45.9	-79.6	128	4
2023-08-17T06:00	28993	15	-45.8	-79.6	121	4
2023-08-17T06:00	29020	15	-45.8	-79.6	112	3
2023-08-17T06:00	29050	15	-45.8	-79.6	102	3
2023-08-17T06:00	29100	14	-45.9	-79.6	92	3
2023-08-17T06:00	29139	14	-46.1	-79.8	80	3
2023-08-17T06:00	29162	14	-46.2	-79.8	69	3
2023-08-17T06:00	29201	14	-46.3	-79.9	59	3
2023-08-17T06:00	29233	14	-46.2	-79.8	51	4
2023-08-17T06:00	29267	14	-46.0	-79.7	45	4
2023-08-17T06:00	29299	14	-45.9	-79.6	39	4
2023-08-17T06:00	29321	14	-45.6		33	4
2023-08-17T06:00	29360	14	-45.3	-79.9	28	5
2023-08-17T06:00	29399	14	-45.2	-79.8	24	5
2023-08-17T06:00	29428	14	-45.1	-79.8	21	5
2023-08-17T06:00	29465	14	-45.1	-79.8	21	6
2023-08-17T06:00	29495	14	-45.2	-79.1	23	6
2023-08-17T06:00	29523	14	-45.2	-79.1	27	7
2023-08-17T06:00	29562	14	-45.3	-79.2	32	7
2023-08-17T06:00	29584	13	-45.2	-79.1	39	7
2023-08-17T06:00	29620	13	-45.1	-79.8	45	7
2023-08-17T06:00	29652	13	-44.9	-79.6	52	6
2023-08-17T06:00	29685	13	-44.5	-79.3	58	6
2023-08-17T06:00	29714	13	-44.3	-79.2	63	5
2023-08-17T06:00	29745	13	-44.3	-79.2	66	5
2023-08-17T06:00	29780	13	-44.4	-79.3	66	4
2023-08-17T06:00	29823	13	-44.5	-79.3	63	4
2023-08-17T06:00	29835	13	-44.5	-79.3	57	4
2023-08-17T06:00	29864	13	-44.4	-79.3	51	4
2023-08-17T06:00	29906	13	-44.3	-79.2	48	5
2023-08-17T06:00	29941	13	-44.2	-79.1	48	5
2023-08-17T06:00	29964	13	-44.1	-79.0	51	6
2023-08-17T06:00	29993	13	-43.9	-78.9	55	6
2023-08-17T06:00	30025	13	-43.5	-78.6	57	7
2023-08-17T06:00	30057	13	-43.2	-79.2	57	8
2023-08-17T06:00	30090	13	-42.8	-78.9	55	8
2023-08-17T06:00	30117	12	-42.2	-78.5	52	8
2023-08-17T06:00	30147	12	-41.8	-78.2	49	8
2023-08-17T12:00	116	1006	22.7	18.3	104	2
2023-08-17T12:00	142	1003	22.5	18.1	123	2
2023-08-17T12:00	171	1000	22.1	17.9	127	3
2023-08-17T12:00	196	997	21.5	17.7	128	4
2023-08-17T12:00	219	994	21.1	17.5	127	5
2023-08-17T12:00	242	992	20.9	17.4	125	5
2023-08-17T12:00	262	989	20.8	17.6	121	5
2023-08-17T12:00	280	987	20.5	17.4	117	5
2023-08-17T12:00	303	985	20.4	17.6	114	5
2023-08-17T12:00	329	982	20.0	17.3	112	6
2023-08-17T12:00	349	979	19.8	17.2	111	6
2023-08-17T12:00	374	977	19.6	17.2	111	6
2023-08-17T12:00	399	974	19.3	17.4	111	6
2023-08-17T12:00	427	971	19.1	17.3	110	6
2023-08-17T12:00	455	967	18.8	17.2	108	7
2023-08-17T12:00	487	964	18.5	17.1	106	7
2023-08-17T12:00	516	961	18.3		105	7
2023-08-17T12:00	539	958	18.0	17.1	105	7
2023-08-17T12:00	567	955	17.7	17.0	106	7
2023-08-17T12:00	593	952	17.5	16.8	107	7
2023-08-17T12:00	617	949	17.3	16.8	108	7
2023-08-17T12:00	642	947	17.0	16.8	109	7
2023-08-17T12:00	666	944	16.9	16.5	109	8
2023-08-17T12:00	695	941	17.2	15.2	110	8
2023-08-17T12:00	715	938	17.2	15.4	112	7
2023-08-17T12:00	739	936	16.9	15.3	114	7
2023-08-17T12:00	762	933	16.9	14.9	117	7
2023-08-17T12:00	791	930	16.7	14.6	120	6
2023-08-17T12:00	820	927	16.5	14.6	125	6
2023-08-17T12:00	849	924	16.5	14.1	129	6
2023-08-17T12:00	871	921	16.8	13.2	133	6
2023-08-17T12:00	902	918	17.4	11.4	135	6
2023-08-17T12:00	923	916	17.6	11.5	136	6
2023-08-17T12:00	956	913	17.8	10.7	136	5
2023-08-17T12:00	981	910	17.7	10.5	136	5
2023-08-17T12:00	1008	907	17.5	10.6	138	5
2023-08-17T12:00	1030	904	17.3	10.7	139	5
2023-08-17T12:00	1056	902	17.1	10.6	140	5
2023-08-17T12:00	1080	899	17.0	10.7	140	5
2023-08-17T12:00	1099	897	16.8	11.2	139	5
2023-08-17T12:00	1121	895	16.7	11.2	137	6
2023-08-17T12:00	1148	892	16.5	11.2	136	5
2023-08-17T12:00	1172	890	16.4	11.8	135	5
2023-08-17T12:00	1195	887	16.7	10.9	136	5
2023-08-17T12:00	1214	885	16.7	10.5	140	4
2023-08-17T12:00	1239	883	16.7	9.7	146	4
2023-08-17T12:00	1264	880	16.9	9.4	152	4
2023-08-17T12:00	1290	878	16.8	9.4	157	4
2023-08-17T12:00	1311	875	16.7	9.3	161	4
2023-08-17T12:00	1331	873	16.7	9.1	166	4
2023-08-17T12:00	1353	871	16.7	9.3	170	4
2023-08-17T12:00	1376	869	16.6	9.0	175	4
2023-08-17T12:00	1396	866	16.7	8.1	178	4
2023-08-17T12:00	1422	864	16.5	8.6	180	4
2023-08-17T12:00	1447	861	16.3	9.9	181	4
2023-08-17T12:00	1474	859	16.2	10.1	182	4
2023-08-17T12:00	1502	856	16.0	10.3	185	4
2023-08-17T12:00	1533	853	15.8		186	4
2023-08-17T12:00	1555	850	15.6	10.4	187	5
2023-08-17T12:00	1579	848	15.4	10.4	185	5
2023-08-17T12:00	1603	846	15.2	10.3	182	5
2023-08-17T12:00	1627	844	15.0	10.4	180	6
2023-08-17T12:00	1648	841	14.8	10.3	178	6
2023-08-17T12:00	1675	839	14.5	10.6	177	6
2023-08-17T12:00	1702	836	14.2	11.0	177	5
2023-08-17T12:00	1728	833	14.0	10.9	178	5
2023-08-17T12:00	1753	831	13.9	10.8	180	5
2023-08-17T12:00	1774	829	13.7	10.7	181	5
2023-08-17T12:00	1796	827	13.5	10.6	183	6
2023-08-17T12:00	1821	824	13.4	10.6	185	6
2023-08-17T12:00	1846	822	13.3	10.4	187	6
2023-08-17T12:00	1879	819	13.1	10.1	188	7
2023-08-17T12:00	1904	816	12.9	10.0	190	7
2023-08-17T12:00	1925	814	12.7	10.3	192	7
2023-08-17T12:00	1951	812	12.5	10.3	195	7
2023-08-17T12:00	1981	809	12.2	10.0	199	7
2023-08-17T12:00	2007	806	12.0	9.9	202	7
2023-08-17T12:00	2026	804	11.8	10.0	205	7
2023-08-17T12:00	2055	802	11.6	9.9	206	7
2023-08-17T12:00	2082	799	11.5	9.7	206	7
2023-08-17T12:00	2109	797	11.3	9.6	205	7
2023-08-17T12:00	2136	794	11.0	9.5	203	7
2023-08-17T12:00	2166	791	10.8	9.3	202	7
2023-08-17T12:00	2195	788	10.6	8.9	200	7
2023-08-17T12:00	2220	786	10.5	9.1	199	7
2023-08-17T12:00	2244	784	10.4	8.8	197	7
2023-08-17T12:00	2270	781	10.2	8.4	195	7
2023-08-17T12:00	2296	779	10.0	8.4	194	7
2023-08-17T12:00	2316	777	9.8	8.3	193	6
2023-08-17T12:00	2336	775	9.7	8.3	195	6
2023-08-17T12:00	2360	773	9.4	8.2	198	6
2023-08-17T12:00	2390	770	9.2	8.1	201	5
2023-08-17T12:00	2416	768	9.0	7.7	203	5
2023-08-17T12:00	2448	765	9.0	7.2	202	5
2023-08-17T12:00	2471	763	8.9	7.1	199	5
2023-08-17T12:00	2496	760	8.8	6.7	196	5
2023-08-17T12:00	2519	758	8.6	6.6	193	6
2023-08-17T12:00	2543	756	8.5	6.1	193	6
2023-08-17T12:00	2566	754	8.4	5.6	194	6
2023-08-17T12:00	2588	752	8.3	5.9	197	6
2023-08-17T12:00	2617	749	8.1	5.8	201	6
2023-08-17T12:00	2646	747	7.9	5.4	205	6
2023-08-17T12:00	2669	745	7.8	4.4	207	6
2023-08-17T12:00	2685	743	7.8	4.3	206	6
2023-08-17T12:00	2708	741	7.6	4.0	204	7
2023-08-17T12:00	2729	739	7.6	3.5	202	7
2023-08-17T12:00	2754	737	7.4	3.2	200	7
2023-08-17T12:00	2777	735	7.3	2.8	200	7
2023-08-17T12:00	2797	733	7.1	2.7	200	6
2023-08-17T12:00	2822	731	6.9	2.6	203	6
2023-08-17T12:00	2854	728	6.6	2.8	207	6
2023-08-17T12:00	2873	726	6.5	2.9	210	6
2023-08-17T12:00	2902	724	6.3	2.2	211	6
2023-08-17T12:00	2931	721	6.1	1.7	210	7
2023-08-17T12:00	2954	719	6.0	1.6	208	7
2023-08-17T12:00	2977	717	5.8	1.8	205	8
2023-08-17T12:00	2997	715	5.6	1.8	204	8
2023-08-17T12:00	3023	713	5.4		204	8
2023-08-17T12:00	3048	711	5.2	2.0	206	8
2023-08-17T12:00	3078	709	5.0	1.9	207	8
2023-08-17T12:00	3100	707	4.9	1.6	209	8
2023-08-17T12:00	3122	705	4.8	1.5	209	8
2023-08-17T12:00	3153	702	4.6	0.9	208	8
2023-08-17T12:00	3176	700	4.4	0.9	207	9
2023-08-17T12:00	3196	698	4.2	0.9	206	9
2023-08-17T12:00	3220	696	4.0	0.9	205	9
2023-08-17T12:00	3243	694	3.8	0.9	206	9
2023-08-17T12:00	3267	692	3.7	1.0	207	9
2023-08-17T12:00	3288	690	3.6	1.0	208	8
2023-08-17T12:00	3315	688	3.4	0.7	210	8
2023-08-17T12:00	3341	686	3.1	0.6	212	8
2023-08-17T12:00	3359	684	3.0	0.5	214	8
2023-08-17T12:00	3379	683	2.8	0.5	215	8
2023-08-17T12:00	3407	680	2.5	0.3	216	9
2023-08-17T12:00	3429	679	2.4	0.3	217	9
2023-08-17T12:00	3449	677	2.2	0.3	217	9
2023-08-17T12:00	3473	675	1.9	0.2	216	9
2023-08-17T12:00	3499	673	1.7	0.1	215	9
2023-08-17T12:00	3524	671	1.6	-0.3	214	10
2023-08-17T12:00	3550	669	1.5	-0.5	211	10
2023-08-17T12:00	3568	667	1.4	-0.8	208	10
2023-08-17T12:00	3588	665	1.2	-0.9	205	9
2023-08-17T12:00	3610	664	1.0	-1.0	202	9
2023-08-17T12:00	3628	662	1.2	-1.3	201	8
2023-08-17T12:00	3654	660	1.1	-2.2	201	8
2023-08-17T12:00	3672	658	1.0	-2.2	203	8
2023-08-17T12:00	3693	657	0.9	-1.5	206	8
2023-08-17T12:00	3717	655	0.7	-1.5	209	9
2023-08-17T12:00	3743	653	0.4	-1.4	211	9
2023-08-17T12:00	3766	651	0.2	-1.3	212	9
2023-08-17T12:00	3790	649	0.0		214	9
2023-08-17T12:00	3806	648	0.0	-1.3	215	9
2023-08-17T12:00	3824	646	0.0	-1.6	217	9
2023-08-17T12:00	3847	644	-0.1	-1.7	217	9
2023-08-17T12:00	3868	642	-0.3	-2.0	216	9
2023-08-17T12:00	3892	641	-0.5	-2.0	214	9
2023-08-17T12:00	3910	639	-0.7	-2.0	212	9
2023-08-17T12:00	3929	638	-0.8	-1.9	210	9
2023-08-17T12:00	3959	635	-1.1	-2.1	208	9
2023-08-17T12:00	3989	633	-1.3	-2.3	207	9
2023-08-17T12:00	4008	631	-1.5	-2.4	206	9
2023-08-17T12:00	4029	630	-1.7	-2.6	206	9
2023-08-17T12:00	4051	628	-1.9	-2.4	205	8
2023-08-17T12:00	4081	626	-2.3	-2.7	205	7
2023-08-17T12:00	4104	624	-2.3	-3.0	206	7
2023-08-17T12:00	4122	622	-2.5		207	6
2023-08-17T12:00	4146	621	-2.7	-3.3	209	7
2023-08-17T12:00	4168	619	-2.9	-3.4	209	7
2023-08-17T12:00	4192	617	-3.0	-3.4	210	7
2023-08-17T12:00	4218	615	-3.3	-3.6	209	8
2023-08-17T12:00	4243	613	-3.5	-3.5	208	9
2023-08-17T12:00	4268	611	-3.7	-3.7	207	9
2023-08-17T12:00	4294	609	-3.2	-4.4	207	9
2023-08-17T12:00	4311	608	-3.0	-5.8	206	9
2023-08-17T12:00	4345	605	-2.6	-7.5	206	9
2023-08-17T12:00	4364	604	-2.7	-7.4	206	9
2023-08-17T12:00	4388	602	-2.8	-8.6	207	10
2023-08-17T12:00	4420	600	-3.0	-8.0	207	10
2023-08-17T12:00	4442	598	-3.2	-9.4	209	11
2023-08-17T12:00	4472	596	-3.4	-9.5	209	11
2023-08-17T12:00	4499	593	-3.6	-8.9	210	11
2023-08-17T12:00	4533	591	-3.9	-9.7	209	10
2023-08-17T12:00	4561	589	-4.2	-9.9	209	10
2023-08-17T12:00	4581	587	-4.3	-10.1	208	10
2023-08-17T12:00	4600	586	-4.4	-9.5	207	10
2023-08-17T12:00	4621	584	-4.5	-8.9	207	10
2023-08-17T12:00	4645	582	-4.7	-8.3	206	10
2023-08-17T12:00	4679	580	-5.0	-8.1	204	10
2023-08-17T12:00	4697	579	-5.1	-8.1	203	10
2023-08-17T12:00	4717	577	-5.2	-7.9	201	10
2023-08-17T12:00	4739	576	-5.4	-7.9	200	9
2023-08-17T12:00	4767	574	-5.6	-7.9	198	9
2023-08-17T12:00	4792	572	-5.8	-8.1	196	9
2023-08-17T12:00	4812	570	-5.9	-7.9	195	9
2023-08-17T12:00	4833	569	-6.1	-7.9	194	9
2023-08-17T12:00	4853	567	-6.2	-7.9	193	9
2023-08-17T12:00	4872	566	-6.3	-7.9	193	9
2023-08-17T12:00	4903	564	-6.5	-8.0	194	10
2023-08-17T12:00	4930	562	-6.6	-8.6	195	10
2023-08-17T12:00	4948	560	-6.6	-9.0	197	10
2023-08-17T12:00	4971	559	-6.7	-8.9	200	10
2023-08-17T12:00	4994	557	-6.8	-9.0	202	10
2023-08-17T12:00	5021	555	-6.9	-9.4	204	11
2023-08-17T12:00	5045	554	-7.0	-10.0	204	10
2023-08-17T12:00	5064	552	-7.1	-10.2	204	10
2023-08-17T12:00	5089	550	-7.1	-10.0	204	10
2023-08-17T12:00	5115	549	-7.1	-11.7	204	10
2023-08-17T12:00	5139	547	-7.2	-12.7	204	10
2023-08-17T12:00	5172	545	-7.3	-13.5	205	11
2023-08-17T12:00	5193	543	-7.5	-11.6	206	11
2023-08-17T12:00	5211	542	-7.6	-11.1	205	10
2023-08-17T12:00	5230	541	-7.7	-10.4	203	10
2023-08-17T12:00	5249	539	-7.7	-10.3	199	9
2023-08-17T12:00	5267	538	-7.6	-10.4	196	8
2023-08-17T12:00	5287	537	-7.6	-10.2	194	8
2023-08-17T12:00	5308	535	-7.6	-9.9	194	8
2023-08-17T12:00	5329	534	-7.8	-10.0	196	8
2023-08-17T12:00	5350	532	-8.0	-10.1	199	8
2023-08-17T12:00	5380	530	-8.1	-12.1	200	9
2023-08-17T12:00	5406	529	-8.0	-15.3	201	9
2023-08-17T12:00	5435	527	-8.0	-16.1	200	9
2023-08-17T12:00	5472	524	-8.5	-11.4	198	9
2023-08-17T12:00	5497	523	-8.7	-12.9	196	9
2023-08-17T12:00	5514	521	-8.7	-18.1	195	9
2023-08-17T12:00	5539	520	-8.7	-23.0	193	9
2023-08-17T12:00	5561	518	-8.8	-26.1	192	9
2023-08-17T12:00	5591	516	-8.9	-23.6	192	9
2023-08-17T12:00	5610	515	-9.1	-17.2	193	8
2023-08-17T12:00	5635	513	-9.3	-13.7	195	8
2023-08-17T12:00	5657	512	-9.5	-12.5	199	7
2023-08-17T12:00	5691	510	-9.6	-14.1	204	7
2023-08-17T12:00	5713	508	-9.6	-15.5	210	6
2023-08-17T12:00	5736	506	-9.8	-17.8	216	6
2023-08-17T12:00	5768	504	-10.0	-20.6	220	6
2023-08-17T12:00	5797	503	-10.2	-17.1	223	6
2023-08-17T12:00	5820	501	-10.5	-17.0	224	6
2023-08-17T12:00	5843	499	-10.7	-17.1	222	7
2023-08-17T12:00	5873	498	-10.9	-18.0	218	7
2023-08-17T12:00	5910	495	-11.2	-19.3	214	7
2023-08-17T12:00	5932	494	-11.3	-20.4	210	7
2023-08-17T12:00	5953	492	-11.3	-27.8	205	7
2023-08-17T12:00	5981	491	-11.5	-26.6	201	7
2023-08-17T12:00	6011	489	-11.7	-24.8	195	7
2023-08-17T12:00	6039	487	-11.9	-25.4	191	7
2023-08-17T12:00	6058	486	-12.1	-24.5	189	7
2023-08-17T12:00	6078	484	-12.2	-22.7	188	7
2023-08-17T12:00	6104	483	-12.5	-21.7	188	7
2023-08-17T12:00	6132	481	-12.8	-21.4	186	7
2023-08-17T12:00	6163	479	-13.1	-20.7	183	7
2023-08-17T12:00	6184	478	-13.2	-20.9	179	6
2023-08-17T12:00	6206	476	-13.4	-20.6	178	6
2023-08-17T12:00	6232	475	-13.7	-19.4	178	6
2023-08-17T12:00	6261	473	-14.0	-19.4	181	6
2023-08-17T12:00	6286	471	-14.1	-21.7	186	6
2023-08-17T12:00	6307	470	-14.2	-22.2	191	6
2023-08-17T12:00	6327	469	-14.4	-22.7	195	6
2023-08-17T12:00	6352	467	-14.4	-22.3	199	6
2023-08-17T12:00	6383	466	-14.6	-21.6	200	6
2023-08-17T12:00	6407	464	-14.7	-22.8	201	6
2023-08-17T12:00	6435	462	-14.7	-24.9	200	6
2023-08-17T12:00	6465	460	-14.9	-25.6	200	7
2023-08-17T12:00	6489	459	-15.1	-25.2	201	7
2023-08-17T12:00	6522	457	-15.4	-22.9	204	8
2023-08-17T12:00	6551	455	-15.7	-23.0	206	8
2023-08-17T12:00	6568	454	-15.8	-22.7	208	8
2023-08-17T12:00	6588	453	-15.9	-24.0	210	8
2023-08-17T12:00	6611	452	-15.9	-26.8	210	8
2023-08-17T12:00	6631	450	-16.0	-31.0	210	7
2023-08-17T12:00	6653	449	-16.2	-31.7	210	7
2023-08-17T12:00	6676	448	-16.4	-30.0	210	7
2023-08-17T12:00	6696	447	-16.2	-26.7	211	7
2023-08-17T12:00	6717	445	-15.9	-26.6	211	6
2023-08-17T12:00	6741	444	-15.9	-33.3	211	6
2023-08-17T12:00	6770	442	-16.1	-31.8	211	6
2023-08-17T12:00	6806	440	-16.4	-31.1	211	6
2023-08-17T12:00	6843	438	-16.7	-29.8	212	5
2023-08-17T12:00	6867	437	-16.9	-29.0	213	5
2023-08-17T12:00	6885	435	-17.0	-29.1	214	5
2023-08-17T12:00	6905	434	-17.2	-28.1	215	5
2023-08-17T12:00	6928	433	-17.4	-27.6	216	5
2023-08-17T12:00	6955	431	-17.6	-27.0	216	5
2023-08-17T12:00	6988	430	-17.9	-26.7	215	4
2023-08-17T12:00	7016	428	-18.2	-27.9	211	4
2023-08-17T12:00	7047	426	-18.3	-29.9	207	4
2023-08-17T12:00	7074	425	-18.6	-29.5	202	4
2023-08-17T12:00	7102	423	-18.9	-29.7	198	4
2023-08-17T12:00	7132	421	-19.1	-30.1	195	5
2023-08-17T12:00	7155	420	-19.3	-29.9	194	5
2023-08-17T12:00	7182	418	-19.5	-29.9	195	5
2023-08-17T12:00	7210	417	-19.8	-30.1	196	5
2023-08-17T12:00	7248	415	-19.9	-30.8	196	5
2023-08-17T12:00	7278	413	-20.0	-29.6	195	5
2023-08-17T12:00	7295	412	-20.1	-30.7	190	5
2023-08-17T12:00	7316	411	-20.0	-30.9	184	5
2023-08-17T12:00	7335	410	-20.1	-32.3	178	5
2023-08-17T12:00	7355	409	-20.3	-29.9	175	6
2023-08-17T12:00	7375	408	-20.4	-27.9	175	6
2023-08-17T12:00	7398	406	-20.5	-30.0	177	6
2023-08-17T12:00	7425	405	-20.5	-37.4	178	6
2023-08-17T12:00	7453	403	-20.7	-36.2	179	6
2023-08-17T12:00	7479	402	-20.9	-33.9	177	6
2023-08-17T12:00	7508	400	-21.2	-30.9	175	6
2023-08-17T12:00	7537	399	-21.4	-31.5	174	6
2023-08-17T12:00	7565	397	-21.7	-32.4	174	6
2023-08-17T12:00	7591	396	-21.9	-32.1	175	7
2023-08-17T12:00	7614	395	-22.1	-28.8	176	7
2023-08-17T12:00	7637	393	-22.2	-25.5	177	7
2023-08-17T12:00	7664	392	-22.5	-25.8	178	7
2023-08-17T12:00	7687	391	-22.7	-25.8	178	7
2023-08-17T12:00	7713	389	-22.9	-25.7	178	7
2023-08-17T12:00	7741	388	-23.1	-25.9	179	7
2023-08-17T12:00	7767	386	-23.4	-26.1	179	6
2023-08-17T12:00	7802	385	-23.7	-26.6	179	6
2023-08-17T12:00	7825	384	-23.8	-27.8	178	6
2023-08-17T12:00	7848	382	-24.0	-28.5	176	6
2023-08-17T12:00	7871	381	-24.1	-29.0	172	6
2023-08-17T12:00	7893	380	-24.2	-30.7	169	6
2023-08-17T12:00	7917	379	-24.3	-31.5	167	6
2023-08-17T12:00	7938	377	-24.5	-32.2	167	6
2023-08-17T12:00	7972	376	-24.8	-31.9	167	6
2023-08-17T12:00	7995	375	-25.0	-32.3	168	6
2023-08-17T12:00	8025	373	-25.2	-33.0	170	7
2023-08-17T12:00	8047	372	-25.4	-34.4	171	6
2023-08-17T12:00	8072	371	-25.7	-34.5	172	6
2023-08-17T12:00	8101	369	-25.9	-35.0	172	6
2023-08-17T12:00	8131	368	-26.2	-35.4	171	6
2023-08-17T12:00	8160	366	-26.5	-35.2	170	5
2023-08-17T12:00	8191	365	-26.8	-35.4	168	5
2023-08-17T12:00	8222	363	-27.1	-35.5	166	5
2023-08-17T12:00	8249	362	-27.2	-34.8	166	5
2023-08-17T12:00	8280	360	-27.4	-34.5	166	5
2023-08-17T12:00	8306	359	-27.6	-34.4	167	5
2023-08-17T12:00	8337	357	-27.8	-34.4	167	6
2023-08-17T12:00	8361	356	-27.9	-34.7	168	5
2023-08-17T12:00	8385	355	-28.2	-34.5	169	5
2023-08-17T12:00	8410	354	-28.4	-34.4	171	5
2023-08-17T12:00	8433	353	-28.6	-34.7	174	5
2023-08-17T12:00	8455	351	-28.8	-35.6	177	5
2023-08-17T12:00	8486	350	-29.0	-35.6	179	5
2023-08-17T12:00	8515	349	-29.2	-36.2	179	5
2023-08-17T12:00	8536	347	-29.4	-34.9	177	5
2023-08-17T12:00	8565	346	-29.7	-35.2	176	5
2023-08-17T12:00	8589	345	-29.9	-35.6	176	6
2023-08-17T12:00	8616	344	-30.2	-35.5	178	6
2023-08-17T12:00	8650	342	-30.5	-35.3	182	6
2023-08-17T12:00	8681	341	-30.8	-34.3	186	6
2023-08-17T12:00	8698	340	-31.0	-33.9	188	6
2023-08-17T12:00	8721	339	-31.2	-34.3	189	5
2023-08-17T12:00	8748	337	-31.4	-34.5	188	5
2023-08-17T12:00	8771	336	-31.6	-33.8	187	5
2023-08-17T12:00	8795	335	-31.8	-33.6	185	5
2023-08-17T12:00	8818	334	-32.0	-34.5	183	5
2023-08-17T12:00	8840	333	-32.1	-36.5	180	5
2023-08-17T12:00	8864	332	-32.3	-36.7	177	5
2023-08-17T12:00	8894	330	-32.5	-37.0	174	5
2023-08-17T12:00	8926	329	-32.7	-36.5	172	5
2023-08-17T12:00	8959	327	-33.0	-35.9	170	5
2023-08-17T12:00	8986	326	-33.2	-35.7	169	5
2023-08-17T12:00	9013	325	-33.5	-35.9	168	5
2023-08-17T12:00	9038	324	-33.7	-35.4	168	5
2023-08-17T12:00	9059	323	-33.7	-35.7	169	5
2023-08-17T12:00	9082	322	-33.8	-36.3	171	5
2023-08-17T12:00	9108	320	-33.9	-36.5	174	5
2023-08-17T12:00	9138	319	-34.1	-37.2	175	5
2023-08-17T12:00	9168	318	-34.3	-38.3	175	5
2023-08-17T12:00	9198	316	-34.5	-38.8	175	5
2023-08-17T12:00	9225	315	-34.6	-38.9	173	5
2023-08-17T12:00	9248	314	-34.8	-39.0	172	5
2023-08-17T12:00	9277	313	-35.1	-39.4	170	5
2023-08-17T12:00	9305	312	-35.2	-39.7	169	5
2023-08-17T12:00	9329	310	-35.4	-40.0	167	5
2023-08-17T12:00	9354	309	-35.6	-40.7	166	6
2023-08-17T12:00	9381	308	-35.8	-41.8	165	6
2023-08-17T12:00	9409	307	-36.0	-42.5	164	6
2023-08-17T12:00	9434	306	-36.1	-43.6	165	6
2023-08-17T12:00	9458	305	-36.3	-43.8	165	6
2023-08-17T12:00	9483	304	-36.5	-43.9	167	6
2023-08-17T12:00	9507	303	-36.8	-44.2	169	6
2023-08-17T12:00	9536	301	-37.0	-44.2	171	6
2023-08-17T12:00	9560	300	-37.3	-44.3	172	6
2023-08-17T12:00	9588	299	-37.5	-44.1	171	6
2023-08-17T12:00	9614	298	-37.8	-44.2	169	6
2023-08-17T12:00	9643	297	-38.0	-44.4	167	6
2023-08-17T12:00	9666	296	-38.2	-44.9	164	6
2023-08-17T12:00	9690	295	-38.5	-45.0	162	6
2023-08-17T12:00	9714	294	-38.7	-45.4	161	6
2023-08-17T12:00	9739	293	-38.9	-45.6	160	6
2023-08-17T12:00	9766	291	-39.2	-46.1	160	6
2023-08-17T12:00	9796	290	-39.4	-46.3	159	6
2023-08-17T12:00	9832	289	-39.8	-46.6	157	6
2023-08-17T12:00	9858	288	-40.0	-47.2	153	6
2023-08-17T12:00	9882	287	-40.2	-47.2	149	6
2023-08-17T12:00	9909	285	-40.5	-47.2	145	6
2023-08-17T12:00	9937	284	-40.7	-48.2	143	6
2023-08-17T12:00	9960	283	-40.9	-49.2	143	6
2023-08-17T12:00	9985	282	-41.1	-49.4	144	6
2023-08-17T12:00	10009	281	-41.2	-50.1	146	6
2023-08-17T12:00	10031	280	-41.4	-50.5	149	6
2023-08-17T12:00	10052	280	-41.6	-50.8	150	6
2023-08-17T12:00	10075	279	-41.7	-50.5	150	5
2023-08-17T12:00	10096	278	-41.9	-49.2	151	5
2023-08-17T12:00	10120	277	-42.1	-48.5	151	5
2023-08-17T12:00	10145	276	-42.4	-48.4	152	5
2023-08-17T12:00	10169	275	-42.6	-48.5	154	5
2023-08-17T12:00	10191	274	-42.7	-48.8	157	6
2023-08-17T12:00	10210	273	-42.9	-49.0	159	6
2023-08-17T12:00	10231	272	-43.1	-49.1	160	6
2023-08-17T12:00	10253	271	-43.4	-49.3	161	6
2023-08-17T12:00	10286	270	-43.6	-49.4	161	6
2023-08-17T12:00	10316	269	-43.9	-49.7	163	6
2023-08-17T12:00	10349	268	-44.2	-50.1	167	6
2023-08-17T12:00	10369	267	-44.4	-50.2	173	6
2023-08-17T12:00	10394	266	-44.6	-50.4	181	6
2023-08-17T12:00	10419	265	-44.7	-50.7	187	6
2023-08-17T12:00	10444	264	-44.9	-50.7	192	6
2023-08-17T12:00	10468	263	-45.1	-50.8	194	6
2023-08-17T12:00	10496	262	-45.4	-50.9	195	6
2023-08-17T12:00	10526	261	-45.7	-50.8	195	6
2023-08-17T12:00	10554	259	-46.0	-50.9	194	6
2023-08-17T12:00	10582	258	-46.2	-51.3	192	5
2023-08-17T12:00	10614	257	-46.3	-52.6	188	5
2023-08-17T12:00	10641	256	-46.4	-53.8	183	5
2023-08-17T12:00	10672	255	-46.6	-53.7	176	5
2023-08-17T12:00	10705	254	-46.9	-53.7	169	5
2023-08-17T12:00	10742	252	-47.2	-53.8	164	6
2023-08-17T12:00	10767	251	-47.4		160	6
2023-08-17T12:00	10796	250	-47.7	-53.9	158	6
2023-08-17T12:00	10820	249	-47.9	-54.1	156	7
2023-08-17T12:00	10843	248	-48.1	-54.1	154	6
2023-08-17T12:00	10863	248	-48.3	-54.3	152	6
2023-08-17T12:00	10884	247	-48.5	-54.4	150	6
2023-08-17T12:00	10904	246	-48.7	-54.4	148	6
2023-08-17T12:00	10923	245	-48.9	-54.5	147	7
2023-08-17T12:00	10945	245	-49.0	-54.6	145	7
2023-08-17T12:00	10966	244	-49.2	-54.9	144	7
2023-08-17T12:00	10986	243	-49.4	-55.3	142	8
2023-08-17T12:00	11006	242	-49.5	-55.8	141	8
2023-08-17T12:00	11026	241	-49.7	-56.6	140	8
2023-08-17T12:00	11046	241	-49.8	-57.0	140	8
2023-08-17T12:00	11066	240	-50.0	-57.1	140	8
2023-08-17T12:00	11086	239	-50.2	-57.3	140	8
2023-08-17T12:00	11105	239	-50.4	-57.4	141	8
2023-08-17T12:00	11122	238	-50.5	-57.4	141	8
2023-08-17T12:00	11144	237	-50.7	-57.4	142	8
2023-08-17T12:00	11163	236	-50.9	-57.4	142	8
2023-08-17T12:00	11186	236	-51.1	-57.4	142	8
2023-08-17T12:00	11204	235	-51.3	-57.6	143	8
2023-08-17T12:00	11223	234	-51.4	-57.6	144	8
2023-08-17T12:00	11244	234	-51.6	-57.6	145	7
2023-08-17T12:00	11264	233	-51.8	-57.7	147	7
2023-08-17T12:00	11284	232	-52.0	-58.1	150	7
2023-08-17T12:00	11304	231	-52.1	-58.5	152	7
2023-08-17T12:00	11325	231	-52.3	-59.1	156	7
2023-08-17T12:00	11346	230	-52.4	-59.3	160	7
2023-08-17T12:00	11364	229	-52.6	-59.3	164	7
2023-08-17T12:00	11386	228	-52.7	-59.4	168	6
2023-08-17T12:00	11405	228	-52.9	-59.8	172	7
2023-08-17T12:00	11425	227	-52.8	-60.1	175	7
2023-08-17T12:00	11446	226	-52.7	-60.4	177	7
2023-08-17T12:00	11467	226	-52.7	-60.6	177	7
2023-08-17T12:00	11487	225	-52.9	-60.7	178	7
2023-08-17T12:00	11506	224	-53.0	-60.7	178	7
2023-08-17T12:00	11528	224	-53.2	-60.7	178	7
2023-08-17T12:00	11547	223	-53.3	-60.8	178	7
2023-08-17T12:00	11568	222	-53.4	-60.8	180	7
2023-08-17T12:00	11589	221	-53.5	-60.8	182	7
2023-08-17T12:00	11610	221	-53.6	-60.9	184	7
2023-08-17T12:00	11630	220	-53.7	-60.9	187	7
2023-08-17T12:00	11650	219	-53.8	-60.9	191	7
2023-08-17T12:00	11671	219	-54.0	-60.9	194	7
2023-08-17T12:00	11692	218	-54.1	-61.0	197	7
2023-08-17T12:00	11712	217	-54.3	-61.3	199	7
2023-08-17T12:00	11731	217	-54.4	-61.5	200	7
2023-08-17T12:00	11753	216	-54.5	-61.6	201	7
2023-08-17T12:00	11774	215	-54.7	-61.8	202	7
2023-08-17T12:00	11793	214	-54.9	-62.0	205	7
2023-08-17T12:00	11814	214	-55.0	-62.2	208	7
2023-08-17T12:00	11833	213	-55.1	-62.4	211	7
2023-08-17T12:00	11852	212	-55.2	-62.5	215	8
2023-08-17T12:00	11873	212	-55.2	-62.5	218	8
2023-08-17T12:00	11894	211	-55.3	-62.4	220	8
2023-08-17T12:00	11913	210	-55.4	-62.3	221	8
2023-08-17T12:00	11934	210	-55.5	-62.3	221	8
2023-08-17T12:00	11957	209	-55.5	-62.2	222	8
2023-08-17T12:00	11978	208	-55.7	-62.3	222	8
2023-08-17T12:00	11999	208	-55.9	-62.4	223	8
2023-08-17T12:00	12021	207	-56.1	-62.4	223	8
2023-08-17T12:00	12040	206	-56.3	-62.4	224	8
2023-08-17T12:00	12060	206	-56.4		225	8
2023-08-17T12:00	12079	205	-56.6	-62.4	225	8
2023-08-17T12:00	12099	204	-56.8	-62.4	226	8
2023-08-17T12:00	12119	204	-57.0	-62.4	226	8
2023-08-17T12:00	12137	203	-57.1	-62.3	225	8
2023-08-17T12:00	12158	203	-57.3	-62.4	225	7
2023-08-17T12:00	12177	202	-57.4	-62.4	223	7
2023-08-17T12:00	12196	201	-57.6		222	7
2023-08-17T12:00	12214	201	-57.8	-62.6	221	7
2023-08-17T12:00	12233	200	-57.9	-62.6	220	6
2023-08-17T12:00	12252	199	-58.1	-62.8	219	6
2023-08-17T12:00	12271	199	-58.2	-62.8	217	6
2023-08-17T12:00	12290	198	-58.4	-63.1	212	5
2023-08-17T12:00	12309	198	-58.4	-63.5	206	5
2023-08-17T12:00	12327	197	-58.1	-64.3	200	6
2023-08-17T12:00	12348	197	-57.5	-65.5	196	6
2023-08-17T12:00	12366	196	-57.3	-67.1	196	7
2023-08-17T12:00	12386	195	-56.7	-68.2	197	8
2023-08-17T12:00	12412	195	-56.5	-69.3	200	9
2023-08-17T12:00	12433	194	-55.9	-70.4	204	10
2023-08-17T12:00	12458	193	-55.0	-71.1	207	11
2023-08-17T12:00	12483	192	-54.7	-71.5	211	11
2023-08-17T12:00	12503	192	-54.7	-71.4	214	12
2023-08-17T12:00	12523	191	-54.8	-71.0	216	12
2023-08-17T12:00	12542	191	-54.9	-70.7	219	12
2023-08-17T12:00	12561	190	-55.0	-70.4	220	12
2023-08-17T12:00	12582	189	-55.1	-70.1	222	12
2023-08-17T12:00	12606	189	-55.3	-70.0	223	11
2023-08-17T12:00	12627	188	-55.4	-69.7	223	11
2023-08-17T12:00	12646	187	-55.6	-69.5	222	11
2023-08-17T12:00	12667	187	-55.7	-69.3	222	11
2023-08-17T12:00	12688	186	-55.6	-69.2	222	10
2023-08-17T12:00	12709	186	-55.5	-69.5	222	11
2023-08-17T12:00	12729	185	-55.1	-69.9	222	11
2023-08-17T12:00	12750	184	-54.7	-70.3	223	11
2023-08-17T12:00	12771	184	-54.5	-70.8	223	12
2023-08-17T12:00	12792	183	-54.4	-71.2	223	12
2023-08-17T12:00	12815	183	-54.4	-71.5	223	12
2023-08-17T12:00	12836	182	-54.3	-71.8	223	12
2023-08-17T12:00	12857	181	-54.3	-72.4	224	12
2023-08-17T12:00	12877	181	-53.7	-72.7	225	12
2023-08-17T12:00	12900	180	-53.3	-73.4	226	11
2023-08-17T12:00	12922	180	-53.1	-73.9	228	11
2023-08-17T12:00	12944	179	-53.0	-74.2	230	10
2023-08-17T12:00	12964	178	-53.0	-74.3	232	9
2023-08-17T12:00	12984	178	-53.1	-74.6	233	8
2023-08-17T12:00	13008	177	-53.2	-74.9	233	8
2023-08-17T12:00	13031	177	-52.9	-75.2	230	7
2023-08-17T12:00	13052	176	-52.8	-75.8	224	7
2023-08-17T12:00	13073	175	-52.9	-76.2	217	7
2023-08-17T12:00	13094	175	-52.8	-76.5	211	7
2023-08-17T12:00	13115	174	-52.6	-76.7	207	7
2023-08-17T12:00	13136	174	-52.6	-76.9	206	8
2023-08-17T12:00	13157	173	-52.6	-77.1	205	8
2023-08-17T12:00	13178	173	-52.5	-77.2	204	9
2023-08-17T12:00	13199	172	-52.5	-77.4	203	10
2023-08-17T12:00	13220	171	-52.5	-77.8	201	11
2023-08-17T12:00	13241	171	-52.4	-78.0	200	12
2023-08-17T12:00	13262	170	-52.3	-78.2	199	13
2023-08-17T12:00	13281	170	-52.1	-78.3	200	13
2023-08-17T12:00	13299	169	-52.0	-78.5	201	14
2023-08-17T12:00	13321	169	-52.0	-78.5	202	15
2023-08-17T12:00	13341	168	-52.0	-78.5	204	15
2023-08-17T12:00	13360	168	-51.8	-78.3	205	16
2023-08-17T12:00	13380	167	-51.8	-78.3	205	16
2023-08-17T12:00	13401	167	-51.9	-78.4	206	17
2023-08-17T12:00	13421	166	-52.0	-78.5	207	17
2023-08-17T12:00	13443	166	-52.1	-78.5	209	17
2023-08-17T12:00	13463	165	-52.1	-78.5	211	17
2023-08-17T12:00	13483	165	-52.1	-78.5	213	17
2023-08-17T12:00	13503	164	-52.1	-78.8	214	17
2023-08-17T12:00	13524	164	-52.1	-78.8	216	17
2023-08-17T12:00	13543	163	-52.2	-78.9	217	16
2023-08-17T12:00	13562	163	-52.1	-78.8	218	16
2023-08-17T12:00	13584	162	-52.0	-79.0	218	15
2023-08-17T12:00	13605	162	-52.1	-79.1	219	15
2023-08-17T12:00	13626	161	-52.2	-79.2	219	15
2023-08-17T12:00	13648	161	-52.2	-79.5	218	15
2023-08-17T12:00	13670	160	-52.2	-79.5	218	15
2023-08-17T12:00	13690	159	-52.1	-79.1	217	15
2023-08-17T12:00	13709	159	-52.2	-79.2	217	15
2023-08-17T12:00	13732	158	-52.3	-79.0	217	15
2023-08-17T12:00	13751	158	-52.4	-79.0	217	15
2023-08-17T12:00	13774	157	-52.4	-79.0	217	15
2023-08-17T12:00	13794	157	-52.5	-78.8	217	15
2023-08-17T12:00	13814	156	-52.6	-78.9	217	15
2023-08-17T12:00	13837	156	-52.8	-78.8	218	15
2023-08-17T12:00	13858	155	-52.8	-78.8	218	15
2023-08-17T12:00	13879	155	-52.9	-78.9	219	15
2023-08-17T12:00	13901	154	-53.0	-79.0	220	15
2023-08-17T12:00	13923	154	-53.1	-79.0	221	15
2023-08-17T12:00	13946	153	-53.1	-79.0	221	15
2023-08-17T12:00	13965	153	-53.1	-79.3	223	15
2023-08-17T12:00	13988	152	-53.2	-79.4	224	15
2023-08-17T12:00	14007	152	-53.3	-79.5	225	15
2023-08-17T12:00	14029	151	-53.2	-79.4	226	15
2023-08-17T12:00	14050	151	-53.1	-79.3	227	16
2023-08-17T12:00	14071	150	-53.2	-79.4	228	16
2023-08-17T12:00	14093	150	-53.2	-79.4	228	16
2023-08-17T12:00	14113	149	-53.1	-79.3	229	16
2023-08-17T12:00	14135	149	-52.7	-79.0	229	16
2023-08-17T12:00	14157	148	-52.6	-78.9	230	15
2023-08-17T12:00	14176	148	-52.6	-78.9	230	15
2023-08-17T12:00	14197	147	-52.7	-79.0	230	15
2023-08-17T12:00	14216	147	-52.8	-79.1	229	14
2023-08-17T12:00	14236	147	-52.9	-79.1	228	14
2023-08-17T12:00	14259	146	-53.0	-79.5	228	15
2023-08-17T12:00	14279	146	-53.1	-79.6	227	15
2023-08-17T12:00	14300	145	-53.0	-79.8	227	15
2023-08-17T12:00	14321	145	-53.0	-80.1	226	15
2023-08-17T12:00	14341	144	-53.0	-80.4	224	15
2023-08-17T12:00	14360	144	-53.1	-80.5	222	15
2023-08-17T12:00	14381	143	-53.1	-80.5	220	15
2023-08-17T12:00	14399	143	-53.1	-80.8	217	15
2023-08-17T12:00	14418	142	-53.1	-80.8	216	15
2023-08-17T12:00	14438	142	-53.1	-81.1	215	15
2023-08-17T12:00	14460	142	-52.9	-81.0	215	15
2023-08-17T12:00	14477	141	-52.7	-80.8	215	15
2023-08-17T12:00	14496	141	-52.6	-80.8	216	15
2023-08-17T12:00	14518	140	-52.8	-80.9	217	14
2023-08-17T12:00	14539	140	-52.8	-80.9	219	14
2023-08-17T12:00	14558	139	-52.6	-80.8	220	13
2023-08-17T12:00	14578	139	-52.4	-80.6	221	13
2023-08-17T12:00	14601	139	-52.3	-80.5	221	12
2023-08-17T12:00	14621	138	-52.3	-80.5	222	12
2023-08-17T12:00	14639	138	-52.3	-80.2	223	12
2023-08-17T12:00	14660	137	-52.4	-80.3	224	12
2023-08-17T12:00	14681	137	-52.5	-80.3	225	12
2023-08-17T12:00	14702	136	-52.6	-80.4	225	12
2023-08-17T12:00	14724	136	-52.7	-80.5	226	11
2023-08-17T12:00	14742	135	-52.6	-80.4	226	11
2023-08-17T12:00	14765	135	-52.7	-80.5	225	10
2023-08-17T12:00	14784	135	-52.8	-80.6	222	10
2023-08-17T12:00	14807	134	-52.8	-80.6	217	9
2023-08-17T12:00	14839	133	-52.6	-80.4	210	9
2023-08-17T12:00	14875	133	-52.5	-80.7	203	9
2023-08-17T12:00	14908	132	-52.5	-80.7	197	10
2023-08-17T12:00	14938	131	-52.7	-80.5	194	11
2023-08-17T12:00	14964	131	-52.9	-80.6	192	12
2023-08-17T12:00	14990	130	-53.0	-80.7	191	13
2023-08-17T12:00	15014	130	-53.2	-80.9	191	13
2023-08-17T12:00	15038	129	-53.4	-80.7	191	14
2023-08-17T12:00	15064	129	-53.6	-80.9	192	15
2023-08-17T12:00	15083	128	-53.7	-80.9	193	15
2023-08-17T12:00	15107	128	-53.9	-81.1	194	16
2023-08-17T12:00	15128	128	-54.1	-81.2	196	16
2023-08-17T12:00	15148	127	-54.2	-81.0	197	16
2023-08-17T12:00	15171	127	-54.3	-81.1	199	16
2023-08-17T12:00	15192	126	-54.4	-81.5	201	16
2023-08-17T12:00	15216	126	-54.5	-81.2	204	16
2023-08-17T12:00	15236	125	-54.6	-81.3	207	15
2023-08-17T12:00	15258	125	-54.6	-81.3	209	15
2023-08-17T12:00	15281	125	-54.7	-81.4	212	15
2023-08-17T12:00	15302	124	-54.9	-81.5	214	16
2023-08-17T12:00	15321	124	-54.9	-81.5	216	16
2023-08-17T12:00	15346	123	-55.0	-81.6	218	16
2023-08-17T12:00	15368	123	-55.1	-81.7	220	17
2023-08-17T12:00	15390	123	-55.2	-81.8	221	17
2023-08-17T12:00	15410	122	-55.1	-81.7	223	17
2023-08-17T12:00	15431	122	-55.0	-81.6	224	17
2023-08-17T12:00	15453	121	-54.9	-81.5	225	17
2023-08-17T12:00	15475	121	-54.9	-81.9	226	16
2023-08-17T12:00	15495	120	-54.9	-81.9	227	16
2023-08-17T12:00	15516	120	-54.9	-81.9	228	15
2023-08-17T12:00	15538	120	-54.9	-81.9	229	15
2023-08-17T12:00	15559	119	-54.9	-81.9	229	15
2023-08-17T12:00	15579	119	-54.9	-81.9	230	14
2023-08-17T12:00	15603	118	-54.9	-81.9	229	14
2023-08-17T12:00	15623	118	-55.0	-81.6	229	14
2023-08-17T12:00	15644	118	-55.0	-81.6	229	13
2023-08-17T12:00	15665	117	-55.1	-81.7	228	13
2023-08-17T12:00	15686	117	-55.2	-81.8	226	13
2023-08-17T12:00	15709	117	-55.3	-81.9	225	13
2023-08-17T12:00	15731	116	-55.5	-82.0	222	12
2023-08-17T12:00	15750	116	-55.5	-82.0	219	12
2023-08-17T12:00	15771	115	-55.6	-82.1	217	12
2023-08-17T12:00	15795	115	-55.7	-82.2	213	11
2023-08-17T12:00	15817	115	-55.7	-82.2	210	11
2023-08-17T12:00	15835	114	-55.7	-82.2	205	11
2023-08-17T12:00	15861	114	-55.8	-82.2	201	11
2023-08-17T12:00	15881	113	-55.7	-82.2	196	11
2023-08-17T12:00	15906	113	-55.6	-82.1	192	11
2023-08-17T12:00	15928	113	-55.7	-82.2	189	12
2023-08-17T12:00	15952	112	-55.7	-82.2	188	12
2023-08-17T12:00	15972	112	-55.8	-82.2	188	12
2023-08-17T12:00	15994	111	-55.9	-82.3	189	13
2023-08-17T12:00	16017	111	-55.7	-82.5	190	13
2023-08-17T12:00	16040	111	-55.6	-82.4	192	13
2023-08-17T12:00	16061	110	-55.7	-82.5	192	13
2023-08-17T12:00	16084	110	-55.6	-82.4	192	13
2023-08-17T12:00	16109	109	-55.5	-82.3	191	13
2023-08-17T12:00	16133	109	-55.6	-82.4	190	13
2023-08-17T12:00	16153	109	-55.8	-82.5	190	13
2023-08-17T12:00	16176	108	-55.9	-82.6	191	13
2023-08-17T12:00	16198	108	-55.6	-82.4	193	12
2023-08-17T12:00	16219	108	-55.4	-82.6	194	12
2023-08-17T12:00	16242	107	-55.4	-82.6	195	11
2023-08-17T12:00	16266	107	-55.4	-82.6	195	11
2023-08-17T12:00	16286	106	-55.2	-82.7	194	11
2023-08-17T12:00	16308	106	-55.0	-82.6	192	10
2023-08-17T12:00	16332	106	-54.8	-82.4	190	10
2023-08-17T12:00	16351	105	-54.8	-82.8	188	10
2023-08-17T12:00	16376	105	-54.7	-82.7	187	9
2023-08-17T12:00	16400	105	-54.5	-82.6	187	9
2023-08-17T12:00	16422	104	-54.6	-82.6	187	8
2023-08-17T12:00	16439	104	-54.8	-82.8	187	8
2023-08-17T12:00	16462	104	-54.9	-82.5	188	8
2023-08-17T12:00	16487	103	-55.0	-82.6	188	8
2023-08-17T12:00	16508	103	-55.1	-82.7	189	8
2023-08-17T12:00	16530	102	-55.2	-82.7	190	9
2023-08-17T12:00	16555	102	-55.3	-82.8	191	9
2023-08-17T12:00	16577	102	-55.5	-83.0	192	9
2023-08-17T12:00	16597	101	-55.6	-83.1	193	10
2023-08-17T12:00	16620	101	-55.7	-83.1	195	10
2023-08-17T12:00	16642	101	-55.9	-82.9	197	11
2023-08-17T12:00	16668	100	-56.0	-83.0	199	11
2023-08-17T12:00	16687	100	-56.1	-83.1	201	11
2023-08-17T12:00	16707	100	-56.2	-83.2	203	11
2023-08-17T12:00	16732	99	-56.2	-83.5	205	11
2023-08-17T12:00	16751	99	-56.3	-83.6	206	11
2023-08-17T12:00	16774	99	-56.3	-83.6	207	11
2023-08-17T12:00	16796	98	-56.3	-83.6	208	11
2023-08-17T12:00	16820	98	-56.2	-83.5	208	11
2023-08-17T12:00	16843	98	-56.1	-83.8	209	12
2023-08-17T12:00	16867	97	-55.9	-83.6	210	12
2023-08-17T12:00	16885	97	-55.8	-83.6	210	12
2023-08-17T12:00	16906	97	-55.6	-83.8	210	11
2023-08-17T12:00	16928	96	-55.4	-83.6	209	11
2023-08-17T12:00	16952	96	-55.4	-83.6	207	11
2023-08-17T12:00	16973	96	-55.4	-83.6	205	11
2023-08-17T12:00	16991	95	-55.3	-83.6	203	10
2023-08-17T12:00	17012	95	-55.3	-83.6	200	10
2023-08-17T12:00	17033	95	-55.2	-83.5	197	10
2023-08-17T12:00	17054	94	-55.2	-83.9	195	10
2023-08-17T12:00	17075	94	-55.2	-83.9	193	10
2023-08-17T12:00	17096	94	-55.1	-83.8	191	11
2023-08-17T12:00	17117	93	-55.1	-83.8	191	11
2023-08-17T12:00	17137	93	-55.1	-83.4	192	12
2023-08-17T12:00	17157	93	-55.2	-83.5	193	12
2023-08-17T12:00	17177	93	-55.3	-83.6	194	13
2023-08-17T12:00	17197	92	-55.3	-84.0	196	13
2023-08-17T12:00	17220	92	-55.2	-83.9	197	14
2023-08-17T12:00	17240	92	-54.8	-83.6	199	15
2023-08-17T12:00	17257	91	-54.7	-83.5	201	15
2023-08-17T12:00	17279	91	-54.8	-83.6	203	15
2023-08-17T12:00	17299	91	-54.9	-83.7	205	16
2023-08-17T12:00	17317	91	-54.9	-83.7	207	16
2023-08-17T12:00	17340	90	-55.0	-83.7	208	16
2023-08-17T12:00	17357	90	-55.1	-83.8	210	16
2023-08-17T12:00	17377	90	-55.2	-83.5	211	16
2023-08-17T12:00	17399	89	-55.4	-84.0	212	16
2023-08-17T12:00	17421	89	-55.2	-83.9	213	16
2023-08-17T12:00	17439	89	-55.0	-83.7	213	16
2023-08-17T12:00	17462	88	-55.0	-83.7	214	16
2023-08-17T12:00	17484	88	-55.1	-83.8	214	15
2023-08-17T12:00	17506	88	-55.0	-83.7	215	15
2023-08-17T12:00	17525	88	-55.0	-83.7	216	14
2023-08-17T12:00	17546	87	-54.9	-83.7	218	14
2023-08-17T12:00	17569	87	-54.8	-84.0	220	13
2023-08-17T12:00	17591	87	-54.5	-83.8	222	13
2023-08-17T12:00	17612	86	-54.4	-83.7	225	13
2023-08-17T12:00	17637	86	-54.4	-83.7	227	12
2023-08-17T12:00	17656	86	-54.4	-83.7	230	12
2023-08-17T12:00	17679	86	-54.5	-83.8	231	11
2023-08-17T12:00	17702	85	-54.5	-83.8	233	11
2023-08-17T12:00	17725	85	-54.5	-83.8	234	10
2023-08-17T12:00	17745	85	-54.5	-83.4	235	10
2023-08-17T12:00	17768	84	-54.6	-83.4	237	9
2023-08-17T12:00	17792	84	-54.7	-83.5	240	8
2023-08-17T12:00	17815	84	-54.9	-83.7	244	8
2023-08-17T12:00	17837	83	-54.9	-83.7	247	7
2023-08-17T12:00	17860	83	-54.8	-83.6	250	7
2023-08-17T12:00	17883	83	-54.8	-83.6	252	6
2023-08-17T12:00	17906	83	-54.9	-83.7	253	6
2023-08-17T12:00	17929	82	-55.0	-83.7	252	5
2023-08-17T12:00	17954	82	-55.2	-83.9	251	5
2023-08-17T12:00	17977	82	-55.3	-84.0	250	4
2023-08-17T12:00	17999	81	-55.4	-84.0	246	4
2023-08-17T12:00	18023	81	-55.3	-84.0	239	4
2023-08-17T12:00	18048	81	-55.4	-84.0	230	4
2023-08-17T12:00	18073	80	-55.5	-84.1	220	4
2023-08-17T12:00	18101	80	-55.2	-83.9	211	4
2023-08-17T12:00	18124	80	-55.2	-83.9	205	5
2023-08-17T12:00	18149	79	-55.5	-84.1	201	5
2023-08-17T12:00	18172	79	-55.5	-84.1	199	6
2023-08-17T12:00	18195	79	-55.6	-84.2	198	6
2023-08-17T12:00	18220	79	-55.8	-84.3	199	7
2023-08-17T12:00	18245	78	-56.0	-84.5	201	7
2023-08-17T12:00	18267	78	-56.0	-84.5	204	7
2023-08-17T12:00	18291	78	-56.0	-84.5	208	8
2023-08-17T12:00	18315	77	-56.0	-84.5	212	8
2023-08-17T12:00	18339	77	-55.9	-84.4	217	8
2023-08-17T12:00	18356	77	-55.8	-84.3	220	8
2023-08-17T12:00	18379	77	-55.9	-84.4	223	8
2023-08-17T12:00	18402	76	-56.0	-84.5	224	8
2023-08-17T12:00	18425	76	-56.0	-84.9	223	8
2023-08-17T12:00	18449	76	-55.8	-84.8	222	7
2023-08-17T12:00	18470	76	-55.3	-84.4	220	7
2023-08-17T12:00	18491	75	-55.2	-84.3	217	6
2023-08-17T12:00	18513	75	-55.3	-84.4	212	6
2023-08-17T12:00	18536	75	-55.2	-84.3	205	5
2023-08-17T12:00	18558	75	-55.1	-84.2	197	5
2023-08-17T12:00	18581	74	-55.0	-84.2	190	5
2023-08-17T12:00	18605	74	-55.1	-84.2	185	5
2023-08-17T12:00	18627	74	-55.0	-84.2	183	6
2023-08-17T12:00	18652	73	-55.0	-84.2	182	6
2023-08-17T12:00	18674	73	-55.0	-84.2	182	6
2023-08-17T12:00	18697	73	-55.2	-84.3	183	6
2023-08-17T12:00	18717	73	-55.2	-84.3	183	6
2023-08-17T12:00	18741	72	-55.2	-84.3	183	5
2023-08-17T12:00	18761	72	-55.2	-84.3	182	5
2023-08-17T12:00	18786	72	-55.4	-84.5	182	4
2023-08-17T12:00	18804	72	-55.4	-84.5	180	4
2023-08-17T12:00	18831	71	-55.3	-84.4	177	3
2023-08-17T12:00	18853	71	-55.3	-84.4	171	3
2023-08-17T12:00	18876	71	-55.4	-84.5	163	3
2023-08-17T12:00	18905	71	-55.3	-84.4	157	4
2023-08-17T12:00	18934	70	-55.2	-84.3	154	5
2023-08-17T12:00	18958	70	-55.1	-84.2	152	5
2023-08-17T12:00	18981	70	-55.2	-84.3	152	6
2023-08-17T12:00	19003	70	-55.3	-84.4	153	6
2023-08-17T12:00	19028	69	-55.5	-84.5	155	7
2023-08-17T12:00	19053	69	-55.6	-84.6	157	7
2023-08-17T12:00	19075	69	-55.6	-84.6	161	8
2023-08-17T12:00	19102	68	-55.6	-84.6	164	8
2023-08-17T12:00	19127	68	-55.5	-84.5	168	9
2023-08-17T12:00	19151	68	-55.6	-84.6	171	9
2023-08-17T12:00	19178	68	-55.8	-84.8	174	9
2023-08-17T12:00	19198	67	-56.0	-84.5	177	9
2023-08-17T12:00	19223	67	-56.2	-84.6	180	10
2023-08-17T12:00	19249	67	-56.3	-84.7	182	10
2023-08-17T12:00	19275	67	-56.4	-84.8	184	10
2023-08-17T12:00	19300	66	-56.6	-84.9	187	11
2023-08-17T12:00	19324	66	-56.8	-85.1	189	11
2023-08-17T12:00	19349	66	-56.9	-85.2	191	11
2023-08-17T12:00	19372	66	-57.1	-85.3	192	10
2023-08-17T12:00	19397	65	-57.1	-85.3	195	9
2023-08-17T12:00	19428	65	-56.9	-85.2	196	9
2023-08-17T12:00	19453	65	-56.8	-85.1	198	8
2023-08-17T12:00	19478	65	-56.9	-85.2	199	7
2023-08-17T12:00	19501	64	-57.0	-85.2	200	7
2023-08-17T12:00	19528	64	-57.1	-85.3	199	6
2023-08-17T12:00	19553	64	-57.0	-85.2	196	5
2023-08-17T12:00	19582	63	-56.8	-85.1	192	5
2023-08-17T12:00	19604	63	-56.8	-85.1	186	4
2023-08-17T12:00	19629	63	-56.8	-85.5	179	4
2023-08-17T12:00	19655	63	-56.7	-85.4	172	4
2023-08-17T12:00	19682	62	-56.8	-85.1	167	5
2023-08-17T12:00	19705	62	-56.8	-85.1	165	5
2023-08-17T12:00	19727	62	-56.8	-85.1	165	6
2023-08-17T12:00	19755	62	-56.8	-85.1	167	6
2023-08-17T12:00	19776	62	-56.9	-85.2	170	6
2023-08-17T12:00	19803	61	-56.8	-85.1	175	6
2023-08-17T12:00	19828	61	-56.7	-85.0	180	6
2023-08-17T12:00	19850	61	-56.8	-85.1	186	6
2023-08-17T12:00	19876	61	-56.8	-85.1	191	5
2023-08-17T12:00	19899	60	-56.9	-85.2	196	5
2023-08-17T12:00	19923	60	-56.9	-85.2	202	5
2023-08-17T12:00	19947	60	-57.1	-85.3	207	5
2023-08-17T12:00	19972	60	-57.2	-85.4	213	6
2023-08-17T12:00	19995	59	-57.3	-85.5	217	6
2023-08-17T12:00	20016	59	-57.2	-85.4	220	6
2023-08-17T12:00	20041	59	-57.3	-85.5	222	6
2023-08-17T12:00	20065	59	-57.3	-85.5	220	6
2023-08-17T12:00	20086	59	-57.1	-85.3	216	6
2023-08-17T12:00	20111	58	-57.0	-85.7	211	5
2023-08-17T12:00	20133	58	-57.1	-85.7	204	5
2023-08-17T12:00	20159	58	-57.1	-85.7	198	5
2023-08-17T12:00	20181	58	-57.1	-85.7	195	5
2023-08-17T12:00	20199	58	-57.0	-85.7	194	5
2023-08-17T12:00	20224	57	-56.9	-85.6	197	4
2023-08-17T12:00	20247	57	-56.8	-85.5	201	4
2023-08-17T12:00	20270	57	-56.7	-85.4	204	4
2023-08-17T12:00	20293	57	-56.6	-85.4	205	4
2023-08-17T12:00	20315	57	-56.6	-85.4	203	4
2023-08-17T12:00	20340	56	-56.6	-85.8	197	3
2023-08-17T12:00	20359	56	-56.1	-85.5	188	3
2023-08-17T12:00	20379	56	-55.6	-85.1	178	3
2023-08-17T12:00	20400	56	-55.7	-85.2	168	4
2023-08-17T12:00	20425	56	-56.0		159	4
2023-08-17T12:00	20452	55	-56.1	-85.0	151	5
2023-08-17T12:00	20476	55	-56.1	-85.0	145	5
2023-08-17T12:00	20497	55	-56.2	-85.1	140	6
2023-08-17T12:00	20520	55	-56.3	-85.1	138	7
2023-08-17T12:00	20545	55	-56.3	-85.1	137	7
2023-08-17T12:00	20569	54	-56.2	-85.1	138	8
2023-08-17T12:00	20596	54	-56.3	-85.1	140	8
2023-08-17T12:00	20622	54	-56.5	-85.3	143	9
2023-08-17T12:00	20648	54	-56.5	-85.3	145	9
2023-08-17T12:00	20671	53	-56.3	-85.6	147	9
2023-08-17T12:00	20692	53	-55.9	-85.3	148	8
2023-08-17T12:00	20720	53	-55.6	-85.1	148	8
2023-08-17T12:00	20746	53	-55.2	-85.3	148	8
2023-08-17T12:00	20770	53	-54.9	-85.1	149	7
2023-08-17T12:00	20798	52	-54.7	-84.9	151	7
2023-08-17T12:00	20820	52	-54.5	-84.8	153	7
2023-08-17T12:00	20843	52	-54.3	-84.6	157	7
2023-08-17T12:00	20871	52	-54.3	-84.6	161	7
2023-08-17T12:00	20895	52	-54.3	-84.6	165	7
2023-08-17T12:00	20924	51	-54.5	-84.3	168	7
2023-08-17T12:00	20946	51	-54.7	-84.4	170	7
2023-08-17T12:00	20976	51	-54.7	-84.4	171	6
2023-08-17T12:00	21001	51	-54.8	-84.5	172	6
2023-08-17T12:00	21026	51	-54.8	-84.5	172	5
2023-08-17T12:00	21049	50	-54.8	-84.5	170	4
2023-08-17T12:00	21074	50	-54.8	-84.5	166	4
2023-08-17T12:00	21105	50	-54.8	-84.5	161	3
2023-08-17T12:00	21127	50	-54.7	-84.4	153	3
2023-08-17T12:00	21154	50	-54.7	-84.4	144	3
2023-08-17T12:00	21180	49	-54.8	-84.5	132	2
2023-08-17T12:00	21202	49	-54.9	-84.6	118	2
2023-08-17T12:00	21233	49	-55.0	-84.6	103	2
2023-08-17T12:00	21253	49	-54.9	-84.6	91	2
2023-08-17T12:00	21283	49	-55.0	-84.6	83	2
2023-08-17T12:00	21306	48	-55.1	-84.2	79	2
2023-08-17T12:00	21330	48	-55.3	-84.4	79	3
2023-08-17T12:00	21353	48	-55.4	-84.5	83	3
2023-08-17T12:00	21382	48	-55.4	-84.9	88	4
2023-08-17T12:00	21408	48	-55.3	-84.9	95	4
2023-08-17T12:00	21426	47	-55.3	-84.9	100	5
2023-08-17T12:00	21456	47	-55.3	-84.9	105	5
2023-08-17T12:00	21476	47	-55.2	-84.8	109	5
2023-08-17T12:00	21501	47	-55.2	-84.8	112	5
2023-08-17T12:00	21527	47	-55.3	-84.9	115	6
2023-08-17T12:00	21553	47	-55.4	-84.9	118	6
2023-08-17T12:00	21577	46	-55.5	-84.5	121	6
2023-08-17T12:00	21602	46	-55.6	-84.6	123	5
2023-08-17T12:00	21622	46	-55.8	-84.8	126	5
2023-08-17T12:00	21646	46	-56.1	-85.0	127	5
2023-08-17T12:00	21670	46	-56.2	-85.1	128	4
2023-08-17T12:00	21696	46	-56.1	-85.0	129	4
2023-08-17T12:00	21724	45	-56.0	-84.9	131	4
2023-08-17T12:00	21750	45	-55.9	-85.3	134	4
2023-08-17T12:00	21773	45	-55.8	-85.2	137	4
2023-08-17T12:00	21799	45	-55.7	-85.2	140	4
2023-08-17T12:00	21821	45	-55.8	-85.2	142	5
2023-08-17T12:00	21843	44	-55.7	-85.2	143	5
2023-08-17T12:00	21871	44	-55.7	-85.2	144	5
2023-08-17T12:00	21895	44	-55.7	-85.2	143	5
2023-08-17T12:00	21919	44	-55.6	-85.1	141	5
2023-08-17T12:00	21944	44	-55.5	-85.0	138	5
2023-08-17T12:00	21970	44	-55.4	-84.9	133	5
2023-08-17T12:00	21995	43	-55.2	-85.3	128	6
2023-08-17T12:00	22016	43	-54.8	-85.0	124	6
2023-08-17T12:00	22042	43	-54.7	-84.9	119	6
2023-08-17T12:00	22068	43	-54.7	-84.9	115	6
2023-08-17T12:00	22095	43	-54.6	-84.8	110	6
2023-08-17T12:00	22122	43	-54.6	-84.8	104	6
2023-08-17T12:00	22149	42	-54.7	-84.4	100	6
2023-08-17T12:00	22176	42	-54.9	-84.6	99	6
2023-08-17T12:00	22199	42	-55.0	-84.6	101	6
2023-08-17T12:00	22228	42	-55.2	-84.8	106	6
2023-08-17T12:00	22254	42	-55.3	-84.9	112	7
2023-08-17T12:00	22284	42	-55.2	-84.8	119	7
2023-08-17T12:00	22306	41	-55.4	-84.9	125	7
2023-08-17T12:00	22337	41	-55.5	-84.5	130	7
2023-08-17T12:00	22366	41	-55.7	-84.7	134	7
2023-08-17T12:00	22387	41	-55.9	-84.8	137	7
2023-08-17T12:00	22415	41	-56.0	-84.9	137	7
2023-08-17T12:00	22445	40	-55.9	-85.3	137	6
2023-08-17T12:00	22470	40	-55.7	-85.2	134	6
2023-08-17T12:00	22499	40	-55.6	-85.1	130	5
2023-08-17T12:00	22524	40	-55.6	-85.1	122	5
2023-08-17T12:00	22552	40	-55.5	-85.0	112	4
2023-08-17T12:00	22574	40	-55.5	-85.5	100	5
2023-08-17T12:00	22605	39	-55.5	-85.5	90	5
2023-08-17T12:00	22634	39	-55.3	-85.4	84	6
2023-08-17T12:00	22662	39	-55.0	-85.1	82	7
2023-08-17T12:00	22690	39	-54.8	-85.0	82	7
2023-08-17T12:00	22717	39	-54.7	-84.9	85	8
2023-08-17T12:00	22746	39	-54.5	-84.8	89	8
2023-08-17T12:00	22773	38	-54.5	-84.8	92	9
2023-08-17T12:00	22799	38	-54.3	-84.6	95	9
2023-08-17T12:00	22828	38	-54.3	-84.6	97	9
2023-08-17T12:00	22853	38	-54.4	-84.7	99	8
2023-08-17T12:00	22879	38	-54.5	-84.8	102	8
2023-08-17T12:00	22904	38	-54.5	-84.8	105	8
2023-08-17T12:00	22926	38	-54.7	-84.4	107	8
2023-08-17T12:00	22957	37	-54.7	-84.4	109	7
2023-08-17T12:00	22982	37	-54.8	-84.5	110	7
2023-08-17T12:00	23011	37	-54.8	-84.5	112	7
2023-08-17T12:00	23035	37	-54.7	-84.4	114	6
2023-08-17T12:00	23064	37	-54.7	-84.9	117	5
2023-08-17T12:00	23085	37	-54.8	-85.0	121	5
2023-08-17T12:00	23114	36	-54.8	-85.0	125	4
2023-08-17T12:00	23139	36	-54.8	-85.0	128	4
2023-08-17T12:00	23161	36	-54.8	-85.0	128	4
2023-08-17T12:00	23184	36	-54.8	-85.0	124	4
2023-08-17T12:00	23216	36	-54.6	-84.8	116	4
2023-08-17T12:00	23232	36	-54.5	-84.8	107	4
2023-08-17T12:00	23261	36	-54.4	-84.7	98	4
2023-08-17T12:00	23282	36	-54.5	-84.8	90	5
2023-08-17T12:00	23310	35	-54.4	-84.7	85	5
2023-08-17T12:00	23331	35	-54.3	-84.6	81	6
2023-08-17T12:00	23352	35	-54.3	-84.6	80	6
2023-08-17T12:00	23379	35	-54.3	-84.6	80	7
2023-08-17T12:00	23406	35	-54.2	-84.5	83	7
2023-08-17T12:00	23434	35	-54.1	-84.5	86	8
2023-08-17T12:00	23459	35	-53.9	-84.3	90	9
2023-08-17T12:00	23482	34	-53.7	-84.7	92	9
2023-08-17T12:00	23509	34	-53.6	-84.6	94	10
2023-08-17T12:00	23533	34	-53.6	-84.6	96	11
2023-08-17T12:00	23563	34	-53.6	-84.6	97	11
2023-08-17T12:00	23585	34	-53.6	-84.6	98	11
2023-08-17T12:00	23615	34	-53.6	-84.6	98	11
2023-08-17T12:00	23642	34	-53.6	-84.6	99	11
2023-08-17T12:00	23673	33	-53.5	-84.6	100	11
2023-08-17T12:00	23695	33	-53.5	-84.6	101	11
2023-08-17T12:00	23723	33	-53.5	-84.6	103	11
2023-08-17T12:00	23750	33	-53.4	-84.5	105	11
2023-08-17T12:00	23778	33	-53.2	-84.4	107	11
2023-08-17T12:00	23801	33	-53.2	-84.4	108	11
2023-08-17T12:00	23835	33	-53.3	-83.9	109	11
2023-08-17T12:00	23858	32	-53.5	-84.0	109	11
2023-08-17T12:00	23887	32	-53.6	-84.1	109	11
2023-08-17T12:00	23919	32	-53.6	-84.1	109	11
2023-08-17T12:00	23946	32	-53.7	-84.2	109	12
2023-08-17T12:00	23974	32	-53.7	-84.2	111	12
2023-08-17T12:00	24007	32	-53.8	-84.2	113	12
2023-08-17T12:00	24035	32	-53.8	-84.2	115	12
2023-08-17T12:00	24062	31	-53.7	-84.2	118	12
2023-08-17T12:00	24095	31	-53.6	-84.1	120	12
2023-08-17T12:00	24124	31	-53.6	-84.1	123	12
2023-08-17T12:00	24150	31	-53.7	-84.2	125	12
2023-08-17T12:00	24178	31	-53.8	-84.2	127	12
2023-08-17T12:00	24210	31	-54.0	-84.4	129	11
2023-08-17T12:00	24241	31	-54.2	-84.5	130	11
2023-08-17T12:00	24266	30	-54.3	-84.6	131	11
2023-08-17T12:00	24302	30	-54.3	-84.6	132	10
2023-08-17T12:00	24326	30	-54.3	-84.6	131	9
2023-08-17T12:00	24354	30	-54.3	-84.6	130	8
2023-08-17T12:00	24380	30	-54.3	-84.6	129	8
2023-08-17T12:00	24405	30	-54.4	-84.7	128	8
2023-08-17T12:00	24435	30	-54.4	-84.7	126	8
2023-08-17T12:00	24469	30	-54.4	-84.7	125	8
2023-08-17T12:00	24494	29	-54.5	-84.8	124	8
2023-08-17T12:00	24526	29	-54.4	-84.7	123	9
2023-08-17T12:00	24552	29	-54.5	-84.8	121	9
2023-08-17T12:00	24584	29	-54.4	-84.7	120	9
2023-08-17T12:00	24607	29	-54.4	-84.7	118	9
2023-08-17T12:00	24637	29	-54.4	-84.7	115	9
2023-08-17T12:00	24661	29	-54.2	-85.1	113	8
2023-08-17T12:00	24690	29	-54.1	-85.0	111	8
2023-08-17T12:00	24713	28	-54.1	-85.0	109	8
2023-08-17T12:00	24747	28	-54.0	-84.9	106	8
2023-08-17T12:00	24767	28	-53.8	-84.8	104	7
2023-08-17T12:00	24797	28	-53.8	-84.8	101	7
2023-08-17T12:00	24826	28	-53.8	-84.8	99	7
2023-08-17T12:00	24849	28	-53.8	-84.8	96	6
2023-08-17T12:00	24874	28	-53.8	-84.8	92	6
2023-08-17T12:00	24906	28	-53.8	-84.8	88	6
2023-08-17T12:00	24928	28	-53.7	-84.7	84	7
2023-08-17T12:00	24952	27	-53.5	-84.6	81	7
2023-08-17T12:00	24982	27	-53.3	-84.4	79	8
2023-08-17T12:00	25007	27	-53.2	-84.4	78	9
2023-08-17T12:00	25030	27	-53.0	-84.2	79	9
2023-08-17T12:00	25068	27	-52.8	-84.7	81	9
2023-08-17T12:00	25085	27	-52.7	-84.6	84	10
2023-08-17T12:00	25115	27	-52.5	-84.4	87	10
2023-08-17T12:00	25136	27	-52.6	-83.9	91	10
2023-08-17T12:00	25163	27	-52.6	-83.9	94	11
2023-08-17T12:00	25194	26	-52.7	-84.0	97	11
2023-08-17T12:00	25222	26	-52.8	-84.1	99	11
2023-08-17T12:00	25243	26	-52.8	-84.1	102	11
2023-08-17T12:00	25275	26	-52.9	-84.1	105	11
2023-08-17T12:00	25307	26	-53.0	-84.2	107	10
2023-08-17T12:00	25339	26	-53.0	-84.2	110	9
2023-08-17T12:00	25362	26	-53.1	-84.3	112	8
2023-08-17T12:00	25396	26	-53.1	-84.3	113	7
2023-08-17T12:00	25415	25	-53.1	-84.3	113	7
2023-08-17T12:00	25447	25	-53.1	-84.3	112	6
2023-08-17T12:00	25477	25	-53.0	-84.2	111	5
2023-08-17T12:00	25504	25	-52.7	-84.6	111	5
2023-08-17T12:00	25530	25	-52.5	-84.4	113	4
2023-08-17T12:00	25558	25	-52.4	-84.4	116	3
2023-08-17T12:00	25596	25	-52.3	-84.3	119	2
2023-08-17T12:00	25620	25	-52.2	-84.2	119	1
2023-08-17T12:00	25645	25	-52.2	-84.2	106	1
2023-08-17T12:00	25673	24	-52.1	-84.2	78	1
2023-08-17T12:00	25705	24	-52.0	-84.1	65	2
2023-08-17T12:00	25727	24	-51.9	-84.0	62	2
2023-08-17T12:00	25753	24	-51.8	-83.9	62	3
2023-08-17T12:00	25795	24	-51.8	-83.9	62	4
2023-08-17T12:00	25811	24	-51.8	-83.9	62	5
2023-08-17T12:00	25842	24	-51.7	-83.9	62	6
2023-08-17T12:00	25878	24	-51.6	-83.8	63	7
2023-08-17T12:00	25902	24	-51.5	-83.7	65	8
2023-08-17T12:00	25928	24	-51.4	-83.6	68	9
2023-08-17T12:00	25956	23	-51.4	-83.6	72	10
2023-08-17T12:00	25978	23	-51.4	-83.6	75	10
2023-08-17T12:00	26015	23	-51.3	-83.6	78	10
2023-08-17T12:00	26040	23	-51.4	-83.6	81	10
2023-08-17T12:00	26063	23	-51.4	-83.6	83	10
2023-08-17T12:00	26099	23	-51.3	-83.6	84	10
2023-08-17T12:00	26127	23	-51.3	-83.6	84	10
2023-08-17T12:00	26152	23	-51.2	-83.5	83	10
2023-08-17T12:00	26183	23	-51.2	-83.5	82	9
2023-08-17T12:00	26210	23	-51.2	-83.5	81	9
2023-08-17T12:00	26229	22	-51.1	-83.4	81	9
2023-08-17T12:00	26257	22	-51.1	-83.4	82	9
2023-08-17T12:00	26282	22	-51.1	-83.4	82	9
2023-08-17T12:00	26306	22	-51.0	-83.3	82	9
2023-08-17T12:00	26338	22	-50.9	-83.3	83	10
2023-08-17T12:00	26364	22	-50.8	-83.2	83	10
2023-08-17T12:00	26398	22	-50.7	-83.8	85	9
2023-08-17T12:00	26419	22	-50.7	-83.8	88	9
2023-08-17T12:00	26449	22	-50.6	-83.7	91	8
2023-08-17T12:00	26471	22	-50.5	-83.7	95	8
2023-08-17T12:00	26502	22	-50.4	-83.6	98	7
2023-08-17T12:00	26524	21	-50.2	-83.5	98	7
2023-08-17T12:00	26550	21	-50.1	-83.4	96	6
2023-08-17T12:00	26575	21	-49.9	-83.2	93	6
2023-08-17T12:00	26604	21	-49.7	-83.1	89	6
2023-08-17T12:00	26637	21	-49.5	-83.7	85	7
2023-08-17T12:00	26654	21	-49.2	-83.5	82	7
2023-08-17T12:00	26680	21	-48.8	-83.2	79	7
2023-08-17T12:00	26713	21	-48.4	-82.9	78	8
2023-08-17T12:00	26742	21	-48.2	-82.8	78	8
2023-08-17T12:00	26774	21	-48.0	-82.7	78	9
2023-08-17T12:00	26794	21	-48.0	-82.7	79	10
2023-08-17T12:00	26822	21	-48.0	-82.7	80	11
2023-08-17T12:00	26856	20	-48.0	-82.7	81	11
2023-08-17T12:00	26879	20	-48.0	-82.7	83	12
2023-08-17T12:00	26910	20	-47.9	-82.6	84	12
2023-08-17T12:00	26932	20	-47.8	-82.5	86	13
2023-08-17T12:00	26968	20	-47.8	-82.5	88	13
2023-08-17T12:00	26994	20	-47.9	-81.8	90	13
2023-08-17T12:00	27021	20	-48.1	-81.9	93	13
2023-08-17T12:00	27049	20	-48.1	-81.9	97	13
2023-08-17T12:00	27082	20	-48.1	-81.9	101	12
2023-08-17T12:00	27114	20	-48.1	-81.9	106	12
2023-08-17T12:00	27143	20	-48.1	-81.9	110	12
2023-08-17T12:00	27173	19	-48.2	-82.0	113	12
2023-08-17T12:00	27199	19	-48.3	-82.1	117	12
2023-08-17T12:00	27232	19	-48.5	-82.2	119	11
2023-08-17T12:00	27261	19	-48.6	-82.3	121	11
2023-08-17T12:00	27287	19	-48.6	-82.3	122	10
2023-08-17T12:00	27331	19	-48.5	-82.2	122	9
2023-08-17T12:00	27356	19	-48.5	-82.2	121	9
2023-08-17T12:00	27389	19	-48.5	-82.2	120	9
2023-08-17T12:00	27419	19	-48.6	-82.3	119	9
2023-08-17T12:00	27445	19	-48.6	-82.3	118	9
2023-08-17T12:00	27484	19	-48.6	-82.3	119	9
2023-08-17T12:00	27509	19	-48.5	-82.2	120	9
2023-08-17T12:00	27537	18	-48.5	-82.2	121	9
2023-08-17T12:00	27572	18	-48.5	-83.0	123	9
2023-08-17T12:00	27602	18	-48.4	-82.9	125	9
2023-08-17T12:00	27639	18	-48.3	-82.9	127	9
2023-08-17T12:00	27669	18	-48.2	-82.8	129	8
2023-08-17T12:00	27691	18	-48.2	-82.8	132	7
2023-08-17T12:00	27729	18	-48.3	-82.9	133	7
2023-08-17T12:00	27750	18	-48.3	-82.9	135	7
2023-08-17T12:00	27778	18	-48.2	-82.8	137	7
2023-08-17T12:00	27814	18	-48.1	-82.7	139	7
2023-08-17T12:00	27845	18	-47.9	-82.6	141	8
2023-08-17T12:00	27864	18	-47.7	-82.4	143	8
2023-08-17T12:00	27903	17	-47.6	-82.4	144	9
2023-08-17T12:00	27916	17	-47.5	-82.3	145	9
2023-08-17T12:00	27944	17	-47.5	-82.3	146	9
2023-08-17T12:00	27979	17	-47.5	-82.3	146	9
2023-08-17T12:00	28006	17	-47.5	-82.3	147	8
2023-08-17T12:00	28039	17	-47.4	-82.2	147	8
2023-08-17T12:00	28053	17	-47.3	-82.2	147	7
2023-08-17T12:00	28082	17	-47.1	-82.0	146	7
2023-08-17T12:00	28117	17	-46.9	-81.9	144	6
2023-08-17T12:00	28141	17	-46.7	-82.6	141	6
2023-08-17T12:00	28167	17	-46.5	-82.5	135	6
2023-08-17T12:00	28192	17	-46.4	-82.4	129	6
2023-08-17T12:00	28222	17	-46.3	-82.4	122	6
2023-08-17T12:00	28248	17	-46.2	-82.3	118	6
2023-08-17T12:00	28271	16	-46.2	-82.3	116	6
2023-08-17T12:00	28299	16	-46.2	-82.3	117	6
2023-08-17T12:00	28337	16	-46.1	-82.2	119	6
2023-08-17T12:00	28356	16	-46.0	-82.1	122	5
2023-08-17T12:00	28378	16	-45.9	-82.1	124	5
2023-08-17T12:00	28412	16	-45.9	-82.1	123	5
2023-08-17T12:00	28446	16	-45.9	-82.1	120	5
2023-08-17T12:00	28465	16	-45.8	-82.0	115	5
2023-08-17T12:00	28497	16	-45.8	-82.0	111	6
2023-08-17T12:00	28532	16	-45.8	-82.0	109	6
2023-08-17T12:00	28545	16	-45.7	-81.9	108	7
2023-08-17T12:00	28581	16	-45.6	-81.9	108	7
2023-08-17T12:00	28605	16	-45.4	-81.7	108	7
2023-08-17T12:00	28629	16	-45.3	-81.6	109	7
2023-08-17T12:00	28662	16	-45.2	-81.6	108	7
2023-08-17T12:00	28691	15	-45.2	-81.6	107	6
2023-08-17T12:00	28731	15	-45.1	-81.5	103	5
2023-08-17T12:00	28762	15	-45.2	-81.6	98	5
2023-08-17T12:00	28781	15	-45.2	-81.6	93	5
2023-08-17T12:00	28820	15	-45.2	-81.6	91	5
2023-08-17T12:00	28851	15	-45.3	-81.6	93	6
2023-08-17T12:00	28887	15	-45.3	-81.6	96	6
2023-08-17T12:00	28912	15	-45.2	-81.6	101	7
2023-08-17T12:00	28949	15	-45.2	-81.6	107	8
2023-08-17T12:00	28968	15	-45.3	-81.6	113	9
2023-08-17T12:00	29001	15	-45.3	-81.6	118	9
2023-08-17T12:00	29021	15	-45.3	-81.6	124	10
2023-08-17T12:00	29059	15	-45.1	-81.5	129	10
2023-08-17T12:00	29105	15	-44.8	-81.3	134	10
2023-08-17T12:00	29130	15	-44.6	-81.2	138	9
2023-08-17T12:00	29149	14	-44.4	-81.0	141	8
2023-08-17T12:00	29185	14	-44.1	-80.8	143	8
2023-08-17T12:00	29219	14	-44.1	-80.8	144	7
2023-08-17T12:00	29250	14	-44.2	-80.9	143	7
2023-08-17T12:00	29273	14	-44.3	-80.9	141	7
2023-08-17T12:00	29313	14	-44.3	-80.9	139	7
2023-08-17T12:00	29330	14	-44.2	-80.9	138	7
2023-08-17T12:00	29372	14	-43.9	-81.8	138	7
2023-08-17T12:00	29405	14	-43.6	-81.5	138	7
2023-08-17T12:00	29424	14	-43.4	-81.4	138	7
2023-08-17T12:00	29446	14	-43.2	-81.3	137	7
2023-08-17T12:00	29478	14	-42.9	-81.1	134	6
2023-08-17T12:00	29512	14	-42.6	-80.8	129	6
2023-08-17T12:00	29546	14	-42.5	-80.8	123	6
2023-08-17T12:00	29572	14	-42.5	-80.8	118	6
2023-08-17T12:00	29602	14	-42.5	-80.8	114	7
2023-08-17T12:00	29628	13	-42.5	-80.8	112	7
2023-08-17T12:00	29669	13	-42.6	-80.8	113	8
2023-08-17T12:00	29693	13	-42.6	-80.8	114	8
2023-08-17T12:00	29731	13	-42.6	-80.8	118	8
2023-08-17T12:00	29750	13	-42.5	-80.8	122	8
2023-08-17T12:00	29785	13	-42.5	-80.8	127	9
2023-08-17T12:00	29809	13	-42.4	-80.7	131	8
2023-08-17T12:00	29837	13	-42.3	-80.6	136	8
2023-08-17T12:00	29874	13	-42.1	-80.5	139	7
2023-08-17T12:00	29888	13	-41.9	-80.4	142	6
2023-08-17T12:00	29914	13	-41.7	-80.2	144	6
2023-08-17T12:00	29956	13	-41.6	-80.1	142	5
2023-08-17T12:00	29980	13	-41.6	-80.1	137	4
2023-08-17T12:00	30015	13	-41.6	-80.1	132	4
2023-08-17T12:00	30035	13	-41.7	-80.2	129	5
2023-08-17T12:00	30063	13	-41.7	-80.2	130	5
2023-08-17T12:00	30108	13	-41.6	-80.1	134	6
2023-08-17T12:00	30137	13	-41.5	-80.1	139	7
2023-08-17T12:00	30154	12	-41.5	-80.1	144	7
2023-08-17T12:00	30195	12	-41.5	-80.1	149	8
2023-08-17T12:00	30212	12	-41.5	-80.1	154	8
2023-08-17T12:00	30239	12	-41.3	-79.9	158	9
2023-08-17T12:00	30269	12	-41.2	-79.9	162	9
2023-08-17T12:00	30298	12	-41.0	-79.7	166	9
2023-08-17T12:00	30336	12	-41.0	-79.7	170	9
2023-08-17T12:00	30366	12	-40.9	-79.7	175	8
2023-08-17T12:00	30406	12	-40.8	-79.6	179	7
2023-08-17T12:00	30433	12	-40.7	-79.5	184	6
2023-08-17T12:00	30458	12	-40.5	-79.4	189	5
2023-08-17T12:00	30481	12	-40.4	-79.3	194	5
2023-08-17T12:00	30504	12	-40.3	-79.2	200	4
2023-08-17T12:00	30539	12	-40.3	-79.2	207	3
2023-08-17T12:00	30578	12	-40.3	-79.2	216	3
2023-08-17T12:00	30605	12	-40.4	-79.3	227	3
2023-08-17T12:00	30647	12	-40.6	-79.5	237	3
2023-08-17T12:00	30677	12	-40.7	-79.5	247	3
2023-08-17T12:00	30718	12	-40.9	-79.7	257	2
2023-08-17T12:00	30732	11	-41.0	-79.7	268	2
2023-08-17T12:00	30763	11	-41.0	-79.7	290	1
2023-08-17T12:00	30796	11	-41.1	-79.8	344	1
2023-08-17T12:00	30823	11	-41.1	-79.8	34	1
2023-08-17T12:00	30849	11	-41.1	-79.8	52	2
2023-08-17T12:00	30886	11	-41.1	-79.8	63	2
2023-08-17T12:00	30916	11	-41.1	-79.8	71	2
2023-08-17T12:00	30954	11	-41.2	-79.9	78	3
2023-08-17T12:00	30972	11	-41.2	-79.9	83	3
2023-08-17T12:00	30996	11	-41.3	-79.9	85	3
2023-08-17T12:00	31040	11	-41.3	-79.9	83	3
2023-08-17T12:00	31080	11	-41.2	-79.9	77	3
2023-08-17T12:00	31113	11	-41.2	-79.9	70	3
2023-08-17T12:00	31129	11	-41.2	-79.9	63	4
2023-08-17T12:00	31151	11	-41.1	-79.8	59	4
2023-08-17T12:00	31178	11	-41.1	-79.8	57	4
2023-08-17T12:00	31225	11	-41.1	-79.8	57	5
2023-08-17T12:00	31258	11	-41.1	-79.8	58	5
2023-08-17T12:00	31277	11	-41.2	-79.9	60	5
2023-08-17T12:00	31301	11	-41.3	-79.9	62	6
2023-08-17T12:00	31339	10	-41.4	-80.0	65	6
2023-08-17T12:00	31383	10	-41.5	-80.1	67	6
2023-08-17T12:00	31410	10	-41.5	-80.1	70	7
2023-08-17T12:00	31437	10	-41.5	-80.1	73	7
2023-08-17T12:00	31458	10	-41.6	-80.1	76	8
2023-08-17T12:00	31513	10	-41.6	-80.1	80	9
2023-08-17T12:00	31532	10	-41.8	-80.3	83	9
2023-08-17T12:00	31555	10	-41.9	-80.4	87	9
2023-08-17T12:00	31591	10	-41.9	-80.4	92	9
2023-08-17T12:00	31634	10	-41.8	-80.3	97	9
2023-08-17T12:00	31688	10	-41.2	-79.9	107	8
2023-08-17T12:00	31707	10	-41.2	-79.9	114	8
2023-08-17T12:00	31743	10	-41.3	-79.9	120	8
2023-08-17T12:00	31771	10	-41.3	-79.9	127	8
2023-08-17T12:00	31803	10	-41.3	-79.9	134	8
2023-08-17T12:00	31838	10	-41.4	-80.0	140	8
2023-08-17T12:00	31860	10	-41.4	-80.0	145	8
2023-08-17T12:00	31897	10	-41.4	-80.0	148	7
2023-08-17T12:00	31923	10	-41.2	-79.9	150	7
2023-08-17T12:00	31950	10	-40.9	-79.7	151	6
2023-08-17T12:00	32005	10	-40.7	-79.5	148	5
2023-08-17T12:00	32014	9	-40.4	-79.3	140	4
2023-08-17T12:00	32059	9	-40.1	-79.1	122	3
2023-08-17T12:00	32093	9	-40.0	-79.0	92	3
2023-08-17T12:00	32113	9	-39.9	-79.0	69	3
2023-08-17T12:00	32147	9	-39.7	-78.8	58	4
2023-08-17T12:00	32179	9	-39.6	-78.8	54	6
2023-08-17T12:00	32203	9	-39.4	-78.6	52	7
2023-08-17T12:00	32236	9	-39.3	-78.5	52	8
2023-08-17T12:00	32263	9	-39.3	-78.5	52	8
2023-08-17T12:00	32308	9	-39.3	-78.5	53	9
2023-08-17T12:00	32338	9	-39.3	-78.5	55	10
2023-08-17T12:00	32349	9	-39.3	-78.5	58	10
2023-08-17T12:00	32384	9	-39.3	-78.5	61	11
2023-08-17T12:00	32415	9	-39.4	-78.6	65	11
2023-08-17T12:00	32476	9	-39.3	-78.5	75	12
2023-08-17T12:00	32513	9	-39.4	-78.6	80	12
2023-08-17T12:00	32538	9	-39.5	-78.7	86	12
2023-08-17T12:00	32558	9	-39.7	-78.8	92	12
2023-08-17T12:00	32573	9	-39.8	-78.9	97	12
2023-08-17T12:00	32595	9	-39.8	-78.9	101	12
2023-08-17T12:00	32638	9	-39.7	-78.8	105	12
2023-08-17T12:00	32677	9	-39.7	-78.8	109	11
2023-08-17T12:00	32682	9	-39.6	-78.8	114	11
2023-08-17T12:00	32708	9	-39.6	-78.8	118	10
2023-08-17T12:00	32741	9	-39.5	-78.7	124	9
2023-08-17T12:00	32780	9	-39.5	-78.7	129	9
2023-08-17T12:00	32796	8	-39.5	-78.7	133	9
2023-08-17T12:00	32825	8	-39.6	-78.8	135	8
2023-08-17T12:00	32869	8	-39.5	-78.7	137	8
2023-08-17T12:00	32872	8	-39.4	-78.6	139	7
2023-08-17T12:00	32892	8	-39.3	-78.5	141	7
2023-08-17T12:00	32938	8	-39.1	-78.4	143	7
2023-08-17T12:00	32959	8	-39.0	-78.3	144	7
2023-08-17T12:00	32967	8	-38.8	-78.2	144	8
2023-08-17T12:00	33007	8	-38.6	-78.1	142	8
2023-08-17T12:00	33037	8	-38.5	-78.0	139	8
2023-08-17T12:00	33053	8	-38.3	-77.9	135	8
2023-08-17T12:00	33085	8	-38.2	-77.8	132	7
2023-08-17T12:00	33091	8	-38.0	-77.6	132	7
2023-08-17T12:00	33152	8	-37.9	-77.6	135	7
2023-08-17T12:00	33156	8	-37.7	-77.4	139	8
2023-08-17T12:00	33182	8	-37.5	-77.3	144	8
2023-08-17T12:00	33232	8	-37.5	-77.3	148	8
2023-08-17T12:00	33263	8	-37.5	-77.3	151	8
2023-08-17T12:00	33306	8	-37.4	-77.2	152	7
2023-08-17T12:00	33323	8	-37.3	-77.2	150	7
2023-08-17T12:00	33365	8	-37.2	-77.1	148	7
2023-08-17T12:00	33388	8	-37.0	-77.0	145	7
2023-08-17T12:00	33426	8	-36.9	-76.9	144	7
2023-08-17T12:00	33442	8	-36.7	-76.7	145	6
2023-08-17T12:00	33466	8	-36.6	-76.7	148	6
2023-08-17T12:00	33501	8	-36.5	-76.6	151	6
2023-08-17T12:00	33537	8	-36.5	-76.6	155	5
2023-08-17T12:00	33571	8	-36.5	-76.6	157	5
2023-08-17T12:00	33618	8	-36.4	-76.5	156	5
2023-08-17T12:00	33633	8	-36.1	-76.3	152	5
2023-08-17T12:00	33679	7	-35.8	-76.1	147	5
2023-08-17T12:00	33722	7	-35.7	-76.1	142	5
2023-08-17T12:00	33739	7	-35.7	-76.1	137	5
2023-08-17T12:00	33785	7	-35.8	-76.1	134	5
2023-08-17T12:00	33821	7	-35.7	-76.1	133	5
2023-08-17T12:00	33889	7	-35.6	-76.0	137	4
2023-08-17T12:00	33920	7	-35.6	-76.0	142	3
2023-08-17T12:00	33966	7	-35.7	-76.1	149	3
2023-08-17T12:00	33974	7	-35.7	-76.1	154	2
2023-08-17T12:00	34007	7	-35.6	-76.0	151	2
2023-08-17T12:00	34031	7	-35.5	-75.9	131	1
2023-08-17T12:00	34085	7	-35.5	-75.9	105	2
2023-08-17T12:00	34098	7	-35.4	-75.8	95	3
2023-08-17T12:00	34136	7	-35.3	-75.8	93	4
2023-08-17T12:00	34169	7	-35.2	-75.7	95	5
2023-08-17T12:00	34192	7	-35.2	-75.7	98	5
2023-08-17T12:00	34219	7	-35.3	-75.8	102	6
2023-08-17T18:00	114	1005	25.3	18.7	107	2
2023-08-17T18:00	138	1002	25.4	18.0	112	3
2023-08-17T18:00	160	1000	25.2	17.8	109	4
2023-08-17T18:00	182	997	25.1	17.5	104	4
2023-08-17T18:00	203	995	25.0	17.6	99	4
2023-08-17T18:00	224	992	24.8	17.5	94	5
2023-08-17T18:00	242	990	24.6	17.4	91	5
2023-08-17T18:00	264	988	24.4	17.5	90	4
2023-08-17T18:00	287	985	24.2	17.5	90	4
2023-08-17T18:00	308	983	24.0	17.3	89	4
2023-08-17T18:00	322	981	23.9	17.4	87	4
2023-08-17T18:00	344	979	23.7	17.5	84	5
2023-08-17T18:00	368	976	23.4	17.2	82	5
2023-08-17T18:00	383	974	23.3	17.3	82	5
2023-08-17T18:00	406	972	23.1	17.3	84	5
2023-08-17T18:00	424	970	22.9	17.2	89	5
2023-08-17T18:00	447	967	22.7	17.3	93	5
2023-08-17T18:00	466	965	22.5	17.1	97	5
2023-08-17T18:00	486	963	22.3	17.2	99	5
2023-08-17T18:00	505	961	22.1	17.1	100	5
2023-08-17T18:00	524	959	22.0	17.1	102	5
2023-08-17T18:00	547	956	21.7	17.0	104	5
2023-08-17T18:00	567	954	21.5	17.0	106	5
2023-08-17T18:00	581	952	21.4	17.0	108	5
2023-08-17T18:00	603	950	21.2	16.9	108	5
2023-08-17T18:00	619	948	21.1	17.0	107	5
2023-08-17T18:00	641	946	20.8	16.9	105	5
2023-08-17T18:00	664	944	20.6	16.8	105	5
2023-08-17T18:00	683	941	20.5	16.9	105	4
2023-08-17T18:00	701	939	20.3	16.9	106	4
2023-08-17T18:00	720	937	20.1	16.8	108	4
2023-08-17T18:00	738	935	19.9	16.7	110	3
2023-08-17T18:00	762	933	19.7	16.7	113	4
2023-08-17T18:00	782	931	19.5	16.7	116	4
2023-08-17T18:00	802	929	19.3	16.6	119	4
2023-08-17T18:00	825	926	19.1	16.5	121	5
2023-08-17T18:00	844	924	19.0	16.7	123	5
2023-08-17T18:00	872	921	18.7	16.5	124	5
2023-08-17T18:00	896	919	18.5	16.6	124	6
2023-08-17T18:00	916	916	18.3	16.5	125	6
2023-08-17T18:00	938	914	18.2	16.6	127	6
2023-08-17T18:00	968	911	17.9	16.5	128	6
2023-08-17T18:00	989	909	17.8	16.5	131	6
2023-08-17T18:00	1008	907	17.6	16.5	133	6
2023-08-17T18:00	1032	904	17.5	16.6	137	6
2023-08-17T18:00	1054	902	17.4	16.4	141	6
2023-08-17T18:00	1080	899	17.2	16.4	146	6
2023-08-17T18:00	1099	897	17.1	16.3	150	7
2023-08-17T18:00	1119	895	17.0	16.4	153	7
2023-08-17T18:00	1135	893	16.9	16.4	154	7
2023-08-17T18:00	1155	891	16.8	16.5	155	7
2023-08-17T18:00	1178	889	16.6	16.4	156	7
2023-08-17T18:00	1197	887	16.5	16.3	159	7
2023-08-17T18:00	1215	885	16.3	16.3	163	7
2023-08-17T18:00	1235	883	16.1	16.1	166	7
2023-08-17T18:00	1251	881	16.0	16.0	170	7
2023-08-17T18:00	1269	879	15.9	15.9	172	7
2023-08-17T18:00	1287	877	16.0	15.7	173	7
2023-08-17T18:00	1305	876	16.0	15.6	174	7
2023-08-17T18:00	1324	874	15.9	15.4	176	7
2023-08-17T18:00	1344	872	15.7	15.6	177	6
2023-08-17T18:00	1362	870	15.6	15.3	179	6
2023-08-17T18:00	1373	868	15.6	15.0	180	6
2023-08-17T18:00	1394	867	15.5	14.7	180	6
2023-08-17T18:00	1412	865	15.5	14.2	180	6
2023-08-17T18:00	1428	863	15.4	14.0	182	6
2023-08-17T18:00	1447	861	15.3	13.8	185	5
2023-08-17T18:00	1470	859	15.4	13.5	190	4
2023-08-17T18:00	1490	857	15.5	13.1	195	4
2023-08-17T18:00	1504	855	15.7	12.4	198	3
2023-08-17T18:00	1523	854	15.7	12.4	197	3
2023-08-17T18:00	1542	852	15.7	12.1	195	3
2023-08-17T18:00	1558	850	15.7	11.8	195	4
2023-08-17T18:00	1576	848	15.7	11.8	196	4
2023-08-17T18:00	1599	846	15.5	11.5	200	4
2023-08-17T18:00	1620	844	15.4	10.9	204	4
2023-08-17T18:00	1642	842	15.3	10.7	206	4
2023-08-17T18:00	1663	840	15.1	10.1	207	4
2023-08-17T18:00	1681	838	15.0	10.1	206	5
2023-08-17T18:00	1703	836	14.9	10.2	204	5
2023-08-17T18:00	1720	834	14.7	10.1	202	5
2023-08-17T18:00	1740	832	14.5	10.1	199	5
2023-08-17T18:00	1761	830	14.4	9.6	197	5
2023-08-17T18:00	1783	828	14.3	9.6	194	6
2023-08-17T18:00	1802	826	14.2	9.3	192	6
2023-08-17T18:00	1823	824	14.1	9.1	190	6
2023-08-17T18:00	1841	822	14.1	9.0	189	5
2023-08-17T18:00	1862	820	13.9	8.9	189	5
2023-08-17T18:00	1888	818	13.6	8.7	189	5
2023-08-17T18:00	1907	816	13.4	8.7	190	5
2023-08-17T18:00	1928	814	13.3	8.7	190	5
2023-08-17T18:00	1954	811	13.1	8.6	190	6
2023-08-17T18:00	1978	809	13.0	8.2	189	6
2023-08-17T18:00	2001	807	12.9	7.9	188	6
2023-08-17T18:00	2029	804	12.7	7.8	188	6
2023-08-17T18:00	2052	802	12.5	7.5	189	6
2023-08-17T18:00	2074	800	12.5	7.3	190	6
2023-08-17T18:00	2096	797	12.2	7.1	193	6
2023-08-17T18:00	2120	795	12.0	7.0	195	6
2023-08-17T18:00	2145	793	11.8	7.0	198	6
2023-08-17T18:00	2171	791	11.6	6.9	201	5
2023-08-17T18:00	2196	788	11.3	6.8	204	5
2023-08-17T18:00	2216	786	11.2	6.7	207	5
2023-08-17T18:00	2240	784	11.0	6.5	211	5
2023-08-17T18:00	2268	781	10.8	6.3	213	5
2023-08-17T18:00	2294	779	10.6	6.2	215	5
2023-08-17T18:00	2319	777	10.3	6.2	216	4
2023-08-17T18:00	2347	774	10.1	6.1	214	4
2023-08-17T18:00	2372	772	9.9	6.3	212	4
2023-08-17T18:00	2392	770	9.7	6.2	210	4
2023-08-17T18:00	2415	768	9.5	6.3	209	5
2023-08-17T18:00	2437	766	9.3	6.2	208	5
2023-08-17T18:00	2460	763	9.1	6.1	207	5
2023-08-17T18:00	2486	761	8.9	6.0	207	5
2023-08-17T18:00	2512	759	8.7	6.2	207	5
2023-08-17T18:00	2531	757	8.5	6.1	209	4
2023-08-17T18:00	2558	755	8.2	6.1	212	4
2023-08-17T18:00	2579	753	8.1	6.3	217	3
2023-08-17T18:00	2601	751	8.0	6.5	220	3
2023-08-17T18:00	2622	749	7.8	6.4	219	3
2023-08-17T18:00	2645	747	7.6	6.5	217	4
2023-08-17T18:00	2669	745	7.4	6.3	214	4
2023-08-17T18:00	2694	742	7.3	5.4	213	4
2023-08-17T18:00	2711	741	7.2	5.7	212	4
2023-08-17T18:00	2731	739	7.0	5.8	211	5
2023-08-17T18:00	2757	737	6.9	5.0	209	5
2023-08-17T18:00	2779	735	6.7	5.2	208	5
2023-08-17T18:00	2804	732	6.6	4.0	208	5
2023-08-17T18:00	2829	730	6.5	3.6	209	5
2023-08-17T18:00	2852	728	6.5	3.2	211	5
2023-08-17T18:00	2874	726	6.4	2.2	214	5
2023-08-17T18:00	2898	724	6.3	1.4	217	5
2023-08-17T18:00	2921	722	6.2	1.3	219	5
2023-08-17T18:00	2944	720	6.0	1.3	220	5
2023-08-17T18:00	2972	718	5.9	1.1	220	5
2023-08-17T18:00	2990	716	5.7	1.2	217	5
2023-08-17T18:00	3011	714	5.5	1.1	214	5
2023-08-17T18:00	3038	712	5.3	0.9	212	5
2023-08-17T18:00	3059	710	5.2	0.9	211	5
2023-08-17T18:00	3080	708	5.0	0.7	212	5
2023-08-17T18:00	3097	707	4.8	0.7	214	5
2023-08-17T18:00	3113	705	4.7	0.5	215	5
2023-08-17T18:00	3131	704	4.6	0.4	214	6
2023-08-17T18:00	3150	702	4.4	0.2	213	6
2023-08-17T18:00	3171	700	4.3	0.1	210	6
2023-08-17T18:00	3190	699	4.1	-0.1	208	6
2023-08-17T18:00	3213	697	3.9	0.6	207	6
2023-08-17T18:00	3232	695	3.8	-0.5	207	7
2023-08-17T18:00	3253	693	3.8	-0.1	207	7
2023-08-17T18:00	3279	691	3.6	0.7	207	7
2023-08-17T18:00	3295	690	3.4	1.1	206	7
2023-08-17T18:00	3313	688	3.3	1.4	204	7
2023-08-17T18:00	3330	687	3.1	1.7	202	7
2023-08-17T18:00	3347	685	2.9	2.0	200	7
2023-08-17T18:00	3366	684	2.8	2.0	199	7
2023-08-17T18:00	3386	682	2.8	1.7	198	7
2023-08-17T18:00	3405	681	2.6	1.6	198	7
2023-08-17T18:00	3422	679	2.5	1.4	198	7
2023-08-17T18:00	3445	677	2.4	1.4	199	7
2023-08-17T18:00	3474	675	2.1	1.3	200	7
2023-08-17T18:00	3495	673	1.9	1.3	200	8
2023-08-17T18:00	3515	671	1.8	1.2	201	8
2023-08-17T18:00	3530	670	1.7	0.9	200	8
2023-08-17T18:00	3545	669	1.7	0.8	200	8
2023-08-17T18:00	3561	667	1.6	0.5	198	8
2023-08-17T18:00	3577	666	1.5	0.4	198	8
2023-08-17T18:00	3590	665	1.5	0.3	197	8
2023-08-17T18:00	3607	664	1.4	-0.2	197	8
2023-08-17T18:00	3624	662	1.3	-0.4	197	8
2023-08-17T18:00	3642	661	1.2	-0.5	196	7
2023-08-17T18:00	3669	659	1.0	-0.5	194	7
2023-08-17T18:00	3692	657	0.8	-0.6	193	7
2023-08-17T18:00	3711	655	0.7	-0.7	193	7
2023-08-17T18:00	3725	654	0.6	-0.9	195	8
2023-08-17T18:00	3742	653	0.5	-0.9	197	8
2023-08-17T18:00	3760	651	0.4	-1.0	200	8
2023-08-17T18:00	3783	649	0.3	-1.1	202	8
2023-08-17T18:00	3809	647	0.1	-1.5	205	7
2023-08-17T18:00	3831	645	-0.1	-1.9	207	7
2023-08-17T18:00	3857	643	-0.3	-2.0	209	7
2023-08-17T18:00	3886	641	-0.6	-2.0	210	7
2023-08-17T18:00	3902	640	-0.7	-1.9	211	7
2023-08-17T18:00	3919	638	-0.9	-2.1	212	7
2023-08-17T18:00	3936	637	-1.1	-2.2	211	7
2023-08-17T18:00	3952	636	-1.2	-2.3	209	7
2023-08-17T18:00	3968	634	-1.3	-2.6	206	7
2023-08-17T18:00	3985	633	-1.4	-3.4	204	7
2023-08-17T18:00	4005	632	-1.5	-4.5	202	7
2023-08-17T18:00	4022	630	-1.6	-4.7	200	6
2023-08-17T18:00	4041	629	-1.7	-5.2	198	6
2023-08-17T18:00	4063	627	-1.7	-7.1	198	6
2023-08-17T18:00	4087	625	-1.6	-14.0	199	5
2023-08-17T18:00	4114	623	-1.3	-29.1	204	5
2023-08-17T18:00	4140	621	-1.2	-30.0	209	5
2023-08-17T18:00	4164	619	-1.3	-30.9	213	5
2023-08-17T18:00	4187	617	-1.3	-31.1	215	5
2023-08-17T18:00	4216	615	-1.5	-26.4	216	5
2023-08-17T18:00	4234	614	-1.7	-24.1	216	5
2023-08-17T18:00	4253	612	-1.8	-23.8	217	5
2023-08-17T18:00	4271	611	-1.9	-23.9	219	5
2023-08-17T18:00	4289	609	-2.0	-24.4	220	5
2023-08-17T18:00	4309	608	-2.1	-24.0	221	5
2023-08-17T18:00	4327	606	-2.2	-23.4	223	5
2023-08-17T18:00	4349	605	-2.3	-23.5	224	5
2023-08-17T18:00	4369	603	-2.4	-23.6	226	5
2023-08-17T18:00	4386	602	-2.5	-24.4	228	5
2023-08-17T18:00	4406	600	-2.5	-23.9	231	4
2023-08-17T18:00	4427	599	-2.7	-23.9	233	4
2023-08-17T18:00	4448	597	-2.9	-24.0	235	4
2023-08-17T18:00	4470	596	-3.0	-23.7	236	4
2023-08-17T18:00	4493	594	-3.2		237	4
2023-08-17T18:00	4519	592	-3.3	-21.6	238	4
2023-08-17T18:00	4549	590	-3.4	-22.9	238	4
2023-08-17T18:00	4576	588	-3.6	-22.7	238	4
2023-08-17T18:00	4595	586	-3.8	-20.6	236	4
2023-08-17T18:00	4615	585	-3.9	-20.4	234	4
2023-08-17T18:00	4635	583	-4.0	-20.0	233	4
2023-08-17T18:00	4654	582	-4.1	-21.1	233	5
2023-08-17T18:00	4673	581	-4.2	-21.3	235	5
2023-08-17T18:00	4694	579	-4.4	-21.5	237	5
2023-08-17T18:00	4714	578	-4.5	-20.6	240	5
2023-08-17T18:00	4732	576	-4.6	-20.7	241	5
2023-08-17T18:00	4751	575	-4.7	-20.8	241	5
2023-08-17T18:00	4770	573	-4.9	-20.9	240	5
2023-08-17T18:00	4790	572	-5.0	-21.1	238	5
2023-08-17T18:00	4811	570	-5.1	-21.3	235	5
2023-08-17T18:00	4830	569	-5.2	-21.2	233	5
2023-08-17T18:00	4850	568	-5.4	-21.3	232	4
2023-08-17T18:00	4866	566	-5.5	-21.5	232	4
2023-08-17T18:00	4884	565	-5.6	-21.8	233	4
2023-08-17T18:00	4901	564	-5.7	-22.7	233	4
2023-08-17T18:00	4920	563	-5.7	-21.9	233	4
2023-08-17T18:00	4939	561	-5.7	-19.4	233	4
2023-08-17T18:00	4956	560	-5.8	-17.5	233	4
2023-08-17T18:00	4971	559	-5.9	-16.4	233	4
2023-08-17T18:00	4991	558	-6.1	-15.4	233	4
2023-08-17T18:00	5008	556	-6.2	-15.1	232	4
2023-08-17T18:00	5026	555	-6.3	-14.9	232	4
2023-08-17T18:00	5042	554	-6.5	-14.6	231	4
2023-08-17T18:00	5059	553	-6.6	-14.1	229	4
2023-08-17T18:00	5078	551	-6.8	-13.8	227	4
2023-08-17T18:00	5094	550	-6.9	-13.9	224	4
2023-08-17T18:00	5113	549	-7.1	-14.1	223	4
2023-08-17T18:00	5129	548	-7.2	-14.1	222	4
2023-08-17T18:00	5148	546	-7.4	-14.3	222	4
2023-08-17T18:00	5164	545	-7.5	-14.4	224	4
2023-08-17T18:00	5179	544	-7.7	-14.4	226	5
2023-08-17T18:00	5197	543	-7.8	-14.4	228	5
2023-08-17T18:00	5214	542	-8.0	-14.2	230	5
2023-08-17T18:00	5230	541	-8.1	-14.2	230	5
2023-08-17T18:00	5246	539	-8.2	-14.0	231	5
2023-08-17T18:00	5264	538	-8.3	-14.4	232	5
2023-08-17T18:00	5282	537	-8.4	-14.3	233	5
2023-08-17T18:00	5297	536	-8.4	-13.7	234	5
2023-08-17T18:00	5316	535	-8.3	-14.4	234	5
2023-08-17T18:00	5331	534	-8.4	-14.3	234	6
2023-08-17T18:00	5352	532	-8.5	-14.5	231	6
2023-08-17T18:00	5379	530	-8.7	-14.2	228	6
2023-08-17T18:00	5406	529	-8.9	-13.8	224	6
2023-08-17T18:00	5432	527	-9.1	-13.6	220	6
2023-08-17T18:00	5451	525	-9.3	-13.6	216	5
2023-08-17T18:00	5470	524	-9.4	-13.1	213	5
2023-08-17T18:00	5490	523	-9.6	-13.1	210	5
2023-08-17T18:00	5516	521	-9.8	-12.6	208	5
2023-08-17T18:00	5537	520	-10.0	-12.4	207	5
2023-08-17T18:00	5556	518	-10.1	-12.3	207	5
2023-08-17T18:00	5575	517	-10.3	-12.3	208	5
2023-08-17T18:00	5594	516	-10.4	-12.8	208	6
2023-08-17T18:00	5613	515	-10.5	-12.5	209	6
2023-08-17T18:00	5632	513	-10.6	-11.5	209	6
2023-08-17T18:00	5652	512	-10.6	-11.5	210	6
2023-08-17T18:00	5671	511	-10.7	-11.7	210	6
2023-08-17T18:00	5694	509	-10.7	-14.6	211	6
2023-08-17T18:00	5718	508	-10.8	-14.0	211	6
2023-08-17T18:00	5748	506	-11.0	-13.4	212	6
2023-08-17T18:00	5778	504	-11.1	-13.3	211	6
2023-08-17T18:00	5804	502	-11.1	-14.8	210	6
2023-08-17T18:00	5824	501	-11.1	-14.9	208	6
2023-08-17T18:00	5847	499	-11.3	-15.1	206	6
2023-08-17T18:00	5870	498	-11.5	-15.2	204	5
2023-08-17T18:00	5898	496	-11.7	-15.4	201	5
2023-08-17T18:00	5924	494	-11.8	-14.3	197	5
2023-08-17T18:00	5949	492	-12.0	-14.6	194	5
2023-08-17T18:00	5980	491	-12.1	-17.3	192	6
2023-08-17T18:00	6008	489	-12.0	-20.6	191	6
2023-08-17T18:00	6034	487	-12.1	-23.2	190	6
2023-08-17T18:00	6059	485	-12.2	-25.1	189	6
2023-08-17T18:00	6085	484	-12.4	-21.1	188	6
2023-08-17T18:00	6113	482	-12.7	-17.0	187	6
2023-08-17T18:00	6137	481	-12.9	-16.7	185	6
2023-08-17T18:00	6163	479	-13.0	-17.3	183	7
2023-08-17T18:00	6194	477	-13.3	-17.8	183	7
2023-08-17T18:00	6219	475	-13.5	-18.0	183	7
2023-08-17T18:00	6246	474	-13.6	-19.7	184	7
2023-08-17T18:00	6273	472	-13.8	-20.3	185	6
2023-08-17T18:00	6303	470	-14.1	-20.0	185	6
2023-08-17T18:00	6329	469	-14.3	-20.2	185	6
2023-08-17T18:00	6353	467	-14.5	-20.2	184	6
2023-08-17T18:00	6369	466	-14.7	-20.0	184	6
2023-08-17T18:00	6387	465	-14.9	-20.1	185	7
2023-08-17T18:00	6405	464	-15.0	-20.7	186	6
2023-08-17T18:00	6422	463	-15.1	-20.3	188	6
2023-08-17T18:00	6441	462	-15.3	-20.3	189	6
2023-08-17T18:00	6459	461	-15.5	-20.3	191	6
2023-08-17T18:00	6477	459	-15.7	-20.3	192	6
2023-08-17T18:00	6497	458	-15.9	-20.3	193	6
2023-08-17T18:00	6514	457	-15.9	-21.1	194	6
2023-08-17T18:00	6533	456	-16.1	-21.8	195	6
2023-08-17T18:00	6550	455	-16.2	-23.1	196	6
2023-08-17T18:00	6567	454	-16.2	-24.1	198	6
2023-08-17T18:00	6584	453	-16.3	-26.8	199	6
2023-08-17T18:00	6601	452	-16.4	-29.2	200	6
2023-08-17T18:00	6617	451	-16.5	-27.2	200	6
2023-08-17T18:00	6637	450	-16.6	-25.7	201	7
2023-08-17T18:00	6654	449	-16.7	-24.4	201	7
2023-08-17T18:00	6670	448	-16.8	-25.3	201	7
2023-08-17T18:00	6689	447	-16.8	-24.5	201	7
2023-08-17T18:00	6705	446	-17.0	-24.5	200	7
2023-08-17T18:00	6723	445	-17.1	-24.4	200	7
2023-08-17T18:00	6739	444	-17.3	-23.6	201	7
2023-08-17T18:00	6755	443	-17.4	-23.8	202	7
2023-08-17T18:00	6773	442	-17.5	-23.3	204	7
2023-08-17T18:00	6791	441	-17.6	-23.1	204	7
2023-08-17T18:00	6808	440	-17.8	-23.1	205	7
2023-08-17T18:00	6824	439	-17.9	-23.2	205	7
2023-08-17T18:00	6840	438	-18.0	-23.2	205	7
2023-08-17T18:00	6859	437	-18.2	-24.6	205	7
2023-08-17T18:00	6874	436	-18.2	-24.5	205	7
2023-08-17T18:00	6892	435	-18.3	-24.1	206	7
2023-08-17T18:00	6908	434	-18.4	-23.3	207	7
2023-08-17T18:00	6924	433	-18.4	-23.8	208	7
2023-08-17T18:00	6942	432	-18.5	-23.8	209	7
2023-08-17T18:00	6958	431	-18.5	-25.7	210	7
2023-08-17T18:00	6974	430	-18.5	-28.4	210	7
2023-08-17T18:00	6990	429	-18.5	-27.8	209	7
2023-08-17T18:00	7007	428	-18.6	-28.3	208	7
2023-08-17T18:00	7024	427	-18.7	-27.9	207	7
2023-08-17T18:00	7041	426	-18.8	-28.6	207	7
2023-08-17T18:00	7056	425	-18.9	-28.2	206	7
2023-08-17T18:00	7076	424	-19.0	-29.3	206	7
2023-08-17T18:00	7093	423	-19.1	-29.4	207	7
2023-08-17T18:00	7111	422	-19.3	-29.2	208	7
2023-08-17T18:00	7127	421	-19.4	-29.3	209	7
2023-08-17T18:00	7146	420	-19.5	-29.5	210	6
2023-08-17T18:00	7163	419	-19.6	-30.1	211	6
2023-08-17T18:00	7179	418	-19.7	-30.0	212	6
2023-08-17T18:00	7199	417	-19.8	-27.5	213	6
2023-08-17T18:00	7216	416	-19.9	-28.5	213	7
2023-08-17T18:00	7231	415	-19.9	-28.8	214	7
2023-08-17T18:00	7250	414	-20.1	-28.8	214	7
2023-08-17T18:00	7266	414	-20.2	-28.7	214	7
2023-08-17T18:00	7281	413	-20.4	-28.8	214	7
2023-08-17T18:00	7299	412	-20.6	-28.9	215	7
2023-08-17T18:00	7315	411	-20.7	-28.9	216	7
2023-08-17T18:00	7334	410	-20.9	-28.9	217	7
2023-08-17T18:00	7352	409	-21.0	-29.3	217	7
2023-08-17T18:00	7368	408	-21.1	-29.8	217	7
2023-08-17T18:00	7385	407	-21.2	-28.5	216	6
2023-08-17T18:00	7402	406	-21.3	-29.0	215	6
2023-08-17T18:00	7419	405	-21.4	-28.7	215	6
2023-08-17T18:00	7435	404	-21.5	-28.1	216	6
2023-08-17T18:00	7453	403	-21.6	-28.4	218	6
2023-08-17T18:00	7470	402	-21.8	-28.1	221	6
2023-08-17T18:00	7487	401	-21.9	-28.1	224	6
2023-08-17T18:00	7504	400	-22.0	-28.2	227	6
2023-08-17T18:00	7523	399	-22.2	-28.2	229	6
2023-08-17T18:00	7540	398	-22.3	-28.0	231	7
2023-08-17T18:00	7558	397	-22.4	-28.0	231	7
2023-08-17T18:00	7574	397	-22.6	-28.1	231	6
2023-08-17T18:00	7594	395	-22.8	-28.2	230	6
2023-08-17T18:00	7616	394	-22.9	-29.2	228	6
2023-08-17T18:00	7633	393	-23.0	-30.7	227	6
2023-08-17T18:00	7650	392	-23.1	-31.7	227	6
2023-08-17T18:00	7670	391	-23.2	-31.7	228	6
2023-08-17T18:00	7687	390	-23.4	-32.6	229	5
2023-08-17T18:00	7705	390	-23.5	-33.6	230	5
2023-08-17T18:00	7724	389	-23.6	-34.8	231	5
2023-08-17T18:00	7740	388	-23.7	-34.3	231	5
2023-08-17T18:00	7759	387	-23.9	-33.8	230	5
2023-08-17T18:00	7775	386	-24.0		229	5
2023-08-17T18:00	7792	385	-24.2	-33.2	227	5
2023-08-17T18:00	7810	384	-24.3	-33.1	226	5
2023-08-17T18:00	7828	383	-24.5	-33.2	225	5
2023-08-17T18:00	7845	382	-24.6	-33.1	224	5
2023-08-17T18:00	7861	381	-24.8	-32.9	223	5
2023-08-17T18:00	7879	380	-25.0	-32.8	222	5
2023-08-17T18:00	7897	379	-25.1	-32.9	223	5
2023-08-17T18:00	7915	378	-25.3	-32.9	223	5
2023-08-17T18:00	7934	377	-25.4	-33.0	223	5
2023-08-17T18:00	7953	376	-25.6	-33.0	223	5
2023-08-17T18:00	7970	376	-25.7	-33.3	222	5
2023-08-17T18:00	7988	375	-25.8	-33.2	221	5
2023-08-17T18:00	8007	374	-26.0	-33.3	220	5
2023-08-17T18:00	8024	373	-26.1	-33.2	220	5
2023-08-17T18:00	8041	372	-26.2	-34.1	221	5
2023-08-17T18:00	8061	371	-26.3	-35.2	222	4
2023-08-17T18:00	8076	370	-26.4	-34.7	224	4
2023-08-17T18:00	8094	369	-26.6	-34.7	225	4
2023-08-17T18:00	8114	368	-26.7	-34.1	226	4
2023-08-17T18:00	8132	367	-26.8	-36.3	227	4
2023-08-17T18:00	8149	366	-26.9	-36.6	227	3
2023-08-17T18:00	8166	366	-27.0	-35.1	226	3
2023-08-17T18:00	8185	365	-27.2	-35.4	226	3
2023-08-17T18:00	8203	364	-27.3	-35.3	226	3
2023-08-17T18:00	8221	363	-27.5	-35.8	227	3
2023-08-17T18:00	8237	362	-27.6	-35.6	228	3
2023-08-17T18:00	8254	361	-27.8	-35.3	230	3
2023-08-17T18:00	8272	360	-27.9	-35.1	231	3
2023-08-17T18:00	8293	359	-28.1	-35.3	232	4
2023-08-17T18:00	8312	358	-28.2	-33.5	232	4
2023-08-17T18:00	8330	357	-28.4	-33.2	232	4
2023-08-17T18:00	8349	356	-28.6	-33.2	232	4
2023-08-17T18:00	8369	355	-28.7	-33.1	232	4
2023-08-17T18:00	8387	354	-28.9	-32.7	233	4
2023-08-17T18:00	8408	353	-29.1	-32.3	235	5
2023-08-17T18:00	8429	352	-29.3	-32.5	237	5
2023-08-17T18:00	8450	351	-29.5	-32.7	239	5
2023-08-17T18:00	8470	350	-29.7	-32.6	240	5
2023-08-17T18:00	8490	349	-29.9	-32.6	240	5
2023-08-17T18:00	8510	348	-30.0	-32.8	239	5
2023-08-17T18:00	8532	347	-30.2	-33.1	237	5
2023-08-17T18:00	8555	346	-30.4		234	5
2023-08-17T18:00	8576	345	-30.6	-33.6	230	5
2023-08-17T18:00	8597	344	-30.8	-34.5	226	5
2023-08-17T18:00	8616	343	-31.0	-34.7	223	5
2023-08-17T18:00	8637	342	-31.1	-35.2	221	5
2023-08-17T18:00	8658	341	-31.2	-35.3	220	5
2023-08-17T18:00	8677	340	-31.3	-35.2	220	5
2023-08-17T18:00	8698	339	-31.5	-35.2	220	5
2023-08-17T18:00	8717	338	-31.7	-35.5	221	5
2023-08-17T18:00	8737	337	-31.8	-35.9	221	5
2023-08-17T18:00	8757	336	-31.9	-36.1	221	5
2023-08-17T18:00	8777	336	-32.1	-36.3	222	5
2023-08-17T18:00	8798	335	-32.2	-36.4	222	5
2023-08-17T18:00	8818	334	-32.4	-36.5	222	6
2023-08-17T18:00	8837	333	-32.6	-36.7	222	6
2023-08-17T18:00	8857	332	-32.8	-36.8	221	5
2023-08-17T18:00	8878	331	-32.9	-36.8	220	5
2023-08-17T18:00	8898	330	-33.1	-36.7	219	5
2023-08-17T18:00	8917	329	-33.2	-36.1	218	5
2023-08-17T18:00	8937	328	-33.4	-36.2	217	5
2023-08-17T18:00	8957	327	-33.6	-36.2	216	6
2023-08-17T18:00	8979	326	-33.8	-35.5	215	6
2023-08-17T18:00	8998	325	-33.9	-34.4	214	6
2023-08-17T18:00	9017	324	-34.0	-35.3	214	6
2023-08-17T18:00	9039	323	-34.1	-35.8	213	6
2023-08-17T18:00	9058	322	-34.3	-35.5	213	6
2023-08-17T18:00	9079	321	-34.4	-35.4	213	6
2023-08-17T18:00	9099	320	-34.4	-36.3	213	6
2023-08-17T18:00	9119	320	-34.4	-37.1	212	6
2023-08-17T18:00	9137	319	-34.6	-37.3	211	6
2023-08-17T18:00	9157	318	-34.8	-37.6	210	6
2023-08-17T18:00	9178	317	-34.9	-37.8	209	6
2023-08-17T18:00	9198	316	-35.1	-37.8	208	6
2023-08-17T18:00	9216	315	-35.2	-37.7	207	6
2023-08-17T18:00	9235	314	-35.3	-38.3	206	7
2023-08-17T18:00	9254	313	-35.3	-39.7	206	7
2023-08-17T18:00	9274	313	-35.4	-40.9	206	7
2023-08-17T18:00	9293	312	-35.5	-41.1	207	7
2023-08-17T18:00	9311	311	-35.5	-41.9	208	7
2023-08-17T18:00	9330	310	-35.6	-42.3	209	7
2023-08-17T18:00	9348	309	-35.8	-42.7	209	7
2023-08-17T18:00	9368	308	-35.9	-43.4	209	6
2023-08-17T18:00	9386	308	-36.0	-43.8	209	6
2023-08-17T18:00	9403	307	-36.2	-44.2	209	6
2023-08-17T18:00	9423	306	-36.4	-44.5	209	6
2023-08-17T18:00	9442	305	-36.5	-44.6	208	6
2023-08-17T18:00	9461	304	-36.7	-44.8	207	6
2023-08-17T18:00	9481	303	-36.8	-44.3	207	6
2023-08-17T18:00	9500	303	-37.0	-44.0	207	6
2023-08-17T18:00	9520	302	-37.2	-44.2	207	6
2023-08-17T18:00	9538	301	-37.4	-44.3	207	6
2023-08-17T18:00	9558	300	-37.6	-44.3	208	6
2023-08-17T18:00	9577	299	-37.7	-44.3	207	6
2023-08-17T18:00	9595	298	-37.9	-44.3	207	6
2023-08-17T18:00	9613	298	-38.1	-44.4	205	6
2023-08-17T18:00	9631	297	-38.2	-44.4	202	6
2023-08-17T18:00	9649	296	-38.4	-44.7	198	6
2023-08-17T18:00	9670	295	-38.5	-45.7	193	6
2023-08-17T18:00	9690	294	-38.6	-47.1	189	6
2023-08-17T18:00	9708	294	-38.6	-48.1	186	6
2023-08-17T18:00	9726	293	-38.8	-47.5	185	6
2023-08-17T18:00	9743	292	-39.0	-48.2	184	6
2023-08-17T18:00	9760	291	-39.1	-49.2	184	6
2023-08-17T18:00	9778	291	-39.2	-49.4	185	7
2023-08-17T18:00	9796	290	-39.3	-49.7	185	7
2023-08-17T18:00	9813	289	-39.5	-49.8	186	7
2023-08-17T18:00	9830	288	-39.7	-50.0	187	7
2023-08-17T18:00	9846	288	-39.8	-50.0	188	7
2023-08-17T18:00	9863	287	-40.0	-50.0	189	7
2023-08-17T18:00	9882	286	-40.1	-50.1	190	7
2023-08-17T18:00	9899	285	-40.3	-50.2	191	7
2023-08-17T18:00	9917	285	-40.5	-50.5	193	7
2023-08-17T18:00	9934	284	-40.6	-50.7	194	7
2023-08-17T18:00	9952	283	-40.8	-50.9	195	7
2023-08-17T18:00	9971	282	-40.9	-50.8	195	7
2023-08-17T18:00	9988	282	-41.1	-50.7	196	7
2023-08-17T18:00	10006	281	-41.3	-50.8	196	7
2023-08-17T18:00	10026	280	-41.4	-50.9	197	7
2023-08-17T18:00	10042	280	-41.6	-51.0	197	7
2023-08-17T18:00	10062	279	-41.8	-51.1	198	7
2023-08-17T18:00	10081	278	-41.9	-51.1	199	7
2023-08-17T18:00	10096	277	-42.1	-51.2	199	7
2023-08-17T18:00	10113	277	-42.2	-51.2	200	8
2023-08-17T18:00	10132	276	-42.4	-51.2	200	8
2023-08-17T18:00	10151	275	-42.6	-51.2	200	8
2023-08-17T18:00	10171	274	-42.8	-51.3	200	8
2023-08-17T18:00	10189	274	-43.0	-51.4	200	8
2023-08-17T18:00	10207	273	-43.1	-51.5	199	8
2023-08-17T18:00	10227	272	-43.3	-51.7	198	7
2023-08-17T18:00	10246	271	-43.5	-51.8	196	7
2023-08-17T18:00	10270	270	-43.7	-51.9	194	7
2023-08-17T18:00	10290	269	-43.9	-52.1	191	6
2023-08-17T18:00	10313	268	-44.1	-52.6	188	6
2023-08-17T18:00	10339	267	-44.2	-53.0	185	6
2023-08-17T18:00	10365	267	-44.3	-53.7	184	6
2023-08-17T18:00	10386	266	-44.5	-53.6	185	6
2023-08-17T18:00	10414	265	-44.6	-52.4	187	6
2023-08-17T18:00	10436	264	-44.8	-52.5	189	6
2023-08-17T18:00	10458	263	-45.0	-52.5	192	6
2023-08-17T18:00	10478	262	-45.2	-52.6	194	6
2023-08-17T18:00	10504	261	-45.5	-52.8	195	7
2023-08-17T18:00	10526	260	-45.7	-52.8	195	7
2023-08-17T18:00	10553	259	-45.9	-52.8	195	7
2023-08-17T18:00	10578	258	-46.1	-52.8	196	7
2023-08-17T18:00	10600	257	-46.4	-53.0	197	7
2023-08-17T18:00	10624	256	-46.6	-53.1	199	7
2023-08-17T18:00	10649	255	-46.8	-53.1	202	7
2023-08-17T18:00	10679	254	-47.1		203	7
2023-08-17T18:00	10707	253	-47.4	-53.2	205	8
2023-08-17T18:00	10734	252	-47.6	-53.3	206	8
2023-08-17T18:00	10756	251	-47.8	-53.5	207	8
2023-08-17T18:00	10781	250	-48.0	-53.8	208	9
2023-08-17T18:00	10803	249	-48.2	-54.0	210	9
2023-08-17T18:00	10822	249	-48.4	-53.9	211	9
2023-08-17T18:00	10836	248	-48.6	-53.9	213	9
2023-08-17T18:00	10854	248	-48.7	-53.4	214	9
2023-08-17T18:00	10871	247	-48.7	-53.6	216	9
2023-08-17T18:00	10891	246	-48.5	-55.9	218	9
2023-08-17T18:00	10909	245	-48.5	-56.7	220	9
2023-08-17T18:00	10925	245	-48.7	-56.5	223	9
2023-08-17T18:00	10945	244	-48.8	-56.4	226	10
2023-08-17T18:00	10967	243	-49.0	-56.2	230	10
2023-08-17T18:00	10986	243	-49.2	-55.9	233	10
2023-08-17T18:00	11006	242	-49.4	-55.8	235	10
2023-08-17T18:00	11027	241	-49.5	-55.8	235	10
2023-08-17T18:00	11047	240	-49.7	-55.9	235	11
2023-08-17T18:00	11068	240	-49.9		234	11
2023-08-17T18:00	11088	239	-50.0	-56.5	232	11
2023-08-17T18:00	11110	238	-50.1	-56.8	230	12
2023-08-17T18:00	11131	237	-50.2	-57.1	229	12
2023-08-17T18:00	11153	236	-50.2	-57.3	228	12
2023-08-17T18:00	11173	236	-50.3	-57.5	228	12
2023-08-17T18:00	11196	235	-50.5	-57.6	228	12
2023-08-17T18:00	11219	234	-50.7	-57.6	229	12
2023-08-17T18:00	11241	233	-50.9	-57.7	230	11
2023-08-17T18:00	11263	233	-51.0	-57.8	232	11
2023-08-17T18:00	11287	232	-51.2	-58.1	234	11
2023-08-17T18:00	11309	231	-51.4	-58.6	236	11
2023-08-17T18:00	11334	230	-51.4	-58.9	237	11
2023-08-17T18:00	11356	229	-51.5	-59.7	238	12
2023-08-17T18:00	11378	228	-51.7	-60.3	239	12
2023-08-17T18:00	11399	228	-51.7	-60.2	239	12
2023-08-17T18:00	11422	227	-51.8	-60.2	239	12
2023-08-17T18:00	11444	226	-52.0	-60.5	238	12
2023-08-17T18:00	11466	225	-52.1	-60.6	237	12
2023-08-17T18:00	11489	225	-52.3	-60.6	236	12
2023-08-17T18:00	11511	224	-52.4	-60.2	235	12
2023-08-17T18:00	11535	223	-52.3	-59.7	233	12
2023-08-17T18:00	11556	222	-52.5	-59.8	232	11
2023-08-17T18:00	11580	221	-52.7	-59.8	230	11
2023-08-17T18:00	11602	221	-52.8	-59.8	229	11
2023-08-17T18:00	11626	220	-53.1	-60.1	227	11
2023-08-17T18:00	11651	219	-53.3	-60.7	225	11
2023-08-17T18:00	11672	218	-53.4	-61.5	223	11
2023-08-17T18:00	11694	218	-53.5	-62.1	220	10
2023-08-17T18:00	11717	217	-53.6	-62.3	217	10
2023-08-17T18:00	11739	216	-53.7	-62.3	214	10
2023-08-17T18:00	11759	215	-53.9	-62.4	211	10
2023-08-17T18:00	11783	215	-54.0	-62.4	208	10
2023-08-17T18:00	11804	214	-54.0	-62.4	207	11
2023-08-17T18:00	11825	213	-54.0	-62.5	207	11
2023-08-17T18:00	11850	212	-54.1	-62.7	208	11
2023-08-17T18:00	11869	212	-54.2	-62.8	210	11
2023-08-17T18:00	11888	211	-54.2	-62.7	211	11
2023-08-17T18:00	11910	210	-54.2	-62.5	211	11
2023-08-17T18:00	11931	210	-54.3	-62.5	211	11
2023-08-17T18:00	11951	209	-54.5	-62.5	210	11
2023-08-17T18:00	11973	208	-54.6	-62.6	208	10
2023-08-17T18:00	11991	208	-54.7	-62.7	206	10
2023-08-17T18:00	12012	207	-54.8	-63.0	203	9
2023-08-17T18:00	12033	206	-54.7	-63.2	201	9
2023-08-17T18:00	12053	206	-54.8	-63.8	199	9
2023-08-17T18:00	12074	205	-54.9	-64.0	198	8
2023-08-17T18:00	12092	204	-55.0	-64.1	196	8
2023-08-17T18:00	12112	204	-55.0	-63.9	196	8
2023-08-17T18:00	12129	203	-55.2	-63.9	195	8
2023-08-17T18:00	12148	203	-55.3	-63.9	194	8
2023-08-17T18:00	12167	202	-55.4	-63.9	193	8
2023-08-17T18:00	12188	201	-55.6	-64.0	192	8
2023-08-17T18:00	12206	201	-55.8	-63.9	192	8
2023-08-17T18:00	12223	200	-55.9	-63.7	193	9
2023-08-17T18:00	12241	200	-56.0	-63.3	194	9
2023-08-17T18:00	12260	199	-56.1	-63.1	195	9
2023-08-17T18:00	12279	199	-56.1	-63.3	196	10
2023-08-17T18:00	12295	198	-55.7	-63.8	198	11
2023-08-17T18:00	12315	197	-55.6	-64.7	199	11
2023-08-17T18:00	12333	197	-55.5	-65.0	200	12
2023-08-17T18:00	12350	196	-55.4	-64.7	201	12
2023-08-17T18:00	12366	196	-55.5	-64.2	202	12
2023-08-17T18:00	12385	195	-55.6	-63.9	203	13
2023-08-17T18:00	12402	195	-55.6	-63.8	205	13
2023-08-17T18:00	12417	194	-55.6	-63.6	206	13
2023-08-17T18:00	12437	194	-55.4	-62.3	207	13
2023-08-17T18:00	12455	193	-55.4	-60.7	207	13
2023-08-17T18:00	12474	193	-55.5	-60.4	206	13
2023-08-17T18:00	12493	192	-55.4	-61.3	205	13
2023-08-17T18:00	12511	191	-55.2	-62.9	203	13
2023-08-17T18:00	12528	191	-55.2	-63.9	201	14
2023-08-17T18:00	12546	190	-55.3	-64.0	201	14
2023-08-17T18:00	12564	190	-55.2	-64.3	201	14
2023-08-17T18:00	12582	189	-54.9	-65.7	202	15
2023-08-17T18:00	12601	189	-54.5	-68.3	203	15
2023-08-17T18:00	12621	188	-53.9	-71.0	205	15
2023-08-17T18:00	12638	188	-53.6	-72.2	206	15
2023-08-17T18:00	12658	187	-53.7	-71.9	207	15
2023-08-17T18:00	12678	186	-53.7	-71.2	207	16
2023-08-17T18:00	12698	186	-53.5	-70.7	207	16
2023-08-17T18:00	12717	185	-53.5	-70.8	207	15
2023-08-17T18:00	12739	185	-53.4	-71.0	207	15
2023-08-17T18:00	12759	184	-53.2	-71.3	207	15
2023-08-17T18:00	12782	184	-53.1	-71.7	207	14
2023-08-17T18:00	12802	183	-52.9	-71.8	208	14
2023-08-17T18:00	12826	182	-53.0	-72.0	208	13
2023-08-17T18:00	12849	182	-53.2	-72.2	208	13
2023-08-17T18:00	12870	181	-53.2	-72.5	207	13
2023-08-17T18:00	12892	180	-53.1	-73.0	206	13
2023-08-17T18:00	12913	180	-52.6	-73.6	205	13
2023-08-17T18:00	12932	179	-52.0	-74.1	204	14
2023-08-17T18:00	12952	179	-51.6	-74.5	204	14
2023-08-17T18:00	12974	178	-51.4	-74.8	204	15
2023-08-17T18:00	12993	178	-51.4	-75.2	205	15
2023-08-17T18:00	13014	177	-51.0	-75.4	206	16
2023-08-17T18:00	13034	176	-50.4	-75.3	207	16
2023-08-17T18:00	13054	176	-50.3	-75.5	209	16
2023-08-17T18:00	13074	175	-50.4	-75.5	209	17
2023-08-17T18:00	13093	175	-50.5		210	17
2023-08-17T18:00	13112	174	-50.5		211	16
2023-08-17T18:00	13132	174	-50.6	-75.9	211	16
2023-08-17T18:00	13153	173	-50.7	-76.0	212	16
2023-08-17T18:00	13172	173	-50.8	-76.1	213	16
2023-08-17T18:00	13192	172	-51.0	-76.2	213	16
2023-08-17T18:00	13210	172	-51.2	-76.4	214	16
2023-08-17T18:00	13229	171	-51.2	-76.4	214	15
2023-08-17T18:00	13248	171	-51.2	-76.4	213	15
2023-08-17T18:00	13266	170	-51.2	-76.6	213	15
2023-08-17T18:00	13283	170	-51.4	-76.8	213	15
2023-08-17T18:00	13302	169	-51.4	-77.0	213	15
2023-08-17T18:00	13320	169	-51.4	-77.0	214	15
2023-08-17T18:00	13336	168	-51.4	-77.2	215	15
2023-08-17T18:00	13356	168	-51.4	-77.7	217	15
2023-08-17T18:00	13372	168	-51.3	-77.9	219	15
2023-08-17T18:00	13388	167	-51.1	-78.0	220	15
2023-08-17T18:00	13405	167	-51.0	-78.2	222	15
2023-08-17T18:00	13425	166	-51.0	-78.2	224	15
2023-08-17T18:00	13444	166	-51.1	-78.6	225	15
2023-08-17T18:00	13462	165	-51.2	-78.7	225	15
2023-08-17T18:00	13481	165	-51.3	-78.8	225	15
2023-08-17T18:00	13500	164	-51.3	-78.8	225	15
2023-08-17T18:00	13519	164	-51.4	-78.8	224	15
2023-08-17T18:00	13537	163	-51.3	-78.8	224	14
2023-08-17T18:00	13558	163	-51.3	-78.8	224	14
2023-08-17T18:00	13575	162	-51.4	-78.8	224	14
2023-08-17T18:00	13593	162	-51.5	-78.9	225	14
2023-08-17T18:00	13610	162	-51.6	-79.0	226	13
2023-08-17T18:00	13629	161	-51.5	-79.2	227	13
2023-08-17T18:00	13648	161	-51.4	-79.2	228	13
2023-08-17T18:00	13668	160	-51.3	-79.1	228	13
2023-08-17T18:00	13688	160	-51.4	-79.2	228	13
2023-08-17T18:00	13708	159	-51.4	-79.2	228	13
2023-08-17T18:00	13728	159	-51.5	-79.2	227	13
2023-08-17T18:00	13750	158	-51.7	-79.4	227	13
2023-08-17T18:00	13768	158	-51.8	-79.2	226	13
2023-08-17T18:00	13789	157	-51.8	-79.2	225	13
2023-08-17T18:00	13809	157	-51.9	-79.5	224	12
2023-08-17T18:00	13829	156	-51.8	-79.5	224	12
2023-08-17T18:00	13848	156	-51.7	-79.4	223	11
2023-08-17T18:00	13866	155	-51.4	-79.5	222	11
2023-08-17T18:00	13888	155	-51.3	-79.4	221	11
2023-08-17T18:00	13906	154	-51.3	-79.4	220	11
2023-08-17T18:00	13929	154	-51.3	-79.4	219	11
2023-08-17T18:00	13948	153	-51.3	-79.4	218	11
2023-08-17T18:00	13969	153	-51.3	-79.4	218	11
2023-08-17T18:00	13990	152	-51.4	-79.5	218	12
2023-08-17T18:00	14009	152	-51.4	-79.5	218	13
2023-08-17T18:00	14033	151	-51.5	-79.6	219	13
2023-08-17T18:00	14052	151	-51.6	-79.6	219	13
2023-08-17T18:00	14072	150	-51.7	-79.7	220	14
2023-08-17T18:00	14095	150	-51.8	-79.5	220	14
2023-08-17T18:00	14112	149	-51.9	-79.5	220	14
2023-08-17T18:00	14133	149	-52.0	-79.6	220	14
2023-08-17T18:00	14153	149	-51.9	-79.5	220	14
2023-08-17T18:00	14174	148	-51.8	-79.5	220	14
2023-08-17T18:00	14195	148	-51.7	-79.4	220	14
2023-08-17T18:00	14216	147	-51.8	-79.5	221	14
2023-08-17T18:00	14238	147	-51.9	-79.5	222	14
2023-08-17T18:00	14259	146	-51.9	-79.5	223	14
2023-08-17T18:00	14280	146	-52.0	-79.6	224	14
2023-08-17T18:00	14299	145	-51.9	-79.2	225	14
2023-08-17T18:00	14319	145	-51.8	-79.2	226	15
2023-08-17T18:00	14342	144	-51.8	-78.9	227	15
2023-08-17T18:00	14363	144	-51.9	-78.9	227	15
2023-08-17T18:00	14384	143	-52.1	-79.1	228	15
2023-08-17T18:00	14401	143	-52.3	-79.2	229	16
2023-08-17T18:00	14423	142	-52.5	-79.1	229	16
2023-08-17T18:00	14441	142	-52.7	-79.3	230	16
2023-08-17T18:00	14464	142	-52.9	-79.7	230	16
2023-08-17T18:00	14484	141	-52.7	-79.6	230	16
2023-08-17T18:00	14503	141	-52.5	-79.7	230	16
2023-08-17T18:00	14522	140	-52.4	-79.6	230	16
2023-08-17T18:00	14541	140	-52.5	-80.0	230	15
2023-08-17T18:00	14559	140	-52.4	-79.9	231	15
2023-08-17T18:00	14578	139	-52.4	-79.9	231	15
2023-08-17T18:00	14595	139	-52.3	-79.9	232	14
2023-08-17T18:00	14613	138	-52.3	-80.2	233	14
2023-08-17T18:00	14633	138	-52.2	-80.1	233	13
2023-08-17T18:00	14650	138	-52.2	-80.5	234	13
2023-08-17T18:00	14666	137	-52.2	-80.5	236	13
2023-08-17T18:00	14681	137	-52.2	-80.5	237	13
2023-08-17T18:00	14697	137	-52.1	-80.4	239	13
2023-08-17T18:00	14714	136	-52.1	-80.4	241	13
2023-08-17T18:00	14729	136	-51.9	-80.2	241	13
2023-08-17T18:00	14746	136	-51.8	-80.1	241	14
2023-08-17T18:00	14761	135	-51.9	-80.2	240	14
2023-08-17T18:00	14777	135	-51.7	-80.1	239	14
2023-08-17T18:00	14794	135	-51.5	-80.3	237	13
2023-08-17T18:00	14810	134	-51.5	-80.3	236	13
2023-08-17T18:00	14825	134	-51.6	-80.4	234	13
2023-08-17T18:00	14845	134	-51.5	-80.3	232	13
2023-08-17T18:00	14862	133	-51.5	-80.3	231	14
2023-08-17T18:00	14882	133	-51.5	-79.9	230	14
2023-08-17T18:00	14894	132	-51.5	-79.9	230	14
2023-08-17T18:00	14915	132	-51.6	-80.0	230	14
2023-08-17T18:00	14934	132	-51.6	-80.0	230	14
2023-08-17T18:00	14951	131	-51.6	-80.0	231	14
2023-08-17T18:00	14970	131	-51.7	-80.1	232	14
2023-08-17T18:00	14990	131	-51.7	-80.1	233	14
2023-08-17T18:00	15009	130	-51.7	-80.1	234	14
2023-08-17T18:00	15027	130	-51.8	-80.1	235	14
2023-08-17T18:00	15049	129	-51.8	-80.1	235	13
2023-08-17T18:00	15068	129	-51.8	-80.1	236	13
2023-08-17T18:00	15090	129	-51.8	-80.1	236	13
2023-08-17T18:00	15109	128	-51.8	-80.1	236	12
2023-08-17T18:00	15131	128	-51.9	-80.2	237	12
2023-08-17T18:00	15153	127	-52.0	-80.3	237	11
2023-08-17T18:00	15171	127	-52.1	-80.4	238	11
2023-08-17T18:00	15191	127	-52.1	-80.4	238	10
2023-08-17T18:00	15214	126	-52.1	-80.4	238	10
2023-08-17T18:00	15239	126	-52.2	-80.5	238	9
2023-08-17T18:00	15261	125	-52.4	-80.6	238	9
2023-08-17T18:00	15286	125	-52.6	-80.4	238	8
2023-08-17T18:00	15309	124	-52.7	-80.5	237	8
2023-08-17T18:00	15333	124	-52.9	-80.6	236	7
2023-08-17T18:00	15354	123	-53.1	-80.8	235	7
2023-08-17T18:00	15377	123	-53.2	-80.9	232	7
2023-08-17T18:00	15402	123	-53.2	-80.9	230	7
2023-08-17T18:00	15423	122	-53.3	-80.9	227	7
2023-08-17T18:00	15449	122	-53.4	-81.0	224	7
2023-08-17T18:00	15471	121	-53.6	-80.9	220	7
2023-08-17T18:00	15492	121	-53.6	-80.9	218	8
2023-08-17T18:00	15516	120	-53.6	-81.2	216	8
2023-08-17T18:00	15540	120	-53.7	-81.3	215	8
2023-08-17T18:00	15563	119	-53.7	-81.3	215	9
2023-08-17T18:00	15584	119	-53.6	-81.2	215	9
2023-08-17T18:00	15608	119	-53.7	-80.9	216	9
2023-08-17T18:00	15631	118	-53.9	-81.1	216	9
2023-08-17T18:00	15651	118	-54.0	-81.2	216	9
2023-08-17T18:00	15672	117	-54.2	-81.3	215	9
2023-08-17T18:00	15693	117	-54.2	-81.3	213	10
2023-08-17T18:00	15717	117	-54.3	-81.4	212	10
2023-08-17T18:00	15738	116	-54.3	-81.4	210	10
2023-08-17T18:00	15761	116	-54.5	-81.5	209	10
2023-08-17T18:00	15784	115	-54.6	-81.6	208	11
2023-08-17T18:00	15805	115	-54.7	-81.4	208	11
2023-08-17T18:00	15826	115	-54.7	-81.4	209	11
2023-08-17T18:00	15848	114	-54.9	-81.5	210	12
2023-08-17T18:00	15868	114	-55.1	-81.7	212	12
2023-08-17T18:00	15889	114	-55.2	-81.8	214	12
2023-08-17T18:00	15910	113	-55.3	-81.9	217	12
2023-08-17T18:00	15931	113	-55.5	-82.0	220	13
2023-08-17T18:00	15951	112	-55.5	-82.0	222	13
2023-08-17T18:00	15975	112	-55.5	-82.0	225	13
2023-08-17T18:00	15990	112	-55.6	-82.1	227	13
2023-08-17T18:00	16012	111	-55.6	-82.1	228	14
2023-08-17T18:00	16028	111	-55.7	-82.2	229	14
2023-08-17T18:00	16049	111	-55.7	-82.2	230	14
2023-08-17T18:00	16070	110	-55.8	-82.0	230	14
2023-08-17T18:00	16088	110	-55.9	-82.0	230	14
2023-08-17T18:00	16107	110	-56.0	-82.1	231	15
2023-08-17T18:00	16126	109	-56.2	-82.3	231	14
2023-08-17T18:00	16144	109	-56.2	-82.3	231	14
2023-08-17T18:00	16160	109	-56.2	-82.3	231	14
2023-08-17T18:00	16182	108	-56.3	-82.3	231	13
2023-08-17T18:00	16198	108	-56.2	-82.3	232	13
2023-08-17T18:00	16217	108	-56.3	-82.6	232	12
2023-08-17T18:00	16235	108	-56.3	-82.6	232	12
2023-08-17T18:00	16255	107	-56.3	-82.6	233	12
2023-08-17T18:00	16275	107	-56.2	-82.6	233	11
2023-08-17T18:00	16293	107	-55.9	-82.6	234	11
2023-08-17T18:00	16311	106	-55.7	-82.5	234	10
2023-08-17T18:00	16332	106	-55.7	-82.8	233	10
2023-08-17T18:00	16349	106	-55.7	-82.8	231	10
2023-08-17T18:00	16371	105	-55.3	-82.5	228	10
2023-08-17T18:00	16390	105	-55.1	-82.7	226	11
2023-08-17T18:00	16410	105	-55.0	-82.6	223	11
2023-08-17T18:00	16432	104	-55.0	-82.6	221	11
2023-08-17T18:00	16454	104	-55.1	-82.7	219	11
2023-08-17T18:00	16474	104	-55.2	-82.7	218	11
2023-08-17T18:00	16495	103	-55.3	-82.8	218	10
2023-08-17T18:00	16518	103	-55.1	-82.7	218	10
2023-08-17T18:00	16544	102	-55.0	-82.9	218	9
2023-08-17T18:00	16561	102	-54.6	-82.6	217	9
2023-08-17T18:00	16586	102	-54.4	-82.5	217	9
2023-08-17T18:00	16607	101	-54.5	-82.6	216	8
2023-08-17T18:00	16633	101	-54.6	-82.6	214	8
2023-08-17T18:00	16656	101	-54.7	-82.7	212	8
2023-08-17T18:00	16676	100	-54.8	-82.8	209	8
2023-08-17T18:00	16701	100	-54.7	-82.7	205	8
2023-08-17T18:00	16726	100	-54.6	-82.6	200	8
2023-08-17T18:00	16751	99	-54.5	-82.9	196	8
2023-08-17T18:00	16773	99	-54.5	-82.9	193	8
2023-08-17T18:00	16799	98	-54.5	-82.9	190	9
2023-08-17T18:00	16820	98	-54.1	-82.6	190	9
2023-08-17T18:00	16844	98	-53.9	-82.5	190	10
2023-08-17T18:00	16866	97	-54.0	-82.6	191	10
2023-08-17T18:00	16890	97	-54.1	-82.6	194	10
2023-08-17T18:00	16912	97	-54.2	-82.7	196	11
2023-08-17T18:00	16935	96	-54.2	-83.1	199	11
2023-08-17T18:00	16958	96	-54.1	-83.1	202	11
2023-08-17T18:00	16979	96	-54.0	-83.0	204	11
2023-08-17T18:00	17000	95	-53.9	-82.9	205	12
2023-08-17T18:00	17020	95	-54.0	-82.6	207	12
2023-08-17T18:00	17044	95	-54.1	-82.6	208	12
2023-08-17T18:00	17064	94	-54.3	-82.8	210	12
2023-08-17T18:00	17083	94	-54.5	-82.9	212	12
2023-08-17T18:00	17107	94	-54.6	-83.0	214	12
2023-08-17T18:00	17124	94	-54.7	-83.1	217	12
2023-08-17T18:00	17145	93	-54.8	-83.2	219	12
2023-08-17T18:00	17166	93	-54.8	-83.2	222	12
2023-08-17T18:00	17184	93	-54.9	-83.3	225	11
2023-08-17T18:00	17206	92	-54.9	-83.3	228	11
2023-08-17T18:00	17226	92	-54.9	-83.3	231	11
2023-08-17T18:00	17244	92	-55.0		235	11
2023-08-17T18:00	17263	92	-55.0		238	10
2023-08-17T18:00	17285	91	-55.1	-83.4	242	10
2023-08-17T18:00	17305	91	-55.0		245	10
2023-08-17T18:00	17322	91	-55.0		249	10
2023-08-17T18:00	17343	90	-55.0		252	9
2023-08-17T18:00	17363	90	-55.0		255	9
2023-08-17T18:00	17385	90	-54.9	-83.3	257	8
2023-08-17T18:00	17406	90	-54.9	-83.3	258	8
2023-08-17T18:00	17426	89	-54.9	-83.3	258	7
2023-08-17T18:00	17448	89	-54.9	-83.3	257	6
2023-08-17T18:00	17468	89	-54.8	-83.2	255	5
2023-08-17T18:00	17487	88	-55.0		253	4
2023-08-17T18:00	17510	88	-55.0	-83.7	251	3
2023-08-17T18:00	17532	88	-54.8	-83.6	245	2
2023-08-17T18:00	17550	88	-54.5	-83.4	229	1
2023-08-17T18:00	17573	87	-54.2	-83.1	197	1
2023-08-17T18:00	17595	87	-54.2	-83.1	170	1
2023-08-17T18:00	17616	87	-54.4	-83.3	160	2
2023-08-17T18:00	17638	86	-54.5	-83.4	156	2
2023-08-17T18:00	17658	86	-54.6	-83.4	154	3
2023-08-17T18:00	17680	86	-54.6	-83.0	153	3
2023-08-17T18:00	17706	85	-54.7	-83.1	152	4
2023-08-17T18:00	17726	85	-54.9	-83.3	152	4
2023-08-17T18:00	17753	85	-55.1	-83.4	151	5
2023-08-17T18:00	17772	85	-55.2	-83.5	151	6
2023-08-17T18:00	17800	84	-55.2	-83.5	152	7
2023-08-17T18:00	17820	84	-55.3	-83.6	153	7
2023-08-17T18:00	17845	84	-55.4	-83.6	155	8
2023-08-17T18:00	17871	83	-55.6	-83.4	158	9
2023-08-17T18:00	17893	83	-55.7	-83.5	161	9
2023-08-17T18:00	17918	83	-55.8	-83.6	163	10
2023-08-17T18:00	17941	82	-55.9	-83.6	165	10
2023-08-17T18:00	17964	82	-55.9	-84.0	166	11
2023-08-17T18:00	17985	82	-56.0	-84.1	167	12
2023-08-17T18:00	18010	81	-56.1	-84.2	168	12
2023-08-17T18:00	18032	81	-56.2	-84.2	169	13
2023-08-17T18:00	18053	81	-56.2	-83.9	170	13
2023-08-17T18:00	18079	81	-56.3	-83.9	171	13
2023-08-17T18:00	18100	80	-56.4	-84.0	172	14
2023-08-17T18:00	18122	80	-56.5	-84.1	173	14
2023-08-17T18:00	18147	80	-56.7	-84.2	175	14
2023-08-17T18:00	18169	79	-56.8	-84.3	178	13
2023-08-17T18:00	18194	79	-56.9	-84.4	181	13
2023-08-17T18:00	18218	79	-57.1	-84.2	185	13
2023-08-17T18:00	18238	79	-57.2	-84.3	188	13
2023-08-17T18:00	18259	78	-57.3	-84.4	192	12
2023-08-17T18:00	18283	78	-57.4	-84.8	196	12
2023-08-17T18:00	18311	78	-57.3	-84.7	199	11
2023-08-17T18:00	18329	77	-57.3	-84.7	202	10
2023-08-17T18:00	18355	77	-57.2	-84.6	206	9
2023-08-17T18:00	18378	77	-57.1	-84.6	209	8
2023-08-17T18:00	18398	77	-57.0	-84.8	212	7
2023-08-17T18:00	18423	76	-56.9	-84.8	215	7
2023-08-17T18:00	18446	76	-56.8	-84.7	217	6
2023-08-17T18:00	18468	76	-56.7	-84.6	216	5
2023-08-17T18:00	18491	75	-56.6	-84.5	213	5
2023-08-17T18:00	18518	75	-56.6	-84.5	208	4
2023-08-17T18:00	18540	75	-56.5	-84.5	201	4
2023-08-17T18:00	18562	75	-56.4	-84.4	195	4
2023-08-17T18:00	18585	74	-56.4	-84.4	191	4
2023-08-17T18:00	18607	74	-56.5	-84.5	187	4
2023-08-17T18:00	18628	74	-56.5	-84.5	185	5
2023-08-17T18:00	18651	74	-56.6	-84.5	184	5
2023-08-17T18:00	18670	73	-56.8	-84.3	184	5
2023-08-17T18:00	18696	73	-56.9	-84.4	185	5
2023-08-17T18:00	18717	73	-57.1	-84.6	186	6
2023-08-17T18:00	18737	73	-57.1	-84.6	188	6
2023-08-17T18:00	18759	72	-57.1	-84.6	189	6
2023-08-17T18:00	18783	72	-57.2	-85.0	191	6
2023-08-17T18:00	18805	72	-57.1	-84.9	193	6
2023-08-17T18:00	18826	72	-56.7	-84.6	196	7
2023-08-17T18:00	18847	71	-56.8	-84.7	200	7
2023-08-17T18:00	18871	71	-57.0	-84.8	205	7
2023-08-17T18:00	18892	71	-57.0	-84.8	210	7
2023-08-17T18:00	18915	71	-57.1	-84.9	215	6
2023-08-17T18:00	18937	70	-57.1	-84.9	218	6
2023-08-17T18:00	18956	70	-57.2	-85.0	219	6
2023-08-17T18:00	18979	70	-57.1	-84.9	217	6
2023-08-17T18:00	19001	70	-57.0	-84.8	213	5
2023-08-17T18:00	19024	69	-56.9	-84.8	207	5
2023-08-17T18:00	19047	69	-57.0	-84.8	201	5
2023-08-17T18:00	19068	69	-57.1	-84.9	197	5
2023-08-17T18:00	19091	69	-57.1	-84.9	194	5
2023-08-17T18:00	19110	68	-56.8	-85.1	194	5
2023-08-17T18:00	19132	68	-56.4	-84.8	196	5
2023-08-17T18:00	19157	68	-56.2	-84.6	200	4
2023-08-17T18:00	19179	68	-56.3	-84.7	206	4
2023-08-17T18:00	19198	68	-56.5	-84.9	214	4
2023-08-17T18:00	19223	67	-56.7	-85.0	221	4
2023-08-17T18:00	19247	67	-56.8	-85.1	225	4
2023-08-17T18:00	19270	67	-56.6	-84.9	226	4
2023-08-17T18:00	19292	67	-56.4	-84.8	223	4
2023-08-17T18:00	19314	66	-56.1	-84.6	216	4
2023-08-17T18:00	19336	66	-56.0	-84.9	210	5
2023-08-17T18:00	19361	66	-55.9	-84.8	206	5
2023-08-17T18:00	19380	66	-55.9	-84.4	204	6
2023-08-17T18:00	19403	65	-56.0	-84.5	205	7
2023-08-17T18:00	19423	65	-56.2	-84.6	206	8
2023-08-17T18:00	19447	65	-56.1	-84.6	208	8
2023-08-17T18:00	19467	65	-56.1	-84.6	210	8
2023-08-17T18:00	19487	65	-56.3	-84.7	211	9
2023-08-17T18:00	19509	64	-56.3	-84.7	211	8
2023-08-17T18:00	19530	64	-56.4	-84.8	211	8
2023-08-17T18:00	19552	64	-56.4	-84.8	209	7
2023-08-17T18:00	19573	64	-55.9	-84.8	206	6
2023-08-17T18:00	19596	63	-55.6	-84.6	201	5
2023-08-17T18:00	19621	63	-55.3	-84.4	194	4
2023-08-17T18:00	19646	63	-55.3	-84.9	182	3
2023-08-17T18:00	19665	63	-55.4	-84.9	164	3
2023-08-17T18:00	19690	63	-55.1	-84.7	138	2
2023-08-17T18:00	19714	62	-54.9	-84.6	117	3
2023-08-17T18:00	19732	62	-54.8	-84.5	106	3
2023-08-17T18:00	19753	62	-54.6	-84.3	102	4
2023-08-17T18:00	19778	62	-54.5	-84.3	102	4
2023-08-17T18:00	19802	61	-54.6	-84.3	106	4
2023-08-17T18:00	19825	61	-54.3	-84.1	112	4
2023-08-17T18:00	19848	61	-54.1	-84.0	120	4
2023-08-17T18:00	19866	61	-54.2	-84.0	129	4
2023-08-17T18:00	19892	61	-54.2	-84.0	137	4
2023-08-17T18:00	19913	60	-54.2	-84.0	142	4
2023-08-17T18:00	19936	60	-54.3	-84.1	141	4
2023-08-17T18:00	19958	60	-54.3	-84.1	135	4
2023-08-17T18:00	19976	60	-54.1	-84.0	126	4
2023-08-17T18:00	19997	60	-53.9	-83.8	116	5
2023-08-17T18:00	20025	59	-53.9	-83.8	109	5
2023-08-17T18:00	20043	59	-53.9	-83.8	104	6
2023-08-17T18:00	20063	59	-54.0	-83.9	103	7
2023-08-17T18:00	20089	59	-54.0	-83.9	103	7
2023-08-17T18:00	20112	59	-54.1	-84.0	105	7
2023-08-17T18:00	20134	58	-54.1	-84.0	109	7
2023-08-17T18:00	20160	58	-54.2	-84.0	113	7
2023-08-17T18:00	20184	58	-54.0	-83.9	117	7
2023-08-17T18:00	20206	58	-54.1	-83.5	122	7
2023-08-17T18:00	20230	57	-54.3	-83.6	127	7
2023-08-17T18:00	20253	57	-54.5	-83.8	131	7
2023-08-17T18:00	20277	57	-54.7	-83.9	135	7
2023-08-17T18:00	20299	57	-54.8	-84.0	139	8
2023-08-17T18:00	20323	57	-54.9	-84.1	143	8
2023-08-17T18:00	20351	56	-54.9	-84.1	147	8
2023-08-17T18:00	20372	56	-55.0	-84.2	151	8
2023-08-17T18:00	20397	56	-55.2	-83.9	155	8
2023-08-17T18:00	20423	56	-55.3	-84.0	159	8
2023-08-17T18:00	20446	56	-55.4	-84.0	162	8
2023-08-17T18:00	20469	55	-55.6	-84.2	166	8
2023-08-17T18:00	20494	55	-55.7	-84.3	169	9
2023-08-17T18:00	20520	55	-55.8	-84.3	172	9
2023-08-17T18:00	20545	55	-55.9	-84.4	175	9
2023-08-17T18:00	20567	54	-55.9	-84.4	177	9
2023-08-17T18:00	20593	54	-55.8	-84.3	180	9
2023-08-17T18:00	20621	54	-55.8	-84.3	182	9
2023-08-17T18:00	20646	54	-55.9	-84.4	184	9
2023-08-17T18:00	20668	54	-56.1	-84.6	186	9
2023-08-17T18:00	20694	53	-56.1	-84.6	189	8
2023-08-17T18:00	20718	53	-56.1	-84.6	190	8
2023-08-17T18:00	20745	53	-55.9	-84.4	191	7
2023-08-17T18:00	20767	53	-56.1	-84.6	192	6
2023-08-17T18:00	20791	53	-56.1	-84.6	191	5
2023-08-17T18:00	20815	52	-55.9	-84.4	190	4
2023-08-17T18:00	20841	52	-55.9	-84.8	186	4
2023-08-17T18:00	20868	52	-55.9	-84.8	177	3
2023-08-17T18:00	20893	52	-55.8	-84.8	164	3
2023-08-17T18:00	20915	52	-55.6	-84.6	147	3
2023-08-17T18:00	20940	51	-55.7	-84.7	132	3
2023-08-17T18:00	20963	51	-55.8	-84.8	120	4
2023-08-17T18:00	20990	51	-55.8	-84.8	111	5
2023-08-17T18:00	21010	51	-55.8	-84.8	105	5
2023-08-17T18:00	21034	51	-55.7	-84.7	103	6
2023-08-17T18:00	21058	50	-55.7	-84.7	102	6
2023-08-17T18:00	21081	50	-55.7	-84.7	104	7
2023-08-17T18:00	21112	50	-55.7	-84.7	107	7
2023-08-17T18:00	21125	50	-55.6	-84.6	111	7
2023-08-17T18:00	21155	50	-55.5	-84.5	113	7
2023-08-17T18:00	21179	50	-55.7	-84.3	115	7
2023-08-17T18:00	21207	49	-55.8	-84.3	116	7
2023-08-17T18:00	21231	49	-56.0	-84.5	116	8
2023-08-17T18:00	21250	49	-56.1	-84.6	116	8
2023-08-17T18:00	21276	49	-56.2	-84.6	117	8
2023-08-17T18:00	21300	49	-56.3	-84.7	119	8
2023-08-17T18:00	21325	48	-56.2	-84.6	122	8
2023-08-17T18:00	21352	48	-56.1	-84.6	126	8
2023-08-17T18:00	21374	48	-56.0	-84.5	130	8
2023-08-17T18:00	21396	48	-56.2	-84.6	132	8
2023-08-17T18:00	21418	48	-56.2	-84.6	132	8
2023-08-17T18:00	21444	47	-56.3	-84.7	131	7
2023-08-17T18:00	21466	47	-55.9	-84.8	128	8
2023-08-17T18:00	21494	47	-55.8	-84.8	125	8
2023-08-17T18:00	21519	47	-55.8	-84.8	122	8
2023-08-17T18:00	21542	47	-55.8	-84.8	119	8
2023-08-17T18:00	21570	47	-55.9	-84.8	117	8
2023-08-17T18:00	21593	46	-56.0	-84.9	115	9
2023-08-17T18:00	21617	46	-56.0	-84.9	114	9
2023-08-17T18:00	21647	46	-56.1	-85.0	115	9
2023-08-17T18:00	21670	46	-55.9	-84.8	117	9
2023-08-17T18:00	21696	46	-55.7	-84.7	121	8
2023-08-17T18:00	21723	45	-55.5	-84.5	126	8
2023-08-17T18:00	21746	45	-55.7	-84.7	132	8
2023-08-17T18:00	21775	45	-55.8	-84.8	138	8
2023-08-17T18:00	21800	45	-56.0	-84.9	143	8
2023-08-17T18:00	21823	45	-55.9	-84.8	148	8
2023-08-17T18:00	21849	45	-55.8	-84.8	153	8
2023-08-17T18:00	21874	44	-55.7	-84.7	156	7
2023-08-17T18:00	21898	44	-55.8	-84.8	160	7
2023-08-17T18:00	21929	44	-55.9	-84.8	164	7
2023-08-17T18:00	21952	44	-56.0	-84.5	168	6
2023-08-17T18:00	21973	44	-56.0	-84.5	171	6
2023-08-17T18:00	22004	43	-56.0	-84.9	175	6
2023-08-17T18:00	22030	43	-56.0	-84.9	177	5
2023-08-17T18:00	22054	43	-55.9	-84.8	180	5
2023-08-17T18:00	22080	43	-55.7	-84.7	182	4
2023-08-17T18:00	22108	43	-55.7	-84.7	186	4
2023-08-17T18:00	22133	43	-55.8	-84.8	191	4
2023-08-17T18:00	22161	42	-55.9	-84.4	196	4
2023-08-17T18:00	22180	42	-56.1	-84.6	202	3
2023-08-17T18:00	22209	42	-56.2	-84.6	208	3
2023-08-17T18:00	22233	42	-56.3	-84.7	212	3
2023-08-17T18:00	22255	42	-56.4	-84.8	217	3
2023-08-17T18:00	22281	42	-56.6	-84.9	222	2
2023-08-17T18:00	22304	41	-56.6	-84.9	229	2
2023-08-17T18:00	22327	41	-56.6	-84.9	241	1
2023-08-17T18:00	22352	41	-56.5	-84.9	264	1
2023-08-17T18:00	22378	41	-56.2	-85.1	310	1
2023-08-17T18:00	22402	41	-56.0	-84.9	358	1
2023-08-17T18:00	22422	41	-56.0	-84.9	24	1
2023-08-17T18:00	22450	41	-56.1	-85.0	40	2
2023-08-17T18:00	22473	40	-56.2	-85.1	52	2
2023-08-17T18:00	22500	40	-56.4	-84.8	61	3
2023-08-17T18:00	22521	40	-56.5	-84.9	69	3
2023-08-17T18:00	22535	40	-56.5	-85.3	76	4
2023-08-17T18:00	22562	40	-56.2	-85.1	84	4
2023-08-17T18:00	22591	40	-56.0	-84.9	93	5
2023-08-17T18:00	22615	40	-55.9	-85.3	102	5
2023-08-17T18:00	22636	39	-55.5	-85.0	112	5
2023-08-17T18:00	22661	39	-55.2	-85.3	120	4
2023-08-17T18:00	22679	39	-54.9	-85.1	127	4
2023-08-17T18:00	22705	39	-54.3	-84.6	132	4
2023-08-17T18:00	22726	39	-54.1	-84.5	136	3
2023-08-17T18:00	22755	39	-54.0	-84.4	139	2
2023-08-17T18:00	22780	39	-54.0	-84.4	141	2
2023-08-17T18:00	22800	38	-54.0	-84.4	139	2
2023-08-17T18:00	22830	38	-54.1	-84.0	126	1
2023-08-17T18:00	22846	38	-54.1	-84.0	97	1
2023-08-17T18:00	22875	38	-54.1	-84.0	75	2
2023-08-17T18:00	22895	38	-53.9	-84.3	68	2
2023-08-17T18:00	22913	38	-53.8	-84.2	67	3
2023-08-17T18:00	22945	38	-53.8	-84.2	68	4
2023-08-17T18:00	22971	37	-53.8	-84.2	70	5
2023-08-17T18:00	22998	37	-53.6	-84.1	72	6
2023-08-17T18:00	23026	37	-53.6	-84.1	75	7
2023-08-17T18:00	23047	37	-53.6	-84.1	77	8
2023-08-17T18:00	23074	37	-53.6	-84.1	80	9
2023-08-17T18:00	23095	37	-53.6	-83.6	83	9
2023-08-17T18:00	23121	37	-53.6	-83.6	86	10
2023-08-17T18:00	23148	36	-53.6	-83.6	88	10
2023-08-17T18:00	23175	36	-53.8	-83.7	90	11
2023-08-17T18:00	23197	36	-53.9	-83.8	92	11
2023-08-17T18:00	23226	36	-54.1	-84.0	95	11
2023-08-17T18:00	23255	36	-54.1	-84.0	97	11
2023-08-17T18:00	23277	36	-54.1	-84.0	99	11
2023-08-17T18:00	23303	35	-54.1	-84.0	100	10
2023-08-17T18:00	23330	35	-54.3	-83.6	102	10
2023-08-17T18:00	23355	35	-54.5	-83.8	104	10
2023-08-17T18:00	23379	35	-54.6	-83.9	107	9
2023-08-17T18:00	23406	35	-54.8	-84.0	109	8
2023-08-17T18:00	23432	35	-54.9	-84.1	112	8
2023-08-17T18:00	23462	35	-55.0	-84.2	115	8
2023-08-17T18:00	23486	34	-55.0	-84.2	117	8
2023-08-17T18:00	23516	34	-55.0	-84.6	118	8
2023-08-17T18:00	23542	34	-54.9	-84.6	119	8
2023-08-17T18:00	23571	34	-54.7	-84.4	120	8
2023-08-17T18:00	23592	34	-54.6	-84.3	122	8
2023-08-17T18:00	23619	34	-54.5	-84.3	123	8
2023-08-17T18:00	23644	34	-54.3	-84.1	125	7
2023-08-17T18:00	23669	34	-54.3	-84.1	126	6
2023-08-17T18:00	23697	33	-54.4	-84.2	127	5
2023-08-17T18:00	23720	33	-54.5	-84.3	127	4
2023-08-17T18:00	23746	33	-54.5	-84.3	125	3
2023-08-17T18:00	23781	33	-54.7	-84.4	119	3
2023-08-17T18:00	23801	33	-54.6	-84.3	109	2
2023-08-17T18:00	23831	33	-54.4	-84.2	93	2
2023-08-17T18:00	23850	33	-54.2	-84.0	80	3
2023-08-17T18:00	23880	32	-54.1	-84.5	75	3
2023-08-17T18:00	23907	32	-54.0	-84.4	75	4
2023-08-17T18:00	23932	32	-53.8	-84.2	76	5
2023-08-17T18:00	23959	32	-53.7	-84.2	78	6
2023-08-17T18:00	23985	32	-53.6	-84.1	80	7
2023-08-17T18:00	24006	32	-53.5	-84.0	82	7
2023-08-17T18:00	24032	32	-53.6	-84.1	83	7
2023-08-17T18:00	24063	32	-53.6	-84.1	83	7
2023-08-17T18:00	24092	31	-53.8	-83.7	82	7
2023-08-17T18:00	24119	31	-53.9	-83.8	81	7
2023-08-17T18:00	24144	31	-54.0	-83.9	79	6
2023-08-17T18:00	24170	31	-54.2	-84.0	77	6
2023-08-17T18:00	24195	31	-54.2	-84.0	75	6
2023-08-17T18:00	24225	31	-54.3	-84.1	74	6
2023-08-17T18:00	24248	31	-54.4	-84.2	73	6
2023-08-17T18:00	24271	30	-54.4	-84.2	72	7
2023-08-17T18:00	24303	30	-54.3	-84.1	72	7
2023-08-17T18:00	24328	30	-54.3	-84.1	71	7
2023-08-17T18:00	24355	30	-54.2	-84.0	72	8
2023-08-17T18:00	24381	30	-54.4	-84.2	72	8
2023-08-17T18:00	24408	30	-54.4	-84.2	74	8
2023-08-17T18:00	24439	30	-54.4	-84.2	77	8
2023-08-17T18:00	24465	30	-54.5	-84.3	80	8
2023-08-17T18:00	24497	29	-54.5	-84.3	84	7
2023-08-17T18:00	24516	29	-54.7	-84.4	88	7
2023-08-17T18:00	24554	29	-54.7	-84.4	92	7
2023-08-17T18:00	24569	29	-54.6	-84.3	98	6
2023-08-17T18:00	24603	29	-54.6	-84.3	103	6
2023-08-17T18:00	24625	29	-54.7	-84.4	109	6
2023-08-17T18:00	24655	29	-54.7	-84.4	113	6
2023-08-17T18:00	24678	29	-54.8	-84.5	116	6
2023-08-17T18:00	24702	29	-54.7	-84.4	115	5
2023-08-17T18:00	24726	28	-54.6	-84.3	113	5
2023-08-17T18:00	24762	28	-54.4	-84.2	109	5
2023-08-17T18:00	24791	28	-54.3	-84.6	105	4
2023-08-17T18:00	24810	28	-54.2	-84.5	100	4
2023-08-17T18:00	24840	28	-54.2	-84.5	96	4
2023-08-17T18:00	24867	28	-54.2	-84.5	93	4
2023-08-17T18:00	24892	28	-54.4	-84.7	91	4
2023-08-17T18:00	24914	28	-54.5	-84.3	92	4
2023-08-17T18:00	24942	27	-54.5	-84.3	97	3
2023-08-17T18:00	24981	27	-54.4	-84.2	106	3
2023-08-17T18:00	25002	27	-54.6	-84.3	120	2
2023-08-17T18:00	25027	27	-54.7	-84.4	134	2
2023-08-17T18:00	25057	27	-54.8	-84.5	146	2
2023-08-17T18:00	25082	27	-54.8	-84.5	155	2
2023-08-17T18:00	25111	27	-54.8	-84.5	163	2
2023-08-17T18:00	25137	27	-54.6	-84.3	170	2
2023-08-17T18:00	25162	27	-54.4	-84.7	182	1
2023-08-17T18:00	25188	26	-54.3	-84.6	210	1
2023-08-17T18:00	25210	26	-54.3	-84.6	289	1
2023-08-17T18:00	25238	26	-54.3	-84.6	332	1
2023-08-17T18:00	25268	26	-54.2	-84.5	349	2
2023-08-17T18:00	25293	26	-54.1	-84.5	359	2
2023-08-17T18:00	25312	26	-53.9	-84.3	8	3
2023-08-17T18:00	25341	26	-53.8	-84.2	16	4
2023-08-17T18:00	25373	26	-53.8	-84.2	23	5
2023-08-17T18:00	25400	26	-53.8	-84.2	30	6
2023-08-17T18:00	25426	25	-53.6	-84.1	37	6
2023-08-17T18:00	25452	25	-53.3	-84.4	42	7
2023-08-17T18:00	25479	25	-53.1	-84.3	47	8
2023-08-17T18:00	25494	25	-52.7	-84.0	51	9
2023-08-17T18:00	25536	25	-52.7	-84.0	54	10
2023-08-17T18:00	25556	25	-52.8	-84.1	57	11
2023-08-17T18:00	25582	25	-52.8	-84.1	60	11
2023-08-17T18:00	25612	25	-52.6	-83.9	63	12
2023-08-17T18:00	25634	25	-52.3	-83.7	65	13
2023-08-17T18:00	25658	25	-52.1	-83.5	68	13
2023-08-17T18:00	25688	25	-52.1	-83.5	71	13
2023-08-17T18:00	25706	24	-52.2	-83.6	75	13
2023-08-17T18:00	25731	24	-52.2	-83.6	78	12
2023-08-17T18:00	25762	24	-52.3	-83.7	82	12
2023-08-17T18:00	25781	24	-52.2	-83.6	85	11
2023-08-17T18:00	25807	24	-52.0	-83.5	89	11
2023-08-17T18:00	25838	24	-51.9	-83.4	92	11
2023-08-17T18:00	25857	24	-51.8	-83.3	96	10
2023-08-17T18:00	25890	24	-51.9	-83.4	100	10
2023-08-17T18:00	25925	24	-51.9	-83.4	104	10
2023-08-17T18:00	25939	24	-52.0	-83.5	107	10
2023-08-17T18:00	25981	23	-52.0	-83.5	109	10
2023-08-17T18:00	26004	23	-51.7	-83.2	110	10
2023-08-17T18:00	26031	23	-51.4	-83.0	109	10
2023-08-17T18:00	26068	23	-51.4	-83.0	108	10
2023-08-17T18:00	26091	23	-51.6	-83.2	107	10
2023-08-17T18:00	26115	23	-51.6	-83.2	107	10
2023-08-17T18:00	26148	23	-51.6	-83.2	108	10
2023-08-17T18:00	26180	23	-51.7	-83.2	110	10
2023-08-17T18:00	26200	23	-51.8	-83.3	113	10
2023-08-17T18:00	26240	23	-51.9	-83.4	116	9
2023-08-17T18:00	26272	22	-52.0	-82.9	119	9
2023-08-17T18:00	26291	22	-52.1	-83.0	123	9
2023-08-17T18:00	26319	22	-52.2	-83.1	126	8
2023-08-17T18:00	26348	22	-52.3	-83.1	129	8
2023-08-17T18:00	26381	22	-52.4	-83.2	131	8
2023-08-17T18:00	26404	22	-52.6	-83.3	131	7
2023-08-17T18:00	26442	22	-52.7	-83.4	130	7
2023-08-17T18:00	26468	22	-52.7	-83.4	128	6
2023-08-17T18:00	26494	22	-52.7	-83.4	125	6
2023-08-17T18:00	26519	22	-52.6	-83.3	122	6
2023-08-17T18:00	26546	21	-52.5	-83.8	119	6
2023-08-17T18:00	26577	21	-52.4	-83.8	118	6
2023-08-17T18:00	26602	21	-52.4	-83.8	117	6
2023-08-17T18:00	26638	21	-52.3	-83.7	116	6
2023-08-17T18:00	26668	21	-52.1	-83.5	115	6
2023-08-17T18:00	26685	21	-52.0	-83.5	114	6
2023-08-17T18:00	26721	21	-52.0	-83.5	112	6
2023-08-17T18:00	26748	21	-52.0	-83.5	110	6
2023-08-17T18:00	26773	21	-51.9	-83.4	108	7
2023-08-17T18:00	26793	21	-51.9	-83.4	108	7
2023-08-17T18:00	26817	21	-51.8	-83.3	108	7
2023-08-17T18:00	26841	20	-51.7	-83.2	109	7
2023-08-17T18:00	26860	20	-51.6	-83.2	112	7
2023-08-17T18:00	26897	20	-51.4	-83.0	114	7
2023-08-17T18:00	26925	20	-51.4	-83.6	118	6
2023-08-17T18:00	26942	20	-51.3	-83.6	121	6
2023-08-17T18:00	26965	20	-51.0	-83.3	124	6
2023-08-17T18:00	26991	20	-50.8	-83.2	127	5
2023-08-17T18:00	27023	20	-50.4	-82.9	128	5
2023-08-17T18:00	27041	20	-50.1	-83.4	129	4
2023-08-17T18:00	27073	20	-49.8	-83.2	129	4
2023-08-17T18:00	27092	20	-49.6	-83.0	126	3
2023-08-17T18:00	27109	20	-49.5	-82.9	120	2
2023-08-17T18:00	27137	20	-49.4	-82.9	109	2
2023-08-17T18:00	27157	20	-49.3	-82.8	89	1
2023-08-17T18:00	27184	19	-49.2	-82.7	58	1
2023-08-17T18:00	27202	19	-49.0	-82.6	32	1
2023-08-17T18:00	27231	19	-48.7	-82.4	21	2
2023-08-17T18:00	27256	19	-48.5	-82.2	20	2
2023-08-17T18:00	27276	19	-48.4	-82.2	25	3
2023-08-17T18:00	27302	19	-48.2	-82.0	32	3
2023-08-17T18:00	27331	19	-48.0	-81.9	38	4
2023-08-17T18:00	27349	19	-48.1	-81.9	45	4
2023-08-17T18:00	27382	19	-48.1	-81.9	51	5
2023-08-17T18:00	27406	19	-48.0	-81.9	57	5
2023-08-17T18:00	27434	19	-47.8	-81.7	63	4
2023-08-17T18:00	27468	19	-47.7	-81.6	65	4
2023-08-17T18:00	27498	19	-47.5	-81.5	64	4
2023-08-17T18:00	27525	18	-47.6	-81.6	60	4
2023-08-17T18:00	27543	18	-47.6	-81.6	54	4
2023-08-17T18:00	27576	18	-47.5	-81.5	49	5
2023-08-17T18:00	27605	18	-47.2	-81.3	47	5
2023-08-17T18:00	27627	18	-47.1	-81.2	46	5
2023-08-17T18:00	27663	18	-47.1	-81.2	47	5
2023-08-17T18:00	27688	18	-47.1	-81.2	47	6
2023-08-17T18:00	27727	18	-47.2	-81.3	45	6
2023-08-17T18:00	27764	18	-47.2	-81.3	43	6
2023-08-17T18:00	27804	18	-47.2	-81.3	40	7
2023-08-17T18:00	27817	18	-47.3	-81.4	38	7
2023-08-17T18:00	27844	18	-47.4	-81.4	36	8
2023-08-17T18:00	27875	17	-47.4	-81.4	36	8
2023-08-17T18:00	27911	17	-47.4	-81.4	36	8
2023-08-17T18:00	27947	17	-47.4	-81.4	37	8
2023-08-17T18:00	27973	17	-47.4	-81.4	39	9
2023-08-17T18:00	28011	17	-47.3	-81.4	40	9
2023-08-17T18:00	28040	17	-47.4	-81.4	41	9
2023-08-17T18:00	28070	17	-47.4	-81.4	42	9
2023-08-17T18:00	28100	17	-47.4	-81.4	42	9
2023-08-17T18:00	28132	17	-47.3	-81.4	43	9
2023-08-17T18:00	28172	17	-47.4	-81.4	45	9
2023-08-17T18:00	28204	17	-47.4	-81.4	47	9
2023-08-17T18:00	28222	17	-47.4	-81.4	51	8
2023-08-17T18:00	28251	17	-47.3	-81.4	54	8
2023-08-17T18:00	28281	16	-47.3	-81.4	58	8
2023-08-17T18:00	28324	16	-47.2	-81.3	61	8
2023-08-17T18:00	28338	16	-47.1	-81.2	63	8
2023-08-17T18:00	28365	16	-47.0	-81.1	65	7
2023-08-17T18:00	28392	16	-46.8	-81.8	66	7
2023-08-17T18:00	28415	16	-46.4	-81.5	67	7
2023-08-17T18:00	28451	16	-46.1	-81.3	69	6
2023-08-17T18:00	28470	16	-46.0	-81.2	69	6
2023-08-17T18:00	28502	16	-45.7	-81.0	69	6
2023-08-17T18:00	28529	16	-45.6	-80.9	68	6
2023-08-17T18:00	28552	16	-45.5	-80.9	68	6
2023-08-17T18:00	28581	16	-45.5	-80.9	68	6
2023-08-17T18:00	28607	16	-45.5	-80.9	68	6
2023-08-17T18:00	28637	16	-45.4	-80.8	68	6
2023-08-17T18:00	28649	16	-45.3	-80.7	67	6
2023-08-17T18:00	28687	16	-45.2	-80.7	65	5
2023-08-17T18:00	28706	15	-44.9	-80.4	61	5
2023-08-17T18:00	28737	15	-44.5	-80.1	57	5
2023-08-17T18:00	28768	15	-44.3	-80.0	51	5
2023-08-17T18:00	28792	15	-44.2	-79.9	47	5
2023-08-17T18:00	28818	15	-44.1	-79.9	43	5
2023-08-17T18:00	28855	15	-44.2	-79.9	42	5
2023-08-17T18:00	28857	15	-44.3	-80.0	43	5
2023-08-17T18:00	28902	15	-44.4	-80.1	45	5
2023-08-17T18:00	28926	15	-44.4	-80.1	46	5
2023-08-17T18:00	28954	15	-44.5	-80.1	46	5
2023-08-17T18:00	28981	15	-44.5	-80.1	45	6
2023-08-17T18:00	28996	15	-44.3	-80.0	43	6
2023-08-17T18:00	29028	15	-44.2	-79.9	42	7
2023-08-17T18:00	29062	15	-44.1	-79.9	43	8
2023-08-17T18:00	29097	15	-44.1	-79.9	46	8
2023-08-17T18:00	29122	15	-43.9	-79.7	49	9
2023-08-17T18:00	29155	14	-43.7	-79.6	52	9
2023-08-17T18:00	29172	14	-43.6	-79.5	55	10
2023-08-17T18:00	29205	14	-43.7	-79.6	57	10
2023-08-17T18:00	29245	14	-43.8	-79.6	59	10
2023-08-17T18:00	29263	14	-43.7	-79.6	61	11
2023-08-17T18:00	29301	14	-43.6	-79.5	63	11
2023-08-17T18:00	29337	14	-43.5	-79.4	65	11
2023-08-17T18:00	29362	14	-43.5	-79.4	66	10
2023-08-17T18:00	29377	14	-43.6	-79.5	68	10
2023-08-17T18:00	29421	14	-43.7	-79.6	70	9
2023-08-17T18:00	29445	14	-43.9	-79.7	71	9
2023-08-17T18:00	29472	14	-43.9	-79.7	72	8
2023-08-17T18:00	29499	14	-44.0	-79.8	71	8
2023-08-17T18:00	29532	14	-44.1	-79.9	69	8
2023-08-17T18:00	29554	14	-44.2	-79.9	68	7
2023-08-17T18:00	29584	14	-44.3	-80.0	67	7
2023-08-17T18:00	29616	14	-44.2	-79.9	68	7
2023-08-17T18:00	29645	13	-44.2	-79.9	71	7
2023-08-17T18:00	29674	13	-44.0	-79.8	75	6
2023-08-17T18:00	29702	13	-43.9	-80.7	78	6
2023-08-17T18:00	29732	13	-43.8	-80.6	79	5
2023-08-17T18:00	29752	13	-43.7	-80.5	78	4
2023-08-17T18:00	29768	13	-43.7	-80.5	74	4
2023-08-17T18:00	29819	13	-43.7	-80.5	67	3
2023-08-17T18:00	29840	13	-43.8	-80.6	58	3
2023-08-17T18:00	29848	13	-43.8	-80.6	52	3
2023-08-17T18:00	29879	13	-43.8	-80.6	47	3
2023-08-17T18:00	29909	13	-43.8	-80.6	44	4
2023-08-17T18:00	29928	13	-43.7	-80.5	41	4
2023-08-17T18:00	29972	13	-43.6	-80.4	40	5
2023-08-17T18:00	29980	13	-43.6	-80.4	40	5
2023-08-17T18:00	30018	13	-43.6	-80.4	43	6
2023-08-17T18:00	30046	13	-43.6	-80.4	47	7
2023-08-17T18:00	30065	13	-43.5	-80.4	52	7
2023-08-17T18:00	30096	13	-43.3	-80.2	58	8
2023-08-17T18:00	30107	13	-43.2	-80.2	63	9
2023-08-17T18:00	30138	12	-43.2	-80.2	67	9
2023-08-17T18:00	30176	12	-43.2	-80.2	70	9
2023-08-17T18:00	30188	12	-43.1	-80.1	72	9
2023-08-17T18:00	30217	12	-43.1	-80.1	72	9
2023-08-17T18:00	30230	12	-43.0	-80.0	71	9
2023-08-17T18:00	30263	12	-42.9	-80.0	69	9
2023-08-17T18:00	30302	12	-43.0	-80.0	66	8
2023-08-17T18:00	30324	12	-42.9	-80.0	63	8
2023-08-17T18:00	30358	12	-42.8	-79.9	60	8
2023-08-17T18:00	30389	12	-42.8	-79.9	57	8
2023-08-17T18:00	30397	12	-42.8	-79.9	54	8
2023-08-17T18:00	30437	12	-42.7	-79.8	51	8
2023-08-17T18:00	30467	12	-42.6	-79.7	49	8
2023-08-17T18:00	30496	12	-42.5	-79.7	48	9
2023-08-17T18:00	30528	12	-42.6	-79.7	49	10
2023-08-17T18:00	30554	12	-42.6	-79.7	50	10
2023-08-17T18:00	30590	12	-42.5	-79.7	53	11
2023-08-17T18:00	30636	12	-42.4	-79.6	56	11
2023-08-17T18:00	30660	12	-42.3	-79.5	60	12
2023-08-17T18:00	30695	12	-42.3	-79.5	65	12
2023-08-17T18:00	30731	11	-42.4	-79.6	70	12
2023-08-17T18:00	30754	11	-42.6	-79.7	76	12
2023-08-17T18:00	30807	11	-42.8	-79.9	81	12
2023-08-17T18:00	30834	11	-43.0	-80.0	86	12
2023-08-17T18:00	30876	11	-43.0	-80.0	89	12
2023-08-17T18:00	30926	11	-42.8	-79.9	90	12
2023-08-17T18:00	30930	11	-42.6	-79.7	90	11
2023-08-17T18:00	30994	11	-42.3	-79.5	88	10
2023-08-17T18:00	31027	11	-42.0	-79.3	86	10
2023-08-17T18:00	31068	11	-41.9	-79.2	87	10
2023-08-17T18:00	31116	11	-41.8	-79.2	89	10
2023-08-17T18:00	31140	11	-41.7	-79.1	92	10
2023-08-17T18:00	31185	11	-41.7	-79.1	94	11
2023-08-17T18:00	31227	11	-41.7	-79.1	96	11
2023-08-17T18:00	31232	11	-41.7	-79.1	98	12
2023-08-17T18:00	31274	11	-41.7	-79.1	100	12
2023-08-17T18:00	31286	11	-41.8	-79.2	101	12
2023-08-17T18:00	31334	10	-41.7	-79.1	102	12
2023-08-17T18:00	31366	10	-41.7	-79.1	102	11
2023-08-17T18:00	31397	10	-41.4	-80.0	103	10
2023-08-17T18:00	31413	10	-41.3	-79.9	102	10
2023-08-17T18:00	31438	10	-41.3	-79.9	101	8
2023-08-17T18:00	31477	10	-41.4	-80.0	99	7
2023-08-17T18:00	31484	10	-41.3	-79.9	96	6
2023-08-17T18:00	31512	10	-41.2	-79.9	90	5
2023-08-17T18:00	31540	10	-41.2	-79.9	81	4
2023-08-17T18:00	31568	10	-41.0	-79.7	67	3
2023-08-17T18:00	31581	10	-40.6	-79.5	49	3
2023-08-17T18:00	31613	10	-40.4	-79.3	35	3
2023-08-17T18:00	31647	10	-40.2	-79.2	29	4
2023-08-17T18:00	31661	10	-40.1	-79.1	27	5
2023-08-17T18:00	31672	10	-39.9	-79.0	27	6
2023-08-17T18:00	31763	10	-39.8	-78.9	29	7
2023-08-17T18:00	31778	10	-39.6	-78.8	37	9
2023-08-17T18:00	31806	10	-39.7	-78.8	41	9
2023-08-17T18:00	31827	10	-39.6	-78.8	45	9
2023-08-17T18:00	31861	10	-39.5	-78.7	49	9
2023-08-17T18:00	31866	10	-39.5	-78.7	54	10
2023-08-17T18:00	31901	10	-39.6	-78.8	59	10
2023-08-17T18:00	31936	10	-39.6	-78.8	64	10
2023-08-17T18:00	31952	10	-39.7	-78.8	69	10
2023-08-17T18:00	31983	10	-39.4	-78.6	73	10
2023-08-17T18:00	32013	9	-39.3	-78.5	78	10
2023-08-17T18:00	32035	9	-39.1	-78.4	82	9
2023-08-17T18:00	32075	9	-38.7	-78.1	85	8
2023-08-17T18:00	32086	9	-38.5	-78.0	86	8
2023-08-17T18:00	32113	9	-38.3	-77.9	86	7
2023-08-17T18:00	32144	9	-37.9	-77.6	84	7
2023-08-17T18:00	32167	9	-37.7	-77.4	81	7
2023-08-17T18:00	32220	9	-37.5	-77.3	78	7
2023-08-17T18:00	32233	9	-36.8	-76.8	73	9
2023-08-17T18:00	32299	9	-36.5	-76.6	71	10
2023-08-17T18:00	32314	9	-36.0	-76.3	69	10
2023-08-17T18:00	32329	9	-35.7	-76.1	67	11
2023-08-17T18:00	32412	9	-35.5	-75.9	66	12
2023-08-17T18:00	32414	9	-35.2	-75.7	67	13
2023-08-17T18:00	32529	9	-35.0	-75.6	71	13
2023-08-17T18:00	32556	9	-35.1	-75.6	76	13
2023-08-17T18:00	32589	9	-35.2	-75.7	78	12
2023-08-17T18:00	32608	9	-35.3	-75.8	81	12
2023-08-17T18:00	32634	9	-35.3	-75.8	84	12
2023-08-17T18:00	32676	9	-35.4	-75.8	87	12
2023-08-17T18:00	32712	9	-35.3	-75.8	90	12
2023-08-17T18:00	32746	9	-35.3	-75.8	91	12
2023-08-17T18:00	32754	9	-35.3	-75.8	91	12
2023-08-17T18:00	32778	8	-35.4	-75.8	90	12
2023-08-17T18:00	32827	8	-35.5	-75.9	87	12
2023-08-17T18:00	32861	8	-35.6	-76.0	85	12
2023-08-17T18:00	32888	8	-35.7	-76.1	82	12
2023-08-17T18:00	32908	8	-35.8	-76.1	80	12
2023-08-17T18:00	32940	8	-35.7	-76.1	79	12
2023-08-17T18:00	32993	8	-35.7	-76.1	78	12
2023-08-17T18:00	33020	8	-35.6	-76.0	76	13
2023-08-17T18:00	33051	8	-35.6	-76.0	76	13
2023-08-17T18:00	33087	8	-35.7	-76.1	75	13
2023-08-17T18:00	33132	8	-35.6	-76.0	75	13
2023-08-17T18:00	33162	8	-35.6	-76.0	74	13
2023-08-17T18:00	33181	8	-35.5	-75.9	74	13
2023-08-17T18:00	33207	8	-35.5	-75.9	73	14
2023-08-17T18:00	33237	8	-35.4	-75.8	72	14
2023-08-17T18:00	33249	8	-35.5	-75.9	72	14
2023-08-17T18:00	33290	8	-35.5	-75.9	73	14
2023-08-17T18:00	33327	8	-35.6	-76.0	74	14
2023-08-17T18:00	33345	8	-35.7	-76.1	75	14
2023-08-17T18:00	33362	8	-35.5	-75.9	77	14
2023-08-17T18:00	33410	8	-35.2	-75.7	78	15
2023-08-17T18:00	33412	8	-35.1	-75.6	79	15
2023-08-17T18:00	33436	8	-34.9	-75.5	80	16
2023-08-17T18:00	33471	8	-34.6	-75.3	80	16
2023-08-17T18:00	33527	8	-34.2	-75.0	80	16
2023-08-17T18:00	33528	8	-34.1	-75.0	80	16
2023-08-17T18:00	33571	8	-34.0	-74.9	81	16
2023-08-17T18:00	33608	8	-34.1	-75.0	81	15
2023-08-17T18:00	33619	8	-34.2	-75.0	83	15
2023-08-17T18:00	33667	7	-34.3	-75.1	84	15
2023-08-17T18:00	33680	7	-34.3	-75.1	85	16
2023-08-17T18:00	33730	7	-34.2	-75.0	86	16
2023-08-17T18:00	33770	7	-34.1	-75.0	88	16
2023-08-17T18:00	33788	7	-34.0	-74.9	89	16
2023-08-17T18:00	33821	7	-34.0	-74.9	90	16
2023-08-17T18:00	33869	7	-33.8	-74.7	91	16
2023-08-17T18:00	33926	7	-33.5	-74.5	93	15
2023-08-17T18:00	33983	7	-33.6	-74.6	95	14
2023-08-17T18:00	33989	7	-33.5	-74.5	96	14
2023-08-17T18:00	34056	7	-33.7	-74.7	97	13
2023-08-17T18:00	34065	7	-33.9	-74.8	99	12
2023-08-17T18:00	34095	7	-34.0	-74.9	100	12
2023-08-17T18:00	34146	7	-34.2	-75.0	102	11
2023-08-17T18:00	34159	7	-34.4	-75.2	103	11
2023-08-17T18:00	34180	7	-34.6	-75.3	104	10
2023-08-17T18:00	34218	7	-34.8	-75.4	103	10
2023-08-17T18:00	34247	7	-34.9	-75.5	99	9
2023-08-17T18:00	34290	7	-35.0	-75.6	94	9
2023-08-17T18:00	34304	7	-35.0	-75.6	88	9
2023-08-17T18:00	34356	7	-34.6	-75.3	83	9
2023-08-17T18:00	34414	7	-34.3	-75.1	77	10
2023-08-17T18:00	34433	7	-34.5	-75.2	77	11
2023-08-17T18:00	34452	7	-34.5	-75.2	77	11
2023-08-17T18:00	34466	7	-34.5	-75.2	78	12
2023-08-17T18:00	34513	7	-34.5	-75.2	79	13
2023-08-17T18:00	34525	7	-34.4	-75.2	81	13
2023-08-17T18:00	34555	7	-34.2	-75.0	82	14
2023-08-17T18:00	34613	7	-34.2	-75.0	84	14
2023-08-17T18:00	34662	7	-34.2	-75.0	87	15
2023-08-17T18:00	34710	6	-34.3	-75.1	92	14
2023-08-17T18:00	34736	6	-34.0	-74.9	94	14
2023-08-17T18:00	34776	6	-33.7	-74.7	97	13
2023-08-17T18:00	34803	6	-33.2	-74.3	104	12
2023-08-17T18:00	34861	6	-33.0	-74.2	106	11
2023-08-17T18:00	34873	6	-32.0	-73.5	108	9
2023-08-17T18:00	34896	6	-31.8	-73.4	109	9
2023-08-17T18:00	34929	6	-31.5	-73.2	109	8
2023-08-17T18:00	34948	6	-31.2	-73.0	107	8
2023-08-17T18:00	34968	6	-30.8	-72.7	105	7
2023-08-17T18:00	34995	6	-30.6	-72.5	101	7
2023-08-17T18:00	35033	6	-30.3	-72.3	96	7
2023-08-17T18:00	35037	6	-29.8	-72.0	87	8
2023-08-17T18:00	35071	6	-29.6	-71.9	85	9
2023-08-17T18:00	35128	6	-29.4	-71.7	86	10
2023-08-17T18:00	35130	6	-29.3	-71.7	87	10
2023-08-17T18:00	35168	6	-29.2	-71.6	91	10
2023-08-18T00:00	-999					
2023-08-18T00:00	130	1003	21.2	18.9	77	3
2023-08-18T00:00	151	1001	21.3	18.6	87	5
2023-08-18T00:00	177	998	21.5	18.6	94	6
2023-08-18T00:00	202	995	21.6	18.6	101	6
2023-08-18T00:00	224	993	21.8	18.6	108	7
2023-08-18T00:00	249	990	21.9	18.6	114	7
2023-08-18T00:00	268	987	22.2	18.4	119	6
2023-08-18T00:00	295	985	22.4	18.1	123	6
2023-08-18T00:00	318	982	22.9	18.0	127	6
2023-08-18T00:00	346	979	23.1	18.0	132	6
2023-08-18T00:00	370	976	23.0	17.8	138	6
2023-08-18T00:00	398	973	22.9	18.0	145	6
2023-08-18T00:00	425	970	22.8	18.2	150	6
2023-08-18T00:00	447	968	22.9	17.2	153	6
2023-08-18T00:00	474	965	23.0	15.4	154	6
2023-08-18T00:00	500	962	22.8	16.1	153	6
2023-08-18T00:00	527	959	22.7	15.5	151	6
2023-08-18T00:00	551	956	22.6	15.2	149	6
2023-08-18T00:00	580	953	22.4	14.6	148	6
2023-08-18T00:00	601	951	22.3	15.1	149	6
2023-08-18T00:00	621	949	22.2	14.9	151	6
2023-08-18T00:00	640	947	22.1	14.9	154	7
2023-08-18T00:00	659	944	22.3	13.5	155	7
2023-08-18T00:00	685	942	22.3	13.2	154	7
2023-08-18T00:00	710	939	22.1	13.3	151	7
2023-08-18T00:00	736	936	22.0	13.5	146	7
2023-08-18T00:00	762	933	21.8	13.5	143	8
2023-08-18T00:00	789	930	21.5	13.5	141	8
2023-08-18T00:00	816	928	21.6	13.8	141	8
2023-08-18T00:00	839	925	21.5	13.4	142	8
2023-08-18T00:00	863	923	21.3	13.3	143	8
2023-08-18T00:00	887	920	21.1	13.3	145	7
2023-08-18T00:00	911	917	21.0	12.7	147	7
2023-08-18T00:00	933	915	20.9	11.6	149	7
2023-08-18T00:00	961	912	20.7	11.8	150	7
2023-08-18T00:00	986	909	20.5	11.9	150	7
2023-08-18T00:00	1013	907	20.2	11.8	150	7
2023-08-18T00:00	1042	904	20.0	11.9	149	7
2023-08-18T00:00	1070	901	19.7	11.9	148	7
2023-08-18T00:00	1096	898	19.5	11.8	147	7
2023-08-18T00:00	1129	895	19.2	11.5	147	7
2023-08-18T00:00	1153	892	19.0	11.5	147	7
2023-08-18T00:00	1176	890	18.8	11.3	147	7
2023-08-18T00:00	1199	887	18.6	11.3	144	6
2023-08-18T00:00	1230	884	18.3	11.5	140	6
2023-08-18T00:00	1254	882	18.1	11.3	134	6
2023-08-18T00:00	1273	879	18.0	11.0	129	6
2023-08-18T00:00	1298	877	17.9	11.4	127	6
2023-08-18T00:00	1322	874	17.6	11.2	128	6
2023-08-18T00:00	1346	872	17.5	10.7	131	6
2023-08-18T00:00	1373	869	17.3	10.7	135	6
2023-08-18T00:00	1402	866	17.0	10.5	138	6
2023-08-18T00:00	1431	864	16.8	10.3	142	5
2023-08-18T00:00	1458	861	16.6	10.1	146	5
2023-08-18T00:00	1491	857	16.3	10.0	151	5
2023-08-18T00:00	1520	855	16.0	10.0	155	5
2023-08-18T00:00	1542	852	15.8	10.2	156	5
2023-08-18T00:00	1563	850	15.6	9.8	155	5
2023-08-18T00:00	1586	848	15.4	10.0	150	5
2023-08-18T00:00	1610	846	15.3	9.4	144	5
2023-08-18T00:00	1631	843	15.2	9.4	139	5
2023-08-18T00:00	1657	841	14.9	9.3	136	5
2023-08-18T00:00	1683	838	14.7	9.2	136	5
2023-08-18T00:00	1709	836	14.5	9.2	138	5
2023-08-18T00:00	1728	834	14.3	9.0	140	5
2023-08-18T00:00	1756	831	14.1	8.8	141	5
2023-08-18T00:00	1782	829	13.9	8.7	143	5
2023-08-18T00:00	1803	826	13.7	8.4	144	5
2023-08-18T00:00	1823	824	13.6	8.3	145	4
2023-08-18T00:00	1848	822	13.4	8.3	147	4
2023-08-18T00:00	1875	819	13.1	8.2	149	4
2023-08-18T00:00	1897	817	12.9	8.2	152	5
2023-08-18T00:00	1919	815	12.7	8.4	155	5
2023-08-18T00:00	1940	813	12.5	8.2	157	6
2023-08-18T00:00	1959	811	12.3	8.3	158	6
2023-08-18T00:00	1986	809	12.1	8.4	157	6
2023-08-18T00:00	2018	806	11.9	7.6	155	6
2023-08-18T00:00	2040	803	11.7	8.0	154	5
2023-08-18T00:00	2066	801	11.6	7.2	155	5
2023-08-18T00:00	2085	799	11.5	7.2	158	4
2023-08-18T00:00	2105	797	11.4	6.8	163	4
2023-08-18T00:00	2126	795	11.2	6.6	164	5
2023-08-18T00:00	2148	793	11.1	6.5	163	5
2023-08-18T00:00	2175	791	10.8	6.3	160	5
2023-08-18T00:00	2202	788	10.6	6.3	158	6
2023-08-18T00:00	2226	786	10.3	6.4	156	6
2023-08-18T00:00	2247	784	10.2	6.6	155	6
2023-08-18T00:00	2269	782	10.0	6.6	155	5
2023-08-18T00:00	2296	779	9.9	6.7	156	5
2023-08-18T00:00	2318	777	9.7	6.5	158	5
2023-08-18T00:00	2337	775	9.5	5.8	160	5
2023-08-18T00:00	2357	773	9.5	4.9	160	5
2023-08-18T00:00	2382	771	9.7	4.0	157	5
2023-08-18T00:00	2401	769	9.5	3.8	152	5
2023-08-18T00:00	2423	767	9.3	3.6	146	6
2023-08-18T00:00	2448	765	9.2	3.4	141	6
2023-08-18T00:00	2476	763	9.2	2.7	139	5
2023-08-18T00:00	2496	761	9.0	2.8	138	5
2023-08-18T00:00	2526	758	8.7	2.7	139	5
2023-08-18T00:00	2554	755	8.5	2.6	141	4
2023-08-18T00:00	2580	753	8.3	2.5	143	4
2023-08-18T00:00	2609	751	8.1	2.3	144	4
2023-08-18T00:00	2634	748	7.9	2.3	143	4
2023-08-18T00:00	2659	746	7.7	2.2	142	5
2023-08-18T00:00	2689	743	7.4	2.0	140	5
2023-08-18T00:00	2708	741	7.2	2.0	138	6
2023-08-18T00:00	2729	739	7.0	2.1	137	6
2023-08-18T00:00	2760	737	6.8	1.8	137	6
2023-08-18T00:00	2779	735	6.6		139	6
2023-08-18T00:00	2804	733	6.6	1.1	143	6
2023-08-18T00:00	2825	731	6.4	1.6	149	6
2023-08-18T00:00	2844	729	6.2	1.6	154	6
2023-08-18T00:00	2862	728	6.1	1.7	157	6
2023-08-18T00:00	2879	726	6.0	1.5	158	6
2023-08-18T00:00	2900	724	5.9	1.5	155	6
2023-08-18T00:00	2917	723	5.7	1.5	152	5
2023-08-18T00:00	2936	721	5.6	1.6	150	5
2023-08-18T00:00	2958	719	5.3	1.4	148	5
2023-08-18T00:00	2992	716	5.3	0.2	147	5
2023-08-18T00:00	3017	714	5.1	0.0	146	5
2023-08-18T00:00	3039	712	4.9	-0.1	145	4
2023-08-18T00:00	3057	710	4.8	0.0	144	4
2023-08-18T00:00	3082	708	4.6	0.6	144	4
2023-08-18T00:00	3114	706	4.4	0.5	144	4
2023-08-18T00:00	3144	703	4.1	0.7	143	4
2023-08-18T00:00	3167	701	4.0	0.9	140	5
2023-08-18T00:00	3195	699	3.8	0.9	137	5
2023-08-18T00:00	3219	696	3.5	1.1	136	5
2023-08-18T00:00	3251	694	3.3	0.9	136	5
2023-08-18T00:00	3267	692	3.2	0.7	138	5
2023-08-18T00:00	3289	690	3.0	0.0	143	4
2023-08-18T00:00	3316	688	2.8	-0.1	149	3
2023-08-18T00:00	3339	686	2.7	0.0	158	3
2023-08-18T00:00	3370	684	2.5	-0.2	169	3
2023-08-18T00:00	3393	682	2.3	-0.3	177	2
2023-08-18T00:00	3422	679	2.1	-0.3	180	3
2023-08-18T00:00	3446	677	1.9	-0.4	179	2
2023-08-18T00:00	3466	676	1.8	-0.5	174	2
2023-08-18T00:00	3488	674	1.7	-1.1	165	2
2023-08-18T00:00	3508	672	1.7	-1.0	153	2
2023-08-18T00:00	3528	670	1.5	-0.7	144	2
2023-08-18T00:00	3555	668	1.2	-0.6	141	3
2023-08-18T00:00	3583	666	1.1	-1.0	141	3
2023-08-18T00:00	3614	663	1.0	-1.2	141	4
2023-08-18T00:00	3644	661	0.8	-1.3	140	4
2023-08-18T00:00	3671	659	0.6	-1.5	137	4
2023-08-18T00:00	3696	657	0.4	-1.6	135	4
2023-08-18T00:00	3715	655	0.4	-1.5	133	4
2023-08-18T00:00	3736	653	0.2	-1.7	133	4
2023-08-18T00:00	3762	651	0.1	-2.1	135	4
2023-08-18T00:00	3787	649	-0.1	-2.3	137	5
2023-08-18T00:00	3814	647	-0.3	-2.6	139	5
2023-08-18T00:00	3837	645	-0.5	-2.7	140	5
2023-08-18T00:00	3859	643	-0.6	-2.8	141	5
2023-08-18T00:00	3885	641	-0.8	-3.0	141	5
2023-08-18T00:00	3919	639	-1.1	-3.1	140	5
2023-08-18T00:00	3945	637	-1.3	-3.3	137	5
2023-08-18T00:00	3963	635	-1.5	-3.3	133	5
2023-08-18T00:00	3989	633	-1.7	-3.3	129	6
2023-08-18T00:00	4012	631	-1.9		126	6
2023-08-18T00:00	4040	629	-2.1	-3.5	125	6
2023-08-18T00:00	4060	627	-2.3	-3.6	128	6
2023-08-18T00:00	4084	625	-2.4	-3.7	132	6
2023-08-18T00:00	4111	623	-2.6	-3.8	138	6
2023-08-18T00:00	4140	621	-2.9	-4.2	144	6
2023-08-18T00:00	4171	619	-3.1	-4.4	150	5
2023-08-18T00:00	4188	617	-3.2	-4.5	157	5
2023-08-18T00:00	4213	615	-3.1	-4.8	164	4
2023-08-18T00:00	4243	613	-3.0	-5.0	171	4
2023-08-18T00:00	4268	611	-2.7	-6.4	178	3
2023-08-18T00:00	4289	609	-2.4	-8.4	180	3
2023-08-18T00:00	4325	607	-2.4	-11.5	174	2
2023-08-18T00:00	4353	605	-2.6	-15.2	160	2
2023-08-18T00:00	4378	603	-2.6	-19.1	142	2
2023-08-18T00:00	4392	602	-2.6	-21.9	127	3
2023-08-18T00:00	4417	600	-2.6	-24.7	118	3
2023-08-18T00:00	4434	599	-2.7	-25.5	115	3
2023-08-18T00:00	4451	597	-2.8	-25.9	119	3
2023-08-18T00:00	4465	596	-2.8	-28.7	128	3
2023-08-18T00:00	4483	595	-2.9	-29.5	139	3
2023-08-18T00:00	4513	593	-3.1	-24.5	148	3
2023-08-18T00:00	4537	591	-3.3	-22.7	153	3
2023-08-18T00:00	4560	589	-3.6	-21.7	153	3
2023-08-18T00:00	4583	587	-3.8	-16.4	149	3
2023-08-18T00:00	4603	586	-4.0	-16.0	144	3
2023-08-18T00:00	4619	585	-4.2	-13.4	140	3
2023-08-18T00:00	4637	583	-4.3	-18.1	136	4
2023-08-18T00:00	4655	582	-4.4	-19.2	133	4
2023-08-18T00:00	4683	580	-4.6	-18.6	129	4
2023-08-18T00:00	4705	578	-4.7	-14.6	127	5
2023-08-18T00:00	4731	576	-4.9	-14.6	126	5
2023-08-18T00:00	4753	575	-5.1	-15.1	128	5
2023-08-18T00:00	4770	574	-5.2	-13.9	132	5
2023-08-18T00:00	4786	572	-5.4	-12.5	137	5
2023-08-18T00:00	4804	571	-5.6	-11.6	141	5
2023-08-18T00:00	4819	570	-5.7	-11.7	143	4
2023-08-18T00:00	4836	569	-5.7	-11.8	143	4
2023-08-18T00:00	4855	567	-5.9	-11.9	140	4
2023-08-18T00:00	4876	566	-6.1	-12.1	136	4
2023-08-18T00:00	4907	564	-6.3	-13.1	132	4
2023-08-18T00:00	4928	562	-6.4	-15.1	132	4
2023-08-18T00:00	4943	561	-6.5	-15.8	134	4
2023-08-18T00:00	4961	560	-6.6	-16.1	139	4
2023-08-18T00:00	4993	558	-6.9	-14.2	144	5
2023-08-18T00:00	5016	556	-7.1	-11.5	146	5
2023-08-18T00:00	5042	554	-7.2	-10.3	148	5
2023-08-18T00:00	5061	553	-7.1	-9.8	148	5
2023-08-18T00:00	5079	551	-7.2	-9.6	148	5
2023-08-18T00:00	5097	550	-7.1	-11.1	149	4
2023-08-18T00:00	5123	548	-7.3	-12.0	151	4
2023-08-18T00:00	5154	546	-7.4	-13.1	154	4
2023-08-18T00:00	5171	545	-7.5	-12.9	157	4
2023-08-18T00:00	5188	544	-7.6	-12.4	161	4
2023-08-18T00:00	5213	542	-7.8	-12.0	164	4
2023-08-18T00:00	5245	540	-7.8	-12.5	167	4
2023-08-18T00:00	5272	538	-7.8	-13.1	169	4
2023-08-18T00:00	5288	537	-7.8	-12.6	171	4
2023-08-18T00:00	5305	535	-8.0	-12.3	171	4
2023-08-18T00:00	5326	534	-8.1	-12.3	169	3
2023-08-18T00:00	5352	532	-8.2	-13.7	167	3
2023-08-18T00:00	5372	531	-8.4	-12.8	165	3
2023-08-18T00:00	5402	529	-8.6	-12.7	164	3
2023-08-18T00:00	5432	527	-8.8	-13.4	162	4
2023-08-18T00:00	5458	525	-9.1	-13.1	161	4
2023-08-18T00:00	5495	523	-9.3	-12.4	159	5
2023-08-18T00:00	5523	521	-9.6	-12.1	158	5
2023-08-18T00:00	5540	520	-9.8	-11.8	159	6
2023-08-18T00:00	5557	518	-9.9	-11.6	160	6
2023-08-18T00:00	5578	517	-10.0	-11.6	164	6
2023-08-18T00:00	5600	515	-10.1	-11.9	167	6
2023-08-18T00:00	5634	513	-10.0	-15.3	170	6
2023-08-18T00:00	5655	512	-10.0	-16.0	171	6
2023-08-18T00:00	5672	511	-10.2	-16.3	171	6
2023-08-18T00:00	5691	509	-10.3	-15.0	172	6
2023-08-18T00:00	5712	508	-10.5	-14.6	174	5
2023-08-18T00:00	5741	506	-10.7	-14.6	176	5
2023-08-18T00:00	5768	505	-11.0	-14.4	179	5
2023-08-18T00:00	5781	503	-11.1	-14.0	180	5
2023-08-18T00:00	5803	502	-11.3	-13.4	178	6
2023-08-18T00:00	5824	501	-11.4	-13.9	174	6
2023-08-18T00:00	5855	499	-11.6	-14.4	169	6
2023-08-18T00:00	5885	497	-11.7	-16.5	164	6
2023-08-18T00:00	5914	495	-11.9	-16.1	161	6
2023-08-18T00:00	5952	493	-12.1	-15.0	160	6
2023-08-18T00:00	5980	491	-12.3	-15.0	160	6
2023-08-18T00:00	5997	490	-12.4	-14.9	161	6
2023-08-18T00:00	6016	488	-12.6	-15.0	162	6
2023-08-18T00:00	6036	487	-12.8	-15.1	164	5
2023-08-18T00:00	6061	486	-13.0	-15.2	167	5
2023-08-18T00:00	6086	484	-13.2		169	4
2023-08-18T00:00	6114	482	-13.2	-17.8	171	4
2023-08-18T00:00	6138	481	-13.2	-18.9	169	3
2023-08-18T00:00	6156	479	-13.1	-18.3	163	3
2023-08-18T00:00	6184	478	-13.2	-19.9	155	3
2023-08-18T00:00	6208	476	-13.2	-20.4	148	3
2023-08-18T00:00	6235	475	-13.4	-20.8	142	3
2023-08-18T00:00	6264	473	-13.6	-21.0	137	4
2023-08-18T00:00	6297	471	-13.8	-20.8	134	4
2023-08-18T00:00	6321	469	-13.8	-21.3	133	4
2023-08-18T00:00	6342	468	-14.0	-20.6	133	5
2023-08-18T00:00	6376	466	-14.3	-20.9	134	5
2023-08-18T00:00	6397	465	-14.4	-22.9	136	5
2023-08-18T00:00	6412	464	-14.6	-22.9	137	5
2023-08-18T00:00	6429	463	-14.7	-22.5	138	5
2023-08-18T00:00	6446	462	-14.9	-22.7	140	5
2023-08-18T00:00	6462	461	-15.0	-22.8	140	4
2023-08-18T00:00	6479	460	-15.2	-23.0	141	4
2023-08-18T00:00	6497	458	-15.3	-23.3	142	4
2023-08-18T00:00	6515	457	-15.4	-23.7	143	4
2023-08-18T00:00	6531	456	-15.5	-23.8	145	4
2023-08-18T00:00	6550	455	-15.6	-23.7	149	3
2023-08-18T00:00	6582	453	-15.9	-24.1	155	3
2023-08-18T00:00	6612	452	-16.1	-24.4	159	3
2023-08-18T00:00	6626	451	-16.2	-24.4	160	3
2023-08-18T00:00	6643	450	-16.3	-24.5	158	3
2023-08-18T00:00	6660	449	-16.5	-24.7	152	3
2023-08-18T00:00	6678	447	-16.6	-25.2	145	4
2023-08-18T00:00	6701	446	-16.7	-25.7	139	4
2023-08-18T00:00	6730	445	-16.9	-26.0	135	4
2023-08-18T00:00	6754	443	-17.1	-26.7	134	4
2023-08-18T00:00	6768	442	-17.2	-27.0	136	4
2023-08-18T00:00	6784	441	-17.3	-27.3	140	4
2023-08-18T00:00	6804	440	-17.4	-27.6	144	4
2023-08-18T00:00	6819	439	-17.5	-27.8	146	4
2023-08-18T00:00	6836	438	-17.6	-28.0	147	4
2023-08-18T00:00	6856	437	-17.7	-28.0	147	3
2023-08-18T00:00	6873	436	-17.9	-27.7	146	3
2023-08-18T00:00	6890	435	-18.0	-27.7	146	3
2023-08-18T00:00	6908	434	-18.2	-27.6	149	3
2023-08-18T00:00	6927	433	-18.3	-27.7	153	3
2023-08-18T00:00	6945	432	-18.4	-27.3	158	3
2023-08-18T00:00	6966	431	-18.5	-22.5	163	4
2023-08-18T00:00	6995	429	-18.7	-23.0	165	4
2023-08-18T00:00	7022	427	-19.0	-23.1	164	4
2023-08-18T00:00	7050	426	-19.2	-24.8	160	4
2023-08-18T00:00	7076	424	-19.3	-26.6	153	4
2023-08-18T00:00	7098	423	-19.4	-26.6	146	4
2023-08-18T00:00	7126	421	-19.6	-26.8	141	5
2023-08-18T00:00	7157	420	-19.9	-25.4	139	5
2023-08-18T00:00	7188	418	-20.1	-26.0	140	5
2023-08-18T00:00	7206	417	-20.3	-27.2	143	5
2023-08-18T00:00	7226	416	-20.5	-27.9	148	5
2023-08-18T00:00	7249	415	-20.6	-29.3	155	5
2023-08-18T00:00	7274	413	-20.8	-29.7	163	5
2023-08-18T00:00	7310	411	-20.9	-33.7	171	5
2023-08-18T00:00	7340	410	-21.2	-32.0	176	5
2023-08-18T00:00	7358	408	-21.4	-31.0	177	5
2023-08-18T00:00	7381	407	-21.7	-29.7	175	5
2023-08-18T00:00	7405	406	-21.8	-32.2	173	5
2023-08-18T00:00	7429	405	-22.2	-26.7	172	4
2023-08-18T00:00	7455	403	-22.4	-27.2	173	4
2023-08-18T00:00	7481	402	-22.1	-25.9	175	5
2023-08-18T00:00	7508	400	-22.3	-26.1	176	5
2023-08-18T00:00	7533	399	-22.5	-26.4	174	6
2023-08-18T00:00	7556	398	-22.7	-26.2	170	6
2023-08-18T00:00	7585	396	-23.0	-26.4	165	7
2023-08-18T00:00	7616	394	-23.2	-26.7	162	7
2023-08-18T00:00	7641	393	-23.4	-26.8	160	8
2023-08-18T00:00	7659	392	-23.5	-26.9	160	8
2023-08-18T00:00	7679	391	-23.7	-27.0	161	7
2023-08-18T00:00	7703	390	-23.9	-27.1	163	7
2023-08-18T00:00	7735	388	-24.2	-27.5	165	7
2023-08-18T00:00	7766	386	-24.4	-27.6	166	7
2023-08-18T00:00	7800	385	-24.7	-28.0	167	7
2023-08-18T00:00	7826	383	-24.9	-28.0	166	7
2023-08-18T00:00	7851	382	-25.1	-28.1	166	7
2023-08-18T00:00	7878	380	-25.4	-28.1	165	6
2023-08-18T00:00	7911	379	-25.7	-28.3	164	6
2023-08-18T00:00	7942	377	-25.9	-28.7	165	6
2023-08-18T00:00	7970	376	-26.1	-28.6	166	5
2023-08-18T00:00	7998	374	-26.3	-28.9	168	6
2023-08-18T00:00	8025	373	-26.5	-29.1	171	6
2023-08-18T00:00	8046	372	-26.6	-29.0	174	6
2023-08-18T00:00	8079	370	-26.7	-29.0	175	7
2023-08-18T00:00	8102	369	-26.8	-29.2	177	7
2023-08-18T00:00	8131	367	-27.0	-29.6	177	7
2023-08-18T00:00	8158	366	-27.3	-29.8	178	6
2023-08-18T00:00	8187	365	-27.5	-30.1	179	6
2023-08-18T00:00	8217	363	-27.7	-30.2	180	6
2023-08-18T00:00	8246	362	-27.9	-30.4	181	6
2023-08-18T00:00	8274	360	-28.2	-30.7	181	6
2023-08-18T00:00	8304	359	-28.4	-30.8	181	6
2023-08-18T00:00	8337	357	-28.7	-31.2	182	5
2023-08-18T00:00	8364	356	-28.9	-31.4	184	5
2023-08-18T00:00	8403	354	-29.2	-31.7	190	5
2023-08-18T00:00	8430	352	-29.4	-32.0	197	5
2023-08-18T00:00	8456	351	-29.6	-32.1	203	5
2023-08-18T00:00	8488	350	-29.9	-32.3	206	5
2023-08-18T00:00	8513	348	-30.1	-32.4	207	5
2023-08-18T00:00	8546	347	-30.4	-32.7	206	5
2023-08-18T00:00	8583	345	-30.7	-33.0	204	5
2023-08-18T00:00	8614	343	-30.9	-33.0	203	5
2023-08-18T00:00	8645	342	-31.2	-33.4	203	5
2023-08-18T00:00	8678	340	-31.4	-33.6	203	5
2023-08-18T00:00	8705	339	-31.7	-34.1	203	5
2023-08-18T00:00	8731	338	-31.9	-34.2	203	6
2023-08-18T00:00	8760	336	-32.1	-34.3	203	6
2023-08-18T00:00	8792	335	-32.4	-34.7	202	6
2023-08-18T00:00	8834	333	-32.7	-35.1	200	5
2023-08-18T00:00	8857	332	-32.9	-35.4	198	5
2023-08-18T00:00	8885	330	-33.1	-35.4	197	5
2023-08-18T00:00	8924	329	-33.4	-35.7	196	5
2023-08-18T00:00	8957	327	-33.7	-36.1	197	5
2023-08-18T00:00	8985	326	-34.0	-36.4	198	5
2023-08-18T00:00	9008	325	-34.2	-36.4	200	5
2023-08-18T00:00	9031	324	-34.4	-36.6	202	5
2023-08-18T00:00	9054	323	-34.6	-36.9	202	5
2023-08-18T00:00	9079	321	-34.8	-37.1	201	5
2023-08-18T00:00	9103	320	-35.0	-37.4	199	6
2023-08-18T00:00	9130	319	-35.2	-37.5	198	6
2023-08-18T00:00	9154	318	-35.4	-37.8	198	6
2023-08-18T00:00	9185	317	-35.6	-38.1	198	6
2023-08-18T00:00	9216	315	-35.9	-38.4	199	6
2023-08-18T00:00	9245	314	-36.2	-38.9	200	6
2023-08-18T00:00	9275	312	-36.5	-39.2	201	6
2023-08-18T00:00	9310	311	-36.7	-39.3	203	6
2023-08-18T00:00	9338	310	-36.9	-39.5	206	6
2023-08-18T00:00	9361	309	-37.0	-39.6	211	6
2023-08-18T00:00	9391	307	-37.2	-39.8	216	6
2023-08-18T00:00	9422	306	-37.4	-40.0	221	7
2023-08-18T00:00	9451	305	-37.7	-40.4	223	7
2023-08-18T00:00	9479	303	-37.9	-40.7	223	8
2023-08-18T00:00	9498	303	-38.1	-40.7	221	8
2023-08-18T00:00	9521	302	-38.2	-41.0	218	8
2023-08-18T00:00	9542	301	-38.4	-41.2	215	8
2023-08-18T00:00	9562	300	-38.6	-41.2	212	8
2023-08-18T00:00	9583	299	-38.8	-41.4	210	9
2023-08-18T00:00	9603	298	-38.9	-41.6	209	9
2023-08-18T00:00	9628	297	-39.1	-41.8	209	9
2023-08-18T00:00	9654	296	-39.3	-42.2	209	9
2023-08-18T00:00	9678	295	-39.5	-42.6	209	9
2023-08-18T00:00	9700	294	-39.7	-42.8	210	9
2023-08-18T00:00	9724	293	-39.9	-43.0	210	8
2023-08-18T00:00	9746	292	-40.1	-43.2	209	8
2023-08-18T00:00	9765	291	-40.3	-43.3	209	8
2023-08-18T00:00	9786	290	-40.5	-43.5	208	8
2023-08-18T00:00	9808	289	-40.7	-43.8	207	8
2023-08-18T00:00	9828	288	-40.9	-44.1	207	7
2023-08-18T00:00	9845	288	-41.0	-44.3	207	7
2023-08-18T00:00	9867	287	-41.2	-44.7	207	7
2023-08-18T00:00	9888	286	-41.4	-44.8	206	7
2023-08-18T00:00	9905	285	-41.6	-45.0	205	7
2023-08-18T00:00	9929	284	-41.7	-45.0	205	7
2023-08-18T00:00	9948	283	-41.9	-45.2	205	7
2023-08-18T00:00	9968	282	-42.1	-45.7	206	7
2023-08-18T00:00	9990	282	-42.3	-45.9	207	7
2023-08-18T00:00	10009	281	-42.4	-45.9	209	7
2023-08-18T00:00	10037	280	-42.7	-46.3	210	7
2023-08-18T00:00	10064	279	-42.9	-46.9	211	6
2023-08-18T00:00	10087	277	-43.1	-47.0	211	6
2023-08-18T00:00	10113	276	-43.3	-46.9	211	5
2023-08-18T00:00	10138	275	-43.5	-47.0	211	5
2023-08-18T00:00	10162	274	-43.7	-47.1	212	5
2023-08-18T00:00	10182	274	-43.8	-47.3	215	5
2023-08-18T00:00	10203	273	-44.0	-47.5	220	5
2023-08-18T00:00	10228	272	-44.1	-47.8	226	5
2023-08-18T00:00	10250	271	-44.3	-48.2	233	5
2023-08-18T00:00	10284	270	-44.6	-48.6	239	5
2023-08-18T00:00	10313	268	-44.8	-48.9	243	5
2023-08-18T00:00	10336	267	-45.0	-49.3	246	5
2023-08-18T00:00	10354	267	-45.1	-49.4	247	5
2023-08-18T00:00	10375	266	-45.3	-49.7	246	5
2023-08-18T00:00	10400	265	-45.5	-49.8	244	5
2023-08-18T00:00	10418	264	-45.8	-49.9	242	5
2023-08-18T00:00	10440	263	-45.9	-50.3	241	5
2023-08-18T00:00	10460	262	-46.2	-50.4	241	4
2023-08-18T00:00	10482	262	-46.4	-50.5	240	4
2023-08-18T00:00	10503	261	-46.5	-51.0	240	4
2023-08-18T00:00	10522	260	-46.7	-51.3	240	4
2023-08-18T00:00	10545	259	-46.9	-51.6	241	4
2023-08-18T00:00	10561	258	-47.1		241	4
2023-08-18T00:00	10586	258	-47.3	-51.8	242	4
2023-08-18T00:00	10611	257	-47.5	-51.8	242	4
2023-08-18T00:00	10630	256	-47.7	-51.9	242	4
2023-08-18T00:00	10651	255	-47.9	-52.1	240	4
2023-08-18T00:00	10671	254	-48.1	-52.3	239	4
2023-08-18T00:00	10692	253	-48.3	-52.6	239	4
2023-08-18T00:00	10711	253	-48.5	-52.7	240	4
2023-08-18T00:00	10733	252	-48.7	-52.8	242	4
2023-08-18T00:00	10753	251	-48.9	-53.0	245	4
2023-08-18T00:00	10772	250	-49.0	-53.3	248	4
2023-08-18T00:00	10790	250	-49.2	-53.5	251	4
2023-08-18T00:00	10809	249	-49.4	-53.8	253	4
2023-08-18T00:00	10828	248	-49.5	-53.8	255	4
2023-08-18T00:00	10847	248	-49.7	-54.0	256	4
2023-08-18T00:00	10866	247	-49.8	-54.1	257	4
2023-08-18T00:00	10886	246	-50.0	-54.2	258	4
2023-08-18T00:00	10904	245	-50.2	-54.3	259	4
2023-08-18T00:00	10926	245	-50.3	-54.6	260	4
2023-08-18T00:00	10945	244	-50.5	-55.0	262	4
2023-08-18T00:00	10967	243	-50.7	-55.2	265	3
2023-08-18T00:00	10994	242	-50.9	-55.2	269	3
2023-08-18T00:00	11011	241	-51.1	-55.3	272	3
2023-08-18T00:00	11026	241	-51.2	-55.3	274	3
2023-08-18T00:00	11042	240	-51.4	-55.4	273	3
2023-08-18T00:00	11060	240	-51.5	-55.6	272	3
2023-08-18T00:00	11079	239	-51.7	-56.0	271	4
2023-08-18T00:00	11095	238	-51.8	-56.2	271	4
2023-08-18T00:00	11113	238	-51.9	-56.4	271	3
2023-08-18T00:00	11129	237	-52.1	-56.6	271	3
2023-08-18T00:00	11145	236	-52.2	-56.8	269	3
2023-08-18T00:00	11166	236	-52.3	-57.4	260	2
2023-08-18T00:00	11207	234	-52.2	-58.5	236	2
2023-08-18T00:00	11224	234	-51.7	-59.3	207	2
2023-08-18T00:00	11245	233	-51.6	-59.5	194	3
2023-08-18T00:00	11277	232	-51.7	-59.2	191	4
2023-08-18T00:00	11303	231	-52.0	-59.1	190	4
2023-08-18T00:00	11324	230	-52.1	-59.1	191	5
2023-08-18T00:00	11352	229	-52.1	-59.0	192	6
2023-08-18T00:00	11377	228	-52.3	-59.0	191	6
2023-08-18T00:00	11400	227	-52.4	-59.0	190	6
2023-08-18T00:00	11421	227	-52.5	-59.1	189	6
2023-08-18T00:00	11440	226	-52.5	-59.0	188	6
2023-08-18T00:00	11462	225	-52.7	-59.0	187	6
2023-08-18T00:00	11485	224	-52.9	-59.1	189	7
2023-08-18T00:00	11507	224	-53.1	-59.2	191	7
2023-08-18T00:00	11527	223	-53.2	-59.3	193	7
2023-08-18T00:00	11547	222	-53.4	-59.3	195	7
2023-08-18T00:00	11566	222	-53.6	-59.4	196	7
2023-08-18T00:00	11584	221	-53.7	-59.4	195	7
2023-08-18T00:00	11601	220	-53.8	-59.5	193	8
2023-08-18T00:00	11625	220	-53.9	-59.6	190	8
2023-08-18T00:00	11647	219	-54.1	-59.9	188	8
2023-08-18T00:00	11668	218	-53.9	-60.2	185	8
2023-08-18T00:00	11687	217	-54.0	-60.7	184	9
2023-08-18T00:00	11704	217	-54.1	-60.6	183	9
2023-08-18T00:00	11723	216	-53.8	-59.9	183	9
2023-08-18T00:00	11743	216	-53.9	-59.8	184	9
2023-08-18T00:00	11760	215	-54.0	-59.9	185	9
2023-08-18T00:00	11779	214	-54.1	-60.1	186	10
2023-08-18T00:00	11799	214	-54.1	-60.1	188	10
2023-08-18T00:00	11817	213	-54.3	-60.4	190	10
2023-08-18T00:00	11837	212	-54.4	-60.6	192	10
2023-08-18T00:00	11856	212	-54.4	-61.1	193	10
2023-08-18T00:00	11873	211	-54.3	-62.1	194	10
2023-08-18T00:00	11893	211	-54.1	-63.4	193	10
2023-08-18T00:00	11910	210	-53.9	-64.5	191	10
2023-08-18T00:00	11930	209	-53.7	-65.0	190	10
2023-08-18T00:00	11947	209	-53.6	-65.1	188	10
2023-08-18T00:00	11966	208	-53.6	-65.2	187	10
2023-08-18T00:00	11984	208	-53.8	-65.3	187	10
2023-08-18T00:00	12003	207	-53.9	-65.3	189	10
2023-08-18T00:00	12023	206	-53.8	-65.3	191	11
2023-08-18T00:00	12038	206	-53.9	-65.6	195	11
2023-08-18T00:00	12055	205	-53.9	-66.1	200	12
2023-08-18T00:00	12073	205	-53.6	-66.5	205	13
2023-08-18T00:00	12107	204	-53.5	-67.4	209	14
2023-08-18T00:00	12132	203	-52.1	-67.7	211	14
2023-08-18T00:00	12159	202	-51.7	-69.2	213	15
2023-08-18T00:00	12183	201	-51.8	-70.1	213	16
2023-08-18T00:00	12208	201	-52.0	-70.0	214	16
2023-08-18T00:00	12227	200	-52.2	-70.0	215	16
2023-08-18T00:00	12246	199	-52.3	-70.0	217	16
2023-08-18T00:00	12265	199	-52.4	-70.2	218	16
2023-08-18T00:00	12286	198	-52.5	-70.3	219	16
2023-08-18T00:00	12306	197	-52.7	-70.5	220	16
2023-08-18T00:00	12328	197	-52.7	-70.5	220	16
2023-08-18T00:00	12350	196	-52.7	-70.5	220	15
2023-08-18T00:00	12373	195	-52.8	-70.7	220	15
2023-08-18T00:00	12395	195	-52.8	-70.7	219	15
2023-08-18T00:00	12413	194	-53.0	-70.9	218	15
2023-08-18T00:00	12436	194	-53.0	-71.0	217	14
2023-08-18T00:00	12457	193	-53.0	-71.2	217	14
2023-08-18T00:00	12477	192	-53.1	-71.5	216	14
2023-08-18T00:00	12501	192	-53.2	-71.7	216	14
2023-08-18T00:00	12522	191	-53.2	-71.6	217	13
2023-08-18T00:00	12556	190	-53.1	-71.4	218	13
2023-08-18T00:00	12585	189	-53.4	-71.3	218	13
2023-08-18T00:00	12606	188	-53.6	-71.2	218	12
2023-08-18T00:00	12626	188	-53.7	-71.2	217	12
2023-08-18T00:00	12644	187	-53.7	-70.9	215	12
2023-08-18T00:00	12664	187	-53.8	-70.9	213	12
2023-08-18T00:00	12684	186	-53.9	-70.9	210	12
2023-08-18T00:00	12704	186	-53.9	-71.0	206	12
2023-08-18T00:00	12723	185	-53.9	-71.0	201	12
2023-08-18T00:00	12747	184	-53.7	-70.7	197	12
2023-08-18T00:00	12768	184	-53.5	-70.4	193	13
2023-08-18T00:00	12789	183	-53.4	-71.1	190	14
2023-08-18T00:00	12810	183	-52.4	-72.0	189	14
2023-08-18T00:00	12829	182	-51.3	-73.6	189	15
2023-08-18T00:00	12850	181	-50.8	-75.4	190	16
2023-08-18T00:00	12870	181	-50.2	-76.0	191	16
2023-08-18T00:00	12891	180	-50.0	-75.7	193	16
2023-08-18T00:00	12911	180	-50.1	-75.1	194	16
2023-08-18T00:00	12930	179	-50.2	-74.6	195	16
2023-08-18T00:00	12949	179	-50.3	-74.3	196	17
2023-08-18T00:00	12967	178	-50.4	-74.4	197	17
2023-08-18T00:00	12986	178	-50.4	-74.7	198	16
2023-08-18T00:00	13005	177	-50.4		199	16
2023-08-18T00:00	13021	177	-50.5	-75.4	199	16
2023-08-18T00:00	13039	176	-50.5		200	16
2023-08-18T00:00	13054	176	-50.7	-75.6	201	16
2023-08-18T00:00	13072	175	-50.8	-75.4	202	16
2023-08-18T00:00	13091	175	-50.9	-75.5	203	16
2023-08-18T00:00	13108	174	-51.0	-75.6	204	16
2023-08-18T00:00	13126	174	-51.0	-75.8	205	16
2023-08-18T00:00	13143	174	-51.0	-76.0	206	15
2023-08-18T00:00	13159	173	-51.0	-76.2	207	15
2023-08-18T00:00	13177	173	-50.9	-76.4	208	15
2023-08-18T00:00	13193	172	-50.6	-76.4	209	15
2023-08-18T00:00	13207	172	-50.5	-76.5	209	14
2023-08-18T00:00	13226	171	-50.5	-76.5	210	14
2023-08-18T00:00	13244	171	-50.5	-76.8	211	14
2023-08-18T00:00	13262	170	-50.5	-76.8	212	13
2023-08-18T00:00	13277	170	-50.6	-76.8	213	13
2023-08-18T00:00	13293	170	-50.5	-76.5	214	12
2023-08-18T00:00	13309	169	-50.5	-75.8	214	12
2023-08-18T00:00	13326	169	-50.6	-74.7	213	12
2023-08-18T00:00	13342	168	-50.5	-73.0	212	11
2023-08-18T00:00	13359	168	-50.5	-72.1	211	11
2023-08-18T00:00	13374	167	-50.3	-72.7	210	11
2023-08-18T00:00	13393	167	-50.1	-74.7	210	11
2023-08-18T00:00	13409	167	-50.0	-77.2	209	11
2023-08-18T00:00	13426	166	-50.0	-78.1	209	11
2023-08-18T00:00	13443	166	-50.1	-77.8	210	11
2023-08-18T00:00	13462	165	-50.2	-77.6	210	11
2023-08-18T00:00	13478	165	-50.1	-77.8	210	11
2023-08-18T00:00	13497	164	-49.9	-78.0	211	12
2023-08-18T00:00	13514	164	-49.6	-78.1	211	12
2023-08-18T00:00	13534	163	-49.7	-78.5	211	12
2023-08-18T00:00	13553	163	-49.7	-78.5	211	12
2023-08-18T00:00	13570	162	-49.7	-78.2	211	12
2023-08-18T00:00	13590	162	-49.8	-78.3	210	12
2023-08-18T00:00	13608	162	-50.0	-78.4	210	12
2023-08-18T00:00	13627	161	-50.0	-78.8	210	12
2023-08-18T00:00	13648	161	-50.2	-78.9	209	12
2023-08-18T00:00	13666	160	-50.2	-78.6	209	12
2023-08-18T00:00	13688	160	-50.3	-78.7	208	12
2023-08-18T00:00	13707	159	-50.3	-78.3	208	13
2023-08-18T00:00	13727	159	-50.4	-78.4	208	13
2023-08-18T00:00	13746	158	-50.6	-78.5	208	13
2023-08-18T00:00	13769	158	-50.8	-78.7	208	13
2023-08-18T00:00	13788	157	-50.9	-78.8	209	13
2023-08-18T00:00	13808	157	-51.0	-78.9	211	13
2023-08-18T00:00	13830	156	-51.1	-78.9	212	14
2023-08-18T00:00	13851	156	-51.2	-79.3	214	14
2023-08-18T00:00	13871	155	-51.3	-79.1	215	14
2023-08-18T00:00	13892	155	-51.4	-79.2	217	14
2023-08-18T00:00	13913	154	-51.6	-79.0	218	14
2023-08-18T00:00	13934	154	-51.7	-79.1	218	14
2023-08-18T00:00	13955	153	-51.9	-78.9	218	14
2023-08-18T00:00	13978	153	-52.0	-78.5	218	14
2023-08-18T00:00	14000	152	-52.2	-78.3	218	14
2023-08-18T00:00	14020	152	-52.4	-78.2	218	14
2023-08-18T00:00	14042	151	-52.5	-78.1	219	14
2023-08-18T00:00	14060	151	-52.4	-78.0	220	14
2023-08-18T00:00	14082	150	-52.5	-78.3	221	14
2023-08-18T00:00	14103	150	-52.6	-78.7	223	13
2023-08-18T00:00	14130	149	-52.7	-79.0	224	13
2023-08-18T00:00	14145	149	-52.8	-79.3	225	13
2023-08-18T00:00	14167	148	-52.9	-79.4	226	14
2023-08-18T00:00	14187	148	-52.9	-79.4	227	14
2023-08-18T00:00	14209	147	-53.0	-79.5	228	14
2023-08-18T00:00	14229	147	-53.1	-79.9	229	14
2023-08-18T00:00	14247	146	-53.2	-80.2	229	14
2023-08-18T00:00	14265	146	-53.1	-80.2	230	14
2023-08-18T00:00	14286	146	-53.0	-80.1	230	13
2023-08-18T00:00	14304	145	-52.9	-80.0	230	13
2023-08-18T00:00	14325	145	-53.0	-80.1	229	12
2023-08-18T00:00	14342	144	-53.1	-80.5	227	12
2023-08-18T00:00	14362	144	-53.0	-80.4	224	11
2023-08-18T00:00	14385	143	-52.7	-80.2	221	10
2023-08-18T00:00	14403	143	-52.4	-79.9	217	10
2023-08-18T00:00	14420	143	-51.9	-79.5	213	9
2023-08-18T00:00	14432	142	-51.8	-79.5	211	9
2023-08-18T00:00	14458	142	-51.8	-79.5	209	9
2023-08-18T00:00	14475	141	-51.7	-79.4	207	9
2023-08-18T00:00	14495	141	-51.8	-79.5	205	10
2023-08-18T00:00	14512	141	-51.8	-79.8	204	10
2023-08-18T00:00	14530	140	-51.8	-79.8	203	11
2023-08-18T00:00	14550	140	-51.8	-79.8	202	11
2023-08-18T00:00	14569	139	-51.8	-80.1	202	11
2023-08-18T00:00	14590	139	-51.9	-80.2	202	12
2023-08-18T00:00	14609	138	-52.1	-80.4	203	13
2023-08-18T00:00	14629	138	-52.1	-80.4	204	13
2023-08-18T00:00	14650	138	-52.3	-80.2	204	13
2023-08-18T00:00	14670	137	-52.4	-80.6	205	14
2023-08-18T00:00	14694	137	-52.5	-80.7	205	14
2023-08-18T00:00	14714	136	-52.6	-80.4	206	14
2023-08-18T00:00	14735	136	-52.8	-80.6	206	15
2023-08-18T00:00	14754	135	-52.9	-80.6	206	15
2023-08-18T00:00	14776	135	-53.1	-80.8	207	15
2023-08-18T00:00	14796	134	-53.2	-80.9	208	14
2023-08-18T00:00	14816	134	-52.9	-80.6	209	14
2023-08-18T00:00	14834	134	-53.0	-80.7	210	13
2023-08-18T00:00	14854	133	-53.1	-80.8	210	13
2023-08-18T00:00	14874	133	-53.2	-80.9	211	13
2023-08-18T00:00	14893	132	-53.2	-80.9	211	12
2023-08-18T00:00	14914	132	-53.2	-80.9	211	12
2023-08-18T00:00	14933	132	-53.2	-80.9	211	12
2023-08-18T00:00	14952	131	-53.3	-80.9	211	12
2023-08-18T00:00	14973	131	-53.2	-80.9	211	12
2023-08-18T00:00	14991	130	-53.3	-80.9	210	12
2023-08-18T00:00	15012	130	-53.4	-81.0	208	12
2023-08-18T00:00	15033	130	-53.5	-81.1	207	12
2023-08-18T00:00	15051	129	-53.4	-81.0	206	12
2023-08-18T00:00	15070	129	-53.4	-81.0	205	12
2023-08-18T00:00	15093	128	-53.4	-81.0	204	11
2023-08-18T00:00	15112	128	-53.5	-81.1	204	11
2023-08-18T00:00	15133	128	-53.7	-81.3	204	10
2023-08-18T00:00	15151	127	-53.8	-81.3	205	10
2023-08-18T00:00	15173	127	-53.9	-81.4	205	9
2023-08-18T00:00	15190	126	-54.0	-81.5	205	9
2023-08-18T00:00	15211	126	-54.2	-81.6	204	9
2023-08-18T00:00	15232	126	-54.1	-81.6	203	9
2023-08-18T00:00	15252	125	-54.2	-81.3	202	9
2023-08-18T00:00	15272	125	-53.8	-81.0	199	10
2023-08-18T00:00	15292	124	-53.8	-81.0	197	11
2023-08-18T00:00	15312	124	-53.8	-81.0	196	11
2023-08-18T00:00	15334	124	-53.9	-81.1	195	12
2023-08-18T00:00	15351	123	-54.0	-81.2	195	13
2023-08-18T00:00	15372	123	-54.0	-81.5	195	13
2023-08-18T00:00	15390	123	-54.0	-81.5	196	13
2023-08-18T00:00	15410	122	-54.0	-81.5	197	14
2023-08-18T00:00	15428	122	-54.0	-81.5	198	14
2023-08-18T00:00	15445	122	-54.2	-81.3	200	14
2023-08-18T00:00	15465	121	-54.3	-81.7	201	14
2023-08-18T00:00	15484	121	-54.5	-81.9	202	14
2023-08-18T00:00	15503	120	-54.5	-81.9	204	14
2023-08-18T00:00	15521	120	-54.5	-81.9	205	14
2023-08-18T00:00	15542	120	-54.5	-81.5	207	14
2023-08-18T00:00	15557	119	-54.5	-81.5	209	14
2023-08-18T00:00	15576	119	-54.6	-81.6	211	13
2023-08-18T00:00	15595	119	-54.7	-81.7	213	13
2023-08-18T00:00	15616	118	-54.7	-81.7	216	13
2023-08-18T00:00	15631	118	-54.6	-81.6	218	13
2023-08-18T00:00	15648	118	-54.6	-81.9	220	13
2023-08-18T00:00	15670	117	-54.7	-82.0	221	13
2023-08-18T00:00	15686	117	-54.7	-82.0	221	13
2023-08-18T00:00	15705	117	-54.7	-82.0	221	13
2023-08-18T00:00	15722	116	-54.4	-81.8	222	13
2023-08-18T00:00	15742	116	-54.3	-81.7	222	13
2023-08-18T00:00	15758	116	-54.3	-81.7	223	13
2023-08-18T00:00	15779	115	-54.3	-81.7	225	13
2023-08-18T00:00	15799	115	-54.3	-81.7	227	13
2023-08-18T00:00	15819	115	-54.3	-81.7	230	13
2023-08-18T00:00	15835	114	-54.3	-82.1	233	12
2023-08-18T00:00	15856	114	-54.4	-82.1	235	12
2023-08-18T00:00	15878	114	-54.3	-82.1	237	12
2023-08-18T00:00	15899	113	-54.4	-82.1	240	12
2023-08-18T00:00	15922	113	-54.5	-82.2	242	12
2023-08-18T00:00	15939	112	-54.7	-82.4	244	12
2023-08-18T00:00	15961	112	-54.8	-82.1	247	12
2023-08-18T00:00	15983	112	-54.9	-82.2	249	12
2023-08-18T00:00	16004	111	-55.1	-82.3	250	11
2023-08-18T00:00	16024	111	-55.2	-82.4	251	11
2023-08-18T00:00	16048	111	-55.1	-82.3	251	10
2023-08-18T00:00	16069	110	-55.1	-82.3	250	10
2023-08-18T00:00	16089	110	-55.2	-82.4	248	10
2023-08-18T00:00	16111	110	-55.3	-82.5	245	9
2023-08-18T00:00	16128	109	-55.4	-82.6	241	9
2023-08-18T00:00	16148	109	-55.4	-82.6	236	9
2023-08-18T00:00	16168	109	-55.5	-83.0	232	9
2023-08-18T00:00	16188	108	-55.4	-82.9	228	9
2023-08-18T00:00	16206	108	-54.9	-82.9	224	9
2023-08-18T00:00	16227	108	-54.6	-82.6	222	10
2023-08-18T00:00	16244	107	-54.6	-83.0	220	10
2023-08-18T00:00	16266	107	-54.4	-82.9	219	11
2023-08-18T00:00	16286	107	-54.2	-82.7	219	11
2023-08-18T00:00	16305	106	-53.9	-82.9	220	12
2023-08-18T00:00	16322	106	-54.0	-83.0	220	12
2023-08-18T00:00	16340	106	-53.9	-82.9	221	13
2023-08-18T00:00	16361	105	-53.7	-83.2	222	13
2023-08-18T00:00	16374	105	-53.5	-83.0	222	13
2023-08-18T00:00	16395	105	-53.5	-83.0	222	14
2023-08-18T00:00	16415	104	-53.4	-83.0	222	14
2023-08-18T00:00	16439	104	-53.4	-82.5	222	15
2023-08-18T00:00	16456	104	-53.5	-82.6	222	15
2023-08-18T00:00	16478	103	-53.4	-82.5	223	16
2023-08-18T00:00	16496	103	-53.4	-82.5	223	16
2023-08-18T00:00	16516	103	-53.5	-82.6	223	16
2023-08-18T00:00	16538	103	-53.7	-82.8	223	17
2023-08-18T00:00	16557	102	-53.8	-82.8	223	17
2023-08-18T00:00	16577	102	-53.9	-82.9	223	18
2023-08-18T00:00	16597	102	-54.0	-83.0	223	18
2023-08-18T00:00	16617	101	-54.1	-83.1	224	18
2023-08-18T00:00	16638	101	-54.1	-83.1	224	19
2023-08-18T00:00	16660	101	-54.3	-83.2	225	19
2023-08-18T00:00	16679	100	-54.4	-83.3	226	19
2023-08-18T00:00	16698	100	-54.3	-83.2	228	19
2023-08-18T00:00	16718	100	-54.1	-83.1	230	19
2023-08-18T00:00	16742	99	-54.2	-83.1	232	18
2023-08-18T00:00	16762	99	-54.1	-83.5	234	18
2023-08-18T00:00	16787	99	-53.9	-83.3	236	17
2023-08-18T00:00	16811	98	-53.9	-83.3	238	16
2023-08-18T00:00	16831	98	-53.8	-83.3	240	15
2023-08-18T00:00	16856	98	-53.9	-83.3	242	14
2023-08-18T00:00	16877	97	-53.9	-83.3	244	13
2023-08-18T00:00	16897	97	-53.8	-83.3	246	12
2023-08-18T00:00	16920	97	-53.9	-83.3	248	11
2023-08-18T00:00	16942	96	-53.9	-83.3	250	10
2023-08-18T00:00	16961	96	-53.9	-83.3	251	9
2023-08-18T00:00	16981	96	-53.8	-83.3	253	8
2023-08-18T00:00	17004	95	-53.5	-83.5	256	7
2023-08-18T00:00	17025	95	-53.6	-83.6	259	6
2023-08-18T00:00	17047	95	-53.5	-83.5	262	5
2023-08-18T00:00	17073	94	-53.6	-83.1	264	5
2023-08-18T00:00	17097	94	-53.7	-83.2	266	4
2023-08-18T00:00	17124	94	-53.8	-83.7	267	3
2023-08-18T00:00	17149	93	-53.6	-83.6	267	2
2023-08-18T00:00	17171	93	-53.6	-83.6	260	1
2023-08-18T00:00	17193	93	-53.7	-83.7	127	0
2023-08-18T00:00	17211	92	-53.8	-83.3	115	1
2023-08-18T00:00	17232	92	-54.0	-83.4	116	2
2023-08-18T00:00	17257	92	-54.1	-83.5	118	3
2023-08-18T00:00	17279	91	-54.2	-83.6	118	4
2023-08-18T00:00	17302	91	-54.3	-83.6	118	5
2023-08-18T00:00	17322	91	-54.4	-83.7	118	5
2023-08-18T00:00	17342	90	-54.5	-83.8	119	6
2023-08-18T00:00	17362	90	-54.6	-83.9	121	6
2023-08-18T00:00	17379	90	-54.6	-83.4	123	7
2023-08-18T00:00	17403	90	-54.7	-83.5	126	7
2023-08-18T00:00	17424	89	-54.9	-83.7	128	8
2023-08-18T00:00	17449	89	-55.1	-83.8	131	8
2023-08-18T00:00	17467	89	-55.2	-83.9	132	8
2023-08-18T00:00	17490	88	-55.4	-84.0	134	9
2023-08-18T00:00	17510	88	-55.5	-84.1	136	9
2023-08-18T00:00	17531	88	-55.7	-84.3	139	9
2023-08-18T00:00	17555	87	-55.9	-84.4	142	9
2023-08-18T00:00	17573	87	-56.1	-84.6	145	9
2023-08-18T00:00	17596	87	-56.2	-84.6	149	9
2023-08-18T00:00	17618	87	-56.4	-84.4	153	10
2023-08-18T00:00	17642	86	-56.4	-84.4	158	10
2023-08-18T00:00	17666	86	-56.5	-84.5	162	10
2023-08-18T00:00	17687	86	-56.4	-84.4	165	10
2023-08-18T00:00	17711	85	-56.5	-84.5	168	10
2023-08-18T00:00	17736	85	-56.6	-84.9	170	10
2023-08-18T00:00	17758	85	-56.5	-84.9	171	9
2023-08-18T00:00	17780	84	-56.3	-84.7	173	9
2023-08-18T00:00	17802	84	-56.4	-84.8	174	8
2023-08-18T00:00	17827	84	-56.0	-84.9	177	7
2023-08-18T00:00	17849	83	-55.9	-84.8	180	7
2023-08-18T00:00	17874	83	-55.8	-84.8	183	7
2023-08-18T00:00	17898	83	-55.8	-84.8	186	7
2023-08-18T00:00	17920	83	-55.8	-84.8	188	8
2023-08-18T00:00	17944	82	-55.8	-84.8	189	8
2023-08-18T00:00	17968	82	-55.8	-84.8	190	8
2023-08-18T00:00	17988	82	-55.8	-84.8	190	8
2023-08-18T00:00	18011	81	-55.8	-84.8	189	7
2023-08-18T00:00	18033	81	-55.8	-84.8	186	6
2023-08-18T00:00	18056	81	-55.6	-85.1	182	6
2023-08-18T00:00	18078	81	-55.3	-84.9	177	5
2023-08-18T00:00	18101	80	-54.7	-84.4	172	6
2023-08-18T00:00	18125	80	-54.5	-84.3	171	6
2023-08-18T00:00	18149	80	-54.4	-84.2	171	7
2023-08-18T00:00	18168	79	-54.3	-84.1	172	7
2023-08-18T00:00	18191	79	-54.4	-84.2	173	7
2023-08-18T00:00	18217	79	-54.5	-84.3	175	8
2023-08-18T00:00	18239	79	-54.7	-84.4	177	8
2023-08-18T00:00	18256	78	-54.9	-84.1	179	8
2023-08-18T00:00	18280	78	-55.1	-84.2	181	8
2023-08-18T00:00	18301	78	-55.3	-84.4	182	8
2023-08-18T00:00	18322	78	-55.4	-84.5	184	8
2023-08-18T00:00	18340	77	-55.6	-84.6	185	8
2023-08-18T00:00	18364	77	-55.8	-84.3	187	8
2023-08-18T00:00	18384	77	-55.9	-84.4	188	9
2023-08-18T00:00	18406	77	-56.1	-84.6	190	9
2023-08-18T00:00	18430	76	-56.3	-84.7	193	9
2023-08-18T00:00	18450	76	-56.5	-84.9	195	9
2023-08-18T00:00	18469	76	-56.7	-85.0	198	9
2023-08-18T00:00	18491	76	-56.8	-85.1	201	9
2023-08-18T00:00	18512	75	-56.8	-84.7	204	10
2023-08-18T00:00	18533	75	-57.0	-84.8	207	10
2023-08-18T00:00	18553	75	-57.1	-84.9	209	9
2023-08-18T00:00	18570	75	-57.3	-85.1	209	9
2023-08-18T00:00	18596	74	-57.3	-85.1	209	9
2023-08-18T00:00	18614	74	-57.4	-85.6	207	8
2023-08-18T00:00	18638	74	-57.1	-85.3	204	7
2023-08-18T00:00	18658	74	-57.1	-85.3	200	7
2023-08-18T00:00	18680	73	-57.2	-85.4	197	7
2023-08-18T00:00	18697	73	-57.3	-85.5	193	6
2023-08-18T00:00	18721	73	-57.3	-85.5	192	6
2023-08-18T00:00	18740	73	-57.5	-85.2	192	6
2023-08-18T00:00	18763	72	-57.6	-85.3	195	6
2023-08-18T00:00	18786	72	-57.8	-85.5	200	6
2023-08-18T00:00	18806	72	-57.7	-85.4	206	6
2023-08-18T00:00	18828	72	-57.6	-85.3	211	6
2023-08-18T00:00	18847	71	-57.6	-85.7	215	6
2023-08-18T00:00	18864	71	-57.7	-85.8	216	6
2023-08-18T00:00	18888	71	-57.7	-85.8	213	5
2023-08-18T00:00	18909	71	-57.7	-85.8	206	5
2023-08-18T00:00	18930	70	-57.4	-85.6	196	4
2023-08-18T00:00	18949	70	-57.3	-85.5	186	5
2023-08-18T00:00	18969	70	-57.3	-85.5	180	5
2023-08-18T00:00	18994	70	-57.4	-85.6	179	5
2023-08-18T00:00	19013	70	-57.4	-85.6	183	5
2023-08-18T00:00	19036	69	-57.3	-85.5	189	5
2023-08-18T00:00	19057	69	-57.3	-85.9	195	5
2023-08-18T00:00	19080	69	-57.1	-85.7	201	5
2023-08-18T00:00	19095	69	-57.1	-85.7	205	5
2023-08-18T00:00	19119	68	-57.1	-85.7	206	5
2023-08-18T00:00	19141	68	-57.2	-85.8	203	4
2023-08-18T00:00	19160	68	-57.2	-85.8	196	4
2023-08-18T00:00	19183	68	-57.2	-85.8	185	4
2023-08-18T00:00	19203	67	-56.9	-85.6	172	3
2023-08-18T00:00	19226	67	-57.0	-85.7	159	3
2023-08-18T00:00	19249	67	-57.0	-85.7	149	3
2023-08-18T00:00	19271	67	-56.6	-85.4	143	3
2023-08-18T00:00	19293	67	-56.1	-85.5	141	2
2023-08-18T00:00	19318	66	-56.0		143	2
2023-08-18T00:00	19336	66	-56.1	-85.5	152	1
2023-08-18T00:00	19359	66	-56.2	-85.1	170	1
2023-08-18T00:00	19380	66	-56.4	-85.2	205	0
2023-08-18T00:00	19404	65	-56.5	-85.3	299	0
2023-08-18T00:00	19422	65	-56.6	-85.4	44	0
2023-08-18T00:00	19450	65	-56.6	-85.4	77	1
2023-08-18T00:00	19468	65	-56.5	-85.8	96	2
2023-08-18T00:00	19494	64	-56.2	-85.5	109	2
2023-08-18T00:00	19516	64	-55.6	-85.1	120	3
2023-08-18T00:00	19540	64	-55.3	-85.4	128	4
2023-08-18T00:00	19562	64	-55.3	-85.4	134	5
2023-08-18T00:00	19588	64	-55.4	-84.9	139	6
2023-08-18T00:00	19610	63	-55.5	-85.0	142	6
2023-08-18T00:00	19632	63	-55.5	-85.0	144	7
2023-08-18T00:00	19649	63	-55.7	-85.2	146	7
2023-08-18T00:00	19674	63	-55.8	-84.8	149	7
2023-08-18T00:00	19695	62	-55.9	-84.8	152	8
2023-08-18T00:00	19718	62	-56.1	-85.0	155	8
2023-08-18T00:00	19741	62	-56.3	-85.1	159	9
2023-08-18T00:00	19760	62	-56.4	-85.2	163	9
2023-08-18T00:00	19784	62	-56.4	-85.2	167	9
2023-08-18T00:00	19809	61	-56.6	-85.4	169	9
2023-08-18T00:00	19833	61	-56.6	-85.4	171	9
2023-08-18T00:00	19854	61	-56.4	-85.2	172	9
2023-08-18T00:00	19875	61	-56.6	-85.4	173	9
2023-08-18T00:00	19902	60	-56.7	-85.4	174	9
2023-08-18T00:00	19924	60	-56.8	-85.5	174	8
2023-08-18T00:00	19944	60	-56.9	-85.6	173	8
2023-08-18T00:00	19971	60	-57.0	-85.7	171	8
2023-08-18T00:00	19995	60	-56.8	-85.5	168	8
2023-08-18T00:00	20017	59	-56.4	-85.2	165	8
2023-08-18T00:00	20040	59	-56.6	-85.4	163	8
2023-08-18T00:00	20063	59	-56.8	-85.5	162	8
2023-08-18T00:00	20084	59	-56.9	-85.6	163	7
2023-08-18T00:00	20107	59	-57.0	-85.7	164	7
2023-08-18T00:00	20135	58	-56.7	-85.4	165	6
2023-08-18T00:00	20155	58	-56.1	-85.5	167	6
2023-08-18T00:00	20181	58	-56.0		170	5
2023-08-18T00:00	20207	58	-56.0		175	5
2023-08-18T00:00	20233	57	-56.0		182	4
2023-08-18T00:00	20257	57	-56.1	-85.5	191	4
2023-08-18T00:00	20278	57	-56.3	-85.1	200	4
2023-08-18T00:00	20308	57	-56.4	-85.2	209	3
2023-08-18T00:00	20338	56	-56.5	-85.3	217	3
2023-08-18T00:00	20354	56	-56.5	-85.3	225	3
2023-08-18T00:00	20374	56	-56.4	-85.2	234	2
2023-08-18T00:00	20406	56	-56.5	-85.3	242	2
2023-08-18T00:00	20436	56	-56.5	-85.3	250	2
2023-08-18T00:00	20459	55	-56.6	-85.4	263	1
2023-08-18T00:00	20484	55	-56.7	-85.4	327	0
2023-08-18T00:00	20509	55	-56.4	-85.7	33	1
2023-08-18T00:00	20529	55	-56.1	-85.5	43	2
2023-08-18T00:00	20559	55	-55.9	-85.3	45	3
2023-08-18T00:00	20580	54	-55.6	-85.1	47	4
2023-08-18T00:00	20602	54	-55.6	-85.1	51	4
2023-08-18T00:00	20631	54	-55.4	-84.9	55	4
2023-08-18T00:00	20656	54	-55.4	-84.9	62	5
2023-08-18T00:00	20679	54	-55.4	-84.9	70	4
2023-08-18T00:00	20702	53	-55.2	-84.8	79	4
2023-08-18T00:00	20721	53	-55.2	-84.8	88	4
2023-08-18T00:00	20741	53	-55.4	-84.9	96	5
2023-08-18T00:00	20772	53	-55.5	-85.0	103	5
2023-08-18T00:00	20790	53	-55.6	-85.1	109	5
2023-08-18T00:00	20814	52	-55.6	-85.1	116	5
2023-08-18T00:00	20835	52	-55.7	-84.7	123	6
2023-08-18T00:00	20857	52	-55.7	-84.7	129	6
2023-08-18T00:00	20880	52	-55.8	-84.8	135	7
2023-08-18T00:00	20901	52	-55.9	-84.8	141	7
2023-08-18T00:00	20915	51	-55.9	-85.3	145	7
2023-08-18T00:00	20944	51	-55.9	-85.3	150	7
2023-08-18T00:00	20962	51	-55.7	-85.2	154	7
2023-08-18T00:00	20979	51	-55.6	-85.1	158	7
2023-08-18T00:00	21004	51	-55.6	-85.1	161	7
2023-08-18T00:00	21027	51	-55.6	-85.1	163	6
2023-08-18T00:00	21045	50	-55.7	-85.2	166	6
2023-08-18T00:00	21068	50	-55.9	-84.8	170	6
2023-08-18T00:00	21082	50	-56.0	-84.9	174	5
2023-08-18T00:00	21109	50	-56.0	-84.9	178	5
2023-08-18T00:00	21124	50	-56.0		180	5
2023-08-18T00:00	21148	50	-56.1	-85.5	179	4
2023-08-18T00:00	21168	50	-56.1	-85.5	173	4
2023-08-18T00:00	21190	49	-55.7	-85.2	163	4
2023-08-18T00:00	21213	49	-55.5	-85.0	149	4
2023-08-18T00:00	21234	49	-55.4	-84.9	137	4
2023-08-18T00:00	21259	49	-55.3	-84.9	130	5
2023-08-18T00:00	21275	49	-55.3	-84.9	127	6
2023-08-18T00:00	21299	49	-55.3	-84.9	126	7
2023-08-18T00:00	21318	48	-55.4	-84.9	128	7
2023-08-18T00:00	21343	48	-55.2	-84.8	131	8
2023-08-18T00:00	21363	48	-55.0	-84.6	135	8
2023-08-18T00:00	21388	48	-55.0	-84.6	139	8
2023-08-18T00:00	21411	48	-55.1	-84.7	143	8
2023-08-18T00:00	21432	48	-55.1	-84.7	146	8
2023-08-18T00:00	21459	47	-55.2	-84.8	147	8
2023-08-18T00:00	21481	47	-55.3	-84.9	147	8
2023-08-18T00:00	21503	47	-55.4	-84.9	147	7
2023-08-18T00:00	21530	47	-55.6	-85.1	147	7
2023-08-18T00:00	21555	47	-55.5	-85.0	148	6
2023-08-18T00:00	21576	46	-55.4	-84.9	149	6
2023-08-18T00:00	21605	46	-55.3	-84.9	151	5
2023-08-18T00:00	21626	46	-55.2	-84.8	154	5
2023-08-18T00:00	21651	46	-55.3	-84.9	157	4
2023-08-18T00:00	21677	46	-55.5	-85.0	161	4
2023-08-18T00:00	21699	46	-55.6	-85.1	163	3
2023-08-18T00:00	21727	45	-55.6	-85.1	164	3
2023-08-18T00:00	21747	45	-55.5	-85.0	158	2
2023-08-18T00:00	21777	45	-55.5	-85.0	142	2
2023-08-18T00:00	21799	45	-55.7	-85.2	114	1
2023-08-18T00:00	21822	45	-55.7	-85.2	90	2
2023-08-18T00:00	21847	45	-55.7	-85.2	76	2
2023-08-18T00:00	21876	44	-55.6	-85.1	69	3
2023-08-18T00:00	21902	44	-55.5	-85.0	65	4
2023-08-18T00:00	21923	44	-55.4	-84.9	64	5
2023-08-18T00:00	21946	44	-55.5	-85.0	64	5
2023-08-18T00:00	21975	44	-55.5	-85.0	65	6
2023-08-18T00:00	21992	44	-55.6	-85.1	66	7
2023-08-18T00:00	22025	43	-55.6	-85.1	68	7
2023-08-18T00:00	22050	43	-55.6	-85.1	70	8
2023-08-18T00:00	22068	43	-55.8	-85.2	73	8
2023-08-18T00:00	22091	43	-55.9	-84.8	76	8
2023-08-18T00:00	22119	43	-56.0	-84.9	80	8
2023-08-18T00:00	22141	43	-56.0	-84.9	85	9
2023-08-18T00:00	22165	42	-56.1	-85.0	89	9
2023-08-18T00:00	22194	42	-56.1	-85.5	93	9
2023-08-18T00:00	22213	42	-56.1	-85.5	97	9
2023-08-18T00:00	22228	42	-55.8	-85.2	100	9
2023-08-18T00:00	22252	42	-55.5	-85.0	102	9
2023-08-18T00:00	22275	42	-55.6	-85.1	105	9
2023-08-18T00:00	22295	41	-55.6	-85.1	108	9
2023-08-18T00:00	22318	41	-55.6	-85.1	111	9
2023-08-18T00:00	22338	41	-55.5	-85.0	113	9
2023-08-18T00:00	22356	41	-55.6	-85.1	115	9
2023-08-18T00:00	22379	41	-55.6	-85.1	116	9
2023-08-18T00:00	22399	41	-55.5	-85.0	118	9
2023-08-18T00:00	22417	41	-55.5	-85.0	120	9
2023-08-18T00:00	22435	41	-55.4	-84.9	123	9
2023-08-18T00:00	22458	40	-55.3	-85.4	127	9
2023-08-18T00:00	22479	40	-55.2	-85.3	130	9
2023-08-18T00:00	22504	40	-55.1	-85.2	132	9
2023-08-18T00:00	22521	40	-55.1	-85.2	133	9
2023-08-18T00:00	22543	40	-55.1	-85.2	134	9
2023-08-18T00:00	22564	40	-55.0	-85.1	133	9
2023-08-18T00:00	22587	40	-55.0	-85.1	132	8
2023-08-18T00:00	22614	39	-54.6	-84.8	129	8
2023-08-18T00:00	22630	39	-54.5	-84.8	126	8
2023-08-18T00:00	22650	39	-54.5	-84.8	123	7
2023-08-18T00:00	22674	39	-54.3	-84.6	118	7
2023-08-18T00:00	22696	39	-54.3	-84.6	113	7
2023-08-18T00:00	22720	39	-54.4	-84.7	109	7
2023-08-18T00:00	22736	39	-54.5	-84.8	104	8
2023-08-18T00:00	22759	39	-54.6	-84.8	101	8
2023-08-18T00:00	22782	38	-54.5	-84.8	99	8
2023-08-18T00:00	22804	38	-54.5	-84.8	98	9
2023-08-18T00:00	22831	38	-54.5	-84.8	99	9
2023-08-18T00:00	22847	38	-54.5	-84.8	100	9
2023-08-18T00:00	22873	38	-54.6	-84.3	102	9
2023-08-18T00:00	22896	38	-54.7	-84.4	104	9
2023-08-18T00:00	22927	38	-54.8	-84.5	105	9
2023-08-18T00:00	22948	37	-54.9	-84.6	106	8
2023-08-18T00:00	22968	37	-55.0	-84.6	106	8
2023-08-18T00:00	22993	37	-55.1	-84.7	106	8
2023-08-18T00:00	23014	37	-55.1	-84.7	106	7
2023-08-18T00:00	23041	37	-55.3	-84.9	105	7
2023-08-18T00:00	23056	37	-55.4	-84.9	105	6
2023-08-18T00:00	23084	37	-55.3	-84.9	105	6
2023-08-18T00:00	23113	37	-55.1	-84.7	106	5
2023-08-18T00:00	23135	36	-55.0	-84.6	108	5
2023-08-18T00:00	23156	36	-55.0	-85.1	112	4
2023-08-18T00:00	23187	36	-55.1	-85.2	115	4
2023-08-18T00:00	23212	36	-55.1	-85.2	115	4
2023-08-18T00:00	23230	36	-54.8	-85.0	113	4
2023-08-18T00:00	23256	36	-54.7	-84.9	108	5
2023-08-18T00:00	23278	36	-54.8	-85.0	103	5
2023-08-18T00:00	23303	35	-54.8	-85.0	98	6
2023-08-18T00:00	23332	35	-55.0	-85.1	94	6
2023-08-18T00:00	23362	35	-55.1	-84.7	91	7
2023-08-18T00:00	23374	35	-55.2	-84.8	89	7
2023-08-18T00:00	23404	35	-55.2	-84.8	88	8
2023-08-18T00:00	23429	35	-55.3	-84.9	87	8
2023-08-18T00:00	23457	35	-55.3	-84.9	86	8
2023-08-18T00:00	23484	34	-55.4	-84.9	87	8
2023-08-18T00:00	23497	34	-55.3	-84.9	88	7
2023-08-18T00:00	23525	34	-55.1	-85.2	89	7
2023-08-18T00:00	23542	34	-55.1	-85.2	91	7
2023-08-18T00:00	23569	34	-55.2	-85.3	92	7
2023-08-18T00:00	23596	34	-55.1	-85.2	93	7
2023-08-18T00:00	23620	34	-55.0	-85.1	93	7
2023-08-18T00:00	23642	34	-55.1	-85.2	94	8
2023-08-18T00:00	23665	33	-55.2	-84.8	95	8
2023-08-18T00:00	23687	33	-55.2	-84.8	97	9
2023-08-18T00:00	23708	33	-55.2	-84.8	100	9
2023-08-18T00:00	23731	33	-55.3	-84.9	102	9
2023-08-18T00:00	23760	33	-55.5	-85.0	103	9
2023-08-18T00:00	23782	33	-55.6	-85.1	104	9
2023-08-18T00:00	23798	33	-55.7	-85.2	104	9
2023-08-18T00:00	23824	33	-55.8	-85.2	105	9
2023-08-18T00:00	23847	33	-55.9	-85.3	105	9
2023-08-18T00:00	23871	32	-56.0		106	9
2023-08-18T00:00	23899	32	-56.0		107	8
2023-08-18T00:00	23919	32	-56.1	-85.5	108	8
2023-08-18T00:00	23944	32	-56.1	-85.5	109	8
2023-08-18T00:00	23968	32	-55.9	-85.3	111	7
2023-08-18T00:00	23997	32	-55.7	-85.7	114	7
2023-08-18T00:00	24015	32	-55.7	-85.7	117	6
2023-08-18T00:00	24039	32	-55.4	-85.4	120	5
2023-08-18T00:00	24073	31	-55.1	-85.2	121	5
2023-08-18T00:00	24097	31	-54.9	-85.6	121	4
2023-08-18T00:00	24114	31	-54.9	-85.6	120	4
2023-08-18T00:00	24136	31	-54.7	-85.5	118	4
2023-08-18T00:00	24164	31	-54.6	-85.4	116	4
2023-08-18T00:00	24191	31	-54.3	-85.2	113	4
2023-08-18T00:00	24214	31	-54.1	-85.0	108	4
2023-08-18T00:00	24246	31	-54.0	-84.9	103	4
2023-08-18T00:00	24260	31	-53.9	-84.9	98	4
2023-08-18T00:00	24302	30	-53.8	-84.8	94	4
2023-08-18T00:00	24318	30	-53.6	-84.6	91	4
2023-08-18T00:00	24342	30	-53.6	-84.6	87	4
2023-08-18T00:00	24367	30	-53.4	-84.5	83	4
2023-08-18T00:00	24395	30	-53.3	-84.4	81	5
2023-08-18T00:00	24421	30	-53.1	-84.3	79	5
2023-08-18T00:00	24445	30	-53.1	-84.3	81	6
2023-08-18T00:00	24480	30	-53.1	-84.3	83	6
2023-08-18T00:00	24500	29	-53.1	-84.3	87	7
2023-08-18T00:00	24521	29	-53.1	-84.3	90	7
2023-08-18T00:00	24545	29	-52.7	-84.0	91	7
2023-08-18T00:00	24578	29	-52.8	-84.1	90	7
2023-08-18T00:00	24602	29	-52.7	-84.0	88	7
2023-08-18T00:00	24628	29	-52.7	-84.0	84	7
2023-08-18T00:00	24653	29	-52.7	-84.0	81	7
2023-08-18T00:00	24682	29	-52.6	-83.9	79	7
2023-08-18T00:00	24708	29	-52.5	-83.8	80	7
2023-08-18T00:00	24728	28	-52.5	-83.8	82	8
2023-08-18T00:00	24762	28	-52.5	-83.8	84	8
2023-08-18T00:00	24774	28	-52.5	-84.4	86	9
2023-08-18T00:00	24797	28	-52.4	-84.4	87	9
2023-08-18T00:00	24825	28	-52.4	-84.4	88	10
2023-08-18T00:00	24849	28	-52.3	-84.3	89	10
2023-08-18T00:00	24878	28	-52.1	-84.2	89	11
2023-08-18T00:00	24906	28	-52.2	-84.2	89	12
2023-08-18T00:00	24921	28	-52.1	-84.2	88	13
2023-08-18T00:00	24941	27	-52.2	-84.2	88	13
2023-08-18T00:00	24967	27	-52.2	-84.2	89	14
2023-08-18T00:00	24994	27	-51.9	-84.0	89	14
2023-08-18T00:00	25015	27	-51.9	-84.0	91	15
2023-08-18T00:00	25041	27	-51.9	-83.4	92	15
2023-08-18T00:00	25066	27	-52.0	-83.5	94	15
2023-08-18T00:00	25087	27	-52.1	-83.5	96	15
2023-08-18T00:00	25120	27	-52.3	-83.7	98	15
2023-08-18T00:00	25134	27	-52.1	-83.5	100	15
2023-08-18T00:00	25163	27	-52.2	-83.6	102	15
2023-08-18T00:00	25187	26	-52.3	-83.7	104	14
2023-08-18T00:00	25211	26	-52.3	-83.7	107	14
2023-08-18T00:00	25236	26	-52.5	-83.8	111	14
2023-08-18T00:00	25259	26	-52.7	-84.0	115	14
2023-08-18T00:00	25292	26	-52.8	-84.1	119	13
2023-08-18T00:00	25314	26	-52.6	-83.9	123	13
2023-08-18T00:00	25337	26	-52.4	-83.8	128	13
2023-08-18T00:00	25369	26	-52.3	-84.3	132	12
2023-08-18T00:00	25397	26	-52.2	-84.2	136	12
2023-08-18T00:00	25417	26	-51.9	-84.0	140	11
2023-08-18T00:00	25443	25	-51.7	-83.9	144	11
2023-08-18T00:00	25470	25	-51.6	-83.8	147	10
2023-08-18T00:00	25503	25	-51.6	-83.8	151	9
2023-08-18T00:00	25530	25	-51.6	-83.8	154	9
2023-08-18T00:00	25547	25	-51.3	-83.6	156	8
2023-08-18T00:00	25571	25	-51.2	-83.5	156	7
2023-08-18T00:00	25604	25	-51.1	-83.4	153	6
2023-08-18T00:00	25625	25	-51.2	-83.5	147	6
2023-08-18T00:00	25655	25	-50.9	-83.3	139	5
2023-08-18T00:00	25677	25	-50.8	-83.2	132	5
2023-08-18T00:00	25701	24	-50.8	-83.2	127	5
2023-08-18T00:00	25732	24	-50.7	-83.1	123	5
2023-08-18T00:00	25757	24	-50.7	-83.1	119	4
2023-08-18T00:00	25795	24	-50.6	-83.1	114	4
2023-08-18T00:00	25810	24	-50.5	-83.0	106	4
2023-08-18T00:00	25837	24	-50.6	-83.1	98	4
2023-08-18T00:00	25862	24	-50.6	-83.1	90	4
2023-08-18T00:00	25887	24	-50.7	-83.1	83	4
2023-08-18T00:00	25915	24	-50.8	-83.2	77	3
2023-08-18T00:00	25941	24	-50.9	-83.3	71	3
2023-08-18T00:00	25969	23	-51.0	-83.3	65	3
2023-08-18T00:00	25994	23	-51.0	-83.3	59	3
2023-08-18T00:00	26017	23	-51.0	-83.3	53	3
2023-08-18T00:00	26042	23	-51.1	-83.4	50	3
2023-08-18T00:00	26069	23	-50.9	-83.3	49	4
2023-08-18T00:00	26098	23	-50.6	-83.1	50	5
2023-08-18T00:00	26121	23	-50.6	-83.1	53	5
2023-08-18T00:00	26156	23	-50.6	-83.1	56	6
2023-08-18T00:00	26176	23	-50.5	-83.0	59	6
2023-08-18T00:00	26206	23	-50.5	-83.0	62	7
2023-08-18T00:00	26227	23	-50.6	-83.1	64	8
2023-08-18T00:00	26253	22	-50.7	-83.1	65	8
2023-08-18T00:00	26278	22	-50.9	-83.3	67	9
2023-08-18T00:00	26300	22	-51.0	-83.3	68	9
2023-08-18T00:00	26318	22	-51.0	-83.3	69	9
2023-08-18T00:00	26355	22	-50.9	-83.3	70	9
2023-08-18T00:00	26368	22	-50.8	-83.2	72	8
2023-08-18T00:00	26404	22	-50.5	-83.7	73	8
2023-08-18T00:00	26421	22	-50.4	-83.6	75	8
2023-08-18T00:00	26452	22	-50.4	-83.6	76	7
2023-08-18T00:00	26472	22	-50.3	-83.5	77	7
2023-08-18T00:00	26493	22	-50.1	-83.4	77	7
2023-08-18T00:00	26516	22	-50.1	-83.4	77	7
2023-08-18T00:00	26544	21	-50.0	-83.3	76	8
2023-08-18T00:00	26565	21	-49.6	-83.0	76	8
2023-08-18T00:00	26597	21	-49.5	-82.9	76	8
2023-08-18T00:00	26618	21	-49.6	-83.0	76	8
2023-08-18T00:00	26635	21	-49.4	-82.9	75	7
2023-08-18T00:00	26675	21	-49.3	-82.8	74	7
2023-08-18T00:00	26687	21	-49.3	-82.8	71	7
2023-08-18T00:00	26709	21	-49.2	-82.7	68	7
2023-08-18T00:00	26738	21	-49.2	-82.7	64	6
2023-08-18T00:00	26757	21	-49.1	-82.7	61	6
2023-08-18T00:00	26782	21	-49.1	-82.7	59	6
2023-08-18T00:00	26795	21	-49.1	-82.7	58	6
2023-08-18T00:00	26830	21	-49.1	-82.7	58	7
2023-08-18T00:00	26860	20	-49.1	-82.7	58	7
2023-08-18T00:00	26869	20	-49.2	-82.7	59	7
2023-08-18T00:00	26896	20	-49.1	-82.7	59	7
2023-08-18T00:00	26933	20	-49.2	-82.7	60	8
2023-08-18T00:00	26945	20	-49.1	-82.7	62	8
2023-08-18T00:00	26984	20	-49.1	-82.7	64	8
2023-08-18T00:00	26998	20	-49.1	-82.7	66	9
2023-08-18T00:00	27034	20	-49.1	-82.7	69	9
2023-08-18T00:00	27051	20	-49.0	-82.6	72	9
2023-08-18T00:00	27083	20	-49.1	-82.7	75	10
2023-08-18T00:00	27116	20	-48.9	-82.5	77	10
2023-08-18T00:00	27141	20	-48.9	-82.5	80	10
2023-08-18T00:00	27159	20	-49.1	-82.7	82	10
2023-08-18T00:00	27184	19	-49.3	-82.8	84	10
2023-08-18T00:00	27217	19	-49.4	-82.9	86	10
2023-08-18T00:00	27246	19	-49.3	-82.8	88	10
2023-08-18T00:00	27274	19	-49.1	-82.7	90	9
2023-08-18T00:00	27308	19	-48.9	-82.5	92	9
2023-08-18T00:00	27318	19	-48.7	-82.4	93	9
2023-08-18T00:00	27357	19	-48.5	-83.0	94	9
2023-08-18T00:00	27383	19	-48.3	-82.9	95	8
2023-08-18T00:00	27409	19	-48.1	-82.7	96	8
2023-08-18T00:00	27429	19	-48.0	-82.7	97	8
2023-08-18T00:00	27452	19	-48.1	-82.7	98	9
2023-08-18T00:00	27491	19	-48.1	-82.7	99	9
2023-08-18T00:00	27525	19	-48.2	-82.8	101	9
2023-08-18T00:00	27548	18	-48.2	-82.8	103	9
2023-08-18T00:00	27573	18	-48.1	-82.7	106	9
2023-08-18T00:00	27603	18	-48.0	-82.7	108	9
2023-08-18T00:00	27626	18	-48.0	-82.7	110	9
2023-08-18T00:00	27656	18	-47.9	-82.6	111	9
2023-08-18T00:00	27678	18	-47.7	-82.4	113	9
2023-08-18T00:00	27709	18	-47.7	-82.4	116	8
2023-08-18T00:00	27734	18	-47.6	-82.4	118	8
2023-08-18T00:00	27767	18	-47.4	-82.2	121	9
2023-08-18T00:00	27800	18	-47.4	-82.2	124	9
2023-08-18T00:00	27822	18	-47.3	-82.2	126	9
2023-08-18T00:00	27855	18	-47.3	-82.2	126	9
2023-08-18T00:00	27892	18	-47.1	-82.0	127	9
2023-08-18T00:00	27922	17	-47.0	-81.9	127	10
2023-08-18T00:00	27952	17	-47.0	-81.9	127	9
2023-08-18T00:00	27982	17	-47.1	-82.0	128	9
2023-08-18T00:00	28010	17	-47.2	-82.1	128	9
2023-08-18T00:00	28036	17	-47.1	-82.0	129	9
2023-08-18T00:00	28071	17	-47.0	-81.9	129	9
2023-08-18T00:00	28095	17	-46.8	-81.8	129	8
2023-08-18T00:00	28129	17	-46.8	-81.8	129	8
2023-08-18T00:00	28145	17	-46.8	-81.8	128	7
2023-08-18T00:00	28188	17	-46.7	-81.7	126	7
2023-08-18T00:00	28213	17	-46.6	-81.7	123	6
2023-08-18T00:00	28242	17	-46.7	-81.7	120	6
2023-08-18T00:00	28255	17	-46.7	-81.7	115	6
2023-08-18T00:00	28302	16	-46.7	-81.7	110	6
2023-08-18T00:00	28335	16	-46.9	-81.9	104	6
2023-08-18T00:00	28353	16	-46.9	-81.9	98	6
2023-08-18T00:00	28380	16	-47.0	-81.9	93	5
2023-08-18T00:00	28413	16	-47.0	-81.9	89	5
2023-08-18T00:00	28438	16	-47.0	-81.9	86	5
2023-08-18T00:00	28469	16	-47.1	-82.0	85	5
2023-08-18T00:00	28501	16	-47.1	-82.0	86	5
2023-08-18T00:00	28527	16	-47.1	-82.0	88	5
2023-08-18T00:00	28535	16	-47.1	-82.0	90	5
2023-08-18T00:00	28582	16	-47.2	-82.1	93	6
2023-08-18T00:00	28618	16	-47.4	-82.2	95	6
2023-08-18T00:00	28630	16	-47.5	-82.3	96	6
2023-08-18T00:00	28653	16	-47.6	-82.4	98	7
2023-08-18T00:00	28694	16	-47.6	-82.4	99	7
2023-08-18T00:00	28712	15	-47.7	-82.4	101	8
2023-08-18T00:00	28748	15	-47.8	-82.5	103	8
2023-08-18T00:00	28773	15	-47.7	-82.4	106	8
2023-08-18T00:00	28802	15	-47.8	-82.5	109	8
2023-08-18T00:00	28821	15	-47.8	-82.5	113	8
2023-08-18T00:00	28854	15	-47.8	-82.5	118	7
2023-08-18T00:00	28876	15	-47.8	-82.5	122	7
2023-08-18T00:00	28907	15	-47.9	-82.6	125	7
2023-08-18T00:00	28923	15	-48.0	-82.7	126	7
2023-08-18T00:00	28943	15	-47.8	-82.5	125	7
2023-08-18T00:00	28980	15	-47.7	-82.4	123	6
2023-08-18T00:00	29002	15	-47.6	-82.4	121	6
2023-08-18T00:00	29017	15	-47.6	-82.4	120	6
2023-08-18T00:00	29061	15	-47.4	-82.2	121	6
2023-08-18T00:00	29078	15	-47.1	-82.0	124	6
2023-08-18T00:00	29099	15	-47.1	-82.9	127	6
2023-08-18T00:00	29117	15	-46.9	-82.8	131	6
2023-08-18T00:00	29135	15	-46.6	-82.6	135	6
2023-08-18T00:00	29157	14	-46.4	-82.4	139	7
2023-08-18T00:00	29184	14	-46.3	-82.4	141	7
2023-08-18T00:00	29196	14	-46.2	-82.3	142	7
2023-08-18T00:00	29213	14	-46.2	-82.3	141	6
2023-08-18T00:00	29244	14	-46.1	-82.2	138	6
2023-08-18T00:00	29272	14	-45.9	-82.1	133	5
2023-08-18T00:00	29291	14	-45.7	-81.9	126	4
2023-08-18T00:00	29323	14	-45.7	-81.9	118	4
2023-08-18T00:00	29347	14	-45.2	-81.6	109	4
2023-08-18T00:00	29350	14	-45.1	-81.5	101	4
2023-08-18T00:00	29380	14	-44.9	-81.4	94	5
2023-08-18T00:00	29403	14	-44.7	-81.2	89	5
2023-08-18T00:00	29425	14	-44.5	-81.1	85	5
2023-08-18T00:00	29446	14	-44.5	-81.1	82	6
2023-08-18T00:00	29481	14	-44.5	-81.1	80	5
2023-08-18T00:00	29488	14	-44.5	-81.1	79	5
2023-08-18T00:00	29523	14	-44.4	-81.0	78	5
2023-08-18T00:00	29562	14	-44.2	-80.9	77	5
2023-08-18T00:00	29570	14	-44.1	-80.8	76	6
2023-08-18T00:00	29588	14	-44.0	-80.7	75	6
2023-08-18T00:00	29620	13	-44.0	-80.7	75	7
2023-08-18T00:00	29645	13	-44.0	-80.7	74	8
2023-08-18T00:00	29670	13	-43.8	-80.6	75	8
2023-08-18T00:00	29694	13	-43.7	-80.5	75	9
2023-08-18T00:00	29728	13	-43.8	-80.6	76	8
2023-08-18T00:00	29749	13	-43.7	-80.5	78	8
2023-08-18T00:00	29778	13	-43.4	-80.3	80	7
2023-08-18T00:00	29802	13	-43.4	-80.3	83	7
2023-08-18T00:00	29830	13	-43.5	-80.4	86	6
2023-08-18T00:00	29866	13	-43.7	-80.5	88	6
2023-08-18T00:00	29885	13	-43.7	-80.5	90	6
2023-08-18T00:00	29923	13	-43.7	-80.5	92	5
2023-08-18T00:00	29954	13	-43.7	-80.5	95	5
2023-08-18T00:00	29974	13	-43.8	-80.6	96	4
2023-08-18T00:00	30004	13	-43.8	-80.6	95	4
2023-08-18T00:00	30021	13	-43.8	-80.6	92	5
2023-08-18T00:00	30058	13	-43.8	-80.6	89	6
2023-08-18T00:00	30092	13	-43.5	-80.4	88	7
2023-08-18T00:00	30128	13	-43.2	-81.3	87	8
2023-08-18T00:00	30151	12	-43.2	-81.3	89	9
2023-08-18T00:00	30185	12	-43.1	-81.2	91	10
2023-08-18T00:00	30208	12	-43.0	-81.1	93	11
2023-08-18T00:00	30253	12	-43.0	-81.1	95	11
2023-08-18T00:00	30288	12	-42.9	-81.1	96	11
2023-08-18T00:00	30326	12	-42.7	-80.9	98	10
2023-08-18T00:00	30353	12	-42.6	-80.8	99	10
2023-08-18T00:00	30395	12	-42.5	-80.8	101	9
2023-08-18T00:00	30402	12	-42.3	-80.6	104	8
2023-08-18T00:00	30432	12	-42.3	-80.6	107	7
2023-08-18T00:00	30486	12	-42.4	-80.7	112	6
2023-08-18T00:00	30509	12	-42.3	-80.6	118	6
2023-08-18T00:00	30523	12	-42.3	-80.6	124	5
2023-08-18T00:00	30549	12	-42.4	-80.7	130	5
2023-08-18T00:00	30566	12	-42.5	-80.8	137	4
2023-08-18T00:00	30606	12	-42.6	-80.8	142	4
2023-08-18T00:00	30640	12	-42.6	-80.8	146	3
2023-08-18T00:00	30642	12	-42.6	-80.8	146	2
2023-08-18T00:00	30672	12	-42.5	-80.8	139	2
2023-08-18T00:00	30716	11	-42.5	-80.8	119	2
2023-08-18T00:00	30748	11	-42.3	-80.6	80	3
2023-08-18T00:00	30786	11	-42.4	-80.7	72	4
2023-08-18T00:00	30806	11	-42.4	-80.7	69	4
2023-08-18T00:00	30826	11	-42.2	-80.6	66	5
2023-08-18T00:00	30854	11	-42.1	-80.5	65	6
2023-08-18T00:00	30887	11	-42.2	-80.6	64	6
2023-08-18T00:00	30906	11	-42.3	-80.6	63	6
2023-08-18T00:00	30914	11	-42.4	-80.7	61	6
2023-08-18T00:00	30942	11	-42.4	-80.7	59	5
2023-08-18T00:00	30963	11	-42.5	-80.8	56	5
2023-08-18T00:00	31001	11	-42.7	-80.9	51	4
2023-08-18T00:00	31025	11	-42.9	-81.1	43	4
2023-08-18T00:00	31062	11	-43.1	-81.2	26	4
2023-08-18T00:00	31072	11	-42.9	-81.1	19	4
2023-08-18T00:00	31112	11	-42.8	-81.0	15	4
2023-08-18T00:00	31116	11	-42.7	-80.9	11	4
2023-08-18T00:00	31132	11	-42.4	-80.7	10	4
2023-08-18T00:00	31157	11	-42.3	-80.6	10	4
2023-08-18T00:00	31201	11	-42.2	-80.6	14	5
2023-08-18T00:00	31237	11	-42.0	-80.4	28	6
2023-08-18T00:00	31252	11	-41.8	-80.3	35	6
2023-08-18T00:00	31266	11	-41.6	-80.1	40	7
2023-08-18T00:00	31311	11	-41.5	-80.1	45	7
2023-08-18T00:00	31330	11	-41.5	-80.1	47	8
2023-08-18T00:00	31371	10	-41.6	-80.1	50	9
2023-08-18T00:00	31383	10	-41.6	-80.1	52	9
2023-08-18T00:00	31394	10	-41.6	-80.1	53	9
2023-08-18T00:00	31446	10	-41.8	-80.3	56	9
2023-08-18T00:00	31476	10	-41.9	-80.4	59	9
2023-08-18T00:00	31500	10	-42.1	-80.5	70	9
2023-08-18T00:00	31532	10	-42.2	-80.6	76	9
2023-08-18T00:00	31572	10	-42.2	-80.6	82	10
2023-08-18T00:00	31598	10	-42.2	-80.6	87	10
2023-08-18T00:00	31608	10	-42.2	-80.6	92	11
2023-08-18T00:00	31657	10	-42.1	-80.5	96	11
2023-08-18T00:00	31671	10	-41.9	-80.4	98	12
2023-08-18T00:00	31691	10	-41.8	-80.3	100	11
2023-08-18T00:00	31713	10	-41.8	-80.3	102	11
2023-08-18T00:00	31733	10	-41.6	-80.1	104	10
2023-08-18T00:00	31754	10	-41.6	-80.1	105	10
2023-08-18T00:00	31801	10	-41.7	-80.2	106	9
2023-08-18T00:00	31818	10	-41.6	-80.1	108	8
2023-08-18T00:00	31824	10	-41.4	-80.0	110	7
2023-08-18T00:00	31849	10	-41.2	-79.9	111	6
2023-08-18T00:00	31894	10	-41.1	-79.8	112	5
2023-08-18T00:00	31909	10	-41.1	-79.8	112	4
2023-08-18T00:00	31928	10	-40.9	-79.7	110	3
2023-08-18T00:00	31961	10	-40.8	-79.6	104	3
2023-08-18T00:00	31970	10	-40.8	-79.6	91	2
2023-08-18T00:00	32020	9	-40.6	-79.5	75	3
2023-08-18T00:00	32041	9	-40.4	-79.3	61	3
2023-08-18T00:00	32060	9	-40.2	-79.2	52	4
2023-08-18T00:00	32080	9	-40.2	-79.2	49	4
2023-08-18T00:00	32099	9	-40.4	-79.3	49	5
2023-08-18T00:00	32132	9	-40.3	-79.2	52	6
2023-08-18T00:00	32149	9	-40.2	-79.2	56	7
2023-08-18T00:00	32188	9	-40.0	-79.0	61	7
2023-08-18T00:00	32224	9	-39.8	-78.9	65	8
2023-08-18T00:00	32237	9	-39.7	-78.8	70	8
2023-08-18T00:00	32275	9	-39.7	-78.8	75	8
2023-08-18T00:00	32292	9	-39.7	-78.8	80	8
2023-08-18T00:00	32314	9	-39.7	-78.8	84	9
2023-08-18T00:00	32340	9	-39.6	-78.8	88	9
2023-08-18T00:00	32345	9	-39.6	-78.8	90	9
2023-08-18T00:00	32376	9	-39.7	-78.8	92	9
2023-08-18T00:00	32408	9	-39.6	-78.8	93	8
2023-08-18T00:00	32454	9	-39.6	-78.8	93	8
2023-08-18T00:00	32484	9	-39.5	-78.7	92	7
2023-08-18T00:00	32511	9	-39.3	-78.5	86	5
2023-08-18T00:00	32543	9	-39.1	-78.4	79	4
2023-08-18T00:00	32565	9	-39.0	-78.3	68	4
2023-08-18T00:00	32584	9	-39.1	-78.4	57	4
2023-08-18T00:00	32604	9	-38.9	-78.3	47	4
2023-08-18T00:00	32646	9	-38.5	-78.0	43	4
2023-08-18T00:00	32662	9	-38.3	-77.9	43	4
2023-08-18T00:00	32717	9	-38.1	-77.7	45	5
2023-08-18T00:00	32730	9	-38.1	-77.7	49	5
2023-08-18T00:00	32746	9	-38.0	-77.6	52	6
2023-08-18T00:00	32776	8	-37.9	-77.6	56	7
2023-08-18T00:00	32796	8	-37.9	-77.6	59	8
2023-08-18T00:00	32830	8	-37.8	-77.5	63	8
2023-08-18T00:00	32852	8	-37.9	-77.6	67	9
2023-08-18T00:00	32891	8	-37.8	-77.5	71	9
2023-08-18T00:00	32897	8	-37.9	-77.6	74	9
2023-08-18T00:00	32929	8	-37.9	-77.6	77	9
2023-08-18T00:00	32948	8	-37.8	-77.5	81	9
2023-08-18T00:00	32972	8	-37.6	-77.4	84	9
2023-08-18T00:00	33011	8	-37.5	-77.3	88	9
2023-08-18T00:00	33030	8	-37.4	-77.2	92	9
2023-08-18T00:00	33037	8	-37.4	-77.2	97	9
2023-08-18T00:00	33054	8	-37.3	-77.2	101	9
2023-08-18T00:00	33105	8	-37.0	-77.0	107	9
2023-08-18T00:00	33133	8	-37.0	-77.0	112	9
2023-08-18T00:00	33164	8	-36.9	-76.9	117	9
2023-08-18T00:00	33204	8	-36.8	-76.8	127	10
2023-08-18T00:00	33226	8	-36.8	-76.8	132	10
2023-08-18T00:00	33263	8	-36.9	-76.9	135	10
2023-08-18T00:00	33276	8	-37.0	-77.0	138	10
2023-08-18T00:00	33305	8	-37.0	-77.0	139	10
2023-08-18T00:00	33333	8	-36.5	-76.6	134	8
2023-08-18T00:00	33371	8	-36.3	-76.5	129	8
2023-08-18T00:00	33400	8	-36.1	-76.3	124	7
2023-08-18T00:00	33410	8	-36.1	-76.3	117	6
2023-08-18T00:00	33457	8	-35.9	-76.2	109	5
2023-08-18T00:00	33497	8	-35.6	-76.0	94	5
2023-08-18T00:00	33545	8	-35.1	-75.6	89	5
2023-08-18T00:00	33557	8	-34.8	-75.4	88	6
2023-08-18T00:00	33587	8	-34.7	-75.4	87	6
2023-08-18T00:00	33599	8	-34.5	-75.2	84	7
2023-08-18T00:00	33608	8	-34.2	-75.0	80	7
2023-08-18T00:00	33641	7	-34.0	-74.9	76	7
2023-08-18T00:00	33686	7	-33.8	-74.7	72	8
2023-08-18T00:00	33717	7	-33.6	-74.6	68	8
2023-08-18T00:00	33756	7	-33.2	-74.3	64	9
2023-08-18T00:00	33772	7	-33.1	-74.3	65	9
2023-08-18T00:00	33791	7	-33.1	-74.3	68	10
2023-08-18T00:00	33832	7	-33.0	-74.2	72	10
2023-08-18T00:00	33844	7	-32.9	-74.1	78	10
2023-08-18T00:00	33872	7	-33.0	-74.2	83	10
2023-08-18T00:00	33894	7	-33.5	-74.5	88	10
2023-08-18T00:00	33932	7	-33.2	-74.3	91	10
2023-08-18T00:00	33968	7	-33.1	-74.3	94	10
2023-08-18T00:00	33999	7	-33.1	-74.3	95	10
2023-08-18T00:00	34016	7	-33.0	-74.2	96	9
2023-08-18T00:00	34020	7	-32.9	-74.1	98	9
2023-08-18T00:00	34041	7	-32.8	-74.1	100	9
2023-08-18T00:00	34070	7	-32.8	-74.1	103	8
2023-08-18T00:00	34117	7	-32.8	-74.1	105	8
2023-08-18T00:00	34135	7	-32.9	-74.1	108	8
2023-08-18T00:00	34181	7	-32.8	-74.1	108	7
2023-08-18T00:00	34225	7	-32.5	-73.8	101	6
2023-08-18T00:00	34242	7	-32.4	-73.8	96	6
2023-08-18T00:00	34252	7	-32.2	-73.6	90	5
2023-08-18T00:00	34294	7	-32.0	-73.5	85	5
2023-08-18T00:00	34310	7	-31.9	-73.4	82	5
2023-08-18T00:00	34316	7	-31.8	-73.4	80	6
2023-08-18T00:00	34360	7	-31.8	-73.4	79	6
2023-08-18T00:00	34371	7	-31.8	-73.4	77	7
2023-08-18T00:00	34414	7	-32.2	-73.6	76	7
2023-08-18T00:00	34435	7	-32.4	-73.8	74	8
2023-08-18T00:00	34488	7	-32.2	-73.6	71	9
2023-08-18T00:00	34510	7	-32.3	-73.7	70	9
2023-08-18T00:00	34534	7	-32.4	-73.8	70	9
2023-08-18T00:00	34542	7	-32.5	-73.8	70	10
2023-08-18T00:00	34544	7	-32.5	-73.8	71	10
2023-08-18T00:00	34592	7	-32.5	-73.8	73	11
2023-08-18T00:00	34609	7	-32.6	-73.9	74	11
2023-08-18T00:00	34632	7	-32.6	-73.9	75	12
2023-08-18T00:00	34662	7	-32.6	-73.9	77	12
2023-08-18T00:00	34673	6	-32.6	-73.9	78	13
2023-08-18T00:00	34694	6	-32.6	-73.9	79	13
2023-08-18T00:00	34721	6	-32.8	-74.1	80	14
2023-08-18T00:00	34750	6	-32.8	-74.1	81	14
2023-08-18T00:00	34779	6	-33.2	-74.3	83	15
2023-08-18T00:00	34809	6	-33.2	-74.3	83	15
2023-08-18T00:00	34840	6	-33.3	-74.4	84	15
2023-08-18T00:00	34870	6	-33.5	-74.5	86	14
2023-08-18T00:00	34905	6	-33.6	-74.6	87	14
2023-08-18T00:00	34914	6	-33.7	-74.7	88	14
2023-08-18T00:00	34946	6	-33.8	-74.7	89	14
2023-08-18T00:00	34988	6	-33.9	-74.8	90	13
2023-08-18T00:00	34991	6	-34.1	-75.0	90	13
2023-08-18T00:00	35037	6	-34.0	-74.9	90	12
2023-08-18T00:00	35086	6	-34.1	-75.0	90	12
2023-08-18T00:00	35094	6	-34.1	-75.0	91	10
2023-08-18T00:00	35109	6	-34.1	-75.0	92	10
2023-08-18T00:00	35119	6	-34.0	-74.9	93	9
2023-08-18T00:00	35173	6	-34.0	-74.9	95	8
2023-08-18T06:00	112	1005	19.4	18.4	70	3
2023-08-18T06:00	140	1002	19.2	18.1	96	3
2023-08-18T06:00	168	999	19.7	17.3	100	5
2023-08-18T06:00	193	996	20.6	16.2	103	6
2023-08-18T06:00	218	993	21.0	15.7	106	8
2023-08-18T06:00	247	990	20.7	15.6	108	9
2023-08-18T06:00	271	987	22.0	14.2	110	9
2023-08-18T06:00	292	984	22.2	14.4	111	9
2023-08-18T06:00	319	982	22.2	14.0	112	9
2023-08-18T06:00	340	979	22.0	14.3	112	9
2023-08-18T06:00	365	976	22.0	14.2	111	9
2023-08-18T06:00	390	974	21.9	13.7	111	9
2023-08-18T06:00	414	971	21.8	13.5	109	9
2023-08-18T06:00	438	968	21.7	13.1	108	9
2023-08-18T06:00	464	965	21.6	12.8	107	8
2023-08-18T06:00	488	962	21.5	12.8	105	8
2023-08-18T06:00	515	960	21.2	13.0	104	8
2023-08-18T06:00	534	957	21.1	13.0	104	8
2023-08-18T06:00	563	954	20.9	12.9	103	7
2023-08-18T06:00	587	952	20.7	13.0	103	7
2023-08-18T06:00	610	949	20.6	12.7	102	7
2023-08-18T06:00	639	946	20.4	12.1	101	7
2023-08-18T06:00	664	943	20.2	12.0	101	7
2023-08-18T06:00	688	941	20.0	12.2	103	7
2023-08-18T06:00	712	938	19.8	12.4	105	6
2023-08-18T06:00	737	935	19.6	12.5	110	6
2023-08-18T06:00	765	932	19.3	12.5	115	6
2023-08-18T06:00	792	929	19.1	12.7	119	7
2023-08-18T06:00	816	927	19.2	12.8	122	7
2023-08-18T06:00	844	924	19.2	12.4	124	8
2023-08-18T06:00	872	921	19.1	12.1	125	8
2023-08-18T06:00	900	918	19.1	12.1	125	8
2023-08-18T06:00	924	915	19.0	11.7	126	9
2023-08-18T06:00	951	912	18.9	11.3	126	9
2023-08-18T06:00	974	910	19.0	10.2	127	8
2023-08-18T06:00	1004	907	18.9	10.2	127	9
2023-08-18T06:00	1031	904	18.7	10.3	128	9
2023-08-18T06:00	1055	901	18.6	10.3	127	9
2023-08-18T06:00	1084	898	18.4	10.2	127	9
2023-08-18T06:00	1109	896	18.2	9.8	126	9
2023-08-18T06:00	1136	893	18.1	9.5	124	9
2023-08-18T06:00	1165	890	17.8	9.7	123	9
2023-08-18T06:00	1193	887	17.6	9.7	123	9
2023-08-18T06:00	1222	884	17.3	9.6	122	9
2023-08-18T06:00	1249	881	17.0		122	9
2023-08-18T06:00	1276	878	16.9		121	9
2023-08-18T06:00	1308	875	16.6	9.6	119	10
2023-08-18T06:00	1336	872	16.4	9.7	118	10
2023-08-18T06:00	1364	869	16.2	10.3	117	10
2023-08-18T06:00	1394	866	15.9	10.8	116	10
2023-08-18T06:00	1421	863	15.8	11.0	115	10
2023-08-18T06:00	1451	861	15.6	10.8	115	10
2023-08-18T06:00	1477	858	15.4		115	11
2023-08-18T06:00	1504	855	15.1	10.8	115	11
2023-08-18T06:00	1532	852	15.0	10.5	115	11
2023-08-18T06:00	1562	849	14.7	9.9	115	11
2023-08-18T06:00	1592	846	14.5	9.6	115	11
2023-08-18T06:00	1622	843	14.2	9.5	114	11
2023-08-18T06:00	1654	840	14.0	9.3	113	10
2023-08-18T06:00	1681	838	13.8	9.9	112	10
2023-08-18T06:00	1707	835	13.6	9.9	111	10
2023-08-18T06:00	1736	832	13.4	9.7	110	10
2023-08-18T06:00	1768	829	13.1	9.8	109	10
2023-08-18T06:00	1795	826	12.9	9.8	109	11
2023-08-18T06:00	1822	824	12.7	9.5	108	11
2023-08-18T06:00	1847	821	12.5	9.3	107	11
2023-08-18T06:00	1876	818	12.3	9.0	106	11
2023-08-18T06:00	1904	816	12.0	8.8	106	11
2023-08-18T06:00	1933	813	11.8	8.5	107	10
2023-08-18T06:00	1960	810	11.6	8.5	108	10
2023-08-18T06:00	1989	807	11.4	8.5	109	9
2023-08-18T06:00	2015	805	11.1	8.3	110	9
2023-08-18T06:00	2042	802	11.0	8.3	109	8
2023-08-18T06:00	2071	799	10.7	8.0	108	8
2023-08-18T06:00	2100	797	10.6	7.8	107	8
2023-08-18T06:00	2129	794	10.4	7.5	107	8
2023-08-18T06:00	2154	791	10.2	7.4	107	7
2023-08-18T06:00	2183	789	10.0	7.3	107	7
2023-08-18T06:00	2212	786	9.7	6.8	107	7
2023-08-18T06:00	2238	784	9.6	6.5	108	7
2023-08-18T06:00	2263	781	9.5	6.1	108	7
2023-08-18T06:00	2290	779	9.3	6.0	107	7
2023-08-18T06:00	2317	776	9.1	6.0	106	6
2023-08-18T06:00	2343	774	8.9	6.0	105	6
2023-08-18T06:00	2370	771	8.6	6.0	104	6
2023-08-18T06:00	2392	769	8.4	6.1	103	6
2023-08-18T06:00	2420	767	8.2	6.1	103	6
2023-08-18T06:00	2444	764	8.0	6.1	103	5
2023-08-18T06:00	2468	762	7.7	6.1	102	5
2023-08-18T06:00	2495	760	7.5	6.2	100	5
2023-08-18T06:00	2522	757	7.4	6.3	98	5
2023-08-18T06:00	2545	755	7.2	6.4	96	5
2023-08-18T06:00	2572	753	7.0	6.1	96	5
2023-08-18T06:00	2601	750	6.8	5.5	95	5
2023-08-18T06:00	2628	748	6.9	5.2	96	5
2023-08-18T06:00	2655	745	6.9	4.8	95	5
2023-08-18T06:00	2685	742	6.7	5.1	95	5
2023-08-18T06:00	2713	740	6.6	4.7	94	5
2023-08-18T06:00	2741	737	6.4	4.8	92	5
2023-08-18T06:00	2766	735	6.2	4.2	91	5
2023-08-18T06:00	2794	733	6.1	3.9	90	5
2023-08-18T06:00	2823	730	5.8	3.7	89	5
2023-08-18T06:00	2847	728	5.7	3.6	88	5
2023-08-18T06:00	2881	725	5.4	3.4	88	5
2023-08-18T06:00	2911	722	5.3	2.8	88	4
2023-08-18T06:00	2938	720	5.1	2.9	88	4
2023-08-18T06:00	2965	718	5.0	2.4	89	4
2023-08-18T06:00	2989	715	4.8	2.2	90	4
2023-08-18T06:00	3018	713	4.5	2.1	92	4
2023-08-18T06:00	3048	710	4.3	2.0	94	4
2023-08-18T06:00	3074	708	4.1	1.8	95	5
2023-08-18T06:00	3102	706	4.0	1.7	95	5
2023-08-18T06:00	3128	703	3.8	1.2	93	5
2023-08-18T06:00	3154	701	3.6	1.2	90	5
2023-08-18T06:00	3181	699	3.4	1.1	87	5
2023-08-18T06:00	3214	696	3.1	0.9	84	5
2023-08-18T06:00	3243	693	2.8	0.7	82	5
2023-08-18T06:00	3273	691	2.7	0.6	80	5
2023-08-18T06:00	3299	689	2.5	0.5	80	5
2023-08-18T06:00	3327	686	2.3	0.2	81	5
2023-08-18T06:00	3352	684	2.1	0.2	83	5
2023-08-18T06:00	3379	682	1.9	0.1	87	5
2023-08-18T06:00	3407	679	1.7	-0.2	93	4
2023-08-18T06:00	3437	677	1.6	-0.3	99	4
2023-08-18T06:00	3465	675	1.4	-0.4	103	4
2023-08-18T06:00	3492	672	1.3	-0.4	105	4
2023-08-18T06:00	3519	670	1.1	-0.2	103	3
2023-08-18T06:00	3551	667	0.9	0.0	98	3
2023-08-18T06:00	3581	665	0.8	-0.3	94	3
2023-08-18T06:00	3611	663	0.7	-0.8	90	3
2023-08-18T06:00	3640	660	0.7	-1.1	88	3
2023-08-18T06:00	3672	658	0.5	-1.2	89	4
2023-08-18T06:00	3699	655	0.3	-1.3	90	4
2023-08-18T06:00	3728	653	0.1	-1.4	92	4
2023-08-18T06:00	3760	651	-0.1	-1.4	94	4
2023-08-18T06:00	3788	648	-0.4	-1.5	96	4
2023-08-18T06:00	3817	646	-0.6	-1.6	97	4
2023-08-18T06:00	3846	643	-0.8	-1.7	97	3
2023-08-18T06:00	3872	641	-0.9	-1.8	95	3
2023-08-18T06:00	3902	639	-1.1	-2.1	90	2
2023-08-18T06:00	3933	636	-1.3	-2.3	80	1
2023-08-18T06:00	3960	634	-1.3	-2.5	66	1
2023-08-18T06:00	3992	632	-1.4	-2.8	54	1
2023-08-18T06:00	4023	629	-1.7	-2.8	45	1
2023-08-18T06:00	4055	627	-1.9	-3.0	41	1
2023-08-18T06:00	4084	624	-2.2	-3.0	41	2
2023-08-18T06:00	4113	622	-2.4	-3.3	43	2
2023-08-18T06:00	4140	620	-2.7	-3.4	48	2
2023-08-18T06:00	4171	618	-2.7	-3.7	54	2
2023-08-18T06:00	4201	615	-3.0	-3.8	58	2
2023-08-18T06:00	4234	613	-3.3	-3.9	59	1
2023-08-18T06:00	4265	611	-3.6	-4.0	56	1
2023-08-18T06:00	4290	609	-3.8	-4.0	49	1
2023-08-18T06:00	4314	606	-4.1	-4.1	42	2
2023-08-18T06:00	4349	604	-4.3	-4.3	38	2
2023-08-18T06:00	4378	602	-4.5	-4.5	37	2
2023-08-18T06:00	4408	599	-4.7	-4.7	40	1
2023-08-18T06:00	4434	597	-4.9	-4.9	52	1
2023-08-18T06:00	4464	595	-5.1	-5.1	86	1
2023-08-18T06:00	4498	593	-5.2	-5.2	125	1
2023-08-18T06:00	4526	590	-5.4	-5.5	140	1
2023-08-18T06:00	4559	588	-4.3	-6.3	143	2
2023-08-18T06:00	4588	586	-4.4	-6.4	142	2
2023-08-18T06:00	4616	584	-4.3	-6.5	142	2
2023-08-18T06:00	4645	582	-4.5	-6.7	142	2
2023-08-18T06:00	4674	579	-4.7	-6.8	144	3
2023-08-18T06:00	4708	577	-5.0	-7.0	145	3
2023-08-18T06:00	4738	575	-5.2	-7.0	145	3
2023-08-18T06:00	4768	573	-5.5	-7.3	144	3
2023-08-18T06:00	4800	570	-5.7	-7.3	141	3
2023-08-18T06:00	4831	568	-5.8	-7.9	137	3
2023-08-18T06:00	4859	566	-5.8	-8.4	135	4
2023-08-18T06:00	4883	564	-5.8	-8.7	135	4
2023-08-18T06:00	4914	562	-5.9	-9.1	138	4
2023-08-18T06:00	4941	560	-6.0	-9.5	142	4
2023-08-18T06:00	4971	558	-6.1	-9.6	147	4
2023-08-18T06:00	4999	556	-6.3	-9.7	151	5
2023-08-18T06:00	5027	554	-6.6	-9.8	154	5
2023-08-18T06:00	5059	552	-6.9	-9.8	156	5
2023-08-18T06:00	5087	550	-7.2	-9.9	156	5
2023-08-18T06:00	5115	548	-7.5	-9.9	155	5
2023-08-18T06:00	5144	546	-7.7	-9.9	153	5
2023-08-18T06:00	5173	544	-7.9	-10.1	149	5
2023-08-18T06:00	5202	542	-8.1	-10.2	143	5
2023-08-18T06:00	5229	540	-8.4	-10.4	137	4
2023-08-18T06:00	5260	538	-8.5	-10.8	131	4
2023-08-18T06:00	5290	536	-8.6	-11.3	128	4
2023-08-18T06:00	5328	533	-8.7	-11.9	130	4
2023-08-18T06:00	5358	531	-8.9	-12.1	136	4
2023-08-18T06:00	5388	529	-9.1	-12.6	145	4
2023-08-18T06:00	5418	527	-9.1	-13.6	153	4
2023-08-18T06:00	5449	525	-9.2	-14.3	160	4
2023-08-18T06:00	5482	523	-9.3	-14.9	165	4
2023-08-18T06:00	5511	520	-9.4	-15.8	169	3
2023-08-18T06:00	5546	518	-9.6	-15.9	173	3
2023-08-18T06:00	5579	516	-9.8	-17.4	174	3
2023-08-18T06:00	5608	514	-10.1	-14.4	174	3
2023-08-18T06:00	5637	512	-10.4	-14.6	171	3
2023-08-18T06:00	5669	510	-10.7	-14.2	168	3
2023-08-18T06:00	5702	508	-10.9	-13.6	165	3
2023-08-18T06:00	5734	506	-11.1	-13.6	165	3
2023-08-18T06:00	5764	504	-11.4	-13.8	166	3
2023-08-18T06:00	5795	502	-11.5	-14.6	168	3
2023-08-18T06:00	5828	500	-11.4	-15.1	170	3
2023-08-18T06:00	5862	497	-11.4	-16.0	173	3
2023-08-18T06:00	5893	495	-11.6	-16.1	175	3
2023-08-18T06:00	5923	493	-11.8	-16.6	176	4
2023-08-18T06:00	5954	491	-12.1	-16.7	177	4
2023-08-18T06:00	5985	489	-12.3	-17.0	178	4
2023-08-18T06:00	6014	488	-12.6	-17.6	179	4
2023-08-18T06:00	6044	486	-12.5	-18.5	179	4
2023-08-18T06:00	6077	484	-12.7	-19.0	180	4
2023-08-18T06:00	6108	482	-13.0	-18.5	180	4
2023-08-18T06:00	6136	480	-13.2	-19.2	181	4
2023-08-18T06:00	6168	478	-13.3	-21.5	183	4
2023-08-18T06:00	6199	476	-13.6	-22.2	185	4
2023-08-18T06:00	6230	474	-13.8	-19.5	188	4
2023-08-18T06:00	6259	472	-14.0	-19.1	190	4
2023-08-18T06:00	6289	470	-14.2	-20.3	193	4
2023-08-18T06:00	6319	468	-14.5	-17.8	194	4
2023-08-18T06:00	6348	467	-14.7	-17.3	194	4
2023-08-18T06:00	6379	465	-14.9	-17.3	193	4
2023-08-18T06:00	6412	463	-15.2	-17.5	192	4
2023-08-18T06:00	6446	461	-15.4	-17.9	191	4
2023-08-18T06:00	6477	459	-15.6	-18.1	191	5
2023-08-18T06:00	6510	457	-15.8		192	5
2023-08-18T06:00	6536	455	-15.9	-19.3	193	5
2023-08-18T06:00	6563	454	-16.1	-19.1	192	5
2023-08-18T06:00	6587	452	-16.1	-19.2	190	6
2023-08-18T06:00	6610	451	-16.1	-19.7	187	6
2023-08-18T06:00	6637	449	-16.2	-19.9	184	6
2023-08-18T06:00	6668	447	-16.3	-20.3	182	7
2023-08-18T06:00	6700	445	-16.4	-20.6	182	7
2023-08-18T06:00	6730	444	-16.7	-20.7	183	7
2023-08-18T06:00	6763	442	-16.8	-21.6	185	6
2023-08-18T06:00	6790	440	-16.9	-22.0	187	6
2023-08-18T06:00	6820	438	-17.0	-21.9	189	6
2023-08-18T06:00	6850	437	-17.2	-21.6	190	5
2023-08-18T06:00	6881	435	-17.4	-21.9	191	5
2023-08-18T06:00	6909	433	-17.7	-22.1	192	5
2023-08-18T06:00	6938	431	-17.9	-23.1	195	5
2023-08-18T06:00	6971	430	-18.0	-23.0	197	6
2023-08-18T06:00	6999	428	-18.3	-23.0	200	6
2023-08-18T06:00	7031	426	-18.5	-23.3	203	6
2023-08-18T06:00	7053	425	-18.7	-23.2	205	6
2023-08-18T06:00	7087	423	-18.9	-23.8	207	6
2023-08-18T06:00	7128	421	-19.2	-24.0	209	6
2023-08-18T06:00	7155	419	-19.3	-24.4	212	6
2023-08-18T06:00	7187	417	-19.4	-24.7	215	7
2023-08-18T06:00	7213	416	-19.6	-24.8	220	7
2023-08-18T06:00	7242	414	-19.9	-25.1	224	7
2023-08-18T06:00	7272	412	-20.1	-25.5	227	7
2023-08-18T06:00	7302	411	-20.4	-25.8	228	6
2023-08-18T06:00	7334	409	-20.6	-25.8	227	6
2023-08-18T06:00	7364	407	-20.9	-26.5	225	6
2023-08-18T06:00	7397	406	-21.2	-26.8	221	6
2023-08-18T06:00	7428	404	-21.5	-26.4	217	6
2023-08-18T06:00	7459	402	-21.7	-26.5	214	6
2023-08-18T06:00	7490	400	-22.0	-26.2	212	6
2023-08-18T06:00	7526	399	-22.3	-26.6	211	6
2023-08-18T06:00	7553	397	-22.6	-26.9	211	6
2023-08-18T06:00	7585	395	-22.8	-26.8	211	6
2023-08-18T06:00	7616	394	-23.1	-27.2	211	6
2023-08-18T06:00	7646	392	-23.3	-27.7	211	6
2023-08-18T06:00	7672	391	-23.5	-27.8	210	6
2023-08-18T06:00	7698	389	-23.7	-27.9	211	6
2023-08-18T06:00	7728	388	-24.0	-28.2	212	6
2023-08-18T06:00	7763	386	-24.3	-28.6	214	6
2023-08-18T06:00	7792	384	-24.5	-28.7	217	6
2023-08-18T06:00	7823	383	-24.7	-29.7	220	6
2023-08-18T06:00	7853	381	-24.9	-29.7	224	6
2023-08-18T06:00	7879	380	-25.1	-29.7	226	6
2023-08-18T06:00	7904	378	-25.3	-30.3	227	6
2023-08-18T06:00	7933	377	-25.5	-30.7	227	6
2023-08-18T06:00	7958	376	-25.7	-30.5	227	6
2023-08-18T06:00	7985	374	-26.0	-30.3	225	6
2023-08-18T06:00	8014	373	-26.2	-30.3	223	6
2023-08-18T06:00	8043	371	-26.3	-30.8	221	6
2023-08-18T06:00	8065	370	-26.5	-30.6	218	6
2023-08-18T06:00	8094	369	-26.7	-30.9	217	6
2023-08-18T06:00	8115	367	-26.8	-31.5	218	6
2023-08-18T06:00	8147	366	-27.0	-32.4	220	6
2023-08-18T06:00	8184	364	-27.3	-32.6	224	5
2023-08-18T06:00	8218	362	-27.5	-32.9	229	5
2023-08-18T06:00	8251	361	-27.7	-32.8	234	5
2023-08-18T06:00	8288	359	-27.9	-34.6	238	5
2023-08-18T06:00	8316	357	-28.1	-34.7	239	5
2023-08-18T06:00	8343	356	-28.4	-35.1	239	5
2023-08-18T06:00	8371	355	-28.6	-35.5	239	5
2023-08-18T06:00	8396	353	-28.7	-36.7	238	5
2023-08-18T06:00	8419	352	-28.9	-36.9	239	5
2023-08-18T06:00	8446	351	-29.1	-36.9	240	5
2023-08-18T06:00	8469	350	-29.3	-37.1	243	4
2023-08-18T06:00	8496	349	-29.5	-37.2	247	4
2023-08-18T06:00	8526	347	-29.8	-36.9	251	4
2023-08-18T06:00	8551	346	-30.0	-36.8	253	4
2023-08-18T06:00	8577	345	-30.2	-36.7	254	4
2023-08-18T06:00	8611	343	-30.5	-37.1	254	4
2023-08-18T06:00	8640	342	-30.8	-37.6	254	5
2023-08-18T06:00	8670	340	-31.0	-37.5	253	5
2023-08-18T06:00	8690	339	-31.3	-37.7	251	5
2023-08-18T06:00	8713	338	-31.5	-37.7	249	5
2023-08-18T06:00	8736	337	-31.7	-37.7	246	5
2023-08-18T06:00	8763	336	-31.9	-38.0	243	5
2023-08-18T06:00	8798	334	-32.2	-39.1	241	5
2023-08-18T06:00	8837	332	-32.5	-39.7	241	5
2023-08-18T06:00	8870	331	-32.8	-39.9	241	5
2023-08-18T06:00	8898	329	-33.1	-39.7	242	5
2023-08-18T06:00	8937	328	-33.5	-40.4	243	5
2023-08-18T06:00	8970	326	-33.8	-40.8	243	5
2023-08-18T06:00	9004	325	-34.1	-41.1	243	5
2023-08-18T06:00	9030	323	-34.3	-41.3	244	5
2023-08-18T06:00	9059	322	-34.6	-41.2	246	5
2023-08-18T06:00	9086	321	-34.8	-40.8	246	5
2023-08-18T06:00	9110	319	-35.0	-40.9	246	5
2023-08-18T06:00	9136	318	-35.3	-41.0	244	5
2023-08-18T06:00	9163	317	-35.5	-40.7	241	6
2023-08-18T06:00	9190	316	-35.8	-40.3	238	6
2023-08-18T06:00	9216	315	-36.0	-40.5	237	6
2023-08-18T06:00	9240	314	-36.3	-40.6	237	6
2023-08-18T06:00	9267	312	-36.5	-40.4	239	7
2023-08-18T06:00	9292	311	-36.7	-41.7	240	7
2023-08-18T06:00	9317	310	-36.8	-41.4	242	7
2023-08-18T06:00	9344	309	-36.9	-42.5	242	7
2023-08-18T06:00	9371	308	-37.1	-43.7	243	7
2023-08-18T06:00	9406	306	-37.3	-45.5	244	7
2023-08-18T06:00	9435	305	-37.5	-46.5	245	7
2023-08-18T06:00	9461	304	-37.7	-46.9	246	7
2023-08-18T06:00	9487	303	-38.0	-47.2	248	7
2023-08-18T06:00	9510	302	-38.2	-48.5	248	7
2023-08-18T06:00	9537	300	-38.4	-49.8	248	7
2023-08-18T06:00	9562	299	-38.6	-49.9	248	6
2023-08-18T06:00	9586	298	-38.8	-49.8	246	6
2023-08-18T06:00	9611	297	-39.0	-49.8	244	6
2023-08-18T06:00	9635	296	-39.2	-49.9	242	6
2023-08-18T06:00	9663	295	-39.5	-50.2	240	6
2023-08-18T06:00	9691	294	-39.7	-50.4	238	6
2023-08-18T06:00	9717	293	-39.9	-50.4	235	6
2023-08-18T06:00	9753	291	-40.2	-48.7	233	6
2023-08-18T06:00	9787	290	-40.6	-47.9	230	6
2023-08-18T06:00	9812	289	-40.8	-47.2	228	6
2023-08-18T06:00	9839	287	-41.0	-47.4	227	6
2023-08-18T06:00	9862	286	-41.3	-47.6	225	6
2023-08-18T06:00	9891	285	-41.4	-48.1	224	6
2023-08-18T06:00	9918	284	-41.6	-48.9	223	6
2023-08-18T06:00	9945	283	-41.9	-50.3	221	6
2023-08-18T06:00	9974	282	-42.1	-51.1	218	6
2023-08-18T06:00	10007	280	-42.3	-51.3	214	6
2023-08-18T06:00	10034	279	-42.5	-51.4	211	6
2023-08-18T06:00	10059	278	-42.7	-51.5	208	6
2023-08-18T06:00	10082	277	-42.9	-51.4	206	6
2023-08-18T06:00	10107	276	-43.2	-51.5	204	6
2023-08-18T06:00	10134	275	-43.4	-52.0	203	6
2023-08-18T06:00	10163	274	-43.7	-52.5	202	6
2023-08-18T06:00	10188	273	-43.9	-52.5	201	6
2023-08-18T06:00	10214	272	-44.1	-52.2	199	6
2023-08-18T06:00	10237	271	-44.3	-51.7	195	6
2023-08-18T06:00	10262	270	-44.6	-51.5	191	6
2023-08-18T06:00	10286	269	-44.8	-51.6	188	6
2023-08-18T06:00	10310	268	-45.0	-51.9	186	6
2023-08-18T06:00	10334	267	-45.1	-52.2	185	6
2023-08-18T06:00	10357	266	-45.4	-53.0	186	6
2023-08-18T06:00	10384	265	-45.6	-53.9	186	6
2023-08-18T06:00	10408	264	-45.8	-54.3	186	6
2023-08-18T06:00	10430	263	-45.9	-54.8	185	7
2023-08-18T06:00	10454	262	-46.1	-54.6	183	7
2023-08-18T06:00	10478	261	-46.4	-54.2	183	7
2023-08-18T06:00	10504	260	-46.6	-53.6	182	8
2023-08-18T06:00	10537	259	-46.8	-53.1	182	8
2023-08-18T06:00	10573	258	-47.1	-52.9	182	8
2023-08-18T06:00	10598	257	-47.3	-52.5	182	9
2023-08-18T06:00	10625	256	-47.5	-52.3	181	9
2023-08-18T06:00	10649	255	-47.8	-52.4	180	9
2023-08-18T06:00	10675	254	-48.0	-52.6	180	9
2023-08-18T06:00	10698	253	-48.2	-52.7	180	9
2023-08-18T06:00	10726	252	-48.4	-53.0	180	9
2023-08-18T06:00	10751	251	-48.6	-53.6	179	9
2023-08-18T06:00	10779	250	-48.8	-54.0	178	9
2023-08-18T06:00	10805	249	-49.1	-54.2	176	9
2023-08-18T06:00	10836	248	-49.4	-54.7	175	10
2023-08-18T06:00	10860	247	-49.5	-55.2	173	10
2023-08-18T06:00	10885	246	-49.7	-55.1	173	10
2023-08-18T06:00	10911	245	-49.9	-54.9	174	10
2023-08-18T06:00	10937	244	-50.1	-54.9	176	10
2023-08-18T06:00	10964	243	-50.3	-55.1	179	10
2023-08-18T06:00	10988	242	-50.6	-55.0	181	10
2023-08-18T06:00	11017	241	-50.7	-55.0	183	10
2023-08-18T06:00	11041	240	-50.8	-55.7	185	11
2023-08-18T06:00	11065	239	-50.8	-56.7	185	11
2023-08-18T06:00	11093	238	-51.0	-57.0	185	11
2023-08-18T06:00	11119	237	-51.2	-56.6	185	12
2023-08-18T06:00	11142	236	-51.3	-56.5	186	12
2023-08-18T06:00	11167	235	-51.5	-56.7	187	12
2023-08-18T06:00	11193	234	-51.7	-56.9	188	13
2023-08-18T06:00	11217	234	-51.9	-57.2	189	13
2023-08-18T06:00	11240	233	-52.0	-57.5	190	13
2023-08-18T06:00	11269	232	-52.2	-57.7	191	13
2023-08-18T06:00	11298	231	-52.5	-57.9	192	13
2023-08-18T06:00	11331	229	-52.7	-58.4	193	12
2023-08-18T06:00	11362	228	-52.8	-58.7	194	12
2023-08-18T06:00	11395	227	-53.1	-58.9	196	12
2023-08-18T06:00	11429	226	-53.4	-58.9	198	11
2023-08-18T06:00	11457	225	-53.6	-58.9	201	11
2023-08-18T06:00	11490	224	-53.8	-58.9	204	11
2023-08-18T06:00	11515	223	-54.1	-59.0	207	11
2023-08-18T06:00	11543	222	-54.3	-59.0	208	11
2023-08-18T06:00	11570	221	-54.5	-58.9	208	11
2023-08-18T06:00	11597	220	-54.8	-59.0	209	11
2023-08-18T06:00	11627	219	-55.0	-59.1	211	11
2023-08-18T06:00	11661	218	-55.3	-59.1	214	11
2023-08-18T06:00	11694	217	-55.5	-59.0	218	11
2023-08-18T06:00	11731	216	-55.9	-59.1	221	11
2023-08-18T06:00	11759	215	-56.1	-59.1	223	10
2023-08-18T06:00	11780	214	-56.3	-59.2	223	10
2023-08-18T06:00	11807	213	-56.5	-59.4	222	10
2023-08-18T06:00	11832	212	-56.6	-59.4	219	9
2023-08-18T06:00	11856	211	-56.8	-59.6	217	9
2023-08-18T06:00	11878	211	-56.9	-59.8	215	9
2023-08-18T06:00	11905	210	-57.1	-60.0	214	9
2023-08-18T06:00	11929	209	-57.3	-60.0	213	9
2023-08-18T06:00	11951	208	-57.5	-60.1	213	9
2023-08-18T06:00	11974	207	-57.7	-60.2	213	8
2023-08-18T06:00	11996	207	-57.9	-60.3	214	8
2023-08-18T06:00	12017	206	-58.1	-60.4	215	8
2023-08-18T06:00	12039	205	-58.2	-60.5	215	7
2023-08-18T06:00	12063	205	-58.2	-60.6	214	7
2023-08-18T06:00	12085	204	-58.2	-61.0	211	6
2023-08-18T06:00	12110	203	-58.2	-61.4	206	6
2023-08-18T06:00	12133	202	-58.2	-61.9	200	6
2023-08-18T06:00	12155	202	-58.3	-62.5	193	6
2023-08-18T06:00	12180	201	-58.3	-62.8	185	6
2023-08-18T06:00	12203	200	-58.2	-63.0	179	6
2023-08-18T06:00	12225	199	-58.0	-63.1	173	6
2023-08-18T06:00	12246	199	-57.8	-63.2	169	6
2023-08-18T06:00	12272	198	-57.8	-63.4	166	6
2023-08-18T06:00	12293	197	-57.9	-63.6	164	7
2023-08-18T06:00	12316	196	-57.8	-63.8	163	7
2023-08-18T06:00	12340	196	-57.5	-64.1	162	8
2023-08-18T06:00	12364	195	-57.2	-64.3	163	8
2023-08-18T06:00	12386	194	-57.0	-64.6	166	9
2023-08-18T06:00	12408	194	-56.7	-64.7	169	10
2023-08-18T06:00	12437	193	-56.4	-65.3	173	11
2023-08-18T06:00	12467	192	-55.8	-66.0	177	13
2023-08-18T06:00	12493	191	-55.6	-67.3	181	14
2023-08-18T06:00	12518	190	-55.3	-68.9	184	15
2023-08-18T06:00	12542	190	-54.7	-71.0	187	16
2023-08-18T06:00	12564	189	-53.0	-72.7	190	16
2023-08-18T06:00	12587	188	-52.2	-74.5	192	16
2023-08-18T06:00	12611	188	-52.2	-74.7	194	16
2023-08-18T06:00	12636	187	-52.3	-74.2	197	16
2023-08-18T06:00	12659	186	-52.4	-73.9	199	16
2023-08-18T06:00	12683	185	-52.5	-73.7	200	16
2023-08-18T06:00	12707	185	-52.3	-73.8	201	16
2023-08-18T06:00	12730	184	-51.1	-73.6	202	16
2023-08-18T06:00	12752	183	-50.9	-74.1	202	16
2023-08-18T06:00	12779	183	-51.0	-74.3	201	16
2023-08-18T06:00	12801	182	-51.1	-74.6	201	16
2023-08-18T06:00	12824	181	-50.7	-74.3	200	16
2023-08-18T06:00	12849	181	-50.7	-74.4	199	15
2023-08-18T06:00	12872	180	-50.7	-74.6	199	15
2023-08-18T06:00	12896	180	-50.6	-74.9	198	15
2023-08-18T06:00	12918	179	-50.2	-75.2	198	15
2023-08-18T06:00	12942	178	-49.9	-75.6	198	15
2023-08-18T06:00	12963	178	-49.6	-75.8	198	16
2023-08-18T06:00	12985	177	-49.6	-76.1	198	16
2023-08-18T06:00	13007	176	-49.7	-76.1	199	16
2023-08-18T06:00	13029	176	-49.8	-76.0	199	16
2023-08-18T06:00	13049	175	-49.8	-75.5	199	17
2023-08-18T06:00	13074	175	-49.9	-74.9	199	17
2023-08-18T06:00	13095	174	-50.1	-74.3	199	17
2023-08-18T06:00	13118	174	-50.3	-73.6	199	17
2023-08-18T06:00	13141	173	-50.5	-73.3	198	17
2023-08-18T06:00	13162	172	-50.5	-73.9	198	16
2023-08-18T06:00	13183	172	-50.1	-74.9	197	16
2023-08-18T06:00	13205	171	-49.2	-75.7	198	17
2023-08-18T06:00	13230	171	-49.1	-76.5	198	17
2023-08-18T06:00	13251	170	-49.2	-76.6	199	17
2023-08-18T06:00	13271	169	-49.2	-76.6	200	17
2023-08-18T06:00	13293	169	-49.3	-76.4	201	17
2023-08-18T06:00	13317	168	-49.4	-76.4	202	17
2023-08-18T06:00	13339	168	-49.6	-76.6	203	18
2023-08-18T06:00	13359	167	-49.7	-76.9	204	18
2023-08-18T06:00	13381	167	-49.9	-77.1	205	18
2023-08-18T06:00	13404	166	-50.0	-77.5	206	18
2023-08-18T06:00	13424	166	-50.0	-77.5	207	18
2023-08-18T06:00	13449	165	-50.0	-77.8	209	17
2023-08-18T06:00	13473	164	-50.1	-77.8	210	17
2023-08-18T06:00	13494	164	-50.2	-77.9	211	16
2023-08-18T06:00	13521	163	-50.1	-77.8	213	15
2023-08-18T06:00	13545	163	-50.0	-77.8	215	14
2023-08-18T06:00	13575	162	-50.2	-77.6	217	13
2023-08-18T06:00	13608	161	-50.3	-77.4	220	12
2023-08-18T06:00	13634	160	-50.3	-77.1	222	12
2023-08-18T06:00	13662	160	-50.3	-77.4	224	12
2023-08-18T06:00	13685	159	-50.3	-78.0	226	12
2023-08-18T06:00	13709	159	-50.3	-78.7	226	12
2023-08-18T06:00	13732	158	-50.3	-79.0	226	12
2023-08-18T06:00	13754	157	-50.3	-79.0	227	12
2023-08-18T06:00	13778	157	-50.4	-79.1	227	12
2023-08-18T06:00	13802	156	-50.4	-79.1	227	12
2023-08-18T06:00	13825	156	-50.4	-78.7	227	12
2023-08-18T06:00	13850	155	-50.4	-78.7	226	11
2023-08-18T06:00	13873	155	-50.3	-79.0	224	11
2023-08-18T06:00	13897	154	-50.4	-79.1	222	10
2023-08-18T06:00	13923	153	-50.6	-79.2	220	10
2023-08-18T06:00	13944	153	-50.6	-79.2	218	10
2023-08-18T06:00	13968	152	-50.8	-79.4	217	10
2023-08-18T06:00	13991	152	-51.0	-79.5	217	10
2023-08-18T06:00	14017	151	-51.0	-79.5	217	10
2023-08-18T06:00	14039	151	-51.1	-79.6	217	11
2023-08-18T06:00	14063	150	-51.1	-79.3	217	11
2023-08-18T06:00	14086	150	-51.2	-79.3	218	11
2023-08-18T06:00	14112	149	-51.2	-79.3	218	11
2023-08-18T06:00	14138	148	-51.0	-79.2	218	11
2023-08-18T06:00	14159	148	-51.2	-79.3	218	11
2023-08-18T06:00	14184	147	-51.3	-79.1	217	11
2023-08-18T06:00	14210	147	-51.4	-79.2	215	11
2023-08-18T06:00	14234	146	-51.5	-79.2	214	11
2023-08-18T06:00	14259	146	-51.7	-79.4	214	11
2023-08-18T06:00	14281	145	-51.8	-79.5	213	11
2023-08-18T06:00	14306	145	-52.0	-79.6	213	12
2023-08-18T06:00	14327	144	-52.2	-79.8	212	12
2023-08-18T06:00	14351	144	-52.4	-79.6	211	12
2023-08-18T06:00	14379	143	-52.6	-79.8	211	13
2023-08-18T06:00	14401	143	-52.5	-80.0	211	13
2023-08-18T06:00	14424	142	-52.4	-79.9	213	14
2023-08-18T06:00	14448	141	-52.4	-79.9	215	14
2023-08-18T06:00	14470	141	-52.4	-80.3	217	15
2023-08-18T06:00	14496	140	-52.4	-80.3	219	15
2023-08-18T06:00	14515	140	-52.3	-80.2	220	15
2023-08-18T06:00	14540	140	-52.2	-80.5	222	15
2023-08-18T06:00	14559	139	-52.0	-80.3	223	14
2023-08-18T06:00	14583	139	-51.9	-80.2	224	14
2023-08-18T06:00	14605	138	-52.0	-80.7	224	14
2023-08-18T06:00	14627	138	-51.5	-80.3	225	13
2023-08-18T06:00	14649	137	-51.3	-80.1	225	13
2023-08-18T06:00	14672	137	-51.4	-80.6	225	12
2023-08-18T06:00	14694	136	-51.4	-80.2	224	12
2023-08-18T06:00	14716	136	-51.5	-80.3	222	11
2023-08-18T06:00	14739	135	-51.5	-80.3	220	11
2023-08-18T06:00	14759	135	-51.5	-80.3	218	11
2023-08-18T06:00	14782	134	-51.6	-80.4	215	11
2023-08-18T06:00	14806	134	-51.5	-80.3	213	11
2023-08-18T06:00	14828	133	-51.4	-80.2	210	11
2023-08-18T06:00	14851	133	-51.4	-80.2	208	11
2023-08-18T06:00	14875	132	-51.4	-80.2	207	11
2023-08-18T06:00	14897	132	-51.5	-80.3	206	11
2023-08-18T06:00	14920	132	-51.6	-80.4	205	12
2023-08-18T06:00	14942	131	-51.6	-80.4	204	12
2023-08-18T06:00	14964	131	-51.7	-80.4	204	12
2023-08-18T06:00	14985	130	-51.9	-80.6	204	12
2023-08-18T06:00	15009	130	-51.8	-80.5	206	12
2023-08-18T06:00	15033	129	-51.8	-80.5	207	11
2023-08-18T06:00	15056	129	-51.8	-80.5	209	11
2023-08-18T06:00	15080	128	-51.8	-80.5	211	10
2023-08-18T06:00	15101	128	-51.7	-80.8	213	10
2023-08-18T06:00	15123	127	-51.7	-80.8	214	10
2023-08-18T06:00	15147	127	-51.7	-80.8	214	10
2023-08-18T06:00	15171	127	-51.7	-80.4	215	10
2023-08-18T06:00	15195	126	-51.8	-80.5	216	10
2023-08-18T06:00	15216	126	-52.0	-80.7	217	11
2023-08-18T06:00	15241	125	-52.2	-80.8	219	11
2023-08-18T06:00	15266	125	-52.4	-81.0	221	11
2023-08-18T06:00	15289	124	-52.6	-81.1	223	11
2023-08-18T06:00	15313	124	-52.7	-81.2	225	11
2023-08-18T06:00	15336	123	-52.9	-81.4	228	11
2023-08-18T06:00	15360	123	-53.1	-81.5	230	11
2023-08-18T06:00	15384	122	-53.1	-81.5	231	10
2023-08-18T06:00	15406	122	-53.1	-81.5	231	10
2023-08-18T06:00	15430	122	-53.0	-81.4	230	9
2023-08-18T06:00	15454	121	-52.8	-81.3	228	9
2023-08-18T06:00	15478	121	-52.8	-81.3	226	9
2023-08-18T06:00	15502	120	-53.0	-81.4	223	9
2023-08-18T06:00	15527	120	-53.1	-81.5	221	8
2023-08-18T06:00	15548	119	-53.3	-81.7	218	8
2023-08-18T06:00	15573	119	-53.4	-81.4	216	8
2023-08-18T06:00	15596	118	-53.6	-81.5	213	8
2023-08-18T06:00	15620	118	-53.7	-81.6	209	8
2023-08-18T06:00	15643	118	-53.9	-81.7	205	8
2023-08-18T06:00	15666	117	-54.0	-81.8	201	8
2023-08-18T06:00	15689	117	-54.1	-81.9	197	8
2023-08-18T06:00	15711	116	-54.1	-81.9	194	8
2023-08-18T06:00	15733	116	-54.1	-81.9	192	8
2023-08-18T06:00	15757	116	-54.1	-82.3	192	8
2023-08-18T06:00	15777	115	-54.0	-82.2	193	8
2023-08-18T06:00	15802	115	-53.7	-82.0	194	8
2023-08-18T06:00	15825	114	-53.4	-82.1	195	9
2023-08-18T06:00	15847	114	-53.4	-82.1	195	9
2023-08-18T06:00	15870	114	-53.4	-82.1	194	9
2023-08-18T06:00	15893	113	-53.4	-82.1	192	10
2023-08-18T06:00	15917	113	-53.3	-82.0	191	10
2023-08-18T06:00	15940	112	-53.5	-82.2	191	10
2023-08-18T06:00	15965	112	-53.7	-82.0	191	11
2023-08-18T06:00	15986	111	-53.8	-82.0	191	11
2023-08-18T06:00	16013	111	-54.0	-82.2	191	11
2023-08-18T06:00	16035	111	-54.2	-82.3	192	11
2023-08-18T06:00	16059	110	-54.4	-82.5	192	12
2023-08-18T06:00	16082	110	-54.5	-82.2	192	12
2023-08-18T06:00	16105	109	-54.7	-82.4	192	12
2023-08-18T06:00	16129	109	-54.8	-82.4	192	12
2023-08-18T06:00	16153	109	-54.9	-82.5	193	12
2023-08-18T06:00	16177	108	-55.0	-82.6	194	12
2023-08-18T06:00	16201	108	-55.1	-82.7	194	11
2023-08-18T06:00	16222	107	-55.2	-82.7	195	11
2023-08-18T06:00	16246	107	-55.3	-82.8	195	11
2023-08-18T06:00	16270	107	-55.4	-82.9	194	11
2023-08-18T06:00	16293	106	-55.5	-83.0	193	12
2023-08-18T06:00	16317	106	-55.7	-83.1	193	12
2023-08-18T06:00	16340	105	-55.7	-83.1	194	12
2023-08-18T06:00	16362	105	-55.8	-83.2	195	12
2023-08-18T06:00	16388	105	-55.8	-83.2	198	12
2023-08-18T06:00	16411	104	-55.6	-83.1	201	13
2023-08-18T06:00	16434	104	-55.2	-83.1	204	13
2023-08-18T06:00	16455	104	-55.2	-83.1	207	13
2023-08-18T06:00	16483	103	-55.3	-83.2	210	13
2023-08-18T06:00	16508	103	-55.4	-83.3	214	13
2023-08-18T06:00	16530	102	-55.5		217	13
2023-08-18T06:00	16556	102	-55.7	-83.1	221	13
2023-08-18T06:00	16580	102	-55.7	-83.1	224	13
2023-08-18T06:00	16607	101	-55.7	-83.1	228	12
2023-08-18T06:00	16627	101	-55.8	-83.2	230	12
2023-08-18T06:00	16650	100	-55.9	-83.3	232	12
2023-08-18T06:00	16673	100	-55.8	-83.2	234	11
2023-08-18T06:00	16698	100	-55.6	-83.1	236	11
2023-08-18T06:00	16722	99	-55.7	-83.5	239	10
2023-08-18T06:00	16743	99	-55.9	-83.6	242	10
2023-08-18T06:00	16767	99	-55.8	-83.6	245	9
2023-08-18T06:00	16791	98	-55.6	-83.4	247	8
2023-08-18T06:00	16818	98	-55.4	-83.3	248	8
2023-08-18T06:00	16839	98	-55.4	-83.6	248	7
2023-08-18T06:00	16863	97	-55.3	-83.6	247	7
2023-08-18T06:00	16887	97	-55.3	-83.2	246	6
2023-08-18T06:00	16909	96	-55.6	-83.4	244	6
2023-08-18T06:00	16934	96	-55.7	-83.5	241	6
2023-08-18T06:00	16959	96	-55.9	-83.6	238	5
2023-08-18T06:00	16983	95	-56.0	-83.4	233	5
2023-08-18T06:00	17007	95	-56.1	-83.4	226	5
2023-08-18T06:00	17028	95	-56.3	-83.6	217	5
2023-08-18T06:00	17057	94	-56.4	-83.7	206	5
2023-08-18T06:00	17078	94	-56.5	-83.7	196	5
2023-08-18T06:00	17102	94	-56.4	-84.0	187	5
2023-08-18T06:00	17125	93	-56.3	-83.9	182	6
2023-08-18T06:00	17149	93	-56.3	-83.9	181	7
2023-08-18T06:00	17174	93	-56.2	-83.9	181	8
2023-08-18T06:00	17199	92	-56.2	-83.9	182	9
2023-08-18T06:00	17223	92	-56.2	-83.9	184	10
2023-08-18T06:00	17246	92	-56.2	-84.2	185	11
2023-08-18T06:00	17270	91	-56.0	-84.1	186	12
2023-08-18T06:00	17294	91	-55.8	-83.9	187	13
2023-08-18T06:00	17317	90	-55.8	-83.9	188	13
2023-08-18T06:00	17337	90	-55.9	-84.0	190	14
2023-08-18T06:00	17361	90	-55.9	-84.0	191	14
2023-08-18T06:00	17385	90	-56.0	-84.1	193	15
2023-08-18T06:00	17412	89	-56.1	-84.2	195	15
2023-08-18T06:00	17435	89	-56.3	-84.3	198	15
2023-08-18T06:00	17460	88	-56.4	-84.0	201	15
2023-08-18T06:00	17484	88	-56.5	-84.1	204	15
2023-08-18T06:00	17507	88	-56.5	-84.1	207	14
2023-08-18T06:00	17533	87	-56.4	-84.4	209	14
2023-08-18T06:00	17558	87	-56.4	-84.4	213	13
2023-08-18T06:00	17584	87	-56.5	-84.5	216	13
2023-08-18T06:00	17609	86	-56.5	-84.5	220	12
2023-08-18T06:00	17631	86	-56.4	-84.4	224	11
2023-08-18T06:00	17656	86	-56.4	-84.4	228	11
2023-08-18T06:00	17678	85	-56.4	-84.4	231	11
2023-08-18T06:00	17706	85	-56.5	-84.5	235	10
2023-08-18T06:00	17731	85	-56.6	-84.5	238	10
2023-08-18T06:00	17757	84	-56.6	-84.5	240	9
2023-08-18T06:00	17781	84	-56.8	-84.7	242	9
2023-08-18T06:00	17806	84	-56.9	-84.8	242	8
2023-08-18T06:00	17835	83	-56.8	-84.7	241	8
2023-08-18T06:00	17860	83	-56.6	-84.9	239	8
2023-08-18T06:00	17885	83	-55.9	-84.4	238	8
2023-08-18T06:00	17914	82	-55.7	-84.3	237	8
2023-08-18T06:00	17938	82	-55.8	-84.3	237	8
2023-08-18T06:00	17968	82	-55.9	-84.4	238	8
2023-08-18T06:00	17992	81	-56.0	-84.5	239	8
2023-08-18T06:00	18019	81	-55.5	-84.5	241	7
2023-08-18T06:00	18047	81	-55.3	-84.4	243	7
2023-08-18T06:00	18071	80	-55.5	-84.5	245	6
2023-08-18T06:00	18097	80	-55.6	-84.2	246	5
2023-08-18T06:00	18126	80	-55.8	-84.3	247	4
2023-08-18T06:00	18149	79	-55.9	-84.4	248	4
2023-08-18T06:00	18176	79	-55.9	-84.4	250	3
2023-08-18T06:00	18203	79	-56.0	-84.5	253	3
2023-08-18T06:00	18228	78	-56.1	-84.2	256	2
2023-08-18T06:00	18252	78	-56.3	-84.3	258	2
2023-08-18T06:00	18279	78	-56.4	-84.4	258	2
2023-08-18T06:00	18304	77	-56.6	-84.5	254	2
2023-08-18T06:00	18327	77	-56.6	-84.5	246	2
2023-08-18T06:00	18354	77	-56.6	-84.5	237	2
2023-08-18T06:00	18378	77	-56.7	-84.6	228	2
2023-08-18T06:00	18404	76	-56.8	-84.7	217	2
2023-08-18T06:00	18427	76	-56.9	-84.8	199	1
2023-08-18T06:00	18452	76	-56.9	-85.2	170	1
2023-08-18T06:00	18477	75	-56.7	-85.0	144	2
2023-08-18T06:00	18497	75	-56.5	-84.9	132	2
2023-08-18T06:00	18523	75	-56.3	-85.1	128	3
2023-08-18T06:00	18546	75	-56.2	-85.1	127	4
2023-08-18T06:00	18570	74	-56.1	-85.0	128	5
2023-08-18T06:00	18595	74	-56.1	-85.0	129	5
2023-08-18T06:00	18620	74	-56.2	-85.1	130	6
2023-08-18T06:00	18645	73	-56.2	-85.1	131	7
2023-08-18T06:00	18667	73	-56.2	-85.1	133	7
2023-08-18T06:00	18689	73	-56.0	-84.9	136	7
2023-08-18T06:00	18713	73	-56.0	-84.9	140	8
2023-08-18T06:00	18736	72	-55.8	-84.8	144	8
2023-08-18T06:00	18760	72	-55.9	-84.8	148	8
2023-08-18T06:00	18782	72	-56.0	-84.9	150	9
2023-08-18T06:00	18806	72	-56.0	-84.9	152	9
2023-08-18T06:00	18830	71	-56.1	-84.6	154	9
2023-08-18T06:00	18855	71	-56.1	-84.6	154	8
2023-08-18T06:00	18879	71	-56.1	-84.6	154	8
2023-08-18T06:00	18903	70	-56.2	-84.6	153	8
2023-08-18T06:00	18925	70	-56.2	-84.6	151	7
2023-08-18T06:00	18954	70	-56.3	-84.7	147	7
2023-08-18T06:00	18978	70	-56.4	-84.8	144	7
2023-08-18T06:00	19004	69	-56.3	-84.7	141	7
2023-08-18T06:00	19030	69	-56.4	-84.8	140	7
2023-08-18T06:00	19056	69	-56.5	-84.9	140	7
2023-08-18T06:00	19082	69	-56.5	-84.9	143	7
2023-08-18T06:00	19108	68	-56.6	-84.9	148	7
2023-08-18T06:00	19133	68	-56.4	-84.8	153	7
2023-08-18T06:00	19160	68	-56.3	-85.1	157	7
2023-08-18T06:00	19186	67	-56.4	-84.8	160	8
2023-08-18T06:00	19208	67	-56.6	-85.4	162	8
2023-08-18T06:00	19237	67	-56.7	-85.4	163	9
2023-08-18T06:00	19265	67	-56.7	-85.4	164	9
2023-08-18T06:00	19286	66	-56.4	-85.2	165	8
2023-08-18T06:00	19313	66	-55.8	-85.2	166	8
2023-08-18T06:00	19340	66	-55.7	-85.2	167	7
2023-08-18T06:00	19364	66	-55.6	-85.1	169	7
2023-08-18T06:00	19395	65	-55.6	-85.1	171	6
2023-08-18T06:00	19418	65	-55.8	-84.8	174	6
2023-08-18T06:00	19444	65	-55.9	-84.8	175	5
2023-08-18T06:00	19474	64	-55.9	-84.8	176	5
2023-08-18T06:00	19501	64	-55.8	-84.8	174	4
2023-08-18T06:00	19526	64	-55.8	-84.8	171	3
2023-08-18T06:00	19555	64	-55.8	-84.8	168	3
2023-08-18T06:00	19578	63	-55.8	-84.8	168	2
2023-08-18T06:00	19605	63	-55.9	-84.8	175	2
2023-08-18T06:00	19631	63	-56.1	-85.0	190	2
2023-08-18T06:00	19656	63	-56.2	-85.1	209	2
2023-08-18T06:00	19683	62	-56.3	-85.1	227	2
2023-08-18T06:00	19709	62	-56.2	-85.1	241	2
2023-08-18T06:00	19736	62	-56.2	-85.1	256	1
2023-08-18T06:00	19765	62	-56.3	-85.1	289	1
2023-08-18T06:00	19788	61	-56.3	-85.1	21	1
2023-08-18T06:00	19813	61	-56.3	-85.1	59	1
2023-08-18T06:00	19838	61	-56.1	-85.0	76	2
2023-08-18T06:00	19861	61	-56.1	-85.0	88	3
2023-08-18T06:00	19888	60	-56.2	-85.1	98	3
2023-08-18T06:00	19912	60	-56.1	-85.0	106	3
2023-08-18T06:00	19938	60	-55.9	-84.8	113	4
2023-08-18T06:00	19959	60	-55.9	-84.8	119	4
2023-08-18T06:00	19988	59	-55.9	-84.8	125	4
2023-08-18T06:00	20014	59	-56.1	-85.0	130	4
2023-08-18T06:00	20040	59	-56.2	-85.1	135	4
2023-08-18T06:00	20065	59	-56.1	-85.0	138	4
2023-08-18T06:00	20088	59	-56.0	-84.9	138	4
2023-08-18T06:00	20116	58	-56.1	-85.0	136	4
2023-08-18T06:00	20142	58	-56.2	-85.1	133	5
2023-08-18T06:00	20174	58	-56.1	-85.0	130	5
2023-08-18T06:00	20197	58	-56.3	-85.1	126	5
2023-08-18T06:00	20224	57	-56.5	-85.3	123	6
2023-08-18T06:00	20248	57	-56.6	-85.4	121	6
2023-08-18T06:00	20274	57	-56.4	-85.2	119	7
2023-08-18T06:00	20301	57	-56.3	-85.1	118	7
2023-08-18T06:00	20325	56	-56.4	-85.2	117	8
2023-08-18T06:00	20355	56	-56.2	-85.1	117	8
2023-08-18T06:00	20380	56	-56.2	-85.1	119	9
2023-08-18T06:00	20404	56	-56.5	-84.9	121	9
2023-08-18T06:00	20434	55	-56.7	-85.0	124	9
2023-08-18T06:00	20461	55	-56.9	-85.2	127	9
2023-08-18T06:00	20485	55	-56.9	-85.2	131	9
2023-08-18T06:00	20510	55	-57.0	-85.2	135	9
2023-08-18T06:00	20531	55	-57.0	-85.2	139	9
2023-08-18T06:00	20560	54	-57.0	-85.2	143	8
2023-08-18T06:00	20591	54	-57.1	-85.3	148	8
2023-08-18T06:00	20618	54	-57.1	-85.3	154	8
2023-08-18T06:00	20650	54	-57.0	-85.2	161	8
2023-08-18T06:00	20673	53	-56.9	-85.2	168	7
2023-08-18T06:00	20701	53	-56.9	-85.2	175	7
2023-08-18T06:00	20729	53	-56.9	-85.2	181	7
2023-08-18T06:00	20759	53	-56.9	-85.6	186	6
2023-08-18T06:00	20782	52	-56.8	-85.5	191	6
2023-08-18T06:00	20806	52	-56.7	-85.4	196	5
2023-08-18T06:00	20838	52	-56.5	-85.3	202	4
2023-08-18T06:00	20862	52	-56.2	-85.1	208	3
2023-08-18T06:00	20887	52	-56.0	-84.9	214	2
2023-08-18T06:00	20916	51	-56.0	-84.9	219	2
2023-08-18T06:00	20943	51	-56.0	-84.9	222	1
2023-08-18T06:00	20972	51	-56.0	-84.9	80	0
2023-08-18T06:00	20999	51	-56.1	-85.0	54	1
2023-08-18T06:00	21032	50	-56.2	-85.1	57	2
2023-08-18T06:00	21055	50	-56.2	-85.1	62	2
2023-08-18T06:00	21083	50	-56.2	-85.1	71	3
2023-08-18T06:00	21113	50	-56.2	-85.1	82	3
2023-08-18T06:00	21140	50	-56.3	-85.1	97	3
2023-08-18T06:00	21165	49	-56.0	-84.9	114	3
2023-08-18T06:00	21192	49	-55.9	-84.8	130	3
2023-08-18T06:00	21220	49	-56.0	-84.9	145	3
2023-08-18T06:00	21248	49	-56.1	-85.0	158	2
2023-08-18T06:00	21279	49	-56.1	-85.0	168	2
2023-08-18T06:00	21304	48	-56.0	-84.9	171	2
2023-08-18T06:00	21328	48	-55.9	-85.3	164	1
2023-08-18T06:00	21358	48	-55.6	-85.1	146	1
2023-08-18T06:00	21386	48	-55.2	-85.3	131	1
2023-08-18T06:00	21408	48	-54.8	-85.0	122	2
2023-08-18T06:00	21436	47	-54.5	-84.8	115	2
2023-08-18T06:00	21465	47	-54.3	-84.6	107	2
2023-08-18T06:00	21488	47	-54.2	-84.5	99	3
2023-08-18T06:00	21516	47	-54.3	-84.6	93	3
2023-08-18T06:00	21545	47	-54.4	-84.2	89	4
2023-08-18T06:00	21571	46	-54.5	-84.3	89	4
2023-08-18T06:00	21596	46	-54.6	-84.3	91	5
2023-08-18T06:00	21621	46	-54.6	-84.3	94	6
2023-08-18T06:00	21650	46	-54.6	-84.3	98	6
2023-08-18T06:00	21674	46	-54.5	-84.3	102	7
2023-08-18T06:00	21697	45	-54.6	-84.3	106	7
2023-08-18T06:00	21723	45	-54.7	-84.4	110	8
2023-08-18T06:00	21748	45	-54.8	-84.0	114	8
2023-08-18T06:00	21775	45	-54.9	-84.1	118	8
2023-08-18T06:00	21798	45	-55.0	-84.2	122	8
2023-08-18T06:00	21828	45	-55.1	-84.2	125	8
2023-08-18T06:00	21855	44	-55.3	-84.4	127	8
2023-08-18T06:00	21882	44	-55.4	-84.5	128	7
2023-08-18T06:00	21906	44	-55.4	-84.5	128	7
2023-08-18T06:00	21935	44	-55.5	-84.5	128	6
2023-08-18T06:00	21956	44	-55.6	-84.6	127	5
2023-08-18T06:00	21981	43	-55.7	-84.7	126	5
2023-08-18T06:00	22003	43	-55.7	-84.7	126	5
2023-08-18T06:00	22030	43	-55.7	-84.7	127	6
2023-08-18T06:00	22058	43	-55.5	-85.0	128	6
2023-08-18T06:00	22090	43	-55.4	-84.9	130	6
2023-08-18T06:00	22115	43	-55.4	-84.9	131	6
2023-08-18T06:00	22143	42	-55.3	-84.9	131	6
2023-08-18T06:00	22172	42	-55.2	-84.8	131	6
2023-08-18T06:00	22199	42	-55.3	-84.9	131	6
2023-08-18T06:00	22225	42	-55.2	-84.8	129	5
2023-08-18T06:00	22248	42	-55.0	-84.6	126	5
2023-08-18T06:00	22272	42	-54.9	-84.6	122	5
2023-08-18T06:00	22303	41	-54.8	-85.0	117	5
2023-08-18T06:00	22331	41	-54.6	-84.8	112	5
2023-08-18T06:00	22359	41	-54.4	-84.7	107	5
2023-08-18T06:00	22384	41	-54.2	-84.5	103	5
2023-08-18T06:00	22414	41	-54.1	-84.5	101	5
2023-08-18T06:00	22445	40	-54.1	-84.5	99	5
2023-08-18T06:00	22468	40	-54.1	-84.5	96	5
2023-08-18T06:00	22503	40	-54.1	-84.5	93	5
2023-08-18T06:00	22530	40	-54.1	-84.5	88	5
2023-08-18T06:00	22556	40	-54.1	-84.0	83	5
2023-08-18T06:00	22585	40	-54.2	-84.0	78	5
2023-08-18T06:00	22611	39	-54.3	-84.1	74	5
2023-08-18T06:00	22639	39	-54.4	-84.2	70	4
2023-08-18T06:00	22669	39	-54.5	-84.3	69	4
2023-08-18T06:00	22704	39	-54.6	-84.3	70	4
2023-08-18T06:00	22729	39	-54.7	-84.4	74	4
2023-08-18T06:00	22756	38	-54.8	-84.5	79	4
2023-08-18T06:00	22784	38	-54.8	-84.5	84	5
2023-08-18T06:00	22816	38	-54.9	-84.6	86	5
2023-08-18T06:00	22846	38	-54.9	-84.6	88	6
2023-08-18T06:00	22870	38	-55.0	-84.6	89	6
2023-08-18T06:00	22903	38	-55.2	-84.8	89	6
2023-08-18T06:00	22936	37	-55.3	-84.4	91	7
2023-08-18T06:00	22957	37	-55.4	-84.5	93	7
2023-08-18T06:00	22992	37	-55.6	-84.6	95	7
2023-08-18T06:00	23018	37	-55.8	-84.8	96	7
2023-08-18T06:00	23045	37	-55.9	-84.8	96	7
2023-08-18T06:00	23073	37	-56.1	-85.0	95	7
2023-08-18T06:00	23101	36	-56.1	-85.0	92	6
2023-08-18T06:00	23132	36	-56.0		89	6
2023-08-18T06:00	23155	36	-56.0		87	7
2023-08-18T06:00	23184	36	-55.9	-85.3	86	7
2023-08-18T06:00	23217	36	-55.9	-85.3	85	7
2023-08-18T06:00	23242	36	-56.0		86	8
2023-08-18T06:00	23268	36	-56.0		87	8
2023-08-18T06:00	23303	35	-56.1	-85.5	88	8
2023-08-18T06:00	23321	35	-56.0		91	8
2023-08-18T06:00	23352	35	-55.8	-85.2	94	8
2023-08-18T06:00	23381	35	-55.9	-85.3	97	7
2023-08-18T06:00	23411	35	-56.0		101	7
2023-08-18T06:00	23431	35	-56.0		105	7
2023-08-18T06:00	23461	34	-56.1	-85.0	110	7
2023-08-18T06:00	23490	34	-56.2	-85.1	114	7
2023-08-18T06:00	23509	34	-56.4	-85.2	119	6
2023-08-18T06:00	23545	34	-56.5	-85.3	124	6
2023-08-18T06:00	23567	34	-56.5	-85.3	127	6
2023-08-18T06:00	23592	34	-56.5	-85.8	128	5
2023-08-18T06:00	23617	34	-56.2	-85.5	125	5
2023-08-18T06:00	23642	33	-56.0		120	4
2023-08-18T06:00	23674	33	-55.8	-85.7	114	4
2023-08-18T06:00	23702	33	-55.6	-85.6	108	4
2023-08-18T06:00	23728	33	-55.5	-85.5	104	4
2023-08-18T06:00	23755	33	-55.6	-85.6	101	4
2023-08-18T06:00	23782	33	-55.6	-85.6	100	3
2023-08-18T06:00	23810	33	-55.7	-85.7	100	3
2023-08-18T06:00	23832	33	-55.6	-85.6	103	2
2023-08-18T06:00	23857	32	-55.6	-85.6	104	2
2023-08-18T06:00	23877	32	-55.6	-85.6	103	2
2023-08-18T06:00	23915	32	-55.4	-85.4	100	2
2023-08-18T06:00	23941	32	-55.3	-85.4	96	2
2023-08-18T06:00	23971	32	-55.3	-85.4	94	3
2023-08-18T06:00	23992	32	-55.3	-85.4	93	3
2023-08-18T06:00	24021	32	-55.4	-85.4	92	3
2023-08-18T06:00	24048	31	-55.5	-85.5	90	4
2023-08-18T06:00	24078	31	-55.5	-85.5	87	4
2023-08-18T06:00	24106	31	-55.3	-85.4	84	5
2023-08-18T06:00	24134	31	-55.2	-85.3	83	5
2023-08-18T06:00	24166	31	-55.1	-85.2	84	6
2023-08-18T06:00	24196	31	-55.1	-85.2	88	7
2023-08-18T06:00	24223	31	-55.2	-85.3	93	8
2023-08-18T06:00	24253	30	-55.2	-85.3	98	8
2023-08-18T06:00	24282	30	-55.0	-85.1	102	9
2023-08-18T06:00	24316	30	-54.8	-85.0	106	9
2023-08-18T06:00	24340	30	-54.8	-85.0	109	9
2023-08-18T06:00	24369	30	-54.8	-85.0	110	9
2023-08-18T06:00	24396	30	-54.6	-84.8	112	9
2023-08-18T06:00	24427	30	-54.5	-84.8	113	8
2023-08-18T06:00	24460	29	-54.5	-84.8	113	8
2023-08-18T06:00	24484	29	-54.6	-84.8	114	8
2023-08-18T06:00	24508	29	-54.7	-84.9	114	7
2023-08-18T06:00	24550	29	-54.5	-84.8	114	7
2023-08-18T06:00	24578	29	-54.4	-85.2	113	6
2023-08-18T06:00	24604	29	-54.3	-85.2	112	6
2023-08-18T06:00	24635	29	-54.2	-85.1	110	6
2023-08-18T06:00	24669	29	-54.1	-85.0	107	6
2023-08-18T06:00	24699	28	-54.0	-84.9	102	6
2023-08-18T06:00	24729	28	-53.8	-84.8	97	6
2023-08-18T06:00	24754	28	-53.7	-84.7	94	7
2023-08-18T06:00	24785	28	-53.8	-84.8	93	8
2023-08-18T06:00	24816	28	-53.8	-84.8	93	8
2023-08-18T06:00	24843	28	-53.7	-84.7	95	8
2023-08-18T06:00	24874	28	-53.7	-84.7	98	8
2023-08-18T06:00	24897	28	-53.7	-84.7	101	8
2023-08-18T06:00	24928	27	-53.8	-84.8	105	8
2023-08-18T06:00	24956	27	-53.9	-84.9	110	7
2023-08-18T06:00	24978	27	-53.8	-84.8	116	7
2023-08-18T06:00	25008	27	-53.5	-84.6	121	6
2023-08-18T06:00	25039	27	-53.4	-84.5	124	6
2023-08-18T06:00	25065	27	-53.4	-84.5	125	5
2023-08-18T06:00	25092	27	-53.3	-84.4	125	5
2023-08-18T06:00	25123	27	-53.3	-85.0	125	4
2023-08-18T06:00	25143	26	-53.2	-85.0	126	3
2023-08-18T06:00	25174	26	-53.2	-85.0	129	3
2023-08-18T06:00	25203	26	-53.2	-85.0	136	2
2023-08-18T06:00	25230	26	-53.0	-84.8	143	1
2023-08-18T06:00	25255	26	-52.9	-84.7	145	1
2023-08-18T06:00	25282	26	-52.9	-84.7	70	0
2023-08-18T06:00	25306	26	-52.9	-84.7	20	1
2023-08-18T06:00	25343	26	-52.8	-84.7	19	2
2023-08-18T06:00	25372	26	-52.8	-84.7	24	3
2023-08-18T06:00	25398	25	-52.7	-84.6	28	4
2023-08-18T06:00	25420	25	-52.5	-84.4	33	5
2023-08-18T06:00	25453	25	-52.5	-84.4	38	5
2023-08-18T06:00	25481	25	-52.5	-84.4	41	6
2023-08-18T06:00	25508	25	-52.5	-84.4	42	7
2023-08-18T06:00	25540	25	-52.6	-84.5	43	8
2023-08-18T06:00	25568	25	-52.6	-84.5	44	9
2023-08-18T06:00	25600	25	-52.7	-84.6	45	10
2023-08-18T06:00	25623	25	-52.7	-84.6	46	11
2023-08-18T06:00	25651	24	-52.6	-84.5	49	11
2023-08-18T06:00	25678	24	-52.6	-84.5	52	12
2023-08-18T06:00	25711	24	-52.7	-84.6	56	12
2023-08-18T06:00	25736	24	-52.7	-84.6	61	13
2023-08-18T06:00	25769	24	-52.5	-84.4	65	13
2023-08-18T06:00	25797	24	-52.5	-84.4	69	13
2023-08-18T06:00	25823	24	-52.5	-84.4	72	13
2023-08-18T06:00	25855	24	-52.6	-84.5	74	13
2023-08-18T06:00	25883	24	-52.6	-84.5	75	12
2023-08-18T06:00	25916	24	-52.6	-84.5	77	12
2023-08-18T06:00	25941	23	-52.7	-84.6	79	12
2023-08-18T06:00	25963	23	-52.7	-84.6	81	11
2023-08-18T06:00	25998	23	-52.7	-84.6	83	11
2023-08-18T06:00	26022	23	-52.7	-84.6	86	11
2023-08-18T06:00	26048	23	-52.7	-84.6	89	11
2023-08-18T06:00	26083	23	-52.6	-84.5	92	11
2023-08-18T06:00	26101	23	-52.5	-84.4	94	11
2023-08-18T06:00	26126	23	-52.4	-84.4	95	11
2023-08-18T06:00	26158	23	-52.4	-84.4	96	11
2023-08-18T06:00	26179	23	-52.3	-84.3	95	12
2023-08-18T06:00	26200	22	-52.2	-84.2	95	12
2023-08-18T06:00	26232	22	-52.1	-84.2	95	13
2023-08-18T06:00	26265	22	-52.0	-84.1	95	13
2023-08-18T06:00	26280	22	-51.9	-84.0	97	13
2023-08-18T06:00	26314	22	-51.8	-83.9	98	12
2023-08-18T06:00	26349	22	-51.8	-83.9	100	12
2023-08-18T06:00	26367	22	-51.8	-83.9	101	11
2023-08-18T06:00	26392	22	-51.8	-84.6	102	11
2023-08-18T06:00	26420	22	-51.6	-84.5	103	11
2023-08-18T06:00	26450	22	-51.4	-84.3	103	10
2023-08-18T06:00	26476	22	-51.2	-84.2	104	10
2023-08-18T06:00	26497	21	-51.0	-84.0	104	10
2023-08-18T06:00	26536	21	-50.8	-83.9	104	9
2023-08-18T06:00	26564	21	-50.6	-83.7	105	9
2023-08-18T06:00	26594	21	-50.4	-83.6	106	9
2023-08-18T06:00	26613	21	-50.3	-83.5	107	9
2023-08-18T06:00	26654	21	-50.3	-83.5	109	8
2023-08-18T06:00	26677	21	-50.4	-83.6	111	8
2023-08-18T06:00	26715	21	-50.5	-83.7	114	8
2023-08-18T06:00	26733	21	-50.5	-83.7	117	8
2023-08-18T06:00	26775	21	-50.6	-83.7	119	8
2023-08-18T06:00	26802	21	-50.6	-83.7	121	8
2023-08-18T06:00	26836	20	-50.7	-83.8	121	8
2023-08-18T06:00	26863	20	-50.7	-83.8	120	8
2023-08-18T06:00	26888	20	-50.7	-83.8	119	9
2023-08-18T06:00	26923	20	-50.7	-83.8	118	9
2023-08-18T06:00	26955	20	-50.6	-83.7	118	10
2023-08-18T06:00	26986	20	-50.5	-83.7	119	10
2023-08-18T06:00	27014	20	-50.3	-83.5	121	10
2023-08-18T06:00	27045	20	-50.2	-83.5	124	10
2023-08-18T06:00	27074	20	-50.1	-83.4	127	10
2023-08-18T06:00	27101	20	-50.0	-83.3	129	10
2023-08-18T06:00	27135	20	-49.9	-83.2	130	10
2023-08-18T06:00	27161	19	-50.0	-83.3	131	10
2023-08-18T06:00	27193	19	-50.1	-83.4	132	9
2023-08-18T06:00	27217	19	-50.2	-83.5	132	9
2023-08-18T06:00	27254	19	-50.1	-83.4	133	8
2023-08-18T06:00	27282	19	-50.1	-83.4	134	7
2023-08-18T06:00	27312	19	-50.1	-83.4	134	7
2023-08-18T06:00	27338	19	-50.1	-83.4	135	6
2023-08-18T06:00	27375	19	-50.0	-83.3	135	6
2023-08-18T06:00	27397	19	-49.9	-83.2	135	6
2023-08-18T06:00	27421	19	-49.7	-83.1	133	5
2023-08-18T06:00	27451	19	-49.7	-83.1	131	5
2023-08-18T06:00	27484	19	-49.7	-83.9	128	5
2023-08-18T06:00	27518	18	-49.6	-83.8	125	5
2023-08-18T06:00	27540	18	-49.6	-83.8	121	4
2023-08-18T06:00	27567	18	-49.5	-83.7	117	4
2023-08-18T06:00	27597	18	-49.3	-83.6	112	4
2023-08-18T06:00	27626	18	-49.2	-83.5	109	4
2023-08-18T06:00	27649	18	-49.0	-83.4	108	3
2023-08-18T06:00	27672	18	-48.8	-83.2	107	3
2023-08-18T06:00	27706	18	-48.7	-83.2	106	3
2023-08-18T06:00	27748	18	-48.5	-83.0	104	3
2023-08-18T06:00	27762	18	-48.3	-82.9	100	3
2023-08-18T06:00	27791	18	-48.2	-82.8	95	3
2023-08-18T06:00	27805	18	-48.1	-82.7	90	3
2023-08-18T06:00	27836	18	-48.1	-82.7	85	3
2023-08-18T06:00	27870	17	-48.1	-82.7	79	2
2023-08-18T06:00	27912	17	-48.0	-82.7	70	2
2023-08-18T06:00	27928	17	-47.9	-82.6	52	1
2023-08-18T06:00	27962	17	-47.8	-82.5	33	2
2023-08-18T06:00	27993	17	-47.7	-82.4	25	2
2023-08-18T06:00	28009	17	-47.6	-82.4	24	3
2023-08-18T06:00	28041	17	-47.5	-82.3	26	4
2023-08-18T06:00	28065	17	-47.4	-82.2	28	5
2023-08-18T06:00	28105	17	-47.2	-82.1	30	6
2023-08-18T06:00	28131	17	-47.0	-81.9	32	6
2023-08-18T06:00	28154	17	-47.0	-82.9	33	7
2023-08-18T06:00	28192	17	-46.9	-82.8	36	7
2023-08-18T06:00	28222	17	-46.8	-82.7	39	7
2023-08-18T06:00	28246	16	-46.7	-82.6	45	7
2023-08-18T06:00	28274	16	-46.6	-82.6	51	7
2023-08-18T06:00	28310	16	-46.5	-82.5	56	7
2023-08-18T06:00	28333	16	-46.5	-82.5	59	7
2023-08-18T06:00	28371	16	-46.4	-82.4	61	7
2023-08-18T06:00	28395	16	-46.0	-82.1	60	7
2023-08-18T06:00	28435	16	-45.6	-81.9	59	6
2023-08-18T06:00	28456	16	-45.3	-81.6	58	6
2023-08-18T06:00	28488	16	-45.1	-81.5	58	6
2023-08-18T06:00	28530	16	-44.9	-81.4	58	6
2023-08-18T06:00	28546	16	-44.8	-81.3	58	6
2023-08-18T06:00	28574	16	-44.5	-81.1	58	7
2023-08-18T06:00	28607	16	-44.4	-81.0	57	7
2023-08-18T06:00	28650	16	-44.3	-80.9	57	8
2023-08-18T06:00	28670	15	-44.1	-80.8	57	8
2023-08-18T06:00	28709	15	-43.8	-80.6	58	8
2023-08-18T06:00	28747	15	-43.7	-80.5	58	8
2023-08-18T06:00	28770	15	-43.7	-80.5	58	7
2023-08-18T06:00	28808	15	-43.7	-80.5	57	7
2023-08-18T06:00	28843	15	-43.8	-80.6	56	7
2023-08-18T06:00	28859	15	-43.9	-80.7	54	7
2023-08-18T06:00	28898	15	-44.0	-80.7	52	7
2023-08-18T06:00	28928	15	-44.0	-80.7	51	8
2023-08-18T06:00	28954	15	-44.1	-80.8	51	8
2023-08-18T06:00	28985	15	-44.1	-80.8	51	9
2023-08-18T06:00	29033	15	-44.2	-80.9	53	9
2023-08-18T06:00	29057	15	-44.3	-80.9	55	10
2023-08-18T06:00	29093	15	-44.5	-81.1	57	10
2023-08-18T06:00	29112	14	-44.6	-81.2	60	11
2023-08-18T06:00	29151	14	-44.7	-81.2	63	11
2023-08-18T06:00	29177	14	-44.8	-81.3	66	12
2023-08-18T06:00	29219	14	-44.8	-81.3	70	12
2023-08-18T06:00	29247	14	-44.7	-81.2	73	12
2023-08-18T06:00	29285	14	-44.6	-81.2	77	12
2023-08-18T06:00	29315	14	-44.5	-81.1	80	13
2023-08-18T06:00	29346	14	-44.5	-81.1	83	13
2023-08-18T06:00	29374	14	-44.6	-81.2	86	14
2023-08-18T06:00	29414	14	-44.6	-81.2	90	14
2023-08-18T06:00	29450	14	-44.8	-81.3	93	14
2023-08-18T06:00	29466	14	-44.9	-81.4	97	15
2023-08-18T06:00	29506	14	-45.0	-81.4	100	15
2023-08-18T06:00	29543	14	-45.2	-81.6	103	15
2023-08-18T06:00	29571	14	-45.2	-81.6	106	15
2023-08-18T06:00	29598	13	-45.1	-81.5	108	15
2023-08-18T06:00	29628	13	-45.2	-81.6	110	15
2023-08-18T06:00	29664	13	-45.3	-81.6	112	15
2023-08-18T06:00	29692	13	-45.4	-81.7	113	15
2023-08-18T06:00	29721	13	-45.4	-81.7	115	14
2023-08-18T06:00	29749	13	-45.3	-81.6	116	14
2023-08-18T06:00	29797	13	-45.1	-81.5	116	13
2023-08-18T06:00	29811	13	-45.0	-81.4	114	12
2023-08-18T06:00	29841	13	-44.9	-81.4	112	11
2023-08-18T06:00	29871	13	-44.9	-81.4	110	10
2023-08-18T06:00	29902	13	-45.0	-81.4	107	10
2023-08-18T06:00	29941	13	-44.9	-82.5	104	9
2023-08-18T06:00	29965	13	-44.7	-82.3	102	9
2023-08-18T06:00	30002	13	-44.3	-82.0	102	9
2023-08-18T06:00	30028	13	-44.1	-81.9	103	9
2023-08-18T06:00	30063	13	-44.2	-82.0	105	9
2023-08-18T06:00	30075	13	-44.2	-82.0	107	10
2023-08-18T06:00	30123	12	-44.2	-82.0	109	10
2023-08-18T06:00	30148	12	-44.1	-81.9	110	10
2023-08-18T06:00	30175	12	-43.7	-81.6	111	9
2023-08-18T06:00	30215	12	-43.5	-81.5	112	8
2023-08-18T06:00	30232	12	-43.5	-81.5	112	7
2023-08-18T06:00	30270	12	-43.5	-81.5	110	6
2023-08-18T06:00	30316	12	-43.4	-81.4	105	5
2023-08-18T06:00	30329	12	-43.2	-81.3	97	4
2023-08-18T06:00	30375	12	-42.9	-81.1	85	4
2023-08-18T06:00	30390	12	-42.6	-80.8	75	5
2023-08-18T06:00	30433	12	-42.5	-80.8	66	5
2023-08-18T06:00	30460	12	-42.3	-80.6	60	6
2023-08-18T06:00	30476	12	-42.2	-80.6	56	7
2023-08-18T06:00	30507	12	-42.1	-80.5	53	8
2023-08-18T06:00	30541	12	-42.0	-80.4	53	9
2023-08-18T06:00	30571	12	-41.9	-80.4	54	9
2023-08-18T06:00	30598	12	-41.8	-80.3	58	10
2023-08-18T06:00	30629	12	-41.8	-80.3	63	10
2023-08-18T06:00	30660	12	-41.7	-80.2	68	9
2023-08-18T06:00	30669	11	-41.6	-80.1	74	9
2023-08-18T06:00	30704	11	-41.4	-80.0	80	9
2023-08-18T06:00	30742	11	-41.3	-79.9	83	9
2023-08-18T06:00	30771	11	-41.1	-79.8	85	9
2023-08-18T06:00	30800	11	-41.0	-79.7	86	9
2023-08-18T06:00	30835	11	-41.1	-79.8	86	9
2023-08-18T06:00	30886	11	-41.2	-79.9	86	9
2023-08-18T06:00	30887	11	-41.2	-79.9	86	9
2023-08-18T06:00	30916	11	-41.1	-79.8	86	10
2023-08-18T06:00	30968	11	-41.0	-79.7	86	10
2023-08-18T06:00	30970	11	-41.1	-79.8	86	10
2023-08-18T06:00	31008	11	-41.2	-79.9	86	10
2023-08-18T06:00	31061	11	-41.3	-79.9	87	11
2023-08-18T06:00	31074	11	-41.3	-79.9	89	11
2023-08-18T06:00	31115	11	-41.4	-80.0	91	11
2023-08-18T06:00	31142	11	-41.4	-80.0	94	11
2023-08-18T06:00	31201	11	-41.3	-79.9	98	11
2023-08-18T06:00	31236	11	-41.4	-80.0	106	11
2023-08-18T06:00	31281	11	-41.5	-80.1	109	11
2023-08-18T06:00	31303	10	-41.5	-80.1	112	10
2023-08-18T06:00	31343	10	-41.6	-80.1	113	9
2023-08-18T06:00	31370	10	-41.5	-80.1	114	9
2023-08-18T06:00	31395	10	-41.5	-80.1	114	8
2023-08-18T06:00	31425	10	-41.5	-80.1	111	6
2023-08-18T06:00	31458	10	-41.5	-80.1	107	5
2023-08-18T06:00	31490	10	-41.3	-79.9	98	5
2023-08-18T06:00	31519	10	-41.0	-79.7	87	4
2023-08-18T06:00	31555	10	-40.8	-79.6	76	4
2023-08-18T06:00	31596	10	-40.6	-79.5	67	5
2023-08-18T06:00	31627	10	-40.5	-79.4	62	5
2023-08-18T06:00	31660	10	-40.3	-79.2	60	6
2023-08-18T06:00	31683	10	-40.3	-79.2	60	7
2023-08-18T06:00	31730	10	-40.2	-79.2	62	8
2023-08-18T06:00	31749	10	-40.2	-79.2	65	9
2023-08-18T06:00	31776	10	-40.2	-79.2	68	10
2023-08-18T06:00	31816	10	-40.3	-79.2	71	11
2023-08-18T06:00	31846	10	-40.4	-79.3	74	12
2023-08-18T06:00	31880	10	-40.4	-79.3	77	14
2023-08-18T06:00	31930	10	-40.2	-79.2	80	14
2023-08-18T06:00	31937	10	-40.1	-79.1	83	15
2023-08-18T06:00	31971	9	-40.1	-79.1	86	15
2023-08-18T06:00	32004	9	-40.2	-79.2	88	15
2023-08-18T06:00	32037	9	-40.2	-79.2	91	15
2023-08-18T06:00	32059	9	-40.1	-79.1	92	14
2023-08-18T06:00	32099	9	-40.2	-79.2	94	14
2023-08-18T06:00	32141	9	-40.3	-79.2	96	13
2023-08-18T06:00	32174	9	-40.4	-79.3	97	12
2023-08-18T06:00	32215	9	-40.5	-79.4	99	11
2023-08-18T06:00	32237	9	-40.7	-79.5	100	11
2023-08-18T06:00	32276	9	-40.9	-79.7	100	10
2023-08-18T06:00	32301	9	-41.1	-79.8	99	9
2023-08-18T06:00	32322	9	-41.2	-79.9	97	8
2023-08-18T06:00	32372	9	-41.2	-79.9	93	7
2023-08-18T06:00	32424	9	-41.2	-79.9	88	7
2023-08-18T06:00	32433	9	-41.0	-79.7	83	6
2023-08-18T06:00	32454	9	-40.8	-79.6	80	7
2023-08-18T06:00	32488	9	-40.6	-79.5	79	7
2023-08-18T06:00	32507	9	-40.6	-79.5	79	8
2023-08-18T06:00	32566	9	-40.6	-79.5	80	8
2023-08-18T06:00	32593	9	-40.6	-79.5	82	9
2023-08-18T06:00	32610	9	-40.7	-79.5	84	9
2023-08-18T06:00	32641	9	-40.9	-79.7	86	10
2023-08-18T06:00	32671	9	-41.1	-79.8	88	11
2023-08-18T06:00	32704	9	-41.3	-79.9	90	11
2023-08-18T06:00	32739	8	-41.6	-80.1	92	12
2023-08-18T06:00	32795	8	-41.7	-80.2	94	12
2023-08-18T06:00	32800	8	-41.9	-80.4	96	12
2023-08-18T06:00	32853	8	-42.0	-80.4	98	11
2023-08-18T06:00	32862	8	-42.1	-80.5	100	10
2023-08-18T06:00	32913	8	-42.1	-80.5	102	10
2023-08-18T06:00	32923	8	-42.1	-80.5	105	9
2023-08-18T06:00	32964	8	-42.2	-80.6	109	8
2023-08-18T06:00	32998	8	-42.1	-80.5	113	7
2023-08-18T06:00	33015	8	-42.0	-80.4	115	7
2023-08-18T06:00	33060	8	-41.8	-80.3	115	6
2023-08-18T06:00	33099	8	-41.5	-80.1	113	6
2023-08-18T06:00	33128	8	-41.3	-79.9	109	6
2023-08-18T06:00	33129	8	-41.2	-79.9	104	5
2023-08-18T06:00	33182	8	-41.0	-79.7	99	5
2023-08-18T06:00	33211	8	-41.0	-79.7	93	5
2023-08-18T06:00	33256	8	-40.9	-79.7	87	5
2023-08-18T06:00	33264	8	-40.9	-79.7	81	4
2023-08-18T06:00	33291	8	-40.8	-79.6	75	4
2023-08-18T06:00	33318	8	-40.7	-79.5	69	4
2023-08-18T06:00	33366	8	-40.5	-79.4	62	4
2023-08-18T06:00	33389	8	-40.3	-79.2	55	4
2023-08-18T06:00	33426	8	-40.1	-79.1	48	5
2023-08-18T06:00	33455	8	-39.9	-79.0	41	5
2023-08-18T06:00	33503	8	-39.8	-78.9	37	5
2023-08-18T06:00	33514	8	-39.8	-78.9	34	6
2023-08-18T06:00	33542	8	-39.8	-78.9	34	6
2023-08-18T06:00	33585	8	-39.7	-78.8	37	7
2023-08-18T06:00	33606	7	-39.7	-78.8	43	7
2023-08-18T06:00	33652	7	-39.7	-78.8	51	7
2023-08-18T06:00	33662	7	-39.6	-78.8	61	8
2023-08-18T06:00	33698	7	-39.5	-78.7	70	8
2023-08-18T06:00	33707	7	-39.2	-78.5	78	9
2023-08-18T06:00	33751	7	-39.1	-78.4	85	10
2023-08-18T06:00	33768	7	-39.0	-78.3	91	10
2023-08-18T06:00	33822	7	-38.8	-78.2	96	11
2023-08-18T06:00	33859	7	-38.6	-78.1	100	12
2023-08-18T06:00	33886	7	-38.4	-77.9	103	12
2023-08-18T06:00	33917	7	-38.2	-77.8	106	13
2023-08-18T06:00	33935	7	-37.9	-77.6	107	13
2023-08-18T06:00	33972	7	-37.7	-77.4	108	12
2023-08-18T06:00	34022	7	-37.6	-77.4	109	12
2023-08-18T06:00	34055	7	-37.6	-77.4	109	11
2023-08-18T06:00	34113	7	-37.3	-77.2	109	10
2023-08-18T06:00	34117	7	-37.2	-77.1	108	9
2023-08-18T06:00	34140	7	-37.0	-77.0	106	9
2023-08-18T06:00	34193	7	-36.9	-76.9	104	8
2023-08-18T06:00	34201	7	-36.9	-76.9	101	8
2023-08-18T06:00	34248	7	-36.8	-76.8	99	8
2023-08-18T06:00	34254	7	-36.5	-76.6	98	8
2023-08-18T06:00	34331	7	-36.3	-76.5	96	8
2023-08-18T06:00	34365	7	-36.2	-76.4	95	8
2023-08-18T06:00	34375	7	-36.0	-76.3	95	9
2023-08-18T06:00	34437	7	-36.0	-76.3	95	9
2023-08-18T06:00	34449	7	-35.8	-76.1	97	10
2023-08-18T06:00	34457	7	-35.7	-76.1	99	10
2023-08-18T06:00	34500	7	-35.6	-76.0	102	11
2023-08-18T06:00	34537	7	-35.6	-76.0	105	11
2023-08-18T06:00	34581	7	-35.5	-75.9	107	11
2023-08-18T06:00	34596	6	-35.3	-75.8	108	12
2023-08-18T06:00	34642	6	-34.9	-75.5	109	12
2023-08-18T06:00	34686	6	-34.6	-75.3	109	11
2023-08-18T06:00	34699	6	-34.2	-75.0	109	11
2023-08-18T06:00	34753	6	-33.9	-74.8	108	10
2023-08-18T06:00	34756	6	-33.6	-74.6	105	9
2023-08-18T06:00	34812	6	-33.3	-74.4	101	9
2023-08-18T06:00	34819	6	-33.0	-74.2	96	9
2023-08-18T06:00	34857	6	-32.7	-74.0	91	9
2023-08-18T06:00	34897	6	-32.5	-73.8	87	9
2023-08-18T06:00	34938	6	-32.4	-73.8	85	10
2023-08-18T06:00	34943	6	-32.4	-73.8	85	10
2023-08-18T06:00	34983	6	-32.3	-73.7	85	11
2023-08-18T06:00	35031	6	-32.3	-73.7	86	11
2023-08-18T06:00	35050	6	-32.2	-73.6	87	11
2023-08-18T12:00	-999					
2023-08-18T12:00	131	1003	25.8	17.2	120	1
2023-08-18T12:00	156	1000	25.5	16.7	115	2
2023-08-18T12:00	180	997	25.4	16.7	107	3
2023-08-18T12:00	202	995	25.2	16.8	97	4
2023-08-18T12:00	228	992	25.1	16.9	88	4
2023-08-18T12:00	258	988	24.8	16.9	80	5
2023-08-18T12:00	288	985	24.4	16.7	76	5
2023-08-18T12:00	312	982	24.2	16.7	75	5
2023-08-18T12:00	335	980	23.9	16.6	77	5
2023-08-18T12:00	353	978	23.7	16.5	80	5
2023-08-18T12:00	377	975	23.5	16.5	84	5
2023-08-18T12:00	398	973	23.3	16.4	88	5
2023-08-18T12:00	423	970	23.1	16.4	89	4
2023-08-18T12:00	442	968	22.9	16.2	89	4
2023-08-18T12:00	458	966	22.7	16.2	87	4
2023-08-18T12:00	477	964	22.6	16.2	83	4
2023-08-18T12:00	495	962	22.4	16.1	80	4
2023-08-18T12:00	513	960	22.2	16.1	79	4
2023-08-18T12:00	536	958	22.0	16.2	81	4
2023-08-18T12:00	554	956	21.7	16.0	85	4
2023-08-18T12:00	566	954	21.6	16.2	90	3
2023-08-18T12:00	585	952	21.4	16.0	94	4
2023-08-18T12:00	602	950	21.3	15.9	97	4
2023-08-18T12:00	618	948	21.2	15.9	99	4
2023-08-18T12:00	635	946	21.0	15.8	100	4
2023-08-18T12:00	654	945	20.8	15.8	102	4
2023-08-18T12:00	667	943	20.7	15.8	105	4
2023-08-18T12:00	687	941	20.5	15.8	109	4
2023-08-18T12:00	704	939	20.3	15.8	113	4
2023-08-18T12:00	722	937	20.1	15.7	117	4
2023-08-18T12:00	742	935	20.0	15.8	121	4
2023-08-18T12:00	758	933	19.9	15.2	124	5
2023-08-18T12:00	782	931	19.6	15.4	124	5
2023-08-18T12:00	806	928	19.5	15.2	122	5
2023-08-18T12:00	827	926	19.3	15.0	118	5
2023-08-18T12:00	849	923	19.2	14.7	113	6
2023-08-18T12:00	875	921	19.1	14.0	110	6
2023-08-18T12:00	895	918	19.0	13.3	109	6
2023-08-18T12:00	921	916	18.8	12.9	111	7
2023-08-18T12:00	943	913	18.6	12.9	115	7
2023-08-18T12:00	963	911	18.4	13.0	118	8
2023-08-18T12:00	984	909	18.4	12.7	119	8
2023-08-18T12:00	1012	906	18.1		119	8
2023-08-18T12:00	1041	903	17.9	12.1	117	8
2023-08-18T12:00	1067	900	18.2	11.6	114	8
2023-08-18T12:00	1094	897	18.0	11.5	112	8
2023-08-18T12:00	1117	895	17.8	11.2	111	8
2023-08-18T12:00	1141	893	17.6	11.0	111	7
2023-08-18T12:00	1163	890	17.4	11.0	113	7
2023-08-18T12:00	1191	887	17.2	10.7	117	7
2023-08-18T12:00	1218	885	17.2	10.4	121	7
2023-08-18T12:00	1241	882	17.1	10.2	126	7
2023-08-18T12:00	1266	880	16.9	9.9	130	7
2023-08-18T12:00	1285	877	16.8	9.6	132	7
2023-08-18T12:00	1310	875	16.7	10.0	134	7
2023-08-18T12:00	1339	872	16.6	9.9	135	7
2023-08-18T12:00	1364	869	16.4	10.0	136	7
2023-08-18T12:00	1392	867	16.4	9.4	136	7
2023-08-18T12:00	1417	864	16.2	9.3	135	7
2023-08-18T12:00	1443	861	16.1	9.3	134	7
2023-08-18T12:00	1471	859	15.9	9.1	132	7
2023-08-18T12:00	1499	856	15.7	8.9	130	6
2023-08-18T12:00	1525	853	15.6	8.9	128	6
2023-08-18T12:00	1551	851	15.4	8.8	125	6
2023-08-18T12:00	1574	848	15.2	8.7	122	6
2023-08-18T12:00	1603	845	15.0	8.6	119	6
2023-08-18T12:00	1630	843	14.8	8.3	118	6
2023-08-18T12:00	1653	840	14.6	7.9	117	6
2023-08-18T12:00	1678	838	14.4	7.8	118	6
2023-08-18T12:00	1710	835	14.2	7.6	120	6
2023-08-18T12:00	1738	832	14.1	7.7	122	6
2023-08-18T12:00	1761	830	13.9	7.6	123	7
2023-08-18T12:00	1792	827	13.7	6.8	123	7
2023-08-18T12:00	1820	824	13.5	6.5	122	7
2023-08-18T12:00	1848	821	13.2	6.6	120	7
2023-08-18T12:00	1873	819	13.0	6.7	119	7
2023-08-18T12:00	1902	816	12.8	6.9	119	7
2023-08-18T12:00	1933	813	12.5	6.7	119	7
2023-08-18T12:00	1962	810	12.2	6.7	118	7
2023-08-18T12:00	1992	807	12.0	6.8	117	7
2023-08-18T12:00	2023	804	11.7	6.8	115	7
2023-08-18T12:00	2051	802	11.4	6.7	112	7
2023-08-18T12:00	2070	800	11.2	6.7	110	7
2023-08-18T12:00	2100	797	11.0	6.9	109	7
2023-08-18T12:00	2124	795	10.7	6.7	110	8
2023-08-18T12:00	2146	792	10.5	7.0	112	8
2023-08-18T12:00	2175	790	10.2	7.1	116	7
2023-08-18T12:00	2202	787	10.0	7.3	120	7
2023-08-18T12:00	2222	785	9.9	7.1	123	7
2023-08-18T12:00	2249	783	9.7	7.0	125	7
2023-08-18T12:00	2276	780	9.5	6.8	126	6
2023-08-18T12:00	2306	778	9.3	6.8	127	6
2023-08-18T12:00	2331	775	9.1	6.5	128	6
2023-08-18T12:00	2352	773	9.0	6.4	131	6
2023-08-18T12:00	2383	770	8.7	6.0	133	6
2023-08-18T12:00	2413	768	8.5	5.7	135	6
2023-08-18T12:00	2438	765	8.3	5.6	136	6
2023-08-18T12:00	2467	763	8.2	5.3	135	6
2023-08-18T12:00	2490	760	8.0	5.2	133	6
2023-08-18T12:00	2515	758	7.9	5.1	129	6
2023-08-18T12:00	2543	756	7.7	4.9	125	6
2023-08-18T12:00	2571	753	7.6	4.5	123	6
2023-08-18T12:00	2592	751	7.4	4.2	123	6
2023-08-18T12:00	2613	749	7.3	4.2	125	6
2023-08-18T12:00	2643	746	7.1	4.1	128	6
2023-08-18T12:00	2666	744	6.9	3.8	129	6
2023-08-18T12:00	2687	742	6.9	3.6	129	6
2023-08-18T12:00	2712	740	6.8	3.4	128	6
2023-08-18T12:00	2741	738	6.7	3.2	126	6
2023-08-18T12:00	2763	736	6.5	2.9	124	5
2023-08-18T12:00	2790	733	6.4	2.6	123	5
2023-08-18T12:00	2812	731	6.2	2.5	122	5
2023-08-18T12:00	2830	730	6.0	2.4	122	4
2023-08-18T12:00	2848	728	5.9	2.4	122	5
2023-08-18T12:00	2875	726	5.7	2.6	123	5
2023-08-18T12:00	2900	724	5.5	2.1	124	5
2023-08-18T12:00	2918	722	5.4	1.9	125	5
2023-08-18T12:00	2937	720	5.2	1.8	127	5
2023-08-18T12:00	2958	718	5.1	2.1	129	5
2023-08-18T12:00	2988	716	4.7	2.6	133	4
2023-08-18T12:00	3014	713	4.7	2.4	137	4
2023-08-18T12:00	3038	711	4.7	2.2	142	4
2023-08-18T12:00	3057	710	4.7	2.0	147	4
2023-08-18T12:00	3081	707	4.5	1.9	150	4
2023-08-18T12:00	3111	705	4.3	1.7	151	4
2023-08-18T12:00	3135	703	4.2	1.5	150	4
2023-08-18T12:00	3153	701	4.2	1.5	147	4
2023-08-18T12:00	3176	699	4.0	1.5	144	5
2023-08-18T12:00	3203	697	3.7	1.4	140	5
2023-08-18T12:00	3237	694	3.5	1.3	135	5
2023-08-18T12:00	3268	692	3.3	1.0	130	4
2023-08-18T12:00	3290	690	3.3	1.0	122	4
2023-08-18T12:00	3312	688	3.1	1.0	112	4
2023-08-18T12:00	3342	685	2.9	1.0	102	4
2023-08-18T12:00	3364	683	2.7	0.9	97	4
2023-08-18T12:00	3387	682	2.5	0.8	97	4
2023-08-18T12:00	3405	680	2.4	0.8	102	4
2023-08-18T12:00	3421	678	2.3	0.8	112	4
2023-08-18T12:00	3448	676	2.2	0.7	121	5
2023-08-18T12:00	3464	675	2.3	0.6	128	5
2023-08-18T12:00	3490	673	2.1	0.5	131	5
2023-08-18T12:00	3512	671	1.9	0.3	129	5
2023-08-18T12:00	3533	669	1.9	0.3	122	4
2023-08-18T12:00	3556	667	1.8	-0.1	114	4
2023-08-18T12:00	3577	666	1.8	-0.2	108	4
2023-08-18T12:00	3595	664	1.8	-0.2	108	5
2023-08-18T12:00	3623	662	1.6	-0.3	112	5
2023-08-18T12:00	3642	660	1.5	-0.4	117	5
2023-08-18T12:00	3661	659	1.3	-0.6	121	6
2023-08-18T12:00	3682	657	1.2	-0.5	124	6
2023-08-18T12:00	3709	655	1.0	-0.7	125	6
2023-08-18T12:00	3738	652	0.9	-0.9	126	7
2023-08-18T12:00	3767	650	0.7	-1.1	127	7
2023-08-18T12:00	3792	648	0.8	-1.8	128	8
2023-08-18T12:00	3817	646	0.7	-1.9	128	8
2023-08-18T12:00	3842	644	0.6	-2.1	127	8
2023-08-18T12:00	3864	642	0.5	-2.1	124	8
2023-08-18T12:00	3890	640	0.3	-2.3	121	8
2023-08-18T12:00	3912	638	0.0	-2.4	119	7
2023-08-18T12:00	3936	637	-0.2	-2.5	118	7
2023-08-18T12:00	3957	635	-0.4	-2.5	120	6
2023-08-18T12:00	3989	633	-0.6	-2.5	123	6
2023-08-18T12:00	4013	630	-0.8	-3.0	124	5
2023-08-18T12:00	4036	629	-0.9	-3.1	122	5
2023-08-18T12:00	4058	627	-1.1	-3.2	116	5
2023-08-18T12:00	4088	625	-1.1	-3.3	110	5
2023-08-18T12:00	4113	623	-1.3	-3.5	107	5
2023-08-18T12:00	4134	621	-1.4	-3.6	107	5
2023-08-18T12:00	4156	619	-1.5	-3.7	109	5
2023-08-18T12:00	4184	617	-1.6		111	6
2023-08-18T12:00	4210	615	-1.5	-5.2	112	6
2023-08-18T12:00	4230	614	-1.5	-5.5	111	7
2023-08-18T12:00	4252	612	-1.6	-5.7	109	7
2023-08-18T12:00	4275	610	-1.7	-5.8	108	8
2023-08-18T12:00	4300	608	-1.9	-5.8	108	8
2023-08-18T12:00	4318	607	-2.0	-5.5	107	8
2023-08-18T12:00	4345	605	-2.2	-5.8	106	7
2023-08-18T12:00	4370	603	-2.4	-5.9	104	7
2023-08-18T12:00	4398	601	-2.5	-6.1	102	6
2023-08-18T12:00	4417	599	-2.6	-6.3	100	6
2023-08-18T12:00	4433	598	-2.7	-5.9	98	5
2023-08-18T12:00	4450	597	-2.6	-6.1	97	5
2023-08-18T12:00	4478	595	-2.8	-6.6	95	5
2023-08-18T12:00	4507	593	-2.8	-6.9	91	4
2023-08-18T12:00	4525	591	-2.7	-7.3	86	4
2023-08-18T12:00	4542	590	-2.7	-7.2	82	3
2023-08-18T12:00	4562	588	-2.9	-7.3	81	3
2023-08-18T12:00	4583	587	-2.7	-8.4	84	3
2023-08-18T12:00	4608	585	-2.7	-8.6	89	4
2023-08-18T12:00	4637	583	-2.7	-8.9	94	4
2023-08-18T12:00	4660	581	-2.8	-8.7	97	4
2023-08-18T12:00	4689	579	-3.0	-8.5	100	4
2023-08-18T12:00	4719	577	-3.3	-8.5	103	4
2023-08-18T12:00	4742	575	-3.5	-8.4	108	4
2023-08-18T12:00	4778	573	-3.8	-8.3	113	4
2023-08-18T12:00	4801	571	-3.9	-8.2	117	4
2023-08-18T12:00	4819	570	-4.0	-8.9	120	4
2023-08-18T12:00	4836	568	-4.1	-8.8	122	4
2023-08-18T12:00	4856	567	-4.3	-8.7	125	4
2023-08-18T12:00	4877	565	-4.5	-8.8	129	4
2023-08-18T12:00	4907	564	-4.7	-9.1	135	4
2023-08-18T12:00	4926	562	-4.9	-9.1	141	4
2023-08-18T12:00	4952	560	-5.1	-9.2	145	5
2023-08-18T12:00	4979	558	-5.4	-9.2	145	5
2023-08-18T12:00	5004	556	-5.6	-8.7	143	5
2023-08-18T12:00	5028	555	-5.7	-8.7	138	5
2023-08-18T12:00	5058	553	-5.9	-8.9	133	5
2023-08-18T12:00	5086	551	-6.1	-9.5	128	5
2023-08-18T12:00	5109	549	-6.2	-9.9	128	4
2023-08-18T12:00	5138	547	-6.4	-9.6	135	4
2023-08-18T12:00	5173	545	-6.5	-11.0	150	3
2023-08-18T12:00	5191	543	-6.6	-11.2	171	3
2023-08-18T12:00	5218	541	-6.6	-11.9	187	3
2023-08-18T12:00	5242	540	-6.7	-12.2	194	2
2023-08-18T12:00	5267	538	-6.8	-12.4	194	2
2023-08-18T12:00	5297	536	-7.0	-12.1	187	1
2023-08-18T12:00	5333	534	-7.2	-11.9	175	1
2023-08-18T12:00	5350	532	-7.2	-12.2	166	1
2023-08-18T12:00	5367	531	-7.3	-12.3	165	1
2023-08-18T12:00	5385	530	-7.4	-12.6	168	2
2023-08-18T12:00	5403	529	-7.5	-13.5	171	2
2023-08-18T12:00	5420	528	-7.6	-14.5	175	3
2023-08-18T12:00	5442	526	-7.7	-14.4	179	3
2023-08-18T12:00	5468	524	-7.9	-15.6	183	3
2023-08-18T12:00	5493	523	-7.9	-16.6	188	4
2023-08-18T12:00	5519	521	-8.0	-16.0	192	4
2023-08-18T12:00	5546	519	-8.1	-15.9	194	5
2023-08-18T12:00	5571	517	-8.3	-16.0	194	5
2023-08-18T12:00	5600	516	-8.5	-16.7	192	5
2023-08-18T12:00	5629	514	-8.6	-17.0	188	5
2023-08-18T12:00	5650	512	-8.8	-16.9	184	5
2023-08-18T12:00	5673	511	-9.0	-17.0	180	4
2023-08-18T12:00	5705	509	-9.3	-17.2	178	3
2023-08-18T12:00	5738	506	-9.6	-17.2	179	3
2023-08-18T12:00	5769	504	-9.8	-17.4	183	3
2023-08-18T12:00	5792	503	-10.0	-17.6	186	3
2023-08-18T12:00	5809	502	-10.1	-17.4	186	3
2023-08-18T12:00	5830	500	-10.2	-16.8	182	3
2023-08-18T12:00	5854	499	-10.5	-16.0	175	3
2023-08-18T12:00	5883	497	-10.7	-15.7	168	2
2023-08-18T12:00	5915	495	-10.9	-15.8	164	2
2023-08-18T12:00	5947	493	-11.2		170	2
2023-08-18T12:00	5982	491	-11.5	-16.0	189	1
2023-08-18T12:00	6007	489	-11.6	-16.1	207	2
2023-08-18T12:00	6026	488	-11.7	-16.1	213	2
2023-08-18T12:00	6044	487	-11.9	-16.3	211	2
2023-08-18T12:00	6066	485	-12.1	-16.4	209	3
2023-08-18T12:00	6093	484	-12.3	-16.6	209	3
2023-08-18T12:00	6116	482	-12.4	-17.2	211	3
2023-08-18T12:00	6139	481	-12.6	-17.4	214	3
2023-08-18T12:00	6166	479	-12.8	-17.3	215	3
2023-08-18T12:00	6193	477	-12.8	-19.1	215	3
2023-08-18T12:00	6227	475	-13.1	-19.5	217	2
2023-08-18T12:00	6253	473	-13.3	-19.6	225	2
2023-08-18T12:00	6288	471	-13.6	-19.6	242	2
2023-08-18T12:00	6319	470	-13.8	-19.3	261	2
2023-08-18T12:00	6335	468	-13.9	-19.2	272	3
2023-08-18T12:00	6352	467	-14.0	-19.1	278	3
2023-08-18T12:00	6371	466	-14.2	-19.2	281	3
2023-08-18T12:00	6389	465	-14.2	-19.1	283	3
2023-08-18T12:00	6410	464	-14.4	-20.1	283	3
2023-08-18T12:00	6433	462	-14.5	-21.2	282	3
2023-08-18T12:00	6456	461	-14.6	-23.3	281	2
2023-08-18T12:00	6481	459	-14.8	-23.7	279	2
2023-08-18T12:00	6515	457	-15.1	-24.1	279	2
2023-08-18T12:00	6546	455	-15.4	-24.0	284	2
2023-08-18T12:00	6583	454	-15.7	-23.8	290	2
2023-08-18T12:00	6600	452	-15.8	-23.6	293	2
2023-08-18T12:00	6618	451	-15.9	-25.8	294	3
2023-08-18T12:00	6637	450	-16.0	-25.5	293	3
2023-08-18T12:00	6655	449	-16.1	-26.1	290	3
2023-08-18T12:00	6674	448	-16.2	-26.7	286	3
2023-08-18T12:00	6692	447	-16.3	-26.5	282	3
2023-08-18T12:00	6710	446	-16.5	-27.1	278	3
2023-08-18T12:00	6730	445	-16.6	-27.0	274	3
2023-08-18T12:00	6749	443	-16.7	-27.0	272	3
2023-08-18T12:00	6769	442	-16.9	-27.3	271	3
2023-08-18T12:00	6789	441	-17.0	-27.7	271	4
2023-08-18T12:00	6806	440	-17.2	-27.8	272	4
2023-08-18T12:00	6825	439	-17.3	-28.3	273	4
2023-08-18T12:00	6845	438	-17.5	-28.8	274	4
2023-08-18T12:00	6863	437	-17.6	-28.9	274	4
2023-08-18T12:00	6883	436	-17.7	-29.3	275	4
2023-08-18T12:00	6902	434	-17.8	-29.5	275	4
2023-08-18T12:00	6923	433	-18.0	-29.5	273	4
2023-08-18T12:00	6942	432	-18.1	-29.6	271	5
2023-08-18T12:00	6959	431	-18.3	-29.8	268	5
2023-08-18T12:00	6982	430	-18.5	-29.8	265	5
2023-08-18T12:00	7009	428	-18.7	-29.2	263	5
2023-08-18T12:00	7038	427	-18.9	-28.6	263	5
2023-08-18T12:00	7068	425	-19.2	-28.6	263	5
2023-08-18T12:00	7100	423	-19.4	-27.7	263	5
2023-08-18T12:00	7132	421	-19.7	-27.4	261	5
2023-08-18T12:00	7168	419	-20.0	-28.2	257	5
2023-08-18T12:00	7197	418	-20.2	-30.7	252	5
2023-08-18T12:00	7221	416	-20.3	-28.8	248	5
2023-08-18T12:00	7250	415	-20.5	-28.2	246	5
2023-08-18T12:00	7281	413	-20.7	-29.8	245	6
2023-08-18T12:00	7311	411	-21.0	-30.4	245	6
2023-08-18T12:00	7342	410	-21.2	-30.3	244	6
2023-08-18T12:00	7374	408	-21.5	-30.7	242	6
2023-08-18T12:00	7403	406	-21.7	-30.6	240	6
2023-08-18T12:00	7432	405	-21.9	-31.1	239	6
2023-08-18T12:00	7460	403	-22.0	-32.1	237	6
2023-08-18T12:00	7491	401	-22.3	-32.2	236	6
2023-08-18T12:00	7523	400	-22.5	-32.9	236	5
2023-08-18T12:00	7551	398	-22.5	-34.0	236	5
2023-08-18T12:00	7580	396	-22.6	-34.9	234	5
2023-08-18T12:00	7611	395	-22.9	-33.0	232	5
2023-08-18T12:00	7639	393	-23.1	-31.9	230	5
2023-08-18T12:00	7669	392	-23.3	-30.9	229	5
2023-08-18T12:00	7700	390	-23.5	-31.9	228	5
2023-08-18T12:00	7726	389	-23.7	-32.4	227	4
2023-08-18T12:00	7753	387	-23.9	-32.2	225	4
2023-08-18T12:00	7778	386	-24.1	-31.9	222	4
2023-08-18T12:00	7809	384	-24.3	-31.6	219	4
2023-08-18T12:00	7842	382	-24.5	-31.3	218	5
2023-08-18T12:00	7875	381	-24.7	-31.1	217	6
2023-08-18T12:00	7908	379	-24.9	-31.3	217	6
2023-08-18T12:00	7940	377	-25.2	-31.5	216	7
2023-08-18T12:00	7966	376	-25.4	-31.9	215	7
2023-08-18T12:00	7995	374	-25.6		215	8
2023-08-18T12:00	8029	373	-25.8	-32.7	215	8
2023-08-18T12:00	8047	372	-26.0	-32.7	216	8
2023-08-18T12:00	8066	371	-26.0	-33.1	218	8
2023-08-18T12:00	8083	370	-26.1	-33.3	219	8
2023-08-18T12:00	8100	369	-26.2	-33.2	220	8
2023-08-18T12:00	8119	368	-26.4	-33.4	220	8
2023-08-18T12:00	8140	367	-26.6	-33.5	219	8
2023-08-18T12:00	8161	366	-26.7	-33.4	218	8
2023-08-18T12:00	8181	365	-26.9	-33.4	217	8
2023-08-18T12:00	8198	364	-27.1	-33.6	215	7
2023-08-18T12:00	8222	363	-27.3	-33.6	213	7
2023-08-18T12:00	8254	361	-27.6	-33.5	212	7
2023-08-18T12:00	8287	360	-27.9	-33.8	211	7
2023-08-18T12:00	8320	358	-28.2	-33.8	211	7
2023-08-18T12:00	8344	357	-28.4	-34.1	212	7
2023-08-18T12:00	8366	356	-28.6	-34.3	213	7
2023-08-18T12:00	8388	355	-28.8	-34.3	214	7
2023-08-18T12:00	8411	354	-29.0	-34.4	215	7
2023-08-18T12:00	8438	352	-29.3	-34.6	215	7
2023-08-18T12:00	8469	351	-29.5	-34.6	216	7
2023-08-18T12:00	8497	349	-29.8	-34.5	216	7
2023-08-18T12:00	8525	348	-30.1		216	7
2023-08-18T12:00	8555	346	-30.4	-34.7	216	8
2023-08-18T12:00	8583	345	-30.6	-34.8	217	8
2023-08-18T12:00	8611	344	-30.9	-34.9	217	7
2023-08-18T12:00	8639	342	-31.1	-35.1	219	7
2023-08-18T12:00	8667	341	-31.4	-35.5	220	7
2023-08-18T12:00	8699	339	-31.7	-35.8	220	7
2023-08-18T12:00	8729	338	-31.9	-36.0	219	7
2023-08-18T12:00	8760	337	-32.2	-36.2	216	7
2023-08-18T12:00	8788	335	-32.4	-36.5	212	7
2023-08-18T12:00	8820	334	-32.6	-36.8	208	8
2023-08-18T12:00	8846	332	-32.8	-36.9	206	8
2023-08-18T12:00	8874	331	-33.1	-37.4	205	9
2023-08-18T12:00	8903	330	-33.4	-37.4	204	9
2023-08-18T12:00	8932	328	-33.6	-37.6	205	8
2023-08-18T12:00	8957	327	-33.8	-37.9	205	8
2023-08-18T12:00	8985	326	-34.1	-37.9	205	8
2023-08-18T12:00	9018	325	-34.4	-38.2	204	7
2023-08-18T12:00	9044	323	-34.7	-38.6	203	7
2023-08-18T12:00	9068	322	-34.9	-38.7	201	7
2023-08-18T12:00	9091	321	-35.1	-38.8	200	8
2023-08-18T12:00	9118	320	-35.3	-38.9	200	8
2023-08-18T12:00	9141	319	-35.5	-39.0	202	8
2023-08-18T12:00	9168	317	-35.7	-39.2	205	9
2023-08-18T12:00	9196	316	-35.9	-39.2	208	9
2023-08-18T12:00	9226	315	-36.2	-39.4	210	8
2023-08-18T12:00	9259	313	-36.5	-39.7	210	8
2023-08-18T12:00	9294	312	-36.7	-40.0	207	7
2023-08-18T12:00	9327	310	-37.0	-40.2	201	7
2023-08-18T12:00	9358	309	-37.2	-40.5	193	6
2023-08-18T12:00	9387	308	-37.4	-40.6	188	6
2023-08-18T12:00	9412	307	-37.7	-40.7	186	7
2023-08-18T12:00	9443	305	-38.0	-40.9	187	7
2023-08-18T12:00	9475	304	-38.2	-41.1	189	8
2023-08-18T12:00	9502	303	-38.5	-41.4	191	9
2023-08-18T12:00	9532	301	-38.7	-41.8	192	9
2023-08-18T12:00	9568	300	-39.0	-42.1	192	10
2023-08-18T12:00	9601	298	-39.3	-42.5	192	10
2023-08-18T12:00	9633	297	-39.6	-42.6	193	11
2023-08-18T12:00	9666	295	-39.8	-42.8	194	11
2023-08-18T12:00	9698	294	-40.0	-43.1	196	10
2023-08-18T12:00	9737	292	-40.3	-43.3	198	10
2023-08-18T12:00	9762	291	-40.5	-43.6	201	10
2023-08-18T12:00	9796	290	-40.8	-43.7	205	9
2023-08-18T12:00	9828	288	-41.1	-44.1	208	9
2023-08-18T12:00	9859	287	-41.4	-44.4	210	9
2023-08-18T12:00	9880	286	-41.6	-44.6	212	9
2023-08-18T12:00	9903	285	-41.8	-44.6	214	9
2023-08-18T12:00	9927	284	-42.0	-44.7	217	9
2023-08-18T12:00	9950	283	-42.2	-45.1	219	9
2023-08-18T12:00	9986	282	-42.5	-45.4	220	9
2023-08-18T12:00	10019	280	-42.8	-46.1	219	9
2023-08-18T12:00	10043	279	-43.0	-46.5	218	9
2023-08-18T12:00	10065	278	-43.3	-46.5	216	9
2023-08-18T12:00	10090	277	-43.5	-46.2	213	9
2023-08-18T12:00	10117	276	-43.8	-46.3	211	8
2023-08-18T12:00	10140	275	-44.0	-46.8	211	8
2023-08-18T12:00	10166	274	-44.2	-46.8	211	8
2023-08-18T12:00	10195	273	-44.4	-47.1	212	8
2023-08-18T12:00	10221	272	-44.7	-47.5	212	8
2023-08-18T12:00	10251	271	-44.9	-47.9	212	8
2023-08-18T12:00	10280	270	-45.2	-48.5	212	8
2023-08-18T12:00	10310	268	-45.5	-48.5	211	8
2023-08-18T12:00	10340	267	-45.7	-48.5	211	8
2023-08-18T12:00	10367	266	-45.9	-48.7	211	7
2023-08-18T12:00	10391	265	-46.2	-49.3	211	7
2023-08-18T12:00	10415	264	-46.3	-49.5	211	7
2023-08-18T12:00	10439	263	-46.6	-49.5	211	7
2023-08-18T12:00	10462	262	-46.8	-49.6	210	7
2023-08-18T12:00	10487	261	-47.1	-50.0	210	7
2023-08-18T12:00	10515	260	-47.2	-50.2	209	7
2023-08-18T12:00	10545	259	-47.5	-50.5	208	7
2023-08-18T12:00	10575	258	-47.8	-51.1	207	7
2023-08-18T12:00	10604	257	-48.0	-51.8	207	7
2023-08-18T12:00	10633	256	-48.2	-52.2	207	7
2023-08-18T12:00	10661	255	-48.5	-52.2	206	7
2023-08-18T12:00	10690	254	-48.7	-52.2	206	8
2023-08-18T12:00	10715	253	-48.9	-52.6	206	8
2023-08-18T12:00	10741	252	-49.1	-52.9	206	8
2023-08-18T12:00	10769	250	-49.4	-53.3	205	8
2023-08-18T12:00	10799	249	-49.6	-53.9	204	8
2023-08-18T12:00	10825	248	-49.7	-54.4	203	8
2023-08-18T12:00	10855	247	-49.9	-54.5	201	8
2023-08-18T12:00	10882	246	-50.2	-54.4	200	9
2023-08-18T12:00	10912	245	-50.5	-54.5	199	9
2023-08-18T12:00	10937	244	-50.7	-54.5	199	9
2023-08-18T12:00	10964	243	-50.9	-54.6	200	9
2023-08-18T12:00	10986	242	-51.2	-54.9	201	10
2023-08-18T12:00	11010	241	-51.3	-55.1	202	10
2023-08-18T12:00	11032	241	-51.5	-55.5	203	10
2023-08-18T12:00	11054	240	-51.6	-55.6	204	10
2023-08-18T12:00	11074	239	-51.8	-55.6	204	10
2023-08-18T12:00	11096	238	-52.0	-55.9	205	10
2023-08-18T12:00	11117	237	-52.1	-56.3	205	11
2023-08-18T12:00	11140	237	-52.3	-56.6	205	11
2023-08-18T12:00	11162	236	-52.5	-56.7	205	11
2023-08-18T12:00	11183	235	-52.6	-56.6	204	11
2023-08-18T12:00	11206	234	-52.8	-56.8	203	11
2023-08-18T12:00	11228	233	-53.0	-57.1	202	11
2023-08-18T12:00	11249	233	-53.1	-57.4	200	11
2023-08-18T12:00	11270	232	-53.2	-57.7	199	10
2023-08-18T12:00	11292	231	-53.4	-58.1	197	10
2023-08-18T12:00	11315	230	-53.4	-58.5	196	10
2023-08-18T12:00	11337	230	-53.3	-58.8	196	10
2023-08-18T12:00	11362	229	-53.2	-58.9	196	10
2023-08-18T12:00	11382	228	-53.3	-58.9	197	10
2023-08-18T12:00	11404	227	-53.5	-59.0	198	11
2023-08-18T12:00	11434	226	-53.8	-59.3	200	11
2023-08-18T12:00	11471	225	-53.9	-59.5	201	11
2023-08-18T12:00	11496	224	-54.2	-59.6	201	12
2023-08-18T12:00	11524	223	-54.4	-59.6	201	12
2023-08-18T12:00	11554	222	-54.7	-59.5	200	12
2023-08-18T12:00	11581	221	-55.0	-59.5	199	11
2023-08-18T12:00	11604	220	-55.2	-59.6	199	11
2023-08-18T12:00	11627	219	-55.4	-59.9	199	10
2023-08-18T12:00	11648	219	-55.6	-59.9	199	10
2023-08-18T12:00	11671	218	-55.8	-60.0	199	10
2023-08-18T12:00	11690	217	-56.0	-60.1	199	10
2023-08-18T12:00	11713	216	-56.2	-60.4	197	9
2023-08-18T12:00	11738	216	-56.4	-60.7	195	9
2023-08-18T12:00	11762	215	-56.5		191	9
2023-08-18T12:00	11784	214	-56.6	-61.2	188	9
2023-08-18T12:00	11806	213	-56.6	-61.3	184	10
2023-08-18T12:00	11827	213	-56.6	-61.5	181	10
2023-08-18T12:00	11849	212	-56.2	-61.4	179	11
2023-08-18T12:00	11871	211	-55.8	-61.3	177	12
2023-08-18T12:00	11893	210	-55.8	-61.8	176	12
2023-08-18T12:00	11915	210	-55.5	-62.3	176	13
2023-08-18T12:00	11935	209	-55.4	-63.1	177	13
2023-08-18T12:00	11956	208	-55.4	-63.4	179	14
2023-08-18T12:00	11979	208	-55.5	-63.4	181	14
2023-08-18T12:00	12002	207	-55.6	-63.2	184	14
2023-08-18T12:00	12026	206	-55.6	-62.3	187	15
2023-08-18T12:00	12050	205	-55.5	-61.2	191	15
2023-08-18T12:00	12075	204	-55.5	-60.3	194	15
2023-08-18T12:00	12096	204	-55.6	-59.7	196	15
2023-08-18T12:00	12118	203	-55.7	-59.2	199	15
2023-08-18T12:00	12138	202	-55.7	-58.9	201	15
2023-08-18T12:00	12160	202	-55.7	-59.2	203	15
2023-08-18T12:00	12183	201	-55.6	-60.0	204	15
2023-08-18T12:00	12214	200	-55.2	-60.9	206	15
2023-08-18T12:00	12246	199	-54.8	-61.4	209	15
2023-08-18T12:00	12270	198	-54.7	-61.7	212	15
2023-08-18T12:00	12295	197	-54.7	-61.6	215	15
2023-08-18T12:00	12316	197	-54.8	-61.4	218	15
2023-08-18T12:00	12338	196	-54.8	-61.1	219	15
2023-08-18T12:00	12355	196	-54.9	-60.9	220	15
2023-08-18T12:00	12377	195	-55.0	-60.7	221	15
2023-08-18T12:00	12396	194	-55.1	-60.5	221	15
2023-08-18T12:00	12416	194	-55.2	-60.3	221	14
2023-08-18T12:00	12433	193	-55.3	-60.4	221	14
2023-08-18T12:00	12451	193	-55.3	-60.9	221	14
2023-08-18T12:00	12470	192	-55.5	-62.4	219	13
2023-08-18T12:00	12489	192	-55.5	-64.5	217	13
2023-08-18T12:00	12509	191	-55.6	-66.8	214	12
2023-08-18T12:00	12529	190	-55.5	-67.6	210	12
2023-08-18T12:00	12547	190	-55.3	-66.8	206	12
2023-08-18T12:00	12565	189	-54.7	-66.3	203	11
2023-08-18T12:00	12584	189	-53.4	-66.8	202	11
2023-08-18T12:00	12599	188	-53.1	-69.9	203	11
2023-08-18T12:00	12620	188	-52.7	-74.5	206	10
2023-08-18T12:00	12644	187	-51.4	-80.6	211	10
2023-08-18T12:00	12665	186	-50.8	-86.6	215	11
2023-08-18T12:00	12685	186	-50.8	-84.7	219	11
2023-08-18T12:00	12706	185	-50.9	-80.6	223	11
2023-08-18T12:00	12726	185	-50.8	-79.0	224	11
2023-08-18T12:00	12747	184	-50.6	-78.2	225	11
2023-08-18T12:00	12763	184	-50.6	-77.9	225	11
2023-08-18T12:00	12784	183	-50.4	-77.5	224	11
2023-08-18T12:00	12807	182	-50.5	-77.6	222	11
2023-08-18T12:00	12828	182	-50.6	-77.4	220	11
2023-08-18T12:00	12850	181	-50.8	-77.5	218	11
2023-08-18T12:00	12873	181	-50.8	-77.5	215	11
2023-08-18T12:00	12897	180	-50.9	-77.6	213	11
2023-08-18T12:00	12918	179	-51.1	-77.5	211	11
2023-08-18T12:00	12942	179	-51.1	-77.5	210	11
2023-08-18T12:00	12964	178	-51.2	-77.3	210	11
2023-08-18T12:00	12986	177	-51.4	-77.5	210	11
2023-08-18T12:00	13006	177	-51.4	-77.7	211	12
2023-08-18T12:00	13027	176	-51.4	-77.7	212	12
2023-08-18T12:00	13049	176	-51.0	-77.4	213	12
2023-08-18T12:00	13071	175	-50.6	-77.1	214	12
2023-08-18T12:00	13093	175	-50.6	-76.8	215	13
2023-08-18T12:00	13117	174	-50.8	-76.8	216	13
2023-08-18T12:00	13139	173	-50.9	-76.8	216	14
2023-08-18T12:00	13160	173	-51.1	-76.7	217	14
2023-08-18T12:00	13185	172	-51.1	-76.7	218	14
2023-08-18T12:00	13206	172	-50.9	-76.6	219	14
2023-08-18T12:00	13231	171	-50.8	-76.8	220	14
2023-08-18T12:00	13252	170	-50.7	-76.9	221	13
2023-08-18T12:00	13276	170	-50.6	-77.1	221	13
2023-08-18T12:00	13298	169	-50.6	-77.1	221	12
2023-08-18T12:00	13320	169	-50.3	-77.1	220	11
2023-08-18T12:00	13340	168	-50.3	-77.1	218	11
2023-08-18T12:00	13364	167	-50.4	-77.5	216	10
2023-08-18T12:00	13384	167	-50.5	-77.6	213	10
2023-08-18T12:00	13408	166	-50.6	-77.6	211	11
2023-08-18T12:00	13429	166	-50.5	-77.9	209	11
2023-08-18T12:00	13452	165	-50.2	-77.6	208	12
2023-08-18T12:00	13471	165	-50.1	-77.8	208	12
2023-08-18T12:00	13494	164	-50.2	-77.9	209	12
2023-08-18T12:00	13514	164	-50.2	-78.2	210	12
2023-08-18T12:00	13537	163	-50.0	-78.1	212	12
2023-08-18T12:00	13558	163	-49.8	-78.3	214	12
2023-08-18T12:00	13577	162	-49.8	-77.9	217	12
2023-08-18T12:00	13598	162	-49.9	-78.0	219	12
2023-08-18T12:00	13621	161	-49.9	-78.0	222	12
2023-08-18T12:00	13640	160	-50.0	-78.1	224	11
2023-08-18T12:00	13661	160	-50.1	-78.2	226	11
2023-08-18T12:00	13680	160	-50.0	-77.8	226	11
2023-08-18T12:00	13701	159	-50.0	-77.8	226	11
2023-08-18T12:00	13721	159	-50.1	-77.8	224	11
2023-08-18T12:00	13744	158	-50.2	-77.9	222	11
2023-08-18T12:00	13766	157	-50.1	-77.8	219	11
2023-08-18T12:00	13787	157	-50.1	-77.8	216	11
2023-08-18T12:00	13810	156	-50.3	-77.7	213	11
2023-08-18T12:00	13833	156	-50.5	-77.9	211	11
2023-08-18T12:00	13853	155	-50.6	-77.9	209	11
2023-08-18T12:00	13874	155	-50.8	-78.1	207	12
2023-08-18T12:00	13894	154	-50.9	-78.2	205	12
2023-08-18T12:00	13915	154	-51.1	-78.0	204	12
2023-08-18T12:00	13936	153	-51.2	-78.1	203	13
2023-08-18T12:00	13957	153	-51.3	-78.2	202	13
2023-08-18T12:00	13976	152	-51.4	-78.3	202	13
2023-08-18T12:00	14000	152	-51.4	-78.5	203	13
2023-08-18T12:00	14021	151	-51.3	-78.8	204	13
2023-08-18T12:00	14042	151	-51.0	-78.9	205	13
2023-08-18T12:00	14061	150	-50.7	-79.0	206	13
2023-08-18T12:00	14082	150	-50.6	-78.9	207	12
2023-08-18T12:00	14104	149	-50.7	-79.0	208	12
2023-08-18T12:00	14126	149	-50.9	-78.8	208	12
2023-08-18T12:00	14147	149	-51.0	-78.9	208	12
2023-08-18T12:00	14168	148	-51.2	-79.0	207	11
2023-08-18T12:00	14189	148	-51.2	-79.0	206	11
2023-08-18T12:00	14210	147	-51.3	-79.1	204	11
2023-08-18T12:00	14233	147	-51.4	-78.8	202	11
2023-08-18T12:00	14256	146	-51.5	-78.9	201	12
2023-08-18T12:00	14277	146	-51.6	-79.0	201	12
2023-08-18T12:00	14298	145	-51.7	-79.1	201	12
2023-08-18T12:00	14319	145	-51.8	-79.2	203	12
2023-08-18T12:00	14342	144	-51.9	-79.2	204	12
2023-08-18T12:00	14363	144	-51.9	-79.2	206	12
2023-08-18T12:00	14385	143	-52.0	-79.3	208	12
2023-08-18T12:00	14408	143	-51.9	-79.2	209	12
2023-08-18T12:00	14431	142	-51.7	-79.4	209	12
2023-08-18T12:00	14450	142	-51.7	-79.4	209	12
2023-08-18T12:00	14472	141	-51.7	-79.4	209	12
2023-08-18T12:00	14493	141	-51.8	-79.5	209	12
2023-08-18T12:00	14515	140	-51.9	-79.5	210	11
2023-08-18T12:00	14534	140	-51.9	-79.5	210	11
2023-08-18T12:00	14555	139	-51.6	-79.3	210	11
2023-08-18T12:00	14577	139	-51.5	-79.2	210	11
2023-08-18T12:00	14596	139	-51.6	-79.6	209	11
2023-08-18T12:00	14619	138	-51.8	-79.8	208	11
2023-08-18T12:00	14640	138	-51.8	-79.5	206	11
2023-08-18T12:00	14660	137	-51.8	-79.5	205	11
2023-08-18T12:00	14681	137	-51.9	-79.5	203	12
2023-08-18T12:00	14702	136	-52.1	-79.7	202	12
2023-08-18T12:00	14721	136	-52.3	-79.9	201	12
2023-08-18T12:00	14738	136	-52.3	-79.9	201	12
2023-08-18T12:00	14759	135	-52.2	-79.8	201	12
2023-08-18T12:00	14778	135	-52.2	-79.8	201	12
2023-08-18T12:00	14797	134	-52.3	-79.9	201	12
2023-08-18T12:00	14814	134	-52.3	-80.2	201	12
2023-08-18T12:00	14834	134	-52.1	-80.0	201	13
2023-08-18T12:00	14856	133	-52.1	-80.0	202	13
2023-08-18T12:00	14874	133	-52.2	-80.1	203	13
2023-08-18T12:00	14895	132	-52.1	-80.0	205	13
2023-08-18T12:00	14916	132	-52.0	-80.0	206	13
2023-08-18T12:00	14936	131	-51.9	-79.9	207	13
2023-08-18T12:00	14955	131	-51.8	-79.8	208	12
2023-08-18T12:00	14973	131	-51.9	-79.9	208	12
2023-08-18T12:00	14993	130	-51.8	-79.8	209	12
2023-08-18T12:00	15013	130	-51.7	-79.7	210	11
2023-08-18T12:00	15037	129	-51.7	-79.7	211	11
2023-08-18T12:00	15055	129	-51.8	-79.8	211	10
2023-08-18T12:00	15075	129	-51.8	-79.8	212	10
2023-08-18T12:00	15098	128	-51.7	-79.7	212	10
2023-08-18T12:00	15118	128	-51.7	-79.7	211	10
2023-08-18T12:00	15138	127	-51.7	-79.7	211	10
2023-08-18T12:00	15160	127	-51.7	-79.7	209	11
2023-08-18T12:00	15185	127	-51.7	-79.7	207	11
2023-08-18T12:00	15206	126	-51.8	-79.8	205	11
2023-08-18T12:00	15225	126	-51.9	-79.9	203	11
2023-08-18T12:00	15249	125	-51.9	-79.9	201	11
2023-08-18T12:00	15273	125	-52.0	-80.0	199	11
2023-08-18T12:00	15296	124	-52.1	-80.0	198	11
2023-08-18T12:00	15316	124	-52.2	-80.1	197	11
2023-08-18T12:00	15338	124	-52.4	-80.3	196	11
2023-08-18T12:00	15363	123	-52.6	-80.4	195	11
2023-08-18T12:00	15384	123	-52.8	-80.6	195	11
2023-08-18T12:00	15408	122	-53.0	-80.7	194	11
2023-08-18T12:00	15431	122	-53.0	-80.7	194	11
2023-08-18T12:00	15456	121	-53.0	-80.7	194	11
2023-08-18T12:00	15479	121	-53.0	-80.7	194	11
2023-08-18T12:00	15503	120	-53.0	-80.7	195	11
2023-08-18T12:00	15526	120	-53.2	-80.9	197	12
2023-08-18T12:00	15551	120	-53.4	-81.0	198	12
2023-08-18T12:00	15570	119	-53.5	-81.1	201	12
2023-08-18T12:00	15596	119	-53.5	-81.1	203	12
2023-08-18T12:00	15617	118	-53.5	-81.1	205	12
2023-08-18T12:00	15639	118	-53.6	-81.2	208	12
2023-08-18T12:00	15662	117	-53.8	-81.3	210	12
2023-08-18T12:00	15685	117	-53.9	-81.1	212	12
2023-08-18T12:00	15707	117	-54.0	-81.2	214	12
2023-08-18T12:00	15729	116	-54.0	-81.2	216	11
2023-08-18T12:00	15750	116	-54.2	-81.3	218	11
2023-08-18T12:00	15773	116	-54.3	-81.4	220	11
2023-08-18T12:00	15797	115	-54.4	-81.5	222	11
2023-08-18T12:00	15816	115	-54.6	-81.6	224	11
2023-08-18T12:00	15838	114	-54.7	-81.7	226	11
2023-08-18T12:00	15860	114	-54.7	-81.7	228	12
2023-08-18T12:00	15881	114	-54.8	-81.8	229	12
2023-08-18T12:00	15905	113	-54.8	-81.8	229	12
2023-08-18T12:00	15923	113	-54.8	-81.8	227	12
2023-08-18T12:00	15946	112	-54.6	-81.9	226	12
2023-08-18T12:00	15967	112	-54.3	-81.7	224	12
2023-08-18T12:00	15989	112	-54.2	-82.0	222	12
2023-08-18T12:00	16009	111	-54.0	-81.8	222	12
2023-08-18T12:00	16033	111	-54.0	-81.8	222	12
2023-08-18T12:00	16054	111	-53.9	-81.7	223	12
2023-08-18T12:00	16074	110	-54.0	-81.8	224	12
2023-08-18T12:00	16096	110	-54.0	-81.8	225	13
2023-08-18T12:00	16120	109	-54.1	-81.6	225	13
2023-08-18T12:00	16141	109	-54.2	-81.6	226	13
2023-08-18T12:00	16163	109	-54.2	-81.6	227	13
2023-08-18T12:00	16185	108	-54.3	-81.7	228	13
2023-08-18T12:00	16209	108	-54.5	-81.9	229	12
2023-08-18T12:00	16234	107	-54.6	-81.9	229	12
2023-08-18T12:00	16255	107	-54.5	-81.9	230	11
2023-08-18T12:00	16276	107	-54.3	-81.7	231	10
2023-08-18T12:00	16299	106	-54.2	-81.6	231	9
2023-08-18T12:00	16318	106	-54.3	-81.7	231	9
2023-08-18T12:00	16340	106	-54.3	-81.7	231	8
2023-08-18T12:00	16360	105	-54.4	-81.8	232	8
2023-08-18T12:00	16383	105	-54.5	-81.9	234	7
2023-08-18T12:00	16404	105	-54.6	-81.9	236	7
2023-08-18T12:00	16427	104	-54.7	-82.0	240	7
2023-08-18T12:00	16447	104	-54.7	-82.0	243	7
2023-08-18T12:00	16467	104	-54.6	-81.9	247	7
2023-08-18T12:00	16491	103	-54.7	-82.0	250	7
2023-08-18T12:00	16511	103	-54.9	-82.2	253	7
2023-08-18T12:00	16533	103	-55.0	-82.3	256	7
2023-08-18T12:00	16555	102	-55.1	-82.3	258	7
2023-08-18T12:00	16577	102	-55.2	-82.4	260	7
2023-08-18T12:00	16602	101	-55.3	-82.5	260	6
2023-08-18T12:00	16622	101	-55.3	-82.5	258	6
2023-08-18T12:00	16643	101	-55.2	-82.4	254	6
2023-08-18T12:00	16666	100	-55.2	-82.4	248	6
2023-08-18T12:00	16688	100	-55.1	-82.3	242	6
2023-08-18T12:00	16707	100	-55.1	-82.3	236	6
2023-08-18T12:00	16728	99	-55.0	-82.6	231	7
2023-08-18T12:00	16753	99	-54.9	-82.5	227	7
2023-08-18T12:00	16774	99	-54.9	-82.5	224	8
2023-08-18T12:00	16797	98	-54.9	-82.5	221	8
2023-08-18T12:00	16815	98	-54.9	-82.5	219	8
2023-08-18T12:00	16837	98	-55.1	-82.3	216	9
2023-08-18T12:00	16858	97	-55.2	-82.4	214	9
2023-08-18T12:00	16881	97	-55.3	-82.5	211	9
2023-08-18T12:00	16905	97	-55.4	-82.6	210	10
2023-08-18T12:00	16928	96	-55.4	-82.6	210	10
2023-08-18T12:00	16949	96	-55.4	-82.6	211	11
2023-08-18T12:00	16973	96	-55.3	-82.8	213	11
2023-08-18T12:00	16992	95	-55.1	-82.7	216	12
2023-08-18T12:00	17016	95	-55.0	-82.6	219	12
2023-08-18T12:00	17039	95	-54.9	-82.9	221	12
2023-08-18T12:00	17060	94	-54.6	-82.6	223	11
2023-08-18T12:00	17079	94	-54.5	-82.6	225	11
2023-08-18T12:00	17101	94	-54.4	-82.5	227	11
2023-08-18T12:00	17122	94	-54.4	-82.5	228	11
2023-08-18T12:00	17145	93	-54.6	-82.6	229	10
2023-08-18T12:00	17167	93	-54.7	-82.7	230	9
2023-08-18T12:00	17190	93	-54.7	-82.7	230	8
2023-08-18T12:00	17211	92	-54.5	-82.6	231	8
2023-08-18T12:00	17227	92	-54.2	-82.3	233	7
2023-08-18T12:00	17250	92	-54.2	-82.3	235	6
2023-08-18T12:00	17274	91	-54.3	-82.4	239	6
2023-08-18T12:00	17296	91	-54.4	-82.5	243	5
2023-08-18T12:00	17318	91	-54.3	-82.4	247	5
2023-08-18T12:00	17340	90	-54.4	-82.5	251	5
2023-08-18T12:00	17362	90	-54.5	-82.6	252	5
2023-08-18T12:00	17385	90	-54.6	-82.6	251	4
2023-08-18T12:00	17408	89	-54.6	-82.6	247	4
2023-08-18T12:00	17428	89	-54.7	-82.4	242	4
2023-08-18T12:00	17451	89	-54.9	-82.5	235	4
2023-08-18T12:00	17471	89	-55.1	-82.7	226	4
2023-08-18T12:00	17494	88	-55.2	-82.7	217	3
2023-08-18T12:00	17518	88	-55.3	-82.8	207	3
2023-08-18T12:00	17542	88	-55.3	-82.8	197	3
2023-08-18T12:00	17562	87	-55.4	-82.9	186	3
2023-08-18T12:00	17587	87	-55.6	-83.1	176	3
2023-08-18T12:00	17608	87	-55.7	-82.8	168	3
2023-08-18T12:00	17630	86	-55.9	-82.9	162	3
2023-08-18T12:00	17650	86	-56.0	-83.0	159	4
2023-08-18T12:00	17671	86	-56.2	-83.2	159	4
2023-08-18T12:00	17696	86	-56.3	-83.3	161	5
2023-08-18T12:00	17714	85	-56.2	-83.2	165	6
2023-08-18T12:00	17738	85	-56.0	-83.4	170	6
2023-08-18T12:00	17763	85	-56.0	-83.4	175	7
2023-08-18T12:00	17783	84	-56.0	-83.4	180	7
2023-08-18T12:00	17808	84	-56.0	-83.4	185	7
2023-08-18T12:00	17828	84	-56.1	-83.4	190	7
2023-08-18T12:00	17851	83	-56.1	-83.4	193	7
2023-08-18T12:00	17874	83	-56.3	-83.3	195	8
2023-08-18T12:00	17895	83	-56.4	-83.3	196	8
2023-08-18T12:00	17917	83	-56.5	-83.4	197	9
2023-08-18T12:00	17940	82	-56.7	-83.6	197	9
2023-08-18T12:00	17963	82	-56.9	-83.4	198	9
2023-08-18T12:00	17984	82	-57.0	-83.5	200	9
2023-08-18T12:00	18008	81	-57.1	-83.9	202	9
2023-08-18T12:00	18031	81	-57.0	-83.8	204	8
2023-08-18T12:00	18054	81	-57.0	-83.8	205	8
2023-08-18T12:00	18076	81	-57.0	-83.8	206	7
2023-08-18T12:00	18102	80	-57.0	-83.8	205	7
2023-08-18T12:00	18124	80	-57.1	-83.9	204	7
2023-08-18T12:00	18146	80	-57.1	-83.9	203	7
2023-08-18T12:00	18170	79	-57.1	-83.9	203	7
2023-08-18T12:00	18193	79	-57.1	-83.9	203	7
2023-08-18T12:00	18215	79	-57.1	-83.9	204	7
2023-08-18T12:00	18241	78	-57.2	-83.9	206	6
2023-08-18T12:00	18265	78	-57.2	-83.9	207	6
2023-08-18T12:00	18288	78	-57.3	-84.0	209	6
2023-08-18T12:00	18308	78	-57.3	-84.0	210	5
2023-08-18T12:00	18332	77	-57.2	-83.9	210	5
2023-08-18T12:00	18358	77	-57.2	-83.9	209	4
2023-08-18T12:00	18380	77	-57.3	-84.0	206	4
2023-08-18T12:00	18401	76	-57.2	-84.3	202	3
2023-08-18T12:00	18424	76	-57.1	-84.2	197	3
2023-08-18T12:00	18449	76	-57.2	-84.3	191	3
2023-08-18T12:00	18469	76	-57.2	-84.3	186	3
2023-08-18T12:00	18496	75	-57.2	-84.3	183	3
2023-08-18T12:00	18519	75	-57.2	-84.3	180	4
2023-08-18T12:00	18541	75	-57.1	-84.2	179	4
2023-08-18T12:00	18566	75	-57.2	-84.3	178	5
2023-08-18T12:00	18589	74	-57.4	-84.1	178	6
2023-08-18T12:00	18612	74	-57.4	-84.1	178	7
2023-08-18T12:00	18632	74	-57.4	-84.1	179	7
2023-08-18T12:00	18655	73	-57.5	-84.2	180	8
2023-08-18T12:00	18674	73	-57.5	-84.5	181	8
2023-08-18T12:00	18695	73	-57.5	-84.5	184	8
2023-08-18T12:00	18719	73	-57.5	-84.5	186	8
2023-08-18T12:00	18742	72	-57.3	-84.4	189	8
2023-08-18T12:00	18763	72	-57.3	-84.7	192	7
2023-08-18T12:00	18786	72	-57.1	-84.6	196	6
2023-08-18T12:00	18810	72	-56.8	-84.3	199	5
2023-08-18T12:00	18836	71	-56.5	-84.5	203	4
2023-08-18T12:00	18855	71	-56.3	-84.3	207	3
2023-08-18T12:00	18878	71	-56.2	-84.2	210	2
2023-08-18T12:00	18901	71	-56.2	-84.2	211	1
2023-08-18T12:00	18923	70	-56.2	-84.2	196	1
2023-08-18T12:00	18942	70	-56.1	-84.2	145	0
2023-08-18T12:00	18964	70	-56.1	-84.2	127	1
2023-08-18T12:00	18987	70	-56.1	-84.2	133	1
2023-08-18T12:00	19010	69	-56.1	-84.2	142	2
2023-08-18T12:00	19029	69	-56.0	-84.1	149	2
2023-08-18T12:00	19055	69	-55.9	-84.0	155	3
2023-08-18T12:00	19071	69	-56.0	-84.1	160	3
2023-08-18T12:00	19098	69	-55.8	-83.9	165	4
2023-08-18T12:00	19122	68	-56.0	-84.1	169	4
2023-08-18T12:00	19147	68	-56.1	-83.8	172	5
2023-08-18T12:00	19174	68	-56.2	-83.9	174	6
2023-08-18T12:00	19198	67	-56.3	-83.9	176	6
2023-08-18T12:00	19220	67	-56.4	-84.0	178	7
2023-08-18T12:00	19245	67	-56.6	-84.2	180	6
2023-08-18T12:00	19268	67	-56.6	-84.2	184	6
2023-08-18T12:00	19295	66	-56.5	-84.1	188	6
2023-08-18T12:00	19315	66	-56.5	-84.1	192	5
2023-08-18T12:00	19345	66	-56.5	-84.1	195	4
2023-08-18T12:00	19369	66	-56.6	-84.2	195	3
2023-08-18T12:00	19389	65	-56.4	-84.4	189	2
2023-08-18T12:00	19418	65	-56.3	-84.3	172	2
2023-08-18T12:00	19444	65	-56.0	-84.1	143	2
2023-08-18T12:00	19468	65	-55.9	-84.0	123	2
2023-08-18T12:00	19495	64	-56.0	-84.1	113	3
2023-08-18T12:00	19518	64	-56.0	-84.1	110	4
2023-08-18T12:00	19545	64	-55.9	-84.0	108	5
2023-08-18T12:00	19570	64	-56.0	-84.1	107	6
2023-08-18T12:00	19593	63	-56.0	-84.1	108	7
2023-08-18T12:00	19621	63	-56.1	-83.8	109	7
2023-08-18T12:00	19649	63	-56.2	-83.9	111	7
2023-08-18T12:00	19675	63	-56.3	-83.9	114	8
2023-08-18T12:00	19700	62	-56.3	-83.9	118	8
2023-08-18T12:00	19725	62	-56.4	-84.0	123	8
2023-08-18T12:00	19746	62	-56.6	-84.2	128	8
2023-08-18T12:00	19772	62	-56.6	-84.2	133	8
2023-08-18T12:00	19793	61	-56.6	-84.2	137	7
2023-08-18T12:00	19818	61	-56.5	-84.1	141	7
2023-08-18T12:00	19844	61	-56.4	-84.4	145	7
2023-08-18T12:00	19867	61	-56.3	-84.3	148	6
2023-08-18T12:00	19891	60	-56.1	-84.2	151	6
2023-08-18T12:00	19914	60	-56.0	-84.1	154	6
2023-08-18T12:00	19938	60	-56.0	-84.1	156	6
2023-08-18T12:00	19957	60	-55.9	-84.0	157	6
2023-08-18T12:00	19982	60	-56.0	-84.1	158	5
2023-08-18T12:00	20002	59	-56.0	-84.1	159	5
2023-08-18T12:00	20027	59	-56.1	-84.2	160	5
2023-08-18T12:00	20043	59	-56.2	-84.2	162	6
2023-08-18T12:00	20066	59	-56.2	-84.2	165	6
2023-08-18T12:00	20089	59	-56.1	-84.2	168	6
2023-08-18T12:00	20112	58	-56.0	-84.1	171	6
2023-08-18T12:00	20131	58	-56.0	-84.1	173	6
2023-08-18T12:00	20151	58	-55.9	-84.0	174	6
2023-08-18T12:00	20171	58	-55.6	-84.2	173	6
2023-08-18T12:00	20193	58	-55.4	-84.0	171	6
2023-08-18T12:00	20215	57	-55.4	-84.0	168	5
2023-08-18T12:00	20236	57	-55.3	-84.0	163	4
2023-08-18T12:00	20259	57	-55.2	-83.9	156	4
2023-08-18T12:00	20282	57	-55.2	-83.9	145	3
2023-08-18T12:00	20302	57	-55.2	-83.9	130	3
2023-08-18T12:00	20324	57	-55.1	-83.8	116	3
2023-08-18T12:00	20341	56	-55.1	-83.8	104	3
2023-08-18T12:00	20364	56	-55.0	-83.7	96	3
2023-08-18T12:00	20384	56	-54.7	-83.5	89	4
2023-08-18T12:00	20408	56	-54.5	-83.4	84	4
2023-08-18T12:00	20426	56	-54.4	-83.3	81	4
2023-08-18T12:00	20453	55	-54.4	-83.3	80	4
2023-08-18T12:00	20470	55	-54.3	-83.2	83	4
2023-08-18T12:00	20497	55	-54.2	-83.1	89	4
2023-08-18T12:00	20517	55	-54.2	-83.1	97	4
2023-08-18T12:00	20541	55	-54.3	-83.2	105	4
2023-08-18T12:00	20564	54	-54.5	-83.4	112	4
2023-08-18T12:00	20588	54	-54.5	-83.4	116	4
2023-08-18T12:00	20608	54	-54.4	-83.3	116	4
2023-08-18T12:00	20631	54	-54.4	-83.3	112	4
2023-08-18T12:00	20653	54	-54.4	-83.3	107	4
2023-08-18T12:00	20679	53	-54.4	-83.3	103	5
2023-08-18T12:00	20703	53	-54.4	-83.3	102	5
2023-08-18T12:00	20726	53	-54.4	-83.3	102	6
2023-08-18T12:00	20752	53	-54.4	-83.3	103	6
2023-08-18T12:00	20774	53	-54.4	-83.3	105	6
2023-08-18T12:00	20795	52	-54.5	-83.4	108	6
2023-08-18T12:00	20825	52	-54.4	-83.3	111	6
2023-08-18T12:00	20847	52	-54.5	-83.4	114	6
2023-08-18T12:00	20872	52	-54.7	-83.1	117	6
2023-08-18T12:00	20896	52	-54.8	-83.2	120	6
2023-08-18T12:00	20923	51	-55.0		121	6
2023-08-18T12:00	20954	51	-55.2	-83.5	121	5
2023-08-18T12:00	20979	51	-55.2	-83.5	119	5
2023-08-18T12:00	21010	51	-55.3	-83.6	117	5
2023-08-18T12:00	21034	51	-55.4	-83.6	114	5
2023-08-18T12:00	21064	50	-55.5	-83.7	111	5
2023-08-18T12:00	21093	50	-55.6	-83.4	110	5
2023-08-18T12:00	21118	50	-55.7	-83.5	110	6
2023-08-18T12:00	21149	50	-55.8	-83.6	110	7
2023-08-18T12:00	21178	49	-55.8	-83.6	110	8
2023-08-18T12:00	21204	49	-55.9	-83.6	111	8
2023-08-18T12:00	21229	49	-56.1	-83.8	113	9
2023-08-18T12:00	21258	49	-56.1	-83.8	116	9
2023-08-18T12:00	21284	49	-56.3	-83.9	119	10
2023-08-18T12:00	21313	48	-56.4	-84.0	123	10
2023-08-18T12:00	21337	48	-56.4	-84.0	127	10
2023-08-18T12:00	21366	48	-56.3	-83.9	129	10
2023-08-18T12:00	21387	48	-56.2	-83.9	131	10
2023-08-18T12:00	21412	48	-56.2	-83.9	132	9
2023-08-18T12:00	21438	47	-56.2	-83.9	133	9
2023-08-18T12:00	21463	47	-56.3	-83.9	134	8
2023-08-18T12:00	21486	47	-56.6	-84.2	135	8
2023-08-18T12:00	21513	47	-56.8	-84.3	135	8
2023-08-18T12:00	21539	47	-57.0	-84.5	134	7
2023-08-18T12:00	21566	47	-57.0	-84.5	132	7
2023-08-18T12:00	21592	46	-56.9	-84.4	130	7
2023-08-18T12:00	21619	46	-57.0	-84.5	128	7
2023-08-18T12:00	21642	46	-57.1	-84.6	125	7
2023-08-18T12:00	21665	46	-57.1	-84.6	124	7
2023-08-18T12:00	21690	46	-57.0	-84.5	122	8
2023-08-18T12:00	21715	45	-57.0	-84.5	122	8
2023-08-18T12:00	21734	45	-57.0	-84.5	122	9
2023-08-18T12:00	21759	45	-56.8	-84.3	123	9
2023-08-18T12:00	21784	45	-56.7	-84.2	124	9
2023-08-18T12:00	21805	45	-56.7	-84.2	125	9
2023-08-18T12:00	21830	45	-56.8	-84.3	125	9
2023-08-18T12:00	21855	44	-57.0	-84.5	126	9
2023-08-18T12:00	21875	44	-57.0	-84.5	126	8
2023-08-18T12:00	21903	44	-57.0	-84.5	127	8
2023-08-18T12:00	21926	44	-57.0	-84.5	127	8
2023-08-18T12:00	21951	44	-57.0	-84.5	126	7
2023-08-18T12:00	21973	44	-57.0	-84.8	124	7
2023-08-18T12:00	21994	43	-56.8	-84.7	122	7
2023-08-18T12:00	22017	43	-56.4	-84.4	122	7
2023-08-18T12:00	22042	43	-56.3	-84.3	123	8
2023-08-18T12:00	22062	43	-56.2	-84.2	125	8
2023-08-18T12:00	22092	43	-56.1	-84.2	129	8
2023-08-18T12:00	22112	43	-56.1	-84.2	132	8
2023-08-18T12:00	22140	43	-56.2	-84.2	136	8
2023-08-18T12:00	22165	42	-56.2	-84.2	138	7
2023-08-18T12:00	22191	42	-56.3	-84.3	139	7
2023-08-18T12:00	22212	42	-56.4	-84.4	139	6
2023-08-18T12:00	22237	42	-56.5	-84.5	135	6
2023-08-18T12:00	22264	42	-56.4	-84.4	129	5
2023-08-18T12:00	22292	41	-56.3	-84.3	120	4
2023-08-18T12:00	22317	41	-56.4	-84.4	112	4
2023-08-18T12:00	22342	41	-56.5	-84.5	109	4
2023-08-18T12:00	22371	41	-56.6	-84.5	110	5
2023-08-18T12:00	22394	41	-56.5	-84.5	115	5
2023-08-18T12:00	22423	41	-56.4	-84.4	121	6
2023-08-18T12:00	22450	40	-56.4	-84.4	125	6
2023-08-18T12:00	22478	40	-56.5	-84.5	127	6
2023-08-18T12:00	22504	40	-56.3	-84.3	127	6
2023-08-18T12:00	22533	40	-56.2	-84.2	125	6
2023-08-18T12:00	22557	40	-56.3	-84.3	121	6
2023-08-18T12:00	22589	40	-56.4	-84.4	115	6
2023-08-18T12:00	22614	39	-56.4	-84.4	109	6
2023-08-18T12:00	22639	39	-56.3	-84.3	105	6
2023-08-18T12:00	22672	39	-56.2	-84.2	101	6
2023-08-18T12:00	22697	39	-56.3	-84.3	99	6
2023-08-18T12:00	22724	39	-56.3	-84.3	97	7
2023-08-18T12:00	22749	39	-56.3	-84.3	96	7
2023-08-18T12:00	22781	38	-56.3	-84.3	96	7
2023-08-18T12:00	22807	38	-56.3	-84.3	95	7
2023-08-18T12:00	22833	38	-56.1	-84.2	96	8
2023-08-18T12:00	22861	38	-56.1	-84.2	97	8
2023-08-18T12:00	22888	38	-56.2	-84.2	99	9
2023-08-18T12:00	22914	38	-56.2	-84.2	102	9
2023-08-18T12:00	22941	37	-56.2	-84.2	104	10
2023-08-18T12:00	22965	37	-56.2	-84.2	107	11
2023-08-18T12:00	22991	37	-56.2	-84.2	109	11
2023-08-18T12:00	23014	37	-56.2	-84.2	111	11
2023-08-18T12:00	23043	37	-56.1	-84.2	114	11
2023-08-18T12:00	23066	37	-55.9	-84.4	117	11
2023-08-18T12:00	23092	37	-55.8	-84.3	121	11
2023-08-18T12:00	23120	36	-55.7	-84.3	126	11
2023-08-18T12:00	23138	36	-55.6	-84.2	131	10
2023-08-18T12:00	23172	36	-55.4	-84.0	136	10
2023-08-18T12:00	23189	36	-55.2	-83.9	140	9
2023-08-18T12:00	23217	36	-55.1	-84.2	143	9
2023-08-18T12:00	23238	36	-55.0	-84.2	143	8
2023-08-18T12:00	23260	36	-54.9	-84.1	142	8
2023-08-18T12:00	23282	35	-54.8	-84.0	138	7
2023-08-18T12:00	23308	35	-54.7	-83.9	134	7
2023-08-18T12:00	23331	35	-54.6	-83.9	130	7
2023-08-18T12:00	23352	35	-54.5	-83.8	126	6
2023-08-18T12:00	23375	35	-54.3	-83.6	123	6
2023-08-18T12:00	23396	35	-54.1	-83.5	120	6
2023-08-18T12:00	23423	35	-54.0	-83.4	117	6
2023-08-18T12:00	23450	35	-54.1	-83.5	114	6
2023-08-18T12:00	23466	34	-54.2	-83.6	110	6
2023-08-18T12:00	23494	34	-54.3	-83.6	107	6
2023-08-18T12:00	23518	34	-54.4	-83.7	103	6
2023-08-18T12:00	23540	34	-54.4	-83.3	100	6
2023-08-18T12:00	23566	34	-54.3	-83.2	97	7
2023-08-18T12:00	23593	34	-54.2	-83.1	95	7
2023-08-18T12:00	23617	34	-54.3	-83.2	93	7
2023-08-18T12:00	23640	34	-54.3	-83.2	93	8
2023-08-18T12:00	23663	33	-54.4	-83.3	94	8
2023-08-18T12:00	23694	33	-54.5	-83.4	96	8
2023-08-18T12:00	23719	33	-54.5	-83.4	98	9
2023-08-18T12:00	23739	33	-54.6	-83.4	100	9
2023-08-18T12:00	23773	33	-54.6	-83.4	102	9
2023-08-18T12:00	23795	33	-54.6	-83.4	104	9
2023-08-18T12:00	23829	33	-54.7	-83.5	106	9
2023-08-18T12:00	23855	32	-54.7	-83.5	108	9
2023-08-18T12:00	23881	32	-54.7	-83.5	110	9
2023-08-18T12:00	23909	32	-54.6	-83.4	112	8
2023-08-18T12:00	23930	32	-54.5	-83.4	115	8
2023-08-18T12:00	23962	32	-54.4	-83.3	119	8
2023-08-18T12:00	23988	32	-54.5	-83.4	123	9
2023-08-18T12:00	24015	32	-54.5	-83.4	126	9
2023-08-18T12:00	24048	32	-54.6	-83.4	129	9
2023-08-18T12:00	24069	31	-54.7	-83.5	131	8
2023-08-18T12:00	24103	31	-54.7	-83.5	132	8
2023-08-18T12:00	24130	31	-54.6	-83.9	132	8
2023-08-18T12:00	24160	31	-54.5	-83.8	133	8
2023-08-18T12:00	24189	31	-54.3	-83.6	135	8
2023-08-18T12:00	24208	31	-54.2	-83.6	137	8
2023-08-18T12:00	24239	31	-54.1	-83.5	140	7
2023-08-18T12:00	24267	30	-54.0	-83.4	143	7
2023-08-18T12:00	24293	30	-54.0	-83.4	146	7
2023-08-18T12:00	24317	30	-54.0	-83.4	147	6
2023-08-18T12:00	24346	30	-54.0	-83.4	147	5
2023-08-18T12:00	24377	30	-53.9	-83.3	144	5
2023-08-18T12:00	24401	30	-53.8	-83.3	138	4
2023-08-18T12:00	24428	30	-53.9	-83.3	128	3
2023-08-18T12:00	24459	30	-53.8	-83.3	115	3
2023-08-18T12:00	24481	29	-53.7	-83.2	103	3
2023-08-18T12:00	24512	29	-53.5	-83.5	96	4
2023-08-18T12:00	24539	29	-53.4	-83.4	92	4
2023-08-18T12:00	24563	29	-53.4	-83.4	92	4
2023-08-18T12:00	24590	29	-53.3		94	4
2023-08-18T12:00	24615	29	-53.2	-83.3	98	4
2023-08-18T12:00	24642	29	-53.2	-83.3	102	4
2023-08-18T12:00	24667	29	-53.3	-82.9	108	4
2023-08-18T12:00	24687	29	-53.2	-82.8	114	4
2023-08-18T12:00	24712	28	-53.2	-82.8	121	4
2023-08-18T12:00	24740	28	-53.2	-82.8	129	4
2023-08-18T12:00	24761	28	-53.3	-82.9	137	4
2023-08-18T12:00	24794	28	-53.3	-82.9	144	4
2023-08-18T12:00	24819	28	-53.3	-82.9	149	4
2023-08-18T12:00	24839	28	-53.2	-82.8	151	4
2023-08-18T12:00	24870	28	-53.2	-82.8	150	4
2023-08-18T12:00	24894	28	-53.2	-82.8	149	4
2023-08-18T12:00	24913	28	-53.2	-83.3	148	3
2023-08-18T12:00	24943	27	-53.2	-83.3	146	3
2023-08-18T12:00	24972	27	-53.0	-83.1	140	2
2023-08-18T12:00	25000	27	-53.0	-83.1	126	2
2023-08-18T12:00	25027	27	-53.1	-83.2	106	2
2023-08-18T12:00	25050	27	-53.1	-83.2	91	3
2023-08-18T12:00	25076	27	-53.1	-83.2	82	4
2023-08-18T12:00	25103	27	-53.1	-83.2	79	5
2023-08-18T12:00	25129	27	-52.9	-83.1	78	6
2023-08-18T12:00	25159	27	-52.7	-82.9	78	7
2023-08-18T12:00	25185	26	-52.7	-82.9	79	7
2023-08-18T12:00	25213	26	-52.6	-82.8	81	8
2023-08-18T12:00	25233	26	-52.4	-82.7	83	9
2023-08-18T12:00	25268	26	-52.3	-82.6	85	9
2023-08-18T12:00	25288	26	-52.5	-82.8	88	9
2023-08-18T12:00	25326	26	-52.7	-82.9	92	9
2023-08-18T12:00	25353	26	-52.8	-83.0	96	10
2023-08-18T12:00	25384	26	-52.9	-83.1	100	10
2023-08-18T12:00	25399	26	-52.7	-82.9	105	10
2023-08-18T12:00	25434	25	-52.4	-82.7	110	10
2023-08-18T12:00	25463	25	-52.3	-82.6	114	10
2023-08-18T12:00	25496	25	-52.5	-82.8	119	10
2023-08-18T12:00	25521	25	-52.6	-82.8	123	10
2023-08-18T12:00	25562	25	-52.5	-82.8	127	9
2023-08-18T12:00	25580	25	-52.5	-82.8	130	9
2023-08-18T12:00	25611	25	-52.5	-82.8	132	8
2023-08-18T12:00	25637	25	-52.2	-82.5	133	8
2023-08-18T12:00	25663	25	-51.8	-82.8	132	8
2023-08-18T12:00	25692	24	-51.8	-82.8	130	8
2023-08-18T12:00	25722	24	-51.7	-82.7	126	7
2023-08-18T12:00	25749	24	-51.7	-82.7	120	7
2023-08-18T12:00	25776	24	-51.6	-82.6	114	7
2023-08-18T12:00	25810	24	-51.4	-82.5	107	7
2023-08-18T12:00	25842	24	-51.3	-82.4	101	7
2023-08-18T12:00	25857	24	-51.4	-82.5	97	7
2023-08-18T12:00	25890	24	-51.3	-82.4	95	7
2023-08-18T12:00	25916	24	-51.3	-82.4	96	7
2023-08-18T12:00	25940	23	-51.3	-81.9	97	7
2023-08-18T12:00	25973	23	-51.3	-81.9	101	7
2023-08-18T12:00	26001	23	-51.4	-81.9	105	7
2023-08-18T12:00	26016	23	-51.4	-81.9	111	7
2023-08-18T12:00	26050	23	-51.4	-81.9	119	7
2023-08-18T12:00	26073	23	-51.4	-81.9	127	7
2023-08-18T12:00	26101	23	-51.5	-82.0	136	7
2023-08-18T12:00	26118	23	-51.5	-82.0	143	7
2023-08-18T12:00	26161	23	-51.4	-81.9	149	6
2023-08-18T12:00	26175	23	-51.3	-82.4	153	6
2023-08-18T12:00	26201	23	-51.2	-82.3	156	5
2023-08-18T12:00	26231	22	-51.1	-82.2	158	4
2023-08-18T12:00	26255	22	-51.1	-82.2	158	4
2023-08-18T12:00	26286	22	-50.9	-82.1	156	3
2023-08-18T12:00	26305	22	-50.7		152	3
2023-08-18T12:00	26335	22	-50.4	-81.7	145	3
2023-08-18T12:00	26370	22	-50.3	-81.6	138	3
2023-08-18T12:00	26391	22	-50.3	-81.6	132	3
2023-08-18T12:00	26421	22	-50.2		127	4
2023-08-18T12:00	26458	22	-50.2		123	4
2023-08-18T12:00	26476	22	-50.2		118	4
2023-08-18T12:00	26504	22	-50.1	-81.5	112	4
2023-08-18T12:00	26533	21	-49.9	-81.3	105	4
2023-08-18T12:00	26563	21	-49.9	-81.3	98	5
2023-08-18T12:00	26584	21	-50.0	-81.4	92	5
2023-08-18T12:00	26619	21	-50.0	-81.4	88	5
2023-08-18T12:00	26648	21	-50.0	-81.4	87	5
2023-08-18T12:00	26681	21	-50.0	-81.4	87	4
2023-08-18T12:00	26708	21	-50.0	-81.4	89	4
2023-08-18T12:00	26738	21	-49.8	-81.8	90	4
2023-08-18T12:00	26772	21	-49.6	-81.7	91	4
2023-08-18T12:00	26793	21	-49.5	-81.6	90	4
2023-08-18T12:00	26830	21	-49.3	-81.5	89	4
2023-08-18T12:00	26851	20	-49.1	-81.3	87	4
2023-08-18T12:00	26882	20	-48.9	-81.2	85	4
2023-08-18T12:00	26915	20	-48.8		83	4
2023-08-18T12:00	26948	20	-48.7	-81.0	81	4
2023-08-18T12:00	26971	20	-48.7	-81.0	80	4
2023-08-18T12:00	27007	20	-48.6	-81.0	80	4
2023-08-18T12:00	27035	20	-48.5	-80.9	79	4
2023-08-18T12:00	27063	20	-48.5	-80.9	78	4
2023-08-18T12:00	27089	20	-48.6	-81.0	77	4
2023-08-18T12:00	27127	20	-48.7	-81.0	75	5
2023-08-18T12:00	27155	20	-48.8		73	5
2023-08-18T12:00	27183	19	-48.9	-80.6	72	6
2023-08-18T12:00	27203	19	-49.0	-80.7	72	6
2023-08-18T12:00	27237	19	-49.1	-80.8	72	7
2023-08-18T12:00	27271	19	-49.1	-80.8	73	7
2023-08-18T12:00	27289	19	-49.1	-80.8	74	7
2023-08-18T12:00	27329	19	-49.2	-80.8	76	8
2023-08-18T12:00	27349	19	-49.3	-80.9	78	8
2023-08-18T12:00	27379	19	-49.5	-81.1	81	9
2023-08-18T12:00	27410	19	-49.6	-81.1	84	9
2023-08-18T12:00	27432	19	-49.6	-81.1	86	10
2023-08-18T12:00	27460	19	-49.5	-81.1	88	10
2023-08-18T12:00	27494	19	-49.3	-81.5	90	11
2023-08-18T12:00	27514	18	-49.1	-81.3	91	11
2023-08-18T12:00	27545	18	-49.1	-81.3	92	11
2023-08-18T12:00	27569	18	-49.2	-81.4	93	11
2023-08-18T12:00	27593	18	-49.3	-81.5	94	11
2023-08-18T12:00	27621	18	-49.3	-80.9	95	12
2023-08-18T12:00	27651	18	-49.3	-80.9	95	12
2023-08-18T12:00	27672	18	-49.4	-81.0	96	12
2023-08-18T12:00	27700	18	-49.5	-81.1	97	11
2023-08-18T12:00	27723	18	-49.5	-81.1	98	11
2023-08-18T12:00	27755	18	-49.6	-81.1	100	11
2023-08-18T12:00	27775	18	-49.6	-81.1	101	10
2023-08-18T12:00	27806	18	-49.5	-81.6	102	10
2023-08-18T12:00	27824	18	-49.4	-81.6	102	10
2023-08-18T12:00	27845	18	-49.3	-81.5	101	10
2023-08-18T12:00	27874	17	-49.3	-80.9	100	10
2023-08-18T12:00	27901	17	-49.4	-81.0	99	10
2023-08-18T12:00	27938	17	-49.4	-81.0	99	10
2023-08-18T12:00	27953	17	-49.5	-81.1	102	10
2023-08-18T12:00	27992	17	-49.5	-81.1	105	11
2023-08-18T12:00	28016	17	-49.5	-81.1	108	11
2023-08-18T12:00	28044	17	-49.5	-81.6	110	12
2023-08-18T12:00	28058	17	-49.4	-81.6	111	12
2023-08-18T12:00	28088	17	-49.2	-81.4	111	12
2023-08-18T12:00	28118	17	-49.2	-81.4	111	12
2023-08-18T12:00	28139	17	-49.2	-81.4	111	12
2023-08-18T12:00	28182	17	-49.1	-81.3	114	12
2023-08-18T12:00	28219	17	-49.1	-81.3	117	12
2023-08-18T12:00	28241	17	-49.2	-81.4	121	12
2023-08-18T12:00	28272	16	-49.3	-81.5	125	12
2023-08-18T12:00	28308	16	-49.4	-81.6	129	11
2023-08-18T12:00	28337	16	-49.5	-81.6	132	11
2023-08-18T12:00	28361	16	-49.5	-81.6	134	11
2023-08-18T12:00	28398	16	-49.2	-81.4	136	10
2023-08-18T12:00	28424	16	-48.9	-81.2	138	9
2023-08-18T12:00	28452	16	-48.7	-81.7	140	8
2023-08-18T12:00	28481	16	-48.3	-81.4	141	7
2023-08-18T12:00	28503	16	-48.0	-81.2	141	6
2023-08-18T12:00	28546	16	-47.8	-81.0	138	5
2023-08-18T12:00	28575	16	-47.6	-80.9	133	5
2023-08-18T12:00	28603	16	-47.3	-80.6	126	5
2023-08-18T12:00	28646	16	-47.0	-80.4	119	5
2023-08-18T12:00	28656	16	-46.8	-80.3	113	5
2023-08-18T12:00	28694	15	-46.9	-80.4	110	6
2023-08-18T12:00	28722	15	-46.9	-80.4	108	6
2023-08-18T12:00	28767	15	-46.8	-80.3	109	6
2023-08-18T12:00	28791	15	-46.6	-80.1	111	6
2023-08-18T12:00	28817	15	-46.6	-80.1	115	6
2023-08-18T12:00	28839	15	-46.8	-80.3	118	7
2023-08-18T12:00	28872	15	-47.0	-80.4	120	7
2023-08-18T12:00	28902	15	-47.1	-79.9	121	7
2023-08-18T12:00	28931	15	-47.1	-79.9	122	7
2023-08-18T12:00	28970	15	-47.2	-79.9	124	7
2023-08-18T12:00	28988	15	-47.1	-79.9	126	7
2023-08-18T12:00	29014	15	-46.9	-80.4	128	6
2023-08-18T12:00	29043	15	-46.8	-80.3	129	6
2023-08-18T12:00	29078	15	-46.8	-80.3	129	6
2023-08-18T12:00	29103	15	-46.8	-80.3	129	6
2023-08-18T12:00	29132	14	-46.6	-80.1	130	6
2023-08-18T12:00	29160	14	-46.4	-80.0	132	6
2023-08-18T12:00	29196	14	-46.3	-79.9	136	6
2023-08-18T12:00	29217	14	-46.2	-79.8	139	5
2023-08-18T12:00	29236	14	-46.2	-79.8	143	5
2023-08-18T12:00	29257	14	-46.2	-79.8	147	5
2023-08-18T12:00	29301	14	-46.1	-80.5	149	5
2023-08-18T12:00	29330	14	-45.9	-80.3	149	4
2023-08-18T12:00	29344	14	-45.6	-80.1	147	4
2023-08-18T12:00	29382	14	-45.3	-79.9	143	3
2023-08-18T12:00	29394	14	-44.9	-79.6	137	3
2023-08-18T12:00	29410	14	-44.4	-79.3	130	2
2023-08-18T12:00	29449	14	-44.0	-79.8	121	2
2023-08-18T12:00	29471	14	-43.7	-79.6	110	2
2023-08-18T12:00	29493	14	-43.5	-79.4	98	2
2023-08-18T12:00	29531	14	-43.2	-79.2	88	2
2023-08-18T12:00	29542	14	-42.9	-79.0	82	3
2023-08-18T12:00	29577	14	-42.6	-78.8	81	4
2023-08-18T12:00	29598	13	-42.3		84	4
2023-08-18T12:00	29631	13	-42.0	-78.4	88	5
2023-08-18T12:00	29645	13	-41.8	-78.2	94	6
2023-08-18T12:00	29676	13	-41.5	-78.0	100	6
2023-08-18T12:00	29693	13	-41.3	-77.9	107	6
2023-08-18T12:00	29709	13	-41.3	-77.9	114	7
2023-08-18T12:00	29756	13	-41.3	-77.9	119	7
2023-08-18T12:00	29764	13	-41.4	-77.9	123	7
2023-08-18T12:00	29803	13	-41.5	-78.0	125	7
2023-08-18T12:00	29825	13	-41.6	-78.1	125	6
2023-08-18T12:00	29843	13	-41.6	-78.1	123	6
2023-08-18T12:00	29881	13	-41.6	-78.1	119	5
2023-08-18T12:00	29912	13	-41.5	-78.0	113	4
2023-08-18T12:00	29936	13	-41.3	-77.9	106	4
2023-08-18T12:00	29972	13	-41.1	-77.7	99	4
2023-08-18T12:00	29981	13	-41.0	-77.7	93	4
2023-08-18T12:00	30023	13	-41.0	-77.7	89	4
2023-08-18T12:00	30040	13	-41.0	-77.7	86	5
2023-08-18T12:00	30076	13	-41.0	-77.7	84	5
2023-08-18T12:00	30095	13	-41.1	-77.7	81	6
2023-08-18T12:00	30128	12	-41.3	-77.9	80	6
2023-08-18T12:00	30168	12	-41.5	-78.0	79	7
2023-08-18T12:00	30180	12	-41.7	-77.3	79	8
2023-08-18T12:00	30216	12	-41.8	-77.4	80	8
2023-08-18T12:00	30254	12	-42.1	-77.6	81	8
2023-08-18T12:00	30282	12	-42.3	-77.8	83	9
2023-08-18T12:00	30314	12	-42.4	-77.8	85	9
2023-08-18T12:00	30319	12	-42.4	-77.8	89	9
2023-08-18T12:00	30363	12	-42.5	-77.9	93	9
2023-08-18T12:00	30411	12	-42.6	-78.0	96	9
2023-08-18T12:00	30429	12	-42.6	-78.0	99	10
2023-08-18T12:00	30450	12	-42.7	-78.0	102	10
2023-08-18T12:00	30496	12	-42.8	-78.1	106	10
2023-08-18T12:00	30517	12	-42.8	-78.1	109	10
2023-08-18T12:00	30547	12	-43.0	-78.3	113	10
2023-08-18T12:00	30576	12	-43.1	-78.3	117	10
2023-08-18T12:00	30595	12	-43.1	-78.3	121	10
2023-08-18T12:00	30638	12	-43.1	-78.3	124	9
2023-08-18T12:00	30649	12	-43.1	-78.3	127	9
2023-08-18T12:00	30690	11	-43.3	-78.5	131	8
2023-08-18T12:00	30731	11	-43.4	-78.5	135	7
2023-08-18T12:00	30749	11	-43.5	-78.6	139	6
2023-08-18T12:00	30783	11	-43.7	-78.8	145	6
2023-08-18T12:00	30818	11	-43.7	-78.8	151	5
2023-08-18T12:00	30848	11	-43.9	-78.2	159	5
2023-08-18T12:00	30877	11	-44.1	-78.3	167	4
2023-08-18T12:00	30897	11	-44.3	-78.5	173	4
2023-08-18T12:00	30942	11	-44.3	-79.2	177	4
2023-08-18T12:00	30958	11	-44.2	-79.1	177	3
2023-08-18T12:00	30986	11	-43.9	-78.9	168	2
2023-08-18T12:00	31032	11	-43.6	-78.7	140	1
2023-08-18T12:00	31045	11	-43.6	-78.7	90	1
2023-08-18T12:00	31056	11	-43.4	-78.5	65	2
2023-08-18T12:00	31089	11	-43.2	-79.2	59	3
2023-08-18T12:00	31135	11	-42.8	-78.9	61	4
2023-08-18T12:00	31158	11	-42.4	-78.7	65	4
2023-08-18T12:00	31175	11	-42.0	-78.4	70	5
2023-08-18T12:00	31205	11	-41.7	-78.2	73	5
2023-08-18T12:00	31235	11	-41.6	-78.1	74	5
2023-08-18T12:00	31255	11	-41.6	-78.1	71	5
2023-08-18T12:00	31279	11	-41.5	-78.0	65	5
2023-08-18T12:00	31327	10	-41.3	-77.9	58	5
2023-08-18T12:00	31335	10	-41.1	-77.7	53	6
2023-08-18T12:00	31378	10	-40.9		52	6
2023-08-18T12:00	31395	10	-40.8	-78.5	55	6
2023-08-18T12:00	31435	10	-40.7	-78.4	60	7
2023-08-18T12:00	31451	10	-40.6	-78.3	68	7
2023-08-18T12:00	31466	10	-40.4	-78.2	76	7
2023-08-18T12:00	31501	10	-40.4	-77.2	85	8
2023-08-18T12:00	31536	10	-40.5		92	8
2023-08-18T12:00	31563	10	-40.5		98	8
2023-08-18T12:00	31584	10	-40.4	-77.2	102	8
2023-08-18T12:00	31612	10	-40.4	-77.2	105	8
2023-08-18T12:00	31622	10	-40.5		108	7
2023-08-18T12:00	31662	10	-40.5		112	6
2023-08-18T12:00	31701	10	-40.4	-77.2	115	6
2023-08-18T12:00	31740	10	-40.2	-77.1	118	6
2023-08-18T12:00	31746	10	-40.0	-76.9	117	6
2023-08-18T12:00	31782	10	-39.8	-77.8	113	6
2023-08-18T12:00	31824	10	-39.5	-77.6	107	6
2023-08-18T12:00	31843	10	-39.2	-77.3	101	6
2023-08-18T12:00	31860	10	-39.0	-77.2	96	6
2023-08-18T12:00	31892	10	-38.7	-77.0	95	7
2023-08-18T12:00	31922	10	-38.5	-76.9	97	7
2023-08-18T12:00	31959	10	-38.3	-76.7	101	7
2023-08-18T12:00	31995	10	-38.3	-76.7	107	8
2023-08-18T12:00	32004	9	-38.4	-76.8	113	8
2023-08-18T12:00	32033	9	-38.4	-76.8	118	8
2023-08-18T12:00	32051	9	-38.4	-76.8	122	9
2023-08-18T12:00	32108	9	-38.5	-76.9	125	9
2023-08-18T12:00	32135	9	-38.6	-76.9	127	9
2023-08-18T12:00	32149	9	-38.6	-76.9	128	9
2023-08-18T12:00	32179	9	-38.6	-76.9	129	8
2023-08-18T12:00	32199	9	-38.6	-76.9	129	8
2023-08-18T12:00	32229	9	-38.5	-76.9	129	8
2023-08-18T12:00	32267	9	-38.2	-76.6	129	7
2023-08-18T12:00	32301	9	-38.0	-76.5	129	7
2023-08-18T12:00	32321	9	-37.8	-76.4	129	6
2023-08-18T12:00	32338	9	-37.6	-76.2	130	6
2023-08-18T12:00	32385	9	-37.5	-76.2	133	5
2023-08-18T12:00	32417	9	-37.6	-76.2	137	4
2023-08-18T12:00	32443	9	-37.6	-76.2	145	4
2023-08-18T12:00	32465	9	-37.7	-76.3	156	3
2023-08-18T12:00	32502	9	-37.8	-76.4	167	3
2023-08-18T12:00	32534	9	-37.9	-76.4	178	3
2023-08-18T12:00	32540	9	-38.0	-76.5	186	3
2023-08-18T12:00	32588	9	-38.0	-76.5	190	2
2023-08-18T12:00	32610	9	-38.1	-76.6	187	2
2023-08-18T12:00	32623	9	-38.2	-76.6	169	1
2023-08-18T12:00	32655	9	-38.3	-76.7	133	1
2023-08-18T12:00	32682	9	-38.3	-76.7	108	2
2023-08-18T12:00	32707	9	-38.2	-76.6	99	3
2023-08-18T12:00	32757	9	-38.2	-76.6	97	4
2023-08-18T12:00	32783	8	-38.1	-76.6	97	5
2023-08-18T12:00	32807	8	-38.1	-76.6	98	5
2023-08-18T12:00	32830	8	-38.2	-76.6	100	6
2023-08-18T12:00	32860	8	-38.3	-76.7	102	7
2023-08-18T12:00	32910	8	-38.4	-76.8	104	7
2023-08-18T12:00	32920	8	-38.5	-76.9	107	8
2023-08-18T12:00	32957	8	-38.5	-76.9	109	9
2023-08-18T12:00	32967	8	-38.6	-76.9	112	10
2023-08-18T12:00	33015	8	-38.5	-76.9	115	10
2023-08-18T12:00	33037	8	-38.4	-76.8	118	11
2023-08-18T12:00	33057	8	-38.4	-76.8	120	11
2023-08-18T12:00	33090	8	-38.5	-76.9	123	11
2023-08-18T12:00	33109	8	-38.6	-76.9	125	12
2023-08-18T12:00	33144	8	-38.7	-77.0	127	12
2023-08-18T12:00	33181	8	-38.8	-77.1	129	12
2023-08-18T12:00	33197	8	-39.0	-77.2	132	12
2023-08-18T12:00	33239	8	-39.1	-77.3	135	12
2023-08-18T12:00	33258	8	-39.1	-77.3	138	12
2023-08-18T12:00	33296	8	-39.2	-76.4	140	11
2023-08-18T12:00	33307	8	-39.3	-76.4	143	11
2023-08-18T12:00	33348	8	-39.2	-77.3	145	11
2023-08-18T12:00	33380	8	-39.1	-77.3	147	10
2023-08-18T12:00	33393	8	-38.9	-77.1	149	10
2023-08-18T12:00	33436	8	-38.7	-77.0	151	9
2023-08-18T12:00	33451	8	-38.7	-77.0	153	8
2023-08-18T12:00	33485	8	-38.6	-76.9	155	7
2023-08-18T12:00	33497	8	-38.4	-76.8	156	6
2023-08-18T12:00	33518	8	-38.1	-76.6	157	6
2023-08-18T12:00	33552	8	-37.8	-76.4	158	5
2023-08-18T12:00	33575	8	-37.6	-76.2	158	5
2023-08-18T12:00	33614	8	-37.5	-76.2	157	5
2023-08-18T12:00	33653	7	-37.4	-76.1	155	5
2023-08-18T12:00	33656	7	-37.3	-76.0	153	4
2023-08-18T12:00	33682	7	-37.2	-75.9	149	4
2023-08-18T12:00	33700	7	-37.0	-75.8	142	3
2023-08-18T12:00	33735	7	-36.9	-75.7	133	3
2023-08-18T12:00	33749	7	-36.7	-76.7	120	2
2023-08-18T12:00	33785	7	-36.6	-76.7	104	2
2023-08-18T12:00	33809	7	-36.4	-76.5	88	2
2023-08-18T12:00	33821	7	-36.3	-76.5	74	3
2023-08-18T12:00	33871	7	-36.1	-76.3	63	3
2023-08-18T12:00	33898	7	-35.9	-76.2	55	3
2023-08-18T12:00	33910	7	-35.8	-76.1	52	4
2023-08-18T12:00	33936	7	-35.7	-76.1	53	5
2023-08-18T12:00	33984	7	-35.7	-76.1	56	6
2023-08-18T12:00	34002	7	-35.8	-76.1	60	7
2023-08-18T12:00	34021	7	-35.8	-76.1	64	8
2023-08-18T12:00	34058	7	-35.7	-76.1	68	9
2023-08-18T12:00	34090	7	-35.6	-76.0	71	10
2023-08-18T12:00	34139	7	-35.3	-75.8	77	11
2023-08-18T12:00	34162	7	-35.3	-75.8	80	12
2023-08-18T12:00	34216	7	-35.4	-75.8	83	12
2023-08-18T12:00	34234	7	-35.5	-75.9	90	12
2023-08-18T12:00	34266	7	-35.5	-75.9	93	12
2023-08-18T12:00	34305	7	-35.4	-75.8	95	12
2023-08-18T12:00	34314	7	-35.3	-75.8	96	11
2023-08-18T12:00	34345	7	-35.3	-75.8	98	10
2023-08-18T12:00	34374	7	-35.3	-75.8	100	10
2023-08-18T12:00	34376	7	-35.4	-75.8	104	9
2023-08-18T12:00	34443	7	-35.4	-75.8	107	9
2023-08-18T12:00	34472	7	-35.5	-75.9	109	8
2023-08-18T12:00	34488	7	-35.7	-76.1	109	8
2023-08-18T12:00	34503	7	-35.8	-76.1	106	8
2023-08-18T12:00	34538	7	-35.6	-76.0	101	8
2023-08-18T12:00	34553	7	-35.4	-75.8	95	8
2023-08-18T12:00	34616	7	-35.2	-75.7	92	8
2023-08-18T12:00	34646	6	-34.8	-75.4	92	8
2023-08-18T12:00	34681	6	-34.7	-75.4	95	7
2023-08-18T12:00	34705	6	-34.7	-75.4	99	7
2023-08-18T12:00	34739	6	-34.8	-75.4	102	7
2023-08-18T12:00	34778	6	-34.9	-75.5	104	8
2023-08-18T12:00	34789	6	-35.1	-75.6	104	8
2023-08-18T12:00	34813	6	-35.2	-75.7	103	8
2023-08-18T12:00	34840	6	-35.1	-75.6	102	8
2023-08-18T12:00	34883	6	-34.9	-75.5	101	9
2023-08-18T12:00	34897	6	-34.8	-75.4	102	9
2023-08-18T18:00	112	1004	27.0	18.0	60	2
2023-08-18T18:00	134	1001	27.6	17.4	27	3
2023-08-18T18:00	159	998	27.3	17.8	34	3
2023-08-18T18:00	177	996	27.0	18.2	37	4
2023-08-18T18:00	198	994	26.8	18.2	39	5
2023-08-18T18:00	219	992	26.6	18.1	40	5
2023-08-18T18:00	242	989	26.5	18.1	40	5
2023-08-18T18:00	263	987	26.3	18.0	40	5
2023-08-18T18:00	288	984	26.0	17.9	40	5
2023-08-18T18:00	311	981	25.8	17.9	41	5
2023-08-18T18:00	335	979	25.6	17.8	42	5
2023-08-18T18:00	355	976	25.4	17.7	45	5
2023-08-18T18:00	377	974	25.2	17.6	49	5
2023-08-18T18:00	399	972	25.1	17.3	54	4
2023-08-18T18:00	420	969	24.9	17.2	60	4
2023-08-18T18:00	446	966	24.7	16.7	66	4
2023-08-18T18:00	469	964	24.9	15.5	74	3
2023-08-18T18:00	495	961	24.6	15.5	81	3
2023-08-18T18:00	520	958	24.5	15.2	88	3
2023-08-18T18:00	543	956	24.4	14.7	93	3
2023-08-18T18:00	565	953	24.2	14.8	94	3
2023-08-18T18:00	589	951	24.0	14.8	94	3
2023-08-18T18:00	612	948	23.8	14.7	92	3
2023-08-18T18:00	637	946	23.5	14.6	91	3
2023-08-18T18:00	660	943	23.3	14.7	90	2
2023-08-18T18:00	683	941	23.0	14.7	92	2
2023-08-18T18:00	704	938	22.8	14.6	99	2
2023-08-18T18:00	730	936	22.6	14.5	108	2
2023-08-18T18:00	751	933	22.4	14.5	115	2
2023-08-18T18:00	778	931	22.1	14.3	119	2
2023-08-18T18:00	798	928	21.9	14.4	119	3
2023-08-18T18:00	823	926	21.7	14.3	116	3
2023-08-18T18:00	843	923	21.5	14.5	112	3
2023-08-18T18:00	867	921	21.3	14.4	108	3
2023-08-18T18:00	892	918	21.0	14.3	106	3
2023-08-18T18:00	914	916	20.8	14.4	107	3
2023-08-18T18:00	932	914	20.6	14.3	110	3
2023-08-18T18:00	951	912	20.4	14.3	114	3
2023-08-18T18:00	969	910	20.3	14.3	119	3
2023-08-18T18:00	990	908	20.1	14.1	122	3
2023-08-18T18:00	1012	906	19.8	14.0	123	3
2023-08-18T18:00	1034	903	19.6	14.0	123	3
2023-08-18T18:00	1054	901	19.5	13.9	123	3
2023-08-18T18:00	1071	899	19.4	13.4	123	4
2023-08-18T18:00	1089	898	19.2	13.7	126	4
2023-08-18T18:00	1107	896	19.0	13.7	128	4
2023-08-18T18:00	1129	893	18.8	13.6	128	4
2023-08-18T18:00	1149	891	18.6	13.3	126	4
2023-08-18T18:00	1171	889	18.4	13.6	123	4
2023-08-18T18:00	1195	887	18.1	13.4	121	4
2023-08-18T18:00	1214	884	18.0	13.3	120	4
2023-08-18T18:00	1238	882	17.8	13.1	120	4
2023-08-18T18:00	1255	880	17.7	13.1	121	4
2023-08-18T18:00	1283	878	17.4	12.9	122	4
2023-08-18T18:00	1303	875	17.2	12.9	122	4
2023-08-18T18:00	1328	873	17.0	12.8	121	4
2023-08-18T18:00	1343	871	16.8	12.9	121	4
2023-08-18T18:00	1366	869	16.6	12.8	122	4
2023-08-18T18:00	1391	866	16.4	12.8	124	4
2023-08-18T18:00	1418	864	16.1	12.6	127	4
2023-08-18T18:00	1444	861	15.9	12.7	129	4
2023-08-18T18:00	1473	858	15.6	12.6	130	4
2023-08-18T18:00	1503	855	15.3	12.5	129	4
2023-08-18T18:00	1526	853	15.1	12.5	128	4
2023-08-18T18:00	1549	851	14.8	12.4	126	4
2023-08-18T18:00	1570	848	14.7	12.4	124	4
2023-08-18T18:00	1593	846	14.5	12.3	121	4
2023-08-18T18:00	1616	844	14.2	12.2	119	4
2023-08-18T18:00	1641	841	14.0	12.3	118	4
2023-08-18T18:00	1660	839	13.8	12.2	119	4
2023-08-18T18:00	1680	837	13.6	12.3	122	3
2023-08-18T18:00	1704	835	13.4	12.4	126	4
2023-08-18T18:00	1728	833	13.1	12.1	130	4
2023-08-18T18:00	1752	830	12.9	12.0	134	4
2023-08-18T18:00	1777	828	12.8	11.8	137	4
2023-08-18T18:00	1800	826	12.5	11.8	141	5
2023-08-18T18:00	1825	823	12.3	11.5	144	5
2023-08-18T18:00	1846	821	12.1	11.5	146	6
2023-08-18T18:00	1868	819	11.9	11.4	146	6
2023-08-18T18:00	1887	817	11.8	11.2	145	6
2023-08-18T18:00	1907	815	11.6	10.8	142	6
2023-08-18T18:00	1928	813	11.7	10.2	138	6
2023-08-18T18:00	1951	811	11.5	10.0	134	6
2023-08-18T18:00	1974	809	11.4	9.8	130	6
2023-08-18T18:00	1991	807	11.3	9.9	129	6
2023-08-18T18:00	2012	805	11.2	9.4	130	5
2023-08-18T18:00	2033	803	11.1	9.2	133	5
2023-08-18T18:00	2053	801	11.1	8.2	137	5
2023-08-18T18:00	2071	799	11.1	7.9	139	5
2023-08-18T18:00	2093	797	11.1	7.1	140	6
2023-08-18T18:00	2115	795	11.2	7.0	138	6
2023-08-18T18:00	2132	793	11.2	6.7	137	6
2023-08-18T18:00	2156	791	11.2	6.1	135	6
2023-08-18T18:00	2177	789	11.1	5.9	133	5
2023-08-18T18:00	2196	787	11.1	5.2	131	5
2023-08-18T18:00	2221	785	11.2	5.0	130	5
2023-08-18T18:00	2244	783	11.1	4.9	130	5
2023-08-18T18:00	2266	781	10.9	4.9	131	5
2023-08-18T18:00	2284	779	10.8	5.2	133	4
2023-08-18T18:00	2310	777	10.5	5.1	134	4
2023-08-18T18:00	2332	775	10.3	5.2	131	4
2023-08-18T18:00	2358	772	10.1	5.1	123	4
2023-08-18T18:00	2384	770	10.0	4.9	113	4
2023-08-18T18:00	2408	768	10.0	4.8	105	4
2023-08-18T18:00	2434	765	9.9	4.6	102	5
2023-08-18T18:00	2458	763	9.7	5.1	104	5
2023-08-18T18:00	2490	760	9.5	4.9	108	5
2023-08-18T18:00	2517	758	9.3	4.8	113	6
2023-08-18T18:00	2539	756	9.1	4.8	117	6
2023-08-18T18:00	2564	754	9.0	3.9	121	5
2023-08-18T18:00	2582	752	9.1	3.4	122	5
2023-08-18T18:00	2599	750	8.9	3.4	120	4
2023-08-18T18:00	2631	748	8.9	2.7	115	3
2023-08-18T18:00	2657	745	8.6	3.0	104	2
2023-08-18T18:00	2680	743	8.4	3.1	89	2
2023-08-18T18:00	2701	741	8.2	3.1	71	1
2023-08-18T18:00	2726	739	8.0	3.1	53	1
2023-08-18T18:00	2744	737	7.8		39	1
2023-08-18T18:00	2771	735	8.0	2.8	30	1
2023-08-18T18:00	2789	733	7.8	2.7	26	1
2023-08-18T18:00	2821	731	7.6	2.1	29	1
2023-08-18T18:00	2837	729	7.5	1.9	34	1
2023-08-18T18:00	2855	727	7.3	2.0	33	1
2023-08-18T18:00	2880	725	7.2	2.1	24	1
2023-08-18T18:00	2905	723	7.1	1.8	14	1
2023-08-18T18:00	2930	721	6.9	1.5	7	1
2023-08-18T18:00	2956	719	6.7	1.5	7	1
2023-08-18T18:00	2982	716	6.5	1.3	14	1
2023-08-18T18:00	3002	715	6.3	1.3	27	1
2023-08-18T18:00	3021	713	6.1	1.4	45	1
2023-08-18T18:00	3049	711	5.8	1.3	61	1
2023-08-18T18:00	3072	709	5.6	1.2	73	2
2023-08-18T18:00	3093	707	5.4	0.8	78	2
2023-08-18T18:00	3114	705	5.3	0.7	79	2
2023-08-18T18:00	3136	703	5.0	1.0	75	2
2023-08-18T18:00	3161	701	5.0	-1.4	68	2
2023-08-18T18:00	3184	699	5.0	-1.5	60	2
2023-08-18T18:00	3207	697	5.0	-1.6	52	2
2023-08-18T18:00	3228	695	4.9	-1.7	45	2
2023-08-18T18:00	3246	693	4.8	-1.5	41	2
2023-08-18T18:00	3268	692	4.7	-1.6	40	2
2023-08-18T18:00	3291	690	4.5	-1.7	42	2
2023-08-18T18:00	3321	687	4.3	-2.0	47	1
2023-08-18T18:00	3341	685	4.3	-2.3	52	1
2023-08-18T18:00	3362	684	4.3	-1.8	58	1
2023-08-18T18:00	3381	682	4.1	-1.7	63	2
2023-08-18T18:00	3400	681	4.0	-2.1	68	2
2023-08-18T18:00	3423	679	3.9	-2.4	72	2
2023-08-18T18:00	3452	676	3.7	-2.6	74	2
2023-08-18T18:00	3473	674	3.6	-2.7	73	2
2023-08-18T18:00	3495	673	3.5	-2.9	66	2
2023-08-18T18:00	3519	671	3.4	-2.7	54	2
2023-08-18T18:00	3541	669	3.2	-3.3	35	2
2023-08-18T18:00	3569	667	3.2	-3.5	12	2
2023-08-18T18:00	3596	664	3.1	-3.4	352	2
2023-08-18T18:00	3621	662	2.9	-3.2	337	2
2023-08-18T18:00	3649	660	2.7	-2.9	326	2
2023-08-18T18:00	3671	658	2.6	-2.8	319	2
2023-08-18T18:00	3700	656	2.3	-3.0	316	2
2023-08-18T18:00	3722	654	2.1	-2.6	315	2
2023-08-18T18:00	3745	652	2.0	-2.6	319	1
2023-08-18T18:00	3774	650	1.7	-2.9	332	1
2023-08-18T18:00	3795	648	1.5	-3.0	360	1
2023-08-18T18:00	3820	646	1.3	-3.1	29	1
2023-08-18T18:00	3849	644	1.1	-3.1	42	1
2023-08-18T18:00	3868	642	0.9	-3.0	43	2
2023-08-18T18:00	3894	640	0.6		38	2
2023-08-18T18:00	3916	638	0.4	-3.0	30	2
2023-08-18T18:00	3946	636	0.2	-3.0	20	2
2023-08-18T18:00	3974	634	-0.1	-3.0	14	2
2023-08-18T18:00	3991	633	-0.2	-3.0	13	2
2023-08-18T18:00	4009	631	-0.3	-3.2	16	2
2023-08-18T18:00	4031	629	-0.5	-3.6	21	2
2023-08-18T18:00	4063	627	-0.7	-3.6	26	2
2023-08-18T18:00	4082	625	-0.7	-3.6	28	1
2023-08-18T18:00	4111	623	-0.5	-4.5	24	1
2023-08-18T18:00	4133	621	-0.3	-4.9	12	1
2023-08-18T18:00	4153	620	-0.4		1	1
2023-08-18T18:00	4173	618	-0.6	-5.1	357	1
2023-08-18T18:00	4190	617	-0.7	-5.2	355	2
2023-08-18T18:00	4213	615	-0.7	-5.5	354	2
2023-08-18T18:00	4238	613	-0.8	-6.0	354	2
2023-08-18T18:00	4261	612	-0.9	-6.0	356	3
2023-08-18T18:00	4285	610	-1.1	-6.1	1	3
2023-08-18T18:00	4310	608	-1.3	-6.2	12	2
2023-08-18T18:00	4334	606	-1.3	-6.3	26	2
2023-08-18T18:00	4367	604	-1.5	-6.5	38	2
2023-08-18T18:00	4386	602	-1.7	-6.6	43	2
2023-08-18T18:00	4410	600	-1.8	-6.7	40	2
2023-08-18T18:00	4440	598	-1.9	-7.0	32	2
2023-08-18T18:00	4463	596	-2.1	-7.2	18	2
2023-08-18T18:00	4486	595	-2.3	-7.3	359	2
2023-08-18T18:00	4509	593	-2.5	-7.4	341	2
2023-08-18T18:00	4537	591	-2.6	-7.5	326	2
2023-08-18T18:00	4557	589	-2.4	-8.7	317	2
2023-08-18T18:00	4578	588	-2.1	-9.7	311	2
2023-08-18T18:00	4596	586	-2.2	-9.6	307	2
2023-08-18T18:00	4617	585	-2.4	-9.6	305	2
2023-08-18T18:00	4646	583	-2.5	-9.3	304	3
2023-08-18T18:00	4671	581	-2.7	-9.4	306	3
2023-08-18T18:00	4697	579	-2.9	-9.3	310	3
2023-08-18T18:00	4718	577	-3.1	-9.1	314	3
2023-08-18T18:00	4746	576	-3.3	-8.7	316	4
2023-08-18T18:00	4767	574	-3.5	-8.9	318	4
2023-08-18T18:00	4793	572	-3.7	-9.0	318	4
2023-08-18T18:00	4819	570	-3.9	-9.1	319	5
2023-08-18T18:00	4846	568	-4.1	-9.2	319	4
2023-08-18T18:00	4873	566	-4.4	-8.9	320	4
2023-08-18T18:00	4892	565	-4.5	-9.0	320	4
2023-08-18T18:00	4918	563	-4.7	-9.1	319	3
2023-08-18T18:00	4943	561	-4.8	-9.6	316	3
2023-08-18T18:00	4973	559	-4.9	-9.9	312	3
2023-08-18T18:00	5000	557	-5.1	-10.2	310	3
2023-08-18T18:00	5018	556	-5.0	-11.2	312	3
2023-08-18T18:00	5038	554	-4.9	-11.6	318	3
2023-08-18T18:00	5058	553	-4.9	-12.8	326	3
2023-08-18T18:00	5082	551	-5.0	-13.5	333	3
2023-08-18T18:00	5101	550	-5.2	-13.7	335	3
2023-08-18T18:00	5124	548	-5.4	-14.0	334	3
2023-08-18T18:00	5146	547	-5.5	-14.3	329	3
2023-08-18T18:00	5163	546	-5.7		323	3
2023-08-18T18:00	5190	544	-5.9	-14.6	319	3
2023-08-18T18:00	5214	542	-6.0	-14.4	317	4
2023-08-18T18:00	5238	540	-6.1	-14.2	317	4
2023-08-18T18:00	5265	539	-6.3	-13.6	317	4
2023-08-18T18:00	5291	537	-6.5	-13.0	316	4
2023-08-18T18:00	5315	535	-6.7	-13.4	315	4
2023-08-18T18:00	5335	534	-6.7	-14.0	313	4
2023-08-18T18:00	5364	532	-6.9	-14.0	313	4
2023-08-18T18:00	5389	530	-7.2	-14.5	315	3
2023-08-18T18:00	5415	528	-7.4	-15.0	318	3
2023-08-18T18:00	5437	527	-7.5	-15.4	321	3
2023-08-18T18:00	5456	526	-7.6	-15.7	321	4
2023-08-18T18:00	5473	525	-7.8	-15.6	319	4
2023-08-18T18:00	5490	523	-7.9	-16.0	316	4
2023-08-18T18:00	5508	522	-7.9	-18.3	313	4
2023-08-18T18:00	5530	521	-7.8	-21.4	309	5
2023-08-18T18:00	5552	519	-7.9	-21.3	305	5
2023-08-18T18:00	5572	518	-8.0	-21.9	301	5
2023-08-18T18:00	5589	517	-8.1	-22.3	298	5
2023-08-18T18:00	5607	515	-8.3	-22.6	295	5
2023-08-18T18:00	5625	514	-8.3	-22.9	294	4
2023-08-18T18:00	5644	513	-8.3	-23.0	293	4
2023-08-18T18:00	5659	512	-8.4	-22.5	293	4
2023-08-18T18:00	5676	511	-8.5	-22.8	293	4
2023-08-18T18:00	5697	509	-8.6	-23.0	293	4
2023-08-18T18:00	5722	508	-8.8	-22.6	292	4
2023-08-18T18:00	5747	506	-9.0	-23.0	289	4
2023-08-18T18:00	5774	504	-9.2	-22.4	285	3
2023-08-18T18:00	5801	503	-9.4	-22.7	280	3
2023-08-18T18:00	5828	501	-9.6	-22.7	274	3
2023-08-18T18:00	5843	500	-9.7	-22.7	270	2
2023-08-18T18:00	5856	499	-9.8	-23.0	269	2
2023-08-18T18:00	5875	498	-9.9	-22.8	271	2
2023-08-18T18:00	5893	497	-10.0	-22.6	275	2
2023-08-18T18:00	5910	496	-10.1	-22.7	280	2
2023-08-18T18:00	5930	494	-10.2	-22.7	285	1
2023-08-18T18:00	5948	493	-10.3	-23.0	289	1
2023-08-18T18:00	5965	492	-10.3	-23.6	293	1
2023-08-18T18:00	5984	491	-10.5	-23.8	296	1
2023-08-18T18:00	6003	490	-10.5	-25.4	300	1
2023-08-18T18:00	6026	488	-10.6	-26.3	304	1
2023-08-18T18:00	6051	487	-10.7	-29.5	309	1
2023-08-18T18:00	6081	485	-10.8	-31.7	312	2
2023-08-18T18:00	6105	483	-11.0	-31.9	313	2
2023-08-18T18:00	6137	481	-11.3		311	2
2023-08-18T18:00	6162	480	-11.4	-33.4	305	2
2023-08-18T18:00	6184	478	-11.6	-33.8	296	1
2023-08-18T18:00	6208	477	-11.8	-34.1	289	2
2023-08-18T18:00	6234	475	-12.0	-34.3	288	2
2023-08-18T18:00	6260	474	-12.2	-34.6	292	2
2023-08-18T18:00	6283	472	-12.5	-34.9	296	2
2023-08-18T18:00	6304	471	-12.7	-35.6	299	2
2023-08-18T18:00	6333	469	-12.9	-35.9	299	3
2023-08-18T18:00	6357	468	-13.1	-36.5	295	3
2023-08-18T18:00	6386	466	-13.3	-36.8	291	3
2023-08-18T18:00	6412	464	-13.5	-37.2	286	3
2023-08-18T18:00	6438	463	-13.7	-37.6	283	3
2023-08-18T18:00	6466	461	-13.9	-37.8	281	4
2023-08-18T18:00	6490	459	-14.1	-38.0	279	4
2023-08-18T18:00	6520	458	-14.2	-37.8	276	4
2023-08-18T18:00	6547	456	-14.4	-38.0	272	4
2023-08-18T18:00	6571	455	-14.6	-38.2	268	4
2023-08-18T18:00	6597	453	-14.8	-38.0	264	4
2023-08-18T18:00	6617	452	-14.9	-37.0	263	4
2023-08-18T18:00	6647	450	-15.2	-34.5	265	4
2023-08-18T18:00	6677	448	-15.5	-35.3	268	4
2023-08-18T18:00	6696	447	-15.6	-36.1	272	4
2023-08-18T18:00	6716	446	-15.8	-37.2	276	4
2023-08-18T18:00	6739	445	-16.0	-39.3	280	4
2023-08-18T18:00	6759	443	-16.0	-41.4	283	4
2023-08-18T18:00	6780	442	-16.1	-42.2	285	4
2023-08-18T18:00	6803	441	-16.2	-44.8	287	4
2023-08-18T18:00	6824	440	-16.3	-47.8	288	5
2023-08-18T18:00	6844	438	-16.4	-49.2	288	5
2023-08-18T18:00	6864	437	-16.5	-48.5	287	5
2023-08-18T18:00	6883	436	-16.7	-48.4	286	5
2023-08-18T18:00	6905	435	-16.9	-48.5	284	5
2023-08-18T18:00	6923	434	-17.1	-48.5	284	5
2023-08-18T18:00	6941	433	-17.2	-48.3	285	5
2023-08-18T18:00	6960	432	-17.3	-47.9	286	5
2023-08-18T18:00	6980	431	-17.5	-47.7	287	5
2023-08-18T18:00	7000	429	-17.6	-48.0	288	5
2023-08-18T18:00	7020	428	-17.7	-50.2	288	5
2023-08-18T18:00	7040	427	-17.7	-51.0	287	5
2023-08-18T18:00	7066	426	-17.8	-50.3	287	6
2023-08-18T18:00	7093	424	-18.1	-49.7	288	6
2023-08-18T18:00	7120	423	-18.3	-49.6	291	6
2023-08-18T18:00	7141	421	-18.5	-49.8	295	6
2023-08-18T18:00	7165	420	-18.7	-49.2	299	6
2023-08-18T18:00	7192	419	-19.0	-49.3	302	6
2023-08-18T18:00	7219	417	-19.2	-49.2	303	6
2023-08-18T18:00	7248	415	-19.4	-48.8	303	6
2023-08-18T18:00	7277	414	-19.7	-48.8	301	6
2023-08-18T18:00	7305	412	-19.9	-48.9	298	6
2023-08-18T18:00	7334	411	-20.2	-49.2	297	6
2023-08-18T18:00	7364	409	-20.4	-49.3	297	7
2023-08-18T18:00	7392	407	-20.6	-49.5	298	7
2023-08-18T18:00	7421	406	-20.9	-49.7	299	7
2023-08-18T18:00	7447	404	-21.1	-49.7	300	7
2023-08-18T18:00	7470	403	-21.3	-49.9	299	7
2023-08-18T18:00	7497	402	-21.6	-49.9	297	7
2023-08-18T18:00	7522	400	-21.8	-50.1	295	8
2023-08-18T18:00	7544	399	-22.0	-50.1	292	8
2023-08-18T18:00	7570	398	-22.2	-50.2	291	8
2023-08-18T18:00	7592	396	-22.3	-50.5	291	9
2023-08-18T18:00	7621	395	-22.6	-50.5	291	9
2023-08-18T18:00	7647	394	-22.8	-50.7	292	9
2023-08-18T18:00	7670	392	-23.0	-50.8	292	9
2023-08-18T18:00	7697	391	-23.2	-51.0	292	9
2023-08-18T18:00	7716	390	-23.4	-51.2	290	9
2023-08-18T18:00	7740	389	-23.5	-51.4	288	9
2023-08-18T18:00	7765	387	-23.7	-51.6	286	9
2023-08-18T18:00	7789	386	-23.9	-51.7	284	9
2023-08-18T18:00	7812	385	-24.1	-51.9	283	8
2023-08-18T18:00	7842	383	-24.3	-52.0	283	8
2023-08-18T18:00	7866	382	-24.5	-52.2	284	8
2023-08-18T18:00	7891	381	-24.7	-52.5	285	7
2023-08-18T18:00	7915	379	-24.9	-52.7	284	7
2023-08-18T18:00	7942	378	-25.1	-52.7	283	7
2023-08-18T18:00	7969	377	-25.3	-52.7	281	7
2023-08-18T18:00	7996	375	-25.5	-52.8	278	7
2023-08-18T18:00	8019	374	-25.7	-53.0	276	7
2023-08-18T18:00	8043	373	-25.8	-53.1	273	6
2023-08-18T18:00	8069	371	-26.0	-53.2	272	6
2023-08-18T18:00	8096	370	-26.1	-53.8	271	6
2023-08-18T18:00	8125	369	-26.3	-53.8	272	6
2023-08-18T18:00	8151	367	-26.5	-54.1	273	6
2023-08-18T18:00	8175	366	-26.8	-54.0	274	6
2023-08-18T18:00	8196	365	-26.9	-54.1	275	6
2023-08-18T18:00	8217	364	-27.1	-54.3	276	6
2023-08-18T18:00	8236	363	-27.3	-54.6	277	6
2023-08-18T18:00	8257	362	-27.5		277	6
2023-08-18T18:00	8275	361	-27.6	-55.0	277	6
2023-08-18T18:00	8293	360	-27.8	-55.0	276	6
2023-08-18T18:00	8315	359	-28.0	-55.1	276	6
2023-08-18T18:00	8333	358	-28.2	-55.1	276	6
2023-08-18T18:00	8353	357	-28.4	-55.3	276	6
2023-08-18T18:00	8374	356	-28.6	-55.3	277	6
2023-08-18T18:00	8393	355	-28.8	-55.3	278	6
2023-08-18T18:00	8413	354	-29.0	-55.6	279	6
2023-08-18T18:00	8435	353	-29.2	-55.8	281	5
2023-08-18T18:00	8456	352	-29.3	-55.8	282	5
2023-08-18T18:00	8476	351	-29.5	-56.0	284	5
2023-08-18T18:00	8497	350	-29.7	-56.3	286	5
2023-08-18T18:00	8518	349	-29.9	-56.3	289	5
2023-08-18T18:00	8537	348	-30.0	-56.6	292	5
2023-08-18T18:00	8557	347	-30.1	-56.6	296	5
2023-08-18T18:00	8576	346	-30.2	-56.9	299	5
2023-08-18T18:00	8597	345	-30.4	-56.9	302	5
2023-08-18T18:00	8617	344	-30.5	-57.1	305	6
2023-08-18T18:00	8636	343	-30.6	-57.2	307	6
2023-08-18T18:00	8658	342	-30.8	-57.4	310	6
2023-08-18T18:00	8678	341	-31.0	-57.5	311	6
2023-08-18T18:00	8701	340	-31.2	-57.7	312	6
2023-08-18T18:00	8722	339	-31.4	-57.8	313	6
2023-08-18T18:00	8747	338	-31.6	-58.0	313	6
2023-08-18T18:00	8772	337	-31.7	-58.1	315	6
2023-08-18T18:00	8798	335	-31.9	-58.1	317	6
2023-08-18T18:00	8823	334	-32.2	-58.3	320	6
2023-08-18T18:00	8849	333	-32.4	-58.1	322	6
2023-08-18T18:00	8872	332	-32.6	-58.0	323	6
2023-08-18T18:00	8894	331	-32.8	-58.1	324	7
2023-08-18T18:00	8920	330	-33.0	-58.2	323	7
2023-08-18T18:00	8944	328	-33.2	-58.2	322	7
2023-08-18T18:00	8970	327	-33.5	-58.1	321	7
2023-08-18T18:00	8995	326	-33.7	-58.1	320	8
2023-08-18T18:00	9021	325	-33.9	-58.2	319	8
2023-08-18T18:00	9049	324	-34.2	-58.0	319	8
2023-08-18T18:00	9074	322	-34.4	-57.9	318	8
2023-08-18T18:00	9100	321	-34.7	-57.9	317	8
2023-08-18T18:00	9129	320	-34.9	-57.6	315	8
2023-08-18T18:00	9158	319	-35.2	-57.1	313	8
2023-08-18T18:00	9182	318	-35.4	-57.3	311	8
2023-08-18T18:00	9204	316	-35.5	-57.8	311	8
2023-08-18T18:00	9228	315	-35.6	-58.3	311	8
2023-08-18T18:00	9249	314	-35.8	-58.9	311	8
2023-08-18T18:00	9274	313	-36.0	-58.7	312	8
2023-08-18T18:00	9297	312	-36.2	-58.8	312	8
2023-08-18T18:00	9320	311	-36.4	-58.9	313	8
2023-08-18T18:00	9341	310	-36.6	-59.0	313	8
2023-08-18T18:00	9363	309	-36.8	-58.9	313	8
2023-08-18T18:00	9382	308	-37.0	-58.9	313	8
2023-08-18T18:00	9401	308	-37.1	-59.0	312	8
2023-08-18T18:00	9424	307	-37.4	-58.9	312	8
2023-08-18T18:00	9443	306	-37.6	-58.9	311	8
2023-08-18T18:00	9467	305	-37.8	-59.0	312	8
2023-08-18T18:00	9488	304	-38.0	-59.0	312	8
2023-08-18T18:00	9509	303	-38.2	-58.9	312	8
2023-08-18T18:00	9530	302	-38.3	-58.8	312	8
2023-08-18T18:00	9550	301	-38.5	-59.0	312	8
2023-08-18T18:00	9572	300	-38.7	-59.1	311	8
2023-08-18T18:00	9594	299	-38.9	-59.2	310	8
2023-08-18T18:00	9614	298	-39.1	-59.4	309	8
2023-08-18T18:00	9637	297	-39.3	-59.5	308	8
2023-08-18T18:00	9658	296	-39.5	-59.9	308	8
2023-08-18T18:00	9679	295	-39.6	-60.0	308	8
2023-08-18T18:00	9699	295	-39.8	-60.1	309	8
2023-08-18T18:00	9719	294	-40.0	-60.0	309	8
2023-08-18T18:00	9740	293	-40.1	-60.0	310	7
2023-08-18T18:00	9759	292	-40.3	-60.5	311	7
2023-08-18T18:00	9782	291	-40.5	-60.5	312	7
2023-08-18T18:00	9803	290	-40.7	-60.6	313	7
2023-08-18T18:00	9824	289	-40.8	-60.5	314	7
2023-08-18T18:00	9844	288	-41.0	-60.4	314	7
2023-08-18T18:00	9866	287	-41.2	-60.5	313	7
2023-08-18T18:00	9887	287	-41.4	-60.6	312	7
2023-08-18T18:00	9908	286	-41.6	-60.6	311	7
2023-08-18T18:00	9929	285	-41.8	-60.8	310	7
2023-08-18T18:00	9948	284	-42.0	-60.8	309	6
2023-08-18T18:00	9967	283	-42.2	-61.0	309	6
2023-08-18T18:00	9989	282	-42.3	-61.1	309	6
2023-08-18T18:00	10008	281	-42.5	-61.2	309	6
2023-08-18T18:00	10028	281	-42.7	-61.5	310	6
2023-08-18T18:00	10047	280	-42.9	-61.6	310	6
2023-08-18T18:00	10068	279	-43.0	-61.5	311	6
2023-08-18T18:00	10088	278	-43.2	-61.5	311	6
2023-08-18T18:00	10109	277	-43.4	-61.6	311	6
2023-08-18T18:00	10128	276	-43.6	-61.8	309	6
2023-08-18T18:00	10148	276	-43.7	-61.8	308	6
2023-08-18T18:00	10167	275	-44.0	-61.9	307	5
2023-08-18T18:00	10186	274	-44.1	-61.9	306	5
2023-08-18T18:00	10205	273	-44.2	-62.0	305	5
2023-08-18T18:00	10226	272	-44.4	-62.1	304	5
2023-08-18T18:00	10245	272	-44.6	-62.2	302	5
2023-08-18T18:00	10265	271	-44.8	-62.3	299	5
2023-08-18T18:00	10286	270	-44.9	-62.2	297	5
2023-08-18T18:00	10306	269	-45.1	-62.3	295	6
2023-08-18T18:00	10323	269	-45.3	-62.4	294	6
2023-08-18T18:00	10341	268	-45.5	-62.5	294	6
2023-08-18T18:00	10360	267	-45.6	-62.5	294	6
2023-08-18T18:00	10377	266	-45.8	-62.5	294	6
2023-08-18T18:00	10395	266	-45.9	-62.5	293	6
2023-08-18T18:00	10414	265	-46.1	-62.6	292	6
2023-08-18T18:00	10433	264	-46.3	-62.7	291	6
2023-08-18T18:00	10452	263	-46.5	-62.9	289	6
2023-08-18T18:00	10470	263	-46.6	-63.1	288	6
2023-08-18T18:00	10490	262	-46.7	-63.2	287	6
2023-08-18T18:00	10507	261	-46.7	-63.2	286	6
2023-08-18T18:00	10526	260	-46.9	-63.2	285	6
2023-08-18T18:00	10545	260	-47.0	-63.1	285	6
2023-08-18T18:00	10566	259	-47.2	-63.1	285	6
2023-08-18T18:00	10582	258	-47.4	-63.1	286	7
2023-08-18T18:00	10599	258	-47.6	-63.3	286	7
2023-08-18T18:00	10618	257	-47.7	-63.3	287	7
2023-08-18T18:00	10635	256	-47.9	-63.3	288	7
2023-08-18T18:00	10654	256	-48.0	-63.3	289	7
2023-08-18T18:00	10671	255	-48.1	-63.4	290	8
2023-08-18T18:00	10689	254	-48.2	-63.5	291	8
2023-08-18T18:00	10707	253	-48.3	-63.5	293	8
2023-08-18T18:00	10727	253	-48.5	-63.6	294	8
2023-08-18T18:00	10746	252	-48.6	-63.7	294	8
2023-08-18T18:00	10763	251	-48.8	-63.8	295	8
2023-08-18T18:00	10781	251	-48.9	-63.9	294	8
2023-08-18T18:00	10798	250	-49.0	-64.0	294	9
2023-08-18T18:00	10817	249	-49.1	-64.0	295	9
2023-08-18T18:00	10838	248	-49.1	-63.9	295	9
2023-08-18T18:00	10855	248	-49.3	-64.0	295	9
2023-08-18T18:00	10872	247	-49.4	-64.0	296	9
2023-08-18T18:00	10891	246	-49.5	-63.9	296	9
2023-08-18T18:00	10913	246	-49.6	-63.7	296	10
2023-08-18T18:00	10930	245	-49.7	-63.7	296	10
2023-08-18T18:00	10951	244	-49.9	-63.8	296	10
2023-08-18T18:00	10969	244	-50.1	-63.8	297	10
2023-08-18T18:00	10987	243	-50.2	-63.6	297	10
2023-08-18T18:00	11005	242	-50.4	-63.7	297	10
2023-08-18T18:00	11024	241	-50.5	-63.7	298	10
2023-08-18T18:00	11042	241	-50.6	-63.7	299	10
2023-08-18T18:00	11062	240	-50.7	-63.7	300	9
2023-08-18T18:00	11080	239	-50.9	-63.8	301	9
2023-08-18T18:00	11096	239	-51.0	-63.7	302	9
2023-08-18T18:00	11119	238	-51.1	-63.5	302	9
2023-08-18T18:00	11143	237	-51.2	-63.3	301	8
2023-08-18T18:00	11171	236	-51.4	-63.5	297	7
2023-08-18T18:00	11194	235	-51.2	-63.7	292	7
2023-08-18T18:00	11213	234	-51.4	-64.1	284	6
2023-08-18T18:00	11240	234	-51.6	-64.3	276	6
2023-08-18T18:00	11260	233	-51.6	-64.2	268	5
2023-08-18T18:00	11282	232	-51.9	-64.4	264	5
2023-08-18T18:00	11302	231	-52.1	-64.3	264	5
2023-08-18T18:00	11320	231	-52.2	-64.2	266	5
2023-08-18T18:00	11342	230	-52.4	-64.3	269	5
2023-08-18T18:00	11365	229	-52.6	-64.4	271	5
2023-08-18T18:00	11387	228	-52.8	-64.4	272	5
2023-08-18T18:00	11407	228	-53.0	-64.4	272	5
2023-08-18T18:00	11429	227	-53.2	-64.5	271	5
2023-08-18T18:00	11452	226	-53.3	-64.5	270	5
2023-08-18T18:00	11471	225	-53.5	-64.5	269	6
2023-08-18T18:00	11492	225	-53.7	-64.6	268	6
2023-08-18T18:00	11511	224	-53.8	-64.6	266	6
2023-08-18T18:00	11531	223	-54.0	-64.6	265	6
2023-08-18T18:00	11551	223	-54.2	-64.7	264	6
2023-08-18T18:00	11570	222	-54.3	-64.7	263	6
2023-08-18T18:00	11589	221	-54.5	-64.8	262	6
2023-08-18T18:00	11609	221	-54.7	-64.9	262	7
2023-08-18T18:00	11628	220	-54.9	-64.9	262	7
2023-08-18T18:00	11648	219	-55.0	-65.0	262	7
2023-08-18T18:00	11666	219	-55.0	-65.1	262	7
2023-08-18T18:00	11686	218	-55.2	-65.5	262	8
2023-08-18T18:00	11705	217	-55.2	-65.9	263	8
2023-08-18T18:00	11724	217	-55.1	-66.3	264	8
2023-08-18T18:00	11741	216	-55.1	-66.6	265	7
2023-08-18T18:00	11761	215	-55.0	-66.6	266	7
2023-08-18T18:00	11780	215	-55.2	-66.5	265	7
2023-08-18T18:00	11802	214	-55.3	-66.2	263	7
2023-08-18T18:00	11825	213	-55.4	-66.1	260	7
2023-08-18T18:00	11845	213	-55.6	-66.3	256	7
2023-08-18T18:00	11869	212	-55.7	-66.7	252	7
2023-08-18T18:00	11892	211	-55.9	-67.1	250	7
2023-08-18T18:00	11911	210	-56.0	-67.1	249	7
2023-08-18T18:00	11936	210	-56.2	-67.1	251	7
2023-08-18T18:00	11958	209	-56.4	-67.2	254	6
2023-08-18T18:00	11979	208	-56.4	-67.4	258	6
2023-08-18T18:00	12001	207	-56.3	-67.7	264	6
2023-08-18T18:00	12023	207	-56.4	-68.2	270	6
2023-08-18T18:00	12043	206	-56.2	-68.5	275	5
2023-08-18T18:00	12061	205	-55.8	-68.7	277	6
2023-08-18T18:00	12080	205	-55.8	-69.0	277	6
2023-08-18T18:00	12099	204	-55.9	-69.2	276	6
2023-08-18T18:00	12121	204	-55.8	-69.7	274	6
2023-08-18T18:00	12139	203	-55.6	-70.8	273	7
2023-08-18T18:00	12158	202	-54.9	-72.3	273	7
2023-08-18T18:00	12179	202	-54.1	-74.0	274	7
2023-08-18T18:00	12198	201	-54.1	-75.5	274	7
2023-08-18T18:00	12218	200	-54.1	-76.1	273	7
2023-08-18T18:00	12240	200	-53.6	-76.1	271	7
2023-08-18T18:00	12261	199	-53.3	-76.9	268	7
2023-08-18T18:00	12282	198	-52.8	-77.4	264	7
2023-08-18T18:00	12303	198	-52.6	-77.7	261	6
2023-08-18T18:00	12324	197	-52.6	-77.5	257	5
2023-08-18T18:00	12343	197	-52.1	-76.5	254	5
2023-08-18T18:00	12364	196	-52.0	-76.0	250	5
2023-08-18T18:00	12386	195	-51.7	-75.8	246	5
2023-08-18T18:00	12406	195	-51.4	-75.9	243	5
2023-08-18T18:00	12426	194	-51.3	-76.2	241	5
2023-08-18T18:00	12445	194	-51.5	-76.2	241	5
2023-08-18T18:00	12464	193	-51.6	-75.9	241	5
2023-08-18T18:00	12484	192	-51.8	-75.8	241	5
2023-08-18T18:00	12502	192	-51.5	-75.4	242	6
2023-08-18T18:00	12522	191	-51.6	-74.6	244	6
2023-08-18T18:00	12541	191	-51.5	-73.8	246	6
2023-08-18T18:00	12563	190	-51.6	-73.5	248	6
2023-08-18T18:00	12582	190	-51.6	-73.3	251	6
2023-08-18T18:00	12601	189	-51.7	-73.7	253	6
2023-08-18T18:00	12621	188	-51.7	-74.0	254	7
2023-08-18T18:00	12639	188	-51.6	-74.2	256	7
2023-08-18T18:00	12658	187	-51.5	-74.3	258	7
2023-08-18T18:00	12680	187	-51.5	-74.4	259	7
2023-08-18T18:00	12700	186	-51.4	-74.3	260	7
2023-08-18T18:00	12719	186	-51.3	-74.6	261	7
2023-08-18T18:00	12739	185	-51.2	-74.8	262	7
2023-08-18T18:00	12759	184	-51.0	-75.0	263	6
2023-08-18T18:00	12778	184	-50.8	-75.6	265	6
2023-08-18T18:00	12798	183	-50.4	-76.0	266	6
2023-08-18T18:00	12817	183	-50.3	-76.1	268	6
2023-08-18T18:00	12838	182	-50.4	-76.4	270	6
2023-08-18T18:00	12859	182	-50.7	-76.7	271	6
2023-08-18T18:00	12878	181	-50.8	-76.8	271	6
2023-08-18T18:00	12899	181	-51.0	-76.7	272	6
2023-08-18T18:00	12919	180	-51.1	-76.7	272	6
2023-08-18T18:00	12940	179	-51.3	-76.9	272	6
2023-08-18T18:00	12959	179	-51.5	-77.1	272	5
2023-08-18T18:00	12981	178	-51.6	-77.1	271	5
2023-08-18T18:00	13002	178	-51.6	-77.1	269	5
2023-08-18T18:00	13022	177	-51.6	-77.1	265	5
2023-08-18T18:00	13043	177	-51.6	-77.1	262	6
2023-08-18T18:00	13064	176	-51.6	-77.4	258	6
2023-08-18T18:00	13088	175	-51.7	-77.5	256	7
2023-08-18T18:00	13112	175	-51.4	-77.2	253	8
2023-08-18T18:00	13138	174	-51.1	-77.2	251	8
2023-08-18T18:00	13161	173	-51.2	-77.6	249	9
2023-08-18T18:00	13185	173	-50.9	-77.6	246	9
2023-08-18T18:00	13206	172	-50.5	-77.6	244	9
2023-08-18T18:00	13226	172	-50.0	-77.8	242	8
2023-08-18T18:00	13247	171	-49.4	-77.3	240	8
2023-08-18T18:00	13267	171	-49.3	-77.6	239	8
2023-08-18T18:00	13288	170	-49.3	-77.6	239	8
2023-08-18T18:00	13307	170	-49.3	-77.6	238	8
2023-08-18T18:00	13329	169	-49.4	-77.6	236	7
2023-08-18T18:00	13349	168	-49.5	-78.0	235	7
2023-08-18T18:00	13370	168	-49.4	-78.0	233	7
2023-08-18T18:00	13392	167	-49.4	-78.0	231	7
2023-08-18T18:00	13412	167	-49.4	-78.0	231	7
2023-08-18T18:00	13434	166	-49.5	-78.0	231	7
2023-08-18T18:00	13453	166	-49.7	-78.2	231	7
2023-08-18T18:00	13474	165	-49.9	-78.3	232	7
2023-08-18T18:00	13496	165	-50.0	-78.4	233	7
2023-08-18T18:00	13514	164	-50.2	-78.6	234	8
2023-08-18T18:00	13534	164	-50.2	-78.6	235	8
2023-08-18T18:00	13555	163	-50.3	-78.7	235	8
2023-08-18T18:00	13574	163	-50.4	-78.7	235	8
2023-08-18T18:00	13595	162	-50.4	-78.7	235	8
2023-08-18T18:00	13616	162	-50.5	-78.8	235	8
2023-08-18T18:00	13637	161	-50.5	-78.8	236	8
2023-08-18T18:00	13656	161	-50.5	-78.8	236	8
2023-08-18T18:00	13676	160	-50.6	-78.9	237	8
2023-08-18T18:00	13697	160	-50.5	-78.8	237	8
2023-08-18T18:00	13717	159	-50.6	-78.9	236	9
2023-08-18T18:00	13736	159	-50.6	-78.9	234	9
2023-08-18T18:00	13756	158	-50.5	-78.8	232	9
2023-08-18T18:00	13777	158	-50.6	-78.9	230	9
2023-08-18T18:00	13799	157	-50.8	-79.0	227	9
2023-08-18T18:00	13819	157	-50.9	-79.1	224	9
2023-08-18T18:00	13840	156	-51.0	-79.2	222	8
2023-08-18T18:00	13858	156	-51.1	-79.3	219	8
2023-08-18T18:00	13879	155	-51.2	-79.3	218	8
2023-08-18T18:00	13897	155	-51.2	-79.3	216	8
2023-08-18T18:00	13918	154	-51.2	-79.0	215	8
2023-08-18T18:00	13937	154	-51.1	-78.9	215	8
2023-08-18T18:00	13957	153	-51.2	-79.0	215	8
2023-08-18T18:00	13976	153	-51.4	-79.2	216	8
2023-08-18T18:00	13998	152	-51.4	-79.2	216	9
2023-08-18T18:00	14020	152	-51.6	-79.0	218	9
2023-08-18T18:00	14037	152	-51.7	-79.1	219	9
2023-08-18T18:00	14059	151	-51.9	-79.2	220	9
2023-08-18T18:00	14081	151	-51.8	-79.2	222	9
2023-08-18T18:00	14102	150	-52.0	-79.3	223	9
2023-08-18T18:00	14121	150	-52.1	-79.4	225	9
2023-08-18T18:00	14142	149	-52.2	-79.2	227	9
2023-08-18T18:00	14162	149	-52.3	-79.2	229	9
2023-08-18T18:00	14183	148	-52.4	-79.3	231	9
2023-08-18T18:00	14202	148	-52.5	-79.4	233	9
2023-08-18T18:00	14225	147	-52.5	-79.7	235	9
2023-08-18T18:00	14242	147	-52.5	-79.7	237	9
2023-08-18T18:00	14263	146	-52.6	-79.8	238	9
2023-08-18T18:00	14285	146	-52.5	-79.7	239	9
2023-08-18T18:00	14303	145	-52.5	-79.7	240	9
2023-08-18T18:00	14326	145	-52.6	-79.8	240	9
2023-08-18T18:00	14347	145	-52.7	-79.8	241	9
2023-08-18T18:00	14365	144	-52.8	-79.6	240	9
2023-08-18T18:00	14387	144	-52.9	-79.7	240	9
2023-08-18T18:00	14407	143	-53.0	-79.8	239	9
2023-08-18T18:00	14427	143	-53.1	-79.9	239	10
2023-08-18T18:00	14448	142	-53.1	-79.9	238	10
2023-08-18T18:00	14469	142	-53.2	-79.9	238	10
2023-08-18T18:00	14490	141	-53.2	-79.9	238	10
2023-08-18T18:00	14511	141	-53.3	-80.3	238	10
2023-08-18T18:00	14533	140	-53.3	-80.3	238	10
2023-08-18T18:00	14552	140	-53.2	-80.2	238	9
2023-08-18T18:00	14574	139	-53.3	-80.3	239	9
2023-08-18T18:00	14594	139	-53.2	-80.2	240	9
2023-08-18T18:00	14615	139	-53.2	-80.2	241	9
2023-08-18T18:00	14637	138	-53.1	-80.2	242	9
2023-08-18T18:00	14656	138	-53.2	-80.2	243	9
2023-08-18T18:00	14678	137	-53.3	-80.3	244	9
2023-08-18T18:00	14698	137	-53.4	-80.4	244	9
2023-08-18T18:00	14719	136	-53.5	-80.5	244	9
2023-08-18T18:00	14742	136	-53.5	-80.5	243	8
2023-08-18T18:00	14764	135	-53.5	-80.5	241	8
2023-08-18T18:00	14785	135	-53.6	-80.9	238	8
2023-08-18T18:00	14808	135	-53.6	-80.9	234	7
2023-08-18T18:00	14826	134	-53.4	-80.7	231	7
2023-08-18T18:00	14851	134	-53.3	-80.6	229	7
2023-08-18T18:00	14871	133	-53.1	-80.8	229	8
2023-08-18T18:00	14893	133	-52.8	-80.6	231	8
2023-08-18T18:00	14915	132	-52.7	-80.8	233	8
2023-08-18T18:00	14937	132	-52.8	-80.9	235	8
2023-08-18T18:00	14959	131	-52.8	-80.9	236	8
2023-08-18T18:00	14980	131	-52.9	-81.0	236	8
2023-08-18T18:00	15001	130	-53.0	-81.1	234	8
2023-08-18T18:00	15023	130	-52.7	-80.8	232	8
2023-08-18T18:00	15045	130	-52.7	-80.8	229	9
2023-08-18T18:00	15067	129	-52.6	-81.1	227	9
2023-08-18T18:00	15087	129	-52.5	-81.0	225	9
2023-08-18T18:00	15107	128	-52.4	-81.0	222	9
2023-08-18T18:00	15128	128	-52.4	-81.0	220	10
2023-08-18T18:00	15152	128	-52.5	-80.7	219	10
2023-08-18T18:00	15175	127	-52.7	-80.8	217	10
2023-08-18T18:00	15196	127	-53.0	-81.1	216	11
2023-08-18T18:00	15214	126	-53.1	-80.8	216	11
2023-08-18T18:00	15235	126	-53.3	-80.9	217	11
2023-08-18T18:00	15252	126	-53.4	-80.7	219	11
2023-08-18T18:00	15272	125	-53.3	-80.6	222	11
2023-08-18T18:00	15293	125	-53.1	-80.5	224	11
2023-08-18T18:00	15315	124	-52.9	-80.6	226	11
2023-08-18T18:00	15334	124	-52.9	-80.6	227	11
2023-08-18T18:00	15355	124	-52.9	-80.6	227	11
2023-08-18T18:00	15376	123	-52.8	-80.9	227	10
2023-08-18T18:00	15398	123	-52.8	-80.9	228	10
2023-08-18T18:00	15418	122	-52.7	-80.5	229	10
2023-08-18T18:00	15437	122	-52.7	-80.5	231	9
2023-08-18T18:00	15459	122	-52.8	-80.6	233	9
2023-08-18T18:00	15481	121	-52.8	-80.6	235	9
2023-08-18T18:00	15499	121	-53.0	-80.7	238	10
2023-08-18T18:00	15519	120	-52.9	-80.6	240	10
2023-08-18T18:00	15540	120	-52.9	-80.6	243	10
2023-08-18T18:00	15562	120	-53.0	-80.7	245	10
2023-08-18T18:00	15582	119	-53.0	-80.7	247	10
2023-08-18T18:00	15603	119	-53.1	-80.8	249	10
2023-08-18T18:00	15625	118	-53.2	-80.9	250	10
2023-08-18T18:00	15649	118	-53.3	-80.9	250	10
2023-08-18T18:00	15669	118	-53.2	-80.9	249	10
2023-08-18T18:00	15689	117	-53.2	-80.9	248	9
2023-08-18T18:00	15713	117	-53.4	-81.0	247	9
2023-08-18T18:00	15731	117	-53.5	-81.1	245	8
2023-08-18T18:00	15754	116	-53.7	-80.9	244	8
2023-08-18T18:00	15774	116	-53.8	-81.0	244	7
2023-08-18T18:00	15797	115	-53.8	-81.0	244	7
2023-08-18T18:00	15820	115	-53.7	-80.9	243	6
2023-08-18T18:00	15843	115	-53.7	-81.3	242	6
2023-08-18T18:00	15863	114	-53.7	-81.3	240	6
2023-08-18T18:00	15885	114	-53.6	-81.2	237	6
2023-08-18T18:00	15908	113	-53.7	-81.3	235	6
2023-08-18T18:00	15930	113	-53.6	-81.5	232	6
2023-08-18T18:00	15952	113	-53.5	-81.4	230	6
2023-08-18T18:00	15972	112	-53.4	-81.4	228	5
2023-08-18T18:00	15992	112	-53.5	-81.4	226	5
2023-08-18T18:00	16015	111	-53.6	-81.5	223	5
2023-08-18T18:00	16039	111	-53.7	-81.6	220	4
2023-08-18T18:00	16062	111	-53.6	-81.5	216	4
2023-08-18T18:00	16083	110	-53.5	-81.4	211	4
2023-08-18T18:00	16108	110	-53.4	-81.4	205	4
2023-08-18T18:00	16126	110	-53.5	-81.4	198	4
2023-08-18T18:00	16150	109	-53.5	-81.4	192	4
2023-08-18T18:00	16171	109	-53.6	-81.5	187	4
2023-08-18T18:00	16189	109	-53.6	-81.5	184	5
2023-08-18T18:00	16212	108	-53.7	-81.6	183	5
2023-08-18T18:00	16233	108	-53.7	-81.6	183	5
2023-08-18T18:00	16255	107	-53.8	-81.7	184	6
2023-08-18T18:00	16275	107	-53.8	-81.7	185	6
2023-08-18T18:00	16294	107	-53.9	-81.7	186	7
2023-08-18T18:00	16315	106	-54.0	-81.8	187	7
2023-08-18T18:00	16339	106	-54.0	-81.8	188	7
2023-08-18T18:00	16358	106	-53.9	-81.7	187	8
2023-08-18T18:00	16379	105	-53.9	-81.7	187	8
2023-08-18T18:00	16399	105	-54.0	-81.8	186	8
2023-08-18T18:00	16417	105	-54.0	-81.8	186	8
2023-08-18T18:00	16440	104	-54.1	-81.9	185	8
2023-08-18T18:00	16462	104	-54.1	-81.9	185	8
2023-08-18T18:00	16481	104	-54.0	-81.8	185	9
2023-08-18T18:00	16505	103	-54.0	-81.8	184	9
2023-08-18T18:00	16525	103	-53.9	-82.1	184	9
2023-08-18T18:00	16545	103	-53.8	-82.0	184	9
2023-08-18T18:00	16569	102	-53.8	-82.0	186	10
2023-08-18T18:00	16586	102	-53.9	-82.1	188	10
2023-08-18T18:00	16609	102	-53.9	-81.7	191	10
2023-08-18T18:00	16630	101	-54.0	-81.8	193	10
2023-08-18T18:00	16649	101	-54.1	-81.9	196	10
2023-08-18T18:00	16672	101	-54.2	-82.0	197	11
2023-08-18T18:00	16692	100	-54.2	-82.0	199	11
2023-08-18T18:00	16712	100	-54.2	-82.0	200	11
2023-08-18T18:00	16734	100	-54.2	-82.0	202	11
2023-08-18T18:00	16756	99	-54.4	-82.1	204	10
2023-08-18T18:00	16781	99	-54.6	-82.3	207	10
2023-08-18T18:00	16803	99	-54.6	-82.3	210	9
2023-08-18T18:00	16822	98	-54.5	-82.2	212	9
2023-08-18T18:00	16845	98	-54.5	-82.2	216	8
2023-08-18T18:00	16864	98	-54.6	-82.6	219	8
2023-08-18T18:00	16887	97	-54.4	-82.5	222	7
2023-08-18T18:00	16909	97	-54.2	-82.3	225	7
2023-08-18T18:00	16932	97	-54.1	-82.3	226	7
2023-08-18T18:00	16953	96	-54.1	-82.3	227	7
2023-08-18T18:00	16975	96	-54.0	-82.2	227	7
2023-08-18T18:00	16997	96	-54.1	-82.3	227	7
2023-08-18T18:00	17020	95	-54.2	-82.3	226	7
2023-08-18T18:00	17039	95	-54.3	-82.4	226	7
2023-08-18T18:00	17058	95	-54.4	-82.5	225	7
2023-08-18T18:00	17081	94	-54.3	-82.4	224	7
2023-08-18T18:00	17103	94	-54.5	-82.6	223	7
2023-08-18T18:00	17127	94	-54.7	-82.7	222	7
2023-08-18T18:00	17150	93	-54.6	-82.6	221	7
2023-08-18T18:00	17171	93	-54.4	-82.5	220	7
2023-08-18T18:00	17194	93	-54.5	-82.6	219	7
2023-08-18T18:00	17217	92	-54.6	-82.6	217	7
2023-08-18T18:00	17237	92	-54.6	-82.6	215	7
2023-08-18T18:00	17259	92	-54.6	-82.6	212	6
2023-08-18T18:00	17280	92	-54.5	-82.6	210	6
2023-08-18T18:00	17303	91	-54.4	-82.5	209	6
2023-08-18T18:00	17325	91	-54.5	-82.6	207	6
2023-08-18T18:00	17346	91	-54.5	-82.6	207	6
2023-08-18T18:00	17370	90	-54.6	-82.6	208	7
2023-08-18T18:00	17389	90	-54.7	-82.7	209	7
2023-08-18T18:00	17410	90	-54.8	-82.8	211	7
2023-08-18T18:00	17431	89	-54.8	-82.4	213	7
2023-08-18T18:00	17453	89	-54.9	-82.5	216	6
2023-08-18T18:00	17476	89	-55.0	-82.6	219	6
2023-08-18T18:00	17497	88	-55.1	-82.7	222	6
2023-08-18T18:00	17519	88	-55.2	-82.7	225	6
2023-08-18T18:00	17541	88	-55.3	-82.8	227	6
2023-08-18T18:00	17560	88	-55.3	-82.8	229	6
2023-08-18T18:00	17581	87	-55.3	-82.8	231	7
2023-08-18T18:00	17605	87	-55.2	-82.7	232	7
2023-08-18T18:00	17626	87	-55.3	-82.8	233	7
2023-08-18T18:00	17648	86	-55.3	-82.8	234	7
2023-08-18T18:00	17667	86	-55.5	-83.0	235	7
2023-08-18T18:00	17688	86	-55.6	-83.1	237	7
2023-08-18T18:00	17707	86	-55.7	-83.1	239	7
2023-08-18T18:00	17727	85	-55.8	-83.2	240	7
2023-08-18T18:00	17747	85	-55.9	-83.3	240	6
2023-08-18T18:00	17770	85	-55.9	-83.3	240	6
2023-08-18T18:00	17790	85	-55.8	-83.2	240	6
2023-08-18T18:00	17811	84	-55.9	-83.3	239	5
2023-08-18T18:00	17832	84	-56.0	-83.4	238	4
2023-08-18T18:00	17853	84	-56.1	-83.4	237	4
2023-08-18T18:00	17872	83	-55.9	-83.6	234	3
2023-08-18T18:00	17896	83	-55.5		230	3
2023-08-18T18:00	17915	83	-55.5		222	2
2023-08-18T18:00	17935	83	-55.5		213	3
2023-08-18T18:00	17955	82	-55.5		207	3
2023-08-18T18:00	17977	82	-55.4	-83.3	202	3
2023-08-18T18:00	17997	82	-55.3	-83.2	199	3
2023-08-18T18:00	18017	82	-55.4	-83.3	197	3
2023-08-18T18:00	18040	81	-55.5		196	3
2023-08-18T18:00	18060	81	-55.7	-83.1	194	3
2023-08-18T18:00	18084	81	-55.8	-83.2	193	3
2023-08-18T18:00	18104	80	-56.0	-83.4	190	3
2023-08-18T18:00	18124	80	-56.2	-83.5	184	3
2023-08-18T18:00	18146	80	-56.4	-83.3	177	3
2023-08-18T18:00	18166	80	-56.5	-83.4	169	3
2023-08-18T18:00	18185	79	-56.6	-83.5	162	3
2023-08-18T18:00	18209	79	-56.7	-83.6	156	3
2023-08-18T18:00	18228	79	-56.8	-83.6	152	4
2023-08-18T18:00	18251	79	-56.7	-83.6	149	4
2023-08-18T18:00	18274	78	-56.8	-83.6	147	4
2023-08-18T18:00	18294	78	-56.7	-83.9	147	5
2023-08-18T18:00	18315	78	-56.7	-83.9	147	5
2023-08-18T18:00	18337	78	-56.8	-83.6	147	5
2023-08-18T18:00	18359	77	-56.9	-83.7	149	6
2023-08-18T18:00	18383	77	-56.9	-83.7	151	6
2023-08-18T18:00	18401	77	-57.1	-83.9	155	6
2023-08-18T18:00	18424	77	-57.3	-84.0	160	6
2023-08-18T18:00	18446	76	-57.4	-84.1	167	5
2023-08-18T18:00	18466	76	-57.5	-84.2	175	5
2023-08-18T18:00	18493	76	-57.6	-84.3	186	5
2023-08-18T18:00	18517	75	-57.5	-84.2	197	5
2023-08-18T18:00	18534	75	-57.5	-84.2	210	5
2023-08-18T18:00	18556	75	-57.4	-84.4	223	4
2023-08-18T18:00	18579	75	-57.2	-84.3	235	4
2023-08-18T18:00	18605	74	-57.1	-84.2	246	4
2023-08-18T18:00	18623	74	-57.0	-84.1	257	4
2023-08-18T18:00	18649	74	-57.0	-84.1	267	4
2023-08-18T18:00	18668	74	-57.0	-84.1	277	4
2023-08-18T18:00	18691	73	-56.9	-84.0	284	5
2023-08-18T18:00	18716	73	-56.9	-84.0	290	5
2023-08-18T18:00	18736	73	-57.1	-84.2	295	5
2023-08-18T18:00	18757	73	-57.2	-84.3	298	5
2023-08-18T18:00	18782	72	-57.2	-84.3	302	4
2023-08-18T18:00	18800	72	-57.1	-84.2	306	4
2023-08-18T18:00	18823	72	-57.0	-84.1	311	3
2023-08-18T18:00	18844	72	-57.0	-84.1	317	3
2023-08-18T18:00	18866	71	-57.1	-84.2	323	3
2023-08-18T18:00	18892	71	-57.2	-83.9	329	2
2023-08-18T18:00	18915	71	-57.4	-84.1	335	2
2023-08-18T18:00	18940	71	-57.5	-84.2	341	2
2023-08-18T18:00	18961	70	-57.7	-84.3	351	1
2023-08-18T18:00	18987	70	-57.9	-84.5	10	1
2023-08-18T18:00	19009	70	-57.9	-84.5	37	1
2023-08-18T18:00	19035	69	-57.9	-84.5	64	1
2023-08-18T18:00	19058	69	-57.9	-84.5	80	2
2023-08-18T18:00	19082	69	-57.9	-84.5	91	2
2023-08-18T18:00	19104	69	-57.8	-84.4	100	3
2023-08-18T18:00	19128	68	-57.9	-84.5	106	3
2023-08-18T18:00	19149	68	-57.9	-84.5	112	4
2023-08-18T18:00	19171	68	-57.8	-84.7	118	3
2023-08-18T18:00	19196	68	-57.9	-84.5	122	3
2023-08-18T18:00	19221	67	-57.9	-84.5	128	2
2023-08-18T18:00	19245	67	-57.9	-84.5	136	2
2023-08-18T18:00	19268	67	-57.9	-84.8	149	1
2023-08-18T18:00	19288	67	-58.0	-84.9	163	1
2023-08-18T18:00	19313	66	-57.9	-84.8	168	1
2023-08-18T18:00	19339	66	-57.5	-84.5	162	1
2023-08-18T18:00	19358	66	-57.3	-84.7	151	1
2023-08-18T18:00	19382	66	-57.3	-84.7	138	2
2023-08-18T18:00	19408	65	-57.4	-84.4	127	2
2023-08-18T18:00	19430	65	-57.5	-84.5	120	2
2023-08-18T18:00	19453	65	-57.6	-84.6	115	3
2023-08-18T18:00	19474	65	-57.7	-84.7	114	3
2023-08-18T18:00	19498	65	-57.7	-84.3	114	4
2023-08-18T18:00	19518	64	-57.8	-84.4	115	4
2023-08-18T18:00	19544	64	-57.9	-84.5	118	5
2023-08-18T18:00	19566	64	-58.0	-84.6	122	5
2023-08-18T18:00	19588	64	-58.1	-84.6	127	6
2023-08-18T18:00	19613	63	-58.2	-84.7	133	7
2023-08-18T18:00	19638	63	-58.2	-84.7	139	7
2023-08-18T18:00	19661	63	-58.2	-84.7	145	8
2023-08-18T18:00	19677	63	-58.3	-84.8	150	8
2023-08-18T18:00	19706	62	-58.1	-84.6	155	8
2023-08-18T18:00	19728	62	-58.2	-84.7	160	8
2023-08-18T18:00	19751	62	-58.4	-84.9	165	7
2023-08-18T18:00	19770	62	-58.4	-84.9	172	7
2023-08-18T18:00	19796	62	-58.2	-85.0	178	6
2023-08-18T18:00	19815	61	-58.2	-85.0	185	6
2023-08-18T18:00	19836	61	-58.2	-85.0	192	6
2023-08-18T18:00	19861	61	-58.3	-85.1	199	5
2023-08-18T18:00	19881	61	-58.3	-85.1	205	4
2023-08-18T18:00	19905	60	-58.2	-85.4	209	3
2023-08-18T18:00	19928	60	-57.9	-85.2	209	2
2023-08-18T18:00	19948	60	-57.2	-85.0	202	2
2023-08-18T18:00	19973	60	-56.9	-84.8	183	1
2023-08-18T18:00	19994	60	-56.7	-84.6	158	1
2023-08-18T18:00	20019	59	-56.5	-84.5	146	1
2023-08-18T18:00	20044	59	-56.4	-84.4	152	1
2023-08-18T18:00	20067	59	-56.3	-84.3	180	1
2023-08-18T18:00	20088	59	-56.3	-84.3	222	1
2023-08-18T18:00	20114	59	-56.3	-84.3	246	1
2023-08-18T18:00	20136	58	-56.3	-84.3	261	1
2023-08-18T18:00	20164	58	-56.4	-84.4	272	2
2023-08-18T18:00	20184	58	-56.4	-84.0	282	2
2023-08-18T18:00	20207	58	-56.6	-84.2	291	2
2023-08-18T18:00	20232	57	-56.8	-84.3	299	2
2023-08-18T18:00	20254	57	-56.6	-84.2	308	2
2023-08-18T18:00	20274	57	-56.4	-84.0	318	2
2023-08-18T18:00	20303	57	-56.3	-83.9	334	1
2023-08-18T18:00	20325	57	-56.4	-84.0	5	1
2023-08-18T18:00	20347	56	-56.6	-84.2	48	1
2023-08-18T18:00	20375	56	-56.7	-84.2	77	1
2023-08-18T18:00	20396	56	-56.7	-84.2	94	2
2023-08-18T18:00	20419	56	-56.8	-84.3	107	2
2023-08-18T18:00	20441	56	-56.8	-84.0	117	3
2023-08-18T18:00	20469	55	-56.9	-84.0	125	3
2023-08-18T18:00	20491	55	-57.1	-84.2	131	4
2023-08-18T18:00	20514	55	-57.1	-84.2	135	4
2023-08-18T18:00	20540	55	-57.1	-84.2	138	4
2023-08-18T18:00	20564	55	-57.1	-84.2	140	4
2023-08-18T18:00	20588	54	-57.1	-84.2	142	4
2023-08-18T18:00	20610	54	-57.1	-84.6	144	4
2023-08-18T18:00	20632	54	-56.9	-84.4	145	4
2023-08-18T18:00	20655	54	-56.8	-84.3	145	5
2023-08-18T18:00	20677	54	-56.8	-84.3	144	5
2023-08-18T18:00	20699	53	-56.8	-84.3	142	5
2023-08-18T18:00	20724	53	-56.7	-84.2	142	5
2023-08-18T18:00	20747	53	-56.5	-84.5	142	6
2023-08-18T18:00	20769	53	-56.3	-84.3	144	6
2023-08-18T18:00	20793	53	-56.3	-84.3	147	6
2023-08-18T18:00	20815	52	-56.3	-83.9	152	6
2023-08-18T18:00	20840	52	-56.4	-84.0	157	5
2023-08-18T18:00	20861	52	-56.6	-84.2	163	5
2023-08-18T18:00	20889	52	-56.8	-84.3	168	5
2023-08-18T18:00	20913	52	-56.7	-84.2	172	5
2023-08-18T18:00	20936	51	-56.5	-84.1	173	5
2023-08-18T18:00	20959	51	-56.3	-84.3	172	4
2023-08-18T18:00	20983	51	-56.3	-84.3	168	4
2023-08-18T18:00	21006	51	-56.2	-84.2	162	3
2023-08-18T18:00	21029	51	-56.0	-84.5	156	3
2023-08-18T18:00	21054	50	-55.5	-84.1	153	3
2023-08-18T18:00	21078	50	-55.4	-84.0	153	3
2023-08-18T18:00	21103	50	-55.2	-83.9	157	3
2023-08-18T18:00	21123	50	-55.1	-83.8	162	3
2023-08-18T18:00	21147	50	-55.2	-83.9	167	3
2023-08-18T18:00	21167	50	-55.3	-83.6	169	3
2023-08-18T18:00	21195	49	-55.4	-83.6	169	3
2023-08-18T18:00	21216	49	-55.6	-83.8	166	3
2023-08-18T18:00	21237	49	-55.5	-83.7	160	3
2023-08-18T18:00	21259	49	-55.3	-83.6	151	3
2023-08-18T18:00	21288	49	-55.2	-83.5	141	3
2023-08-18T18:00	21308	49	-55.2	-83.5	133	4
2023-08-18T18:00	21328	48	-55.2	-83.5	127	4
2023-08-18T18:00	21353	48	-55.1	-83.8	126	4
2023-08-18T18:00	21376	48	-55.0	-83.7	129	4
2023-08-18T18:00	21398	48	-55.1	-83.8	135	4
2023-08-18T18:00	21426	48	-55.0	-83.7	143	4
2023-08-18T18:00	21443	47	-54.8	-83.2	151	4
2023-08-18T18:00	21468	47	-54.9	-83.3	159	4
2023-08-18T18:00	21493	47	-55.1	-83.4	167	4
2023-08-18T18:00	21515	47	-55.3	-83.6	175	4
2023-08-18T18:00	21538	47	-55.4	-83.6	184	4
2023-08-18T18:00	21560	47	-55.5		192	4
2023-08-18T18:00	21580	46	-55.6	-83.4	198	4
2023-08-18T18:00	21601	46	-55.8	-83.6	200	3
2023-08-18T18:00	21627	46	-55.9	-84.0	199	3
2023-08-18T18:00	21646	46	-55.6	-83.8	190	2
2023-08-18T18:00	21670	46	-55.4	-83.6	172	2
2023-08-18T18:00	21689	46	-55.4	-83.6	152	2
2023-08-18T18:00	21715	46	-55.4	-83.6	136	2
2023-08-18T18:00	21740	45	-55.4	-83.6	123	2
2023-08-18T18:00	21759	45	-55.3	-83.6	111	2
2023-08-18T18:00	21785	45	-55.2	-83.9	96	2
2023-08-18T18:00	21807	45	-55.1	-83.8	80	2
2023-08-18T18:00	21830	45	-54.9	-83.7	68	2
2023-08-18T18:00	21854	45	-54.8	-83.2	63	3
2023-08-18T18:00	21881	44	-54.9	-83.3	62	3
2023-08-18T18:00	21905	44	-55.1	-83.4	62	4
2023-08-18T18:00	21929	44	-55.3	-83.6	62	5
2023-08-18T18:00	21955	44	-55.1	-83.4	61	5
2023-08-18T18:00	21979	44	-55.2	-83.5	60	6
2023-08-18T18:00	22004	44	-55.2	-83.5	60	6
2023-08-18T18:00	22028	43	-55.2	-83.5	62	7
2023-08-18T18:00	22056	43	-55.1	-83.4	66	7
2023-08-18T18:00	22077	43	-55.0		73	7
2023-08-18T18:00	22108	43	-54.9	-83.3	79	7
2023-08-18T18:00	22130	43	-55.0		85	7
2023-08-18T18:00	22161	42	-55.1	-83.4	88	7
2023-08-18T18:00	22182	42	-55.1	-83.4	90	7
2023-08-18T18:00	22210	42	-55.1	-83.4	90	7
2023-08-18T18:00	22236	42	-55.2	-83.5	89	7
2023-08-18T18:00	22264	42	-55.3	-83.6	86	7
2023-08-18T18:00	22288	42	-55.4	-83.6	83	7
2023-08-18T18:00	22322	41	-55.5	-83.7	78	7
2023-08-18T18:00	22345	41	-55.5		74	7
2023-08-18T18:00	22374	41	-55.6	-83.4	69	7
2023-08-18T18:00	22400	41	-55.8	-83.6	66	7
2023-08-18T18:00	22428	41	-55.9	-83.6	64	7
2023-08-18T18:00	22454	41	-56.0	-83.7	65	7
2023-08-18T18:00	22481	40	-56.1	-83.8	67	8
2023-08-18T18:00	22511	40	-56.2	-83.9	71	8
2023-08-18T18:00	22538	40	-56.2	-83.9	76	8
2023-08-18T18:00	22562	40	-56.3	-83.9	80	8
2023-08-18T18:00	22594	40	-56.3	-83.9	84	8
2023-08-18T18:00	22620	40	-56.4	-84.0	87	8
2023-08-18T18:00	22644	39	-56.6	-83.8	90	8
2023-08-18T18:00	22672	39	-56.8	-84.0	94	8
2023-08-18T18:00	22700	39	-57.0	-84.1	97	8
2023-08-18T18:00	22728	39	-57.2	-84.3	101	8
2023-08-18T18:00	22757	39	-57.3	-84.4	106	8
2023-08-18T18:00	22787	38	-57.4	-84.4	112	8
2023-08-18T18:00	22809	38	-57.5	-84.5	117	8
2023-08-18T18:00	22839	38	-57.6	-84.6	122	8
2023-08-18T18:00	22868	38	-57.6	-84.6	125	8
2023-08-18T18:00	22893	38	-57.4	-84.4	127	7
2023-08-18T18:00	22922	38	-57.5	-84.5	127	7
2023-08-18T18:00	22949	38	-57.6	-84.6	126	6
2023-08-18T18:00	22973	37	-57.4	-84.4	124	5
2023-08-18T18:00	22998	37	-57.5	-84.5	120	4
2023-08-18T18:00	23020	37	-57.5	-84.5	115	4
2023-08-18T18:00	23050	37	-57.5	-84.5	108	4
2023-08-18T18:00	23073	37	-57.5	-84.5	100	4
2023-08-18T18:00	23100	37	-57.6	-84.9	91	4
2023-08-18T18:00	23121	36	-57.6	-84.9	82	4
2023-08-18T18:00	23142	36	-57.4	-84.8	74	4
2023-08-18T18:00	23170	36	-57.1	-84.6	67	4
2023-08-18T18:00	23195	36	-56.9	-84.8	60	4
2023-08-18T18:00	23219	36	-56.9	-84.8	55	5
2023-08-18T18:00	23240	36	-56.9	-84.8	53	5
2023-08-18T18:00	23267	36	-56.6	-84.5	53	6
2023-08-18T18:00	23292	36	-56.5	-84.5	56	6
2023-08-18T18:00	23310	35	-56.5	-84.5	60	6
2023-08-18T18:00	23336	35	-56.4	-84.8	66	7
2023-08-18T18:00	23358	35	-56.0	-84.5	73	7
2023-08-18T18:00	23384	35	-55.8	-84.3	79	7
2023-08-18T18:00	23405	35	-55.5	-84.1	85	7
2023-08-18T18:00	23427	35	-55.6	-84.2	90	7
2023-08-18T18:00	23448	35	-55.7	-84.3	93	7
2023-08-18T18:00	23471	35	-55.9	-84.0	94	7
2023-08-18T18:00	23494	34	-55.8	-83.9	93	7
2023-08-18T18:00	23518	34	-55.6	-84.2	92	7
2023-08-18T18:00	23542	34	-55.5	-84.1	90	7
2023-08-18T18:00	23566	34	-55.4	-84.0	88	6
2023-08-18T18:00	23589	34	-55.4	-84.0	88	6
2023-08-18T18:00	23609	34	-55.3	-84.0	90	6
2023-08-18T18:00	23634	34	-55.3	-84.0	93	5
2023-08-18T18:00	23657	34	-55.3	-84.0	97	5
2023-08-18T18:00	23683	33	-55.2	-83.9	102	5
2023-08-18T18:00	23709	33	-55.2	-83.9	105	5
2023-08-18T18:00	23728	33	-55.2	-83.9	106	5
2023-08-18T18:00	23750	33	-55.2	-83.9	105	5
2023-08-18T18:00	23782	33	-55.1	-83.8	101	5
2023-08-18T18:00	23807	33	-54.9	-83.7	97	6
2023-08-18T18:00	23832	33	-54.8	-83.6	92	6
2023-08-18T18:00	23856	33	-54.7	-83.9	89	6
2023-08-18T18:00	23885	32	-54.6	-83.9	87	6
2023-08-18T18:00	23912	32	-54.5	-83.8	87	6
2023-08-18T18:00	23936	32	-54.4	-83.7	87	6
2023-08-18T18:00	23963	32	-54.4	-83.7	87	6
2023-08-18T18:00	23991	32	-54.4	-83.7	87	6
2023-08-18T18:00	24023	32	-54.3	-83.6	86	6
2023-08-18T18:00	24044	32	-54.3	-83.6	84	6
2023-08-18T18:00	24073	31	-54.1	-83.5	83	6
2023-08-18T18:00	24104	31	-53.9	-83.3	82	6
2023-08-18T18:00	24131	31	-53.7	-83.2	83	6
2023-08-18T18:00	24157	31	-53.8	-83.3	84	6
2023-08-18T18:00	24186	31	-53.7	-83.2	85	6
2023-08-18T18:00	24214	31	-53.5	-83.0	87	7
2023-08-18T18:00	24243	31	-53.4	-83.0	90	7
2023-08-18T18:00	24266	30	-53.3	-82.9	94	8
2023-08-18T18:00	24301	30	-53.1	-82.7	98	8
2023-08-18T18:00	24320	30	-53.1	-82.7	103	8
2023-08-18T18:00	24352	30	-53.0	-82.7	108	9
2023-08-18T18:00	24378	30	-53.0	-82.7	112	9
2023-08-18T18:00	24407	30	-53.1	-82.7	115	9
2023-08-18T18:00	24439	30	-53.2	-82.8	117	8
2023-08-18T18:00	24468	30	-53.3	-82.9	116	8
2023-08-18T18:00	24495	29	-53.5	-83.0	113	8
2023-08-18T18:00	24528	29	-53.6	-83.1	110	8
2023-08-18T18:00	24549	29	-53.4	-83.0	107	7
2023-08-18T18:00	24579	29	-53.4	-83.0	104	7
2023-08-18T18:00	24607	29	-53.3	-82.9	102	6
2023-08-18T18:00	24636	29	-53.3	-82.9	99	6
2023-08-18T18:00	24658	29	-53.5	-83.0	95	6
2023-08-18T18:00	24689	29	-53.6	-83.1	90	6
2023-08-18T18:00	24710	28	-53.7	-83.2	84	6
2023-08-18T18:00	24736	28	-53.7	-83.2	78	7
2023-08-18T18:00	24768	28	-53.5	-83.0	75	8
2023-08-18T18:00	24788	28	-53.5	-83.0	73	9
2023-08-18T18:00	24811	28	-53.5	-83.0	72	10
2023-08-18T18:00	24841	28	-53.4	-83.0	72	12
2023-08-18T18:00	24863	28	-53.1	-82.7	73	13
2023-08-18T18:00	24894	28	-52.8	-82.5	73	13
2023-08-18T18:00	24915	28	-52.9	-82.6	73	14
2023-08-18T18:00	24957	27	-53.1	-82.7	74	15
2023-08-18T18:00	24977	27	-53.2	-82.8	74	15
2023-08-18T18:00	24994	27	-53.2	-82.8	75	15
2023-08-18T18:00	25028	27	-53.3	-82.5	76	15
2023-08-18T18:00	25049	27	-53.5	-82.6	77	15
2023-08-18T18:00	25076	27	-53.7	-82.8	78	15
2023-08-18T18:00	25107	27	-53.9	-82.9	79	15
2023-08-18T18:00	25135	27	-54.0	-83.0	80	15
2023-08-18T18:00	25159	27	-54.0	-83.0	80	14
2023-08-18T18:00	25186	26	-54.1	-83.1	81	14
2023-08-18T18:00	25217	26	-54.2	-83.1	82	13
2023-08-18T18:00	25232	26	-54.1	-83.1	83	12
2023-08-18T18:00	25265	26	-54.1	-83.1	85	11
2023-08-18T18:00	25293	26	-53.9	-83.3	86	11
2023-08-18T18:00	25316	26	-53.8	-83.3	88	10
2023-08-18T18:00	25342	26	-53.8	-83.3	91	10
2023-08-18T18:00	25369	26	-53.8	-83.3	92	10
2023-08-18T18:00	25389	26	-53.9	-83.3	94	9
2023-08-18T18:00	25412	26	-53.9	-83.3	94	9
2023-08-18T18:00	25443	25	-53.8	-83.3	93	9
2023-08-18T18:00	25466	25	-53.6	-83.1	91	9
2023-08-18T18:00	25492	25	-53.3		88	8
2023-08-18T18:00	25516	25	-52.9	-83.1	85	8
2023-08-18T18:00	25550	25	-52.7	-82.9	82	8
2023-08-18T18:00	25567	25	-52.7	-82.9	80	8
2023-08-18T18:00	25597	25	-52.4	-83.2	78	8
2023-08-18T18:00	25619	25	-52.1	-83.0	77	8
2023-08-18T18:00	25653	25	-51.8	-82.8	77	8
2023-08-18T18:00	25674	25	-51.6	-82.6	78	7
2023-08-18T18:00	25704	24	-51.6	-82.6	80	7
2023-08-18T18:00	25731	24	-51.6	-82.1	84	7
2023-08-18T18:00	25758	24	-51.6	-82.1	88	7
2023-08-18T18:00	25787	24	-51.6	-82.1	92	7
2023-08-18T18:00	25814	24	-51.7	-82.2	95	8
2023-08-18T18:00	25843	24	-51.8	-82.2	96	8
2023-08-18T18:00	25869	24	-51.8	-82.2	96	8
2023-08-18T18:00	25893	24	-51.9	-82.3	94	8
2023-08-18T18:00	25928	24	-51.9	-82.3	92	8
2023-08-18T18:00	25953	23	-51.9	-82.3	88	8
2023-08-18T18:00	25981	23	-51.6	-82.1	85	9
2023-08-18T18:00	26005	23	-51.2	-82.3	81	9
2023-08-18T18:00	26031	23	-50.9	-82.1	79	9
2023-08-18T18:00	26063	23	-50.8	-82.0	77	9
2023-08-18T18:00	26081	23	-50.9	-82.1	76	10
2023-08-18T18:00	26111	23	-50.8	-82.0	77	10
2023-08-18T18:00	26138	23	-50.6	-81.9	80	10
2023-08-18T18:00	26163	23	-49.9	-81.9	84	10
2023-08-18T18:00	26190	23	-49.6	-81.7	88	9
2023-08-18T18:00	26213	23	-49.5	-81.6	92	9
2023-08-18T18:00	26233	22	-49.1	-81.3	95	8
2023-08-18T18:00	26272	22	-48.8		97	8
2023-08-18T18:00	26293	22	-48.5	-80.9	99	7
2023-08-18T18:00	26318	22	-48.4	-80.8	99	7
2023-08-18T18:00	26346	22	-48.4	-80.8	99	7
2023-08-18T18:00	26375	22	-48.3	-80.7	97	7
2023-08-18T18:00	26402	22	-48.2	-80.7	95	7
2023-08-18T18:00	26423	22	-48.1	-80.6	93	8
2023-08-18T18:00	26454	22	-48.0	-80.5	92	8
2023-08-18T18:00	26481	22	-48.1	-80.6	91	8
2023-08-18T18:00	26506	22	-48.0	-80.5	90	8
2023-08-18T18:00	26536	21	-48.0	-80.5	91	8
2023-08-18T18:00	26564	21	-48.0	-80.5	91	8
2023-08-18T18:00	26587	21	-47.8	-80.4	92	8
2023-08-18T18:00	26618	21	-47.7	-80.3	92	8
2023-08-18T18:00	26643	21	-47.7	-80.3	93	8
2023-08-18T18:00	26668	21	-47.7	-80.3	94	8
2023-08-18T18:00	26704	21	-47.8	-80.4	95	8
2023-08-18T18:00	26732	21	-48.0	-80.5	96	8
2023-08-18T18:00	26759	21	-48.1	-80.0	99	8
2023-08-18T18:00	26782	21	-48.2	-80.1	101	8
2023-08-18T18:00	26822	21	-48.2	-80.1	103	8
2023-08-18T18:00	26842	21	-48.3	-80.2	104	8
2023-08-18T18:00	26877	20	-48.4	-80.2	104	8
2023-08-18T18:00	26904	20	-48.5	-80.3	104	8
2023-08-18T18:00	26936	20	-48.5	-80.3	102	8
2023-08-18T18:00	26957	20	-48.5	-80.3	101	8
2023-08-18T18:00	26998	20	-48.4	-80.8	99	8
2023-08-18T18:00	27023	20	-48.4	-80.8	98	8
2023-08-18T18:00	27048	20	-48.4	-80.8	98	8
2023-08-18T18:00	27080	20	-48.4	-80.8	100	8
2023-08-18T18:00	27119	20	-48.2	-80.7	102	8
2023-08-18T18:00	27133	20	-48.2	-80.7	104	8
2023-08-18T18:00	27177	20	-48.1	-80.6	107	9
2023-08-18T18:00	27210	19	-48.0	-80.5	110	9
2023-08-18T18:00	27225	19	-48.1	-80.6	112	9
2023-08-18T18:00	27254	19	-48.1	-80.6	114	9
2023-08-18T18:00	27282	19	-48.0	-80.5	117	9
2023-08-18T18:00	27310	19	-47.9	-80.4	119	9
2023-08-18T18:00	27335	19	-47.8	-80.4	121	8
2023-08-18T18:00	27369	19	-47.6	-80.2	123	8
2023-08-18T18:00	27388	19	-47.4	-80.1	125	7
2023-08-18T18:00	27429	19	-47.3	-80.0	127	6
2023-08-18T18:00	27438	19	-47.2	-79.9	130	5
2023-08-18T18:00	27455	19	-47.2	-79.9	132	5
2023-08-18T18:00	27494	19	-47.1	-79.9	131	4
2023-08-18T18:00	27515	19	-47.2	-79.9	127	3
2023-08-18T18:00	27544	18	-47.1	-79.9	116	3
2023-08-18T18:00	27565	18	-47.0	-79.8	100	2
2023-08-18T18:00	27592	18	-46.9	-80.4	82	2
2023-08-18T18:00	27616	18	-46.7	-80.2	67	2
2023-08-18T18:00	27650	18	-46.7	-80.2	54	1
2023-08-18T18:00	27670	18	-46.7	-80.2	41	1
2023-08-18T18:00	27697	18	-46.6	-80.1	27	1
2023-08-18T18:00	27730	18	-46.5	-80.1	17	2
2023-08-18T18:00	27750	18	-46.3	-79.9	12	2
2023-08-18T18:00	27782	18	-46.0	-79.7	11	3
2023-08-18T18:00	27810	18	-45.9	-79.6	12	3
2023-08-18T18:00	27824	18	-45.7	-79.5	15	4
2023-08-18T18:00	27861	18	-45.6		19	4
2023-08-18T18:00	27886	18	-45.5	-79.3	23	5
2023-08-18T18:00	27907	17	-45.6		28	5
2023-08-18T18:00	27949	17	-45.4	-79.3	32	5
2023-08-18T18:00	27956	17	-45.2	-79.1	35	5
2023-08-18T18:00	27990	17	-45.1	-79.0	36	6
2023-08-18T18:00	28025	17	-45.1	-79.0	38	6
2023-08-18T18:00	28052	17	-45.1	-79.0	40	6
2023-08-18T18:00	28065	17	-45.1	-79.0	42	6
2023-08-18T18:00	28101	17	-44.9	-78.9	46	6
2023-08-18T18:00	28141	17	-44.9	-78.9	51	7
2023-08-18T18:00	28152	17	-44.9	-78.9	56	7
2023-08-18T18:00	28173	17	-44.7	-78.8	61	7
2023-08-18T18:00	28202	17	-44.7	-78.8	65	8
2023-08-18T18:00	28235	17	-44.8	-78.8	68	8
2023-08-18T18:00	28255	17	-44.9	-78.9	70	8
2023-08-18T18:00	28280	17	-45.0	-79.0	71	8
2023-08-18T18:00	28312	16	-45.0	-79.0	71	8
2023-08-18T18:00	28334	16	-44.9	-78.9	71	8
2023-08-18T18:00	28373	16	-44.8	-78.8	72	8
2023-08-18T18:00	28392	16	-44.7	-78.8	74	8
2023-08-18T18:00	28416	16	-44.6	-78.7	77	8
2023-08-18T18:00	28444	16	-44.6	-79.4	80	8
2023-08-18T18:00	28466	16	-44.5	-79.3	82	7
2023-08-18T18:00	28508	16	-44.4	-79.3	83	7
2023-08-18T18:00	28523	16	-44.4	-79.3	83	7
2023-08-18T18:00	28553	16	-44.3	-79.2	81	6
2023-08-18T18:00	28597	16	-44.2	-79.1	80	6
2023-08-18T18:00	28616	16	-44.1	-79.0	79	6
2023-08-18T18:00	28630	16	-44.1	-79.0	79	6
2023-08-18T18:00	28669	16	-44.0	-79.0	80	5
2023-08-18T18:00	28687	16	-43.8	-78.8	83	5
2023-08-18T18:00	28729	15	-43.7	-78.8	85	5
2023-08-18T18:00	28750	15	-43.7	-78.8	87	5
2023-08-18T18:00	28767	15	-43.8	-78.8	87	5
2023-08-18T18:00	28797	15	-43.8	-78.8	86	5
2023-08-18T18:00	28825	15	-43.7	-78.8	85	5
2023-08-18T18:00	28848	15	-43.8	-78.8	85	5
2023-08-18T18:00	28885	15	-43.8	-78.8	85	5
2023-08-18T18:00	28907	15	-43.8	-78.8	84	5
2023-08-18T18:00	28939	15	-43.9	-78.2	84	5
2023-08-18T18:00	28974	15	-44.0	-78.2	82	5
2023-08-18T18:00	28986	15	-44.1	-78.3	81	6
2023-08-18T18:00	29024	15	-44.3	-78.5	79	6
2023-08-18T18:00	29041	15	-44.3	-78.5	78	6
2023-08-18T18:00	29084	15	-44.4	-78.5	77	7
2023-08-18T18:00	29104	15	-44.4	-78.5	76	7
2023-08-18T18:00	29138	15	-44.3	-79.2	76	8
2023-08-18T18:00	29157	15	-44.4	-79.3	75	8
2023-08-18T18:00	29184	14	-44.4	-79.3	75	8
2023-08-18T18:00	29210	14	-44.3	-79.2	74	8
2023-08-18T18:00	29246	14	-44.2	-79.1	74	8
2023-08-18T18:00	29271	14	-44.2	-79.1	73	8
2023-08-18T18:00	29296	14	-44.1	-79.0	73	7
2023-08-18T18:00	29321	14	-44.1	-79.0	74	7
2023-08-18T18:00	29339	14	-44.1	-79.0	77	6
2023-08-18T18:00	29368	14	-44.1	-79.0	80	6
2023-08-18T18:00	29399	14	-44.2	-79.1	84	6
2023-08-18T18:00	29423	14	-44.2	-79.1	87	7
2023-08-18T18:00	29445	14	-44.3	-79.2	90	8
2023-08-18T18:00	29478	14	-44.4	-78.5	92	8
2023-08-18T18:00	29508	14	-44.4	-78.5	93	9
2023-08-18T18:00	29526	14	-44.5	-78.6	95	9
2023-08-18T18:00	29548	14	-44.6	-78.7	97	9
2023-08-18T18:00	29570	14	-44.7	-78.8	99	9
2023-08-18T18:00	29606	14	-44.8	-78.8	101	9
2023-08-18T18:00	29625	14	-44.8	-78.8	103	8
2023-08-18T18:00	29655	13	-44.6	-79.4	105	7
2023-08-18T18:00	29683	13	-44.4	-79.3	106	7
2023-08-18T18:00	29697	13	-44.4	-79.3	107	6
2023-08-18T18:00	29724	13	-44.4	-79.3	107	5
2023-08-18T18:00	29750	13	-44.4	-79.3	104	4
2023-08-18T18:00	29787	13	-44.4	-79.3	98	3
2023-08-18T18:00	29806	13	-44.4	-79.3	82	2
2023-08-18T18:00	29838	13	-44.0	-79.0	58	2
2023-08-18T18:00	29845	13	-43.9	-78.9	41	2
2023-08-18T18:00	29881	13	-43.9	-78.9	37	3
2023-08-18T18:00	29914	13	-43.8	-78.8	39	3
2023-08-18T18:00	29936	13	-43.7	-78.8	46	4
2023-08-18T18:00	29961	13	-43.7	-78.8	52	5
2023-08-18T18:00	29994	13	-43.4	-78.5	59	5
2023-08-18T18:00	30019	13	-43.1	-78.3	65	6
2023-08-18T18:00	30051	13	-43.0	-78.3	71	7
2023-08-18T18:00	30087	13	-42.9	-78.2	76	7
2023-08-18T18:00	30114	13	-42.9	-79.0	80	8
2023-08-18T18:00	30142	13	-42.9	-79.0	84	8
2023-08-18T18:00	30185	12	-42.7	-78.9	87	8
2023-08-18T18:00	30195	12	-42.6	-78.8	91	7
2023-08-18T18:00	30238	12	-42.7	-78.9	93	7
2023-08-18T18:00	30266	12	-42.6	-78.8	94	7
2023-08-18T18:00	30298	12	-42.5	-78.7	91	6
2023-08-18T18:00	30338	12	-42.3		86	6
2023-08-18T18:00	30376	12	-42.0	-78.4	81	7
2023-08-18T18:00	30393	12	-41.9	-78.3	78	8
2023-08-18T18:00	30425	12	-41.7	-78.2	79	9
2023-08-18T18:00	30467	12	-41.2	-77.8	81	9
2023-08-18T18:00	30495	12	-40.8	-77.5	85	10
2023-08-18T18:00	30522	12	-40.7	-77.4	89	11
2023-08-18T18:00	30570	12	-40.7	-77.4	93	11
2023-08-18T18:00	30593	12	-40.6	-77.4	96	12
2023-08-18T18:00	30622	12	-40.6	-77.4	98	12
2023-08-18T18:00	30657	12	-40.6	-77.4	99	12
2023-08-18T18:00	30693	12	-40.8	-77.5	100	12
2023-08-18T18:00	30735	11	-41.0	-77.7	100	12
2023-08-18T18:00	30760	11	-41.1	-77.7	100	12
2023-08-18T18:00	30787	11	-41.1	-77.7	101	11
2023-08-18T18:00	30823	11	-41.0	-77.7	102	11
2023-08-18T18:00	30862	11	-41.2	-77.8	104	10
2023-08-18T18:00	30883	11	-41.3	-77.9	107	10
2023-08-18T18:00	30903	11	-41.4	-77.9	110	10
2023-08-18T18:00	30946	11	-41.4	-77.9	112	10
2023-08-18T18:00	30962	11	-41.5	-78.0	113	9
2023-08-18T18:00	31017	11	-41.7	-78.2	114	9
2023-08-18T18:00	31039	11	-41.9	-78.3	114	9
2023-08-18T18:00	31070	11	-41.7	-78.2	114	9
2023-08-18T18:00	31081	11	-41.5	-78.0	115	9
2023-08-18T18:00	31112	11	-41.5	-78.0	116	8
2023-08-18T18:00	31157	11	-41.5	-78.0	119	8
2023-08-18T18:00	31180	11	-41.4	-77.9	122	8
2023-08-18T18:00	31203	11	-41.3	-77.9	126	8
2023-08-18T18:00	31231	11	-41.1	-77.7	129	8
2023-08-18T18:00	31270	11	-41.0	-77.7	131	8
2023-08-18T18:00	31283	11	-41.0	-77.7	133	8
2023-08-18T18:00	31320	11	-41.0	-77.7	134	7
2023-08-18T18:00	31334	11	-40.7	-77.4	133	7
2023-08-18T18:00	31372	10	-40.5		131	6
2023-08-18T18:00	31390	10	-40.4	-77.2	128	6
2023-08-18T18:00	31407	10	-40.3	-77.2	121	5
2023-08-18T18:00	31441	10	-40.3	-77.2	113	5
2023-08-18T18:00	31467	10	-40.3	-77.2	103	5
2023-08-18T18:00	31497	10	-40.3	-77.2	93	5
2023-08-18T18:00	31520	10	-40.0	-77.9	87	6
2023-08-18T18:00	31546	10	-39.8	-77.8	84	6
2023-08-18T18:00	31580	10	-39.8	-77.8	82	7
2023-08-18T18:00	31584	10	-39.8	-77.8	81	8
2023-08-18T18:00	31626	10	-39.8	-77.8	81	8
2023-08-18T18:00	31656	10	-39.7	-77.7	82	8
2023-08-18T18:00	31681	10	-39.7	-77.7	83	8
2023-08-18T18:00	31701	10	-39.8	-76.8	85	9
2023-08-18T18:00	31726	10	-39.8	-76.8	87	9
2023-08-18T18:00	31755	10	-39.8	-76.8	90	9
2023-08-18T18:00	31786	10	-39.9	-76.9	93	9
2023-08-18T18:00	31795	10	-40.1	-77.0	96	10
2023-08-18T18:00	31842	10	-40.2	-77.1	99	10
2023-08-18T18:00	31854	10	-40.3	-77.2	102	10
2023-08-18T18:00	31890	10	-40.2	-77.1	106	9
2023-08-18T18:00	31927	10	-40.1	-77.0	109	9
2023-08-18T18:00	31958	10	-40.1	-77.0	112	8
2023-08-18T18:00	31990	10	-40.1	-77.0	114	7
2023-08-18T18:00	32003	10	-40.1	-77.0	116	7
2023-08-18T18:00	32024	9	-40.2	-77.1	118	6
2023-08-18T18:00	32053	9	-40.2	-77.1	119	5
2023-08-18T18:00	32098	9	-40.0	-76.9	118	4
2023-08-18T18:00	32101	9	-39.9	-76.9	116	4
2023-08-18T18:00	32128	9	-39.9	-76.9	111	3
2023-08-18T18:00	32151	9	-39.9	-76.9	103	3
2023-08-18T18:00	32201	9	-39.9	-77.8	92	3
2023-08-18T18:00	32229	9	-39.9	-77.8	82	3
2023-08-18T18:00	32231	9	-39.9	-77.8	75	4
2023-08-18T18:00	32284	9	-39.8	-77.8	72	5
2023-08-18T18:00	32312	9	-39.7	-77.7	70	6
2023-08-18T18:00	32327	9	-39.7	-77.7	70	7
2023-08-18T18:00	32356	9	-39.7	-77.7	70	8
2023-08-18T18:00	32385	9	-39.6	-77.6	71	9
2023-08-18T18:00	32426	9	-39.6	-77.6	72	10
2023-08-18T18:00	32457	9	-39.3	-77.4	74	11
2023-08-18T18:00	32483	9	-39.1	-77.3	77	11
2023-08-18T18:00	32494	9	-39.0	-77.2	79	11
2023-08-18T18:00	32512	9	-38.8	-77.1	80	11
2023-08-18T18:00	32551	9	-38.7	-77.0	82	11
2023-08-18T18:00	32594	9	-38.5	-76.9	83	10
2023-08-18T18:00	32605	9	-38.3	-76.7	85	9
2023-08-18T18:00	32619	9	-38.2	-76.6	88	9
2023-08-18T18:00	32644	9	-38.0	-76.5	91	8
2023-08-18T18:00	32687	9	-37.9	-76.4	95	7
2023-08-18T18:00	32724	9	-37.8	-76.4	99	7
2023-08-18T18:00	32745	9	-37.7	-76.3	102	6
2023-08-18T18:00	32764	9	-37.5	-76.2	103	6
2023-08-18T18:00	32791	9	-37.4	-77.2	102	5
2023-08-18T18:00	32812	8	-37.3	-77.2	98	5
2023-08-18T18:00	32844	8	-37.1	-77.0	93	5
2023-08-18T18:00	32873	8	-36.7	-76.7	88	5
2023-08-18T18:00	32909	8	-36.6	-76.7	83	5
2023-08-18T18:00	32934	8	-36.5	-76.6	78	5
2023-08-18T18:00	32964	8	-36.5	-76.6	74	5
2023-08-18T18:00	32974	8	-36.5	-76.6	70	5
2023-08-18T18:00	33029	8	-36.3	-76.5	66	5
2023-08-18T18:00	33034	8	-36.2	-76.4	62	6
2023-08-18T18:00	33071	8	-36.0	-76.3	60	6
2023-08-18T18:00	33110	8	-35.9	-76.2	59	6
2023-08-18T18:00	33128	8	-36.0	-76.3	59	7
2023-08-18T18:00	33166	8	-36.1	-76.3	61	7
2023-08-18T18:00	33178	8	-36.3	-76.5	63	8
2023-08-18T18:00	33206	8	-36.4	-76.5	66	8
2023-08-18T18:00	33243	8	-36.6	-76.7	70	8
2023-08-18T18:00	33274	8	-36.6	-76.7	74	9
2023-08-18T18:00	33307	8	-36.5	-76.6	78	9
2023-08-18T18:00	33331	8	-36.4	-76.5	82	9
2023-08-18T18:00	33371	8	-36.3	-76.5	85	10
2023-08-18T18:00	33421	8	-36.1	-76.3	88	10
2023-08-18T18:00	33447	8	-36.0	-76.3	90	11
2023-08-18T18:00	33462	8	-36.1	-76.3	92	11
2023-08-18T18:00	33493	8	-36.2	-76.4	93	11
2023-08-18T18:00	33517	8	-36.3	-76.5	95	11
2023-08-18T18:00	33565	8	-36.2	-76.4	97	11
2023-08-18T18:00	33588	8	-36.2	-76.4	101	11
2023-08-18T18:00	33619	8	-36.1	-76.3	104	11
2023-08-18T18:00	33660	8	-36.1	-76.3	108	11
2023-08-18T18:00	33703	7	-35.9	-76.2	111	12
2023-08-18T18:00	33725	7	-35.6	-76.0	113	12
2023-08-18T18:00	33753	7	-35.4	-75.8	116	11
2023-08-18T18:00	33777	7	-35.5	-75.9	119	11
2023-08-19T00:00	112	1004	21.8	19.5	80	3
2023-08-19T00:00	134	1002	22.1	19.4	84	3
2023-08-19T00:00	156	999	22.5	18.8	94	4
2023-08-19T00:00	179	997	23.1	18.4	102	5
2023-08-19T00:00	197	994	23.1	18.3	109	6
2023-08-19T00:00	221	992	23.5	18.2	114	6
2023-08-19T00:00	244	989	23.5	18.1	119	7
2023-08-19T00:00	271	986	23.7		122	7
2023-08-19T00:00	297	983	23.7	17.9	125	8
2023-08-19T00:00	320	981	23.7	17.7	128	8
2023-08-19T00:00	343	978	23.7	17.6	130	8
2023-08-19T00:00	366	975	23.6	17.4	133	9
2023-08-19T00:00	389	973	23.5	17.7	136	9
2023-08-19T00:00	413	970	23.5	17.7	139	8
2023-08-19T00:00	439	968	23.4	17.5	142	8
2023-08-19T00:00	462	965	23.3	17.2	145	8
2023-08-19T00:00	485	962	23.2	16.7	147	7
2023-08-19T00:00	508	960	23.1	16.2	150	7
2023-08-19T00:00	532	957	23.0	16.4	153	7
2023-08-19T00:00	554	954	22.8	16.3	155	7
2023-08-19T00:00	579	952	22.7	16.6	156	7
2023-08-19T00:00	606	949	22.4	16.4	157	7
2023-08-19T00:00	632	946	22.3	16.0	158	7
2023-08-19T00:00	655	944	22.2	15.7	159	7
2023-08-19T00:00	679	941	22.0	15.4	161	7
2023-08-19T00:00	706	938	21.8	15.4	163	7
2023-08-19T00:00	733	935	21.5	15.3	165	7
2023-08-19T00:00	757	933	21.4	15.3	166	6
2023-08-19T00:00	783	930	21.2	15.1	167	6
2023-08-19T00:00	805	928	21.1	14.8	168	6
2023-08-19T00:00	829	925	21.0	14.6	168	6
2023-08-19T00:00	853	922	20.8	14.4	168	6
2023-08-19T00:00	878	920	20.6	14.3	168	6
2023-08-19T00:00	902	917	20.4	14.2	168	6
2023-08-19T00:00	930	914	20.2	14.3	169	6
2023-08-19T00:00	953	912	20.0	14.2	170	5
2023-08-19T00:00	980	909	19.7	14.1	171	5
2023-08-19T00:00	1004	906	19.5	13.9	174	4
2023-08-19T00:00	1028	904	19.3	13.8	179	4
2023-08-19T00:00	1050	902	19.1	13.8	185	4
2023-08-19T00:00	1072	899	18.9	13.8	192	4
2023-08-19T00:00	1096	897	18.7	13.8	197	4
2023-08-19T00:00	1115	895	18.5	13.7	200	5
2023-08-19T00:00	1133	893	18.4	13.7	200	5
2023-08-19T00:00	1154	891	18.2	13.6	197	5
2023-08-19T00:00	1177	888	18.0	13.6	193	4
2023-08-19T00:00	1199	886	17.8	13.4	189	4
2023-08-19T00:00	1217	884	17.6	13.3	185	4
2023-08-19T00:00	1240	882	17.5	13.4	180	3
2023-08-19T00:00	1269	879	17.2	13.2	175	3
2023-08-19T00:00	1294	876	17.2	12.6	168	2
2023-08-19T00:00	1323	874	17.0	12.8	163	2
2023-08-19T00:00	1346	871	16.9	12.4	163	2
2023-08-19T00:00	1373	868	16.7	12.0	168	2
2023-08-19T00:00	1396	866	16.5	11.9	175	1
2023-08-19T00:00	1418	864	16.3	11.7	179	1
2023-08-19T00:00	1443	861	16.1	11.4	176	1
2023-08-19T00:00	1464	859	16.0	11.0	164	1
2023-08-19T00:00	1486	857	15.8		147	0
2023-08-19T00:00	1515	854	15.6	10.5	145	0
2023-08-19T00:00	1544	851	15.4	10.2	258	0
2023-08-19T00:00	1572	848	15.2	9.6	287	0
2023-08-19T00:00	1600	845	15.0	9.7	296	0
2023-08-19T00:00	1627	843	14.7	9.6	303	0
2023-08-19T00:00	1649	841	14.5	9.4	307	0
2023-08-19T00:00	1672	838	14.3	9.3	295	0
2023-08-19T00:00	1700	836	14.1	9.3	255	0
2023-08-19T00:00	1724	833	13.9	9.1	220	0
2023-08-19T00:00	1750	831	13.6	8.8	234	0
2023-08-19T00:00	1777	828	13.4	8.8	332	0
2023-08-19T00:00	1803	825	13.2	8.8	336	0
2023-08-19T00:00	1825	823	13.1	8.0	327	0
2023-08-19T00:00	1846	821	13.0	7.6	310	0
2023-08-19T00:00	1871	819	12.8	7.2	248	0
2023-08-19T00:00	1896	816	12.7	7.1	160	0
2023-08-19T00:00	1919	814	12.3	8.6	139	0
2023-08-19T00:00	1946	811	12.1	8.3	132	0
2023-08-19T00:00	1971	809	12.1	7.0	135	0
2023-08-19T00:00	1992	807	12.2	6.2	238	0
2023-08-19T00:00	2014	805	12.1	6.0	263	0
2023-08-19T00:00	2035	803	11.9	5.8	257	0
2023-08-19T00:00	2064	800	11.7	5.7	246	1
2023-08-19T00:00	2088	798	11.5	5.6	237	1
2023-08-19T00:00	2113	795	11.5	5.1	233	1
2023-08-19T00:00	2141	793	11.4	5.2	228	1
2023-08-19T00:00	2164	791	11.3	5.1	215	1
2023-08-19T00:00	2186	789	11.2	4.7	194	1
2023-08-19T00:00	2204	787	11.1	4.8	177	2
2023-08-19T00:00	2226	785	11.3	3.8	168	2
2023-08-19T00:00	2246	783	11.3	3.8	165	3
2023-08-19T00:00	2265	781	11.1	3.7	167	3
2023-08-19T00:00	2291	779	10.9	4.0	172	3
2023-08-19T00:00	2315	777	10.7	3.9	182	2
2023-08-19T00:00	2336	774	10.5	4.9	194	2
2023-08-19T00:00	2361	772	10.4	5.5	203	2
2023-08-19T00:00	2383	770	10.2	5.6	206	2
2023-08-19T00:00	2402	768	10.0	5.6	204	2
2023-08-19T00:00	2424	766	9.9	5.6	197	2
2023-08-19T00:00	2450	764	9.8	5.7	186	1
2023-08-19T00:00	2482	761	9.6	5.4	167	1
2023-08-19T00:00	2506	759	9.5	5.3	129	1
2023-08-19T00:00	2529	757	9.3	5.1	81	1
2023-08-19T00:00	2555	754	9.1	4.9	57	1
2023-08-19T00:00	2577	752	9.0	5.0	51	1
2023-08-19T00:00	2606	750	8.7	4.8	53	2
2023-08-19T00:00	2624	748	8.5	4.8	62	2
2023-08-19T00:00	2645	746	8.4		76	2
2023-08-19T00:00	2668	744	8.1	4.7	92	2
2023-08-19T00:00	2691	742	7.9	4.8	105	2
2023-08-19T00:00	2713	740	7.7	4.7	110	2
2023-08-19T00:00	2736	738	7.5	4.7	108	2
2023-08-19T00:00	2760	736	7.3	4.8	99	2
2023-08-19T00:00	2782	734	7.2	4.5	83	1
2023-08-19T00:00	2800	732	7.1	4.3	56	1
2023-08-19T00:00	2826	730	6.9	3.7	21	1
2023-08-19T00:00	2847	728	7.0	3.2	358	1
2023-08-19T00:00	2873	726	7.0	3.4	348	1
2023-08-19T00:00	2900	724	6.9	3.0	346	1
2023-08-19T00:00	2922	722	6.8	2.7	344	2
2023-08-19T00:00	2943	720	6.6	2.5	339	2
2023-08-19T00:00	2963	718	6.5	2.4	332	2
2023-08-19T00:00	2990	716	6.3	2.1	323	1
2023-08-19T00:00	3012	714	6.1	1.8	314	1
2023-08-19T00:00	3038	712	5.9	1.3	308	1
2023-08-19T00:00	3060	710	5.8	0.4	306	1
2023-08-19T00:00	3086	707	5.7	0.2	308	1
2023-08-19T00:00	3110	705	5.5	0.0	317	1
2023-08-19T00:00	3134	703	5.5	-1.1	329	1
2023-08-19T00:00	3160	701	5.4	-1.5	340	1
2023-08-19T00:00	3189	699	5.3	-1.8	347	1
2023-08-19T00:00	3214	696	5.1	-2.0	352	1
2023-08-19T00:00	3244	694	4.9	-1.4	355	1
2023-08-19T00:00	3276	691	4.7	-1.5	352	0
2023-08-19T00:00	3300	689	5.0	-3.1	342	0
2023-08-19T00:00	3326	687	4.9	-1.3	338	1
2023-08-19T00:00	3352	685	4.8	-1.5	342	1
2023-08-19T00:00	3377	683	4.5	-1.2	348	2
2023-08-19T00:00	3405	680	4.5	-1.3	352	2
2023-08-19T00:00	3435	678	4.3	-1.8	355	3
2023-08-19T00:00	3460	676	4.1	-2.1	357	3
2023-08-19T00:00	3484	674	3.9	-2.0	358	3
2023-08-19T00:00	3511	671	3.6	-2.3	359	4
2023-08-19T00:00	3532	670	3.5	-2.0	2	4
2023-08-19T00:00	3550	668	3.3	-2.3	6	4
2023-08-19T00:00	3574	666	3.1	-2.5	9	4
2023-08-19T00:00	3604	664	2.9	-2.6	11	4
2023-08-19T00:00	3630	662	2.7	-2.5	11	4
2023-08-19T00:00	3659	659	2.5	-2.6	9	4
2023-08-19T00:00	3686	657	2.4	-2.6	5	4
2023-08-19T00:00	3706	655	2.2	-2.6	3	4
2023-08-19T00:00	3734	653	2.1	-3.0	2	5
2023-08-19T00:00	3754	652	2.1	-3.5	3	5
2023-08-19T00:00	3770	650	2.1	-3.3	5	5
2023-08-19T00:00	3790	649	2.0	-2.8	5	5
2023-08-19T00:00	3810	647	1.9	-3.0	6	4
2023-08-19T00:00	3843	645	1.8	-3.4	7	4
2023-08-19T00:00	3863	643	1.9	-4.3	10	4
2023-08-19T00:00	3887	641	1.8	-4.4	15	4
2023-08-19T00:00	3909	639	1.6	-4.5	20	4
2023-08-19T00:00	3932	637	1.4	-4.5	23	4
2023-08-19T00:00	3951	636	1.2	-4.6	22	3
2023-08-19T00:00	3966	635	1.0	-4.6	19	3
2023-08-19T00:00	3985	633	1.0	-5.0	15	3
2023-08-19T00:00	4001	632	0.9	-5.1	13	3
2023-08-19T00:00	4021	630	0.7	-5.2	12	3
2023-08-19T00:00	4046	628	0.6	-5.4	12	3
2023-08-19T00:00	4072	626	0.4	-5.4	11	3
2023-08-19T00:00	4097	625	0.4	-6.1	9	4
2023-08-19T00:00	4113	623	0.6	-6.7	8	4
2023-08-19T00:00	4130	622	0.6	-7.0	7	4
2023-08-19T00:00	4143	621	0.6	-7.2	8	4
2023-08-19T00:00	4159	620	0.6	-7.2	10	4
2023-08-19T00:00	4177	618	0.4	-7.4	10	4
2023-08-19T00:00	4195	617	0.3	-7.4	9	4
2023-08-19T00:00	4224	615	0.1	-7.6	7	4
2023-08-19T00:00	4258	612	-0.1	-8.4	6	4
2023-08-19T00:00	4281	610	-0.3	-9.2	5	4
2023-08-19T00:00	4304	609	-0.3	-9.1	7	3
2023-08-19T00:00	4329	607	-0.4	-8.6	11	3
2023-08-19T00:00	4348	605	-0.6	-8.9	18	3
2023-08-19T00:00	4370	603	-0.6	-9.1	27	2
2023-08-19T00:00	4395	602	-0.8	-8.5	36	2
2023-08-19T00:00	4416	600	-0.9	-9.5	45	2
2023-08-19T00:00	4436	599	-1.0	-10.3	52	2
2023-08-19T00:00	4461	597	-1.1	-10.7	57	2
2023-08-19T00:00	4484	595	-1.2	-11.2	56	2
2023-08-19T00:00	4507	593	-1.3	-10.8	48	2
2023-08-19T00:00	4535	591	-1.5	-10.7	33	2
2023-08-19T00:00	4561	589	-1.6	-12.1	21	3
2023-08-19T00:00	4580	588	-1.7	-12.9	13	3
2023-08-19T00:00	4596	587	-1.7	-14.6	11	3
2023-08-19T00:00	4613	585	-1.8	-15.6	12	3
2023-08-19T00:00	4634	584	-1.9	-16.0	17	3
2023-08-19T00:00	4664	582	-2.2	-16.8	23	3
2023-08-19T00:00	4687	580	-2.4	-16.9	27	3
2023-08-19T00:00	4706	579	-2.6	-16.9	29	3
2023-08-19T00:00	4724	577	-2.8	-17.0	28	3
2023-08-19T00:00	4743	576	-2.9	-16.9	23	3
2023-08-19T00:00	4765	574	-3.0	-17.0	15	2
2023-08-19T00:00	4794	572	-3.2	-17.5	4	2
2023-08-19T00:00	4820	570	-3.4	-18.2	356	2
2023-08-19T00:00	4846	568	-3.4	-19.2	352	3
2023-08-19T00:00	4871	567	-3.5	-20.5	351	3
2023-08-19T00:00	4895	565	-3.7	-21.4	354	3
2023-08-19T00:00	4922	563	-3.8	-21.8	357	4
2023-08-19T00:00	4941	562	-4.0	-22.0	0	4
2023-08-19T00:00	4960	560	-4.1	-22.0	0	4
2023-08-19T00:00	4984	559	-4.4	-22.2	356	5
2023-08-19T00:00	5012	556	-4.6	-22.6	349	5
2023-08-19T00:00	5046	554	-4.8	-23.5	342	5
2023-08-19T00:00	5070	553	-5.0	-23.8	335	6
2023-08-19T00:00	5085	551	-5.0	-24.4	330	6
2023-08-19T00:00	5104	550	-5.0	-24.9	327	7
2023-08-19T00:00	5126	548	-5.2	-25.4	326	8
2023-08-19T00:00	5159	546	-5.4	-26.1	325	8
2023-08-19T00:00	5182	545	-5.6	-27.3	325	8
2023-08-19T00:00	5199	543	-5.6	-27.8	324	8
2023-08-19T00:00	5217	542	-5.8	-27.5	323	7
2023-08-19T00:00	5237	541	-5.9	-27.6	323	6
2023-08-19T00:00	5255	540	-6.1	-27.8	323	6
2023-08-19T00:00	5279	538	-6.2	-28.5	324	5
2023-08-19T00:00	5312	536	-6.5	-28.8	323	5
2023-08-19T00:00	5336	534	-6.7	-29.0	322	6
2023-08-19T00:00	5363	532	-6.9	-29.1	319	6
2023-08-19T00:00	5388	531	-7.0	-30.3	316	6
2023-08-19T00:00	5407	529	-7.1	-30.9	313	6
2023-08-19T00:00	5431	528	-7.2	-31.1	310	7
2023-08-19T00:00	5458	526	-7.4	-31.3	307	7
2023-08-19T00:00	5487	524	-7.4	-32.8	305	7
2023-08-19T00:00	5525	521	-7.6	-34.3	304	7
2023-08-19T00:00	5549	519	-7.7	-35.0	305	6
2023-08-19T00:00	5581	518	-7.8	-35.8	306	6
2023-08-19T00:00	5600	516	-7.9	-36.2	308	6
2023-08-19T00:00	5620	515	-8.0	-36.7	309	6
2023-08-19T00:00	5639	514	-8.0	-37.1	311	7
2023-08-19T00:00	5666	512	-8.1	-37.6	313	7
2023-08-19T00:00	5693	510	-8.2	-38.5	317	6
2023-08-19T00:00	5729	508	-8.3	-40.3	323	6
2023-08-19T00:00	5750	506	-8.2	-42.7	330	6
2023-08-19T00:00	5769	505	-8.3	-43.6	336	5
2023-08-19T00:00	5789	504	-8.4	-44.0	340	5
2023-08-19T00:00	5809	502	-8.5	-44.4	342	5
2023-08-19T00:00	5835	501	-8.7	-44.6	343	5
2023-08-19T00:00	5862	499	-8.9	-44.1	345	4
2023-08-19T00:00	5893	497	-9.0	-44.2	347	4
2023-08-19T00:00	5918	496	-9.0	-43.9	350	4
2023-08-19T00:00	5934	494	-9.1	-43.9	353	4
2023-08-19T00:00	5955	493	-9.3	-44.1	356	4
2023-08-19T00:00	5978	492	-9.4	-44.2	359	4
2023-08-19T00:00	6001	490	-9.6	-44.3	1	4
2023-08-19T00:00	6031	488	-9.9	-44.5	3	5
2023-08-19T00:00	6070	486	-10.2	-44.8	3	5
2023-08-19T00:00	6092	484	-10.3	-44.8	1	5
2023-08-19T00:00	6108	483	-10.4	-45.2	356	5
2023-08-19T00:00	6124	482	-10.6	-45.7	350	5
2023-08-19T00:00	6144	481	-10.7	-45.8	345	5
2023-08-19T00:00	6160	480	-10.8	-45.5	342	5
2023-08-19T00:00	6176	479	-10.9	-45.0	342	5
2023-08-19T00:00	6195	478	-11.0	-42.4	344	5
2023-08-19T00:00	6213	477	-11.2	-40.2	347	5
2023-08-19T00:00	6233	476	-11.4	-40.0	350	5
2023-08-19T00:00	6254	474	-11.6	-39.9	354	5
2023-08-19T00:00	6283	473	-11.8	-38.9	355	5
2023-08-19T00:00	6303	471	-12.0	-38.8	356	5
2023-08-19T00:00	6322	470	-12.2	-38.2	353	5
2023-08-19T00:00	6340	469	-12.4	-37.0	349	5
2023-08-19T00:00	6361	468	-12.6	-35.9	343	5
2023-08-19T00:00	6391	466	-12.9	-34.8	338	6
2023-08-19T00:00	6421	464	-13.2	-34.5	333	6
2023-08-19T00:00	6449	462	-13.4	-34.4	329	6
2023-08-19T00:00	6474	461	-13.6	-34.5	326	6
2023-08-19T00:00	6503	459	-13.9	-34.7	324	6
2023-08-19T00:00	6529	458	-14.0	-34.0	322	7
2023-08-19T00:00	6554	456	-14.2	-32.1	322	7
2023-08-19T00:00	6581	454	-14.5	-31.8	322	7
2023-08-19T00:00	6610	453	-14.8	-31.8	323	8
2023-08-19T00:00	6644	451	-15.1	-31.8	324	8
2023-08-19T00:00	6662	450	-15.3	-31.9	324	8
2023-08-19T00:00	6682	448	-15.5	-31.9	325	8
2023-08-19T00:00	6701	447	-15.6	-31.8	325	8
2023-08-19T00:00	6718	446	-15.8	-31.8	325	8
2023-08-19T00:00	6740	445	-16.0	-31.8	326	8
2023-08-19T00:00	6767	443	-16.3	-31.8	326	8
2023-08-19T00:00	6793	442	-16.5	-31.9	328	8
2023-08-19T00:00	6819	440	-16.8	-31.8	329	8
2023-08-19T00:00	6846	438	-17.0	-31.7	330	8
2023-08-19T00:00	6881	437	-17.4	-31.5	330	8
2023-08-19T00:00	6912	435	-17.7	-31.5	329	8
2023-08-19T00:00	6931	434	-17.9	-30.5	326	8
2023-08-19T00:00	6947	433	-18.0	-30.4	325	8
2023-08-19T00:00	6965	432	-18.2	-29.9	323	9
2023-08-19T00:00	6983	431	-18.3	-29.5	324	9
2023-08-19T00:00	7004	430	-18.5	-30.0	325	9
2023-08-19T00:00	7027	428	-18.6	-30.1	327	9
2023-08-19T00:00	7059	426	-18.7	-31.2	329	9
2023-08-19T00:00	7091	425	-18.6	-33.6	331	9
2023-08-19T00:00	7108	424	-18.8	-33.3	331	9
2023-08-19T00:00	7126	423	-18.9	-33.0	331	9
2023-08-19T00:00	7146	421	-18.9	-33.6	329	9
2023-08-19T00:00	7163	420	-19.1	-33.4	327	9
2023-08-19T00:00	7180	419	-19.2	-34.1	325	9
2023-08-19T00:00	7198	418	-19.2	-35.1	324	9
2023-08-19T00:00	7215	418	-19.3		323	9
2023-08-19T00:00	7233	417	-19.4	-36.6	323	9
2023-08-19T00:00	7251	416	-19.5	-37.0	323	9
2023-08-19T00:00	7269	415	-19.6	-37.3	323	9
2023-08-19T00:00	7286	414	-19.7	-37.8	322	9
2023-08-19T00:00	7305	412	-19.8	-38.2	321	9
2023-08-19T00:00	7323	411	-19.9	-38.7	320	9
2023-08-19T00:00	7343	410	-20.0	-38.9	319	9
2023-08-19T00:00	7360	409	-20.2	-39.3	318	9
2023-08-19T00:00	7375	409	-20.3	-39.9	316	9
2023-08-19T00:00	7394	408	-20.4	-40.2	315	9
2023-08-19T00:00	7413	407	-20.5	-40.4	314	9
2023-08-19T00:00	7432	406	-20.6	-40.8	314	9
2023-08-19T00:00	7449	405	-20.7	-41.1	313	9
2023-08-19T00:00	7468	404	-20.8	-41.4	313	9
2023-08-19T00:00	7485	403	-21.0	-41.4	312	9
2023-08-19T00:00	7502	402	-21.1	-41.2	312	9
2023-08-19T00:00	7523	401	-21.3	-41.2	311	9
2023-08-19T00:00	7542	399	-21.5	-41.2	310	9
2023-08-19T00:00	7562	398	-21.7	-41.5	308	9
2023-08-19T00:00	7581	397	-21.8	-42.0	307	9
2023-08-19T00:00	7600	396	-21.9	-42.6	305	9
2023-08-19T00:00	7622	395	-22.1	-42.8	302	9
2023-08-19T00:00	7646	394	-22.3	-43.2	300	9
2023-08-19T00:00	7668	393	-22.5	-43.3	299	9
2023-08-19T00:00	7697	391	-22.7	-44.3	298	8
2023-08-19T00:00	7725	390	-22.9	-45.9	298	8
2023-08-19T00:00	7755	388	-23.1	-45.7	298	8
2023-08-19T00:00	7783	387	-23.4	-46.0	297	8
2023-08-19T00:00	7813	385	-23.6	-45.7	297	8
2023-08-19T00:00	7845	383	-23.9	-45.0	296	8
2023-08-19T00:00	7868	382	-24.1	-45.1	296	8
2023-08-19T00:00	7893	381	-24.3	-45.1	296	8
2023-08-19T00:00	7925	379	-24.6	-45.4	297	8
2023-08-19T00:00	7951	378	-24.8	-46.0	298	8
2023-08-19T00:00	7972	377	-24.9	-46.4	298	8
2023-08-19T00:00	7996	375	-25.1		297	7
2023-08-19T00:00	8017	374	-25.3	-47.3	297	7
2023-08-19T00:00	8042	373	-25.5	-47.4	298	8
2023-08-19T00:00	8071	372	-25.7	-47.5	300	8
2023-08-19T00:00	8098	370	-25.9	-47.5	302	8
2023-08-19T00:00	8126	369	-26.1	-47.5	304	8
2023-08-19T00:00	8151	368	-26.3	-48.1	304	9
2023-08-19T00:00	8177	366	-26.3	-48.5	305	9
2023-08-19T00:00	8205	365	-26.4	-48.9	305	9
2023-08-19T00:00	8228	364	-26.6	-49.3	306	9
2023-08-19T00:00	8252	362	-26.7	-49.5	306	9
2023-08-19T00:00	8276	361	-26.9	-49.7	306	9
2023-08-19T00:00	8303	360	-27.1	-49.8	306	9
2023-08-19T00:00	8326	359	-27.4	-49.9	306	9
2023-08-19T00:00	8347	358	-27.6	-50.0	306	9
2023-08-19T00:00	8371	356	-27.8	-50.0	306	10
2023-08-19T00:00	8394	355	-27.9	-50.2	307	9
2023-08-19T00:00	8414	354	-28.0	-50.6	308	9
2023-08-19T00:00	8435	353	-28.1	-51.4	310	9
2023-08-19T00:00	8455	352	-28.3	-51.4	312	9
2023-08-19T00:00	8477	351	-28.5	-51.5	315	9
2023-08-19T00:00	8497	350	-28.7	-51.5	317	9
2023-08-19T00:00	8520	349	-28.8	-51.6	318	9
2023-08-19T00:00	8541	348	-29.0	-51.9	319	8
2023-08-19T00:00	8568	347	-29.2	-52.1	320	8
2023-08-19T00:00	8597	345	-29.4	-52.8	322	8
2023-08-19T00:00	8623	344	-29.6	-53.0	323	8
2023-08-19T00:00	8646	343	-29.8	-53.4	325	8
2023-08-19T00:00	8673	342	-29.9	-53.9	327	8
2023-08-19T00:00	8697	341	-30.1	-54.0	328	7
2023-08-19T00:00	8720	339	-30.3	-54.2	328	7
2023-08-19T00:00	8739	339	-30.5	-54.4	329	7
2023-08-19T00:00	8757	338	-30.6	-54.6	329	7
2023-08-19T00:00	8774	337	-30.7	-54.9	330	7
2023-08-19T00:00	8793	336	-30.8	-55.3	331	8
2023-08-19T00:00	8811	335	-30.9	-55.3	332	8
2023-08-19T00:00	8829	334	-31.0	-55.4	335	8
2023-08-19T00:00	8849	333	-31.1	-55.4	337	8
2023-08-19T00:00	8870	332	-31.3	-55.4	338	8
2023-08-19T00:00	8892	331	-31.5	-55.6	340	8
2023-08-19T00:00	8910	330	-31.7	-55.6	340	8
2023-08-19T00:00	8930	330	-31.8	-55.2	340	9
2023-08-19T00:00	8950	329	-32.0	-55.2	339	9
2023-08-19T00:00	8969	328	-32.1	-55.2	339	9
2023-08-19T00:00	8989	327	-32.3	-55.1	338	9
2023-08-19T00:00	9008	326	-32.5	-55.1	338	9
2023-08-19T00:00	9024	325	-32.6	-54.7	338	9
2023-08-19T00:00	9044	324	-32.8	-54.6	338	9
2023-08-19T00:00	9062	323	-33.0	-54.5	338	9
2023-08-19T00:00	9080	323	-33.2	-54.4	339	9
2023-08-19T00:00	9100	322	-33.3	-54.3	339	10
2023-08-19T00:00	9118	321	-33.5	-54.4	339	10
2023-08-19T00:00	9138	320	-33.7	-54.4	340	10
2023-08-19T00:00	9159	319	-33.8	-54.6	340	10
2023-08-19T00:00	9177	318	-33.9	-54.5	340	10
2023-08-19T00:00	9195	317	-34.0	-54.4	341	10
2023-08-19T00:00	9215	316	-34.2	-54.7	342	10
2023-08-19T00:00	9235	316	-34.4	-54.7	344	10
2023-08-19T00:00	9253	315	-34.5	-54.1	345	11
2023-08-19T00:00	9271	314	-34.6	-53.5	346	11
2023-08-19T00:00	9289	313	-34.8		348	11
2023-08-19T00:00	9310	312	-34.9	-52.4	349	11
2023-08-19T00:00	9328	311	-35.1	-52.1	350	11
2023-08-19T00:00	9346	311	-35.2	-52.0	352	11
2023-08-19T00:00	9365	310	-35.4	-51.9	354	11
2023-08-19T00:00	9382	309	-35.5	-51.4	355	11
2023-08-19T00:00	9401	308	-35.7	-51.4	356	11
2023-08-19T00:00	9421	307	-35.8	-51.1	357	11
2023-08-19T00:00	9439	306	-36.0	-50.7	357	11
2023-08-19T00:00	9457	306	-36.2	-50.5	358	11
2023-08-19T00:00	9477	305	-36.4	-50.3	358	11
2023-08-19T00:00	9496	304	-36.6	-50.2	358	11
2023-08-19T00:00	9513	303	-36.7	-50.5	358	11
2023-08-19T00:00	9532	302	-36.9	-50.8	359	11
2023-08-19T00:00	9550	302	-37.1	-50.6	359	11
2023-08-19T00:00	9568	301	-37.2	-50.2	360	11
2023-08-19T00:00	9589	300	-37.4	-49.9	360	11
2023-08-19T00:00	9610	299	-37.6	-49.6	0	11
2023-08-19T00:00	9628	298	-37.8	-49.3	0	11
2023-08-19T00:00	9647	297	-38.0	-49.2	0	11
2023-08-19T00:00	9668	296	-38.2	-49.0	0	11
2023-08-19T00:00	9687	296	-38.3	-48.9	0	11
2023-08-19T00:00	9709	295	-38.5	-49.0	360	12
2023-08-19T00:00	9728	294	-38.7	-48.9	359	12
2023-08-19T00:00	9745	293	-38.9	-48.7	359	12
2023-08-19T00:00	9764	292	-39.1	-48.7	358	12
2023-08-19T00:00	9782	292	-39.2	-48.4	357	12
2023-08-19T00:00	9799	291	-39.4	-48.6	356	12
2023-08-19T00:00	9817	290	-39.6	-48.8	356	12
2023-08-19T00:00	9835	289	-39.7	-48.7	356	12
2023-08-19T00:00	9852	289	-39.9	-48.8	356	12
2023-08-19T00:00	9874	288	-40.1	-48.9	356	12
2023-08-19T00:00	9893	287	-40.3	-49.0	356	12
2023-08-19T00:00	9908	286	-40.5	-49.1	355	12
2023-08-19T00:00	9928	285	-40.6	-49.1	355	12
2023-08-19T00:00	9948	285	-40.8	-49.2	355	12
2023-08-19T00:00	9966	284	-41.0	-49.2	354	12
2023-08-19T00:00	9987	283	-41.2	-49.5	354	13
2023-08-19T00:00	10005	282	-41.3	-50.1	354	13
2023-08-19T00:00	10025	281	-41.4	-50.1	354	13
2023-08-19T00:00	10045	281	-41.6	-50.3	355	13
2023-08-19T00:00	10063	280	-41.8	-50.5	356	13
2023-08-19T00:00	10080	279	-41.9	-50.6	356	13
2023-08-19T00:00	10100	278	-42.1	-50.7	356	13
2023-08-19T00:00	10121	277	-42.3	-50.9	356	13
2023-08-19T00:00	10139	277	-42.5	-50.9	356	13
2023-08-19T00:00	10158	276	-42.7	-50.9	356	13
2023-08-19T00:00	10177	275	-42.9	-51.0	356	12
2023-08-19T00:00	10193	274	-43.0	-51.0	356	12
2023-08-19T00:00	10211	274	-43.2	-51.0	356	12
2023-08-19T00:00	10232	273	-43.4	-51.0	356	12
2023-08-19T00:00	10249	272	-43.6	-51.1	355	13
2023-08-19T00:00	10267	271	-43.7	-51.1	355	13
2023-08-19T00:00	10283	271	-43.8	-51.4	355	13
2023-08-19T00:00	10302	270	-44.0	-51.2	355	13
2023-08-19T00:00	10317	269	-44.0	-50.6	355	13
2023-08-19T00:00	10334	269	-44.2	-50.7	355	13
2023-08-19T00:00	10351	268	-44.4	-50.8	356	13
2023-08-19T00:00	10369	267	-44.5	-51.0	356	13
2023-08-19T00:00	10388	267	-44.7	-51.1	357	13
2023-08-19T00:00	10406	266	-44.9	-51.1	357	13
2023-08-19T00:00	10427	265	-45.1	-51.3	357	13
2023-08-19T00:00	10444	264	-45.2	-51.3	357	13
2023-08-19T00:00	10462	264	-45.4	-51.3	356	13
2023-08-19T00:00	10481	263	-45.6	-51.6	355	13
2023-08-19T00:00	10499	262	-45.7	-51.9	355	13
2023-08-19T00:00	10518	261	-45.9	-52.0	354	13
2023-08-19T00:00	10537	261	-46.0	-52.0	354	13
2023-08-19T00:00	10553	260	-46.2	-52.0	353	13
2023-08-19T00:00	10571	259	-46.3	-52.2	352	13
2023-08-19T00:00	10588	259	-46.5	-52.7	352	13
2023-08-19T00:00	10606	258	-46.6	-53.2	351	13
2023-08-19T00:00	10624	257	-46.7	-53.8	351	14
2023-08-19T00:00	10643	257	-46.8	-54.2	351	14
2023-08-19T00:00	10661	256	-46.9	-54.4	350	14
2023-08-19T00:00	10680	255	-47.0	-54.6	350	14
2023-08-19T00:00	10699	254	-47.2	-54.8	350	14
2023-08-19T00:00	10716	254	-47.4	-54.7	350	14
2023-08-19T00:00	10734	253	-47.5	-54.6	349	14
2023-08-19T00:00	10751	252	-47.7	-54.6	349	14
2023-08-19T00:00	10771	252	-47.9	-54.7	348	15
2023-08-19T00:00	10786	251	-48.0	-55.0	347	15
2023-08-19T00:00	10806	250	-48.1	-55.4	347	15
2023-08-19T00:00	10824	250	-48.2	-55.6	347	15
2023-08-19T00:00	10845	249	-48.4	-55.7	347	16
2023-08-19T00:00	10865	248	-48.6	-55.8	346	16
2023-08-19T00:00	10883	247	-48.7	-55.9	346	16
2023-08-19T00:00	10902	247	-48.9	-56.2	345	16
2023-08-19T00:00	10922	246	-49.0	-56.5	345	17
2023-08-19T00:00	10938	245	-49.0	-56.7	344	17
2023-08-19T00:00	10958	245	-49.1	-56.7	344	17
2023-08-19T00:00	10976	244	-49.3	-56.8	343	17
2023-08-19T00:00	10997	243	-49.4	-57.1	343	17
2023-08-19T00:00	11016	242	-49.6	-57.4	342	17
2023-08-19T00:00	11036	242	-49.7	-57.4	342	17
2023-08-19T00:00	11055	241	-49.9	-57.3	342	17
2023-08-19T00:00	11072	240	-50.1	-57.4	343	17
2023-08-19T00:00	11090	240	-50.2	-57.4	343	18
2023-08-19T00:00	11109	239	-50.4	-57.4	344	18
2023-08-19T00:00	11126	238	-50.6	-57.5	344	18
2023-08-19T00:00	11147	238	-50.7	-57.6	345	18
2023-08-19T00:00	11163	237	-50.8		345	18
2023-08-19T00:00	11181	236	-51.0	-58.2	344	18
2023-08-19T00:00	11200	236	-51.1	-58.5	344	18
2023-08-19T00:00	11218	235	-51.2	-58.6	344	18
2023-08-19T00:00	11236	234	-51.4	-58.7	344	18
2023-08-19T00:00	11255	234	-51.6	-58.7	345	18
2023-08-19T00:00	11274	233	-51.7	-58.8	345	18
2023-08-19T00:00	11293	232	-51.8	-58.8	346	18
2023-08-19T00:00	11311	232	-52.0	-58.9	346	18
2023-08-19T00:00	11330	231	-52.1	-59.3	347	18
2023-08-19T00:00	11350	230	-52.2	-59.9	347	17
2023-08-19T00:00	11368	230	-52.3	-60.3	348	17
2023-08-19T00:00	11389	229	-52.5	-60.5	348	17
2023-08-19T00:00	11409	228	-52.7	-60.6	348	17
2023-08-19T00:00	11428	228	-52.8	-60.8	348	17
2023-08-19T00:00	11446	227	-53.0	-61.0	348	17
2023-08-19T00:00	11466	226	-53.1	-61.0	348	17
2023-08-19T00:00	11488	225	-53.3	-61.1	348	16
2023-08-19T00:00	11509	225	-53.5	-61.3	348	16
2023-08-19T00:00	11530	224	-53.6	-61.6	349	16
2023-08-19T00:00	11549	223	-53.8	-62.0	349	15
2023-08-19T00:00	11568	223	-54.0	-62.2	350	15
2023-08-19T00:00	11588	222	-54.1	-62.3	350	15
2023-08-19T00:00	11607	221	-54.3	-62.4	350	15
2023-08-19T00:00	11627	221	-54.5	-62.6	351	15
2023-08-19T00:00	11645	220	-54.6	-62.6	351	15
2023-08-19T00:00	11666	219	-54.7	-62.5	351	15
2023-08-19T00:00	11685	219	-54.9	-62.4	350	15
2023-08-19T00:00	11703	218	-55.0	-62.2	350	14
2023-08-19T00:00	11721	217	-55.2	-62.0	349	14
2023-08-19T00:00	11744	217	-55.4	-61.9	349	14
2023-08-19T00:00	11768	216	-55.4	-62.0	348	14
2023-08-19T00:00	11788	215	-55.5	-62.3	348	13
2023-08-19T00:00	11811	214	-55.7	-62.5	348	13
2023-08-19T00:00	11832	214	-55.9	-62.6	348	13
2023-08-19T00:00	11851	213	-56.1	-62.7	349	13
2023-08-19T00:00	11872	212	-56.3	-62.8	349	13
2023-08-19T00:00	11891	212	-56.5	-62.8	349	13
2023-08-19T00:00	11915	211	-56.7	-62.9	349	13
2023-08-19T00:00	11935	210	-56.9	-62.9	348	12
2023-08-19T00:00	11956	210	-57.0	-63.0	346	12
2023-08-19T00:00	11973	209	-57.2	-63.3	343	12
2023-08-19T00:00	11992	208	-57.3	-63.4	340	12
2023-08-19T00:00	12012	208	-57.5	-63.7	337	13
2023-08-19T00:00	12034	207	-57.6	-64.2	333	13
2023-08-19T00:00	12053	206	-57.5	-64.7	330	13
2023-08-19T00:00	12076	206	-57.4	-65.1	327	13
2023-08-19T00:00	12093	205	-57.5	-65.6	325	14
2023-08-19T00:00	12115	204	-57.5	-65.9	324	14
2023-08-19T00:00	12137	204	-57.5	-66.3	323	15
2023-08-19T00:00	12157	203	-57.3	-66.5	322	16
2023-08-19T00:00	12176	202	-57.3	-66.7	320	16
2023-08-19T00:00	12193	202	-57.4	-66.8	319	17
2023-08-19T00:00	12213	201	-57.4	-67.0	318	17
2023-08-19T00:00	12231	201	-57.4	-67.4	317	18
2023-08-19T00:00	12251	200	-57.3	-68.0	317	18
2023-08-19T00:00	12270	199	-57.1	-68.7	318	19
2023-08-19T00:00	12289	199	-56.7	-69.1	320	19
2023-08-19T00:00	12307	198	-56.7	-69.5	321	19
2023-08-19T00:00	12325	198	-56.3	-69.5	323	19
2023-08-19T00:00	12342	197	-56.2	-69.6	323	19
2023-08-19T00:00	12362	196	-55.9	-69.7	324	19
2023-08-19T00:00	12384	196	-55.6	-70.2	324	19
2023-08-19T00:00	12401	195	-55.3	-71.2	323	19
2023-08-19T00:00	12420	195	-54.8	-72.3	323	18
2023-08-19T00:00	12439	194	-54.7	-73.5	323	18
2023-08-19T00:00	12459	193	-54.3	-74.1	322	18
2023-08-19T00:00	12497	192	-53.4	-74.1	322	17
2023-08-19T00:00	12520	192	-53.2	-74.6	323	15
2023-08-19T00:00	12552	191	-53.1	-75.4	325	13
2023-08-19T00:00	12580	190	-52.7	-76.2	327	11
2023-08-19T00:00	12621	189	-52.5	-76.8	331	9
2023-08-19T00:00	12646	188	-52.8	-77.6	337	8
2023-08-19T00:00	12674	187	-52.3	-77.7	342	7
2023-08-19T00:00	12704	186	-52.3	-77.9	346	6
2023-08-19T00:00	12735	185	-52.5	-78.1	347	6
2023-08-19T00:00	12755	185	-52.7	-78.0	345	5
2023-08-19T00:00	12781	184	-52.9	-78.2	339	5
2023-08-19T00:00	12800	184	-53.0	-78.0	332	5
2023-08-19T00:00	12823	183	-53.2	-78.4	327	4
2023-08-19T00:00	12843	182	-53.4	-78.3	323	4
2023-08-19T00:00	12866	182	-53.6	-78.5	320	4
2023-08-19T00:00	12889	181	-53.7	-78.6	318	4
2023-08-19T00:00	12906	180	-53.9	-78.7	316	4
2023-08-19T00:00	12929	180	-54.1	-78.9	316	4
2023-08-19T00:00	12950	179	-54.3	-79.0	317	5
2023-08-19T00:00	12971	179	-54.4	-79.1	318	5
2023-08-19T00:00	12991	178	-54.4	-79.3	318	5
2023-08-19T00:00	13014	178	-54.1	-79.6	318	5
2023-08-19T00:00	13032	177	-53.8	-79.6	315	4
2023-08-19T00:00	13051	177	-53.5	-79.9	310	4
2023-08-19T00:00	13072	176	-53.2	-79.9	301	4
2023-08-19T00:00	13093	175	-52.7	-80.2	292	3
2023-08-19T00:00	13110	175	-52.6	-80.4	284	3
2023-08-19T00:00	13131	174	-52.1	-80.0	281	4
2023-08-19T00:00	13151	174	-51.9	-79.9	282	4
2023-08-19T00:00	13170	173	-51.9	-79.5	283	5
2023-08-19T00:00	13188	173	-51.9	-79.5	285	5
2023-08-19T00:00	13209	172	-52.0	-79.6	287	6
2023-08-19T00:00	13229	172	-52.1	-79.7	287	6
2023-08-19T00:00	13247	171	-52.1	-79.7	288	7
2023-08-19T00:00	13267	171	-52.1	-79.7	288	7
2023-08-19T00:00	13285	170	-52.1	-79.7	287	7
2023-08-19T00:00	13305	170	-51.9	-79.9	287	7
2023-08-19T00:00	13324	169	-52.0	-80.0	287	7
2023-08-19T00:00	13345	169	-51.8	-79.8	288	6
2023-08-19T00:00	13365	168	-51.8	-79.8	289	6
2023-08-19T00:00	13384	168	-51.8	-80.1	291	6
2023-08-19T00:00	13402	167	-51.8	-80.1	292	6
2023-08-19T00:00	13425	167	-51.8	-79.8	292	6
2023-08-19T00:00	13444	166	-51.8	-80.1	290	6
2023-08-19T00:00	13464	166	-51.8	-80.1	287	6
2023-08-19T00:00	13483	165	-51.6	-80.0	282	6
2023-08-19T00:00	13502	165	-51.5	-79.9	277	5
2023-08-19T00:00	13523	164	-51.7	-80.1	273	6
2023-08-19T00:00	13545	164	-51.8	-80.1	270	6
2023-08-19T00:00	13567	163	-51.7	-80.1	270	6
2023-08-19T00:00	13585	162	-51.9	-80.2	270	6
2023-08-19T00:00	13607	162	-51.8	-80.1	271	6
2023-08-19T00:00	13625	162	-51.6	-80.0	271	6
2023-08-19T00:00	13646	161	-51.6	-80.0	271	6
2023-08-19T00:00	13666	161	-51.5	-80.3	269	6
2023-08-19T00:00	13686	160	-51.4	-80.2	267	6
2023-08-19T00:00	13709	159	-51.0	-79.9	262	6
2023-08-19T00:00	13728	159	-50.7	-79.7	258	6
2023-08-19T00:00	13748	159	-50.5	-79.5	254	6
2023-08-19T00:00	13769	158	-50.5	-79.2	250	6
2023-08-19T00:00	13790	157	-50.7	-79.3	248	6
2023-08-19T00:00	13809	157	-50.9	-79.5	246	6
2023-08-19T00:00	13829	157	-51.0	-79.5	244	6
2023-08-19T00:00	13850	156	-51.2	-79.3	243	6
2023-08-19T00:00	13871	156	-51.4	-79.5	242	6
2023-08-19T00:00	13890	155	-51.5	-79.6	242	6
2023-08-19T00:00	13912	155	-51.6	-79.6	243	6
2023-08-19T00:00	13934	154	-51.5	-79.6	246	6
2023-08-19T00:00	13957	154	-51.2	-79.3	250	7
2023-08-19T00:00	13976	153	-51.3	-79.4	254	7
2023-08-19T00:00	13997	153	-51.2	-79.3	258	7
2023-08-19T00:00	14020	152	-51.2	-79.3	261	7
2023-08-19T00:00	14040	152	-51.2	-79.3	264	7
2023-08-19T00:00	14061	151	-51.3	-79.4	266	7
2023-08-19T00:00	14083	151	-51.4	-79.5	268	7
2023-08-19T00:00	14105	150	-51.5	-79.6	269	7
2023-08-19T00:00	14126	150	-51.6	-79.6	270	7
2023-08-19T00:00	14146	149	-51.7	-79.4	271	7
2023-08-19T00:00	14167	149	-51.8	-79.8	270	7
2023-08-19T00:00	14188	148	-51.9	-79.9	269	7
2023-08-19T00:00	14208	148	-51.8	-79.8	268	8
2023-08-19T00:00	14230	147	-51.6	-80.0	267	8
2023-08-19T00:00	14250	147	-51.7	-80.1	265	8
2023-08-19T00:00	14271	146	-51.9	-80.2	262	8
2023-08-19T00:00	14294	146	-51.9	-80.6	259	8
2023-08-19T00:00	14318	145	-51.5	-80.3	256	8
2023-08-19T00:00	14340	145	-51.6	-80.8	253	8
2023-08-19T00:00	14360	144	-51.7	-80.8	251	8
2023-08-19T00:00	14381	144	-51.7	-80.4	250	8
2023-08-19T00:00	14401	143	-51.8	-80.5	249	8
2023-08-19T00:00	14421	143	-51.8	-80.5	247	8
2023-08-19T00:00	14440	142	-51.9	-80.6	245	8
2023-08-19T00:00	14462	142	-51.8	-80.5	243	8
2023-08-19T00:00	14482	142	-51.9	-80.6	240	7
2023-08-19T00:00	14501	141	-51.9	-80.6	238	7
2023-08-19T00:00	14523	141	-52.0	-80.7	236	6
2023-08-19T00:00	14542	140	-51.9	-81.0	234	6
2023-08-19T00:00	14563	140	-51.7	-80.8	232	6
2023-08-19T00:00	14582	139	-51.6	-80.8	229	6
2023-08-19T00:00	14604	139	-51.4	-80.6	227	6
2023-08-19T00:00	14625	138	-51.5	-80.7	227	7
2023-08-19T00:00	14646	138	-51.7	-80.8	227	7
2023-08-19T00:00	14667	138	-51.8	-80.9	228	7
2023-08-19T00:00	14687	137	-51.9	-81.0	229	8
2023-08-19T00:00	14707	137	-52.0	-81.1	231	8
2023-08-19T00:00	14727	136	-52.0	-81.1	233	8
2023-08-19T00:00	14746	136	-51.7	-80.8	234	9
2023-08-19T00:00	14770	135	-51.7	-80.8	234	9
2023-08-19T00:00	14790	135	-51.8	-80.9	234	9
2023-08-19T00:00	14812	135	-51.9	-81.0	234	8
2023-08-19T00:00	14833	134	-51.9	-81.0	233	8
2023-08-19T00:00	14853	134	-51.9	-81.0	233	8
2023-08-19T00:00	14873	133	-52.0	-81.1	233	7
2023-08-19T00:00	14897	133	-52.0	-81.1	233	7
2023-08-19T00:00	14917	132	-52.2	-81.2	235	7
2023-08-19T00:00	14940	132	-52.3	-81.3	237	6
2023-08-19T00:00	14959	132	-52.5	-81.4	239	6
2023-08-19T00:00	14980	131	-52.7	-81.2	241	6
2023-08-19T00:00	15002	131	-52.8	-81.3	242	6
2023-08-19T00:00	15023	130	-52.9	-81.4	245	6
2023-08-19T00:00	15044	130	-52.9	-81.4	247	6
2023-08-19T00:00	15063	129	-53.0	-81.4	250	6
2023-08-19T00:00	15083	129	-53.0	-81.4	251	6
2023-08-19T00:00	15104	129	-53.0	-81.4	251	6
2023-08-19T00:00	15124	128	-53.0	-81.4	249	6
2023-08-19T00:00	15146	128	-53.1	-81.5	243	6
2023-08-19T00:00	15170	127	-53.1	-81.5	236	6
2023-08-19T00:00	15191	127	-53.1	-81.5	228	6
2023-08-19T00:00	15215	126	-53.2	-82.0	220	6
2023-08-19T00:00	15234	126	-53.4	-82.1	214	6
2023-08-19T00:00	15254	126	-53.5	-82.2	209	6
2023-08-19T00:00	15276	125	-53.6	-82.3	205	6
2023-08-19T00:00	15297	125	-53.5	-82.2	202	6
2023-08-19T00:00	15317	124	-53.6	-82.3	200	6
2023-08-19T00:00	15337	124	-53.6	-82.3	198	6
2023-08-19T00:00	15357	124	-53.7	-82.3	198	7
2023-08-19T00:00	15376	123	-53.8	-82.4	198	7
2023-08-19T00:00	15396	123	-54.0	-82.6	198	7
2023-08-19T00:00	15417	122	-54.2	-82.3	200	7
2023-08-19T00:00	15437	122	-54.4	-82.5	201	8
2023-08-19T00:00	15457	122	-54.5	-82.6	204	8
2023-08-19T00:00	15477	121	-54.7	-82.7	206	8
2023-08-19T00:00	15496	121	-54.8	-82.8	209	9
2023-08-19T00:00	15515	121	-54.9	-82.9	212	9
2023-08-19T00:00	15534	120	-54.9	-83.3	216	9
2023-08-19T00:00	15557	120	-54.7	-83.1	220	8
2023-08-19T00:00	15574	119	-54.6	-83.0	224	8
2023-08-19T00:00	15594	119	-54.4	-83.3	228	7
2023-08-19T00:00	15612	119	-54.2	-83.6	231	7
2023-08-19T00:00	15632	118	-53.7	-83.2	232	7
2023-08-19T00:00	15651	118	-53.5	-83.0	232	6
2023-08-19T00:00	15670	118	-53.5	-83.0	230	6
2023-08-19T00:00	15690	117	-53.6	-83.1	226	6
2023-08-19T00:00	15711	117	-53.5	-82.6	220	6
2023-08-19T00:00	15733	117	-53.2	-82.4	215	6
2023-08-19T00:00	15752	116	-53.4	-82.5	211	6
2023-08-19T00:00	15772	116	-53.5	-82.2	208	6
2023-08-19T00:00	15793	116	-53.6	-82.3	209	6
2023-08-19T00:00	15815	115	-53.8	-82.4	210	6
2023-08-19T00:00	15836	115	-53.9	-82.5	212	6
2023-08-19T00:00	15855	114	-53.8	-82.4	214	6
2023-08-19T00:00	15876	114	-53.7	-82.3	215	6
2023-08-19T00:00	15896	114	-53.7	-82.3	214	7
2023-08-19T00:00	15920	113	-53.6	-82.3	213	7
2023-08-19T00:00	15940	113	-53.5	-82.2	211	8
2023-08-19T00:00	15962	113	-53.5	-82.2	210	8
2023-08-19T00:00	15981	112	-53.6	-82.3	209	8
2023-08-19T00:00	16002	112	-53.8	-82.4	208	9
2023-08-19T00:00	16023	111	-53.8	-82.4	207	9
2023-08-19T00:00	16046	111	-53.9	-82.5	206	9
2023-08-19T00:00	16069	111	-54.1	-82.6	205	9
2023-08-19T00:00	16088	110	-54.2	-82.7	204	9
2023-08-19T00:00	16110	110	-54.4	-82.9	204	9
2023-08-19T00:00	16131	110	-54.6	-82.6	204	10
2023-08-19T00:00	16153	109	-54.7	-82.7	205	10
2023-08-19T00:00	16175	109	-54.9	-82.9	206	10
2023-08-19T00:00	16197	108	-55.0	-82.9	208	11
2023-08-19T00:00	16219	108	-55.0	-82.9	210	11
2023-08-19T00:00	16241	108	-55.0	-82.9	213	11
2023-08-19T00:00	16264	107	-55.1	-83.0	216	11
2023-08-19T00:00	16285	107	-55.2	-83.5	220	11
2023-08-19T00:00	16305	107	-55.1	-83.4	223	10
2023-08-19T00:00	16325	106	-54.9	-83.3	226	10
2023-08-19T00:00	16347	106	-54.8	-83.2	229	10
2023-08-19T00:00	16369	106	-54.9	-83.3	232	9
2023-08-19T00:00	16389	105	-55.0		235	9
2023-08-19T00:00	16413	105	-55.0		237	9
2023-08-19T00:00	16435	105	-54.9	-83.7	239	8
2023-08-19T00:00	16459	104	-54.7	-83.5	240	8
2023-08-19T00:00	16478	104	-54.6	-83.4	241	9
2023-08-19T00:00	16499	103	-54.3	-83.2	241	9
2023-08-19T00:00	16522	103	-54.4	-83.7	242	9
2023-08-19T00:00	16543	103	-54.4	-83.7	243	9
2023-08-19T00:00	16566	102	-54.3	-83.6	244	9
2023-08-19T00:00	16588	102	-54.2	-83.6	245	9
2023-08-19T00:00	16608	102	-54.2	-83.6	245	9
2023-08-19T00:00	16629	101	-54.3	-83.6	245	8
2023-08-19T00:00	16652	101	-54.4	-83.7	245	8
2023-08-19T00:00	16674	101	-54.5	-83.4	245	8
2023-08-19T00:00	16699	100	-54.6	-83.4	246	7
2023-08-19T00:00	16720	100	-54.8	-83.6	247	7
2023-08-19T00:00	16743	100	-55.0	-83.7	249	7
2023-08-19T00:00	16764	99	-55.2	-83.9	251	6
2023-08-19T00:00	16785	99	-55.3	-83.6	253	6
2023-08-19T00:00	16806	99	-55.4	-83.6	256	6
2023-08-19T00:00	16828	98	-55.6	-83.8	259	5
2023-08-19T00:00	16850	98	-55.7	-83.9	262	5
2023-08-19T00:00	16873	98	-55.9	-84.0	265	4
2023-08-19T00:00	16895	97	-55.9	-84.0	267	4
2023-08-19T00:00	16915	97	-55.9	-84.0	267	3
2023-08-19T00:00	16937	97	-56.0	-84.1	264	3
2023-08-19T00:00	16956	96	-56.0	-84.5	261	3
2023-08-19T00:00	16975	96	-55.8	-84.3	256	4
2023-08-19T00:00	16998	96	-55.8	-84.3	253	4
2023-08-19T00:00	17020	95	-55.7	-84.3	249	4
2023-08-19T00:00	17041	95	-55.5	-84.1	244	4
2023-08-19T00:00	17063	95	-55.5	-84.1	239	4
2023-08-19T00:00	17082	94	-55.4	-84.0	235	4
2023-08-19T00:00	17107	94	-55.5	-84.1	231	4
2023-08-19T00:00	17128	94	-55.7	-84.3	230	4
2023-08-19T00:00	17148	93	-55.8	-84.3	230	4
2023-08-19T00:00	17169	93	-55.9	-84.4	230	4
2023-08-19T00:00	17191	93	-55.9	-84.4	231	5
2023-08-19T00:00	17212	93	-55.9	-84.4	231	5
2023-08-19T00:00	17231	92	-55.9	-84.4	231	5
2023-08-19T00:00	17256	92	-56.0	-84.5	231	5
2023-08-19T00:00	17277	92	-56.0	-84.5	231	5
2023-08-19T00:00	17298	91	-56.1	-84.6	231	5
2023-08-19T00:00	17319	91	-56.1	-84.6	232	5
2023-08-19T00:00	17340	91	-56.2	-84.6	230	4
2023-08-19T00:00	17361	90	-56.2	-84.6	227	4
2023-08-19T00:00	17383	90	-56.3	-84.7	222	4
2023-08-19T00:00	17401	90	-56.3	-84.7	216	4
2023-08-19T00:00	17422	90	-56.1	-84.6	212	4
2023-08-19T00:00	17444	89	-56.1	-84.6	209	4
2023-08-19T00:00	17464	89	-55.9	-84.4	209	4
2023-08-19T00:00	17486	89	-55.9	-84.4	212	4
2023-08-19T00:00	17507	88	-56.0	-84.5	216	4
2023-08-19T00:00	17526	88	-56.1	-84.6	222	4
2023-08-19T00:00	17548	88	-56.2	-84.6	228	4
2023-08-19T00:00	17568	87	-56.3	-84.7	232	4
2023-08-19T00:00	17591	87	-56.3	-84.7	235	4
2023-08-19T00:00	17612	87	-56.5	-84.9	235	4
2023-08-19T00:00	17637	87	-56.7	-84.6	234	3
2023-08-19T00:00	17657	86	-56.8	-84.7	232	3
2023-08-19T00:00	17678	86	-56.9	-84.8	232	3
2023-08-19T00:00	17701	86	-56.9	-84.8	233	2
2023-08-19T00:00	17723	85	-56.9	-84.8	236	2
2023-08-19T00:00	17744	85	-57.1	-84.9	239	2
2023-08-19T00:00	17766	85	-57.2	-85.0	240	2
2023-08-19T00:00	17788	84	-57.2	-85.0	237	2
2023-08-19T00:00	17812	84	-57.2	-85.0	230	2
2023-08-19T00:00	17833	84	-57.0	-85.2	219	2
2023-08-19T00:00	17851	84	-56.8	-85.1	205	2
2023-08-19T00:00	17874	83	-56.7	-85.0	191	2
2023-08-19T00:00	17896	83	-56.7	-85.0	179	2
2023-08-19T00:00	17920	83	-56.7	-85.4	171	3
2023-08-19T00:00	17946	82	-56.4	-85.2	167	4
2023-08-19T00:00	17966	82	-56.3	-85.1	164	4
2023-08-19T00:00	17989	82	-56.5	-85.3	163	5
2023-08-19T00:00	18011	82	-56.4	-85.2	163	5
2023-08-19T00:00	18035	81	-56.5	-84.9	163	5
2023-08-19T00:00	18056	81	-56.6	-84.9	164	5
2023-08-19T00:00	18080	81	-56.7	-85.0	165	5
2023-08-19T00:00	18103	80	-56.8	-85.1	168	4
2023-08-19T00:00	18125	80	-56.9	-85.2	171	4
2023-08-19T00:00	18149	80	-57.0	-85.2	177	4
2023-08-19T00:00	18173	80	-57.0	-85.2	182	4
2023-08-19T00:00	18197	79	-57.1	-85.3	188	4
2023-08-19T00:00	18222	79	-57.2	-85.0	192	4
2023-08-19T00:00	18244	79	-57.3	-85.1	197	4
2023-08-19T00:00	18267	78	-57.4	-85.2	201	4
2023-08-19T00:00	18290	78	-57.6	-85.3	207	4
2023-08-19T00:00	18315	78	-57.7	-85.4	212	4
2023-08-19T00:00	18341	77	-57.9	-85.5	219	4
2023-08-19T00:00	18364	77	-57.9	-85.5	225	4
2023-08-19T00:00	18390	77	-57.8	-85.5	232	4
2023-08-19T00:00	18412	77	-57.7	-85.4	239	4
2023-08-19T00:00	18435	76	-57.7	-85.4	246	3
2023-08-19T00:00	18459	76	-57.8	-85.5	252	3
2023-08-19T00:00	18479	76	-57.8	-85.5	257	2
2023-08-19T00:00	18500	76	-57.9		262	2
2023-08-19T00:00	18521	75	-57.8	-85.9	267	1
2023-08-19T00:00	18545	75	-57.4	-85.6	291	0
2023-08-19T00:00	18566	75	-57.3	-85.5	57	1
2023-08-19T00:00	18586	74	-57.3	-85.5	71	1
2023-08-19T00:00	18610	74	-57.3	-85.5	75	2
2023-08-19T00:00	18634	74	-57.3	-85.5	78	2
2023-08-19T00:00	18657	74	-57.4	-85.6	80	3
2023-08-19T00:00	18677	73	-57.5	-85.6	81	3
2023-08-19T00:00	18701	73	-57.7	-85.4	83	3
2023-08-19T00:00	18724	73	-57.8	-85.5	84	4
2023-08-19T00:00	18742	73	-58.0	-85.6	86	4
2023-08-19T00:00	18767	72	-58.2	-85.8	89	5
2023-08-19T00:00	18789	72	-58.4	-85.5	92	5
2023-08-19T00:00	18812	72	-58.6	-85.7	94	5
2023-08-19T00:00	18829	72	-58.7	-85.8	97	6
2023-08-19T00:00	18851	71	-58.8	-85.9	99	6
2023-08-19T00:00	18874	71	-59.0	-86.0	101	6
2023-08-19T00:00	18897	71	-59.1		102	7
2023-08-19T00:00	18916	71	-59.2	-86.2	103	8
2023-08-19T00:00	18936	70	-59.2	-86.2	104	8
2023-08-19T00:00	18958	70	-59.1		105	9
2023-08-19T00:00	18981	70	-59.2	-86.2	107	9
2023-08-19T00:00	18999	70	-59.2	-86.5	108	9
2023-08-19T00:00	19016	70	-59.1	-86.5	110	9
2023-08-19T00:00	19038	69	-58.8	-86.2	112	9
2023-08-19T00:00	19060	69	-59.0	-86.4	115	8
2023-08-19T00:00	19077	69	-59.1	-86.5	117	8
2023-08-19T00:00	19097	69	-59.0	-86.4	121	7
2023-08-19T00:00	19117	68	-59.0	-86.4	124	7
2023-08-19T00:00	19141	68	-59.0	-86.4	127	7
2023-08-19T00:00	19159	68	-59.0	-86.4	130	7
2023-08-19T00:00	19185	68	-59.0	-86.4	132	7
2023-08-19T00:00	19202	68	-58.6	-86.5	134	7
2023-08-19T00:00	19223	67	-58.7	-86.5	136	7
2023-08-19T00:00	19246	67	-58.6	-86.5	138	7
2023-08-19T00:00	19263	67	-58.1	-86.5	139	7
2023-08-19T00:00	19286	67	-57.8	-86.3	141	7
2023-08-19T00:00	19312	66	-57.4	-86.0	143	6
2023-08-19T00:00	19332	66	-57.5	-86.1	146	6
2023-08-19T00:00	19354	66	-57.6	-86.1	149	6
2023-08-19T00:00	19377	66	-57.7	-86.2	152	5
2023-08-19T00:00	19400	65	-57.9		156	5
2023-08-19T00:00	19423	65	-58.0	-86.0	160	5
2023-08-19T00:00	19447	65	-58.1		163	5
2023-08-19T00:00	19468	65	-58.3	-86.2	166	4
2023-08-19T00:00	19492	65	-58.4	-86.3	167	4
2023-08-19T00:00	19515	64	-58.3	-86.2	167	4
2023-08-19T00:00	19541	64	-58.2	-86.2	164	3
2023-08-19T00:00	19564	64	-58.1	-86.5	156	2
2023-08-19T00:00	19590	64	-58.0	-86.4	142	2
2023-08-19T00:00	19612	63	-57.9	-86.4	119	2
2023-08-19T00:00	19635	63	-57.8	-86.3	95	2
2023-08-19T00:00	19657	63	-57.6	-86.6	80	2
2023-08-19T00:00	19679	63	-57.2	-86.3	73	2
2023-08-19T00:00	19704	62	-57.0	-86.1	73	2
2023-08-19T00:00	19728	62	-56.9	-86.1	78	2
2023-08-19T00:00	19749	62	-56.7	-85.9	85	2
2023-08-19T00:00	19771	62	-56.8	-86.0	94	3
2023-08-19T00:00	19797	61	-56.8	-86.0	103	3
2023-08-19T00:00	19818	61	-56.8	-86.0	113	3
2023-08-19T00:00	19840	61	-56.8	-86.0	123	3
2023-08-19T00:00	19868	61	-56.8	-86.0	133	4
2023-08-19T00:00	19885	61	-56.7	-85.9	142	4
2023-08-19T00:00	19908	60	-56.8	-86.0	148	4
2023-08-19T00:00	19933	60	-56.8	-86.0	152	4
2023-08-19T00:00	19958	60	-56.9	-86.1	153	4
2023-08-19T00:00	19980	60	-57.1	-86.2	151	4
2023-08-19T00:00	20004	59	-57.1	-86.2	146	4
2023-08-19T00:00	20024	59	-56.8	-86.0	138	3
2023-08-19T00:00	20051	59	-56.6	-85.8	130	3
2023-08-19T00:00	20073	59	-56.5	-85.8	125	3
2023-08-19T00:00	20098	59	-56.3	-86.1	124	4
2023-08-19T00:00	20120	58	-56.2	-86.0	127	4
2023-08-19T00:00	20145	58	-56.1	-86.0	134	4
2023-08-19T00:00	20167	58	-55.9	-85.8	142	4
2023-08-19T00:00	20190	58	-56.1	-85.5	150	4
2023-08-19T00:00	20213	58	-56.2	-85.5	158	4
2023-08-19T00:00	20234	57	-56.2	-85.5	165	4
2023-08-19T00:00	20258	57	-56.3	-85.6	172	3
2023-08-19T00:00	20280	57	-56.3	-86.1	178	3
2023-08-19T00:00	20301	57	-56.1	-86.0	184	2
2023-08-19T00:00	20327	57	-55.6	-85.6	188	2
2023-08-19T00:00	20346	56	-55.5	-85.5	190	2
2023-08-19T00:00	20372	56	-55.2	-85.3	191	2
2023-08-19T00:00	20393	56	-54.9	-85.6	191	3
2023-08-19T00:00	20416	56	-54.7	-85.5	191	3
2023-08-19T00:00	20443	56	-54.7	-85.5	192	3
2023-08-19T00:00	20467	55	-54.7	-85.5	193	3
2023-08-19T00:00	20492	55	-54.4	-85.2	193	2
2023-08-19T00:00	20513	55	-54.2	-85.1	190	2
2023-08-19T00:00	20538	55	-53.8	-84.8	170	1
2023-08-19T00:00	20563	54	-53.8	-84.8	109	1
2023-08-19T00:00	20589	54	-53.9	-84.9	82	2
2023-08-19T00:00	20614	54	-53.9	-84.9	77	2
2023-08-19T00:00	20640	54	-53.9	-84.9	78	3
2023-08-19T00:00	20666	54	-53.9	-84.9	81	4
2023-08-19T00:00	20686	53	-53.8	-84.8	85	4
2023-08-19T00:00	20712	53	-53.7	-84.7	91	5
2023-08-19T00:00	20739	53	-53.7	-84.7	97	5
2023-08-19T00:00	20766	53	-53.8	-84.8	104	5
2023-08-19T00:00	20793	53	-54.0	-84.4	111	6
2023-08-19T00:00	20816	52	-54.2	-84.5	116	6
2023-08-19T00:00	20843	52	-54.3	-84.6	121	6
2023-08-19T00:00	20871	52	-54.5	-84.8	124	6
2023-08-19T00:00	20898	52	-54.6	-84.8	126	6
2023-08-19T00:00	20928	51	-54.8	-85.0	126	6
2023-08-19T00:00	20950	51	-55.0	-85.1	125	5
2023-08-19T00:00	20974	51	-55.0	-85.1	121	5
2023-08-19T00:00	21004	51	-55.0	-85.1	115	5
2023-08-19T00:00	21032	51	-54.8	-85.0	108	5
2023-08-19T00:00	21059	50	-54.9	-85.1	102	5
2023-08-19T00:00	21087	50	-55.0	-85.1	98	6
2023-08-19T00:00	21109	50	-55.0	-85.1	96	6
2023-08-19T00:00	21142	50	-55.0	-85.1	95	7
2023-08-19T00:00	21163	50	-55.0	-85.1	94	7
2023-08-19T00:00	21190	49	-55.0	-85.1	94	7
2023-08-19T00:00	21217	49	-54.9	-85.1	93	7
2023-08-19T00:00	21239	49	-55.0	-85.1	92	6
2023-08-19T00:00	21268	49	-55.1	-85.2	90	6
2023-08-19T00:00	21290	49	-55.1	-85.2	87	6
2023-08-19T00:00	21315	48	-55.2	-85.3	84	6
2023-08-19T00:00	21340	48	-55.4	-85.4	80	6
2023-08-19T00:00	21363	48	-55.4	-85.4	77	6
2023-08-19T00:00	21387	48	-55.2	-85.3	76	6
2023-08-19T00:00	21415	48	-55.3	-84.9	77	6
2023-08-19T00:00	21434	48	-55.5	-85.0	80	6
2023-08-19T00:00	21461	47	-55.5	-85.0	83	7
2023-08-19T00:00	21489	47	-55.6	-85.1	85	8
2023-08-19T00:00	21513	47	-55.7	-85.2	88	9
2023-08-19T00:00	21541	47	-55.7	-85.2	90	10
2023-08-19T00:00	21566	47	-55.6	-85.1	91	10
2023-08-19T00:00	21589	46	-55.8	-85.2	93	11
2023-08-19T00:00	21617	46	-56.0		94	11
2023-08-19T00:00	21641	46	-56.1	-85.5	95	11
2023-08-19T00:00	21669	46	-56.3	-85.6	96	10
2023-08-19T00:00	21691	46	-56.5	-85.3	98	10
2023-08-19T00:00	21722	45	-56.5	-85.3	99	10
2023-08-19T00:00	21741	45	-56.6	-85.4	101	9
2023-08-19T00:00	21767	45	-56.7	-85.4	104	9
2023-08-19T00:00	21792	45	-56.8	-85.5	106	8
2023-08-19T00:00	21818	45	-56.9	-85.6	108	8
2023-08-19T00:00	21844	45	-57.0	-85.7	110	8
2023-08-19T00:00	21868	44	-57.2	-85.8	112	7
2023-08-19T00:00	21893	44	-57.1	-85.7	114	6
2023-08-19T00:00	21915	44	-57.1	-85.7	114	6
2023-08-19T00:00	21942	44	-57.1	-85.7	113	6
2023-08-19T00:00	21962	44	-56.9	-86.1	112	6
2023-08-19T00:00	21991	44	-56.9	-86.1	111	6
2023-08-19T00:00	22010	43	-56.8	-86.0	111	6
2023-08-19T00:00	22033	43	-56.9	-86.1	114	5
2023-08-19T00:00	22060	43	-57.0	-86.1	117	5
2023-08-19T00:00	22085	43	-56.7	-85.9	122	5
2023-08-19T00:00	22106	43	-56.8	-86.0	127	5
2023-08-19T00:00	22124	43	-57.0	-86.1	132	5
2023-08-19T00:00	22149	42	-57.0	-86.1	137	5
2023-08-19T00:00	22171	42	-57.0	-85.7	142	5
2023-08-19T00:00	22198	42	-57.1	-85.7	145	5
2023-08-19T00:00	22222	42	-57.2	-86.3	145	4
2023-08-19T00:00	22243	42	-57.0	-86.1	140	4
2023-08-19T00:00	22268	42	-56.8	-86.0	130	3
2023-08-19T00:00	22291	42	-56.4	-85.7	116	3
2023-08-19T00:00	22314	41	-56.4	-85.7	101	3
2023-08-19T00:00	22337	41	-56.4	-85.7	92	3
2023-08-19T00:00	22363	41	-56.5	-85.8	90	4
2023-08-19T00:00	22385	41	-56.6	-85.8	91	4
2023-08-19T00:00	22413	41	-56.5	-85.8	95	4
2023-08-19T00:00	22437	41	-56.4	-85.7	100	4
2023-08-19T00:00	22461	40	-56.4	-85.7	105	4
2023-08-19T00:00	22486	40	-56.3	-85.6	110	4
2023-08-19T00:00	22514	40	-56.1	-85.5	114	3
2023-08-19T00:00	22536	40	-56.2	-85.5	117	3
2023-08-19T00:00	22562	40	-56.3	-85.6	118	2
2023-08-19T00:00	22592	40	-56.4	-85.7	112	2
2023-08-19T00:00	22615	39	-56.4	-85.7	98	2
2023-08-19T00:00	22645	39	-56.3	-86.1	79	2
2023-08-19T00:00	22670	39	-56.1	-86.0	68	2
2023-08-19T00:00	22695	39	-55.8	-85.7	64	3
2023-08-19T00:00	22725	39	-55.6	-85.6	66	4
2023-08-19T00:00	22747	39	-55.5	-85.5	70	4
2023-08-19T00:00	22776	39	-55.6	-85.6	74	5
2023-08-19T00:00	22801	38	-55.6	-85.6	79	6
2023-08-19T00:00	22826	38	-55.6	-85.6	84	6
2023-08-19T00:00	22853	38	-55.7	-85.7	88	7
2023-08-19T00:00	22875	38	-55.7	-85.7	91	8
2023-08-19T00:00	22899	38	-55.7	-85.7	94	8
2023-08-19T00:00	22928	38	-55.7	-85.7	96	9
2023-08-19T00:00	22950	37	-55.8	-85.7	98	9
2023-08-19T00:00	22974	37	-55.9	-85.3	100	10
2023-08-19T00:00	23001	37	-55.9	-85.3	103	10
2023-08-19T00:00	23024	37	-56.0		106	10
2023-08-19T00:00	23045	37	-56.1	-85.5	109	11
2023-08-19T00:00	23076	37	-56.1	-85.5	112	11
2023-08-19T00:00	23097	37	-56.2	-85.5	115	12
2023-08-19T00:00	23124	36	-56.4	-85.7	118	12
2023-08-19T00:00	23151	36	-56.5	-85.8	119	12
2023-08-19T00:00	23172	36	-56.5	-85.8	120	12
2023-08-19T00:00	23200	36	-56.5	-85.8	120	12
2023-08-19T00:00	23222	36	-56.4	-85.7	120	11
2023-08-19T00:00	23247	36	-56.4	-85.7	119	11
2023-08-19T00:00	23272	36	-56.4	-85.7	119	10
2023-08-19T00:00	23296	35	-56.5	-85.8	119	10
2023-08-19T00:00	23324	35	-56.7	-85.9	119	9
2023-08-19T00:00	23349	35	-56.6	-85.8	119	8
2023-08-19T00:00	23378	35	-56.6	-86.3	119	7
2023-08-19T00:00	23398	35	-56.5	-86.3	120	6
2023-08-19T00:00	23427	35	-56.4	-86.2	119	6
2023-08-19T00:00	23455	35	-56.3	-86.1	117	5
2023-08-19T00:00	23480	34	-56.0	-85.9	114	5
2023-08-19T00:00	23508	34	-55.8	-85.7	110	5
2023-08-19T00:00	23534	34	-55.8	-85.7	106	5
2023-08-19T00:00	23563	34	-55.9	-85.8	103	6
2023-08-19T00:00	23584	34	-55.9	-85.8	100	6
2023-08-19T00:00	23613	34	-56.0	-85.9	97	7
2023-08-19T00:00	23641	34	-56.1	-86.0	95	7
2023-08-19T00:00	23666	33	-56.2	-86.0	93	7
2023-08-19T00:00	23696	33	-56.3	-86.1	91	7
2023-08-19T00:00	23727	33	-56.3	-86.1	89	7
2023-08-19T00:00	23757	33	-56.2	-86.0	89	7
2023-08-19T00:00	23782	33	-56.2	-85.5	91	7
2023-08-19T00:00	23805	33	-56.4	-85.7	94	7
2023-08-19T00:00	23838	33	-56.4	-85.7	98	7
2023-08-19T00:00	23864	32	-56.6	-85.8	102	7
2023-08-19T00:00	23894	32	-56.8	-86.0	105	7
2023-08-19T00:00	23918	32	-57.0	-86.1	108	8
2023-08-19T00:00	23948	32	-57.0	-86.1	109	8
2023-08-19T00:00	23978	32	-57.0	-86.1	109	8
2023-08-19T00:00	24005	32	-57.1	-86.2	108	8
2023-08-19T00:00	24032	32	-57.1	-86.2	105	8
2023-08-19T00:00	24062	31	-57.2	-86.3	101	7
2023-08-19T00:00	24090	31	-57.3	-86.4	98	7
2023-08-19T00:00	24115	31	-57.4	-86.4	96	7
2023-08-19T00:00	24142	31	-57.5	-86.5	97	7
2023-08-19T00:00	24178	31	-57.5	-86.5	100	8
2023-08-19T00:00	24199	31	-57.5	-86.5	102	8
2023-08-19T00:00	24232	31	-57.5	-86.5	105	8
2023-08-19T00:00	24249	31	-57.5	-86.5	107	7
2023-08-19T00:00	24278	30	-57.5	-86.5	109	7
2023-08-19T00:00	24301	30	-57.6	-87.1	111	6
2023-08-19T00:00	24327	30	-57.3	-86.9	114	6
2023-08-19T00:00	24356	30	-56.9	-86.6	114	6
2023-08-19T00:00	24375	30	-56.5	-86.8	113	6
2023-08-19T00:00	24396	30	-56.5	-86.8	109	6
2023-08-19T00:00	24430	30	-55.9	-86.3	102	6
2023-08-19T00:00	24448	30	-55.6	-86.1	94	6
2023-08-19T00:00	24468	29	-55.5	-86.1	86	7
2023-08-19T00:00	24498	29	-55.4	-86.6	79	8
2023-08-19T00:00	24521	29	-55.2	-86.4	75	8
2023-08-19T00:00	24547	29	-55.0	-86.3	73	9
2023-08-19T00:00	24569	29	-54.8	-86.1	73	10
2023-08-19T00:00	24591	29	-54.6	-86.0	74	10
2023-08-19T00:00	24611	29	-54.2	-85.7	76	11
2023-08-19T00:00	24638	29	-53.9	-85.5	78	11
2023-08-19T00:00	24659	29	-53.9	-85.5	81	11
2023-08-19T00:00	24686	29	-53.7	-85.3	85	11
2023-08-19T00:00	24700	28	-53.7	-85.3	88	10
2023-08-19T00:00	24729	28	-53.6	-85.3	91	10
2023-08-19T00:00	24749	28	-53.4	-85.1	95	10
2023-08-19T00:00	24771	28	-53.4	-85.1	99	10
2023-08-19T00:00	24794	28	-53.4	-85.1	103	9
2023-08-19T00:00	24820	28	-53.5	-85.2	107	9
2023-08-19T00:00	24849	28	-53.6	-85.3	110	9
2023-08-19T00:00	24868	28	-53.4	-85.1	112	9
2023-08-19T00:00	24884	28	-53.5	-85.2	112	9
2023-08-19T00:00	24915	28	-53.4	-85.1	112	9
2023-08-19T00:00	24940	27	-53.2	-85.0	110	9
2023-08-19T00:00	24961	27	-53.0	-84.8	107	9
2023-08-19T00:00	24980	27	-52.7	-85.3	104	9
2023-08-19T00:00	25012	27	-52.4	-85.1	101	9
2023-08-19T00:00	25031	27	-52.2	-84.9	98	9
2023-08-19T00:00	25059	27	-52.0	-84.8	95	9
2023-08-19T00:00	25090	27	-51.8	-84.6	92	9
2023-08-19T00:00	25117	27	-51.7	-84.5	90	9
2023-08-19T00:00	25141	27	-51.6	-84.5	89	9
2023-08-19T00:00	25173	26	-51.7	-84.5	89	9
2023-08-19T00:00	25195	26	-51.6	-84.5	88	10
2023-08-19T00:00	25226	26	-51.6	-84.5	88	10
2023-08-19T00:00	25251	26	-51.6	-84.5	87	9
2023-08-19T00:00	25276	26	-51.6	-84.5	87	9
2023-08-19T00:00	25308	26	-51.5	-84.4	88	9
2023-08-19T00:00	25341	26	-51.2	-84.2	91	9
2023-08-19T00:00	25366	26	-51.2	-84.2	95	9
2023-08-19T00:00	25396	26	-51.0	-84.0	99	9
2023-08-19T00:00	25430	25	-50.9	-84.0	102	9
2023-08-19T00:00	25455	25	-51.0	-84.0	103	9
2023-08-19T00:00	25488	25	-50.9	-84.0	102	8
2023-08-19T00:00	25515	25	-51.0	-84.0	100	8
2023-08-19T00:00	25542	25	-50.7	-83.8	97	8
2023-08-19T00:00	25574	25	-50.5	-83.7	94	8
2023-08-19T00:00	25601	25	-50.5	-83.7	92	8
2023-08-19T00:00	25627	25	-50.5	-83.7	91	8
2023-08-19T00:00	25655	25	-50.5	-83.7	90	8
2023-08-19T00:00	25687	24	-50.5	-83.7	89	8
2023-08-19T00:00	25715	24	-50.5	-83.7	87	8
2023-08-19T00:00	25741	24	-50.4	-83.6	85	8
2023-08-19T00:00	25763	24	-50.3	-83.5	84	8
2023-08-19T00:00	25799	24	-50.4	-83.6	83	8
2023-08-19T00:00	25828	24	-50.4	-83.6	83	8
2023-08-19T00:00	25848	24	-50.4	-83.6	83	8
2023-08-19T00:00	25882	24	-50.3	-83.5	83	8
2023-08-19T00:00	25911	24	-50.3	-83.5	84	8
2023-08-19T00:00	25936	24	-50.3	-83.5	85	9
2023-08-19T00:00	25963	23	-50.4	-83.6	85	9
2023-08-19T00:00	25986	23	-50.5	-83.7	86	9
2023-08-19T00:00	26019	23	-50.7	-83.8	88	8
2023-08-19T00:00	26043	23	-50.8	-83.9	89	8
2023-08-19T00:00	26065	23	-50.8	-83.9	92	8
2023-08-19T00:00	26090	23	-50.8	-83.9	94	8
2023-08-19T00:00	26110	23	-50.9	-84.0	96	7
2023-08-19T00:00	26148	23	-50.9	-84.0	98	7
2023-08-19T00:00	26166	23	-51.0	-84.0	100	7
2023-08-19T00:00	26193	23	-50.9	-84.0	100	6
2023-08-19T00:00	26221	23	-50.7	-83.8	99	6
2023-08-19T00:00	26241	22	-50.8	-83.9	95	6
2023-08-19T00:00	26272	22	-50.7	-83.8	89	6
2023-08-19T00:00	26293	22	-50.6	-83.7	83	6
2023-08-19T00:00	26317	22	-50.6	-83.7	76	6
2023-08-19T00:00	26344	22	-50.6	-83.7	71	6
2023-08-19T00:00	26375	22	-50.6	-83.7	67	7
2023-08-19T00:00	26384	22	-50.5	-83.7	66	7
2023-08-19T00:00	26415	22	-50.4	-83.6	68	8
2023-08-19T00:00	26442	22	-50.2	-83.5	71	8
2023-08-19T00:00	26468	22	-50.1	-84.2	76	8
2023-08-19T00:00	26495	22	-49.8	-84.0	81	9
2023-08-19T00:00	26516	22	-49.6	-83.8	87	9
2023-08-19T00:00	26553	21	-49.3	-83.6	92	9
2023-08-19T00:00	26578	21	-48.7	-83.2	98	9
2023-08-19T00:00	26601	21	-48.8	-83.2	102	9
2023-08-19T00:00	26634	21	-49.0	-83.4	106	8
2023-08-19T00:00	26658	21	-49.0	-83.4	108	8
2023-08-19T00:00	26684	21	-48.8	-83.2	107	7
2023-08-19T00:00	26705	21	-48.6	-83.1	104	7
2023-08-19T00:00	26738	21	-48.5	-83.0	100	6
2023-08-19T00:00	26771	21	-48.5	-83.0	96	6
2023-08-19T00:00	26792	21	-48.4	-82.9	94	5
2023-08-19T00:00	26819	21	-48.3	-82.9	92	5
2023-08-19T00:00	26850	20	-48.1	-82.7	90	5
2023-08-19T00:00	26882	20	-47.8	-83.4	86	5
2023-08-19T00:00	26900	20	-47.3	-83.1	81	5
2023-08-19T00:00	26932	20	-46.9	-82.8	78	5
2023-08-19T00:00	26956	20	-46.9	-82.8	76	6
2023-08-19T00:00	26990	20	-46.9	-82.8	77	5
2023-08-19T00:00	27006	20	-46.8	-82.7	80	5
2023-08-19T00:00	27040	20	-46.9	-82.8	85	5
2023-08-19T00:00	27066	20	-46.9	-81.9	88	5
2023-08-19T00:00	27094	20	-46.5	-82.5	89	5
2023-08-19T00:00	27115	20	-46.5	-82.5	87	4
2023-08-19T00:00	27148	20	-46.4	-82.4	83	4
2023-08-19T00:00	27168	19	-46.4	-82.4	78	4
2023-08-19T00:00	27212	19	-46.4	-82.4	73	5
2023-08-19T00:00	27227	19	-46.4	-81.5	70	5
2023-08-19T00:00	27257	19	-46.5	-81.6	68	6
2023-08-19T00:00	27288	19	-46.7	-81.7	67	7
2023-08-19T00:00	27314	19	-46.7	-81.7	67	8
2023-08-19T00:00	27334	19	-46.6	-81.7	68	9
2023-08-19T00:00	27353	19	-46.8	-81.8	69	10
2023-08-19T00:00	27375	19	-47.0	-81.9	71	10
2023-08-19T00:00	27400	19	-47.2	-82.1	73	11
2023-08-19T00:00	27427	19	-47.2	-82.1	74	12
2023-08-19T00:00	27455	19	-47.4	-82.2	76	12
2023-08-19T00:00	27485	19	-47.5	-82.3	79	13
2023-08-19T00:00	27505	19	-47.7	-82.4	81	13
2023-08-19T00:00	27528	18	-47.7	-82.4	83	13
2023-08-19T00:00	27554	18	-47.7	-82.4	86	14
2023-08-19T00:00	27574	18	-47.7	-82.4	88	14
2023-08-19T00:00	27604	18	-47.6	-82.4	89	14
2023-08-19T00:00	27626	18	-47.6	-82.4	90	14
2023-08-19T00:00	27652	18	-47.5	-82.3	91	14
2023-08-19T00:00	27683	18	-47.6	-82.4	91	14
2023-08-19T00:00	27705	18	-47.8	-82.5	91	13
2023-08-19T00:00	27728	18	-47.8	-82.5	91	13
2023-08-19T00:00	27759	18	-47.9	-82.6	92	12
2023-08-19T00:00	27782	18	-47.9	-82.6	93	12
2023-08-19T00:00	27815	18	-47.9	-82.6	94	12
2023-08-19T00:00	27836	18	-47.8	-82.5	97	12
2023-08-19T00:00	27867	18	-47.5	-82.3	100	12
2023-08-19T00:00	27888	17	-47.5	-82.3	103	12
2023-08-19T00:00	27926	17	-47.6	-82.4	107	12
2023-08-19T00:00	27950	17	-47.6	-82.4	111	12
2023-08-19T00:00	27984	17	-47.7	-82.4	115	12
2023-08-19T00:00	28008	17	-47.6	-82.4	119	11
2023-08-19T00:00	28040	17	-47.5	-82.3	122	11
2023-08-19T00:00	28064	17	-47.1	-82.0	126	10
2023-08-19T00:00	28088	17	-47.1	-82.9	131	9
2023-08-19T00:00	28118	17	-47.0	-82.9	136	9
2023-08-19T00:00	28142	17	-47.0	-82.9	143	9
2023-08-19T00:00	28174	17	-47.0	-81.9	148	8
2023-08-19T00:00	28204	17	-47.2	-82.1	153	8
2023-08-19T00:00	28223	17	-47.2	-82.1	157	8
2023-08-19T00:00	28247	17	-47.3	-83.1	159	7
2023-08-19T00:00	28273	17	-47.4	-83.1	159	7
2023-08-19T00:00	28308	16	-46.7	-82.6	159	6
2023-08-19T00:00	28324	16	-46.7	-82.6	160	6
2023-08-19T00:00	28361	16	-46.6	-82.6	163	5
2023-08-19T00:00	28383	16	-46.7	-82.6	170	5
2023-08-19T00:00	28414	16	-46.7	-82.6	178	4
2023-08-19T00:00	28437	16	-46.7	-82.6	187	4
2023-08-19T00:00	28472	16	-46.7	-82.6	194	3
2023-08-19T00:00	28492	16	-46.7	-82.6	198	2
2023-08-19T00:00	28520	16	-46.6	-82.6	198	2
2023-08-19T00:00	28537	16	-46.3	-82.4	183	1
2023-08-19T00:00	28572	16	-46.1	-82.2	57	1
2023-08-19T00:00	28588	16	-45.9	-82.1	47	1
2023-08-19T00:00	28619	16	-45.6	-81.9	48	2
2023-08-19T00:00	28655	16	-45.5	-81.8	51	2
2023-08-19T00:00	28673	16	-45.6	-81.9	53	2
2023-08-19T00:00	28700	15	-45.5	-81.8	52	2
2023-08-19T00:00	28728	15	-45.4	-81.7	48	1
2023-08-19T00:00	28746	15	-45.4	-81.7	42	1
2023-08-19T00:00	28777	15	-45.3	-81.6	40	1
2023-08-19T00:00	28802	15	-45.3	-81.6	57	0
2023-08-19T00:00	28829	15	-45.4	-81.7	125	0
2023-08-19T00:00	28857	15	-45.3	-81.6	137	1
2023-08-19T00:00	28885	15	-45.3	-81.6	123	1
2023-08-19T00:00	28911	15	-45.3	-81.6	104	1
2023-08-19T00:00	28934	15	-45.3	-81.6	91	1
2023-08-19T00:00	28971	15	-45.1	-81.5	87	2
2023-08-19T00:00	28984	15	-45.1	-81.5	90	2
2023-08-19T00:00	29008	15	-45.2	-81.6	97	3
2023-08-19T00:00	29050	15	-45.2	-81.6	106	3
2023-08-19T00:00	29076	15	-45.4	-81.7	113	4
2023-08-19T00:00	29099	15	-45.5	-81.8	119	4
2023-08-19T00:00	29125	15	-45.5	-81.8	122	4
2023-08-19T00:00	29145	14	-45.6	-81.9	124	4
2023-08-19T00:00	29176	14	-45.5	-81.8	124	3
2023-08-19T00:00	29207	14	-45.3	-81.6	123	3
2023-08-19T00:00	29237	14	-45.3	-81.6	122	3
2023-08-19T00:00	29269	14	-45.1	-81.5	120	3
2023-08-19T00:00	29294	14	-44.8	-82.4	118	3
2023-08-19T00:00	29321	14	-44.7	-82.3	115	3
2023-08-19T00:00	29349	14	-44.6	-82.2	113	4
2023-08-19T00:00	29373	14	-44.6	-82.2	111	4
2023-08-19T00:00	29403	14	-44.3	-82.0	111	5
2023-08-19T00:00	29433	14	-44.2	-82.0	112	5
2023-08-19T00:00	29455	14	-44.0	-81.8	113	6
2023-08-19T00:00	29496	14	-43.6	-81.5	115	6
2023-08-19T00:00	29507	14	-43.5	-81.5	118	6
2023-08-19T00:00	29525	14	-43.4	-81.4	121	7
2023-08-19T00:00	29551	14	-43.3	-81.3	124	7
2023-08-19T00:00	29602	14	-43.4	-81.4	127	7
2023-08-19T00:00	29604	13	-43.5	-81.5	130	8
2023-08-19T00:00	29648	13	-43.4	-81.4	133	8
2023-08-19T00:00	29683	13	-43.4	-81.4	136	9
2023-08-19T00:00	29707	13	-43.5	-81.5	139	9
2023-08-19T00:00	29730	13	-43.5	-81.5	141	9
2023-08-19T00:00	29765	13	-43.5	-81.5	144	9
2023-08-19T00:00	29801	13	-43.3	-81.3	148	9
2023-08-19T00:00	29821	13	-43.3	-81.3	151	8
2023-08-19T00:00	29857	13	-43.4	-81.4	155	8
2023-08-19T00:00	29885	13	-43.5	-81.5	158	8
2023-08-19T00:00	29915	13	-43.7	-81.6	162	8
2023-08-19T00:00	29935	13	-43.8	-81.7	165	8
2023-08-19T00:00	29971	13	-44.0	-81.8	169	8
2023-08-19T00:00	29997	13	-44.1	-80.8	172	7
2023-08-19T00:00	30030	13	-44.2	-80.9	176	7
2023-08-19T00:00	30051	13	-44.3	-82.0	180	6
2023-08-19T00:00	30085	13	-44.4	-82.1	184	6
2023-08-19T00:00	30105	13	-44.3	-82.0	189	5
2023-08-19T00:00	30147	12	-44.4	-82.1	194	4
2023-08-19T00:00	30178	12	-44.3	-82.0	199	4
2023-08-19T00:00	30203	12	-44.4	-82.1	202	3
2023-08-19T00:00	30235	12	-44.5	-82.2	199	2
2023-08-19T00:00	30262	12	-44.4	-82.1	186	2
2023-08-19T00:00	30285	12	-44.2	-82.0	161	2
2023-08-19T00:00	30324	12	-44.1	-81.9	134	2
2023-08-19T00:00	30363	12	-44.1	-81.9	116	3
2023-08-19T00:00	30385	12	-44.2	-82.0	105	4
2023-08-19T00:00	30412	12	-44.3	-82.0	97	4
2023-08-19T00:00	30437	12	-44.4	-82.1	92	5
2023-08-19T00:00	30464	12	-44.5	-82.2	88	5
2023-08-19T00:00	30491	12	-44.6	-82.2	87	5
2023-08-19T00:00	30528	12	-44.6	-82.2	87	5
2023-08-19T00:00	30544	12	-44.4	-82.1	90	5
2023-08-19T00:00	30569	12	-44.4	-82.1	93	4
2023-08-19T00:00	30604	12	-44.6	-82.2	96	3
2023-08-19T00:00	30639	12	-44.8	-82.4	97	3
2023-08-19T00:00	30667	12	-44.9	-81.4	92	2
2023-08-19T00:00	30703	12	-44.8	-81.3	81	2
2023-08-19T00:00	30714	11	-44.8	-82.4	60	1
2023-08-19T00:00	30748	11	-44.7	-82.3	38	1
2023-08-19T00:00	30777	11	-44.7	-82.3	18	2
2023-08-19T00:00	30798	11	-44.8	-82.4	3	2
2023-08-19T00:00	30822	11	-44.9	-82.5	353	2
2023-08-19T00:00	30837	11	-44.9	-82.5	347	3
2023-08-19T00:00	30864	11	-44.7	-82.3	344	4
2023-08-19T00:00	30895	11	-44.8	-82.4	341	4
2023-08-19T00:00	30930	11	-44.8	-82.4	341	4
2023-08-19T00:00	30952	11	-44.9	-82.5	343	5
2023-08-19T00:00	30979	11	-44.9	-82.5	349	5
2023-08-19T00:00	30994	11	-44.9	-82.5	357	5
2023-08-19T00:00	31029	11	-44.7	-82.3	8	6
2023-08-19T00:00	31052	11	-44.0	-81.8	20	6
2023-08-19T00:00	31067	11	-43.8	-81.7	30	7
2023-08-19T00:00	31095	11	-43.6	-81.5	38	7
2023-08-19T00:00	31118	11	-43.4	-81.4	45	7
2023-08-19T00:00	31144	11	-43.2	-81.3	50	8
2023-08-19T00:00	31161	11	-43.1	-81.2	53	8
2023-08-19T00:00	31176	11	-42.9	-81.1	53	8
2023-08-19T00:00	31185	11	-42.6	-80.8	53	8
2023-08-19T00:00	31223	11	-42.3	-80.6	51	8
2023-08-19T00:00	31251	11	-42.0	-80.4	50	8
2023-08-19T00:00	31273	11	-41.8	-80.3	50	8
2023-08-19T00:00	31301	11	-41.8	-80.3	51	8
2023-08-19T00:00	31332	10	-41.6	-80.1	54	8
2023-08-19T00:00	31367	10	-41.4	-80.0	58	8
2023-08-19T00:00	31373	10	-41.2	-79.9	63	8
2023-08-19T00:00	31405	10	-41.2	-79.9	69	8
2023-08-19T00:00	31453	10	-41.0	-79.7	74	8
2023-08-19T00:00	31482	10	-40.9	-79.7	80	9
2023-08-19T00:00	31495	10	-40.9	-79.7	85	9
2023-08-19T00:00	31513	10	-40.7	-79.5	90	9
2023-08-19T00:00	31536	10	-40.7	-79.5	95	9
2023-08-19T00:00	31571	10	-40.7	-79.5	100	9
2023-08-19T00:00	31606	10	-40.7	-79.5	103	8
2023-08-19T00:00	31626	10	-40.6	-79.5	106	8
2023-08-19T00:00	31645	10	-40.5	-79.4	106	7
2023-08-19T00:00	31693	10	-40.5	-79.4	104	7
2023-08-19T00:00	31718	10	-40.3	-79.2	99	6
2023-08-19T00:00	31728	10	-40.1	-79.1	93	6
2023-08-19T00:00	31754	10	-39.9	-79.0	86	6
2023-08-19T00:00	31792	10	-39.7	-78.8	81	6
2023-08-19T00:00	31807	10	-39.4	-78.6	79	7
2023-08-19T00:00	31824	10	-39.2	-78.5	79	8
2023-08-19T00:00	31855	10	-39.1	-78.4	81	8
2023-08-19T00:00	31873	10	-39.0	-78.3	83	9
2023-08-19T00:00	31898	10	-38.9	-78.3	85	9
2023-08-19T00:00	31930	10	-38.8	-78.2	88	10
2023-08-19T00:00	31966	10	-38.8	-78.2	91	10
2023-08-19T00:00	31979	10	-38.8	-78.2	95	9
2023-08-19T00:00	31991	10	-38.7	-78.1	99	9
2023-08-19T00:00	32005	9	-38.4	-77.9	103	9
2023-08-19T00:00	32043	9	-38.2	-77.8	108	9
2023-08-19T00:00	32081	9	-38.2	-77.8	111	9
2023-08-19T00:00	32111	9	-38.3	-77.9	113	8
2023-08-19T00:00	32143	9	-38.2	-77.8	111	8
2023-08-19T00:00	32162	9	-38.2	-77.8	108	7
2023-08-19T00:00	32194	9	-38.1	-77.7	103	7
2023-08-19T00:00	32211	9	-37.9	-77.6	98	7
2023-08-19T00:00	32243	9	-37.4	-77.2	94	7
2023-08-19T00:00	32270	9	-37.1	-77.0	90	7
2023-08-19T00:00	32287	9	-37.1	-77.0	85	6
2023-08-19T00:00	32323	9	-36.9	-76.9	80	6
2023-08-19T00:00	32353	9	-36.9	-76.9	74	6
2023-08-19T00:00	32373	9	-37.0	-77.0	67	6
2023-08-19T00:00	32403	9	-37.0	-77.0	61	6
2023-08-19T00:00	32417	9	-36.8	-76.8	57	7
2023-08-19T00:00	32465	9	-36.8	-76.8	54	8
2023-08-19T00:00	32488	9	-36.7	-76.7	54	8
2023-08-19T00:00	32515	9	-36.6	-76.7	55	9
2023-08-19T00:00	32538	9	-36.5	-76.6	57	9
2023-08-19T00:00	32582	9	-36.6	-76.7	59	9
2023-08-19T00:00	32606	9	-36.6	-76.7	64	9
2023-08-19T00:00	32648	9	-36.6	-76.7	67	9
2023-08-19T00:00	32662	9	-36.7	-76.7	68	9
2023-08-19T00:00	32705	9	-36.7	-76.7	70	9
2023-08-19T00:00	32720	9	-36.8	-76.8	72	10
2023-08-19T00:00	32747	9	-36.9	-76.9	73	10
2023-08-19T00:00	32784	8	-37.0	-77.0	75	10
2023-08-19T00:00	32812	8	-37.2	-77.1	78	10
2023-08-19T00:00	32838	8	-37.4	-77.2	81	10
2023-08-19T00:00	32856	8	-37.5	-77.3	84	10
2023-08-19T00:00	32885	8	-37.5	-77.3	87	10
2023-08-19T00:00	32916	8	-37.6	-77.4	90	10
2023-08-19T00:00	32960	8	-37.7	-77.4	93	10
2023-08-19T00:00	32968	8	-37.7	-77.4	97	10
2023-08-19T00:00	32998	8	-37.7	-77.4	100	9
2023-08-19T00:00	33022	8	-37.5	-77.3	102	9
2023-08-19T00:00	33041	8	-37.3	-77.2	105	9
2023-08-19T00:00	33081	8	-37.1	-77.0	107	9
2023-08-19T00:00	33094	8	-37.0	-77.0	109	8
2023-08-19T00:00	33118	8	-36.7	-76.7	109	8
2023-08-19T00:00	33138	8	-36.6	-76.7	108	8
2023-08-19T00:00	33193	8	-36.5	-76.6	106	8
2023-08-19T00:00	33212	8	-36.4	-76.5	104	8
2023-08-19T00:00	33229	8	-36.4	-76.5	102	7
2023-08-19T00:00	33262	8	-36.4	-76.5	101	7
2023-08-19T00:00	33290	8	-36.4	-76.5	101	7
2023-08-19T00:00	33315	8	-36.5	-76.6	100	7
2023-08-19T00:00	33360	8	-36.5	-76.6	98	7
2023-08-19T00:00	33366	8	-36.5	-76.6	96	6
2023-08-19T00:00	33417	8	-36.5	-76.6	93	6
2023-08-19T00:00	33440	8	-36.7	-76.7	87	6
2023-08-19T00:00	33458	8	-36.7	-76.7	86	6
2023-08-19T00:00	33503	8	-36.8	-76.8	86	6
2023-08-19T00:00	33524	8	-36.8	-76.8	86	6
2023-08-19T00:00	33548	8	-36.8	-76.8	86	5
2023-08-19T00:00	33566	8	-36.8	-76.8	86	5
2023-08-19T00:00	33595	8	-36.8	-76.8	85	5
2023-08-19T00:00	33621	8	-36.9	-76.9	82	4
2023-08-19T00:00	33647	8	-36.7	-76.7	77	4
2023-08-19T00:00	33680	7	-36.6	-76.7	71	4
2023-08-19T00:00	33692	7	-36.7	-76.7	63	5
2023-08-19T00:00	33712	7	-36.7	-76.7	58	5
2023-08-19T00:00	33745	7	-36.7	-76.7	53	6
2023-08-19T00:00	33785	7	-36.6	-76.7	50	7
2023-08-19T00:00	33788	7	-36.6	-76.7	49	7
2023-08-19T00:00	33833	7	-36.7	-76.7	48	8
2023-08-19T00:00	33841	7	-36.6	-76.7	49	8
2023-08-19T00:00	33872	7	-36.5	-76.6	51	9
2023-08-19T00:00	33908	7	-36.4	-76.5	53	9
2023-08-19T00:00	33922	7	-36.4	-76.5	55	9
2023-08-19T00:00	33963	7	-36.5	-76.6	58	9
2023-08-19T00:00	34009	7	-36.6	-76.7	60	10
2023-08-19T00:00	34010	7	-36.5	-76.6	63	10
2023-08-19T00:00	34035	7	-36.5	-76.6	66	10
2023-08-19T00:00	34068	7	-36.5	-76.6	68	10
2023-08-19T00:00	34102	7	-36.4	-76.5	70	10
2023-08-19T00:00	34120	7	-36.2	-76.4	73	10
2023-08-19T00:00	34162	7	-36.2	-76.4	74	9
2023-08-19T00:00	34223	7	-36.2	-76.4	74	8
2023-08-19T00:00	34227	7	-36.2	-76.4	76	8
2023-08-19T00:00	34252	7	-36.2	-76.4	78	7
2023-08-19T00:00	34270	7	-36.4	-76.5	79	7
2023-08-19T00:00	34298	7	-36.5	-76.6	80	6
2023-08-19T00:00	34328	7	-36.6	-76.7	79	6
2023-08-19T00:00	34364	7	-36.6	-76.7	76	6
2023-08-19T00:00	34382	7	-36.4	-76.5	64	5
2023-08-19T00:00	34405	7	-36.2	-76.4	59	5
2023-08-19T00:00	34444	7	-36.2	-76.4	55	5
2023-08-19T00:00	34464	7	-36.1	-76.3	54	5
2023-08-19T00:00	34484	7	-35.9	-76.2	55	6
2023-08-19T00:00	34523	7	-35.8	-76.1	57	6
2023-08-19T00:00	34553	7	-35.7	-76.1	58	7
2023-08-19T00:00	34572	7	-35.6	-76.0	60	8
2023-08-19T00:00	34575	7	-35.5	-75.9	61	9
2023-08-19T00:00	34602	7	-35.5	-75.9	62	9
2023-08-19T00:00	34630	7	-35.6	-76.0	62	10
2023-08-19T00:00	34640	6	-35.6	-76.0	63	10
2023-08-19T00:00	34646	6	-35.7	-76.1	63	11
2023-08-19T00:00	34694	6	-35.7	-76.1	63	11
2023-08-19T00:00	34745	6	-35.7	-76.1	63	12
2023-08-19T00:00	34748	6	-35.7	-76.1	63	13
2023-08-19T00:00	34778	6	-35.8	-76.1	64	13
2023-08-19T00:00	34793	6	-35.9	-76.2	65	13
2023-08-19T00:00	34816	6	-36.1	-76.3	67	13
2023-08-19T00:00	34838	6	-36.1	-76.3	69	13
2023-08-19T00:00	34841	6	-36.2	-76.4	72	13
2023-08-19T00:00	34876	6	-36.2	-76.4	74	13
2023-08-19T00:00	34906	6	-36.1	-76.3	79	13
2023-08-19T00:00	34910	6	-36.1	-76.3	82	13
2023-08-19T00:00	34964	6	-36.1	-76.3	83	13
2023-08-19T00:00	34970	6	-36.2	-76.4	85	13
2023-08-19T00:00	35021	6	-36.2	-76.4	85	12
2023-08-19T00:00	35064	6	-36.3	-76.5	85	12
2023-08-19T00:00	35085	6	-36.3	-76.5	84	12
2023-08-19T00:00	35106	6	-36.3	-76.5	84	11
2023-08-19T00:00	35123	6	-36.1	-76.3	85	11
2023-08-19T00:00	35140	6	-35.8	-76.1	87	10
2023-08-19T00:00	35192	6	-35.7	-76.1	93	10
2023-08-19T00:00	35205	6	-35.6	-76.0	96	10
2023-08-19T00:00	35265	6	-35.4	-75.8	95	11
2023-08-19T00:00	35270	6	-35.3	-75.8	93	11
2023-08-19T00:00	35310	6	-35.3	-75.8	90	12
2023-08-19T00:00	35343	6	-35.1	-75.6	87	13
2023-08-19T06:00	-999					
2023-08-19T06:00	134	1002	19.5	18.6	122	3
2023-08-19T06:00	161	999	19.8	18.3	127	4
2023-08-19T06:00	184	996	20.5	18.0	132	4
2023-08-19T06:00	210	993	21.7	17.7	138	4
2023-08-19T06:00	236	990	22.4	17.5	143	5
2023-08-19T06:00	259	988	22.7	17.2	147	5
2023-08-19T06:00	285	985	23.1	16.8	150	5
2023-08-19T06:00	311	982	23.6	16.2	150	5
2023-08-19T06:00	331	979	23.7	15.9	149	5
2023-08-19T06:00	355	977	23.5	15.7	146	5
2023-08-19T06:00	378	974	23.4	15.8	144	5
2023-08-19T06:00	403	971	23.3	15.8	141	5
2023-08-19T06:00	427	969	23.2	15.7	140	5
2023-08-19T06:00	452	966	23.0	15.8	139	5
2023-08-19T06:00	477	963	22.9	15.8	137	4
2023-08-19T06:00	500	961	22.8	15.2	136	4
2023-08-19T06:00	527	958	22.6	15.3	134	4
2023-08-19T06:00	552	955	22.4	15.5	131	3
2023-08-19T06:00	574	952	22.2	15.4	128	3
2023-08-19T06:00	603	950	22.0	15.0	126	2
2023-08-19T06:00	629	947	21.8	15.0	125	2
2023-08-19T06:00	655	944	21.7	15.0	127	2
2023-08-19T06:00	678	941	21.6	14.8	130	3
2023-08-19T06:00	702	939	21.4	14.7	132	3
2023-08-19T06:00	728	936	21.2	14.8	134	3
2023-08-19T06:00	758	933	21.0	14.6	135	3
2023-08-19T06:00	788	930	20.8	14.6	135	4
2023-08-19T06:00	814	927	20.6	14.3	134	4
2023-08-19T06:00	839	924	20.4	13.9	132	4
2023-08-19T06:00	862	922	20.2	14.0	129	4
2023-08-19T06:00	885	919	20.0	14.1	124	3
2023-08-19T06:00	910	916	19.7	14.3	117	3
2023-08-19T06:00	937	914	19.5	14.3	111	3
2023-08-19T06:00	961	911	19.3	14.3	108	3
2023-08-19T06:00	989	908	19.0	14.1	108	3
2023-08-19T06:00	1013	906	18.9	13.9	111	3
2023-08-19T06:00	1040	903	18.7	13.8	114	3
2023-08-19T06:00	1066	900	18.5	13.8	116	3
2023-08-19T06:00	1090	897	18.3	13.6	119	3
2023-08-19T06:00	1115	895	18.1	13.6	121	3
2023-08-19T06:00	1140	892	17.9	13.5	124	3
2023-08-19T06:00	1169	889	17.6	13.4	126	3
2023-08-19T06:00	1196	886	17.4	13.4	127	3
2023-08-19T06:00	1224	884	17.1	13.3	127	3
2023-08-19T06:00	1248	881	16.9	13.3	127	3
2023-08-19T06:00	1272	878	16.7	13.3	127	2
2023-08-19T06:00	1298	876	16.5	13.2	129	2
2023-08-19T06:00	1323	873	16.2	13.1	132	2
2023-08-19T06:00	1351	870	16.0	13.1	136	2
2023-08-19T06:00	1378	868	15.7	12.9	139	2
2023-08-19T06:00	1405	865	15.5	12.9	139	2
2023-08-19T06:00	1435	862	15.2	12.6	137	2
2023-08-19T06:00	1463	859	15.0	12.6	135	2
2023-08-19T06:00	1489	857	14.7	12.4	134	2
2023-08-19T06:00	1514	854	14.5	12.4	136	2
2023-08-19T06:00	1541	851	14.3	12.4	140	2
2023-08-19T06:00	1568	849	14.1	12.1	145	2
2023-08-19T06:00	1592	846	13.9	12.0	151	2
2023-08-19T06:00	1615	844	13.7	11.9	157	2
2023-08-19T06:00	1638	841	13.5	11.7	162	2
2023-08-19T06:00	1668	839	13.3	11.3	166	2
2023-08-19T06:00	1697	836	13.1	11.3	167	2
2023-08-19T06:00	1726	833	12.8	11.1	169	2
2023-08-19T06:00	1754	830	12.6	11.0	170	2
2023-08-19T06:00	1782	827	12.4	10.9	174	2
2023-08-19T06:00	1807	825	12.2	10.8	181	1
2023-08-19T06:00	1833	822	12.1	10.5	191	2
2023-08-19T06:00	1861	820	12.2	9.5	198	2
2023-08-19T06:00	1886	817	12.1	9.7	202	2
2023-08-19T06:00	1918	814	11.9	9.3	203	2
2023-08-19T06:00	1945	811	11.7	9.3	204	3
2023-08-19T06:00	1971	809	11.5	9.2	205	3
2023-08-19T06:00	2000	806	11.3	8.9	207	3
2023-08-19T06:00	2027	803	11.1	8.8	211	2
2023-08-19T06:00	2055	801	11.0	8.7	214	2
2023-08-19T06:00	2080	798	10.9	8.3	216	2
2023-08-19T06:00	2112	795	10.7	8.1	212	2
2023-08-19T06:00	2141	792	10.7	6.7	203	1
2023-08-19T06:00	2170	790	10.7	5.3	188	1
2023-08-19T06:00	2197	787	10.7	6.4	173	1
2023-08-19T06:00	2225	785	10.5	6.8	170	1
2023-08-19T06:00	2252	782	10.3	7.0	184	1
2023-08-19T06:00	2275	780	10.3	6.0	210	1
2023-08-19T06:00	2300	778	10.4	6.2	230	1
2023-08-19T06:00	2323	775	10.2	6.7	243	1
2023-08-19T06:00	2351	773	10.1	6.1	254	1
2023-08-19T06:00	2377	770	10.0	5.7	265	1
2023-08-19T06:00	2404	768	10.0	4.9	275	1
2023-08-19T06:00	2433	765	10.0	4.8	280	1
2023-08-19T06:00	2460	763	9.9	4.9	281	1
2023-08-19T06:00	2483	761	9.7	4.7	280	2
2023-08-19T06:00	2511	758	9.5	4.9	280	2
2023-08-19T06:00	2539	756	9.3	4.8	283	1
2023-08-19T06:00	2566	753	9.1	4.5	290	1
2023-08-19T06:00	2590	751	9.0	4.1	300	1
2023-08-19T06:00	2617	749	8.9	3.5	306	1
2023-08-19T06:00	2641	746	8.8	3.1	307	2
2023-08-19T06:00	2667	744	8.6	2.7	304	2
2023-08-19T06:00	2693	742	8.4	2.8	302	2
2023-08-19T06:00	2720	739	8.2	2.0	300	2
2023-08-19T06:00	2748	737	8.2	0.7	299	2
2023-08-19T06:00	2770	735	8.2	0.1	301	2
2023-08-19T06:00	2803	732	8.1	-0.7	303	3
2023-08-19T06:00	2831	729	8.0	-0.8	307	3
2023-08-19T06:00	2857	727	7.9	-1.0	311	3
2023-08-19T06:00	2882	725	7.8	-1.0	315	3
2023-08-19T06:00	2909	723	7.7	-1.7	319	3
2023-08-19T06:00	2936	720	7.6	-1.6	323	3
2023-08-19T06:00	2967	718	7.4	-1.6	328	2
2023-08-19T06:00	2993	715	7.2	-1.4	330	2
2023-08-19T06:00	3023	713	6.9	-1.8	329	2
2023-08-19T06:00	3054	710	6.7	-2.0	326	2
2023-08-19T06:00	3080	708	6.6	-2.1	323	2
2023-08-19T06:00	3106	705	6.5	-1.8	321	3
2023-08-19T06:00	3133	703	6.2	-1.1	320	3
2023-08-19T06:00	3162	701	6.0	-0.9	318	3
2023-08-19T06:00	3189	698	5.7	-1.0	314	3
2023-08-19T06:00	3218	696	5.6	-1.2	308	3
2023-08-19T06:00	3247	693	5.5	-1.5	303	3
2023-08-19T06:00	3275	691	5.3	-1.6	298	3
2023-08-19T06:00	3303	689	5.2	-1.4	296	3
2023-08-19T06:00	3328	687	5.0	-1.5	296	3
2023-08-19T06:00	3358	684	4.8	-1.8	299	3
2023-08-19T06:00	3386	682	4.6	-2.1	307	3
2023-08-19T06:00	3411	680	4.5	-1.5	316	3
2023-08-19T06:00	3437	677	4.4	-1.6	327	3
2023-08-19T06:00	3466	675	4.4	-3.6	337	3
2023-08-19T06:00	3493	673	4.3	-3.9	345	3
2023-08-19T06:00	3523	670	4.2	-3.9	351	2
2023-08-19T06:00	3548	668	4.0	-4.1	355	2
2023-08-19T06:00	3578	666	4.0	-3.0	356	2
2023-08-19T06:00	3607	663	3.8	-2.1	355	2
2023-08-19T06:00	3634	661	3.6	-2.8	353	2
2023-08-19T06:00	3663	659	3.5	-4.5	350	2
2023-08-19T06:00	3691	657	3.3	-5.1	347	2
2023-08-19T06:00	3717	655	3.1	-5.4	344	3
2023-08-19T06:00	3743	652	3.0	-5.5	340	3
2023-08-19T06:00	3771	650	2.8	-5.7	336	3
2023-08-19T06:00	3796	648	2.6	-6.9	332	3
2023-08-19T06:00	3827	646	2.6	-8.0	329	4
2023-08-19T06:00	3856	643	2.6	-8.1	327	4
2023-08-19T06:00	3884	641	2.6	-9.5	325	4
2023-08-19T06:00	3912	639	2.6	-11.9	323	4
2023-08-19T06:00	3942	637	2.6	-13.8	322	5
2023-08-19T06:00	3970	634	2.6	-14.5	321	5
2023-08-19T06:00	3996	632	2.3	-14.6	319	5
2023-08-19T06:00	4024	630	2.1	-14.7	317	5
2023-08-19T06:00	4052	628	2.0	-14.9	315	5
2023-08-19T06:00	4081	626	1.8	-14.8	314	4
2023-08-19T06:00	4110	623	1.5	-13.9	315	4
2023-08-19T06:00	4140	621	1.3	-13.8	317	4
2023-08-19T06:00	4174	619	1.0	-13.7	320	4
2023-08-19T06:00	4204	616	0.8	-14.0	323	4
2023-08-19T06:00	4229	614	0.6	-14.2	324	4
2023-08-19T06:00	4259	612	0.4	-14.1	324	5
2023-08-19T06:00	4288	610	0.1	-13.7	325	4
2023-08-19T06:00	4319	607	-0.2	-13.9	325	4
2023-08-19T06:00	4346	605	-0.4	-14.3	326	4
2023-08-19T06:00	4375	603	-0.6	-14.7	327	4
2023-08-19T06:00	4403	601	-0.7	-16.1	327	4
2023-08-19T06:00	4429	599	-0.6	-18.7	327	4
2023-08-19T06:00	4456	597	-0.8	-19.3	328	4
2023-08-19T06:00	4488	595	-0.8	-20.7	330	3
2023-08-19T06:00	4517	592	-1.0	-20.8	334	3
2023-08-19T06:00	4550	590	-1.2	-20.9	339	3
2023-08-19T06:00	4582	588	-1.4	-21.5	344	3
2023-08-19T06:00	4613	586	-1.6	-21.9	349	2
2023-08-19T06:00	4642	583	-1.8	-22.0	353	3
2023-08-19T06:00	4673	581	-2.1	-22.3	356	3
2023-08-19T06:00	4704	579	-2.4	-22.4	358	3
2023-08-19T06:00	4738	576	-2.7	-22.8	358	3
2023-08-19T06:00	4769	574	-3.0	-23.0	356	3
2023-08-19T06:00	4798	572	-3.2		351	3
2023-08-19T06:00	4828	570	-3.5	-23.5	346	3
2023-08-19T06:00	4860	568	-3.7	-23.4	342	4
2023-08-19T06:00	4888	565	-3.9	-23.1	339	4
2023-08-19T06:00	4922	563	-4.2	-23.0	337	5
2023-08-19T06:00	4948	561	-4.4	-23.0	336	5
2023-08-19T06:00	4972	559	-4.6	-22.9	335	5
2023-08-19T06:00	5001	557	-4.9	-23.0	333	5
2023-08-19T06:00	5031	555	-5.1	-22.9	331	5
2023-08-19T06:00	5063	553	-5.4	-22.3	329	6
2023-08-19T06:00	5090	551	-5.5	-22.3	327	5
2023-08-19T06:00	5122	549	-5.5	-23.7	326	5
2023-08-19T06:00	5158	547	-5.5	-25.5	325	5
2023-08-19T06:00	5185	544	-5.5	-27.9	322	5
2023-08-19T06:00	5211	543	-5.6	-28.0	318	6
2023-08-19T06:00	5239	541	-5.8	-28.4	313	6
2023-08-19T06:00	5260	539	-5.9	-28.5	308	6
2023-08-19T06:00	5287	537	-6.1	-29.1	303	7
2023-08-19T06:00	5319	535	-6.1	-29.7	299	7
2023-08-19T06:00	5342	534	-6.1	-30.4	296	8
2023-08-19T06:00	5374	531	-6.2	-30.8	293	8
2023-08-19T06:00	5408	529	-6.2	-32.5	290	8
2023-08-19T06:00	5434	527	-6.1	-33.5	287	7
2023-08-19T06:00	5467	525	-6.2	-33.7	284	7
2023-08-19T06:00	5495	523	-6.3	-34.2	281	6
2023-08-19T06:00	5527	521	-6.2	-35.6	277	5
2023-08-19T06:00	5553	519	-6.2	-36.1	274	5
2023-08-19T06:00	5579	518	-6.2	-37.3	273	5
2023-08-19T06:00	5608	516	-6.1	-38.6	273	4
2023-08-19T06:00	5639	514	-6.3	-33.3	274	4
2023-08-19T06:00	5666	512	-6.5	-30.4	278	3
2023-08-19T06:00	5695	510	-6.7	-28.1	283	3
2023-08-19T06:00	5727	508	-7.0	-27.2	291	2
2023-08-19T06:00	5756	506	-7.2	-27.0	300	2
2023-08-19T06:00	5787	504	-7.5	-27.1	308	1
2023-08-19T06:00	5806	503	-7.7	-26.9	313	1
2023-08-19T06:00	5830	501	-7.9	-25.8	314	1
2023-08-19T06:00	5852	500	-8.1	-25.7	312	2
2023-08-19T06:00	5878	498	-8.3	-25.1	311	2
2023-08-19T06:00	5897	497	-8.6	-24.6	311	2
2023-08-19T06:00	5918	496	-8.7	-24.1	314	2
2023-08-19T06:00	5939	494	-9.0	-24.1	318	2
2023-08-19T06:00	5961	493	-9.2	-24.3	321	2
2023-08-19T06:00	5985	491	-9.4	-24.5	322	2
2023-08-19T06:00	6015	490	-9.7	-24.6	320	2
2023-08-19T06:00	6045	488	-9.9	-24.3	317	3
2023-08-19T06:00	6068	486	-10.1	-24.8	313	3
2023-08-19T06:00	6088	485	-10.3	-25.0	309	3
2023-08-19T06:00	6114	483	-10.5	-24.0	306	4
2023-08-19T06:00	6139	482	-10.8	-22.7	304	4
2023-08-19T06:00	6160	480	-10.9	-22.3	304	4
2023-08-19T06:00	6184	479	-11.1	-22.3	304	5
2023-08-19T06:00	6213	477	-11.3	-22.3	304	6
2023-08-19T06:00	6244	475	-11.5	-23.0	305	6
2023-08-19T06:00	6267	474	-11.7	-22.8	305	6
2023-08-19T06:00	6290	472	-12.0	-22.0	306	7
2023-08-19T06:00	6314	471	-12.2	-21.4	306	7
2023-08-19T06:00	6338	469	-12.4	-21.2	306	7
2023-08-19T06:00	6370	467	-12.6	-21.3	305	8
2023-08-19T06:00	6394	466	-12.8	-21.6	305	8
2023-08-19T06:00	6419	464	-13.0	-21.9	306	8
2023-08-19T06:00	6443	463	-13.2	-21.8	306	7
2023-08-19T06:00	6466	462	-13.4	-22.1	308	7
2023-08-19T06:00	6489	460	-13.6	-22.0	309	7
2023-08-19T06:00	6512	459	-13.8	-22.0	310	7
2023-08-19T06:00	6538	457	-14.1	-22.0	311	7
2023-08-19T06:00	6566	456	-14.4	-22.0	311	8
2023-08-19T06:00	6587	454	-14.5	-21.9	312	8
2023-08-19T06:00	6612	453	-14.8	-21.8	312	7
2023-08-19T06:00	6638	451	-15.0	-21.9	312	7
2023-08-19T06:00	6665	450	-15.3	-22.0	312	7
2023-08-19T06:00	6694	448	-15.6	-22.1	312	7
2023-08-19T06:00	6721	446	-15.8	-22.1	312	7
2023-08-19T06:00	6745	445	-16.0	-22.4	311	7
2023-08-19T06:00	6766	444	-16.2	-22.5	311	7
2023-08-19T06:00	6789	442	-16.3	-23.3	310	7
2023-08-19T06:00	6810	441	-16.4	-23.6	310	7
2023-08-19T06:00	6838	439	-16.6	-24.0	310	7
2023-08-19T06:00	6864	438	-16.8	-24.5	310	7
2023-08-19T06:00	6894	436	-16.9	-24.8	309	7
2023-08-19T06:00	6914	435	-17.1	-25.0	309	7
2023-08-19T06:00	6938	434	-17.3	-24.9	308	8
2023-08-19T06:00	6961	432	-17.5	-25.3	307	8
2023-08-19T06:00	6989	431	-17.6	-25.8	308	8
2023-08-19T06:00	7013	429	-17.7	-26.7	308	8
2023-08-19T06:00	7037	428	-17.8	-27.5	309	8
2023-08-19T06:00	7064	426	-17.9	-27.7	310	8
2023-08-19T06:00	7089	425	-18.1	-27.7	311	8
2023-08-19T06:00	7114	423	-18.3	-27.8	311	8
2023-08-19T06:00	7144	422	-18.5	-28.0	312	9
2023-08-19T06:00	7176	420	-18.8	-28.1	312	9
2023-08-19T06:00	7198	419	-18.9	-28.2	313	9
2023-08-19T06:00	7220	418	-19.1	-28.4	313	9
2023-08-19T06:00	7241	416	-19.2	-28.9	314	9
2023-08-19T06:00	7262	415	-19.4	-29.1	315	8
2023-08-19T06:00	7285	414	-19.5	-29.4	314	8
2023-08-19T06:00	7316	412	-19.6	-30.3	314	9
2023-08-19T06:00	7340	411	-19.7	-30.7	313	9
2023-08-19T06:00	7363	410	-19.9	-31.0	311	9
2023-08-19T06:00	7387	408	-20.1	-31.0	311	9
2023-08-19T06:00	7410	407	-20.3	-31.0	311	9
2023-08-19T06:00	7433	406	-20.5	-30.3	312	9
2023-08-19T06:00	7457	404	-20.6	-30.4	313	9
2023-08-19T06:00	7481	403	-20.8	-30.4	315	9
2023-08-19T06:00	7509	402	-21.1	-30.4	316	9
2023-08-19T06:00	7537	400	-21.3	-30.8	316	8
2023-08-19T06:00	7561	399	-21.5	-31.0	316	8
2023-08-19T06:00	7589	397	-21.7	-30.8	316	8
2023-08-19T06:00	7615	396	-21.9	-30.8	316	8
2023-08-19T06:00	7641	394	-22.1	-31.1	315	9
2023-08-19T06:00	7672	393	-22.3	-30.8	314	9
2023-08-19T06:00	7702	391	-22.6	-30.9	313	9
2023-08-19T06:00	7730	390	-22.8	-30.8	312	9
2023-08-19T06:00	7752	389	-23.0	-30.7	311	10
2023-08-19T06:00	7770	388	-23.2	-30.5	310	10
2023-08-19T06:00	7792	386	-23.3	-30.6	310	9
2023-08-19T06:00	7815	385	-23.5	-30.8	310	9
2023-08-19T06:00	7846	384	-23.7	-31.2	311	9
2023-08-19T06:00	7873	382	-23.9	-31.3	313	9
2023-08-19T06:00	7904	381	-24.1	-31.8	314	9
2023-08-19T06:00	7927	379	-24.2	-32.6	314	9
2023-08-19T06:00	7951	378	-24.2	-33.1	314	9
2023-08-19T06:00	7973	377	-24.3	-33.6	313	9
2023-08-19T06:00	7996	376	-24.3	-34.0	312	9
2023-08-19T06:00	8020	374	-24.5	-34.1	312	9
2023-08-19T06:00	8046	373	-24.6	-34.6	312	9
2023-08-19T06:00	8074	372	-24.8	-35.0	312	10
2023-08-19T06:00	8104	370	-25.0	-35.6	311	10
2023-08-19T06:00	8131	369	-25.0	-37.0	311	10
2023-08-19T06:00	8156	368	-25.1	-38.6	310	10
2023-08-19T06:00	8176	367	-25.1	-38.7	309	10
2023-08-19T06:00	8195	366	-25.2	-39.1	307	10
2023-08-19T06:00	8218	364	-25.4	-39.2	306	11
2023-08-19T06:00	8247	363	-25.6	-39.4	304	11
2023-08-19T06:00	8271	362	-25.8	-39.6	302	11
2023-08-19T06:00	8293	361	-26.0	-39.9	301	11
2023-08-19T06:00	8320	359	-26.1	-40.8	299	11
2023-08-19T06:00	8344	358	-26.2	-42.0	298	10
2023-08-19T06:00	8367	357	-26.4	-42.2	297	10
2023-08-19T06:00	8396	356	-26.6	-42.3	296	10
2023-08-19T06:00	8419	354	-26.8	-43.0	295	9
2023-08-19T06:00	8444	353	-27.0	-43.3	294	9
2023-08-19T06:00	8469	352	-27.1	-43.3	294	8
2023-08-19T06:00	8491	351	-27.3	-43.3	293	8
2023-08-19T06:00	8515	350	-27.5	-43.4	293	7
2023-08-19T06:00	8535	349	-27.7	-43.5	292	7
2023-08-19T06:00	8557	348	-27.9	-43.6	291	7
2023-08-19T06:00	8577	347	-28.1	-43.6	291	7
2023-08-19T06:00	8599	346	-28.3	-43.5	291	7
2023-08-19T06:00	8624	344	-28.5	-43.6	291	7
2023-08-19T06:00	8646	343	-28.7	-43.9	291	7
2023-08-19T06:00	8670	342	-28.9	-43.9	290	7
2023-08-19T06:00	8692	341	-29.1	-43.8	289	7
2023-08-19T06:00	8718	340	-29.4	-43.5	287	7
2023-08-19T06:00	8747	339	-29.6	-42.8	286	7
2023-08-19T06:00	8778	337	-29.9	-42.8	285	7
2023-08-19T06:00	8798	336	-30.1	-42.6	286	7
2023-08-19T06:00	8816	335	-30.3	-42.4	287	7
2023-08-19T06:00	8841	334	-30.5	-42.4	289	7
2023-08-19T06:00	8870	333	-30.8	-42.5	292	7
2023-08-19T06:00	8900	331	-31.1	-42.5	294	7
2023-08-19T06:00	8925	330	-31.4	-42.6	296	8
2023-08-19T06:00	8949	329	-31.6	-42.5	298	8
2023-08-19T06:00	8973	328	-31.8	-42.4	299	8
2023-08-19T06:00	8999	327	-32.1	-42.5	299	8
2023-08-19T06:00	9021	326	-32.3	-42.6	299	8
2023-08-19T06:00	9041	325	-32.5	-42.5	298	8
2023-08-19T06:00	9063	324	-32.7	-42.5	297	8
2023-08-19T06:00	9083	323	-32.9	-42.5	296	8
2023-08-19T06:00	9105	322	-33.1	-42.5	295	8
2023-08-19T06:00	9125	321	-33.3	-42.1	293	8
2023-08-19T06:00	9149	320	-33.5	-42.2	292	8
2023-08-19T06:00	9172	319	-33.7	-42.3	291	8
2023-08-19T06:00	9193	318	-33.9	-42.2	291	8
2023-08-19T06:00	9215	317	-34.1	-42.1	291	8
2023-08-19T06:00	9237	316	-34.3	-42.2	292	8
2023-08-19T06:00	9259	315	-34.5	-42.2	293	8
2023-08-19T06:00	9279	314	-34.7	-42.3	295	8
2023-08-19T06:00	9301	313	-34.9	-42.5	295	8
2023-08-19T06:00	9323	312	-35.1	-42.9	296	8
2023-08-19T06:00	9346	311	-35.3	-43.1	296	8
2023-08-19T06:00	9367	310	-35.5	-43.2	295	8
2023-08-19T06:00	9389	309	-35.7	-43.3	294	8
2023-08-19T06:00	9411	308	-35.9	-43.4	293	8
2023-08-19T06:00	9432	307	-36.1	-43.6	292	8
2023-08-19T06:00	9451	306	-36.2	-43.4	291	7
2023-08-19T06:00	9473	305	-36.4	-43.8	291	7
2023-08-19T06:00	9495	304	-36.6	-44.3	292	7
2023-08-19T06:00	9518	303	-36.7	-45.6	293	7
2023-08-19T06:00	9540	302	-36.8	-46.5	295	7
2023-08-19T06:00	9562	301	-37.0	-46.6	296	6
2023-08-19T06:00	9582	301	-37.2	-47.2	297	6
2023-08-19T06:00	9605	300	-37.4	-47.5	299	6
2023-08-19T06:00	9626	299	-37.6	-47.6	300	6
2023-08-19T06:00	9647	298	-37.8	-48.0	302	6
2023-08-19T06:00	9666	297	-38.0	-48.2	303	6
2023-08-19T06:00	9689	296	-38.1	-48.4	305	6
2023-08-19T06:00	9709	295	-38.3	-48.7	306	6
2023-08-19T06:00	9731	294	-38.4	-49.8	307	6
2023-08-19T06:00	9752	293	-38.6	-49.2	309	6
2023-08-19T06:00	9776	292	-38.8	-49.4	310	6
2023-08-19T06:00	9797	291	-39.0	-49.4	312	6
2023-08-19T06:00	9820	290	-39.2	-49.3	312	6
2023-08-19T06:00	9845	289	-39.4	-49.2	312	6
2023-08-19T06:00	9866	288	-39.6	-49.2	312	6
2023-08-19T06:00	9888	288	-39.8	-49.4	311	6
2023-08-19T06:00	9910	287	-40.1	-49.9	311	6
2023-08-19T06:00	9933	286	-40.3	-50.4	311	6
2023-08-19T06:00	9955	285	-40.5	-50.5	313	6
2023-08-19T06:00	9975	284	-40.7	-50.5	315	6
2023-08-19T06:00	9998	283	-40.9	-50.0	316	6
2023-08-19T06:00	10021	282	-41.1	-49.4	316	6
2023-08-19T06:00	10042	281	-41.3	-48.8	316	6
2023-08-19T06:00	10066	280	-41.5	-48.9	314	6
2023-08-19T06:00	10089	279	-41.7	-49.3	312	6
2023-08-19T06:00	10111	278	-41.9	-49.6	311	6
2023-08-19T06:00	10137	277	-42.2	-49.6	310	6
2023-08-19T06:00	10162	276	-42.4	-49.5	310	6
2023-08-19T06:00	10184	275	-42.6	-49.0	311	6
2023-08-19T06:00	10208	274	-42.9	-48.2	311	6
2023-08-19T06:00	10233	273	-43.1	-48.0	310	6
2023-08-19T06:00	10258	272	-43.3	-47.4	310	6
2023-08-19T06:00	10282	271	-43.5	-47.4	310	7
2023-08-19T06:00	10304	270	-43.7	-47.6	310	7
2023-08-19T06:00	10327	269	-43.9	-47.8	311	7
2023-08-19T06:00	10352	268	-44.1	-47.9	312	7
2023-08-19T06:00	10383	267	-44.4	-48.2	314	8
2023-08-19T06:00	10409	266	-44.6	-48.8	316	8
2023-08-19T06:00	10437	265	-44.8	-49.1	317	9
2023-08-19T06:00	10474	264	-45.1	-49.3	317	9
2023-08-19T06:00	10497	263	-45.3	-49.4	316	9
2023-08-19T06:00	10524	262	-45.6	-49.5	314	9
2023-08-19T06:00	10550	261	-45.8	-49.5	313	10
2023-08-19T06:00	10582	259	-46.1	-49.6	311	10
2023-08-19T06:00	10612	258	-46.4	-49.9	311	10
2023-08-19T06:00	10644	257	-46.7	-50.0	310	10
2023-08-19T06:00	10668	256	-46.9	-50.1	311	11
2023-08-19T06:00	10690	255	-47.1	-50.4	312	11
2023-08-19T06:00	10714	254	-47.2	-50.7	313	11
2023-08-19T06:00	10737	253	-47.4	-51.0	314	11
2023-08-19T06:00	10762	252	-47.7	-51.8	314	11
2023-08-19T06:00	10787	251	-47.9	-52.5	314	12
2023-08-19T06:00	10813	250	-48.1	-52.4	314	12
2023-08-19T06:00	10836	250	-48.3	-52.4	313	12
2023-08-19T06:00	10858	249	-48.5	-52.4	312	12
2023-08-19T06:00	10884	248	-48.7	-52.1	312	12
2023-08-19T06:00	10909	247	-48.9	-52.3	312	12
2023-08-19T06:00	10934	246	-49.1	-52.8	312	12
2023-08-19T06:00	10961	245	-49.3	-53.0	311	12
2023-08-19T06:00	10986	244	-49.6	-53.0	310	12
2023-08-19T06:00	11011	243	-49.8	-53.0	308	12
2023-08-19T06:00	11048	242	-50.2	-53.2	307	12
2023-08-19T06:00	11069	241	-50.4	-53.4	306	12
2023-08-19T06:00	11093	240	-50.6	-53.5	305	12
2023-08-19T06:00	11117	239	-50.8	-53.4	305	13
2023-08-19T06:00	11143	238	-51.1	-53.4	305	13
2023-08-19T06:00	11164	237	-51.3	-53.5	305	13
2023-08-19T06:00	11187	237	-51.5	-53.9	306	13
2023-08-19T06:00	11210	236	-51.7	-55.0	306	13
2023-08-19T06:00	11235	235	-51.9	-56.3	307	13
2023-08-19T06:00	11260	234	-52.1	-57.0	307	14
2023-08-19T06:00	11285	233	-52.4	-57.2	307	14
2023-08-19T06:00	11309	232	-52.6	-57.2	308	14
2023-08-19T06:00	11336	231	-52.8	-57.4	308	14
2023-08-19T06:00	11360	230	-53.0	-57.6	308	14
2023-08-19T06:00	11383	229	-53.2	-57.8	308	14
2023-08-19T06:00	11408	229	-53.5	-57.9	309	13
2023-08-19T06:00	11434	228	-53.7	-57.9	310	13
2023-08-19T06:00	11458	227	-53.9	-57.9	311	13
2023-08-19T06:00	11488	226	-54.2	-58.0	312	13
2023-08-19T06:00	11509	225	-54.4	-57.8	313	13
2023-08-19T06:00	11532	224	-54.6	-57.7	313	13
2023-08-19T06:00	11553	223	-54.8	-57.6	313	13
2023-08-19T06:00	11576	223	-55.0	-57.6	313	13
2023-08-19T06:00	11598	222	-55.2	-57.7	313	13
2023-08-19T06:00	11618	221	-55.4	-57.9	313	13
2023-08-19T06:00	11641	220	-55.6	-58.0	313	13
2023-08-19T06:00	11663	220	-55.9	-58.2	313	13
2023-08-19T06:00	11685	219	-56.1	-58.3	313	13
2023-08-19T06:00	11707	218	-56.3	-58.6	312	13
2023-08-19T06:00	11728	217	-56.4	-58.8	310	12
2023-08-19T06:00	11748	217	-56.6	-59.2	308	12
2023-08-19T06:00	11771	216	-56.7	-59.6	305	12
2023-08-19T06:00	11794	215	-56.7	-59.9	302	12
2023-08-19T06:00	11814	214	-56.7	-60.5	300	12
2023-08-19T06:00	11837	214	-56.4	-60.9	299	12
2023-08-19T06:00	11860	213	-56.2	-61.4	299	12
2023-08-19T06:00	11881	212	-56.3	-61.7	300	12
2023-08-19T06:00	11902	212	-56.4	-61.8	301	13
2023-08-19T06:00	11920	211	-56.5	-61.8	303	13
2023-08-19T06:00	11942	210	-56.6	-62.0	305	13
2023-08-19T06:00	11961	210	-56.8	-62.7	307	13
2023-08-19T06:00	11982	209	-56.5	-63.7	310	13
2023-08-19T06:00	12003	208	-56.3	-65.5	312	12
2023-08-19T06:00	12022	208	-55.2	-67.2	314	12
2023-08-19T06:00	12041	207	-54.7	-68.9	316	11
2023-08-19T06:00	12062	206	-54.6	-69.2	317	11
2023-08-19T06:00	12084	206	-54.7	-68.5	318	10
2023-08-19T06:00	12103	205	-54.9	-67.8	319	10
2023-08-19T06:00	12125	204	-54.9	-67.2	320	10
2023-08-19T06:00	12144	204	-54.8	-66.8	320	10
2023-08-19T06:00	12166	203	-54.9	-66.7	320	10
2023-08-19T06:00	12187	202	-55.0	-66.7	320	10
2023-08-19T06:00	12209	202	-55.1	-66.7	319	11
2023-08-19T06:00	12228	201	-55.2	-66.8	318	11
2023-08-19T06:00	12249	200	-55.2	-66.7	316	11
2023-08-19T06:00	12270	200	-55.0	-66.3	314	12
2023-08-19T06:00	12293	199	-55.0	-65.9	312	12
2023-08-19T06:00	12313	198	-55.1	-65.7	311	13
2023-08-19T06:00	12335	198	-55.3	-65.6	311	13
2023-08-19T06:00	12357	197	-55.4	-65.4	311	13
2023-08-19T06:00	12377	196	-55.6	-65.4	312	14
2023-08-19T06:00	12401	196	-55.6	-65.4	314	13
2023-08-19T06:00	12423	195	-55.6	-65.8	316	13
2023-08-19T06:00	12443	194	-55.7	-66.2	319	13
2023-08-19T06:00	12465	194	-55.8	-66.6	322	12
2023-08-19T06:00	12491	193	-55.8	-67.0	325	12
2023-08-19T06:00	12513	192	-55.7	-67.4	327	11
2023-08-19T06:00	12534	192	-55.3	-67.8	328	10
2023-08-19T06:00	12557	191	-55.2	-68.5	328	10
2023-08-19T06:00	12578	190	-55.4	-69.2	327	10
2023-08-19T06:00	12599	190	-55.4	-69.7	325	10
2023-08-19T06:00	12619	189	-55.6	-70.1	324	10
2023-08-19T06:00	12642	188	-55.7	-70.3	322	11
2023-08-19T06:00	12662	188	-55.8	-70.4	321	11
2023-08-19T06:00	12684	187	-55.9	-70.5	321	11
2023-08-19T06:00	12703	187	-56.0	-71.1	322	12
2023-08-19T06:00	12725	186	-55.8	-72.0	324	12
2023-08-19T06:00	12746	185	-55.1	-73.3	327	12
2023-08-19T06:00	12769	185	-54.6	-74.7	330	12
2023-08-19T06:00	12791	184	-54.4	-75.5	334	11
2023-08-19T06:00	12819	183	-53.8	-75.3	338	10
2023-08-19T06:00	12841	183	-53.5	-74.9	340	10
2023-08-19T06:00	12869	182	-53.6	-74.8	342	9
2023-08-19T06:00	12897	181	-53.8	-74.6	343	9
2023-08-19T06:00	12920	180	-54.0	-74.4	342	8
2023-08-19T06:00	12942	180	-54.2	-74.3	341	8
2023-08-19T06:00	12968	179	-54.4	-74.1	338	7
2023-08-19T06:00	12992	178	-54.6	-74.1	335	7
2023-08-19T06:00	13012	178	-54.7	-74.2	330	6
2023-08-19T06:00	13034	177	-54.7	-74.5	326	6
2023-08-19T06:00	13055	177	-54.5	-75.3	322	5
2023-08-19T06:00	13076	176	-54.2	-76.4	317	5
2023-08-19T06:00	13097	175	-54.0	-77.2	312	5
2023-08-19T06:00	13117	175	-53.9	-77.9	306	5
2023-08-19T06:00	13139	174	-54.0	-78.2	300	5
2023-08-19T06:00	13159	174	-54.1	-78.5	297	5
2023-08-19T06:00	13181	173	-54.1	-78.7	296	6
2023-08-19T06:00	13201	173	-54.0	-79.0	296	6
2023-08-19T06:00	13222	172	-54.0	-79.3	296	7
2023-08-19T06:00	13242	172	-53.8	-79.3	297	8
2023-08-19T06:00	13263	171	-53.6	-79.4	298	8
2023-08-19T06:00	13285	170	-53.6	-79.7	298	9
2023-08-19T06:00	13304	170	-53.6	-80.0	298	9
2023-08-19T06:00	13322	169	-53.5	-79.9	298	9
2023-08-19T06:00	13341	169	-53.3	-80.0	298	9
2023-08-19T06:00	13362	168	-53.2	-80.2	299	9
2023-08-19T06:00	13383	168	-52.8	-80.2	299	9
2023-08-19T06:00	13403	167	-52.7	-80.5	300	9
2023-08-19T06:00	13425	167	-52.5	-80.3	302	9
2023-08-19T06:00	13447	166	-52.6	-80.4	304	9
2023-08-19T06:00	13466	166	-52.7	-80.5	306	9
2023-08-19T06:00	13488	165	-52.8	-80.6	308	9
2023-08-19T06:00	13508	165	-52.7	-80.5	309	9
2023-08-19T06:00	13527	164	-52.6	-80.4	309	9
2023-08-19T06:00	13547	164	-52.8	-80.6	308	9
2023-08-19T06:00	13569	163	-52.9	-80.6	307	9
2023-08-19T06:00	13588	163	-52.9	-80.6	304	9
2023-08-19T06:00	13606	162	-52.9	-80.6	302	9
2023-08-19T06:00	13626	162	-53.0	-80.7	299	9
2023-08-19T06:00	13647	161	-53.1	-80.8	298	9
2023-08-19T06:00	13668	161	-52.9	-81.0	298	9
2023-08-19T06:00	13686	160	-52.6	-80.8	298	8
2023-08-19T06:00	13708	160	-52.4	-80.6	299	8
2023-08-19T06:00	13729	159	-52.3	-80.9	300	8
2023-08-19T06:00	13746	159	-52.3	-80.9	301	9
2023-08-19T06:00	13765	158	-52.3	-80.5	302	9
2023-08-19T06:00	13786	158	-52.4	-80.6	302	9
2023-08-19T06:00	13807	157	-52.5	-80.7	302	9
2023-08-19T06:00	13827	157	-52.5	-80.7	302	9
2023-08-19T06:00	13846	156	-52.4	-81.0	303	9
2023-08-19T06:00	13868	156	-52.5	-81.0	304	9
2023-08-19T06:00	13887	155	-52.5	-81.0	305	9
2023-08-19T06:00	13908	155	-52.3	-80.9	307	8
2023-08-19T06:00	13927	154	-52.1	-81.1	308	8
2023-08-19T06:00	13946	154	-52.1	-81.1	309	8
2023-08-19T06:00	13965	153	-52.1	-81.1	308	7
2023-08-19T06:00	13988	153	-51.9	-81.0	307	7
2023-08-19T06:00	14007	152	-51.9	-81.0	305	6
2023-08-19T06:00	14031	152	-51.7	-80.8	303	6
2023-08-19T06:00	14052	151	-51.8	-80.9	300	5
2023-08-19T06:00	14074	151	-52.0	-80.7	297	5
2023-08-19T06:00	14096	150	-52.2	-80.8	295	5
2023-08-19T06:00	14117	150	-52.4	-80.6	293	5
2023-08-19T06:00	14139	149	-52.6	-80.8	291	6
2023-08-19T06:00	14160	149	-52.8	-80.9	289	6
2023-08-19T06:00	14178	148	-53.0	-80.7	288	6
2023-08-19T06:00	14200	148	-53.1	-80.8	287	7
2023-08-19T06:00	14219	147	-53.1	-80.5	286	7
2023-08-19T06:00	14240	147	-53.0	-80.4	285	7
2023-08-19T06:00	14258	147	-53.1	-80.5	285	6
2023-08-19T06:00	14280	146	-53.2	-80.2	286	6
2023-08-19T06:00	14301	146	-53.2	-80.2	288	6
2023-08-19T06:00	14323	145	-53.4	-80.4	290	6
2023-08-19T06:00	14344	145	-53.5	-80.5	291	6
2023-08-19T06:00	14364	144	-53.6	-80.5	293	5
2023-08-19T06:00	14387	144	-53.5	-80.5	294	5
2023-08-19T06:00	14408	143	-53.6	-80.5	296	5
2023-08-19T06:00	14430	143	-53.6	-80.5	296	6
2023-08-19T06:00	14452	142	-53.5	-80.5	296	5
2023-08-19T06:00	14472	142	-53.5	-80.5	295	5
2023-08-19T06:00	14493	141	-53.6	-80.5	294	5
2023-08-19T06:00	14516	141	-53.7	-80.6	292	6
2023-08-19T06:00	14537	140	-53.8	-80.7	291	6
2023-08-19T06:00	14560	140	-54.0	-80.9	290	6
2023-08-19T06:00	14581	139	-54.1	-80.9	289	5
2023-08-19T06:00	14602	139	-54.1	-80.9	289	5
2023-08-19T06:00	14624	138	-54.2	-81.3	288	5
2023-08-19T06:00	14646	138	-54.0	-81.5	287	4
2023-08-19T06:00	14670	137	-53.8	-81.3	284	4
2023-08-19T06:00	14692	137	-53.9	-81.4	280	4
2023-08-19T06:00	14713	137	-54.0	-81.5	275	4
2023-08-19T06:00	14736	136	-54.2	-81.6	269	3
2023-08-19T06:00	14757	136	-54.2	-81.6	262	3
2023-08-19T06:00	14777	135	-54.1	-81.6	254	3
2023-08-19T06:00	14799	135	-53.9	-81.7	247	4
2023-08-19T06:00	14822	134	-53.9	-81.7	240	4
2023-08-19T06:00	14843	134	-54.0	-81.8	236	4
2023-08-19T06:00	14864	133	-54.1	-81.9	234	5
2023-08-19T06:00	14885	133	-54.2	-82.0	235	5
2023-08-19T06:00	14907	132	-54.3	-82.1	238	5
2023-08-19T06:00	14928	132	-54.3	-82.1	242	5
2023-08-19T06:00	14951	132	-54.1	-81.9	247	5
2023-08-19T06:00	14973	131	-54.1	-81.9	251	5
2023-08-19T06:00	14993	131	-54.1	-82.3	255	5
2023-08-19T06:00	15012	130	-54.1	-82.3	258	5
2023-08-19T06:00	15036	130	-54.0	-82.2	261	5
2023-08-19T06:00	15057	129	-53.9	-81.7	264	5
2023-08-19T06:00	15077	129	-54.1	-81.9	266	5
2023-08-19T06:00	15098	129	-54.3	-82.1	268	5
2023-08-19T06:00	15118	128	-54.5	-82.2	268	5
2023-08-19T06:00	15139	128	-54.7	-82.4	266	5
2023-08-19T06:00	15160	127	-54.7	-82.4	262	4
2023-08-19T06:00	15180	127	-54.6	-82.3	256	4
2023-08-19T06:00	15202	126	-54.6	-82.3	246	4
2023-08-19T06:00	15225	126	-54.7	-82.4	233	3
2023-08-19T06:00	15247	126	-54.8	-82.4	219	3
2023-08-19T06:00	15268	125	-54.8	-82.8	209	3
2023-08-19T06:00	15292	125	-54.2	-82.3	205	4
2023-08-19T06:00	15315	124	-54.0	-82.2	206	5
2023-08-19T06:00	15334	124	-54.1	-82.3	210	5
2023-08-19T06:00	15359	123	-54.0	-82.6	213	6
2023-08-19T06:00	15379	123	-54.0	-82.6	216	7
2023-08-19T06:00	15402	123	-54.0	-82.6	218	7
2023-08-19T06:00	15424	122	-54.0	-82.6	220	7
2023-08-19T06:00	15446	122	-54.2	-82.7	222	8
2023-08-19T06:00	15469	121	-54.3	-82.8	224	8
2023-08-19T06:00	15490	121	-54.5	-82.6	226	9
2023-08-19T06:00	15509	121	-54.7	-82.7	228	9
2023-08-19T06:00	15530	120	-54.7	-83.1	230	9
2023-08-19T06:00	15552	120	-54.8	-83.2	233	9
2023-08-19T06:00	15573	119	-54.5	-82.9	236	9
2023-08-19T06:00	15599	119	-54.3	-82.8	239	9
2023-08-19T06:00	15619	119	-54.4	-82.9	243	9
2023-08-19T06:00	15641	118	-54.6	-83.4	246	8
2023-08-19T06:00	15663	118	-54.5	-83.4	249	8
2023-08-19T06:00	15686	117	-54.3	-83.2	253	8
2023-08-19T06:00	15706	117	-54.4	-83.3	256	8
2023-08-19T06:00	15729	117	-54.2	-83.1	259	8
2023-08-19T06:00	15749	116	-54.1	-83.1	260	7
2023-08-19T06:00	15771	116	-54.2	-83.1	261	7
2023-08-19T06:00	15793	115	-54.3	-83.2	260	7
2023-08-19T06:00	15815	115	-54.2	-83.1	258	7
2023-08-19T06:00	15837	115	-54.2	-82.7	256	7
2023-08-19T06:00	15861	114	-54.4	-82.9	253	7
2023-08-19T06:00	15881	114	-54.6	-83.0	251	7
2023-08-19T06:00	15903	113	-54.8	-82.8	249	8
2023-08-19T06:00	15929	113	-55.0	-82.9	247	8
2023-08-19T06:00	15948	113	-55.2	-82.7	246	7
2023-08-19T06:00	15971	112	-55.4	-82.9	245	7
2023-08-19T06:00	15991	112	-55.6	-83.1	244	7
2023-08-19T06:00	16016	111	-55.6	-83.1	245	7
2023-08-19T06:00	16036	111	-55.6	-83.1	246	6
2023-08-19T06:00	16059	111	-55.7	-82.8	249	6
2023-08-19T06:00	16082	110	-55.8	-82.9	251	6
2023-08-19T06:00	16101	110	-55.8	-82.9	252	6
2023-08-19T06:00	16125	110	-55.8	-82.9	253	5
2023-08-19T06:00	16149	109	-55.8	-82.9	253	5
2023-08-19T06:00	16170	109	-55.8	-82.9	254	5
2023-08-19T06:00	16194	108	-55.9	-82.9	254	4
2023-08-19T06:00	16218	108	-55.9	-82.9	255	4
2023-08-19T06:00	16239	108	-55.9	-83.3	256	4
2023-08-19T06:00	16260	107	-55.9	-83.3	258	4
2023-08-19T06:00	16284	107	-55.8	-83.2	261	4
2023-08-19T06:00	16307	106	-55.8	-83.2	264	4
2023-08-19T06:00	16330	106	-55.9	-83.3	268	4
2023-08-19T06:00	16354	106	-55.9	-83.3	271	3
2023-08-19T06:00	16374	105	-55.8	-83.2	274	3
2023-08-19T06:00	16397	105	-55.8	-83.2	273	2
2023-08-19T06:00	16422	105	-55.7	-83.5	264	1
2023-08-19T06:00	16445	104	-55.6	-83.4	230	1
2023-08-19T06:00	16466	104	-55.5		185	1
2023-08-19T06:00	16487	103	-55.5		167	1
2023-08-19T06:00	16511	103	-55.5	-83.7	160	2
2023-08-19T06:00	16531	103	-55.3	-83.6	154	2
2023-08-19T06:00	16552	102	-55.3	-83.6	146	2
2023-08-19T06:00	16573	102	-55.3	-83.6	136	1
2023-08-19T06:00	16597	102	-55.5	-83.7	129	2
2023-08-19T06:00	16620	101	-55.5	-83.7	130	2
2023-08-19T06:00	16641	101	-55.6	-83.8	136	2
2023-08-19T06:00	16662	101	-55.5	-83.7	148	2
2023-08-19T06:00	16686	100	-55.5	-83.7	160	2
2023-08-19T06:00	16708	100	-55.5	-83.7	171	3
2023-08-19T06:00	16732	100	-55.5	-83.7	179	3
2023-08-19T06:00	16754	99	-55.6	-83.8	184	3
2023-08-19T06:00	16775	99	-55.6	-83.8	187	4
2023-08-19T06:00	16795	99	-55.6	-83.8	189	4
2023-08-19T06:00	16818	98	-55.7	-83.9	191	4
2023-08-19T06:00	16839	98	-55.6	-84.2	193	5
2023-08-19T06:00	16861	98	-55.7	-83.9	195	5
2023-08-19T06:00	16883	97	-55.8	-83.9	198	5
2023-08-19T06:00	16906	97	-55.9	-84.0	201	6
2023-08-19T06:00	16927	97	-56.0	-84.1	205	6
2023-08-19T06:00	16952	96	-56.0	-84.1	208	6
2023-08-19T06:00	16971	96	-56.2	-84.2	209	5
2023-08-19T06:00	16993	96	-56.3	-84.3	210	5
2023-08-19T06:00	17015	95	-56.2	-84.2	208	5
2023-08-19T06:00	17037	95	-56.2	-84.2	206	5
2023-08-19T06:00	17059	95	-56.2	-84.2	203	4
2023-08-19T06:00	17083	94	-56.2	-84.2	201	4
2023-08-19T06:00	17103	94	-56.4	-84.4	202	4
2023-08-19T06:00	17128	94	-56.5	-84.5	205	4
2023-08-19T06:00	17148	93	-56.7	-84.6	211	4
2023-08-19T06:00	17168	93	-56.4	-84.4	218	4
2023-08-19T06:00	17190	93	-56.3	-84.3	226	4
2023-08-19T06:00	17213	92	-56.3	-84.3	233	4
2023-08-19T06:00	17235	92	-56.4	-84.4	238	4
2023-08-19T06:00	17257	92	-56.4	-84.4	242	4
2023-08-19T06:00	17277	91	-56.5	-84.5	245	4
2023-08-19T06:00	17298	91	-56.6	-84.5	246	4
2023-08-19T06:00	17319	91	-56.7	-84.6	245	4
2023-08-19T06:00	17343	90	-56.8	-84.7	244	5
2023-08-19T06:00	17363	90	-56.8	-84.7	242	5
2023-08-19T06:00	17386	90	-56.9	-84.8	240	5
2023-08-19T06:00	17409	89	-56.9	-84.8	237	5
2023-08-19T06:00	17431	89	-57.1	-84.9	233	5
2023-08-19T06:00	17455	89	-57.3	-85.1	228	4
2023-08-19T06:00	17475	89	-57.2	-85.0	222	4
2023-08-19T06:00	17497	88	-57.2	-85.0	214	4
2023-08-19T06:00	17520	88	-57.2	-85.0	205	3
2023-08-19T06:00	17542	88	-57.1	-85.3	198	4
2023-08-19T06:00	17566	87	-56.7	-85.0	193	4
2023-08-19T06:00	17588	87	-56.4	-85.2	191	4
2023-08-19T06:00	17610	87	-56.2	-85.1	190	5
2023-08-19T06:00	17632	86	-56.2	-85.1	192	5
2023-08-19T06:00	17655	86	-56.3	-84.7	194	5
2023-08-19T06:00	17681	86	-56.4	-84.8	198	5
2023-08-19T06:00	17704	85	-56.6	-84.9	201	5
2023-08-19T06:00	17723	85	-56.7	-85.0	206	5
2023-08-19T06:00	17748	85	-56.6	-84.9	210	4
2023-08-19T06:00	17769	85	-56.4	-84.8	215	4
2023-08-19T06:00	17794	84	-56.5	-84.9	220	4
2023-08-19T06:00	17817	84	-56.6	-84.9	223	5
2023-08-19T06:00	17838	84	-56.6	-84.9	225	5
2023-08-19T06:00	17861	83	-56.8	-85.1	226	6
2023-08-19T06:00	17884	83	-56.9	-85.2	227	6
2023-08-19T06:00	17904	83	-57.0	-84.8	227	7
2023-08-19T06:00	17928	82	-57.2	-85.0	229	7
2023-08-19T06:00	17953	82	-57.2	-85.0	231	7
2023-08-19T06:00	17975	82	-57.3	-85.1	234	7
2023-08-19T06:00	17997	82	-57.2	-85.4	238	6
2023-08-19T06:00	18023	81	-57.2	-85.4	241	6
2023-08-19T06:00	18046	81	-57.2	-85.4	245	6
2023-08-19T06:00	18069	81	-57.2	-85.0	249	5
2023-08-19T06:00	18094	80	-57.4	-85.2	252	5
2023-08-19T06:00	18120	80	-57.6	-85.3	257	4
2023-08-19T06:00	18144	80	-57.8	-85.5	263	4
2023-08-19T06:00	18167	79	-58.0	-85.6	270	3
2023-08-19T06:00	18188	79	-58.1	-85.3	278	3
2023-08-19T06:00	18211	79	-58.2	-85.8	287	2
2023-08-19T06:00	18236	79	-58.1	-85.7	295	2
2023-08-19T06:00	18257	78	-57.9	-85.5	303	2
2023-08-19T06:00	18280	78	-57.9	-85.5	313	1
2023-08-19T06:00	18303	78	-58.0	-85.6	329	1
2023-08-19T06:00	18326	77	-58.1	-85.7	3	1
2023-08-19T06:00	18349	77	-58.1	-85.7	39	1
2023-08-19T06:00	18370	77	-58.1	-85.7	59	1
2023-08-19T06:00	18392	77	-58.1	-85.7	71	2
2023-08-19T06:00	18417	76	-58.1	-85.7	79	3
2023-08-19T06:00	18439	76	-58.1	-85.7	87	3
2023-08-19T06:00	18461	76	-58.1	-85.7	94	4
2023-08-19T06:00	18485	75	-58.2	-86.2	102	4
2023-08-19T06:00	18510	75	-58.0	-86.0	110	4
2023-08-19T06:00	18534	75	-57.7	-85.8	117	5
2023-08-19T06:00	18559	75	-57.8	-85.9	124	5
2023-08-19T06:00	18578	74	-57.8	-85.9	131	5
2023-08-19T06:00	18605	74	-57.7	-85.8	138	5
2023-08-19T06:00	18626	74	-57.7	-85.8	145	5
2023-08-19T06:00	18652	74	-57.7	-85.8	152	5
2023-08-19T06:00	18671	73	-57.7	-85.8	159	6
2023-08-19T06:00	18695	73	-57.7	-85.8	166	6
2023-08-19T06:00	18718	73	-57.6	-85.7	172	6
2023-08-19T06:00	18744	72	-57.5	-85.6	177	7
2023-08-19T06:00	18768	72	-57.6	-85.7	180	7
2023-08-19T06:00	18786	72	-57.7	-85.8	184	7
2023-08-19T06:00	18811	72	-57.8	-85.9	187	7
2023-08-19T06:00	18832	71	-57.9		190	6
2023-08-19T06:00	18856	71	-57.8	-85.9	194	6
2023-08-19T06:00	18882	71	-57.8	-85.9	198	5
2023-08-19T06:00	18900	71	-57.8	-85.9	202	4
2023-08-19T06:00	18922	70	-57.6	-85.7	206	4
2023-08-19T06:00	18946	70	-57.6	-85.7	208	4
2023-08-19T06:00	18968	70	-57.7	-85.8	207	3
2023-08-19T06:00	18989	70	-57.7	-85.8	205	3
2023-08-19T06:00	19011	69	-57.7	-86.2	202	4
2023-08-19T06:00	19031	69	-57.6	-86.1	201	4
2023-08-19T06:00	19057	69	-57.5	-86.1	202	4
2023-08-19T06:00	19078	69	-57.3	-85.9	205	4
2023-08-19T06:00	19100	68	-57.3	-85.9	210	4
2023-08-19T06:00	19123	68	-57.3	-85.9	216	3
2023-08-19T06:00	19144	68	-57.2	-85.8	223	3
2023-08-19T06:00	19167	68	-57.3	-85.9	232	2
2023-08-19T06:00	19188	68	-57.4	-86.0	245	2
2023-08-19T06:00	19212	67	-57.3	-85.9	264	1
2023-08-19T06:00	19237	67	-57.2	-85.8	293	1
2023-08-19T06:00	19258	67	-57.1	-85.7	326	1
2023-08-19T06:00	19284	67	-57.1	-85.7	351	1
2023-08-19T06:00	19302	66	-57.3	-85.9	8	2
2023-08-19T06:00	19324	66	-57.4	-86.0	21	2
2023-08-19T06:00	19349	66	-57.6	-86.1	30	2
2023-08-19T06:00	19371	66	-57.7	-85.8	36	3
2023-08-19T06:00	19389	65	-57.7	-85.8	42	3
2023-08-19T06:00	19412	65	-57.6	-86.1	49	3
2023-08-19T06:00	19438	65	-57.6	-86.1	56	3
2023-08-19T06:00	19459	65	-57.5	-86.1	65	3
2023-08-19T06:00	19481	64	-57.5	-86.1	74	3
2023-08-19T06:00	19507	64	-57.4	-86.0	82	4
2023-08-19T06:00	19530	64	-57.5	-86.1	88	4
2023-08-19T06:00	19553	64	-57.6	-86.1	94	4
2023-08-19T06:00	19572	64	-57.7	-86.2	98	4
2023-08-19T06:00	19594	63	-57.9		103	4
2023-08-19T06:00	19621	63	-58.0	-86.0	108	4
2023-08-19T06:00	19643	63	-58.2	-86.2	113	4
2023-08-19T06:00	19664	63	-58.3	-86.2	119	4
2023-08-19T06:00	19686	62	-58.3	-86.2	125	4
2023-08-19T06:00	19712	62	-58.3	-86.2	129	4
2023-08-19T06:00	19735	62	-58.2	-86.6	132	3
2023-08-19T06:00	19757	62	-58.1	-86.5	130	3
2023-08-19T06:00	19777	62	-57.7	-86.2	123	2
2023-08-19T06:00	19802	61	-57.5	-86.1	108	2
2023-08-19T06:00	19824	61	-57.5	-86.1	92	2
2023-08-19T06:00	19847	61	-57.6	-86.1	81	2
2023-08-19T06:00	19867	61	-57.6	-86.1	77	3
2023-08-19T06:00	19891	60	-57.7	-86.2	80	3
2023-08-19T06:00	19915	60	-57.8	-86.3	86	3
2023-08-19T06:00	19943	60	-57.6	-86.1	95	4
2023-08-19T06:00	19964	60	-57.2	-85.8	104	4
2023-08-19T06:00	19987	60	-57.2	-86.3	112	4
2023-08-19T06:00	20011	59	-57.3	-85.9	120	4
2023-08-19T06:00	20036	59	-57.3	-85.9	128	4
2023-08-19T06:00	20055	59	-57.4	-86.0	134	4
2023-08-19T06:00	20082	59	-57.4	-86.0	137	3
2023-08-19T06:00	20105	58	-57.5	-86.1	136	3
2023-08-19T06:00	20130	58	-57.3	-85.9	132	4
2023-08-19T06:00	20149	58	-57.3	-85.9	126	4
2023-08-19T06:00	20172	58	-57.4	-86.0	119	4
2023-08-19T06:00	20197	58	-57.4	-86.4	115	4
2023-08-19T06:00	20219	57	-57.3	-86.4	112	4
2023-08-19T06:00	20244	57	-57.2	-86.3	110	4
2023-08-19T06:00	20267	57	-56.9	-86.1	109	4
2023-08-19T06:00	20292	57	-56.7	-85.9	109	4
2023-08-19T06:00	20315	56	-56.6	-85.8	109	4
2023-08-19T06:00	20338	56	-56.5	-85.8	108	4
2023-08-19T06:00	20367	56	-56.3	-85.6	109	4
2023-08-19T06:00	20389	56	-56.4	-85.7	109	4
2023-08-19T06:00	20411	56	-56.5	-85.8	110	4
2023-08-19T06:00	20438	55	-56.6	-85.8	112	4
2023-08-19T06:00	20462	55	-56.6	-85.8	113	4
2023-08-19T06:00	20486	55	-56.6	-85.8	113	5
2023-08-19T06:00	20510	55	-56.7	-85.9	111	5
2023-08-19T06:00	20535	55	-56.6	-85.8	106	5
2023-08-19T06:00	20559	54	-56.6	-85.8	101	5
2023-08-19T06:00	20585	54	-56.6	-85.8	96	6
2023-08-19T06:00	20606	54	-56.6	-85.8	92	6
2023-08-19T06:00	20632	54	-56.5	-85.8	91	6
2023-08-19T06:00	20652	54	-56.4	-85.7	91	7
2023-08-19T06:00	20679	53	-56.4	-85.7	94	7
2023-08-19T06:00	20700	53	-56.2	-85.5	98	6
2023-08-19T06:00	20726	53	-56.0		103	6
2023-08-19T06:00	20748	53	-56.1	-85.5	109	6
2023-08-19T06:00	20771	53	-56.2	-85.5	116	5
2023-08-19T06:00	20796	52	-56.4	-85.7	120	5
2023-08-19T06:00	20817	52	-56.6	-85.8	122	5
2023-08-19T06:00	20843	52	-56.7	-85.9	120	5
2023-08-19T06:00	20868	52	-56.7	-85.9	114	4
2023-08-19T06:00	20889	52	-56.5	-85.8	104	4
2023-08-19T06:00	20913	51	-56.3	-85.6	93	4
2023-08-19T06:00	20936	51	-56.3	-85.6	84	4
2023-08-19T06:00	20958	51	-56.2	-85.5	79	4
2023-08-19T06:00	20982	51	-56.1	-86.0	78	4
2023-08-19T06:00	21002	51	-56.1	-85.5	81	4
2023-08-19T06:00	21027	50	-56.0		87	4
2023-08-19T06:00	21053	50	-56.0		93	5
2023-08-19T06:00	21076	50	-56.1	-85.5	98	5
2023-08-19T06:00	21101	50	-56.0	-85.9	101	5
2023-08-19T06:00	21122	50	-55.9	-85.8	105	4
2023-08-19T06:00	21147	50	-55.8	-85.7	110	4
2023-08-19T06:00	21170	49	-55.6	-85.6	116	4
2023-08-19T06:00	21194	49	-55.3	-85.4	123	4
2023-08-19T06:00	21216	49	-55.3	-85.4	128	4
2023-08-19T06:00	21239	49	-55.4	-85.4	132	5
2023-08-19T06:00	21267	49	-55.4	-85.4	134	5
2023-08-19T06:00	21290	48	-55.4	-85.4	135	5
2023-08-19T06:00	21310	48	-55.4	-85.4	137	5
2023-08-19T06:00	21333	48	-55.4	-85.4	140	5
2023-08-19T06:00	21358	48	-55.3	-85.4	145	5
2023-08-19T06:00	21383	48	-55.3	-85.4	151	5
2023-08-19T06:00	21404	48	-55.4	-85.4	158	5
2023-08-19T06:00	21432	47	-55.5	-85.0	165	5
2023-08-19T06:00	21452	47	-55.7	-85.2	171	5
2023-08-19T06:00	21480	47	-55.8	-85.2	177	4
2023-08-19T06:00	21505	47	-55.8	-85.2	181	4
2023-08-19T06:00	21532	47	-55.7	-85.2	185	3
2023-08-19T06:00	21554	46	-55.7	-85.2	189	2
2023-08-19T06:00	21578	46	-55.8	-85.2	193	2
2023-08-19T06:00	21605	46	-55.8	-85.2	201	1
2023-08-19T06:00	21634	46	-55.9	-85.3	240	0
2023-08-19T06:00	21656	46	-56.1	-85.5	4	1
2023-08-19T06:00	21677	46	-56.2	-85.5	20	1
2023-08-19T06:00	21704	45	-56.2	-85.5	30	2
2023-08-19T06:00	21727	45	-56.2	-85.5	38	2
2023-08-19T06:00	21754	45	-56.2	-85.5	45	3
2023-08-19T06:00	21780	45	-56.3	-85.6	50	3
2023-08-19T06:00	21810	45	-56.3	-85.6	55	3
2023-08-19T06:00	21829	45	-56.4	-85.7	61	3
2023-08-19T06:00	21857	44	-56.5	-85.8	66	3
2023-08-19T06:00	21879	44	-56.6	-85.8	72	4
2023-08-19T06:00	21902	44	-56.6	-85.8	76	4
2023-08-19T06:00	21929	44	-56.5	-85.8	79	4
2023-08-19T06:00	21950	44	-56.5	-85.8	80	4
2023-08-19T06:00	21980	43	-56.6	-85.8	80	4
2023-08-19T06:00	22003	43	-56.6	-85.8	80	4
2023-08-19T06:00	22028	43	-56.6	-85.8	80	5
2023-08-19T06:00	22051	43	-56.4	-85.7	81	5
2023-08-19T06:00	22079	43	-56.3	-85.6	83	5
2023-08-19T06:00	22105	43	-56.3	-85.6	85	6
2023-08-19T06:00	22127	42	-56.3	-85.6	88	6
2023-08-19T06:00	22153	42	-56.4	-85.7	92	6
2023-08-19T06:00	22182	42	-56.4	-85.7	95	6
2023-08-19T06:00	22207	42	-56.6	-85.8	98	7
2023-08-19T06:00	22230	42	-56.6	-85.8	100	7
2023-08-19T06:00	22257	42	-56.6	-85.8	100	7
2023-08-19T06:00	22278	41	-56.5	-85.8	98	7
2023-08-19T06:00	22303	41	-56.4	-85.7	95	7
2023-08-19T06:00	22329	41	-56.2	-86.0	91	7
2023-08-19T06:00	22353	41	-56.0	-85.9	86	8
2023-08-19T06:00	22381	41	-55.9	-85.8	83	8
2023-08-19T06:00	22401	41	-55.8	-85.7	80	8
2023-08-19T06:00	22425	41	-55.6	-85.6	78	8
2023-08-19T06:00	22452	40	-55.5	-85.5	76	9
2023-08-19T06:00	22481	40	-55.4	-85.4	76	9
2023-08-19T06:00	22504	40	-55.4	-85.4	76	9
2023-08-19T06:00	22524	40	-55.7	-85.7	78	9
2023-08-19T06:00	22553	40	-55.8	-85.7	80	9
2023-08-19T06:00	22575	40	-55.8	-85.7	84	9
2023-08-19T06:00	22601	39	-55.8	-85.7	87	10
2023-08-19T06:00	22622	39	-55.8	-85.2	91	10
2023-08-19T06:00	22650	39	-55.9	-85.3	94	10
2023-08-19T06:00	22674	39	-55.9	-85.3	97	10
2023-08-19T06:00	22701	39	-56.0		100	10
2023-08-19T06:00	22725	39	-56.1	-85.5	104	10
2023-08-19T06:00	22751	39	-56.3	-85.6	108	10
2023-08-19T06:00	22775	38	-56.4	-85.7	112	10
2023-08-19T06:00	22798	38	-56.5	-85.8	117	9
2023-08-19T06:00	22819	38	-56.6	-85.8	122	9
2023-08-19T06:00	22844	38	-56.6	-85.8	128	8
2023-08-19T06:00	22872	38	-56.5	-85.8	133	8
2023-08-19T06:00	22895	38	-56.2	-85.5	137	7
2023-08-19T06:00	22917	38	-56.0	-85.9	140	6
2023-08-19T06:00	22940	37	-56.0	-85.9	141	5
2023-08-19T06:00	22964	37	-56.2	-86.0	140	5
2023-08-19T06:00	22991	37	-56.2	-86.0	136	4
2023-08-19T06:00	23017	37	-56.1	-86.0	129	4
2023-08-19T06:00	23040	37	-56.0	-85.9	121	4
2023-08-19T06:00	23066	37	-55.8	-85.7	115	4
2023-08-19T06:00	23087	37	-55.7	-85.7	112	4
2023-08-19T06:00	23109	36	-55.6	-85.6	111	4
2023-08-19T06:00	23137	36	-55.6	-85.6	110	4
2023-08-19T06:00	23160	36	-55.7	-85.7	109	4
2023-08-19T06:00	23182	36	-55.7	-85.7	108	4
2023-08-19T06:00	23211	36	-55.7	-85.7	104	4
2023-08-19T06:00	23233	36	-55.7	-85.7	97	3
2023-08-19T06:00	23258	36	-55.7	-85.7	88	3
2023-08-19T06:00	23283	35	-55.7	-85.7	78	3
2023-08-19T06:00	23309	35	-55.8	-85.7	72	4
2023-08-19T06:00	23336	35	-55.8	-85.7	71	4
2023-08-19T06:00	23358	35	-55.7	-85.7	72	5
2023-08-19T06:00	23385	35	-55.7	-85.7	74	6
2023-08-19T06:00	23413	35	-55.9	-85.8	77	7
2023-08-19T06:00	23440	35	-55.9	-85.8	79	8
2023-08-19T06:00	23464	34	-55.6	-85.6	80	8
2023-08-19T06:00	23491	34	-55.4	-85.4	81	9
2023-08-19T06:00	23521	34	-55.3	-85.4	80	9
2023-08-19T06:00	23538	34	-55.3	-85.9	79	9
2023-08-19T06:00	23565	34	-55.3	-85.9	77	9
2023-08-19T06:00	23588	34	-55.2	-85.8	76	9
2023-08-19T06:00	23620	34	-55.0	-85.7	74	9
2023-08-19T06:00	23644	33	-54.9	-85.6	73	9
2023-08-19T06:00	23673	33	-55.0	-85.1	73	10
2023-08-19T06:00	23697	33	-55.2	-85.3	73	10
2023-08-19T06:00	23724	33	-55.3	-85.4	73	10
2023-08-19T06:00	23750	33	-55.5	-85.5	73	10
2023-08-19T06:00	23776	33	-55.6	-85.6	74	10
2023-08-19T06:00	23798	33	-55.7	-85.7	73	10
2023-08-19T06:00	23828	33	-55.7	-85.7	73	9
2023-08-19T06:00	23854	32	-55.8	-85.7	73	9
2023-08-19T06:00	23884	32	-55.8	-85.7	73	9
2023-08-19T06:00	23910	32	-55.9	-85.8	73	8
2023-08-19T06:00	23935	32	-56.0	-85.9	74	8
2023-08-19T06:00	23963	32	-56.1	-86.0	76	7
2023-08-19T06:00	23992	32	-56.1	-86.0	78	7
2023-08-19T06:00	24015	32	-56.0	-85.9	80	7
2023-08-19T06:00	24040	31	-55.9	-85.8	81	7
2023-08-19T06:00	24069	31	-55.9	-85.8	80	7
2023-08-19T06:00	24097	31	-55.8	-85.7	79	8
2023-08-19T06:00	24125	31	-55.6	-86.1	78	8
2023-08-19T06:00	24150	31	-55.4	-86.0	77	9
2023-08-19T06:00	24179	31	-55.3	-85.9	78	9
2023-08-19T06:00	24202	31	-55.2	-85.8	80	10
2023-08-19T06:00	24230	31	-55.2	-85.8	82	11
2023-08-19T06:00	24260	30	-55.2	-85.8	85	12
2023-08-19T06:00	24279	30	-55.1	-85.8	89	12
2023-08-19T06:00	24312	30	-55.1	-85.8	92	13
2023-08-19T06:00	24335	30	-55.1	-85.8	95	13
2023-08-19T06:00	24364	30	-55.0	-85.7	99	13
2023-08-19T06:00	24395	30	-55.1	-85.8	102	13
2023-08-19T06:00	24423	30	-55.3	-85.4	106	14
2023-08-19T06:00	24444	30	-55.3	-85.4	109	14
2023-08-19T06:00	24475	29	-55.4	-85.4	112	14
2023-08-19T06:00	24502	29	-55.4	-85.4	114	13
2023-08-19T06:00	24525	29	-55.5	-85.5	116	13
2023-08-19T06:00	24557	29	-55.3	-85.9	117	12
2023-08-19T06:00	24579	29	-55.1	-85.8	118	12
2023-08-19T06:00	24610	29	-55.0	-85.7	119	11
2023-08-19T06:00	24636	29	-55.0	-85.7	119	10
2023-08-19T06:00	24658	29	-55.0	-85.7	119	9
2023-08-19T06:00	24684	28	-54.9	-85.6	118	8
2023-08-19T06:00	24709	28	-54.9	-85.6	115	8
2023-08-19T06:00	24735	28	-55.0	-85.7	111	7
2023-08-19T06:00	24760	28	-55.0	-85.7	105	7
2023-08-19T06:00	24780	28	-54.8	-85.5	101	7
2023-08-19T06:00	24808	28	-54.5	-85.9	98	7
2023-08-19T06:00	24835	28	-54.2	-85.7	99	7
2023-08-19T06:00	24854	28	-54.0	-85.5	100	7
2023-08-19T06:00	24883	28	-53.8	-85.4	102	8
2023-08-19T06:00	24905	27	-53.8	-85.4	103	8
2023-08-19T06:00	24933	27	-53.8	-85.4	102	8
2023-08-19T06:00	24953	27	-53.7	-85.3	100	7
2023-08-19T06:00	24984	27	-53.6	-85.3	98	7
2023-08-19T06:00	25005	27	-53.5	-85.2	96	7
2023-08-19T06:00	25028	27	-53.4	-85.1	96	7
2023-08-19T06:00	25052	27	-53.3	-85.0	98	8
2023-08-19T06:00	25081	27	-53.0	-84.8	99	8
2023-08-19T06:00	25105	27	-52.9	-84.7	101	8
2023-08-19T06:00	25134	27	-52.7	-85.3	102	7
2023-08-19T06:00	25152	26	-52.4	-85.1	101	7
2023-08-19T06:00	25182	26	-52.3	-85.0	98	6
2023-08-19T06:00	25211	26	-52.0	-84.8	94	6
2023-08-19T06:00	25232	26	-51.8	-84.6	87	6
2023-08-19T06:00	25255	26	-51.5	-84.4	81	6
2023-08-19T06:00	25285	26	-51.4	-84.3	76	6
2023-08-19T06:00	25314	26	-51.3	-84.3	72	6
2023-08-19T06:00	25336	26	-51.3	-84.3	70	6
2023-08-19T06:00	25363	26	-51.2	-84.2	68	7
2023-08-19T06:00	25390	26	-51.2	-84.2	66	7
2023-08-19T06:00	25409	25	-51.2	-84.2	65	7
2023-08-19T06:00	25440	25	-51.1	-84.1	65	8
2023-08-19T06:00	25473	25	-51.2	-84.2	66	8
2023-08-19T06:00	25498	25	-51.2	-84.2	68	9
2023-08-19T06:00	25528	25	-51.2	-84.2	72	9
2023-08-19T06:00	25550	25	-51.1	-84.1	75	10
2023-08-19T06:00	25578	25	-51.1	-84.1	79	10
2023-08-19T06:00	25607	25	-51.0	-84.0	82	11
2023-08-19T06:00	25636	25	-50.9	-84.0	85	11
2023-08-19T06:00	25661	24	-50.9	-84.0	87	11
2023-08-19T06:00	25694	24	-51.0	-84.0	89	12
2023-08-19T06:00	25722	24	-51.2	-84.2	90	12
2023-08-19T06:00	25747	24	-51.3	-84.3	92	12
2023-08-19T06:00	25778	24	-51.4	-83.6	93	12
2023-08-19T06:00	25805	24	-51.4	-83.6	94	12
2023-08-19T06:00	25831	24	-51.4	-83.6	96	12
2023-08-19T06:00	25861	24	-51.4	-83.6	97	12
2023-08-19T06:00	25890	24	-51.4	-84.3	99	12
2023-08-19T06:00	25917	24	-51.5	-84.4	101	12
2023-08-19T06:00	25947	23	-51.5	-84.4	102	11
2023-08-19T06:00	25979	23	-51.4	-84.3	104	11
2023-08-19T06:00	25997	23	-51.4	-84.3	106	10
2023-08-19T06:00	26030	23	-51.3	-84.3	107	10
2023-08-19T06:00	26051	23	-51.3	-84.3	108	9
2023-08-19T06:00	26078	23	-51.4	-84.3	109	9
2023-08-19T06:00	26107	23	-51.3	-84.3	109	9
2023-08-19T06:00	26138	23	-51.2	-84.2	109	9
2023-08-19T06:00	26164	23	-51.2	-84.2	110	9
2023-08-19T06:00	26193	23	-51.2	-84.2	111	9
2023-08-19T06:00	26215	22	-51.2	-84.2	113	10
2023-08-19T06:00	26244	22	-51.0	-84.0	116	10
2023-08-19T06:00	26272	22	-51.0	-84.0	119	10
2023-08-19T06:00	26304	22	-50.9	-84.0	122	10
2023-08-19T06:00	26328	22	-50.8	-83.9	125	9
2023-08-19T06:00	26357	22	-50.7	-83.8	129	9
2023-08-19T06:00	26376	22	-50.6	-83.7	133	8
2023-08-19T06:00	26413	22	-50.5	-83.7	137	7
2023-08-19T06:00	26437	22	-50.4	-83.6	141	6
2023-08-19T06:00	26470	22	-50.3	-84.3	142	5
2023-08-19T06:00	26495	22	-50.1	-84.2	141	5
2023-08-19T06:00	26520	21	-49.8	-84.0	137	4
2023-08-19T06:00	26546	21	-49.5	-83.7	129	3
2023-08-19T06:00	26572	21	-49.3	-83.6	113	3
2023-08-19T06:00	26599	21	-49.2	-83.5	95	3
2023-08-19T06:00	26630	21	-49.0	-83.4	82	4
2023-08-19T06:00	26662	21	-48.9	-83.3	75	5
2023-08-19T06:00	26682	21	-48.7	-83.2	72	6
2023-08-19T06:00	26704	21	-48.5	-83.0	72	6
2023-08-19T06:00	26736	21	-48.6	-83.1	73	7
2023-08-19T06:00	26764	21	-48.7	-83.2	75	7
2023-08-19T06:00	26802	21	-48.7	-83.2	77	7
2023-08-19T06:00	26827	20	-48.8	-83.2	79	7
2023-08-19T06:00	26856	20	-48.8	-83.2	82	7
2023-08-19T06:00	26882	20	-48.8	-83.2	83	6
2023-08-19T06:00	26908	20	-48.9	-83.3	84	6
2023-08-19T06:00	26937	20	-48.9	-83.3	85	6
2023-08-19T06:00	26957	20	-49.0	-83.4	87	6
2023-08-19T06:00	26999	20	-49.0	-83.4	89	6
2023-08-19T06:00	27015	20	-49.0	-83.4	91	6
2023-08-19T06:00	27049	20	-49.1	-83.4	94	7
2023-08-19T06:00	27076	20	-49.1	-83.4	97	7
2023-08-19T06:00	27111	20	-49.0	-83.4	100	7
2023-08-19T06:00	27132	20	-48.7	-83.2	103	7
2023-08-19T06:00	27159	19	-48.4	-82.9	106	6
2023-08-19T06:00	27187	19	-48.3	-82.9	108	6
2023-08-19T06:00	27220	19	-48.3	-82.9	111	6
2023-08-19T06:00	27240	19	-48.3	-82.9	113	5
2023-08-19T06:00	27271	19	-48.3	-82.9	116	5
2023-08-19T06:00	27301	19	-48.3	-82.9	118	5
2023-08-19T06:00	27321	19	-48.0	-82.7	119	4
2023-08-19T06:00	27351	19	-47.8	-83.4	118	4
2023-08-19T06:00	27382	19	-47.6	-83.3	117	4
2023-08-19T06:00	27401	19	-47.5	-83.2	115	4
2023-08-19T06:00	27439	19	-47.4	-83.1	112	4
2023-08-19T06:00	27463	19	-47.3	-83.1	109	4
2023-08-19T06:00	27492	19	-47.3	-83.1	106	4
2023-08-19T06:00	27512	18	-47.0	-82.9	105	4
2023-08-19T06:00	27541	18	-46.6	-82.6	106	4
2023-08-19T06:00	27574	18	-46.5	-82.5	107	4
2023-08-19T06:00	27591	18	-46.5	-82.5	107	4
2023-08-19T06:00	27627	18	-46.4	-82.4	102	4
2023-08-19T06:00	27650	18	-46.3	-82.4	96	4
2023-08-19T06:00	27679	18	-46.3	-82.4	85	4
2023-08-19T06:00	27705	18	-46.0	-82.1	72	4
2023-08-19T06:00	27733	18	-45.8	-82.0	59	4
2023-08-19T06:00	27760	18	-45.5	-81.8	49	4
2023-08-19T06:00	27782	18	-45.3	-81.6	43	4
2023-08-19T06:00	27805	18	-45.4	-81.7	39	5
2023-08-19T06:00	27839	18	-45.4	-81.7	37	6
2023-08-19T06:00	27862	17	-45.4	-81.7	35	6
2023-08-19T06:00	27889	17	-45.5	-81.8	34	7
2023-08-19T06:00	27915	17	-45.6	-81.9	33	7
2023-08-19T06:00	27949	17	-45.7	-81.9	33	7
2023-08-19T06:00	27962	17	-45.9	-82.1	33	8
2023-08-19T06:00	27999	17	-45.9	-82.1	34	8
2023-08-19T06:00	28023	17	-45.9	-82.1	37	8
2023-08-19T06:00	28057	17	-45.6	-81.9	40	8
2023-08-19T06:00	28085	17	-45.4	-81.7	43	8
2023-08-19T06:00	28113	17	-45.3	-81.6	48	8
2023-08-19T06:00	28137	17	-45.4	-81.7	53	8
2023-08-19T06:00	28162	17	-45.5	-81.8	58	8
2023-08-19T06:00	28194	17	-45.5	-81.8	63	8
2023-08-19T06:00	28213	17	-45.4	-81.7	68	8
2023-08-19T06:00	28247	17	-45.4	-81.7	73	9
2023-08-19T06:00	28281	16	-45.5	-81.8	78	9
2023-08-19T06:00	28303	16	-45.6	-81.9	84	9
2023-08-19T06:00	28332	16	-45.6	-81.9	90	9
2023-08-19T06:00	28348	16	-45.4	-81.7	96	8
2023-08-19T06:00	28381	16	-45.2	-81.6	102	8
2023-08-19T06:00	28421	16	-45.1	-81.5	107	8
2023-08-19T06:00	28441	16	-45.0	-82.5	109	8
2023-08-19T06:00	28457	16	-44.9	-82.5	110	7
2023-08-19T06:00	28498	16	-44.8	-82.4	109	7
2023-08-19T06:00	28530	16	-44.8	-82.4	108	7
2023-08-19T06:00	28554	16	-44.7	-82.3	106	7
2023-08-19T06:00	28576	16	-44.7	-82.3	104	6
2023-08-19T06:00	28610	16	-44.7	-82.3	103	6
2023-08-19T06:00	28633	16	-44.6	-82.2	101	5
2023-08-19T06:00	28659	16	-44.5	-82.2	98	4
2023-08-19T06:00	28693	15	-44.4	-82.1	95	4
2023-08-19T06:00	28731	15	-44.5	-82.2	90	3
2023-08-19T06:00	28745	15	-44.4	-82.1	86	3
2023-08-19T06:00	28770	15	-44.4	-82.1	82	3
2023-08-19T06:00	28795	15	-44.4	-82.1	78	3
2023-08-19T06:00	28833	15	-44.3	-82.0	76	3
2023-08-19T06:00	28845	15	-44.2	-82.0	74	3
2023-08-19T06:00	28898	15	-44.1	-81.9	72	3
2023-08-19T06:00	28913	15	-44.0	-81.8	72	3
2023-08-19T06:00	28944	15	-43.9	-81.8	73	2
2023-08-19T06:00	28973	15	-43.8	-81.7	74	2
2023-08-19T06:00	29015	15	-43.9	-81.8	72	2
2023-08-19T06:00	29035	15	-44.0	-81.8	68	2
2023-08-19T06:00	29059	15	-44.0	-81.8	63	3
2023-08-19T06:00	29103	15	-44.0	-81.8	59	4
2023-08-19T06:00	29124	14	-44.2	-82.0	57	5
2023-08-19T06:00	29149	14	-44.3	-82.0	57	6
2023-08-19T06:00	29181	14	-44.4	-81.0	57	6
2023-08-19T06:00	29218	14	-44.5	-81.1	58	7
2023-08-19T06:00	29250	14	-44.7	-81.2	60	7
2023-08-19T06:00	29279	14	-44.9	-81.4	63	7
2023-08-19T06:00	29314	14	-45.1	-81.5	67	7
2023-08-19T06:00	29334	14	-45.2	-81.6	72	7
2023-08-19T06:00	29364	14	-45.1	-81.5	76	7
2023-08-19T06:00	29391	14	-45.1	-81.5	78	7
2023-08-19T06:00	29425	14	-45.1	-81.5	79	6
2023-08-19T06:00	29449	14	-44.9	-82.5	77	6
2023-08-19T06:00	29480	14	-45.0	-82.5	73	6
2023-08-19T06:00	29510	14	-45.1	-82.6	68	5
2023-08-19T06:00	29545	14	-45.1	-82.6	62	5
2023-08-19T06:00	29571	14	-45.1	-82.6	55	4
2023-08-19T06:00	29598	14	-45.2	-81.6	45	4
2023-08-19T06:00	29631	13	-45.2	-81.6	35	4
2023-08-19T06:00	29656	13	-45.4	-81.7	26	4
2023-08-19T06:00	29682	13	-45.5	-81.8	21	4
2023-08-19T06:00	29711	13	-45.5	-81.8	20	5
2023-08-19T06:00	29742	13	-45.5	-81.8	20	6
2023-08-19T06:00	29770	13	-45.4	-81.7	22	6
2023-08-19T06:00	29798	13	-45.4	-82.8	25	7
2023-08-19T06:00	29827	13	-45.4	-82.8	29	7
2023-08-19T06:00	29863	13	-45.4	-82.8	33	8
2023-08-19T06:00	29880	13	-45.3	-82.7	38	8
2023-08-19T06:00	29910	13	-45.2	-82.7	42	9
2023-08-19T06:00	29929	13	-45.1	-82.6	47	9
2023-08-19T06:00	29972	13	-45.0	-82.5	52	10
2023-08-19T06:00	29991	13	-45.1	-82.6	58	11
2023-08-19T06:00	30027	13	-45.2	-82.7	63	11
2023-08-19T06:00	30060	13	-45.2	-82.7	68	12
2023-08-19T06:00	30088	13	-45.2	-82.7	72	13
2023-08-19T06:00	30122	12	-45.0	-82.5	76	13
2023-08-19T06:00	30145	12	-44.9	-82.5	80	13
2023-08-19T06:00	30177	12	-44.7	-82.3	85	12
2023-08-19T06:00	30192	12	-44.6	-82.2	88	12
2023-08-19T06:00	30238	12	-44.4	-82.1	91	12
2023-08-19T06:00	30262	12	-44.3	-82.0	93	12
2023-08-19T06:00	30285	12	-44.1	-81.9	94	12
2023-08-19T06:00	30319	12	-43.9	-81.8	93	12
2023-08-19T06:00	30349	12	-43.7	-81.6	92	13
2023-08-19T06:00	30372	12	-43.5	-81.5	91	14
2023-08-19T06:00	30414	12	-43.4	-81.4	91	14
2023-08-19T06:00	30434	12	-43.2	-81.3	92	15
2023-08-19T06:00	30458	12	-42.9	-81.1	94	16
2023-08-19T06:00	30506	12	-42.8	-81.0	97	17
2023-08-19T06:00	30524	12	-42.9	-81.1	100	17
2023-08-19T06:00	30564	12	-42.6	-80.8	102	17
2023-08-19T06:00	30593	12	-42.1	-80.5	105	17
2023-08-19T06:00	30634	12	-41.9	-80.4	107	17
2023-08-19T06:00	30651	12	-42.0	-80.4	109	17
2023-08-19T06:00	30683	11	-42.1	-80.5	111	16
2023-08-19T06:00	30694	11	-42.3	-80.6	114	15
2023-08-19T06:00	30742	11	-42.5	-80.8	117	15
2023-08-19T06:00	30767	11	-42.5	-80.8	119	15
2023-08-19T06:00	30804	11	-42.5	-80.8	121	14
2023-08-19T06:00	30825	11	-42.5	-80.8	122	14
2023-08-19T06:00	30853	11	-42.4	-80.7	122	14
2023-08-19T06:00	30893	11	-42.1	-80.5	121	13
2023-08-19T06:00	30920	11	-41.8	-80.3	120	13
2023-08-19T06:00	30951	11	-41.6	-80.1	118	13
2023-08-19T06:00	30953	11	-41.4	-80.0	118	13
2023-08-19T06:00	31002	11	-41.4	-80.0	118	13
2023-08-19T06:00	31019	11	-41.3	-79.9	119	13
2023-08-19T06:00	31069	11	-41.2	-79.9	120	12
2023-08-19T06:00	31078	11	-41.3	-79.9	122	12
2023-08-19T06:00	31104	11	-41.4	-80.0	123	12
2023-08-19T06:00	31132	11	-41.4	-80.0	124	12
2023-08-19T06:00	31159	11	-41.4	-80.0	123	11
2023-08-19T06:00	31196	11	-41.5	-80.1	122	10
2023-08-19T06:00	31223	11	-41.4	-80.0	119	10
2023-08-19T06:00	31248	11	-41.3	-79.9	115	9
2023-08-19T06:00	31273	11	-41.2	-79.9	112	8
2023-08-19T06:00	31315	10	-41.0	-79.7	108	8
2023-08-19T06:00	31336	10	-40.9	-79.7	103	8
2023-08-19T06:00	31352	10	-40.9	-79.7	99	7
2023-08-19T06:00	31388	10	-40.9	-79.7	93	8
2023-08-19T06:00	31406	10	-40.8	-79.6	89	8
2023-08-19T06:00	31442	10	-40.7	-79.5	85	9
2023-08-19T06:00	31468	10	-40.6	-79.5	83	9
2023-08-19T06:00	31503	10	-40.5	-79.4	82	10
2023-08-19T06:00	31521	10	-40.3	-79.2	83	10
2023-08-19T06:00	31558	10	-40.2	-79.2	85	11
2023-08-19T06:00	31578	10	-40.1	-79.1	88	11
2023-08-19T06:00	31607	10	-40.1	-79.1	91	11
2023-08-19T06:00	31651	10	-40.1	-79.1	96	11
2023-08-19T06:00	31655	10	-40.1	-79.1	100	11
2023-08-19T06:00	31686	10	-40.1	-79.1	103	11
2023-08-19T06:00	31726	10	-40.1	-79.1	106	10
2023-08-19T06:00	31761	10	-40.2	-79.2	108	10
2023-08-19T06:00	31774	10	-40.2	-79.2	109	10
2023-08-19T06:00	31804	10	-40.1	-79.1	109	10
2023-08-19T06:00	31848	10	-40.2	-79.2	109	10
2023-08-19T06:00	31882	10	-40.3	-79.2	108	10
2023-08-19T06:00	31909	10	-40.3	-79.2	107	9
2023-08-19T06:00	31943	10	-40.2	-79.2	106	9
2023-08-19T06:00	31957	10	-40.2	-79.2	106	9
2023-08-19T06:00	31999	9	-40.3	-79.2	106	9
2023-08-19T06:00	32024	9	-40.3	-79.2	106	9
2023-08-19T06:00	32055	9	-40.3	-79.2	106	9
2023-08-19T06:00	32088	9	-40.4	-79.3	106	9
2023-08-19T06:00	32119	9	-40.6	-79.5	105	8
2023-08-19T06:00	32155	9	-40.7	-79.5	105	8
2023-08-19T06:00	32192	9	-40.7	-79.5	104	8
2023-08-19T06:00	32219	9	-40.7	-79.5	104	8
2023-08-19T06:00	32254	9	-40.7	-79.5	105	8
2023-08-19T06:00	32297	9	-40.7	-79.5	105	8
2023-08-19T06:00	32312	9	-40.8	-79.6	106	8
2023-08-19T06:00	32355	9	-40.9	-79.7	107	8
2023-08-19T06:00	32384	9	-41.0	-79.7	109	9
2023-08-19T06:00	32414	9	-41.1	-79.8	111	9
2023-08-19T06:00	32452	9	-41.1	-79.8	112	10
2023-08-19T06:00	32472	9	-41.2	-79.9	114	10
2023-08-19T06:00	32508	9	-41.3	-79.9	115	10
2023-08-19T06:00	32551	9	-41.3	-79.9	116	11
2023-08-19T06:00	32573	9	-41.3	-79.9	117	11
2023-08-19T06:00	32592	9	-41.2	-79.9	119	11
2023-08-19T06:00	32638	9	-41.0	-79.7	120	10
2023-08-19T06:00	32640	9	-40.9	-79.7	122	10
2023-08-19T06:00	32706	9	-40.8	-79.6	123	9
2023-08-19T06:00	32729	9	-40.7	-79.5	124	9
2023-08-19T06:00	32762	8	-40.5	-79.4	125	8
2023-08-19T06:00	32780	8	-40.4	-79.3	127	7
2023-08-19T06:00	32794	8	-40.4	-79.3	128	7
2023-08-19T06:00	32822	8	-40.4	-79.3	130	6
2023-08-19T06:00	32864	8	-40.3	-79.2	131	6
2023-08-19T06:00	32900	8	-40.3	-79.2	131	5
2023-08-19T06:00	32913	8	-40.2	-79.2	129	5
2023-08-19T06:00	32927	8	-39.9	-79.0	125	5
2023-08-19T06:00	32987	8	-39.6	-78.8	122	5
2023-08-19T06:00	33007	8	-39.3	-78.5	116	5
2023-08-19T06:00	33035	8	-39.0	-78.3	110	5
2023-08-19T06:00	33055	8	-38.9	-78.3	105	5
2023-08-19T06:00	33090	8	-38.7	-78.1	101	6
2023-08-19T06:00	33101	8	-38.7	-78.1	100	6
2023-08-19T06:00	33152	8	-38.7	-78.1	101	6
2023-08-19T06:00	33185	8	-38.7	-78.1	105	6
2023-08-19T06:00	33228	8	-38.7	-78.1	106	7
2023-08-19T06:00	33245	8	-38.6	-78.1	105	7
2023-08-19T06:00	33274	8	-38.5	-78.0	103	7
2023-08-19T06:00	33285	8	-38.3	-77.9	102	7
2023-08-19T06:00	33335	8	-38.3	-77.9	102	8
2023-08-19T06:00	33364	8	-38.2	-77.8	103	8
2023-08-19T06:00	33380	8	-38.1	-77.7	105	9
2023-08-19T06:00	33400	8	-37.9	-77.6	107	9
2023-08-19T06:00	33416	8	-37.7	-77.4	109	10
2023-08-19T06:00	33433	8	-37.4	-77.2	110	11
2023-08-19T06:00	33476	8	-37.1	-77.0	112	12
2023-08-19T06:00	33512	8	-36.9	-76.9	113	12
2023-08-19T06:00	33516	8	-36.7	-76.7	115	13
2023-08-19T06:00	33558	8	-36.6	-76.7	117	13
2023-08-19T06:00	33568	8	-36.6	-76.7	119	14
2023-08-19T06:00	33606	8	-36.6	-76.7	120	14
2023-08-19T06:00	33612	7	-36.6	-76.7	121	13
2023-08-19T06:00	33650	7	-36.7	-76.7	121	13
2023-08-19T06:00	33676	7	-36.6	-76.7	120	13
2023-08-19T06:00	33706	7	-36.5	-76.6	117	12
2023-08-19T06:00	33715	7	-36.4	-76.5	114	12
2023-08-19T06:00	33756	7	-36.4	-76.5	110	12
2023-08-19T06:00	33762	7	-36.2	-76.4	107	12
2023-08-19T06:00	33807	7	-36.0	-76.3	103	12
2023-08-19T06:00	33848	7	-35.6	-76.0	96	14
2023-08-19T06:00	33902	7	-35.3	-75.8	94	15
2023-08-19T06:00	33922	7	-35.1	-75.6	93	15
2023-08-19T06:00	33935	7	-35.0	-75.6	92	16
2023-08-19T06:00	33978	7	-35.0	-75.6	92	16
2023-08-19T06:00	33985	7	-35.0	-75.6	92	16
2023-08-19T06:00	34050	7	-34.9	-75.5	92	16
2023-08-19T06:00	34069	7	-34.9	-75.5	93	15
2023-08-19T06:00	34093	7	-35.0	-75.6	94	15
2023-08-19T06:00	34123	7	-35.1	-75.6	95	14
2023-08-19T06:00	34142	7	-35.2	-75.7	97	14
2023-08-19T06:00	34160	7	-35.3	-75.8	100	14
2023-08-19T06:00	34200	7	-35.3	-75.8	103	14
2023-08-19T06:00	34226	7	-35.3	-75.8	107	14
2023-08-19T06:00	34242	7	-35.2	-75.7	110	14
2023-08-19T06:00	34297	7	-35.1	-75.6	111	14
2023-08-19T12:00	118	1004	28.4	18.7	140	2
2023-08-19T12:00	152	1001	27.8	17.9	149	2
2023-08-19T12:00	178	998	27.6	17.3	145	3
2023-08-19T12:00	212	994	27.0	17.1	141	3
2023-08-19T12:00	238	991	26.7	17.0	137	4
2023-08-19T12:00	265	988	26.2	16.9	134	4
2023-08-19T12:00	294	985	25.9	17.2	132	4
2023-08-19T12:00	327	981	25.6	16.6	131	4
2023-08-19T12:00	357	978	25.3	16.6	131	4
2023-08-19T12:00	388	974	25.0	16.7	131	4
2023-08-19T12:00	421	971	24.6	16.4	133	4
2023-08-19T12:00	454	967	24.2	16.4	135	4
2023-08-19T12:00	486	963	23.9	16.6	138	4
2023-08-19T12:00	519	960	23.6	16.5	140	4
2023-08-19T12:00	550	956	23.3	16.5	140	3
2023-08-19T12:00	586	953	22.9	16.4	139	3
2023-08-19T12:00	618	949	22.6	16.2	136	3
2023-08-19T12:00	651	945	22.3	16.4	134	4
2023-08-19T12:00	688	942	21.9	16.4	131	4
2023-08-19T12:00	722	938	21.6	16.3	129	4
2023-08-19T12:00	760	934	21.2	16.2	125	4
2023-08-19T12:00	794	930	20.9	16.2	119	4
2023-08-19T12:00	828	926	20.7	16.3	112	4
2023-08-19T12:00	858	923	20.4	16.0	106	4
2023-08-19T12:00	886	920	20.1	16.2	101	4
2023-08-19T12:00	915	917	19.8	16.3	100	4
2023-08-19T12:00	948	913	19.5	16.1	101	4
2023-08-19T12:00	987	910	19.1	16.3	105	5
2023-08-19T12:00	1019	906	18.9	15.9	108	5
2023-08-19T12:00	1045	903	18.6	15.9	111	4
2023-08-19T12:00	1072	900	18.4	15.8	114	4
2023-08-19T12:00	1100	898	18.1	15.8	119	3
2023-08-19T12:00	1129	895	17.8	16.0	128	2
2023-08-19T12:00	1154	892	17.5	15.8	139	2
2023-08-19T12:00	1178	889	17.3	15.6	147	2
2023-08-19T12:00	1202	887	17.1	15.8	147	2
2023-08-19T12:00	1230	884	17.0	14.9	140	2
2023-08-19T12:00	1258	881	16.6	15.4	135	2
2023-08-19T12:00	1282	879	16.4	15.2	137	2
2023-08-19T12:00	1308	876	16.2	15.3	147	2
2023-08-19T12:00	1327	874	16.0	14.9	158	2
2023-08-19T12:00	1350	872	16.2	13.4	165	3
2023-08-19T12:00	1382	869	16.0	13.5	167	4
2023-08-19T12:00	1401	866	16.1	12.0	168	4
2023-08-19T12:00	1417	865	16.3	11.5	168	4
2023-08-19T12:00	1434	863	16.2	11.5	169	4
2023-08-19T12:00	1455	861	16.0	11.2	173	2
2023-08-19T12:00	1483	858	16.1	9.4	187	1
2023-08-19T12:00	1498	857	16.5	7.6	222	1
2023-08-19T12:00	1521	854	16.3	7.3	245	1
2023-08-19T12:00	1548	852	16.2	6.8	245	1
2023-08-19T12:00	1570	849	16.1	6.6	231	1
2023-08-19T12:00	1589	847	16.0	6.5	215	1
2023-08-19T12:00	1616	845	15.9	6.7	205	1
2023-08-19T12:00	1635	843	15.8	6.6	203	1
2023-08-19T12:00	1658	841	15.7	6.5	206	1
2023-08-19T12:00	1683	838	15.5	6.5	211	1
2023-08-19T12:00	1706	836	15.3		212	0
2023-08-19T12:00	1729	834	15.2	6.2	176	0
2023-08-19T12:00	1755	831	15.0	5.8	97	0
2023-08-19T12:00	1784	828	14.8	5.7	104	0
2023-08-19T12:00	1808	826	14.6	5.7	126	1
2023-08-19T12:00	1831	824	14.4	5.7	149	1
2023-08-19T12:00	1860	821	14.4	5.1	161	1
2023-08-19T12:00	1878	819	14.4	5.2	161	1
2023-08-19T12:00	1905	817	14.3	5.6	154	1
2023-08-19T12:00	1929	814	14.2	6.1	141	1
2023-08-19T12:00	1964	811	14.1	5.6	126	2
2023-08-19T12:00	1992	808	13.9	5.7	108	1
2023-08-19T12:00	2019	806	13.7	5.3	78	1
2023-08-19T12:00	2045	803	13.5	5.2	10	1
2023-08-19T12:00	2071	801	13.3	5.1	322	1
2023-08-19T12:00	2092	798	13.1	4.9	304	2
2023-08-19T12:00	2120	796	13.0	3.9	295	2
2023-08-19T12:00	2142	794	12.9	3.1	288	2
2023-08-19T12:00	2167	791	12.9	2.5	287	2
2023-08-19T12:00	2194	789	12.6	2.2	290	2
2023-08-19T12:00	2225	786	12.5	1.6	297	3
2023-08-19T12:00	2252	784	12.3	1.0	304	3
2023-08-19T12:00	2275	781	12.2	1.2	308	4
2023-08-19T12:00	2297	779	12.0	2.3	309	4
2023-08-19T12:00	2321	777	11.9	2.6	308	4
2023-08-19T12:00	2348	775	11.8	2.5	305	4
2023-08-19T12:00	2382	772	11.5	2.2	301	5
2023-08-19T12:00	2409	769	11.3	2.3	298	5
2023-08-19T12:00	2434	767	11.1	2.2	297	5
2023-08-19T12:00	2460	764	10.9	2.2	297	5
2023-08-19T12:00	2484	762	10.7	1.7	299	4
2023-08-19T12:00	2505	760	10.6	1.4	303	4
2023-08-19T12:00	2527	758	10.4	1.6	308	4
2023-08-19T12:00	2554	756	10.2	1.2	311	4
2023-08-19T12:00	2572	754	10.1	1.2	312	4
2023-08-19T12:00	2604	751	9.9	0.4	308	4
2023-08-19T12:00	2626	749	9.8	1.2	304	4
2023-08-19T12:00	2650	747	9.7	0.5	300	4
2023-08-19T12:00	2674	745	9.6	0.2	297	4
2023-08-19T12:00	2695	743	9.5	0.8	296	4
2023-08-19T12:00	2717	741	9.3	0.7	295	4
2023-08-19T12:00	2752	738	9.1	0.2	292	3
2023-08-19T12:00	2774	736	9.0	0.0	287	3
2023-08-19T12:00	2800	734	8.8	0.2	281	3
2023-08-19T12:00	2822	732	8.7	-0.1	277	3
2023-08-19T12:00	2848	730	8.6	-0.7	279	3
2023-08-19T12:00	2877	727	8.5	-1.6	288	2
2023-08-19T12:00	2898	725	8.3	-1.7	303	2
2023-08-19T12:00	2916	723	8.1	-1.7	315	2
2023-08-19T12:00	2944	721	8.0	-1.7	317	2
2023-08-19T12:00	2958	720	7.9	-2.0	312	2
2023-08-19T12:00	2979	718	7.7	-2.0	305	3
2023-08-19T12:00	3008	716	7.5	-3.2	299	3
2023-08-19T12:00	3030	714	7.5	-4.2	295	4
2023-08-19T12:00	3054	711	7.5	-5.6	290	4
2023-08-19T12:00	3079	709	7.4	-6.5	286	4
2023-08-19T12:00	3101	708	7.3	-6.3	284	4
2023-08-19T12:00	3120	706	7.3	-7.6	285	4
2023-08-19T12:00	3142	704	7.2		289	3
2023-08-19T12:00	3163	702	7.0	-7.1	296	3
2023-08-19T12:00	3188	700	6.8	-6.6	305	2
2023-08-19T12:00	3212	698	6.7	-6.9	310	2
2023-08-19T12:00	3230	696	6.6	-7.5	307	2
2023-08-19T12:00	3254	694	6.6	-9.1	299	2
2023-08-19T12:00	3281	692	6.5	-9.3	291	3
2023-08-19T12:00	3304	690	6.3	-6.9	284	3
2023-08-19T12:00	3330	688	6.1	-6.9	281	3
2023-08-19T12:00	3350	686	5.9	-6.9	280	3
2023-08-19T12:00	3367	685	5.8	-7.0	284	2
2023-08-19T12:00	3394	683	5.6	-7.1	295	2
2023-08-19T12:00	3414	681	5.5	-7.5	310	2
2023-08-19T12:00	3443	679	5.4	-8.8	318	2
2023-08-19T12:00	3463	677	5.3	-9.4	316	2
2023-08-19T12:00	3497	674	5.0	-9.6	308	2
2023-08-19T12:00	3529	671	4.9	-10.2	302	3
2023-08-19T12:00	3548	670	4.7	-10.2	300	3
2023-08-19T12:00	3570	668	4.6	-10.2	303	4
2023-08-19T12:00	3591	666	4.5	-10.4	310	4
2023-08-19T12:00	3620	664	4.4	-10.9	316	4
2023-08-19T12:00	3641	662	4.3	-11.4	318	4
2023-08-19T12:00	3673	660	4.1	-11.7	315	4
2023-08-19T12:00	3695	658	4.0	-11.8	308	4
2023-08-19T12:00	3721	656	3.8	-12.0	302	5
2023-08-19T12:00	3743	654	3.7	-13.8	299	5
2023-08-19T12:00	3766	652	3.6	-14.3	300	5
2023-08-19T12:00	3795	650	3.4	-16.7	305	5
2023-08-19T12:00	3822	648	3.4	-20.3	310	6
2023-08-19T12:00	3843	646	3.3	-15.2	314	6
2023-08-19T12:00	3873	644	3.0	-14.3	315	6
2023-08-19T12:00	3896	642	2.9	-16.7	312	6
2023-08-19T12:00	3915	640	2.8	-16.6	307	7
2023-08-19T12:00	3937	638	2.7	-20.1	302	7
2023-08-19T12:00	3966	636	2.5	-20.0	298	7
2023-08-19T12:00	3995	634	2.3	-19.7	297	7
2023-08-19T12:00	4024	632	2.1	-14.9	299	8
2023-08-19T12:00	4051	629	2.0	-15.2	301	8
2023-08-19T12:00	4080	627	1.9	-16.0	303	7
2023-08-19T12:00	4097	626	1.8	-15.6	303	7
2023-08-19T12:00	4117	624	1.7	-15.7	302	7
2023-08-19T12:00	4137	623	1.6	-15.8	300	6
2023-08-19T12:00	4158	621	1.5	-16.1	298	6
2023-08-19T12:00	4179	620	1.4	-16.5	295	5
2023-08-19T12:00	4203	618	1.3	-19.4	291	5
2023-08-19T12:00	4232	616	1.2	-17.5	287	4
2023-08-19T12:00	4256	614	0.9	-16.9	285	4
2023-08-19T12:00	4277	612	0.8	-16.7	284	4
2023-08-19T12:00	4295	611	0.7	-18.6	285	4
2023-08-19T12:00	4319	609	0.5	-19.4	286	5
2023-08-19T12:00	4354	606	0.3	-18.8	286	5
2023-08-19T12:00	4386	604	0.0	-18.1	284	5
2023-08-19T12:00	4411	602	-0.2	-17.6	281	6
2023-08-19T12:00	4429	601	-0.4	-17.1	278	6
2023-08-19T12:00	4448	599	-0.5	-17.1	276	6
2023-08-19T12:00	4468	598	-0.7	-17.2	276	6
2023-08-19T12:00	4491	596	-0.9	-17.2	277	5
2023-08-19T12:00	4519	594	-1.1	-17.4	280	5
2023-08-19T12:00	4542	592	-1.3	-17.5	284	5
2023-08-19T12:00	4569	590	-1.5	-18.6	289	5
2023-08-19T12:00	4592	588	-1.5	-19.2	292	5
2023-08-19T12:00	4612	587	-1.7	-19.3	295	5
2023-08-19T12:00	4639	585	-1.9	-19.3	297	6
2023-08-19T12:00	4676	583	-2.2	-19.6	299	6
2023-08-19T12:00	4698	581	-2.3	-19.8	302	6
2023-08-19T12:00	4717	579	-2.5	-20.1	306	5
2023-08-19T12:00	4741	577	-2.6	-21.5	310	5
2023-08-19T12:00	4771	575	-2.7	-22.6	314	5
2023-08-19T12:00	4797	573	-2.9	-22.9	317	4
2023-08-19T12:00	4818	572	-3.1	-23.2	316	4
2023-08-19T12:00	4846	570	-3.2	-23.4	312	4
2023-08-19T12:00	4872	568	-3.3	-23.6	306	4
2023-08-19T12:00	4903	566	-3.5	-23.7	303	5
2023-08-19T12:00	4919	565	-3.6	-23.6	302	5
2023-08-19T12:00	4941	563	-3.8	-23.9	303	6
2023-08-19T12:00	4972	561	-4.1	-24.0	304	7
2023-08-19T12:00	5003	559	-4.2	-24.2	304	7
2023-08-19T12:00	5031	557	-4.4	-24.0	303	7
2023-08-19T12:00	5055	555	-4.6	-24.1	300	7
2023-08-19T12:00	5082	553	-4.8	-24.7	298	7
2023-08-19T12:00	5099	552	-4.9	-24.8	296	7
2023-08-19T12:00	5117	551	-4.9	-25.4	294	7
2023-08-19T12:00	5137	549	-4.9	-26.7	293	7
2023-08-19T12:00	5160	548	-4.8	-27.4	291	7
2023-08-19T12:00	5189	546	-4.9	-27.5	289	7
2023-08-19T12:00	5226	543	-4.8	-29.4	288	7
2023-08-19T12:00	5243	542	-4.9	-29.3	288	7
2023-08-19T12:00	5262	541	-5.0	-29.3	289	7
2023-08-19T12:00	5279	539	-5.1	-29.6	291	7
2023-08-19T12:00	5297	538	-5.1	-29.8	293	7
2023-08-19T12:00	5322	536	-5.2	-30.0	294	7
2023-08-19T12:00	5352	534	-5.3	-30.5	294	7
2023-08-19T12:00	5380	533	-5.5	-30.9	294	7
2023-08-19T12:00	5404	531	-5.7	-31.3	296	7
2023-08-19T12:00	5431	529	-5.9	-31.4	299	7
2023-08-19T12:00	5463	527	-6.2	-31.5	303	6
2023-08-19T12:00	5492	525	-6.4	-31.7	305	6
2023-08-19T12:00	5507	524	-6.5	-31.8	305	6
2023-08-19T12:00	5525	523	-6.5	-32.5	303	6
2023-08-19T12:00	5542	522	-6.6	-32.4	299	6
2023-08-19T12:00	5562	520	-6.7	-32.8	294	7
2023-08-19T12:00	5581	519	-6.8	-33.3	291	7
2023-08-19T12:00	5600	518	-6.8	-34.3	290	7
2023-08-19T12:00	5620	516	-6.7	-34.5	290	7
2023-08-19T12:00	5649	514	-6.8	-35.0	291	7
2023-08-19T12:00	5680	513	-6.9	-35.5	292	7
2023-08-19T12:00	5701	511	-7.1	-35.8	292	7
2023-08-19T12:00	5722	510	-7.1	-36.0	291	8
2023-08-19T12:00	5745	508	-7.3	-36.1	288	9
2023-08-19T12:00	5777	506	-7.5	-36.1	284	9
2023-08-19T12:00	5807	504	-7.8	-36.2	280	10
2023-08-19T12:00	5834	502	-7.9	-36.0	276	10
2023-08-19T12:00	5858	501	-7.9	-35.7	274	10
2023-08-19T12:00	5889	499	-8.1	-35.9	272	9
2023-08-19T12:00	5916	497	-8.3	-36.1	270	9
2023-08-19T12:00	5942	495	-8.5	-36.4	268	8
2023-08-19T12:00	5974	493	-8.8	-36.5	265	7
2023-08-19T12:00	6004	492	-8.9	-35.5	262	7
2023-08-19T12:00	6032	490	-9.1	-27.8	260	6
2023-08-19T12:00	6061	488	-9.3	-25.0	260	6
2023-08-19T12:00	6092	486	-9.6	-23.1	261	6
2023-08-19T12:00	6118	484	-9.8	-20.5	263	6
2023-08-19T12:00	6142	483	-10.0	-19.9	264	6
2023-08-19T12:00	6176	481	-10.3	-20.8	264	7
2023-08-19T12:00	6197	479	-10.5	-21.5	263	7
2023-08-19T12:00	6217	478	-10.6	-22.3	263	7
2023-08-19T12:00	6237	477	-10.8	-22.7	264	7
2023-08-19T12:00	6256	476	-10.9	-22.5	264	7
2023-08-19T12:00	6274	475	-11.1	-22.1	265	7
2023-08-19T12:00	6294	473	-11.3	-22.1	267	7
2023-08-19T12:00	6317	472	-11.5	-22.4	270	7
2023-08-19T12:00	6341	470	-11.7	-22.4	274	7
2023-08-19T12:00	6374	469	-12.0	-22.3	277	7
2023-08-19T12:00	6399	467	-12.2	-22.0	280	7
2023-08-19T12:00	6429	465	-12.4	-22.3	280	7
2023-08-19T12:00	6463	463	-12.7	-23.9	280	8
2023-08-19T12:00	6488	461	-12.9	-24.9	280	8
2023-08-19T12:00	6519	460	-13.1	-24.6	280	8
2023-08-19T12:00	6551	458	-13.4	-25.2	280	8
2023-08-19T12:00	6586	456	-13.7	-25.9	280	8
2023-08-19T12:00	6611	454	-14.0	-26.3	280	8
2023-08-19T12:00	6631	453	-14.1	-25.6	279	7
2023-08-19T12:00	6658	451	-14.3	-25.9	276	7
2023-08-19T12:00	6686	450	-14.4	-27.3	274	6
2023-08-19T12:00	6718	448	-14.7	-28.6	272	6
2023-08-19T12:00	6747	446	-14.9	-26.8	271	7
2023-08-19T12:00	6777	444	-15.2	-26.2	272	7
2023-08-19T12:00	6808	442	-15.5	-27.5	273	8
2023-08-19T12:00	6835	441	-15.7	-29.6	274	8
2023-08-19T12:00	6866	439	-16.0	-30.1	274	8
2023-08-19T12:00	6899	437	-16.3	-32.0	273	8
2023-08-19T12:00	6924	436	-16.5	-33.4	273	9
2023-08-19T12:00	6953	434	-16.7	-34.9	275	9
2023-08-19T12:00	6982	432	-16.9	-33.6	278	8
2023-08-19T12:00	7013	431	-17.2	-33.7	282	8
2023-08-19T12:00	7041	429	-17.4	-31.8	286	8
2023-08-19T12:00	7072	427	-17.7	-31.2	289	7
2023-08-19T12:00	7106	425	-18.0	-29.5	290	7
2023-08-19T12:00	7136	424	-18.2	-28.4	291	6
2023-08-19T12:00	7165	422	-18.5	-27.9	291	6
2023-08-19T12:00	7198	420	-18.8	-28.3	292	6
2023-08-19T12:00	7225	418	-19.1	-28.1	292	6
2023-08-19T12:00	7260	416	-19.4	-28.1	290	6
2023-08-19T12:00	7297	415	-19.7	-28.4	288	6
2023-08-19T12:00	7317	413	-19.8	-31.0	287	6
2023-08-19T12:00	7335	412	-19.9	-32.2	286	6
2023-08-19T12:00	7352	411	-20.1	-29.6	287	6
2023-08-19T12:00	7371	410	-20.2	-28.7	289	6
2023-08-19T12:00	7389	409	-20.3	-28.1	292	6
2023-08-19T12:00	7408	408	-20.5	-28.2	294	6
2023-08-19T12:00	7425	407	-20.6	-28.8	297	5
2023-08-19T12:00	7453	406	-20.8	-29.2	301	5
2023-08-19T12:00	7477	405	-20.8	-29.6	305	4
2023-08-19T12:00	7507	403	-21.1	-29.6	309	4
2023-08-19T12:00	7531	401	-21.4	-29.7	312	4
2023-08-19T12:00	7564	400	-21.6	-29.6	313	5
2023-08-19T12:00	7592	398	-21.8	-29.8	313	5
2023-08-19T12:00	7621	397	-22.0	-29.8	312	6
2023-08-19T12:00	7647	395	-22.1	-29.1	310	6
2023-08-19T12:00	7676	394	-22.3	-29.4	309	7
2023-08-19T12:00	7707	392	-22.5	-28.7	307	7
2023-08-19T12:00	7740	390	-22.8	-28.8	306	7
2023-08-19T12:00	7767	389	-23.0	-28.6	304	7
2023-08-19T12:00	7797	387	-23.2	-28.6	303	6
2023-08-19T12:00	7827	386	-23.5	-28.8	301	7
2023-08-19T12:00	7856	384	-23.7	-28.4	299	7
2023-08-19T12:00	7885	383	-23.9	-28.0	297	7
2023-08-19T12:00	7916	381	-24.2	-28.4	295	7
2023-08-19T12:00	7945	379	-24.4	-28.2	295	6
2023-08-19T12:00	7975	378	-24.6	-28.2	297	6
2023-08-19T12:00	8002	376	-24.9	-28.1	302	5
2023-08-19T12:00	8032	375	-25.2	-27.6	307	5
2023-08-19T12:00	8062	373	-25.4	-27.2	311	5
2023-08-19T12:00	8091	372	-25.6	-27.8	312	5
2023-08-19T12:00	8122	370	-25.6	-29.9	310	5
2023-08-19T12:00	8150	369	-25.6	-33.5	307	5
2023-08-19T12:00	8181	367	-25.7	-33.1	304	5
2023-08-19T12:00	8213	366	-26.0	-33.4	303	5
2023-08-19T12:00	8241	364	-26.2	-33.2	301	5
2023-08-19T12:00	8270	363	-26.5	-33.2	299	5
2023-08-19T12:00	8304	361	-26.7	-33.0	295	5
2023-08-19T12:00	8337	360	-27.0	-33.0	290	5
2023-08-19T12:00	8365	358	-27.3	-33.0	288	5
2023-08-19T12:00	8395	357	-27.6	-32.9	289	5
2023-08-19T12:00	8425	355	-27.9	-33.1	293	5
2023-08-19T12:00	8454	354	-28.1	-33.0	299	5
2023-08-19T12:00	8486	352	-28.5	-33.3	304	6
2023-08-19T12:00	8521	350	-28.7	-35.1	308	6
2023-08-19T12:00	8553	349	-28.8	-36.9	311	7
2023-08-19T12:00	8588	347	-29.0	-37.3	313	7
2023-08-19T12:00	8619	346	-29.3	-38.4	316	7
2023-08-19T12:00	8650	344	-29.6	-38.5	318	7
2023-08-19T12:00	8676	343	-29.8	-39.4	320	7
2023-08-19T12:00	8705	341	-29.9	-40.1	323	7
2023-08-19T12:00	8738	340	-30.1	-41.3	327	7
2023-08-19T12:00	8771	338	-30.2	-42.2	330	8
2023-08-19T12:00	8804	337	-30.4	-43.6	333	8
2023-08-19T12:00	8836	335	-30.6	-44.6	335	8
2023-08-19T12:00	8855	334	-30.7	-45.2	336	8
2023-08-19T12:00	8880	333	-30.8	-44.8	336	9
2023-08-19T12:00	8903	332	-30.9	-44.3	335	9
2023-08-19T12:00	8934	331	-31.0	-44.7	335	9
2023-08-19T12:00	8964	329	-31.2	-44.9	336	9
2023-08-19T12:00	9000	328	-31.6	-45.1	338	9
2023-08-19T12:00	9031	326	-31.8	-45.4	342	10
2023-08-19T12:00	9052	325	-32.0	-45.5	345	10
2023-08-19T12:00	9080	324	-32.2	-45.8	349	10
2023-08-19T12:00	9110	323	-32.5	-45.8	352	11
2023-08-19T12:00	9132	321	-32.7	-46.1	354	11
2023-08-19T12:00	9154	321	-32.9	-46.7	354	11
2023-08-19T12:00	9175	320	-33.1	-47.2	353	11
2023-08-19T12:00	9199	318	-33.3	-47.1	352	11
2023-08-19T12:00	9222	317	-33.5	-47.5	350	11
2023-08-19T12:00	9243	316	-33.7	-47.7	350	12
2023-08-19T12:00	9274	315	-34.0	-47.8	350	12
2023-08-19T12:00	9302	314	-34.2	-48.5	350	12
2023-08-19T12:00	9326	313	-34.4	-50.1	350	13
2023-08-19T12:00	9354	312	-34.4	-52.8	350	13
2023-08-19T12:00	9380	310	-34.6	-52.9	349	13
2023-08-19T12:00	9409	309	-34.8	-53.9	349	13
2023-08-19T12:00	9438	308	-35.0	-54.3	348	13
2023-08-19T12:00	9463	307	-35.1		348	14
2023-08-19T12:00	9489	306	-35.2	-55.3	348	14
2023-08-19T12:00	9517	304	-35.3	-55.8	349	14
2023-08-19T12:00	9548	303	-35.4	-56.1	350	14
2023-08-19T12:00	9580	302	-35.2	-56.0	351	14
2023-08-19T12:00	9608	300	-35.3	-55.4	352	14
2023-08-19T12:00	9638	299	-35.5	-55.0	353	14
2023-08-19T12:00	9664	298	-35.6	-54.7	353	14
2023-08-19T12:00	9682	297	-35.8	-54.9	352	15
2023-08-19T12:00	9708	296	-36.0	-54.6	352	16
2023-08-19T12:00	9733	295	-36.2	-54.0	352	17
2023-08-19T12:00	9754	294	-36.4	-54.5	352	18
2023-08-19T12:00	9774	293	-36.6	-54.4	354	19
2023-08-19T12:00	9803	292	-36.9	-54.2	354	20
2023-08-19T12:00	9827	291	-37.0	-54.0	354	19
2023-08-19T12:00	9855	290	-37.3	-54.0	352	19
2023-08-19T12:00	9879	289	-37.5	-53.7	349	19
2023-08-19T12:00	9899	288	-37.5	-53.0	347	19
2023-08-19T12:00	9919	287	-37.8	-53.6	347	20
2023-08-19T12:00	9942	286	-37.9	-53.0	347	20
2023-08-19T12:00	9966	285	-38.1	-52.7	348	20
2023-08-19T12:00	9993	284	-38.3	-52.7	349	21
2023-08-19T12:00	10020	283	-38.6	-53.0	349	21
2023-08-19T12:00	10051	282	-38.9	-52.6	349	21
2023-08-19T12:00	10085	280	-39.2	-52.3	349	21
2023-08-19T12:00	10117	279	-39.5	-51.7	349	21
2023-08-19T12:00	10150	278	-39.9	-52.0	349	21
2023-08-19T12:00	10183	276	-40.1	-52.5	350	21
2023-08-19T12:00	10217	275	-40.5	-52.6	351	20
2023-08-19T12:00	10247	274	-40.7	-52.8	352	20
2023-08-19T12:00	10277	273	-41.0	-53.3	353	20
2023-08-19T12:00	10304	271	-41.2	-52.1	353	20
2023-08-19T12:00	10334	270	-41.6	-51.5	353	20
2023-08-19T12:00	10365	269	-41.8	-52.2	353	20
2023-08-19T12:00	10393	268	-42.0	-53.4	353	20
2023-08-19T12:00	10422	267	-42.3	-53.9	354	20
2023-08-19T12:00	10448	266	-42.5	-53.8	354	20
2023-08-19T12:00	10469	265	-42.7	-54.1	355	20
2023-08-19T12:00	10494	264	-42.9	-54.3	356	20
2023-08-19T12:00	10513	263	-43.1	-54.2	356	20
2023-08-19T12:00	10537	262	-43.3	-54.0	356	20
2023-08-19T12:00	10555	262	-43.5	-54.1	356	20
2023-08-19T12:00	10575	261	-43.7	-54.1	356	20
2023-08-19T12:00	10598	260	-43.9	-54.1	356	20
2023-08-19T12:00	10618	259	-44.1	-54.3	356	20
2023-08-19T12:00	10636	258	-44.3	-54.2	356	20
2023-08-19T12:00	10658	258	-44.5	-53.6	356	20
2023-08-19T12:00	10678	257	-44.6	-53.2	356	20
2023-08-19T12:00	10696	256	-44.8	-53.6	355	21
2023-08-19T12:00	10717	255	-44.9	-54.2	355	21
2023-08-19T12:00	10736	255	-45.1	-55.1	355	21
2023-08-19T12:00	10756	254	-45.2	-56.0	355	21
2023-08-19T12:00	10775	253	-45.3	-56.8	354	21
2023-08-19T12:00	10797	252	-45.5	-57.4	354	21
2023-08-19T12:00	10817	252	-45.6	-57.5	353	21
2023-08-19T12:00	10838	251	-45.8	-57.2	353	21
2023-08-19T12:00	10859	250	-46.0	-56.7	353	21
2023-08-19T12:00	10877	249	-46.2		353	21
2023-08-19T12:00	10897	249	-46.4	-56.7	353	21
2023-08-19T12:00	10919	248	-46.6	-56.7	353	22
2023-08-19T12:00	10938	247	-46.8	-56.7	352	22
2023-08-19T12:00	10959	246	-47.0	-56.7	352	22
2023-08-19T12:00	10979	245	-47.2	-56.6	352	22
2023-08-19T12:00	11002	245	-47.4	-56.7	352	22
2023-08-19T12:00	11023	244	-47.6	-56.7	351	22
2023-08-19T12:00	11042	243	-47.7	-56.8	351	22
2023-08-19T12:00	11062	242	-47.8	-56.8	351	22
2023-08-19T12:00	11080	242	-48.0	-56.5	351	22
2023-08-19T12:00	11100	241	-48.1	-56.3	351	23
2023-08-19T12:00	11120	240	-48.3	-56.3	351	23
2023-08-19T12:00	11141	240	-48.5	-56.2	351	23
2023-08-19T12:00	11159	239	-48.7	-56.0	350	23
2023-08-19T12:00	11179	238	-48.9	-55.9	350	23
2023-08-19T12:00	11200	237	-49.0	-56.1	349	22
2023-08-19T12:00	11216	237	-49.2	-56.2	349	22
2023-08-19T12:00	11237	236	-49.4	-56.0	349	22
2023-08-19T12:00	11256	235	-49.6	-56.0	350	22
2023-08-19T12:00	11274	235	-49.8	-56.2	350	22
2023-08-19T12:00	11293	234	-49.9	-56.5	350	22
2023-08-19T12:00	11313	233	-50.1	-56.7	351	22
2023-08-19T12:00	11333	233	-50.3	-56.9	351	22
2023-08-19T12:00	11352	232	-50.5	-56.9	352	22
2023-08-19T12:00	11375	231	-50.7	-57.0	353	22
2023-08-19T12:00	11397	230	-50.9	-57.0	353	22
2023-08-19T12:00	11421	230	-51.1	-56.9	353	22
2023-08-19T12:00	11441	229	-51.4	-56.9	353	21
2023-08-19T12:00	11463	228	-51.5	-56.8	352	21
2023-08-19T12:00	11482	227	-51.6	-57.3	352	21
2023-08-19T12:00	11502	227	-51.7	-58.4	352	21
2023-08-19T12:00	11524	226	-51.9	-59.9	351	21
2023-08-19T12:00	11543	225	-51.9	-61.2	350	21
2023-08-19T12:00	11562	225	-52.0	-61.7	350	21
2023-08-19T12:00	11583	224	-52.2	-61.3	350	22
2023-08-19T12:00	11604	223	-52.3		350	22
2023-08-19T12:00	11629	222	-52.4	-60.1	351	23
2023-08-19T12:00	11653	221	-52.5	-58.8	351	23
2023-08-19T12:00	11671	221	-52.5	-57.6	352	23
2023-08-19T12:00	11693	220	-52.6	-56.9	353	24
2023-08-19T12:00	11715	219	-52.7	-56.7	354	24
2023-08-19T12:00	11737	219	-52.9	-56.8	354	25
2023-08-19T12:00	11759	218	-53.0	-57.0	355	25
2023-08-19T12:00	11783	217	-53.1	-57.2	355	25
2023-08-19T12:00	11803	216	-53.4	-57.4	355	26
2023-08-19T12:00	11825	216	-53.6	-57.5	355	26
2023-08-19T12:00	11846	215	-53.7	-57.7	355	26
2023-08-19T12:00	11866	214	-53.8	-57.9	356	26
2023-08-19T12:00	11887	214	-53.9	-58.0	356	26
2023-08-19T12:00	11907	213	-54.1	-58.4	356	27
2023-08-19T12:00	11929	212	-54.2	-58.7	356	27
2023-08-19T12:00	11951	211	-54.4	-59.1	356	27
2023-08-19T12:00	11971	211	-54.5	-59.2	356	27
2023-08-19T12:00	11991	210	-54.6	-59.3	357	27
2023-08-19T12:00	12010	209	-54.8	-59.5	357	26
2023-08-19T12:00	12035	209	-55.0	-59.6	358	26
2023-08-19T12:00	12054	208	-55.1	-59.7	359	26
2023-08-19T12:00	12075	207	-55.2	-60.4	0	25
2023-08-19T12:00	12100	207	-55.3	-61.5	1	25
2023-08-19T12:00	12121	206	-55.4	-62.6	2	24
2023-08-19T12:00	12143	205	-55.6	-63.6	2	24
2023-08-19T12:00	12163	204	-55.7	-64.5	2	23
2023-08-19T12:00	12183	204	-55.9	-65.4	2	23
2023-08-19T12:00	12205	203	-56.0	-66.3	2	23
2023-08-19T12:00	12227	202	-56.1	-67.3	1	23
2023-08-19T12:00	12248	202	-56.2	-67.6	1	22
2023-08-19T12:00	12267	201	-56.3	-67.1	0	22
2023-08-19T12:00	12291	200	-56.5	-66.6	359	22
2023-08-19T12:00	12312	200	-56.7	-66.4	358	21
2023-08-19T12:00	12333	199	-56.8	-66.3	357	21
2023-08-19T12:00	12350	199	-56.9	-66.3	356	20
2023-08-19T12:00	12372	198	-57.0	-66.2	355	20
2023-08-19T12:00	12391	197	-57.1	-66.1	354	19
2023-08-19T12:00	12414	197	-57.2	-66.0	353	19
2023-08-19T12:00	12435	196	-56.9	-66.0	351	19
2023-08-19T12:00	12456	195	-56.8	-66.5	350	19
2023-08-19T12:00	12475	195	-56.8	-67.2	348	18
2023-08-19T12:00	12495	194	-56.8	-67.8	347	18
2023-08-19T12:00	12517	193	-56.9	-68.0	345	18
2023-08-19T12:00	12537	193	-57.0	-68.2	344	18
2023-08-19T12:00	12555	192	-57.1	-68.4	343	18
2023-08-19T12:00	12578	192	-57.1	-68.8	342	18
2023-08-19T12:00	12599	191	-56.8	-69.1	342	18
2023-08-19T12:00	12620	190	-56.7	-69.8	342	18
2023-08-19T12:00	12641	190	-56.4	-70.5	342	18
2023-08-19T12:00	12661	189	-56.3	-71.5	342	17
2023-08-19T12:00	12680	188	-56.0	-72.5	341	17
2023-08-19T12:00	12703	188	-55.6	-73.4	340	16
2023-08-19T12:00	12725	187	-55.5	-74.6	339	16
2023-08-19T12:00	12744	187	-55.6	-76.0	338	16
2023-08-19T12:00	12765	186	-55.6	-77.1	336	15
2023-08-19T12:00	12785	185	-55.6	-78.2	335	15
2023-08-19T12:00	12806	185	-55.4	-78.5	334	15
2023-08-19T12:00	12828	184	-55.2	-78.2	333	15
2023-08-19T12:00	12848	184	-55.2	-77.9	333	14
2023-08-19T12:00	12867	183	-55.0	-77.7	333	14
2023-08-19T12:00	12890	182	-54.9	-77.8	333	14
2023-08-19T12:00	12912	182	-54.9	-78.1	334	14
2023-08-19T12:00	12934	181	-54.9	-78.7	334	14
2023-08-19T12:00	12954	181	-54.7	-79.1	334	14
2023-08-19T12:00	12978	180	-54.7	-79.6	334	14
2023-08-19T12:00	13000	179	-54.7	-79.8	334	14
2023-08-19T12:00	13021	179	-54.8	-79.9	333	14
2023-08-19T12:00	13046	178	-55.0	-80.0	333	14
2023-08-19T12:00	13066	177	-55.1	-80.1	332	14
2023-08-19T12:00	13088	177	-55.0	-80.0	332	13
2023-08-19T12:00	13109	176	-55.1	-80.1	331	13
2023-08-19T12:00	13128	176	-55.1	-80.1	331	13
2023-08-19T12:00	13148	175	-55.1		332	12
2023-08-19T12:00	13171	175	-55.1	-79.7	333	12
2023-08-19T12:00	13190	174	-55.2	-79.5	334	12
2023-08-19T12:00	13215	173	-55.3	-79.2	334	12
2023-08-19T12:00	13234	173	-55.3	-78.8	334	11
2023-08-19T12:00	13256	172	-55.4	-78.7	333	11
2023-08-19T12:00	13277	172	-55.4	-78.4	331	11
2023-08-19T12:00	13299	171	-55.3	-78.1	329	10
2023-08-19T12:00	13320	171	-55.1	-77.8	327	11
2023-08-19T12:00	13339	170	-55.2	-77.9	325	11
2023-08-19T12:00	13361	169	-55.2	-77.9	323	11
2023-08-19T12:00	13381	169	-55.2	-77.9	321	11
2023-08-19T12:00	13401	168	-55.3	-78.1	320	12
2023-08-19T12:00	13422	168	-55.3	-78.1	319	12
2023-08-19T12:00	13445	167	-55.4	-78.0	320	12
2023-08-19T12:00	13464	167	-55.4	-77.9	321	12
2023-08-19T12:00	13489	166	-55.3	-77.6	322	12
2023-08-19T12:00	13509	165	-55.2	-77.4	325	11
2023-08-19T12:00	13531	165	-55.3	-77.3	327	11
2023-08-19T12:00	13551	164	-55.4	-77.3	330	10
2023-08-19T12:00	13573	164	-55.5	-77.3	332	10
2023-08-19T12:00	13597	163	-55.6	-77.4	336	9
2023-08-19T12:00	13621	163	-55.6	-77.4	339	8
2023-08-19T12:00	13645	162	-55.6	-77.6	341	7
2023-08-19T12:00	13669	161	-55.7	-77.8	342	7
2023-08-19T12:00	13692	161	-55.8	-77.9	341	6
2023-08-19T12:00	13715	160	-56.0	-78.2	338	6
2023-08-19T12:00	13736	160	-56.1	-78.4	334	6
2023-08-19T12:00	13758	159	-56.1	-78.8	328	5
2023-08-19T12:00	13780	159	-56.2	-79.4	323	5
2023-08-19T12:00	13802	158	-56.2	-79.9	318	5
2023-08-19T12:00	13822	158	-56.2	-80.5	315	6
2023-08-19T12:00	13845	157	-56.1	-80.9	313	6
2023-08-19T12:00	13865	156	-56.1	-81.4	313	7
2023-08-19T12:00	13887	156	-56.1	-81.6	314	7
2023-08-19T12:00	13909	155	-56.0	-81.6	315	8
2023-08-19T12:00	13928	155	-56.0	-81.8	316	8
2023-08-19T12:00	13949	154	-55.7	-81.6	318	8
2023-08-19T12:00	13971	154	-55.7	-81.9	319	8
2023-08-19T12:00	13991	153	-55.7	-81.9	321	8
2023-08-19T12:00	14012	153	-55.7	-81.9	321	8
2023-08-19T12:00	14031	152	-55.6	-81.8	321	8
2023-08-19T12:00	14050	152	-55.4	-81.6	321	7
2023-08-19T12:00	14072	151	-55.3	-81.6	321	7
2023-08-19T12:00	14092	151	-55.5	-81.7	321	7
2023-08-19T12:00	14114	151	-55.7	-82.2	322	6
2023-08-19T12:00	14136	150	-55.6	-82.1	323	6
2023-08-19T12:00	14156	150	-55.3	-82.2	324	5
2023-08-19T12:00	14176	149	-55.1	-82.0	323	5
2023-08-19T12:00	14195	149	-55.0	-81.9	320	4
2023-08-19T12:00	14215	148	-54.9	-81.9	315	4
2023-08-19T12:00	14235	148	-55.1	-82.0	310	4
2023-08-19T12:00	14257	147	-55.3	-81.9	304	4
2023-08-19T12:00	14278	147	-55.4	-81.9	299	4
2023-08-19T12:00	14299	146	-55.6	-81.8	296	5
2023-08-19T12:00	14318	146	-55.7	-81.9	293	5
2023-08-19T12:00	14338	145	-55.7	-82.2	290	5
2023-08-19T12:00	14360	145	-55.5	-82.0	288	6
2023-08-19T12:00	14380	144	-55.2	-82.1	286	6
2023-08-19T12:00	14401	144	-55.1	-82.0	285	6
2023-08-19T12:00	14419	143	-55.1	-82.0	285	6
2023-08-19T12:00	14441	143	-55.2	-82.1	284	6
2023-08-19T12:00	14463	143	-55.3	-82.2	283	6
2023-08-19T12:00	14480	142	-55.2	-82.1	281	6
2023-08-19T12:00	14500	142	-55.1	-82.0	280	6
2023-08-19T12:00	14518	141	-55.1	-82.0	278	6
2023-08-19T12:00	14539	141	-55.2	-82.1	277	6
2023-08-19T12:00	14557	140	-55.4	-82.2	277	6
2023-08-19T12:00	14576	140	-55.5	-82.3	277	6
2023-08-19T12:00	14596	140	-55.6	-82.4	277	6
2023-08-19T12:00	14618	139	-55.6	-82.4	277	6
2023-08-19T12:00	14635	139	-55.6	-82.4	277	7
2023-08-19T12:00	14656	138	-55.4	-82.2	277	7
2023-08-19T12:00	14679	138	-55.2	-82.1	277	7
2023-08-19T12:00	14698	137	-55.0	-81.9	278	8
2023-08-19T12:00	14717	137	-54.9	-81.9	279	8
2023-08-19T12:00	14738	136	-54.9	-81.5	280	8
2023-08-19T12:00	14761	136	-55.0	-81.6	282	8
2023-08-19T12:00	14779	136	-55.1	-81.7	284	8
2023-08-19T12:00	14799	135	-55.0	-81.6	286	8
2023-08-19T12:00	14820	135	-54.9	-81.5	287	7
2023-08-19T12:00	14840	134	-54.8	-81.5	287	7
2023-08-19T12:00	14860	134	-54.9	-81.9	287	7
2023-08-19T12:00	14879	133	-54.8	-81.8	286	6
2023-08-19T12:00	14901	133	-54.7	-81.7	284	6
2023-08-19T12:00	14922	133	-54.5	-81.5	282	6
2023-08-19T12:00	14944	132	-54.5	-81.5	280	7
2023-08-19T12:00	14965	132	-54.6	-81.9	278	7
2023-08-19T12:00	14988	131	-54.6	-81.9	277	7
2023-08-19T12:00	15011	131	-54.7	-81.7	276	7
2023-08-19T12:00	15028	130	-54.7	-81.7	276	7
2023-08-19T12:00	15052	130	-54.7	-82.0	275	7
2023-08-19T12:00	15072	130	-54.6	-81.9	275	8
2023-08-19T12:00	15097	129	-54.5	-81.9	275	8
2023-08-19T12:00	15117	129	-54.5	-81.9	274	9
2023-08-19T12:00	15139	128	-54.6	-82.3	274	9
2023-08-19T12:00	15159	128	-54.6	-82.3	275	9
2023-08-19T12:00	15181	127	-54.6	-82.3	275	9
2023-08-19T12:00	15205	127	-54.7	-82.4	275	9
2023-08-19T12:00	15227	126	-54.7	-82.4	275	9
2023-08-19T12:00	15253	126	-54.7	-82.4	273	9
2023-08-19T12:00	15275	125	-54.7	-82.4	272	8
2023-08-19T12:00	15295	125	-54.6	-82.3	270	8
2023-08-19T12:00	15317	125	-54.5	-82.2	269	8
2023-08-19T12:00	15339	124	-54.6	-82.3	268	7
2023-08-19T12:00	15363	124	-54.7	-82.4	268	7
2023-08-19T12:00	15383	123	-54.8	-82.4	269	7
2023-08-19T12:00	15402	123	-54.9	-82.5	271	6
2023-08-19T12:00	15426	123	-55.0	-82.6	273	6
2023-08-19T12:00	15449	122	-55.1	-82.7	275	6
2023-08-19T12:00	15469	122	-55.2	-82.4	278	6
2023-08-19T12:00	15492	121	-55.4	-82.6	280	6
2023-08-19T12:00	15516	121	-55.5	-82.6	282	6
2023-08-19T12:00	15538	120	-55.5	-82.6	282	6
2023-08-19T12:00	15560	120	-55.5	-83.0	280	6
2023-08-19T12:00	15584	120	-55.5	-83.0	276	6
2023-08-19T12:00	15604	119	-55.4	-82.9	272	6
2023-08-19T12:00	15626	119	-55.6	-83.1	268	6
2023-08-19T12:00	15649	118	-55.8	-83.2	265	7
2023-08-19T12:00	15671	118	-56.0	-83.4	265	7
2023-08-19T12:00	15693	118	-56.1	-83.4	266	7
2023-08-19T12:00	15715	117	-56.2	-83.5	269	6
2023-08-19T12:00	15734	117	-56.2	-83.5	271	6
2023-08-19T12:00	15758	116	-56.1	-83.8	272	5
2023-08-19T12:00	15779	116	-55.8	-83.9	270	4
2023-08-19T12:00	15799	116	-55.3	-84.0	265	3
2023-08-19T12:00	15821	115	-54.9	-84.1	256	3
2023-08-19T12:00	15842	115	-54.7	-83.9	246	2
2023-08-19T12:00	15863	114	-54.6	-83.9	236	2
2023-08-19T12:00	15882	114	-54.6	-83.9	227	2
2023-08-19T12:00	15903	114	-54.7	-83.9	217	2
2023-08-19T12:00	15924	113	-54.6	-83.4	207	2
2023-08-19T12:00	15945	113	-54.6	-83.4	195	2
2023-08-19T12:00	15968	113	-54.8	-83.6	185	2
2023-08-19T12:00	15990	112	-54.9	-83.7	180	2
2023-08-19T12:00	16013	112	-55.0	-83.7	178	3
2023-08-19T12:00	16036	111	-55.0	-83.7	179	3
2023-08-19T12:00	16057	111	-55.1	-83.8	181	3
2023-08-19T12:00	16078	111	-55.3	-84.0	185	3
2023-08-19T12:00	16102	110	-55.4	-84.0	191	3
2023-08-19T12:00	16125	110	-55.4	-83.6	197	3
2023-08-19T12:00	16147	109	-55.4	-83.6	205	3
2023-08-19T12:00	16168	109	-55.4	-83.6	213	3
2023-08-19T12:00	16191	109	-55.4	-83.6	218	3
2023-08-19T12:00	16210	108	-55.5	-83.7	221	3
2023-08-19T12:00	16232	108	-55.7	-83.9	220	3
2023-08-19T12:00	16255	108	-55.8	-83.9	217	3
2023-08-19T12:00	16275	107	-55.9	-83.6	212	3
2023-08-19T12:00	16299	107	-56.0	-83.7	207	3
2023-08-19T12:00	16320	107	-56.1	-83.8	203	4
2023-08-19T12:00	16344	106	-56.1	-83.4	200	4
2023-08-19T12:00	16366	106	-56.2	-83.5	198	4
2023-08-19T12:00	16390	105	-56.3	-83.6	198	4
2023-08-19T12:00	16412	105	-56.3	-83.6	198	4
2023-08-19T12:00	16436	105	-56.4	-83.7	198	4
2023-08-19T12:00	16458	104	-56.5	-83.7	200	4
2023-08-19T12:00	16479	104	-56.6	-83.8	203	5
2023-08-19T12:00	16505	104	-56.7	-83.9	206	5
2023-08-19T12:00	16525	103	-56.5	-83.7	209	5
2023-08-19T12:00	16545	103	-56.4	-83.7	212	5
2023-08-19T12:00	16568	102	-56.4	-83.7	214	5
2023-08-19T12:00	16588	102	-56.5	-83.7	215	5
2023-08-19T12:00	16609	102	-56.6	-83.8	215	6
2023-08-19T12:00	16630	101	-56.6	-83.8	215	6
2023-08-19T12:00	16652	101	-56.7	-84.2	215	6
2023-08-19T12:00	16675	101	-56.6	-84.2	215	6
2023-08-19T12:00	16697	100	-56.6	-84.2	215	6
2023-08-19T12:00	16719	100	-56.7	-84.2	215	6
2023-08-19T12:00	16740	100	-56.8	-84.0	215	6
2023-08-19T12:00	16760	99	-57.0	-84.1	215	6
2023-08-19T12:00	16782	99	-57.2	-84.3	216	6
2023-08-19T12:00	16805	99	-57.2	-84.3	217	6
2023-08-19T12:00	16830	98	-57.3	-84.4	218	6
2023-08-19T12:00	16853	98	-57.3	-84.4	219	5
2023-08-19T12:00	16873	98	-57.5	-84.5	220	5
2023-08-19T12:00	16896	97	-57.7	-84.7	220	4
2023-08-19T12:00	16919	97	-57.7	-84.7	220	4
2023-08-19T12:00	16939	97	-57.6	-84.9	220	4
2023-08-19T12:00	16961	96	-57.3	-84.7	220	4
2023-08-19T12:00	16981	96	-57.1	-84.9	220	4
2023-08-19T12:00	17002	96	-57.0	-84.8	220	5
2023-08-19T12:00	17025	95	-56.9	-84.8	220	5
2023-08-19T12:00	17044	95	-56.7	-84.6	221	5
2023-08-19T12:00	17067	95	-56.8	-85.1	224	5
2023-08-19T12:00	17087	94	-56.8	-85.1	228	5
2023-08-19T12:00	17105	94	-56.7	-85.0	232	5
2023-08-19T12:00	17129	94	-56.8	-85.1	236	5
2023-08-19T12:00	17151	93	-56.9	-84.8	239	4
2023-08-19T12:00	17174	93	-56.9	-84.8	239	4
2023-08-19T12:00	17194	93	-57.0	-84.8	238	4
2023-08-19T12:00	17216	92	-57.0	-84.8	236	4
2023-08-19T12:00	17239	92	-56.9	-84.8	233	4
2023-08-19T12:00	17260	92	-56.8	-84.7	230	4
2023-08-19T12:00	17283	92	-56.9	-84.8	227	4
2023-08-19T12:00	17307	91	-57.0	-84.8	222	5
2023-08-19T12:00	17329	91	-57.3	-85.1	217	5
2023-08-19T12:00	17352	90	-57.4	-85.2	210	5
2023-08-19T12:00	17376	90	-57.5	-85.2	203	6
2023-08-19T12:00	17398	90	-57.6	-85.3	198	6
2023-08-19T12:00	17420	90	-57.4	-85.2	195	6
2023-08-19T12:00	17445	89	-56.9	-85.2	193	7
2023-08-19T12:00	17464	89	-56.7	-85.0	193	7
2023-08-19T12:00	17488	89	-56.7	-85.0	194	7
2023-08-19T12:00	17508	88	-56.7	-85.0	195	7
2023-08-19T12:00	17532	88	-56.8	-85.1	197	7
2023-08-19T12:00	17553	88	-57.0	-85.2	199	7
2023-08-19T12:00	17576	87	-57.2	-85.0	203	7
2023-08-19T12:00	17600	87	-57.4	-85.2	207	7
2023-08-19T12:00	17624	87	-57.7	-85.4	211	7
2023-08-19T12:00	17646	86	-57.8	-85.5	215	7
2023-08-19T12:00	17667	86	-57.8	-85.5	219	7
2023-08-19T12:00	17689	86	-57.8	-85.5	222	7
2023-08-19T12:00	17713	85	-57.7	-85.4	225	6
2023-08-19T12:00	17737	85	-57.7	-85.4	228	6
2023-08-19T12:00	17759	85	-57.9	-85.5	232	6
2023-08-19T12:00	17786	85	-58.0	-85.2	236	6
2023-08-19T12:00	17804	84	-58.1	-85.3	239	6
2023-08-19T12:00	17828	84	-58.3	-85.5	241	6
2023-08-19T12:00	17851	84	-58.5	-85.6	244	6
2023-08-19T12:00	17875	83	-58.5	-85.6	245	6
2023-08-19T12:00	17896	83	-58.5	-85.6	247	6
2023-08-19T12:00	17919	83	-58.5	-85.6	248	5
2023-08-19T12:00	17942	82	-58.7	-85.8	247	5
2023-08-19T12:00	17964	82	-58.7	-86.1	245	4
2023-08-19T12:00	17986	82	-58.3	-85.8	241	4
2023-08-19T12:00	18010	82	-58.1	-85.7	235	3
2023-08-19T12:00	18029	81	-58.1	-85.7	225	3
2023-08-19T12:00	18053	81	-58.2	-86.2	208	2
2023-08-19T12:00	18077	81	-58.3	-86.2	186	2
2023-08-19T12:00	18097	80	-58.0	-86.0	171	3
2023-08-19T12:00	18121	80	-57.8	-85.9	163	4
2023-08-19T12:00	18144	80	-57.6	-86.1	161	4
2023-08-19T12:00	18169	80	-57.5	-86.1	161	5
2023-08-19T12:00	18193	79	-57.3	-85.9	163	6
2023-08-19T12:00	18215	79	-57.2	-85.8	165	6
2023-08-19T12:00	18238	79	-57.3	-85.9	169	7
2023-08-19T12:00	18264	78	-57.4	-86.0	173	7
2023-08-19T12:00	18288	78	-57.4	-85.6	178	7
2023-08-19T12:00	18314	78	-57.4	-85.6	183	8
2023-08-19T12:00	18334	77	-57.5	-85.6	187	8
2023-08-19T12:00	18358	77	-57.6	-85.7	191	8
2023-08-19T12:00	18382	77	-57.6	-85.7	195	8
2023-08-19T12:00	18401	77	-57.6	-85.7	198	7
2023-08-19T12:00	18426	76	-57.6	-85.7	201	7
2023-08-19T12:00	18449	76	-57.6	-85.7	204	6
2023-08-19T12:00	18469	76	-57.5	-86.1	209	5
2023-08-19T12:00	18494	76	-57.5	-86.1	214	4
2023-08-19T12:00	18518	75	-57.3	-85.9	221	3
2023-08-19T12:00	18541	75	-57.2	-85.8	229	3
2023-08-19T12:00	18564	75	-57.1	-85.7	236	3
2023-08-19T12:00	18587	74	-57.2	-85.8	240	3
2023-08-19T12:00	18609	74	-57.2	-85.8	243	3
2023-08-19T12:00	18630	74	-57.3	-85.9	245	3
2023-08-19T12:00	18653	74	-57.4	-85.6	247	3
2023-08-19T12:00	18677	73	-57.6	-85.7	251	3
2023-08-19T12:00	18702	73	-57.7	-85.8	257	3
2023-08-19T12:00	18721	73	-57.7	-85.8	264	3
2023-08-19T12:00	18746	73	-57.8	-85.9	272	3
2023-08-19T12:00	18770	72	-57.7	-85.8	279	4
2023-08-19T12:00	18790	72	-57.7	-85.8	285	4
2023-08-19T12:00	18817	72	-57.7	-85.8	291	3
2023-08-19T12:00	18841	71	-57.7	-85.8	298	3
2023-08-19T12:00	18865	71	-57.7	-85.8	307	2
2023-08-19T12:00	18890	71	-57.7	-85.8	320	2
2023-08-19T12:00	18916	71	-57.8	-85.9	340	1
2023-08-19T12:00	18939	70	-58.0	-86.0	10	1
2023-08-19T12:00	18965	70	-58.1		50	1
2023-08-19T12:00	18986	70	-58.3	-86.2	83	1
2023-08-19T12:00	19011	70	-58.4	-86.3	101	1
2023-08-19T12:00	19036	69	-58.5	-86.0	112	2
2023-08-19T12:00	19054	69	-58.6	-86.5	119	2
2023-08-19T12:00	19080	69	-58.7	-86.5	125	2
2023-08-19T12:00	19104	69	-58.5	-86.4	131	2
2023-08-19T12:00	19130	68	-58.5	-86.4	133	2
2023-08-19T12:00	19153	68	-58.4	-86.3	134	2
2023-08-19T12:00	19175	68	-58.2	-86.6	133	3
2023-08-19T12:00	19204	68	-58.1	-86.5	133	3
2023-08-19T12:00	19226	67	-58.2	-86.6	135	4
2023-08-19T12:00	19249	67	-58.3	-86.2	137	5
2023-08-19T12:00	19274	67	-58.5	-86.4	140	5
2023-08-19T12:00	19294	67	-58.4	-86.3	144	6
2023-08-19T12:00	19323	66	-58.4	-86.7	147	6
2023-08-19T12:00	19346	66	-58.4	-86.7	150	7
2023-08-19T12:00	19368	66	-58.4	-86.7	153	7
2023-08-19T12:00	19394	65	-58.3	-86.7	157	7
2023-08-19T12:00	19415	65	-58.1	-86.5	161	7
2023-08-19T12:00	19441	65	-57.9	-86.4	166	6
2023-08-19T12:00	19465	65	-57.9	-86.4	171	6
2023-08-19T12:00	19483	65	-57.9	-86.4	176	6
2023-08-19T12:00	19508	64	-57.7	-86.2	181	6
2023-08-19T12:00	19531	64	-57.8	-86.3	183	5
2023-08-19T12:00	19553	64	-57.8	-86.3	183	5
2023-08-19T12:00	19573	64	-57.7	-86.7	181	5
2023-08-19T12:00	19596	63	-57.6	-86.6	178	5
2023-08-19T12:00	19620	63	-57.4	-86.4	176	5
2023-08-19T12:00	19642	63	-57.3	-86.4	174	5
2023-08-19T12:00	19667	63	-57.3	-86.4	175	5
2023-08-19T12:00	19689	62	-57.2	-86.3	175	4
2023-08-19T12:00	19712	62	-57.2	-86.3	176	4
2023-08-19T12:00	19735	62	-57.3	-86.4	175	3
2023-08-19T12:00	19754	62	-57.1	-86.2	173	3
2023-08-19T12:00	19779	62	-56.7	-86.4	168	2
2023-08-19T12:00	19804	61	-56.5	-86.3	163	2
2023-08-19T12:00	19828	61	-56.5	-86.3	156	2
2023-08-19T12:00	19850	61	-56.4	-86.2	146	1
2023-08-19T12:00	19867	61	-56.3	-86.1	128	1
2023-08-19T12:00	19890	61	-56.2	-86.0	105	1
2023-08-19T12:00	19914	60	-56.1	-86.0	88	2
2023-08-19T12:00	19936	60	-55.9	-85.8	79	2
2023-08-19T12:00	19957	60	-55.9	-85.8	77	2
2023-08-19T12:00	19981	60	-55.9	-85.8	80	2
2023-08-19T12:00	20008	59	-55.8	-85.7	88	2
2023-08-19T12:00	20031	59	-55.8	-85.7	101	2
2023-08-19T12:00	20051	59	-55.9	-85.8	116	3
2023-08-19T12:00	20077	59	-55.9	-85.8	128	3
2023-08-19T12:00	20104	59	-56.0	-85.9	135	3
2023-08-19T12:00	20122	58	-56.0		139	3
2023-08-19T12:00	20146	58	-56.0		141	3
2023-08-19T12:00	20168	58	-56.1	-85.5	142	3
2023-08-19T12:00	20195	58	-56.2	-85.5	141	3
2023-08-19T12:00	20218	58	-56.3	-85.6	138	3
2023-08-19T12:00	20243	57	-56.4	-85.7	133	3
2023-08-19T12:00	20266	57	-56.4	-85.7	127	2
2023-08-19T12:00	20294	57	-56.4	-85.7	120	3
2023-08-19T12:00	20313	57	-56.5	-85.8	115	3
2023-08-19T12:00	20336	56	-56.6	-85.8	110	3
2023-08-19T12:00	20362	56	-56.5	-85.8	107	3
2023-08-19T12:00	20387	56	-56.5	-85.8	105	3
2023-08-19T12:00	20415	56	-56.6	-85.8	105	3
2023-08-19T12:00	20435	56	-56.6	-85.8	108	3
2023-08-19T12:00	20462	55	-56.4	-85.7	112	4
2023-08-19T12:00	20485	55	-56.4	-85.7	117	4
2023-08-19T12:00	20514	55	-56.4	-85.7	121	5
2023-08-19T12:00	20538	55	-56.4	-85.7	125	5
2023-08-19T12:00	20563	54	-56.3	-85.6	127	5
2023-08-19T12:00	20584	54	-56.3	-85.6	127	5
2023-08-19T12:00	20612	54	-56.3	-85.6	126	5
2023-08-19T12:00	20640	54	-56.4	-85.7	124	4
2023-08-19T12:00	20660	54	-56.4	-85.7	120	4
2023-08-19T12:00	20691	53	-56.5	-85.8	116	3
2023-08-19T12:00	20713	53	-56.6	-85.8	111	3
2023-08-19T12:00	20740	53	-56.6	-85.8	107	3
2023-08-19T12:00	20764	53	-56.6	-85.8	104	3
2023-08-19T12:00	20789	53	-56.6	-85.8	105	3
2023-08-19T12:00	20812	52	-56.6	-85.8	108	3
2023-08-19T12:00	20841	52	-56.6	-85.8	112	4
2023-08-19T12:00	20866	52	-56.6	-85.8	117	5
2023-08-19T12:00	20896	52	-56.8	-86.0	122	5
2023-08-19T12:00	20922	51	-56.9	-86.1	128	5
2023-08-19T12:00	20947	51	-56.6	-85.8	134	5
2023-08-19T12:00	20973	51	-56.5	-85.8	140	5
2023-08-19T12:00	20998	51	-56.5	-85.8	146	4
2023-08-19T12:00	21025	51	-56.4	-85.7	151	4
2023-08-19T12:00	21050	50	-56.4	-85.7	153	3
2023-08-19T12:00	21077	50	-56.3	-86.1	151	2
2023-08-19T12:00	21101	50	-56.3	-85.6	140	2
2023-08-19T12:00	21129	50	-56.3	-85.6	118	2
2023-08-19T12:00	21156	50	-56.3	-85.6	96	2
2023-08-19T12:00	21183	49	-56.3	-85.6	83	3
2023-08-19T12:00	21212	49	-56.4	-85.7	77	3
2023-08-19T12:00	21239	49	-56.5	-85.8	74	4
2023-08-19T12:00	21264	49	-56.6	-85.8	73	4
2023-08-19T12:00	21290	49	-56.7	-85.9	72	4
2023-08-19T12:00	21316	48	-56.6	-85.8	70	4
2023-08-19T12:00	21342	48	-56.6	-85.8	67	4
2023-08-19T12:00	21369	48	-56.5	-85.8	63	4
2023-08-19T12:00	21395	48	-56.4	-85.7	58	5
2023-08-19T12:00	21420	48	-56.4	-85.7	55	5
2023-08-19T12:00	21448	47	-56.5	-85.8	53	6
2023-08-19T12:00	21475	47	-56.6	-85.8	54	6
2023-08-19T12:00	21499	47	-56.7	-85.9	56	6
2023-08-19T12:00	21520	47	-56.7	-85.9	60	7
2023-08-19T12:00	21546	47	-56.6	-85.8	65	7
2023-08-19T12:00	21570	46	-56.7	-85.9	69	7
2023-08-19T12:00	21600	46	-56.7	-85.9	74	8
2023-08-19T12:00	21618	46	-56.7	-85.9	78	8
2023-08-19T12:00	21648	46	-56.7	-85.9	81	8
2023-08-19T12:00	21673	46	-56.8	-86.0	85	9
2023-08-19T12:00	21698	46	-56.8	-86.0	88	9
2023-08-19T12:00	21727	45	-56.8	-86.0	90	9
2023-08-19T12:00	21750	45	-56.6	-85.8	93	9
2023-08-19T12:00	21770	45	-56.4	-85.7	95	9
2023-08-19T12:00	21793	45	-56.4	-86.2	98	8
2023-08-19T12:00	21824	45	-56.4	-86.2	100	8
2023-08-19T12:00	21848	44	-56.3	-86.1	102	7
2023-08-19T12:00	21869	44	-56.1	-86.0	103	7
2023-08-19T12:00	21898	44	-56.1	-86.0	105	7
2023-08-19T12:00	21921	44	-56.1	-86.0	108	7
2023-08-19T12:00	21943	44	-56.0	-85.9	110	7
2023-08-19T12:00	21974	44	-56.0	-85.9	111	7
2023-08-19T12:00	21997	43	-56.0	-85.9	112	7
2023-08-19T12:00	22020	43	-56.1	-85.5	111	7
2023-08-19T12:00	22045	43	-56.1	-85.5	110	7
2023-08-19T12:00	22069	43	-56.2	-85.5	109	6
2023-08-19T12:00	22094	43	-56.3	-85.6	109	6
2023-08-19T12:00	22118	43	-56.5	-85.8	110	6
2023-08-19T12:00	22140	42	-56.7	-85.9	111	6
2023-08-19T12:00	22167	42	-56.9	-85.6	112	6
2023-08-19T12:00	22193	42	-57.0	-85.7	112	5
2023-08-19T12:00	22216	42	-57.1	-85.7	111	5
2023-08-19T12:00	22241	42	-57.2	-85.8	111	5
2023-08-19T12:00	22265	42	-57.3	-85.9	110	6
2023-08-19T12:00	22290	41	-57.5	-86.1	111	6
2023-08-19T12:00	22313	41	-57.5	-86.1	114	6
2023-08-19T12:00	22341	41	-57.5	-86.1	116	7
2023-08-19T12:00	22366	41	-57.6	-86.6	118	7
2023-08-19T12:00	22389	41	-57.6	-86.6	120	8
2023-08-19T12:00	22414	41	-57.5	-86.5	122	8
2023-08-19T12:00	22439	41	-56.9	-86.1	124	8
2023-08-19T12:00	22465	40	-56.5	-86.3	127	7
2023-08-19T12:00	22489	40	-56.5	-86.3	130	7
2023-08-19T12:00	22512	40	-56.6	-86.3	134	7
2023-08-19T12:00	22538	40	-56.9	-86.1	138	6
2023-08-19T12:00	22561	40	-56.9	-86.1	141	5
2023-08-19T12:00	22588	40	-56.7	-85.9	144	4
2023-08-19T12:00	22617	39	-56.7	-86.4	144	3
2023-08-19T12:00	22637	39	-56.6	-86.3	137	2
2023-08-19T12:00	22664	39	-56.5	-86.3	118	2
2023-08-19T12:00	22690	39	-56.3	-86.1	94	2
2023-08-19T12:00	22711	39	-56.1	-86.5	79	3
2023-08-19T12:00	22740	39	-55.8	-86.3	72	4
2023-08-19T12:00	22767	38	-55.5	-86.1	69	5
2023-08-19T12:00	22792	38	-55.3	-85.9	67	6
2023-08-19T12:00	22817	38	-55.3	-85.9	67	7
2023-08-19T12:00	22842	38	-55.3	-85.9	67	7
2023-08-19T12:00	22863	38	-55.3	-85.9	68	8
2023-08-19T12:00	22892	38	-55.5	-85.5	70	7
2023-08-19T12:00	22916	38	-55.4	-85.4	73	7
2023-08-19T12:00	22940	37	-55.4	-85.4	76	7
2023-08-19T12:00	22970	37	-55.4	-85.4	80	7
2023-08-19T12:00	22990	37	-55.4	-85.4	84	7
2023-08-19T12:00	23023	37	-55.4	-85.4	87	7
2023-08-19T12:00	23048	37	-55.2	-85.8	91	7
2023-08-19T12:00	23074	37	-55.2	-85.8	94	8
2023-08-19T12:00	23094	37	-55.1	-85.8	98	9
2023-08-19T12:00	23126	36	-55.0	-85.7	100	9
2023-08-19T12:00	23148	36	-54.8	-85.5	101	10
2023-08-19T12:00	23177	36	-54.5	-85.3	102	10
2023-08-19T12:00	23200	36	-54.5	-85.3	101	10
2023-08-19T12:00	23220	36	-54.4	-85.2	101	10
2023-08-19T12:00	23245	36	-54.4	-85.2	100	10
2023-08-19T12:00	23280	36	-54.4	-85.2	100	10
2023-08-19T12:00	23302	35	-54.5	-85.3	101	10
2023-08-19T12:00	23323	35	-54.4	-85.2	103	10
2023-08-19T12:00	23357	35	-54.3	-85.2	105	10
2023-08-19T12:00	23377	35	-54.1	-85.6	107	9
2023-08-19T12:00	23395	35	-54.0	-85.5	110	9
2023-08-19T12:00	23426	35	-53.9	-85.5	112	9
2023-08-19T12:00	23449	35	-53.8	-85.4	114	8
2023-08-19T12:00	23477	34	-53.8	-85.4	116	9
2023-08-19T12:00	23504	34	-53.8	-84.8	117	9
2023-08-19T12:00	23527	34	-53.8	-84.8	117	10
2023-08-19T12:00	23557	34	-53.9	-84.9	117	10
2023-08-19T12:00	23579	34	-53.9	-84.9	116	11
2023-08-19T12:00	23610	34	-53.8	-84.8	115	11
2023-08-19T12:00	23633	34	-53.9	-84.9	114	11
2023-08-19T12:00	23654	33	-54.0	-84.9	112	11
2023-08-19T12:00	23687	33	-54.1	-85.0	111	11
2023-08-19T12:00	23713	33	-54.1	-85.0	110	11
2023-08-19T12:00	23740	33	-54.2	-85.1	110	11
2023-08-19T12:00	23765	33	-54.2	-85.1	111	11
2023-08-19T12:00	23790	33	-54.1	-85.0	113	11
2023-08-19T12:00	23820	33	-54.1	-85.0	115	10
2023-08-19T12:00	23844	33	-54.2	-85.1	117	10
2023-08-19T12:00	23869	32	-54.2	-85.1	118	9
2023-08-19T12:00	23898	32	-54.2	-85.1	118	9
2023-08-19T12:00	23921	32	-54.1	-85.0	118	9
2023-08-19T12:00	23951	32	-54.1	-85.0	118	9
2023-08-19T12:00	23978	32	-54.1	-85.0	118	8
2023-08-19T12:00	24005	32	-54.1	-85.0	119	8
2023-08-19T12:00	24030	32	-54.0	-84.9	120	8
2023-08-19T12:00	24060	31	-53.9	-84.9	120	7
2023-08-19T12:00	24089	31	-53.9	-84.9	119	6
2023-08-19T12:00	24117	31	-53.9	-85.5	117	6
2023-08-19T12:00	24141	31	-54.0	-85.5	112	5
2023-08-19T12:00	24174	31	-54.1	-85.6	105	4
2023-08-19T12:00	24197	31	-54.0	-85.5	96	4
2023-08-19T12:00	24222	31	-53.9	-85.5	86	4
2023-08-19T12:00	24251	31	-53.8	-85.4	78	4
2023-08-19T12:00	24271	30	-53.6	-85.3	72	5
2023-08-19T12:00	24298	30	-53.5	-85.2	69	5
2023-08-19T12:00	24327	30	-53.5	-85.2	68	6
2023-08-19T12:00	24346	30	-53.4	-85.1	68	7
2023-08-19T12:00	24381	30	-53.4	-85.1	70	8
2023-08-19T12:00	24408	30	-53.3	-85.0	71	8
2023-08-19T12:00	24432	30	-53.1	-84.9	72	9
2023-08-19T12:00	24463	30	-52.9	-84.7	74	10
2023-08-19T12:00	24486	29	-53.0	-84.8	75	10
2023-08-19T12:00	24511	29	-53.0	-84.8	77	11
2023-08-19T12:00	24534	29	-53.0	-84.8	79	11
2023-08-19T12:00	24557	29	-53.0	-84.8	81	11
2023-08-19T12:00	24581	29	-53.1	-84.9	84	10
2023-08-19T12:00	24613	29	-53.1	-84.9	87	9
2023-08-19T12:00	24641	29	-53.0	-84.8	90	9
2023-08-19T12:00	24666	29	-52.9	-84.7	93	8
2023-08-19T12:00	24694	29	-52.9	-84.7	96	8
2023-08-19T12:00	24723	28	-52.7	-84.6	98	8
2023-08-19T12:00	24748	28	-52.7	-84.6	99	8
2023-08-19T12:00	24778	28	-52.7	-84.6	100	8
2023-08-19T12:00	24804	28	-52.7	-84.6	101	9
2023-08-19T12:00	24828	28	-52.8	-84.7	102	9
2023-08-19T12:00	24854	28	-52.9	-84.7	104	9
2023-08-19T12:00	24879	28	-53.0	-84.8	107	10
2023-08-19T12:00	24902	28	-53.2	-85.0	108	10
2023-08-19T12:00	24925	27	-53.2	-85.0	109	10
2023-08-19T12:00	24961	27	-53.1	-84.9	110	10
2023-08-19T12:00	24982	27	-53.0	-84.8	109	10
2023-08-19T12:00	25015	27	-52.9	-84.7	107	10
2023-08-19T12:00	25039	27	-52.7	-84.6	106	10
2023-08-19T12:00	25064	27	-52.5	-84.4	104	10
2023-08-19T12:00	25092	27	-52.5	-84.4	103	9
2023-08-19T12:00	25119	27	-52.7	-84.6	103	9
2023-08-19T12:00	25138	27	-52.8	-84.7	104	8
2023-08-19T12:00	25172	26	-52.9	-84.7	105	8
2023-08-19T12:00	25194	26	-53.1	-84.9	106	7
2023-08-19T12:00	25228	26	-53.1	-84.9	108	7
2023-08-19T12:00	25250	26	-53.0	-84.8	108	7
2023-08-19T12:00	25278	26	-52.7	-84.6	109	6
2023-08-19T12:00	25303	26	-52.5	-84.4	110	6
2023-08-19T12:00	25333	26	-52.3	-85.0	112	6
2023-08-19T12:00	25359	26	-52.3	-85.0	115	5
2023-08-19T12:00	25383	26	-52.4	-85.1	118	5
2023-08-19T12:00	25414	26	-52.4	-85.1	121	6
2023-08-19T12:00	25433	25	-52.3	-85.0	124	6
2023-08-19T12:00	25462	25	-52.4	-85.1	127	6
2023-08-19T12:00	25491	25	-52.3	-85.0	131	6
2023-08-19T12:00	25519	25	-52.3	-85.0	133	5
2023-08-19T12:00	25548	25	-52.3	-85.0	135	5
2023-08-19T12:00	25568	25	-52.1	-84.8	134	4
2023-08-19T12:00	25602	25	-51.9	-84.7	128	4
2023-08-19T12:00	25624	25	-51.9	-84.7	119	3
2023-08-19T12:00	25644	25	-51.8	-84.6	109	3
2023-08-19T12:00	25681	24	-51.6	-84.5	100	4
2023-08-19T12:00	25707	24	-51.4	-84.3	95	4
2023-08-19T12:00	25732	24	-51.1	-84.1	91	4
2023-08-19T12:00	25758	24	-50.9	-84.7	87	4
2023-08-19T12:00	25781	24	-50.8	-84.7	83	5
2023-08-19T12:00	25817	24	-50.7	-84.6	79	5
2023-08-19T12:00	25830	24	-50.7	-84.6	77	5
2023-08-19T12:00	25867	24	-50.7	-84.6	76	6
2023-08-19T12:00	25895	24	-50.6	-83.7	76	6
2023-08-19T12:00	25917	24	-50.5	-83.7	77	6
2023-08-19T12:00	25940	24	-50.5	-83.7	79	5
2023-08-19T12:00	25973	23	-50.6	-83.7	79	4
2023-08-19T12:00	26001	23	-50.6	-83.7	78	4
2023-08-19T12:00	26025	23	-50.5	-83.7	73	3
2023-08-19T12:00	26047	23	-50.4	-83.6	59	2
2023-08-19T12:00	26072	23	-50.3	-84.3	36	2
2023-08-19T12:00	26102	23	-50.1	-84.2	21	2
2023-08-19T12:00	26129	23	-49.9	-84.0	18	3
2023-08-19T12:00	26157	23	-49.6	-83.8	21	4
2023-08-19T12:00	26183	23	-49.5	-83.7	26	5
2023-08-19T12:00	26218	23	-49.5	-83.7	32	5
2023-08-19T12:00	26240	22	-49.4	-83.7	38	6
2023-08-19T12:00	26260	22	-49.4	-83.7	42	7
2023-08-19T12:00	26285	22	-49.5	-83.7	46	7
2023-08-19T12:00	26312	22	-49.6	-83.8	50	7
2023-08-19T12:00	26350	22	-49.7	-83.1	55	8
2023-08-19T12:00	26371	22	-49.9	-83.2	59	9
2023-08-19T12:00	26402	22	-50.1	-83.4	63	9
2023-08-19T12:00	26428	22	-50.0	-83.3	67	10
2023-08-19T12:00	26457	22	-49.9	-84.0	71	11
2023-08-19T12:00	26487	22	-49.8	-84.0	75	11
2023-08-19T12:00	26509	22	-49.8	-84.0	78	11
2023-08-19T12:00	26542	21	-49.7	-83.9	82	11
2023-08-19T12:00	26564	21	-49.6	-83.8	86	11
2023-08-19T12:00	26597	21	-49.7	-83.9	89	11
2023-08-19T12:00	26622	21	-49.7	-83.9	91	11
2023-08-19T12:00	26652	21	-49.7	-83.9	94	11
2023-08-19T12:00	26683	21	-49.6	-83.8	96	11
2023-08-19T12:00	26706	21	-49.5	-83.7	99	11
2023-08-19T12:00	26733	21	-49.4	-83.7	101	10
2023-08-19T12:00	26765	21	-49.3	-83.6	103	10
2023-08-19T12:00	26787	21	-49.3	-83.6	105	9
2023-08-19T12:00	26813	21	-49.1	-83.4	104	9
2023-08-19T12:00	26850	20	-48.8	-83.2	103	9
2023-08-19T12:00	26875	20	-48.5	-83.0	100	9
2023-08-19T12:00	26894	20	-48.4	-83.8	96	9
2023-08-19T12:00	26929	20	-48.4	-83.8	92	9
2023-08-19T12:00	26955	20	-48.3	-83.8	89	9
2023-08-19T12:00	26986	20	-48.1	-83.6	86	10
2023-08-19T12:00	27012	20	-47.9	-83.5	85	10
2023-08-19T12:00	27035	20	-47.6	-83.3	85	10
2023-08-19T12:00	27065	20	-47.5	-83.2	86	10
2023-08-19T12:00	27098	20	-47.6	-83.3	88	10
2023-08-19T12:00	27127	20	-47.7	-83.4	90	10
2023-08-19T12:00	27145	20	-47.6	-83.3	93	10
2023-08-19T12:00	27180	19	-47.4	-83.1	95	9
2023-08-19T12:00	27214	19	-47.3	-83.1	97	9
2023-08-19T12:00	27236	19	-47.2	-83.0	97	9
2023-08-19T12:00	27273	19	-47.2	-83.0	96	10
2023-08-19T12:00	27300	19	-47.1	-82.9	96	10
2023-08-19T12:00	27331	19	-47.2	-83.0	96	10
2023-08-19T12:00	27362	19	-47.3	-83.1	98	11
2023-08-19T12:00	27398	19	-47.3	-83.1	100	10
2023-08-19T12:00	27422	19	-47.3	-83.1	103	10
2023-08-19T12:00	27453	19	-47.4	-83.1	107	10
2023-08-19T12:00	27471	19	-47.5	-82.3	110	9
2023-08-19T12:00	27494	19	-47.7	-82.4	113	9
2023-08-19T12:00	27531	18	-47.8	-82.5	116	8
2023-08-19T12:00	27548	18	-47.9	-82.6	118	8
2023-08-19T12:00	27577	18	-47.8	-83.4	119	8
2023-08-19T12:00	27609	18	-47.8	-83.4	119	8
2023-08-19T12:00	27637	18	-47.8	-83.4	119	8
2023-08-19T12:00	27665	18	-47.7	-83.4	119	8
2023-08-19T12:00	27702	18	-47.7	-83.4	119	9
2023-08-19T12:00	27724	18	-47.7	-83.4	120	9
2023-08-19T12:00	27754	18	-47.8	-83.4	121	10
2023-08-19T12:00	27781	18	-47.9	-82.6	122	10
2023-08-19T12:00	27810	18	-48.0	-82.7	124	10
2023-08-19T12:00	27833	18	-48.0	-82.7	126	11
2023-08-19T12:00	27863	18	-48.1	-82.7	129	11
2023-08-19T12:00	27893	17	-48.1	-82.7	131	11
2023-08-19T12:00	27921	17	-48.1	-83.6	133	11
2023-08-19T12:00	27938	17	-48.1	-83.6	135	11
2023-08-19T12:00	27970	17	-48.1	-83.6	137	11
2023-08-19T12:00	27989	17	-48.0	-83.6	138	11
2023-08-19T12:00	28022	17	-48.0	-83.6	140	11
2023-08-19T12:00	28062	17	-48.1	-83.6	142	11
2023-08-19T12:00	28074	17	-48.1	-83.6	144	11
2023-08-19T12:00	28102	17	-48.1	-83.6	146	11
2023-08-19T12:00	28136	17	-48.0	-83.6	149	10
2023-08-19T12:00	28168	17	-47.9	-83.5	152	10
2023-08-19T12:00	28192	17	-47.9	-83.5	154	9
2023-08-19T12:00	28208	17	-47.9	-83.5	156	9
2023-08-19T12:00	28254	17	-47.9	-83.5	157	9
2023-08-19T12:00	28275	17	-47.5	-83.2	157	8
2023-08-19T12:00	28296	16	-47.1	-82.9	156	8
2023-08-19T12:00	28331	16	-46.8	-82.7	154	7
2023-08-19T12:00	28355	16	-46.6	-83.6	151	7
2023-08-19T12:00	28381	16	-46.6	-83.6	148	6
2023-08-19T12:00	28398	16	-46.6	-83.6	144	6
2023-08-19T12:00	28426	16	-46.5	-83.6	140	6
2023-08-19T12:00	28456	16	-46.4	-83.5	134	6
2023-08-19T12:00	28490	16	-46.4	-83.5	129	6
2023-08-19T12:00	28515	16	-46.2	-83.4	124	7
2023-08-19T12:00	28553	16	-45.9	-83.2	120	7
2023-08-19T12:00	28562	16	-45.7	-83.0	117	8
2023-08-19T12:00	28589	16	-45.4	-82.8	117	8
2023-08-19T12:00	28624	16	-45.1	-82.6	117	8
2023-08-19T12:00	28645	16	-44.9	-82.5	119	9
2023-08-19T12:00	28666	16	-44.8	-82.4	121	9
2023-08-19T12:00	28685	15	-44.7	-82.3	122	9
2023-08-19T12:00	28727	15	-44.4	-82.1	123	8
2023-08-19T12:00	28756	15	-44.2	-82.0	123	8
2023-08-19T12:00	28774	15	-44.2	-82.0	123	8
2023-08-19T12:00	28818	15	-44.2	-82.0	122	7
2023-08-19T12:00	28842	15	-44.1	-81.9	120	7
2023-08-19T12:00	28852	15	-44.0	-81.8	118	7
2023-08-19T12:00	28889	15	-44.0	-81.8	117	6
2023-08-19T12:00	28904	15	-44.1	-81.9	117	7
2023-08-19T12:00	28942	15	-44.2	-82.0	118	7
2023-08-19T12:00	28960	15	-44.0	-81.8	121	8
2023-08-19T12:00	28994	15	-43.8	-81.7	124	8
2023-08-19T12:00	29024	15	-43.7	-81.6	126	9
2023-08-19T12:00	29036	15	-43.5	-81.5	127	9
2023-08-19T12:00	29069	15	-43.3	-81.3	127	9
2023-08-19T12:00	29104	15	-43.1	-81.2	126	10
2023-08-19T12:00	29127	15	-42.9	-81.1	124	10
2023-08-19T12:00	29165	14	-42.8	-81.0	124	10
2023-08-19T12:00	29197	14	-42.8	-81.0	125	10
2023-08-19T12:00	29214	14	-42.7	-80.9	127	11
2023-08-19T12:00	29235	14	-42.5	-80.8	130	11
2023-08-19T12:00	29276	14	-42.5	-80.8	133	12
2023-08-19T12:00	29292	14	-42.6	-80.8	136	12
2023-08-19T12:00	29331	14	-42.6	-80.8	139	12
2023-08-19T12:00	29357	14	-42.7	-80.9	143	13
2023-08-19T12:00	29378	14	-42.7	-80.9	146	13
2023-08-19T12:00	29409	14	-42.8	-81.0	150	13
2023-08-19T12:00	29439	14	-42.8	-81.0	153	13
2023-08-19T12:00	29470	14	-43.0	-81.1	156	13
2023-08-19T12:00	29497	14	-43.0	-81.1	158	13
2023-08-19T12:00	29514	14	-42.9	-81.1	159	13
2023-08-19T12:00	29547	14	-42.8	-81.0	160	12
2023-08-19T12:00	29571	14	-42.7	-80.9	162	11
2023-08-19T12:00	29608	14	-42.8	-81.0	164	11
2023-08-19T12:00	29644	13	-42.9	-81.1	168	10
2023-08-19T12:00	29676	13	-42.9	-81.1	172	9
2023-08-19T12:00	29693	13	-42.8	-81.0	175	9
2023-08-19T12:00	29716	13	-42.8	-81.0	176	8
2023-08-19T12:00	29753	13	-42.7	-80.9	174	7
2023-08-19T12:00	29767	13	-42.5	-80.8	171	6
2023-08-19T12:00	29800	13	-42.3	-80.6	166	6
2023-08-19T12:00	29832	13	-42.2	-80.6	161	6
2023-08-19T12:00	29864	13	-42.0	-80.4	158	6
2023-08-19T12:00	29887	13	-41.9	-80.4	157	6
2023-08-19T12:00	29928	13	-41.8	-80.3	158	6
2023-08-19T12:00	29945	13	-41.6	-80.1	159	6
2023-08-19T12:00	29974	13	-41.5	-80.1	161	6
2023-08-19T12:00	30006	13	-41.3	-79.9	165	6
2023-08-19T12:00	30035	13	-41.2	-79.9	170	6
2023-08-19T12:00	30057	13	-41.1	-79.8	177	5
2023-08-19T12:00	30077	13	-41.1	-79.8	187	5
2023-08-19T12:00	30103	13	-40.9	-79.7	199	5
2023-08-19T12:00	30134	13	-40.7	-79.5	213	4
2023-08-19T12:00	30155	12	-40.6	-79.5	228	4
2023-08-19T12:00	30192	12	-40.5	-79.4	241	4
2023-08-19T12:00	30217	12	-40.4	-79.3	252	4
2023-08-19T12:00	30232	12	-40.3	-79.2	262	4
2023-08-19T12:00	30274	12	-40.3	-79.2	271	4
2023-08-19T12:00	30281	12	-40.2	-79.2	281	4
2023-08-19T12:00	30304	12	-40.0	-79.0	292	4
2023-08-19T12:00	30334	12	-39.9	-79.0	303	4
2023-08-19T12:00	30364	12	-39.9	-79.0	313	4
2023-08-19T12:00	30403	12	-39.8	-78.9	322	4
2023-08-19T12:00	30424	12	-39.8	-78.9	332	4
2023-08-19T12:00	30453	12	-39.7	-78.8	342	4
2023-08-19T12:00	30471	12	-39.7	-78.8	353	3
2023-08-19T12:00	30491	12	-39.7	-78.8	5	3
2023-08-19T12:00	30517	12	-39.7	-78.8	16	3
2023-08-19T12:00	30553	12	-39.7	-78.8	25	4
2023-08-19T12:00	30572	12	-39.6	-78.8	31	4
2023-08-19T12:00	30591	12	-39.5	-78.7	32	4
2023-08-19T12:00	30636	12	-39.4	-78.6	31	4
2023-08-19T12:00	30654	12	-39.3	-78.5	28	4
2023-08-19T12:00	30693	12	-39.2	-78.5	24	4
2023-08-19T12:00	30715	12	-39.2	-78.5	20	4
2023-08-19T12:00	30744	11	-39.1	-78.4	19	4
2023-08-19T12:00	30777	11	-39.2	-78.5	21	4
2023-08-19T12:00	30792	11	-39.3	-78.5	24	4
2023-08-19T12:00	30827	11	-39.4	-78.6	29	5
2023-08-19T12:00	30856	11	-39.5	-78.7	34	5
2023-08-19T12:00	30902	11	-39.6	-78.8	39	5
2023-08-19T12:00	30916	11	-39.7	-78.8	45	6
2023-08-19T12:00	30932	11	-39.8	-78.9	50	6
2023-08-19T12:00	30958	11	-39.8	-78.9	56	6
2023-08-19T12:00	30993	11	-39.8	-78.9	61	7
2023-08-19T12:00	31019	11	-39.8	-78.9	66	7
2023-08-19T12:00	31062	11	-39.9	-79.0	70	7
2023-08-19T12:00	31085	11	-40.0	-79.0	76	7
2023-08-19T12:00	31113	11	-40.1	-79.1	82	7
2023-08-19T12:00	31137	11	-40.1	-79.1	89	7
2023-08-19T12:00	31186	11	-40.2	-79.2	97	7
2023-08-19T12:00	31210	11	-40.3	-79.2	106	7
2023-08-19T12:00	31228	11	-40.4	-79.3	114	7
2023-08-19T12:00	31264	11	-40.5	-79.4	121	7
2023-08-19T12:00	31304	11	-40.4	-79.3	127	7
2023-08-19T12:00	31321	11	-40.3	-79.2	132	7
2023-08-19T12:00	31357	10	-40.2	-79.2	138	6
2023-08-19T12:00	31386	10	-40.1	-79.1	142	5
2023-08-19T12:00	31430	10	-40.0	-79.0	147	4
2023-08-19T12:00	31450	10	-39.9	-79.0	152	3
2023-08-19T12:00	31474	10	-39.9	-79.0	155	2
2023-08-19T12:00	31514	10	-39.9	-79.0	157	2
2023-08-19T12:00	31555	10	-39.9	-79.0	148	1
2023-08-19T12:00	31567	10	-39.9	-79.0	83	0
2023-08-19T12:00	31594	10	-39.9	-79.0	51	1
2023-08-19T12:00	31631	10	-40.0	-79.0	51	1
2023-08-19T12:00	31637	10	-40.0	-79.0	54	2
2023-08-19T12:00	31677	10	-39.8	-78.9	58	2
2023-08-19T12:00	31707	10	-39.7	-78.8	61	3
2023-08-19T12:00	31718	10	-39.6	-78.8	64	4
2023-08-19T12:00	31752	10	-39.6	-78.8	69	4
2023-08-19T12:00	31772	10	-39.7	-78.8	74	5
2023-08-19T12:00	31800	10	-39.7	-78.8	80	6
2023-08-19T12:00	31834	10	-39.6	-78.8	87	7
2023-08-19T12:00	31837	10	-39.5	-78.7	93	7
2023-08-19T12:00	31892	10	-39.2	-78.5	99	7
2023-08-19T12:00	31903	10	-38.9	-78.3	105	8
2023-08-19T12:00	31931	10	-38.7	-78.1	111	8
2023-08-19T12:00	31945	10	-38.5	-78.0	117	7
2023-08-19T12:00	31968	10	-38.4	-77.9	122	7
2023-08-19T12:00	31994	10	-38.3	-77.9	124	7
2023-08-19T12:00	32019	10	-38.1	-77.7	123	7
2023-08-19T12:00	32051	9	-37.9	-77.6	119	7
2023-08-19T12:00	32075	9	-37.5	-77.3	113	7
2023-08-19T12:00	32095	9	-37.1	-77.0	107	7
2023-08-19T12:00	32107	9	-36.7	-76.7	103	7
2023-08-19T12:00	32143	9	-36.3	-76.5	102	8
2023-08-19T12:00	32166	9	-36.0	-76.3	103	8
2023-08-19T12:00	32182	9	-35.8	-76.1	105	8
2023-08-19T12:00	32224	9	-35.7	-76.1	108	8
2023-08-19T12:00	32238	9	-35.6	-76.0	111	8
2023-08-19T12:00	32256	9	-35.7	-76.1	116	8
2023-08-19T12:00	32268	9	-35.7	-76.1	120	8
2023-08-19T12:00	32299	9	-35.8	-76.1	126	8
2023-08-19T12:00	32335	9	-35.8	-76.1	131	8
2023-08-19T12:00	32359	9	-35.9	-76.2	135	8
2023-08-19T12:00	32370	9	-36.0	-76.3	138	7
2023-08-19T12:00	32412	9	-36.1	-76.3	139	7
2023-08-19T12:00	32420	9	-36.2	-76.4	138	7
2023-08-19T12:00	32468	9	-36.2	-76.4	134	6
2023-08-19T12:00	32479	9	-36.2	-76.4	126	6
2023-08-19T12:00	32502	9	-36.2	-76.4	116	5
2023-08-19T12:00	32536	9	-36.2	-76.4	106	5
2023-08-19T12:00	32547	9	-36.2	-76.4	97	6
2023-08-19T12:00	32588	9	-36.3	-76.5	90	6
2023-08-19T12:00	32607	9	-36.2	-76.4	86	7
2023-08-19T12:00	32648	9	-36.2	-76.4	84	8
2023-08-19T12:00	32662	9	-36.2	-76.4	84	8
2023-08-19T12:00	32678	9	-36.2	-76.4	84	9
2023-08-19T12:00	32719	9	-36.2	-76.4	85	9
2023-08-19T12:00	32728	9	-36.2	-76.4	87	9
2023-08-19T12:00	32777	9	-36.1	-76.3	88	9
2023-08-19T12:00	32814	9	-36.0	-76.3	89	8
2023-08-19T18:00	112	1004	29.3	17.2	80	2
2023-08-19T18:00	140	1001	29.8	15.7	38	1
2023-08-19T18:00	163	999	29.7	15.4	51	1
2023-08-19T18:00	186	996	29.6	15.3	59	1
2023-08-19T18:00	210	994	29.4	15.3	68	1
2023-08-19T18:00	227	991	29.2	15.1	78	1
2023-08-19T18:00	251	989	29.0	15.2	88	1
2023-08-19T18:00	273	986	28.8	15.2	94	1
2023-08-19T18:00	294	984	28.6	15.2	98	2
2023-08-19T18:00	317	982	28.4	15.1	100	2
2023-08-19T18:00	336	979	28.2	15.0	102	2
2023-08-19T18:00	358	977	28.0	15.0	103	2
2023-08-19T18:00	377	975	27.8	14.9	104	2
2023-08-19T18:00	397	973	27.6	14.7	104	2
2023-08-19T18:00	417	971	27.4	14.7	103	2
2023-08-19T18:00	437	968	27.3	14.7	99	2
2023-08-19T18:00	455	966	27.1	14.5	93	1
2023-08-19T18:00	476	964	26.9	14.6	86	1
2023-08-19T18:00	499	962	26.7	14.5	81	1
2023-08-19T18:00	518	960	26.5	14.5	82	1
2023-08-19T18:00	536	957	26.3	14.5	95	1
2023-08-19T18:00	558	955	26.1	14.1	118	1
2023-08-19T18:00	580	953	25.9	14.1	137	1
2023-08-19T18:00	601	951	25.7	14.0	150	1
2023-08-19T18:00	622	948	25.6	14.1	160	1
2023-08-19T18:00	647	946	25.3	13.9	168	1
2023-08-19T18:00	670	943	25.1	14.0	176	1
2023-08-19T18:00	696	940	24.9	14.0	184	1
2023-08-19T18:00	723	938	24.6	13.9	192	1
2023-08-19T18:00	750	935	24.4	13.9	202	1
2023-08-19T18:00	773	932	24.2	13.8	210	1
2023-08-19T18:00	799	929	23.9	13.8	218	2
2023-08-19T18:00	824	927	23.7	13.6	222	2
2023-08-19T18:00	849	924	23.5	13.5	221	2
2023-08-19T18:00	866	922	23.3	13.5	218	3
2023-08-19T18:00	884	920	23.2	13.5	214	3
2023-08-19T18:00	901	918	23.0	13.4	213	4
2023-08-19T18:00	922	916	22.8	13.4	214	4
2023-08-19T18:00	940	915	22.7	13.4	218	4
2023-08-19T18:00	957	913	22.5	13.3	224	4
2023-08-19T18:00	980	910	22.3		231	3
2023-08-19T18:00	1003	908	22.1	13.2	238	3
2023-08-19T18:00	1026	906	21.9	13.2	242	2
2023-08-19T18:00	1045	903	21.7	13.2	242	3
2023-08-19T18:00	1065	901	21.5	13.1	239	3
2023-08-19T18:00	1087	899	21.3	13.1	235	3
2023-08-19T18:00	1108	897	21.1	13.0	232	3
2023-08-19T18:00	1135	894	20.9	13.0	230	4
2023-08-19T18:00	1161	892	20.7	12.9	229	4
2023-08-19T18:00	1187	889	20.5	13.1	230	5
2023-08-19T18:00	1215	886	20.2	12.9	233	5
2023-08-19T18:00	1234	884	20.0	13.1	237	5
2023-08-19T18:00	1256	882	19.8	13.3	241	5
2023-08-19T18:00	1274	880	19.7	13.4	244	5
2023-08-19T18:00	1295	878	19.5	13.2	246	5
2023-08-19T18:00	1323	875	19.3	13.2	245	5
2023-08-19T18:00	1351	872	19.0	13.1	244	5
2023-08-19T18:00	1374	870	18.8	13.1	244	6
2023-08-19T18:00	1399	867	18.5	12.9	245	6
2023-08-19T18:00	1427	865	18.3	13.0	248	6
2023-08-19T18:00	1449	862	18.1	12.9	253	7
2023-08-19T18:00	1468	860	17.9	13.0	257	7
2023-08-19T18:00	1485	858	17.7	12.9	260	7
2023-08-19T18:00	1513	856	17.6	12.9	261	7
2023-08-19T18:00	1549	852	17.2	12.5	261	7
2023-08-19T18:00	1573	850	17.1	12.3	259	7
2023-08-19T18:00	1595	848	16.9	12.3	258	7
2023-08-19T18:00	1616	845	16.7	12.3	256	6
2023-08-19T18:00	1642	843	16.4	12.2	255	5
2023-08-19T18:00	1663	841	16.3	12.3	254	5
2023-08-19T18:00	1685	839	16.0	12.2	254	5
2023-08-19T18:00	1703	837	15.9	12.3	255	5
2023-08-19T18:00	1724	835	15.7	12.2	255	6
2023-08-19T18:00	1745	833	15.7	11.3	255	6
2023-08-19T18:00	1774	830	15.5	10.8	255	7
2023-08-19T18:00	1797	828	15.5	10.2	255	7
2023-08-19T18:00	1819	826	15.4	9.6	255	7
2023-08-19T18:00	1841	823	15.3	9.6	255	6
2023-08-19T18:00	1866	821	15.0	9.6	257	6
2023-08-19T18:00	1892	819	14.8	9.4	258	6
2023-08-19T18:00	1913	817	14.9	8.2	261	6
2023-08-19T18:00	1935	814	14.7		264	6
2023-08-19T18:00	1956	812	14.4	8.3	268	6
2023-08-19T18:00	1979	810	14.2	8.1	272	6
2023-08-19T18:00	2001	808	14.1	8.0	276	5
2023-08-19T18:00	2023	806	13.9	7.8	278	5
2023-08-19T18:00	2048	804	13.8	7.3	277	5
2023-08-19T18:00	2073	801	13.7	6.4	274	5
2023-08-19T18:00	2101	799	13.5	6.3	270	5
2023-08-19T18:00	2129	796	13.2	6.0	267	5
2023-08-19T18:00	2151	794	13.3	5.0	265	6
2023-08-19T18:00	2174	792	13.2	4.6	264	6
2023-08-19T18:00	2196	789	13.0	4.5	263	6
2023-08-19T18:00	2219	787	12.8	4.1	261	6
2023-08-19T18:00	2245	785	12.6	4.0	260	5
2023-08-19T18:00	2263	783	12.4	3.9	260	5
2023-08-19T18:00	2284	781	12.3	3.6	260	5
2023-08-19T18:00	2307	779	12.2	2.9	262	5
2023-08-19T18:00	2330	777	12.2	1.6	263	5
2023-08-19T18:00	2360	775	12.0	1.6	263	4
2023-08-19T18:00	2385	772	11.7	1.6	262	4
2023-08-19T18:00	2408	770	11.6	1.2	261	4
2023-08-19T18:00	2428	768	11.5	1.1	260	4
2023-08-19T18:00	2451	766	11.4	0.7	261	4
2023-08-19T18:00	2477	764	11.2	0.3	262	4
2023-08-19T18:00	2500	762	11.0	0.3	264	5
2023-08-19T18:00	2523	759	10.8	0.3	266	5
2023-08-19T18:00	2546	757	10.6	-0.1	267	5
2023-08-19T18:00	2568	755	10.4	-0.1	267	5
2023-08-19T18:00	2594	753	10.2	-0.4	267	5
2023-08-19T18:00	2612	751	10.1	-0.5	266	5
2023-08-19T18:00	2632	749	9.9	-0.8	266	5
2023-08-19T18:00	2654	747	9.7	-0.8	267	6
2023-08-19T18:00	2681	745	9.6	-1.2	268	6
2023-08-19T18:00	2702	743	9.5	-0.8	268	6
2023-08-19T18:00	2728	741	9.6	-1.8	268	6
2023-08-19T18:00	2749	739	9.5	-2.2	268	6
2023-08-19T18:00	2774	737	9.5	-3.9	268	6
2023-08-19T18:00	2801	735	9.6	-5.8	269	7
2023-08-19T18:00	2822	732	9.6	-7.5	273	7
2023-08-19T18:00	2850	730	9.9	-9.4	277	7
2023-08-19T18:00	2882	727	9.8	-11.5	282	7
2023-08-19T18:00	2908	725	9.6	-11.3	285	7
2023-08-19T18:00	2930	723	9.5	-11.4	287	7
2023-08-19T18:00	2954	721	9.5	-11.2	287	7
2023-08-19T18:00	2976	719	9.4	-11.3	286	8
2023-08-19T18:00	3002	717	9.2	-11.2	285	8
2023-08-19T18:00	3020	715	9.2	-11.4	285	8
2023-08-19T18:00	3050	713	9.0	-12.3	286	9
2023-08-19T18:00	3072	711	8.9	-12.9	287	8
2023-08-19T18:00	3089	709	8.7	-13.1	289	8
2023-08-19T18:00	3109	707	8.5	-12.9	290	8
2023-08-19T18:00	3134	705	8.3	-13.5	292	7
2023-08-19T18:00	3156	704	8.1	-13.8	291	7
2023-08-19T18:00	3175	702	8.0	-14.3	290	6
2023-08-19T18:00	3195	700	7.8		288	6
2023-08-19T18:00	3218	698	7.7	-13.6	288	6
2023-08-19T18:00	3249	696	7.4	-13.1	290	6
2023-08-19T18:00	3272	694	7.2	-13.1	292	7
2023-08-19T18:00	3296	692	7.0	-13.1	294	7
2023-08-19T18:00	3321	690	6.9	-13.3	295	7
2023-08-19T18:00	3342	688	6.8	-13.6	295	7
2023-08-19T18:00	3363	686	6.8	-13.9	294	7
2023-08-19T18:00	3387	684	6.6	-14.1	294	7
2023-08-19T18:00	3416	682	6.4	-14.0	294	6
2023-08-19T18:00	3439	680	6.2	-14.0	296	6
2023-08-19T18:00	3471	677	5.9	-14.1	298	6
2023-08-19T18:00	3494	675	5.8	-13.9	301	6
2023-08-19T18:00	3517	673	5.6	-14.1	303	6
2023-08-19T18:00	3545	671	5.4	-14.4	303	6
2023-08-19T18:00	3573	669	5.2	-15.2	303	6
2023-08-19T18:00	3594	667	5.1	-15.7	303	6
2023-08-19T18:00	3615	665	4.9	-15.8	303	6
2023-08-19T18:00	3643	663	4.7	-16.1	304	6
2023-08-19T18:00	3663	661	4.6	-16.9	305	6
2023-08-19T18:00	3689	659	4.5	-17.2	307	6
2023-08-19T18:00	3709	658	4.3	-17.6	309	6
2023-08-19T18:00	3734	656	4.2	-17.8	310	5
2023-08-19T18:00	3754	654	4.0	-17.9	311	5
2023-08-19T18:00	3774	652	4.0	-17.6	311	5
2023-08-19T18:00	3793	651	3.9	-18.2	310	4
2023-08-19T18:00	3819	649	3.7	-17.9	308	4
2023-08-19T18:00	3846	647	3.6	-16.4	306	4
2023-08-19T18:00	3872	645	3.4		306	4
2023-08-19T18:00	3893	643	3.2	-15.1	307	4
2023-08-19T18:00	3918	641	3.1	-14.8	309	4
2023-08-19T18:00	3946	639	2.9	-13.7	310	4
2023-08-19T18:00	3973	637	2.7	-12.9	308	5
2023-08-19T18:00	3993	635	2.6	-12.3	304	5
2023-08-19T18:00	4014	633	2.5	-12.8	297	4
2023-08-19T18:00	4038	631	2.4	-14.8	289	4
2023-08-19T18:00	4066	629	2.3	-15.2	283	4
2023-08-19T18:00	4084	628	2.2	-15.2	282	4
2023-08-19T18:00	4103	626	2.1	-15.7	287	4
2023-08-19T18:00	4125	625	2.0	-15.8	294	5
2023-08-19T18:00	4154	622	1.9	-16.1	300	5
2023-08-19T18:00	4181	620	1.8	-14.9	303	6
2023-08-19T18:00	4204	619	1.7	-12.1	302	6
2023-08-19T18:00	4226	617	1.4	-6.3	300	6
2023-08-19T18:00	4254	615	1.0	-2.9	297	5
2023-08-19T18:00	4276	613	0.8	-3.9	293	5
2023-08-19T18:00	4300	611	0.7	-4.3	290	6
2023-08-19T18:00	4324	609	0.7	-5.7	289	6
2023-08-19T18:00	4347	608	0.6	-6.2	288	7
2023-08-19T18:00	4366	606	0.4	-5.9	288	7
2023-08-19T18:00	4387	605	0.2	-5.6	288	7
2023-08-19T18:00	4410	603	0.0	-5.2	289	7
2023-08-19T18:00	4438	601	-0.3		289	6
2023-08-19T18:00	4460	599	-0.3	-6.3	290	6
2023-08-19T18:00	4484	597	-0.4	-6.3	290	6
2023-08-19T18:00	4516	595	-0.7	-5.5	291	6
2023-08-19T18:00	4536	593	-0.8	-5.3	291	6
2023-08-19T18:00	4561	592	-1.0	-5.3	291	6
2023-08-19T18:00	4588	590	-1.3	-5.4	290	6
2023-08-19T18:00	4608	588	-1.5	-5.6	288	6
2023-08-19T18:00	4635	586	-1.6	-5.7	286	6
2023-08-19T18:00	4662	584	-1.8	-5.6	284	6
2023-08-19T18:00	4684	582	-1.9	-6.6	282	6
2023-08-19T18:00	4713	581	-2.0	-7.8	282	6
2023-08-19T18:00	4732	579	-2.1	-7.9	284	6
2023-08-19T18:00	4749	578	-2.3	-8.2	287	6
2023-08-19T18:00	4770	576	-2.3	-8.3	290	6
2023-08-19T18:00	4793	575	-2.5	-8.3	293	6
2023-08-19T18:00	4819	573	-2.8	-8.5	295	7
2023-08-19T18:00	4843	571	-3.0	-8.4	297	7
2023-08-19T18:00	4871	569	-3.3	-8.3	298	7
2023-08-19T18:00	4896	567	-3.5	-8.1	300	6
2023-08-19T18:00	4925	565	-3.8	-7.9	301	6
2023-08-19T18:00	4955	563	-4.0	-7.7	303	6
2023-08-19T18:00	4981	561	-4.3	-7.6	305	6
2023-08-19T18:00	5000	560	-4.5	-7.4	305	6
2023-08-19T18:00	5019	559	-4.6	-6.6	305	5
2023-08-19T18:00	5038	557	-4.7	-6.1	304	5
2023-08-19T18:00	5060	555	-4.8	-6.8	305	5
2023-08-19T18:00	5087	554	-4.9	-6.9	306	5
2023-08-19T18:00	5113	552	-5.2	-7.0	309	5
2023-08-19T18:00	5138	550	-5.3	-7.5	313	5
2023-08-19T18:00	5165	548	-5.4	-7.7	316	5
2023-08-19T18:00	5193	546	-5.6	-7.7	318	5
2023-08-19T18:00	5225	544	-5.9	-7.9	318	6
2023-08-19T18:00	5248	542	-6.0	-8.2	317	6
2023-08-19T18:00	5268	541	-6.2	-8.4	314	6
2023-08-19T18:00	5288	540	-6.3	-8.5	311	6
2023-08-19T18:00	5309	538	-6.5	-8.8	308	6
2023-08-19T18:00	5329	537	-6.6	-9.1	307	6
2023-08-19T18:00	5347	536	-6.7	-9.1	307	5
2023-08-19T18:00	5370	534	-6.9	-9.3	307	5
2023-08-19T18:00	5395	532	-7.1	-9.4	308	5
2023-08-19T18:00	5422	530	-7.3	-9.7	308	5
2023-08-19T18:00	5449	529	-7.4	-10.3	309	5
2023-08-19T18:00	5471	527	-7.6	-10.4	311	5
2023-08-19T18:00	5498	525	-7.7	-11.1	313	5
2023-08-19T18:00	5525	524	-7.8	-11.3	315	4
2023-08-19T18:00	5552	522	-7.9	-13.4	315	4
2023-08-19T18:00	5577	520	-8.1	-11.6	313	4
2023-08-19T18:00	5599	518	-8.3	-11.3	308	4
2023-08-19T18:00	5625	517	-8.4	-11.7	302	4
2023-08-19T18:00	5658	515	-8.4	-16.0	295	4
2023-08-19T18:00	5692	513	-8.6	-15.4	291	4
2023-08-19T18:00	5708	511	-8.7	-15.7	291	4
2023-08-19T18:00	5729	510	-8.8	-14.0	293	4
2023-08-19T18:00	5747	509	-9.0	-13.8	296	4
2023-08-19T18:00	5768	507	-9.2	-13.9	299	4
2023-08-19T18:00	5787	506	-9.3	-14.8	301	4
2023-08-19T18:00	5809	505	-9.5	-15.8	303	4
2023-08-19T18:00	5828	503	-9.6	-15.3	305	4
2023-08-19T18:00	5849	502	-9.8	-14.3	307	4
2023-08-19T18:00	5869	501	-9.9	-14.3	308	4
2023-08-19T18:00	5892	499	-10.0	-15.8	308	5
2023-08-19T18:00	5914	498	-10.2	-16.2	306	5
2023-08-19T18:00	5941	496	-10.3	-17.7	305	5
2023-08-19T18:00	5968	494	-10.4	-17.0	304	5
2023-08-19T18:00	6002	492	-10.4	-17.6	304	5
2023-08-19T18:00	6032	490	-10.5	-18.7	304	5
2023-08-19T18:00	6054	489	-10.7	-18.4	304	5
2023-08-19T18:00	6077	487	-10.9	-17.7	302	4
2023-08-19T18:00	6101	486	-11.0	-17.7	299	4
2023-08-19T18:00	6127	484	-11.2	-20.3	295	4
2023-08-19T18:00	6149	483	-11.3	-20.8	291	4
2023-08-19T18:00	6176	481	-11.5	-20.8	287	4
2023-08-19T18:00	6205	479	-11.6	-21.9	284	4
2023-08-19T18:00	6237	477	-11.8	-22.6	280	4
2023-08-19T18:00	6262	476	-12.0	-21.9	276	4
2023-08-19T18:00	6289	474	-12.3	-21.1	273	4
2023-08-19T18:00	6316	473	-12.4	-21.0	272	4
2023-08-19T18:00	6341	471	-12.5	-21.0	272	4
2023-08-19T18:00	6366	469	-12.7	-21.2	274	4
2023-08-19T18:00	6394	468	-12.9	-20.8	277	4
2023-08-19T18:00	6420	466	-13.0	-20.8	280	4
2023-08-19T18:00	6449	464	-13.2	-20.6	283	4
2023-08-19T18:00	6474	463	-13.3	-20.5	285	4
2023-08-19T18:00	6504	461	-13.6	-18.6	285	4
2023-08-19T18:00	6532	459	-13.9	-17.1	284	4
2023-08-19T18:00	6564	457	-14.0	-16.8	281	4
2023-08-19T18:00	6588	456	-14.1	-17.8	277	3
2023-08-19T18:00	6614	454	-14.0	-18.5	271	3
2023-08-19T18:00	6640	453	-13.9	-18.8	265	3
2023-08-19T18:00	6665	451	-14.0	-19.1	260	3
2023-08-19T18:00	6692	450	-14.2	-19.9	257	4
2023-08-19T18:00	6718	448	-14.2	-20.8	256	4
2023-08-19T18:00	6748	446	-14.3	-22.0	257	4
2023-08-19T18:00	6773	445	-14.3	-21.9	259	4
2023-08-19T18:00	6804	443	-14.4	-24.8	263	4
2023-08-19T18:00	6834	441	-14.5	-27.4	269	4
2023-08-19T18:00	6858	440	-14.5	-29.2	278	4
2023-08-19T18:00	6879	439	-14.7	-30.5	290	4
2023-08-19T18:00	6898	438	-14.8	-31.4	302	4
2023-08-19T18:00	6916	437	-14.9	-32.1	311	4
2023-08-19T18:00	6935	435	-15.0	-32.4	316	4
2023-08-19T18:00	6964	434	-15.2	-32.8	318	4
2023-08-19T18:00	6992	432	-15.4	-33.3	317	5
2023-08-19T18:00	7019	431	-15.5	-33.6	316	5
2023-08-19T18:00	7045	429	-15.6	-34.1	314	6
2023-08-19T18:00	7070	428	-15.7	-34.5	312	6
2023-08-19T18:00	7091	427	-15.8	-35.0	310	7
2023-08-19T18:00	7113	425	-15.9	-35.6	308	7
2023-08-19T18:00	7136	424	-15.9	-36.8	305	7
2023-08-19T18:00	7158	423	-16.0	-37.0	303	8
2023-08-19T18:00	7178	422	-16.0	-37.3	300	8
2023-08-19T18:00	7200	420	-16.2	-37.6	298	7
2023-08-19T18:00	7227	419	-16.3	-37.8	295	7
2023-08-19T18:00	7255	417	-16.4	-38.0	293	7
2023-08-19T18:00	7283	416	-16.6	-37.9	292	6
2023-08-19T18:00	7311	414	-16.8	-37.7	291	6
2023-08-19T18:00	7341	413	-16.9	-37.2	291	5
2023-08-19T18:00	7369	411	-16.9	-36.9	292	5
2023-08-19T18:00	7391	410	-17.0	-36.9	295	4
2023-08-19T18:00	7417	409	-17.1	-36.7	298	3
2023-08-19T18:00	7442	407	-17.3	-36.8	304	3
2023-08-19T18:00	7465	406	-17.4	-36.3	316	2
2023-08-19T18:00	7494	404	-17.5	-35.9	337	1
2023-08-19T18:00	7517	403	-17.6	-35.5	1	1
2023-08-19T18:00	7543	402	-17.8	-35.5	16	1
2023-08-19T18:00	7566	400	-18.0	-35.5	23	2
2023-08-19T18:00	7588	399	-18.1	-35.1	28	2
2023-08-19T18:00	7609	398	-18.2	-34.7	33	2
2023-08-19T18:00	7630	397	-18.4	-34.5	37	3
2023-08-19T18:00	7651	396	-18.5	-34.4	39	3
2023-08-19T18:00	7678	394	-18.7	-34.2	37	4
2023-08-19T18:00	7707	393	-19.0	-33.9	32	4
2023-08-19T18:00	7731	392	-19.2	-33.3	25	4
2023-08-19T18:00	7757	390	-19.4	-32.8	20	5
2023-08-19T18:00	7778	389	-19.5	-32.3	16	5
2023-08-19T18:00	7804	388	-19.7	-32.1	15	6
2023-08-19T18:00	7832	386	-20.0	-31.9	14	6
2023-08-19T18:00	7855	385	-20.1	-31.5	13	6
2023-08-19T18:00	7878	384	-20.3	-31.3	11	6
2023-08-19T18:00	7904	383	-20.5	-30.8	9	6
2023-08-19T18:00	7929	381	-20.7	-30.8	6	6
2023-08-19T18:00	7957	380	-21.0	-30.9	4	6
2023-08-19T18:00	7978	379	-21.2	-30.9	4	6
2023-08-19T18:00	8001	378	-21.4	-30.9	4	6
2023-08-19T18:00	8026	376	-21.6	-31.5	5	6
2023-08-19T18:00	8049	375	-21.7	-32.1	5	7
2023-08-19T18:00	8070	374	-21.9	-32.3	6	7
2023-08-19T18:00	8094	373	-22.0	-32.9	6	7
2023-08-19T18:00	8118	372	-22.2	-33.9	6	7
2023-08-19T18:00	8143	370	-22.5	-34.2	6	7
2023-08-19T18:00	8169	369	-22.7	-34.4	5	7
2023-08-19T18:00	8193	368	-22.9	-34.9	3	7
2023-08-19T18:00	8216	367	-23.2	-36.1	1	7
2023-08-19T18:00	8242	365	-23.3	-40.2	359	7
2023-08-19T18:00	8271	364	-23.6	-40.1	357	7
2023-08-19T18:00	8296	363	-23.8	-40.7	356	7
2023-08-19T18:00	8323	361	-24.0	-40.9	355	7
2023-08-19T18:00	8344	360	-24.2	-38.5	354	7
2023-08-19T18:00	8363	359	-24.3	-38.1	352	7
2023-08-19T18:00	8385	358	-24.5	-36.5	349	7
2023-08-19T18:00	8406	357	-24.6	-39.2	345	7
2023-08-19T18:00	8429	356	-24.7	-40.2	342	7
2023-08-19T18:00	8455	355	-25.0	-40.7	339	7
2023-08-19T18:00	8475	354	-25.1	-41.3	337	7
2023-08-19T18:00	8496	353	-25.3	-41.9	335	7
2023-08-19T18:00	8518	352	-25.4	-41.6	334	8
2023-08-19T18:00	8538	351	-25.6	-40.4	332	8
2023-08-19T18:00	8565	350	-25.9	-39.4	330	8
2023-08-19T18:00	8594	348	-26.1	-37.9	328	8
2023-08-19T18:00	8619	347	-26.2	-36.0	327	7
2023-08-19T18:00	8640	346	-26.4	-36.5	327	7
2023-08-19T18:00	8662	345	-26.5	-36.6	328	7
2023-08-19T18:00	8683	344	-26.6	-36.2	328	7
2023-08-19T18:00	8704	343	-26.7	-36.4	328	6
2023-08-19T18:00	8731	342	-26.9	-37.0	328	6
2023-08-19T18:00	8757	340	-27.2	-37.5	327	6
2023-08-19T18:00	8781	339	-27.4	-37.8	326	6
2023-08-19T18:00	8802	338	-27.6	-38.0	324	6
2023-08-19T18:00	8823	337	-27.8	-38.2	324	6
2023-08-19T18:00	8844	336	-27.9	-38.1	323	6
2023-08-19T18:00	8864	335	-28.1	-38.1	323	6
2023-08-19T18:00	8886	334	-28.3	-38.6	323	6
2023-08-19T18:00	8908	333	-28.5	-38.9	323	6
2023-08-19T18:00	8931	332	-28.8	-38.8	322	6
2023-08-19T18:00	8954	331	-29.0	-38.5	322	6
2023-08-19T18:00	8982	330	-29.2	-38.3	322	7
2023-08-19T18:00	9011	329	-29.5	-38.7	322	7
2023-08-19T18:00	9037	327	-29.7	-38.4	322	7
2023-08-19T18:00	9060	326	-29.9	-38.4	321	7
2023-08-19T18:00	9089	325	-30.2	-38.3	321	7
2023-08-19T18:00	9114	324	-30.4	-38.4	321	7
2023-08-19T18:00	9143	323	-30.7	-38.9	320	7
2023-08-19T18:00	9171	321	-30.9	-39.4	320	8
2023-08-19T18:00	9198	320	-31.2	-39.3	319	8
2023-08-19T18:00	9224	319	-31.4	-39.0	319	8
2023-08-19T18:00	9250	318	-31.7	-39.2	319	8
2023-08-19T18:00	9276	317	-31.9	-39.0	319	8
2023-08-19T18:00	9299	315	-32.1	-38.5	318	8
2023-08-19T18:00	9328	314	-32.3	-39.0	317	8
2023-08-19T18:00	9359	313	-32.6	-39.7	316	8
2023-08-19T18:00	9384	312	-32.8	-39.5	315	8
2023-08-19T18:00	9412	311	-33.0	-39.2	316	8
2023-08-19T18:00	9443	309	-33.3	-39.3	316	9
2023-08-19T18:00	9468	308	-33.6	-39.8	317	9
2023-08-19T18:00	9491	307	-33.8	-39.8	318	9
2023-08-19T18:00	9516	306	-34.0	-39.8	318	9
2023-08-19T18:00	9541	305	-34.3	-40.2	319	10
2023-08-19T18:00	9565	304	-34.5	-39.5	319	10
2023-08-19T18:00	9591	303	-34.7	-39.2	320	9
2023-08-19T18:00	9614	302	-34.6	-40.5	320	9
2023-08-19T18:00	9636	301	-34.8	-40.8	320	9
2023-08-19T18:00	9662	300	-35.0	-41.0	319	9
2023-08-19T18:00	9691	298	-35.3	-41.7	319	8
2023-08-19T18:00	9721	297	-35.6	-42.5	319	8
2023-08-19T18:00	9746	296	-35.8	-42.5	321	8
2023-08-19T18:00	9768	295	-36.0	-42.6	323	8
2023-08-19T18:00	9796	294	-36.2	-42.5	325	8
2023-08-19T18:00	9824	293	-36.3	-42.8	327	8
2023-08-19T18:00	9849	292	-36.5	-42.8	327	9
2023-08-19T18:00	9877	290	-36.8	-42.8	326	9
2023-08-19T18:00	9906	289	-37.0	-42.9	324	9
2023-08-19T18:00	9926	288	-37.1	-42.9	321	10
2023-08-19T18:00	9947	287	-37.3	-42.7	317	10
2023-08-19T18:00	9978	286	-37.6	-42.3	314	10
2023-08-19T18:00	10009	285	-37.9	-42.0	312	10
2023-08-19T18:00	10032	284	-38.1	-42.7	312	10
2023-08-19T18:00	10058	283	-38.3	-43.1	312	10
2023-08-19T18:00	10086	282	-38.6	-42.9	311	10
2023-08-19T18:00	10112	281	-38.8	-43.0	311	10
2023-08-19T18:00	10137	280	-39.1	-43.3	310	10
2023-08-19T18:00	10160	279	-39.3	-43.5	309	11
2023-08-19T18:00	10181	278	-39.5	-43.8	309	11
2023-08-19T18:00	10205	277	-39.6	-43.5	310	11
2023-08-19T18:00	10230	276	-39.8		311	10
2023-08-19T18:00	10251	275	-40.0	-44.0	312	10
2023-08-19T18:00	10276	274	-40.3	-44.1	313	10
2023-08-19T18:00	10298	273	-40.5	-44.0	313	9
2023-08-19T18:00	10324	272	-40.7	-43.9	313	9
2023-08-19T18:00	10349	271	-40.9	-44.1	312	9
2023-08-19T18:00	10373	270	-41.1	-44.3	312	9
2023-08-19T18:00	10397	269	-41.3	-44.9	313	9
2023-08-19T18:00	10423	268	-41.5	-45.9	314	9
2023-08-19T18:00	10445	267	-41.6	-46.7	315	9
2023-08-19T18:00	10467	266	-41.8	-47.0	317	9
2023-08-19T18:00	10492	265	-41.9	-47.2	319	9
2023-08-19T18:00	10517	264	-42.1	-47.8	321	9
2023-08-19T18:00	10549	263	-42.3	-48.5	323	9
2023-08-19T18:00	10573	262	-42.6	-48.8	324	9
2023-08-19T18:00	10595	261	-42.8	-49.0	326	9
2023-08-19T18:00	10619	261	-42.9	-49.4	329	9
2023-08-19T18:00	10645	260	-43.2	-49.8	332	9
2023-08-19T18:00	10673	258	-43.4	-50.0	336	9
2023-08-19T18:00	10698	258	-43.6	-50.1	339	8
2023-08-19T18:00	10720	257	-43.8	-50.1	343	8
2023-08-19T18:00	10748	256	-44.1	-50.1	345	8
2023-08-19T18:00	10777	255	-44.4	-50.1	346	8
2023-08-19T18:00	10804	254	-44.6	-50.2	346	8
2023-08-19T18:00	10826	253	-44.8	-50.4	347	8
2023-08-19T18:00	10848	252	-45.0	-50.5	348	8
2023-08-19T18:00	10868	251	-45.2	-50.6	349	8
2023-08-19T18:00	10889	250	-45.4	-50.8	351	8
2023-08-19T18:00	10913	249	-45.5	-51.1	353	8
2023-08-19T18:00	10937	248	-45.7	-51.8	353	8
2023-08-19T18:00	10962	248	-45.9	-53.2	351	9
2023-08-19T18:00	10988	247	-46.0	-54.8	349	9
2023-08-19T18:00	11018	245	-46.0	-55.4	346	10
2023-08-19T18:00	11045	245	-46.0	-54.9	343	10
2023-08-19T18:00	11068	244	-46.1	-54.3	340	11
2023-08-19T18:00	11091	243	-46.3	-54.1	337	11
2023-08-19T18:00	11114	242	-46.5	-54.1	335	11
2023-08-19T18:00	11138	241	-46.7	-54.0	333	11
2023-08-19T18:00	11157	240	-46.9	-54.0	332	11
2023-08-19T18:00	11181	239	-47.2	-54.1	331	11
2023-08-19T18:00	11207	238	-47.4	-54.1	330	11
2023-08-19T18:00	11238	237	-47.7	-54.2	329	11
2023-08-19T18:00	11270	236	-48.0	-54.2	327	10
2023-08-19T18:00	11299	235	-48.3	-54.3	326	10
2023-08-19T18:00	11319	235	-48.5	-54.3	326	10
2023-08-19T18:00	11344	234	-48.7	-54.5	326	10
2023-08-19T18:00	11369	233	-48.8	-55.2	327	10
2023-08-19T18:00	11394	232	-48.9	-56.3	329	10
2023-08-19T18:00	11419	231	-49.0	-57.0	330	10
2023-08-19T18:00	11438	230	-49.1	-57.0	331	10
2023-08-19T18:00	11460	230	-49.2	-56.7	332	10
2023-08-19T18:00	11482	229	-49.4	-56.9	333	10
2023-08-19T18:00	11504	228	-49.5	-57.2	333	10
2023-08-19T18:00	11522	227	-49.6	-57.4	333	10
2023-08-19T18:00	11541	227	-49.8	-57.6	333	10
2023-08-19T18:00	11563	226	-49.9	-57.7	333	10
2023-08-19T18:00	11582	225	-50.0	-57.8	333	10
2023-08-19T18:00	11605	225	-50.2	-57.9	333	10
2023-08-19T18:00	11626	224	-50.3	-57.7	333	10
2023-08-19T18:00	11647	223	-50.5	-57.7	333	10
2023-08-19T18:00	11667	222	-50.7	-57.8	333	10
2023-08-19T18:00	11684	222	-50.8	-57.9	333	10
2023-08-19T18:00	11707	221	-51.0	-58.3	332	10
2023-08-19T18:00	11736	220	-51.2	-58.7	330	10
2023-08-19T18:00	11761	219	-51.3	-58.7	327	10
2023-08-19T18:00	11785	218	-51.5	-58.7	324	10
2023-08-19T18:00	11813	217	-51.7	-58.7	321	11
2023-08-19T18:00	11840	217	-51.8	-58.6	319	12
2023-08-19T18:00	11863	216	-52.0	-58.7	317	12
2023-08-19T18:00	11886	215	-52.2	-58.8	316	13
2023-08-19T18:00	11904	214	-52.4	-58.9	315	13
2023-08-19T18:00	11926	214	-52.6	-59.0	315	13
2023-08-19T18:00	11949	213	-52.8	-59.0	315	13
2023-08-19T18:00	11970	212	-53.0	-59.0	314	13
2023-08-19T18:00	11990	212	-53.2	-59.1	314	13
2023-08-19T18:00	12013	211	-53.4	-59.2	314	13
2023-08-19T18:00	12035	210	-53.6	-59.3	314	12
2023-08-19T18:00	12056	209	-53.8	-59.4	315	12
2023-08-19T18:00	12073	209	-53.9	-59.3	315	12
2023-08-19T18:00	12095	208	-54.1	-59.4	315	12
2023-08-19T18:00	12115	208	-54.2	-59.5	315	12
2023-08-19T18:00	12136	207	-54.4	-59.7	315	11
2023-08-19T18:00	12158	206	-54.5	-59.8	315	11
2023-08-19T18:00	12179	205	-54.6	-59.8	315	11
2023-08-19T18:00	12203	205	-54.8	-60.0	316	11
2023-08-19T18:00	12223	204	-55.0	-60.1	316	11
2023-08-19T18:00	12245	203	-55.1	-60.1	317	11
2023-08-19T18:00	12266	203	-55.2	-60.1	317	10
2023-08-19T18:00	12290	202	-55.4	-60.2	317	10
2023-08-19T18:00	12311	201	-55.6	-60.2	317	10
2023-08-19T18:00	12334	201	-55.8	-60.2	317	10
2023-08-19T18:00	12358	200	-56.0	-60.4	317	10
2023-08-19T18:00	12379	199	-56.2	-60.7	317	10
2023-08-19T18:00	12401	198	-56.2	-61.0	316	11
2023-08-19T18:00	12429	198	-56.4	-61.6	316	11
2023-08-19T18:00	12456	197	-56.5	-62.2	316	12
2023-08-19T18:00	12478	196	-56.2	-62.5	316	12
2023-08-19T18:00	12497	195	-56.1	-62.9	316	13
2023-08-19T18:00	12518	195	-56.3	-63.2	317	13
2023-08-19T18:00	12538	194	-56.4	-63.2	318	12
2023-08-19T18:00	12559	194	-56.5	-63.3	319	12
2023-08-19T18:00	12579	193	-56.6	-63.4	320	12
2023-08-19T18:00	12600	192	-56.8	-63.6	321	12
2023-08-19T18:00	12619	192	-57.0	-63.9	322	12
2023-08-19T18:00	12641	191	-57.0	-64.3	322	12
2023-08-19T18:00	12663	190	-56.9	-64.8	321	13
2023-08-19T18:00	12684	190	-56.7	-65.4	320	13
2023-08-19T18:00	12703	189	-56.3	-66.0	319	14
2023-08-19T18:00	12722	189	-56.2	-66.7	318	14
2023-08-19T18:00	12744	188	-56.1	-67.1	317	15
2023-08-19T18:00	12768	187	-56.1	-67.3	316	15
2023-08-19T18:00	12790	187	-55.9	-67.1	316	15
2023-08-19T18:00	12813	186	-56.1	-67.0	315	16
2023-08-19T18:00	12834	185	-56.3	-66.6	314	16
2023-08-19T18:00	12856	185	-56.5	-66.1	313	16
2023-08-19T18:00	12878	184	-56.7	-65.8	312	16
2023-08-19T18:00	12902	183	-56.9	-65.7	312	17
2023-08-19T18:00	12920	183	-57.1	-65.9	312	17
2023-08-19T18:00	12942	182	-57.2	-66.3	313	17
2023-08-19T18:00	12960	182	-57.3	-66.9	314	17
2023-08-19T18:00	12983	181	-57.4	-67.6	315	17
2023-08-19T18:00	13003	180	-57.5	-68.2	316	17
2023-08-19T18:00	13024	180	-57.7	-68.7	318	17
2023-08-19T18:00	13045	179	-57.8	-68.8	319	17
2023-08-19T18:00	13067	179	-58.0	-68.9	319	17
2023-08-19T18:00	13088	178	-58.1		320	16
2023-08-19T18:00	13109	177	-58.2	-69.0	319	16
2023-08-19T18:00	13129	177	-58.3	-69.0	319	16
2023-08-19T18:00	13150	176	-58.5	-69.1	318	16
2023-08-19T18:00	13170	176	-58.6	-69.0	318	16
2023-08-19T18:00	13190	175	-58.8	-69.0	317	16
2023-08-19T18:00	13210	175	-58.9	-69.0	317	16
2023-08-19T18:00	13232	174	-59.0	-69.1	316	16
2023-08-19T18:00	13252	173	-59.2	-69.3	316	16
2023-08-19T18:00	13273	173	-59.3	-69.4	315	16
2023-08-19T18:00	13293	172	-59.5	-69.5	315	16
2023-08-19T18:00	13315	172	-59.7	-69.5	315	16
2023-08-19T18:00	13334	171	-59.8	-69.5	315	16
2023-08-19T18:00	13353	171	-60.0	-69.6	315	16
2023-08-19T18:00	13373	170	-60.1	-69.8	316	16
2023-08-19T18:00	13395	169	-60.3	-70.1	317	15
2023-08-19T18:00	13421	169	-60.2	-70.3	318	15
2023-08-19T18:00	13448	168	-59.7	-70.1	319	14
2023-08-19T18:00	13472	167	-59.7	-70.5	319	14
2023-08-19T18:00	13493	167	-59.9	-70.9	318	14
2023-08-19T18:00	13512	166	-60.1	-71.2	317	14
2023-08-19T18:00	13533	166	-60.2	-71.3	316	14
2023-08-19T18:00	13552	165	-60.2	-71.3	314	14
2023-08-19T18:00	13573	165	-60.3	-71.4	313	14
2023-08-19T18:00	13596	164	-60.5	-71.7	312	14
2023-08-19T18:00	13618	164	-60.5	-71.8	311	14
2023-08-19T18:00	13639	163	-60.6	-72.2	311	14
2023-08-19T18:00	13660	162	-60.8	-73.0	312	14
2023-08-19T18:00	13679	162	-60.9	-74.1	312	14
2023-08-19T18:00	13700	161	-60.7	-75.4	314	14
2023-08-19T18:00	13723	161	-60.3	-76.6	315	14
2023-08-19T18:00	13745	160	-60.2	-77.8	316	14
2023-08-19T18:00	13765	160	-60.1	-78.3	316	13
2023-08-19T18:00	13784	159	-59.8	-78.2	316	13
2023-08-19T18:00	13804	159	-59.3	-77.7	314	12
2023-08-19T18:00	13826	158	-59.3	-77.5	312	12
2023-08-19T18:00	13848	158	-59.4	-77.4	310	12
2023-08-19T18:00	13869	157	-59.5	-77.3	309	12
2023-08-19T18:00	13890	157	-59.5	-77.1	308	12
2023-08-19T18:00	13912	156	-59.4	-77.1	308	12
2023-08-19T18:00	13932	156	-59.5	-77.3	309	12
2023-08-19T18:00	13951	155	-59.5	-77.7	309	11
2023-08-19T18:00	13970	155	-59.3	-78.1	308	11
2023-08-19T18:00	13991	154	-59.0	-78.7	307	10
2023-08-19T18:00	14011	154	-58.2	-79.3	305	10
2023-08-19T18:00	14029	153	-57.9	-80.0	303	9
2023-08-19T18:00	14053	153	-57.6	-80.5	302	9
2023-08-19T18:00	14073	152	-57.6	-80.7	301	9
2023-08-19T18:00	14094	152	-57.7	-80.6	300	9
2023-08-19T18:00	14115	151	-57.7	-80.4	299	8
2023-08-19T18:00	14136	151	-57.7	-80.4	297	9
2023-08-19T18:00	14157	150	-57.4	-80.0	297	9
2023-08-19T18:00	14176	150	-57.3	-79.9	296	9
2023-08-19T18:00	14195	149	-57.2	-79.8	297	9
2023-08-19T18:00	14216	149	-57.2	-79.6	298	9
2023-08-19T18:00	14238	148	-57.0	-79.6	300	9
2023-08-19T18:00	14260	148	-56.8	-79.7	301	9
2023-08-19T18:00	14280	147	-56.6	-79.7	303	9
2023-08-19T18:00	14301	147	-56.5	-79.8	304	9
2023-08-19T18:00	14323	146	-56.5	-80.0	304	8
2023-08-19T18:00	14345	146	-56.5	-80.2	303	8
2023-08-19T18:00	14365	145	-56.2	-80.1	300	8
2023-08-19T18:00	14389	145	-56.0	-80.2	297	8
2023-08-19T18:00	14409	144	-56.0	-80.6	294	8
2023-08-19T18:00	14433	144	-56.1	-80.7	292	8
2023-08-19T18:00	14455	143	-56.2	-80.8	290	8
2023-08-19T18:00	14476	143	-56.4	-80.9	290	8
2023-08-19T18:00	14498	142	-56.6	-81.1	291	8
2023-08-19T18:00	14520	142	-56.7	-81.2	292	8
2023-08-19T18:00	14543	141	-56.7	-81.2	294	8
2023-08-19T18:00	14564	141	-56.5	-81.2	296	7
2023-08-19T18:00	14587	140	-56.4	-81.1	298	7
2023-08-19T18:00	14613	140	-56.4	-81.4	298	6
2023-08-19T18:00	14633	139	-56.3	-81.3	296	6
2023-08-19T18:00	14655	139	-56.2	-81.0	292	5
2023-08-19T18:00	14679	138	-56.2	-81.0	287	5
2023-08-19T18:00	14703	138	-56.3	-80.8	282	5
2023-08-19T18:00	14727	137	-56.4	-80.7	277	5
2023-08-19T18:00	14750	137	-56.6	-80.9	274	6
2023-08-19T18:00	14776	136	-56.8	-80.8	272	6
2023-08-19T18:00	14801	136	-57.0	-81.0	271	6
2023-08-19T18:00	14823	135	-57.1	-80.8	270	7
2023-08-19T18:00	14845	135	-57.1	-80.8	271	7
2023-08-19T18:00	14867	134	-57.3	-81.0	273	7
2023-08-19T18:00	14891	134	-57.4	-80.9	275	8
2023-08-19T18:00	14913	133	-57.5	-81.0	278	8
2023-08-19T18:00	14936	133	-57.5	-81.0	281	8
2023-08-19T18:00	14960	132	-57.5	-81.0	284	8
2023-08-19T18:00	14982	132	-57.5	-81.0	288	8
2023-08-19T18:00	15003	131	-57.5	-81.0	291	8
2023-08-19T18:00	15026	131	-57.4	-81.1	293	8
2023-08-19T18:00	15047	130	-57.1	-81.0	295	8
2023-08-19T18:00	15070	130	-57.0	-81.0	297	7
2023-08-19T18:00	15093	129	-57.0	-81.0	298	7
2023-08-19T18:00	15116	129	-57.1	-81.2	298	7
2023-08-19T18:00	15134	129	-57.1	-81.2	297	7
2023-08-19T18:00	15158	128	-57.1	-81.2	295	7
2023-08-19T18:00	15178	128	-57.0	-81.2	294	7
2023-08-19T18:00	15198	127	-57.0	-81.2	293	7
2023-08-19T18:00	15219	127	-57.1	-81.5	292	7
2023-08-19T18:00	15241	126	-57.1	-81.5	292	6
2023-08-19T18:00	15261	126	-57.1	-81.5	290	6
2023-08-19T18:00	15283	126	-56.9	-81.5	289	5
2023-08-19T18:00	15305	125	-56.8	-81.5	286	5
2023-08-19T18:00	15326	125	-56.6	-81.5	285	5
2023-08-19T18:00	15344	124	-56.5	-81.5	285	5
2023-08-19T18:00	15363	124	-56.5	-81.5	285	5
2023-08-19T18:00	15384	124	-56.6	-81.5	285	5
2023-08-19T18:00	15405	123	-56.7	-81.6	286	6
2023-08-19T18:00	15425	123	-56.8	-81.5	286	6
2023-08-19T18:00	15446	122	-56.8	-81.5	285	5
2023-08-19T18:00	15466	122	-56.9	-81.5	283	5
2023-08-19T18:00	15487	122	-57.1	-81.7	281	5
2023-08-19T18:00	15508	121	-57.1	-81.7	279	5
2023-08-19T18:00	15528	121	-57.1	-81.7	277	5
2023-08-19T18:00	15548	120	-57.2	-81.8	276	5
2023-08-19T18:00	15571	120	-57.2	-81.8	274	4
2023-08-19T18:00	15592	120	-57.3	-81.8	272	4
2023-08-19T18:00	15612	119	-57.4	-81.9	268	4
2023-08-19T18:00	15635	119	-57.4	-81.9	260	4
2023-08-19T18:00	15655	118	-57.3	-81.8	252	4
2023-08-19T18:00	15676	118	-57.3	-81.8	245	4
2023-08-19T18:00	15701	118	-57.4	-82.2	241	5
2023-08-19T18:00	15722	117	-57.5	-82.2	240	5
2023-08-19T18:00	15746	117	-57.5	-82.2	241	5
2023-08-19T18:00	15769	116	-57.5	-82.2	243	5
2023-08-19T18:00	15792	116	-57.5	-82.2	245	5
2023-08-19T18:00	15812	116	-57.4	-82.4	246	6
2023-08-19T18:00	15836	115	-57.2	-82.2	247	6
2023-08-19T18:00	15859	115	-57.1	-82.2	248	6
2023-08-19T18:00	15882	114	-57.2	-82.5	249	6
2023-08-19T18:00	15905	114	-57.2	-82.5	251	7
2023-08-19T18:00	15928	113	-57.3	-82.6	253	7
2023-08-19T18:00	15950	113	-57.4	-82.7	255	7
2023-08-19T18:00	15972	113	-57.2	-82.8	257	7
2023-08-19T18:00	15996	112	-57.0	-82.6	258	7
2023-08-19T18:00	16019	112	-57.1	-82.7	257	8
2023-08-19T18:00	16041	111	-56.9	-82.8	256	8
2023-08-19T18:00	16060	111	-56.5	-82.8	254	8
2023-08-19T18:00	16084	111	-56.5	-82.8	252	8
2023-08-19T18:00	16108	110	-56.5	-83.1	249	8
2023-08-19T18:00	16127	110	-56.5	-83.1	245	8
2023-08-19T18:00	16152	110	-56.4	-82.7	241	8
2023-08-19T18:00	16177	109	-56.5	-83.1	237	8
2023-08-19T18:00	16201	109	-56.5	-83.1	234	8
2023-08-19T18:00	16224	108	-56.2	-82.9	233	8
2023-08-19T18:00	16245	108	-56.3	-82.9	233	8
2023-08-19T18:00	16266	108	-56.4	-82.7	234	8
2023-08-19T18:00	16290	107	-56.7	-82.9	237	8
2023-08-19T18:00	16313	107	-56.9	-83.1	240	8
2023-08-19T18:00	16335	106	-56.9	-82.8	244	7
2023-08-19T18:00	16359	106	-56.6	-82.6	247	7
2023-08-19T18:00	16380	106	-56.4	-82.7	249	8
2023-08-19T18:00	16402	105	-56.3	-82.6	251	8
2023-08-19T18:00	16426	105	-56.1	-82.5	253	9
2023-08-19T18:00	16446	105	-56.1	-82.5	255	9
2023-08-19T18:00	16468	104	-56.1	-82.5	257	9
2023-08-19T18:00	16489	104	-56.1	-82.5	259	8
2023-08-19T18:00	16511	103	-56.1	-82.5	261	8
2023-08-19T18:00	16537	103	-56.1	-82.5	264	7
2023-08-19T18:00	16556	103	-55.9	-82.6	265	6
2023-08-19T18:00	16576	102	-55.7	-82.5	266	6
2023-08-19T18:00	16600	102	-55.6	-82.7	266	5
2023-08-19T18:00	16623	102	-55.5	-82.6	265	5
2023-08-19T18:00	16642	101	-55.4	-82.6	263	5
2023-08-19T18:00	16666	101	-55.3	-82.5	261	5
2023-08-19T18:00	16687	101	-55.3	-82.5	258	5
2023-08-19T18:00	16708	100	-55.3	-82.8	254	5
2023-08-19T18:00	16731	100	-55.3	-82.8	248	5
2023-08-19T18:00	16752	100	-55.3	-82.8	241	5
2023-08-19T18:00	16777	99	-55.3	-82.5	233	5
2023-08-19T18:00	16796	99	-55.4	-82.6	226	5
2023-08-19T18:00	16822	99	-55.3	-82.5	222	5
2023-08-19T18:00	16845	98	-55.4	-82.6	220	5
2023-08-19T18:00	16866	98	-55.5	-83.0	222	5
2023-08-19T18:00	16889	98	-55.4	-82.9	227	5
2023-08-19T18:00	16914	97	-55.1	-82.7	231	5
2023-08-19T18:00	16936	97	-55.2	-82.7	234	5
2023-08-19T18:00	16957	97	-55.3	-82.8	236	5
2023-08-19T18:00	16980	96	-55.4	-82.9	235	5
2023-08-19T18:00	17001	96	-55.4	-82.9	233	4
2023-08-19T18:00	17022	96	-55.3	-82.8	230	4
2023-08-19T18:00	17047	95	-55.3	-82.8	227	3
2023-08-19T18:00	17068	95	-55.4	-82.9	223	3
2023-08-19T18:00	17090	95	-55.5	-83.0	220	3
2023-08-19T18:00	17114	94	-55.6	-83.1	217	2
2023-08-19T18:00	17136	94	-55.6	-83.1	213	2
2023-08-19T18:00	17159	93	-55.7	-83.1	210	3
2023-08-19T18:00	17182	93	-55.7	-83.1	208	3
2023-08-19T18:00	17205	93	-55.8	-83.2	208	3
2023-08-19T18:00	17229	92	-55.9	-83.3	209	3
2023-08-19T18:00	17253	92	-56.0	-83.0	212	3
2023-08-19T18:00	17273	92	-56.0	-83.0	216	3
2023-08-19T18:00	17296	92	-56.2	-83.2	219	3
2023-08-19T18:00	17317	91	-56.3	-83.3	221	3
2023-08-19T18:00	17339	91	-56.4	-83.3	222	4
2023-08-19T18:00	17363	91	-56.3	-83.3	223	4
2023-08-19T18:00	17384	90	-56.4	-83.3	225	4
2023-08-19T18:00	17403	90	-56.6	-83.5	226	4
2023-08-19T18:00	17425	90	-56.7	-83.6	229	5
2023-08-19T18:00	17448	89	-56.8	-83.6	232	5
2023-08-19T18:00	17470	89	-56.9	-83.7	235	5
2023-08-19T18:00	17491	89	-57.0	-83.8	238	4
2023-08-19T18:00	17514	88	-57.1	-83.9	241	4
2023-08-19T18:00	17536	88	-57.2	-83.9	243	4
2023-08-19T18:00	17557	88	-57.3	-84.0	244	3
2023-08-19T18:00	17581	87	-57.3	-83.7	243	3
2023-08-19T18:00	17601	87	-57.4	-83.8	241	3
2023-08-19T18:00	17628	87	-57.4	-83.8	236	2
2023-08-19T18:00	17648	87	-57.4	-84.1	228	2
2023-08-19T18:00	17668	86	-57.4	-84.1	218	2
2023-08-19T18:00	17688	86	-57.2	-83.9	206	2
2023-08-19T18:00	17713	86	-57.2	-83.9	192	1
2023-08-19T18:00	17733	85	-57.1	-83.9	177	1
2023-08-19T18:00	17755	85	-57.1	-84.2	166	1
2023-08-19T18:00	17778	85	-56.8	-84.0	161	1
2023-08-19T18:00	17800	85	-56.7	-83.9	164	1
2023-08-19T18:00	17824	84	-56.7	-83.9	170	2
2023-08-19T18:00	17846	84	-56.5	-83.7	176	2
2023-08-19T18:00	17870	84	-56.2	-83.5	180	2
2023-08-19T18:00	17892	83	-56.4	-83.7	183	3
2023-08-19T18:00	17914	83	-56.5	-83.7	185	3
2023-08-19T18:00	17937	83	-56.6	-83.8	189	4
2023-08-19T18:00	17960	82	-56.7	-83.6	194	4
2023-08-19T18:00	17983	82	-56.9	-83.7	201	5
2023-08-19T18:00	18006	82	-57.0	-83.8	208	5
2023-08-19T18:00	18029	82	-57.1	-83.9	215	6
2023-08-19T18:00	18052	81	-57.1	-83.9	221	7
2023-08-19T18:00	18075	81	-57.1	-83.9	227	7
2023-08-19T18:00	18098	81	-57.1	-83.9	231	8
2023-08-19T18:00	18120	80	-57.2	-83.9	235	8
2023-08-19T18:00	18145	80	-57.1	-83.9	240	8
2023-08-19T18:00	18168	80	-57.0	-84.1	245	7
2023-08-19T18:00	18194	79	-56.9	-83.7	251	7
2023-08-19T18:00	18216	79	-57.0	-83.8	258	6
2023-08-19T18:00	18239	79	-57.0	-83.8	265	6
2023-08-19T18:00	18263	79	-57.2	-83.9	272	6
2023-08-19T18:00	18283	78	-57.2	-83.9	279	6
2023-08-19T18:00	18305	78	-57.1	-83.9	285	6
2023-08-19T18:00	18330	78	-56.9	-84.0	290	5
2023-08-19T18:00	18354	77	-56.9	-84.0	295	5
2023-08-19T18:00	18379	77	-56.9	-84.0	298	5
2023-08-19T18:00	18399	77	-56.7	-83.9	299	4
2023-08-19T18:00	18425	77	-56.8	-84.0	300	4
2023-08-19T18:00	18449	76	-56.9	-84.0	299	3
2023-08-19T18:00	18470	76	-56.9	-84.0	298	3
2023-08-19T18:00	18494	76	-57.0	-84.1	297	2
2023-08-19T18:00	18517	75	-57.0	-84.1	295	2
2023-08-19T18:00	18541	75	-56.8	-84.0	290	1
2023-08-19T18:00	18563	75	-56.8	-84.0	280	1
2023-08-19T18:00	18587	75	-56.8	-84.0	236	0
2023-08-19T18:00	18611	74	-57.0	-84.1	133	0
2023-08-19T18:00	18637	74	-57.2	-83.9	119	1
2023-08-19T18:00	18661	74	-57.2	-83.9	116	2
2023-08-19T18:00	18687	73	-57.4	-84.1	117	2
2023-08-19T18:00	18711	73	-57.4	-84.1	121	3
2023-08-19T18:00	18736	73	-57.5	-84.2	125	3
2023-08-19T18:00	18760	73	-57.6	-84.3	130	4
2023-08-19T18:00	18784	72	-57.6	-84.3	135	4
2023-08-19T18:00	18807	72	-57.7	-84.3	140	5
2023-08-19T18:00	18833	72	-57.8	-84.4	145	5
2023-08-19T18:00	18856	72	-57.9	-84.5	150	5
2023-08-19T18:00	18882	71	-57.8	-84.4	155	5
2023-08-19T18:00	18903	71	-57.7	-84.3	160	5
2023-08-19T18:00	18927	71	-57.9	-84.5	165	5
2023-08-19T18:00	18952	70	-58.0	-84.6	171	5
2023-08-19T18:00	18976	70	-57.9	-84.5	177	5
2023-08-19T18:00	19001	70	-57.9	-84.8	183	5
2023-08-19T18:00	19025	70	-57.8	-84.7	188	5
2023-08-19T18:00	19048	69	-57.4	-84.4	193	5
2023-08-19T18:00	19072	69	-57.3	-84.4	198	5
2023-08-19T18:00	19103	69	-57.3	-84.4	202	6
2023-08-19T18:00	19125	69	-57.5	-84.5	207	6
2023-08-19T18:00	19149	68	-57.6	-84.6	211	6
2023-08-19T18:00	19174	68	-57.7	-84.7	216	5
2023-08-19T18:00	19198	68	-57.8	-84.7	222	5
2023-08-19T18:00	19223	67	-57.8	-84.7	228	5
2023-08-19T18:00	19248	67	-57.6	-84.6	235	5
2023-08-19T18:00	19271	67	-57.7	-84.7	242	5
2023-08-19T18:00	19294	67	-57.7	-84.7	249	5
2023-08-19T18:00	19320	66	-57.7	-84.7	256	5
2023-08-19T18:00	19341	66	-57.8	-84.7	263	5
2023-08-19T18:00	19366	66	-57.7	-84.7	271	5
2023-08-19T18:00	19390	66	-57.7	-84.7	278	5
2023-08-19T18:00	19414	65	-57.7	-84.7	284	5
2023-08-19T18:00	19436	65	-57.7	-84.7	291	5
2023-08-19T18:00	19458	65	-57.8	-84.7	298	4
2023-08-19T18:00	19485	65	-57.9	-84.8	307	4
2023-08-19T18:00	19505	65	-57.9	-84.8	317	3
2023-08-19T18:00	19527	64	-57.9	-84.8	329	3
2023-08-19T18:00	19551	64	-58.0	-84.9	340	3
2023-08-19T18:00	19573	64	-57.8	-84.7	349	2
2023-08-19T18:00	19594	64	-57.7	-85.0	354	2
2023-08-19T18:00	19619	63	-57.4	-84.8	352	1
2023-08-19T18:00	19645	63	-57.2	-84.6	343	1
2023-08-19T18:00	19666	63	-57.1	-84.6	330	1
2023-08-19T18:00	19689	63	-57.0	-84.5	320	1
2023-08-19T18:00	19714	62	-57.1	-84.6	319	1
2023-08-19T18:00	19736	62	-57.3	-84.4	322	1
2023-08-19T18:00	19757	62	-57.5	-84.5	330	0
2023-08-19T18:00	19781	62	-57.5	-84.5	342	0
2023-08-19T18:00	19807	62	-57.5	-84.5	38	0
2023-08-19T18:00	19827	61	-57.5	-84.5	110	0
2023-08-19T18:00	19850	61	-57.5	-84.5	117	1
2023-08-19T18:00	19875	61	-57.5	-84.5	112	1
2023-08-19T18:00	19898	61	-57.5	-84.5	105	1
2023-08-19T18:00	19920	60	-57.5	-84.5	96	1
2023-08-19T18:00	19944	60	-57.6	-84.6	88	2
2023-08-19T18:00	19968	60	-57.5	-84.5	81	2
2023-08-19T18:00	19990	60	-57.6	-84.6	76	2
2023-08-19T18:00	20013	60	-57.7	-84.7	73	2
2023-08-19T18:00	20036	59	-57.8	-84.7	74	2
2023-08-19T18:00	20060	59	-57.9	-84.8	81	2
2023-08-19T18:00	20085	59	-57.9	-84.8	95	1
2023-08-19T18:00	20112	59	-57.9	-84.8	112	1
2023-08-19T18:00	20133	58	-57.9	-84.8	127	1
2023-08-19T18:00	20159	58	-57.9	-84.8	138	1
2023-08-19T18:00	20182	58	-57.9	-84.8	146	1
2023-08-19T18:00	20204	58	-57.8	-84.7	149	1
2023-08-19T18:00	20230	58	-57.7	-84.7	97	0
2023-08-19T18:00	20252	57	-57.8	-84.7	19	1
2023-08-19T18:00	20279	57	-57.9	-84.8	22	1
2023-08-19T18:00	20301	57	-57.9	-85.2	31	1
2023-08-19T18:00	20327	57	-57.8	-85.1	44	2
2023-08-19T18:00	20350	56	-57.6	-84.9	59	2
2023-08-19T18:00	20375	56	-57.3	-84.7	74	2
2023-08-19T18:00	20400	56	-57.1	-84.6	88	2
2023-08-19T18:00	20423	56	-56.9	-84.4	99	3
2023-08-19T18:00	20453	56	-56.8	-84.3	107	3
2023-08-19T18:00	20472	55	-56.8	-84.3	111	3
2023-08-19T18:00	20499	55	-56.7	-84.2	113	3
2023-08-19T18:00	20521	55	-56.8	-84.3	114	2
2023-08-19T18:00	20547	55	-56.9	-84.4	112	2
2023-08-19T18:00	20574	54	-56.7	-84.2	108	2
2023-08-19T18:00	20599	54	-56.8	-84.3	100	1
2023-08-19T18:00	20622	54	-56.9	-84.4	84	1
2023-08-19T18:00	20646	54	-57.0	-84.1	66	1
2023-08-19T18:00	20674	54	-57.0	-84.1	55	2
2023-08-19T18:00	20695	53	-57.1	-84.6	52	2
2023-08-19T18:00	20720	53	-57.1	-84.6	51	3
2023-08-19T18:00	20747	53	-57.1	-84.6	53	3
2023-08-19T18:00	20771	53	-57.1	-84.6	57	4
2023-08-19T18:00	20797	53	-57.0	-84.5	62	4
2023-08-19T18:00	20821	52	-56.8	-84.3	69	4
2023-08-19T18:00	20845	52	-56.9	-84.4	75	4
2023-08-19T18:00	20869	52	-56.8	-84.3	80	4
2023-08-19T18:00	20891	52	-56.6	-84.2	83	4
2023-08-19T18:00	20913	52	-56.6	-84.2	84	4
2023-08-19T18:00	20938	51	-56.5	-84.1	82	4
2023-08-19T18:00	20966	51	-56.4	-84.0	78	4
2023-08-19T18:00	20986	51	-56.5	-84.1	74	4
2023-08-19T18:00	21013	51	-56.5	-84.1	70	5
2023-08-19T18:00	21037	51	-56.4	-84.0	68	5
2023-08-19T18:00	21061	50	-56.3	-83.9	67	6
2023-08-19T18:00	21086	50	-56.3	-83.9	68	6
2023-08-19T18:00	21110	50	-56.3	-83.9	70	7
2023-08-19T18:00	21134	50	-56.3	-83.9	73	7
2023-08-19T18:00	21159	50	-56.3	-83.9	78	8
2023-08-19T18:00	21185	49	-56.5	-84.1	82	8
2023-08-19T18:00	21208	49	-56.4	-84.0	87	8
2023-08-19T18:00	21233	49	-56.3	-83.9	92	8
2023-08-19T18:00	21256	49	-56.2	-83.9	96	8
2023-08-19T18:00	21282	49	-56.3	-83.9	99	8
2023-08-19T18:00	21303	49	-56.3	-83.9	100	8
2023-08-19T18:00	21328	48	-56.3	-83.9	100	8
2023-08-19T18:00	21356	48	-56.1	-83.8	99	8
2023-08-19T18:00	21373	48	-56.1	-83.8	99	8
2023-08-19T18:00	21401	48	-56.3	-83.9	99	8
2023-08-19T18:00	21422	48	-56.3	-83.9	101	8
2023-08-19T18:00	21446	47	-56.3	-83.9	102	7
2023-08-19T18:00	21472	47	-56.4	-84.0	104	7
2023-08-19T18:00	21495	47	-56.5	-84.1	105	7
2023-08-19T18:00	21518	47	-56.6	-84.2	106	7
2023-08-19T18:00	21542	47	-56.6	-84.2	109	7
2023-08-19T18:00	21569	47	-56.6	-84.2	112	7
2023-08-19T18:00	21594	46	-56.6	-84.2	116	8
2023-08-19T18:00	21615	46	-56.3	-83.9	121	8
2023-08-19T18:00	21643	46	-56.2	-83.9	125	8
2023-08-19T18:00	21666	46	-56.2	-83.9	128	8
2023-08-19T18:00	21694	46	-56.4	-84.0	131	8
2023-08-19T18:00	21716	46	-56.5	-84.1	131	7
2023-08-19T18:00	21740	45	-56.5	-84.1	130	7
2023-08-19T18:00	21765	45	-56.4	-84.0	128	7
2023-08-19T18:00	21798	45	-56.1	-84.2	124	6
2023-08-19T18:00	21819	45	-55.7	-83.9	118	6
2023-08-19T18:00	21843	45	-55.6	-83.8	112	5
2023-08-19T18:00	21865	44	-55.7	-83.9	104	5
2023-08-19T18:00	21890	44	-55.7	-83.9	95	5
2023-08-19T18:00	21919	44	-55.7	-83.9	87	5
2023-08-19T18:00	21940	44	-55.8	-83.9	81	5
2023-08-19T18:00	21967	44	-55.8	-83.9	78	6
2023-08-19T18:00	21993	44	-55.8	-83.9	77	6
2023-08-19T18:00	22020	43	-55.8	-83.9	79	7
2023-08-19T18:00	22048	43	-55.5	-83.7	83	7
2023-08-19T18:00	22070	43	-55.5	-83.7	86	8
2023-08-19T18:00	22096	43	-55.5	-83.7	89	8
2023-08-19T18:00	22123	43	-55.5	-83.7	91	8
2023-08-19T18:00	22144	43	-55.4	-83.6	92	8
2023-08-19T18:00	22171	42	-55.4	-83.6	92	8
2023-08-19T18:00	22195	42	-55.3	-83.6	92	8
2023-08-19T18:00	22219	42	-55.3	-83.6	93	7
2023-08-19T18:00	22244	42	-55.2	-83.5	94	7
2023-08-19T18:00	22272	42	-55.0		94	7
2023-08-19T18:00	22296	42	-54.9	-83.7	94	6
2023-08-19T18:00	22318	41	-54.9	-83.7	92	6
2023-08-19T18:00	22345	41	-54.8	-83.6	90	6
2023-08-19T18:00	22371	41	-54.8	-83.2	87	6
2023-08-19T18:00	22394	41	-54.8	-83.2	84	6
2023-08-19T18:00	22422	41	-54.9	-83.3	81	6
2023-08-19T18:00	22448	41	-55.0		77	7
2023-08-19T18:00	22472	40	-55.2	-83.5	74	7
2023-08-19T18:00	22501	40	-55.3	-83.6	71	8
2023-08-19T18:00	22520	40	-55.3	-83.6	69	9
2023-08-19T18:00	22549	40	-55.3	-83.6	69	10
2023-08-19T18:00	22573	40	-55.2	-83.5	69	10
2023-08-19T18:00	22596	40	-55.2	-83.5	71	11
2023-08-19T18:00	22619	40	-55.3	-83.6	73	11
2023-08-19T18:00	22643	39	-55.4	-83.6	77	11
2023-08-19T18:00	22672	39	-55.5	-83.7	82	10
2023-08-19T18:00	22697	39	-55.6	-83.8	87	10
2023-08-19T18:00	22726	39	-55.6	-83.8	94	10
2023-08-19T18:00	22752	39	-55.5	-83.7	100	9
2023-08-19T18:00	22773	39	-55.5	-83.7	106	9
2023-08-19T18:00	22801	38	-55.5	-83.7	111	8
2023-08-19T18:00	22825	38	-55.4	-83.6	116	8
2023-08-19T18:00	22853	38	-55.0	-83.7	119	7
2023-08-19T18:00	22879	38	-54.9	-83.7	122	7
2023-08-19T18:00	22902	38	-54.9	-83.7	123	7
2023-08-19T18:00	22926	38	-54.7	-83.5	123	7
2023-08-19T18:00	22951	38	-54.6	-83.4	121	7
2023-08-19T18:00	22978	37	-54.5	-83.4	120	7
2023-08-19T18:00	23003	37	-54.5	-83.4	119	7
2023-08-19T18:00	23025	37	-54.4	-83.3	119	7
2023-08-19T18:00	23056	37	-54.3	-83.2	120	6
2023-08-19T18:00	23077	37	-54.3	-83.2	121	6
2023-08-19T18:00	23102	37	-54.4	-83.3	121	5
2023-08-19T18:00	23133	36	-54.5	-83.4	120	5
2023-08-19T18:00	23161	36	-54.7	-83.5	115	4
2023-08-19T18:00	23180	36	-54.5	-83.4	108	4
2023-08-19T18:00	23211	36	-54.4	-83.3	101	4
2023-08-19T18:00	23236	36	-54.2	-83.1	94	4
2023-08-19T18:00	23264	36	-54.1	-83.1	88	4
2023-08-19T18:00	23287	36	-54.0	-83.4	83	5
2023-08-19T18:00	23311	35	-53.8	-83.3	79	5
2023-08-19T18:00	23335	35	-53.5	-83.0	76	5
2023-08-19T18:00	23364	35	-53.5	-83.0	74	6
2023-08-19T18:00	23388	35	-53.6	-83.1	73	7
2023-08-19T18:00	23415	35	-53.6	-83.1	72	7
2023-08-19T18:00	23439	35	-53.4	-83.0	70	8
2023-08-19T18:00	23462	35	-53.3	-82.9	69	8
2023-08-19T18:00	23493	34	-53.1	-82.7	66	8
2023-08-19T18:00	23516	34	-53.1	-82.7	63	8
2023-08-19T18:00	23546	34	-52.8	-82.5	59	8
2023-08-19T18:00	23569	34	-52.8	-82.5	55	7
2023-08-19T18:00	23595	34	-52.9	-82.6	52	7
2023-08-19T18:00	23624	34	-53.1	-82.7	49	7
2023-08-19T18:00	23647	34	-53.1	-82.7	48	7
2023-08-19T18:00	23674	34	-53.0	-82.7	49	7
2023-08-19T18:00	23700	33	-53.0	-82.7	52	7
2023-08-19T18:00	23728	33	-53.0	-82.7	55	7
2023-08-19T18:00	23754	33	-53.1	-82.3	60	7
2023-08-19T18:00	23776	33	-53.2	-82.4	65	8
2023-08-19T18:00	23807	33	-53.4	-82.5	69	8
2023-08-19T18:00	23831	33	-53.6	-82.7	74	8
2023-08-19T18:00	23859	33	-53.5	-82.6	78	8
2023-08-19T18:00	23881	32	-53.3	-82.5	82	8
2023-08-19T18:00	23915	32	-53.3	-82.5	84	8
2023-08-19T18:00	23939	32	-53.3	-82.5	85	8
2023-08-19T18:00	23965	32	-53.4	-82.5	85	8
2023-08-19T18:00	23994	32	-53.6	-82.7	84	8
2023-08-19T18:00	24017	32	-53.7	-82.8	82	8
2023-08-19T18:00	24043	32	-53.8	-82.8	81	8
2023-08-19T18:00	24076	32	-54.0	-83.0	80	8
2023-08-19T18:00	24097	31	-54.1	-83.1	81	9
2023-08-19T18:00	24122	31	-54.1	-83.1	82	9
2023-08-19T18:00	24149	31	-54.0	-83.0	84	9
2023-08-19T18:00	24178	31	-53.9	-82.9	87	8
2023-08-19T18:00	24201	31	-53.9	-82.9	91	8
2023-08-19T18:00	24230	31	-54.0	-83.0	96	8
2023-08-19T18:00	24253	31	-54.1	-83.1	101	7
2023-08-19T18:00	24283	30	-54.0	-83.0	107	7
2023-08-19T18:00	24308	30	-53.9	-82.9	111	7
2023-08-19T18:00	24336	30	-53.9	-82.9	115	7
2023-08-19T18:00	24357	30	-53.9	-82.9	119	7
2023-08-19T18:00	24385	30	-53.8	-82.8	124	8
2023-08-19T18:00	24412	30	-53.8	-83.3	129	8
2023-08-19T18:00	24436	30	-53.8	-83.3	135	8
2023-08-19T18:00	24464	30	-53.6	-83.1	140	7
2023-08-19T18:00	24494	30	-53.5	-83.0	144	7
2023-08-19T18:00	24515	29	-53.5	-83.0	148	7
2023-08-19T18:00	24542	29	-53.3	-82.9	150	6
2023-08-19T18:00	24571	29	-53.0	-82.7	150	5
2023-08-19T18:00	24592	29	-52.8	-82.5	148	5
2023-08-19T18:00	24623	29	-52.8	-82.5	142	4
2023-08-19T18:00	24650	29	-53.0	-82.7	130	4
2023-08-19T18:00	24688	29	-52.9	-82.6	113	3
2023-08-19T18:00	24708	29	-52.9	-82.6	95	3
2023-08-19T18:00	24738	28	-52.8	-82.5	79	4
2023-08-19T18:00	24761	28	-52.7	-82.4	68	4
2023-08-19T18:00	24791	28	-52.6	-82.4	61	5
2023-08-19T18:00	24815	28	-52.5	-82.3	56	5
2023-08-19T18:00	24845	28	-52.5	-82.3	53	5
2023-08-19T18:00	24867	28	-52.5	-82.3	51	5
2023-08-19T18:00	24901	28	-52.6	-82.4	50	5
2023-08-19T18:00	24918	28	-52.8	-82.5	49	5
2023-08-19T18:00	24950	27	-52.9	-82.6	48	4
2023-08-19T18:00	24976	27	-53.0	-82.7	47	4
2023-08-19T18:00	24999	27	-53.1	-82.7	44	3
2023-08-19T18:00	25036	27	-53.3	-82.9	36	2
2023-08-19T18:00	25057	27	-53.2	-82.8	22	2
2023-08-19T18:00	25087	27	-52.8	-82.5	2	2
2023-08-19T18:00	25114	27	-52.8	-82.5	348	2
2023-08-19T18:00	25139	27	-52.6	-82.8	345	2
2023-08-19T18:00	25169	27	-52.5	-82.8	349	2
2023-08-19T18:00	25194	26	-52.4	-82.7	356	3
2023-08-19T18:00	25226	26	-52.0	-82.4	4	4
2023-08-19T18:00	25253	26	-51.6	-82.6	11	4
2023-08-19T18:00	25278	26	-51.2	-82.3	17	5
2023-08-19T18:00	25310	26	-51.0	-82.2	23	6
2023-08-19T18:00	25332	26	-51.0	-82.2	28	6
2023-08-19T18:00	25362	26	-51.0	-82.2	32	7
2023-08-19T18:00	25397	26	-51.0	-81.6	34	7
2023-08-19T18:00	25415	26	-51.1	-81.7	36	7
2023-08-19T18:00	25447	25	-51.3	-81.9	38	7
2023-08-19T18:00	25474	25	-51.4	-81.9	40	7
2023-08-19T18:00	25507	25	-51.1	-81.7	43	7
2023-08-19T18:00	25534	25	-50.9	-81.6	47	8
2023-08-19T18:00	25557	25	-50.7	-81.4	51	8
2023-08-19T18:00	25585	25	-50.7		54	9
2023-08-19T18:00	25615	25	-50.4	-81.7	57	9
2023-08-19T18:00	25642	25	-50.5	-81.8	58	9
2023-08-19T18:00	25666	25	-50.6	-81.9	60	8
2023-08-19T18:00	25702	25	-50.5	-81.8	62	8
2023-08-19T18:00	25727	24	-50.5	-81.3	64	7
2023-08-19T18:00	25754	24	-50.5	-81.3	67	7
2023-08-19T18:00	25780	24	-50.5	-81.3	71	6
2023-08-19T18:00	25814	24	-50.4	-81.2	76	6
2023-08-19T18:00	25837	24	-50.4	-81.7	80	6
2023-08-19T18:00	25864	24	-50.3	-81.6	84	5
2023-08-19T18:00	25889	24	-50.3	-81.6	88	5
2023-08-19T18:00	25919	24	-50.2		91	5
2023-08-19T18:00	25943	24	-50.0	-81.4	95	5
2023-08-19T18:00	25979	23	-49.9	-81.3	98	5
2023-08-19T18:00	26001	23	-49.8	-81.3	101	5
2023-08-19T18:00	26037	23	-49.6	-81.1	102	5
2023-08-19T18:00	26060	23	-49.6	-81.1	101	5
2023-08-19T18:00	26092	23	-49.7	-81.2	98	5
2023-08-19T18:00	26120	23	-49.7	-81.2	95	5
2023-08-19T18:00	26147	23	-49.7	-81.2	93	5
2023-08-19T18:00	26175	23	-49.7	-81.2	94	5
2023-08-19T18:00	26206	23	-49.7	-81.2	96	5
2023-08-19T18:00	26228	23	-49.8	-81.3	99	6
2023-08-19T18:00	26255	22	-49.9	-81.3	103	6
2023-08-19T18:00	26292	22	-49.9	-81.3	107	6
2023-08-19T18:00	26314	22	-49.9	-81.3	112	7
2023-08-19T18:00	26346	22	-49.9	-81.3	118	7
2023-08-19T18:00	26377	22	-50.0	-81.4	123	7
2023-08-19T18:00	26404	22	-49.9	-81.3	128	7
2023-08-19T18:00	26430	22	-49.9	-81.3	132	8
2023-08-19T18:00	26462	22	-49.9	-81.3	136	7
2023-08-19T18:00	26489	22	-49.9	-81.3	141	7
2023-08-19T18:00	26524	22	-50.0	-81.4	147	7
2023-08-19T18:00	26553	22	-50.0	-81.4	153	7
2023-08-19T18:00	26568	21	-49.8	-81.3	159	7
2023-08-19T18:00	26602	21	-49.4	-81.0	164	7
2023-08-19T18:00	26629	21	-49.3	-80.9	169	7
2023-08-19T18:00	26652	21	-49.4	-81.0	175	6
2023-08-19T18:00	26685	21	-49.3	-80.9	182	6
2023-08-19T18:00	26718	21	-49.2	-80.8	191	6
2023-08-19T18:00	26739	21	-49.2	-80.8	201	6
2023-08-19T18:00	26774	21	-49.2	-80.8	210	5
2023-08-19T18:00	26795	21	-49.2	-80.8	218	5
2023-08-19T18:00	26825	21	-49.2	-80.8	225	5
2023-08-19T18:00	26859	21	-49.2	-80.8	232	5
2023-08-19T18:00	26889	20	-49.2	-80.8	240	5
2023-08-19T18:00	26919	20	-48.8	-80.5	249	5
2023-08-19T18:00	26947	20	-48.9	-80.6	258	4
2023-08-19T18:00	26977	20	-48.9	-80.6	270	4
2023-08-19T18:00	27009	20	-49.1	-80.8	283	4
2023-08-19T18:00	27037	20	-49.1	-80.8	295	4
2023-08-19T18:00	27062	20	-49.2	-80.8	306	4
2023-08-19T18:00	27091	20	-49.3	-80.9	314	5
2023-08-19T18:00	27120	20	-49.5	-81.1	322	5
2023-08-19T18:00	27147	20	-49.4	-81.0	330	5
2023-08-19T18:00	27177	20	-49.3	-80.9	339	4
2023-08-19T18:00	27207	19	-49.2	-80.8	350	3
2023-08-19T18:00	27239	19	-49.1	-80.8	4	3
2023-08-19T18:00	27266	19	-49.1	-80.8	21	2
2023-08-19T18:00	27286	19	-49.0	-81.3	38	2
2023-08-19T18:00	27317	19	-48.8		51	2
2023-08-19T18:00	27346	19	-48.6	-81.0	59	2
2023-08-19T18:00	27384	19	-48.5	-80.9	63	2
2023-08-19T18:00	27418	19	-48.4	-80.8	63	1
2023-08-19T18:00	27441	19	-48.4	-80.8	60	1
2023-08-19T18:00	27465	19	-48.4	-80.8	56	1
2023-08-19T18:00	27499	19	-48.4	-80.8	52	2
2023-08-19T18:00	27526	19	-48.4	-80.8	50	2
2023-08-19T18:00	27548	18	-48.2	-80.7	50	2
2023-08-19T18:00	27576	18	-48.1	-80.6	51	3
2023-08-19T18:00	27612	18	-47.9	-80.4	52	3
2023-08-19T18:00	27641	18	-47.6	-80.2	52	3
2023-08-19T18:00	27666	18	-47.2	-80.6	53	3
2023-08-19T18:00	27691	18	-46.9	-80.4	53	3
2023-08-19T18:00	27723	18	-46.8	-80.3	52	3
2023-08-19T18:00	27757	18	-46.7	-80.2	52	4
2023-08-19T18:00	27774	18	-46.7	-80.2	51	3
2023-08-19T18:00	27800	18	-46.5	-80.1	48	3
2023-08-19T18:00	27828	18	-46.3	-79.9	45	3
2023-08-19T18:00	27857	18	-46.2	-79.8	41	4
2023-08-19T18:00	27881	18	-46.0	-79.7	38	4
2023-08-19T18:00	27910	18	-45.8	-79.6	36	5
2023-08-19T18:00	27932	17	-45.5	-79.3	36	5
2023-08-19T18:00	27969	17	-45.4	-79.3	37	6
2023-08-19T18:00	27989	17	-45.2	-79.1	38	6
2023-08-19T18:00	28014	17	-44.9	-78.9	39	7
2023-08-19T18:00	28033	17	-44.7	-78.8	39	7
2023-08-19T18:00	28078	17	-44.6	-78.7	41	8
2023-08-19T18:00	28097	17	-44.5	-78.6	42	8
2023-08-19T18:00	28133	17	-44.4	-78.5	45	9
2023-08-19T18:00	28154	17	-44.4	-78.5	48	9
2023-08-19T18:00	28177	17	-44.4	-78.5	51	10
2023-08-19T18:00	28215	17	-44.3	-78.5	54	10
2023-08-19T18:00	28234	17	-44.3	-78.5	57	10
2023-08-19T18:00	28259	17	-44.3	-78.5	60	10
2023-08-19T18:00	28291	17	-44.3	-78.5	64	10
2023-08-19T18:00	28329	16	-44.3	-78.5	68	9
2023-08-19T18:00	28346	16	-44.4	-78.5	71	9
2023-08-19T18:00	28386	16	-44.5	-78.6	74	9
2023-08-19T18:00	28406	16	-44.3	-78.5	76	8
2023-08-19T18:00	28440	16	-44.1	-78.3	78	8
2023-08-19T18:00	28450	16	-43.9	-78.2	80	8
2023-08-19T18:00	28488	16	-43.8	-78.1	82	8
2023-08-19T18:00	28522	16	-43.8	-78.1	84	7
2023-08-19T18:00	28549	16	-43.9	-78.2	87	7
2023-08-19T18:00	28582	16	-44.0	-78.2	92	7
2023-08-19T18:00	28611	16	-44.1	-78.3	97	6
2023-08-19T18:00	28635	16	-44.3	-78.5	103	6
2023-08-19T18:00	28666	16	-44.3	-78.5	109	5
2023-08-19T18:00	28698	16	-44.4	-78.5	116	5
2023-08-19T18:00	28718	16	-44.4	-78.5	120	4
2023-08-19T18:00	28747	15	-44.5	-78.6	122	4
2023-08-19T18:00	28772	15	-44.5	-78.6	120	4
2023-08-19T18:00	28806	15	-44.5	-78.6	113	3
2023-08-19T18:00	28839	15	-44.5	-78.6	103	3
2023-08-19T18:00	28865	15	-44.4	-78.5	94	4
2023-08-19T18:00	28892	15	-44.2	-79.1	87	4
2023-08-19T18:00	28920	15	-44.1	-79.0	83	5
2023-08-19T18:00	28959	15	-43.9	-78.9	81	5
2023-08-19T18:00	28976	15	-43.8	-78.8	81	6
2023-08-19T18:00	29009	15	-43.8	-78.8	83	6
2023-08-19T18:00	29051	15	-43.9	-78.9	86	6
2023-08-19T18:00	29066	15	-43.8	-78.8	90	6
2023-08-19T18:00	29082	15	-43.7	-78.8	96	5
2023-08-19T18:00	29112	15	-43.9	-78.9	102	5
2023-08-19T18:00	29146	15	-43.8	-78.8	108	4
2023-08-19T18:00	29170	15	-43.9	-78.9	113	4
2023-08-19T18:00	29201	14	-44.0	-79.0	115	3
2023-08-19T18:00	29234	14	-43.9	-78.9	111	3
2023-08-19T18:00	29263	14	-43.6	-78.7	100	2
2023-08-19T18:00	29288	14	-43.3	-78.5	86	2
2023-08-19T18:00	29314	14	-43.1	-78.3	74	3
2023-08-19T18:00	29344	14	-43.2	-78.4	66	3
2023-08-19T18:00	29375	14	-43.2	-78.4	58	3
2023-08-19T18:00	29395	14	-43.3	-78.5	48	4
2023-08-19T18:00	29425	14	-43.3	-78.5	37	4
2023-08-19T18:00	29463	14	-43.1	-78.3	24	4
2023-08-19T18:00	29487	14	-42.9	-78.2	14	5
2023-08-19T18:00	29505	14	-42.7	-78.0	7	6
2023-08-19T18:00	29543	14	-42.5	-77.9	4	7
2023-08-19T18:00	29567	14	-42.5	-77.9	4	7
2023-08-19T18:00	29609	14	-42.4	-78.7	7	8
2023-08-19T18:00	29622	14	-42.0	-78.4	12	8
2023-08-19T18:00	29660	14	-41.8	-78.2	17	8
2023-08-19T18:00	29677	13	-41.6	-78.1	23	9
2023-08-19T18:00	29702	13	-41.7	-78.2	29	9
2023-08-19T18:00	29736	13	-41.7	-78.2	34	9
2023-08-19T18:00	29772	13	-41.7	-78.2	39	10
2023-08-19T18:00	29792	13	-41.7	-77.3	45	10
2023-08-19T18:00	29840	13	-41.7	-77.3	50	10
2023-08-19T18:00	29845	13	-41.8	-77.4	54	10
2023-08-19T18:00	29878	13	-41.7	-77.3	58	10
2023-08-19T18:00	29917	13	-41.7	-78.2	61	10
2023-08-19T18:00	29942	13	-41.6	-78.1	62	10
2023-08-19T18:00	29958	13	-41.6	-78.1	62	9
2023-08-19T18:00	29997	13	-41.4	-77.9	61	9
2023-08-19T18:00	30023	13	-41.2	-77.8	59	9
2023-08-19T18:00	30050	13	-41.1	-77.7	58	9
2023-08-19T18:00	30079	13	-41.0	-77.7	56	8
2023-08-19T18:00	30115	13	-40.9	-77.6	54	8
2023-08-19T18:00	30145	13	-40.8	-77.5	54	8
2023-08-19T18:00	30155	13	-40.8	-77.5	54	8
2023-08-19T18:00	30185	12	-40.8	-77.5	56	9
2023-08-19T18:00	30227	12	-40.7	-77.4	59	9
2023-08-19T18:00	30266	12	-40.7	-77.4	63	9
2023-08-19T18:00	30286	12	-40.8	-77.5	67	9
2023-08-19T18:00	30326	12	-40.8	-77.5	71	10
2023-08-19T18:00	30360	12	-40.6	-77.4	76	10
2023-08-19T18:00	30390	12	-40.4	-77.2	81	10
2023-08-19T18:00	30412	12	-40.4	-77.2	86	11
2023-08-19T18:00	30451	12	-40.4	-77.2	91	11
2023-08-19T18:00	30466	12	-40.4	-77.2	96	11
2023-08-19T18:00	30502	12	-40.4	-77.2	98	12
2023-08-19T18:00	30539	12	-40.2	-77.1	99	11
2023-08-19T18:00	30580	12	-40.0	-76.9	99	11
2023-08-19T18:00	30585	12	-40.0	-76.9	98	10
2023-08-19T18:00	30635	12	-39.8	-76.8	98	9
2023-08-19T18:00	30649	12	-39.8	-76.8	98	9
2023-08-19T18:00	30688	12	-39.8	-76.8	99	8
2023-08-19T18:00	30721	12	-39.8	-76.8	102	8
2023-08-19T18:00	30748	12	-39.7	-76.7	105	8
2023-08-19T18:00	30772	11	-39.5	-76.6	108	8
2023-08-19T18:00	30814	11	-39.6	-76.7	111	9
2023-08-19T18:00	30819	11	-39.6	-76.7	113	9
2023-08-19T18:00	30861	11	-39.6	-76.7	115	10
2023-08-19T18:00	30900	11	-39.6	-76.7	117	10
2023-08-19T18:00	30926	11	-39.6	-76.7	119	11
2023-08-19T18:00	30951	11	-39.5	-76.6	120	11
2023-08-19T18:00	30979	11	-39.2	-77.3	120	11
2023-08-19T18:00	31025	11	-39.0	-77.2	120	10
2023-08-19T18:00	31031	11	-38.8	-77.1	120	10
2023-08-19T18:00	31074	11	-38.8	-77.1	120	9
2023-08-19T18:00	31094	11	-38.7	-77.0	119	8
2023-08-19T18:00	31124	11	-38.5	-76.9	118	7
2023-08-19T18:00	31172	11	-38.4	-76.8	117	5
2023-08-19T18:00	31202	11	-38.3	-76.7	114	4
2023-08-19T18:00	31223	11	-38.3	-76.7	107	4
2023-08-19T18:00	31245	11	-38.2	-76.6	98	3
2023-08-19T18:00	31275	11	-38.1	-76.6	89	3
2023-08-19T18:00	31313	11	-37.8	-76.4	83	4
2023-08-19T18:00	31336	11	-37.6	-76.2	82	5
2023-08-19T18:00	31380	11	-37.6	-76.2	82	6
2023-08-19T18:00	31399	10	-37.3	-76.0	83	6
2023-08-19T18:00	31426	10	-37.1	-75.9	84	7
2023-08-19T18:00	31458	10	-37.2	-75.9	86	8
2023-08-19T18:00	31490	10	-37.3	-76.0	88	9
2023-08-19T18:00	31511	10	-37.4	-76.1	90	9
2023-08-19T18:00	31547	10	-37.6	-76.2	92	10
2023-08-19T18:00	31575	10	-37.8	-76.4	95	11
2023-08-19T18:00	31597	10	-38.0	-76.5	98	11
2023-08-19T18:00	31636	10	-37.9	-76.4	101	12
2023-08-19T18:00	31662	10	-37.9	-76.4	104	12
2023-08-19T18:00	31694	10	-38.1	-76.6	107	12
2023-08-19T18:00	31735	10	-38.3	-76.7	111	12
2023-08-19T18:00	31762	10	-38.3	-76.7	115	12
2023-08-19T18:00	31794	10	-38.5	-76.9	118	12
2023-08-19T18:00	31813	10	-38.7	-77.0	122	12
2023-08-19T18:00	31860	10	-38.8	-76.1	125	11
2023-08-19T18:00	31891	10	-38.9	-77.1	128	11
2023-08-19T18:00	31913	10	-38.8	-77.1	130	10
2023-08-19T18:00	31945	10	-38.8	-77.1	131	9
2023-08-19T18:00	31974	10	-38.9	-77.1	132	9
2023-08-19T18:00	31994	10	-38.9	-77.1	133	8
2023-08-19T18:00	32026	10	-39.0	-77.2	134	7
2023-08-19T18:00	32071	10	-39.1	-77.3	135	7
2023-08-19T18:00	32091	9	-39.2	-77.3	134	6
2023-08-19T18:00	32135	9	-39.1	-77.3	133	5
2023-08-19T18:00	32147	9	-39.0	-77.2	130	4
2023-08-19T18:00	32180	9	-38.9	-77.1	125	4
2023-08-19T18:00	32195	9	-38.5	-76.9	116	3
2023-08-19T18:00	32227	9	-38.4	-76.8	107	3
2023-08-19T18:00	32282	9	-38.5	-76.9	100	3
2023-08-19T18:00	32296	9	-38.5	-76.9	98	4
2023-08-19T18:00	32327	9	-38.2	-76.6	100	5
2023-08-19T18:00	32359	9	-38.1	-76.6	103	6
2023-08-19T18:00	32383	9	-38.0	-76.5	106	7
2023-08-19T18:00	32401	9	-38.0	-76.5	109	7
2023-08-19T18:00	32435	9	-37.9	-76.4	111	7
2023-08-19T18:00	32448	9	-37.8	-76.4	111	7
2023-08-19T18:00	32488	9	-37.6	-76.2	110	7
2023-08-19T18:00	32515	9	-37.4	-76.1	107	7
2023-08-19T18:00	32541	9	-37.2	-75.9	102	6
2023-08-19T18:00	32569	9	-37.0	-75.8	96	6
2023-08-19T18:00	32592	9	-36.9	-75.7	91	6
2023-08-19T18:00	32623	9	-36.7	-76.7	88	7
2023-08-19T18:00	32657	9	-36.4	-76.5	87	7
2023-08-19T18:00	32670	9	-36.2	-76.4	89	8
2023-08-19T18:00	32728	9	-35.8	-76.1	92	8
2023-08-19T18:00	32752	9	-35.6	-76.0	101	9
2023-08-19T18:00	32802	9	-35.7	-76.1	105	9
2023-08-19T18:00	32824	9	-35.9	-75.0	109	9
2023-08-19T18:00	32861	8	-36.2	-75.2	114	9
2023-08-19T18:00	32866	8	-36.3	-75.3	118	9
2023-08-19T18:00	32890	8	-36.3	-75.3	123	10
2023-08-19T18:00	32938	8	-36.4	-75.4	128	10
2023-08-19T18:00	32954	8	-36.4	-75.4	133	10
2023-08-19T18:00	32989	8	-36.4	-75.4	136	9
2023-08-19T18:00	33003	8	-36.3	-75.3	138	9
2023-08-19T18:00	33014	8	-36.3	-75.3	138	8
2023-08-19T18:00	33060	8	-36.2	-76.4	136	7
2023-08-19T18:00	33086	8	-36.0	-76.3	132	7
2023-08-19T18:00	33104	8	-35.9	-76.2	125	6
2023-08-19T18:00	33152	8	-35.5	-75.9	116	6
2023-08-19T18:00	33181	8	-35.4	-75.8	107	6
2023-08-19T18:00	33198	8	-35.2	-75.7	100	6
2023-08-19T18:00	33215	8	-35.1	-75.6	95	6
2023-08-19T18:00	33266	8	-35.1	-75.6	92	7
2023-08-19T18:00	33283	8	-35.0	-75.6	91	7
2023-08-19T18:00	33313	8	-34.8	-75.4	90	7
2023-08-19T18:00	33330	8	-34.7	-75.4	89	6
2023-08-19T18:00	33360	8	-34.5	-75.2	89	6
2023-08-19T18:00	33402	8	-34.5	-75.2	88	6
2023-08-19T18:00	33423	8	-34.4	-75.2	87	6
2023-08-19T18:00	33455	8	-34.4	-75.2	85	6
2023-08-19T18:00	33467	8	-34.4	-75.2	83	6
2023-08-19T18:00	33498	8	-34.5	-75.2	80	6
2023-08-19T18:00	33515	8	-34.5	-75.2	78	7
2023-08-19T18:00	33547	8	-34.5	-75.2	77	7
2023-08-19T18:00	33584	8	-34.5	-75.2	76	7
2023-08-19T18:00	33602	8	-34.6	-75.3	76	8
2023-08-19T18:00	33642	8	-34.6	-75.3	78	8
2023-08-19T18:00	33661	8	-34.6	-75.3	81	8
2023-08-19T18:00	33703	8	-34.4	-75.2	87	7
2023-08-19T18:00	33725	8	-34.3	-75.1	94	7
2023-08-19T18:00	33751	7	-34.2	-75.0	102	7
2023-08-19T18:00	33763	7	-34.1	-75.0	110	7
2023-08-19T18:00	33802	7	-34.2	-75.0	118	7
2023-08-19T18:00	33834	7	-34.3	-75.1	124	7
2023-08-19T18:00	33874	7	-34.4	-75.2	129	7
2023-08-19T18:00	33923	7	-34.2	-75.0	137	7
2023-08-19T18:00	33955	7	-34.2	-75.0	139	7
2023-08-19T18:00	33966	7	-34.4	-75.2	140	6
2023-08-19T18:00	34011	7	-34.5	-75.2	138	6
2023-08-19T18:00	34044	7	-34.4	-75.2	134	6
2023-08-19T18:00	34064	7	-34.2	-75.0	129	6
2023-08-19T18:00	34085	7	-34.2	-75.0	121	6
2023-08-19T18:00	34121	7	-34.3	-75.1	113	7
2023-08-19T18:00	34124	7	-34.3	-75.1	105	7
2023-08-19T18:00	34162	7	-34.3	-75.1	98	7
2023-08-19T18:00	34178	7	-34.3	-75.1	92	8
2023-08-19T18:00	34234	7	-34.3	-75.1	89	8
2023-08-19T18:00	34243	7	-34.2	-75.0	86	9
2023-08-19T18:00	34270	7	-34.2	-75.0	85	10
2023-08-20T00:00	112	1006	24.9	17.6	110	3
2023-08-20T00:00	139	1002	26.3		151	3
2023-08-20T00:00	161	1000	27.6	16.2	154	3
2023-08-20T00:00	187	997	27.7	16.0	155	4
2023-08-20T00:00	210	994	27.9	16.0	154	5
2023-08-20T00:00	235	992	27.8	15.8	152	5
2023-08-20T00:00	261	988	27.9	15.6	149	5
2023-08-20T00:00	294	985	27.8	15.4	145	6
2023-08-20T00:00	318	983	27.6	15.4	143	6
2023-08-20T00:00	341	980	27.4	15.2	141	5
2023-08-20T00:00	371	977	27.2	15.3	140	5
2023-08-20T00:00	393	974	27.0	15.2	140	4
2023-08-20T00:00	419	971	26.8	15.0	140	4
2023-08-20T00:00	442	969	26.7	14.8	141	4
2023-08-20T00:00	466	966	26.6	14.6	142	4
2023-08-20T00:00	489	964	26.4	14.5	142	4
2023-08-20T00:00	516	961	26.2	14.5	143	4
2023-08-20T00:00	540	958	26.0	14.7	144	4
2023-08-20T00:00	561	956	25.8	14.6	146	4
2023-08-20T00:00	581	954	25.7	14.5	150	3
2023-08-20T00:00	601	951	25.6	14.3	156	3
2023-08-20T00:00	626	949	25.4	14.1	163	3
2023-08-20T00:00	646	946	25.2	14.1	174	3
2023-08-20T00:00	675	944	25.0	14.2	188	3
2023-08-20T00:00	701	941	24.7	14.3	202	3
2023-08-20T00:00	724	938	24.6	15.0	214	3
2023-08-20T00:00	749	936	24.3	14.9	223	3
2023-08-20T00:00	773	933	24.1	15.0	230	3
2023-08-20T00:00	797	930	23.8	15.0	233	2
2023-08-20T00:00	829	927	23.5	15.0	234	2
2023-08-20T00:00	857	924	23.3	15.1	230	1
2023-08-20T00:00	888	921	23.0	15.0	225	1
2023-08-20T00:00	903	919	22.8	15.1	226	1
2023-08-20T00:00	929	917	22.6	15.0	238	1
2023-08-20T00:00	951	914	22.4	14.7	252	2
2023-08-20T00:00	976	912	22.2	14.6	264	2
2023-08-20T00:00	1001	909	22.0	14.1	273	2
2023-08-20T00:00	1027	906	21.8	14.0	279	3
2023-08-20T00:00	1052	904	21.7	13.6	283	3
2023-08-20T00:00	1080	901	21.5		284	3
2023-08-20T00:00	1104	898	21.3	13.1	285	3
2023-08-20T00:00	1128	896	21.1	13.0	287	3
2023-08-20T00:00	1154	893	20.9	12.7	291	3
2023-08-20T00:00	1176	891	20.7	12.9	295	3
2023-08-20T00:00	1199	888	20.5	13.4	299	3
2023-08-20T00:00	1223	886	20.2	13.8	300	4
2023-08-20T00:00	1247	884	19.9	13.9	299	4
2023-08-20T00:00	1268	881	19.7	14.0	297	4
2023-08-20T00:00	1289	879	19.6	13.9	295	4
2023-08-20T00:00	1307	877	19.6	13.3	293	5
2023-08-20T00:00	1327	875	19.5	12.5	292	5
2023-08-20T00:00	1347	873	19.7	10.3	291	5
2023-08-20T00:00	1369	871	19.6	10.1	290	6
2023-08-20T00:00	1393	869	19.4	9.8	291	6
2023-08-20T00:00	1427	865	19.1	9.7	292	6
2023-08-20T00:00	1452	863	18.8	9.8	295	6
2023-08-20T00:00	1473	861	18.6	9.8	297	7
2023-08-20T00:00	1491	859	18.5	9.7	299	8
2023-08-20T00:00	1513	857	18.3	9.5	301	9
2023-08-20T00:00	1531	855	18.1	9.7	304	9
2023-08-20T00:00	1552	853	17.9	9.7	307	9
2023-08-20T00:00	1575	851	17.7	9.8	313	9
2023-08-20T00:00	1596	848	17.5	9.7	319	8
2023-08-20T00:00	1613	847	17.3	10.2	325	8
2023-08-20T00:00	1633	845	17.1	10.6	329	7
2023-08-20T00:00	1656	843	16.9	10.8	330	7
2023-08-20T00:00	1674	840	16.7	10.9	327	7
2023-08-20T00:00	1699	838	16.4	11.4	322	6
2023-08-20T00:00	1718	836	16.2	11.7	317	6
2023-08-20T00:00	1753	833	15.8	12.0	314	6
2023-08-20T00:00	1780	830	15.6	12.1	313	6
2023-08-20T00:00	1808	828	15.3	11.7	314	5
2023-08-20T00:00	1834	825	15.1	11.4	315	6
2023-08-20T00:00	1856	823	15.0	10.7	316	6
2023-08-20T00:00	1876	821	14.9	10.5	317	6
2023-08-20T00:00	1905	818	14.7	9.6	317	6
2023-08-20T00:00	1927	816	14.6	9.4	318	7
2023-08-20T00:00	1955	813	14.3	8.7	318	7
2023-08-20T00:00	1982	811	14.2	8.0	317	7
2023-08-20T00:00	2008	808	14.1	7.3	316	7
2023-08-20T00:00	2027	806	14.0	7.4	315	7
2023-08-20T00:00	2051	804	13.8	7.4	314	6
2023-08-20T00:00	2080	801	13.5	7.0	312	6
2023-08-20T00:00	2107	799	13.3	7.0	310	6
2023-08-20T00:00	2138	796	13.1	7.0	308	6
2023-08-20T00:00	2168	793	12.8	7.3	308	6
2023-08-20T00:00	2202	790	12.6	7.7	309	6
2023-08-20T00:00	2231	787	12.3	7.6	311	6
2023-08-20T00:00	2258	785	12.1	7.4	315	6
2023-08-20T00:00	2284	782	11.9	7.3	319	6
2023-08-20T00:00	2310	780	11.7	7.5	325	5
2023-08-20T00:00	2337	777	11.5	7.3	329	5
2023-08-20T00:00	2361	775	11.3	7.3	330	5
2023-08-20T00:00	2383	773	11.1	7.6	328	4
2023-08-20T00:00	2407	771	10.9	7.4	322	4
2023-08-20T00:00	2427	769	10.7	7.2	314	4
2023-08-20T00:00	2447	767	10.6	7.2	307	4
2023-08-20T00:00	2471	765	10.4	7.1	304	5
2023-08-20T00:00	2496	763	10.2	6.9	303	5
2023-08-20T00:00	2512	761	10.1	7.0	304	5
2023-08-20T00:00	2541	758	9.8	6.9	305	5
2023-08-20T00:00	2576	755	9.5	6.8	304	5
2023-08-20T00:00	2604	753	9.3	6.7	302	5
2023-08-20T00:00	2623	751	9.2	6.6	298	5
2023-08-20T00:00	2645	749	9.1	6.5	295	6
2023-08-20T00:00	2672	746	8.9	6.2	294	6
2023-08-20T00:00	2709	744	8.9	4.9	293	7
2023-08-20T00:00	2735	741	8.9	4.6	292	7
2023-08-20T00:00	2763	738	8.8	4.6	289	7
2023-08-20T00:00	2791	736	8.6	4.3	285	7
2023-08-20T00:00	2813	734	8.6	4.4	279	7
2023-08-20T00:00	2837	732	8.5	4.3	275	7
2023-08-20T00:00	2859	730	8.4	4.3	273	7
2023-08-20T00:00	2879	728	8.3	4.6	273	7
2023-08-20T00:00	2896	727	8.1		276	6
2023-08-20T00:00	2922	724	8.0	4.6	278	6
2023-08-20T00:00	2946	722	7.8	4.6	281	6
2023-08-20T00:00	2964	721	7.7	4.5	285	6
2023-08-20T00:00	2986	719	7.5	5.5	290	6
2023-08-20T00:00	3013	716	7.2	5.2	296	6
2023-08-20T00:00	3045	714	7.0	5.3	302	6
2023-08-20T00:00	3069	712	6.8	5.2	308	7
2023-08-20T00:00	3087	710	6.7	4.6	312	7
2023-08-20T00:00	3104	709	6.6	4.3	315	6
2023-08-20T00:00	3125	707	6.4	3.8	316	6
2023-08-20T00:00	3154	704	6.4	2.9	316	6
2023-08-20T00:00	3178	702	6.4	2.4	314	6
2023-08-20T00:00	3198	700	6.3	2.2	309	6
2023-08-20T00:00	3223	698	6.2	2.9	302	6
2023-08-20T00:00	3245	697	6.1	3.1	295	6
2023-08-20T00:00	3263	695	6.0	3.3	291	6
2023-08-20T00:00	3291	693	5.9	2.9	290	7
2023-08-20T00:00	3314	691	6.0	1.5	291	7
2023-08-20T00:00	3339	689	5.8	1.1	291	7
2023-08-20T00:00	3363	686	5.7	1.1	290	8
2023-08-20T00:00	3393	684	5.4	0.9	288	8
2023-08-20T00:00	3410	682	5.4	1.4	286	9
2023-08-20T00:00	3436	680	5.2	1.8	285	9
2023-08-20T00:00	3462	678	5.0	1.8	287	10
2023-08-20T00:00	3488	676	4.8	1.6	289	10
2023-08-20T00:00	3506	675	4.6	1.6	292	9
2023-08-20T00:00	3527	673	4.4	1.6	292	9
2023-08-20T00:00	3557	671	4.2	1.7	290	9
2023-08-20T00:00	3585	668	3.9	1.6	286	9
2023-08-20T00:00	3623	665	3.6	1.5	283	9
2023-08-20T00:00	3648	663	3.4	1.4	281	9
2023-08-20T00:00	3672	661	3.2	1.4	280	10
2023-08-20T00:00	3700	659	3.1	1.5	279	10
2023-08-20T00:00	3728	657	2.9	1.3	279	10
2023-08-20T00:00	3753	654	2.7	1.1	278	10
2023-08-20T00:00	3785	652	2.5	0.8	277	10
2023-08-20T00:00	3820	649	2.4	0.7	277	11
2023-08-20T00:00	3843	647	2.2	0.6	276	11
2023-08-20T00:00	3867	645	2.0	0.7	276	10
2023-08-20T00:00	3897	643	1.7	0.6	275	10
2023-08-20T00:00	3924	641	1.6	0.5	275	10
2023-08-20T00:00	3956	638	1.4	0.2	275	10
2023-08-20T00:00	3981	636	1.3	0.1	277	9
2023-08-20T00:00	4004	635	1.2	-0.2	278	9
2023-08-20T00:00	4023	633	1.1	-0.2	280	9
2023-08-20T00:00	4044	631	1.0	-0.6	280	10
2023-08-20T00:00	4073	629	0.8	-1.0	278	10
2023-08-20T00:00	4091	628	0.7	-1.1	276	10
2023-08-20T00:00	4109	626	0.5	-1.3	272	9
2023-08-20T00:00	4128	625	0.4	-1.4	268	9
2023-08-20T00:00	4148	623	0.3	-1.8	266	9
2023-08-20T00:00	4181	621	0.1	-1.8	265	9
2023-08-20T00:00	4210	618	-0.1	-1.8	267	9
2023-08-20T00:00	4234	617	-0.4	-1.9	271	10
2023-08-20T00:00	4258	615	-0.6	-1.8	273	10
2023-08-20T00:00	4280	613	-0.8	-2.0	275	10
2023-08-20T00:00	4302	611	-1.0	-2.0	274	10
2023-08-20T00:00	4321	610	-1.2	-2.1	272	10
2023-08-20T00:00	4349	608	-1.3	-2.3	270	10
2023-08-20T00:00	4381	605	-1.4	-2.1	268	9
2023-08-20T00:00	4413	603	-1.5	-2.6	269	9
2023-08-20T00:00	4442	601	-1.5	-3.4	271	8
2023-08-20T00:00	4466	599	-1.5	-3.8	275	8
2023-08-20T00:00	4484	598	-1.5	-4.1	278	8
2023-08-20T00:00	4509	596	-1.4	-5.0	280	8
2023-08-20T00:00	4525	595	-1.4	-4.9	281	8
2023-08-20T00:00	4541	593	-1.4	-4.7	280	8
2023-08-20T00:00	4560	592	-1.4	-4.6	279	8
2023-08-20T00:00	4575	591	-1.3	-4.7	279	8
2023-08-20T00:00	4593	589	-1.3	-4.7	279	8
2023-08-20T00:00	4620	587	-1.1	-5.3	279	8
2023-08-20T00:00	4645	586	-1.2	-5.4	279	7
2023-08-20T00:00	4661	584	-1.3	-5.6	278	7
2023-08-20T00:00	4678	583	-1.5	-5.7	278	7
2023-08-20T00:00	4698	582	-1.7	-5.7	277	7
2023-08-20T00:00	4724	580	-1.9	-5.9	276	7
2023-08-20T00:00	4749	578	-2.1	-6.0	276	8
2023-08-20T00:00	4778	576	-2.4	-6.1	274	8
2023-08-20T00:00	4799	574	-2.6	-6.0	273	8
2023-08-20T00:00	4825	573	-2.8	-6.0	272	9
2023-08-20T00:00	4843	571	-2.9	-6.8	271	9
2023-08-20T00:00	4870	569	-3.0	-7.2	270	9
2023-08-20T00:00	4889	568	-3.2	-7.2	267	9
2023-08-20T00:00	4911	566	-3.4	-7.1	264	9
2023-08-20T00:00	4941	564	-3.6	-7.3	261	9
2023-08-20T00:00	4967	562	-3.6	-8.3	258	9
2023-08-20T00:00	4997	560	-3.7	-8.8	258	8
2023-08-20T00:00	5025	558	-3.9	-8.9	259	8
2023-08-20T00:00	5042	557	-4.1	-8.9	262	8
2023-08-20T00:00	5063	555	-4.3	-8.9	265	8
2023-08-20T00:00	5095	553	-4.4	-9.2	266	7
2023-08-20T00:00	5123	552	-4.6	-9.4	265	7
2023-08-20T00:00	5143	550	-4.8	-9.5	261	7
2023-08-20T00:00	5162	549	-4.8	-9.8	257	6
2023-08-20T00:00	5182	547	-4.9	-10.1	252	6
2023-08-20T00:00	5207	546	-5.0	-10.2	248	7
2023-08-20T00:00	5235	544	-5.3	-10.4	246	7
2023-08-20T00:00	5258	542	-5.5	-10.7	246	7
2023-08-20T00:00	5285	540	-5.7	-10.8	248	7
2023-08-20T00:00	5318	538	-5.9	-10.6	251	8
2023-08-20T00:00	5342	536	-6.2	-10.9	255	8
2023-08-20T00:00	5360	535	-6.3	-10.9	257	8
2023-08-20T00:00	5379	534	-6.5	-11.0	257	8
2023-08-20T00:00	5398	532	-6.6	-11.0	257	8
2023-08-20T00:00	5418	531	-6.8	-11.2	256	8
2023-08-20T00:00	5437	530	-7.0	-11.2	255	8
2023-08-20T00:00	5458	528	-7.2	-11.3	255	8
2023-08-20T00:00	5487	526	-7.5	-11.4	256	8
2023-08-20T00:00	5516	524	-7.7	-11.6	259	8
2023-08-20T00:00	5543	523	-7.8	-12.0	261	8
2023-08-20T00:00	5571	521	-7.8	-12.8	263	7
2023-08-20T00:00	5604	519	-7.9	-14.8	264	7
2023-08-20T00:00	5632	517	-7.9	-16.0	263	7
2023-08-20T00:00	5649	516	-8.0	-16.0	263	7
2023-08-20T00:00	5670	514	-8.2	-16.2	263	6
2023-08-20T00:00	5692	513	-8.3	-16.7	266	6
2023-08-20T00:00	5719	511	-8.5	-17.3	270	6
2023-08-20T00:00	5750	509	-8.8	-17.6	275	7
2023-08-20T00:00	5783	507	-9.0	-18.3	279	7
2023-08-20T00:00	5809	505	-9.0	-18.9	281	8
2023-08-20T00:00	5829	504	-9.1	-19.3	281	8
2023-08-20T00:00	5847	502	-9.0	-19.9	280	8
2023-08-20T00:00	5870	501	-8.9	-20.9	279	9
2023-08-20T00:00	5901	499	-9.0	-15.2	278	9
2023-08-20T00:00	5925	497	-9.3	-12.8	276	8
2023-08-20T00:00	5954	496	-9.4	-13.2	276	8
2023-08-20T00:00	5981	494	-9.5	-13.7	276	8
2023-08-20T00:00	6002	492	-9.6	-13.8	277	8
2023-08-20T00:00	6030	491	-9.8	-13.7	279	8
2023-08-20T00:00	6058	489	-10.0	-13.6	281	9
2023-08-20T00:00	6091	487	-10.2	-14.4	283	9
2023-08-20T00:00	6112	486	-10.4	-15.0	283	9
2023-08-20T00:00	6130	484	-10.6	-15.2	282	9
2023-08-20T00:00	6153	483	-10.7	-16.0	280	9
2023-08-20T00:00	6183	481	-10.9	-17.3	279	9
2023-08-20T00:00	6204	480	-11.0	-15.5	278	9
2023-08-20T00:00	6223	479	-11.1	-15.1	279	9
2023-08-20T00:00	6243	477	-11.3	-15.1	281	9
2023-08-20T00:00	6262	476	-11.5	-15.2	284	9
2023-08-20T00:00	6289	474	-11.6	-15.6	286	9
2023-08-20T00:00	6321	473	-11.8	-16.6	287	9
2023-08-20T00:00	6344	471	-12.0	-16.2	286	9
2023-08-20T00:00	6376	469	-12.2	-16.0	284	8
2023-08-20T00:00	6403	467	-12.4	-16.3	281	8
2023-08-20T00:00	6432	466	-12.5	-17.7	278	8
2023-08-20T00:00	6453	464	-12.6	-18.4	275	9
2023-08-20T00:00	6479	463	-12.8	-19.1	274	10
2023-08-20T00:00	6509	461	-12.9	-20.6	274	10
2023-08-20T00:00	6537	459	-12.7	-26.1	274	11
2023-08-20T00:00	6571	457	-12.7	-30.4	275	12
2023-08-20T00:00	6604	456	-12.7	-32.4	275	13
2023-08-20T00:00	6621	454	-12.8	-33.1	275	13
2023-08-20T00:00	6642	453	-12.8	-35.5	275	13
2023-08-20T00:00	6663	452	-12.8	-36.0	274	13
2023-08-20T00:00	6682	451	-13.0	-35.7	274	13
2023-08-20T00:00	6704	449	-13.2	-35.5	274	13
2023-08-20T00:00	6725	448	-13.4	-35.5	274	13
2023-08-20T00:00	6754	446	-13.6	-35.2	273	13
2023-08-20T00:00	6786	445	-13.9	-34.2	271	13
2023-08-20T00:00	6811	443	-14.0	-35.1	268	12
2023-08-20T00:00	6842	441	-14.1	-37.4	265	11
2023-08-20T00:00	6868	440	-14.3	-37.5	262	10
2023-08-20T00:00	6897	438	-14.6	-38.3	259	9
2023-08-20T00:00	6929	436	-14.8	-39.1	257	8
2023-08-20T00:00	6959	435	-15.0	-40.3	256	7
2023-08-20T00:00	6983	433	-15.2	-40.6	255	7
2023-08-20T00:00	7011	432	-15.4	-40.6	254	6
2023-08-20T00:00	7040	430	-15.6	-40.9	252	5
2023-08-20T00:00	7069	428	-15.6	-40.7	249	5
2023-08-20T00:00	7100	427	-15.8	-40.8	248	5
2023-08-20T00:00	7124	425	-16.1	-40.9	248	4
2023-08-20T00:00	7153	424	-16.3	-40.8	250	4
2023-08-20T00:00	7179	422	-16.5	-41.0	252	4
2023-08-20T00:00	7208	420	-16.7	-41.1	253	4
2023-08-20T00:00	7226	419	-16.9	-41.1	252	5
2023-08-20T00:00	7248	418	-17.1	-41.0	251	5
2023-08-20T00:00	7267	417	-17.2	-41.2	250	5
2023-08-20T00:00	7284	416	-17.4	-41.3	250	5
2023-08-20T00:00	7304	415	-17.6	-41.3	251	5
2023-08-20T00:00	7323	414	-17.8	-41.5	252	5
2023-08-20T00:00	7344	413	-18.0	-41.8	253	5
2023-08-20T00:00	7364	412	-18.0	-42.1	255	5
2023-08-20T00:00	7391	410	-18.2	-42.6	256	6
2023-08-20T00:00	7415	409	-18.3	-42.4	258	6
2023-08-20T00:00	7449	407	-18.5	-42.7	261	6
2023-08-20T00:00	7474	406	-18.8	-42.3	264	6
2023-08-20T00:00	7494	405	-18.9	-41.9	267	6
2023-08-20T00:00	7516	404	-19.1	-41.3	268	7
2023-08-20T00:00	7535	402	-19.2	-40.4	268	7
2023-08-20T00:00	7561	401	-19.4	-40.5	268	8
2023-08-20T00:00	7592	399	-19.7	-40.6	266	9
2023-08-20T00:00	7619	398	-19.9	-40.5	265	9
2023-08-20T00:00	7651	396	-20.2	-40.7	264	9
2023-08-20T00:00	7678	395	-20.5	-40.8	264	9
2023-08-20T00:00	7706	393	-20.7	-40.8	264	9
2023-08-20T00:00	7737	392	-21.0	-40.9	264	8
2023-08-20T00:00	7762	390	-21.2	-40.9	264	8
2023-08-20T00:00	7788	389	-21.4	-40.8	265	8
2023-08-20T00:00	7812	388	-21.7	-40.7	266	8
2023-08-20T00:00	7838	386	-21.9	-40.6	269	9
2023-08-20T00:00	7860	385	-22.1	-40.9	271	9
2023-08-20T00:00	7896	383	-22.4	-41.7	274	9
2023-08-20T00:00	7921	382	-22.6	-41.4	276	8
2023-08-20T00:00	7942	381	-22.6	-33.4	276	8
2023-08-20T00:00	7962	380	-22.8	-32.0	273	7
2023-08-20T00:00	7982	379	-23.0	-28.4	268	7
2023-08-20T00:00	8006	377	-23.0	-27.7	262	7
2023-08-20T00:00	8034	376	-23.1	-31.8	256	7
2023-08-20T00:00	8060	375	-23.0	-39.6	251	6
2023-08-20T00:00	8078	374	-23.0	-44.4	246	6
2023-08-20T00:00	8103	373	-23.1	-46.1	242	6
2023-08-20T00:00	8128	371	-23.1	-44.1	238	6
2023-08-20T00:00	8153	370	-23.2	-42.6	234	6
2023-08-20T00:00	8178	369	-23.4	-42.5	231	6
2023-08-20T00:00	8201	367	-23.6	-42.0	228	6
2023-08-20T00:00	8232	366	-23.8	-41.5	226	7
2023-08-20T00:00	8254	365	-24.0	-41.7	225	7
2023-08-20T00:00	8275	364	-24.2	-40.8	225	7
2023-08-20T00:00	8296	363	-24.4	-40.3	225	7
2023-08-20T00:00	8324	361	-24.7	-39.7	225	8
2023-08-20T00:00	8352	360	-24.9	-39.8	226	8
2023-08-20T00:00	8372	359	-25.1	-39.8	227	8
2023-08-20T00:00	8395	358	-25.3	-40.0	229	7
2023-08-20T00:00	8425	356	-25.6	-40.1	232	7
2023-08-20T00:00	8452	355	-25.9	-40.3	236	7
2023-08-20T00:00	8484	354	-26.2	-40.4	238	7
2023-08-20T00:00	8505	353	-26.4	-40.3	239	8
2023-08-20T00:00	8528	351	-26.6	-40.4	239	8
2023-08-20T00:00	8555	350	-26.9	-40.4	237	8
2023-08-20T00:00	8580	349	-27.1	-40.5	236	8
2023-08-20T00:00	8607	348	-27.4	-40.4	234	8
2023-08-20T00:00	8636	346	-27.6	-40.2	233	8
2023-08-20T00:00	8664	345	-27.8	-40.0	233	8
2023-08-20T00:00	8692	343	-28.0	-40.2	234	8
2023-08-20T00:00	8722	342	-28.1	-40.4	234	8
2023-08-20T00:00	8748	341	-28.4	-40.4	233	8
2023-08-20T00:00	8774	340	-28.6	-40.3	233	9
2023-08-20T00:00	8800	338	-28.8	-40.4	233	9
2023-08-20T00:00	8824	337	-29.0	-40.8	233	9
2023-08-20T00:00	8849	336	-29.3	-41.1	234	9
2023-08-20T00:00	8877	335	-29.5	-41.6	236	9
2023-08-20T00:00	8910	333	-29.8	-42.1	238	9
2023-08-20T00:00	8934	332	-30.0	-42.5	239	9
2023-08-20T00:00	8959	331	-30.2	-42.5	240	9
2023-08-20T00:00	8979	330	-30.5	-42.7	240	9
2023-08-20T00:00	9001	329	-30.7	-42.9	240	10
2023-08-20T00:00	9021	328	-30.9	-43.0	240	10
2023-08-20T00:00	9042	327	-31.1	-43.5	241	10
2023-08-20T00:00	9063	326	-31.2	-43.6	241	10
2023-08-20T00:00	9081	325	-31.4	-43.8	241	10
2023-08-20T00:00	9101	324	-31.6	-44.5	241	10
2023-08-20T00:00	9123	323	-31.8	-45.2	242	10
2023-08-20T00:00	9146	322	-32.0	-45.8	243	10
2023-08-20T00:00	9166	321	-32.1	-47.2	244	10
2023-08-20T00:00	9185	321	-32.2	-48.0	244	10
2023-08-20T00:00	9207	320	-32.3	-48.3	245	10
2023-08-20T00:00	9231	318	-32.4	-46.8	245	11
2023-08-20T00:00	9260	317	-32.5	-45.2	244	11
2023-08-20T00:00	9284	316	-32.8	-45.3	243	11
2023-08-20T00:00	9306	315	-33.0	-45.3	242	11
2023-08-20T00:00	9325	314	-33.2	-45.1	242	11
2023-08-20T00:00	9343	313	-33.3	-44.3	241	11
2023-08-20T00:00	9361	313	-33.5	-44.3	241	11
2023-08-20T00:00	9382	312	-33.7	-44.3	241	11
2023-08-20T00:00	9401	311	-33.9	-44.5	242	11
2023-08-20T00:00	9421	310	-34.1	-44.5	243	11
2023-08-20T00:00	9441	309	-34.2	-44.5	244	11
2023-08-20T00:00	9458	308	-34.4	-44.6	244	11
2023-08-20T00:00	9478	307	-34.6	-44.6	244	11
2023-08-20T00:00	9498	307	-34.8		244	11
2023-08-20T00:00	9517	306	-35.0	-44.8	243	11
2023-08-20T00:00	9539	305	-35.2	-44.9	242	10
2023-08-20T00:00	9559	304	-35.4	-45.3	241	10
2023-08-20T00:00	9581	303	-35.5	-46.3	240	10
2023-08-20T00:00	9601	302	-35.7	-47.3	239	10
2023-08-20T00:00	9620	301	-35.9	-48.4	239	10
2023-08-20T00:00	9639	300	-36.0	-48.2	239	10
2023-08-20T00:00	9662	299	-36.2	-48.9	239	10
2023-08-20T00:00	9683	298	-36.5	-49.5	238	10
2023-08-20T00:00	9707	297	-36.6	-48.1	237	10
2023-08-20T00:00	9729	297	-36.8	-45.4	236	10
2023-08-20T00:00	9753	295	-36.9	-43.5	236	10
2023-08-20T00:00	9776	294	-37.1	-43.9	235	10
2023-08-20T00:00	9802	293	-37.4	-44.4	234	10
2023-08-20T00:00	9830	292	-37.6	-44.0	233	10
2023-08-20T00:00	9857	291	-37.9	-44.1	231	9
2023-08-20T00:00	9883	290	-38.1	-44.0	228	9
2023-08-20T00:00	9907	289	-38.4	-44.0	226	9
2023-08-20T00:00	9930	288	-38.6	-43.9	223	9
2023-08-20T00:00	9950	287	-38.7	-44.0	221	8
2023-08-20T00:00	9971	286	-38.8	-44.1	219	8
2023-08-20T00:00	9991	285	-38.8	-43.9	216	8
2023-08-20T00:00	10010	285	-38.9	-44.4	214	8
2023-08-20T00:00	10030	284	-38.9	-44.0	213	8
2023-08-20T00:00	10051	283	-39.0	-43.8	212	8
2023-08-20T00:00	10068	282	-39.1	-44.3	213	8
2023-08-20T00:00	10088	281	-39.2	-44.3	214	8
2023-08-20T00:00	10106	281	-39.4	-44.6	216	8
2023-08-20T00:00	10127	280	-39.5	-44.8	218	8
2023-08-20T00:00	10146	279	-39.7	-45.1	220	8
2023-08-20T00:00	10168	278	-39.9	-45.3	221	9
2023-08-20T00:00	10189	277	-40.1	-45.3	221	9
2023-08-20T00:00	10210	276	-40.3	-45.4	220	8
2023-08-20T00:00	10229	276	-40.4	-45.6	218	8
2023-08-20T00:00	10249	275	-40.5	-45.6	215	8
2023-08-20T00:00	10268	274	-40.6	-45.5	213	8
2023-08-20T00:00	10288	273	-40.8	-45.5	211	8
2023-08-20T00:00	10306	273	-41.0	-45.6	210	8
2023-08-20T00:00	10327	272	-41.2	-45.8	209	8
2023-08-20T00:00	10347	271	-41.3	-46.0	208	8
2023-08-20T00:00	10367	270	-41.4	-46.1	208	8
2023-08-20T00:00	10388	269	-41.6	-46.1	207	8
2023-08-20T00:00	10407	269	-41.7	-45.9	207	8
2023-08-20T00:00	10429	268	-41.9	-45.6	207	8
2023-08-20T00:00	10450	267	-42.1	-45.8	207	8
2023-08-20T00:00	10470	266	-42.2	-46.3	206	8
2023-08-20T00:00	10489	265	-42.4	-46.3	206	8
2023-08-20T00:00	10511	264	-42.6	-46.1	206	8
2023-08-20T00:00	10530	264	-42.7	-46.6	205	8
2023-08-20T00:00	10551	263	-42.9	-47.1	205	8
2023-08-20T00:00	10573	262	-43.0	-46.9	204	8
2023-08-20T00:00	10594	261	-43.2	-46.9	204	8
2023-08-20T00:00	10616	260	-43.4	-47.2	203	8
2023-08-20T00:00	10638	260	-43.6	-47.3	202	8
2023-08-20T00:00	10658	259	-43.8	-47.3	202	8
2023-08-20T00:00	10679	258	-44.0	-47.4	203	9
2023-08-20T00:00	10699	257	-44.1	-47.2	203	9
2023-08-20T00:00	10722	256	-44.2	-47.4	203	9
2023-08-20T00:00	10741	256	-44.4	-47.8	203	9
2023-08-20T00:00	10764	255	-44.5	-48.3	203	9
2023-08-20T00:00	10785	254	-44.7	-48.7	202	10
2023-08-20T00:00	10805	253	-44.8	-48.7	202	10
2023-08-20T00:00	10826	252	-45.0	-48.7	201	10
2023-08-20T00:00	10848	252	-45.2	-49.1	200	10
2023-08-20T00:00	10867	251	-45.3	-49.5	200	10
2023-08-20T00:00	10889	250	-45.5	-49.7	200	10
2023-08-20T00:00	10911	249	-45.7	-50.4	201	10
2023-08-20T00:00	10931	248	-45.8	-50.6	201	10
2023-08-20T00:00	10951	248	-46.0	-50.2	202	10
2023-08-20T00:00	10974	247	-46.2	-49.8	201	10
2023-08-20T00:00	10994	246	-46.4	-49.7	201	10
2023-08-20T00:00	11017	245	-46.6	-49.9	200	10
2023-08-20T00:00	11038	244	-46.8	-50.1	201	10
2023-08-20T00:00	11061	244	-47.0	-50.3	202	10
2023-08-20T00:00	11082	243	-47.3	-50.5	203	10
2023-08-20T00:00	11105	242	-47.5	-50.7	204	10
2023-08-20T00:00	11127	241	-47.6	-51.1	205	10
2023-08-20T00:00	11146	240	-47.8	-51.5	206	10
2023-08-20T00:00	11166	240	-48.0	-51.7	207	10
2023-08-20T00:00	11187	239	-48.1	-51.7	208	10
2023-08-20T00:00	11208	238	-48.2	-51.6	209	10
2023-08-20T00:00	11228	237	-48.3	-51.6	210	11
2023-08-20T00:00	11249	237	-48.4	-51.9	211	11
2023-08-20T00:00	11271	236	-48.5	-52.4	213	11
2023-08-20T00:00	11293	235	-48.7	-52.8	214	11
2023-08-20T00:00	11314	234	-48.9	-53.0	215	11
2023-08-20T00:00	11335	234	-49.0	-52.9	216	11
2023-08-20T00:00	11356	233	-49.2	-52.9	216	11
2023-08-20T00:00	11377	232	-49.4	-52.9	217	11
2023-08-20T00:00	11398	231	-49.6	-53.0	217	11
2023-08-20T00:00	11418	231	-49.8	-53.2	217	11
2023-08-20T00:00	11435	230	-50.0	-53.3	218	11
2023-08-20T00:00	11457	229	-50.2	-53.2	218	11
2023-08-20T00:00	11477	229	-50.4	-53.1	219	11
2023-08-20T00:00	11498	228	-50.6	-53.3	218	11
2023-08-20T00:00	11519	227	-50.7	-53.4	218	11
2023-08-20T00:00	11539	227	-50.9	-53.7	217	11
2023-08-20T00:00	11557	226	-51.1	-53.9	216	11
2023-08-20T00:00	11576	225	-51.3	-54.3	216	11
2023-08-20T00:00	11597	224	-51.4	-54.4	216	11
2023-08-20T00:00	11617	224	-51.6	-54.4	217	11
2023-08-20T00:00	11635	223	-51.7		217	10
2023-08-20T00:00	11656	222	-51.9	-54.2	216	10
2023-08-20T00:00	11677	222	-52.1	-54.4	216	10
2023-08-20T00:00	11697	221	-52.3	-54.8	215	10
2023-08-20T00:00	11718	220	-52.5	-55.3	213	10
2023-08-20T00:00	11737	220	-52.6	-55.5	212	10
2023-08-20T00:00	11757	219	-52.8	-55.4	211	10
2023-08-20T00:00	11775	218	-52.9	-55.4	210	10
2023-08-20T00:00	11792	218	-53.0	-55.6	211	10
2023-08-20T00:00	11811	217	-53.1	-55.8	211	10
2023-08-20T00:00	11830	217	-53.2	-55.9	211	10
2023-08-20T00:00	11851	216	-53.4	-56.4	211	10
2023-08-20T00:00	11869	215	-53.5	-57.0	210	10
2023-08-20T00:00	11889	215	-53.6	-57.3	209	10
2023-08-20T00:00	11907	214	-53.8	-57.1	208	10
2023-08-20T00:00	11924	213	-53.8	-56.8	208	10
2023-08-20T00:00	11942	213	-54.0	-56.9	209	11
2023-08-20T00:00	11961	212	-54.0	-57.2	211	11
2023-08-20T00:00	11978	212	-54.1	-57.7	214	11
2023-08-20T00:00	11999	211	-54.1		216	11
2023-08-20T00:00	12028	210	-53.9	-59.2	219	11
2023-08-20T00:00	12049	209	-53.9	-59.8	221	12
2023-08-20T00:00	12068	209	-53.8	-60.1	222	12
2023-08-20T00:00	12085	208	-53.9	-60.1	223	12
2023-08-20T00:00	12105	207	-54.1	-60.3	223	12
2023-08-20T00:00	12125	207	-54.2	-60.4	223	12
2023-08-20T00:00	12143	206	-54.3	-60.4	223	12
2023-08-20T00:00	12162	206	-54.4	-60.5	224	12
2023-08-20T00:00	12181	205	-54.5	-60.7	226	12
2023-08-20T00:00	12205	204	-54.5	-61.1	228	12
2023-08-20T00:00	12224	204	-54.5	-61.7	232	13
2023-08-20T00:00	12246	203	-54.6	-62.3	237	13
2023-08-20T00:00	12276	202	-54.8	-63.1	242	14
2023-08-20T00:00	12313	201	-54.8	-63.9	246	16
2023-08-20T00:00	12336	200	-54.6	-64.8	248	17
2023-08-20T00:00	12358	199	-54.7	-66.0	249	19
2023-08-20T00:00	12388	198	-54.8	-66.8	249	19
2023-08-20T00:00	12419	198	-55.1	-67.1	249	19
2023-08-20T00:00	12440	197	-55.4	-67.2	250	19
2023-08-20T00:00	12461	196	-55.5	-67.3	251	18
2023-08-20T00:00	12480	196	-55.6	-67.8	252	18
2023-08-20T00:00	12501	195	-55.7	-68.3	253	17
2023-08-20T00:00	12522	194	-55.8	-68.6	254	17
2023-08-20T00:00	12542	194	-55.8	-68.8	255	16
2023-08-20T00:00	12560	193	-55.9		256	16
2023-08-20T00:00	12579	193	-56.0		258	16
2023-08-20T00:00	12601	192	-56.1	-69.3	259	16
2023-08-20T00:00	12618	191	-56.2	-69.7	261	16
2023-08-20T00:00	12637	191	-56.2	-70.4	263	16
2023-08-20T00:00	12656	190	-56.0	-71.4	264	15
2023-08-20T00:00	12676	190	-55.2	-72.0	264	15
2023-08-20T00:00	12696	189	-54.9	-72.5	264	15
2023-08-20T00:00	12715	189	-54.9	-72.7	263	14
2023-08-20T00:00	12735	188	-54.7	-72.6	263	13
2023-08-20T00:00	12752	187	-54.7	-73.0	262	13
2023-08-20T00:00	12775	187	-54.4	-73.1	261	12
2023-08-20T00:00	12800	186	-54.4	-73.6	259	11
2023-08-20T00:00	12820	185	-54.2	-73.6	256	10
2023-08-20T00:00	12841	185	-54.1	-73.6	252	10
2023-08-20T00:00	12864	184	-53.9	-73.2	249	10
2023-08-20T00:00	12881	184	-54.0	-72.9	246	10
2023-08-20T00:00	12903	183	-54.1	-72.7	245	10
2023-08-20T00:00	12921	183	-54.3	-72.6	245	10
2023-08-20T00:00	12941	182	-54.4	-72.5	244	10
2023-08-20T00:00	12961	181	-54.6	-72.5	244	10
2023-08-20T00:00	12979	181	-54.8	-72.5	244	10
2023-08-20T00:00	12999	180	-55.0	-72.4	243	11
2023-08-20T00:00	13023	180	-55.2	-72.5	242	11
2023-08-20T00:00	13041	179	-55.3	-72.5	241	11
2023-08-20T00:00	13061	179	-55.4	-72.7	240	12
2023-08-20T00:00	13081	178	-55.5	-72.8	240	12
2023-08-20T00:00	13100	178	-55.4	-72.8	240	12
2023-08-20T00:00	13121	177	-55.5	-73.0	241	13
2023-08-20T00:00	13139	176	-55.7	-73.2	243	13
2023-08-20T00:00	13160	176	-55.8	-73.2	244	13
2023-08-20T00:00	13180	175	-55.9	-73.3	245	13
2023-08-20T00:00	13200	175	-56.1	-73.3	245	14
2023-08-20T00:00	13220	174	-56.2	-73.4	246	14
2023-08-20T00:00	13240	174	-56.3	-73.5	246	14
2023-08-20T00:00	13258	173	-56.5		248	15
2023-08-20T00:00	13278	173	-56.6	-73.5	249	15
2023-08-20T00:00	13298	172	-56.7	-73.5	252	15
2023-08-20T00:00	13319	172	-56.8	-73.5	254	15
2023-08-20T00:00	13338	171	-56.8	-73.5	256	15
2023-08-20T00:00	13361	170	-56.8	-73.8	257	15
2023-08-20T00:00	13379	170	-56.8	-74.1	259	15
2023-08-20T00:00	13399	169	-56.8	-74.2	260	15
2023-08-20T00:00	13419	169	-56.8	-74.0	262	15
2023-08-20T00:00	13440	168	-56.9	-73.7	264	16
2023-08-20T00:00	13460	168	-56.9	-73.5	265	16
2023-08-20T00:00	13482	167	-57.0	-73.6	266	16
2023-08-20T00:00	13503	167	-57.1		267	17
2023-08-20T00:00	13522	166	-57.1	-74.6	268	17
2023-08-20T00:00	13543	166	-57.1	-75.1	268	17
2023-08-20T00:00	13566	165	-57.1	-75.5	270	17
2023-08-20T00:00	13586	164	-57.2	-75.9	271	17
2023-08-20T00:00	13607	164	-57.1	-75.9	272	17
2023-08-20T00:00	13627	163	-57.0	-75.8	274	17
2023-08-20T00:00	13648	163	-57.1	-75.9	276	17
2023-08-20T00:00	13670	162	-57.1	-76.1	278	17
2023-08-20T00:00	13690	162	-56.5	-75.8	280	16
2023-08-20T00:00	13711	161	-56.2	-75.6	283	16
2023-08-20T00:00	13733	161	-56.3		285	15
2023-08-20T00:00	13755	160	-56.2	-75.6	287	15
2023-08-20T00:00	13774	160	-56.1	-75.5	288	14
2023-08-20T00:00	13794	159	-56.1	-75.7	290	14
2023-08-20T00:00	13816	159	-56.0	-76.0	291	13
2023-08-20T00:00	13838	158	-56.1	-76.5	292	12
2023-08-20T00:00	13859	158	-55.9	-76.8	293	12
2023-08-20T00:00	13880	157	-55.8	-77.0	293	12
2023-08-20T00:00	13903	156	-55.8	-77.0	293	12
2023-08-20T00:00	13924	156	-55.8	-76.8	293	12
2023-08-20T00:00	13943	155	-55.8	-76.5	292	11
2023-08-20T00:00	13963	155	-55.9	-76.4	291	11
2023-08-20T00:00	13985	154	-56.1	-76.2	290	12
2023-08-20T00:00	14004	154	-56.3	-75.9	290	12
2023-08-20T00:00	14027	153	-56.4	-75.6	290	12
2023-08-20T00:00	14047	153	-56.4		290	12
2023-08-20T00:00	14067	152	-56.5	-75.3	291	12
2023-08-20T00:00	14088	152	-56.5	-75.4	292	12
2023-08-20T00:00	14108	151	-56.5	-75.6	293	12
2023-08-20T00:00	14127	151	-56.6	-75.8	293	12
2023-08-20T00:00	14147	151	-56.6	-76.0	294	12
2023-08-20T00:00	14168	150	-56.4	-76.2	295	12
2023-08-20T00:00	14188	150	-56.5	-76.6	295	12
2023-08-20T00:00	14210	149	-56.6	-76.9	295	12
2023-08-20T00:00	14230	149	-56.7	-77.3	295	12
2023-08-20T00:00	14252	148	-56.7	-77.4	295	11
2023-08-20T00:00	14272	148	-56.8	-77.5	295	11
2023-08-20T00:00	14292	147	-57.0	-77.6	295	11
2023-08-20T00:00	14313	147	-57.1	-77.7	295	11
2023-08-20T00:00	14336	146	-57.3	-78.0	295	11
2023-08-20T00:00	14355	146	-57.5	-78.3	296	11
2023-08-20T00:00	14379	145	-57.6	-78.8	296	11
2023-08-20T00:00	14403	145	-57.6	-79.2	298	11
2023-08-20T00:00	14424	144	-57.6	-79.5	299	11
2023-08-20T00:00	14445	144	-57.2	-79.6	301	10
2023-08-20T00:00	14465	143	-57.2	-80.2	302	9
2023-08-20T00:00	14486	143	-57.3	-80.4	302	9
2023-08-20T00:00	14505	142	-57.2	-80.5	301	8
2023-08-20T00:00	14529	142	-57.2	-80.5	297	8
2023-08-20T00:00	14549	141	-57.3	-80.8	292	8
2023-08-20T00:00	14569	141	-57.3	-80.8	286	9
2023-08-20T00:00	14592	140	-57.5	-81.2	282	10
2023-08-20T00:00	14613	140	-57.6	-81.4	279	10
2023-08-20T00:00	14636	139	-57.5	-81.6	277	11
2023-08-20T00:00	14653	139	-57.5	-81.8	276	11
2023-08-20T00:00	14672	139	-57.5	-82.0	276	11
2023-08-20T00:00	14694	138	-57.3	-82.1	276	11
2023-08-20T00:00	14714	138	-57.0	-82.1	275	10
2023-08-20T00:00	14734	137	-56.6	-82.0	275	10
2023-08-20T00:00	14755	137	-56.4	-81.9	274	10
2023-08-20T00:00	14773	136	-56.3	-82.1	273	9
2023-08-20T00:00	14796	136	-56.2	-82.0	272	9
2023-08-20T00:00	14816	135	-56.2	-82.0	271	9
2023-08-20T00:00	14835	135	-56.3	-82.1	269	9
2023-08-20T00:00	14856	135	-56.4	-82.1	268	9
2023-08-20T00:00	14877	134	-56.5	-82.0	267	9
2023-08-20T00:00	14898	134	-56.4	-81.9	267	9
2023-08-20T00:00	14919	133	-56.4	-81.9	268	9
2023-08-20T00:00	14940	133	-56.5	-82.0	270	10
2023-08-20T00:00	14961	132	-56.6	-82.3	271	10
2023-08-20T00:00	14983	132	-56.6	-82.3	272	10
2023-08-20T00:00	15002	132	-56.6	-82.3	274	11
2023-08-20T00:00	15022	131	-56.7	-82.4	276	11
2023-08-20T00:00	15043	131	-56.9	-82.5	278	12
2023-08-20T00:00	15065	130	-56.9	-82.5	280	12
2023-08-20T00:00	15088	130	-56.9	-82.5	282	12
2023-08-20T00:00	15109	129	-57.1	-82.7	283	12
2023-08-20T00:00	15129	129	-57.0	-82.6	284	11
2023-08-20T00:00	15152	128	-57.0	-82.3	284	11
2023-08-20T00:00	15174	128	-56.9	-82.3	283	10
2023-08-20T00:00	15194	128	-57.0	-82.3	281	10
2023-08-20T00:00	15216	127	-57.1	-82.4	279	9
2023-08-20T00:00	15237	127	-57.2	-82.2	277	9
2023-08-20T00:00	15257	126	-57.3	-82.3	275	9
2023-08-20T00:00	15280	126	-57.3	-82.3	274	10
2023-08-20T00:00	15300	125	-57.4	-82.2	274	10
2023-08-20T00:00	15320	125	-57.6	-82.3	273	10
2023-08-20T00:00	15345	125	-57.7	-82.6	273	9
2023-08-20T00:00	15366	124	-57.8	-82.7	273	9
2023-08-20T00:00	15388	124	-58.0	-82.9	272	9
2023-08-20T00:00	15410	123	-57.8	-82.7	271	9
2023-08-20T00:00	15431	123	-57.7	-82.6	270	9
2023-08-20T00:00	15451	122	-57.7	-82.9	268	9
2023-08-20T00:00	15472	122	-57.8	-83.0	267	10
2023-08-20T00:00	15494	122	-58.0	-82.9	266	10
2023-08-20T00:00	15516	121	-58.2	-83.0	266	10
2023-08-20T00:00	15538	121	-58.3	-83.1	267	11
2023-08-20T00:00	15559	120	-58.4	-83.2	268	10
2023-08-20T00:00	15583	120	-58.5	-83.3	270	10
2023-08-20T00:00	15604	120	-58.3	-83.1	273	10
2023-08-20T00:00	15623	119	-58.3	-83.1	276	10
2023-08-20T00:00	15646	119	-58.1	-83.2	279	9
2023-08-20T00:00	15664	118	-58.1	-83.2	281	9
2023-08-20T00:00	15686	118	-58.1	-83.2	282	9
2023-08-20T00:00	15708	118	-58.0	-83.1	282	9
2023-08-20T00:00	15729	117	-58.1	-83.2	280	9
2023-08-20T00:00	15751	117	-58.2	-83.3	277	9
2023-08-20T00:00	15771	116	-58.3		275	9
2023-08-20T00:00	15790	116	-58.3	-83.1	273	9
2023-08-20T00:00	15813	116	-58.4	-83.2	273	10
2023-08-20T00:00	15831	115	-58.5	-83.3	273	10
2023-08-20T00:00	15851	115	-58.5	-83.5	274	9
2023-08-20T00:00	15874	115	-58.6	-83.9	275	8
2023-08-20T00:00	15893	114	-58.1	-83.7	274	8
2023-08-20T00:00	15914	114	-57.6	-83.6	273	7
2023-08-20T00:00	15931	113	-56.9	-83.4	271	7
2023-08-20T00:00	15953	113	-56.5	-83.4	270	7
2023-08-20T00:00	15974	113	-56.6	-83.8	271	6
2023-08-20T00:00	15993	112	-56.5	-83.7	274	6
2023-08-20T00:00	16013	112	-56.4	-83.7	277	6
2023-08-20T00:00	16032	112	-56.4	-83.7	279	6
2023-08-20T00:00	16051	111	-56.4	-83.7	280	6
2023-08-20T00:00	16073	111	-56.5	-83.7	279	6
2023-08-20T00:00	16093	111	-56.6	-83.8	277	6
2023-08-20T00:00	16113	110	-56.7	-83.9	277	6
2023-08-20T00:00	16134	110	-56.7	-83.9	279	6
2023-08-20T00:00	16153	110	-56.7	-83.9	282	6
2023-08-20T00:00	16173	109	-56.7	-83.9	287	5
2023-08-20T00:00	16192	109	-56.5	-83.7	291	5
2023-08-20T00:00	16216	109	-56.4	-83.7	293	5
2023-08-20T00:00	16234	108	-56.4	-83.7	294	5
2023-08-20T00:00	16257	108	-56.4	-83.7	293	4
2023-08-20T00:00	16277	107	-56.3	-83.6	290	4
2023-08-20T00:00	16299	107	-56.4	-83.7	286	4
2023-08-20T00:00	16318	107	-56.5	-83.7	280	4
2023-08-20T00:00	16341	106	-56.5	-83.7	274	4
2023-08-20T00:00	16359	106	-56.6	-83.8	269	4
2023-08-20T00:00	16380	106	-56.6	-83.8	266	5
2023-08-20T00:00	16401	105	-56.6	-83.8	266	5
2023-08-20T00:00	16423	105	-56.7	-83.9	268	6
2023-08-20T00:00	16447	105	-56.7	-83.9	270	6
2023-08-20T00:00	16465	104	-56.7	-83.9	273	6
2023-08-20T00:00	16487	104	-56.8	-84.0	276	7
2023-08-20T00:00	16509	104	-56.9	-84.0	278	7
2023-08-20T00:00	16529	103	-57.0	-84.1	279	7
2023-08-20T00:00	16550	103	-57.0	-84.1	280	7
2023-08-20T00:00	16571	103	-56.9	-83.7	281	7
2023-08-20T00:00	16593	102	-56.8	-83.6	283	7
2023-08-20T00:00	16618	102	-56.9	-83.7	285	6
2023-08-20T00:00	16644	101	-56.4	-83.3	287	5
2023-08-20T00:00	16665	101	-56.5	-83.4	289	4
2023-08-20T00:00	16689	101	-56.5	-83.4	291	4
2023-08-20T00:00	16710	100	-56.6	-83.5	290	3
2023-08-20T00:00	16733	100	-56.6	-83.5	286	2
2023-08-20T00:00	16754	100	-56.7	-83.6	278	2
2023-08-20T00:00	16777	99	-56.9	-83.7	265	2
2023-08-20T00:00	16796	99	-57.0	-83.8	246	1
2023-08-20T00:00	16820	99	-57.2	-83.9	226	1
2023-08-20T00:00	16843	98	-57.0	-83.8	210	2
2023-08-20T00:00	16864	98	-57.1	-83.9	200	2
2023-08-20T00:00	16888	98	-56.8	-83.6	194	2
2023-08-20T00:00	16913	97	-56.8	-83.6	191	2
2023-08-20T00:00	16935	97	-56.9	-83.7	190	3
2023-08-20T00:00	16958	97	-57.1	-83.9	190	3
2023-08-20T00:00	16977	96	-57.3	-84.0	191	3
2023-08-20T00:00	16997	96	-57.4	-84.1	193	3
2023-08-20T00:00	17020	96	-57.5	-83.9	195	3
2023-08-20T00:00	17042	95	-57.6	-83.9	198	3
2023-08-20T00:00	17066	95	-57.7	-84.0	201	4
2023-08-20T00:00	17086	95	-57.9	-84.2	205	4
2023-08-20T00:00	17110	94	-57.9	-84.2	210	4
2023-08-20T00:00	17134	94	-57.9	-84.2	215	4
2023-08-20T00:00	17156	94	-58.0	-84.2	219	4
2023-08-20T00:00	17178	93	-58.0	-84.2	222	4
2023-08-20T00:00	17197	93	-58.0	-84.2	223	5
2023-08-20T00:00	17220	93	-58.1	-84.6	223	5
2023-08-20T00:00	17243	92	-58.1	-84.6	221	5
2023-08-20T00:00	17266	92	-58.1	-85.0	220	5
2023-08-20T00:00	17284	92	-57.9	-84.8	219	5
2023-08-20T00:00	17306	91	-57.6	-84.6	218	5
2023-08-20T00:00	17328	91	-57.6	-84.6	218	5
2023-08-20T00:00	17351	91	-57.7	-84.7	218	5
2023-08-20T00:00	17370	90	-57.8	-84.7	219	6
2023-08-20T00:00	17390	90	-57.9	-84.8	220	6
2023-08-20T00:00	17412	90	-58.0	-84.9	220	6
2023-08-20T00:00	17434	90	-58.0	-84.9	221	6
2023-08-20T00:00	17455	89	-58.1	-85.0	220	5
2023-08-20T00:00	17476	89	-58.2	-85.0	218	5
2023-08-20T00:00	17497	89	-58.3	-85.1	216	4
2023-08-20T00:00	17519	88	-58.3	-85.1	213	4
2023-08-20T00:00	17539	88	-58.2	-85.0	211	4
2023-08-20T00:00	17561	88	-58.0	-84.9	209	4
2023-08-20T00:00	17582	87	-57.9	-84.8	208	4
2023-08-20T00:00	17604	87	-57.7	-84.7	207	4
2023-08-20T00:00	17623	87	-57.7	-85.0	207	5
2023-08-20T00:00	17644	87	-57.7	-85.0	208	5
2023-08-20T00:00	17666	86	-57.6	-84.9	209	6
2023-08-20T00:00	17689	86	-57.6	-84.9	211	6
2023-08-20T00:00	17711	86	-57.7	-85.0	213	7
2023-08-20T00:00	17732	85	-57.7	-85.0	214	7
2023-08-20T00:00	17754	85	-57.6	-84.9	215	8
2023-08-20T00:00	17776	85	-57.6	-84.9	216	8
2023-08-20T00:00	17798	85	-57.8	-85.1	217	8
2023-08-20T00:00	17815	84	-57.9	-85.2	219	9
2023-08-20T00:00	17840	84	-58.1	-85.0	221	9
2023-08-20T00:00	17857	84	-58.2	-85.0	224	9
2023-08-20T00:00	17883	83	-58.4	-85.2	227	9
2023-08-20T00:00	17906	83	-58.5	-85.3	230	9
2023-08-20T00:00	17926	83	-58.5	-85.6	232	9
2023-08-20T00:00	17947	83	-57.8	-85.1	235	9
2023-08-20T00:00	17968	82	-57.7	-85.0	237	9
2023-08-20T00:00	17990	82	-57.7	-85.4	239	9
2023-08-20T00:00	18014	82	-57.6	-85.3	240	8
2023-08-20T00:00	18033	81	-57.6	-85.3	241	8
2023-08-20T00:00	18053	81	-57.7	-85.0	242	7
2023-08-20T00:00	18075	81	-57.8	-85.1	243	7
2023-08-20T00:00	18098	81	-57.9	-85.2	244	7
2023-08-20T00:00	18118	80	-57.9	-85.2	245	6
2023-08-20T00:00	18141	80	-57.9	-85.2	246	6
2023-08-20T00:00	18163	80	-58.0	-85.2	247	5
2023-08-20T00:00	18183	79	-58.0	-85.2	247	5
2023-08-20T00:00	18204	79	-58.0	-85.2	245	4
2023-08-20T00:00	18228	79	-57.9	-85.2	242	4
2023-08-20T00:00	18252	79	-57.9	-85.2	235	4
2023-08-20T00:00	18272	78	-57.9	-85.2	225	3
2023-08-20T00:00	18295	78	-57.8	-85.1	213	3
2023-08-20T00:00	18319	78	-57.9	-85.2	199	3
2023-08-20T00:00	18341	78	-58.0	-85.2	187	4
2023-08-20T00:00	18366	77	-58.0	-85.6	179	4
2023-08-20T00:00	18390	77	-57.9	-85.5	174	5
2023-08-20T00:00	18411	77	-57.8	-85.5	171	6
2023-08-20T00:00	18436	76	-57.8	-85.5	171	6
2023-08-20T00:00	18457	76	-57.9	-85.5	173	6
2023-08-20T00:00	18481	76	-57.7	-85.4	176	6
2023-08-20T00:00	18504	76	-57.6	-85.3	181	6
2023-08-20T00:00	18525	75	-57.6	-85.3	187	6
2023-08-20T00:00	18549	75	-57.6	-85.3	193	6
2023-08-20T00:00	18567	75	-57.6	-85.3	199	6
2023-08-20T00:00	18590	75	-57.5	-85.2	204	6
2023-08-20T00:00	18613	74	-57.5	-85.2	209	5
2023-08-20T00:00	18637	74	-57.5	-85.2	214	5
2023-08-20T00:00	18663	74	-57.6	-85.3	220	5
2023-08-20T00:00	18684	73	-57.6	-85.3	226	6
2023-08-20T00:00	18708	73	-57.6	-85.3	230	6
2023-08-20T00:00	18731	73	-57.7	-85.4	232	6
2023-08-20T00:00	18752	73	-57.7	-85.4	233	6
2023-08-20T00:00	18776	72	-57.6	-85.3	234	7
2023-08-20T00:00	18797	72	-57.6	-85.3	235	6
2023-08-20T00:00	18819	72	-57.5	-85.6	238	6
2023-08-20T00:00	18839	72	-57.5	-85.6	242	6
2023-08-20T00:00	18861	71	-57.4	-85.6	248	5
2023-08-20T00:00	18887	71	-57.3	-85.5	255	5
2023-08-20T00:00	18909	71	-57.4	-85.6	262	5
2023-08-20T00:00	18926	71	-57.5	-85.6	269	5
2023-08-20T00:00	18953	70	-57.5	-85.6	274	5
2023-08-20T00:00	18975	70	-57.3	-85.5	279	5
2023-08-20T00:00	18995	70	-57.3	-85.5	283	6
2023-08-20T00:00	19019	70	-57.3	-85.5	288	6
2023-08-20T00:00	19039	69	-57.5	-85.6	293	6
2023-08-20T00:00	19061	69	-57.5	-85.6	299	6
2023-08-20T00:00	19081	69	-57.4	-85.6	305	6
2023-08-20T00:00	19102	69	-57.2	-85.4	311	6
2023-08-20T00:00	19125	68	-57.0	-85.2	316	6
2023-08-20T00:00	19144	68	-57.0	-85.2	322	6
2023-08-20T00:00	19167	68	-57.1	-85.3	326	5
2023-08-20T00:00	19187	68	-57.2	-85.4	331	4
2023-08-20T00:00	19208	68	-57.3	-85.5	337	4
2023-08-20T00:00	19232	67	-57.2	-85.4	344	3
2023-08-20T00:00	19256	67	-57.2	-85.4	353	3
2023-08-20T00:00	19280	67	-57.2	-85.4	6	2
2023-08-20T00:00	19302	67	-57.1	-85.3	28	1
2023-08-20T00:00	19326	66	-57.0	-85.2	79	1
2023-08-20T00:00	19348	66	-57.0	-85.7	134	1
2023-08-20T00:00	19370	66	-57.0	-85.7	158	2
2023-08-20T00:00	19395	66	-56.9	-85.6	171	2
2023-08-20T00:00	19418	65	-57.0	-85.7	181	3
2023-08-20T00:00	19439	65	-56.9	-85.6	191	3
2023-08-20T00:00	19461	65	-56.6	-85.4	199	3
2023-08-20T00:00	19485	65	-56.4	-85.2	206	3
2023-08-20T00:00	19505	64	-56.4	-85.2	212	3
2023-08-20T00:00	19530	64	-56.5	-85.3	215	3
2023-08-20T00:00	19549	64	-56.5	-85.3	216	2
2023-08-20T00:00	19571	64	-56.6	-85.4	214	2
2023-08-20T00:00	19595	64	-56.6	-85.4	211	2
2023-08-20T00:00	19618	63	-56.4	-85.2	207	2
2023-08-20T00:00	19638	63	-56.2	-85.1	205	1
2023-08-20T00:00	19665	63	-56.2	-85.1	206	1
2023-08-20T00:00	19687	63	-56.3	-85.6	209	1
2023-08-20T00:00	19710	62	-56.3	-85.6	215	1
2023-08-20T00:00	19735	62	-56.1	-85.5	223	1
2023-08-20T00:00	19756	62	-55.9	-85.3	231	1
2023-08-20T00:00	19780	62	-55.8	-85.2	242	1
2023-08-20T00:00	19801	62	-55.7	-85.2	256	1
2023-08-20T00:00	19827	61	-55.5	-85.0	272	1
2023-08-20T00:00	19849	61	-55.5	-85.0	292	1
2023-08-20T00:00	19873	61	-55.4	-84.9	320	1
2023-08-20T00:00	19895	61	-55.4	-84.9	356	1
2023-08-20T00:00	19917	60	-55.3	-84.9	30	1
2023-08-20T00:00	19941	60	-55.2	-84.8	54	1
2023-08-20T00:00	19962	60	-55.2	-84.8	72	2
2023-08-20T00:00	19989	60	-55.2	-84.8	87	2
2023-08-20T00:00	20010	60	-55.2	-84.8	99	2
2023-08-20T00:00	20034	59	-55.2	-84.8	108	3
2023-08-20T00:00	20056	59	-55.3	-84.9	112	3
2023-08-20T00:00	20078	59	-55.5	-85.0	114	3
2023-08-20T00:00	20102	59	-55.6	-85.1	113	3
2023-08-20T00:00	20129	58	-55.5	-85.0	112	3
2023-08-20T00:00	20152	58	-55.5	-85.0	111	3
2023-08-20T00:00	20175	58	-55.3	-84.9	111	2
2023-08-20T00:00	20197	58	-55.3	-84.9	115	2
2023-08-20T00:00	20221	58	-55.4	-84.9	127	1
2023-08-20T00:00	20246	57	-55.5	-85.0	153	1
2023-08-20T00:00	20268	57	-55.6	-85.1	205	1
2023-08-20T00:00	20291	57	-55.7	-85.2	262	1
2023-08-20T00:00	20309	57	-55.7	-85.2	301	1
2023-08-20T00:00	20337	57	-55.7	-85.2	329	1
2023-08-20T00:00	20360	56	-55.4	-84.9	352	1
2023-08-20T00:00	20382	56	-55.3	-84.9	13	1
2023-08-20T00:00	20405	56	-55.4	-84.9	31	2
2023-08-20T00:00	20427	56	-55.4	-84.9	47	2
2023-08-20T00:00	20454	56	-55.5	-85.0	62	2
2023-08-20T00:00	20472	55	-55.5	-84.5	76	2
2023-08-20T00:00	20492	55	-55.6	-84.6	90	2
2023-08-20T00:00	20515	55	-55.6	-84.6	103	2
2023-08-20T00:00	20545	55	-55.7	-84.7	116	3
2023-08-20T00:00	20566	55	-55.7	-84.7	127	3
2023-08-20T00:00	20589	54	-55.7	-84.7	135	3
2023-08-20T00:00	20613	54	-55.7	-84.7	142	4
2023-08-20T00:00	20636	54	-55.7	-85.2	147	4
2023-08-20T00:00	20653	54	-55.6	-85.1	153	4
2023-08-20T00:00	20681	54	-55.5	-85.0	158	4
2023-08-20T00:00	20701	53	-55.5	-85.0	164	4
2023-08-20T00:00	20729	53	-55.5	-85.0	169	4
2023-08-20T00:00	20749	53	-55.6	-84.6	172	4
2023-08-20T00:00	20775	53	-55.7	-84.7	172	4
2023-08-20T00:00	20800	53	-55.9	-84.8	168	3
2023-08-20T00:00	20824	52	-56.0	-84.9	159	3
2023-08-20T00:00	20844	52	-55.9	-84.8	145	2
2023-08-20T00:00	20871	52	-55.9	-84.8	122	2
2023-08-20T00:00	20896	52	-56.0	-84.9	100	2
2023-08-20T00:00	20920	52	-56.1	-85.0	86	2
2023-08-20T00:00	20951	51	-56.1	-85.0	84	2
2023-08-20T00:00	20970	51	-56.2	-85.1	90	2
2023-08-20T00:00	20996	51	-56.4	-85.2	103	2
2023-08-20T00:00	21020	51	-56.0	-84.9	118	3
2023-08-20T00:00	21045	51	-56.0	-84.9	132	3
2023-08-20T00:00	21066	50	-56.0	-84.9	143	3
2023-08-20T00:00	21092	50	-56.1	-85.0	151	3
2023-08-20T00:00	21119	50	-56.3	-85.1	158	3
2023-08-20T00:00	21144	50	-56.2	-85.1	162	3
2023-08-20T00:00	21166	50	-56.2	-85.1	165	2
2023-08-20T00:00	21199	49	-56.3	-85.1	166	2
2023-08-20T00:00	21220	49	-56.3	-85.1	163	1
2023-08-20T00:00	21245	49	-56.3	-85.1	153	1
2023-08-20T00:00	21271	49	-56.5	-85.3	123	0
2023-08-20T00:00	21292	49	-56.4	-85.2	57	0
2023-08-20T00:00	21319	49	-56.5	-85.3	32	1
2023-08-20T00:00	21341	48	-56.6	-85.4	30	1
2023-08-20T00:00	21367	48	-56.5	-85.3	33	1
2023-08-20T00:00	21392	48	-56.3	-85.1	38	2
2023-08-20T00:00	21418	48	-56.3	-85.1	40	2
2023-08-20T00:00	21442	48	-56.2	-85.1	38	2
2023-08-20T00:00	21470	47	-56.3	-85.1	31	2
2023-08-20T00:00	21488	47	-56.4	-85.2	21	2
2023-08-20T00:00	21515	47	-56.5	-85.3	9	2
2023-08-20T00:00	21538	47	-56.6	-85.4	1	2
2023-08-20T00:00	21566	47	-56.6	-85.4	359	2
2023-08-20T00:00	21592	46	-56.7	-85.4	5	2
2023-08-20T00:00	21614	46	-56.7	-85.4	16	2
2023-08-20T00:00	21643	46	-56.7	-85.4	29	2
2023-08-20T00:00	21667	46	-56.5	-85.3	39	2
2023-08-20T00:00	21689	46	-56.6	-85.4	44	3
2023-08-20T00:00	21715	46	-56.7	-85.4	46	3
2023-08-20T00:00	21738	45	-56.8	-85.5	47	3
2023-08-20T00:00	21764	45	-56.7	-85.4	47	4
2023-08-20T00:00	21788	45	-56.6	-85.4	48	4
2023-08-20T00:00	21815	45	-56.4	-85.2	49	5
2023-08-20T00:00	21838	45	-56.4	-85.2	50	5
2023-08-20T00:00	21862	45	-56.3	-85.1	51	6
2023-08-20T00:00	21886	44	-56.2	-85.1	53	6
2023-08-20T00:00	21908	44	-56.3	-85.1	57	6
2023-08-20T00:00	21937	44	-56.3	-85.1	63	6
2023-08-20T00:00	21960	44	-56.2	-85.1	71	6
2023-08-20T00:00	21987	44	-56.2	-85.1	78	6
2023-08-20T00:00	22008	44	-56.3	-85.1	84	6
2023-08-20T00:00	22030	43	-56.3	-85.1	89	6
2023-08-20T00:00	22058	43	-56.3	-85.1	91	6
2023-08-20T00:00	22078	43	-56.3	-85.1	92	6
2023-08-20T00:00	22108	43	-56.1	-85.0	91	6
2023-08-20T00:00	22127	43	-56.1	-85.5	90	5
2023-08-20T00:00	22156	43	-56.0		89	5
2023-08-20T00:00	22179	42	-55.9	-85.3	90	5
2023-08-20T00:00	22203	42	-55.9	-85.3	91	4
2023-08-20T00:00	22233	42	-55.8	-85.2	93	4
2023-08-20T00:00	22253	42	-55.6	-85.1	95	4
2023-08-20T00:00	22279	42	-55.7	-85.2	96	4
2023-08-20T00:00	22304	42	-55.8	-85.2	96	4
2023-08-20T00:00	22326	41	-55.9	-85.3	95	5
2023-08-20T00:00	22348	41	-55.6	-85.1	93	6
2023-08-20T00:00	22378	41	-55.5	-85.0	92	6
2023-08-20T00:00	22401	41	-55.5	-85.0	91	7
2023-08-20T00:00	22422	41	-55.5	-85.0	92	7
2023-08-20T00:00	22447	41	-55.6	-85.1	93	8
2023-08-20T00:00	22469	40	-55.6	-85.1	96	8
2023-08-20T00:00	22500	40	-55.7	-85.2	99	8
2023-08-20T00:00	22519	40	-55.6	-85.1	103	9
2023-08-20T00:00	22548	40	-55.6	-85.1	105	9
2023-08-20T00:00	22569	40	-55.5	-85.0	106	9
2023-08-20T00:00	22598	40	-55.6	-85.1	106	9
2023-08-20T00:00	22626	40	-55.6	-85.1	106	8
2023-08-20T00:00	22650	39	-55.5	-85.0	106	8
2023-08-20T00:00	22670	39	-55.6	-84.6	106	8
2023-08-20T00:00	22704	39	-55.7	-84.7	108	8
2023-08-20T00:00	22725	39	-55.8	-84.8	110	7
2023-08-20T00:00	22752	39	-55.9	-84.8	111	7
2023-08-20T00:00	22778	39	-56.0	-84.9	112	6
2023-08-20T00:00	22798	38	-56.1	-85.0	111	6
2023-08-20T00:00	22825	38	-56.2	-85.1	109	5
2023-08-20T00:00	22855	38	-56.3	-85.1	106	5
2023-08-20T00:00	22877	38	-56.4	-85.2	102	5
2023-08-20T00:00	22903	38	-56.5	-85.3	97	5
2023-08-20T00:00	22927	38	-56.5	-85.3	92	6
2023-08-20T00:00	22957	37	-56.5	-85.3	88	6
2023-08-20T00:00	22980	37	-56.4	-85.2	84	7
2023-08-20T00:00	23011	37	-56.5	-85.3	83	8
2023-08-20T00:00	23031	37	-56.6	-85.4	84	8
2023-08-20T00:00	23052	37	-56.5	-85.3	86	9
2023-08-20T00:00	23080	37	-56.6	-85.4	89	9
2023-08-20T00:00	23109	37	-56.6	-85.4	92	10
2023-08-20T00:00	23132	36	-56.7	-85.4	96	10
2023-08-20T00:00	23155	36	-56.7	-85.4	99	10
2023-08-20T00:00	23182	36	-56.5	-85.3	101	10
2023-08-20T00:00	23201	36	-56.5	-85.8	101	9
2023-08-20T00:00	23229	36	-56.4	-85.7	100	9
2023-08-20T00:00	23254	36	-56.3	-85.6	98	9
2023-08-20T00:00	23278	36	-56.1	-85.5	95	9
2023-08-20T00:00	23300	36	-56.2	-85.5	93	9
2023-08-20T00:00	23326	35	-56.2	-85.5	92	9
2023-08-20T00:00	23346	35	-56.2	-85.5	94	9
2023-08-20T00:00	23374	35	-55.9	-85.3	97	9
2023-08-20T00:00	23398	35	-55.5	-85.0	101	9
2023-08-20T00:00	23424	35	-55.5	-85.5	105	10
2023-08-20T00:00	23444	35	-55.5	-85.5	109	10
2023-08-20T00:00	23472	35	-55.7	-85.7	113	10
2023-08-20T00:00	23494	34	-55.6	-85.6	115	10
2023-08-20T00:00	23517	34	-55.5	-85.5	117	10
2023-08-20T00:00	23545	34	-55.2	-85.3	119	10
2023-08-20T00:00	23570	34	-55.1	-85.2	120	10
2023-08-20T00:00	23592	34	-55.2	-85.3	121	10
2023-08-20T00:00	23615	34	-55.2	-84.8	123	9
2023-08-20T00:00	23637	34	-55.2	-84.8	123	9
2023-08-20T00:00	23669	34	-55.4	-84.9	123	9
2023-08-20T00:00	23692	33	-55.5	-85.0	121	8
2023-08-20T00:00	23717	33	-55.6	-85.1	119	8
2023-08-20T00:00	23739	33	-55.4	-84.9	116	8
2023-08-20T00:00	23763	33	-55.3	-85.4	114	8
2023-08-20T00:00	23790	33	-55.1	-85.2	113	8
2023-08-20T00:00	23811	33	-55.0	-85.1	113	8
2023-08-20T00:00	23840	33	-54.9	-85.1	114	8
2023-08-20T00:00	23865	33	-54.6	-84.8	114	8
2023-08-20T00:00	23893	32	-54.6	-84.8	113	8
2023-08-20T00:00	23920	32	-54.5	-84.8	112	7
2023-08-20T00:00	23946	32	-54.6	-84.8	111	6
2023-08-20T00:00	23974	32	-54.6	-84.8	110	6
2023-08-20T00:00	23993	32	-54.4	-84.7	109	5
2023-08-20T00:00	24025	32	-54.3	-84.6	108	5
2023-08-20T00:00	24045	32	-54.2	-85.1	108	5
2023-08-20T00:00	24076	31	-54.0	-84.9	107	5
2023-08-20T00:00	24102	31	-54.0	-84.9	104	5
2023-08-20T00:00	24129	31	-54.0	-84.9	99	5
2023-08-20T00:00	24152	31	-53.9	-84.9	93	5
2023-08-20T00:00	24178	31	-53.8	-84.8	87	5
2023-08-20T00:00	24209	31	-53.6	-84.6	82	5
2023-08-20T00:00	24230	31	-53.5	-84.6	78	6
2023-08-20T00:00	24259	31	-53.6	-84.6	73	6
2023-08-20T00:00	24284	30	-53.7	-84.7	69	6
2023-08-20T00:00	24308	30	-53.7	-84.7	64	6
2023-08-20T00:00	24333	30	-53.6	-84.6	58	6
2023-08-20T00:00	24360	30	-53.6	-84.6	52	6
2023-08-20T00:00	24391	30	-53.4	-84.5	45	6
2023-08-20T00:00	24416	30	-53.4	-84.5	39	6
2023-08-20T00:00	24444	30	-53.4	-84.5	36	7
2023-08-20T00:00	24466	30	-53.4	-84.5	37	7
2023-08-20T00:00	24496	29	-53.3	-84.4	40	7
2023-08-20T00:00	24523	29	-53.1	-84.3	45	7
2023-08-20T00:00	24547	29	-53.0	-84.2	51	7
2023-08-20T00:00	24575	29	-53.0	-84.2	58	7
2023-08-20T00:00	24595	29	-53.0	-84.2	64	7
2023-08-20T00:00	24625	29	-53.1	-84.3	70	7
2023-08-20T00:00	24655	29	-53.2	-84.4	75	7
2023-08-20T00:00	24676	29	-53.4	-83.9	80	7
2023-08-20T00:00	24702	29	-53.5	-84.0	84	8
2023-08-20T00:00	24732	28	-53.7	-84.2	87	8
2023-08-20T00:00	24757	28	-53.9	-84.3	90	8
2023-08-20T00:00	24777	28	-54.0	-84.4	92	8
2023-08-20T00:00	24805	28	-53.8	-84.2	94	8
2023-08-20T00:00	24832	28	-53.8	-84.2	94	8
2023-08-20T00:00	24853	28	-53.8	-84.2	93	8
2023-08-20T00:00	24882	28	-53.8	-84.8	91	8
2023-08-20T00:00	24910	28	-53.4	-84.5	88	7
2023-08-20T00:00	24936	28	-53.3	-84.4	85	7
2023-08-20T00:00	24963	27	-53.3	-84.4	81	7
2023-08-20T00:00	24980	27	-53.3	-84.4	77	6
2023-08-20T00:00	25016	27	-53.2	-84.4	73	6
2023-08-20T00:00	25036	27	-52.9	-84.1	71	6
2023-08-20T00:00	25058	27	-52.8	-84.1	70	5
2023-08-20T00:00	25088	27	-52.8	-84.1	71	6
2023-08-20T00:00	25113	27	-52.8	-84.1	73	6
2023-08-20T00:00	25133	27	-52.5	-84.4	77	6
2023-08-20T00:00	25161	27	-52.3	-84.3	81	7
2023-08-20T00:00	25188	26	-52.2	-84.2	84	8
2023-08-20T00:00	25209	26	-52.2	-84.2	88	8
2023-08-20T00:00	25235	26	-52.3	-84.3	91	9
2023-08-20T00:00	25264	26	-52.2	-83.6	93	9
2023-08-20T00:00	25287	26	-52.2	-83.6	96	10
2023-08-20T00:00	25311	26	-52.3	-83.7	98	10
2023-08-20T00:00	25341	26	-52.4	-83.8	102	9
2023-08-20T00:00	25358	26	-52.3	-83.7	105	9
2023-08-20T00:00	25391	26	-52.4	-83.8	110	8
2023-08-20T00:00	25420	26	-52.3	-83.7	115	8
2023-08-20T00:00	25443	25	-52.1	-84.2	120	8
2023-08-20T00:00	25472	25	-51.9	-84.0	125	8
2023-08-20T00:00	25492	25	-51.8	-83.9	128	8
2023-08-20T00:00	25524	25	-51.6	-83.8	130	8
2023-08-20T00:00	25549	25	-51.7	-83.9	133	8
2023-08-20T00:00	25580	25	-51.6	-83.8	135	8
2023-08-20T00:00	25604	25	-51.6	-83.8	138	7
2023-08-20T00:00	25634	25	-51.6	-83.8	142	6
2023-08-20T00:00	25653	25	-51.7	-83.9	147	6
2023-08-20T00:00	25694	25	-51.5	-83.7	153	5
2023-08-20T00:00	25710	24	-51.3	-83.6	160	4
2023-08-20T00:00	25742	24	-50.7	-83.8	167	4
2023-08-20T00:00	25768	24	-50.3	-83.5	172	3
2023-08-20T00:00	25800	24	-50.0	-83.3	173	3
2023-08-20T00:00	25818	24	-49.9	-83.2	170	3
2023-08-20T00:00	25842	24	-49.8	-83.2	163	3
2023-08-20T00:00	25871	24	-49.8	-83.2	155	3
2023-08-20T00:00	25896	24	-49.6	-83.0	147	3
2023-08-20T00:00	25926	24	-49.6	-83.0	139	3
2023-08-20T00:00	25950	24	-49.7	-82.4	134	3
2023-08-20T00:00	25978	23	-49.9	-82.5	130	3
2023-08-20T00:00	25999	23	-50.0	-82.6	125	3
2023-08-20T00:00	26028	23	-50.0	-82.6	121	3
2023-08-20T00:00	26049	23	-50.1	-82.7	114	3
2023-08-20T00:00	26078	23	-50.0	-82.6	107	3
2023-08-20T00:00	26109	23	-49.8	-82.5	97	3
2023-08-20T00:00	26135	23	-49.8	-82.5	86	3
2023-08-20T00:00	26165	23	-49.9	-83.2	73	3
2023-08-20T00:00	26189	23	-49.8	-83.2	61	3
2023-08-20T00:00	26209	23	-49.6	-83.0	50	3
2023-08-20T00:00	26234	23	-49.6	-83.0	42	4
2023-08-20T00:00	26270	22	-49.5	-82.9	36	4
2023-08-20T00:00	26292	22	-49.4	-82.9	32	4
2023-08-20T00:00	26319	22	-49.4	-82.9	31	5
2023-08-20T00:00	26352	22	-49.4	-82.9	31	5
2023-08-20T00:00	26372	22	-49.4	-82.9	33	5
2023-08-20T00:00	26397	22	-49.4	-82.9	36	6
2023-08-20T00:00	26425	22	-49.5	-82.9	38	6
2023-08-20T00:00	26466	22	-49.5	-82.9	41	7
2023-08-20T00:00	26481	22	-49.6	-82.3	44	7
2023-08-20T00:00	26502	22	-49.6	-82.3	47	8
2023-08-20T00:00	26530	22	-49.7	-83.1	52	8
2023-08-20T00:00	26563	21	-49.6	-83.0	57	8
2023-08-20T00:00	26586	21	-49.6	-83.0	61	8
2023-08-20T00:00	26613	21	-49.5	-82.9	65	8
2023-08-20T00:00	26652	21	-49.5	-82.9	68	8
2023-08-20T00:00	26678	21	-49.4	-82.9	69	8
2023-08-20T00:00	26695	21	-49.6	-83.0	70	8
2023-08-20T00:00	26729	21	-49.3	-82.8	69	9
2023-08-20T00:00	26751	21	-49.4	-82.9	69	9
2023-08-20T00:00	26781	21	-49.4	-82.9	68	10
2023-08-20T00:00	26808	21	-49.5	-82.9	69	10
2023-08-20T00:00	26845	21	-49.1	-82.7	69	11
2023-08-20T00:00	26865	20	-48.8	-82.4	70	11
2023-08-20T00:00	26896	20	-48.8	-82.4	72	11
2023-08-20T00:00	26924	20	-48.7	-82.4	74	11
2023-08-20T00:00	26958	20	-48.3	-82.9	77	11
2023-08-20T00:00	26979	20	-47.9	-82.6	79	11
2023-08-20T00:00	27005	20	-47.6	-82.4	81	10
2023-08-20T00:00	27035	20	-47.4	-82.2	81	10
2023-08-20T00:00	27063	20	-47.5	-82.3	81	10
2023-08-20T00:00	27094	20	-47.4	-82.2	81	10
2023-08-20T00:00	27115	20	-47.3	-82.2	80	10
2023-08-20T00:00	27143	20	-47.3	-82.2	80	10
2023-08-20T00:00	27179	20	-47.2	-82.1	80	10
2023-08-20T00:00	27196	19	-47.3	-82.2	80	9
2023-08-20T00:00	27245	19	-47.2	-82.1	79	9
2023-08-20T00:00	27266	19	-47.2	-82.1	79	8
2023-08-20T00:00	27296	19	-47.3	-82.2	80	8
2023-08-20T00:00	27316	19	-47.3	-82.2	82	8
2023-08-20T00:00	27334	19	-47.3	-82.2	85	9
2023-08-20T00:00	27368	19	-47.3	-81.4	88	9
2023-08-20T00:00	27389	19	-47.3	-81.4	91	9
2023-08-20T00:00	27421	19	-47.4	-81.4	94	10
2023-08-20T00:00	27439	19	-47.5	-81.5	97	10
2023-08-20T00:00	27476	19	-47.7	-81.6	100	10
2023-08-20T00:00	27500	19	-47.9	-81.8	103	11
2023-08-20T00:00	27533	19	-47.8	-81.7	106	11
2023-08-20T00:00	27558	18	-47.9	-81.8	108	11
2023-08-20T00:00	27585	18	-47.9	-81.8	111	11
2023-08-20T00:00	27614	18	-47.9	-81.8	113	11
2023-08-20T00:00	27647	18	-47.8	-81.7	115	11
2023-08-20T00:00	27664	18	-47.8	-81.7	117	11
2023-08-20T00:00	27696	18	-47.8	-82.5	118	11
2023-08-20T00:00	27724	18	-47.8	-82.5	119	10
2023-08-20T00:00	27753	18	-47.6	-82.4	120	10
2023-08-20T00:00	27766	18	-47.4	-82.2	120	10
2023-08-20T00:00	27805	18	-47.2	-82.1	121	9
2023-08-20T00:00	27829	18	-47.2	-82.1	121	9
2023-08-20T00:00	27860	18	-47.2	-82.1	122	9
2023-08-20T00:00	27882	18	-47.2	-82.1	122	9
2023-08-20T00:00	27914	17	-47.2	-82.1	121	9
2023-08-20T00:00	27943	17	-47.1	-82.0	121	9
2023-08-20T00:00	27965	17	-46.9	-81.9	121	10
2023-08-20T00:00	27993	17	-46.8	-81.8	122	10
2023-08-20T00:00	28013	17	-46.9	-81.9	124	10
2023-08-20T00:00	28043	17	-47.0	-81.9	127	10
2023-08-20T00:00	28072	17	-47.1	-82.0	131	10
2023-08-20T00:00	28109	17	-46.8	-81.8	136	10
2023-08-20T00:00	28130	17	-46.6	-81.7	141	9
2023-08-20T00:00	28148	17	-46.4	-81.5	146	9
2023-08-20T00:00	28181	17	-46.3	-81.4	150	8
2023-08-20T00:00	28207	17	-46.3	-81.4	154	7
2023-08-20T00:00	28231	17	-46.2	-81.4	156	7
2023-08-20T00:00	28257	17	-46.2	-81.4	157	6
2023-08-20T00:00	28286	17	-46.1	-81.3	156	5
2023-08-20T00:00	28313	16	-46.0	-82.1	153	4
2023-08-20T00:00	28338	16	-45.8	-82.0	150	4
2023-08-20T00:00	28357	16	-45.6	-81.9	143	3
2023-08-20T00:00	28383	16	-45.3	-81.6	132	2
2023-08-20T00:00	28427	16	-44.9	-81.4	112	2
2023-08-20T00:00	28449	16	-44.8	-81.3	84	2
2023-08-20T00:00	28477	16	-44.7	-81.2	63	2
2023-08-20T00:00	28505	16	-44.6	-81.2	54	3
2023-08-20T00:00	28532	16	-44.5	-81.1	53	4
2023-08-20T00:00	28556	16	-44.3	-80.9	54	4
2023-08-20T00:00	28572	16	-43.9	-80.7	56	5
2023-08-20T00:00	28604	16	-43.6	-80.4	59	5
2023-08-20T00:00	28633	16	-43.2	-80.2	62	5
2023-08-20T00:00	28655	16	-42.9	-80.0	68	5
2023-08-20T00:00	28680	16	-42.9	-80.0	76	4
2023-08-20T00:00	28697	16	-42.9	-80.0	89	4
2023-08-20T00:00	28738	15	-42.8	-79.9	102	4
2023-08-20T00:00	28775	15	-42.9	-80.0	110	4
2023-08-20T00:00	28792	15	-43.0	-80.0	112	5
2023-08-20T00:00	28816	15	-43.0	-80.0	109	5
2023-08-20T00:00	28845	15	-42.7	-79.8	102	5
2023-08-20T00:00	28882	15	-42.6	-79.7	94	6
2023-08-20T00:00	28906	15	-42.5	-79.7	87	6
2023-08-20T00:00	28932	15	-42.6	-79.7	83	7
2023-08-20T00:00	28955	15	-42.6	-79.7	82	7
2023-08-20T00:00	28984	15	-42.5	-80.8	84	7
2023-08-20T00:00	29015	15	-42.4	-80.7	88	8
2023-08-20T00:00	29048	15	-42.0	-80.4	93	8
2023-08-20T00:00	29076	15	-41.7	-80.2	97	8
2023-08-20T00:00	29091	15	-41.6	-80.1	100	8
2023-08-20T00:00	29122	15	-41.8	-80.3	101	8
2023-08-20T00:00	29148	15	-41.8	-80.3	101	9
2023-08-20T00:00	29174	14	-41.7	-80.2	99	9
2023-08-20T00:00	29213	14	-41.4	-80.0	97	10
2023-08-20T00:00	29223	14	-41.3	-79.9	97	10
2023-08-20T00:00	29258	14	-41.4	-80.0	98	10
2023-08-20T00:00	29281	14	-41.3	-79.9	101	10
2023-08-20T00:00	29322	14	-41.1	-79.8	105	10
2023-08-20T00:00	29342	14	-41.0	-79.7	111	10
2023-08-20T00:00	29373	14	-41.1	-79.8	117	10
2023-08-20T00:00	29384	14	-41.1	-79.8	123	10
2023-08-20T00:00	29409	14	-41.0	-79.7	129	9
2023-08-20T00:00	29441	14	-40.8	-79.6	135	9
2023-08-20T00:00	29469	14	-40.8	-79.6	141	9
2023-08-20T00:00	29496	14	-40.8	-79.6	147	9
2023-08-20T00:00	29504	14	-40.8	-79.6	152	9
2023-08-20T00:00	29542	14	-40.8	-79.6	157	9
2023-08-20T00:00	29568	14	-40.6	-79.5	160	9
2023-08-20T00:00	29595	14	-40.6	-79.5	163	9
2023-08-20T00:00	29633	14	-40.6	-79.5	165	8
2023-08-20T00:00	29652	14	-40.4	-79.3	165	8
2023-08-20T00:00	29683	13	-40.3	-79.2	164	7
2023-08-20T00:00	29712	13	-40.2	-79.2	162	6
2023-08-20T00:00	29741	13	-40.2	-79.2	159	6
2023-08-20T00:00	29764	13	-40.2	-79.2	155	6
2023-08-20T00:00	29774	13	-40.2	-79.2	149	5
2023-08-20T00:00	29814	13	-40.2	-79.2	142	5
2023-08-20T00:00	29842	13	-40.3	-79.2	135	5
2023-08-20T00:00	29857	13	-40.1	-79.1	130	5
2023-08-20T00:00	29893	13	-40.0	-79.0	128	5
2023-08-20T00:00	29925	13	-39.9	-79.0	128	5
2023-08-20T00:00	29942	13	-39.8	-78.9	130	5
2023-08-20T00:00	29979	13	-39.8	-78.9	135	4
2023-08-20T00:00	29997	13	-39.9	-79.0	141	4
2023-08-20T00:00	30033	13	-39.9	-79.0	148	4
2023-08-20T00:00	30053	13	-40.0	-79.0	156	4
2023-08-20T00:00	30082	13	-40.0	-79.0	165	4
2023-08-20T00:00	30110	13	-40.1	-79.1	174	4
2023-08-20T00:00	30141	13	-40.3	-79.2	182	4
2023-08-20T00:00	30177	13	-40.4	-79.3	188	4
2023-08-20T00:00	30202	12	-40.6	-79.5	195	5
2023-08-20T00:00	30236	12	-40.7	-79.5	201	5
2023-08-20T00:00	30272	12	-40.6	-79.5	209	4
2023-08-20T00:00	30290	12	-40.5	-79.4	217	5
2023-08-20T00:00	30312	12	-40.7	-79.5	225	5
2023-08-20T00:00	30349	12	-40.9	-79.7	232	5
2023-08-20T00:00	30381	12	-41.0	-79.7	237	5
2023-08-20T00:00	30404	12	-40.9	-79.7	242	6
2023-08-20T00:00	30438	12	-41.0	-79.7	247	6
2023-08-20T00:00	30481	12	-41.2	-79.9	252	6
2023-08-20T00:00	30491	12	-41.3	-79.9	257	5
2023-08-20T00:00	30516	12	-41.3	-79.9	263	5
2023-08-20T00:00	30542	12	-41.0	-79.7	271	4
2023-08-20T00:00	30574	12	-40.8	-79.6	284	3
2023-08-20T00:00	30609	12	-40.7	-79.5	307	2
2023-08-20T00:00	30650	12	-40.6	-79.5	345	2
2023-08-20T00:00	30677	12	-40.6	-79.5	16	2
2023-08-20T00:00	30686	12	-40.7	-79.5	30	2
2023-08-20T00:00	30713	12	-40.7	-79.5	35	3
2023-08-20T00:00	30744	12	-40.7	-79.5	38	3
2023-08-20T00:00	30770	11	-40.6	-79.5	38	3
2023-08-20T00:00	30796	11	-40.6	-79.5	37	3
2023-08-20T00:00	30823	11	-40.4	-79.3	34	3
2023-08-20T00:00	30871	11	-40.4	-79.3	29	3
2023-08-20T00:00	30890	11	-40.4	-79.3	18	2
2023-08-20T00:00	30926	11	-40.4	-79.3	357	2
2023-08-20T00:00	30948	11	-40.4	-79.3	330	2
2023-08-20T00:00	30966	11	-40.5	-79.4	307	2
2023-08-20T00:00	30999	11	-40.5	-79.4	294	3
2023-08-20T00:00	31018	11	-40.4	-79.3	287	4
2023-08-20T00:00	31060	11	-40.4	-79.3	283	4
2023-08-20T00:00	31086	11	-40.4	-79.3	280	4
2023-08-20T00:00	31100	11	-40.4	-79.3	278	4
2023-08-20T00:00	31145	11	-40.4	-79.3	277	3
2023-08-20T00:00	31181	11	-40.4	-79.3	277	3
2023-08-20T00:00	31190	11	-40.3	-79.2	281	2
2023-08-20T00:00	31238	11	-40.4	-79.3	295	1
2023-08-20T00:00	31251	11	-40.4	-79.3	8	0
2023-08-20T00:00	31284	11	-40.4	-79.3	72	1
2023-08-20T00:00	31287	11	-40.4	-79.3	87	2
2023-08-20T00:00	31343	11	-40.4	-79.3	95	3
2023-08-20T00:00	31364	11	-40.4	-79.3	100	4
2023-08-20T00:00	31399	10	-40.5	-79.4	102	4
2023-08-20T00:00	31410	10	-40.6	-79.5	103	4
2023-08-20T00:00	31467	10	-40.7	-79.5	103	4
2023-08-20T00:00	31491	10	-40.6	-79.5	103	4
2023-08-20T00:00	31520	10	-40.5	-79.4	104	4
2023-08-20T00:00	31527	10	-40.5	-79.4	107	4
2023-08-20T00:00	31570	10	-40.6	-79.5	114	3
2023-08-20T00:00	31577	10	-40.7	-79.5	122	3
2023-08-20T00:00	31616	10	-40.7	-79.5	131	3
2023-08-20T00:00	31635	10	-40.8	-79.6	140	3
2023-08-20T00:00	31684	10	-40.7	-79.5	148	3
2023-08-20T00:00	31705	10	-40.3	-79.2	156	2
2023-08-20T00:00	31735	10	-40.2	-79.2	166	2
2023-08-20T00:00	31751	10	-40.3	-79.2	177	1
2023-08-20T00:00	31794	10	-40.5	-79.4	190	1
2023-08-20T00:00	31815	10	-40.6	-79.5	201	1
2023-08-20T00:00	31846	10	-40.7	-79.5	46	0
2023-08-20T00:00	31866	10	-40.7	-79.5	43	1
2023-08-20T00:00	31892	10	-40.5	-79.4	48	2
2023-08-20T00:00	31908	10	-40.2	-79.2	54	3
2023-08-20T00:00	31953	10	-39.9	-79.0	58	4
2023-08-20T00:00	31979	10	-39.6	-78.8	62	5
2023-08-20T00:00	32026	10	-39.4	-78.6	65	6
2023-08-20T00:00	32035	10	-39.3	-78.5	69	6
2023-08-20T00:00	32074	9	-39.4	-78.6	72	7
2023-08-20T00:00	32098	9	-39.4	-78.6	76	7
2023-08-20T00:00	32121	9	-39.5	-78.7	81	7
2023-08-20T00:00	32155	9	-39.5	-78.7	86	7
2023-08-20T00:00	32177	9	-39.5	-78.7	90	7
2023-08-20T00:00	32208	9	-39.5	-78.7	95	8
2023-08-20T00:00	32232	9	-39.4	-78.6	98	8
2023-08-20T00:00	32261	9	-39.3	-78.5	99	9
2023-08-20T00:00	32288	9	-39.2	-78.5	100	9
2023-08-20T00:00	32321	9	-39.3	-78.5	101	9
2023-08-20T00:00	32336	9	-39.3	-78.5	101	9
2023-08-20T00:00	32359	9	-39.2	-78.5	102	8
2023-08-20T00:00	32392	9	-39.3	-78.5	103	8
2023-08-20T00:00	32423	9	-39.4	-78.6	104	7
2023-08-20T00:00	32452	9	-39.3	-78.5	105	7
2023-08-20T00:00	32472	9	-39.3	-78.5	105	7
2023-08-20T00:00	32486	9	-39.3	-78.5	105	7
2023-08-20T00:00	32523	9	-39.2	-78.5	106	7
2023-08-20T00:00	32548	9	-39.1	-78.4	108	8
2023-08-20T00:00	32572	9	-38.7	-78.1	111	8
2023-08-20T00:00	32603	9	-38.6	-78.1	113	9
2023-08-20T00:00	32617	9	-38.3	-77.9	119	9
2023-08-20T00:00	32665	9	-38.3	-77.9	121	9
2023-08-20T00:00	32683	9	-38.3	-77.9	123	8
2023-08-20T00:00	32705	9	-38.3	-77.9	124	7
2023-08-20T00:00	32722	9	-38.2	-77.8	125	6
2023-08-20T00:00	32745	9	-38.0	-77.6	125	5
2023-08-20T00:00	32775	9	-38.1	-77.7	124	4
2023-08-20T00:00	32795	9	-38.2	-77.8	121	4
2023-08-20T00:00	32821	9	-38.1	-77.7	114	3
2023-08-20T00:00	32854	8	-37.9	-77.6	106	3
2023-08-20T00:00	32864	8	-37.8	-77.5	97	3
2023-08-20T00:00	32900	8	-37.5	-77.3	90	3
2023-08-20T00:00	32920	8	-37.2	-77.1	83	4
2023-08-20T00:00	32937	8	-37.1	-77.0	79	4
2023-08-20T00:00	32956	8	-36.9	-76.9	76	5
2023-08-20T00:00	32974	8	-36.6	-76.7	76	5
2023-08-20T00:00	32985	8	-36.3	-76.5	78	6
2023-08-20T00:00	33022	8	-36.2	-76.4	82	6
2023-08-20T00:00	33040	8	-36.1	-76.3	87	6
2023-08-20T00:00	33080	8	-36.0	-76.3	92	6
2023-08-20T00:00	33107	8	-35.9	-76.2	97	6
2023-08-20T00:00	33109	8	-35.8	-76.1	101	6
2023-08-20T00:00	33122	8	-35.8	-76.1	104	6
2023-08-20T00:00	33171	8	-35.8	-76.1	107	6
2023-08-20T00:00	33204	8	-35.7	-76.1	110	6
2023-08-20T00:00	33239	8	-35.1	-75.6	115	7
2023-08-20T00:00	33267	8	-34.7	-75.4	118	8
2023-08-20T00:00	33275	8	-34.4	-75.2	121	8
2023-08-20T00:00	33341	8	-34.3	-75.1	123	8
2023-08-20T00:00	33360	8	-34.3	-75.1	125	9
2023-08-20T00:00	33366	8	-34.3	-75.1	126	9
2023-08-20T00:00	33407	8	-34.2	-75.0	127	8
2023-08-20T00:00	33415	8	-34.2	-75.0	127	8
2023-08-20T00:00	33468	8	-34.0	-74.9	127	7
2023-08-20T00:00	33495	8	-33.7	-74.7	126	5
2023-08-20T00:00	33538	8	-33.5	-74.5	126	4
2023-08-20T00:00	33554	8	-33.4	-74.5	122	4
2023-08-20T00:00	33592	8	-33.4	-74.5	115	3
2023-08-20T00:00	33602	8	-33.4	-74.5	103	3
2023-08-20T00:00	33611	8	-33.4	-74.5	83	2
2023-08-20T00:00	33648	8	-33.4	-74.5	66	3
2023-08-20T00:00	33688	8	-33.1	-74.3	54	3
2023-08-20T00:00	33708	8	-32.8	-74.1	49	3
2023-08-20T00:00	33747	7	-32.7	-74.0	50	4
2023-08-20T00:00	33748	7	-32.7	-74.0	55	4
2023-08-20T00:00	33766	7	-32.7	-74.0	64	4
2023-08-20T00:00	33801	7	-32.7	-74.0	74	4
2023-08-20T00:00	33832	7	-32.6	-73.9	84	5
2023-08-20T00:00	33858	7	-32.6	-73.9	91	5
2023-08-20T00:00	33871	7	-32.6	-73.9	97	6
2023-08-20T00:00	33900	7	-32.5	-73.8	101	6
2023-08-20T00:00	33921	7	-32.4	-73.8	106	6
2023-08-20T00:00	33952	7	-32.3	-73.7	111	6
2023-08-20T00:00	33977	7	-32.3	-73.7	116	6
2023-08-20T00:00	33996	7	-32.2	-73.6	119	7
2023-08-20T00:00	34015	7	-32.2	-73.6	122	7
2023-08-20T00:00	34027	7	-32.3	-73.7	123	6
2023-08-20T00:00	34075	7	-32.2	-73.6	122	6
2023-08-20T00:00	34101	7	-32.2	-73.6	121	5
2023-08-20T00:00	34140	7	-32.2	-73.6	118	5
2023-08-20T00:00	34197	7	-32.2	-73.6	108	3
2023-08-20T00:00	34230	7	-32.2	-73.6	83	3
2023-08-20T00:00	34244	7	-32.0	-73.5	70	3
2023-08-20T00:00	34251	7	-31.9	-73.4	59	3
2023-08-20T00:00	34281	7	-31.9	-73.4	51	4
2023-08-20T00:00	34310	7	-31.9	-73.4	45	4
2023-08-20T00:00	34325	7	-31.8	-73.4	41	5
2023-08-20T00:00	34336	7	-31.8	-73.4	39	6
2023-08-20T00:00	34401	7	-31.7	-73.3	39	6
2023-08-20T00:00	34409	7	-31.7	-73.3	41	6
2023-08-20T00:00	34426	7	-31.5	-73.2	44	7
2023-08-20T00:00	34461	7	-31.4	-73.1	47	7
2023-08-20T00:00	34464	7	-31.4	-73.1	51	7
2023-08-20T00:00	34502	7	-31.5	-73.2	54	7
2023-08-20T00:00	34535	7	-31.5	-73.2	58	7
2023-08-20T00:00	34541	7	-31.5	-73.2	62	7
2023-08-20T00:00	34582	7	-31.6	-73.2	66	7
2023-08-20T00:00	34615	7	-31.7	-73.3	70	7
2023-08-20T00:00	34622	7	-31.7	-73.3	74	7
2023-08-20T00:00	34645	7	-31.8	-73.4	79	8
2023-08-20T00:00	34686	7	-31.8	-73.4	84	8
2023-08-20T00:00	34699	7	-31.9	-73.4	90	8
2023-08-20T00:00	34726	6	-31.9	-73.4	95	8
2023-08-20T00:00	34760	6	-31.9	-73.4	101	8
2023-08-20T00:00	34769	6	-31.9	-73.4	107	8
2023-08-20T00:00	34801	6	-31.8	-73.4	112	9
2023-08-20T00:00	34826	6	-31.9	-73.4	117	9
2023-08-20T00:00	34844	6	-32.1	-73.6	121	9
2023-08-20T00:00	34901	6	-32.3	-73.7	123	9
2023-08-20T06:00	112	1006	21.3	19.4	320	3
2023-08-20T06:00	139	1003	21.7	19.6	322	4
2023-08-20T06:00	165	1000	21.5	19.5	324	5
2023-08-20T06:00	195	997	21.6	19.4	326	6
2023-08-20T06:00	223	994	21.4	19.3	328	8
2023-08-20T06:00	250	991	21.3	19.3	330	9
2023-08-20T06:00	275	988	21.3	19.1	333	10
2023-08-20T06:00	298	985	21.5	18.9	334	11
2023-08-20T06:00	321	983	22.4	18.3	335	11
2023-08-20T06:00	341	980	23.4	17.5	334	11
2023-08-20T06:00	365	978	23.6	17.7	332	11
2023-08-20T06:00	387	975	23.7	17.9	328	10
2023-08-20T06:00	411	973	23.8	18.0	323	10
2023-08-20T06:00	430	970	24.0	17.9	318	9
2023-08-20T06:00	454	968	24.4	17.7	312	9
2023-08-20T06:00	480	965	24.6	17.1	305	9
2023-08-20T06:00	506	962	24.8	16.6	299	9
2023-08-20T06:00	534	959	24.7	16.1	294	8
2023-08-20T06:00	553	957	24.8	16.0	289	8
2023-08-20T06:00	576	955	24.8	15.6	285	8
2023-08-20T06:00	600	952	24.7	15.5	281	8
2023-08-20T06:00	624	949	24.7	14.9	277	7
2023-08-20T06:00	644	947	24.9	14.6	274	7
2023-08-20T06:00	665	945	24.9	14.4	272	7
2023-08-20T06:00	689	942	24.7	14.3	271	7
2023-08-20T06:00	713	940	24.6	14.5	271	7
2023-08-20T06:00	733	938	24.4	14.9	271	7
2023-08-20T06:00	756	935	24.2	14.6	270	6
2023-08-20T06:00	783	932	24.0	15.0	269	6
2023-08-20T06:00	806	930	23.8	15.1	267	6
2023-08-20T06:00	831	927	23.7	14.7	265	5
2023-08-20T06:00	859	924	23.6	14.6	263	5
2023-08-20T06:00	884	922	23.4	14.4	262	5
2023-08-20T06:00	910	919	23.2	14.4	263	5
2023-08-20T06:00	933	916	23.1	14.5	264	5
2023-08-20T06:00	960	913	22.8	14.4	265	5
2023-08-20T06:00	992	910	22.5	14.4	267	4
2023-08-20T06:00	1020	907	22.3	14.2	268	4
2023-08-20T06:00	1045	905	22.0	14.3	269	4
2023-08-20T06:00	1073	902	21.7	14.2	269	4
2023-08-20T06:00	1096	899	21.5	14.2	269	5
2023-08-20T06:00	1124	897	21.3	14.3	267	5
2023-08-20T06:00	1149	894	21.0	14.2	266	5
2023-08-20T06:00	1180	891	20.7	14.2	265	5
2023-08-20T06:00	1209	888	20.4	14.2	265	6
2023-08-20T06:00	1235	885	20.1	14.5	265	6
2023-08-20T06:00	1262	882	19.9	14.5	265	6
2023-08-20T06:00	1292	879	19.6	14.4	267	6
2023-08-20T06:00	1322	876	19.3	14.3	268	6
2023-08-20T06:00	1348	874	19.1	13.9	270	6
2023-08-20T06:00	1373	871	19.0	13.2	272	6
2023-08-20T06:00	1402	868	19.0	11.4	272	6
2023-08-20T06:00	1430	865	18.8	12.5	272	6
2023-08-20T06:00	1457	863	18.5	11.9	272	6
2023-08-20T06:00	1483	860	18.5	10.9	271	6
2023-08-20T06:00	1511	857	18.3	10.1	271	6
2023-08-20T06:00	1536	855	18.1	9.8	271	6
2023-08-20T06:00	1565	852	17.9		272	6
2023-08-20T06:00	1593	849	17.7	9.4	273	6
2023-08-20T06:00	1620	846	17.4	9.5	274	6
2023-08-20T06:00	1651	843	17.2	9.3	275	5
2023-08-20T06:00	1677	841	17.0	9.0	275	5
2023-08-20T06:00	1704	838	16.8	8.6	274	5
2023-08-20T06:00	1733	835	16.6	8.1	274	4
2023-08-20T06:00	1758	833	16.4	8.2	275	4
2023-08-20T06:00	1785	830	16.2	8.2	278	4
2023-08-20T06:00	1811	827	15.9		283	4
2023-08-20T06:00	1843	825	15.6	8.1	288	4
2023-08-20T06:00	1872	822	15.4	8.1	291	4
2023-08-20T06:00	1896	819	15.2	7.7	292	4
2023-08-20T06:00	1925	817	15.0	7.7	291	4
2023-08-20T06:00	1950	814	14.7	7.5	287	4
2023-08-20T06:00	1978	811	14.5	7.5	284	4
2023-08-20T06:00	2006	809	14.3	7.6	282	5
2023-08-20T06:00	2034	806	14.1	7.4	281	5
2023-08-20T06:00	2059	804	14.0	7.0	281	5
2023-08-20T06:00	2087	801	13.7	6.9	281	5
2023-08-20T06:00	2121	798	13.4	6.8	282	6
2023-08-20T06:00	2153	795	13.1	6.8	284	6
2023-08-20T06:00	2181	792	12.8	6.7	285	6
2023-08-20T06:00	2210	789	12.5	6.5	286	6
2023-08-20T06:00	2239	787	12.3	6.3	287	6
2023-08-20T06:00	2266	784	12.1	6.3	289	6
2023-08-20T06:00	2292	782	11.8	6.2	290	6
2023-08-20T06:00	2324	779	11.5	6.1	292	6
2023-08-20T06:00	2357	776	11.3	6.0	293	6
2023-08-20T06:00	2386	773	11.0	5.6	295	6
2023-08-20T06:00	2417	770	10.8	4.9	297	6
2023-08-20T06:00	2446	768	10.7	4.8	298	6
2023-08-20T06:00	2474	765	10.4	4.6	300	7
2023-08-20T06:00	2503	762	10.3	4.2	300	7
2023-08-20T06:00	2531	760	10.1	4.5	301	7
2023-08-20T06:00	2560	757	9.8	4.8	302	7
2023-08-20T06:00	2593	754	9.5	5.4	303	7
2023-08-20T06:00	2623	751	9.1	6.0	304	7
2023-08-20T06:00	2653	749	9.0	5.5	306	7
2023-08-20T06:00	2680	746	8.7	5.1	307	7
2023-08-20T06:00	2706	744	8.5	5.1	307	7
2023-08-20T06:00	2734	741	8.3	5.1	305	7
2023-08-20T06:00	2761	739	8.0	5.0	303	7
2023-08-20T06:00	2792	736	7.7	4.9	301	7
2023-08-20T06:00	2825	733	7.4	4.8	299	7
2023-08-20T06:00	2855	731	7.2	4.9	298	7
2023-08-20T06:00	2884	728	7.0	4.7	297	7
2023-08-20T06:00	2915	725	6.7	4.6	296	7
2023-08-20T06:00	2947	723	6.5	4.5	294	7
2023-08-20T06:00	2976	720	6.2	4.3	293	7
2023-08-20T06:00	3002	718	5.9	4.2	291	7
2023-08-20T06:00	3029	715	5.7	4.0	289	7
2023-08-20T06:00	3055	713	5.5	4.0	286	7
2023-08-20T06:00	3083	711	5.2	3.9	284	7
2023-08-20T06:00	3111	708	5.1	4.0	281	7
2023-08-20T06:00	3139	706	4.9	3.7	280	7
2023-08-20T06:00	3164	704	4.8	3.0	279	8
2023-08-20T06:00	3193	701	4.7	2.6	279	8
2023-08-20T06:00	3218	699	4.6	2.5	279	9
2023-08-20T06:00	3247	696	4.5	2.0	279	9
2023-08-20T06:00	3274	694	4.4	1.4	279	10
2023-08-20T06:00	3302	692	4.2	1.5	279	10
2023-08-20T06:00	3328	690	4.0	1.5	279	10
2023-08-20T06:00	3354	687	3.7	1.5	279	10
2023-08-20T06:00	3381	685	3.4	1.4	280	10
2023-08-20T06:00	3407	683	3.2	1.5	280	10
2023-08-20T06:00	3435	681	2.9	1.4	280	10
2023-08-20T06:00	3463	678	2.7	1.3	280	11
2023-08-20T06:00	3491	676	2.4	1.0	280	11
2023-08-20T06:00	3520	673	2.2	0.3	280	11
2023-08-20T06:00	3548	671	2.0	0.0	280	11
2023-08-20T06:00	3574	669	1.8	-0.2	281	12
2023-08-20T06:00	3600	667	1.6	-0.4	281	12
2023-08-20T06:00	3628	664	1.4	-0.5	282	12
2023-08-20T06:00	3656	662	1.2	-0.5	281	13
2023-08-20T06:00	3683	660	1.0	-0.6	280	13
2023-08-20T06:00	3711	658	0.9	-0.5	279	13
2023-08-20T06:00	3740	655	0.9	-1.3	279	14
2023-08-20T06:00	3766	653	0.8	-1.4	279	14
2023-08-20T06:00	3798	651	0.5	-1.3	278	14
2023-08-20T06:00	3828	648	0.2	-1.7	278	15
2023-08-20T06:00	3857	646	0.1	-2.2	278	15
2023-08-20T06:00	3886	644	-0.2	-2.5	277	15
2023-08-20T06:00	3915	641	-0.5	-2.5	277	15
2023-08-20T06:00	3943	639	-0.8	-2.7	276	15
2023-08-20T06:00	3971	637	-1.0	-3.0	275	15
2023-08-20T06:00	4001	634	-1.3	-3.1	275	15
2023-08-20T06:00	4028	632	-1.6	-3.2	274	15
2023-08-20T06:00	4057	630	-1.8	-3.3	274	15
2023-08-20T06:00	4083	628	-2.1	-3.6	274	15
2023-08-20T06:00	4108	626	-2.3	-3.7	274	15
2023-08-20T06:00	4137	624	-2.6	-3.8	274	14
2023-08-20T06:00	4165	621	-2.9	-4.7	273	13
2023-08-20T06:00	4194	619	-2.7		273	12
2023-08-20T06:00	4221	617	-2.4	-12.7	271	12
2023-08-20T06:00	4251	615	-1.6	-21.5	270	11
2023-08-20T06:00	4279	613	-0.4	-30.7	269	11
2023-08-20T06:00	4307	610	-0.1	-32.5	270	10
2023-08-20T06:00	4335	608	-0.3	-33.1	271	10
2023-08-20T06:00	4363	606	-0.5	-31.9	272	10
2023-08-20T06:00	4392	604	-0.6	-32.2	273	10
2023-08-20T06:00	4422	602	-0.5	-33.3	272	10
2023-08-20T06:00	4451	599	-0.6	-33.7	271	10
2023-08-20T06:00	4479	597	-0.6	-34.6	269	10
2023-08-20T06:00	4507	595	-0.5	-36.3	268	10
2023-08-20T06:00	4532	593	-0.4	-37.1	266	10
2023-08-20T06:00	4562	591	-0.4	-38.1	265	9
2023-08-20T06:00	4590	589	-0.6	-38.2	265	9
2023-08-20T06:00	4616	587	-0.7	-38.3	265	9
2023-08-20T06:00	4646	585	-0.9	-38.1	265	8
2023-08-20T06:00	4674	583	-1.2	-37.7	266	8
2023-08-20T06:00	4706	581	-1.4	-37.6	266	8
2023-08-20T06:00	4735	578	-1.6	-37.4	265	8
2023-08-20T06:00	4764	576	-1.7	-39.0	264	7
2023-08-20T06:00	4793	574	-1.9	-39.9	263	7
2023-08-20T06:00	4822	572	-2.0	-39.3	263	7
2023-08-20T06:00	4852	570	-2.3	-38.5	264	7
2023-08-20T06:00	4883	568	-2.5	-40.0	265	8
2023-08-20T06:00	4913	566	-2.6	-39.4	266	8
2023-08-20T06:00	4941	564	-2.8	-38.9	267	8
2023-08-20T06:00	4969	562	-2.9	-37.6	267	8
2023-08-20T06:00	5000	560	-3.1	-37.3	267	8
2023-08-20T06:00	5027	558	-3.4	-38.0	267	8
2023-08-20T06:00	5054	556	-3.6	-37.6	266	8
2023-08-20T06:00	5083	554	-3.7	-38.5	266	8
2023-08-20T06:00	5113	552	-3.8	-40.3	266	8
2023-08-20T06:00	5142	550	-3.9	-41.0	265	7
2023-08-20T06:00	5170	548	-4.1	-41.1	264	7
2023-08-20T06:00	5197	546	-4.3	-41.3	263	7
2023-08-20T06:00	5228	544	-4.5	-41.4	260	7
2023-08-20T06:00	5260	541	-4.6	-41.5	258	6
2023-08-20T06:00	5293	539	-4.8	-41.3	255	6
2023-08-20T06:00	5324	537	-5.0	-41.8	253	7
2023-08-20T06:00	5357	535	-5.2	-42.0	253	7
2023-08-20T06:00	5386	533	-5.4	-40.9	254	7
2023-08-20T06:00	5417	531	-5.7	-40.5	257	7
2023-08-20T06:00	5451	528	-6.0	-40.7	260	7
2023-08-20T06:00	5482	526	-6.3	-40.7	262	8
2023-08-20T06:00	5515	524	-6.6	-42.7	264	8
2023-08-20T06:00	5544	522	-6.8	-43.5	266	9
2023-08-20T06:00	5576	520	-7.1	-43.7	268	9
2023-08-20T06:00	5609	518	-7.3	-43.9	269	9
2023-08-20T06:00	5640	516	-7.6	-43.8	270	9
2023-08-20T06:00	5673	514	-7.8	-43.9	271	8
2023-08-20T06:00	5703	511	-8.0	-44.0	271	8
2023-08-20T06:00	5736	509	-8.2	-44.5	271	8
2023-08-20T06:00	5768	507	-8.4	-43.7	270	8
2023-08-20T06:00	5798	505	-8.5	-44.1	270	7
2023-08-20T06:00	5821	504	-8.7	-44.6	270	7
2023-08-20T06:00	5848	502	-8.9	-44.4	270	7
2023-08-20T06:00	5879	500	-9.1	-44.9	272	8
2023-08-20T06:00	5909	498	-9.4	-45.1	273	8
2023-08-20T06:00	5944	496	-9.6	-45.2	275	8
2023-08-20T06:00	5974	494	-9.7	-45.3	277	7
2023-08-20T06:00	6002	492	-9.9	-45.5	278	7
2023-08-20T06:00	6024	491	-10.0	-45.5	279	7
2023-08-20T06:00	6047	489	-10.2	-45.4	280	6
2023-08-20T06:00	6071	488	-10.4	-45.5	281	6
2023-08-20T06:00	6096	486	-10.6	-45.7	281	6
2023-08-20T06:00	6130	484	-10.9	-45.9	282	7
2023-08-20T06:00	6157	482	-11.1	-46.1	281	7
2023-08-20T06:00	6189	480	-11.3	-46.5	279	7
2023-08-20T06:00	6212	479	-11.4	-46.9	278	7
2023-08-20T06:00	6241	477	-11.3	-47.9	276	7
2023-08-20T06:00	6269	475	-11.5	-48.1	276	7
2023-08-20T06:00	6290	474	-11.6	-48.5	278	6
2023-08-20T06:00	6317	472	-11.8	-48.7	281	6
2023-08-20T06:00	6339	471	-12.0	-48.8	284	5
2023-08-20T06:00	6364	469	-12.0	-48.8	288	5
2023-08-20T06:00	6389	468	-12.0	-48.8	292	5
2023-08-20T06:00	6419	466	-12.3	-49.0	296	5
2023-08-20T06:00	6450	464	-12.5	-48.4	302	5
2023-08-20T06:00	6477	462	-12.7	-47.9	309	6
2023-08-20T06:00	6506	461	-13.0	-48.1	314	6
2023-08-20T06:00	6539	459	-13.1	-46.1	318	7
2023-08-20T06:00	6570	457	-13.1	-44.7	320	7
2023-08-20T06:00	6600	455	-13.0	-43.4	321	8
2023-08-20T06:00	6633	453	-13.3	-43.4	319	8
2023-08-20T06:00	6663	451	-13.6	-43.3	317	9
2023-08-20T06:00	6693	450	-14.0	-43.8	314	9
2023-08-20T06:00	6720	448	-14.0	-42.9	312	10
2023-08-20T06:00	6752	446	-14.1	-42.6	309	10
2023-08-20T06:00	6776	445	-14.1	-42.1	306	11
2023-08-20T06:00	6798	443	-14.2	-41.6	303	12
2023-08-20T06:00	6822	442	-14.4		301	12
2023-08-20T06:00	6846	441	-14.4	-39.8	300	12
2023-08-20T06:00	6870	439	-14.5	-36.8	300	12
2023-08-20T06:00	6895	438	-14.7	-36.4	301	12
2023-08-20T06:00	6917	436	-14.9	-36.3	302	12
2023-08-20T06:00	6944	435	-15.2	-36.3	302	12
2023-08-20T06:00	6969	433	-15.4	-36.4	303	12
2023-08-20T06:00	6999	432	-15.7	-36.5	303	12
2023-08-20T06:00	7024	430	-16.0	-36.4	303	12
2023-08-20T06:00	7046	429	-16.2	-36.5	303	12
2023-08-20T06:00	7068	428	-16.4	-36.6	303	12
2023-08-20T06:00	7093	426	-16.6	-36.4	303	13
2023-08-20T06:00	7117	425	-16.9	-36.5	302	13
2023-08-20T06:00	7142	424	-17.1	-36.7	301	13
2023-08-20T06:00	7169	422	-17.3	-36.8	300	12
2023-08-20T06:00	7192	421	-17.6	-37.2	299	12
2023-08-20T06:00	7219	419	-17.8	-37.1	298	12
2023-08-20T06:00	7245	418	-18.1	-37.4	298	12
2023-08-20T06:00	7270	416	-18.3	-37.6	298	12
2023-08-20T06:00	7295	415	-18.6	-37.7	298	12
2023-08-20T06:00	7322	414	-18.8	-37.9	298	12
2023-08-20T06:00	7351	412	-19.1	-38.9	297	11
2023-08-20T06:00	7376	411	-19.3	-39.4	295	11
2023-08-20T06:00	7397	409	-19.5	-39.7	293	11
2023-08-20T06:00	7419	408	-19.6	-39.8	292	11
2023-08-20T06:00	7441	407	-19.8	-40.0	290	12
2023-08-20T06:00	7464	406	-20.1	-40.2	290	12
2023-08-20T06:00	7489	404	-20.3	-40.3	289	12
2023-08-20T06:00	7512	403	-20.5	-40.5	288	12
2023-08-20T06:00	7538	402	-20.7	-40.8	287	11
2023-08-20T06:00	7570	400	-21.0	-41.2	286	11
2023-08-20T06:00	7596	399	-21.3	-41.6	285	11
2023-08-20T06:00	7624	397	-21.5	-42.0	285	11
2023-08-20T06:00	7652	396	-21.7	-42.2	285	11
2023-08-20T06:00	7677	394	-21.9	-42.1	286	11
2023-08-20T06:00	7701	393	-22.2	-42.2	286	11
2023-08-20T06:00	7731	391	-22.4	-42.8	285	11
2023-08-20T06:00	7752	390	-22.5	-43.6	284	11
2023-08-20T06:00	7775	389	-22.6	-45.6	282	11
2023-08-20T06:00	7800	388	-22.7	-46.7	281	10
2023-08-20T06:00	7820	387	-22.8	-46.9	279	10
2023-08-20T06:00	7845	385	-23.0	-47.0	278	9
2023-08-20T06:00	7865	384	-23.2	-47.1	278	9
2023-08-20T06:00	7887	383	-23.3	-47.5	277	8
2023-08-20T06:00	7911	382	-23.5	-47.6	276	8
2023-08-20T06:00	7934	381	-23.7	-48.1	275	8
2023-08-20T06:00	7957	379	-23.9	-48.5	274	8
2023-08-20T06:00	7981	378	-24.0	-49.0	273	8
2023-08-20T06:00	8006	377	-24.2	-49.4	272	8
2023-08-20T06:00	8030	376	-24.4	-49.8	271	8
2023-08-20T06:00	8056	374	-24.6	-49.8	269	9
2023-08-20T06:00	8081	373	-24.8	-50.0	267	9
2023-08-20T06:00	8106	372	-25.0	-50.2	265	9
2023-08-20T06:00	8133	370	-25.2	-50.2	262	10
2023-08-20T06:00	8157	369	-25.4	-50.8	260	10
2023-08-20T06:00	8183	368	-25.5	-51.3	258	11
2023-08-20T06:00	8211	366	-25.7	-52.2	257	11
2023-08-20T06:00	8244	365	-25.9	-52.6	257	11
2023-08-20T06:00	8267	364	-26.1	-52.8	257	11
2023-08-20T06:00	8291	362	-26.3	-52.8	258	10
2023-08-20T06:00	8313	361	-26.5	-52.8	258	10
2023-08-20T06:00	8336	360	-26.7	-53.0	257	10
2023-08-20T06:00	8363	359	-26.9	-53.1	256	10
2023-08-20T06:00	8391	357	-27.2	-53.4	254	10
2023-08-20T06:00	8419	356	-27.4	-53.5	253	10
2023-08-20T06:00	8442	355	-27.6	-53.4	253	10
2023-08-20T06:00	8472	353	-27.9	-53.5	254	10
2023-08-20T06:00	8501	352	-28.1	-53.5	255	10
2023-08-20T06:00	8523	351	-28.3	-53.6	256	10
2023-08-20T06:00	8547	350	-28.5	-53.7	257	11
2023-08-20T06:00	8574	348	-28.8	-53.8	258	11
2023-08-20T06:00	8609	347	-29.1	-53.6	260	11
2023-08-20T06:00	8643	345	-29.3	-53.5	261	11
2023-08-20T06:00	8664	344	-29.5	-53.6	263	11
2023-08-20T06:00	8686	343	-29.7	-53.2	263	11
2023-08-20T06:00	8708	342	-29.9	-53.2	264	11
2023-08-20T06:00	8734	341	-30.1	-52.9	264	11
2023-08-20T06:00	8755	340	-30.3	-53.1	264	11
2023-08-20T06:00	8778	339	-30.5	-53.0	265	12
2023-08-20T06:00	8803	337	-30.7	-53.1	265	12
2023-08-20T06:00	8829	336	-30.9	-53.2	266	12
2023-08-20T06:00	8852	335	-31.1	-53.4	267	11
2023-08-20T06:00	8874	334	-31.3	-53.8	267	11
2023-08-20T06:00	8897	333	-31.4	-53.8	267	11
2023-08-20T06:00	8920	332	-31.5	-53.9	267	11
2023-08-20T06:00	8942	331	-31.6	-54.2	266	11
2023-08-20T06:00	8965	330	-31.7	-54.1	265	11
2023-08-20T06:00	8990	329	-31.9	-54.1	265	12
2023-08-20T06:00	9019	327	-32.1	-54.6	265	12
2023-08-20T06:00	9045	326	-32.3	-54.7	265	12
2023-08-20T06:00	9069	325	-32.5	-54.2	265	12
2023-08-20T06:00	9099	324	-32.8	-54.0	265	12
2023-08-20T06:00	9125	322	-32.9	-54.4	265	11
2023-08-20T06:00	9149	321	-33.1	-54.5	265	11
2023-08-20T06:00	9172	320	-33.3	-54.6	264	11
2023-08-20T06:00	9197	319	-33.5	-54.8	264	11
2023-08-20T06:00	9224	318	-33.8	-54.8	263	11
2023-08-20T06:00	9249	317	-34.0	-55.0	263	11
2023-08-20T06:00	9273	316	-34.2	-55.4	262	11
2023-08-20T06:00	9294	315	-34.4	-55.3	261	11
2023-08-20T06:00	9315	314	-34.6	-55.4	260	11
2023-08-20T06:00	9338	313	-34.8	-55.3	259	11
2023-08-20T06:00	9361	312	-35.0	-55.6	259	11
2023-08-20T06:00	9390	310	-35.2	-55.6	260	11
2023-08-20T06:00	9413	309	-35.3	-56.0	261	11
2023-08-20T06:00	9438	308	-35.5	-56.4	263	10
2023-08-20T06:00	9462	307	-35.7	-56.6	265	10
2023-08-20T06:00	9485	306	-35.9	-56.9	266	10
2023-08-20T06:00	9510	305	-36.1	-57.0	267	10
2023-08-20T06:00	9534	304	-36.3	-57.1	267	10
2023-08-20T06:00	9559	303	-36.6	-57.4	267	10
2023-08-20T06:00	9583	302	-36.8	-57.5	266	10
2023-08-20T06:00	9606	301	-37.0	-57.5	265	10
2023-08-20T06:00	9630	300	-37.2	-57.6	265	10
2023-08-20T06:00	9655	299	-37.4	-57.6	265	9
2023-08-20T06:00	9682	298	-37.7	-57.8	265	9
2023-08-20T06:00	9706	296	-37.9	-58.0	265	9
2023-08-20T06:00	9729	296	-38.1	-58.2	265	9
2023-08-20T06:00	9749	295	-38.3	-58.0	265	9
2023-08-20T06:00	9772	294	-38.6	-58.1	264	9
2023-08-20T06:00	9796	293	-38.8	-58.2	264	9
2023-08-20T06:00	9819	292	-39.0	-58.3	263	9
2023-08-20T06:00	9843	291	-39.2	-58.3	263	9
2023-08-20T06:00	9866	290	-39.5	-58.4	263	8
2023-08-20T06:00	9888	289	-39.7	-58.3	263	8
2023-08-20T06:00	9909	288	-39.9	-58.3	264	8
2023-08-20T06:00	9932	287	-40.1	-58.0	265	8
2023-08-20T06:00	9957	286	-40.3	-57.9	266	8
2023-08-20T06:00	9992	284	-40.7	-57.8	267	9
2023-08-20T06:00	10020	283	-40.9	-57.8	268	9
2023-08-20T06:00	10045	282	-41.1	-57.1	269	10
2023-08-20T06:00	10069	281	-41.3	-56.1	268	10
2023-08-20T06:00	10090	280	-41.5	-55.6	267	11
2023-08-20T06:00	10111	279	-41.6	-55.6	265	11
2023-08-20T06:00	10133	279	-41.8	-56.4	263	11
2023-08-20T06:00	10154	278	-41.9	-57.4	261	11
2023-08-20T06:00	10177	277	-42.0	-58.5	260	11
2023-08-20T06:00	10197	276	-42.1	-58.9	259	11
2023-08-20T06:00	10218	275	-42.3	-59.2	259	11
2023-08-20T06:00	10243	274	-42.5	-59.6	260	11
2023-08-20T06:00	10269	273	-42.7	-59.9	260	10
2023-08-20T06:00	10296	272	-43.0	-60.1	260	10
2023-08-20T06:00	10316	271	-43.1	-60.2	259	10
2023-08-20T06:00	10337	270	-43.3	-60.5	257	10
2023-08-20T06:00	10357	269	-43.5		255	11
2023-08-20T06:00	10379	269	-43.7	-61.2	253	11
2023-08-20T06:00	10402	268	-43.9	-61.5	251	11
2023-08-20T06:00	10420	267	-44.0	-61.7	250	11
2023-08-20T06:00	10441	266	-44.2	-61.9	249	11
2023-08-20T06:00	10461	265	-44.4	-62.1	249	11
2023-08-20T06:00	10483	264	-44.5	-62.0	248	11
2023-08-20T06:00	10504	264	-44.7	-62.2	248	11
2023-08-20T06:00	10525	263	-44.9	-62.3	248	11
2023-08-20T06:00	10547	262	-45.1	-62.3	248	12
2023-08-20T06:00	10570	261	-45.3	-62.3	247	12
2023-08-20T06:00	10590	260	-45.5	-62.4	247	12
2023-08-20T06:00	10612	259	-45.7	-62.6	247	12
2023-08-20T06:00	10633	259	-45.9	-62.7	246	13
2023-08-20T06:00	10654	258	-46.0	-62.8	246	13
2023-08-20T06:00	10676	257	-46.2	-62.9	246	13
2023-08-20T06:00	10700	256	-46.4	-63.1	246	13
2023-08-20T06:00	10724	255	-46.6	-63.1	247	13
2023-08-20T06:00	10748	254	-46.8	-63.2	247	13
2023-08-20T06:00	10772	253	-47.1	-63.3	246	13
2023-08-20T06:00	10794	252	-47.2	-63.4	245	13
2023-08-20T06:00	10816	252	-47.4	-63.4	244	13
2023-08-20T06:00	10840	251	-47.6	-63.4	242	13
2023-08-20T06:00	10863	250	-47.8	-63.6	240	13
2023-08-20T06:00	10887	249	-48.0	-63.9	239	13
2023-08-20T06:00	10912	248	-48.2	-63.9	239	13
2023-08-20T06:00	10938	247	-48.4	-64.0	240	14
2023-08-20T06:00	10959	246	-48.6	-64.0	242	14
2023-08-20T06:00	10980	245	-48.8	-64.1	244	14
2023-08-20T06:00	11006	244	-49.0	-64.2	246	14
2023-08-20T06:00	11033	243	-49.2	-64.2	248	14
2023-08-20T06:00	11063	242	-49.4	-64.3	249	13
2023-08-20T06:00	11086	241	-49.7	-64.6	251	13
2023-08-20T06:00	11111	241	-49.8	-64.7	251	14
2023-08-20T06:00	11136	240	-50.0	-64.8	251	14
2023-08-20T06:00	11161	239	-50.1	-64.8	251	14
2023-08-20T06:00	11186	238	-50.2	-64.9	250	14
2023-08-20T06:00	11210	237	-50.2	-65.0	250	14
2023-08-20T06:00	11234	236	-50.3	-65.1	249	14
2023-08-20T06:00	11257	235	-50.5	-65.3	249	13
2023-08-20T06:00	11280	234	-50.6	-65.4	248	13
2023-08-20T06:00	11303	234	-50.7	-65.6	248	13
2023-08-20T06:00	11323	233	-50.9	-65.9	248	13
2023-08-20T06:00	11343	232	-51.0	-65.9	248	13
2023-08-20T06:00	11364	231	-51.1	-65.8	249	13
2023-08-20T06:00	11387	231	-51.0	-65.7	251	13
2023-08-20T06:00	11408	230	-51.1	-65.7	253	13
2023-08-20T06:00	11427	229	-51.2	-65.7	254	13
2023-08-20T06:00	11448	228	-51.1	-65.7	256	13
2023-08-20T06:00	11468	228	-50.9	-65.8	258	13
2023-08-20T06:00	11494	227	-50.9	-65.6	259	12
2023-08-20T06:00	11515	226	-51.0	-65.0	260	12
2023-08-20T06:00	11536	225	-51.2	-64.6	260	12
2023-08-20T06:00	11556	225	-51.3	-64.2	260	11
2023-08-20T06:00	11577	224	-51.4	-64.2	258	11
2023-08-20T06:00	11599	223	-51.3	-64.6	256	11
2023-08-20T06:00	11620	222	-51.4	-65.4	254	10
2023-08-20T06:00	11647	222	-51.5	-65.9	251	10
2023-08-20T06:00	11670	221	-51.4	-66.3	247	10
2023-08-20T06:00	11693	220	-51.4	-66.7	243	10
2023-08-20T06:00	11715	219	-51.5	-66.6	239	10
2023-08-20T06:00	11738	218	-51.7	-66.6	235	9
2023-08-20T06:00	11765	218	-51.9	-66.5	232	9
2023-08-20T06:00	11784	217	-51.9	-66.5	230	9
2023-08-20T06:00	11806	216	-51.9	-66.4	230	9
2023-08-20T06:00	11828	215	-52.0	-66.5	231	8
2023-08-20T06:00	11850	215	-52.1	-66.5	233	8
2023-08-20T06:00	11873	214	-52.1	-66.6	237	8
2023-08-20T06:00	11897	213	-52.1	-66.8	240	8
2023-08-20T06:00	11919	212	-52.0	-66.8	244	8
2023-08-20T06:00	11941	212	-52.1	-67.1	247	8
2023-08-20T06:00	11964	211	-52.2	-67.3	250	8
2023-08-20T06:00	11985	210	-52.3	-67.4	253	8
2023-08-20T06:00	12004	210	-52.4	-67.5	256	9
2023-08-20T06:00	12024	209	-52.4	-67.7	259	9
2023-08-20T06:00	12044	208	-52.4	-68.3	262	9
2023-08-20T06:00	12065	208	-52.0	-68.7	264	9
2023-08-20T06:00	12085	207	-51.9	-69.2	266	10
2023-08-20T06:00	12107	206	-52.0	-69.6	266	11
2023-08-20T06:00	12129	206	-52.0	-69.6	267	11
2023-08-20T06:00	12149	205	-51.7	-69.4	267	12
2023-08-20T06:00	12171	204	-51.6	-69.5	268	13
2023-08-20T06:00	12193	204	-51.4	-69.7	268	14
2023-08-20T06:00	12215	203	-51.4	-70.0	268	14
2023-08-20T06:00	12235	202	-51.4	-70.1	269	15
2023-08-20T06:00	12258	202	-51.5	-70.3	270	15
2023-08-20T06:00	12279	201	-51.4	-70.5	271	16
2023-08-20T06:00	12300	200	-51.4	-70.9	272	16
2023-08-20T06:00	12320	200	-51.3	-71.0	272	16
2023-08-20T06:00	12343	199	-51.3	-71.1	272	17
2023-08-20T06:00	12365	198	-51.3	-71.1	271	17
2023-08-20T06:00	12387	198	-51.3	-71.2	270	17
2023-08-20T06:00	12410	197	-51.5	-71.5	269	17
2023-08-20T06:00	12431	196	-51.6	-71.9	268	17
2023-08-20T06:00	12453	196	-51.6	-72.5	269	18
2023-08-20T06:00	12478	195	-51.7	-73.4	270	18
2023-08-20T06:00	12501	194	-51.7	-74.0	271	18
2023-08-20T06:00	12523	193	-51.7	-74.1	272	19
2023-08-20T06:00	12543	193	-51.7	-74.4	273	19
2023-08-20T06:00	12567	192	-51.6	-74.8	273	20
2023-08-20T06:00	12590	192	-51.5	-75.4	273	20
2023-08-20T06:00	12609	191	-50.9	-75.7	273	21
2023-08-20T06:00	12634	190	-50.6	-76.1	273	22
2023-08-20T06:00	12656	190	-50.4	-76.2	272	22
2023-08-20T06:00	12679	189	-50.4	-76.0	272	23
2023-08-20T06:00	12701	188	-50.4	-75.3	271	23
2023-08-20T06:00	12722	188	-50.5	-74.8	270	23
2023-08-20T06:00	12744	187	-50.7	-74.3	270	24
2023-08-20T06:00	12767	186	-50.8	-74.0	270	24
2023-08-20T06:00	12790	186	-51.0	-73.7	270	25
2023-08-20T06:00	12813	185	-51.2	-73.6	271	25
2023-08-20T06:00	12836	184	-51.3	-73.5	271	26
2023-08-20T06:00	12856	184	-51.5	-73.5	271	26
2023-08-20T06:00	12876	183	-51.6	-73.6	271	27
2023-08-20T06:00	12896	183	-51.8	-73.6	271	27
2023-08-20T06:00	12918	182	-51.9	-73.7	271	27
2023-08-20T06:00	12939	181	-52.0	-73.7	271	26
2023-08-20T06:00	12960	181	-52.1	-73.7	270	26
2023-08-20T06:00	12980	180	-52.2	-73.7	270	26
2023-08-20T06:00	13001	180	-52.4	-73.9	270	26
2023-08-20T06:00	13020	179	-52.5	-73.9	270	26
2023-08-20T06:00	13042	179	-52.7	-74.0	270	26
2023-08-20T06:00	13061	178	-52.8	-73.9	270	25
2023-08-20T06:00	13081	177	-52.9	-74.0	271	25
2023-08-20T06:00	13110	177	-52.9	-73.9	271	24
2023-08-20T06:00	13131	176	-52.9	-73.9	272	23
2023-08-20T06:00	13156	175	-52.9	-73.9	273	23
2023-08-20T06:00	13179	175	-52.9	-74.0	275	22
2023-08-20T06:00	13201	174	-52.9	-74.1	277	22
2023-08-20T06:00	13222	174	-52.9	-74.3	279	22
2023-08-20T06:00	13244	173	-53.0	-74.3	280	22
2023-08-20T06:00	13266	173	-53.1	-74.6	281	22
2023-08-20T06:00	13285	172	-53.2	-74.6	282	22
2023-08-20T06:00	13305	171	-53.3	-74.7	283	22
2023-08-20T06:00	13327	171	-53.4	-74.8	284	22
2023-08-20T06:00	13346	170	-53.5	-74.9	285	22
2023-08-20T06:00	13366	170	-53.6	-75.0	286	22
2023-08-20T06:00	13387	169	-53.7	-75.0	287	23
2023-08-20T06:00	13408	169	-53.8	-75.1	287	23
2023-08-20T06:00	13429	168	-53.9	-75.2	288	23
2023-08-20T06:00	13453	168	-54.0	-75.3	289	22
2023-08-20T06:00	13474	167	-54.0	-75.4	290	22
2023-08-20T06:00	13498	166	-54.0	-75.6	290	22
2023-08-20T06:00	13522	166	-54.0	-75.6	291	21
2023-08-20T06:00	13551	165	-54.1	-75.8	291	20
2023-08-20T06:00	13574	164	-54.1	-75.9	292	19
2023-08-20T06:00	13599	164	-54.2	-76.0	293	19
2023-08-20T06:00	13622	163	-54.4	-76.2	293	18
2023-08-20T06:00	13649	163	-54.5	-76.2	294	17
2023-08-20T06:00	13680	162	-54.7	-76.5	295	17
2023-08-20T06:00	13716	161	-54.8	-76.6	296	16
2023-08-20T06:00	13754	160	-55.1		296	15
2023-08-20T06:00	13775	159	-55.3	-76.9	295	15
2023-08-20T06:00	13797	159	-55.4	-77.0	293	14
2023-08-20T06:00	13820	158	-55.6	-77.1	290	13
2023-08-20T06:00	13842	158	-55.6	-77.1	288	13
2023-08-20T06:00	13864	157	-55.8	-77.3	286	12
2023-08-20T06:00	13888	157	-56.0	-77.3	284	12
2023-08-20T06:00	13913	156	-56.2	-77.4	283	12
2023-08-20T06:00	13939	155	-56.4	-77.5	282	12
2023-08-20T06:00	13961	155	-56.7	-77.6	281	11
2023-08-20T06:00	13984	154	-56.8	-77.7	279	11
2023-08-20T06:00	14007	154	-56.9	-77.8	277	11
2023-08-20T06:00	14027	153	-57.1	-77.8	275	11
2023-08-20T06:00	14051	153	-57.2	-77.9	273	11
2023-08-20T06:00	14073	152	-57.4	-77.9	271	11
2023-08-20T06:00	14097	151	-57.6	-78.1	270	12
2023-08-20T06:00	14119	151	-57.8	-78.2	269	12
2023-08-20T06:00	14142	150	-58.0	-78.2	268	12
2023-08-20T06:00	14164	150	-58.2	-78.4	267	12
2023-08-20T06:00	14185	149	-58.3	-78.3	266	12
2023-08-20T06:00	14210	149	-58.5	-78.6	264	13
2023-08-20T06:00	14229	148	-58.6	-78.8	263	13
2023-08-20T06:00	14250	148	-58.7	-79.0	262	13
2023-08-20T06:00	14271	147	-58.8	-79.3	262	14
2023-08-20T06:00	14294	147	-59.0	-79.6	262	14
2023-08-20T06:00	14315	146	-59.0	-79.9	263	15
2023-08-20T06:00	14337	146	-59.0	-80.2	264	15
2023-08-20T06:00	14359	145	-59.0	-80.5	264	16
2023-08-20T06:00	14381	145	-58.9	-80.5	265	17
2023-08-20T06:00	14403	144	-58.9	-80.7	265	17
2023-08-20T06:00	14423	144	-58.8	-80.6	266	17
2023-08-20T06:00	14444	143	-58.8	-80.8	267	18
2023-08-20T06:00	14467	143	-58.9	-81.0	268	18
2023-08-20T06:00	14487	142	-58.9	-81.3	270	18
2023-08-20T06:00	14509	142	-58.6	-81.5	272	18
2023-08-20T06:00	14530	141	-58.3	-81.6	274	17
2023-08-20T06:00	14554	141	-58.1	-81.6	276	17
2023-08-20T06:00	14574	140	-58.0	-81.8	279	17
2023-08-20T06:00	14599	140	-57.9	-81.7	282	16
2023-08-20T06:00	14621	139	-57.9	-81.7	285	16
2023-08-20T06:00	14643	139	-57.9	-81.7	288	16
2023-08-20T06:00	14665	138	-57.9	-81.9	292	15
2023-08-20T06:00	14692	138	-57.7	-81.7	295	15
2023-08-20T06:00	14716	137	-57.4	-81.7	297	14
2023-08-20T06:00	14740	137	-57.1	-81.2	299	13
2023-08-20T06:00	14768	136	-57.2	-81.3	300	12
2023-08-20T06:00	14793	136	-57.3	-81.2	300	11
2023-08-20T06:00	14822	135	-57.4	-81.1	300	10
2023-08-20T06:00	14847	134	-57.5	-81.0	298	10
2023-08-20T06:00	14872	134	-57.5	-81.0	295	9
2023-08-20T06:00	14898	133	-57.7	-80.9	291	9
2023-08-20T06:00	14922	133	-57.7	-80.7	287	8
2023-08-20T06:00	14944	132	-57.8	-80.6	284	8
2023-08-20T06:00	14971	132	-57.9	-80.7	280	8
2023-08-20T06:00	14994	131	-58.1	-80.9	277	8
2023-08-20T06:00	15014	131	-58.1	-80.9	274	8
2023-08-20T06:00	15034	130	-58.0	-81.0	271	8
2023-08-20T06:00	15060	130	-58.1	-81.2	268	8
2023-08-20T06:00	15084	130	-58.0	-81.5	265	7
2023-08-20T06:00	15105	129	-57.8	-81.6	262	7
2023-08-20T06:00	15129	129	-57.9	-81.9	259	7
2023-08-20T06:00	15151	128	-58.1	-82.3	257	7
2023-08-20T06:00	15175	128	-58.2	-82.3	255	8
2023-08-20T06:00	15200	127	-58.4	-82.5	254	8
2023-08-20T06:00	15222	127	-58.6	-82.7	254	9
2023-08-20T06:00	15244	126	-58.7	-83.0	255	9
2023-08-20T06:00	15265	126	-58.8	-83.0	257	9
2023-08-20T06:00	15288	125	-58.7	-83.2	261	10
2023-08-20T06:00	15308	125	-58.5	-83.3	264	10
2023-08-20T06:00	15331	125	-58.4	-83.4	268	9
2023-08-20T06:00	15353	124	-58.4	-83.7	269	9
2023-08-20T06:00	15377	124	-58.3	-83.6	269	8
2023-08-20T06:00	15404	123	-57.9	-83.6	268	8
2023-08-20T06:00	15426	123	-57.8	-83.8	265	7
2023-08-20T06:00	15448	122	-57.8	-83.8	263	7
2023-08-20T06:00	15471	122	-57.7	-83.7	262	7
2023-08-20T06:00	15494	121	-57.6	-83.6	262	8
2023-08-20T06:00	15515	121	-57.6	-83.6	263	8
2023-08-20T06:00	15536	121	-57.8	-83.8	264	8
2023-08-20T06:00	15558	120	-57.8	-83.5	264	9
2023-08-20T06:00	15580	120	-58.0	-83.7	265	9
2023-08-20T06:00	15603	119	-58.1	-83.7	265	9
2023-08-20T06:00	15625	119	-58.2	-83.8	265	9
2023-08-20T06:00	15647	118	-58.0	-83.7	263	9
2023-08-20T06:00	15667	118	-57.6	-83.3	261	9
2023-08-20T06:00	15690	118	-57.4	-83.5	258	9
2023-08-20T06:00	15714	117	-57.6	-83.6	256	9
2023-08-20T06:00	15734	117	-57.7	-83.7	255	10
2023-08-20T06:00	15756	116	-57.6	-83.6	254	10
2023-08-20T06:00	15778	116	-57.7	-83.7	255	11
2023-08-20T06:00	15798	116	-57.8	-83.8	257	11
2023-08-20T06:00	15819	115	-57.9	-83.9	259	12
2023-08-20T06:00	15841	115	-57.8	-83.8	261	12
2023-08-20T06:00	15862	114	-57.7	-83.7	264	12
2023-08-20T06:00	15882	114	-57.8	-84.1	267	11
2023-08-20T06:00	15906	114	-57.5	-84.2	271	10
2023-08-20T06:00	15927	113	-57.1	-83.9	274	10
2023-08-20T06:00	15949	113	-57.1	-84.2	277	9
2023-08-20T06:00	15972	112	-56.9	-84.0	279	8
2023-08-20T06:00	15998	112	-56.8	-84.0	278	7
2023-08-20T06:00	16025	112	-56.9	-84.0	275	7
2023-08-20T06:00	16057	111	-56.8	-84.0	271	6
2023-08-20T06:00	16082	111	-57.2	-84.3	267	6
2023-08-20T06:00	16103	110	-57.2	-84.3	263	6
2023-08-20T06:00	16125	110	-56.9	-84.4	261	6
2023-08-20T06:00	16147	109	-56.9	-84.4	259	6
2023-08-20T06:00	16168	109	-57.0	-84.5	257	6
2023-08-20T06:00	16193	109	-57.2	-84.6	255	7
2023-08-20T06:00	16215	108	-57.3	-84.4	253	7
2023-08-20T06:00	16237	108	-57.5	-84.5	251	7
2023-08-20T06:00	16260	107	-57.6	-84.6	249	7
2023-08-20T06:00	16280	107	-57.8	-84.7	248	7
2023-08-20T06:00	16302	107	-57.9	-84.8	246	8
2023-08-20T06:00	16327	106	-58.1	-85.0	246	8
2023-08-20T06:00	16349	106	-58.2	-85.0	246	9
2023-08-20T06:00	16372	106	-58.3	-85.1	247	9
2023-08-20T06:00	16394	105	-58.1	-85.0	248	10
2023-08-20T06:00	16418	105	-58.1	-85.3	250	10
2023-08-20T06:00	16441	104	-58.1	-85.3	253	10
2023-08-20T06:00	16463	104	-58.1	-85.3	255	9
2023-08-20T06:00	16486	104	-57.7	-85.0	257	9
2023-08-20T06:00	16507	103	-57.6	-84.9	259	8
2023-08-20T06:00	16529	103	-57.7	-85.0	261	8
2023-08-20T06:00	16550	103	-57.7	-85.0	264	7
2023-08-20T06:00	16572	102	-57.7	-85.0	266	7
2023-08-20T06:00	16591	102	-57.8	-85.1	268	7
2023-08-20T06:00	16613	102	-57.8	-85.1	271	6
2023-08-20T06:00	16636	101	-57.7	-85.0	273	5
2023-08-20T06:00	16661	101	-57.8	-85.1	274	5
2023-08-20T06:00	16683	100	-57.8	-85.1	274	4
2023-08-20T06:00	16708	100	-57.8	-85.1	271	4
2023-08-20T06:00	16732	100	-57.6	-84.9	264	4
2023-08-20T06:00	16753	99	-57.4	-84.8	255	4
2023-08-20T06:00	16776	99	-57.2	-84.6	247	4
2023-08-20T06:00	16797	99	-57.2	-84.6	243	4
2023-08-20T06:00	16820	98	-57.2	-84.6	240	5
2023-08-20T06:00	16842	98	-57.4	-84.4	239	5
2023-08-20T06:00	16866	98	-57.6	-84.6	238	5
2023-08-20T06:00	16888	97	-57.8	-84.7	238	6
2023-08-20T06:00	16909	97	-58.0	-84.6	237	6
2023-08-20T06:00	16932	97	-58.1	-84.6	236	7
2023-08-20T06:00	16954	96	-58.3	-84.8	237	7
2023-08-20T06:00	16979	96	-58.4	-84.9	237	7
2023-08-20T06:00	17003	96	-58.6	-85.0	239	8
2023-08-20T06:00	17025	95	-58.6	-85.0	241	8
2023-08-20T06:00	17048	95	-58.5	-84.9	245	8
2023-08-20T06:00	17070	95	-58.3	-85.1	249	8
2023-08-20T06:00	17094	94	-58.3	-85.1	254	8
2023-08-20T06:00	17115	94	-58.3	-85.1	258	9
2023-08-20T06:00	17138	93	-58.1	-85.3	261	9
2023-08-20T06:00	17160	93	-58.1	-85.3	264	9
2023-08-20T06:00	17183	93	-58.1	-85.3	265	9
2023-08-20T06:00	17207	92	-57.9	-85.2	264	8
2023-08-20T06:00	17230	92	-57.6	-85.3	263	8
2023-08-20T06:00	17253	92	-57.6	-85.3	261	8
2023-08-20T06:00	17275	91	-57.5	-85.2	258	7
2023-08-20T06:00	17299	91	-57.5	-85.2	256	7
2023-08-20T06:00	17321	91	-57.3	-85.1	254	7
2023-08-20T06:00	17344	90	-57.4	-85.2	253	7
2023-08-20T06:00	17367	90	-57.3	-85.1	253	7
2023-08-20T06:00	17392	90	-57.3	-85.1	254	7
2023-08-20T06:00	17413	90	-57.3	-85.5	254	6
2023-08-20T06:00	17438	89	-57.5	-85.6	252	6
2023-08-20T06:00	17462	89	-57.5	-85.6	250	6
2023-08-20T06:00	17483	89	-57.3	-85.5	246	6
2023-08-20T06:00	17508	88	-57.0	-85.2	244	6
2023-08-20T06:00	17527	88	-57.0	-85.2	243	6
2023-08-20T06:00	17549	88	-57.1	-85.3	244	6
2023-08-20T06:00	17576	87	-57.1	-85.3	245	5
2023-08-20T06:00	17599	87	-57.0	-85.2	247	5
2023-08-20T06:00	17622	87	-57.0	-85.2	249	5
2023-08-20T06:00	17640	86	-57.0	-85.2	250	5
2023-08-20T06:00	17665	86	-57.2	-85.4	251	5
2023-08-20T06:00	17689	86	-57.3	-85.5	251	6
2023-08-20T06:00	17711	85	-57.5	-85.2	252	6
2023-08-20T06:00	17732	85	-57.7	-85.4	254	6
2023-08-20T06:00	17758	85	-57.8	-85.5	257	6
2023-08-20T06:00	17784	84	-57.9	-85.5	260	6
2023-08-20T06:00	17807	84	-57.9	-85.5	265	6
2023-08-20T06:00	17829	84	-57.9	-85.5	270	6
2023-08-20T06:00	17851	84	-58.0	-85.6	276	5
2023-08-20T06:00	17874	83	-58.0	-85.6	282	5
2023-08-20T06:00	17896	83	-58.1	-85.7	287	5
2023-08-20T06:00	17921	83	-58.0	-85.6	292	5
2023-08-20T06:00	17940	82	-58.0	-85.6	297	4
2023-08-20T06:00	17966	82	-58.1	-85.7	301	4
2023-08-20T06:00	17988	82	-58.2	-85.8	305	4
2023-08-20T06:00	18010	81	-58.2	-85.8	308	3
2023-08-20T06:00	18031	81	-58.2	-85.8	312	3
2023-08-20T06:00	18055	81	-58.2	-85.8	317	2
2023-08-20T06:00	18079	81	-58.2	-85.8	327	2
2023-08-20T06:00	18100	80	-58.2	-86.2	342	2
2023-08-20T06:00	18125	80	-58.3	-86.2	4	1
2023-08-20T06:00	18148	80	-58.2	-86.2	33	1
2023-08-20T06:00	18171	79	-58.0	-86.0	71	1
2023-08-20T06:00	18199	79	-57.9		124	1
2023-08-20T06:00	18223	79	-57.8	-85.9	178	1
2023-08-20T06:00	18247	78	-57.6	-85.7	208	1
2023-08-20T06:00	18267	78	-57.7	-85.8	224	2
2023-08-20T06:00	18291	78	-57.9		232	3
2023-08-20T06:00	18317	78	-58.0	-86.0	237	4
2023-08-20T06:00	18344	77	-58.1		239	5
2023-08-20T06:00	18364	77	-58.2	-86.2	241	5
2023-08-20T06:00	18391	77	-57.9		242	5
2023-08-20T06:00	18414	76	-57.9		243	5
2023-08-20T06:00	18435	76	-58.0	-86.0	245	5
2023-08-20T06:00	18462	76	-57.9		248	5
2023-08-20T06:00	18487	76	-57.8	-86.3	253	4
2023-08-20T06:00	18509	75	-57.6	-86.1	260	3
2023-08-20T06:00	18534	75	-57.5	-86.1	271	3
2023-08-20T06:00	18558	75	-57.5	-86.1	283	2
2023-08-20T06:00	18582	74	-57.5	-85.6	294	2
2023-08-20T06:00	18603	74	-57.7	-85.8	307	2
2023-08-20T06:00	18626	74	-57.8	-85.9	327	1
2023-08-20T06:00	18651	74	-58.1		10	1
2023-08-20T06:00	18675	73	-58.3	-85.8	47	1
2023-08-20T06:00	18699	73	-58.5	-86.0	60	2
2023-08-20T06:00	18724	73	-58.6	-86.5	63	2
2023-08-20T06:00	18748	72	-58.4	-86.3	64	3
2023-08-20T06:00	18770	72	-58.3	-86.2	64	3
2023-08-20T06:00	18797	72	-58.3	-86.2	66	4
2023-08-20T06:00	18826	72	-58.2	-86.2	72	4
2023-08-20T06:00	18846	71	-58.1		79	4
2023-08-20T06:00	18870	71	-58.0	-86.4	87	4
2023-08-20T06:00	18895	71	-57.9	-86.4	94	5
2023-08-20T06:00	18919	71	-57.9		99	5
2023-08-20T06:00	18941	70	-58.1		102	6
2023-08-20T06:00	18964	70	-58.3	-86.2	105	6
2023-08-20T06:00	18990	70	-58.5	-86.0	107	6
2023-08-20T06:00	19017	69	-58.6	-86.1	109	6
2023-08-20T06:00	19042	69	-58.7	-86.1	110	7
2023-08-20T06:00	19063	69	-58.9	-86.3	112	7
2023-08-20T06:00	19088	69	-58.9	-86.7	114	7
2023-08-20T06:00	19115	68	-58.7	-86.5	117	7
2023-08-20T06:00	19138	68	-58.7	-86.5	122	7
2023-08-20T06:00	19165	68	-58.7	-86.5	127	7
2023-08-20T06:00	19190	68	-58.7	-86.5	133	7
2023-08-20T06:00	19212	67	-58.8	-86.6	139	7
2023-08-20T06:00	19238	67	-58.8	-86.6	144	7
2023-08-20T06:00	19265	67	-59.0	-86.8	147	7
2023-08-20T06:00	19288	66	-59.1	-86.8	150	7
2023-08-20T06:00	19313	66	-59.0	-86.8	153	7
2023-08-20T06:00	19336	66	-58.9	-86.7	156	6
2023-08-20T06:00	19359	66	-58.7	-86.5	161	5
2023-08-20T06:00	19384	65	-58.7	-86.5	167	5
2023-08-20T06:00	19408	65	-58.8	-86.6	176	4
2023-08-20T06:00	19433	65	-58.8	-86.6	186	3
2023-08-20T06:00	19453	65	-58.8	-86.6	197	3
2023-08-20T06:00	19481	64	-58.9	-86.7	207	2
2023-08-20T06:00	19508	64	-58.8	-87.0	216	1
2023-08-20T06:00	19533	64	-58.4	-86.7	212	1
2023-08-20T06:00	19556	64	-58.2	-86.6	146	0
2023-08-20T06:00	19581	63	-58.0	-86.4	112	1
2023-08-20T06:00	19607	63	-58.0	-86.4	112	2
2023-08-20T06:00	19631	63	-58.1	-86.5	116	2
2023-08-20T06:00	19657	63	-58.1	-86.5	123	3
2023-08-20T06:00	19681	62	-58.1	-87.0	130	3
2023-08-20T06:00	19702	62	-57.8	-86.7	136	3
2023-08-20T06:00	19728	62	-57.6	-86.6	142	4
2023-08-20T06:00	19755	62	-57.5	-86.5	144	4
2023-08-20T06:00	19778	62	-57.4	-86.4	142	4
2023-08-20T06:00	19802	61	-57.2	-86.3	139	4
2023-08-20T06:00	19826	61	-57.3	-86.4	133	4
2023-08-20T06:00	19850	61	-57.3	-86.4	128	4
2023-08-20T06:00	19875	61	-57.3	-86.4	124	4
2023-08-20T06:00	19901	60	-57.4	-86.4	123	3
2023-08-20T06:00	19924	60	-57.4	-86.0	126	3
2023-08-20T06:00	19947	60	-57.5	-86.1	131	3
2023-08-20T06:00	19972	60	-57.4	-86.0	140	3
2023-08-20T06:00	19995	59	-57.4	-86.0	149	4
2023-08-20T06:00	20018	59	-57.3	-86.4	159	4
2023-08-20T06:00	20043	59	-57.4	-86.4	167	4
2023-08-20T06:00	20068	59	-57.5	-86.5	175	4
2023-08-20T06:00	20092	59	-57.5	-86.5	181	4
2023-08-20T06:00	20118	58	-57.4	-86.4	188	4
2023-08-20T06:00	20144	58	-57.3	-86.4	193	3
2023-08-20T06:00	20164	58	-57.2	-86.3	198	3
2023-08-20T06:00	20192	58	-57.4	-86.4	199	2
2023-08-20T06:00	20217	57	-57.3	-86.4	192	1
2023-08-20T06:00	20243	57	-57.3	-86.4	161	1
2023-08-20T06:00	20266	57	-57.1	-86.2	121	1
2023-08-20T06:00	20295	57	-57.1	-86.2	112	2
2023-08-20T06:00	20319	56	-56.9	-86.6	114	2
2023-08-20T06:00	20344	56	-56.5	-86.3	121	3
2023-08-20T06:00	20367	56	-56.3	-86.1	128	3
2023-08-20T06:00	20391	56	-56.1	-86.0	135	3
2023-08-20T06:00	20416	56	-56.0	-85.9	139	2
2023-08-20T06:00	20444	55	-56.1	-86.0	139	2
2023-08-20T06:00	20464	55	-56.0	-85.9	131	1
2023-08-20T06:00	20491	55	-55.9	-85.8	95	1
2023-08-20T06:00	20518	55	-55.8	-85.7	33	1
2023-08-20T06:00	20541	55	-55.9	-85.8	15	1
2023-08-20T06:00	20569	54	-55.8	-85.7	11	2
2023-08-20T06:00	20594	54	-55.7	-85.7	12	2
2023-08-20T06:00	20620	54	-55.7	-85.7	17	3
2023-08-20T06:00	20645	54	-55.6	-85.6	25	3
2023-08-20T06:00	20667	53	-55.3	-85.4	36	3
2023-08-20T06:00	20692	53	-55.3	-85.4	47	3
2023-08-20T06:00	20716	53	-55.3	-85.4	57	3
2023-08-20T06:00	20739	53	-55.2	-85.3	66	3
2023-08-20T06:00	20767	53	-55.3	-85.4	71	3
2023-08-20T06:00	20790	52	-55.3	-85.4	70	2
2023-08-20T06:00	20817	52	-55.3	-85.4	63	2
2023-08-20T06:00	20844	52	-55.2	-85.8	53	2
2023-08-20T06:00	20869	52	-55.1	-85.8	46	3
2023-08-20T06:00	20893	52	-54.9	-85.6	43	3
2023-08-20T06:00	20923	51	-54.9	-85.6	42	4
2023-08-20T06:00	20942	51	-54.9	-85.1	44	4
2023-08-20T06:00	20968	51	-54.8	-85.0	46	5
2023-08-20T06:00	20992	51	-54.9	-85.1	50	5
2023-08-20T06:00	21018	51	-55.0	-85.1	56	5
2023-08-20T06:00	21039	50	-55.3	-85.4	62	5
2023-08-20T06:00	21068	50	-55.3	-85.4	68	5
2023-08-20T06:00	21095	50	-55.3	-85.4	74	6
2023-08-20T06:00	21116	50	-55.4	-85.4	79	6
2023-08-20T06:00	21140	50	-55.5	-85.5	84	6
2023-08-20T06:00	21168	49	-55.6	-85.1	89	6
2023-08-20T06:00	21196	49	-55.7	-85.2	93	6
2023-08-20T06:00	21218	49	-55.8	-85.2	97	7
2023-08-20T06:00	21243	49	-55.8	-85.2	101	7
2023-08-20T06:00	21269	49	-55.8	-85.2	104	7
2023-08-20T06:00	21292	48	-55.8	-85.2	107	8
2023-08-20T06:00	21316	48	-55.9	-85.3	109	8
2023-08-20T06:00	21341	48	-56.0		111	7
2023-08-20T06:00	21364	48	-56.1	-85.5	112	7
2023-08-20T06:00	21394	48	-56.2	-85.5	111	7
2023-08-20T06:00	21418	48	-56.2	-85.5	108	6
2023-08-20T06:00	21447	47	-56.2	-85.5	103	5
2023-08-20T06:00	21470	47	-56.2	-86.0	96	5
2023-08-20T06:00	21494	47	-56.1	-86.0	91	5
2023-08-20T06:00	21521	47	-55.9	-85.8	86	4
2023-08-20T06:00	21546	47	-55.8	-85.7	84	4
2023-08-20T06:00	21570	46	-55.7	-85.7	83	4
2023-08-20T06:00	21596	46	-55.6	-85.6	82	5
2023-08-20T06:00	21624	46	-55.5	-85.5	80	5
2023-08-20T06:00	21649	46	-55.4	-85.4	78	5
2023-08-20T06:00	21672	46	-55.4	-85.4	76	5
2023-08-20T06:00	21698	45	-55.4	-85.4	75	5
2023-08-20T06:00	21721	45	-55.4	-85.4	77	5
2023-08-20T06:00	21749	45	-55.2	-85.3	79	5
2023-08-20T06:00	21778	45	-55.1	-85.2	84	5
2023-08-20T06:00	21800	45	-55.1	-85.2	88	5
2023-08-20T06:00	21825	45	-55.2	-85.3	92	5
2023-08-20T06:00	21848	44	-55.3	-85.4	94	5
2023-08-20T06:00	21875	44	-55.4	-85.4	95	5
2023-08-20T06:00	21897	44	-55.4	-85.4	96	5
2023-08-20T06:00	21925	44	-55.4	-85.4	98	5
2023-08-20T06:00	21948	44	-55.5	-85.5	101	5
2023-08-20T06:00	21974	44	-55.5	-85.5	105	5
2023-08-20T06:00	21998	43	-55.4	-85.4	110	5
2023-08-20T06:00	22026	43	-55.5	-85.5	114	5
2023-08-20T06:00	22048	43	-55.6	-85.6	118	5
2023-08-20T06:00	22079	43	-55.8	-85.2	120	5
2023-08-20T06:00	22101	43	-56.0		122	4
2023-08-20T06:00	22132	42	-56.0		121	3
2023-08-20T06:00	22158	42	-56.2	-85.5	119	3
2023-08-20T06:00	22181	42	-56.3	-85.6	114	2
2023-08-20T06:00	22204	42	-56.3	-86.1	104	2
2023-08-20T06:00	22228	42	-56.1	-86.0	88	2
2023-08-20T06:00	22257	42	-56.1	-86.0	70	2
2023-08-20T06:00	22284	41	-56.0	-85.9	58	2
2023-08-20T06:00	22314	41	-55.9	-85.8	52	3
2023-08-20T06:00	22337	41	-56.0	-85.9	51	3
2023-08-20T06:00	22363	41	-56.2	-86.0	52	3
2023-08-20T06:00	22387	41	-56.1	-86.0	54	4
2023-08-20T06:00	22415	41	-56.0	-85.9	57	4
2023-08-20T06:00	22444	40	-55.9	-85.8	59	4
2023-08-20T06:00	22464	40	-55.8	-85.7	62	4
2023-08-20T06:00	22490	40	-55.7	-85.7	65	5
2023-08-20T06:00	22519	40	-55.8	-85.7	68	5
2023-08-20T06:00	22545	40	-55.8	-85.7	71	5
2023-08-20T06:00	22571	40	-55.8	-85.7	72	5
2023-08-20T06:00	22597	39	-56.0	-85.9	72	4
2023-08-20T06:00	22622	39	-55.9	-85.8	72	4
2023-08-20T06:00	22651	39	-55.9	-85.8	72	4
2023-08-20T06:00	22673	39	-56.0	-85.9	72	4
2023-08-20T06:00	22704	39	-56.1	-86.0	74	4
2023-08-20T06:00	22725	39	-56.1	-86.0	78	4
2023-08-20T06:00	22753	39	-56.0	-85.9	83	4
2023-08-20T06:00	22776	38	-55.9	-85.8	90	4
2023-08-20T06:00	22802	38	-55.6	-86.1	98	4
2023-08-20T06:00	22830	38	-55.3	-85.9	105	4
2023-08-20T06:00	22855	38	-55.1	-85.8	112	4
2023-08-20T06:00	22881	38	-54.9	-85.6	115	4
2023-08-20T06:00	22909	38	-54.8	-85.5	116	4
2023-08-20T06:00	22932	37	-54.8	-85.5	115	4
2023-08-20T06:00	22959	37	-54.7	-86.1	112	4
2023-08-20T06:00	22986	37	-54.4	-85.8	110	4
2023-08-20T06:00	23010	37	-54.3	-85.8	108	4
2023-08-20T06:00	23038	37	-54.2	-85.7	106	4
2023-08-20T06:00	23064	37	-54.0	-84.9	105	4
2023-08-20T06:00	23088	37	-54.1	-85.0	104	4
2023-08-20T06:00	23118	36	-54.2	-85.1	102	4
2023-08-20T06:00	23142	36	-54.3	-85.2	98	4
2023-08-20T06:00	23167	36	-54.4	-85.2	92	3
2023-08-20T06:00	23197	36	-54.6	-85.4	85	3
2023-08-20T06:00	23223	36	-54.7	-85.5	77	3
2023-08-20T06:00	23253	36	-54.8	-85.5	70	3
2023-08-20T06:00	23281	35	-54.8	-85.5	64	3
2023-08-20T06:00	23308	35	-54.8	-85.5	61	3
2023-08-20T06:00	23337	35	-54.8	-85.5	57	3
2023-08-20T06:00	23362	35	-54.5	-85.3	54	4
2023-08-20T06:00	23389	35	-54.4	-85.2	51	4
2023-08-20T06:00	23414	35	-54.3	-85.2	48	4
2023-08-20T06:00	23437	35	-54.3	-85.2	46	4
2023-08-20T06:00	23464	34	-54.4	-85.2	46	4
2023-08-20T06:00	23494	34	-54.5	-85.3	50	4
2023-08-20T06:00	23524	34	-54.5	-85.3	56	4
2023-08-20T06:00	23548	34	-54.5	-85.3	66	4
2023-08-20T06:00	23574	34	-54.4	-85.2	77	4
2023-08-20T06:00	23603	34	-54.3	-85.2	86	4
2023-08-20T06:00	23629	34	-54.3	-85.2	93	4
2023-08-20T06:00	23650	33	-54.3	-85.2	95	4
2023-08-20T06:00	23680	33	-54.4	-85.2	93	4
2023-08-20T06:00	23711	33	-54.5	-85.3	89	4
2023-08-20T06:00	23731	33	-54.5	-85.3	84	4
2023-08-20T06:00	23762	33	-54.3	-85.2	81	5
2023-08-20T06:00	23783	33	-54.3	-85.8	79	5
2023-08-20T06:00	23812	33	-54.2	-85.7	78	6
2023-08-20T06:00	23840	33	-54.1	-85.6	78	7
2023-08-20T06:00	23866	32	-54.1	-85.6	78	8
2023-08-20T06:00	23897	32	-54.0	-85.5	79	9
2023-08-20T06:00	23925	32	-53.9	-85.5	80	10
2023-08-20T06:00	23948	32	-53.9	-85.5	81	11
2023-08-20T06:00	23974	32	-54.0	-84.9	83	11
2023-08-20T06:00	24000	32	-54.1	-85.0	84	12
2023-08-20T06:00	24029	32	-54.0	-84.9	85	12
2023-08-20T06:00	24054	31	-53.9	-85.5	87	11
2023-08-20T06:00	24077	31	-53.8	-85.4	88	11
2023-08-20T06:00	24108	31	-53.7	-85.3	89	11
2023-08-20T06:00	24135	31	-53.7	-85.3	90	10
2023-08-20T06:00	24161	31	-53.8	-85.4	92	10
2023-08-20T06:00	24186	31	-53.9	-85.5	93	10
2023-08-20T06:00	24212	31	-54.0	-84.9	94	10
2023-08-20T06:00	24239	31	-54.1	-85.0	96	10
2023-08-20T06:00	24264	30	-54.2	-85.1	97	10
2023-08-20T06:00	24294	30	-54.3	-85.2	99	10
2023-08-20T06:00	24322	30	-54.2	-85.1	100	10
2023-08-20T06:00	24347	30	-54.2	-85.1	102	9
2023-08-20T06:00	24374	30	-54.4	-85.2	103	9
2023-08-20T06:00	24406	30	-54.4	-85.2	105	9
2023-08-20T06:00	24427	30	-54.3	-85.8	105	8
2023-08-20T06:00	24448	30	-54.1	-85.6	105	8
2023-08-20T06:00	24482	29	-54.0	-85.5	104	7
2023-08-20T06:00	24506	29	-53.7	-85.3	100	6
2023-08-20T06:00	24528	29	-53.7	-85.3	95	6
2023-08-20T06:00	24562	29	-53.7	-85.3	87	5
2023-08-20T06:00	24583	29	-53.8	-85.4	78	5
2023-08-20T06:00	24611	29	-53.6	-85.3	70	5
2023-08-20T06:00	24639	29	-53.3	-85.7	64	5
2023-08-20T06:00	24667	29	-53.0	-85.5	61	5
2023-08-20T06:00	24688	28	-52.6	-85.2	61	5
2023-08-20T06:00	24717	28	-52.3	-85.0	63	6
2023-08-20T06:00	24743	28	-52.1	-84.8	66	7
2023-08-20T06:00	24768	28	-52.0	-84.8	70	7
2023-08-20T06:00	24801	28	-52.0	-84.8	73	8
2023-08-20T06:00	24824	28	-52.1	-84.8	75	8
2023-08-20T06:00	24851	28	-52.2	-84.9	77	8
2023-08-20T06:00	24883	28	-52.0	-84.8	79	8
2023-08-20T06:00	24908	28	-51.7	-84.5	81	8
2023-08-20T06:00	24932	27	-51.4	-84.3	84	7
2023-08-20T06:00	24965	27	-51.4	-84.3	87	6
2023-08-20T06:00	24987	27	-51.3	-84.3	92	6
2023-08-20T06:00	25012	27	-51.3	-84.3	96	5
2023-08-20T06:00	25039	27	-51.2	-84.2	99	5
2023-08-20T06:00	25067	27	-51.1	-84.1	99	5
2023-08-20T06:00	25094	27	-51.0	-84.0	98	5
2023-08-20T06:00	25117	27	-51.0	-84.0	94	5
2023-08-20T06:00	25143	27	-50.9	-84.0	90	5
2023-08-20T06:00	25169	26	-50.8	-83.9	87	5
2023-08-20T06:00	25195	26	-50.6	-83.7	85	5
2023-08-20T06:00	25224	26	-50.5	-83.7	84	5
2023-08-20T06:00	25243	26	-50.4	-83.6	84	5
2023-08-20T06:00	25275	26	-50.4	-83.6	82	5
2023-08-20T06:00	25306	26	-50.5	-83.7	78	4
2023-08-20T06:00	25327	26	-50.5	-83.7	73	4
2023-08-20T06:00	25357	26	-50.5	-83.7	67	4
2023-08-20T06:00	25380	26	-50.7	-83.8	60	4
2023-08-20T06:00	25407	26	-50.7	-83.8	54	4
2023-08-20T06:00	25435	25	-50.8	-83.9	51	4
2023-08-20T06:00	25465	25	-50.9	-84.0	48	5
2023-08-20T06:00	25489	25	-50.8	-83.9	47	5
2023-08-20T06:00	25516	25	-50.7	-83.8	46	5
2023-08-20T06:00	25544	25	-50.7	-83.8	46	5
2023-08-20T06:00	25571	25	-50.7	-83.8	45	6
2023-08-20T06:00	25606	25	-50.7	-83.8	45	6
2023-08-20T06:00	25625	25	-50.7	-83.8	45	7
2023-08-20T06:00	25655	25	-50.8	-83.9	45	7
2023-08-20T06:00	25685	24	-50.9	-84.0	46	7
2023-08-20T06:00	25712	24	-51.0	-84.0	47	7
2023-08-20T06:00	25734	24	-51.2	-84.2	49	7
2023-08-20T06:00	25765	24	-51.3	-84.3	52	7
2023-08-20T06:00	25793	24	-51.4	-84.3	56	7
2023-08-20T06:00	25814	24	-51.5	-84.4	60	7
2023-08-20T06:00	25841	24	-51.5	-84.4	64	6
2023-08-20T06:00	25875	24	-51.5	-84.4	65	6
2023-08-20T06:00	25901	24	-51.6	-84.5	65	6
2023-08-20T06:00	25926	24	-51.6	-84.5	64	6
2023-08-20T06:00	25957	23	-51.7	-84.5	62	6
2023-08-20T06:00	25977	23	-51.7	-84.5	62	6
2023-08-20T06:00	26012	23	-51.6	-84.5	64	6
2023-08-20T06:00	26038	23	-51.5	-84.4	66	6
2023-08-20T06:00	26070	23	-51.4	-84.3	70	6
2023-08-20T06:00	26106	23	-51.2	-84.2	73	6
2023-08-20T06:00	26131	23	-51.2	-84.2	76	6
2023-08-20T06:00	26157	23	-51.1	-84.1	79	6
2023-08-20T06:00	26188	23	-51.0	-84.0	83	6
2023-08-20T06:00	26215	23	-50.9	-84.7	87	6
2023-08-20T06:00	26241	22	-50.9	-84.0	92	6
2023-08-20T06:00	26272	22	-50.8	-83.9	97	7
2023-08-20T06:00	26302	22	-50.9	-84.0	103	7
2023-08-20T06:00	26333	22	-50.8	-83.9	108	8
2023-08-20T06:00	26358	22	-50.7	-83.8	113	8
2023-08-20T06:00	26391	22	-50.6	-84.5	118	9
2023-08-20T06:00	26415	22	-50.7	-84.6	123	9
2023-08-20T06:00	26449	22	-50.3	-84.3	128	9
2023-08-20T06:00	26474	22	-49.7	-83.9	132	8
2023-08-20T06:00	26511	22	-49.5	-83.7	135	8
2023-08-20T06:00	26546	21	-49.3	-83.6	138	7
2023-08-20T06:00	26571	21	-49.2	-83.5	142	6
2023-08-20T06:00	26594	21	-49.1	-83.4	145	5
2023-08-20T06:00	26622	21	-49.1	-83.4	147	5
2023-08-20T06:00	26654	21	-49.1	-83.4	146	4
2023-08-20T06:00	26686	21	-49.2	-83.5	143	4
2023-08-20T06:00	26714	21	-48.9	-83.3	136	4
2023-08-20T06:00	26738	21	-48.4	-83.8	129	4
2023-08-20T06:00	26768	21	-48.1	-83.6	125	4
2023-08-20T06:00	26803	21	-48.0	-83.6	124	4
2023-08-20T06:00	26825	21	-47.9	-83.5	129	4
2023-08-20T06:00	26854	20	-47.8	-83.4	137	3
2023-08-20T06:00	26881	20	-47.8	-83.4	147	3
2023-08-20T06:00	26911	20	-47.8	-83.4	157	3
2023-08-20T06:00	26931	20	-47.9	-83.5	164	4
2023-08-20T06:00	26957	20	-48.0	-83.6	167	3
2023-08-20T06:00	26982	20	-48.0	-83.6	168	3
2023-08-20T06:00	27019	20	-47.8	-83.4	165	3
2023-08-20T06:00	27043	20	-47.5	-83.2	160	3
2023-08-20T06:00	27070	20	-47.2	-83.0	153	3
2023-08-20T06:00	27093	20	-47.1	-82.9	144	3
2023-08-20T06:00	27117	20	-47.3	-83.1	134	2
2023-08-20T06:00	27148	20	-47.4	-83.1	124	2
2023-08-20T06:00	27174	19	-47.5	-82.3	113	2
2023-08-20T06:00	27190	19	-47.7	-82.4	104	2
2023-08-20T06:00	27213	19	-47.8	-82.5	96	2
2023-08-20T06:00	27257	19	-47.9	-82.6	91	2
2023-08-20T06:00	27286	19	-48.0	-82.7	90	3
2023-08-20T06:00	27308	19	-48.1	-82.7	92	3
2023-08-20T06:00	27343	19	-48.2	-82.8	95	3
2023-08-20T06:00	27368	19	-48.2	-82.8	99	3
2023-08-20T06:00	27398	19	-48.0	-83.6	104	3
2023-08-20T06:00	27420	19	-47.8	-83.4	108	3
2023-08-20T06:00	27446	19	-47.5	-83.2	110	2
2023-08-20T06:00	27480	19	-47.1	-82.9	108	2
2023-08-20T06:00	27509	19	-46.8	-82.7	101	3
2023-08-20T06:00	27538	18	-46.8	-82.7	93	3
2023-08-20T06:00	27571	18	-46.6	-82.6	86	4
2023-08-20T06:00	27594	18	-46.2	-82.3	80	4
2023-08-20T06:00	27614	18	-46.1	-82.2	76	5
2023-08-20T06:00	27654	18	-46.2	-82.3	73	5
2023-08-20T06:00	27686	18	-46.2	-82.3	72	6
2023-08-20T06:00	27715	18	-46.3	-82.4	71	5
2023-08-20T06:00	27743	18	-46.5	-82.5	73	5
2023-08-20T06:00	27771	18	-46.6	-82.6	75	5
2023-08-20T06:00	27810	18	-46.8	-82.7	78	4
2023-08-20T06:00	27834	18	-46.9	-82.8	82	3
2023-08-20T06:00	27868	18	-47.0	-82.9	86	3
2023-08-20T06:00	27893	17	-47.2	-83.0	88	2
2023-08-20T06:00	27932	17	-47.4	-83.1	85	1
2023-08-20T06:00	27947	17	-47.4	-83.1	67	1
2023-08-20T06:00	27982	17	-47.2	-83.0	35	1
2023-08-20T06:00	28017	17	-47.1	-82.9	21	2
2023-08-20T06:00	28050	17	-47.1	-82.9	21	3
2023-08-20T06:00	28071	17	-47.1	-82.9	24	4
2023-08-20T06:00	28106	17	-46.9	-82.8	29	4
2023-08-20T06:00	28120	17	-46.7	-82.6	34	5
2023-08-20T06:00	28157	17	-46.6	-82.6	40	6
2023-08-20T06:00	28194	17	-46.6	-82.6	46	6
2023-08-20T06:00	28217	17	-46.6	-82.6	52	7
2023-08-20T06:00	28245	17	-46.7	-82.6	58	7
2023-08-20T06:00	28279	16	-46.8	-82.7	63	7
2023-08-20T06:00	28309	16	-46.9	-82.8	68	7
2023-08-20T06:00	28339	16	-46.9	-82.8	73	6
2023-08-20T06:00	28365	16	-46.7	-82.6	77	6
2023-08-20T06:00	28386	16	-46.6	-82.6	80	6
2023-08-20T06:00	28418	16	-46.6	-82.6	82	6
2023-08-20T06:00	28451	16	-46.6	-82.6	84	6
2023-08-20T06:00	28477	16	-46.4	-82.4	87	6
2023-08-20T06:00	28503	16	-46.2	-82.3	90	6
2023-08-20T06:00	28533	16	-46.1	-83.3	94	5
2023-08-20T06:00	28558	16	-46.0	-83.2	100	5
2023-08-20T06:00	28588	16	-45.8	-83.1	104	4
2023-08-20T06:00	28622	16	-45.6	-82.9	106	3
2023-08-20T06:00	28640	16	-45.2	-82.7	101	2
2023-08-20T06:00	28670	16	-44.8	-82.4	83	1
2023-08-20T06:00	28693	16	-44.5	-82.2	48	1
2023-08-20T06:00	28707	15	-44.3	-82.0	16	1
2023-08-20T06:00	28753	15	-44.1	-81.9	1	2
2023-08-20T06:00	28776	15	-44.0	-81.8	353	2
2023-08-20T06:00	28813	15	-43.9	-81.8	350	2
2023-08-20T06:00	28828	15	-43.7	-81.6	350	1
2023-08-20T06:00	28851	15	-43.6	-81.5	351	1
2023-08-20T06:00	28886	15	-43.6	-81.5	356	1
2023-08-20T06:00	28920	15	-43.6	-81.5	6	1
2023-08-20T06:00	28943	15	-43.4	-81.4	17	1
2023-08-20T06:00	28967	15	-43.2	-81.3	22	1
2023-08-20T06:00	28996	15	-42.9	-81.1	19	1
2023-08-20T06:00	29025	15	-42.7	-80.9	12	1
2023-08-20T06:00	29058	15	-42.6	-80.8	4	1
2023-08-20T06:00	29086	15	-42.6	-80.8	357	2
2023-08-20T06:00	29121	15	-42.7	-80.9	353	2
2023-08-20T06:00	29149	14	-42.8	-81.0	351	2
2023-08-20T06:00	29174	14	-42.8	-81.0	351	2
2023-08-20T06:00	29208	14	-42.7	-80.9	351	2
2023-08-20T06:00	29230	14	-42.7	-80.9	349	3
2023-08-20T06:00	29260	14	-42.9	-81.1	347	3
2023-08-20T06:00	29289	14	-43.0	-81.1	345	4
2023-08-20T06:00	29313	14	-42.9	-81.1	342	5
2023-08-20T06:00	29359	14	-42.9	-81.1	341	6
2023-08-20T06:00	29381	14	-42.7	-80.9	340	6
2023-08-20T06:00	29408	14	-42.5	-80.8	339	7
2023-08-20T06:00	29428	14	-42.3	-80.6	340	8
2023-08-20T06:00	29466	14	-42.3	-80.6	340	9
2023-08-20T06:00	29502	14	-42.3	-80.6	342	9
2023-08-20T06:00	29529	14	-42.3	-80.6	345	9
2023-08-20T06:00	29550	14	-42.4	-80.7	350	10
2023-08-20T06:00	29574	14	-42.4	-80.7	354	10
2023-08-20T06:00	29612	14	-42.3	-80.6	359	10
2023-08-20T06:00	29631	13	-42.4	-80.7	3	11
2023-08-20T06:00	29669	13	-42.6	-80.8	7	11
2023-08-20T06:00	29688	13	-42.6	-80.8	12	11
2023-08-20T06:00	29735	13	-42.4	-80.7	17	10
2023-08-20T06:00	29758	13	-42.1	-80.5	23	10
2023-08-20T06:00	29788	13	-42.0	-80.4	30	9
2023-08-20T06:00	29811	13	-42.0	-80.4	36	8
2023-08-20T06:00	29842	13	-41.9	-80.4	43	8
2023-08-20T06:00	29867	13	-41.8	-80.3	48	8
2023-08-20T06:00	29904	13	-41.8	-80.3	52	7
2023-08-20T06:00	29924	13	-41.8	-80.3	55	7
2023-08-20T06:00	29951	13	-41.8	-80.3	55	7
2023-08-20T06:00	29991	13	-41.9	-80.4	53	7
2023-08-20T06:00	30003	13	-41.9	-80.4	49	7
2023-08-20T06:00	30040	13	-42.0	-80.4	44	7
2023-08-20T06:00	30065	13	-42.0	-80.4	40	7
2023-08-20T06:00	30109	13	-41.9	-80.4	37	7
2023-08-20T06:00	30139	13	-41.7	-80.2	35	8
2023-08-20T06:00	30172	12	-41.5	-80.1	34	8
2023-08-20T06:00	30197	12	-41.5	-80.1	35	9
2023-08-20T06:00	30231	12	-41.5	-80.1	37	9
2023-08-20T06:00	30252	12	-41.3	-79.9	40	10
2023-08-20T06:00	30288	12	-41.1	-79.8	45	10
2023-08-20T06:00	30310	12	-40.9	-79.7	50	10
2023-08-20T06:00	30346	12	-40.8	-79.6	55	10
2023-08-20T06:00	30363	12	-40.7	-79.5	61	9
2023-08-20T06:00	30395	12	-40.5	-79.4	66	8
2023-08-20T06:00	30439	12	-40.5	-79.4	71	8
2023-08-20T06:00	30466	12	-40.5	-79.4	76	7
2023-08-20T06:00	30491	12	-40.5	-79.4	80	7
2023-08-20T06:00	30519	12	-40.5	-79.4	81	7
2023-08-20T06:00	30557	12	-40.3	-79.2	81	7
2023-08-20T06:00	30583	12	-40.1	-79.1	79	8
2023-08-20T06:00	30632	12	-40.0	-79.0	77	8
2023-08-20T06:00	30651	12	-39.7	-78.8	76	9
2023-08-20T06:00	30680	12	-39.4	-78.6	76	10
2023-08-20T06:00	30710	12	-39.4	-78.6	77	10
2023-08-20T06:00	30729	11	-39.1	-78.4	79	10
2023-08-20T06:00	30779	11	-39.0	-78.3	82	10
2023-08-20T06:00	30801	11	-39.0	-78.3	84	10
2023-08-20T06:00	30836	11	-39.0	-78.3	87	10
2023-08-20T06:00	30868	11	-39.1	-78.4	89	10
2023-08-20T06:00	30894	11	-39.1	-78.4	92	10
2023-08-20T06:00	30943	11	-39.2	-78.5	94	10
2023-08-20T06:00	30957	11	-39.2	-78.5	95	10
2023-08-20T06:00	30988	11	-39.2	-78.5	96	10
2023-08-20T06:00	31013	11	-39.2	-78.5	96	9
2023-08-20T06:00	31059	11	-39.2	-78.5	95	9
2023-08-20T06:00	31072	11	-39.2	-78.5	95	9
2023-08-20T06:00	31107	11	-39.2	-78.5	94	8
2023-08-20T06:00	31123	11	-39.3	-78.5	93	8
2023-08-20T06:00	31167	11	-39.4	-78.6	93	8
2023-08-20T06:00	31212	11	-39.4	-78.6	93	8
2023-08-20T06:00	31223	11	-39.5	-78.7	93	8
2023-08-20T06:00	31256	11	-39.6	-78.8	92	8
2023-08-20T06:00	31293	11	-39.6	-78.8	92	8
2023-08-20T06:00	31317	11	-39.6	-78.8	92	8
2023-08-20T06:00	31345	10	-39.7	-78.8	92	8
2023-08-20T06:00	31378	10	-39.7	-78.8	92	8
2023-08-20T06:00	31408	10	-39.8	-78.9	93	9
2023-08-20T06:00	31431	10	-39.9	-79.0	93	9
2023-08-20T06:00	31469	10	-39.9	-79.0	93	10
2023-08-20T06:00	31487	10	-40.0	-79.0	94	10
2023-08-20T06:00	31512	10	-40.0	-79.0	96	10
2023-08-20T06:00	31549	10	-40.0	-79.0	99	11
2023-08-20T06:00	31585	10	-39.8	-78.9	102	11
2023-08-20T06:00	31607	10	-39.6	-78.8	105	11
2023-08-20T06:00	31637	10	-39.3	-78.5	109	11
2023-08-20T06:00	31667	10	-39.1	-78.4	112	11
2023-08-20T06:00	31703	10	-39.0	-78.3	116	10
2023-08-20T06:00	31715	10	-39.0	-78.3	119	10
2023-08-20T06:00	31739	10	-39.0	-78.3	121	9
2023-08-20T06:00	31785	10	-39.0	-78.3	121	9
2023-08-20T06:00	31810	10	-39.0	-78.3	119	9
2023-08-20T06:00	31827	10	-38.9	-78.3	115	9
2023-08-20T06:00	31863	10	-38.8	-78.2	111	9
2023-08-20T06:00	31885	10	-38.5	-78.0	108	9
2023-08-20T06:00	31914	10	-38.4	-77.9	107	9
2023-08-20T06:00	31939	10	-38.2	-77.8	107	8
2023-08-20T06:00	31978	10	-38.1	-77.7	108	8
2023-08-20T06:00	32009	10	-38.0	-77.6	109	8
2023-08-20T06:00	32016	10	-37.9	-77.6	110	7
2023-08-20T06:00	32063	9	-37.8	-77.5	110	7
2023-08-20T06:00	32105	9	-37.7	-77.4	111	7
2023-08-20T06:00	32122	9	-37.7	-77.4	112	6
2023-08-20T06:00	32164	9	-37.8	-77.5	114	6
2023-08-20T06:00	32184	9	-37.9	-77.6	114	5
2023-08-20T06:00	32211	9	-38.0	-77.6	111	5
2023-08-20T06:00	32256	9	-38.0	-77.6	106	4
2023-08-20T06:00	32280	9	-37.9	-77.6	98	5
2023-08-20T06:00	32315	9	-37.8	-77.5	90	5
2023-08-20T06:00	32343	9	-37.8	-77.5	84	6
2023-08-20T06:00	32384	9	-37.8	-77.5	79	7
2023-08-20T06:00	32390	9	-37.7	-77.4	77	8
2023-08-20T06:00	32431	9	-37.7	-77.4	76	9
2023-08-20T06:00	32478	9	-37.5	-77.3	77	10
2023-08-20T06:00	32496	9	-37.2	-77.1	78	11
2023-08-20T06:00	32533	9	-37.0	-77.0	80	11
2023-08-20T06:00	32561	9	-36.8	-76.8	80	11
2023-08-20T12:00	112	1008	26.2	21.0	210	2
2023-08-20T12:00	138	1005	24.9		268	2
2023-08-20T12:00	158	1003	24.8	20.4	267	2
2023-08-20T12:00	187	999	24.6	20.4	273	1
2023-08-20T12:00	216	996	24.4	20.4	289	1
2023-08-20T12:00	240	993	24.0	20.1	311	1
2023-08-20T12:00	267	991	23.7	20.2	326	1
2023-08-20T12:00	292	988	23.5	20.1	324	1
2023-08-20T12:00	320	984	23.2	19.8	303	1
2023-08-20T12:00	346	981	23.0	19.9	270	1
2023-08-20T12:00	371	979	22.8	20.0	248	1
2023-08-20T12:00	396	976	22.5	20.0	239	1
2023-08-20T12:00	416	974	22.3	20.0	237	1
2023-08-20T12:00	437	971	22.1	20.0	238	0
2023-08-20T12:00	463	968	22.0	19.6	237	0
2023-08-20T12:00	485	966	22.2	18.1	204	0
2023-08-20T12:00	508	964	22.4	17.5	70	0
2023-08-20T12:00	526	961	22.3	17.1	50	0
2023-08-20T12:00	549	959	22.6	15.8	355	0
2023-08-20T12:00	575	956	22.4		309	1
2023-08-20T12:00	600	953	22.5	14.1	293	1
2023-08-20T12:00	625	951	23.1	12.6	285	1
2023-08-20T12:00	653	948	23.0	12.3	280	2
2023-08-20T12:00	676	945	22.8	12.1	277	3
2023-08-20T12:00	697	943	22.7	11.9	276	3
2023-08-20T12:00	722	940	22.8	11.6	275	4
2023-08-20T12:00	743	938	22.9	11.8	275	4
2023-08-20T12:00	759	936	22.9	11.9	276	4
2023-08-20T12:00	778	934	22.8	12.0	276	4
2023-08-20T12:00	800	932	23.0	12.1	275	4
2023-08-20T12:00	820	930	22.9	12.0	273	4
2023-08-20T12:00	845	927	22.7	11.9	270	4
2023-08-20T12:00	868	924	22.6	11.7	268	4
2023-08-20T12:00	889	922	22.5	11.7	266	4
2023-08-20T12:00	919	919	22.3	11.9	264	5
2023-08-20T12:00	945	916	22.1	12.3	262	5
2023-08-20T12:00	968	914	21.9	12.2	260	5
2023-08-20T12:00	996	911	21.8	11.6	259	5
2023-08-20T12:00	1016	909	21.8	11.1	258	5
2023-08-20T12:00	1035	907	21.7	11.1	258	5
2023-08-20T12:00	1055	905	21.5	11.1	258	6
2023-08-20T12:00	1077	902	21.3	11.0	258	6
2023-08-20T12:00	1109	899	21.1	11.1	256	6
2023-08-20T12:00	1135	897	20.9	11.8	254	6
2023-08-20T12:00	1156	894	20.7	12.5	253	6
2023-08-20T12:00	1173	892	20.5	12.6	254	6
2023-08-20T12:00	1194	890	20.2	12.5	256	6
2023-08-20T12:00	1221	888	20.0	12.9	260	6
2023-08-20T12:00	1244	885	19.7	13.8	263	6
2023-08-20T12:00	1263	883	19.5	14.2	264	6
2023-08-20T12:00	1285	881	19.3	14.6	263	6
2023-08-20T12:00	1307	879	19.1	14.5	261	6
2023-08-20T12:00	1330	876	18.9	14.4	259	5
2023-08-20T12:00	1352	874	18.7	14.3	258	5
2023-08-20T12:00	1377	872	18.5	14.3	260	5
2023-08-20T12:00	1400	869	18.3	14.2	262	5
2023-08-20T12:00	1423	867	18.1	14.2	264	5
2023-08-20T12:00	1447	865	18.0	13.1	265	5
2023-08-20T12:00	1468	862	17.9	13.1	265	5
2023-08-20T12:00	1502	859	17.6	12.7	264	6
2023-08-20T12:00	1528	857	17.4	12.5	262	6
2023-08-20T12:00	1551	854	17.4	10.6	259	6
2023-08-20T12:00	1574	852	17.4	10.0	257	6
2023-08-20T12:00	1600	849	17.2	10.1	255	7
2023-08-20T12:00	1624	847	17.0	10.1	254	7
2023-08-20T12:00	1642	845	16.8	9.9	254	7
2023-08-20T12:00	1668	842	16.6	10.0	255	7
2023-08-20T12:00	1699	840	16.2	12.1	256	7
2023-08-20T12:00	1723	837	16.0	11.0	257	7
2023-08-20T12:00	1747	835	15.9	10.1	258	7
2023-08-20T12:00	1770	833	15.8	9.6	258	7
2023-08-20T12:00	1792	830	15.6	9.2	257	7
2023-08-20T12:00	1818	828	15.4	9.0	255	7
2023-08-20T12:00	1841	826	15.2	8.7	252	7
2023-08-20T12:00	1857	824	15.1	8.8	249	7
2023-08-20T12:00	1881	822	15.0	8.9	247	8
2023-08-20T12:00	1900	820	14.9	8.5	245	8
2023-08-20T12:00	1920	818	14.7	8.3	245	8
2023-08-20T12:00	1941	816	14.6	8.7	245	8
2023-08-20T12:00	1968	813	14.4	8.5	246	8
2023-08-20T12:00	1988	811	14.2	8.6	248	9
2023-08-20T12:00	2013	809	13.9	8.5	251	9
2023-08-20T12:00	2033	807	13.7	8.6	255	9
2023-08-20T12:00	2056	805	13.6	8.6	258	9
2023-08-20T12:00	2082	803	13.4	8.6	261	9
2023-08-20T12:00	2103	801	13.2	8.4	263	9
2023-08-20T12:00	2119	799	13.1	8.5	262	8
2023-08-20T12:00	2149	796	12.8	8.3	260	8
2023-08-20T12:00	2172	794	12.6	8.2	256	7
2023-08-20T12:00	2194	792	12.5	8.2	252	7
2023-08-20T12:00	2220	789	12.3	8.0	249	6
2023-08-20T12:00	2242	787	12.1	8.0	249	6
2023-08-20T12:00	2266	785	11.9	8.0	250	5
2023-08-20T12:00	2288	783	11.7	8.0	253	5
2023-08-20T12:00	2305	781	11.6	7.9	257	5
2023-08-20T12:00	2332	779	11.4	7.5	261	5
2023-08-20T12:00	2356	777	11.2	7.3	265	6
2023-08-20T12:00	2378	775	10.9	7.6	267	6
2023-08-20T12:00	2398	773	10.8	7.7	268	7
2023-08-20T12:00	2422	770	10.5	7.7	267	7
2023-08-20T12:00	2453	768	10.3	7.6	264	7
2023-08-20T12:00	2477	765	10.0	7.3	259	7
2023-08-20T12:00	2507	763	9.8	7.0	256	7
2023-08-20T12:00	2533	760	9.6	6.7	253	7
2023-08-20T12:00	2553	758	9.5	7.0	251	7
2023-08-20T12:00	2578	756	9.3	6.5	252	7
2023-08-20T12:00	2599	754	9.2	6.4	253	7
2023-08-20T12:00	2622	752	9.0	6.2	254	7
2023-08-20T12:00	2648	750	8.8	5.9	255	7
2023-08-20T12:00	2669	748	8.6	5.8	255	7
2023-08-20T12:00	2695	746	8.4	6.2	255	7
2023-08-20T12:00	2719	744	8.3	6.1	255	7
2023-08-20T12:00	2741	742	8.1	6.1	257	7
2023-08-20T12:00	2764	740	7.8	6.4	259	7
2023-08-20T12:00	2788	738	7.6	6.4	263	6
2023-08-20T12:00	2802	736	7.6	5.5	267	6
2023-08-20T12:00	2823	734	7.5	5.8	270	6
2023-08-20T12:00	2851	732	7.2	5.7	270	6
2023-08-20T12:00	2877	729	7.0	5.7	269	7
2023-08-20T12:00	2900	727	6.8	5.3	266	7
2023-08-20T12:00	2918	726	6.6		263	7
2023-08-20T12:00	2946	723	6.4	5.8	261	8
2023-08-20T12:00	2974	721	6.2	5.7	261	8
2023-08-20T12:00	3003	718	6.0	5.6	261	9
2023-08-20T12:00	3022	717	6.1	4.9	262	9
2023-08-20T12:00	3049	714	5.9	4.7	262	10
2023-08-20T12:00	3065	713	5.9	4.4	263	10
2023-08-20T12:00	3082	711	5.8	4.5	264	11
2023-08-20T12:00	3105	709	5.5	4.5	265	11
2023-08-20T12:00	3128	707	5.4	4.1	268	11
2023-08-20T12:00	3155	705	5.3	3.9	271	11
2023-08-20T12:00	3185	703	5.0	3.8	273	11
2023-08-20T12:00	3212	700	4.8	3.7	275	11
2023-08-20T12:00	3230	699	4.8	3.3	274	11
2023-08-20T12:00	3245	697	4.7	3.0	272	12
2023-08-20T12:00	3266	696	4.6	2.7	270	12
2023-08-20T12:00	3292	693	4.5	2.3	267	12
2023-08-20T12:00	3316	691	4.3	2.1	267	12
2023-08-20T12:00	3339	689	4.1	2.1	267	12
2023-08-20T12:00	3361	687	3.9	2.1	269	12
2023-08-20T12:00	3387	685	3.7	1.6	270	12
2023-08-20T12:00	3411	684	3.5	1.3	271	12
2023-08-20T12:00	3428	682	3.3	1.2	272	11
2023-08-20T12:00	3455	680	3.0	1.1	271	11
2023-08-20T12:00	3481	678	2.8	0.9	271	11
2023-08-20T12:00	3502	676	2.7	0.8	270	11
2023-08-20T12:00	3517	674	2.6	0.7	269	11
2023-08-20T12:00	3532	673	2.4	0.6	268	11
2023-08-20T12:00	3550	672	2.3	0.4	267	11
2023-08-20T12:00	3577	670	2.1	-0.4	266	11
2023-08-20T12:00	3603	668	1.9	-0.5	266	12
2023-08-20T12:00	3621	666	1.7	-0.4	266	12
2023-08-20T12:00	3644	664	1.5	-0.5	266	13
2023-08-20T12:00	3669	662	1.4	-0.8	266	13
2023-08-20T12:00	3689	660	1.2	-0.8	265	13
2023-08-20T12:00	3713	658	1.1	-0.9	264	13
2023-08-20T12:00	3740	656	0.9	-1.1	262	13
2023-08-20T12:00	3767	654	0.7	-1.4	262	13
2023-08-20T12:00	3786	652	0.7	-1.5	262	13
2023-08-20T12:00	3811	650	0.6	-1.9	263	13
2023-08-20T12:00	3835	648	0.4	-2.0	263	14
2023-08-20T12:00	3856	647	0.3	-2.8	263	14
2023-08-20T12:00	3880	645	0.3	-3.6	261	14
2023-08-20T12:00	3910	642	0.2	-4.3	258	14
2023-08-20T12:00	3932	641	0.1	-3.8	256	15
2023-08-20T12:00	3955	639	0.0	-3.1	254	15
2023-08-20T12:00	3982	637	-0.2	-3.0	253	16
2023-08-20T12:00	4007	635	-0.4	-3.3	254	16
2023-08-20T12:00	4031	633	-0.5	-3.8	254	16
2023-08-20T12:00	4051	631	-0.5	-6.2	256	16
2023-08-20T12:00	4073	629	-0.3	-11.4	258	15
2023-08-20T12:00	4097	628	-0.3	-13.1	260	15
2023-08-20T12:00	4122	626	-0.5	-14.8	261	15
2023-08-20T12:00	4145	624	-0.7	-16.1	262	15
2023-08-20T12:00	4173	622	-0.9	-18.3	263	14
2023-08-20T12:00	4204	619	-1.1	-21.1	264	14
2023-08-20T12:00	4227	617	-1.3	-22.7	265	14
2023-08-20T12:00	4248	616	-1.4	-25.7	265	14
2023-08-20T12:00	4278	614	-1.6	-26.4	265	14
2023-08-20T12:00	4301	612	-1.7	-12.4	265	14
2023-08-20T12:00	4329	610	-2.0	-11.8	263	14
2023-08-20T12:00	4353	608	-2.2	-12.1	261	14
2023-08-20T12:00	4377	606	-2.5	-10.5	258	13
2023-08-20T12:00	4405	604	-2.8	-10.0	256	13
2023-08-20T12:00	4426	602	-3.1	-7.9	253	13
2023-08-20T12:00	4454	600	-3.4	-7.6	250	12
2023-08-20T12:00	4483	598	-3.7	-8.1	248	12
2023-08-20T12:00	4508	596	-4.1	-4.5	246	12
2023-08-20T12:00	4538	594	-4.5	-5.0	244	12
2023-08-20T12:00	4567	592	-4.4	-4.4	243	13
2023-08-20T12:00	4594	590	-4.6	-4.6	243	13
2023-08-20T12:00	4611	588	-4.9	-7.3	243	13
2023-08-20T12:00	4636	586	-4.6	-10.5	243	13
2023-08-20T12:00	4665	584	-3.9	-12.4	244	13
2023-08-20T12:00	4682	583	-3.9	-15.0	246	13
2023-08-20T12:00	4697	582	-3.8	-18.6	249	12
2023-08-20T12:00	4714	581	-3.7	-22.9	253	12
2023-08-20T12:00	4731	579	-3.7	-27.0	256	12
2023-08-20T12:00	4747	578	-3.6	-31.9	260	11
2023-08-20T12:00	4765	577	-3.4	-31.9	262	11
2023-08-20T12:00	4786	575	-3.2	-35.5	264	11
2023-08-20T12:00	4813	573	-3.2	-35.5	266	11
2023-08-20T12:00	4837	572	-3.1	-37.8	267	11
2023-08-20T12:00	4863	570	-3.1	-37.0	268	11
2023-08-20T12:00	4879	569	-3.0	-36.9	268	11
2023-08-20T12:00	4897	567	-3.1	-37.0	267	11
2023-08-20T12:00	4913	566	-3.2	-37.6	267	11
2023-08-20T12:00	4936	564	-3.3	-37.2	268	11
2023-08-20T12:00	4967	562	-3.3	-36.5	269	10
2023-08-20T12:00	4987	561	-3.3		271	11
2023-08-20T12:00	5002	560	-3.4	-36.3	272	11
2023-08-20T12:00	5021	558	-3.5	-35.8	273	12
2023-08-20T12:00	5036	557	-3.5	-36.9	273	13
2023-08-20T12:00	5050	556	-3.6	-37.2	272	14
2023-08-20T12:00	5073	555	-3.4	-38.5	271	15
2023-08-20T12:00	5101	553	-3.1	-40.4	270	16
2023-08-20T12:00	5123	551	-3.1	-40.7	270	16
2023-08-20T12:00	5134	550	-3.2	-40.5	270	16
2023-08-20T12:00	5148	549	-3.3	-40.6	271	16
2023-08-20T12:00	5166	548	-3.5	-40.7	271	15
2023-08-20T12:00	5191	547	-3.6	-41.1	271	14
2023-08-20T12:00	5217	545	-3.8	-41.6	270	13
2023-08-20T12:00	5244	543	-3.8	-41.3	268	13
2023-08-20T12:00	5267	541	-3.9	-41.3	266	13
2023-08-20T12:00	5289	540	-4.1	-41.8	265	13
2023-08-20T12:00	5318	538	-4.1	-43.0	265	14
2023-08-20T12:00	5348	536	-4.2	-43.1	264	14
2023-08-20T12:00	5368	534	-4.3	-43.1	264	14
2023-08-20T12:00	5388	533	-4.3	-42.7	265	14
2023-08-20T12:00	5415	531	-4.5	-42.9	265	14
2023-08-20T12:00	5442	529	-4.7	-42.7	265	13
2023-08-20T12:00	5473	527	-4.9	-42.4	264	13
2023-08-20T12:00	5491	526	-5.0	-42.2	263	13
2023-08-20T12:00	5507	525	-5.1	-42.2	261	12
2023-08-20T12:00	5526	524	-5.3	-42.4	260	12
2023-08-20T12:00	5549	522	-5.4	-43.2	258	13
2023-08-20T12:00	5575	520	-5.6	-43.7	256	13
2023-08-20T12:00	5604	518	-5.5	-43.6	256	13
2023-08-20T12:00	5640	516	-5.6	-41.9	255	13
2023-08-20T12:00	5660	515	-5.8	-39.3	256	13
2023-08-20T12:00	5677	514	-5.9	-38.9	256	13
2023-08-20T12:00	5696	512	-6.1	-38.9	257	13
2023-08-20T12:00	5717	511	-6.3	-39.0	257	13
2023-08-20T12:00	5736	510	-6.4	-38.9	256	13
2023-08-20T12:00	5756	509	-6.6	-39.0	255	13
2023-08-20T12:00	5780	507	-6.8	-39.4	254	13
2023-08-20T12:00	5808	505	-7.0	-39.1	252	13
2023-08-20T12:00	5841	503	-7.3	-38.5	251	13
2023-08-20T12:00	5864	502	-7.4	-38.4	250	13
2023-08-20T12:00	5884	500	-7.5	-38.5	250	13
2023-08-20T12:00	5903	499	-7.7	-38.6	250	13
2023-08-20T12:00	5923	498	-7.9	-38.8	250	12
2023-08-20T12:00	5946	496	-8.1	-38.8	250	12
2023-08-20T12:00	5972	495	-8.4	-38.8	250	12
2023-08-20T12:00	5995	493	-8.6	-38.6	250	11
2023-08-20T12:00	6023	491	-8.7	-38.2	250	11
2023-08-20T12:00	6045	490	-8.9	-38.0	251	11
2023-08-20T12:00	6077	488	-9.2	-38.1	253	10
2023-08-20T12:00	6104	486	-9.5	-38.0	254	10
2023-08-20T12:00	6132	485	-9.6	-37.8	254	10
2023-08-20T12:00	6157	483	-9.8	-38.1	255	10
2023-08-20T12:00	6182	481	-10.0	-38.6	256	10
2023-08-20T12:00	6209	480	-10.3	-38.5	257	11
2023-08-20T12:00	6231	478	-10.5	-38.8	258	11
2023-08-20T12:00	6265	476	-10.9	-39.0	259	12
2023-08-20T12:00	6292	475	-11.1	-39.2	260	12
2023-08-20T12:00	6312	473	-11.3	-39.5	259	12
2023-08-20T12:00	6333	472	-11.5	-39.6	259	12
2023-08-20T12:00	6356	471	-11.7	-39.8	258	12
2023-08-20T12:00	6382	469	-11.9	-39.8	259	11
2023-08-20T12:00	6408	467	-12.1	-40.1	260	11
2023-08-20T12:00	6430	466	-12.3	-40.4	261	11
2023-08-20T12:00	6454	465	-12.5	-41.5	263	11
2023-08-20T12:00	6477	463	-12.7	-42.0	265	12
2023-08-20T12:00	6500	462	-12.9	-41.8	266	12
2023-08-20T12:00	6518	461	-13.1	-42.3	267	12
2023-08-20T12:00	6541	459	-13.3	-42.8	267	12
2023-08-20T12:00	6568	458	-13.5	-43.2	267	13
2023-08-20T12:00	6596	456	-13.8	-43.4	266	13
2023-08-20T12:00	6620	454	-14.0	-43.6	266	12
2023-08-20T12:00	6654	453	-14.3	-43.6	266	12
2023-08-20T12:00	6679	451	-14.5	-43.8	266	12
2023-08-20T12:00	6705	450	-14.8		267	12
2023-08-20T12:00	6729	448	-15.0	-44.0	268	13
2023-08-20T12:00	6757	446	-15.2	-44.0	269	13
2023-08-20T12:00	6783	445	-15.4	-44.0	271	14
2023-08-20T12:00	6805	444	-15.5	-44.1	273	15
2023-08-20T12:00	6829	442	-15.7	-44.2	274	15
2023-08-20T12:00	6852	441	-15.8	-44.3	274	15
2023-08-20T12:00	6879	439	-16.1	-44.5	274	15
2023-08-20T12:00	6907	438	-16.2	-44.8	274	15
2023-08-20T12:00	6937	436	-16.5	-45.0	274	15
2023-08-20T12:00	6961	434	-16.7	-45.2	275	15
2023-08-20T12:00	6991	433	-16.9	-45.5	276	14
2023-08-20T12:00	7021	431	-17.0	-46.5	277	14
2023-08-20T12:00	7050	429	-17.2	-46.1	279	14
2023-08-20T12:00	7078	428	-17.4	-46.1	281	13
2023-08-20T12:00	7107	426	-17.5	-46.7	282	13
2023-08-20T12:00	7131	425	-17.6	-46.8	283	13
2023-08-20T12:00	7163	423	-17.8	-46.9	283	13
2023-08-20T12:00	7194	421	-17.9	-47.6	283	14
2023-08-20T12:00	7216	420	-18.1	-46.5	282	14
2023-08-20T12:00	7240	419	-18.3	-46.0	281	14
2023-08-20T12:00	7267	417	-18.5	-45.8	281	14
2023-08-20T12:00	7295	416	-18.7	-45.7	281	14
2023-08-20T12:00	7324	414	-18.8	-45.2	280	15
2023-08-20T12:00	7353	412	-18.9	-45.0	280	15
2023-08-20T12:00	7378	411	-19.0	-45.1	278	15
2023-08-20T12:00	7403	409	-19.2	-45.1	275	15
2023-08-20T12:00	7438	408	-19.5	-45.3	273	15
2023-08-20T12:00	7467	406	-19.7	-45.4	271	16
2023-08-20T12:00	7494	405	-19.8	-45.2	269	16
2023-08-20T12:00	7525	403	-19.9	-45.5	268	16
2023-08-20T12:00	7552	401	-20.0	-45.2	267	16
2023-08-20T12:00	7582	400	-20.3	-45.0	265	15
2023-08-20T12:00	7608	398	-20.5	-45.5	264	15
2023-08-20T12:00	7637	397	-20.7	-45.4	264	15
2023-08-20T12:00	7668	395	-21.0	-45.1	263	15
2023-08-20T12:00	7697	394	-21.2	-44.7	263	15
2023-08-20T12:00	7723	392	-21.4	-44.7	262	15
2023-08-20T12:00	7755	391	-21.7	-44.8	262	15
2023-08-20T12:00	7787	389	-22.0	-45.3	261	15
2023-08-20T12:00	7816	387	-22.2	-45.4	261	15
2023-08-20T12:00	7848	386	-22.5	-45.9	262	15
2023-08-20T12:00	7876	384	-22.7	-46.1	262	15
2023-08-20T12:00	7907	383	-23.0	-46.4	263	15
2023-08-20T12:00	7939	381	-23.3	-46.9	264	15
2023-08-20T12:00	7959	380	-23.5	-47.0	265	15
2023-08-20T12:00	7980	379	-23.6	-47.2	265	15
2023-08-20T12:00	8001	378	-23.7	-47.9	266	15
2023-08-20T12:00	8020	377	-23.8	-47.8	267	15
2023-08-20T12:00	8037	376	-24.0	-47.9	268	15
2023-08-20T12:00	8056	375	-24.2	-47.9	269	15
2023-08-20T12:00	8074	374	-24.3	-48.0	270	15
2023-08-20T12:00	8090	373	-24.4	-48.1	270	15
2023-08-20T12:00	8108	372	-24.5	-48.1	271	15
2023-08-20T12:00	8124	371	-24.7	-48.0	272	15
2023-08-20T12:00	8141	370	-24.8	-47.9	272	15
2023-08-20T12:00	8161	369	-25.0	-47.7	273	15
2023-08-20T12:00	8178	369	-25.1	-47.7	273	15
2023-08-20T12:00	8200	367	-25.3	-47.5	274	15
2023-08-20T12:00	8228	366	-25.5	-47.7	275	16
2023-08-20T12:00	8253	365	-25.7	-47.7	275	16
2023-08-20T12:00	8279	363	-25.9	-47.8	275	16
2023-08-20T12:00	8309	362	-26.1	-48.2	275	16
2023-08-20T12:00	8332	361	-26.3	-48.4	276	16
2023-08-20T12:00	8362	359	-26.5	-48.6	276	16
2023-08-20T12:00	8392	358	-26.7	-48.8	277	16
2023-08-20T12:00	8424	356	-27.0	-48.9	278	16
2023-08-20T12:00	8451	355	-27.2	-49.1	278	17
2023-08-20T12:00	8481	353	-27.5	-49.2	279	17
2023-08-20T12:00	8512	352	-27.7	-49.3	279	17
2023-08-20T12:00	8541	351	-28.0	-49.4	279	17
2023-08-20T12:00	8571	349	-28.3	-49.5	278	17
2023-08-20T12:00	8602	348	-28.6	-49.6	278	17
2023-08-20T12:00	8631	346	-28.8	-49.7	278	17
2023-08-20T12:00	8659	345	-29.1	-49.7	278	17
2023-08-20T12:00	8688	343	-29.4	-50.0	278	17
2023-08-20T12:00	8720	342	-29.5	-50.3	279	17
2023-08-20T12:00	8748	340	-29.7	-50.4	279	17
2023-08-20T12:00	8781	339	-29.9	-50.4	279	17
2023-08-20T12:00	8811	338	-30.1	-51.0	279	16
2023-08-20T12:00	8840	336	-30.3	-51.6	279	16
2023-08-20T12:00	8871	335	-30.6	-51.8	278	16
2023-08-20T12:00	8900	333	-30.8	-51.7	278	16
2023-08-20T12:00	8926	332	-31.1	-51.9	278	16
2023-08-20T12:00	8955	331	-31.3	-51.9	277	16
2023-08-20T12:00	8987	329	-31.6	-52.3	277	16
2023-08-20T12:00	9014	328	-31.8	-52.4	276	16
2023-08-20T12:00	9040	327	-32.0	-52.1	275	16
2023-08-20T12:00	9069	325	-32.3	-52.1	275	16
2023-08-20T12:00	9100	324	-32.6	-52.6	274	16
2023-08-20T12:00	9131	323	-32.8	-53.1	273	16
2023-08-20T12:00	9161	321	-33.1	-53.5	273	15
2023-08-20T12:00	9190	320	-33.3	-53.6	273	15
2023-08-20T12:00	9217	319	-33.5	-54.1	274	15
2023-08-20T12:00	9245	317	-33.6	-55.3	275	15
2023-08-20T12:00	9274	316	-33.8	-55.2	276	15
2023-08-20T12:00	9304	315	-34.1	-55.3	276	15
2023-08-20T12:00	9333	314	-34.4	-55.3	276	16
2023-08-20T12:00	9356	312	-34.6	-55.3	276	16
2023-08-20T12:00	9386	311	-34.9	-55.4	275	15
2023-08-20T12:00	9410	310	-35.1	-55.6	275	15
2023-08-20T12:00	9435	309	-35.4	-55.7	276	15
2023-08-20T12:00	9462	308	-35.6	-55.7	277	15
2023-08-20T12:00	9487	307	-35.9	-55.8	280	15
2023-08-20T12:00	9517	305	-36.1	-55.8	282	15
2023-08-20T12:00	9544	304	-36.4	-55.9	285	15
2023-08-20T12:00	9571	303	-36.7	-56.0	286	15
2023-08-20T12:00	9600	302	-36.9	-56.0	287	15
2023-08-20T12:00	9627	300	-37.2	-56.2	286	15
2023-08-20T12:00	9653	299	-37.4	-56.4	285	15
2023-08-20T12:00	9678	298	-37.6	-56.5	284	14
2023-08-20T12:00	9704	297	-37.9	-56.9	285	14
2023-08-20T12:00	9732	296	-38.1	-56.9	286	14
2023-08-20T12:00	9756	295	-38.4	-57.1	289	14
2023-08-20T12:00	9784	294	-38.6	-57.4	291	14
2023-08-20T12:00	9810	293	-38.8	-57.6	291	15
2023-08-20T12:00	9836	291	-39.0	-57.7	291	15
2023-08-20T12:00	9858	291	-39.1	-57.9	290	16
2023-08-20T12:00	9879	290	-39.3	-58.0	290	16
2023-08-20T12:00	9895	289	-39.4	-57.9	289	16
2023-08-20T12:00	9914	288	-39.6	-58.1	289	16
2023-08-20T12:00	9932	287	-39.8	-58.2	290	16
2023-08-20T12:00	9949	287	-39.9	-58.2	290	16
2023-08-20T12:00	9970	286	-40.1	-58.5	291	16
2023-08-20T12:00	9988	285	-40.3	-58.6	292	16
2023-08-20T12:00	10008	284	-40.4	-58.5	292	17
2023-08-20T12:00	10026	283	-40.6	-58.5	292	17
2023-08-20T12:00	10046	283	-40.8	-58.6	292	17
2023-08-20T12:00	10067	282	-40.9	-58.2	292	17
2023-08-20T12:00	10084	281	-41.1	-58.4	291	17
2023-08-20T12:00	10105	280	-41.3	-58.2	291	17
2023-08-20T12:00	10123	279	-41.4	-57.7	291	17
2023-08-20T12:00	10142	279	-41.6	-57.5	290	17
2023-08-20T12:00	10162	278	-41.7	-57.8	290	17
2023-08-20T12:00	10181	277	-41.9	-57.9	290	17
2023-08-20T12:00	10200	276	-42.1	-57.6	290	17
2023-08-20T12:00	10219	276	-42.2	-57.1	290	17
2023-08-20T12:00	10239	275	-42.4	-57.3	290	17
2023-08-20T12:00	10257	274	-42.5	-57.2	291	17
2023-08-20T12:00	10276	273	-42.7	-57.3	291	17
2023-08-20T12:00	10297	272	-42.9	-57.6	292	17
2023-08-20T12:00	10316	272	-43.1	-57.8	292	18
2023-08-20T12:00	10333	271	-43.2	-57.9	292	18
2023-08-20T12:00	10354	270	-43.4	-58.0	292	18
2023-08-20T12:00	10373	269	-43.6	-58.2	292	18
2023-08-20T12:00	10392	269	-43.7	-58.4	292	18
2023-08-20T12:00	10410	268	-43.8	-58.7	291	18
2023-08-20T12:00	10429	267	-44.0	-58.7	291	19
2023-08-20T12:00	10447	266	-44.1	-58.9	291	19
2023-08-20T12:00	10468	266	-44.2	-59.4	291	19
2023-08-20T12:00	10486	265	-44.3	-59.7	291	19
2023-08-20T12:00	10507	264	-44.4	-59.9	292	19
2023-08-20T12:00	10527	263	-44.5	-60.0	292	19
2023-08-20T12:00	10547	262	-44.6	-60.2	293	19
2023-08-20T12:00	10564	262	-44.7	-60.2	294	19
2023-08-20T12:00	10583	261	-44.8	-60.2	294	19
2023-08-20T12:00	10602	260	-44.9	-60.3	295	19
2023-08-20T12:00	10621	260	-45.1	-60.3	295	19
2023-08-20T12:00	10640	259	-45.3	-60.4	295	19
2023-08-20T12:00	10659	258	-45.5	-60.7	295	19
2023-08-20T12:00	10678	257	-45.7	-60.9	295	19
2023-08-20T12:00	10697	257	-45.8	-60.8	295	19
2023-08-20T12:00	10716	256	-46.0	-61.0	295	19
2023-08-20T12:00	10735	255	-46.0	-61.0	294	19
2023-08-20T12:00	10752	254	-46.1	-61.0	294	19
2023-08-20T12:00	10774	254	-46.3	-61.0	293	19
2023-08-20T12:00	10793	253	-46.5	-61.0	293	18
2023-08-20T12:00	10811	252	-46.6	-61.0	293	18
2023-08-20T12:00	10828	252	-46.8	-61.0	292	18
2023-08-20T12:00	10847	251	-47.0	-61.2	291	18
2023-08-20T12:00	10865	250	-47.1	-61.3	291	18
2023-08-20T12:00	10885	249	-47.2	-61.4	290	18
2023-08-20T12:00	10905	249	-47.3	-61.5	289	18
2023-08-20T12:00	10923	248	-47.4	-61.6	289	18
2023-08-20T12:00	10942	247	-47.5	-61.8	289	18
2023-08-20T12:00	10960	247	-47.6	-61.8	288	18
2023-08-20T12:00	10978	246	-47.7	-61.8	288	18
2023-08-20T12:00	10995	245	-47.8	-61.8	287	18
2023-08-20T12:00	11016	244	-47.9	-61.8	286	18
2023-08-20T12:00	11034	244	-48.0	-61.9	285	18
2023-08-20T12:00	11053	243	-48.1	-62.1	285	19
2023-08-20T12:00	11072	242	-48.2	-62.1	285	19
2023-08-20T12:00	11091	242	-48.3	-62.1	284	20
2023-08-20T12:00	11112	241	-48.5	-62.2	285	20
2023-08-20T12:00	11130	240	-48.6	-62.3	285	20
2023-08-20T12:00	11151	240	-48.7	-62.3	285	21
2023-08-20T12:00	11169	239	-48.9	-62.4	285	21
2023-08-20T12:00	11189	238	-49.0	-62.4	286	21
2023-08-20T12:00	11209	237	-49.1	-62.4	286	22
2023-08-20T12:00	11227	237	-49.2	-62.5	286	22
2023-08-20T12:00	11247	236	-49.4	-62.6	286	22
2023-08-20T12:00	11267	235	-49.5	-62.7	286	22
2023-08-20T12:00	11285	235	-49.6	-63.0	286	22
2023-08-20T12:00	11303	234	-49.6	-63.2	287	22
2023-08-20T12:00	11324	233	-49.8	-63.4	287	22
2023-08-20T12:00	11342	233	-49.9	-63.6	287	22
2023-08-20T12:00	11361	232	-50.0	-63.7	287	22
2023-08-20T12:00	11381	231	-50.2	-63.8	287	22
2023-08-20T12:00	11401	231	-50.3		288	23
2023-08-20T12:00	11431	230	-50.6	-64.1	289	23
2023-08-20T12:00	11457	229	-50.7	-64.3	290	23
2023-08-20T12:00	11481	228	-50.7	-64.6	291	23
2023-08-20T12:00	11502	227	-50.8	-64.9	292	24
2023-08-20T12:00	11521	226	-51.0	-64.9	293	24
2023-08-20T12:00	11541	226	-51.1	-64.8	294	24
2023-08-20T12:00	11559	225	-51.2	-64.9	295	25
2023-08-20T12:00	11579	224	-51.3	-64.9	296	25
2023-08-20T12:00	11600	224	-51.4	-65.0	297	25
2023-08-20T12:00	11618	223	-51.6	-65.1	298	26
2023-08-20T12:00	11637	222	-51.6	-65.1	298	26
2023-08-20T12:00	11655	222	-51.6	-65.1	299	26
2023-08-20T12:00	11675	221	-51.5	-64.9	300	26
2023-08-20T12:00	11693	220	-51.5	-64.8	300	26
2023-08-20T12:00	11713	220	-51.5	-64.8	301	26
2023-08-20T12:00	11732	219	-51.6	-64.9	301	26
2023-08-20T12:00	11750	219	-51.7	-65.2	302	26
2023-08-20T12:00	11768	218	-51.7	-65.3	302	26
2023-08-20T12:00	11787	217	-51.9	-65.6	302	26
2023-08-20T12:00	11809	217	-52.0	-65.6	302	26
2023-08-20T12:00	11829	216	-52.1	-65.7	302	25
2023-08-20T12:00	11850	215	-52.2	-65.8	302	25
2023-08-20T12:00	11868	215	-52.3	-65.9	302	24
2023-08-20T12:00	11889	214	-52.4	-65.8	302	24
2023-08-20T12:00	11910	213	-52.5	-65.8	302	24
2023-08-20T12:00	11929	213	-52.5	-65.7	302	23
2023-08-20T12:00	11948	212	-52.5	-65.6	302	23
2023-08-20T12:00	11968	211	-52.8	-65.8	301	23
2023-08-20T12:00	11989	211	-52.9	-65.8	301	22
2023-08-20T12:00	12006	210	-53.0	-65.9	300	22
2023-08-20T12:00	12028	209	-53.1	-66.0	300	22
2023-08-20T12:00	12047	209	-53.2	-66.0	299	21
2023-08-20T12:00	12066	208	-53.3	-66.1	299	21
2023-08-20T12:00	12086	207	-53.5	-66.1	298	21
2023-08-20T12:00	12103	207	-53.6	-66.2	298	20
2023-08-20T12:00	12123	206	-53.7	-66.1	298	20
2023-08-20T12:00	12140	206	-53.7	-66.0	299	19
2023-08-20T12:00	12162	205	-53.9	-66.1	299	19
2023-08-20T12:00	12183	204	-54.0	-66.1	299	18
2023-08-20T12:00	12203	204	-54.0	-66.1	298	18
2023-08-20T12:00	12221	203	-54.1	-66.2	298	17
2023-08-20T12:00	12243	202	-54.3	-66.4	297	17
2023-08-20T12:00	12262	202	-54.4	-66.5	297	16
2023-08-20T12:00	12281	201	-54.3	-66.5	296	16
2023-08-20T12:00	12302	201	-54.4	-66.7	295	16
2023-08-20T12:00	12321	200	-54.5	-66.7	294	15
2023-08-20T12:00	12340	199	-54.7	-66.8	293	15
2023-08-20T12:00	12359	199	-54.8	-66.8	292	15
2023-08-20T12:00	12377	198	-54.8	-66.8	290	15
2023-08-20T12:00	12399	198	-55.0	-66.9	289	15
2023-08-20T12:00	12420	197	-55.2	-66.9	287	15
2023-08-20T12:00	12441	196	-55.3	-67.0	286	15
2023-08-20T12:00	12460	196	-55.4	-67.1	284	15
2023-08-20T12:00	12479	195	-55.6	-67.2	283	15
2023-08-20T12:00	12499	194	-55.6	-67.2	281	15
2023-08-20T12:00	12519	194	-55.7	-67.2	279	15
2023-08-20T12:00	12540	193	-56.0	-67.4	277	15
2023-08-20T12:00	12559	193	-56.1	-67.4	276	15
2023-08-20T12:00	12580	192	-56.3	-67.4	275	15
2023-08-20T12:00	12599	191	-56.4	-67.4	274	16
2023-08-20T12:00	12620	191	-56.6	-67.6	272	16
2023-08-20T12:00	12640	190	-56.6	-67.5	271	16
2023-08-20T12:00	12659	190	-56.8	-67.7	270	17
2023-08-20T12:00	12681	189	-57.0	-67.8	269	17
2023-08-20T12:00	12701	188	-57.1	-67.8	268	18
2023-08-20T12:00	12721	188	-57.2	-67.9	268	18
2023-08-20T12:00	12741	187	-57.2	-68.0	268	19
2023-08-20T12:00	12762	187	-57.2	-68.1	269	19
2023-08-20T12:00	12783	186	-57.3	-68.3	271	19
2023-08-20T12:00	12804	185	-57.2		273	20
2023-08-20T12:00	12823	185	-57.1	-68.5	275	20
2023-08-20T12:00	12844	184	-57.1	-68.7	277	20
2023-08-20T12:00	12861	184	-57.1	-68.8	279	20
2023-08-20T12:00	12883	183	-57.1	-69.0	281	21
2023-08-20T12:00	12905	182	-57.1	-69.2	282	21
2023-08-20T12:00	12925	182	-57.0	-69.4	284	22
2023-08-20T12:00	12944	181	-56.8	-69.6	285	23
2023-08-20T12:00	12964	181	-56.6	-69.9	286	23
2023-08-20T12:00	12985	180	-56.6	-70.3	287	24
2023-08-20T12:00	13005	180	-56.6	-70.5	288	24
2023-08-20T12:00	13023	179	-56.7	-70.9	289	24
2023-08-20T12:00	13046	178	-56.7	-71.2	290	25
2023-08-20T12:00	13064	178	-56.7	-71.4	291	25
2023-08-20T12:00	13083	177	-56.7	-71.7	292	26
2023-08-20T12:00	13103	177	-56.7	-71.9	292	26
2023-08-20T12:00	13123	176	-56.7	-72.0	292	26
2023-08-20T12:00	13140	176	-56.5	-72.2	293	26
2023-08-20T12:00	13160	175	-56.4	-72.7	293	26
2023-08-20T12:00	13178	175	-56.1	-73.1	293	27
2023-08-20T12:00	13200	174	-56.1	-73.9	293	27
2023-08-20T12:00	13219	174	-56.0	-74.7	293	27
2023-08-20T12:00	13238	173	-55.7	-75.5	293	26
2023-08-20T12:00	13262	172	-55.5	-76.6	293	25
2023-08-20T12:00	13292	172	-55.2	-77.9	293	24
2023-08-20T12:00	13324	171	-54.6	-78.5	294	23
2023-08-20T12:00	13345	170	-54.6	-79.1	294	22
2023-08-20T12:00	13366	170	-54.7	-79.6	294	21
2023-08-20T12:00	13389	169	-54.7	-79.8	294	20
2023-08-20T12:00	13405	169	-54.4	-79.6	294	20
2023-08-20T12:00	13425	168	-54.4	-79.6	294	20
2023-08-20T12:00	13446	168	-54.5	-79.9	294	19
2023-08-20T12:00	13465	167	-54.6	-79.7	295	19
2023-08-20T12:00	13485	167	-54.8	-79.9	296	19
2023-08-20T12:00	13504	166	-54.7	-79.8	296	19
2023-08-20T12:00	13525	165	-54.7	-79.8	296	19
2023-08-20T12:00	13546	165	-54.8	-80.1	296	19
2023-08-20T12:00	13568	164	-54.6	-80.2	295	18
2023-08-20T12:00	13585	164	-54.2	-79.9	293	18
2023-08-20T12:00	13607	163	-54.2	-80.2	292	18
2023-08-20T12:00	13624	163	-54.3	-80.2	291	18
2023-08-20T12:00	13645	162	-54.4	-80.3	290	18
2023-08-20T12:00	13664	162	-54.5	-80.1	289	18
2023-08-20T12:00	13684	161	-54.6	-80.2	288	17
2023-08-20T12:00	13703	161	-54.7	-80.0	287	17
2023-08-20T12:00	13722	160	-54.7	-79.8	287	17
2023-08-20T12:00	13743	160	-54.7	-79.8	286	17
2023-08-20T12:00	13764	159	-54.8	-79.9	286	17
2023-08-20T12:00	13784	159	-54.8	-79.9	285	17
2023-08-20T12:00	13805	158	-54.9	-80.0	284	17
2023-08-20T12:00	13824	158	-54.8	-80.1	284	17
2023-08-20T12:00	13846	157	-54.8	-80.4	283	16
2023-08-20T12:00	13866	157	-54.8	-80.4	282	16
2023-08-20T12:00	13888	156	-54.6	-80.5	281	16
2023-08-20T12:00	13907	156	-54.5	-80.7	280	16
2023-08-20T12:00	13929	155	-54.7	-80.8	280	16
2023-08-20T12:00	13951	155	-54.8	-80.9	280	17
2023-08-20T12:00	13971	154	-54.8	-80.6	280	17
2023-08-20T12:00	13992	154	-54.8	-80.6	280	17
2023-08-20T12:00	14014	153	-54.9	-80.7	281	17
2023-08-20T12:00	14035	153	-55.0	-80.8	281	17
2023-08-20T12:00	14057	152	-55.1	-80.6	281	17
2023-08-20T12:00	14076	152	-55.2	-80.4	282	17
2023-08-20T12:00	14098	151	-55.4	-80.6	282	17
2023-08-20T12:00	14120	151	-55.6	-80.3	283	17
2023-08-20T12:00	14145	150	-55.8	-80.2	284	17
2023-08-20T12:00	14165	150	-55.7	-79.7	285	16
2023-08-20T12:00	14186	149	-55.7	-79.5	286	16
2023-08-20T12:00	14206	149	-55.7	-79.5	287	15
2023-08-20T12:00	14228	148	-55.7	-79.7	288	14
2023-08-20T12:00	14250	148	-55.6	-79.8	288	13
2023-08-20T12:00	14270	147	-55.5	-79.8	287	12
2023-08-20T12:00	14294	147	-55.7	-79.9	286	12
2023-08-20T12:00	14316	146	-55.7	-79.7	284	11
2023-08-20T12:00	14338	146	-55.8	-79.8	282	10
2023-08-20T12:00	14356	145	-55.9	-79.9	280	10
2023-08-20T12:00	14379	145	-56.0	-80.0	278	10
2023-08-20T12:00	14397	144	-55.8	-79.8	276	10
2023-08-20T12:00	14418	144	-55.7	-79.9	276	10
2023-08-20T12:00	14438	143	-55.8	-80.0	275	10
2023-08-20T12:00	14457	143	-55.7	-79.9	275	10
2023-08-20T12:00	14477	143	-55.8	-79.8	275	11
2023-08-20T12:00	14496	142	-55.8	-80.0	274	11
2023-08-20T12:00	14517	142	-55.8	-79.8	272	11
2023-08-20T12:00	14539	141	-55.8	-79.8	270	10
2023-08-20T12:00	14563	141	-56.0	-80.0	267	10
2023-08-20T12:00	14583	140	-56.0	-80.0	264	10
2023-08-20T12:00	14602	140	-56.2	-79.9	262	11
2023-08-20T12:00	14623	139	-56.4	-80.1	261	11
2023-08-20T12:00	14642	139	-56.7	-80.1	260	11
2023-08-20T12:00	14662	138	-56.7	-80.1	260	12
2023-08-20T12:00	14686	138	-56.7	-80.1	260	12
2023-08-20T12:00	14703	138	-56.9	-80.1	259	12
2023-08-20T12:00	14724	137	-57.1	-80.3	259	12
2023-08-20T12:00	14746	137	-57.2	-80.3	260	12
2023-08-20T12:00	14767	136	-57.4	-80.5	260	12
2023-08-20T12:00	14789	136	-57.6	-80.7	261	12
2023-08-20T12:00	14810	135	-57.8	-80.8	262	12
2023-08-20T12:00	14832	135	-57.9	-80.9	262	12
2023-08-20T12:00	14854	134	-58.0	-80.8	262	12
2023-08-20T12:00	14875	134	-58.2	-81.0	263	13
2023-08-20T12:00	14893	133	-58.3	-80.9	263	13
2023-08-20T12:00	14914	133	-58.5	-81.0	263	13
2023-08-20T12:00	14933	133	-58.7	-81.0	263	14
2023-08-20T12:00	14956	132	-58.9	-81.2	262	14
2023-08-20T12:00	14975	132	-59.0	-81.1	261	15
2023-08-20T12:00	14997	131	-59.1	-81.2	260	15
2023-08-20T12:00	15017	131	-59.2	-81.3	257	15
2023-08-20T12:00	15039	130	-59.4	-81.3	255	16
2023-08-20T12:00	15063	130	-59.5	-81.3	253	16
2023-08-20T12:00	15080	130	-59.5	-81.5	251	17
2023-08-20T12:00	15102	129	-58.9	-81.0	251	18
2023-08-20T12:00	15124	129	-58.5	-80.9	251	19
2023-08-20T12:00	15145	128	-58.5	-81.0	252	19
2023-08-20T12:00	15166	128	-58.6	-81.3	253	20
2023-08-20T12:00	15187	127	-58.7	-81.5	254	21
2023-08-20T12:00	15207	127	-58.6	-81.6	256	21
2023-08-20T12:00	15228	127	-58.4	-81.7	258	21
2023-08-20T12:00	15249	126	-58.0	-81.8	260	20
2023-08-20T12:00	15271	126	-57.7		263	20
2023-08-20T12:00	15289	125	-57.4	-82.2	266	20
2023-08-20T12:00	15310	125	-57.2	-82.5	269	19
2023-08-20T12:00	15331	125	-57.0	-82.6	271	19
2023-08-20T12:00	15352	124	-56.8	-82.7	273	19
2023-08-20T12:00	15370	124	-56.7	-82.9	275	19
2023-08-20T12:00	15393	123	-56.7	-82.9	275	18
2023-08-20T12:00	15416	123	-56.7	-82.9	275	18
2023-08-20T12:00	15434	122	-56.7	-83.2	275	18
2023-08-20T12:00	15459	122	-56.6	-83.2	274	17
2023-08-20T12:00	15479	122	-56.6	-83.2	273	17
2023-08-20T12:00	15499	121	-56.8	-83.0	272	18
2023-08-20T12:00	15524	121	-56.9	-83.1	272	18
2023-08-20T12:00	15542	120	-57.1	-83.2	271	18
2023-08-20T12:00	15565	120	-57.3	-83.1	272	18
2023-08-20T12:00	15585	120	-57.5	-83.3	273	18
2023-08-20T12:00	15604	119	-57.6	-83.3	274	17
2023-08-20T12:00	15625	119	-57.5	-83.6	276	17
2023-08-20T12:00	15644	118	-57.4	-83.5	278	16
2023-08-20T12:00	15666	118	-56.9	-83.1	279	15
2023-08-20T12:00	15688	118	-56.5	-83.1	281	14
2023-08-20T12:00	15706	117	-56.4	-83.0	283	14
2023-08-20T12:00	15727	117	-56.5	-83.1	284	13
2023-08-20T12:00	15745	117	-56.4	-83.0	286	13
2023-08-20T12:00	15766	116	-56.4	-83.0	288	13
2023-08-20T12:00	15788	116	-56.4	-83.0	289	12
2023-08-20T12:00	15811	115	-56.5	-83.1	291	12
2023-08-20T12:00	15831	115	-56.6	-83.2	292	11
2023-08-20T12:00	15851	115	-56.6	-83.2	294	11
2023-08-20T12:00	15876	114	-56.6	-83.2	294	10
2023-08-20T12:00	15899	114	-56.6	-83.2	295	9
2023-08-20T12:00	15923	113	-56.5	-83.1	296	9
2023-08-20T12:00	15944	113	-56.6	-83.2	296	8
2023-08-20T12:00	15969	113	-56.6	-83.2	295	8
2023-08-20T12:00	15988	112	-56.8	-83.3	294	8
2023-08-20T12:00	16010	112	-57.0	-83.5	293	8
2023-08-20T12:00	16032	111	-57.1	-83.5	290	8
2023-08-20T12:00	16053	111	-57.1	-83.5	288	9
2023-08-20T12:00	16075	111	-57.2	-83.6	286	9
2023-08-20T12:00	16099	110	-57.3	-83.7	283	10
2023-08-20T12:00	16117	110	-57.5	-83.9	282	11
2023-08-20T12:00	16140	110	-57.6	-83.9	280	11
2023-08-20T12:00	16162	109	-57.7	-84.0	279	12
2023-08-20T12:00	16185	109	-57.7	-84.0	278	12
2023-08-20T12:00	16205	108	-57.6	-83.9	277	12
2023-08-20T12:00	16227	108	-57.7	-84.0	276	12
2023-08-20T12:00	16247	108	-57.7	-84.3	275	12
2023-08-20T12:00	16270	107	-57.6	-84.3	275	11
2023-08-20T12:00	16291	107	-57.5	-84.5	275	11
2023-08-20T12:00	16312	107	-57.2	-84.3	276	11
2023-08-20T12:00	16336	106	-57.2	-84.3	278	11
2023-08-20T12:00	16353	106	-57.3	-84.4	279	10
2023-08-20T12:00	16375	106	-57.4	-84.4	280	10
2023-08-20T12:00	16399	105	-57.6	-84.6	280	9
2023-08-20T12:00	16421	105	-57.5	-84.5	280	9
2023-08-20T12:00	16445	104	-57.6	-84.6	279	8
2023-08-20T12:00	16464	104	-57.6	-84.6	279	7
2023-08-20T12:00	16487	104	-57.7	-84.7	279	7
2023-08-20T12:00	16508	103	-57.8	-84.7	280	6
2023-08-20T12:00	16530	103	-57.9	-84.5	280	6
2023-08-20T12:00	16551	103	-58.0	-84.6	278	6
2023-08-20T12:00	16572	102	-58.1	-84.6	275	5
2023-08-20T12:00	16594	102	-58.1	-85.0	268	5
2023-08-20T12:00	16615	102	-57.9	-84.8	260	5
2023-08-20T12:00	16638	101	-57.8	-84.7	252	6
2023-08-20T12:00	16660	101	-57.6	-84.6	244	6
2023-08-20T12:00	16682	101	-57.5	-84.5	239	7
2023-08-20T12:00	16701	100	-57.5	-84.5	235	7
2023-08-20T12:00	16722	100	-57.7	-84.7	232	8
2023-08-20T12:00	16745	100	-57.8	-84.4	231	8
2023-08-20T12:00	16767	99	-57.8	-84.4	232	9
2023-08-20T12:00	16786	99	-57.8	-84.4	234	10
2023-08-20T12:00	16810	99	-57.8	-84.4	237	10
2023-08-20T12:00	16831	98	-57.8	-84.4	240	11
2023-08-20T12:00	16851	98	-57.7	-84.3	243	11
2023-08-20T12:00	16873	98	-57.7	-84.3	247	11
2023-08-20T12:00	16894	97	-57.8	-84.4	250	12
2023-08-20T12:00	16914	97	-57.8	-84.4	253	11
2023-08-20T12:00	16936	97	-57.8	-84.4	257	11
2023-08-20T12:00	16956	96	-57.7	-84.3	260	11
2023-08-20T12:00	16978	96	-57.7	-84.7	263	11
2023-08-20T12:00	17000	96	-57.7	-84.7	267	10
2023-08-20T12:00	17023	95	-57.6	-84.6	271	9
2023-08-20T12:00	17044	95	-57.6	-84.6	276	9
2023-08-20T12:00	17067	95	-57.5	-84.5	282	8
2023-08-20T12:00	17088	94	-57.5	-84.5	288	7
2023-08-20T12:00	17109	94	-57.4	-84.8	295	6
2023-08-20T12:00	17130	94	-57.4	-84.8	300	6
2023-08-20T12:00	17154	93	-57.2	-84.6	304	5
2023-08-20T12:00	17174	93	-57.0	-84.5	305	5
2023-08-20T12:00	17197	93	-56.8	-84.7	302	5
2023-08-20T12:00	17217	92	-56.9	-84.8	298	5
2023-08-20T12:00	17239	92	-57.0	-84.5	293	5
2023-08-20T12:00	17260	92	-57.0	-84.5	289	5
2023-08-20T12:00	17282	91	-57.0	-84.5	288	5
2023-08-20T12:00	17303	91	-57.0	-84.5	288	4
2023-08-20T12:00	17326	91	-57.0	-84.5	289	4
2023-08-20T12:00	17349	90	-57.1	-84.6	291	4
2023-08-20T12:00	17370	90	-57.1	-84.6	292	4
2023-08-20T12:00	17395	90	-57.1	-84.6	292	3
2023-08-20T12:00	17415	90	-57.1	-84.6	292	3
2023-08-20T12:00	17438	89	-57.3	-84.7	291	2
2023-08-20T12:00	17459	89	-57.4	-84.8	290	2
2023-08-20T12:00	17484	89	-57.5	-84.9	288	2
2023-08-20T12:00	17509	88	-57.6	-84.9	286	2
2023-08-20T12:00	17528	88	-57.7	-85.0	282	2
2023-08-20T12:00	17552	88	-57.8	-85.1	279	2
2023-08-20T12:00	17575	87	-57.9	-85.2	276	2
2023-08-20T12:00	17593	87	-58.0	-84.9	273	3
2023-08-20T12:00	17618	87	-58.0	-84.9	271	3
2023-08-20T12:00	17641	86	-58.1	-85.0	268	3
2023-08-20T12:00	17664	86	-58.2	-85.0	265	3
2023-08-20T12:00	17685	86	-58.4	-85.2	262	3
2023-08-20T12:00	17708	85	-58.5	-85.3	260	3
2023-08-20T12:00	17731	85	-58.7	-85.4	260	3
2023-08-20T12:00	17753	85	-58.8	-85.5	259	3
2023-08-20T12:00	17775	85	-58.8	-85.5	257	2
2023-08-20T12:00	17796	84	-58.6	-85.4	252	2
2023-08-20T12:00	17817	84	-58.6	-85.7	242	2
2023-08-20T12:00	17840	84	-58.5	-85.6	224	2
2023-08-20T12:00	17860	83	-58.5	-85.6	202	2
2023-08-20T12:00	17888	83	-58.5	-85.6	189	2
2023-08-20T12:00	17909	83	-58.3	-85.5	184	3
2023-08-20T12:00	17931	82	-58.3	-85.5	183	4
2023-08-20T12:00	17958	82	-58.2	-85.4	184	5
2023-08-20T12:00	17980	82	-58.2	-85.4	186	6
2023-08-20T12:00	17999	82	-58.2	-85.4	187	7
2023-08-20T12:00	18022	81	-58.3	-85.5	189	7
2023-08-20T12:00	18045	81	-58.3	-85.5	191	8
2023-08-20T12:00	18068	81	-58.2	-85.4	193	8
2023-08-20T12:00	18091	80	-58.2	-85.4	196	8
2023-08-20T12:00	18114	80	-58.3	-85.5	200	8
2023-08-20T12:00	18136	80	-58.5	-85.6	204	8
2023-08-20T12:00	18161	80	-58.5	-85.6	209	7
2023-08-20T12:00	18183	79	-58.6	-85.7	214	7
2023-08-20T12:00	18205	79	-58.6	-85.7	219	7
2023-08-20T12:00	18226	79	-58.7	-85.8	223	8
2023-08-20T12:00	18253	78	-58.7	-85.8	227	8
2023-08-20T12:00	18271	78	-58.7	-85.8	231	7
2023-08-20T12:00	18294	78	-58.8	-85.5	235	7
2023-08-20T12:00	18320	78	-59.0	-85.7	240	7
2023-08-20T12:00	18338	77	-59.2	-85.8	244	6
2023-08-20T12:00	18363	77	-59.0	-85.7	249	6
2023-08-20T12:00	18385	77	-58.9	-85.6	252	6
2023-08-20T12:00	18410	76	-59.0	-86.0	256	5
2023-08-20T12:00	18434	76	-59.0	-86.0	260	5
2023-08-20T12:00	18457	76	-59.0	-86.0	263	4
2023-08-20T12:00	18478	76	-59.0	-86.0	267	4
2023-08-20T12:00	18502	75	-58.9	-85.9	270	4
2023-08-20T12:00	18523	75	-58.9	-85.9	271	4
2023-08-20T12:00	18547	75	-58.8	-85.9	269	4
2023-08-20T12:00	18571	75	-58.7	-86.1	263	4
2023-08-20T12:00	18593	74	-58.7	-86.1	255	4
2023-08-20T12:00	18616	74	-58.6	-86.1	247	4
2023-08-20T12:00	18638	74	-58.6	-86.1	238	4
2023-08-20T12:00	18660	73	-58.6	-86.1	232	5
2023-08-20T12:00	18684	73	-58.6	-86.1	228	5
2023-08-20T12:00	18705	73	-58.6	-86.1	225	6
2023-08-20T12:00	18726	73	-58.6	-86.1	222	6
2023-08-20T12:00	18750	72	-58.5	-86.0	220	7
2023-08-20T12:00	18773	72	-58.4	-85.9	220	7
2023-08-20T12:00	18797	72	-58.3	-85.8	220	7
2023-08-20T12:00	18817	72	-58.2	-86.2	223	7
2023-08-20T12:00	18840	71	-58.0	-86.0	227	7
2023-08-20T12:00	18867	71	-58.1		232	8
2023-08-20T12:00	18889	71	-58.1		237	8
2023-08-20T12:00	18911	71	-58.0	-86.0	242	8
2023-08-20T12:00	18933	70	-57.8	-86.3	247	8
2023-08-20T12:00	18952	70	-57.6	-86.1	252	8
2023-08-20T12:00	18972	70	-57.4	-86.0	258	7
2023-08-20T12:00	19000	70	-57.1	-85.7	264	7
2023-08-20T12:00	19024	69	-56.8	-85.5	271	6
2023-08-20T12:00	19045	69	-56.7	-85.9	279	6
2023-08-20T12:00	19068	69	-56.7	-85.9	288	5
2023-08-20T12:00	19091	69	-56.7	-85.9	297	5
2023-08-20T12:00	19116	68	-56.6	-85.8	307	5
2023-08-20T12:00	19136	68	-56.5	-85.3	318	4
2023-08-20T12:00	19164	68	-56.5	-85.3	330	4
2023-08-20T12:00	19189	68	-56.6	-85.4	344	3
2023-08-20T12:00	19211	67	-56.6	-85.4	1	3
2023-08-20T12:00	19236	67	-56.6	-85.4	21	3
2023-08-20T12:00	19256	67	-56.5	-85.3	41	3
2023-08-20T12:00	19283	67	-56.6	-85.4	58	3
2023-08-20T12:00	19303	66	-56.5	-85.3	70	3
2023-08-20T12:00	19326	66	-56.3	-85.6	78	3
2023-08-20T12:00	19348	66	-56.3	-85.6	86	3
2023-08-20T12:00	19370	66	-56.3	-85.1	95	2
2023-08-20T12:00	19396	65	-56.5	-85.3	109	2
2023-08-20T12:00	19421	65	-56.6	-85.4	136	1
2023-08-20T12:00	19441	65	-56.6	-85.4	175	1
2023-08-20T12:00	19467	65	-56.7	-85.4	203	1
2023-08-20T12:00	19484	64	-56.9	-85.6	217	1
2023-08-20T12:00	19510	64	-57.0	-85.7	223	1
2023-08-20T12:00	19533	64	-57.0	-85.7	227	1
2023-08-20T12:00	19552	64	-57.0	-85.7	231	1
2023-08-20T12:00	19578	64	-57.0	-85.7	242	0
2023-08-20T12:00	19596	63	-57.1	-85.7	342	0
2023-08-20T12:00	19622	63	-57.1	-85.7	27	0
2023-08-20T12:00	19647	63	-57.1	-85.7	33	1
2023-08-20T12:00	19669	63	-57.1	-85.7	36	1
2023-08-20T12:00	19694	62	-57.2	-85.8	40	1
2023-08-20T12:00	19716	62	-57.2	-85.8	57	0
2023-08-20T12:00	19744	62	-57.2	-85.8	142	0
2023-08-20T12:00	19765	62	-57.1	-85.7	172	0
2023-08-20T12:00	19786	61	-57.0	-85.7	175	1
2023-08-20T12:00	19814	61	-56.8	-85.5	172	1
2023-08-20T12:00	19836	61	-56.8	-85.5	166	1
2023-08-20T12:00	19864	61	-56.8	-86.0	159	1
2023-08-20T12:00	19885	61	-56.6	-85.8	152	1
2023-08-20T12:00	19914	60	-56.5	-85.8	149	1
2023-08-20T12:00	19936	60	-56.6	-85.8	151	1
2023-08-20T12:00	19959	60	-56.4	-85.7	144	0
2023-08-20T12:00	19984	60	-56.4	-85.7	119	1
2023-08-20T12:00	20009	59	-56.5	-85.3	101	1
2023-08-20T12:00	20029	59	-56.6	-85.4	96	2
2023-08-20T12:00	20056	59	-56.6	-85.4	96	3
2023-08-20T12:00	20080	59	-56.5	-85.3	100	3
2023-08-20T12:00	20104	58	-56.5	-85.3	104	4
2023-08-20T12:00	20128	58	-56.5	-85.3	108	5
2023-08-20T12:00	20152	58	-56.6	-85.4	113	5
2023-08-20T12:00	20173	58	-56.8	-85.5	118	6
2023-08-20T12:00	20197	58	-56.8	-85.5	123	6
2023-08-20T12:00	20220	57	-56.8	-85.5	129	6
2023-08-20T12:00	20243	57	-56.9	-85.6	135	5
2023-08-20T12:00	20268	57	-56.9	-85.6	139	5
2023-08-20T12:00	20290	57	-56.9	-85.6	142	5
2023-08-20T12:00	20316	57	-56.8	-85.5	143	4
2023-08-20T12:00	20339	56	-56.7	-85.4	141	3
2023-08-20T12:00	20360	56	-56.6	-85.4	137	3
2023-08-20T12:00	20387	56	-56.6	-85.4	133	2
2023-08-20T12:00	20408	56	-56.7	-85.4	131	2
2023-08-20T12:00	20430	56	-56.7	-85.4	129	2
2023-08-20T12:00	20454	55	-56.7	-85.4	127	2
2023-08-20T12:00	20481	55	-56.7	-85.4	124	2
2023-08-20T12:00	20506	55	-56.7	-85.4	121	2
2023-08-20T12:00	20528	55	-56.8	-85.5	120	2
2023-08-20T12:00	20556	54	-56.8	-85.5	121	2
2023-08-20T12:00	20580	54	-56.8	-85.5	124	3
2023-08-20T12:00	20607	54	-56.8	-85.5	127	3
2023-08-20T12:00	20625	54	-56.9	-85.6	131	4
2023-08-20T12:00	20656	54	-57.0	-85.7	134	4
2023-08-20T12:00	20678	53	-57.1	-85.7	138	4
2023-08-20T12:00	20698	53	-57.1	-85.7	141	5
2023-08-20T12:00	20729	53	-56.9	-85.6	145	5
2023-08-20T12:00	20747	53	-56.8	-85.5	149	4
2023-08-20T12:00	20774	53	-56.6	-85.8	154	4
2023-08-20T12:00	20802	52	-56.5	-85.8	157	4
2023-08-20T12:00	20825	52	-56.4	-85.7	158	4
2023-08-20T12:00	20850	52	-56.4	-85.7	158	3
2023-08-20T12:00	20869	52	-56.2	-85.5	157	3
2023-08-20T12:00	20899	52	-55.9	-85.3	160	2
2023-08-20T12:00	20919	51	-55.7	-85.2	170	2
2023-08-20T12:00	20941	51	-55.7	-85.2	182	3
2023-08-20T12:00	20968	51	-55.7	-85.2	193	3
2023-08-20T12:00	20990	51	-55.6	-85.1	200	3
2023-08-20T12:00	21014	51	-55.5	-85.0	206	4
2023-08-20T12:00	21037	50	-55.4	-84.9	212	4
2023-08-20T12:00	21059	50	-55.4	-84.9	218	3
2023-08-20T12:00	21081	50	-55.4	-84.9	226	3
2023-08-20T12:00	21106	50	-55.3	-85.4	236	2
2023-08-20T12:00	21132	50	-55.2	-85.3	248	2
2023-08-20T12:00	21155	50	-55.2	-85.3	262	1
2023-08-20T12:00	21180	49	-55.1	-85.2	287	1
2023-08-20T12:00	21200	49	-55.0	-85.1	359	1
2023-08-20T12:00	21224	49	-54.8	-85.0	56	1
2023-08-20T12:00	21246	49	-54.7	-84.9	75	2
2023-08-20T12:00	21270	49	-54.6	-84.8	85	3
2023-08-20T12:00	21295	48	-54.5	-84.8	92	3
2023-08-20T12:00	21322	48	-54.6	-84.8	98	4
2023-08-20T12:00	21345	48	-54.8	-84.5	102	5
2023-08-20T12:00	21369	48	-54.9	-84.6	105	5
2023-08-20T12:00	21391	48	-55.1	-84.7	108	5
2023-08-20T12:00	21413	48	-55.1	-84.7	111	5
2023-08-20T12:00	21434	47	-55.2	-84.8	115	5
2023-08-20T12:00	21461	47	-55.1	-84.7	118	5
2023-08-20T12:00	21486	47	-55.1	-84.7	122	5
2023-08-20T12:00	21506	47	-55.2	-84.8	125	4
2023-08-20T12:00	21529	47	-55.2	-84.8	127	4
2023-08-20T12:00	21552	47	-55.3	-84.9	128	4
2023-08-20T12:00	21578	46	-55.4	-84.9	128	4
2023-08-20T12:00	21606	46	-55.5	-85.0	130	4
2023-08-20T12:00	21626	46	-55.5	-85.0	133	3
2023-08-20T12:00	21652	46	-55.5	-85.0	138	3
2023-08-20T12:00	21669	46	-55.5	-85.0	143	3
2023-08-20T12:00	21701	46	-55.4	-84.9	147	3
2023-08-20T12:00	21724	45	-55.4	-84.9	148	3
2023-08-20T12:00	21748	45	-55.3	-84.9	144	2
2023-08-20T12:00	21768	45	-55.3	-84.9	134	2
2023-08-20T12:00	21796	45	-55.3	-84.9	111	1
2023-08-20T12:00	21823	45	-55.2	-84.8	82	1
2023-08-20T12:00	21844	44	-55.2	-84.8	61	2
2023-08-20T12:00	21872	44	-55.1	-84.7	50	2
2023-08-20T12:00	21894	44	-55.1	-84.7	43	3
2023-08-20T12:00	21915	44	-55.2	-84.8	38	3
2023-08-20T12:00	21940	44	-55.1	-84.7	35	3
2023-08-20T12:00	21963	44	-55.1	-84.7	32	4
2023-08-20T12:00	21988	44	-55.2	-84.8	32	4
2023-08-20T12:00	22010	43	-55.4	-84.9	34	5
2023-08-20T12:00	22034	43	-55.5	-85.0	37	5
2023-08-20T12:00	22059	43	-55.4	-84.9	43	5
2023-08-20T12:00	22084	43	-55.3	-84.9	51	5
2023-08-20T12:00	22101	43	-55.3	-84.9	59	6
2023-08-20T12:00	22128	43	-55.3	-84.9	66	6
2023-08-20T12:00	22155	42	-55.4	-84.9	73	7
2023-08-20T12:00	22182	42	-55.5	-85.0	78	7
2023-08-20T12:00	22203	42	-55.5	-85.0	81	8
2023-08-20T12:00	22229	42	-55.3	-84.9	84	7
2023-08-20T12:00	22260	42	-55.2	-84.8	84	7
2023-08-20T12:00	22275	42	-55.2	-85.3	83	6
2023-08-20T12:00	22306	41	-55.2	-85.3	80	6
2023-08-20T12:00	22328	41	-55.2	-85.3	76	6
2023-08-20T12:00	22353	41	-55.1	-85.2	72	5
2023-08-20T12:00	22380	41	-55.0	-85.1	68	5
2023-08-20T12:00	22401	41	-55.0	-85.1	65	5
2023-08-20T12:00	22421	41	-54.8	-85.0	64	5
2023-08-20T12:00	22451	40	-54.8	-85.0	64	6
2023-08-20T12:00	22481	40	-54.8	-85.0	66	6
2023-08-20T12:00	22504	40	-54.7	-84.9	68	7
2023-08-20T12:00	22525	40	-54.7	-84.9	71	7
2023-08-20T12:00	22556	40	-54.8	-85.0	73	8
2023-08-20T12:00	22579	40	-54.8	-85.0	76	8
2023-08-20T12:00	22608	39	-54.8	-85.0	79	9
2023-08-20T12:00	22631	39	-54.7	-84.9	82	9
2023-08-20T12:00	22656	39	-54.8	-85.0	85	9
2023-08-20T12:00	22685	39	-54.8	-85.0	88	8
2023-08-20T12:00	22709	39	-54.7	-84.9	92	8
2023-08-20T12:00	22730	39	-54.6	-84.8	95	7
2023-08-20T12:00	22759	39	-54.5	-84.8	96	7
2023-08-20T12:00	22777	38	-54.7	-84.9	96	7
2023-08-20T12:00	22811	38	-54.6	-84.8	94	7
2023-08-20T12:00	22836	38	-54.5	-84.8	91	6
2023-08-20T12:00	22863	38	-54.6	-84.8	87	6
2023-08-20T12:00	22882	38	-54.7	-84.9	84	7
2023-08-20T12:00	22911	38	-54.7	-84.9	82	7
2023-08-20T12:00	22935	38	-54.7	-84.9	82	7
2023-08-20T12:00	22968	37	-54.6	-84.8	83	7
2023-08-20T12:00	22987	37	-54.7	-84.9	84	7
2023-08-20T12:00	23013	37	-54.8	-85.0	86	7
2023-08-20T12:00	23035	37	-55.0	-85.1	87	7
2023-08-20T12:00	23064	37	-55.1	-84.7	88	7
2023-08-20T12:00	23091	37	-55.3	-84.9	88	7
2023-08-20T12:00	23116	36	-55.4	-84.9	88	6
2023-08-20T12:00	23132	36	-55.4	-84.9	88	6
2023-08-20T12:00	23164	36	-55.5	-85.0	87	6
2023-08-20T12:00	23189	36	-55.5	-85.0	86	7
2023-08-20T12:00	23213	36	-55.5	-85.5	85	7
2023-08-20T12:00	23243	36	-55.2	-85.3	83	8
2023-08-20T12:00	23262	36	-55.1	-85.2	82	8
2023-08-20T12:00	23289	35	-55.0	-85.1	81	8
2023-08-20T12:00	23320	35	-54.9	-85.1	81	9
2023-08-20T12:00	23346	35	-54.9	-85.1	82	9
2023-08-20T12:00	23368	35	-55.0	-85.1	86	8
2023-08-20T12:00	23393	35	-55.0	-85.1	90	8
2023-08-20T12:00	23416	35	-55.0	-85.1	95	7
2023-08-20T12:00	23441	35	-55.0	-85.1	100	7
2023-08-20T12:00	23473	34	-55.0	-85.1	104	6
2023-08-20T12:00	23498	34	-54.7	-85.5	105	6
2023-08-20T12:00	23522	34	-54.3	-85.2	104	6
2023-08-20T12:00	23552	34	-54.1	-85.0	100	6
2023-08-20T12:00	23573	34	-54.0	-84.9	97	6
2023-08-20T12:00	23602	34	-54.0	-84.9	94	6
2023-08-20T12:00	23626	34	-54.0	-84.9	94	7
2023-08-20T12:00	23646	34	-54.0	-84.9	96	7
2023-08-20T12:00	23671	33	-53.9	-84.9	99	7
2023-08-20T12:00	23699	33	-53.9	-84.9	103	7
2023-08-20T12:00	23726	33	-53.9	-84.9	107	7
2023-08-20T12:00	23754	33	-54.0	-84.9	111	7
2023-08-20T12:00	23787	33	-54.1	-85.0	115	7
2023-08-20T12:00	23806	33	-54.1	-84.5	119	7
2023-08-20T12:00	23841	33	-54.1	-84.5	123	7
2023-08-20T12:00	23858	32	-54.2	-84.5	127	7
2023-08-20T12:00	23884	32	-54.2	-84.5	129	6
2023-08-20T12:00	23915	32	-54.2	-84.5	129	6
2023-08-20T12:00	23943	32	-54.3	-85.2	126	5
2023-08-20T12:00	23963	32	-54.2	-85.1	118	4
2023-08-20T12:00	23996	32	-54.0	-84.9	104	3
2023-08-20T12:00	24020	32	-53.9	-84.9	91	3
2023-08-20T12:00	24047	32	-53.7	-84.7	84	3
2023-08-20T12:00	24075	31	-53.5	-84.6	87	3
2023-08-20T12:00	24096	31	-53.3	-85.0	96	3
2023-08-20T12:00	24127	31	-53.1	-84.9	105	3
2023-08-20T12:00	24149	31	-53.0	-84.8	111	3
2023-08-20T12:00	24179	31	-53.1	-84.9	111	3
2023-08-20T12:00	24204	31	-53.0	-84.8	105	3
2023-08-20T12:00	24227	31	-53.0	-84.2	97	3
2023-08-20T12:00	24255	31	-53.0	-84.2	90	3
2023-08-20T12:00	24280	30	-53.0	-84.2	86	4
2023-08-20T12:00	24301	30	-53.0	-84.2	84	4
2023-08-20T12:00	24330	30	-53.0	-84.2	81	5
2023-08-20T12:00	24355	30	-53.1	-84.3	79	5
2023-08-20T12:00	24378	30	-53.1	-84.3	78	6
2023-08-20T12:00	24412	30	-53.1	-84.3	78	7
2023-08-20T12:00	24431	30	-53.2	-84.4	80	7
2023-08-20T12:00	24459	30	-53.3	-84.4	82	7
2023-08-20T12:00	24482	29	-53.2	-84.4	86	7
2023-08-20T12:00	24516	29	-53.1	-84.3	90	7
2023-08-20T12:00	24535	29	-52.9	-84.1	95	7
2023-08-20T12:00	24559	29	-53.0	-84.2	100	6
2023-08-20T12:00	24585	29	-53.1	-84.3	105	6
2023-08-20T12:00	24609	29	-53.1	-84.3	109	6
2023-08-20T12:00	24637	29	-53.2	-84.4	113	5
2023-08-20T12:00	24653	29	-53.2	-84.4	117	5
2023-08-20T12:00	24683	29	-53.1	-84.3	121	5
2023-08-20T12:00	24714	28	-53.0	-84.2	126	5
2023-08-20T12:00	24733	28	-53.0	-84.2	131	5
2023-08-20T12:00	24762	28	-53.0	-84.2	135	5
2023-08-20T12:00	24785	28	-52.9	-84.7	138	4
2023-08-20T12:00	24812	28	-52.8	-84.7	140	4
2023-08-20T12:00	24837	28	-52.8	-84.7	143	4
2023-08-20T12:00	24876	28	-52.9	-84.1	145	3
2023-08-20T12:00	24890	28	-52.9	-84.1	147	3
2023-08-20T12:00	24916	28	-52.9	-84.1	147	3
2023-08-20T12:00	24939	27	-52.9	-84.1	142	3
2023-08-20T12:00	24964	27	-52.9	-84.1	130	2
2023-08-20T12:00	24991	27	-52.8	-84.1	111	2
2023-08-20T12:00	25014	27	-52.8	-84.7	94	3
2023-08-20T12:00	25047	27	-52.9	-84.7	84	3
2023-08-20T12:00	25074	27	-52.8	-84.7	79	4
2023-08-20T12:00	25098	27	-52.6	-84.5	77	4
2023-08-20T12:00	25120	27	-52.5	-84.4	75	4
2023-08-20T12:00	25146	27	-52.6	-84.5	73	5
2023-08-20T12:00	25178	26	-52.7	-84.0	71	5
2023-08-20T12:00	25201	26	-52.9	-84.1	69	6
2023-08-20T12:00	25228	26	-53.1	-84.3	66	6
2023-08-20T12:00	25250	26	-53.3	-84.4	64	6
2023-08-20T12:00	25277	26	-53.3	-84.4	63	6
2023-08-20T12:00	25306	26	-53.3	-84.4	65	6
2023-08-20T12:00	25323	26	-53.4	-84.5	68	6
2023-08-20T12:00	25358	26	-53.6	-84.6	72	6
2023-08-20T12:00	25392	26	-53.7	-84.7	76	6
2023-08-20T12:00	25411	26	-53.6	-84.6	79	6
2023-08-20T12:00	25440	25	-53.6	-84.6	81	6
2023-08-20T12:00	25469	25	-53.4	-84.5	81	6
2023-08-20T12:00	25493	25	-53.3	-84.4	81	6
2023-08-20T12:00	25516	25	-53.3	-84.4	79	6
2023-08-20T12:00	25548	25	-53.3	-84.4	77	7
2023-08-20T12:00	25572	25	-53.3	-84.4	75	7
2023-08-20T12:00	25597	25	-53.3	-84.4	72	7
2023-08-20T12:00	25620	25	-53.4	-84.5	71	7
2023-08-20T12:00	25655	25	-53.4	-85.1	71	8
2023-08-20T12:00	25682	24	-53.3	-85.0	73	8
2023-08-20T12:00	25704	24	-52.9	-84.7	76	8
2023-08-20T12:00	25727	24	-52.4	-84.4	79	8
2023-08-20T12:00	25749	24	-52.1	-84.8	82	9
2023-08-20T12:00	25781	24	-52.0	-84.8	86	9
2023-08-20T12:00	25806	24	-51.9	-84.7	89	9
2023-08-20T12:00	25829	24	-51.7	-84.5	92	9
2023-08-20T12:00	25861	24	-51.2	-84.2	95	9
2023-08-20T12:00	25883	24	-50.9	-84.0	98	9
2023-08-20T12:00	25910	24	-50.7	-83.8	99	9
2023-08-20T12:00	25927	24	-50.5	-83.7	99	8
2023-08-20T12:00	25967	23	-50.4	-83.6	100	8
2023-08-20T12:00	25988	23	-50.4	-83.6	100	7
2023-08-20T12:00	26019	23	-50.5	-83.7	101	7
2023-08-20T12:00	26044	23	-50.5	-83.7	103	7
2023-08-20T12:00	26067	23	-50.3	-83.5	105	7
2023-08-20T12:00	26092	23	-50.1	-83.4	107	6
2023-08-20T12:00	26121	23	-50.2	-83.5	110	6
2023-08-20T12:00	26132	23	-50.2	-83.5	112	6
2023-08-20T12:00	26169	23	-50.1	-83.4	114	5
2023-08-20T12:00	26190	23	-50.1	-83.4	115	5
2023-08-20T12:00	26223	23	-50.2	-83.5	114	4
2023-08-20T12:00	26244	22	-50.3	-83.5	110	3
2023-08-20T12:00	26272	22	-50.2	-83.5	99	3
2023-08-20T12:00	26292	22	-50.1	-83.4	82	2
2023-08-20T12:00	26313	22	-50.0	-83.3	61	2
2023-08-20T12:00	26341	22	-50.0	-83.3	47	2
2023-08-20T12:00	26374	22	-49.9	-83.2	44	2
2023-08-20T12:00	26392	22	-49.7	-83.1	49	3
2023-08-20T12:00	26429	22	-49.5	-82.9	57	3
2023-08-20T12:00	26455	22	-49.5	-82.9	63	4
2023-08-20T12:00	26476	22	-49.5	-82.9	68	5
2023-08-20T12:00	26512	22	-49.5	-82.9	72	6
2023-08-20T12:00	26535	21	-49.5	-82.9	75	6
2023-08-20T12:00	26563	21	-49.5	-82.9	78	7
2023-08-20T12:00	26585	21	-49.4	-82.9	80	7
2023-08-20T12:00	26608	21	-49.2	-82.7	82	7
2023-08-20T12:00	26633	21	-49.1	-83.4	83	7
2023-08-20T12:00	26664	21	-49.0	-83.4	85	7
2023-08-20T12:00	26691	21	-48.9	-83.3	86	7
2023-08-20T12:00	26723	21	-48.7	-83.2	88	6
2023-08-20T12:00	26746	21	-48.5	-83.0	91	6
2023-08-20T12:00	26774	21	-48.2	-82.8	92	5
2023-08-20T12:00	26793	21	-47.9	-82.6	91	5
2023-08-20T12:00	26817	21	-47.7	-82.4	87	5
2023-08-20T12:00	26858	20	-47.6	-82.4	83	5
2023-08-20T12:00	26881	20	-47.5	-82.3	79	5
2023-08-20T12:00	26899	20	-47.3	-82.2	77	5
2023-08-20T12:00	26935	20	-47.2	-82.1	79	5
2023-08-20T12:00	26962	20	-47.0	-82.9	82	5
2023-08-20T12:00	26994	20	-46.9	-82.8	86	5
2023-08-20T12:00	27010	20	-46.7	-82.6	90	5
2023-08-20T12:00	27044	20	-46.5	-82.5	91	5
2023-08-20T12:00	27071	20	-46.3	-82.4	91	5
2023-08-20T12:00	27097	20	-46.2	-82.3	91	5
2023-08-20T12:00	27124	20	-46.1	-82.2	91	5
2023-08-20T12:00	27157	20	-46.1	-82.2	91	5
2023-08-20T12:00	27175	19	-46.0	-82.1	92	5
2023-08-20T12:00	27209	19	-45.9	-82.1	92	5
2023-08-20T12:00	27238	19	-45.9	-82.1	92	5
2023-08-20T12:00	27265	19	-45.8	-82.0	90	6
2023-08-20T12:00	27291	19	-45.6	-81.9	89	6
2023-08-20T12:00	27318	19	-45.6	-81.9	87	6
2023-08-20T12:00	27338	19	-45.6	-81.9	85	6
2023-08-20T12:00	27370	19	-45.6	-81.9	83	6
2023-08-20T12:00	27398	19	-45.5	-81.8	80	6
2023-08-20T12:00	27426	19	-45.4	-81.7	79	6
2023-08-20T12:00	27444	19	-45.3	-81.6	77	6
2023-08-20T12:00	27484	19	-45.1	-81.5	77	6
2023-08-20T12:00	27506	19	-45.0	-81.4	77	7
2023-08-20T12:00	27526	18	-44.9	-81.4	78	7
2023-08-20T12:00	27562	18	-44.8	-81.3	80	8
2023-08-20T12:00	27595	18	-44.7	-81.2	82	8
2023-08-20T12:00	27627	18	-44.6	-81.2	84	9
2023-08-20T12:00	27649	18	-44.5	-81.1	86	9
2023-08-20T12:00	27675	18	-44.3	-80.9	88	10
2023-08-20T12:00	27693	18	-44.1	-81.9	89	10
2023-08-20T12:00	27731	18	-43.8	-81.7	90	10
2023-08-20T12:00	27755	18	-43.7	-81.6	90	10
2023-08-20T12:00	27776	18	-43.7	-81.6	90	10
2023-08-20T12:00	27807	18	-43.7	-81.6	90	9
2023-08-20T12:00	27825	18	-43.8	-80.6	91	9
2023-08-20T12:00	27856	18	-43.8	-80.6	91	8
2023-08-20T12:00	27889	18	-43.8	-80.6	91	7
2023-08-20T12:00	27909	17	-43.9	-80.7	91	7
2023-08-20T12:00	27949	17	-43.9	-80.7	92	6
2023-08-20T12:00	27980	17	-43.9	-80.7	92	5
2023-08-20T12:00	28008	17	-43.9	-80.7	92	5
2023-08-20T12:00	28039	17	-43.9	-80.7	92	4
2023-08-20T12:00	28058	17	-43.9	-80.7	94	4
2023-08-20T12:00	28087	17	-43.8	-80.6	95	4
2023-08-20T12:00	28124	17	-43.8	-80.6	97	4
2023-08-20T12:00	28154	17	-43.9	-80.7	98	4
2023-08-20T12:00	28176	17	-44.0	-80.7	99	3
2023-08-20T12:00	28190	17	-44.1	-80.8	98	3
2023-08-20T12:00	28226	17	-44.2	-80.9	97	3
2023-08-20T12:00	28254	17	-44.3	-80.9	97	3
2023-08-20T12:00	28285	17	-44.3	-80.9	96	3
2023-08-20T12:00	28314	16	-44.4	-81.0	97	4
2023-08-20T12:00	28342	16	-44.4	-81.0	98	4
2023-08-20T12:00	28365	16	-44.4	-81.0	99	5
2023-08-20T12:00	28388	16	-44.3	-80.9	99	5
2023-08-20T12:00	28430	16	-44.2	-80.9	100	6
2023-08-20T12:00	28449	16	-44.2	-80.9	100	7
2023-08-20T12:00	28487	16	-44.2	-80.9	100	8
2023-08-20T12:00	28518	16	-44.3	-80.9	100	8
2023-08-20T12:00	28540	16	-44.3	-80.9	100	9
2023-08-20T12:00	28562	16	-44.3	-82.0	101	9
2023-08-20T12:00	28588	16	-44.3	-82.0	102	10
2023-08-20T12:00	28600	16	-44.2	-82.0	104	10
2023-08-20T12:00	28638	16	-44.2	-82.0	105	10
2023-08-20T12:00	28667	16	-44.2	-82.0	107	10
2023-08-20T12:00	28707	16	-44.1	-81.9	109	10
2023-08-20T12:00	28732	15	-44.0	-81.8	111	9
2023-08-20T12:00	28756	15	-44.0	-81.8	113	9
2023-08-20T12:00	28775	15	-44.0	-81.8	116	8
2023-08-20T12:00	28814	15	-44.1	-81.9	117	8
2023-08-20T12:00	28828	15	-44.1	-81.9	118	7
2023-08-20T12:00	28859	15	-44.1	-81.9	119	7
2023-08-20T12:00	28877	15	-44.0	-81.8	120	6
2023-08-20T12:00	28910	15	-43.9	-81.8	121	6
2023-08-20T12:00	28941	15	-43.9	-81.8	125	6
2023-08-20T12:00	28963	15	-43.8	-81.7	128	6
2023-08-20T12:00	28993	15	-43.8	-81.7	131	7
2023-08-20T12:00	29011	15	-43.7	-81.6	133	7
2023-08-20T12:00	29041	15	-43.6	-81.5	134	7
2023-08-20T12:00	29072	15	-43.7	-81.6	133	7
2023-08-20T12:00	29097	15	-43.6	-81.5	131	7
2023-08-20T12:00	29120	15	-43.5	-81.5	129	7
2023-08-20T12:00	29156	15	-43.4	-81.4	126	8
2023-08-20T12:00	29165	14	-43.2	-81.3	125	8
2023-08-20T12:00	29209	14	-43.1	-81.2	124	9
2023-08-20T12:00	29235	14	-42.9	-81.1	125	10
2023-08-20T12:00	29248	14	-42.7	-80.9	127	10
2023-08-20T12:00	29269	14	-42.5	-80.8	129	11
2023-08-20T12:00	29310	14	-42.4	-80.7	132	12
2023-08-20T12:00	29348	14	-42.4	-80.7	135	12
2023-08-20T12:00	29368	14	-42.3	-80.6	139	12
2023-08-20T12:00	29388	14	-42.3	-80.6	143	12
2023-08-20T12:00	29417	14	-42.3	-80.6	147	12
2023-08-20T12:00	29449	14	-42.3	-80.6	151	12
2023-08-20T12:00	29478	14	-42.4	-80.7	155	11
2023-08-20T12:00	29494	14	-42.5	-80.8	159	11
2023-08-20T12:00	29527	14	-42.5	-80.8	163	11
2023-08-20T12:00	29573	14	-42.6	-80.8	167	10
2023-08-20T12:00	29595	14	-42.5	-80.8	172	10
2023-08-20T12:00	29626	14	-42.5	-80.8	176	9
2023-08-20T12:00	29633	14	-42.5	-80.8	179	9
2023-08-20T12:00	29667	13	-42.4	-80.7	182	8
2023-08-20T12:00	29706	13	-42.2	-80.6	184	7
2023-08-20T12:00	29732	13	-42.1	-80.5	184	7
2023-08-20T12:00	29737	13	-41.9	-80.4	183	6
2023-08-20T12:00	29773	13	-41.8	-80.3	180	6
2023-08-20T12:00	29793	13	-41.7	-80.2	176	6
2023-08-20T12:00	29837	13	-41.6	-80.1	171	6
2023-08-20T12:00	29859	13	-41.6	-80.1	167	6
2023-08-20T12:00	29890	13	-41.6	-80.1	163	6
2023-08-20T12:00	29921	13	-41.6	-80.1	160	6
2023-08-20T12:00	29941	13	-41.6	-80.1	158	7
2023-08-20T12:00	29987	13	-41.6	-80.1	158	7
2023-08-20T12:00	29998	13	-41.7	-80.2	158	7
2023-08-20T12:00	30034	13	-41.7	-80.2	159	7
2023-08-20T12:00	30058	13	-41.7	-80.2	161	8
2023-08-20T12:00	30078	13	-41.8	-80.3	164	8
2023-08-20T12:00	30111	13	-41.9	-80.4	168	8
2023-08-20T12:00	30143	13	-42.0	-80.4	173	9
2023-08-20T12:00	30172	12	-42.1	-80.5	177	9
2023-08-20T12:00	30211	12	-42.1	-80.5	182	9
2023-08-20T12:00	30222	12	-42.2	-80.6	186	9
2023-08-20T12:00	30250	12	-42.3	-80.6	190	9
2023-08-20T12:00	30289	12	-42.4	-80.7	194	9
2023-08-20T12:00	30309	12	-42.4	-80.7	198	8
2023-08-20T12:00	30348	12	-42.1	-80.5	202	7
2023-08-20T12:00	30368	12	-41.7	-80.2	206	7
2023-08-20T12:00	30391	12	-41.3	-79.9	211	6
2023-08-20T12:00	30412	12	-41.1	-79.8	216	6
2023-08-20T12:00	30437	12	-41.1	-79.8	221	6
2023-08-20T12:00	30470	12	-41.2	-79.9	226	5
2023-08-20T12:00	30509	12	-41.5	-80.1	228	5
2023-08-20T12:00	30520	12	-41.6	-80.1	225	4
2023-08-20T12:00	30556	12	-41.5	-80.1	216	3
2023-08-20T12:00	30582	12	-41.2	-79.9	196	2
2023-08-20T12:00	30604	12	-40.8	-79.6	174	2
2023-08-20T12:00	30637	12	-40.5	-79.4	163	3
2023-08-20T12:00	30658	12	-40.2	-79.2	162	3
2023-08-20T12:00	30682	12	-40.0	-79.0	166	3
2023-08-20T12:00	30723	12	-40.0	-79.0	174	3
2023-08-20T12:00	30739	11	-39.9	-79.0	184	3
2023-08-20T12:00	30781	11	-39.7	-78.8	194	3
2023-08-20T12:00	30789	11	-39.5	-78.7	203	3
2023-08-20T12:00	30812	11	-39.3	-78.5	210	3
2023-08-20T12:00	30840	11	-39.1	-78.4	213	3
2023-08-20T12:00	30871	11	-39.0	-78.3	211	3
2023-08-20T12:00	30889	11	-38.9	-78.3	204	3
2023-08-20T12:00	30918	11	-39.0	-78.3	194	3
2023-08-20T12:00	30953	11	-39.0	-78.3	184	4
2023-08-20T12:00	30979	11	-38.9	-78.3	176	4
2023-08-20T12:00	31004	11	-38.8	-78.2	171	5
2023-08-20T12:00	31024	11	-38.7	-78.1	168	5
2023-08-20T12:00	31046	11	-38.6	-78.1	169	6
2023-08-20T12:00	31064	11	-38.4	-77.9	171	6
2023-08-20T12:00	31095	11	-38.2	-77.8	176	7
2023-08-20T12:00	31145	11	-38.2	-77.8	181	7
2023-08-20T12:00	31163	11	-38.3	-77.9	187	7
2023-08-20T12:00	31191	11	-38.3	-77.9	193	7
2023-08-20T12:00	31220	11	-38.2	-77.8	198	7
2023-08-20T12:00	31233	11	-38.0	-77.6	202	6
2023-08-20T12:00	31267	11	-37.9	-77.6	207	6
2023-08-20T12:00	31287	11	-37.8	-77.5	213	5
2023-08-20T12:00	31329	11	-37.8	-77.5	220	5
2023-08-20T12:00	31372	10	-37.9	-77.6	238	5
2023-08-20T12:00	31394	10	-37.8	-77.5	245	5
2023-08-20T12:00	31414	10	-37.7	-77.4	251	5
2023-08-20T12:00	31446	10	-37.6	-77.4	256	5
2023-08-20T12:00	31481	10	-37.5	-77.3	260	4
2023-08-20T12:00	31500	10	-37.4	-77.2	263	4
2023-08-20T12:00	31540	10	-37.2	-77.1	266	3
2023-08-20T12:00	31565	10	-37.1	-77.0	269	2
2023-08-20T12:00	31587	10	-37.1	-77.0	274	1
2023-08-20T12:00	31614	10	-37.1	-77.0	288	1
2023-08-20T12:00	31651	10	-36.9	-76.9	311	1
2023-08-20T12:00	31673	10	-36.8	-76.8	333	2
2023-08-20T12:00	31712	10	-36.6	-76.7	348	2
2023-08-20T12:00	31726	10	-36.5	-76.6	358	3
2023-08-20T12:00	31744	10	-36.4	-76.5	5	3
2023-08-20T12:00	31790	10	-36.3	-76.5	9	4
2023-08-20T12:00	31819	10	-36.3	-76.5	12	4
2023-08-20T12:00	31854	10	-36.2	-76.4	14	4
2023-08-20T12:00	31874	10	-36.2	-76.4	15	3
2023-08-20T12:00	31887	10	-36.2	-76.4	16	3
2023-08-20T12:00	31933	10	-36.2	-76.4	17	2
2023-08-20T12:00	31970	10	-36.2	-76.4	19	2
2023-08-20T12:00	32001	10	-36.3	-76.5	23	1
2023-08-20T12:00	32007	10	-36.3	-76.5	35	1
2023-08-20T12:00	32040	10	-36.4	-76.5	61	1
2023-08-20T12:00	32104	9	-36.5	-76.6	92	1
2023-08-20T12:00	32138	9	-36.7	-76.7	132	1
2023-08-20T12:00	32152	9	-36.9	-76.9	148	2
2023-08-20T12:00	32190	9	-36.9	-76.9	165	2
2023-08-20T12:00	32226	9	-37.0	-77.0	185	2
2023-08-20T12:00	32240	9	-37.1	-77.0	205	2
2023-08-20T12:00	32264	9	-37.0	-77.0	223	3
2023-08-20T12:00	32294	9	-36.8	-76.8	237	3
2023-08-20T12:00	32317	9	-36.6	-76.7	249	4
2023-08-20T12:00	32373	9	-36.4	-76.5	261	4
2023-08-20T12:00	32423	9	-36.2	-76.4	293	4
2023-08-20T12:00	32425	9	-36.1	-76.3	310	4
2023-08-20T12:00	32473	9	-35.8	-76.1	324	4
2023-08-20T12:00	32491	9	-35.5	-75.9	333	5
2023-08-20T12:00	32511	9	-35.3	-75.8	338	5
2023-08-20T12:00	32542	9	-35.0	-75.6	341	5
2023-08-20T12:00	32572	9	-34.9	-75.5	342	6
2023-08-20T12:00	32587	9	-34.7	-75.4	343	6
2023-08-20T12:00	32617	9	-34.7	-75.4	344	6
2023-08-20T12:00	32643	9	-34.6	-75.3	345	6
2023-08-20T12:00	32652	9	-34.5	-75.2	347	5
2023-08-20T12:00	32666	9	-34.4	-75.2	352	5
2023-08-20T12:00	32715	9	-34.3	-75.1	358	4
2023-08-20T12:00	32745	9	-34.2	-75.0	8	3
2023-08-20T12:00	32757	9	-34.2	-75.0	18	3
2023-08-20T12:00	32781	9	-34.1	-75.0	27	3
2023-08-20T12:00	32832	9	-33.9	-74.8	33	3
2023-08-20T12:00	32862	8	-33.8	-74.7	36	4
2023-08-20T12:00	32879	8	-33.7	-74.7	37	4
2023-08-20T12:00	32934	8	-33.8	-74.7	36	4
2023-08-20T12:00	32938	8	-33.8	-74.7	35	4
2023-08-20T12:00	32958	8	-33.9	-74.8	35	4
2023-08-20T12:00	32992	8	-33.9	-74.8	34	3
2023-08-20T12:00	33018	8	-34.0	-74.9	33	3
2023-08-20T12:00	33049	8	-33.9	-74.8	24	2
2023-08-20T12:00	33090	8	-33.8	-74.7	4	1
2023-08-20T12:00	33117	8	-33.6	-74.6	323	1
2023-08-20T12:00	33122	8	-33.6	-74.6	298	1
2023-08-20T12:00	33177	8	-33.5	-74.5	294	1
2023-08-20T12:00	33184	8	-33.4	-74.5	297	2
2023-08-20T12:00	33207	8	-33.3	-74.4	304	2
2023-08-20T12:00	33220	8	-33.2	-74.3	313	2
2023-08-20T12:00	33281	8	-33.0	-74.2	322	2
2023-08-20T12:00	33299	8	-32.7	-74.0	336	2
2023-08-20T12:00	33366	8	-32.6	-73.9	341	3
2023-08-20T12:00	33378	8	-32.5	-73.8	352	3
2023-08-20T12:00	33422	8	-32.5	-73.8	0	3
2023-08-20T12:00	33432	8	-32.6	-73.9	9	4
2023-08-20T12:00	33474	8	-32.6	-73.9	16	4
2023-08-20T12:00	33518	8	-32.6	-73.9	29	4
2023-08-20T12:00	33540	8	-32.6	-73.9	34	4
2023-08-20T12:00	33575	8	-32.6	-73.9	41	4
2023-08-20T12:00	33609	8	-32.5	-73.8	48	3
2023-08-20T12:00	33645	8	-32.5	-73.8	57	3
2023-08-20T12:00	33658	8	-32.5	-73.8	67	2
2023-08-20T12:00	33674	8	-32.6	-73.9	79	2
2023-08-20T12:00	33716	8	-32.7	-74.0	97	2
2023-08-20T12:00	33744	7	-32.8	-74.1	115	2
2023-08-20T12:00	33773	7	-32.8	-74.1	127	2
2023-08-20T12:00	33804	7	-32.6	-73.9	132	3
2023-08-20T18:00	112	1008	27.1	17.3	300	2
2023-08-20T18:00	138	1005	27.2	16.0	340	3
2023-08-20T18:00	164	1002	27.1	15.8	339	4
2023-08-20T18:00	192	999	26.8	15.9	339	4
2023-08-20T18:00	219	995	26.6	15.9	337	5
2023-08-20T18:00	245	992	26.3	15.7	335	5
2023-08-20T18:00	274	990	26.1	15.7	332	4
2023-08-20T18:00	299	987	25.9	15.8	328	4
2023-08-20T18:00	319	984	25.7	15.8	324	4
2023-08-20T18:00	336	982	25.5	15.6	323	4
2023-08-20T18:00	358	980	25.3	15.6	324	4
2023-08-20T18:00	379	978	25.1	15.5	327	4
2023-08-20T18:00	399	975	24.9	15.3	329	4
2023-08-20T18:00	423	973	24.7	15.6	330	5
2023-08-20T18:00	449	970	24.4	15.6	329	5
2023-08-20T18:00	473	967	24.2	15.3	327	5
2023-08-20T18:00	497	965	23.9	15.3	324	4
2023-08-20T18:00	517	962	23.7	15.2	322	4
2023-08-20T18:00	540	960	23.5	15.1	320	4
2023-08-20T18:00	563	957	23.3	15.0	319	4
2023-08-20T18:00	587	955	23.1	15.1	319	4
2023-08-20T18:00	608	952	22.8	15.0	319	4
2023-08-20T18:00	633	950	22.6	15.0	320	4
2023-08-20T18:00	656	947	22.4	14.9	319	4
2023-08-20T18:00	677	945	22.2	14.9	318	4
2023-08-20T18:00	701	942	22.0	14.8	317	4
2023-08-20T18:00	725	940	21.8	14.8	315	4
2023-08-20T18:00	748	937	21.5	14.7	314	4
2023-08-20T18:00	775	934	21.3	14.6	313	4
2023-08-20T18:00	800	932	21.1	14.7	313	4
2023-08-20T18:00	823	929	20.8	14.5	313	4
2023-08-20T18:00	847	926	20.6	14.5	313	3
2023-08-20T18:00	873	924	20.4	14.5	312	3
2023-08-20T18:00	899	921	20.2	14.5	311	3
2023-08-20T18:00	925	918	19.9	14.4	310	3
2023-08-20T18:00	948	916	19.7	14.3	308	3
2023-08-20T18:00	971	913	19.5	14.4	307	3
2023-08-20T18:00	995	911	19.3	14.4	307	3
2023-08-20T18:00	1022	908	19.0	14.1	308	3
2023-08-20T18:00	1043	906	18.8	14.2	311	3
2023-08-20T18:00	1074	903	18.6	14.2	313	3
2023-08-20T18:00	1100	900	18.3	14.2	311	3
2023-08-20T18:00	1124	897	18.1	14.2	306	4
2023-08-20T18:00	1148	895	18.1	14.2	301	4
2023-08-20T18:00	1169	892	18.1	14.2	296	5
2023-08-20T18:00	1194	890	18.1	14.4	293	6
2023-08-20T18:00	1213	888	18.0	14.7	291	6
2023-08-20T18:00	1236	886	18.1	14.9	289	6
2023-08-20T18:00	1262	883	18.3	14.2	287	6
2023-08-20T18:00	1283	881	18.2		285	6
2023-08-20T18:00	1311	878	18.2	13.4	283	6
2023-08-20T18:00	1334	875	18.0	14.0	281	6
2023-08-20T18:00	1361	873	17.8	14.4	279	6
2023-08-20T18:00	1385	870	17.6	14.1	278	5
2023-08-20T18:00	1414	868	17.4	14.2	277	5
2023-08-20T18:00	1438	865	17.2	13.9	276	5
2023-08-20T18:00	1459	863	17.1	13.6	273	5
2023-08-20T18:00	1486	860	17.0	13.1	270	5
2023-08-20T18:00	1510	858	16.9	13.1	268	5
2023-08-20T18:00	1541	855	16.7	12.8	266	5
2023-08-20T18:00	1565	852	16.6	12.1	265	5
2023-08-20T18:00	1593	850	16.6	11.5	264	6
2023-08-20T18:00	1618	847	16.6	11.0	262	6
2023-08-20T18:00	1642	845	16.5	10.5	259	6
2023-08-20T18:00	1667	842	16.3	10.1	256	6
2023-08-20T18:00	1694	840	16.1	9.9	254	6
2023-08-20T18:00	1716	837	15.9	9.9	252	6
2023-08-20T18:00	1743	835	15.7	9.9	251	6
2023-08-20T18:00	1767	832	15.5	9.7	250	6
2023-08-20T18:00	1793	830	15.3	9.6	248	6
2023-08-20T18:00	1817	827	15.1	9.3	246	6
2023-08-20T18:00	1837	825	14.9	9.5	244	6
2023-08-20T18:00	1862	823	14.7	9.5	242	5
2023-08-20T18:00	1885	821	14.6	9.1	241	5
2023-08-20T18:00	1910	818	14.4	8.8	240	5
2023-08-20T18:00	1933	816	14.2	8.7	238	5
2023-08-20T18:00	1958	814	14.0	8.7	237	5
2023-08-20T18:00	1982	811	13.8	8.6	235	5
2023-08-20T18:00	2006	809	13.6	8.5	233	5
2023-08-20T18:00	2028	807	13.5	8.2	231	6
2023-08-20T18:00	2056	804	13.3	8.0	229	6
2023-08-20T18:00	2083	802	13.1	7.8	228	6
2023-08-20T18:00	2109	799	12.9	7.9	227	6
2023-08-20T18:00	2134	797	12.7	7.7	227	6
2023-08-20T18:00	2157	795	12.5	7.7	227	6
2023-08-20T18:00	2186	792	12.3	7.7	228	7
2023-08-20T18:00	2213	790	12.1	7.8	229	7
2023-08-20T18:00	2238	787	11.9	7.6	230	7
2023-08-20T18:00	2265	784	11.7	7.5	231	8
2023-08-20T18:00	2295	782	11.5	7.5	232	8
2023-08-20T18:00	2322	779	11.4	7.5	232	8
2023-08-20T18:00	2345	777	11.2	7.6	234	8
2023-08-20T18:00	2370	775	11.0	7.5	236	8
2023-08-20T18:00	2399	772	10.8	7.3	239	8
2023-08-20T18:00	2426	770	10.7	7.3	242	8
2023-08-20T18:00	2458	767	10.4	7.1	245	8
2023-08-20T18:00	2486	764	10.3	7.1	248	8
2023-08-20T18:00	2515	762	10.1	6.9	250	8
2023-08-20T18:00	2538	759	9.9	6.8	253	8
2023-08-20T18:00	2562	757	9.8	6.7	255	9
2023-08-20T18:00	2582	755	9.6	6.7	255	9
2023-08-20T18:00	2604	753	9.4	6.6	256	9
2023-08-20T18:00	2627	751	9.3	6.5	255	10
2023-08-20T18:00	2654	749	9.0	6.3	255	10
2023-08-20T18:00	2679	746	8.8	6.2	255	11
2023-08-20T18:00	2706	744	8.6	6.0	256	11
2023-08-20T18:00	2727	742	8.4	6.0	256	11
2023-08-20T18:00	2755	740	8.2	5.9	257	11
2023-08-20T18:00	2779	737	7.9	5.8	258	11
2023-08-20T18:00	2806	735	7.7	5.9	260	11
2023-08-20T18:00	2831	733	7.5	5.9	261	11
2023-08-20T18:00	2856	731	7.3	6.0	261	11
2023-08-20T18:00	2879	729	7.1	6.4	260	12
2023-08-20T18:00	2900	727	6.9	6.6	259	12
2023-08-20T18:00	2926	725	6.7	6.4	258	13
2023-08-20T18:00	2946	723	6.5	6.2	257	13
2023-08-20T18:00	2973	721	6.7	4.9	256	13
2023-08-20T18:00	2996	718	6.6	4.7	256	13
2023-08-20T18:00	3017	717	6.5	4.9	257	13
2023-08-20T18:00	3040	715	6.4	4.4	258	13
2023-08-20T18:00	3064	713	6.2	4.3	258	14
2023-08-20T18:00	3086	711	6.0	4.3	258	14
2023-08-20T18:00	3113	708	5.8	4.0	258	14
2023-08-20T18:00	3135	706	5.7	3.5	257	15
2023-08-20T18:00	3160	704	5.7	3.7	256	15
2023-08-20T18:00	3185	702	5.6	3.3	254	16
2023-08-20T18:00	3209	700	5.5	3.3	253	16
2023-08-20T18:00	3233	698	5.3	3.3	252	16
2023-08-20T18:00	3256	696	5.1	3.3	252	16
2023-08-20T18:00	3282	694	4.9	3.1	253	17
2023-08-20T18:00	3304	692	4.8	2.4	254	17
2023-08-20T18:00	3331	690	4.6	1.7	255	17
2023-08-20T18:00	3358	687	4.3	2.3	256	16
2023-08-20T18:00	3384	685	4.1	2.0	257	16
2023-08-20T18:00	3409	683	3.8	2.0	257	16
2023-08-20T18:00	3435	681	3.6	1.8	257	15
2023-08-20T18:00	3462	679	3.3	1.5	257	15
2023-08-20T18:00	3486	677	3.1	1.5	257	15
2023-08-20T18:00	3508	675	2.9	1.4	257	15
2023-08-20T18:00	3533	673	2.7	1.2	257	15
2023-08-20T18:00	3562	670	2.4	1.3	257	15
2023-08-20T18:00	3591	668	2.1	1.3	256	15
2023-08-20T18:00	3618	666	1.8	1.0	256	16
2023-08-20T18:00	3645	663	1.6	0.7	255	16
2023-08-20T18:00	3675	661	1.3	0.0	255	16
2023-08-20T18:00	3703	659	1.0	-0.2	255	16
2023-08-20T18:00	3730	657	0.7	0.3	257	16
2023-08-20T18:00	3755	654	0.6	-0.1	259	16
2023-08-20T18:00	3778	652	0.6	-2.4	260	16
2023-08-20T18:00	3805	650	1.5	-15.0	261	15
2023-08-20T18:00	3827	648	1.6	-18.5	262	15
2023-08-20T18:00	3858	646	1.9	-25.6	263	15
2023-08-20T18:00	3887	644	2.1	-29.4	264	15
2023-08-20T18:00	3917	642	2.4	-32.1	266	14
2023-08-20T18:00	3942	639	2.2	-32.5	267	14
2023-08-20T18:00	3968	637	2.1	-33.2	267	14
2023-08-20T18:00	3994	635	2.0	-33.6	267	13
2023-08-20T18:00	4019	633	1.8	-33.9	266	13
2023-08-20T18:00	4050	631	1.7	-34.3	265	12
2023-08-20T18:00	4077	629	1.6	-34.6	264	12
2023-08-20T18:00	4096	627	1.5	-35.0	262	12
2023-08-20T18:00	4115	626	1.4	-34.7	261	12
2023-08-20T18:00	4141	624	1.3	-33.5	260	12
2023-08-20T18:00	4165	622	1.3	-32.6	259	12
2023-08-20T18:00	4189	620	1.1	-32.3	258	12
2023-08-20T18:00	4212	618	1.1	-32.5	258	11
2023-08-20T18:00	4236	616	1.0	-32.2	258	11
2023-08-20T18:00	4260	615	0.9	-32.5	258	11
2023-08-20T18:00	4288	613	0.8	-32.7	258	11
2023-08-20T18:00	4312	611	0.7	-33.5	259	11
2023-08-20T18:00	4343	608	0.5	-33.4	261	11
2023-08-20T18:00	4368	606	0.3	-33.3	263	10
2023-08-20T18:00	4393	605	0.1	-33.4	264	10
2023-08-20T18:00	4416	603	0.1	-35.9	265	10
2023-08-20T18:00	4442	601	0.1	-35.1	265	11
2023-08-20T18:00	4463	599	0.2	-35.5	264	11
2023-08-20T18:00	4486	597	0.3	-36.3	264	11
2023-08-20T18:00	4516	595	0.3	-37.9	264	12
2023-08-20T18:00	4539	594	0.2	-38.0	265	12
2023-08-20T18:00	4562	592	0.1	-36.2	266	12
2023-08-20T18:00	4589	590	0.0	-39.2	267	12
2023-08-20T18:00	4611	588	0.0	-38.5	268	12
2023-08-20T18:00	4633	587	-0.2	-38.3	268	12
2023-08-20T18:00	4652	585	-0.3	-37.3	268	12
2023-08-20T18:00	4672	584	-0.4	-39.9	268	13
2023-08-20T18:00	4691	582	-0.3	-40.7	267	13
2023-08-20T18:00	4711	581	-0.4	-40.3	267	13
2023-08-20T18:00	4732	579	-0.6	-38.9	267	14
2023-08-20T18:00	4757	578	-0.8	-38.0	268	13
2023-08-20T18:00	4788	576	-1.0	-37.6	269	13
2023-08-20T18:00	4807	574	-1.0	-37.9	269	13
2023-08-20T18:00	4832	572	-1.2	-38.3	270	13
2023-08-20T18:00	4851	571	-1.4	-38.5	269	13
2023-08-20T18:00	4869	569	-1.5	-38.6	268	13
2023-08-20T18:00	4894	568	-1.7	-37.5	268	13
2023-08-20T18:00	4917	566	-1.8	-37.0	268	13
2023-08-20T18:00	4944	564	-2.0	-34.0	268	13
2023-08-20T18:00	4970	562	-2.2	-28.9	270	13
2023-08-20T18:00	4993	561	-2.4	-29.7	271	14
2023-08-20T18:00	5018	559	-2.5	-31.9	272	14
2023-08-20T18:00	5038	558	-2.7	-30.9	272	15
2023-08-20T18:00	5063	556	-2.9	-28.8	271	15
2023-08-20T18:00	5096	554	-3.2	-28.9	271	15
2023-08-20T18:00	5124	552	-3.4	-29.1	271	14
2023-08-20T18:00	5141	550	-3.6	-29.2	271	14
2023-08-20T18:00	5163	549	-3.8	-29.8	272	14
2023-08-20T18:00	5191	547	-3.9	-29.8	272	13
2023-08-20T18:00	5214	545	-4.0	-30.8	273	13
2023-08-20T18:00	5244	543	-4.3	-31.2	274	13
2023-08-20T18:00	5265	542	-4.3	-32.0	275	13
2023-08-20T18:00	5285	540	-4.1	-35.8	276	14
2023-08-20T18:00	5307	539	-4.0	-39.5	277	14
2023-08-20T18:00	5332	537	-4.1	-40.2	279	14
2023-08-20T18:00	5359	535	-4.4	-40.1	280	14
2023-08-20T18:00	5384	534	-4.6	-40.6	282	14
2023-08-20T18:00	5413	532	-4.8	-40.4	283	14
2023-08-20T18:00	5442	530	-5.1	-40.6	284	14
2023-08-20T18:00	5468	528	-5.1	-40.6	285	14
2023-08-20T18:00	5498	526	-5.2	-40.1	285	14
2023-08-20T18:00	5517	525	-5.3	-40.2	286	14
2023-08-20T18:00	5541	523	-5.4	-37.3	286	14
2023-08-20T18:00	5565	521	-5.7	-36.9	287	14
2023-08-20T18:00	5594	520	-6.0		288	14
2023-08-20T18:00	5620	518	-6.2	-34.8	289	14
2023-08-20T18:00	5649	516	-6.5	-33.9	291	14
2023-08-20T18:00	5669	514	-6.7	-33.7	293	14
2023-08-20T18:00	5696	513	-6.9	-32.5	295	13
2023-08-20T18:00	5721	511	-7.0	-32.2	297	13
2023-08-20T18:00	5741	510	-7.2	-32.3	298	14
2023-08-20T18:00	5767	508	-7.4	-32.1	299	14
2023-08-20T18:00	5793	507	-7.6	-32.0	299	15
2023-08-20T18:00	5818	505	-7.7	-31.8	298	16
2023-08-20T18:00	5847	503	-7.8	-31.9	297	16
2023-08-20T18:00	5870	501	-8.0	-31.4	296	16
2023-08-20T18:00	5899	500	-8.0	-30.8	294	16
2023-08-20T18:00	5927	498	-8.2	-30.9	293	16
2023-08-20T18:00	5950	496	-8.3	-30.8	291	16
2023-08-20T18:00	5971	495	-8.5	-30.7	289	16
2023-08-20T18:00	6000	493	-8.7	-30.4	288	16
2023-08-20T18:00	6025	491	-8.8	-30.4	286	17
2023-08-20T18:00	6056	490	-9.0	-31.2	284	17
2023-08-20T18:00	6076	488	-9.1	-31.8	283	17
2023-08-20T18:00	6103	487	-9.3	-32.3	282	17
2023-08-20T18:00	6125	485	-9.4	-32.8	281	16
2023-08-20T18:00	6144	484	-9.6	-33.2	282	16
2023-08-20T18:00	6179	482	-9.8	-33.1	282	16
2023-08-20T18:00	6203	480	-10.0	-33.9	283	15
2023-08-20T18:00	6235	478	-10.2	-34.6	284	15
2023-08-20T18:00	6259	477	-10.4	-35.7	285	15
2023-08-20T18:00	6281	476	-10.5	-36.7	286	14
2023-08-20T18:00	6300	474	-10.6	-37.5	287	14
2023-08-20T18:00	6321	473	-10.7	-37.7	288	15
2023-08-20T18:00	6348	471	-10.9	-37.6	291	15
2023-08-20T18:00	6373	470	-11.0	-37.8	294	15
2023-08-20T18:00	6409	468	-11.2	-38.2	298	14
2023-08-20T18:00	6442	466	-11.4	-38.5	300	14
2023-08-20T18:00	6465	464	-11.5	-38.9	302	14
2023-08-20T18:00	6489	463	-11.6	-39.3	302	14
2023-08-20T18:00	6516	461	-11.8	-39.7	301	15
2023-08-20T18:00	6546	459	-12.0	-41.0	300	15
2023-08-20T18:00	6567	458	-12.0	-41.1	299	15
2023-08-20T18:00	6591	457	-12.2	-38.5	300	14
2023-08-20T18:00	6614	455	-12.4	-38.8	300	14
2023-08-20T18:00	6639	454	-12.5	-39.4	301	14
2023-08-20T18:00	6666	452	-12.7	-39.9	301	14
2023-08-20T18:00	6688	451	-12.9	-39.5	301	14
2023-08-20T18:00	6717	449	-13.1	-37.6	301	14
2023-08-20T18:00	6744	448	-13.4	-35.1	301	14
2023-08-20T18:00	6774	446	-13.6	-35.9	301	14
2023-08-20T18:00	6794	445	-13.7	-36.1	301	14
2023-08-20T18:00	6818	443	-13.9	-35.6	301	14
2023-08-20T18:00	6849	441	-14.2	-35.4	301	14
2023-08-20T18:00	6877	440	-14.5	-35.9	301	14
2023-08-20T18:00	6901	438	-14.7	-35.9	300	14
2023-08-20T18:00	6933	437	-15.0	-37.1	300	15
2023-08-20T18:00	6960	435	-15.2	-39.5	299	15
2023-08-20T18:00	6981	434	-15.3	-42.2	299	15
2023-08-20T18:00	7003	433	-15.5	-42.2	299	15
2023-08-20T18:00	7026	431	-15.7	-41.4	299	15
2023-08-20T18:00	7049	430	-16.0	-41.2	299	15
2023-08-20T18:00	7075	429	-16.2	-40.7	299	15
2023-08-20T18:00	7096	427	-16.4	-39.4	298	15
2023-08-20T18:00	7118	426	-16.5	-39.9	298	15
2023-08-20T18:00	7139	425	-16.7	-40.8	298	15
2023-08-20T18:00	7160	424	-16.9	-41.0	298	16
2023-08-20T18:00	7183	422	-17.0	-40.1	298	16
2023-08-20T18:00	7201	421	-17.2	-37.8	297	16
2023-08-20T18:00	7223	420	-17.3	-37.6	297	16
2023-08-20T18:00	7243	419	-17.5	-42.5	297	17
2023-08-20T18:00	7264	418	-17.7	-41.8	296	17
2023-08-20T18:00	7297	416	-17.9	-41.9	295	17
2023-08-20T18:00	7322	415	-18.1	-42.2	294	17
2023-08-20T18:00	7342	413	-18.3	-40.6	294	17
2023-08-20T18:00	7362	412	-18.5	-40.9	295	17
2023-08-20T18:00	7381	411	-18.6	-40.8	296	17
2023-08-20T18:00	7406	410	-18.8	-38.9	297	17
2023-08-20T18:00	7435	408	-19.0	-39.3	298	18
2023-08-20T18:00	7463	407	-19.2	-41.7	299	18
2023-08-20T18:00	7494	405	-19.5	-41.7	299	18
2023-08-20T18:00	7519	404	-19.7	-41.2	298	18
2023-08-20T18:00	7544	402	-19.9	-41.1	297	18
2023-08-20T18:00	7567	401	-20.2	-40.3	295	18
2023-08-20T18:00	7590	400	-20.4	-39.8	294	18
2023-08-20T18:00	7615	398	-20.6	-38.9	293	18
2023-08-20T18:00	7643	397	-20.9	-38.9	292	17
2023-08-20T18:00	7670	396	-21.1	-39.3	291	17
2023-08-20T18:00	7697	394	-21.3	-40.5	291	17
2023-08-20T18:00	7723	393	-21.6	-40.5	291	17
2023-08-20T18:00	7744	392	-21.8	-40.6	291	17
2023-08-20T18:00	7767	390	-22.0	-40.7	291	17
2023-08-20T18:00	7787	389	-22.2	-41.2	290	17
2023-08-20T18:00	7809	388	-22.4	-41.5	290	17
2023-08-20T18:00	7835	387	-22.6	-41.8	289	17
2023-08-20T18:00	7866	385	-22.9	-42.2	287	18
2023-08-20T18:00	7890	384	-23.1	-42.6	286	18
2023-08-20T18:00	7915	383	-23.3	-43.6	285	18
2023-08-20T18:00	7941	381	-23.5	-44.9	284	17
2023-08-20T18:00	7964	380	-23.6	-45.9	284	17
2023-08-20T18:00	7988	379	-23.8	-47.0	284	17
2023-08-20T18:00	8020	377	-24.0	-48.2	284	17
2023-08-20T18:00	8055	375	-24.4	-48.7	284	16
2023-08-20T18:00	8077	374	-24.5	-48.5	283	16
2023-08-20T18:00	8099	373	-24.7	-48.2	283	17
2023-08-20T18:00	8124	372	-24.9	-48.5	282	17
2023-08-20T18:00	8150	370	-25.1	-49.9	282	17
2023-08-20T18:00	8182	369	-25.4	-50.5	282	18
2023-08-20T18:00	8210	367	-25.6	-50.4	282	18
2023-08-20T18:00	8233	366	-25.8	-50.4	282	18
2023-08-20T18:00	8257	365	-26.0	-50.6	282	18
2023-08-20T18:00	8279	364	-26.1	-50.8	282	17
2023-08-20T18:00	8303	363	-26.2	-51.5	281	17
2023-08-20T18:00	8333	361	-26.2	-52.3	279	16
2023-08-20T18:00	8369	360	-26.3	-53.5	277	16
2023-08-20T18:00	8390	358	-26.4	-53.7	276	16
2023-08-20T18:00	8409	357	-26.5	-53.8	275	16
2023-08-20T18:00	8433	356	-26.7	-53.9	274	17
2023-08-20T18:00	8452	355	-26.9	-54.1	274	17
2023-08-20T18:00	8471	354	-27.1	-54.3	273	17
2023-08-20T18:00	8495	353	-27.3	-54.4	272	17
2023-08-20T18:00	8519	352	-27.4	-54.2	271	17
2023-08-20T18:00	8542	351	-27.6	-54.2	271	17
2023-08-20T18:00	8562	350	-27.7		270	17
2023-08-20T18:00	8583	349	-27.8	-54.5	270	16
2023-08-20T18:00	8604	348	-28.0	-53.8	271	16
2023-08-20T18:00	8627	347	-28.1	-53.2	271	16
2023-08-20T18:00	8647	346	-28.3	-53.4	272	16
2023-08-20T18:00	8668	345	-28.4		273	16
2023-08-20T18:00	8690	344	-28.5	-53.4	273	16
2023-08-20T18:00	8709	343	-28.6	-53.1	274	16
2023-08-20T18:00	8729	342	-28.8	-52.9	274	16
2023-08-20T18:00	8749	341	-29.0	-52.8	273	16
2023-08-20T18:00	8769	340	-29.1	-53.0	273	15
2023-08-20T18:00	8792	339	-29.2	-53.2	273	15
2023-08-20T18:00	8814	338	-29.4	-53.6	273	15
2023-08-20T18:00	8834	337	-29.5	-53.9	273	15
2023-08-20T18:00	8856	336	-29.7	-53.7	274	15
2023-08-20T18:00	8881	335	-29.9	-53.5	275	16
2023-08-20T18:00	8903	334	-30.1	-53.3	276	16
2023-08-20T18:00	8923	333	-30.2	-52.8	276	16
2023-08-20T18:00	8945	332	-30.5	-52.3	276	16
2023-08-20T18:00	8966	331	-30.6	-52.2	276	16
2023-08-20T18:00	8990	330	-30.9	-52.3	275	16
2023-08-20T18:00	9009	329	-31.1	-52.4	274	16
2023-08-20T18:00	9033	328	-31.3	-52.4	274	16
2023-08-20T18:00	9053	327	-31.5	-52.6	273	16
2023-08-20T18:00	9076	326	-31.6	-52.9	272	16
2023-08-20T18:00	9096	325	-31.8	-54.0	271	16
2023-08-20T18:00	9119	324	-31.9	-54.8	271	16
2023-08-20T18:00	9141	323	-32.1	-55.1	271	16
2023-08-20T18:00	9163	322	-32.3	-55.1	271	16
2023-08-20T18:00	9184	321	-32.5	-55.2	270	16
2023-08-20T18:00	9206	320	-32.7	-55.2	270	16
2023-08-20T18:00	9231	319	-32.9	-55.3	270	16
2023-08-20T18:00	9250	318	-33.1	-55.4	270	16
2023-08-20T18:00	9272	317	-33.3	-55.4	270	16
2023-08-20T18:00	9293	316	-33.5	-55.4	270	16
2023-08-20T18:00	9317	315	-33.7	-55.3	270	16
2023-08-20T18:00	9337	314	-33.9	-55.4	270	16
2023-08-20T18:00	9358	313	-34.0	-55.6	269	16
2023-08-20T18:00	9379	312	-34.2	-56.0	269	16
2023-08-20T18:00	9399	311	-34.3	-56.0	269	16
2023-08-20T18:00	9420	310	-34.5	-56.0	269	16
2023-08-20T18:00	9441	309	-34.7	-56.2	269	16
2023-08-20T18:00	9464	308	-34.9	-56.4	270	16
2023-08-20T18:00	9484	307	-35.1	-56.5	270	16
2023-08-20T18:00	9502	306	-35.2	-56.5	271	16
2023-08-20T18:00	9526	305	-35.4	-56.6	271	16
2023-08-20T18:00	9551	304	-35.6	-56.3	271	16
2023-08-20T18:00	9580	303	-35.8	-55.7	271	17
2023-08-20T18:00	9612	302	-36.0	-55.8	272	17
2023-08-20T18:00	9636	301	-36.3	-56.0	272	17
2023-08-20T18:00	9660	300	-36.5	-55.8	272	17
2023-08-20T18:00	9683	299	-36.7	-55.9	273	17
2023-08-20T18:00	9703	298	-36.9	-56.2	273	17
2023-08-20T18:00	9723	297	-37.0	-56.3	272	17
2023-08-20T18:00	9742	296	-37.2	-56.4	272	17
2023-08-20T18:00	9763	295	-37.3	-56.3	272	17
2023-08-20T18:00	9783	294	-37.5	-56.3	272	17
2023-08-20T18:00	9801	293	-37.7	-56.3	272	17
2023-08-20T18:00	9821	293	-37.9	-56.4	272	17
2023-08-20T18:00	9841	292	-38.0	-56.5	273	17
2023-08-20T18:00	9859	291	-38.1	-56.8	273	17
2023-08-20T18:00	9879	290	-38.3	-56.9	274	17
2023-08-20T18:00	9898	289	-38.5	-57.1	275	17
2023-08-20T18:00	9919	288	-38.6	-57.2	276	17
2023-08-20T18:00	9938	288	-38.8	-57.3	277	17
2023-08-20T18:00	9959	287	-39.0	-57.6	277	17
2023-08-20T18:00	9978	286	-39.1	-57.6	277	17
2023-08-20T18:00	9997	285	-39.3	-57.6	278	17
2023-08-20T18:00	10019	284	-39.5	-57.7	278	17
2023-08-20T18:00	10038	283	-39.7	-57.8	278	17
2023-08-20T18:00	10059	283	-39.9	-57.7	278	17
2023-08-20T18:00	10078	282	-40.1	-57.9	278	17
2023-08-20T18:00	10097	281	-40.2	-57.9	278	17
2023-08-20T18:00	10118	280	-40.4	-57.9	278	18
2023-08-20T18:00	10138	279	-40.6	-57.9	278	18
2023-08-20T18:00	10158	279	-40.8	-58.1	278	18
2023-08-20T18:00	10179	278	-41.0	-58.1	278	18
2023-08-20T18:00	10199	277	-41.1	-58.2	279	18
2023-08-20T18:00	10220	276	-41.3	-58.3	281	18
2023-08-20T18:00	10243	275	-41.5	-58.5	282	19
2023-08-20T18:00	10273	274	-41.7	-58.6	285	19
2023-08-20T18:00	10299	273	-41.9	-58.7	286	19
2023-08-20T18:00	10324	272	-42.1	-58.8	288	20
2023-08-20T18:00	10346	271	-42.2	-58.8	289	20
2023-08-20T18:00	10367	270	-42.3	-58.6	290	20
2023-08-20T18:00	10391	269	-42.5	-58.5	291	21
2023-08-20T18:00	10414	268	-42.6	-58.4	292	21
2023-08-20T18:00	10440	267	-42.8	-58.5	293	21
2023-08-20T18:00	10463	266	-42.9	-58.3	294	21
2023-08-20T18:00	10487	265	-43.1	-58.3	295	21
2023-08-20T18:00	10508	265	-43.2	-58.3	295	21
2023-08-20T18:00	10530	264	-43.4	-58.3	296	22
2023-08-20T18:00	10553	263	-43.5	-58.3	297	22
2023-08-20T18:00	10578	262	-43.7	-58.3	298	23
2023-08-20T18:00	10609	261	-43.9	-58.3	299	23
2023-08-20T18:00	10633	260	-44.1	-58.5	300	24
2023-08-20T18:00	10655	259	-44.2	-58.8	300	24
2023-08-20T18:00	10675	258	-44.3	-58.9	300	24
2023-08-20T18:00	10701	257	-44.6	-58.9	300	24
2023-08-20T18:00	10730	256	-44.8	-59.0	301	24
2023-08-20T18:00	10757	255	-45.0	-59.5	301	24
2023-08-20T18:00	10791	254	-45.2	-59.8	302	25
2023-08-20T18:00	10810	253	-45.3	-59.9	303	25
2023-08-20T18:00	10834	252	-45.5	-60.3	304	26
2023-08-20T18:00	10857	251	-45.6	-60.8	304	27
2023-08-20T18:00	10881	250	-45.8	-61.3	305	28
2023-08-20T18:00	10906	249	-46.0	-61.4	304	29
2023-08-20T18:00	10928	248	-46.1	-61.4	304	30
2023-08-20T18:00	10960	247	-46.1	-61.2	304	31
2023-08-20T18:00	10982	246	-46.2	-61.4	304	31
2023-08-20T18:00	11004	246	-46.4	-61.5	304	32
2023-08-20T18:00	11024	245	-46.6	-61.6	305	32
2023-08-20T18:00	11043	244	-46.7	-61.6	305	32
2023-08-20T18:00	11065	243	-46.9	-62.1	306	32
2023-08-20T18:00	11083	243	-46.8	-62.5	306	32
2023-08-20T18:00	11104	242	-46.9	-62.2	306	33
2023-08-20T18:00	11135	241	-47.1	-61.6	307	33
2023-08-20T18:00	11160	240	-47.3	-61.5	307	33
2023-08-20T18:00	11184	239	-47.5	-61.6	307	34
2023-08-20T18:00	11205	238	-47.7	-61.6	307	34
2023-08-20T18:00	11224	238	-47.8	-61.5	306	34
2023-08-20T18:00	11246	237	-48.0	-61.6	306	35
2023-08-20T18:00	11266	236	-48.1	-61.6	306	35
2023-08-20T18:00	11290	235	-48.3	-61.8	306	35
2023-08-20T18:00	11309	234	-48.4	-61.8	305	35
2023-08-20T18:00	11333	234	-48.6	-61.9	305	35
2023-08-20T18:00	11359	233	-48.7	-62.1	305	35
2023-08-20T18:00	11383	232	-48.8	-62.7	305	35
2023-08-20T18:00	11410	231	-49.0	-63.2	305	36
2023-08-20T18:00	11436	230	-49.2	-63.4	305	36
2023-08-20T18:00	11460	229	-49.3	-63.5	306	36
2023-08-20T18:00	11486	228	-49.5	-63.6	306	36
2023-08-20T18:00	11507	228	-49.6	-63.8	307	36
2023-08-20T18:00	11530	227	-49.7	-63.9	307	36
2023-08-20T18:00	11552	226	-49.9	-64.0	307	36
2023-08-20T18:00	11573	225	-50.1	-64.1	307	36
2023-08-20T18:00	11594	225	-50.2	-64.2	307	37
2023-08-20T18:00	11615	224	-50.2	-64.5	307	37
2023-08-20T18:00	11634	223	-50.2	-64.6	306	37
2023-08-20T18:00	11657	222	-50.3	-64.4	306	37
2023-08-20T18:00	11679	222	-50.4	-64.2	306	38
2023-08-20T18:00	11700	221	-50.5	-64.2	306	38
2023-08-20T18:00	11723	220	-50.6	-64.1	306	38
2023-08-20T18:00	11745	219	-50.7	-63.9	306	38
2023-08-20T18:00	11765	219	-50.9	-63.7	306	38
2023-08-20T18:00	11787	218	-51.1	-63.9	306	38
2023-08-20T18:00	11810	217	-51.2	-64.1	306	38
2023-08-20T18:00	11832	216	-51.4	-64.3	306	38
2023-08-20T18:00	11855	216	-51.5	-64.3	306	38
2023-08-20T18:00	11876	215	-51.6	-64.2	306	38
2023-08-20T18:00	11898	214	-51.8	-64.2	306	38
2023-08-20T18:00	11919	214	-51.9	-64.3	307	38
2023-08-20T18:00	11943	213	-52.0	-64.3	307	38
2023-08-20T18:00	11962	212	-52.1	-64.5	307	38
2023-08-20T18:00	11983	212	-52.2	-64.7	307	39
2023-08-20T18:00	12003	211	-52.3	-65.0	307	39
2023-08-20T18:00	12025	210	-52.5	-65.1	307	39
2023-08-20T18:00	12051	209	-52.7	-65.1	307	40
2023-08-20T18:00	12073	209	-52.9	-65.3	307	40
2023-08-20T18:00	12098	208	-53.0	-65.4	307	41
2023-08-20T18:00	12130	207	-53.3	-65.6	307	41
2023-08-20T18:00	12154	206	-53.4	-65.4	307	42
2023-08-20T18:00	12178	205	-53.6	-65.4	307	42
2023-08-20T18:00	12199	205	-53.7	-65.4	307	42
2023-08-20T18:00	12219	204	-53.9	-65.5	308	43
2023-08-20T18:00	12240	203	-54.1	-65.5	308	43
2023-08-20T18:00	12263	203	-54.2	-65.3	308	43
2023-08-20T18:00	12283	202	-54.3	-65.1	308	43
2023-08-20T18:00	12305	201	-54.5	-65.1	308	43
2023-08-20T18:00	12328	201	-54.6	-65.2	308	42
2023-08-20T18:00	12347	200	-54.7	-65.5	308	42
2023-08-20T18:00	12369	199	-54.8	-65.7	308	42
2023-08-20T18:00	12389	199	-55.0	-65.9	308	42
2023-08-20T18:00	12410	198	-55.1	-66.0	308	42
2023-08-20T18:00	12430	197	-55.2	-66.3	308	41
2023-08-20T18:00	12449	197	-55.3	-66.5	308	41
2023-08-20T18:00	12470	196	-55.4	-66.8	307	41
2023-08-20T18:00	12488	195	-55.5	-67.1	307	40
2023-08-20T18:00	12509	195	-55.4	-67.2	306	40
2023-08-20T18:00	12530	194	-55.5	-67.6	306	39
2023-08-20T18:00	12551	194	-55.5	-67.7	305	39
2023-08-20T18:00	12573	193	-55.6	-67.8	305	38
2023-08-20T18:00	12593	192	-55.8	-68.0	304	38
2023-08-20T18:00	12615	192	-55.7	-68.0	304	38
2023-08-20T18:00	12637	191	-55.6	-68.2	304	38
2023-08-20T18:00	12656	190	-55.5	-68.4	304	38
2023-08-20T18:00	12675	190	-55.1	-68.2	304	37
2023-08-20T18:00	12694	189	-55.2	-68.4	304	37
2023-08-20T18:00	12714	189	-55.3	-68.6	304	36
2023-08-20T18:00	12736	188	-55.3	-68.9	304	36
2023-08-20T18:00	12757	187	-55.3	-69.5	304	35
2023-08-20T18:00	12777	187	-55.2	-70.0	304	35
2023-08-20T18:00	12796	186	-55.1	-70.3	303	34
2023-08-20T18:00	12815	186	-55.2	-70.4	303	34
2023-08-20T18:00	12836	185	-55.4	-70.5	303	34
2023-08-20T18:00	12856	185	-55.5	-70.6	303	34
2023-08-20T18:00	12877	184	-55.6	-70.7	302	34
2023-08-20T18:00	12898	183	-55.7	-70.8	302	34
2023-08-20T18:00	12917	183	-55.8	-70.9	302	34
2023-08-20T18:00	12938	182	-56.0	-71.0	302	34
2023-08-20T18:00	12959	182	-56.1	-71.1	302	35
2023-08-20T18:00	12980	181	-56.2	-71.1	303	35
2023-08-20T18:00	13001	180	-56.2	-71.0	303	35
2023-08-20T18:00	13019	180	-56.3	-70.9	303	36
2023-08-20T18:00	13040	179	-56.5	-70.7	304	36
2023-08-20T18:00	13060	179	-56.6	-70.5	304	36
2023-08-20T18:00	13080	178	-56.8	-70.5	304	35
2023-08-20T18:00	13103	178	-56.9	-70.6	304	35
2023-08-20T18:00	13124	177	-56.8	-70.8	303	34
2023-08-20T18:00	13144	176	-56.5	-71.0	302	33
2023-08-20T18:00	13166	176	-56.5	-71.5	302	33
2023-08-20T18:00	13185	175	-56.6	-71.8	301	33
2023-08-20T18:00	13206	175	-56.5	-71.9	300	33
2023-08-20T18:00	13225	174	-56.4	-71.8	300	33
2023-08-20T18:00	13246	174	-56.5	-71.8	300	33
2023-08-20T18:00	13266	173	-56.5	-71.7	300	33
2023-08-20T18:00	13287	172	-56.6	-72.0	300	33
2023-08-20T18:00	13309	172	-56.6	-72.2	300	32
2023-08-20T18:00	13329	171	-56.5	-72.5	300	32
2023-08-20T18:00	13351	171	-56.6	-72.7	300	32
2023-08-20T18:00	13371	170	-56.7	-72.9	300	32
2023-08-20T18:00	13393	170	-56.6	-72.9	300	32
2023-08-20T18:00	13414	169	-56.6	-73.1	300	32
2023-08-20T18:00	13436	168	-56.6	-73.3	300	31
2023-08-20T18:00	13458	168	-56.7	-73.5	300	31
2023-08-20T18:00	13478	167	-56.7	-73.6	300	31
2023-08-20T18:00	13499	167	-56.8	-73.8	300	30
2023-08-20T18:00	13521	166	-56.9	-74.0	301	30
2023-08-20T18:00	13544	166	-56.9	-74.4	301	30
2023-08-20T18:00	13565	165	-56.8	-74.7	302	30
2023-08-20T18:00	13586	165	-56.9	-75.1	302	30
2023-08-20T18:00	13607	164	-57.0	-75.1	302	29
2023-08-20T18:00	13631	163	-57.2	-75.1	302	29
2023-08-20T18:00	13653	163	-57.3	-75.1	302	29
2023-08-20T18:00	13675	162	-57.3		302	28
2023-08-20T18:00	13696	162	-57.2	-75.3	302	27
2023-08-20T18:00	13716	161	-56.9	-75.4	302	27
2023-08-20T18:00	13736	161	-56.8	-75.7	302	27
2023-08-20T18:00	13757	160	-56.7	-75.9	302	27
2023-08-20T18:00	13780	160	-56.6	-76.0	302	26
2023-08-20T18:00	13801	159	-56.5	-76.2	302	26
2023-08-20T18:00	13822	158	-56.4	-76.3	302	26
2023-08-20T18:00	13844	158	-56.3	-76.4	302	25
2023-08-20T18:00	13866	157	-56.3	-76.7	303	25
2023-08-20T18:00	13888	157	-56.1	-76.8	303	24
2023-08-20T18:00	13907	156	-56.0	-76.9	304	24
2023-08-20T18:00	13927	156	-56.0	-77.2	304	24
2023-08-20T18:00	13949	155	-56.1	-77.4	304	24
2023-08-20T18:00	13969	155	-56.3	-77.6	305	23
2023-08-20T18:00	13990	154	-56.2	-77.6	305	23
2023-08-20T18:00	14012	154	-56.2	-77.8	306	23
2023-08-20T18:00	14034	153	-56.3	-78.0	307	22
2023-08-20T18:00	14054	153	-56.4	-78.4	308	22
2023-08-20T18:00	14073	152	-56.3	-78.3	308	21
2023-08-20T18:00	14097	152	-56.3	-78.4	308	20
2023-08-20T18:00	14117	151	-56.4	-78.5	307	20
2023-08-20T18:00	14139	151	-56.4	-78.5	306	19
2023-08-20T18:00	14160	150	-56.1	-78.4	305	18
2023-08-20T18:00	14183	150	-55.9	-78.4	305	17
2023-08-20T18:00	14204	149	-55.8	-78.5	304	17
2023-08-20T18:00	14226	149	-55.8	-78.9	305	16
2023-08-20T18:00	14251	148	-55.8	-79.2	305	16
2023-08-20T18:00	14271	148	-55.9	-79.5	305	15
2023-08-20T18:00	14295	147	-56.1	-79.8	305	15
2023-08-20T18:00	14319	147	-56.2	-80.1	305	14
2023-08-20T18:00	14339	146	-56.4	-80.3	304	14
2023-08-20T18:00	14361	146	-56.5	-80.6	303	13
2023-08-20T18:00	14385	145	-56.7	-80.7	301	13
2023-08-20T18:00	14410	144	-56.9	-80.9	300	13
2023-08-20T18:00	14429	144	-57.1	-81.0	298	13
2023-08-20T18:00	14452	144	-57.3	-81.2	295	12
2023-08-20T18:00	14473	143	-57.5	-81.4	292	12
2023-08-20T18:00	14497	142	-57.6	-81.4	289	11
2023-08-20T18:00	14519	142	-57.8	-81.6	284	11
2023-08-20T18:00	14543	141	-57.8	-81.8	278	10
2023-08-20T18:00	14567	141	-57.7	-81.7	272	10
2023-08-20T18:00	14588	140	-57.7		267	10
2023-08-20T18:00	14612	140	-57.7		263	10
2023-08-20T18:00	14636	139	-57.8	-82.0	259	11
2023-08-20T18:00	14658	139	-57.8	-82.0	257	11
2023-08-20T18:00	14681	138	-57.9	-82.1	257	11
2023-08-20T18:00	14699	138	-58.0	-82.0	257	12
2023-08-20T18:00	14722	137	-58.1	-82.0	258	12
2023-08-20T18:00	14743	137	-58.2	-82.1	259	13
2023-08-20T18:00	14766	137	-58.3	-82.2	260	14
2023-08-20T18:00	14787	136	-58.4	-82.1	261	14
2023-08-20T18:00	14809	136	-58.5	-82.1	262	15
2023-08-20T18:00	14831	135	-58.4	-81.9	263	15
2023-08-20T18:00	14853	135	-58.5	-81.9	263	16
2023-08-20T18:00	14874	134	-58.6	-81.8	264	16
2023-08-20T18:00	14897	134	-58.8	-81.8	264	16
2023-08-20T18:00	14917	133	-58.9	-81.9	265	17
2023-08-20T18:00	14938	133	-59.1	-81.9	265	17
2023-08-20T18:00	14960	132	-59.2	-81.8	265	17
2023-08-20T18:00	14981	132	-59.3	-81.7	266	18
2023-08-20T18:00	15002	131	-59.5	-81.7	266	18
2023-08-20T18:00	15026	131	-59.6	-81.6	267	19
2023-08-20T18:00	15046	131	-59.8	-81.6	268	19
2023-08-20T18:00	15067	130	-59.9	-81.5	269	20
2023-08-20T18:00	15090	130	-60.0	-81.6	271	20
2023-08-20T18:00	15111	129	-60.1	-81.5	273	21
2023-08-20T18:00	15133	129	-60.1	-81.5	276	21
2023-08-20T18:00	15155	128	-59.9	-81.3	278	21
2023-08-20T18:00	15176	128	-59.5	-81.2	280	21
2023-08-20T18:00	15200	127	-59.2	-80.9	282	21
2023-08-20T18:00	15223	127	-59.0	-80.9	284	21
2023-08-20T18:00	15246	126	-59.0	-80.9	286	21
2023-08-20T18:00	15271	126	-59.2	-81.1	288	21
2023-08-20T18:00	15299	125	-59.2	-81.1	290	21
2023-08-20T18:00	15327	125	-59.1	-81.0	292	21
2023-08-20T18:00	15349	124	-59.0	-80.9	294	20
2023-08-20T18:00	15372	124	-59.1	-81.2	295	20
2023-08-20T18:00	15401	123	-59.0	-81.1	297	19
2023-08-20T18:00	15426	123	-59.2	-81.3	299	18
2023-08-20T18:00	15453	122	-59.4	-81.4	301	18
2023-08-20T18:00	15474	122	-59.6	-81.6	303	17
2023-08-20T18:00	15498	121	-59.4	-81.4	305	16
2023-08-20T18:00	15523	121	-59.4	-81.4	306	15
2023-08-20T18:00	15547	121	-59.5	-81.7	307	14
2023-08-20T18:00	15570	120	-59.5	-81.7	307	13
2023-08-20T18:00	15589	120	-59.4	-81.7	307	12
2023-08-20T18:00	15613	119	-59.3	-81.8	305	12
2023-08-20T18:00	15633	119	-59.1	-82.0	303	11
2023-08-20T18:00	15657	118	-58.9	-82.1	300	11
2023-08-20T18:00	15680	118	-58.9	-82.3	296	10
2023-08-20T18:00	15702	118	-58.9	-82.7	292	10
2023-08-20T18:00	15725	117	-58.8	-82.8	288	10
2023-08-20T18:00	15750	117	-58.7	-83.2	284	9
2023-08-20T18:00	15779	116	-58.4	-83.2	279	9
2023-08-20T18:00	15806	116	-58.5	-83.5	274	8
2023-08-20T18:00	15833	115	-58.6	-83.6	268	8
2023-08-20T18:00	15857	115	-58.6	-83.6	262	8
2023-08-20T18:00	15883	114	-58.7	-83.7	256	7
2023-08-20T18:00	15909	114	-58.9		250	7
2023-08-20T18:00	15936	113	-59.1	-84.0	247	8
2023-08-20T18:00	15965	113	-59.2	-83.8	244	8
2023-08-20T18:00	15994	112	-59.3	-83.9	244	9
2023-08-20T18:00	16012	112	-59.3	-83.9	245	10
2023-08-20T18:00	16033	112	-59.4	-84.0	247	11
2023-08-20T18:00	16056	111	-59.5	-84.1	249	12
2023-08-20T18:00	16079	111	-59.5	-84.1	252	12
2023-08-20T18:00	16100	110	-59.6	-84.1	256	13
2023-08-20T18:00	16120	110	-59.6	-84.1	260	13
2023-08-20T18:00	16145	110	-59.6	-84.1	264	14
2023-08-20T18:00	16168	109	-59.4	-84.0	268	14
2023-08-20T18:00	16190	109	-59.3	-84.1	271	14
2023-08-20T18:00	16211	108	-59.2	-84.3	273	14
2023-08-20T18:00	16231	108	-58.8	-84.3	274	14
2023-08-20T18:00	16251	108	-58.4	-84.3	275	13
2023-08-20T18:00	16274	107	-57.3	-83.7	274	13
2023-08-20T18:00	16296	107	-56.9	-83.7	274	12
2023-08-20T18:00	16316	107	-56.9	-83.7	275	12
2023-08-20T18:00	16340	106	-57.0	-83.8	276	11
2023-08-20T18:00	16362	106	-57.1	-83.9	278	11
2023-08-20T18:00	16383	106	-57.3	-83.7	280	11
2023-08-20T18:00	16406	105	-57.3	-83.7	283	10
2023-08-20T18:00	16428	105	-57.4	-83.8	285	10
2023-08-20T18:00	16448	104	-57.4	-83.8	287	9
2023-08-20T18:00	16469	104	-57.5	-83.9	287	9
2023-08-20T18:00	16489	104	-57.5	-83.9	285	8
2023-08-20T18:00	16511	103	-57.4	-83.8	282	8
2023-08-20T18:00	16534	103	-57.2	-83.6	277	8
2023-08-20T18:00	16557	103	-57.1	-83.5	272	8
2023-08-20T18:00	16575	102	-57.2	-83.6	268	8
2023-08-20T18:00	16597	102	-57.3	-83.7	263	8
2023-08-20T18:00	16619	102	-57.5	-83.9	259	9
2023-08-20T18:00	16642	101	-57.6	-83.9	255	9
2023-08-20T18:00	16665	101	-57.7	-84.0	252	9
2023-08-20T18:00	16685	101	-57.8	-83.8	250	10
2023-08-20T18:00	16706	100	-57.9	-83.9	249	10
2023-08-20T18:00	16728	100	-58.1	-84.0	250	11
2023-08-20T18:00	16748	100	-58.2	-84.1	251	11
2023-08-20T18:00	16769	99	-58.2	-84.1	254	12
2023-08-20T18:00	16793	99	-58.3	-84.2	256	12
2023-08-20T18:00	16814	99	-58.3	-84.2	260	12
2023-08-20T18:00	16833	98	-58.3	-84.2	263	12
2023-08-20T18:00	16854	98	-58.4	-84.3	267	13
2023-08-20T18:00	16876	98	-58.3	-84.5	270	13
2023-08-20T18:00	16896	97	-58.2	-84.4	274	13
2023-08-20T18:00	16916	97	-58.0	-84.2	277	13
2023-08-20T18:00	16939	97	-58.0	-84.2	280	13
2023-08-20T18:00	16961	96	-58.0	-84.2	283	13
2023-08-20T18:00	16983	96	-58.0	-84.2	286	13
2023-08-20T18:00	17003	96	-58.0	-84.2	290	12
2023-08-20T18:00	17026	95	-58.1	-84.3	293	12
2023-08-20T18:00	17051	95	-58.1	-84.3	297	11
2023-08-20T18:00	17072	95	-58.1	-84.3	300	11
2023-08-20T18:00	17092	94	-58.1	-84.3	303	10
2023-08-20T18:00	17113	94	-57.9	-84.5	305	9
2023-08-20T18:00	17136	94	-57.7	-84.3	305	8
2023-08-20T18:00	17158	93	-57.6	-84.3	305	7
2023-08-20T18:00	17183	93	-57.7	-84.3	303	7
2023-08-20T18:00	17206	93	-57.7	-84.3	299	6
2023-08-20T18:00	17228	92	-57.8	-84.4	294	5
2023-08-20T18:00	17250	92	-58.0	-84.6	287	4
2023-08-20T18:00	17273	92	-57.9	-84.5	280	4
2023-08-20T18:00	17295	91	-57.9	-84.5	275	4
2023-08-20T18:00	17318	91	-57.8	-84.4	271	3
2023-08-20T18:00	17339	91	-57.8	-84.4	270	3
2023-08-20T18:00	17362	90	-57.9	-84.5	271	3
2023-08-20T18:00	17389	90	-57.9	-84.5	272	2
2023-08-20T18:00	17407	90	-58.1	-84.6	270	2
2023-08-20T18:00	17432	89	-58.2	-84.7	263	2
2023-08-20T18:00	17455	89	-58.2	-84.7	254	2
2023-08-20T18:00	17476	89	-58.1	-84.6	246	2
2023-08-20T18:00	17501	88	-58.1	-84.6	244	2
2023-08-20T18:00	17522	88	-58.2	-84.7	245	3
2023-08-20T18:00	17544	88	-58.3	-84.8	247	3
2023-08-20T18:00	17572	87	-58.2	-84.7	248	4
2023-08-20T18:00	17593	87	-58.2	-84.7	248	4
2023-08-20T18:00	17612	87	-58.3	-84.8	247	4
2023-08-20T18:00	17637	86	-58.5	-84.9	245	5
2023-08-20T18:00	17660	86	-58.5	-84.9	243	5
2023-08-20T18:00	17683	86	-58.7	-84.8	243	5
2023-08-20T18:00	17705	86	-58.9	-84.9	244	5
2023-08-20T18:00	17730	85	-59.1	-85.1	246	5
2023-08-20T18:00	17751	85	-59.1	-85.1	249	5
2023-08-20T18:00	17774	85	-59.1	-85.1	250	5
2023-08-20T18:00	17800	84	-59.1	-85.1	249	5
2023-08-20T18:00	17825	84	-59.1	-85.4	247	6
2023-08-20T18:00	17847	84	-59.0	-85.3	244	6
2023-08-20T18:00	17870	83	-58.8	-85.2	241	7
2023-08-20T18:00	17895	83	-58.8	-85.2	240	7
2023-08-20T18:00	17913	83	-58.9	-85.3	241	8
2023-08-20T18:00	17937	82	-59.0	-85.3	242	8
2023-08-20T18:00	17958	82	-59.1	-85.4	245	8
2023-08-20T18:00	17984	82	-59.2	-85.5	248	8
2023-08-20T18:00	18005	82	-59.2	-85.5	253	8
2023-08-20T18:00	18030	81	-59.3	-85.6	258	8
2023-08-20T18:00	18052	81	-59.3	-85.6	262	8
2023-08-20T18:00	18076	81	-59.0	-85.3	267	8
2023-08-20T18:00	18099	80	-58.8	-85.5	271	8
2023-08-20T18:00	18123	80	-58.8	-85.5	276	8
2023-08-20T18:00	18149	80	-58.7	-85.4	281	7
2023-08-20T18:00	18169	79	-58.6	-85.4	287	7
2023-08-20T18:00	18196	79	-58.6	-85.4	293	7
2023-08-20T18:00	18219	79	-58.5	-85.6	298	6
2023-08-20T18:00	18240	79	-58.3	-85.5	302	6
2023-08-20T18:00	18264	78	-58.3	-85.5	305	5
2023-08-20T18:00	18289	78	-58.0	-85.2	305	5
2023-08-20T18:00	18312	78	-57.8	-85.5	301	4
2023-08-20T18:00	18337	77	-57.6	-85.3	294	3
2023-08-20T18:00	18360	77	-57.5	-85.2	284	3
2023-08-20T18:00	18385	77	-57.7	-85.0	273	3
2023-08-20T18:00	18409	76	-57.8	-85.1	263	3
2023-08-20T18:00	18436	76	-57.9	-85.2	254	3
2023-08-20T18:00	18458	76	-58.0	-85.2	249	3
2023-08-20T18:00	18481	76	-57.7	-85.0	247	3
2023-08-20T18:00	18505	75	-57.4	-85.2	249	3
2023-08-20T18:00	18527	75	-57.3	-85.1	253	3
2023-08-20T18:00	18552	75	-57.4	-85.2	260	3
2023-08-20T18:00	18573	74	-57.5	-85.2	268	3
2023-08-20T18:00	18601	74	-57.5	-85.2	276	3
2023-08-20T18:00	18621	74	-57.3	-85.1	283	3
2023-08-20T18:00	18647	74	-57.3	-85.1	287	4
2023-08-20T18:00	18668	73	-57.4	-85.2	289	4
2023-08-20T18:00	18691	73	-57.3	-85.1	290	4
2023-08-20T18:00	18711	73	-57.3	-85.1	293	4
2023-08-20T18:00	18736	73	-57.2	-85.0	296	4
2023-08-20T18:00	18759	72	-57.2	-85.0	302	4
2023-08-20T18:00	18785	72	-57.1	-85.3	311	4
2023-08-20T18:00	18807	72	-57.0	-85.2	320	4
2023-08-20T18:00	18828	72	-56.9	-85.2	329	4
2023-08-20T18:00	18851	71	-56.9	-85.2	337	4
2023-08-20T18:00	18873	71	-56.9	-85.2	343	4
2023-08-20T18:00	18897	71	-56.9	-85.2	349	5
2023-08-20T18:00	18922	71	-56.9	-85.2	357	5
2023-08-20T18:00	18951	70	-56.7	-85.0	5	5
2023-08-20T18:00	18972	70	-56.7	-85.0	13	5
2023-08-20T18:00	18996	70	-56.4	-84.8	22	5
2023-08-20T18:00	19026	69	-56.4	-84.8	30	5
2023-08-20T18:00	19049	69	-56.6	-84.9	37	5
2023-08-20T18:00	19074	69	-56.7	-85.0	44	5
2023-08-20T18:00	19099	69	-56.8	-85.1	51	5
2023-08-20T18:00	19120	68	-56.9	-84.8	59	5
2023-08-20T18:00	19145	68	-57.0	-84.8	67	5
2023-08-20T18:00	19169	68	-57.1	-84.9	76	5
2023-08-20T18:00	19194	68	-57.2	-85.0	84	5
2023-08-20T18:00	19215	67	-57.3	-85.1	92	5
2023-08-20T18:00	19241	67	-57.4	-85.2	100	5
2023-08-20T18:00	19266	67	-57.5	-85.2	107	5
2023-08-20T18:00	19292	67	-57.6	-85.3	114	4
2023-08-20T18:00	19315	66	-57.7	-85.4	122	4
2023-08-20T18:00	19339	66	-57.9	-85.2	131	4
2023-08-20T18:00	19364	66	-58.1	-85.3	141	4
2023-08-20T18:00	19386	66	-58.2	-85.4	151	4
2023-08-20T18:00	19412	65	-58.3	-85.5	161	4
2023-08-20T18:00	19438	65	-58.4	-85.5	171	4
2023-08-20T18:00	19463	65	-58.4	-85.5	179	4
2023-08-20T18:00	19483	65	-58.3	-85.5	187	4
2023-08-20T18:00	19509	64	-58.3	-85.8	192	4
2023-08-20T18:00	19535	64	-58.2	-85.8	195	3
2023-08-20T18:00	19561	64	-58.2	-85.8	195	2
2023-08-20T18:00	19585	63	-58.2	-85.8	189	2
2023-08-20T18:00	19611	63	-58.1	-85.7	175	1
2023-08-20T18:00	19636	63	-58.1	-85.7	156	1
2023-08-20T18:00	19663	63	-58.1	-85.7	143	1
2023-08-20T18:00	19685	62	-58.0	-85.6	141	2
2023-08-20T18:00	19711	62	-57.9	-85.5	143	2
2023-08-20T18:00	19735	62	-57.8	-85.9	144	2
2023-08-20T18:00	19761	62	-57.8	-85.9	144	3
2023-08-20T18:00	19783	62	-57.7	-85.8	142	3
2023-08-20T18:00	19806	61	-57.6	-85.7	139	3
2023-08-20T18:00	19836	61	-57.6	-85.7	134	2
2023-08-20T18:00	19856	61	-57.5	-85.6	125	2
2023-08-20T18:00	19880	61	-57.5	-85.6	111	2
2023-08-20T18:00	19904	60	-57.5	-85.6	96	1
2023-08-20T18:00	19929	60	-57.4	-85.6	89	1
2023-08-20T18:00	19952	60	-57.3	-85.5	97	1
2023-08-20T18:00	19979	60	-57.2	-85.4	117	1
2023-08-20T18:00	20002	59	-56.9	-85.2	138	2
2023-08-20T18:00	20026	59	-56.9	-85.2	155	2
2023-08-20T18:00	20053	59	-57.1	-85.3	168	3
2023-08-20T18:00	20076	59	-57.2	-85.4	177	3
2023-08-20T18:00	20101	59	-57.4	-85.6	185	4
2023-08-20T18:00	20124	58	-57.4	-85.6	192	4
2023-08-20T18:00	20151	58	-57.4	-85.6	200	4
2023-08-20T18:00	20172	58	-57.3	-85.5	210	4
2023-08-20T18:00	20196	58	-57.3	-85.5	222	4
2023-08-20T18:00	20220	57	-57.4	-85.6	238	4
2023-08-20T18:00	20244	57	-57.4	-85.6	253	4
2023-08-20T18:00	20269	57	-57.4	-85.6	267	4
2023-08-20T18:00	20294	57	-57.3	-85.5	279	4
2023-08-20T18:00	20315	57	-57.1	-85.7	289	4
2023-08-20T18:00	20339	56	-56.7	-85.4	298	3
2023-08-20T18:00	20360	56	-56.5	-85.3	309	3
2023-08-20T18:00	20383	56	-56.3	-85.1	321	2
2023-08-20T18:00	20411	56	-56.3	-85.1	335	2
2023-08-20T18:00	20431	56	-56.3	-85.1	348	1
2023-08-20T18:00	20457	55	-56.1	-85.0	353	1
2023-08-20T18:00	20482	55	-56.0	-84.9	342	1
2023-08-20T18:00	20508	55	-55.9	-84.8	322	1
2023-08-20T18:00	20530	55	-55.9	-84.8	307	2
2023-08-20T18:00	20557	54	-55.9	-84.8	297	2
2023-08-20T18:00	20582	54	-55.9	-84.8	292	2
2023-08-20T18:00	20606	54	-55.8	-84.8	291	3
2023-08-20T18:00	20631	54	-55.7	-84.7	292	3
2023-08-20T18:00	20657	54	-55.5	-84.5	295	4
2023-08-20T18:00	20677	53	-55.5	-84.5	300	4
2023-08-20T18:00	20700	53	-55.4	-84.9	305	4
2023-08-20T18:00	20724	53	-55.3	-84.9	309	4
2023-08-20T18:00	20747	53	-55.2	-84.8	315	4
2023-08-20T18:00	20773	53	-55.1	-84.7	323	3
2023-08-20T18:00	20797	52	-54.9	-84.6	336	3
2023-08-20T18:00	20822	52	-54.8	-84.5	354	2
2023-08-20T18:00	20847	52	-54.8	-84.5	13	3
2023-08-20T18:00	20869	52	-54.8	-84.5	25	3
2023-08-20T18:00	20895	52	-54.8	-84.5	32	3
2023-08-20T18:00	20919	51	-54.8	-84.5	34	4
2023-08-20T18:00	20944	51	-54.8	-84.5	36	4
2023-08-20T18:00	20966	51	-54.7	-84.4	36	4
2023-08-20T18:00	20991	51	-54.6	-84.3	37	4
2023-08-20T18:00	21015	51	-54.7	-83.9	37	5
2023-08-20T18:00	21039	50	-54.8	-84.0	37	5
2023-08-20T18:00	21062	50	-54.9	-84.1	37	5
2023-08-20T18:00	21085	50	-55.0	-84.2	38	6
2023-08-20T18:00	21112	50	-55.2	-84.3	40	6
2023-08-20T18:00	21140	50	-55.3	-84.4	42	6
2023-08-20T18:00	21158	50	-55.5	-84.1	46	6
2023-08-20T18:00	21187	49	-55.6	-84.2	50	5
2023-08-20T18:00	21209	49	-55.7	-84.3	54	5
2023-08-20T18:00	21233	49	-55.8	-84.3	58	5
2023-08-20T18:00	21257	49	-55.8	-84.3	63	5
2023-08-20T18:00	21284	49	-55.8	-84.3	68	5
2023-08-20T18:00	21310	48	-55.9	-84.4	75	5
2023-08-20T18:00	21338	48	-56.0	-84.5	82	4
2023-08-20T18:00	21360	48	-56.1	-84.6	90	4
2023-08-20T18:00	21382	48	-56.2	-84.6	99	4
2023-08-20T18:00	21410	48	-56.3	-84.7	108	3
2023-08-20T18:00	21433	47	-56.4	-84.8	118	3
2023-08-20T18:00	21457	47	-56.3	-84.7	129	3
2023-08-20T18:00	21485	47	-56.4	-84.8	141	2
2023-08-20T18:00	21509	47	-56.4	-84.8	157	2
2023-08-20T18:00	21534	47	-56.4	-84.8	177	1
2023-08-20T18:00	21558	47	-56.3	-85.1	195	1
2023-08-20T18:00	21583	46	-56.3	-85.1	204	1
2023-08-20T18:00	21613	46	-56.2	-85.1	200	1
2023-08-20T18:00	21635	46	-56.3	-85.1	173	1
2023-08-20T18:00	21659	46	-56.3	-85.1	111	1
2023-08-20T18:00	21687	46	-56.2	-85.1	73	1
2023-08-20T18:00	21710	45	-56.2	-85.1	57	1
2023-08-20T18:00	21735	45	-56.2	-85.1	49	2
2023-08-20T18:00	21761	45	-56.2	-85.1	45	2
2023-08-20T18:00	21788	45	-56.2	-85.1	42	3
2023-08-20T18:00	21812	45	-56.2	-85.1	41	3
2023-08-20T18:00	21841	45	-56.1	-85.0	42	3
2023-08-20T18:00	21865	44	-56.1	-85.0	44	4
2023-08-20T18:00	21891	44	-56.2	-85.1	47	4
2023-08-20T18:00	21917	44	-56.1	-85.0	52	5
2023-08-20T18:00	21941	44	-56.1	-85.0	57	5
2023-08-20T18:00	21966	44	-56.0	-84.9	63	6
2023-08-20T18:00	21993	43	-56.0	-84.9	69	6
2023-08-20T18:00	22017	43	-55.9	-84.8	75	6
2023-08-20T18:00	22041	43	-56.1	-85.0	81	6
2023-08-20T18:00	22068	43	-56.2	-85.1	88	6
2023-08-20T18:00	22095	43	-56.3	-85.1	94	6
2023-08-20T18:00	22118	43	-56.2	-85.1	101	6
2023-08-20T18:00	22150	42	-56.1	-85.0	107	6
2023-08-20T18:00	22172	42	-56.1	-85.0	114	6
2023-08-20T18:00	22200	42	-56.2	-84.6	120	5
2023-08-20T18:00	22222	42	-56.3	-84.7	127	5
2023-08-20T18:00	22248	42	-56.4	-85.2	135	4
2023-08-20T18:00	22272	42	-56.4	-85.2	143	4
2023-08-20T18:00	22302	41	-56.3	-85.1	150	3
2023-08-20T18:00	22324	41	-56.2	-85.1	156	2
2023-08-20T18:00	22350	41	-56.1	-85.0	160	2
2023-08-20T18:00	22372	41	-56.0	-84.9	159	1
2023-08-20T18:00	22404	41	-55.8	-84.8	149	1
2023-08-20T18:00	22424	41	-55.7	-84.7	130	1
2023-08-20T18:00	22446	40	-55.7	-85.2	110	1
2023-08-20T18:00	22479	40	-55.7	-85.2	97	1
2023-08-20T18:00	22501	40	-55.5	-85.0	91	2
2023-08-20T18:00	22532	40	-55.5	-84.5	89	2
2023-08-20T18:00	22555	40	-55.5	-84.5	90	3
2023-08-20T18:00	22571	40	-55.6	-84.6	93	3
2023-08-20T18:00	22601	39	-55.6	-84.6	97	3
2023-08-20T18:00	22627	39	-55.7	-84.7	103	2
2023-08-20T18:00	22649	39	-55.8	-84.8	109	2
2023-08-20T18:00	22679	39	-55.6	-84.6	114	1
2023-08-20T18:00	22707	39	-55.4	-84.9	110	1
2023-08-20T18:00	22731	39	-55.3	-84.9	70	0
2023-08-20T18:00	22752	39	-55.2	-84.8	18	1
2023-08-20T18:00	22787	38	-55.1	-84.7	5	1
2023-08-20T18:00	22808	38	-55.2	-84.3	4	1
2023-08-20T18:00	22835	38	-55.3	-84.4	6	2
2023-08-20T18:00	22865	38	-55.6	-84.6	11	2
2023-08-20T18:00	22886	38	-55.8	-84.8	16	3
2023-08-20T18:00	22910	38	-55.7	-84.7	21	3
2023-08-20T18:00	22934	37	-55.6	-84.6	23	3
2023-08-20T18:00	22959	37	-55.4	-84.5	24	3
2023-08-20T18:00	22986	37	-55.2	-84.8	24	3
2023-08-20T18:00	23016	37	-55.3	-84.9	25	3
2023-08-20T18:00	23039	37	-55.4	-84.9	28	3
2023-08-20T18:00	23066	37	-55.5	-85.0	36	3
2023-08-20T18:00	23092	37	-55.3	-84.9	46	3
2023-08-20T18:00	23114	36	-55.2	-84.8	56	3
2023-08-20T18:00	23137	36	-55.1	-84.7	65	3
2023-08-20T18:00	23166	36	-55.1	-84.7	72	2
2023-08-20T18:00	23193	36	-55.1	-84.7	75	2
2023-08-20T18:00	23216	36	-55.1	-84.7	72	2
2023-08-20T18:00	23246	36	-55.1	-84.7	58	1
2023-08-20T18:00	23273	36	-55.0	-84.6	27	1
2023-08-20T18:00	23295	35	-55.2	-84.8	5	1
2023-08-20T18:00	23321	35	-55.3	-84.9	359	2
2023-08-20T18:00	23348	35	-55.4	-84.9	359	2
2023-08-20T18:00	23378	35	-55.1	-84.7	3	2
2023-08-20T18:00	23398	35	-54.9	-84.6	10	3
2023-08-20T18:00	23426	35	-55.0	-84.6	21	3
2023-08-20T18:00	23451	35	-54.8	-84.5	35	3
2023-08-20T18:00	23479	34	-54.6	-84.8	47	3
2023-08-20T18:00	23507	34	-54.4	-84.7	57	4
2023-08-20T18:00	23535	34	-54.2	-84.5	64	4
2023-08-20T18:00	23553	34	-54.0	-84.4	68	4
2023-08-20T18:00	23580	34	-53.9	-84.3	70	4
2023-08-20T18:00	23609	34	-53.8	-84.2	69	4
2023-08-20T18:00	23634	34	-53.8	-84.2	64	3
2023-08-20T18:00	23663	33	-53.8	-84.2	54	3
2023-08-20T18:00	23685	33	-53.7	-84.2	39	3
2023-08-20T18:00	23708	33	-53.7	-84.2	24	3
2023-08-20T18:00	23736	33	-53.7	-84.2	14	4
2023-08-20T18:00	23765	33	-53.8	-84.2	9	4
2023-08-20T18:00	23793	33	-53.8	-84.2	8	5
2023-08-20T18:00	23815	33	-53.7	-84.2	10	5
2023-08-20T18:00	23839	33	-53.5	-84.0	15	6
2023-08-20T18:00	23865	32	-53.5	-84.0	23	6
2023-08-20T18:00	23898	32	-53.3	-83.9	32	6
2023-08-20T18:00	23918	32	-53.1	-84.3	42	6
2023-08-20T18:00	23942	32	-52.9	-84.1	50	7
2023-08-20T18:00	23971	32	-52.8	-84.1	57	7
2023-08-20T18:00	23992	32	-52.7	-84.0	61	7
2023-08-20T18:00	24017	32	-52.8	-83.5	64	6
2023-08-20T18:00	24043	32	-52.9	-83.6	65	6
2023-08-20T18:00	24071	31	-52.9	-83.6	67	6
2023-08-20T18:00	24100	31	-52.9	-83.6	69	6
2023-08-20T18:00	24125	31	-52.8	-83.5	72	6
2023-08-20T18:00	24150	31	-52.6	-83.9	76	7
2023-08-20T18:00	24179	31	-52.4	-83.8	78	7
2023-08-20T18:00	24202	31	-52.4	-83.8	79	7
2023-08-20T18:00	24230	31	-52.6	-83.9	80	7
2023-08-20T18:00	24248	31	-52.4	-83.8	80	7
2023-08-20T18:00	24288	30	-52.3	-83.7	80	7
2023-08-20T18:00	24303	30	-52.5	-83.3	82	6
2023-08-20T18:00	24337	30	-52.6	-83.3	84	6
2023-08-20T18:00	24364	30	-52.6	-83.3	86	5
2023-08-20T18:00	24386	30	-52.5	-83.3	88	5
2023-08-20T18:00	24418	30	-52.5	-83.3	87	4
2023-08-20T18:00	24439	30	-52.6	-83.3	84	4
2023-08-20T18:00	24468	30	-52.5	-83.3	79	3
2023-08-20T18:00	24497	29	-52.5	-83.3	72	3
2023-08-20T18:00	24525	29	-52.5	-83.3	65	3
2023-08-20T18:00	24554	29	-52.5	-83.8	60	3
2023-08-20T18:00	24580	29	-52.4	-83.8	56	3
2023-08-20T18:00	24602	29	-52.4	-83.8	53	3
2023-08-20T18:00	24637	29	-52.2	-83.6	51	4
2023-08-20T18:00	24658	29	-52.0	-83.5	48	4
2023-08-20T18:00	24692	29	-51.8	-83.3	47	4
2023-08-20T18:00	24720	28	-51.9	-83.4	47	4
2023-08-20T18:00	24747	28	-52.0	-83.5	47	5
2023-08-20T18:00	24772	28	-52.0	-83.5	48	6
2023-08-20T18:00	24801	28	-52.0	-83.5	49	7
2023-08-20T18:00	24828	28	-52.0	-83.5	51	8
2023-08-20T18:00	24858	28	-52.0	-83.5	53	8
2023-08-20T18:00	24884	28	-52.0	-83.5	55	9
2023-08-20T18:00	24913	28	-52.0	-83.5	58	9
2023-08-20T18:00	24940	27	-52.0	-83.5	63	9
2023-08-20T18:00	24968	27	-52.1	-83.5	68	8
2023-08-20T18:00	24991	27	-52.0	-83.5	73	8
2023-08-20T18:00	25022	27	-51.8	-83.3	79	8
2023-08-20T18:00	25047	27	-51.7	-83.2	85	8
2023-08-20T18:00	25079	27	-51.6	-83.2	89	8
2023-08-20T18:00	25109	27	-51.6	-83.2	92	8
2023-08-20T18:00	25138	27	-51.4	-83.6	94	7
2023-08-20T18:00	25165	27	-51.1	-83.4	94	7
2023-08-20T18:00	25187	26	-50.9	-83.3	94	7
2023-08-20T18:00	25218	26	-50.8	-83.2	93	7
2023-08-20T18:00	25243	26	-50.8	-83.2	92	7
2023-08-20T18:00	25276	26	-50.6	-83.1	91	7
2023-08-20T18:00	25302	26	-50.4	-82.9	90	8
2023-08-20T18:00	25328	26	-50.2	-82.8	90	8
2023-08-20T18:00	25354	26	-50.1	-82.7	91	8
2023-08-20T18:00	25392	26	-50.1	-82.7	93	8
2023-08-20T18:00	25412	26	-50.1	-82.7	95	8
2023-08-20T18:00	25444	25	-50.1	-82.7	97	8
2023-08-20T18:00	25470	25	-50.1	-82.7	99	9
2023-08-20T18:00	25500	25	-50.2	-82.8	101	9
2023-08-20T18:00	25525	25	-50.3	-82.2	103	9
2023-08-20T18:00	25557	25	-50.5		106	8
2023-08-20T18:00	25579	25	-50.5		111	8
2023-08-20T18:00	25615	25	-50.5		117	7
2023-08-20T18:00	25643	25	-50.6	-82.4	124	7
2023-08-20T18:00	25667	25	-50.7	-82.5	133	6
2023-08-20T18:00	25703	24	-50.8	-82.6	142	6
2023-08-20T18:00	25728	24	-50.9	-82.7	150	6
2023-08-20T18:00	25763	24	-50.9	-82.7	157	6
2023-08-20T18:00	25789	24	-50.9	-82.7	161	6
2023-08-20T18:00	25814	24	-50.9	-82.7	165	7
2023-08-20T18:00	25845	24	-51.0	-82.7	168	6
2023-08-20T18:00	25878	24	-51.0	-83.3	170	6
2023-08-20T18:00	25898	24	-50.7	-83.1	172	5
2023-08-20T18:00	25929	24	-50.5	-83.0	173	4
2023-08-20T18:00	25966	23	-50.5	-83.0	173	3
2023-08-20T18:00	25987	23	-50.5	-83.0	171	2
2023-08-20T18:00	26015	23	-50.5	-83.0	167	1
2023-08-20T18:00	26045	23	-50.6	-83.1	19	0
2023-08-20T18:00	26062	23	-50.6	-83.1	359	2
2023-08-20T18:00	26104	23	-50.5	-83.0	359	3
2023-08-20T18:00	26125	23	-50.3	-82.8	1	3
2023-08-20T18:00	26147	23	-50.2	-82.8	5	4
2023-08-20T18:00	26180	23	-50.2	-82.8	12	4
2023-08-20T18:00	26209	23	-50.4	-82.9	21	4
2023-08-20T18:00	26231	23	-50.4	-82.9	32	4
2023-08-20T18:00	26260	22	-50.1	-82.7	43	4
2023-08-20T18:00	26288	22	-49.8	-82.5	52	4
2023-08-20T18:00	26309	22	-49.7	-82.4	57	5
2023-08-20T18:00	26350	22	-49.5	-82.3	59	5
2023-08-20T18:00	26378	22	-49.6	-82.3	59	5
2023-08-20T18:00	26405	22	-49.6	-82.3	60	5
2023-08-20T18:00	26420	22	-49.5	-82.3	61	6
2023-08-20T18:00	26460	22	-49.6	-82.3	63	5
2023-08-20T18:00	26478	22	-49.5	-82.3	64	5
2023-08-20T18:00	26502	22	-49.4	-82.2	65	5
2023-08-20T18:00	26537	22	-49.3	-82.1	66	4
2023-08-20T18:00	26567	21	-49.1	-82.7	70	4
2023-08-20T18:00	26593	21	-49.0	-82.6	76	3
2023-08-20T18:00	26618	21	-48.8	-82.4	86	3
2023-08-20T18:00	26647	21	-48.7	-82.4	99	2
2023-08-20T18:00	26679	21	-48.5	-82.2	114	2
2023-08-20T18:00	26696	21	-48.4	-82.2	130	2
2023-08-20T18:00	26733	21	-48.2	-82.0	144	2
2023-08-20T18:00	26765	21	-48.3	-82.1	155	1
2023-08-20T18:00	26788	21	-48.4	-82.2	154	1
2023-08-20T18:00	26822	21	-48.2	-82.0	127	1
2023-08-20T18:00	26844	21	-48.1	-81.9	79	1
2023-08-20T18:00	26883	20	-47.9	-81.8	59	2
2023-08-20T18:00	26901	20	-47.8	-81.7	52	2
2023-08-20T18:00	26931	20	-47.7	-81.6	49	3
2023-08-20T18:00	26960	20	-47.5	-81.5	49	4
2023-08-20T18:00	26993	20	-47.3	-81.4	50	4
2023-08-20T18:00	27016	20	-47.2	-81.3	52	4
2023-08-20T18:00	27042	20	-47.2	-81.3	53	5
2023-08-20T18:00	27073	20	-47.3	-81.4	53	5
2023-08-20T18:00	27103	20	-47.4	-81.4	52	5
2023-08-20T18:00	27125	20	-47.4	-81.4	50	4
2023-08-20T18:00	27154	20	-47.3	-81.4	46	4
2023-08-20T18:00	27183	19	-47.3	-81.4	42	4
2023-08-20T18:00	27216	19	-47.3	-81.4	38	4
2023-08-20T18:00	27241	19	-47.3	-81.4	36	3
2023-08-20T18:00	27270	19	-47.3	-81.4	35	3
2023-08-20T18:00	27309	19	-47.2	-81.3	36	3
2023-08-20T18:00	27327	19	-47.2	-81.3	39	4
2023-08-20T18:00	27362	19	-47.3	-81.4	44	4
2023-08-20T18:00	27384	19	-47.2	-81.3	48	4
2023-08-20T18:00	27416	19	-47.0	-81.1	50	4
2023-08-20T18:00	27445	19	-46.9	-81.9	51	4
2023-08-20T18:00	27476	19	-46.7	-81.7	51	4
2023-08-20T18:00	27502	19	-46.4	-81.5	52	4
2023-08-20T18:00	27522	19	-46.2	-81.4	55	4
2023-08-20T18:00	27564	18	-46.0	-81.2	63	4
2023-08-20T18:00	27586	18	-45.9	-81.2	72	4
2023-08-20T18:00	27608	18	-45.9	-81.2	81	4
2023-08-20T18:00	27637	18	-45.8	-81.1	89	4
2023-08-20T18:00	27666	18	-45.8	-81.1	96	4
2023-08-20T18:00	27696	18	-45.7	-81.0	101	4
2023-08-20T18:00	27731	18	-45.7	-81.0	105	3
2023-08-20T18:00	27754	18	-45.7	-81.0	106	2
2023-08-20T18:00	27783	18	-45.6	-80.9	103	2
2023-08-20T18:00	27813	18	-45.5	-80.9	88	1
2023-08-20T18:00	27838	18	-45.5	-80.9	49	1
2023-08-20T18:00	27859	18	-45.5	-80.9	15	1
2023-08-20T18:00	27899	18	-45.3	-80.7	7	2
2023-08-20T18:00	27911	17	-45.2	-80.7	8	2
2023-08-20T18:00	27950	17	-45.1	-80.6	13	2
2023-08-20T18:00	27985	17	-45.0	-80.5	19	3
2023-08-20T18:00	28010	17	-44.7	-80.3	24	3
2023-08-20T18:00	28037	17	-44.5	-80.1	28	4
2023-08-20T18:00	28065	17	-44.3	-80.0	32	4
2023-08-20T18:00	28087	17	-44.2	-80.9	35	5
2023-08-20T18:00	28116	17	-43.9	-80.7	37	5
2023-08-20T18:00	28143	17	-43.7	-80.5	38	6
2023-08-20T18:00	28186	17	-43.7	-80.5	39	6
2023-08-20T18:00	28209	17	-43.7	-80.5	39	6
2023-08-20T18:00	28234	17	-43.6	-80.4	40	6
2023-08-20T18:00	28268	17	-43.3	-80.2	41	7
2023-08-20T18:00	28287	17	-43.2	-80.2	42	7
2023-08-20T18:00	28314	16	-43.2	-80.2	43	7
2023-08-20T18:00	28339	16	-43.2	-80.2	42	7
2023-08-20T18:00	28370	16	-43.2	-80.2	42	7
2023-08-20T18:00	28396	16	-43.4	-80.3	40	7
2023-08-20T18:00	28432	16	-43.5	-79.4	39	6
2023-08-20T18:00	28459	16	-43.6	-79.5	37	6
2023-08-20T18:00	28482	16	-43.7	-79.6	35	5
2023-08-20T18:00	28513	16	-43.7	-79.6	34	4
2023-08-20T18:00	28536	16	-43.8	-79.6	35	3
2023-08-20T18:00	28568	16	-43.9	-79.7	38	3
2023-08-20T18:00	28588	16	-44.0	-79.8	46	2
2023-08-20T18:00	28616	16	-44.0	-79.8	69	1
2023-08-20T18:00	28656	16	-44.1	-79.9	138	1
2023-08-20T18:00	28683	16	-44.1	-79.9	186	1
2023-08-20T18:00	28711	16	-44.2	-79.9	205	2
2023-08-20T18:00	28734	15	-44.3	-80.0	220	2
2023-08-20T18:00	28770	15	-44.0	-80.7	234	2
2023-08-20T18:00	28805	15	-43.8	-80.6	255	1
2023-08-20T18:00	28822	15	-43.7	-80.5	285	1
2023-08-20T18:00	28857	15	-43.6	-80.4	321	1
2023-08-20T18:00	28886	15	-43.4	-80.3	348	2
2023-08-20T18:00	28908	15	-43.3	-80.2	5	2
2023-08-20T18:00	28941	15	-43.3	-80.2	18	3
2023-08-20T18:00	28967	15	-43.4	-80.3	27	3
2023-08-20T18:00	28987	15	-43.5	-80.4	33	4
2023-08-20T18:00	29012	15	-43.5	-80.4	37	5
2023-08-20T18:00	29055	15	-43.3	-80.2	39	5
2023-08-20T18:00	29073	15	-43.1	-80.1	39	5
2023-08-20T18:00	29106	15	-42.9	-80.0	38	5
2023-08-20T18:00	29129	15	-42.7	-79.8	35	5
2023-08-20T18:00	29152	15	-42.5	-79.7	31	4
2023-08-20T18:00	29197	14	-42.4	-79.6	24	4
2023-08-20T18:00	29212	14	-42.4	-79.6	14	3
2023-08-20T18:00	29245	14	-42.4	-79.6	2	3
2023-08-20T18:00	29261	14	-42.4	-79.6	349	3
2023-08-20T18:00	29300	14	-42.5	-79.7	339	3
2023-08-20T18:00	29322	14	-42.7	-79.8	334	4
2023-08-20T18:00	29349	14	-42.8	-79.9	333	4
2023-08-20T18:00	29380	14	-42.7	-79.8	334	5
2023-08-20T18:00	29401	14	-42.3	-79.5	337	5
2023-08-20T18:00	29434	14	-42.0	-79.3	340	6
2023-08-20T18:00	29473	14	-41.9	-79.2	344	6
2023-08-20T18:00	29489	14	-41.7	-80.2	347	6
2023-08-20T18:00	29523	14	-41.7	-80.2	352	7
2023-08-20T18:00	29557	14	-41.6	-80.1	356	7
2023-08-20T18:00	29592	14	-41.5	-80.1	2	7
2023-08-20T18:00	29606	14	-41.1	-79.8	7	7
2023-08-20T18:00	29638	14	-41.0	-79.7	12	7
2023-08-20T18:00	29668	13	-41.0	-79.7	18	7
2023-08-20T18:00	29701	13	-40.9	-79.7	25	7
2023-08-20T18:00	29725	13	-40.9	-79.7	32	8
2023-08-20T18:00	29768	13	-40.7	-79.5	40	8
2023-08-20T18:00	29784	13	-40.7	-79.5	46	7
2023-08-20T18:00	29822	13	-40.7	-79.5	51	7
2023-08-20T18:00	29847	13	-40.6	-79.5	55	7
2023-08-20T18:00	29891	13	-40.4	-79.3	57	6
2023-08-20T18:00	29925	13	-40.3	-79.2	59	6
2023-08-20T18:00	29952	13	-40.2	-79.2	61	5
2023-08-20T18:00	29993	13	-40.2	-79.2	63	5
2023-08-20T18:00	30001	13	-40.1	-79.1	62	4
2023-08-20T18:00	30033	13	-40.1	-79.1	59	4
2023-08-20T18:00	30066	13	-40.1	-79.1	52	4
2023-08-20T18:00	30107	13	-40.1	-79.1	43	4
2023-08-20T18:00	30122	13	-40.0	-79.0	36	5
2023-08-20T18:00	30151	13	-39.9	-79.0	32	5
2023-08-20T18:00	30176	12	-39.6	-78.8	31	6
2023-08-20T18:00	30207	12	-39.4	-78.6	33	6
2023-08-20T18:00	30243	12	-39.2	-78.5	36	7
2023-08-20T18:00	30264	12	-39.1	-78.4	39	8
2023-08-20T18:00	30292	12	-39.0	-78.3	41	8
2023-08-20T18:00	30341	12	-38.9	-78.3	44	9
2023-08-20T18:00	30368	12	-38.8	-78.2	47	9
2023-08-20T18:00	30392	12	-38.9	-78.3	51	10
2023-08-20T18:00	30432	12	-38.9	-78.3	55	10
2023-08-20T18:00	30457	12	-38.6	-78.1	60	10
2023-08-20T18:00	30502	12	-38.3	-77.9	63	9
2023-08-20T18:00	30524	12	-38.2	-77.8	67	9
2023-08-20T18:00	30551	12	-38.3	-77.9	70	8
2023-08-20T18:00	30587	12	-38.4	-77.9	73	7
2023-08-20T18:00	30611	12	-38.4	-77.9	78	7
2023-08-20T18:00	30638	12	-38.4	-77.9	84	6
2023-08-20T18:00	30667	12	-38.5	-78.0	90	6
2023-08-20T18:00	30706	12	-38.7	-78.1	97	5
2023-08-20T18:00	30743	12	-38.8	-78.2	102	5
2023-08-20T18:00	30767	11	-39.0	-78.3	104	5
2023-08-20T18:00	30795	11	-38.9	-78.3	101	5
2023-08-20T18:00	30820	11	-38.9	-78.3	94	5
2023-08-20T18:00	30880	11	-39.0	-78.3	87	5
2023-08-20T18:00	30893	11	-39.0	-78.3	80	5
2023-08-20T18:00	30902	11	-39.0	-78.3	76	5
2023-08-20T18:00	30945	11	-39.1	-78.4	74	6
2023-08-20T18:00	30994	11	-39.2	-78.5	73	6
2023-08-20T18:00	31012	11	-39.3	-78.5	73	6
2023-08-20T18:00	31042	11	-39.4	-78.6	73	7
2023-08-20T18:00	31055	11	-39.5	-78.7	73	7
2023-08-20T18:00	31096	11	-39.4	-78.6	73	7
2023-08-20T18:00	31110	11	-39.4	-78.6	73	8
2023-08-20T18:00	31144	11	-39.4	-78.6	72	8
2023-08-20T18:00	31179	11	-39.4	-78.6	71	8
2023-08-20T18:00	31207	11	-39.4	-78.6	70	8
2023-08-20T18:00	31243	11	-39.2	-78.5	68	8
2023-08-20T18:00	31265	11	-39.0	-78.3	65	8
2023-08-20T18:00	31278	11	-38.9	-78.3	62	7
2023-08-20T18:00	31320	11	-38.8	-78.2	58	7
2023-08-20T18:00	31338	11	-38.9	-78.3	53	6
2023-08-20T18:00	31375	11	-39.0	-78.3	48	6
2023-08-20T18:00	31423	10	-39.2	-78.5	45	6
2023-08-20T18:00	31443	10	-39.4	-78.6	43	6
2023-08-20T18:00	31457	10	-39.4	-78.6	42	6
2023-08-20T18:00	31474	10	-39.4	-78.6	42	7
2023-08-20T18:00	31521	10	-39.3	-78.5	43	8
2023-08-20T18:00	31536	10	-39.3	-78.5	44	8
2023-08-20T18:00	31582	10	-39.3	-78.5	45	9
2023-08-20T18:00	31606	10	-39.4	-78.6	48	9
2023-08-20T18:00	31634	10	-39.4	-78.6	51	10
2023-08-20T18:00	31647	10	-39.2	-78.5	56	10
2023-08-20T18:00	31685	10	-39.3	-78.5	60	11
2023-08-20T18:00	31726	10	-39.3	-78.5	64	12
2023-08-20T18:00	31765	10	-39.1	-78.4	66	12
2023-08-20T18:00	31793	10	-38.9	-78.3	69	12
2023-08-20T18:00	31824	10	-38.8	-78.2	71	12
2023-08-20T18:00	31852	10	-38.8	-78.2	73	12
2023-08-20T18:00	31887	10	-38.8	-78.2	75	12
2023-08-20T18:00	31916	10	-38.7	-78.1	77	11
2023-08-20T18:00	31942	10	-38.5	-78.0	79	11
2023-08-20T18:00	31958	10	-38.3	-77.9	80	10
2023-08-20T18:00	31990	10	-38.3	-77.9	81	10
2023-08-20T18:00	32033	10	-38.2	-77.8	81	9
2023-08-20T18:00	32048	10	-38.0	-77.6	82	9
2023-08-20T18:00	32064	9	-38.0	-77.6	83	9
2023-08-20T18:00	32109	9	-38.0	-77.6	85	9
2023-08-20T18:00	32130	9	-38.1	-77.7	87	8
2023-08-20T18:00	32167	9	-38.2	-77.8	90	8
2023-08-20T18:00	32204	9	-38.1	-77.7	92	8
2023-08-20T18:00	32219	9	-38.2	-77.8	94	8
2023-08-20T18:00	32247	9	-38.1	-77.7	94	8
2023-08-20T18:00	32275	9	-38.0	-77.6	92	7
2023-08-20T18:00	32310	9	-37.9	-77.6	89	7
2023-08-20T18:00	32338	9	-37.9	-77.6	83	7
2023-08-20T18:00	32377	9	-37.9	-77.6	78	7
2023-08-20T18:00	32408	9	-37.6	-77.4	72	6
2023-08-20T18:00	32409	9	-37.6	-77.4	67	6
2023-08-20T18:00	32453	9	-37.6	-77.4	61	6
2023-08-20T18:00	32484	9	-37.4	-77.2	57	5
2023-08-20T18:00	32518	9	-37.4	-77.2	53	5
2023-08-20T18:00	32545	9	-37.3	-77.2	50	6
2023-08-20T18:00	32565	9	-37.2	-77.1	48	6
2023-08-20T18:00	32589	9	-37.0	-77.0	48	7
2023-08-20T18:00	32624	9	-37.0	-77.0	49	7
2023-08-20T18:00	32641	9	-37.0	-77.0	51	8
2023-08-20T18:00	32709	9	-36.9	-76.9	53	9
2023-08-20T18:00	32714	9	-36.8	-76.8	56	9
2023-08-20T18:00	32749	9	-36.8	-76.8	59	9
2023-08-20T18:00	32775	9	-36.9	-76.9	63	9
2023-08-20T18:00	32785	9	-37.0	-77.0	67	9
2023-08-20T18:00	32816	9	-37.1	-77.0	72	9
2023-08-20T18:00	32873	8	-37.3	-77.2	77	9
2023-08-20T18:00	32887	8	-37.4	-77.2	82	9
2023-08-20T18:00	32904	8	-37.3	-77.2	88	8
2023-08-20T18:00	32932	8	-37.3	-77.2	94	8
2023-08-20T18:00	32977	8	-37.2	-77.1	100	8
2023-08-20T18:00	33009	8	-37.1	-77.0	105	8
2023-08-20T18:00	33040	8	-36.9	-76.9	108	7
2023-08-20T18:00	33059	8	-36.7	-76.7	110	7
2023-08-20T18:00	33087	8	-36.6	-76.7	109	6
2023-08-20T18:00	33109	8	-36.5	-76.6	106	6
2023-08-20T18:00	33153	8	-36.2	-76.4	101	5
2023-08-20T18:00	33186	8	-36.0	-76.3	96	5
2023-08-20T18:00	33196	8	-35.9	-76.2	94	4
2023-08-20T18:00	33234	8	-35.8	-76.1	94	4
2023-08-20T18:00	33258	8	-35.6	-76.0	97	4
2023-08-20T18:00	33303	8	-35.5	-75.9	99	5
2023-08-20T18:00	33324	8	-35.3	-75.8	100	5
2023-08-20T18:00	33352	8	-35.3	-75.8	98	5
2023-08-20T18:00	33385	8	-35.3	-75.8	93	5
2023-08-20T18:00	33418	8	-35.2	-75.7	85	5
2023-08-20T18:00	33446	8	-35.1	-75.6	77	5
2023-08-20T18:00	33483	8	-35.0	-75.6	70	5
2023-08-20T18:00	33491	8	-34.8	-75.4	67	5
2023-08-20T18:00	33527	8	-34.6	-75.3	68	5
2023-08-20T18:00	33535	8	-34.6	-75.3	71	6
2023-08-20T18:00	33563	8	-34.5	-75.2	76	7
2023-08-20T18:00	33611	8	-34.6	-75.3	80	7
2023-08-20T18:00	33657	8	-34.6	-75.3	84	7
2023-08-20T18:00	33678	8	-34.5	-75.2	89	7
2023-08-20T18:00	33731	7	-34.2	-75.0	99	7
2023-08-20T18:00	33743	7	-34.1	-75.0	103	7
2023-08-20T18:00	33784	7	-34.3	-75.1	106	7
2023-08-20T18:00	33813	7	-34.3	-75.1	108	7
2023-08-20T18:00	33830	7	-34.4	-75.2	108	6
2023-08-20T18:00	33834	7	-34.5	-75.2	107	6
2023-08-20T18:00	33899	7	-34.5	-75.2	105	6
2023-08-20T18:00	33908	7	-34.7	-75.4	103	6
2023-08-20T18:00	33957	7	-34.8	-75.4	103	6
2023-08-20T18:00	33964	7	-34.7	-75.4	103	5
2023-08-20T18:00	34011	7	-34.5	-75.2	103	5
2023-08-20T18:00	34045	7	-34.6	-75.3	103	5
2023-08-20T18:00	34055	7	-34.8	-75.4	101	5
2023-08-20T18:00	34104	7	-34.8	-75.4	98	4
2023-08-20T18:00	34105	7	-34.8	-75.4	92	4
2023-08-20T18:00	34136	7	-34.8	-75.4	86	4
2023-08-20T18:00	34149	7	-34.7	-75.4	79	4
2023-08-20T18:00	34177	7	-34.5	-75.2	72	4
2023-08-20T18:00	34224	7	-34.4	-75.2	69	4
2023-08-20T18:00	34239	7	-34.4	-75.2	68	3
2023-08-20T18:00	34286	7	-34.4	-75.2	70	4
2023-08-20T18:00	34304	7	-34.4	-75.2	75	4
2023-08-20T18:00	34320	7	-34.4	-75.2	81	4
2023-08-20T18:00	34364	7	-34.1	-75.0	87	5
2023-08-20T18:00	34370	7	-33.7	-74.7	93	5
2023-08-20T18:00	34424	7	-33.7	-74.7	98	6
2023-08-21T00:00	112	1009	21.2	18.8	80	3
2023-08-21T00:00	132	1007	21.2	18.9	63	3
2023-08-21T00:00	156	1004	21.0		65	5
2023-08-21T00:00	176	1002	20.8	18.4	64	6
2023-08-21T00:00	195	999	20.7	18.1	63	7
2023-08-21T00:00	218	997	20.9	17.4	63	8
2023-08-21T00:00	238	995	21.0	16.8	63	8
2023-08-21T00:00	259	992	21.2	17.0	64	8
2023-08-21T00:00	286	989	21.4	17.8	66	7
2023-08-21T00:00	309	986	21.5	17.8	67	6
2023-08-21T00:00	337	983	22.0	18.1	68	5
2023-08-21T00:00	362	981	22.2	18.9	68	4
2023-08-21T00:00	386	978	22.2	18.7	66	4
2023-08-21T00:00	412	975	22.3	18.0	61	3
2023-08-21T00:00	437	972	22.6	17.2	52	2
2023-08-21T00:00	461	969	22.6	16.1	43	2
2023-08-21T00:00	485	967	22.6	14.6	34	2
2023-08-21T00:00	507	964	22.5	14.3	29	1
2023-08-21T00:00	534	961	22.4	13.5	22	1
2023-08-21T00:00	554	959	22.3	13.0	356	1
2023-08-21T00:00	579	956	22.2	12.3	287	1
2023-08-21T00:00	604	954	22.1	11.6	267	1
2023-08-21T00:00	629	951	22.5	10.2	264	2
2023-08-21T00:00	654	948	22.8	10.0	267	3
2023-08-21T00:00	679	946	22.6	10.2	271	3
2023-08-21T00:00	700	943	22.4	10.3	276	3
2023-08-21T00:00	722	941	22.2	10.4	282	4
2023-08-21T00:00	743	938	22.0	10.4	288	4
2023-08-21T00:00	764	936	21.8	10.6	292	4
2023-08-21T00:00	787	934	21.6	10.7	294	4
2023-08-21T00:00	815	931	21.4	10.8	295	4
2023-08-21T00:00	838	928	21.1	10.7	297	5
2023-08-21T00:00	863	926	20.9	11.0	300	5
2023-08-21T00:00	887	923	20.7	11.0	304	6
2023-08-21T00:00	909	921	20.5	11.0	307	6
2023-08-21T00:00	930	918	20.4	11.1	308	7
2023-08-21T00:00	962	915	20.2	11.2	309	7
2023-08-21T00:00	989	912	20.0	11.2	308	7
2023-08-21T00:00	1011	910	19.8	11.2	307	7
2023-08-21T00:00	1031	908	19.7	11.4	306	7
2023-08-21T00:00	1055	905	19.5	11.3	305	7
2023-08-21T00:00	1075	903	19.4	11.3	305	7
2023-08-21T00:00	1094	901	19.2	11.4	303	8
2023-08-21T00:00	1116	899	19.1	11.4	301	8
2023-08-21T00:00	1138	897	19.0	11.2	299	9
2023-08-21T00:00	1159	894	18.8	11.1	297	9
2023-08-21T00:00	1183	892	18.8	10.5	296	10
2023-08-21T00:00	1209	889	18.6	10.4	296	10
2023-08-21T00:00	1235	887	18.3	10.4	296	10
2023-08-21T00:00	1255	884	18.1	10.4	296	10
2023-08-21T00:00	1277	882	17.9	10.4	295	10
2023-08-21T00:00	1303	879	17.6	10.3	293	10
2023-08-21T00:00	1328	877	17.6	10.4	291	10
2023-08-21T00:00	1353	874	17.3	10.3	289	9
2023-08-21T00:00	1383	871	17.0	10.2	287	9
2023-08-21T00:00	1407	869	16.8	10.3	285	9
2023-08-21T00:00	1433	866	16.6	10.3	283	8
2023-08-21T00:00	1455	864	16.4	10.3	281	7
2023-08-21T00:00	1483	861	16.2	10.3	279	7
2023-08-21T00:00	1512	858	15.9	10.4	277	6
2023-08-21T00:00	1538	855	15.6	10.3	275	6
2023-08-21T00:00	1566	853	15.4	10.7	273	5
2023-08-21T00:00	1594	850	15.2	10.7	272	5
2023-08-21T00:00	1616	848	15.0	10.9	270	5
2023-08-21T00:00	1641	845	14.8	10.8	268	5
2023-08-21T00:00	1662	843	14.5	10.7	266	5
2023-08-21T00:00	1685	841	14.4	10.8	264	4
2023-08-21T00:00	1707	839	14.2	10.6	264	4
2023-08-21T00:00	1729	836	14.0	10.2	266	4
2023-08-21T00:00	1752	834	13.8	10.3	268	4
2023-08-21T00:00	1775	832	13.6	10.1	269	5
2023-08-21T00:00	1795	830	13.4	9.9	268	5
2023-08-21T00:00	1815	828	13.2	9.8	267	5
2023-08-21T00:00	1840	826	13.0	9.6	265	6
2023-08-21T00:00	1868	823	12.9	9.1	263	6
2023-08-21T00:00	1888	821	12.7	9.0	262	6
2023-08-21T00:00	1912	818	12.5	9.0	262	6
2023-08-21T00:00	1941	816	12.3	9.1	261	6
2023-08-21T00:00	1964	814	12.1	9.2	259	7
2023-08-21T00:00	1984	812	11.9	9.3	258	7
2023-08-21T00:00	2007	809	11.7	9.5	256	7
2023-08-21T00:00	2033	807	11.7	9.4	255	7
2023-08-21T00:00	2058	805	11.6	9.1	254	7
2023-08-21T00:00	2081	802	11.5	8.3	254	6
2023-08-21T00:00	2102	800	11.5	8.3	255	6
2023-08-21T00:00	2126	798	11.3	8.3	255	5
2023-08-21T00:00	2151	796	11.1	8.6	253	5
2023-08-21T00:00	2170	794	10.9	8.7	251	6
2023-08-21T00:00	2195	791	10.6	8.6	248	7
2023-08-21T00:00	2224	789	10.4	8.1	245	7
2023-08-21T00:00	2250	786	10.4	8.0	244	8
2023-08-21T00:00	2272	784	10.3	8.3	245	8
2023-08-21T00:00	2294	782	10.1	8.2	247	8
2023-08-21T00:00	2318	780	9.9	8.2	249	9
2023-08-21T00:00	2342	778	9.7	8.2	251	9
2023-08-21T00:00	2368	775	9.4	8.0	252	9
2023-08-21T00:00	2392	773	9.3	8.1	251	9
2023-08-21T00:00	2419	770	9.0	8.0	250	9
2023-08-21T00:00	2449	768	8.7		249	9
2023-08-21T00:00	2478	765	8.5	8.0	248	9
2023-08-21T00:00	2507	762	8.2	7.8	248	9
2023-08-21T00:00	2536	759	7.9	7.6	249	9
2023-08-21T00:00	2568	757	7.6	7.5	250	9
2023-08-21T00:00	2597	754	7.4	7.4	251	10
2023-08-21T00:00	2623	752	7.2	7.2	252	11
2023-08-21T00:00	2648	749	7.1	7.1	252	11
2023-08-21T00:00	2676	747	6.9	6.9	252	12
2023-08-21T00:00	2705	744	6.7	6.7	252	13
2023-08-21T00:00	2735	742	6.5	6.5	252	13
2023-08-21T00:00	2760	739	6.4	6.4	251	14
2023-08-21T00:00	2791	737	6.0	5.8	251	14
2023-08-21T00:00	2818	734	5.7	5.4	250	14
2023-08-21T00:00	2845	732	5.6	5.3	249	14
2023-08-21T00:00	2872	729	5.4	5.1	248	14
2023-08-21T00:00	2896	727	5.3	5.2	248	15
2023-08-21T00:00	2924	725	5.1	4.3	248	15
2023-08-21T00:00	2953	722	5.0	4.3	248	15
2023-08-21T00:00	2975	720	5.0	4.2	247	15
2023-08-21T00:00	3002	718	4.8	3.7	247	16
2023-08-21T00:00	3026	716	4.9	2.2	247	16
2023-08-21T00:00	3048	714	4.9	2.2	247	16
2023-08-21T00:00	3073	711	4.7		248	16
2023-08-21T00:00	3097	709	4.4	1.8	249	17
2023-08-21T00:00	3131	706	4.2	0.6	250	17
2023-08-21T00:00	3169	703	5.3	-11.7	252	17
2023-08-21T00:00	3199	700	6.1	-21.5	253	17
2023-08-21T00:00	3230	698	6.0	-21.6	253	17
2023-08-21T00:00	3256	696	5.9	-20.0	253	17
2023-08-21T00:00	3288	693	5.8	-19.9	252	17
2023-08-21T00:00	3313	691	5.8	-17.5	252	17
2023-08-21T00:00	3338	689	5.7	-19.2	252	17
2023-08-21T00:00	3366	686	5.8	-23.6	252	17
2023-08-21T00:00	3395	684	5.7	-24.2	252	17
2023-08-21T00:00	3421	682	5.5	-24.1	253	17
2023-08-21T00:00	3444	680	5.3	-23.3	254	17
2023-08-21T00:00	3468	678	5.3	-23.0	255	16
2023-08-21T00:00	3503	675	5.0	-24.3	257	16
2023-08-21T00:00	3531	673	4.8	-24.8	258	16
2023-08-21T00:00	3553	671	4.6	-24.8	260	16
2023-08-21T00:00	3574	669	4.4	-25.0	261	16
2023-08-21T00:00	3592	668	4.3	-25.0	262	16
2023-08-21T00:00	3610	666	4.2	-24.3	262	15
2023-08-21T00:00	3635	664	4.0	-25.4	262	15
2023-08-21T00:00	3668	662	3.8	-26.1	262	14
2023-08-21T00:00	3690	660	3.8	-26.3	262	14
2023-08-21T00:00	3711	658	3.8	-27.4	262	14
2023-08-21T00:00	3741	655	3.6	-27.2	262	14
2023-08-21T00:00	3768	653	3.4	-26.6	262	14
2023-08-21T00:00	3791	652	3.2	-26.3	261	14
2023-08-21T00:00	3807	650	3.1	-26.4	260	14
2023-08-21T00:00	3822	649	3.1	-30.0	259	14
2023-08-21T00:00	3841	647	3.1	-32.6	259	14
2023-08-21T00:00	3872	645	3.0	-32.6	259	14
2023-08-21T00:00	3895	643	2.9	-30.5	259	14
2023-08-21T00:00	3914	642	2.8	-30.2	258	14
2023-08-21T00:00	3930	640	2.8	-30.4	257	15
2023-08-21T00:00	3948	639	2.7	-28.2	256	15
2023-08-21T00:00	3964	638	2.7	-29.7	254	16
2023-08-21T00:00	3982	636	2.7	-28.5	253	16
2023-08-21T00:00	4009	634	2.7	-29.9	253	17
2023-08-21T00:00	4038	632	2.5	-28.9	253	17
2023-08-21T00:00	4063	630	2.5	-30.8	253	17
2023-08-21T00:00	4088	628	2.4	-28.7	253	17
2023-08-21T00:00	4109	626	2.4	-28.1	253	16
2023-08-21T00:00	4136	624	2.5	-30.8	254	16
2023-08-21T00:00	4163	622	2.4	-31.2	254	16
2023-08-21T00:00	4188	620	2.2	-31.6	255	15
2023-08-21T00:00	4216	618	2.1	-33.0	255	15
2023-08-21T00:00	4243	616	1.9	-33.4	256	16
2023-08-21T00:00	4265	614	2.0	-33.8	255	16
2023-08-21T00:00	4296	612	1.9	-34.4	255	16
2023-08-21T00:00	4315	610	1.8	-34.5	255	17
2023-08-21T00:00	4345	608	1.6	-35.5	255	17
2023-08-21T00:00	4364	607	1.4	-35.3	255	17
2023-08-21T00:00	4382	606	1.3	-30.5	255	17
2023-08-21T00:00	4398	604	1.2	-28.0	255	16
2023-08-21T00:00	4418	603	1.0	-27.0	255	16
2023-08-21T00:00	4440	601	0.8	-26.2	255	16
2023-08-21T00:00	4465	599	0.6	-24.6	255	16
2023-08-21T00:00	4495	597	0.4	-24.7	256	17
2023-08-21T00:00	4525	595	0.2	-24.6	257	16
2023-08-21T00:00	4556	593	-0.1	-24.7	257	16
2023-08-21T00:00	4581	591	-0.3	-24.6	257	16
2023-08-21T00:00	4599	589	-0.5	-24.5	258	16
2023-08-21T00:00	4617	588	-0.6	-24.4	259	16
2023-08-21T00:00	4636	586	-0.8	-24.4	259	16
2023-08-21T00:00	4668	584	-0.9	-24.7	260	16
2023-08-21T00:00	4710	581	-1.0	-26.2	259	16
2023-08-21T00:00	4740	579	-1.1	-27.5	259	16
2023-08-21T00:00	4770	577	-1.3	-29.0	258	16
2023-08-21T00:00	4785	576	-1.4	-29.4	257	16
2023-08-21T00:00	4803	574	-1.5	-30.8	256	16
2023-08-21T00:00	4820	573	-1.4	-33.0	255	15
2023-08-21T00:00	4842	571	-1.1	-38.3	253	14
2023-08-21T00:00	4872	569	-0.8	-39.0	252	14
2023-08-21T00:00	4896	568	-0.7	-38.0	251	13
2023-08-21T00:00	4935	565	-0.7	-38.0	252	12
2023-08-21T00:00	4961	563	-0.9	-38.1	253	12
2023-08-21T00:00	4978	562	-0.9	-37.8	254	12
2023-08-21T00:00	4995	561	-0.9	-34.0	256	12
2023-08-21T00:00	5014	559	-1.1	-26.2	256	12
2023-08-21T00:00	5042	557	-1.3	-25.7	257	12
2023-08-21T00:00	5070	556	-1.5	-24.9	258	13
2023-08-21T00:00	5087	554	-1.5	-24.5	259	13
2023-08-21T00:00	5106	553	-1.7	-24.6	259	13
2023-08-21T00:00	5134	551	-1.8	-24.7	260	14
2023-08-21T00:00	5160	549	-2.1	-24.9	261	14
2023-08-21T00:00	5182	548	-2.2	-24.9	262	15
2023-08-21T00:00	5208	546	-2.4	-25.0	264	15
2023-08-21T00:00	5237	544	-2.7	-25.1	266	16
2023-08-21T00:00	5257	543	-2.9	-25.3	268	16
2023-08-21T00:00	5272	541	-3.0	-25.3	268	15
2023-08-21T00:00	5291	540	-3.1	-25.5	268	15
2023-08-21T00:00	5308	539	-3.3	-25.7	268	15
2023-08-21T00:00	5326	538	-3.4	-25.9	267	14
2023-08-21T00:00	5341	537	-3.6	-26.0	266	14
2023-08-21T00:00	5362	535	-3.8	-26.2	266	14
2023-08-21T00:00	5381	534	-4.0	-26.5	265	14
2023-08-21T00:00	5402	533	-4.1	-26.6	265	14
2023-08-21T00:00	5425	531	-4.3	-26.9	264	14
2023-08-21T00:00	5454	529	-4.5	-27.0	264	14
2023-08-21T00:00	5483	527	-4.7	-27.6	264	14
2023-08-21T00:00	5505	526	-4.9	-27.7	264	14
2023-08-21T00:00	5523	525	-5.0	-27.9	264	15
2023-08-21T00:00	5542	523	-5.2	-28.0	264	15
2023-08-21T00:00	5561	522	-5.3	-28.1	262	15
2023-08-21T00:00	5586	520	-5.5	-28.0	261	15
2023-08-21T00:00	5619	518	-5.6	-28.0	260	15
2023-08-21T00:00	5642	517	-5.8	-28.2	260	15
2023-08-21T00:00	5659	515	-5.9	-28.2	261	15
2023-08-21T00:00	5675	514	-6.1	-28.4	262	15
2023-08-21T00:00	5698	513	-6.2	-28.6	264	15
2023-08-21T00:00	5713	512	-6.3	-28.7	265	15
2023-08-21T00:00	5733	511	-6.4	-29.2	266	15
2023-08-21T00:00	5755	509	-6.6	-29.6	267	15
2023-08-21T00:00	5784	507	-6.7	-30.1	268	16
2023-08-21T00:00	5810	506	-6.9	-30.6	269	16
2023-08-21T00:00	5836	504	-7.1	-30.9	269	17
2023-08-21T00:00	5860	503	-7.2	-31.2	268	17
2023-08-21T00:00	5876	501	-7.3	-31.5	267	18
2023-08-21T00:00	5897	500	-7.5	-31.7	266	18
2023-08-21T00:00	5919	499	-7.6	-32.1	265	18
2023-08-21T00:00	5947	497	-7.8	-32.7	265	18
2023-08-21T00:00	5973	495	-8.0	-32.9	266	18
2023-08-21T00:00	6002	493	-8.2	-33.3	266	18
2023-08-21T00:00	6027	492	-8.3	-33.3	267	18
2023-08-21T00:00	6053	490	-8.5	-33.7	267	18
2023-08-21T00:00	6076	489	-8.6	-34.2	268	17
2023-08-21T00:00	6104	487	-8.9	-34.7	269	17
2023-08-21T00:00	6127	485	-9.1	-34.8	269	17
2023-08-21T00:00	6152	484	-9.3	-35.3	268	17
2023-08-21T00:00	6178	482	-9.5	-35.6	268	17
2023-08-21T00:00	6206	480	-9.7	-35.7	267	18
2023-08-21T00:00	6233	479	-10.0	-35.7	267	18
2023-08-21T00:00	6261	477	-10.2	-35.7	267	18
2023-08-21T00:00	6292	475	-10.5	-35.7	267	18
2023-08-21T00:00	6311	474	-10.6	-35.7	268	18
2023-08-21T00:00	6332	473	-10.8	-35.7	269	18
2023-08-21T00:00	6354	471	-11.0	-35.7	270	18
2023-08-21T00:00	6378	470	-11.2	-35.8	270	18
2023-08-21T00:00	6414	468	-11.5	-36.0	270	18
2023-08-21T00:00	6451	466	-11.8	-36.4	270	18
2023-08-21T00:00	6466	464	-12.0	-36.4	270	18
2023-08-21T00:00	6483	463	-12.1	-36.4	270	18
2023-08-21T00:00	6504	462	-12.3	-36.5	269	18
2023-08-21T00:00	6522	461	-12.4	-36.5	269	18
2023-08-21T00:00	6539	460	-12.5	-36.2	269	17
2023-08-21T00:00	6556	459	-12.7	-36.0	269	17
2023-08-21T00:00	6576	458	-12.8	-35.7	269	17
2023-08-21T00:00	6595	457	-12.9	-35.9	268	17
2023-08-21T00:00	6617	455	-13.1	-35.4	268	17
2023-08-21T00:00	6638	454	-13.3	-33.9	268	17
2023-08-21T00:00	6663	453	-13.4	-35.2	268	17
2023-08-21T00:00	6695	451	-13.6	-35.5	268	17
2023-08-21T00:00	6726	449	-13.8	-35.5	268	17
2023-08-21T00:00	6752	447	-14.0	-35.5	268	17
2023-08-21T00:00	6784	446	-14.1	-36.3	268	17
2023-08-21T00:00	6813	444	-14.3		268	18
2023-08-21T00:00	6844	442	-14.5	-38.2	268	18
2023-08-21T00:00	6865	441	-14.7	-38.3	268	18
2023-08-21T00:00	6886	440	-14.8	-38.5	267	18
2023-08-21T00:00	6908	438	-15.0	-38.5	267	19
2023-08-21T00:00	6934	437	-15.2	-38.1	266	19
2023-08-21T00:00	6966	435	-15.5	-38.2	266	19
2023-08-21T00:00	7000	433	-15.8	-38.2	266	19
2023-08-21T00:00	7025	431	-16.0	-38.4	267	19
2023-08-21T00:00	7059	430	-16.2	-38.9	267	19
2023-08-21T00:00	7085	428	-16.4	-39.1	268	19
2023-08-21T00:00	7117	426	-16.7	-39.7	270	19
2023-08-21T00:00	7148	424	-16.9	-40.4	271	19
2023-08-21T00:00	7181	423	-17.1	-40.6	271	19
2023-08-21T00:00	7201	421	-17.3	-41.4	271	19
2023-08-21T00:00	7224	420	-17.4	-43.5	271	19
2023-08-21T00:00	7246	419	-17.6	-43.9	270	19
2023-08-21T00:00	7284	417	-18.0	-44.5	270	19
2023-08-21T00:00	7308	415	-18.2	-45.3	270	19
2023-08-21T00:00	7333	414	-18.4	-45.6	271	20
2023-08-21T00:00	7356	413	-18.6	-45.3	271	20
2023-08-21T00:00	7382	411	-18.8	-40.8	271	20
2023-08-21T00:00	7407	410	-19.0	-33.2	271	20
2023-08-21T00:00	7428	409	-19.3	-32.3	270	20
2023-08-21T00:00	7457	407	-19.5	-32.0	270	20
2023-08-21T00:00	7482	406	-19.8	-32.9	269	20
2023-08-21T00:00	7504	405	-20.0	-33.8	269	19
2023-08-21T00:00	7528	403	-20.2	-35.0	268	19
2023-08-21T00:00	7557	402	-20.4	-35.2	268	19
2023-08-21T00:00	7590	400	-20.8	-35.5	268	18
2023-08-21T00:00	7613	399	-21.0	-35.4	267	18
2023-08-21T00:00	7638	397	-21.2	-35.5	267	18
2023-08-21T00:00	7667	396	-21.5	-35.1	267	18
2023-08-21T00:00	7694	394	-21.7	-35.5	268	18
2023-08-21T00:00	7721	393	-22.0	-35.0	269	18
2023-08-21T00:00	7755	391	-22.3	-33.8	270	18
2023-08-21T00:00	7789	389	-22.6	-34.1	271	18
2023-08-21T00:00	7808	388	-22.6	-35.1	272	18
2023-08-21T00:00	7827	387	-22.7	-35.2	273	18
2023-08-21T00:00	7846	386	-22.8	-35.2	273	18
2023-08-21T00:00	7869	385	-22.9	-35.9	273	18
2023-08-21T00:00	7892	384	-22.9	-36.3	273	18
2023-08-21T00:00	7911	383	-23.0	-35.9	273	18
2023-08-21T00:00	7930	382	-23.1	-35.1	273	18
2023-08-21T00:00	7954	381	-23.2	-35.3	274	18
2023-08-21T00:00	7972	380	-23.3	-35.3	275	19
2023-08-21T00:00	7990	379	-23.4	-35.3	277	19
2023-08-21T00:00	8011	378	-23.5	-36.7	278	19
2023-08-21T00:00	8029	377	-23.6	-38.3	279	19
2023-08-21T00:00	8047	376	-23.6	-41.4	280	18
2023-08-21T00:00	8066	375	-23.6	-43.4	281	18
2023-08-21T00:00	8083	374	-23.7		280	18
2023-08-21T00:00	8102	373	-23.7	-48.0	280	18
2023-08-21T00:00	8120	372	-23.9	-49.1	279	18
2023-08-21T00:00	8141	371	-24.0	-49.5	278	18
2023-08-21T00:00	8165	370	-24.2	-48.3	277	19
2023-08-21T00:00	8190	369	-24.4	-47.2	277	19
2023-08-21T00:00	8220	367	-24.7	-47.0	277	20
2023-08-21T00:00	8253	366	-25.0	-47.0	277	20
2023-08-21T00:00	8280	364	-25.3	-45.2	278	21
2023-08-21T00:00	8298	363	-25.4	-42.5	279	21
2023-08-21T00:00	8318	362	-25.6	-42.7	279	20
2023-08-21T00:00	8337	361	-25.8	-41.2	280	20
2023-08-21T00:00	8356	360	-26.0	-41.2	280	20
2023-08-21T00:00	8374	359	-26.1	-41.1	281	20
2023-08-21T00:00	8392	359	-26.3	-41.4	281	20
2023-08-21T00:00	8409	358	-26.5	-41.5	282	20
2023-08-21T00:00	8430	357	-26.7	-41.5	282	20
2023-08-21T00:00	8447	356	-26.8	-41.3	283	20
2023-08-21T00:00	8465	355	-27.0	-41.3	282	20
2023-08-21T00:00	8486	354	-27.1	-41.7	282	20
2023-08-21T00:00	8504	353	-27.3	-41.9	282	21
2023-08-21T00:00	8523	352	-27.4	-43.3	282	21
2023-08-21T00:00	8542	351	-27.2	-51.7	282	21
2023-08-21T00:00	8561	350	-27.2	-55.9	282	21
2023-08-21T00:00	8577	349	-27.2	-55.1	283	21
2023-08-21T00:00	8596	348	-27.4	-55.2	283	21
2023-08-21T00:00	8614	348	-27.5	-55.5	283	21
2023-08-21T00:00	8632	347	-27.6	-55.6	283	21
2023-08-21T00:00	8651	346	-27.7	-55.5	282	21
2023-08-21T00:00	8671	345	-27.9	-55.8	282	21
2023-08-21T00:00	8690	344	-27.9	-56.2	282	20
2023-08-21T00:00	8711	343	-28.0	-56.3	281	20
2023-08-21T00:00	8731	342	-28.1	-56.2	281	21
2023-08-21T00:00	8749	341	-28.2	-55.8	281	21
2023-08-21T00:00	8765	340	-28.3	-55.4	282	22
2023-08-21T00:00	8786	339	-28.4	-55.3	282	22
2023-08-21T00:00	8804	338	-28.5	-55.7	283	22
2023-08-21T00:00	8823	338	-28.6	-56.4	283	22
2023-08-21T00:00	8840	337	-28.7	-57.0	283	22
2023-08-21T00:00	8859	336	-28.8	-56.7	283	22
2023-08-21T00:00	8878	335	-28.9	-56.4	283	22
2023-08-21T00:00	8895	334	-29.0	-56.7	284	23
2023-08-21T00:00	8913	333	-29.2	-56.6	284	23
2023-08-21T00:00	8930	333	-29.3	-56.7	284	23
2023-08-21T00:00	8947	332	-29.4	-57.0	285	23
2023-08-21T00:00	8965	331	-29.5	-57.1	286	23
2023-08-21T00:00	8985	330	-29.7	-57.2	287	23
2023-08-21T00:00	9004	329	-29.8	-57.3	287	23
2023-08-21T00:00	9023	328	-29.9	-57.4	288	23
2023-08-21T00:00	9042	327	-30.0	-57.3	289	23
2023-08-21T00:00	9061	327	-30.2	-57.4	289	23
2023-08-21T00:00	9079	326	-30.3	-55.7	289	23
2023-08-21T00:00	9100	325	-30.4	-54.4	288	23
2023-08-21T00:00	9118	324	-30.5	-52.6	288	23
2023-08-21T00:00	9138	323	-30.7	-52.8	288	23
2023-08-21T00:00	9157	322	-30.9	-52.8	288	23
2023-08-21T00:00	9178	321	-31.1	-52.9	288	22
2023-08-21T00:00	9196	320	-31.2	-52.8	288	22
2023-08-21T00:00	9216	320	-31.4	-52.8	288	22
2023-08-21T00:00	9233	319	-31.6	-52.5	289	22
2023-08-21T00:00	9252	318	-31.7	-52.0	289	21
2023-08-21T00:00	9272	317	-31.9	-51.6	289	21
2023-08-21T00:00	9292	316	-32.1	-51.2	289	21
2023-08-21T00:00	9312	315	-32.3	-51.4	289	21
2023-08-21T00:00	9335	314	-32.4	-51.1	290	20
2023-08-21T00:00	9355	313	-32.6	-49.7	290	20
2023-08-21T00:00	9377	312	-32.8	-49.2	291	20
2023-08-21T00:00	9394	311	-33.0	-48.8	292	21
2023-08-21T00:00	9416	311	-33.1	-48.3	293	21
2023-08-21T00:00	9439	310	-33.3	-48.2	294	21
2023-08-21T00:00	9462	309	-33.5	-48.4	295	21
2023-08-21T00:00	9483	308	-33.7	-48.2	296	21
2023-08-21T00:00	9507	307	-33.8	-47.9	297	22
2023-08-21T00:00	9528	306	-33.9	-47.6	298	22
2023-08-21T00:00	9548	305	-34.1	-47.6	299	22
2023-08-21T00:00	9566	304	-34.2	-47.3	299	22
2023-08-21T00:00	9585	303	-34.4	-47.1	300	22
2023-08-21T00:00	9605	302	-34.5	-46.9	301	23
2023-08-21T00:00	9621	302	-34.6	-46.6	301	23
2023-08-21T00:00	9640	301	-34.8	-46.5	302	23
2023-08-21T00:00	9660	300	-35.0	-46.5	302	23
2023-08-21T00:00	9681	299	-35.1	-46.6	303	24
2023-08-21T00:00	9704	298	-35.3	-47.3	304	25
2023-08-21T00:00	9730	297	-35.4	-47.8	304	25
2023-08-21T00:00	9752	296	-35.5	-48.1	304	26
2023-08-21T00:00	9770	295	-35.6	-48.0	304	26
2023-08-21T00:00	9791	294	-35.7	-48.0	304	27
2023-08-21T00:00	9812	293	-35.8	-48.1	305	27
2023-08-21T00:00	9829	293	-36.0	-48.3	305	27
2023-08-21T00:00	9848	292	-36.1	-48.3	305	27
2023-08-21T00:00	9868	291	-36.3	-48.5	305	27
2023-08-21T00:00	9887	290	-36.3	-48.7	304	27
2023-08-21T00:00	9907	289	-36.5	-49.2	304	27
2023-08-21T00:00	9927	289	-36.6	-49.4	304	27
2023-08-21T00:00	9946	288	-36.8	-49.3	304	27
2023-08-21T00:00	9964	287	-36.9	-49.4	304	27
2023-08-21T00:00	9986	286	-37.0	-50.2	304	27
2023-08-21T00:00	10004	285	-37.1	-50.4	304	27
2023-08-21T00:00	10022	285	-37.3	-50.1	304	27
2023-08-21T00:00	10042	284	-37.5	-50.0	304	27
2023-08-21T00:00	10060	283	-37.6	-50.2	304	27
2023-08-21T00:00	10079	282	-37.8	-50.5	304	27
2023-08-21T00:00	10098	282	-38.0	-50.4	304	27
2023-08-21T00:00	10119	281	-38.2	-50.8	304	27
2023-08-21T00:00	10138	280	-38.4	-51.0	304	27
2023-08-21T00:00	10158	279	-38.5	-51.0	304	27
2023-08-21T00:00	10176	278	-38.7	-51.0	304	27
2023-08-21T00:00	10193	278	-38.9	-51.1	304	26
2023-08-21T00:00	10212	277	-39.1	-51.1	303	26
2023-08-21T00:00	10235	276	-39.3	-51.2	303	26
2023-08-21T00:00	10254	275	-39.5	-51.4	303	26
2023-08-21T00:00	10272	274	-39.6	-51.3	304	26
2023-08-21T00:00	10290	274	-39.8	-51.1	304	26
2023-08-21T00:00	10309	273	-39.9	-51.4	305	26
2023-08-21T00:00	10328	272	-40.1	-52.2	305	26
2023-08-21T00:00	10348	271	-40.2	-52.3	306	26
2023-08-21T00:00	10368	271	-40.4	-51.8	306	26
2023-08-21T00:00	10386	270	-40.6	-51.8	306	26
2023-08-21T00:00	10404	269	-40.7	-52.1	306	26
2023-08-21T00:00	10422	268	-40.9	-51.9	306	26
2023-08-21T00:00	10443	268	-41.0	-51.3	306	27
2023-08-21T00:00	10464	267	-41.2	-51.2	305	27
2023-08-21T00:00	10484	266	-41.4	-51.1	304	27
2023-08-21T00:00	10501	265	-41.5	-51.0	304	27
2023-08-21T00:00	10521	265	-41.7	-51.0	304	27
2023-08-21T00:00	10539	264	-41.8	-51.0	304	27
2023-08-21T00:00	10556	263	-42.0	-51.2	303	27
2023-08-21T00:00	10573	263	-42.1	-51.3	303	27
2023-08-21T00:00	10592	262	-42.3	-51.3	303	27
2023-08-21T00:00	10609	261	-42.4	-51.3	302	27
2023-08-21T00:00	10628	260	-42.6	-51.4	302	28
2023-08-21T00:00	10651	260	-42.8	-51.7	302	28
2023-08-21T00:00	10669	259	-42.9	-51.6	301	28
2023-08-21T00:00	10688	258	-43.0	-51.3	301	28
2023-08-21T00:00	10706	258	-43.2	-51.1	301	28
2023-08-21T00:00	10723	257	-43.3	-50.9	301	28
2023-08-21T00:00	10741	256	-43.5	-51.0	301	28
2023-08-21T00:00	10761	255	-43.7	-51.1	301	28
2023-08-21T00:00	10780	255	-43.9	-51.1	301	28
2023-08-21T00:00	10798	254	-44.1	-51.2	301	28
2023-08-21T00:00	10819	253	-44.3	-51.4	301	28
2023-08-21T00:00	10838	252	-44.4	-51.4	301	29
2023-08-21T00:00	10861	252	-44.6	-51.6	301	29
2023-08-21T00:00	10885	251	-44.8	-52.0	301	29
2023-08-21T00:00	10906	250	-45.0	-52.5	302	30
2023-08-21T00:00	10927	249	-45.2	-53.4	302	30
2023-08-21T00:00	10946	248	-45.3	-54.2	303	30
2023-08-21T00:00	10962	248	-45.4	-54.8	303	30
2023-08-21T00:00	10984	247	-45.5	-55.4	304	30
2023-08-21T00:00	11004	246	-45.6	-55.5	304	30
2023-08-21T00:00	11023	246	-45.8	-55.6	304	30
2023-08-21T00:00	11041	245	-46.0	-55.7	304	30
2023-08-21T00:00	11061	244	-46.1	-55.7	304	30
2023-08-21T00:00	11080	244	-46.3	-55.8	303	30
2023-08-21T00:00	11098	243	-46.4	-55.8	303	30
2023-08-21T00:00	11118	242	-46.6	-55.8	303	30
2023-08-21T00:00	11136	241	-46.8	-55.8	303	30
2023-08-21T00:00	11156	241	-46.9	-55.9	303	30
2023-08-21T00:00	11178	240	-47.1	-56.1	303	30
2023-08-21T00:00	11197	239	-47.2	-56.1	303	30
2023-08-21T00:00	11216	239	-47.4	-56.1	303	30
2023-08-21T00:00	11235	238	-47.6	-56.1	303	30
2023-08-21T00:00	11256	237	-47.7	-56.0	303	30
2023-08-21T00:00	11276	236	-48.0	-56.1	303	30
2023-08-21T00:00	11299	236	-48.2	-56.2	303	31
2023-08-21T00:00	11318	235	-48.4	-56.2	303	31
2023-08-21T00:00	11339	234	-48.6	-56.4	304	31
2023-08-21T00:00	11360	233	-48.7	-56.4	304	31
2023-08-21T00:00	11378	233	-48.9	-56.4	304	31
2023-08-21T00:00	11401	232	-49.1	-56.3	304	31
2023-08-21T00:00	11422	231	-49.3	-56.2	303	31
2023-08-21T00:00	11443	230	-49.5	-56.4	303	31
2023-08-21T00:00	11462	230	-49.6	-56.8	304	31
2023-08-21T00:00	11484	229	-49.8	-57.3	304	31
2023-08-21T00:00	11506	228	-49.9	-57.7	304	31
2023-08-21T00:00	11524	228	-50.1	-58.0	305	31
2023-08-21T00:00	11543	227	-50.2	-57.9	305	31
2023-08-21T00:00	11565	226	-50.3	-58.7	304	31
2023-08-21T00:00	11586	225	-50.4	-59.8	304	31
2023-08-21T00:00	11607	225	-50.5	-59.9	304	31
2023-08-21T00:00	11628	224	-50.7	-59.7	304	31
2023-08-21T00:00	11650	223	-50.8	-59.5	304	31
2023-08-21T00:00	11671	223	-51.0	-59.3	304	31
2023-08-21T00:00	11692	222	-51.2	-59.1	304	31
2023-08-21T00:00	11714	221	-51.4	-58.9	305	31
2023-08-21T00:00	11733	220	-51.6	-58.7	305	31
2023-08-21T00:00	11756	220	-51.8	-58.6	305	31
2023-08-21T00:00	11777	219	-51.9	-59.1	305	31
2023-08-21T00:00	11798	218	-52.0	-59.8	305	31
2023-08-21T00:00	11816	218	-52.1	-60.4	305	31
2023-08-21T00:00	11840	217	-52.2	-61.1	306	31
2023-08-21T00:00	11860	216	-52.3	-61.6	306	31
2023-08-21T00:00	11880	215	-52.5	-61.9	306	31
2023-08-21T00:00	11901	215	-52.6	-62.2	305	31
2023-08-21T00:00	11920	214	-52.7	-62.4	305	31
2023-08-21T00:00	11939	214	-52.9	-62.7	305	30
2023-08-21T00:00	11958	213	-53.0	-63.2	304	30
2023-08-21T00:00	11977	212	-53.1	-63.8	304	30
2023-08-21T00:00	11997	212	-53.2	-64.0	304	30
2023-08-21T00:00	12017	211	-53.3	-64.0	303	30
2023-08-21T00:00	12036	210	-53.4	-64.0	303	30
2023-08-21T00:00	12056	210	-53.4	-63.8	303	31
2023-08-21T00:00	12075	209	-53.5	-63.5	303	31
2023-08-21T00:00	12093	208	-53.7	-63.3	303	32
2023-08-21T00:00	12112	208	-53.8	-62.9	303	32
2023-08-21T00:00	12133	207	-54.0	-62.8	303	33
2023-08-21T00:00	12151	207	-54.1	-62.7	303	33
2023-08-21T00:00	12166	206	-54.2	-62.9	304	33
2023-08-21T00:00	12186	205	-54.2	-63.0	304	33
2023-08-21T00:00	12203	205	-54.2	-63.2	304	33
2023-08-21T00:00	12220	204	-54.3	-63.2	304	33
2023-08-21T00:00	12236	204	-54.4	-63.0	305	33
2023-08-21T00:00	12255	203	-54.5	-62.7	305	33
2023-08-21T00:00	12271	203	-54.7	-62.8	306	32
2023-08-21T00:00	12288	202	-54.7	-62.9	306	32
2023-08-21T00:00	12304	202	-54.8	-63.2	307	32
2023-08-21T00:00	12323	201	-55.0	-63.4	307	31
2023-08-21T00:00	12340	201	-55.1	-63.6	307	31
2023-08-21T00:00	12358	200	-55.2	-63.9	307	30
2023-08-21T00:00	12378	199	-55.4	-64.6	307	30
2023-08-21T00:00	12395	199	-55.4	-65.0	308	29
2023-08-21T00:00	12416	198	-55.4	-65.2	308	29
2023-08-21T00:00	12434	198	-55.6	-65.4	308	29
2023-08-21T00:00	12451	197	-55.6	-65.4	307	28
2023-08-21T00:00	12469	197	-55.8	-65.5	307	28
2023-08-21T00:00	12487	196	-55.9	-65.6	306	28
2023-08-21T00:00	12506	195	-56.1	-65.8	305	28
2023-08-21T00:00	12526	195	-56.2	-65.9	304	28
2023-08-21T00:00	12542	194	-56.3	-66.1	304	28
2023-08-21T00:00	12560	194	-56.4	-66.3	303	28
2023-08-21T00:00	12576	193	-56.5	-66.4	302	28
2023-08-21T00:00	12593	193	-56.6	-66.4	302	28
2023-08-21T00:00	12611	192	-56.6	-66.4	301	27
2023-08-21T00:00	12629	192	-56.6	-66.4	300	27
2023-08-21T00:00	12644	191	-56.7	-66.6	299	27
2023-08-21T00:00	12662	191	-56.7	-66.7	299	27
2023-08-21T00:00	12682	190	-56.6	-66.9	298	27
2023-08-21T00:00	12702	190	-56.5	-67.2	297	27
2023-08-21T00:00	12720	189	-56.6	-67.7	296	27
2023-08-21T00:00	12740	188	-56.6	-68.1	295	27
2023-08-21T00:00	12757	188	-56.7	-68.7	295	27
2023-08-21T00:00	12778	187	-56.6	-69.1	294	27
2023-08-21T00:00	12797	187	-56.6	-69.5	294	27
2023-08-21T00:00	12816	186	-56.6	-70.0	295	27
2023-08-21T00:00	12835	186	-56.3	-70.1	295	28
2023-08-21T00:00	12853	185	-56.1	-70.2	295	28
2023-08-21T00:00	12872	184	-56.1	-70.3	296	28
2023-08-21T00:00	12890	184	-56.1	-70.1	296	28
2023-08-21T00:00	12911	183	-56.2	-70.1	297	28
2023-08-21T00:00	12932	183	-56.3		297	28
2023-08-21T00:00	12953	182	-56.4	-70.1	297	28
2023-08-21T00:00	12973	182	-56.6	-70.4	297	28
2023-08-21T00:00	12991	181	-56.7	-70.5	297	27
2023-08-21T00:00	13014	180	-56.8	-70.6	297	26
2023-08-21T00:00	13037	180	-56.9	-70.7	297	26
2023-08-21T00:00	13059	179	-57.0	-70.8	296	25
2023-08-21T00:00	13082	178	-57.1	-70.9	295	25
2023-08-21T00:00	13104	178	-57.2	-71.0	294	24
2023-08-21T00:00	13132	177	-57.3	-71.0	294	24
2023-08-21T00:00	13153	176	-57.5	-71.1	293	24
2023-08-21T00:00	13181	176	-57.7	-71.1	292	24
2023-08-21T00:00	13203	175	-57.8	-71.1	291	23
2023-08-21T00:00	13223	175	-57.9	-71.3	290	23
2023-08-21T00:00	13245	174	-57.9	-71.5	289	23
2023-08-21T00:00	13266	173	-58.0	-71.8	288	22
2023-08-21T00:00	13290	173	-58.1	-72.1	287	22
2023-08-21T00:00	13313	172	-58.2	-72.5	286	22
2023-08-21T00:00	13333	171	-58.2	-72.8	285	21
2023-08-21T00:00	13356	171	-58.0	-73.1	285	21
2023-08-21T00:00	13375	170	-58.0	-73.6	284	20
2023-08-21T00:00	13397	170	-58.1	-74.0	285	20
2023-08-21T00:00	13417	169	-58.1	-74.1	285	20
2023-08-21T00:00	13443	169	-58.1	-74.2	286	21
2023-08-21T00:00	13465	168	-58.1	-74.3	287	21
2023-08-21T00:00	13485	167	-58.2	-74.4	287	21
2023-08-21T00:00	13507	167	-58.3	-74.4	288	22
2023-08-21T00:00	13528	166	-58.4	-74.5	288	22
2023-08-21T00:00	13551	166	-58.5	-74.8	288	22
2023-08-21T00:00	13573	165	-58.5	-75.0	288	22
2023-08-21T00:00	13595	164	-58.6	-75.3	288	22
2023-08-21T00:00	13616	164	-58.6	-75.6	289	22
2023-08-21T00:00	13639	163	-58.7	-75.9	289	22
2023-08-21T00:00	13661	163	-58.7	-76.0	289	22
2023-08-21T00:00	13683	162	-58.8	-76.2	289	22
2023-08-21T00:00	13704	162	-58.9	-76.3	289	21
2023-08-21T00:00	13727	161	-58.9	-76.4	288	21
2023-08-21T00:00	13752	161	-59.0	-76.5	287	21
2023-08-21T00:00	13771	160	-59.1	-76.3	285	21
2023-08-21T00:00	13793	159	-58.9	-75.8	284	21
2023-08-21T00:00	13814	159	-58.9	-75.3	283	21
2023-08-21T00:00	13835	158	-59.0	-74.9	282	21
2023-08-21T00:00	13857	158	-59.1	-74.7	282	21
2023-08-21T00:00	13878	157	-59.1	-74.5	282	21
2023-08-21T00:00	13900	157	-59.1	-74.4	282	21
2023-08-21T00:00	13921	156	-59.0	-74.4	282	21
2023-08-21T00:00	13943	156	-59.0	-74.5	283	22
2023-08-21T00:00	13965	155	-59.1	-74.8	283	22
2023-08-21T00:00	13986	155	-59.3	-75.0	284	22
2023-08-21T00:00	14011	154	-59.4	-75.1	284	23
2023-08-21T00:00	14032	153	-59.6	-75.4	285	23
2023-08-21T00:00	14051	153	-59.5	-75.4	285	23
2023-08-21T00:00	14072	152	-59.5	-75.5	285	24
2023-08-21T00:00	14093	152	-59.7	-75.6	285	24
2023-08-21T00:00	14115	151	-59.9	-75.8	285	24
2023-08-21T00:00	14133	151	-60.0	-75.8	285	25
2023-08-21T00:00	14152	151	-60.1	-75.8	286	25
2023-08-21T00:00	14171	150	-60.2	-75.9	287	25
2023-08-21T00:00	14191	150	-60.4	-76.2	289	25
2023-08-21T00:00	14212	149	-60.5	-76.5	290	26
2023-08-21T00:00	14232	149	-60.4	-76.8	292	26
2023-08-21T00:00	14253	148	-60.2	-77.0	293	26
2023-08-21T00:00	14271	148	-60.2	-77.4	295	26
2023-08-21T00:00	14289	147	-60.2	-77.6	296	26
2023-08-21T00:00	14308	147	-60.2	-77.8	296	26
2023-08-21T00:00	14328	146	-60.1	-77.9	297	26
2023-08-21T00:00	14345	146	-60.0	-78.1	297	26
2023-08-21T00:00	14363	145	-60.0	-78.4	297	26
2023-08-21T00:00	14382	145	-60.1	-78.7	297	26
2023-08-21T00:00	14401	145	-60.0	-78.8	296	25
2023-08-21T00:00	14420	144	-60.1	-79.0	296	25
2023-08-21T00:00	14438	144	-60.2	-79.2	296	25
2023-08-21T00:00	14455	143	-60.3	-79.4	296	25
2023-08-21T00:00	14473	143	-60.3	-79.5	296	24
2023-08-21T00:00	14492	143	-60.3	-79.5	296	24
2023-08-21T00:00	14510	142	-60.4	-79.7	296	24
2023-08-21T00:00	14528	142	-60.5	-79.7	296	24
2023-08-21T00:00	14545	141	-60.6	-79.8	296	24
2023-08-21T00:00	14565	141	-60.7	-79.9	295	23
2023-08-21T00:00	14585	140	-60.8	-79.9	294	23
2023-08-21T00:00	14605	140	-61.0	-80.1	294	23
2023-08-21T00:00	14625	140	-61.1	-80.2	294	22
2023-08-21T00:00	14644	139	-61.2	-80.3	294	22
2023-08-21T00:00	14665	139	-61.2	-80.4	294	22
2023-08-21T00:00	14689	138	-61.1	-80.5	295	21
2023-08-21T00:00	14709	138	-61.1	-80.8	295	21
2023-08-21T00:00	14730	137	-60.8	-80.6	295	20
2023-08-21T00:00	14751	137	-60.7		295	19
2023-08-21T00:00	14772	136	-60.9	-80.9	293	19
2023-08-21T00:00	14795	136	-61.0	-81.0	291	19
2023-08-21T00:00	14815	135	-61.0	-81.0	288	18
2023-08-21T00:00	14838	135	-60.7	-80.9	286	18
2023-08-21T00:00	14856	134	-60.5	-80.7	283	19
2023-08-21T00:00	14880	134	-60.5	-80.9	281	19
2023-08-21T00:00	14901	133	-60.6	-81.0	280	19
2023-08-21T00:00	14925	133	-60.6	-81.0	280	19
2023-08-21T00:00	14948	132	-60.7	-81.0	281	19
2023-08-21T00:00	14967	132	-60.8	-81.1	283	19
2023-08-21T00:00	14988	132	-60.7	-81.2	285	19
2023-08-21T00:00	15012	131	-60.0	-80.9	287	19
2023-08-21T00:00	15035	131	-60.0	-81.0	289	19
2023-08-21T00:00	15056	130	-60.0	-81.0	291	19
2023-08-21T00:00	15076	130	-60.0	-81.1	292	18
2023-08-21T00:00	15098	129	-60.1	-81.2	293	18
2023-08-21T00:00	15124	129	-59.9	-81.2	294	17
2023-08-21T00:00	15143	128	-59.7	-81.2	296	17
2023-08-21T00:00	15166	128	-59.8	-81.3	297	16
2023-08-21T00:00	15189	127	-59.7	-81.2	299	16
2023-08-21T00:00	15209	127	-59.8	-81.3	301	15
2023-08-21T00:00	15233	127	-59.9	-81.3	302	15
2023-08-21T00:00	15254	126	-60.1	-81.4	302	15
2023-08-21T00:00	15276	126	-60.2	-81.4	303	14
2023-08-21T00:00	15297	125	-60.4	-81.5	302	13
2023-08-21T00:00	15320	125	-60.5	-81.5	301	13
2023-08-21T00:00	15344	124	-60.6	-81.6	298	12
2023-08-21T00:00	15369	124	-60.7	-82.0	294	11
2023-08-21T00:00	15390	123	-60.2	-81.9	288	10
2023-08-21T00:00	15415	123	-59.5	-81.7	280	9
2023-08-21T00:00	15438	122	-59.0	-81.6	272	9
2023-08-21T00:00	15457	122	-58.5	-81.6	264	8
2023-08-21T00:00	15478	122	-58.4	-81.7	257	8
2023-08-21T00:00	15500	121	-58.2	-81.7	251	8
2023-08-21T00:00	15524	121	-58.3	-81.8	246	8
2023-08-21T00:00	15547	120	-58.3	-81.6	242	9
2023-08-21T00:00	15564	120	-58.5	-81.8	240	9
2023-08-21T00:00	15586	120	-58.6	-81.8	238	9
2023-08-21T00:00	15607	119	-58.7	-81.7	238	10
2023-08-21T00:00	15629	119	-58.8	-81.8	239	10
2023-08-21T00:00	15646	118	-58.9	-81.9	242	10
2023-08-21T00:00	15665	118	-58.9	-81.9	245	11
2023-08-21T00:00	15687	118	-59.0	-82.1	249	11
2023-08-21T00:00	15706	117	-59.0	-82.1	252	12
2023-08-21T00:00	15725	117	-59.0	-82.3	255	13
2023-08-21T00:00	15746	117	-58.8	-82.6	257	14
2023-08-21T00:00	15763	116	-58.5	-82.8	258	15
2023-08-21T00:00	15783	116	-58.1	-83.0	259	15
2023-08-21T00:00	15801	116	-57.9	-83.0	261	16
2023-08-21T00:00	15818	115	-57.7	-83.4	262	16
2023-08-21T00:00	15836	115	-57.8	-83.5	264	17
2023-08-21T00:00	15855	115	-57.8	-83.5	266	17
2023-08-21T00:00	15870	114	-57.8	-83.5	268	17
2023-08-21T00:00	15888	114	-57.9	-83.6	270	17
2023-08-21T00:00	15904	114	-57.9	-83.6	273	17
2023-08-21T00:00	15921	113	-57.9	-83.6	275	17
2023-08-21T00:00	15940	113	-58.0	-83.7	277	16
2023-08-21T00:00	15956	113	-58.0	-83.7	279	16
2023-08-21T00:00	15974	112	-57.9	-83.9	281	15
2023-08-21T00:00	15993	112	-57.6	-83.6	284	15
2023-08-21T00:00	16010	112	-57.5	-83.6	287	14
2023-08-21T00:00	16031	111	-57.4	-83.8	291	13
2023-08-21T00:00	16060	111	-57.2	-83.6	295	12
2023-08-21T00:00	16089	110	-56.4	-83.3	298	11
2023-08-21T00:00	16118	110	-55.9	-82.9	301	10
2023-08-21T00:00	16149	109	-56.0	-83.0	301	9
2023-08-21T00:00	16174	109	-56.2	-83.2	298	9
2023-08-21T00:00	16193	109	-56.2	-82.9	295	9
2023-08-21T00:00	16215	108	-56.5	-83.1	290	8
2023-08-21T00:00	16236	108	-56.6	-83.2	286	8
2023-08-21T00:00	16256	108	-56.7	-82.9	282	8
2023-08-21T00:00	16275	107	-56.7	-82.9	278	9
2023-08-21T00:00	16299	107	-56.9	-83.1	275	9
2023-08-21T00:00	16321	106	-57.0	-83.2	272	9
2023-08-21T00:00	16339	106	-57.1	-83.2	269	9
2023-08-21T00:00	16361	106	-57.1	-83.2	267	9
2023-08-21T00:00	16383	105	-57.1	-83.2	264	9
2023-08-21T00:00	16404	105	-57.2	-83.3	262	9
2023-08-21T00:00	16421	105	-57.3	-83.4	260	9
2023-08-21T00:00	16443	104	-57.4	-83.5	258	9
2023-08-21T00:00	16466	104	-57.6	-83.6	256	9
2023-08-21T00:00	16485	104	-57.7	-83.7	254	10
2023-08-21T00:00	16507	103	-57.7	-83.7	252	10
2023-08-21T00:00	16528	103	-57.7	-83.7	251	10
2023-08-21T00:00	16550	103	-57.7	-83.7	251	10
2023-08-21T00:00	16568	102	-57.8	-83.8	252	10
2023-08-21T00:00	16591	102	-57.7	-83.7	254	11
2023-08-21T00:00	16614	102	-57.7	-83.7	257	11
2023-08-21T00:00	16634	101	-57.8	-83.8	259	11
2023-08-21T00:00	16656	101	-57.8	-83.8	262	11
2023-08-21T00:00	16674	101	-57.9	-83.9	264	11
2023-08-21T00:00	16695	100	-58.0	-83.9	267	11
2023-08-21T00:00	16720	100	-58.1	-84.0	271	11
2023-08-21T00:00	16738	100	-58.2	-84.1	275	11
2023-08-21T00:00	16761	99	-58.1	-84.0	279	11
2023-08-21T00:00	16785	99	-58.0	-83.9	283	11
2023-08-21T00:00	16805	99	-58.1	-84.0	285	11
2023-08-21T00:00	16828	98	-58.0	-83.9	287	11
2023-08-21T00:00	16849	98	-57.9	-84.2	288	11
2023-08-21T00:00	16870	98	-57.9	-84.2	289	10
2023-08-21T00:00	16895	97	-57.8	-84.1	289	10
2023-08-21T00:00	16915	97	-57.9	-84.2	290	9
2023-08-21T00:00	16939	97	-57.9	-84.2	292	9
2023-08-21T00:00	16961	96	-58.0	-84.2	294	8
2023-08-21T00:00	16985	96	-58.0	-84.2	296	8
2023-08-21T00:00	17007	95	-58.1	-84.3	298	7
2023-08-21T00:00	17029	95	-58.2	-84.4	300	7
2023-08-21T00:00	17053	95	-58.3	-84.5	300	6
2023-08-21T00:00	17076	94	-58.2	-84.4	298	5
2023-08-21T00:00	17100	94	-58.0	-84.6	294	4
2023-08-21T00:00	17120	94	-57.9	-84.5	288	4
2023-08-21T00:00	17139	93	-57.7	-84.3	281	3
2023-08-21T00:00	17164	93	-57.7	-84.7	274	3
2023-08-21T00:00	17184	93	-57.7	-84.3	268	3
2023-08-21T00:00	17207	93	-57.8	-84.4	265	4
2023-08-21T00:00	17229	92	-57.9	-84.5	262	4
2023-08-21T00:00	17250	92	-58.0	-84.6	261	4
2023-08-21T00:00	17273	92	-58.2	-84.7	259	5
2023-08-21T00:00	17294	91	-58.3	-84.5	258	6
2023-08-21T00:00	17317	91	-58.4	-84.6	256	6
2023-08-21T00:00	17339	91	-58.6	-84.7	254	7
2023-08-21T00:00	17363	90	-58.8	-84.9	252	8
2023-08-21T00:00	17386	90	-58.9	-84.9	250	8
2023-08-21T00:00	17406	90	-58.9	-84.9	249	9
2023-08-21T00:00	17427	89	-58.8	-84.9	248	10
2023-08-21T00:00	17450	89	-58.8	-84.9	249	10
2023-08-21T00:00	17471	89	-58.9	-84.9	251	10
2023-08-21T00:00	17491	88	-59.0	-85.0	253	10
2023-08-21T00:00	17512	88	-59.0	-85.3	256	10
2023-08-21T00:00	17537	88	-58.9	-85.3	258	10
2023-08-21T00:00	17559	87	-58.7	-85.1	259	10
2023-08-21T00:00	17580	87	-58.7	-85.1	261	10
2023-08-21T00:00	17604	87	-58.7	-85.4	263	10
2023-08-21T00:00	17625	87	-58.7	-85.4	264	10
2023-08-21T00:00	17649	86	-58.7	-85.4	266	10
2023-08-21T00:00	17672	86	-58.5	-85.6	269	10
2023-08-21T00:00	17694	86	-58.2	-85.4	270	10
2023-08-21T00:00	17720	85	-57.9	-85.2	272	10
2023-08-21T00:00	17740	85	-57.6	-85.3	273	10
2023-08-21T00:00	17766	85	-57.5	-85.2	274	10
2023-08-21T00:00	17785	84	-57.5	-85.2	275	10
2023-08-21T00:00	17811	84	-57.7	-85.0	276	10
2023-08-21T00:00	17833	84	-57.8	-85.1	277	10
2023-08-21T00:00	17856	83	-57.7	-85.0	279	10
2023-08-21T00:00	17877	83	-57.7	-85.0	281	9
2023-08-21T00:00	17904	83	-57.7	-85.0	284	8
2023-08-21T00:00	17927	82	-57.6	-85.3	286	7
2023-08-21T00:00	17951	82	-57.5	-85.2	288	6
2023-08-21T00:00	17971	82	-57.5	-85.2	290	6
2023-08-21T00:00	17998	82	-57.3	-85.5	292	5
2023-08-21T00:00	18018	81	-57.0	-85.2	293	4
2023-08-21T00:00	18046	81	-56.8	-85.1	294	3
2023-08-21T00:00	18068	81	-56.7	-85.0	293	3
2023-08-21T00:00	18094	80	-56.7	-85.0	291	2
2023-08-21T00:00	18119	80	-56.9	-84.8	283	2
2023-08-21T00:00	18141	80	-57.0	-84.8	268	1
2023-08-21T00:00	18169	79	-57.1	-84.9	246	1
2023-08-21T00:00	18190	79	-57.3	-85.1	225	1
2023-08-21T00:00	18215	79	-57.4	-85.2	212	2
2023-08-21T00:00	18241	79	-57.5	-84.9	206	2
2023-08-21T00:00	18264	78	-57.7	-85.0	203	3
2023-08-21T00:00	18287	78	-57.9	-85.2	203	3
2023-08-21T00:00	18311	78	-58.1	-85.3	205	4
2023-08-21T00:00	18337	77	-58.3	-85.1	207	4
2023-08-21T00:00	18359	77	-58.5	-85.3	211	5
2023-08-21T00:00	18382	77	-58.6	-85.4	216	5
2023-08-21T00:00	18404	76	-58.7	-85.4	221	5
2023-08-21T00:00	18428	76	-58.7	-85.4	227	5
2023-08-21T00:00	18450	76	-58.8	-85.9	233	5
2023-08-21T00:00	18475	76	-58.6	-85.7	239	5
2023-08-21T00:00	18496	75	-58.7	-85.8	246	4
2023-08-21T00:00	18517	75	-58.7	-85.8	253	4
2023-08-21T00:00	18541	75	-58.8	-85.9	262	4
2023-08-21T00:00	18561	75	-58.8	-85.9	272	4
2023-08-21T00:00	18587	74	-58.8	-85.9	280	4
2023-08-21T00:00	18606	74	-58.6	-85.7	287	4
2023-08-21T00:00	18630	74	-58.5	-85.6	292	4
2023-08-21T00:00	18649	74	-58.6	-85.7	293	3
2023-08-21T00:00	18671	73	-58.6	-85.7	290	3
2023-08-21T00:00	18694	73	-58.6	-85.7	284	3
2023-08-21T00:00	18712	73	-58.5	-85.6	275	2
2023-08-21T00:00	18737	73	-58.5	-85.6	265	2
2023-08-21T00:00	18760	72	-58.6	-85.7	254	1
2023-08-21T00:00	18781	72	-58.6	-85.7	238	1
2023-08-21T00:00	18803	72	-58.6	-85.7	202	0
2023-08-21T00:00	18824	72	-58.6	-85.7	129	0
2023-08-21T00:00	18849	71	-58.6	-85.7	101	0
2023-08-21T00:00	18869	71	-58.7	-85.8	101	0
2023-08-21T00:00	18892	71	-58.7	-85.8	210	0
2023-08-21T00:00	18917	71	-58.7	-85.8	227	1
2023-08-21T00:00	18940	70	-58.8	-85.9	222	1
2023-08-21T00:00	18963	70	-58.8	-85.9	216	2
2023-08-21T00:00	18982	70	-58.7	-86.1	210	2
2023-08-21T00:00	19005	70	-58.6	-86.1	207	3
2023-08-21T00:00	19030	69	-58.5	-86.0	209	3
2023-08-21T00:00	19047	69	-58.5	-86.0	212	4
2023-08-21T00:00	19074	69	-58.0	-86.0	217	5
2023-08-21T00:00	19096	69	-57.9		221	5
2023-08-21T00:00	19115	68	-57.9		225	5
2023-08-21T00:00	19137	68	-58.0	-86.0	229	5
2023-08-21T00:00	19160	68	-58.0	-86.0	233	5
2023-08-21T00:00	19187	68	-57.7	-85.8	237	5
2023-08-21T00:00	19208	67	-57.7	-85.8	242	5
2023-08-21T00:00	19232	67	-57.5	-85.6	248	5
2023-08-21T00:00	19253	67	-57.4	-85.6	254	5
2023-08-21T00:00	19278	67	-57.5	-85.6	261	5
2023-08-21T00:00	19301	66	-57.4	-85.6	270	4
2023-08-21T00:00	19323	66	-57.5	-85.6	281	4
2023-08-21T00:00	19345	66	-57.6	-85.7	292	4
2023-08-21T00:00	19371	66	-57.7	-85.8	302	5
2023-08-21T00:00	19392	65	-57.7	-85.8	310	5
2023-08-21T00:00	19415	65	-57.6	-85.7	317	5
2023-08-21T00:00	19438	65	-57.5	-85.6	321	5
2023-08-21T00:00	19462	65	-57.3	-85.9	324	4
2023-08-21T00:00	19490	64	-57.1	-85.7	325	3
2023-08-21T00:00	19515	64	-56.9	-85.6	322	3
2023-08-21T00:00	19539	64	-57.0	-85.7	314	2
2023-08-21T00:00	19563	64	-57.1	-85.7	300	1
2023-08-21T00:00	19589	63	-57.3	-85.5	282	1
2023-08-21T00:00	19611	63	-57.4	-85.6	264	1
2023-08-21T00:00	19631	63	-57.5	-85.6	257	1
2023-08-21T00:00	19654	63	-57.6	-85.7	261	1
2023-08-21T00:00	19679	62	-57.4	-85.6	270	1
2023-08-21T00:00	19704	62	-57.4	-85.6	275	2
2023-08-21T00:00	19724	62	-57.4	-85.6	275	2
2023-08-21T00:00	19751	62	-57.5	-85.6	273	3
2023-08-21T00:00	19774	62	-57.7	-85.8	270	3
2023-08-21T00:00	19798	61	-57.7	-85.8	267	3
2023-08-21T00:00	19820	61	-57.7	-85.8	265	3
2023-08-21T00:00	19848	61	-57.8	-85.9	265	3
2023-08-21T00:00	19872	61	-57.6	-85.7	267	3
2023-08-21T00:00	19890	60	-57.6	-85.7	272	3
2023-08-21T00:00	19915	60	-57.5	-86.1	277	3
2023-08-21T00:00	19938	60	-57.3	-85.9	281	3
2023-08-21T00:00	19963	60	-57.1	-85.7	285	3
2023-08-21T00:00	19984	60	-57.1	-85.7	288	4
2023-08-21T00:00	20008	59	-57.0	-85.7	293	4
2023-08-21T00:00	20029	59	-57.1	-85.7	299	4
2023-08-21T00:00	20053	59	-57.1	-85.7	305	4
2023-08-21T00:00	20074	59	-57.0	-85.7	313	4
2023-08-21T00:00	20100	58	-57.0	-85.7	321	4
2023-08-21T00:00	20123	58	-56.9	-85.6	330	4
2023-08-21T00:00	20143	58	-56.9	-85.6	339	4
2023-08-21T00:00	20165	58	-57.0	-85.7	351	4
2023-08-21T00:00	20187	58	-56.9	-85.6	5	4
2023-08-21T00:00	20214	57	-56.8	-85.5	19	3
2023-08-21T00:00	20237	57	-56.7	-85.4	32	3
2023-08-21T00:00	20259	57	-56.6	-85.8	42	3
2023-08-21T00:00	20284	57	-56.6	-85.8	50	3
2023-08-21T00:00	20306	57	-56.5	-85.8	58	2
2023-08-21T00:00	20328	56	-56.3	-85.6	67	2
2023-08-21T00:00	20352	56	-56.4	-85.7	76	1
2023-08-21T00:00	20372	56	-56.4	-85.2	80	1
2023-08-21T00:00	20402	56	-56.4	-85.2	74	1
2023-08-21T00:00	20422	56	-56.4	-85.2	63	1
2023-08-21T00:00	20445	55	-56.3	-85.1	56	1
2023-08-21T00:00	20468	55	-56.1	-85.0	55	2
2023-08-21T00:00	20494	55	-56.2	-85.1	55	2
2023-08-21T00:00	20519	55	-56.2	-85.5	55	3
2023-08-21T00:00	20539	55	-56.2	-85.5	55	3
2023-08-21T00:00	20565	54	-56.0		55	4
2023-08-21T00:00	20588	54	-56.1	-85.0	57	4
2023-08-21T00:00	20617	54	-56.1	-85.0	61	4
2023-08-21T00:00	20642	54	-56.3	-85.1	67	4
2023-08-21T00:00	20662	53	-56.3	-85.1	74	4
2023-08-21T00:00	20688	53	-56.2	-85.1	81	4
2023-08-21T00:00	20709	53	-56.2	-85.1	87	4
2023-08-21T00:00	20735	53	-56.2	-85.1	92	3
2023-08-21T00:00	20756	53	-56.3	-85.1	97	3
2023-08-21T00:00	20783	52	-56.4	-85.2	102	3
2023-08-21T00:00	20811	52	-56.5	-85.3	107	3
2023-08-21T00:00	20832	52	-56.5	-85.3	113	3
2023-08-21T00:00	20859	52	-56.5	-85.3	120	2
2023-08-21T00:00	20879	52	-56.6	-85.4	130	2
2023-08-21T00:00	20905	52	-56.7	-85.4	139	2
2023-08-21T00:00	20926	51	-56.8	-85.1	148	2
2023-08-21T00:00	20952	51	-57.0	-85.2	156	2
2023-08-21T00:00	20978	51	-57.2	-85.4	165	2
2023-08-21T00:00	21003	51	-57.3	-85.5	175	2
2023-08-21T00:00	21024	51	-57.4	-85.6	188	2
2023-08-21T00:00	21051	50	-57.2	-85.4	202	2
2023-08-21T00:00	21078	50	-57.3	-85.5	216	2
2023-08-21T00:00	21099	50	-57.4	-85.6	230	1
2023-08-21T00:00	21124	50	-57.4	-86.0	242	1
2023-08-21T00:00	21147	50	-57.3	-85.9	254	1
2023-08-21T00:00	21168	49	-57.0	-85.7	265	0
2023-08-21T00:00	21190	49	-56.8	-85.5	40	0
2023-08-21T00:00	21218	49	-56.6	-85.8	72	1
2023-08-21T00:00	21242	49	-56.5	-85.8	69	1
2023-08-21T00:00	21263	49	-56.5	-85.8	62	2
2023-08-21T00:00	21287	48	-56.4	-85.7	55	2
2023-08-21T00:00	21307	48	-56.2	-85.5	49	3
2023-08-21T00:00	21331	48	-56.1	-85.5	46	4
2023-08-21T00:00	21355	48	-55.9	-85.3	45	4
2023-08-21T00:00	21381	48	-55.8	-85.2	47	5
2023-08-21T00:00	21403	48	-55.8	-85.2	50	5
2023-08-21T00:00	21427	47	-55.8	-85.2	54	6
2023-08-21T00:00	21449	47	-55.8	-85.2	59	6
2023-08-21T00:00	21475	47	-55.7	-85.2	64	6
2023-08-21T00:00	21498	47	-55.8	-85.2	70	6
2023-08-21T00:00	21526	47	-55.8	-85.2	77	6
2023-08-21T00:00	21544	47	-55.9	-84.8	84	6
2023-08-21T00:00	21570	46	-56.0	-84.9	91	6
2023-08-21T00:00	21594	46	-56.2	-85.1	98	6
2023-08-21T00:00	21608	46	-56.3	-85.1	104	6
2023-08-21T00:00	21641	46	-56.4	-85.2	110	5
2023-08-21T00:00	21663	46	-56.2	-85.1	114	5
2023-08-21T00:00	21680	46	-56.2	-85.1	116	5
2023-08-21T00:00	21705	45	-56.2	-85.5	116	4
2023-08-21T00:00	21726	45	-56.1	-85.5	117	4
2023-08-21T00:00	21754	45	-56.1	-85.5	118	4
2023-08-21T00:00	21779	45	-56.0		120	4
2023-08-21T00:00	21797	45	-56.0		124	4
2023-08-21T00:00	21826	45	-55.8	-85.2	129	4
2023-08-21T00:00	21853	44	-55.6	-85.1	136	4
2023-08-21T00:00	21879	44	-55.7	-85.2	143	3
2023-08-21T00:00	21906	44	-55.7	-85.2	149	3
2023-08-21T00:00	21925	44	-55.6	-85.1	154	3
2023-08-21T00:00	21948	44	-55.5	-85.0	155	2
2023-08-21T00:00	21975	44	-55.5	-85.0	146	2
2023-08-21T00:00	21996	43	-55.4	-84.9	120	1
2023-08-21T00:00	22024	43	-55.4	-84.9	87	2
2023-08-21T00:00	22050	43	-55.3	-84.9	70	2
2023-08-21T00:00	22072	43	-55.3	-84.9	63	3
2023-08-21T00:00	22095	43	-55.4	-84.9	60	4
2023-08-21T00:00	22123	43	-55.4	-84.9	59	5
2023-08-21T00:00	22146	42	-55.4	-84.9	60	6
2023-08-21T00:00	22170	42	-55.4	-84.9	62	7
2023-08-21T00:00	22199	42	-55.3	-84.9	64	7
2023-08-21T00:00	22223	42	-55.5	-85.0	68	7
2023-08-21T00:00	22249	42	-55.6	-85.1	71	8
2023-08-21T00:00	22275	42	-55.5	-85.0	74	7
2023-08-21T00:00	22299	41	-55.6	-85.1	76	7
2023-08-21T00:00	22326	41	-55.5	-85.0	77	7
2023-08-21T00:00	22354	41	-55.5	-85.0	77	7
2023-08-21T00:00	22373	41	-55.6	-85.1	76	7
2023-08-21T00:00	22404	41	-55.6	-85.1	75	7
2023-08-21T00:00	22430	41	-55.6	-85.1	75	7
2023-08-21T00:00	22452	40	-55.5	-85.0	74	7
2023-08-21T00:00	22472	40	-55.5	-85.0	74	7
2023-08-21T00:00	22503	40	-55.6	-85.1	73	6
2023-08-21T00:00	22528	40	-55.6	-85.1	72	6
2023-08-21T00:00	22553	40	-55.6	-85.1	71	5
2023-08-21T00:00	22579	40	-55.6	-85.1	71	5
2023-08-21T00:00	22601	39	-55.7	-85.2	72	5
2023-08-21T00:00	22626	39	-55.8	-85.2	75	5
2023-08-21T00:00	22650	39	-55.7	-85.2	78	5
2023-08-21T00:00	22672	39	-55.6	-85.1	80	5
2023-08-21T00:00	22696	39	-55.5	-85.0	80	5
2023-08-21T00:00	22722	39	-55.6	-85.1	78	5
2023-08-21T00:00	22745	39	-55.4	-84.9	76	5
2023-08-21T00:00	22767	38	-55.5	-85.0	74	6
2023-08-21T00:00	22796	38	-55.4	-85.4	74	6
2023-08-21T00:00	22819	38	-55.3	-85.4	75	7
2023-08-21T00:00	22842	38	-55.1	-85.2	77	7
2023-08-21T00:00	22864	38	-55.1	-85.2	80	7
2023-08-21T00:00	22881	38	-55.2	-85.3	83	7
2023-08-21T00:00	22910	38	-55.0	-85.1	86	6
2023-08-21T00:00	22938	37	-55.0	-85.1	88	6
2023-08-21T00:00	22956	37	-54.9	-85.1	88	5
2023-08-21T00:00	22983	37	-55.0	-85.1	85	5
2023-08-21T00:00	23009	37	-54.9	-85.1	82	5
2023-08-21T00:00	23029	37	-54.7	-84.9	78	6
2023-08-21T00:00	23055	37	-54.7	-84.9	77	6
2023-08-21T00:00	23078	37	-54.7	-84.9	76	6
2023-08-21T00:00	23101	36	-54.7	-84.9	77	6
2023-08-21T00:00	23127	36	-54.6	-84.8	78	7
2023-08-21T00:00	23152	36	-54.6	-84.8	79	7
2023-08-21T00:00	23180	36	-54.5	-84.8	80	7
2023-08-21T00:00	23196	36	-54.4	-84.7	82	7
2023-08-21T00:00	23223	36	-54.3	-84.6	84	7
2023-08-21T00:00	23251	36	-54.3	-84.6	87	7
2023-08-21T00:00	23280	35	-54.2	-84.5	91	6
2023-08-21T00:00	23301	35	-54.2	-84.5	95	6
2023-08-21T00:00	23324	35	-54.3	-84.6	99	5
2023-08-21T00:00	23347	35	-54.3	-84.6	101	5
2023-08-21T00:00	23374	35	-54.1	-84.5	103	5
2023-08-21T00:00	23401	35	-53.8	-84.2	105	4
2023-08-21T00:00	23429	35	-53.8	-84.2	106	4
2023-08-21T00:00	23452	35	-53.8	-84.2	106	4
2023-08-21T00:00	23476	34	-53.9	-84.3	103	4
2023-08-21T00:00	23502	34	-54.0	-84.4	98	4
2023-08-21T00:00	23531	34	-54.1	-84.5	93	5
2023-08-21T00:00	23552	34	-54.1	-84.5	88	6
2023-08-21T00:00	23575	34	-54.0	-84.4	85	7
2023-08-21T00:00	23605	34	-53.9	-84.3	84	7
2023-08-21T00:00	23633	34	-54.0	-84.4	83	8
2023-08-21T00:00	23660	33	-54.0	-84.4	83	8
2023-08-21T00:00	23679	33	-53.8	-84.8	83	9
2023-08-21T00:00	23709	33	-53.8	-84.8	85	8
2023-08-21T00:00	23734	33	-53.7	-84.7	88	8
2023-08-21T00:00	23760	33	-53.6	-84.6	91	8
2023-08-21T00:00	23788	33	-53.6	-84.6	95	7
2023-08-21T00:00	23817	33	-53.7	-84.7	100	7
2023-08-21T00:00	23844	33	-53.7	-84.7	104	7
2023-08-21T00:00	23870	32	-53.7	-84.7	109	7
2023-08-21T00:00	23883	32	-53.5	-84.6	113	6
2023-08-21T00:00	23918	32	-53.6	-84.6	116	6
2023-08-21T00:00	23941	32	-53.7	-84.2	117	6
2023-08-21T00:00	23969	32	-53.8	-84.2	116	5
2023-08-21T00:00	23993	32	-53.8	-84.2	113	4
2023-08-21T00:00	24017	32	-53.9	-84.3	107	4
2023-08-21T00:00	24038	32	-54.0	-84.4	98	3
2023-08-21T00:00	24068	31	-53.9	-84.3	85	2
2023-08-21T00:00	24091	31	-53.7	-84.7	67	2
2023-08-21T00:00	24122	31	-53.6	-84.6	46	1
2023-08-21T00:00	24141	31	-53.5	-84.6	25	1
2023-08-21T00:00	24169	31	-53.6	-84.6	7	1
2023-08-21T00:00	24190	31	-53.7	-84.7	357	1
2023-08-21T00:00	24220	31	-53.8	-84.2	353	2
2023-08-21T00:00	24243	31	-53.8	-84.2	355	2
2023-08-21T00:00	24273	30	-53.9	-84.3	360	2
2023-08-21T00:00	24295	30	-54.0	-84.4	6	2
2023-08-21T00:00	24326	30	-54.0	-84.4	13	3
2023-08-21T00:00	24345	30	-53.9	-84.3	21	3
2023-08-21T00:00	24376	30	-54.0	-84.4	29	3
2023-08-21T00:00	24403	30	-54.1	-84.5	38	3
2023-08-21T00:00	24425	30	-54.3	-84.6	45	4
2023-08-21T00:00	24449	30	-54.4	-85.2	51	4
2023-08-21T00:00	24476	29	-53.7	-84.7	56	5
2023-08-21T00:00	24507	29	-53.6	-84.6	60	5
2023-08-21T00:00	24528	29	-53.6	-84.6	64	6
2023-08-21T00:00	24557	29	-53.7	-84.7	67	6
2023-08-21T00:00	24584	29	-53.7	-84.7	72	6
2023-08-21T00:00	24614	29	-53.8	-84.8	78	7
2023-08-21T00:00	24642	29	-53.9	-84.9	85	7
2023-08-21T00:00	24670	29	-53.7	-84.7	93	7
2023-08-21T00:00	24700	28	-53.6	-84.6	100	8
2023-08-21T00:00	24724	28	-53.6	-84.6	107	8
2023-08-21T00:00	24752	28	-53.5	-84.6	112	8
2023-08-21T00:00	24779	28	-53.4	-84.5	117	8
2023-08-21T00:00	24794	28	-53.4	-84.5	122	7
2023-08-21T00:00	24834	28	-53.5	-84.6	128	7
2023-08-21T00:00	24854	28	-53.2	-84.4	134	6
2023-08-21T00:00	24881	28	-52.9	-84.1	141	6
2023-08-21T00:00	24913	28	-52.6	-84.5	148	6
2023-08-21T00:00	24933	27	-52.5	-84.4	153	5
2023-08-21T00:00	24963	27	-52.4	-84.4	158	5
2023-08-21T00:00	24993	27	-52.5	-84.4	162	5
2023-08-21T00:00	25013	27	-52.6	-84.5	165	4
2023-08-21T00:00	25051	27	-52.4	-84.4	167	3
2023-08-21T00:00	25066	27	-52.3	-84.3	165	3
2023-08-21T00:00	25096	27	-52.1	-84.2	159	2
2023-08-21T00:00	25119	27	-52.0	-84.1	143	2
2023-08-21T00:00	25148	27	-52.0	-84.1	119	2
2023-08-21T00:00	25173	26	-51.9	-84.0	99	2
2023-08-21T00:00	25199	26	-51.9	-84.0	89	2
2023-08-21T00:00	25229	26	-51.9	-84.0	86	3
2023-08-21T00:00	25253	26	-51.7	-83.9	86	3
2023-08-21T00:00	25278	26	-51.7	-83.9	87	4
2023-08-21T00:00	25303	26	-51.7	-83.9	89	4
2023-08-21T00:00	25327	26	-51.8	-83.9	92	4
2023-08-21T00:00	25352	26	-51.9	-83.4	94	4
2023-08-21T00:00	25382	26	-52.0	-83.5	96	3
2023-08-21T00:00	25404	26	-51.9	-83.4	99	3
2023-08-21T00:00	25435	25	-51.9	-83.4	103	3
2023-08-21T00:00	25454	25	-52.1	-83.5	109	2
2023-08-21T00:00	25482	25	-52.3	-83.7	117	2
2023-08-21T00:00	25509	25	-52.4	-83.8	124	2
2023-08-21T00:00	25532	25	-52.4	-83.8	127	1
2023-08-21T00:00	25555	25	-52.5	-83.8	121	1
2023-08-21T00:00	25574	25	-52.6	-83.9	83	1
2023-08-21T00:00	25607	25	-52.6	-83.9	26	1
2023-08-21T00:00	25630	25	-52.6	-83.9	12	2
2023-08-21T00:00	25653	25	-52.6	-83.9	10	2
2023-08-21T00:00	25680	24	-52.6	-83.9	12	3
2023-08-21T00:00	25715	24	-52.7	-84.0	16	4
2023-08-21T00:00	25727	24	-52.7	-84.6	20	5
2023-08-21T00:00	25760	24	-52.6	-84.5	24	6
2023-08-21T00:00	25784	24	-52.3	-84.3	28	7
2023-08-21T00:00	25808	24	-51.7	-83.9	32	7
2023-08-21T00:00	25828	24	-51.4	-84.3	35	8
2023-08-21T00:00	25861	24	-51.3	-84.3	39	8
2023-08-21T00:00	25879	24	-50.9	-84.0	43	8
2023-08-21T00:00	25914	24	-50.8	-83.9	48	8
2023-08-21T00:00	25944	23	-50.8	-83.9	54	8
2023-08-21T00:00	25966	23	-50.7	-83.8	61	8
2023-08-21T00:00	25994	23	-50.5	-83.7	67	9
2023-08-21T00:00	26023	23	-50.5	-83.7	73	9
2023-08-21T00:00	26042	23	-50.4	-83.6	77	9
2023-08-21T00:00	26064	23	-50.3	-83.5	79	9
2023-08-21T00:00	26091	23	-50.1	-83.4	79	9
2023-08-21T00:00	26121	23	-50.0	-83.3	79	9
2023-08-21T00:00	26151	23	-49.9	-83.2	78	8
2023-08-21T00:00	26176	23	-49.9	-83.2	78	8
2023-08-21T00:00	26209	23	-49.6	-83.0	79	8
2023-08-21T00:00	26232	22	-49.5	-82.9	82	7
2023-08-21T00:00	26262	22	-49.4	-82.9	87	7
2023-08-21T00:00	26291	22	-49.4	-82.9	92	7
2023-08-21T00:00	26308	22	-49.3	-82.8	96	6
2023-08-21T00:00	26332	22	-49.2	-82.7	98	6
2023-08-21T00:00	26371	22	-49.0	-82.6	98	6
2023-08-21T00:00	26390	22	-48.8	-82.4	97	6
2023-08-21T00:00	26416	22	-48.6	-82.3	94	5
2023-08-21T00:00	26454	22	-48.5	-82.2	89	5
2023-08-21T00:00	26481	22	-48.5	-82.2	83	5
2023-08-21T00:00	26506	22	-48.6	-82.3	76	5
2023-08-21T00:00	26526	21	-48.6	-82.3	70	5
2023-08-21T00:00	26556	21	-48.5	-82.2	64	5
2023-08-21T00:00	26590	21	-48.5	-82.2	60	5
2023-08-21T00:00	26612	21	-48.6	-82.3	57	5
2023-08-21T00:00	26637	21	-48.4	-82.2	56	5
2023-08-21T00:00	26664	21	-48.3	-82.1	58	5
2023-08-21T00:00	26694	21	-48.2	-82.0	62	5
2023-08-21T00:00	26718	21	-48.3	-82.1	68	5
2023-08-21T00:00	26741	21	-48.1	-82.7	74	5
2023-08-21T00:00	26774	21	-47.8	-82.5	81	4
2023-08-21T00:00	26802	21	-47.6	-82.4	87	4
2023-08-21T00:00	26826	21	-47.5	-82.3	94	3
2023-08-21T00:00	26845	20	-47.3	-82.2	102	3
2023-08-21T00:00	26866	20	-47.2	-82.1	113	3
2023-08-21T00:00	26908	20	-47.0	-81.9	123	2
2023-08-21T00:00	26934	20	-46.9	-81.9	130	2
2023-08-21T00:00	26953	20	-46.8	-81.8	133	2
2023-08-21T00:00	26990	20	-46.8	-81.8	129	1
2023-08-21T00:00	27013	20	-46.6	-81.7	115	1
2023-08-21T00:00	27034	20	-46.4	-81.5	92	1
2023-08-21T00:00	27064	20	-46.3	-81.4	67	1
2023-08-21T00:00	27088	20	-46.2	-81.4	50	1
2023-08-21T00:00	27109	20	-46.1	-81.3	42	2
2023-08-21T00:00	27138	20	-46.0	-81.2	37	3
2023-08-21T00:00	27161	20	-46.0	-81.2	35	3
2023-08-21T00:00	27190	19	-46.0	-81.2	35	4
2023-08-21T00:00	27229	19	-45.9	-81.2	36	5
2023-08-21T00:00	27248	19	-45.5	-80.9	38	5
2023-08-21T00:00	27274	19	-45.4	-80.8	40	5
2023-08-21T00:00	27308	19	-45.4	-80.8	43	5
2023-08-21T00:00	27319	19	-45.5	-80.9	46	5
2023-08-21T00:00	27348	19	-45.4	-80.8	49	4
2023-08-21T00:00	27380	19	-45.5	-80.9	51	4
2023-08-21T00:00	27395	19	-45.6	-80.9	50	3
2023-08-21T00:00	27428	19	-45.8	-81.1	47	3
2023-08-21T00:00	27466	19	-45.9	-81.2	39	3
2023-08-21T00:00	27483	19	-45.9	-81.2	28	2
2023-08-21T00:00	27521	19	-45.8	-81.1	16	2
2023-08-21T00:00	27541	18	-45.7	-81.0	9	3
2023-08-21T00:00	27566	18	-45.7	-81.0	7	3
2023-08-21T00:00	27588	18	-45.7	-81.0	8	4
2023-08-21T00:00	27619	18	-45.7	-81.0	10	5
2023-08-21T00:00	27649	18	-45.6	-80.9	12	6
2023-08-21T00:00	27661	18	-45.7	-81.0	14	6
2023-08-21T00:00	27694	18	-45.8	-81.1	17	7
2023-08-21T00:00	27728	18	-45.8	-81.1	21	8
2023-08-21T00:00	27751	18	-45.7	-81.0	25	8
2023-08-21T00:00	27763	18	-45.7	-81.0	30	9
2023-08-21T00:00	27805	18	-45.6	-80.9	34	9
2023-08-21T00:00	27828	18	-45.5	-80.9	37	9
2023-08-21T00:00	27861	18	-45.3	-81.6	40	9
2023-08-21T00:00	27876	18	-45.2	-81.6	41	9
2023-08-21T00:00	27908	17	-45.3	-81.6	43	8
2023-08-21T00:00	27930	17	-45.2	-81.6	44	8
2023-08-21T00:00	27968	17	-45.1	-81.5	46	7
2023-08-21T00:00	27987	17	-45.1	-81.5	49	7
2023-08-21T00:00	28016	17	-45.1	-81.5	53	6
2023-08-21T00:00	28028	17	-45.1	-81.5	58	6
2023-08-21T00:00	28066	17	-45.0	-81.4	64	6
2023-08-21T00:00	28104	17	-45.2	-80.7	68	6
2023-08-21T00:00	28116	17	-45.3	-80.7	70	5
2023-08-21T00:00	28144	17	-45.4	-80.8	69	5
2023-08-21T00:00	28182	17	-45.4	-80.8	66	4
2023-08-21T00:00	28205	17	-45.3	-81.6	62	4
2023-08-21T00:00	28218	17	-45.1	-81.5	59	4
2023-08-21T00:00	28244	17	-45.1	-81.5	59	3
2023-08-21T00:00	28292	17	-45.0	-81.4	63	3
2023-08-21T00:00	28299	16	-44.8	-81.3	69	3
2023-08-21T00:00	28332	16	-44.8	-81.3	71	3
2023-08-21T00:00	28360	16	-44.7	-81.2	70	4
2023-08-21T00:00	28392	16	-44.3	-80.9	65	4
2023-08-21T00:00	28415	16	-44.0	-80.7	56	4
2023-08-21T00:00	28442	16	-43.8	-80.6	47	4
2023-08-21T00:00	28470	16	-43.8	-80.6	39	5
2023-08-21T00:00	28507	16	-43.7	-80.5	32	5
2023-08-21T00:00	28521	16	-43.6	-80.4	28	6
2023-08-21T00:00	28554	16	-43.5	-80.4	26	7
2023-08-21T00:00	28580	16	-43.5	-80.4	26	7
2023-08-21T00:00	28596	16	-43.5	-80.4	29	7
2023-08-21T00:00	28628	16	-43.4	-80.3	34	7
2023-08-21T00:00	28649	16	-43.3	-80.2	40	7
2023-08-21T00:00	28681	16	-43.2	-80.2	48	7
2023-08-21T00:00	28718	15	-43.2	-80.2	57	6
2023-08-21T00:00	28739	15	-43.0	-80.0	66	6
2023-08-21T00:00	28765	15	-43.1	-80.1	74	6
2023-08-21T00:00	28791	15	-43.1	-80.1	83	6
2023-08-21T00:00	28806	15	-43.1	-80.1	91	7
2023-08-21T00:00	28837	15	-43.2	-80.2	98	7
2023-08-21T00:00	28855	15	-43.3	-80.2	104	7
2023-08-21T00:00	28889	15	-43.4	-80.3	109	7
2023-08-21T00:00	28907	15	-43.6	-80.4	113	7
2023-08-21T00:00	28941	15	-43.6	-80.4	117	7
2023-08-21T00:00	28959	15	-43.5	-80.4	119	6
2023-08-21T00:00	28985	15	-43.6	-80.4	119	6
2023-08-21T00:00	29015	15	-43.6	-80.4	118	6
2023-08-21T00:00	29043	15	-43.5	-80.4	113	5
2023-08-21T00:00	29062	15	-43.2	-81.3	105	5
2023-08-21T00:00	29099	15	-42.8	-81.0	94	4
2023-08-21T00:00	29131	15	-42.5	-80.8	84	5
2023-08-21T00:00	29143	15	-42.5	-80.8	76	5
2023-08-21T00:00	29169	14	-42.4	-80.7	72	6
2023-08-21T00:00	29185	14	-42.2	-80.6	70	6
2023-08-21T00:00	29223	14	-42.0	-80.4	70	7
2023-08-21T00:00	29255	14	-41.9	-80.4	70	8
2023-08-21T00:00	29282	14	-41.7	-80.2	71	8
2023-08-21T00:00	29304	14	-41.7	-80.2	73	9
2023-08-21T00:00	29348	14	-41.7	-80.2	75	9
2023-08-21T00:00	29360	14	-41.7	-80.2	79	9
2023-08-21T00:00	29393	14	-41.8	-80.3	85	8
2023-08-21T00:00	29417	14	-41.8	-80.3	92	8
2023-08-21T00:00	29450	14	-41.8	-80.3	100	8
2023-08-21T00:00	29472	14	-41.7	-80.2	108	7
2023-08-21T00:00	29500	14	-41.8	-80.3	115	7
2023-08-21T00:00	29529	14	-41.9	-80.4	120	7
2023-08-21T00:00	29562	14	-42.0	-80.4	125	7
2023-08-21T00:00	29584	14	-42.2	-80.6	130	6
2023-08-21T00:00	29609	14	-42.2	-80.6	136	6
2023-08-21T00:00	29643	13	-42.3	-80.6	143	6
2023-08-21T00:00	29676	13	-42.4	-80.7	151	5
2023-08-21T00:00	29689	13	-42.5	-80.8	158	5
2023-08-21T00:00	29732	13	-42.5	-80.8	166	5
2023-08-21T00:00	29759	13	-42.6	-80.8	174	5
2023-08-21T00:00	29789	13	-42.7	-80.9	180	4
2023-08-21T00:00	29807	13	-42.6	-80.8	185	4
2023-08-21T00:00	29822	13	-42.6	-80.8	188	4
2023-08-21T00:00	29869	13	-42.6	-80.8	188	3
2023-08-21T00:00	29902	13	-42.6	-80.8	185	2
2023-08-21T00:00	29925	13	-42.5	-80.8	164	1
2023-08-21T00:00	29939	13	-42.3	-80.6	72	1
2023-08-21T00:00	29964	13	-42.3	-80.6	45	1
2023-08-21T00:00	29998	13	-42.2	-80.6	41	2
2023-08-21T00:00	30030	13	-42.2	-80.6	42	2
2023-08-21T00:00	30047	13	-42.1	-80.5	46	2
2023-08-21T00:00	30069	13	-42.0	-80.4	51	2
2023-08-21T00:00	30117	13	-41.9	-80.4	58	2
2023-08-21T00:00	30131	13	-41.7	-80.2	67	2
2023-08-21T00:00	30168	12	-41.6	-80.1	78	3
2023-08-21T00:00	30186	12	-41.7	-80.2	91	3
2023-08-21T00:00	30212	12	-41.6	-80.1	103	3
2023-08-21T00:00	30244	12	-41.6	-80.1	112	4
2023-08-21T00:00	30275	12	-41.6	-80.1	118	4
2023-08-21T00:00	30285	12	-41.7	-80.2	124	5
2023-08-21T00:00	30316	12	-41.8	-80.3	130	5
2023-08-21T00:00	30356	12	-41.9	-80.4	137	5
2023-08-21T00:00	30367	12	-41.9	-80.4	143	5
2023-08-21T00:00	30401	12	-41.8	-80.3	149	5
2023-08-21T00:00	30431	12	-41.6	-80.1	154	5
2023-08-21T00:00	30447	12	-41.5	-80.1	157	5
2023-08-21T00:00	30468	12	-41.6	-80.1	157	5
2023-08-21T00:00	30500	12	-41.6	-80.1	155	5
2023-08-21T00:00	30544	12	-41.5	-80.1	151	4
2023-08-21T00:00	30560	12	-41.3	-79.9	144	4
2023-08-21T00:00	30578	12	-41.3	-79.9	132	3
2023-08-21T00:00	30605	12	-41.2	-79.9	117	3
2023-08-21T00:00	30635	12	-41.0	-79.7	102	3
2023-08-21T00:00	30655	12	-40.9	-79.7	90	3
2023-08-21T00:00	30676	12	-40.7	-79.5	83	3
2023-08-21T00:00	30705	12	-40.6	-79.5	80	3
2023-08-21T00:00	30734	11	-40.5	-79.4	80	3
2023-08-21T00:00	30758	11	-40.4	-79.3	84	3
2023-08-21T00:00	30777	11	-40.3	-79.2	92	3
2023-08-21T00:00	30805	11	-40.2	-79.2	107	3
2023-08-21T00:00	30840	11	-40.0	-79.0	128	3
2023-08-21T00:00	30852	11	-39.7	-78.8	146	3
2023-08-21T00:00	30882	11	-39.6	-78.8	155	3
2023-08-21T00:00	30894	11	-39.6	-78.8	158	4
2023-08-21T00:00	30911	11	-39.6	-78.8	157	4
2023-08-21T00:00	30958	11	-39.6	-78.8	154	4
2023-08-21T00:00	30997	11	-39.6	-78.8	148	4
2023-08-21T00:00	31011	11	-39.5	-78.7	142	4
2023-08-21T00:00	31038	11	-39.5	-78.7	136	4
2023-08-21T00:00	31055	11	-39.5	-78.7	129	4
2023-08-21T00:00	31089	11	-39.5	-78.7	124	5
2023-08-21T00:00	31105	11	-39.4	-78.6	120	5
2023-08-21T00:00	31123	11	-39.5	-78.7	118	5
2023-08-21T00:00	31162	11	-39.4	-78.6	120	5
2023-08-21T00:00	31183	11	-39.0	-78.3	125	5
2023-08-21T00:00	31203	11	-38.9	-78.3	132	5
2023-08-21T00:00	31217	11	-38.4	-77.9	141	5
2023-08-21T00:00	31237	11	-38.2	-77.8	151	5
2023-08-21T00:00	31270	11	-38.2	-77.8	161	6
2023-08-21T00:00	31292	11	-38.3	-77.9	169	6
2023-08-21T00:00	31302	11	-38.4	-77.9	176	6
2023-08-21T00:00	31356	11	-38.4	-77.9	183	6
2023-08-21T00:00	31368	10	-38.4	-77.9	188	7
2023-08-21T00:00	31397	10	-38.5	-78.0	194	7
2023-08-21T00:00	31412	10	-38.4	-77.9	200	7
2023-08-21T00:00	31426	10	-38.3	-77.9	205	6
2023-08-21T00:00	31459	10	-38.2	-77.8	210	6
2023-08-21T00:00	31501	10	-38.2	-77.8	215	6
2023-08-21T00:00	31520	10	-38.3	-77.9	221	6
2023-08-21T00:00	31534	10	-38.4	-77.9	228	6
2023-08-21T00:00	31566	10	-38.5	-78.0	235	6
2023-08-21T00:00	31598	10	-38.6	-78.1	242	7
2023-08-21T00:00	31621	10	-38.5	-78.0	249	7
2023-08-21T00:00	31658	10	-38.2	-77.8	254	7
2023-08-21T00:00	31674	10	-38.1	-77.7	258	6
2023-08-21T00:00	31680	10	-38.0	-77.6	263	6
2023-08-21T00:00	31711	10	-37.8	-77.5	270	5
2023-08-21T00:00	31740	10	-37.8	-77.5	280	5
2023-08-21T00:00	31787	10	-37.8	-77.5	291	5
2023-08-21T00:00	31818	10	-37.6	-77.4	309	5
2023-08-21T00:00	31857	10	-37.6	-77.4	313	5
2023-08-21T00:00	31886	10	-37.3	-77.2	316	5
2023-08-21T00:00	31904	10	-37.2	-77.1	317	5
2023-08-21T00:00	31931	10	-37.2	-77.1	318	5
2023-08-21T00:00	31937	10	-37.1	-77.0	320	5
2023-08-21T00:00	31971	10	-37.0	-77.0	325	5
2023-08-21T00:00	31997	10	-36.9	-76.9	331	4
2023-08-21T00:00	32042	10	-36.7	-76.7	340	3
2023-08-21T00:00	32070	9	-36.2	-76.4	11	2
2023-08-21T00:00	32093	9	-36.1	-76.3	32	2
2023-08-21T00:00	32118	9	-35.9	-76.2	51	2
2023-08-21T00:00	32143	9	-35.8	-76.1	65	2
2023-08-21T00:00	32172	9	-35.8	-76.1	75	2
2023-08-21T00:00	32182	9	-35.8	-76.1	83	2
2023-08-21T00:00	32235	9	-35.9	-76.2	92	2
2023-08-21T00:00	32239	9	-36.0	-76.3	106	1
2023-08-21T00:00	32267	9	-36.0	-76.3	141	1
2023-08-21T00:00	32292	9	-35.9	-76.2	197	1
2023-08-21T00:00	32338	9	-35.9	-76.2	222	1
2023-08-21T00:00	32347	9	-35.8	-76.1	233	1
2023-08-21T00:00	32380	9	-35.7	-76.1	242	2
2023-08-21T00:00	32406	9	-35.6	-76.0	251	2
2023-08-21T00:00	32435	9	-35.6	-76.0	261	2
2023-08-21T00:00	32461	9	-35.6	-76.0	273	2
2023-08-21T00:00	32496	9	-35.6	-76.0	285	2
2023-08-21T00:00	32502	9	-35.7	-76.1	294	2
2023-08-21T00:00	32549	9	-35.7	-76.1	299	3
2023-08-21T00:00	32572	9	-35.7	-76.1	303	3
2023-08-21T00:00	32575	9	-35.7	-76.1	304	4
2023-08-21T00:00	32603	9	-35.7	-76.1	305	5
2023-08-21T00:00	32638	9	-35.5	-75.9	306	5
2023-08-21T00:00	32660	9	-35.5	-75.9	308	5
2023-08-21T00:00	32695	9	-35.6	-76.0	309	5
2023-08-21T00:00	32724	9	-35.7	-76.1	310	5
2023-08-21T00:00	32766	9	-35.7	-76.1	311	5
2023-08-21T00:00	32778	9	-35.6	-76.0	312	5
2023-08-21T00:00	32797	9	-35.7	-76.1	314	5
2023-08-21T00:00	32828	8	-35.7	-76.1	315	5
2023-08-21T00:00	32844	8	-35.8	-76.1	318	5
2023-08-21T00:00	32876	8	-35.8	-76.1	320	5
2023-08-21T00:00	32910	8	-35.9	-76.2	323	5
2023-08-21T00:00	32927	8	-35.9	-76.2	326	4
2023-08-21T00:00	32948	8	-35.9	-76.2	332	4
2023-08-21T00:00	32959	8	-35.8	-76.1	340	4
2023-08-21T00:00	32989	8	-35.7	-76.1	349	3
2023-08-21T00:00	33039	8	-35.7	-76.1	357	3
2023-08-21T00:00	33042	8	-35.7	-76.1	0	4
2023-08-21T00:00	33072	8	-35.7	-76.1	359	4
2023-08-21T00:00	33075	8	-35.7	-76.1	355	4
2023-08-21T00:00	33105	8	-35.5	-75.9	351	4
2023-08-21T00:00	33153	8	-35.5	-75.9	348	4
2023-08-21T00:00	33154	8	-35.4	-75.8	346	4
2023-08-21T00:00	33202	8	-35.4	-75.8	346	3
2023-08-21T00:00	33229	8	-35.4	-75.8	347	3
2023-08-21T00:00	33277	8	-35.4	-75.8	350	2
2023-08-21T00:00	33285	8	-35.3	-75.8	347	2
2023-08-21T00:00	33327	8	-35.4	-75.8	345	2
2023-08-21T00:00	33342	8	-35.4	-75.8	344	2
2023-08-21T00:00	33358	8	-35.3	-75.8	345	2
2023-08-21T00:00	33408	8	-35.2	-75.7	344	2
2023-08-21T00:00	33409	8	-35.1	-75.6	343	3
2023-08-21T00:00	33439	8	-35.1	-75.6	342	3
2023-08-21T00:00	33460	8	-35.2	-75.7	340	4
2023-08-21T00:00	33473	8	-35.2	-75.7	339	4
2023-08-21T00:00	33544	8	-34.9	-75.5	339	5
2023-08-21T00:00	33559	8	-34.8	-75.4	340	6
2023-08-21T00:00	33586	8	-34.7	-75.4	342	6
2023-08-21T00:00	33617	8	-34.5	-75.2	350	5
2023-08-21T00:00	33646	8	-34.4	-75.2	356	5
2023-08-21T00:00	33686	8	-34.2	-75.0	2	5
2023-08-21T00:00	33707	8	-34.1	-75.0	9	5
2023-08-21T00:00	33713	7	-34.0	-74.9	15	5
2023-08-21T00:00	33735	7	-33.8	-74.7	22	5
2023-08-21T00:00	33769	7	-33.7	-74.7	29	5
2023-08-21T00:00	33813	7	-33.6	-74.6	37	4
2023-08-21T00:00	33815	7	-33.5	-74.5	46	4
2023-08-21T00:00	33830	7	-33.2	-74.3	55	4
2023-08-21T00:00	33875	7	-33.1	-74.3	61	4
2023-08-21T00:00	33911	7	-33.0	-74.2	65	4
2023-08-21T00:00	33934	7	-33.0	-74.2	66	3
2023-08-21T00:00	33947	7	-33.0	-74.2	64	4
2023-08-21T00:00	33967	7	-33.1	-74.3	60	4
2023-08-21T00:00	33985	7	-33.1	-74.3	57	4
2023-08-21T06:00	112	1009	20.1	16.5	120	2
2023-08-21T06:00	137	1006	20.1	16.3	138	2
2023-08-21T06:00	163	1003	20.3	15.9	140	4
2023-08-21T06:00	184	1000	20.5	15.5	141	5
2023-08-21T06:00	208	998	20.7	15.2	141	5
2023-08-21T06:00	230	995	20.8	14.6	140	6
2023-08-21T06:00	255	993	20.7	14.4	139	6
2023-08-21T06:00	274	990	20.6	14.2	138	6
2023-08-21T06:00	291	988	20.9	12.2	137	6
2023-08-21T06:00	310	986	21.3	11.1	137	6
2023-08-21T06:00	331	984	21.6	11.3	139	5
2023-08-21T06:00	353	981	21.5	14.9	142	5
2023-08-21T06:00	374	979	21.4	15.3	148	4
2023-08-21T06:00	399	976	21.3	16.3	156	4
2023-08-21T06:00	421	973	21.2	16.9	166	3
2023-08-21T06:00	445	971	21.5	16.7	180	3
2023-08-21T06:00	465	969	21.5	16.0	198	2
2023-08-21T06:00	485	966	21.5	15.9	222	2
2023-08-21T06:00	512	963	21.4	15.2	248	2
2023-08-21T06:00	534	961	21.3	14.8	270	2
2023-08-21T06:00	558	958	21.2	14.4	283	2
2023-08-21T06:00	581	956	21.2	13.8	289	2
2023-08-21T06:00	601	954	21.0	13.6	286	2
2023-08-21T06:00	617	952	21.0	13.2	276	2
2023-08-21T06:00	635	950	20.9	12.7	268	2
2023-08-21T06:00	653	948	21.1	12.0	268	2
2023-08-21T06:00	672	946	21.0	11.8	274	2
2023-08-21T06:00	694	943	20.9	11.8	283	3
2023-08-21T06:00	716	941	20.7	11.5	291	3
2023-08-21T06:00	740	938	20.6	11.9	297	3
2023-08-21T06:00	764	936	20.3	11.8	299	3
2023-08-21T06:00	788	933	20.1	11.7	300	3
2023-08-21T06:00	811	931	19.9	11.7	301	4
2023-08-21T06:00	837	928	19.6	11.8	302	4
2023-08-21T06:00	862	925	19.4	11.7	302	4
2023-08-21T06:00	885	923	19.2	11.8	303	4
2023-08-21T06:00	911	920	18.9	12.0	304	5
2023-08-21T06:00	935	917	18.7	12.3	304	5
2023-08-21T06:00	961	915	18.4	12.5	304	5
2023-08-21T06:00	986	912	18.2	12.4	304	5
2023-08-21T06:00	1010	909	17.9	12.4	305	5
2023-08-21T06:00	1036	907	17.7	12.6	305	5
2023-08-21T06:00	1058	904	17.5	12.5	306	5
2023-08-21T06:00	1081	902	17.3	12.6	306	6
2023-08-21T06:00	1106	899	17.0	12.4	307	6
2023-08-21T06:00	1131	897	16.8	12.5	308	6
2023-08-21T06:00	1156	894	16.5	12.5	308	6
2023-08-21T06:00	1181	891	16.3	12.6	308	6
2023-08-21T06:00	1200	889	16.1	12.6	307	6
2023-08-21T06:00	1227	887	15.8	13.1	306	6
2023-08-21T06:00	1251	884	15.6	13.0	306	6
2023-08-21T06:00	1271	882	15.4	13.1	306	7
2023-08-21T06:00	1291	880	15.2	13.3	306	7
2023-08-21T06:00	1312	878	15.0	13.3	307	7
2023-08-21T06:00	1338	875	14.9	13.1	307	7
2023-08-21T06:00	1361	873	14.7	13.2	308	7
2023-08-21T06:00	1386	870	14.5	13.0	310	7
2023-08-21T06:00	1408	868	14.3	12.8	311	7
2023-08-21T06:00	1433	865	14.2	12.5	312	7
2023-08-21T06:00	1460	863	14.0	12.0	313	8
2023-08-21T06:00	1479	860	13.9	11.8	312	8
2023-08-21T06:00	1504	858	13.7	11.8	311	8
2023-08-21T06:00	1527	856	13.4	11.6	310	8
2023-08-21T06:00	1549	853	13.2	11.7	310	8
2023-08-21T06:00	1573	851	13.0	11.5	309	8
2023-08-21T06:00	1598	848	12.8	11.3	307	8
2023-08-21T06:00	1629	846	12.5	11.3	305	8
2023-08-21T06:00	1652	843	12.3	11.1	304	9
2023-08-21T06:00	1675	841	12.1	11.1	302	9
2023-08-21T06:00	1698	839	11.9	10.9	300	9
2023-08-21T06:00	1722	836	11.7	10.9	298	9
2023-08-21T06:00	1747	834	11.6	10.8	298	9
2023-08-21T06:00	1771	831	11.5	10.9	298	9
2023-08-21T06:00	1794	829	11.5	10.6	298	9
2023-08-21T06:00	1813	827	11.2	10.6	298	9
2023-08-21T06:00	1843	824	11.0	10.0	296	9
2023-08-21T06:00	1868	822	11.0	10.2	293	8
2023-08-21T06:00	1890	820	10.9	10.4	289	8
2023-08-21T06:00	1914	817	10.8	10.5	286	8
2023-08-21T06:00	1937	815	10.6	10.4	283	7
2023-08-21T06:00	1962	813	10.4	10.4	281	7
2023-08-21T06:00	1984	810	10.3	10.3	279	7
2023-08-21T06:00	2002	809	10.3	10.3	276	7
2023-08-21T06:00	2024	806	10.2	10.2	273	7
2023-08-21T06:00	2046	804	10.1	10.1	269	7
2023-08-21T06:00	2068	802	10.0	10.0	268	8
2023-08-21T06:00	2088	800	9.9	9.9	267	8
2023-08-21T06:00	2110	798	9.7	9.7	268	9
2023-08-21T06:00	2134	796	9.6	9.5	267	9
2023-08-21T06:00	2154	794	9.5	9.4	266	9
2023-08-21T06:00	2185	791	9.4	9.2	263	10
2023-08-21T06:00	2209	789	9.3	9.2	259	10
2023-08-21T06:00	2233	787	9.1	9.0	255	10
2023-08-21T06:00	2255	784	9.2	8.7	252	10
2023-08-21T06:00	2280	782	9.2	8.5	251	10
2023-08-21T06:00	2302	780	9.1	8.7	251	10
2023-08-21T06:00	2325	778	8.9	8.4	252	10
2023-08-21T06:00	2353	775	8.6	8.4	253	11
2023-08-21T06:00	2376	773	8.5	8.3	253	11
2023-08-21T06:00	2399	771	8.5	8.2	251	11
2023-08-21T06:00	2427	768	8.4	7.7	248	11
2023-08-21T06:00	2452	766	8.3	7.7	245	11
2023-08-21T06:00	2478	764	8.1	7.6	241	11
2023-08-21T06:00	2500	761	7.9	7.5	238	11
2023-08-21T06:00	2525	759	7.7	7.3	236	11
2023-08-21T06:00	2542	758	7.6	7.3	235	12
2023-08-21T06:00	2565	756	7.4	7.3	236	12
2023-08-21T06:00	2589	753	7.2	6.9	237	12
2023-08-21T06:00	2616	751	7.1	6.6	240	12
2023-08-21T06:00	2638	749	7.0	6.6	242	12
2023-08-21T06:00	2663	747	6.8	6.3	245	12
2023-08-21T06:00	2687	745	6.7	6.3	247	12
2023-08-21T06:00	2715	742	6.5	5.9	248	12
2023-08-21T06:00	2738	740	6.3	5.9	249	12
2023-08-21T06:00	2761	738	6.2	5.6	250	12
2023-08-21T06:00	2787	736	6.1	5.4	250	12
2023-08-21T06:00	2812	733	5.8	5.3	251	13
2023-08-21T06:00	2838	731	5.6	5.2	250	13
2023-08-21T06:00	2858	729	5.4	5.3	249	13
2023-08-21T06:00	2884	727	5.1	5.1	249	13
2023-08-21T06:00	2905	725	5.0	5.0	248	13
2023-08-21T06:00	2930	723	4.8	4.8	249	13
2023-08-21T06:00	2953	721	4.7	4.7	250	13
2023-08-21T06:00	2974	719	4.6	4.6	252	13
2023-08-21T06:00	3000	717	4.4	4.4	252	13
2023-08-21T06:00	3027	714	4.1	4.1	252	14
2023-08-21T06:00	3050	712	3.9	3.9	251	14
2023-08-21T06:00	3073	710	3.8	3.8	249	14
2023-08-21T06:00	3095	708	3.6	3.5	248	15
2023-08-21T06:00	3118	706	3.4		247	15
2023-08-21T06:00	3138	704	3.2	3.1	246	15
2023-08-21T06:00	3160	703	3.1	3.1	246	14
2023-08-21T06:00	3187	700	2.9	2.9	247	14
2023-08-21T06:00	3212	698	2.7	2.2	247	14
2023-08-21T06:00	3235	696	2.6	2.3	247	14
2023-08-21T06:00	3264	694	2.5	1.3	248	13
2023-08-21T06:00	3293	691	2.5	1.2	249	13
2023-08-21T06:00	3322	689	2.4	1.0	252	13
2023-08-21T06:00	3355	686	2.2	0.8	255	13
2023-08-21T06:00	3374	684	2.1	0.7	259	14
2023-08-21T06:00	3392	683	2.0	0.7	261	14
2023-08-21T06:00	3410	681	1.9	0.5	262	14
2023-08-21T06:00	3426	680	1.7	0.6	262	14
2023-08-21T06:00	3443	679	1.6	0.7	262	14
2023-08-21T06:00	3459	677	1.5	0.3	262	14
2023-08-21T06:00	3483	675	1.3	0.2	262	15
2023-08-21T06:00	3504	673	1.1	0.0	262	15
2023-08-21T06:00	3524	672	1.0	-0.2	262	16
2023-08-21T06:00	3545	670	0.8	-0.2	261	16
2023-08-21T06:00	3566	668	0.7	-0.6	260	16
2023-08-21T06:00	3590	666	0.5	-0.8	258	17
2023-08-21T06:00	3611	665	0.4	-0.9	256	16
2023-08-21T06:00	3629	663	0.4	-1.4	255	16
2023-08-21T06:00	3654	661	0.3	-1.5	254	16
2023-08-21T06:00	3679	659	0.2	-1.6	254	17
2023-08-21T06:00	3712	656	-0.2	-1.8	255	17
2023-08-21T06:00	3738	654	-0.3	-1.8	257	17
2023-08-21T06:00	3766	652	-1.0	-1.6	260	18
2023-08-21T06:00	3798	649	-1.1	-2.3	263	18
2023-08-21T06:00	3830	647	-0.9	-2.7	266	19
2023-08-21T06:00	3861	644	-1.4	-3.0	268	19
2023-08-21T06:00	3889	642	-1.7	-3.9	270	19
2023-08-21T06:00	3917	640	-0.1	-8.8	270	19
2023-08-21T06:00	3944	637	2.3	-19.0	269	19
2023-08-21T06:00	3968	636	2.4	-21.1	269	19
2023-08-21T06:00	3986	634	2.5	-22.0	268	19
2023-08-21T06:00	4005	633	2.4	-21.5	269	19
2023-08-21T06:00	4024	631	2.2	-21.2	270	19
2023-08-21T06:00	4049	629	2.1	-21.0	272	19
2023-08-21T06:00	4075	627	1.9	-20.8	273	19
2023-08-21T06:00	4100	625	1.8	-19.2	274	19
2023-08-21T06:00	4126	623	1.5	-18.8	274	19
2023-08-21T06:00	4149	621	1.5	-20.4	273	18
2023-08-21T06:00	4181	619	1.4	-22.4	272	18
2023-08-21T06:00	4204	617	1.7	-26.0	271	17
2023-08-21T06:00	4228	615	2.2	-32.9	270	17
2023-08-21T06:00	4254	613	2.4	-32.8	268	16
2023-08-21T06:00	4280	611	2.3	-32.9	265	16
2023-08-21T06:00	4302	610	2.2	-32.9	263	16
2023-08-21T06:00	4329	608	2.2	-33.4	262	15
2023-08-21T06:00	4359	606	1.9	-33.6	261	15
2023-08-21T06:00	4384	604	1.7	-33.5	261	15
2023-08-21T06:00	4415	601	1.5	-33.6	262	15
2023-08-21T06:00	4445	599	1.2	-33.8	263	15
2023-08-21T06:00	4474	597	1.1	-34.2	264	15
2023-08-21T06:00	4502	595	1.3	-34.5	264	15
2023-08-21T06:00	4529	593	1.1	-34.7	264	16
2023-08-21T06:00	4559	591	0.9	-35.1	264	16
2023-08-21T06:00	4588	588	0.7	-34.9	264	16
2023-08-21T06:00	4616	586	0.7	-29.9	265	16
2023-08-21T06:00	4646	584	0.4	-27.5	266	16
2023-08-21T06:00	4678	582	0.1	-24.8	268	16
2023-08-21T06:00	4698	580	0.0	-24.8	271	16
2023-08-21T06:00	4718	579	-0.2	-24.9	273	16
2023-08-21T06:00	4740	577	-0.4	-24.9	274	16
2023-08-21T06:00	4767	575	-0.6	-25.0	275	16
2023-08-21T06:00	4795	573	-0.9	-25.2	277	16
2023-08-21T06:00	4818	572	-1.1	-25.3	278	16
2023-08-21T06:00	4844	570	-1.3	-25.3	279	17
2023-08-21T06:00	4865	568	-1.5	-25.4	279	17
2023-08-21T06:00	4883	567	-1.6	-25.6	279	18
2023-08-21T06:00	4901	566	-1.7	-25.6	279	18
2023-08-21T06:00	4921	564	-1.8	-25.6	279	18
2023-08-21T06:00	4938	563	-2.0	-25.8	279	19
2023-08-21T06:00	4956	562	-2.1	-26.1	279	19
2023-08-21T06:00	4974	561	-2.1	-26.9	279	19
2023-08-21T06:00	4992	559	-2.2	-27.5	280	19
2023-08-21T06:00	5009	558	-2.2	-27.7	280	19
2023-08-21T06:00	5027	557	-2.3	-27.7	280	19
2023-08-21T06:00	5045	556	-2.4		280	19
2023-08-21T06:00	5061	555	-2.5	-27.4	279	20
2023-08-21T06:00	5076	553	-2.6	-27.6	278	20
2023-08-21T06:00	5093	552	-2.7	-28.5	278	20
2023-08-21T06:00	5109	551	-2.7	-28.9	277	20
2023-08-21T06:00	5125	550	-2.7	-29.9	277	21
2023-08-21T06:00	5141	549	-2.7	-30.0	277	21
2023-08-21T06:00	5156	548	-2.8	-29.9	277	21
2023-08-21T06:00	5174	547	-2.9	-29.4	277	21
2023-08-21T06:00	5191	545	-3.0	-28.8	277	21
2023-08-21T06:00	5208	544	-3.1	-28.3	277	21
2023-08-21T06:00	5233	543	-3.3	-26.4	277	21
2023-08-21T06:00	5256	541	-3.5	-26.7	276	21
2023-08-21T06:00	5281	539	-3.7	-26.4	275	20
2023-08-21T06:00	5309	538	-3.9	-27.3	275	20
2023-08-21T06:00	5329	536	-3.9	-27.7	274	20
2023-08-21T06:00	5353	535	-4.1	-28.8	274	20
2023-08-21T06:00	5374	533	-4.2	-29.4	274	20
2023-08-21T06:00	5394	532	-4.3	-30.6	274	20
2023-08-21T06:00	5421	530	-4.4	-32.9	275	20
2023-08-21T06:00	5451	528	-4.6	-33.1	275	20
2023-08-21T06:00	5478	526	-4.8	-33.4	276	20
2023-08-21T06:00	5500	525	-4.9	-33.6	276	20
2023-08-21T06:00	5519	523	-5.0	-31.8	277	20
2023-08-21T06:00	5540	522	-5.0		278	20
2023-08-21T06:00	5559	520	-5.2	-33.7	278	21
2023-08-21T06:00	5591	519	-5.3	-32.8	278	21
2023-08-21T06:00	5615	517	-5.5	-33.8	278	21
2023-08-21T06:00	5640	515	-5.6	-33.1	277	21
2023-08-21T06:00	5668	513	-5.8	-33.6	277	21
2023-08-21T06:00	5689	512	-5.9	-35.7	277	22
2023-08-21T06:00	5715	510	-6.1	-35.6	277	22
2023-08-21T06:00	5748	508	-6.3	-34.7	277	22
2023-08-21T06:00	5773	507	-6.5	-35.3	277	22
2023-08-21T06:00	5797	505	-6.7	-35.8	277	22
2023-08-21T06:00	5818	504	-6.9	-36.1	276	22
2023-08-21T06:00	5841	502	-7.1	-36.4	276	22
2023-08-21T06:00	5865	501	-7.2	-36.5	276	22
2023-08-21T06:00	5888	499	-7.4	-36.7	276	22
2023-08-21T06:00	5909	498	-7.6	-37.0	275	22
2023-08-21T06:00	5934	496	-7.8	-37.0	275	22
2023-08-21T06:00	5956	495	-8.0	-37.0	275	23
2023-08-21T06:00	5977	493	-8.2	-36.7	275	23
2023-08-21T06:00	6001	492	-8.3	-36.5	274	23
2023-08-21T06:00	6026	490	-8.5	-36.4	274	23
2023-08-21T06:00	6050	489	-8.7	-35.7	274	23
2023-08-21T06:00	6072	487	-8.9	-35.7	274	22
2023-08-21T06:00	6096	486	-9.2	-36.0	273	22
2023-08-21T06:00	6120	484	-9.4	-35.6	273	22
2023-08-21T06:00	6144	483	-9.6	-35.1	273	22
2023-08-21T06:00	6171	481	-9.8	-35.3	273	21
2023-08-21T06:00	6196	480	-9.9	-35.6	273	21
2023-08-21T06:00	6221	478	-10.1	-35.7	274	21
2023-08-21T06:00	6245	477	-10.2	-35.7	274	21
2023-08-21T06:00	6272	475	-10.4	-35.8	274	21
2023-08-21T06:00	6295	473	-10.7	-35.9	274	21
2023-08-21T06:00	6325	472	-11.0	-35.9	273	21
2023-08-21T06:00	6354	470	-11.2	-35.9	272	21
2023-08-21T06:00	6383	468	-11.4	-36.1	272	21
2023-08-21T06:00	6414	466	-11.6	-37.2	271	21
2023-08-21T06:00	6448	464	-11.7	-37.9	271	21
2023-08-21T06:00	6483	462	-11.9	-38.2	272	21
2023-08-21T06:00	6508	461	-12.1		272	21
2023-08-21T06:00	6535	459	-12.3	-38.1	273	21
2023-08-21T06:00	6564	457	-12.5	-38.4	273	20
2023-08-21T06:00	6591	456	-12.6	-38.1	272	20
2023-08-21T06:00	6621	454	-12.8	-38.3	272	20
2023-08-21T06:00	6646	452	-13.0	-38.7	271	20
2023-08-21T06:00	6671	451	-13.2	-39.1	270	20
2023-08-21T06:00	6702	449	-13.3	-39.4	270	21
2023-08-21T06:00	6727	448	-13.5	-39.8	270	21
2023-08-21T06:00	6753	446	-13.7	-40.0	270	21
2023-08-21T06:00	6782	444	-13.9	-40.2	270	22
2023-08-21T06:00	6811	443	-14.1	-40.4	270	22
2023-08-21T06:00	6838	441	-14.2	-40.7	270	22
2023-08-21T06:00	6864	440	-14.4	-41.9	269	21
2023-08-21T06:00	6890	438	-14.5	-42.8	269	21
2023-08-21T06:00	6915	437	-14.7	-43.8	269	21
2023-08-21T06:00	6939	435	-14.9	-44.5	270	21
2023-08-21T06:00	6962	434	-15.0	-44.7	270	21
2023-08-21T06:00	6991	432	-15.2	-44.9	271	21
2023-08-21T06:00	7019	431	-15.3	-45.2	272	21
2023-08-21T06:00	7040	429	-15.5	-45.3	273	20
2023-08-21T06:00	7064	428	-15.6	-45.4	273	20
2023-08-21T06:00	7091	427	-15.8	-45.4	274	20
2023-08-21T06:00	7117	425	-16.0	-45.5	275	20
2023-08-21T06:00	7139	424	-16.1	-45.6	275	20
2023-08-21T06:00	7163	423	-16.3	-45.8	275	20
2023-08-21T06:00	7183	421	-16.5	-45.9	275	20
2023-08-21T06:00	7207	420	-16.6	-46.0	274	20
2023-08-21T06:00	7229	419	-16.8	-46.3	274	20
2023-08-21T06:00	7250	418	-16.9	-46.8	273	20
2023-08-21T06:00	7267	417	-17.0	-47.1	274	20
2023-08-21T06:00	7288	416	-17.2	-47.0	274	20
2023-08-21T06:00	7305	415	-17.3	-43.6	274	20
2023-08-21T06:00	7323	413	-17.4	-35.6	275	20
2023-08-21T06:00	7345	412	-17.6	-34.3	275	20
2023-08-21T06:00	7365	411	-17.8	-34.5	276	20
2023-08-21T06:00	7386	410	-18.0	-34.5	276	20
2023-08-21T06:00	7407	409	-18.2	-34.1	277	20
2023-08-21T06:00	7430	408	-18.4	-34.0	279	19
2023-08-21T06:00	7452	406	-18.6	-34.2	280	19
2023-08-21T06:00	7477	405	-18.8	-34.9	281	19
2023-08-21T06:00	7500	404	-18.8	-36.2	282	19
2023-08-21T06:00	7518	403	-18.9	-36.9	283	19
2023-08-21T06:00	7538	402	-18.9	-38.3	283	19
2023-08-21T06:00	7553	401	-18.9	-39.3	283	19
2023-08-21T06:00	7569	400	-19.0	-39.0	283	19
2023-08-21T06:00	7584	399	-19.1	-38.4	283	19
2023-08-21T06:00	7598	399	-19.2	-38.5	283	20
2023-08-21T06:00	7613	398	-19.3	-38.4	283	20
2023-08-21T06:00	7631	397	-19.5	-38.3	282	20
2023-08-21T06:00	7647	396	-19.6	-38.4	282	20
2023-08-21T06:00	7664	395	-19.7	-39.1	282	20
2023-08-21T06:00	7679	394	-19.8	-40.0	281	20
2023-08-21T06:00	7695	393	-19.9	-39.4	282	21
2023-08-21T06:00	7712	393	-20.0	-39.6	282	21
2023-08-21T06:00	7727	392	-20.2	-40.0	283	21
2023-08-21T06:00	7743	391	-20.3	-41.3	283	21
2023-08-21T06:00	7762	390	-20.4	-43.1	284	22
2023-08-21T06:00	7777	389	-20.4	-43.1	284	22
2023-08-21T06:00	7793	388	-20.4	-43.9	285	22
2023-08-21T06:00	7809	387	-20.5	-43.5	285	22
2023-08-21T06:00	7826	387	-20.6	-43.4	285	22
2023-08-21T06:00	7842	386	-20.7	-44.5	286	22
2023-08-21T06:00	7858	385	-20.8	-45.6	286	22
2023-08-21T06:00	7875	384	-20.9	-46.0	286	22
2023-08-21T06:00	7890	383	-21.0	-45.9	286	22
2023-08-21T06:00	7908	382	-21.2	-46.0	286	22
2023-08-21T06:00	7924	381	-21.3	-46.0	285	22
2023-08-21T06:00	7941	380	-21.4	-45.9	285	23
2023-08-21T06:00	7960	380	-21.6	-45.9	285	23
2023-08-21T06:00	7979	379	-21.7	-45.9	285	23
2023-08-21T06:00	7996	378	-21.8	-46.0	285	23
2023-08-21T06:00	8015	377	-22.0	-46.1	285	23
2023-08-21T06:00	8037	376	-22.1	-46.6	284	23
2023-08-21T06:00	8059	374	-22.2	-45.8	284	23
2023-08-21T06:00	8086	373	-22.4	-42.6	283	22
2023-08-21T06:00	8107	372	-22.5	-41.2	282	22
2023-08-21T06:00	8125	371	-22.6	-40.3	281	22
2023-08-21T06:00	8145	370	-22.8	-38.9	280	21
2023-08-21T06:00	8166	369	-23.0	-37.3	280	21
2023-08-21T06:00	8184	368	-23.1	-37.1	280	20
2023-08-21T06:00	8202	367	-23.3	-36.8	280	20
2023-08-21T06:00	8223	366	-23.5	-36.5	280	20
2023-08-21T06:00	8243	365	-23.7	-36.7	280	20
2023-08-21T06:00	8264	364	-23.9	-36.6	280	20
2023-08-21T06:00	8283	363	-24.1	-36.6	280	20
2023-08-21T06:00	8303	362	-24.3	-36.7	280	20
2023-08-21T06:00	8324	361	-24.5	-36.5	280	20
2023-08-21T06:00	8347	360	-24.7	-36.6	280	20
2023-08-21T06:00	8370	359	-24.9	-36.5	279	20
2023-08-21T06:00	8391	358	-25.1	-36.6	279	20
2023-08-21T06:00	8417	357	-25.4	-36.5	278	20
2023-08-21T06:00	8443	355	-25.6	-36.7	278	20
2023-08-21T06:00	8466	354	-25.8	-36.7	278	20
2023-08-21T06:00	8490	353	-26.1	-36.7	278	20
2023-08-21T06:00	8513	352	-26.3	-36.8	278	20
2023-08-21T06:00	8535	351	-26.5	-36.9	278	20
2023-08-21T06:00	8562	350	-26.8	-36.9	278	20
2023-08-21T06:00	8587	348	-27.0	-37.0	278	20
2023-08-21T06:00	8613	347	-27.3	-37.0	278	20
2023-08-21T06:00	8642	346	-27.6	-37.2	278	20
2023-08-21T06:00	8667	344	-27.8	-37.2	278	20
2023-08-21T06:00	8692	343	-28.1	-37.3	277	20
2023-08-21T06:00	8717	342	-28.3	-37.3	278	20
2023-08-21T06:00	8739	341	-28.5	-37.4	278	20
2023-08-21T06:00	8760	340	-28.7	-37.4	278	20
2023-08-21T06:00	8785	339	-29.0	-37.4	278	20
2023-08-21T06:00	8807	338	-29.2	-37.6	278	20
2023-08-21T06:00	8830	337	-29.4	-37.7	278	20
2023-08-21T06:00	8851	336	-29.6	-37.6	278	20
2023-08-21T06:00	8872	335	-29.8	-37.6	279	21
2023-08-21T06:00	8897	334	-30.0	-38.8	279	21
2023-08-21T06:00	8920	333	-30.1	-39.8	280	21
2023-08-21T06:00	8939	332	-30.3	-40.0	281	21
2023-08-21T06:00	8961	331	-30.4		281	21
2023-08-21T06:00	8982	330	-30.5	-41.8	282	21
2023-08-21T06:00	9001	329	-30.7	-42.3	282	21
2023-08-21T06:00	9021	328	-30.8	-43.2	282	22
2023-08-21T06:00	9046	327	-30.9	-43.9	281	22
2023-08-21T06:00	9066	326	-31.0	-44.9	281	22
2023-08-21T06:00	9086	325	-31.2	-45.0	280	22
2023-08-21T06:00	9107	324	-31.3	-45.7	280	22
2023-08-21T06:00	9129	323	-31.5	-46.3	280	23
2023-08-21T06:00	9152	322	-31.6	-46.9	279	23
2023-08-21T06:00	9170	321	-31.8	-47.2	279	23
2023-08-21T06:00	9192	320	-32.0	-47.4	278	23
2023-08-21T06:00	9216	319	-32.2	-48.2	278	23
2023-08-21T06:00	9237	318	-32.2	-49.3	278	24
2023-08-21T06:00	9259	317	-32.4	-49.4	277	24
2023-08-21T06:00	9281	316	-32.5	-49.5	276	24
2023-08-21T06:00	9306	315	-32.7	-49.6	276	24
2023-08-21T06:00	9328	314	-32.9	-50.1	275	24
2023-08-21T06:00	9350	313	-33.0	-50.9	275	24
2023-08-21T06:00	9371	312	-33.0	-52.6	274	24
2023-08-21T06:00	9392	311	-33.1	-53.1	274	24
2023-08-21T06:00	9413	310	-33.3	-52.8	275	24
2023-08-21T06:00	9438	309	-33.5	-51.3	275	24
2023-08-21T06:00	9457	308	-33.7	-50.0	275	24
2023-08-21T06:00	9481	307	-33.9	-49.0	275	24
2023-08-21T06:00	9503	306	-34.1	-48.6	274	24
2023-08-21T06:00	9524	305	-34.2	-50.3	274	24
2023-08-21T06:00	9546	304	-34.5	-51.0	274	24
2023-08-21T06:00	9569	303	-34.7	-51.2	274	24
2023-08-21T06:00	9589	302	-34.9	-51.4	273	24
2023-08-21T06:00	9611	301	-35.1	-51.4	273	23
2023-08-21T06:00	9631	301	-35.3	-51.1	274	23
2023-08-21T06:00	9652	300	-35.5	-50.9	274	23
2023-08-21T06:00	9674	299	-35.7	-50.7	274	24
2023-08-21T06:00	9695	298	-35.9	-50.1	274	24
2023-08-21T06:00	9719	297	-36.1	-50.1	274	24
2023-08-21T06:00	9746	296	-36.3	-50.0	275	24
2023-08-21T06:00	9772	295	-36.4	-50.3	275	25
2023-08-21T06:00	9791	294	-36.6	-50.4	276	25
2023-08-21T06:00	9812	293	-36.8	-50.5	277	25
2023-08-21T06:00	9837	292	-36.9	-50.6	278	25
2023-08-21T06:00	9859	291	-37.1	-51.2	278	25
2023-08-21T06:00	9878	290	-37.2	-51.3	278	24
2023-08-21T06:00	9899	289	-37.4	-51.4	278	24
2023-08-21T06:00	9919	288	-37.6	-51.4	277	24
2023-08-21T06:00	9940	287	-37.8	-51.3	277	24
2023-08-21T06:00	9958	287	-37.9	-51.1	277	24
2023-08-21T06:00	9980	286	-38.1	-51.4	278	24
2023-08-21T06:00	9998	285	-38.2	-51.3	278	24
2023-08-21T06:00	10020	284	-38.4	-51.4	278	24
2023-08-21T06:00	10042	283	-38.6	-51.7	278	24
2023-08-21T06:00	10061	282	-38.8	-51.3	278	24
2023-08-21T06:00	10082	282	-38.9	-50.7	278	24
2023-08-21T06:00	10102	281	-39.1	-50.5	278	24
2023-08-21T06:00	10123	280	-39.3	-50.8	277	24
2023-08-21T06:00	10145	279	-39.5	-50.8	277	24
2023-08-21T06:00	10164	278	-39.7	-50.8	277	24
2023-08-21T06:00	10185	277	-39.8	-50.9	277	24
2023-08-21T06:00	10206	277	-40.1	-51.0	277	24
2023-08-21T06:00	10225	276	-40.2	-50.9	277	24
2023-08-21T06:00	10247	275	-40.4	-51.0	277	24
2023-08-21T06:00	10267	274	-40.6	-51.2	277	24
2023-08-21T06:00	10288	273	-40.8	-51.4	277	24
2023-08-21T06:00	10308	272	-41.0	-51.3	277	24
2023-08-21T06:00	10331	272	-41.2	-51.4	277	24
2023-08-21T06:00	10351	271	-41.4	-51.3	277	24
2023-08-21T06:00	10373	270	-41.6	-51.4	277	24
2023-08-21T06:00	10393	269	-41.8	-51.5	278	24
2023-08-21T06:00	10413	268	-41.9	-51.5	278	24
2023-08-21T06:00	10434	267	-42.2	-51.8	278	24
2023-08-21T06:00	10454	267	-42.3	-51.7	278	25
2023-08-21T06:00	10475	266	-42.5	-51.8	278	25
2023-08-21T06:00	10493	265	-42.7	-51.9	279	25
2023-08-21T06:00	10514	264	-42.9	-52.3	279	25
2023-08-21T06:00	10533	263	-43.0	-52.9	280	25
2023-08-21T06:00	10552	263	-43.1	-53.1	280	26
2023-08-21T06:00	10572	262	-43.3	-53.2	281	26
2023-08-21T06:00	10590	261	-43.5	-53.7	281	26
2023-08-21T06:00	10611	260	-43.6	-54.7	281	26
2023-08-21T06:00	10630	260	-43.7	-55.9	282	26
2023-08-21T06:00	10651	259	-43.8	-57.1	282	26
2023-08-21T06:00	10669	258	-43.9	-57.1	283	26
2023-08-21T06:00	10688	257	-43.9	-56.8	283	26
2023-08-21T06:00	10709	257	-44.0	-57.2	284	26
2023-08-21T06:00	10727	256	-44.0	-57.0	284	26
2023-08-21T06:00	10748	255	-44.2	-56.5	285	26
2023-08-21T06:00	10767	254	-44.3	-56.3	285	26
2023-08-21T06:00	10783	254	-44.5	-56.6	285	27
2023-08-21T06:00	10805	253	-44.6	-57.0	285	27
2023-08-21T06:00	10823	252	-44.7	-57.8	285	27
2023-08-21T06:00	10840	252	-44.8	-58.5	285	27
2023-08-21T06:00	10859	251	-45.0	-59.2	285	27
2023-08-21T06:00	10876	250	-45.1	-59.3	285	28
2023-08-21T06:00	10895	250	-45.1	-59.1	286	28
2023-08-21T06:00	10911	249	-45.1	-58.7	286	28
2023-08-21T06:00	10929	248	-45.1	-58.5	286	28
2023-08-21T06:00	10945	248	-45.1		287	28
2023-08-21T06:00	10963	247	-45.3	-59.0	287	28
2023-08-21T06:00	10982	246	-45.4	-58.8	287	28
2023-08-21T06:00	10998	246	-45.5	-58.7	287	28
2023-08-21T06:00	11017	245	-45.6	-58.2	287	28
2023-08-21T06:00	11034	245	-45.7	-57.5	287	28
2023-08-21T06:00	11050	244	-45.9	-57.2	287	28
2023-08-21T06:00	11068	243	-46.1	-57.2	287	28
2023-08-21T06:00	11086	243	-46.2	-57.4	287	28
2023-08-21T06:00	11101	242	-46.4	-57.6	286	28
2023-08-21T06:00	11118	241	-46.5	-57.6	286	28
2023-08-21T06:00	11134	241	-46.7	-57.7	286	28
2023-08-21T06:00	11151	240	-46.8	-57.8	286	28
2023-08-21T06:00	11169	240	-46.9	-57.6	286	29
2023-08-21T06:00	11186	239	-47.1	-57.5	286	29
2023-08-21T06:00	11205	238	-47.3	-57.5	286	29
2023-08-21T06:00	11220	238	-47.4	-57.8	286	29
2023-08-21T06:00	11237	237	-47.5	-58.2	287	29
2023-08-21T06:00	11254	236	-47.6	-58.3	287	29
2023-08-21T06:00	11270	236	-47.7	-58.2	288	29
2023-08-21T06:00	11285	235	-47.8	-58.0	288	29
2023-08-21T06:00	11303	235	-48.0	-57.7	288	29
2023-08-21T06:00	11322	234	-48.2	-57.5	289	29
2023-08-21T06:00	11337	234	-48.3	-57.5	289	29
2023-08-21T06:00	11356	233	-48.4	-57.7	289	29
2023-08-21T06:00	11373	232	-48.5	-58.0	290	29
2023-08-21T06:00	11391	232	-48.6	-58.3	290	30
2023-08-21T06:00	11409	231	-48.6	-58.6	290	30
2023-08-21T06:00	11425	230	-48.7	-58.9	290	30
2023-08-21T06:00	11441	230	-48.7	-59.1	290	30
2023-08-21T06:00	11460	229	-48.8	-59.3	290	30
2023-08-21T06:00	11477	229	-48.9	-59.4	290	30
2023-08-21T06:00	11496	228	-49.0	-59.4	290	30
2023-08-21T06:00	11514	227	-49.2	-59.7	290	31
2023-08-21T06:00	11534	227	-49.2	-59.8	290	31
2023-08-21T06:00	11553	226	-49.2	-59.9	290	31
2023-08-21T06:00	11571	225	-49.3	-59.9	290	31
2023-08-21T06:00	11589	225	-49.5	-60.0	290	31
2023-08-21T06:00	11608	224	-49.6	-59.9	290	31
2023-08-21T06:00	11628	223	-49.7	-59.9	290	31
2023-08-21T06:00	11649	223	-49.8	-59.9	290	31
2023-08-21T06:00	11667	222	-50.0	-60.2	289	31
2023-08-21T06:00	11690	221	-50.1	-60.4	289	31
2023-08-21T06:00	11709	221	-50.3	-60.5	289	31
2023-08-21T06:00	11732	220	-50.4	-60.5	289	31
2023-08-21T06:00	11752	219	-50.5	-60.8	289	31
2023-08-21T06:00	11773	219	-50.7	-61.0	289	31
2023-08-21T06:00	11793	218	-50.9	-61.1	290	31
2023-08-21T06:00	11814	217	-51.0	-61.0	290	31
2023-08-21T06:00	11833	216	-51.2	-61.1	290	31
2023-08-21T06:00	11856	216	-51.4	-61.3	290	31
2023-08-21T06:00	11876	215	-51.6	-61.4	290	31
2023-08-21T06:00	11897	214	-51.7	-61.4	290	31
2023-08-21T06:00	11919	214	-51.9	-61.5	290	32
2023-08-21T06:00	11941	213	-52.0	-61.6	290	32
2023-08-21T06:00	11963	212	-52.2	-61.8	290	32
2023-08-21T06:00	11984	212	-52.2	-61.8	290	32
2023-08-21T06:00	12006	211	-52.5	-61.9	290	31
2023-08-21T06:00	12027	210	-52.7	-62.1	290	31
2023-08-21T06:00	12050	209	-52.7	-62.4	290	31
2023-08-21T06:00	12070	209	-52.7	-62.8	290	30
2023-08-21T06:00	12092	208	-52.8	-63.0	289	30
2023-08-21T06:00	12114	207	-52.9	-63.1	289	30
2023-08-21T06:00	12139	207	-53.1	-63.1	289	30
2023-08-21T06:00	12160	206	-53.2	-63.1	288	30
2023-08-21T06:00	12183	205	-53.4	-63.2	288	30
2023-08-21T06:00	12204	204	-53.6	-63.2	288	30
2023-08-21T06:00	12228	204	-53.8	-63.3	288	30
2023-08-21T06:00	12248	203	-54.0	-63.3	288	30
2023-08-21T06:00	12271	202	-54.1	-63.4	288	30
2023-08-21T06:00	12291	202	-54.3	-63.4	288	30
2023-08-21T06:00	12315	201	-54.5	-63.5	288	30
2023-08-21T06:00	12336	200	-54.6	-63.5	288	29
2023-08-21T06:00	12357	200	-54.8	-63.7	289	29
2023-08-21T06:00	12378	199	-55.0	-63.9	289	29
2023-08-21T06:00	12399	198	-55.1	-64.0	288	29
2023-08-21T06:00	12420	198	-55.2	-64.1	288	29
2023-08-21T06:00	12442	197	-55.3	-64.2	288	29
2023-08-21T06:00	12463	196	-55.4	-64.2	287	28
2023-08-21T06:00	12485	196	-55.6	-64.4	287	28
2023-08-21T06:00	12507	195	-55.7	-64.6	286	28
2023-08-21T06:00	12527	194	-55.8	-64.8	286	28
2023-08-21T06:00	12546	194	-56.0	-65.2	285	28
2023-08-21T06:00	12567	193	-56.1	-65.4	286	28
2023-08-21T06:00	12589	193	-56.2	-65.6	286	28
2023-08-21T06:00	12608	192	-56.2	-65.7	286	28
2023-08-21T06:00	12630	191	-56.4	-65.9	287	28
2023-08-21T06:00	12651	191	-56.4	-66.2	287	28
2023-08-21T06:00	12672	190	-56.5	-66.6	288	28
2023-08-21T06:00	12694	189	-56.5	-66.9	288	28
2023-08-21T06:00	12713	189	-56.6	-67.2	289	28
2023-08-21T06:00	12734	188	-56.6	-67.2	289	28
2023-08-21T06:00	12753	188	-56.7	-67.5	289	29
2023-08-21T06:00	12775	187	-56.7	-67.7	290	29
2023-08-21T06:00	12798	186	-56.6	-68.1	290	29
2023-08-21T06:00	12818	186	-56.5	-68.3	291	29
2023-08-21T06:00	12837	185	-56.6	-68.5	292	29
2023-08-21T06:00	12857	184	-56.7	-68.5	292	29
2023-08-21T06:00	12877	184	-56.9	-68.5	293	29
2023-08-21T06:00	12897	183	-57.1	-68.6	294	29
2023-08-21T06:00	12918	183	-57.1	-68.6	294	29
2023-08-21T06:00	12937	182	-57.1	-68.7	294	29
2023-08-21T06:00	12955	182	-57.2	-68.9	294	29
2023-08-21T06:00	12976	181	-57.4	-69.1	293	29
2023-08-21T06:00	12997	180	-57.4	-69.2	293	29
2023-08-21T06:00	13016	180	-57.5	-69.3	293	29
2023-08-21T06:00	13035	179	-57.6	-69.3	292	28
2023-08-21T06:00	13057	179	-57.8	-69.4	292	28
2023-08-21T06:00	13075	178	-58.0	-69.5	292	28
2023-08-21T06:00	13094	178	-58.1	-69.5	292	28
2023-08-21T06:00	13115	177	-58.2	-69.5	292	28
2023-08-21T06:00	13137	177	-58.4	-69.6	293	28
2023-08-21T06:00	13157	176	-58.5	-69.5	293	28
2023-08-21T06:00	13177	175	-58.8	-69.7	293	27
2023-08-21T06:00	13199	175	-58.9	-69.7	293	27
2023-08-21T06:00	13221	174	-59.0	-69.9	293	26
2023-08-21T06:00	13241	174	-59.1	-70.1	293	26
2023-08-21T06:00	13264	173	-59.2	-70.4	293	25
2023-08-21T06:00	13283	172	-59.2	-70.5	292	24
2023-08-21T06:00	13304	172	-59.3	-70.7	291	24
2023-08-21T06:00	13324	171	-59.4	-70.7	291	24
2023-08-21T06:00	13346	171	-59.4	-70.7	290	23
2023-08-21T06:00	13366	170	-59.3	-70.8	290	23
2023-08-21T06:00	13388	170	-59.4	-71.1	289	23
2023-08-21T06:00	13409	169	-59.4	-71.4	289	23
2023-08-21T06:00	13430	168	-59.2	-71.6	288	23
2023-08-21T06:00	13449	168	-59.3	-72.1	288	23
2023-08-21T06:00	13470	167	-59.3	-72.6	288	23
2023-08-21T06:00	13491	167	-59.1	-72.7	287	23
2023-08-21T06:00	13513	166	-59.1	-72.8	287	23
2023-08-21T06:00	13536	166	-59.3	-72.9	286	23
2023-08-21T06:00	13556	165	-59.5	-72.9	286	23
2023-08-21T06:00	13577	165	-59.6	-72.7	285	23
2023-08-21T06:00	13597	164	-59.8	-72.7	285	24
2023-08-21T06:00	13617	163	-60.0	-72.8	284	24
2023-08-21T06:00	13642	163	-60.1	-72.8	284	24
2023-08-21T06:00	13661	162	-60.1	-73.0	283	24
2023-08-21T06:00	13682	162	-60.0	-73.0	282	24
2023-08-21T06:00	13702	161	-60.0	-73.3	281	24
2023-08-21T06:00	13725	161	-60.0	-73.4	281	24
2023-08-21T06:00	13747	160	-60.0	-73.6	280	24
2023-08-21T06:00	13769	160	-60.1	-73.8	279	24
2023-08-21T06:00	13794	159	-60.3	-74.0	279	25
2023-08-21T06:00	13813	158	-60.4	-74.2	278	25
2023-08-21T06:00	13839	158	-60.5	-74.3	279	26
2023-08-21T06:00	13860	157	-60.6	-74.5	279	26
2023-08-21T06:00	13881	157	-60.8	-74.7	279	26
2023-08-21T06:00	13901	156	-60.9	-74.7	279	27
2023-08-21T06:00	13925	156	-61.0	-74.8	280	27
2023-08-21T06:00	13949	155	-61.1	-75.0	281	28
2023-08-21T06:00	13970	154	-61.1	-75.2	282	28
2023-08-21T06:00	13992	154	-61.1	-75.4	283	29
2023-08-21T06:00	14012	153	-61.1	-75.6	283	30
2023-08-21T06:00	14032	153	-61.0	-75.8	284	30
2023-08-21T06:00	14054	152	-60.9	-75.9	284	31
2023-08-21T06:00	14079	152	-60.9	-76.2	284	31
2023-08-21T06:00	14103	151	-61.0	-76.5	285	31
2023-08-21T06:00	14124	151	-61.1	-76.9	286	31
2023-08-21T06:00	14150	150	-60.9	-76.9	287	30
2023-08-21T06:00	14172	150	-60.8	-77.2	288	29
2023-08-21T06:00	14196	149	-60.6	-77.4	289	28
2023-08-21T06:00	14222	148	-60.8	-77.8	291	27
2023-08-21T06:00	14245	148	-60.8	-78.0	291	27
2023-08-21T06:00	14268	147	-60.8	-78.2	292	26
2023-08-21T06:00	14287	147	-60.9	-78.3	293	25
2023-08-21T06:00	14310	146	-61.0	-78.4	293	25
2023-08-21T06:00	14332	146	-61.2	-78.6	293	24
2023-08-21T06:00	14352	145	-61.3	-78.6	294	24
2023-08-21T06:00	14376	145	-61.5	-78.7	294	24
2023-08-21T06:00	14398	144	-61.7	-78.8	295	23
2023-08-21T06:00	14418	144	-61.8	-78.9	295	23
2023-08-21T06:00	14442	143	-61.9	-79.0	295	22
2023-08-21T06:00	14462	143	-62.1	-79.2	295	22
2023-08-21T06:00	14484	142	-62.2	-79.3	294	22
2023-08-21T06:00	14502	142	-62.3	-79.3	293	21
2023-08-21T06:00	14525	141	-62.6	-79.5	291	21
2023-08-21T06:00	14544	141	-62.6	-79.5	290	21
2023-08-21T06:00	14567	140	-62.6	-79.5	290	21
2023-08-21T06:00	14586	140	-62.7	-79.6	290	21
2023-08-21T06:00	14608	139	-62.7	-79.7	291	21
2023-08-21T06:00	14631	139	-62.6	-79.8	292	20
2023-08-21T06:00	14652	138	-62.7	-80.0	292	20
2023-08-21T06:00	14676	138	-62.7	-80.2	293	19
2023-08-21T06:00	14695	137	-62.7	-80.5	293	19
2023-08-21T06:00	14715	137	-62.6	-80.6	293	18
2023-08-21T06:00	14734	137	-62.5	-80.8	292	17
2023-08-21T06:00	14757	136	-62.5	-80.9	290	17
2023-08-21T06:00	14780	136	-62.5	-81.0	287	16
2023-08-21T06:00	14801	135	-62.6	-81.1	284	16
2023-08-21T06:00	14823	135	-62.7	-81.3	280	16
2023-08-21T06:00	14843	134	-62.7	-81.3	276	16
2023-08-21T06:00	14866	134	-62.7	-81.3	273	16
2023-08-21T06:00	14888	133	-62.7	-81.3	270	16
2023-08-21T06:00	14909	133	-62.8	-81.4	268	16
2023-08-21T06:00	14931	132	-62.8	-81.4	266	16
2023-08-21T06:00	14953	132	-62.9	-81.5	265	16
2023-08-21T06:00	14981	131	-63.0	-81.6	264	17
2023-08-21T06:00	15007	131	-63.1	-81.8	263	17
2023-08-21T06:00	15030	130	-63.1	-81.9	263	18
2023-08-21T06:00	15052	130	-63.2	-82.4	263	18
2023-08-21T06:00	15077	129	-62.7	-82.4	263	18
2023-08-21T06:00	15100	129	-61.6	-82.2	264	18
2023-08-21T06:00	15121	128	-61.4	-82.4	264	18
2023-08-21T06:00	15141	128	-61.6	-82.9	265	19
2023-08-21T06:00	15163	127	-61.5	-83.0	265	19
2023-08-21T06:00	15184	127	-61.3	-82.9	266	19
2023-08-21T06:00	15204	127	-61.3	-83.3	266	19
2023-08-21T06:00	15228	126	-60.9	-83.1	265	19
2023-08-21T06:00	15248	126	-60.7	-83.1	264	19
2023-08-21T06:00	15273	125	-60.6	-83.4	263	18
2023-08-21T06:00	15293	125	-60.4	-83.5	261	18
2023-08-21T06:00	15315	124	-59.8	-83.2	259	18
2023-08-21T06:00	15335	124	-59.7	-83.1	258	18
2023-08-21T06:00	15356	123	-59.7	-83.3	258	18
2023-08-21T06:00	15378	123	-59.3	-83.0	257	18
2023-08-21T06:00	15399	123	-59.2	-82.9	258	19
2023-08-21T06:00	15421	122	-59.4		259	19
2023-08-21T06:00	15442	122	-59.6	-83.0	260	19
2023-08-21T06:00	15463	121	-59.7	-83.1	261	19
2023-08-21T06:00	15486	121	-59.7	-83.1	262	19
2023-08-21T06:00	15510	120	-59.6	-83.2	264	20
2023-08-21T06:00	15529	120	-59.6	-83.2	265	20
2023-08-21T06:00	15554	120	-59.8	-83.4	266	21
2023-08-21T06:00	15576	119	-59.8	-83.4	268	21
2023-08-21T06:00	15599	119	-59.9	-83.5	270	22
2023-08-21T06:00	15622	118	-59.9	-83.7	271	23
2023-08-21T06:00	15642	118	-59.8	-83.8	274	23
2023-08-21T06:00	15667	118	-59.6	-83.9	276	23
2023-08-21T06:00	15687	117	-59.2	-83.8	278	23
2023-08-21T06:00	15706	117	-58.8	-83.8	280	23
2023-08-21T06:00	15727	116	-58.6	-83.9	282	22
2023-08-21T06:00	15751	116	-58.4	-84.0	285	22
2023-08-21T06:00	15774	115	-58.5	-84.0	288	21
2023-08-21T06:00	15800	115	-58.2	-83.8	291	20
2023-08-21T06:00	15821	115	-58.0	-83.9	294	20
2023-08-21T06:00	15847	114	-57.8	-83.8	298	19
2023-08-21T06:00	15870	114	-57.7	-83.7	301	18
2023-08-21T06:00	15893	113	-57.6	-83.6	303	18
2023-08-21T06:00	15916	113	-57.5	-83.6	306	17
2023-08-21T06:00	15943	112	-57.4	-83.5	308	16
2023-08-21T06:00	15973	112	-57.4	-83.5	310	15
2023-08-21T06:00	16005	111	-57.5	-83.6	313	14
2023-08-21T06:00	16039	111	-57.6	-83.6	316	13
2023-08-21T06:00	16065	110	-57.8	-83.8	319	12
2023-08-21T06:00	16091	110	-58.0	-83.7	322	11
2023-08-21T06:00	16118	109	-58.1	-83.7	324	11
2023-08-21T06:00	16148	109	-58.2	-83.8	326	10
2023-08-21T06:00	16171	108	-58.2	-83.8	328	9
2023-08-21T06:00	16198	108	-58.3	-83.9	330	8
2023-08-21T06:00	16227	108	-58.5	-84.0	331	8
2023-08-21T06:00	16254	107	-58.7	-84.2	332	7
2023-08-21T06:00	16277	107	-58.8	-84.3	333	6
2023-08-21T06:00	16302	106	-58.6	-84.1	333	5
2023-08-21T06:00	16328	106	-58.5	-84.0	333	4
2023-08-21T06:00	16350	105	-58.6	-84.1	331	4
2023-08-21T06:00	16374	105	-58.6	-84.1	328	3
2023-08-21T06:00	16391	105	-58.7	-83.9	323	2
2023-08-21T06:00	16416	104	-58.8	-84.0	313	2
2023-08-21T06:00	16438	104	-59.0	-84.2	296	2
2023-08-21T06:00	16460	104	-59.2	-84.1	276	2
2023-08-21T06:00	16480	103	-59.4	-84.2	261	3
2023-08-21T06:00	16500	103	-59.4	-84.2	250	3
2023-08-21T06:00	16523	103	-59.4	-84.2	244	4
2023-08-21T06:00	16544	102	-59.4	-84.2	239	5
2023-08-21T06:00	16568	102	-59.3	-84.1	237	6
2023-08-21T06:00	16586	102	-59.3	-83.9	236	7
2023-08-21T06:00	16605	101	-59.3	-83.9	236	7
2023-08-21T06:00	16629	101	-59.4	-84.0	237	8
2023-08-21T06:00	16652	100	-59.4	-84.0	240	9
2023-08-21T06:00	16674	100	-59.5	-84.1	243	9
2023-08-21T06:00	16697	100	-59.5	-84.1	246	10
2023-08-21T06:00	16721	99	-59.5	-84.1	250	10
2023-08-21T06:00	16744	99	-59.6	-84.1	255	11
2023-08-21T06:00	16767	99	-59.6	-84.1	259	11
2023-08-21T06:00	16788	98	-59.7	-84.2	263	11
2023-08-21T06:00	16806	98	-59.8	-84.5	267	11
2023-08-21T06:00	16828	98	-59.5	-84.3	271	11
2023-08-21T06:00	16849	97	-59.2	-84.3	274	11
2023-08-21T06:00	16872	97	-59.3	-84.4	277	10
2023-08-21T06:00	16892	97	-59.2	-84.6	279	9
2023-08-21T06:00	16915	96	-59.1	-84.5	280	8
2023-08-21T06:00	16935	96	-59.0	-84.7	281	7
2023-08-21T06:00	16953	96	-58.5	-84.6	280	6
2023-08-21T06:00	16973	95	-58.0	-84.6	279	6
2023-08-21T06:00	16996	95	-57.8	-84.4	275	5
2023-08-21T06:00	17012	95	-57.8	-84.4	270	5
2023-08-21T06:00	17036	95	-57.9	-84.5	264	5
2023-08-21T06:00	17056	94	-57.9	-84.5	258	5
2023-08-21T06:00	17074	94	-57.9	-84.5	252	5
2023-08-21T06:00	17097	94	-58.1	-84.3	248	6
2023-08-21T06:00	17116	93	-58.2	-84.4	245	7
2023-08-21T06:00	17140	93	-58.3	-84.5	244	7
2023-08-21T06:00	17158	93	-58.2	-84.4	244	8
2023-08-21T06:00	17182	92	-58.3	-84.5	245	9
2023-08-21T06:00	17205	92	-58.4	-84.6	247	9
2023-08-21T06:00	17228	92	-58.5	-84.6	249	9
2023-08-21T06:00	17249	91	-58.5	-84.6	252	9
2023-08-21T06:00	17271	91	-58.4	-84.6	256	9
2023-08-21T06:00	17294	91	-58.3	-84.8	260	9
2023-08-21T06:00	17317	90	-58.2	-84.7	264	8
2023-08-21T06:00	17336	90	-58.2	-84.7	267	8
2023-08-21T06:00	17356	90	-58.2	-85.0	269	8
2023-08-21T06:00	17377	89	-58.0	-84.9	271	9
2023-08-21T06:00	17402	89	-57.8	-84.7	272	9
2023-08-21T06:00	17428	89	-57.8	-84.7	274	9
2023-08-21T06:00	17451	88	-57.7	-84.7	277	9
2023-08-21T06:00	17473	88	-57.7	-84.7	280	8
2023-08-21T06:00	17494	88	-57.7	-84.7	283	7
2023-08-21T06:00	17518	88	-57.7	-84.7	286	7
2023-08-21T06:00	17542	87	-57.6	-84.6	289	6
2023-08-21T06:00	17567	87	-57.7	-85.0	291	6
2023-08-21T06:00	17588	87	-57.6	-84.9	292	6
2023-08-21T06:00	17613	86	-57.6	-84.9	293	6
2023-08-21T06:00	17635	86	-57.5	-84.9	293	7
2023-08-21T06:00	17660	86	-57.5	-84.9	295	7
2023-08-21T06:00	17684	85	-57.5	-84.9	296	7
2023-08-21T06:00	17710	85	-57.5	-84.9	298	6
2023-08-21T06:00	17732	85	-57.4	-84.8	299	6
2023-08-21T06:00	17759	84	-57.4	-84.8	300	5
2023-08-21T06:00	17780	84	-57.5	-84.9	300	5
2023-08-21T06:00	17801	84	-57.5	-84.9	298	5
2023-08-21T06:00	17827	83	-57.5	-84.9	293	4
2023-08-21T06:00	17852	83	-57.4	-84.8	287	4
2023-08-21T06:00	17874	83	-57.3	-84.7	279	4
2023-08-21T06:00	17900	82	-57.4	-84.8	271	4
2023-08-21T06:00	17924	82	-57.5	-84.9	265	4
2023-08-21T06:00	17947	82	-57.7	-85.0	262	4
2023-08-21T06:00	17967	81	-57.7	-85.0	261	4
2023-08-21T06:00	17995	81	-57.5	-84.9	260	5
2023-08-21T06:00	18019	81	-57.3	-85.1	259	5
2023-08-21T06:00	18043	81	-57.1	-84.9	256	5
2023-08-21T06:00	18067	80	-57.0	-84.8	251	5
2023-08-21T06:00	18091	80	-57.1	-84.9	246	5
2023-08-21T06:00	18114	80	-57.2	-85.0	242	5
2023-08-21T06:00	18142	79	-57.3	-84.7	240	5
2023-08-21T06:00	18164	79	-57.5	-84.9	239	5
2023-08-21T06:00	18188	79	-57.7	-85.0	241	5
2023-08-21T06:00	18211	78	-57.9	-84.8	243	6
2023-08-21T06:00	18232	78	-58.0	-84.9	247	6
2023-08-21T06:00	18258	78	-58.2	-85.0	251	6
2023-08-21T06:00	18280	78	-58.3	-85.1	256	6
2023-08-21T06:00	18307	77	-58.5	-85.3	262	6
2023-08-21T06:00	18332	77	-58.7	-85.1	267	7
2023-08-21T06:00	18359	77	-58.9	-85.3	272	7
2023-08-21T06:00	18381	76	-59.0	-85.3	276	6
2023-08-21T06:00	18403	76	-59.0	-85.7	280	6
2023-08-21T06:00	18429	76	-59.0	-85.7	285	5
2023-08-21T06:00	18451	75	-58.9	-85.6	290	4
2023-08-21T06:00	18475	75	-58.7	-85.4	296	4
2023-08-21T06:00	18500	75	-58.7	-85.8	302	3
2023-08-21T06:00	18525	75	-58.6	-85.7	306	3
2023-08-21T06:00	18546	74	-58.6	-85.7	306	3
2023-08-21T06:00	18571	74	-58.3	-85.8	301	3
2023-08-21T06:00	18593	74	-58.0	-85.6	293	3
2023-08-21T06:00	18620	74	-57.9	-85.5	284	4
2023-08-21T06:00	18642	73	-57.8	-85.5	276	4
2023-08-21T06:00	18666	73	-57.9	-85.5	272	4
2023-08-21T06:00	18688	73	-58.0	-85.6	271	5
2023-08-21T06:00	18714	72	-57.9	-85.5	273	5
2023-08-21T06:00	18738	72	-57.7	-85.4	278	5
2023-08-21T06:00	18759	72	-57.5	-85.6	282	5
2023-08-21T06:00	18783	72	-57.4	-85.6	286	5
2023-08-21T06:00	18806	71	-57.2	-85.4	286	5
2023-08-21T06:00	18829	71	-57.1	-85.3	285	6
2023-08-21T06:00	18853	71	-57.3	-85.5	284	6
2023-08-21T06:00	18873	71	-57.5	-85.2	282	6
2023-08-21T06:00	18897	70	-57.5	-85.2	281	7
2023-08-21T06:00	18918	70	-57.6	-85.3	281	7
2023-08-21T06:00	18942	70	-57.8	-85.5	282	7
2023-08-21T06:00	18969	70	-57.9	-85.5	284	7
2023-08-21T06:00	18991	69	-57.9	-85.5	286	7
2023-08-21T06:00	19017	69	-58.0	-85.6	290	6
2023-08-21T06:00	19038	69	-57.9	-85.5	294	6
2023-08-21T06:00	19062	69	-57.9	-85.5	298	5
2023-08-21T06:00	19082	68	-57.6	-85.3	303	5
2023-08-21T06:00	19106	68	-57.5	-85.2	308	4
2023-08-21T06:00	19128	68	-57.6	-85.3	315	4
2023-08-21T06:00	19153	68	-57.6	-85.3	323	3
2023-08-21T06:00	19174	67	-57.7	-85.4	333	3
2023-08-21T06:00	19203	67	-57.9	-85.5	344	3
2023-08-21T06:00	19220	67	-58.0	-85.6	357	3
2023-08-21T06:00	19245	67	-58.1	-85.7	11	3
2023-08-21T06:00	19265	66	-58.1	-85.7	28	3
2023-08-21T06:00	19294	66	-57.9	-85.5	45	3
2023-08-21T06:00	19314	66	-57.8	-85.5	60	4
2023-08-21T06:00	19338	66	-58.0	-85.6	71	4
2023-08-21T06:00	19362	65	-58.1	-85.7	80	5
2023-08-21T06:00	19388	65	-58.1	-85.7	87	5
2023-08-21T06:00	19407	65	-58.0	-85.6	94	5
2023-08-21T06:00	19437	65	-57.9	-85.5	100	5
2023-08-21T06:00	19456	64	-57.9	-85.5	106	5
2023-08-21T06:00	19482	64	-57.8	-85.5	112	5
2023-08-21T06:00	19504	64	-57.9	-85.5	118	4
2023-08-21T06:00	19530	64	-57.9		125	3
2023-08-21T06:00	19553	63	-57.9		131	3
2023-08-21T06:00	19576	63	-57.8	-85.9	136	2
2023-08-21T06:00	19599	63	-57.7	-85.8	135	2
2023-08-21T06:00	19620	63	-57.6	-85.7	131	2
2023-08-21T06:00	19646	62	-57.3	-85.5	125	2
2023-08-21T06:00	19666	62	-57.3	-85.5	119	1
2023-08-21T06:00	19695	62	-57.1	-85.7	111	1
2023-08-21T06:00	19717	62	-56.9	-85.6	96	1
2023-08-21T06:00	19741	62	-57.0	-85.7	69	1
2023-08-21T06:00	19763	61	-56.9	-85.6	40	1
2023-08-21T06:00	19787	61	-57.0	-85.2	25	1
2023-08-21T06:00	19815	61	-57.0	-85.2	23	1
2023-08-21T06:00	19838	61	-57.0	-85.7	28	1
2023-08-21T06:00	19866	60	-56.7	-85.4	40	1
2023-08-21T06:00	19885	60	-56.6	-85.4	54	1
2023-08-21T06:00	19912	60	-56.7	-85.0	65	2
2023-08-21T06:00	19934	60	-56.8	-85.1	73	2
2023-08-21T06:00	19958	59	-56.9	-85.2	79	3
2023-08-21T06:00	19982	59	-57.0	-85.2	85	3
2023-08-21T06:00	20008	59	-57.1	-85.3	93	3
2023-08-21T06:00	20032	59	-57.2	-85.4	102	3
2023-08-21T06:00	20059	59	-57.2	-85.4	113	3
2023-08-21T06:00	20079	58	-57.1	-85.3	125	3
2023-08-21T06:00	20105	58	-57.0	-85.2	138	3
2023-08-21T06:00	20129	58	-57.0	-85.2	152	3
2023-08-21T06:00	20154	58	-57.1	-85.3	167	3
2023-08-21T06:00	20177	57	-57.2	-85.4	180	3
2023-08-21T06:00	20200	57	-57.2	-85.4	191	4
2023-08-21T06:00	20222	57	-57.2	-85.4	200	4
2023-08-21T06:00	20244	57	-57.2	-85.4	208	4
2023-08-21T06:00	20268	57	-57.2	-85.4	214	4
2023-08-21T06:00	20288	56	-57.2	-85.4	221	4
2023-08-21T06:00	20319	56	-57.3	-85.5	227	3
2023-08-21T06:00	20341	56	-57.2	-85.4	233	3
2023-08-21T06:00	20363	56	-57.0	-85.2	241	2
2023-08-21T06:00	20384	56	-57.0	-85.2	249	2
2023-08-21T06:00	20412	55	-57.1	-85.3	257	1
2023-08-21T06:00	20435	55	-57.3	-85.5	250	0
2023-08-21T06:00	20460	55	-57.2	-85.4	151	0
2023-08-21T06:00	20484	55	-57.0	-85.2	140	1
2023-08-21T06:00	20508	54	-57.1	-85.3	146	1
2023-08-21T06:00	20538	54	-57.1	-85.3	158	1
2023-08-21T06:00	20563	54	-57.1	-85.3	175	1
2023-08-21T06:00	20582	54	-56.9	-85.6	201	1
2023-08-21T06:00	20605	54	-56.7	-85.4	233	1
2023-08-21T06:00	20633	53	-56.6	-85.4	262	1
2023-08-21T06:00	20658	53	-56.5	-85.3	288	1
2023-08-21T06:00	20682	53	-56.3	-85.1	315	1
2023-08-21T06:00	20705	53	-56.0		337	2
2023-08-21T06:00	20734	53	-55.8	-85.2	351	2
2023-08-21T06:00	20760	52	-55.7	-85.2	1	2
2023-08-21T06:00	20781	52	-55.6	-85.1	9	3
2023-08-21T06:00	20804	52	-55.5	-85.0	18	3
2023-08-21T06:00	20828	52	-55.5	-85.0	27	3
2023-08-21T06:00	20854	52	-55.4	-84.9	37	4
2023-08-21T06:00	20878	51	-55.5	-84.5	47	4
2023-08-21T06:00	20903	51	-55.6	-84.6	55	4
2023-08-21T06:00	20929	51	-55.7	-84.7	62	5
2023-08-21T06:00	20950	51	-55.6	-84.6	66	5
2023-08-21T06:00	20980	51	-55.5	-84.5	67	5
2023-08-21T06:00	21008	50	-55.6	-85.1	65	5
2023-08-21T06:00	21029	50	-55.5	-85.0	62	4
2023-08-21T06:00	21055	50	-55.3	-84.9	59	4
2023-08-21T06:00	21079	50	-55.2	-84.8	56	3
2023-08-21T06:00	21104	50	-55.1	-84.7	57	3
2023-08-21T06:00	21125	49	-55.3	-84.9	62	3
2023-08-21T06:00	21151	49	-55.4	-84.9	68	3
2023-08-21T06:00	21178	49	-55.4	-84.5	74	3
2023-08-21T06:00	21202	49	-55.4	-84.5	80	3
2023-08-21T06:00	21228	49	-55.4	-84.5	84	3
2023-08-21T06:00	21257	48	-55.3	-84.4	89	3
2023-08-21T06:00	21279	48	-55.3	-84.9	93	3
2023-08-21T06:00	21305	48	-55.2	-84.8	98	3
2023-08-21T06:00	21329	48	-55.2	-84.8	103	3
2023-08-21T06:00	21354	48	-55.2	-84.8	108	3
2023-08-21T06:00	21380	48	-55.2	-84.8	111	2
2023-08-21T06:00	21403	47	-55.3	-84.4	111	2
2023-08-21T06:00	21426	47	-55.4	-84.5	102	1
2023-08-21T06:00	21454	47	-55.4	-84.5	75	1
2023-08-21T06:00	21484	47	-55.4	-84.5	43	1
2023-08-21T06:00	21509	47	-55.5	-84.5	31	2
2023-08-21T06:00	21531	46	-55.5	-84.5	29	2
2023-08-21T06:00	21557	46	-55.5	-84.5	32	3
2023-08-21T06:00	21582	46	-55.5	-84.5	36	3
2023-08-21T06:00	21608	46	-55.4	-84.5	40	3
2023-08-21T06:00	21630	46	-55.4	-84.5	43	4
2023-08-21T06:00	21657	46	-55.4	-84.5	46	4
2023-08-21T06:00	21682	45	-55.4	-84.5	49	4
2023-08-21T06:00	21700	45	-55.5	-84.5	52	4
2023-08-21T06:00	21734	45	-55.6	-84.6	53	3
2023-08-21T06:00	21761	45	-55.6	-84.6	54	3
2023-08-21T06:00	21786	45	-55.6	-84.6	51	3
2023-08-21T06:00	21810	44	-55.7	-84.7	47	4
2023-08-21T06:00	21837	44	-55.7	-84.7	42	4
2023-08-21T06:00	21854	44	-55.7	-84.7	39	4
2023-08-21T06:00	21881	44	-55.8	-84.8	39	4
2023-08-21T06:00	21910	44	-56.0	-84.9	42	4
2023-08-21T06:00	21938	44	-56.0	-84.9	49	4
2023-08-21T06:00	21960	43	-56.0	-84.9	61	4
2023-08-21T06:00	21987	43	-56.1	-85.0	76	4
2023-08-21T06:00	22017	43	-56.2	-85.1	91	4
2023-08-21T06:00	22038	43	-56.1	-85.0	103	4
2023-08-21T06:00	22064	43	-56.0	-84.9	113	4
2023-08-21T06:00	22089	43	-55.8	-84.8	120	4
2023-08-21T06:00	22117	42	-55.9	-84.8	125	4
2023-08-21T06:00	22141	42	-55.9	-84.8	130	4
2023-08-21T06:00	22166	42	-56.0	-84.9	134	4
2023-08-21T06:00	22190	42	-55.9	-84.8	136	3
2023-08-21T06:00	22220	42	-55.8	-84.8	137	3
2023-08-21T06:00	22246	42	-55.8	-85.2	136	3
2023-08-21T06:00	22268	41	-55.7	-85.2	132	3
2023-08-21T06:00	22295	41	-55.5	-85.0	128	3
2023-08-21T06:00	22323	41	-55.5	-85.0	122	3
2023-08-21T06:00	22352	41	-55.5	-85.0	115	3
2023-08-21T06:00	22377	41	-55.5	-85.0	109	3
2023-08-21T06:00	22398	41	-55.5	-85.0	105	3
2023-08-21T06:00	22426	40	-55.4	-84.9	102	3
2023-08-21T06:00	22453	40	-55.4	-84.9	99	4
2023-08-21T06:00	22475	40	-55.4	-84.9	96	4
2023-08-21T06:00	22503	40	-55.3	-84.9	91	4
2023-08-21T06:00	22526	40	-55.3	-84.9	84	3
2023-08-21T06:00	22548	40	-55.2	-84.8	77	3
2023-08-21T06:00	22577	39	-55.2	-84.8	72	3
2023-08-21T06:00	22604	39	-55.1	-84.7	73	3
2023-08-21T06:00	22628	39	-55.1	-84.7	79	3
2023-08-21T06:00	22654	39	-55.0	-84.6	90	3
2023-08-21T06:00	22679	39	-55.1	-84.7	100	4
2023-08-21T06:00	22702	39	-55.3	-84.9	109	4
2023-08-21T06:00	22732	38	-55.4	-84.9	115	4
2023-08-21T06:00	22758	38	-55.1	-84.7	120	4
2023-08-21T06:00	22782	38	-55.0	-84.6	122	4
2023-08-21T06:00	22807	38	-55.1	-84.7	121	4
2023-08-21T06:00	22831	38	-55.1	-84.7	117	4
2023-08-21T06:00	22855	38	-55.0	-84.6	111	3
2023-08-21T06:00	22889	38	-55.0	-84.6	105	3
2023-08-21T06:00	22913	37	-55.1	-84.7	102	4
2023-08-21T06:00	22942	37	-55.1	-84.7	99	4
2023-08-21T06:00	22964	37	-55.2	-84.8	98	4
2023-08-21T06:00	22987	37	-55.3	-84.9	98	4
2023-08-21T06:00	23018	37	-55.3	-84.9	100	3
2023-08-21T06:00	23043	37	-55.3	-84.9	104	3
2023-08-21T06:00	23071	36	-55.5	-85.0	108	3
2023-08-21T06:00	23093	36	-55.4	-84.9	113	3
2023-08-21T06:00	23116	36	-55.3	-84.9	117	2
2023-08-21T06:00	23150	36	-55.3	-84.9	119	2
2023-08-21T06:00	23174	36	-55.2	-84.8	118	2
2023-08-21T06:00	23200	36	-55.2	-84.8	113	2
2023-08-21T06:00	23230	36	-55.2	-84.8	103	2
2023-08-21T06:00	23258	35	-55.2	-84.8	91	2
2023-08-21T06:00	23284	35	-55.4	-84.9	79	2
2023-08-21T06:00	23309	35	-55.4	-84.9	72	3
2023-08-21T06:00	23335	35	-55.2	-84.8	68	3
2023-08-21T06:00	23361	35	-55.1	-84.7	67	4
2023-08-21T06:00	23391	35	-55.0	-85.1	67	4
2023-08-21T06:00	23421	35	-54.8	-85.0	67	4
2023-08-21T06:00	23441	34	-54.7	-84.9	69	4
2023-08-21T06:00	23466	34	-54.6	-84.8	71	5
2023-08-21T06:00	23499	34	-54.6	-84.8	74	4
2023-08-21T06:00	23521	34	-54.7	-84.4	78	4
2023-08-21T06:00	23550	34	-54.8	-84.5	82	4
2023-08-21T06:00	23581	34	-54.9	-84.6	87	3
2023-08-21T06:00	23614	34	-54.9	-84.6	93	3
2023-08-21T06:00	23633	33	-54.9	-84.6	98	3
2023-08-21T06:00	23664	33	-54.9	-84.6	99	2
2023-08-21T06:00	23692	33	-54.8	-85.0	96	2
2023-08-21T06:00	23716	33	-54.6	-84.8	84	2
2023-08-21T06:00	23750	33	-54.5	-84.8	70	2
2023-08-21T06:00	23774	33	-54.3	-84.6	57	2
2023-08-21T06:00	23802	33	-54.2	-84.5	47	3
2023-08-21T06:00	23825	32	-54.2	-84.5	40	3
2023-08-21T06:00	23857	32	-54.3	-84.6	36	4
2023-08-21T06:00	23882	32	-54.4	-84.7	34	4
2023-08-21T06:00	23913	32	-54.5	-84.8	35	5
2023-08-21T06:00	23942	32	-54.6	-84.8	37	5
2023-08-21T06:00	23963	32	-54.5	-84.8	41	6
2023-08-21T06:00	23990	32	-54.4	-84.7	44	6
2023-08-21T06:00	24018	31	-54.1	-84.5	46	7
2023-08-21T06:00	24049	31	-54.0	-84.4	48	7
2023-08-21T06:00	24072	31	-54.1	-84.5	49	7
2023-08-21T06:00	24101	31	-54.1	-84.5	51	7
2023-08-21T06:00	24128	31	-54.1	-84.5	52	7
2023-08-21T06:00	24158	31	-54.1	-84.5	53	7
2023-08-21T06:00	24181	31	-54.2	-84.5	53	7
2023-08-21T06:00	24204	31	-54.3	-84.6	54	7
2023-08-21T06:00	24237	30	-54.3	-84.6	55	7
2023-08-21T06:00	24261	30	-54.2	-84.5	56	6
2023-08-21T06:00	24294	30	-54.2	-84.5	57	6
2023-08-21T06:00	24313	30	-54.0	-84.4	58	6
2023-08-21T06:00	24341	30	-53.9	-84.3	59	5
2023-08-21T06:00	24368	30	-53.9	-84.3	60	4
2023-08-21T06:00	24392	30	-53.7	-84.7	61	3
2023-08-21T06:00	24419	30	-53.5	-84.6	61	3
2023-08-21T06:00	24452	29	-53.3	-84.4	58	2
2023-08-21T06:00	24477	29	-53.3	-84.4	52	2
2023-08-21T06:00	24503	29	-53.3	-84.4	42	1
2023-08-21T06:00	24535	29	-53.2	-84.4	33	2
2023-08-21T06:00	24553	29	-53.0	-84.2	28	2
2023-08-21T06:00	24575	29	-52.8	-84.1	26	2
2023-08-21T06:00	24617	29	-52.5	-83.8	26	2
2023-08-21T06:00	24639	29	-52.3	-83.7	28	3
2023-08-21T06:00	24661	28	-52.0	-83.5	31	3
2023-08-21T06:00	24687	28	-52.1	-83.5	34	4
2023-08-21T06:00	24715	28	-52.3	-83.7	36	5
2023-08-21T06:00	24745	28	-52.3	-83.7	38	6
2023-08-21T06:00	24776	28	-52.3	-83.7	39	6
2023-08-21T06:00	24809	28	-52.3	-83.7	39	7
2023-08-21T06:00	24828	28	-52.4	-83.8	39	7
2023-08-21T06:00	24857	28	-52.5	-83.3	40	8
2023-08-21T06:00	24886	27	-52.7	-83.4	41	8
2023-08-21T06:00	24918	27	-52.9	-83.6	42	8
2023-08-21T06:00	24941	27	-53.2	-83.8	44	9
2023-08-21T06:00	24969	27	-53.3	-83.9	45	9
2023-08-21T06:00	24986	27	-53.5	-84.0	47	9
2023-08-21T06:00	25031	27	-53.5	-84.0	49	9
2023-08-21T06:00	25054	27	-53.5	-84.0	52	9
2023-08-21T06:00	25095	27	-53.5	-84.0	57	9
2023-08-21T06:00	25119	27	-53.4	-83.9	62	9
2023-08-21T06:00	25152	26	-53.3	-83.9	68	8
2023-08-21T06:00	25173	26	-53.4	-83.9	73	8
2023-08-21T06:00	25206	26	-53.4	-83.9	76	8
2023-08-21T06:00	25228	26	-53.5	-84.6	79	8
2023-08-21T06:00	25261	26	-53.3	-84.4	80	8
2023-08-21T06:00	25288	26	-53.0	-84.2	81	7
2023-08-21T06:00	25319	26	-52.9	-84.1	82	7
2023-08-21T06:00	25341	26	-52.9	-84.1	82	6
2023-08-21T06:00	25367	26	-52.8	-84.1	81	6
2023-08-21T06:00	25392	25	-52.7	-84.0	79	5
2023-08-21T06:00	25424	25	-52.6	-83.9	74	5
2023-08-21T06:00	25440	25	-52.5	-83.8	68	6
2023-08-21T06:00	25476	25	-52.3	-83.7	63	6
2023-08-21T06:00	25514	25	-52.1	-84.2	60	7
2023-08-21T06:00	25531	25	-52.0	-84.1	59	7
2023-08-21T06:00	25562	25	-51.9	-84.0	61	8
2023-08-21T06:00	25575	25	-51.7	-83.9	63	9
2023-08-21T06:00	25616	25	-51.7	-83.9	66	10
2023-08-21T06:00	25642	24	-51.6	-83.8	68	10
2023-08-21T06:00	25663	24	-51.6	-83.8	72	10
2023-08-21T06:00	25691	24	-51.5	-83.7	76	11
2023-08-21T06:00	25720	24	-51.4	-83.6	80	10
2023-08-21T06:00	25747	24	-51.1	-83.4	86	10
2023-08-21T06:00	25775	24	-50.7	-83.1	91	9
2023-08-21T06:00	25801	24	-50.4	-83.6	97	9
2023-08-21T06:00	25836	24	-50.3	-83.5	101	8
2023-08-21T06:00	25871	24	-50.3	-83.5	105	7
2023-08-21T06:00	25892	24	-50.2	-83.5	108	6
2023-08-21T06:00	25917	23	-50.0	-83.3	110	6
2023-08-21T06:00	25947	23	-49.8	-83.2	111	5
2023-08-21T06:00	25973	23	-49.7	-83.1	113	5
2023-08-21T06:00	25990	23	-49.5	-82.9	114	5
2023-08-21T06:00	26017	23	-49.2	-82.7	116	5
2023-08-21T06:00	26051	23	-49.1	-82.7	118	5
2023-08-21T06:00	26077	23	-49.0	-82.6	119	5
2023-08-21T06:00	26111	23	-49.1	-82.7	120	5
2023-08-21T06:00	26133	23	-49.2	-82.7	121	5
2023-08-21T06:00	26169	23	-49.2	-82.7	123	5
2023-08-21T06:00	26182	22	-49.1	-82.7	125	5
2023-08-21T06:00	26219	22	-49.1	-82.0	127	4
2023-08-21T06:00	26250	22	-49.1	-82.0	129	4
2023-08-21T06:00	26281	22	-49.2	-82.0	129	3
2023-08-21T06:00	26317	22	-49.4	-82.2	129	3
2023-08-21T06:00	26334	22	-49.5	-82.3	127	2
2023-08-21T06:00	26371	22	-49.6	-82.3	125	2
2023-08-21T06:00	26383	22	-49.5	-82.3	123	2
2023-08-21T06:00	26424	22	-49.4	-82.2	123	2
2023-08-21T06:00	26454	22	-49.5	-82.3	125	2
2023-08-21T06:00	26476	22	-49.4	-82.9	125	2
2023-08-21T06:00	26511	21	-49.4	-82.9	125	3
2023-08-21T06:00	26541	21	-49.3	-82.8	124	3
2023-08-21T06:00	26570	21	-49.1	-82.7	122	4
2023-08-21T06:00	26597	21	-49.0	-82.6	121	4
2023-08-21T06:00	26636	21	-48.8	-82.4	121	4
2023-08-21T06:00	26662	21	-48.8	-82.4	122	4
2023-08-21T06:00	26692	21	-48.7	-82.4	122	4
2023-08-21T06:00	26714	21	-48.7	-82.4	121	4
2023-08-21T06:00	26741	21	-48.7	-82.4	119	4
2023-08-21T06:00	26772	21	-48.6	-82.3	115	3
2023-08-21T06:00	26801	20	-48.5	-82.2	108	3
2023-08-21T06:00	26838	20	-48.4	-82.2	99	3
2023-08-21T06:00	26865	20	-48.3	-82.1	91	3
2023-08-21T06:00	26892	20	-48.2	-82.0	84	3
2023-08-21T06:00	26921	20	-48.1	-81.9	80	4
2023-08-21T06:00	26941	20	-48.0	-81.9	77	4
2023-08-21T06:00	26980	20	-48.0	-81.9	74	5
2023-08-21T06:00	26999	20	-48.0	-81.9	71	5
2023-08-21T06:00	27024	20	-47.9	-81.8	69	5
2023-08-21T06:00	27050	20	-47.9	-81.8	66	5
2023-08-21T06:00	27075	20	-48.0	-81.9	64	5
2023-08-21T06:00	27107	20	-48.1	-81.9	64	5
2023-08-21T06:00	27141	19	-48.2	-82.0	64	5
2023-08-21T06:00	27167	19	-48.2	-82.0	66	5
2023-08-21T06:00	27206	19	-48.1	-81.9	68	5
2023-08-21T06:00	27226	19	-47.9	-81.8	70	5
2023-08-21T06:00	27257	19	-47.6	-82.4	71	4
2023-08-21T06:00	27290	19	-47.4	-82.2	71	4
2023-08-21T06:00	27307	19	-47.3	-82.2	71	3
2023-08-21T06:00	27354	19	-47.3	-82.2	69	3
2023-08-21T06:00	27374	19	-47.2	-82.1	67	3
2023-08-21T06:00	27392	19	-47.0	-81.9	66	3
2023-08-21T06:00	27436	19	-46.8	-81.8	68	3
2023-08-21T06:00	27459	19	-46.6	-81.7	72	3
2023-08-21T06:00	27493	18	-46.5	-81.6	77	4
2023-08-21T06:00	27524	18	-46.5	-81.6	83	4
2023-08-21T06:00	27552	18	-46.4	-81.5	89	5
2023-08-21T06:00	27572	18	-46.3	-81.4	94	6
2023-08-21T06:00	27597	18	-46.3	-81.4	100	6
2023-08-21T06:00	27622	18	-46.2	-81.4	106	6
2023-08-21T06:00	27665	18	-46.2	-81.4	112	7
2023-08-21T06:00	27696	18	-46.2	-81.4	117	7
2023-08-21T06:00	27726	18	-46.0	-81.2	121	7
2023-08-21T06:00	27749	18	-45.8	-81.1	124	6
2023-08-21T06:00	27781	18	-45.6	-80.9	125	6
2023-08-21T06:00	27796	18	-45.3	-81.6	124	5
2023-08-21T06:00	27829	18	-45.1	-81.5	123	4
2023-08-21T06:00	27867	17	-45.0	-81.4	122	3
2023-08-21T06:00	27913	17	-44.9	-81.4	120	2
2023-08-21T06:00	27932	17	-44.9	-81.4	113	2
2023-08-21T06:00	27956	17	-44.8	-81.3	98	1
2023-08-21T06:00	27970	17	-44.6	-81.2	83	2
2023-08-21T06:00	28008	17	-44.4	-81.0	79	2
2023-08-21T06:00	28038	17	-44.2	-80.9	80	3
2023-08-21T06:00	28063	17	-44.0	-80.7	83	4
2023-08-21T06:00	28098	17	-43.9	-80.7	85	4
2023-08-21T06:00	28120	17	-43.9	-80.7	86	4
2023-08-21T06:00	28158	17	-43.9	-80.7	86	5
2023-08-21T06:00	28196	17	-43.7	-80.5	85	5
2023-08-21T06:00	28230	17	-43.6	-80.4	85	4
2023-08-21T06:00	28246	16	-43.6	-80.4	85	5
2023-08-21T06:00	28277	16	-43.6	-80.4	86	5
2023-08-21T06:00	28305	16	-43.6	-80.4	88	5
2023-08-21T06:00	28328	16	-43.7	-80.5	92	4
2023-08-21T06:00	28373	16	-43.8	-80.6	97	4
2023-08-21T06:00	28386	16	-43.8	-80.6	103	4
2023-08-21T06:00	28435	16	-43.9	-80.7	109	4
2023-08-21T06:00	28459	16	-44.0	-80.7	115	4
2023-08-21T06:00	28468	16	-44.1	-80.8	121	4
2023-08-21T06:00	28515	16	-44.2	-80.9	127	5
2023-08-21T06:00	28537	16	-44.3	-80.9	132	5
2023-08-21T06:00	28566	16	-44.3	-80.9	137	5
2023-08-21T06:00	28606	16	-44.4	-81.0	140	5
2023-08-21T06:00	28641	16	-44.5	-81.1	144	6
2023-08-21T06:00	28666	16	-44.6	-81.2	148	6
2023-08-21T06:00	28699	15	-44.6	-81.2	153	5
2023-08-21T06:00	28719	15	-44.5	-81.1	157	5
2023-08-21T06:00	28757	15	-44.5	-81.1	161	4
2023-08-21T06:00	28770	15	-44.5	-81.1	165	4
2023-08-21T06:00	28813	15	-44.4	-81.0	170	3
2023-08-21T06:00	28840	15	-44.5	-81.1	176	2
2023-08-21T06:00	28882	15	-44.6	-81.2	190	1
2023-08-21T06:00	28917	15	-44.7	-81.2	319	1
2023-08-21T06:00	28940	15	-44.7	-81.2	348	2
2023-08-21T06:00	28958	15	-44.6	-81.2	356	3
2023-08-21T06:00	28997	15	-44.4	-81.0	1	4
2023-08-21T06:00	29017	15	-43.9	-80.7	5	4
2023-08-21T06:00	29069	15	-43.7	-80.5	10	5
2023-08-21T06:00	29077	15	-43.7	-80.5	14	5
2023-08-21T06:00	29127	14	-43.9	-80.7	20	4
2023-08-21T06:00	29161	14	-43.8	-80.6	27	4
2023-08-21T06:00	29186	14	-43.9	-80.7	35	4
2023-08-21T06:00	29225	14	-43.9	-80.7	43	4
2023-08-21T06:00	29232	14	-43.9	-80.7	51	4
2023-08-21T06:00	29256	14	-44.0	-80.7	59	4
2023-08-21T06:00	29308	14	-44.1	-80.8	67	4
2023-08-21T06:00	29320	14	-44.1	-80.8	76	4
2023-08-21T06:00	29346	14	-44.3	-80.9	85	3
2023-08-21T06:00	29394	14	-44.4	-81.0	94	3
2023-08-21T06:00	29423	14	-44.6	-81.2	99	3
2023-08-21T06:00	29455	14	-44.7	-81.2	101	2
2023-08-21T06:00	29477	14	-44.5	-81.1	96	2
2023-08-21T06:00	29510	14	-44.2	-80.9	71	1
2023-08-21T06:00	29552	14	-44.1	-80.8	30	1
2023-08-21T06:00	29575	14	-44.1	-80.8	7	2
2023-08-21T06:00	29599	13	-44.2	-80.9	358	2
2023-08-21T06:00	29637	13	-44.1	-80.8	353	3
2023-08-21T06:00	29650	13	-44.1	-80.8	350	3
2023-08-21T06:00	29700	13	-44.1	-80.8	350	3
2023-08-21T06:00	29717	13	-44.1	-80.8	353	4
2023-08-21T06:00	29739	13	-44.0	-80.7	360	4
2023-08-21T06:00	29772	13	-44.0	-80.7	8	5
2023-08-21T06:00	29792	13	-43.9	-80.7	16	5
2023-08-21T06:00	29851	13	-43.6	-80.4	24	6
2023-08-21T06:00	29885	13	-43.1	-81.2	43	7
2023-08-21T06:00	29921	13	-43.0	-81.1	54	7
2023-08-21T06:00	29947	13	-42.8	-81.0	64	7
2023-08-21T06:00	29966	13	-42.5	-80.8	74	7
2023-08-21T06:00	29998	13	-42.3	-80.6	83	7
2023-08-21T06:00	30028	13	-42.1	-80.5	91	7
2023-08-21T06:00	30060	13	-42.0	-80.4	98	7
2023-08-21T06:00	30084	13	-41.9	-80.4	104	7
2023-08-21T06:00	30116	13	-41.9	-80.4	109	7
2023-08-21T06:00	30139	12	-41.8	-80.3	112	7
2023-08-21T06:00	30159	12	-41.9	-80.4	113	6
2023-08-21T06:00	30185	12	-42.0	-80.4	111	5
2023-08-21T06:00	30217	12	-42.1	-80.5	107	5
2023-08-21T06:00	30238	12	-42.1	-80.5	98	4
2023-08-21T06:00	30272	12	-42.0	-80.4	84	3
2023-08-21T06:00	30313	12	-41.7	-80.2	68	3
2023-08-21T06:00	30324	12	-41.4	-80.0	55	3
2023-08-21T06:00	30360	12	-41.3	-79.9	47	4
2023-08-21T06:00	30386	12	-41.3	-79.9	44	4
2023-08-21T06:00	30409	12	-41.3	-79.9	43	4
2023-08-21T06:00	30435	12	-41.3	-79.9	42	4
2023-08-21T06:00	30458	12	-41.3	-79.9	42	5
2023-08-21T06:00	30515	12	-41.3	-79.9	43	5
2023-08-21T06:00	30516	12	-41.4	-80.0	46	5
2023-08-21T06:00	30532	12	-41.4	-80.0	52	4
2023-08-21T06:00	30567	12	-41.4	-80.0	60	4
2023-08-21T06:00	30597	12	-41.3	-79.9	70	4
2023-08-21T06:00	30629	12	-41.3	-79.9	78	5
2023-08-21T06:00	30661	12	-41.2	-79.9	83	5
2023-08-21T06:00	30681	11	-41.1	-79.8	84	5
2023-08-21T06:00	30710	11	-41.0	-79.7	83	5
2023-08-21T06:00	30744	11	-40.9	-79.7	79	5
2023-08-21T06:00	30785	11	-40.8	-79.6	74	6
2023-08-21T06:00	30807	11	-40.7	-79.5	69	6
2023-08-21T06:00	30809	11	-40.7	-79.5	63	6
2023-08-21T06:00	30873	11	-40.8	-79.6	58	6
2023-08-21T06:00	30899	11	-40.9	-79.7	53	6
2023-08-21T06:00	30936	11	-40.9	-79.7	49	7
2023-08-21T06:00	30963	11	-40.7	-79.5	47	7
2023-08-21T06:00	30990	11	-40.5	-79.4	46	7
2023-08-21T06:00	31014	11	-40.4	-79.3	46	8
2023-08-21T06:00	31049	11	-40.3	-79.2	46	8
2023-08-21T06:00	31078	11	-40.3	-79.2	46	8
2023-08-21T06:00	31105	11	-40.3	-79.2	46	8
2023-08-21T06:00	31125	11	-40.3	-79.2	45	7
2023-08-21T06:00	31191	11	-40.4	-79.3	45	7
2023-08-21T06:00	31204	11	-40.4	-79.3	46	7
2023-08-21T06:00	31232	11	-40.5	-79.4	48	6
2023-08-21T06:00	31270	11	-40.6	-79.5	50	6
2023-08-21T06:00	31296	11	-40.7	-79.5	51	5
2023-08-21T06:00	31333	10	-40.8	-79.6	52	5
2023-08-21T06:00	31350	10	-40.8	-79.6	49	5
2023-08-21T06:00	31377	10	-40.8	-79.6	45	6
2023-08-21T06:00	31423	10	-40.9	-79.7	41	6
2023-08-21T06:00	31439	10	-41.0	-79.7	37	7
2023-08-21T06:00	31478	10	-41.0	-79.7	34	7
2023-08-21T06:00	31507	10	-40.9	-79.7	34	8
2023-08-21T06:00	31516	10	-40.9	-79.7	33	9
2023-08-21T06:00	31570	10	-41.0	-79.7	33	9
2023-08-21T06:00	31614	10	-41.0	-79.7	32	10
2023-08-21T06:00	31631	10	-40.8	-79.6	31	11
2023-08-21T06:00	31666	10	-40.6	-79.5	30	11
2023-08-21T06:00	31715	10	-40.5	-79.4	31	12
2023-08-21T06:00	31718	10	-40.3	-79.2	34	13
2023-08-21T06:00	31745	10	-40.0	-79.0	38	13
2023-08-21T06:00	31785	10	-39.8	-78.9	43	14
2023-08-21T06:00	31821	10	-39.7	-78.8	48	14
2023-08-21T06:00	31846	10	-39.5	-78.7	52	15
2023-08-21T06:00	31888	10	-39.3	-78.5	56	15
2023-08-21T06:00	31908	10	-39.3	-78.5	59	15
2023-08-21T06:00	31962	10	-39.5	-78.7	62	15
2023-08-21T06:00	31987	10	-39.5	-78.7	65	14
2023-08-21T06:00	31996	9	-39.4	-78.6	67	14
2023-08-21T06:00	32016	9	-39.5	-78.7	70	14
2023-08-21T06:00	32062	9	-39.5	-78.7	72	13
2023-08-21T06:00	32089	9	-39.6	-78.8	74	13
2023-08-21T06:00	32119	9	-39.7	-78.8	76	12
2023-08-21T06:00	32130	9	-39.8	-78.9	78	11
2023-08-21T06:00	32200	9	-39.8	-78.9	79	11
2023-08-21T06:00	32209	9	-39.7	-78.8	81	11
2023-08-21T06:00	32242	9	-39.7	-78.8	82	10
2023-08-21T06:00	32265	9	-39.7	-78.8	83	10
2023-08-21T06:00	32321	9	-39.7	-78.8	84	9
2023-08-21T06:00	32366	9	-39.9	-79.0	85	8
2023-08-21T06:00	32386	9	-39.9	-79.0	85	8
2023-08-21T06:00	32438	9	-39.9	-79.0	84	7
2023-08-21T06:00	32498	9	-39.8	-78.9	79	5
2023-08-21T06:00	32521	9	-39.7	-78.8	75	5
2023-08-21T06:00	32552	9	-39.5	-78.7	69	4
2023-08-21T06:00	32569	9	-39.3	-78.5	63	4
2023-08-21T06:00	32616	9	-39.2	-78.5	59	4
2023-08-21T06:00	32649	9	-39.0	-78.3	58	4
2023-08-21T06:00	32680	9	-38.8	-78.2	59	5
2023-08-21T06:00	32712	9	-38.6	-78.1	61	5
2023-08-21T06:00	32752	9	-38.5	-78.0	63	6
2023-08-21T06:00	32791	8	-38.4	-77.9	66	6
2023-08-21T06:00	32805	8	-38.3	-77.9	67	7
2023-08-21T06:00	32821	8	-38.1	-77.7	68	7
2023-08-21T06:00	32877	8	-38.0	-77.6	68	8
2023-08-21T06:00	32884	8	-37.9	-77.6	68	8
2023-08-21T06:00	32928	8	-37.9	-77.6	68	8
2023-08-21T06:00	32954	8	-37.9	-77.6	68	9
2023-08-21T06:00	32992	8	-38.1	-77.7	68	9
2023-08-21T06:00	33014	8	-38.2	-77.8	69	9
2023-08-21T06:00	33066	8	-38.3	-77.9	69	8
2023-08-21T06:00	33118	8	-38.3	-77.9	71	8
2023-08-21T06:00	33124	8	-38.3	-77.9	71	8
2023-08-21T06:00	33172	8	-38.2	-77.8	71	8
2023-08-21T06:00	33184	8	-38.1	-77.7	71	8
2023-08-21T06:00	33235	8	-37.9	-77.6	72	8
2023-08-21T06:00	33269	8	-37.8	-77.5	73	8
2023-08-21T06:00	33278	8	-37.7	-77.4	75	8
2023-08-21T06:00	33311	8	-37.6	-77.4	76	8
2023-08-21T06:00	33338	8	-37.4	-77.2	76	8
2023-08-21T06:00	33385	8	-37.3	-77.2	76	7
2023-08-21T06:00	33405	8	-37.0	-77.0	75	7
2023-08-21T06:00	33444	8	-36.8	-76.8	74	7
2023-08-21T06:00	33470	8	-36.6	-76.7	74	8
2023-08-21T06:00	33510	8	-36.5	-76.6	74	8
2023-08-21T06:00	33553	8	-36.4	-76.5	78	9
2023-08-21T06:00	33605	8	-36.4	-76.5	80	9
2023-08-21T06:00	33618	7	-36.4	-76.5	84	10
2023-08-21T06:00	33658	7	-36.5	-76.6	88	10
2023-08-21T06:00	33718	7	-36.5	-76.6	92	10
2023-08-21T06:00	33719	7	-36.5	-76.6	97	11
2023-08-21T06:00	33755	7	-36.5	-76.6	102	11
2023-08-21T06:00	33759	7	-36.5	-76.6	105	11
2023-08-21T06:00	33818	7	-36.6	-76.7	108	11
2023-08-21T06:00	33843	7	-36.6	-76.7	110	11
2023-08-21T06:00	33880	7	-36.6	-76.7	112	10
2023-08-21T06:00	33936	7	-36.5	-76.6	113	10
2023-08-21T06:00	33977	7	-36.4	-76.5	113	9
2023-08-21T06:00	33987	7	-36.2	-76.4	113	8
2023-08-21T06:00	34016	7	-36.0	-76.3	114	7
2023-08-21T06:00	34045	7	-35.9	-76.2	114	7
2023-08-21T06:00	34068	7	-35.9	-76.2	114	6
2023-08-21T06:00	34116	7	-35.8	-76.1	114	5
2023-08-21T06:00	34146	7	-35.8	-76.1	113	4
2023-08-21T06:00	34165	7	-36.0	-76.3	109	4
2023-08-21T06:00	34207	7	-36.2	-76.4	104	3
2023-08-21T06:00	34253	7	-36.2	-76.4	96	3
2023-08-21T06:00	34292	7	-36.1	-76.3	90	3
2023-08-21T06:00	34338	7	-36.2	-76.4	84	3
2023-08-21T06:00	34379	7	-36.3	-76.5	85	3
2023-08-21T06:00	34402	7	-36.2	-76.4	86	4
2023-08-21T06:00	34431	7	-36.0	-76.3	89	4
2023-08-21T12:00	112	1010	24.5	18.2	270	2
2023-08-21T12:00	139	1006	23.9	17.6	283	1
2023-08-21T12:00	161	1004	23.7	17.4	284	2
2023-08-21T12:00	188	1001	23.5	17.5	285	2
2023-08-21T12:00	220	997	23.2	17.4	286	3
2023-08-21T12:00	247	994	22.9	17.2	288	3
2023-08-21T12:00	273	991	22.6	17.1	290	3
2023-08-21T12:00	295	989	22.3	17.1	293	4
2023-08-21T12:00	319	986	22.1	16.9	296	4
2023-08-21T12:00	342	983	21.9	16.8	300	4
2023-08-21T12:00	363	981	21.7	16.5	303	4
2023-08-21T12:00	381	979	21.5	16.4	305	4
2023-08-21T12:00	404	976	21.3	16.4	307	4
2023-08-21T12:00	422	974	21.1	16.4	308	4
2023-08-21T12:00	444	972	20.9	16.4	310	4
2023-08-21T12:00	464	970	20.7	16.4	313	4
2023-08-21T12:00	486	967	20.5	16.5	316	4
2023-08-21T12:00	511	964	20.3	16.1	320	4
2023-08-21T12:00	535	962	20.0	16.5	322	4
2023-08-21T12:00	552	960	19.8	16.5	322	4
2023-08-21T12:00	574	957	19.7	15.9	321	4
2023-08-21T12:00	600	955	19.5	15.6	318	4
2023-08-21T12:00	623	952	19.4	15.0	315	4
2023-08-21T12:00	647	949	19.2	15.0	311	5
2023-08-21T12:00	675	946	19.0	13.7	308	5
2023-08-21T12:00	696	944	18.7	15.1	308	5
2023-08-21T12:00	720	941	18.5	14.4	310	5
2023-08-21T12:00	743	939	18.3	14.8	315	5
2023-08-21T12:00	768	936	18.1	13.4	320	5
2023-08-21T12:00	793	933	17.9	13.9	324	5
2023-08-21T12:00	817	931	17.7	12.9	326	5
2023-08-21T12:00	845	928	17.8	10.3	328	6
2023-08-21T12:00	870	925	18.0	6.7	328	6
2023-08-21T12:00	902	922	17.8	5.5	328	6
2023-08-21T12:00	927	919	17.6		327	6
2023-08-21T12:00	953	916	17.4	5.5	327	6
2023-08-21T12:00	978	913	17.2	5.1	326	7
2023-08-21T12:00	1003	911	16.9	4.7	325	7
2023-08-21T12:00	1028	908	16.7	4.6	324	7
2023-08-21T12:00	1056	905	16.4	5.0	322	7
2023-08-21T12:00	1083	902	16.2	4.7	320	8
2023-08-21T12:00	1109	899	15.9	6.3	317	8
2023-08-21T12:00	1135	897	15.6	6.7	314	8
2023-08-21T12:00	1163	894	15.4	6.5	311	8
2023-08-21T12:00	1186	891	15.3		308	7
2023-08-21T12:00	1210	889	15.5	7.0	305	7
2023-08-21T12:00	1231	886	15.3	6.9	301	7
2023-08-21T12:00	1254	884	15.1	6.8	298	6
2023-08-21T12:00	1272	882	14.9	7.0	295	6
2023-08-21T12:00	1295	880	14.7	6.9	295	6
2023-08-21T12:00	1317	877	14.6	7.1	296	6
2023-08-21T12:00	1340	875	14.4	7.0	298	6
2023-08-21T12:00	1363	873	14.1	7.0	300	6
2023-08-21T12:00	1386	870	14.0	6.8	300	5
2023-08-21T12:00	1406	868	13.8	6.7	297	5
2023-08-21T12:00	1428	866	13.6	6.6	291	5
2023-08-21T12:00	1455	863	13.4	6.4	284	5
2023-08-21T12:00	1476	861	13.2	6.5	277	5
2023-08-21T12:00	1494	859	13.0	6.4	271	5
2023-08-21T12:00	1515	857	12.9	6.4	266	5
2023-08-21T12:00	1537	855	12.7	6.4	262	5
2023-08-21T12:00	1558	853	12.5	6.4	258	5
2023-08-21T12:00	1590	850	12.2		254	6
2023-08-21T12:00	1614	847	12.0	7.5	252	6
2023-08-21T12:00	1634	845	12.0	9.1	250	6
2023-08-21T12:00	1668	842	11.7	9.0	249	7
2023-08-21T12:00	1694	839	11.6	9.3	249	7
2023-08-21T12:00	1725	836	11.4	9.6	248	7
2023-08-21T12:00	1754	833	11.2	9.6	247	7
2023-08-21T12:00	1778	831	11.1	9.4	246	7
2023-08-21T12:00	1802	828	11.0	8.8	247	7
2023-08-21T12:00	1824	826	10.9	8.3	249	8
2023-08-21T12:00	1854	823	10.7	8.5	252	8
2023-08-21T12:00	1872	821	10.5	9.1	255	9
2023-08-21T12:00	1893	819	10.4	8.8	257	10
2023-08-21T12:00	1914	817	10.3	8.1	258	10
2023-08-21T12:00	1939	815	10.2	8.0	259	10
2023-08-21T12:00	1962	813	10.0	8.3	260	10
2023-08-21T12:00	1987	810	9.8	8.2	261	11
2023-08-21T12:00	2007	808	9.8	8.4	261	11
2023-08-21T12:00	2031	806	9.7	9.3	261	11
2023-08-21T12:00	2051	804	9.6	8.8	261	12
2023-08-21T12:00	2075	802	9.6	7.8	260	12
2023-08-21T12:00	2101	799	9.5	7.1	259	12
2023-08-21T12:00	2125	797	9.4	6.7	259	12
2023-08-21T12:00	2145	795	9.2	6.7	259	11
2023-08-21T12:00	2166	793	9.0	6.7	260	12
2023-08-21T12:00	2195	790	8.7	6.4	261	12
2023-08-21T12:00	2221	788	8.5	6.4	262	12
2023-08-21T12:00	2241	786	8.3	6.3	262	12
2023-08-21T12:00	2264	784	8.1	6.1	260	12
2023-08-21T12:00	2289	781	7.9	6.1	256	13
2023-08-21T12:00	2315	779	7.8	6.2	253	13
2023-08-21T12:00	2331	777	7.7	6.3	250	13
2023-08-21T12:00	2349	776	7.5	6.3	248	13
2023-08-21T12:00	2370	773	7.3	6.5	248	14
2023-08-21T12:00	2396	771	7.3	7.2	249	15
2023-08-21T12:00	2428	768	7.5	7.4	250	15
2023-08-21T12:00	2452	766	7.6	7.3	251	16
2023-08-21T12:00	2476	764	7.5	7.1	251	16
2023-08-21T12:00	2507	761	7.4	6.8	251	16
2023-08-21T12:00	2528	759	7.3	6.9	251	16
2023-08-21T12:00	2550	757	7.1	6.7	251	15
2023-08-21T12:00	2577	754	7.0	6.2	251	15
2023-08-21T12:00	2602	752	6.9	6.3	251	15
2023-08-21T12:00	2628	750	6.7	6.1	252	15
2023-08-21T12:00	2651	748	6.4	6.0	252	15
2023-08-21T12:00	2679	745	6.3	5.9	251	15
2023-08-21T12:00	2705	743	6.1	5.6	250	15
2023-08-21T12:00	2729	741	5.9	5.6	249	15
2023-08-21T12:00	2753	738	5.8	5.3	249	16
2023-08-21T12:00	2778	736	5.7	5.3	249	16
2023-08-21T12:00	2802	734	5.3	5.3	249	17
2023-08-21T12:00	2827	732	5.1	5.1	249	17
2023-08-21T12:00	2850	730	5.0	4.9	249	18
2023-08-21T12:00	2876	728	5.5	3.7	247	18
2023-08-21T12:00	2899	725	5.5	3.6	246	18
2023-08-21T12:00	2921	723	5.3	3.4	245	17
2023-08-21T12:00	2942	722	5.2	3.1	244	17
2023-08-21T12:00	2968	719	4.9	3.0	244	17
2023-08-21T12:00	2986	718	4.7	3.0	244	17
2023-08-21T12:00	3010	716	4.5	3.1	244	17
2023-08-21T12:00	3036	713	4.2	3.1	244	16
2023-08-21T12:00	3062	711	4.0	3.1	244	16
2023-08-21T12:00	3089	709	3.8	2.9	244	16
2023-08-21T12:00	3112	707	3.6	2.9	243	16
2023-08-21T12:00	3136	705	3.4	2.7	243	16
2023-08-21T12:00	3160	702	3.2	2.6	243	17
2023-08-21T12:00	3193	700	2.9	2.5	244	17
2023-08-21T12:00	3220	697	2.8	1.7	246	18
2023-08-21T12:00	3243	695	2.8	1.2	249	18
2023-08-21T12:00	3278	692	2.8	0.3	252	18
2023-08-21T12:00	3312	690	3.5	-4.0	255	18
2023-08-21T12:00	3330	688	4.5	-10.2	258	18
2023-08-21T12:00	3352	686	4.7	-14.5	260	17
2023-08-21T12:00	3380	684	4.6	-17.5	263	17
2023-08-21T12:00	3408	682	4.4	-17.6	265	17
2023-08-21T12:00	3433	679	4.3	-20.5	267	17
2023-08-21T12:00	3455	677	4.4	-21.6	269	16
2023-08-21T12:00	3479	675	4.6	-23.1	270	16
2023-08-21T12:00	3503	674	4.8		270	16
2023-08-21T12:00	3520	672	4.8	-22.7	270	16
2023-08-21T12:00	3551	670	4.9	-23.5	271	16
2023-08-21T12:00	3577	667	4.8	-23.9	272	17
2023-08-21T12:00	3603	665	4.8	-23.9	273	17
2023-08-21T12:00	3625	663	4.7	-23.7	275	17
2023-08-21T12:00	3650	661	4.6	-22.7	276	17
2023-08-21T12:00	3673	660	4.7	-21.3	276	17
2023-08-21T12:00	3691	658	4.7	-21.5	277	17
2023-08-21T12:00	3711	656	4.6	-21.7	278	17
2023-08-21T12:00	3735	654	4.5	-22.3	278	17
2023-08-21T12:00	3764	652	4.3	-22.5	279	18
2023-08-21T12:00	3786	651	4.2	-22.8	278	18
2023-08-21T12:00	3808	649	4.1	-23.6	277	19
2023-08-21T12:00	3836	647	4.1	-24.0	275	19
2023-08-21T12:00	3860	644	4.0	-24.9	273	20
2023-08-21T12:00	3886	643	4.0	-24.0	272	21
2023-08-21T12:00	3906	641	4.0	-24.0	272	21
2023-08-21T12:00	3925	639	4.2	-27.4	272	21
2023-08-21T12:00	3951	637	4.3	-26.6	272	21
2023-08-21T12:00	3975	636	4.4	-28.2	273	21
2023-08-21T12:00	3997	634	4.3		273	21
2023-08-21T12:00	4032	631	3.9	-17.3	274	21
2023-08-21T12:00	4057	629	3.9	-21.9	274	20
2023-08-21T12:00	4079	627	3.7	-20.1	274	20
2023-08-21T12:00	4105	626	3.5	-20.0	273	20
2023-08-21T12:00	4130	624	3.2	-20.4	272	19
2023-08-21T12:00	4150	622	3.1	-18.2	272	20
2023-08-21T12:00	4173	620	2.9	-19.3	273	20
2023-08-21T12:00	4199	618	2.6	-16.9	274	20
2023-08-21T12:00	4223	616	2.4	-16.7	276	20
2023-08-21T12:00	4249	614	2.4	-21.1	277	20
2023-08-21T12:00	4275	612	2.4	-27.5	279	20
2023-08-21T12:00	4298	611	2.4	-31.7	280	19
2023-08-21T12:00	4320	609	2.4	-34.1	281	19
2023-08-21T12:00	4349	607	2.4	-34.6	281	19
2023-08-21T12:00	4378	605	2.3	-33.9	281	19
2023-08-21T12:00	4408	603	2.1	-26.7	281	19
2023-08-21T12:00	4429	601	1.9	-23.5	281	19
2023-08-21T12:00	4457	599	1.7	-20.0	282	20
2023-08-21T12:00	4483	597	1.5	-22.2	282	20
2023-08-21T12:00	4504	595	1.3	-20.1	283	20
2023-08-21T12:00	4524	594	1.1	-19.7	283	20
2023-08-21T12:00	4546	592	0.9	-19.9	283	21
2023-08-21T12:00	4570	590	0.8	-19.9	283	21
2023-08-21T12:00	4596	588	0.5	-20.0	282	20
2023-08-21T12:00	4624	586	0.3	-20.1	281	20
2023-08-21T12:00	4652	584	0.2	-20.3	279	20
2023-08-21T12:00	4685	582	-0.1	-20.5	279	20
2023-08-21T12:00	4711	580	-0.3	-21.8	279	20
2023-08-21T12:00	4734	578	-0.4	-21.7	281	20
2023-08-21T12:00	4758	577	-0.6	-21.0	283	21
2023-08-21T12:00	4784	575	-0.8	-20.6	284	21
2023-08-21T12:00	4805	573	-1.0	-20.3	285	22
2023-08-21T12:00	4830	571	-1.2	-20.4	284	22
2023-08-21T12:00	4858	570	-1.3	-22.0	283	22
2023-08-21T12:00	4878	568	-1.3	-22.1	282	22
2023-08-21T12:00	4899	567	-1.5	-22.3	281	22
2023-08-21T12:00	4923	565	-1.6	-22.3	281	22
2023-08-21T12:00	4956	563	-1.8	-22.8	280	22
2023-08-21T12:00	4981	561	-2.0	-24.1	279	22
2023-08-21T12:00	4999	559	-2.1	-23.9	278	22
2023-08-21T12:00	5020	558	-2.1	-23.2	278	22
2023-08-21T12:00	5036	557	-2.2	-23.3	277	22
2023-08-21T12:00	5066	555	-2.4	-23.4	277	22
2023-08-21T12:00	5099	553	-2.5	-22.9	277	22
2023-08-21T12:00	5122	551	-2.6	-23.7	278	22
2023-08-21T12:00	5148	549	-2.5	-29.9	278	22
2023-08-21T12:00	5167	548	-2.6	-30.0	278	22
2023-08-21T12:00	5190	546	-2.6	-31.9	277	22
2023-08-21T12:00	5212	545	-2.7	-31.9	277	21
2023-08-21T12:00	5233	543	-2.9	-31.9	275	21
2023-08-21T12:00	5261	541	-3.1	-32.5	274	21
2023-08-21T12:00	5292	539	-3.3	-33.4	274	20
2023-08-21T12:00	5311	538	-3.4	-33.8	274	20
2023-08-21T12:00	5330	537	-3.5	-34.4	275	20
2023-08-21T12:00	5348	535	-3.6	-34.7	276	21
2023-08-21T12:00	5369	534	-3.7	-35.0	277	20
2023-08-21T12:00	5400	532	-3.9	-35.1	277	20
2023-08-21T12:00	5425	530	-4.1	-35.3	277	20
2023-08-21T12:00	5446	529	-4.2	-35.4	277	20
2023-08-21T12:00	5480	527	-4.5	-35.6	278	20
2023-08-21T12:00	5498	525	-4.6	-35.5	278	20
2023-08-21T12:00	5520	524	-4.7	-35.6	278	21
2023-08-21T12:00	5540	522	-4.9	-35.7	277	21
2023-08-21T12:00	5563	521	-5.1	-35.9	276	21
2023-08-21T12:00	5590	519	-5.3	-36.2	274	21
2023-08-21T12:00	5619	517	-5.5	-35.8	273	21
2023-08-21T12:00	5643	516	-5.6	-35.4	272	20
2023-08-21T12:00	5674	514	-5.9	-35.5	272	20
2023-08-21T12:00	5691	512	-6.0	-35.4	272	20
2023-08-21T12:00	5708	511	-6.1	-35.5	273	20
2023-08-21T12:00	5728	510	-6.2	-35.6	274	21
2023-08-21T12:00	5747	509	-6.4	-35.9	274	21
2023-08-21T12:00	5770	507	-6.6	-36.0	274	22
2023-08-21T12:00	5801	505	-6.9	-34.8	273	22
2023-08-21T12:00	5824	504	-7.1	-33.7	273	22
2023-08-21T12:00	5852	502	-7.3	-29.4	273	23
2023-08-21T12:00	5875	500	-7.5	-27.8	273	23
2023-08-21T12:00	5907	498	-7.8	-26.7	274	22
2023-08-21T12:00	5938	497	-8.1	-27.0	275	22
2023-08-21T12:00	5956	495	-8.2	-27.2	275	21
2023-08-21T12:00	5984	494	-8.5	-27.4	275	21
2023-08-21T12:00	6008	492	-8.7	-27.5	274	21
2023-08-21T12:00	6031	491	-8.9	-27.7	274	21
2023-08-21T12:00	6061	489	-9.0	-28.3	273	21
2023-08-21T12:00	6077	488	-9.2	-27.7	273	20
2023-08-21T12:00	6095	487	-9.3	-27.7	273	20
2023-08-21T12:00	6112	485	-9.5	-27.8	273	20
2023-08-21T12:00	6134	484	-9.7	-28.1	273	20
2023-08-21T12:00	6168	482	-9.9	-29.0	273	20
2023-08-21T12:00	6186	481	-10.0	-30.3	273	20
2023-08-21T12:00	6213	479	-10.1	-32.2	273	19
2023-08-21T12:00	6238	478	-10.3	-31.4	273	19
2023-08-21T12:00	6261	476	-10.5	-31.5	272	19
2023-08-21T12:00	6285	475	-10.7	-31.5	272	19
2023-08-21T12:00	6314	473	-11.0	-31.6	272	19
2023-08-21T12:00	6344	471	-11.3	-31.9	272	19
2023-08-21T12:00	6369	470	-11.5	-32.1	272	19
2023-08-21T12:00	6394	468	-11.7	-32.8	273	18
2023-08-21T12:00	6419	466	-11.9	-33.1	274	18
2023-08-21T12:00	6451	465	-12.1	-35.0	275	18
2023-08-21T12:00	6480	463	-12.3	-38.7	276	18
2023-08-21T12:00	6499	462	-12.5	-38.9	277	18
2023-08-21T12:00	6520	460	-12.6		277	18
2023-08-21T12:00	6547	459	-12.9	-39.0	277	18
2023-08-21T12:00	6576	457	-13.1	-38.9	277	18
2023-08-21T12:00	6595	456	-13.3	-38.9	277	19
2023-08-21T12:00	6620	454	-13.5	-39.0	277	19
2023-08-21T12:00	6644	453	-13.7	-39.3	277	19
2023-08-21T12:00	6674	451	-13.9	-39.5	277	20
2023-08-21T12:00	6696	450	-14.1	-39.5	277	20
2023-08-21T12:00	6727	448	-14.4	-39.0	277	20
2023-08-21T12:00	6760	446	-14.6	-37.6	278	20
2023-08-21T12:00	6778	445	-14.7	-38.7	278	20
2023-08-21T12:00	6799	444	-14.8	-40.4	278	20
2023-08-21T12:00	6821	442	-15.0	-40.9	278	20
2023-08-21T12:00	6843	441	-15.1	-41.1	277	19
2023-08-21T12:00	6870	440	-15.3	-39.6	277	19
2023-08-21T12:00	6896	438	-15.6	-39.7	276	19
2023-08-21T12:00	6932	436	-15.9	-39.8	275	19
2023-08-21T12:00	6970	434	-16.1	-39.6	275	19
2023-08-21T12:00	6989	433	-16.3	-40.0	274	19
2023-08-21T12:00	7009	432	-16.4	-40.5	274	19
2023-08-21T12:00	7028	430	-16.6	-40.5	274	19
2023-08-21T12:00	7055	429	-16.8	-40.6	275	20
2023-08-21T12:00	7088	427	-17.1	-40.7	275	20
2023-08-21T12:00	7119	425	-17.4	-41.1	275	21
2023-08-21T12:00	7140	424	-17.5	-37.4	274	21
2023-08-21T12:00	7162	423	-17.7	-32.2	274	20
2023-08-21T12:00	7189	421	-18.0	-30.9	273	20
2023-08-21T12:00	7223	420	-18.3	-30.2	273	19
2023-08-21T12:00	7242	418	-18.4	-28.4	273	19
2023-08-21T12:00	7262	417	-18.6	-28.5	273	20
2023-08-21T12:00	7281	416	-18.7	-29.2	274	20
2023-08-21T12:00	7300	415	-18.8	-31.8	274	21
2023-08-21T12:00	7323	414	-18.9	-32.5	274	21
2023-08-21T12:00	7355	412	-19.1	-36.5	273	22
2023-08-21T12:00	7384	410	-19.2	-37.3	272	22
2023-08-21T12:00	7410	409	-19.3	-37.2	271	22
2023-08-21T12:00	7445	407	-19.5	-34.4	270	23
2023-08-21T12:00	7481	405	-19.7	-33.2	270	23
2023-08-21T12:00	7507	404	-19.9	-32.9	270	23
2023-08-21T12:00	7525	403	-20.1	-32.1	270	22
2023-08-21T12:00	7544	402	-20.2	-33.2	270	22
2023-08-21T12:00	7566	401	-20.4	-33.6	271	22
2023-08-21T12:00	7584	399	-20.5	-36.2	271	22
2023-08-21T12:00	7605	398	-20.5	-36.8	271	22
2023-08-21T12:00	7626	397	-20.6	-35.9	272	22
2023-08-21T12:00	7645	396	-20.8	-35.9	272	22
2023-08-21T12:00	7666	395	-20.9	-35.6	272	22
2023-08-21T12:00	7683	394	-21.0	-35.9	272	22
2023-08-21T12:00	7700	393	-21.1	-33.9	272	22
2023-08-21T12:00	7723	392	-21.2	-34.8	272	22
2023-08-21T12:00	7741	391	-21.3	-36.0	272	22
2023-08-21T12:00	7761	390	-21.5	-36.9	272	23
2023-08-21T12:00	7784	389	-21.6	-37.2	273	23
2023-08-21T12:00	7806	388	-21.8		273	23
2023-08-21T12:00	7828	387	-22.0	-37.0	273	23
2023-08-21T12:00	7849	385	-22.1	-37.4	273	24
2023-08-21T12:00	7870	384	-22.3	-38.5	273	24
2023-08-21T12:00	7891	383	-22.4		272	24
2023-08-21T12:00	7921	382	-22.7	-38.8	272	24
2023-08-21T12:00	7944	380	-22.8	-36.1	271	24
2023-08-21T12:00	7969	379	-23.0	-33.7	271	25
2023-08-21T12:00	8001	378	-23.3	-33.8	270	25
2023-08-21T12:00	8031	376	-23.5	-32.5	269	25
2023-08-21T12:00	8053	375	-23.7	-30.0	268	25
2023-08-21T12:00	8088	373	-24.0	-27.6	268	26
2023-08-21T12:00	8113	372	-24.2	-28.0	268	26
2023-08-21T12:00	8141	370	-24.5	-28.0	269	25
2023-08-21T12:00	8169	369	-24.8	-28.3	270	25
2023-08-21T12:00	8203	367	-25.1	-30.0	271	25
2023-08-21T12:00	8230	366	-25.3	-31.1	271	24
2023-08-21T12:00	8264	364	-25.6	-31.7	271	24
2023-08-21T12:00	8301	362	-25.8	-33.7	270	24
2023-08-21T12:00	8328	361	-26.0	-33.5	269	25
2023-08-21T12:00	8364	359	-26.3	-33.3	267	24
2023-08-21T12:00	8394	358	-26.6	-32.7	266	24
2023-08-21T12:00	8428	356	-26.9	-33.0	266	24
2023-08-21T12:00	8453	355	-27.2	-33.0	265	24
2023-08-21T12:00	8485	353	-27.5	-32.8	265	24
2023-08-21T12:00	8514	352	-27.8	-32.9	265	24
2023-08-21T12:00	8545	350	-28.1	-32.6	265	24
2023-08-21T12:00	8587	348	-28.5	-32.5	265	24
2023-08-21T12:00	8623	347	-28.8	-32.5	265	24
2023-08-21T12:00	8645	345	-29.0	-32.8	265	24
2023-08-21T12:00	8669	344	-29.2	-33.7	266	24
2023-08-21T12:00	8696	343	-29.4	-33.9	266	24
2023-08-21T12:00	8721	342	-29.6	-34.0	267	25
2023-08-21T12:00	8742	341	-29.9	-34.1	267	25
2023-08-21T12:00	8773	339	-30.2	-34.2	268	25
2023-08-21T12:00	8799	338	-30.4	-34.4	268	25
2023-08-21T12:00	8832	336	-30.7	-34.9	267	25
2023-08-21T12:00	8861	335	-31.0	-35.7	267	25
2023-08-21T12:00	8891	334	-31.1	-37.3	268	25
2023-08-21T12:00	8919	332	-31.1	-38.8	268	25
2023-08-21T12:00	8946	331	-31.3	-39.4	269	25
2023-08-21T12:00	8976	330	-31.5	-40.2	269	25
2023-08-21T12:00	9006	328	-31.7	-41.3	270	25
2023-08-21T12:00	9037	327	-31.8	-42.6	270	25
2023-08-21T12:00	9065	325	-32.0	-43.2	269	25
2023-08-21T12:00	9101	324	-32.3	-43.5	269	25
2023-08-21T12:00	9138	322	-32.6	-44.2	269	25
2023-08-21T12:00	9170	321	-32.8	-44.5	270	25
2023-08-21T12:00	9209	319	-33.2	-44.3	270	25
2023-08-21T12:00	9240	318	-33.4	-44.3	270	26
2023-08-21T12:00	9257	317	-33.6	-44.2	269	25
2023-08-21T12:00	9281	316	-33.8	-42.5	269	25
2023-08-21T12:00	9310	314	-34.1	-40.8	269	25
2023-08-21T12:00	9340	313	-34.4	-39.8	270	24
2023-08-21T12:00	9375	312	-34.6	-41.2	271	24
2023-08-21T12:00	9405	310	-34.9	-42.6	271	24
2023-08-21T12:00	9437	309	-35.1	-43.1	271	24
2023-08-21T12:00	9463	307	-35.4	-42.8	271	24
2023-08-21T12:00	9499	306	-35.7	-42.2	271	24
2023-08-21T12:00	9528	305	-36.0	-41.8	272	23
2023-08-21T12:00	9559	303	-36.3	-41.3	273	23
2023-08-21T12:00	9586	302	-36.5	-41.1	273	23
2023-08-21T12:00	9611	301	-36.7	-40.8	274	23
2023-08-21T12:00	9637	300	-37.0	-41.0	274	24
2023-08-21T12:00	9667	299	-37.1	-42.1	274	24
2023-08-21T12:00	9694	297	-37.4	-42.3	274	24
2023-08-21T12:00	9722	296	-37.6	-42.1	274	25
2023-08-21T12:00	9741	295	-37.8	-42.1	275	25
2023-08-21T12:00	9765	294	-38.0	-42.2	275	25
2023-08-21T12:00	9784	294	-38.2	-42.6	275	25
2023-08-21T12:00	9805	293	-38.4	-42.8	276	25
2023-08-21T12:00	9829	292	-38.6	-43.3	276	25
2023-08-21T12:00	9847	291	-38.7	-43.8	276	25
2023-08-21T12:00	9868	290	-38.9	-43.9	276	25
2023-08-21T12:00	9894	289	-39.0	-43.4	277	24
2023-08-21T12:00	9919	288	-39.2	-43.8	277	24
2023-08-21T12:00	9939	287	-39.4	-43.5	278	24
2023-08-21T12:00	9962	286	-39.6	-43.6	279	23
2023-08-21T12:00	9981	285	-39.7	-44.1	280	23
2023-08-21T12:00	10003	284	-39.9	-44.3	280	22
2023-08-21T12:00	10024	284	-40.1	-45.2	280	22
2023-08-21T12:00	10048	283	-40.3	-45.6	280	22
2023-08-21T12:00	10073	281	-40.4	-45.7	279	22
2023-08-21T12:00	10095	281	-40.6	-46.0	279	22
2023-08-21T12:00	10120	280	-40.8	-46.4	279	23
2023-08-21T12:00	10143	279	-40.9	-47.1	278	23
2023-08-21T12:00	10164	278	-41.0	-47.2	278	23
2023-08-21T12:00	10184	277	-41.1	-47.0	277	23
2023-08-21T12:00	10202	276	-41.3	-47.4	276	24
2023-08-21T12:00	10219	275	-41.3	-48.0	276	24
2023-08-21T12:00	10239	275	-41.4	-48.6	276	24
2023-08-21T12:00	10257	274	-41.6	-48.8	276	24
2023-08-21T12:00	10278	273	-41.7	-49.5	276	24
2023-08-21T12:00	10294	272	-41.8	-50.7	275	24
2023-08-21T12:00	10315	272	-41.9	-51.1	275	24
2023-08-21T12:00	10335	271	-42.1	-51.6	275	24
2023-08-21T12:00	10354	270	-42.3	-51.9	275	24
2023-08-21T12:00	10371	269	-42.4	-52.3	275	24
2023-08-21T12:00	10392	269	-42.6	-52.8	275	24
2023-08-21T12:00	10412	268	-42.8	-52.8	275	24
2023-08-21T12:00	10431	267	-43.0	-53.2	275	24
2023-08-21T12:00	10447	266	-43.1	-53.8	276	24
2023-08-21T12:00	10469	266	-43.3	-53.7	276	24
2023-08-21T12:00	10487	265	-43.5	-53.3	276	25
2023-08-21T12:00	10507	264	-43.6	-53.5	277	25
2023-08-21T12:00	10527	263	-43.7	-53.6	277	25
2023-08-21T12:00	10545	262	-43.9	-53.6	278	25
2023-08-21T12:00	10564	262	-44.1	-53.8	278	25
2023-08-21T12:00	10584	261	-44.3	-54.1	278	25
2023-08-21T12:00	10604	260	-44.4	-54.3	278	25
2023-08-21T12:00	10623	259	-44.6	-54.4	277	25
2023-08-21T12:00	10643	259	-44.8	-54.7	277	25
2023-08-21T12:00	10662	258	-44.9	-54.9	277	25
2023-08-21T12:00	10681	257	-45.0	-55.2	277	25
2023-08-21T12:00	10700	256	-45.1	-55.4	277	25
2023-08-21T12:00	10720	256	-45.3	-55.6	277	26
2023-08-21T12:00	10739	255	-45.4	-56.1	278	26
2023-08-21T12:00	10762	254	-45.6	-57.0	278	27
2023-08-21T12:00	10786	253	-45.8	-58.1	278	27
2023-08-21T12:00	10810	252	-45.9	-59.0	278	27
2023-08-21T12:00	10829	252	-46.0	-59.6	278	27
2023-08-21T12:00	10851	251	-46.1	-59.7	278	27
2023-08-21T12:00	10870	250	-46.3	-59.8	279	27
2023-08-21T12:00	10889	249	-46.4	-59.8	279	27
2023-08-21T12:00	10911	249	-46.6	-59.9	280	27
2023-08-21T12:00	10928	248	-46.7	-60.0	280	27
2023-08-21T12:00	10947	247	-46.9	-60.4	280	28
2023-08-21T12:00	10965	246	-46.9	-61.0	279	28
2023-08-21T12:00	10984	246	-46.9	-61.4	279	28
2023-08-21T12:00	11005	245	-47.0	-61.5	278	28
2023-08-21T12:00	11025	244	-47.0	-61.6	278	28
2023-08-21T12:00	11046	244	-47.1	-61.8	277	28
2023-08-21T12:00	11066	243	-47.2	-61.7	277	28
2023-08-21T12:00	11087	242	-47.4	-61.8	276	28
2023-08-21T12:00	11108	241	-47.6	-62.0	275	28
2023-08-21T12:00	11127	241	-47.7	-62.0	275	28
2023-08-21T12:00	11146	240	-47.8	-62.1	275	28
2023-08-21T12:00	11166	239	-48.0	-62.1	274	29
2023-08-21T12:00	11186	238	-48.1	-62.1	274	29
2023-08-21T12:00	11208	238	-48.2	-62.2	274	29
2023-08-21T12:00	11229	237	-48.4	-62.5	274	30
2023-08-21T12:00	11252	236	-48.5	-62.5	274	30
2023-08-21T12:00	11272	235	-48.6	-62.3	274	30
2023-08-21T12:00	11294	235	-48.7	-61.9	274	31
2023-08-21T12:00	11316	234	-48.9	-61.4	275	31
2023-08-21T12:00	11336	233	-49.0	-61.1	275	31
2023-08-21T12:00	11356	232	-49.1	-61.4	275	31
2023-08-21T12:00	11375	232	-49.2	-61.6	276	31
2023-08-21T12:00	11393	231	-49.2	-61.7	276	31
2023-08-21T12:00	11412	230	-49.3	-61.8	276	32
2023-08-21T12:00	11434	230	-49.4	-62.1	276	32
2023-08-21T12:00	11453	229	-49.5	-62.5	276	32
2023-08-21T12:00	11478	228	-49.6	-62.8	276	32
2023-08-21T12:00	11497	227	-49.7	-63.0	275	33
2023-08-21T12:00	11516	227	-50.0	-63.2	275	33
2023-08-21T12:00	11539	226	-50.2	-63.1	274	33
2023-08-21T12:00	11558	225	-50.3	-63.2	274	34
2023-08-21T12:00	11578	225	-50.4	-62.9	274	34
2023-08-21T12:00	11600	224	-50.5	-62.2	275	34
2023-08-21T12:00	11618	223	-50.6	-61.5	275	34
2023-08-21T12:00	11639	222	-50.8	-61.3	276	34
2023-08-21T12:00	11658	222	-50.8	-61.3	276	34
2023-08-21T12:00	11679	221	-50.9	-61.6	276	34
2023-08-21T12:00	11701	220	-51.0	-61.8	276	34
2023-08-21T12:00	11718	220	-51.2	-61.7	277	34
2023-08-21T12:00	11736	219	-51.3	-61.5	277	35
2023-08-21T12:00	11756	218	-51.5	-61.4	277	35
2023-08-21T12:00	11778	218	-51.7	-61.5	277	35
2023-08-21T12:00	11795	217	-51.8	-61.6	278	35
2023-08-21T12:00	11817	216	-51.9	-61.8	278	35
2023-08-21T12:00	11837	216	-52.0	-62.3	278	35
2023-08-21T12:00	11856	215	-52.0	-62.6	278	35
2023-08-21T12:00	11877	214	-52.1	-62.9	279	35
2023-08-21T12:00	11897	214	-52.2	-62.9	279	35
2023-08-21T12:00	11918	213	-52.3	-62.6	279	35
2023-08-21T12:00	11938	212	-52.5	-62.6	279	34
2023-08-21T12:00	11959	212	-52.6	-62.8	278	34
2023-08-21T12:00	11979	211	-52.7	-63.0	278	34
2023-08-21T12:00	12000	210	-52.8	-63.0	277	34
2023-08-21T12:00	12021	210	-53.0	-63.2	277	34
2023-08-21T12:00	12043	209	-53.0	-63.3	276	33
2023-08-21T12:00	12061	208	-53.2	-63.7	276	33
2023-08-21T12:00	12081	208	-53.4	-64.0	275	33
2023-08-21T12:00	12102	207	-53.4	-64.2	275	33
2023-08-21T12:00	12124	206	-53.5	-64.6	275	33
2023-08-21T12:00	12144	206	-53.6	-64.6	274	33
2023-08-21T12:00	12163	205	-53.8	-64.5	274	33
2023-08-21T12:00	12185	204	-54.0	-64.3	274	33
2023-08-21T12:00	12206	204	-54.2	-64.4	274	33
2023-08-21T12:00	12225	203	-54.3	-64.7	274	33
2023-08-21T12:00	12242	203	-54.3	-65.2	274	34
2023-08-21T12:00	12263	202	-54.3	-65.6	274	34
2023-08-21T12:00	12284	201	-54.5	-65.8	274	34
2023-08-21T12:00	12302	201	-54.6	-65.9	274	34
2023-08-21T12:00	12322	200	-54.7	-65.9	275	34
2023-08-21T12:00	12342	199	-54.9	-65.9	275	34
2023-08-21T12:00	12362	199	-54.9	-65.7	275	34
2023-08-21T12:00	12384	198	-55.0	-65.9	275	34
2023-08-21T12:00	12403	198	-55.0	-66.3	275	34
2023-08-21T12:00	12423	197	-55.0	-66.5	275	34
2023-08-21T12:00	12443	196	-55.2	-66.7	275	34
2023-08-21T12:00	12466	196	-55.3	-66.7	275	34
2023-08-21T12:00	12484	195	-55.4	-66.7	275	34
2023-08-21T12:00	12503	195	-55.5	-66.7	275	34
2023-08-21T12:00	12522	194	-55.5	-66.6	275	34
2023-08-21T12:00	12544	193	-55.7	-66.6	275	34
2023-08-21T12:00	12565	193	-55.9	-66.7	275	34
2023-08-21T12:00	12585	192	-56.0	-66.6	275	34
2023-08-21T12:00	12605	191	-56.2	-66.7	276	34
2023-08-21T12:00	12625	191	-56.4	-66.9	276	35
2023-08-21T12:00	12646	190	-56.5	-66.9	276	35
2023-08-21T12:00	12665	190	-56.6	-67.1	276	35
2023-08-21T12:00	12685	189	-56.6	-67.3	276	35
2023-08-21T12:00	12705	188	-56.7	-67.5	275	35
2023-08-21T12:00	12725	188	-56.9	-67.7	275	35
2023-08-21T12:00	12746	187	-57.0	-67.8	275	35
2023-08-21T12:00	12767	187	-57.0	-68.0	275	34
2023-08-21T12:00	12787	186	-57.0	-68.2	274	34
2023-08-21T12:00	12808	185	-57.0	-68.3	274	33
2023-08-21T12:00	12827	185	-57.2	-68.4	274	33
2023-08-21T12:00	12848	184	-57.3	-68.4	274	33
2023-08-21T12:00	12870	184	-57.4	-68.4	273	32
2023-08-21T12:00	12887	183	-57.5	-68.5	273	32
2023-08-21T12:00	12907	182	-57.5	-68.8	272	31
2023-08-21T12:00	12930	182	-57.6	-69.3	272	31
2023-08-21T12:00	12948	181	-57.7	-69.8	272	31
2023-08-21T12:00	12967	181	-57.7	-70.2	272	31
2023-08-21T12:00	12988	180	-57.7	-70.5	272	31
2023-08-21T12:00	13008	180	-57.7	-70.8	272	31
2023-08-21T12:00	13028	179	-57.7	-71.0	273	31
2023-08-21T12:00	13049	178	-57.6	-71.1	272	31
2023-08-21T12:00	13071	178	-57.6	-71.3	272	30
2023-08-21T12:00	13091	177	-57.7	-71.6	272	30
2023-08-21T12:00	13114	177	-57.8	-71.7	271	30
2023-08-21T12:00	13135	176	-57.8	-71.8	270	30
2023-08-21T12:00	13152	176	-58.0	-72.2	270	30
2023-08-21T12:00	13175	175	-58.1	-72.3	269	30
2023-08-21T12:00	13196	174	-58.2	-72.6	269	29
2023-08-21T12:00	13220	174	-58.1	-72.7	268	29
2023-08-21T12:00	13242	173	-58.1	-73.0	268	29
2023-08-21T12:00	13265	172	-58.1	-73.2	267	28
2023-08-21T12:00	13287	172	-58.1	-73.4	267	28
2023-08-21T12:00	13307	171	-58.2	-73.6	266	28
2023-08-21T12:00	13328	171	-58.2	-73.7	266	28
2023-08-21T12:00	13349	170	-58.2	-73.7	265	28
2023-08-21T12:00	13369	170	-58.3	-73.7	265	28
2023-08-21T12:00	13393	169	-58.5	-73.8	264	29
2023-08-21T12:00	13414	168	-58.6	-73.8	264	29
2023-08-21T12:00	13433	168	-58.7	-73.9	264	29
2023-08-21T12:00	13459	167	-58.7	-74.0	264	29
2023-08-21T12:00	13476	167	-58.8	-74.2	264	29
2023-08-21T12:00	13495	166	-58.8	-74.3	265	29
2023-08-21T12:00	13518	166	-58.8	-74.4	265	29
2023-08-21T12:00	13540	165	-58.7	-74.5	265	29
2023-08-21T12:00	13564	164	-58.7	-74.6	264	29
2023-08-21T12:00	13584	164	-58.9	-74.8	265	29
2023-08-21T12:00	13607	163	-59.1	-74.9	265	30
2023-08-21T12:00	13629	163	-59.2	-75.0	265	30
2023-08-21T12:00	13650	162	-59.3	-75.2	266	30
2023-08-21T12:00	13673	162	-59.3	-75.2	267	30
2023-08-21T12:00	13692	161	-59.4	-75.3	268	30
2023-08-21T12:00	13717	160	-59.6	-75.6	269	29
2023-08-21T12:00	13738	160	-59.7	-75.7	270	29
2023-08-21T12:00	13759	159	-59.6	-75.8	270	29
2023-08-21T12:00	13782	159	-59.7	-76.0	271	28
2023-08-21T12:00	13801	158	-59.7	-76.1	270	28
2023-08-21T12:00	13823	158	-59.8	-76.3	270	28
2023-08-21T12:00	13846	157	-60.0	-76.6	270	28
2023-08-21T12:00	13869	157	-60.0	-76.7	269	28
2023-08-21T12:00	13888	156	-60.1	-76.7	269	28
2023-08-21T12:00	13909	156	-60.0	-76.7	268	28
2023-08-21T12:00	13930	155	-60.0	-76.9	268	28
2023-08-21T12:00	13953	154	-59.9	-77.0	268	28
2023-08-21T12:00	13975	154	-59.9	-77.2	267	28
2023-08-21T12:00	13996	153	-60.1	-77.3	266	28
2023-08-21T12:00	14018	153	-60.3	-77.4	265	28
2023-08-21T12:00	14041	152	-60.4	-77.4	264	28
2023-08-21T12:00	14062	152	-60.5	-77.5	263	28
2023-08-21T12:00	14084	151	-60.6	-77.7	262	27
2023-08-21T12:00	14104	151	-60.5	-77.8	261	27
2023-08-21T12:00	14122	150	-60.2	-77.8	260	26
2023-08-21T12:00	14144	150	-60.1	-78.0	259	26
2023-08-21T12:00	14167	149	-59.9	-78.1	259	25
2023-08-21T12:00	14190	149	-59.9	-78.4	259	24
2023-08-21T12:00	14209	148	-59.7	-78.6	259	23
2023-08-21T12:00	14231	148	-59.3	-78.7	260	23
2023-08-21T12:00	14252	147	-59.1	-79.0	260	22
2023-08-21T12:00	14271	147	-58.9	-79.2	261	22
2023-08-21T12:00	14287	146	-58.7	-79.3	262	22
2023-08-21T12:00	14310	146	-58.7	-79.4	263	22
2023-08-21T12:00	14328	145	-58.8	-79.5	265	23
2023-08-21T12:00	14351	145	-59.0	-79.5	266	23
2023-08-21T12:00	14370	145	-59.1	-79.6	267	23
2023-08-21T12:00	14388	144	-59.3	-79.6	269	23
2023-08-21T12:00	14411	144	-59.4	-79.7	270	23
2023-08-21T12:00	14431	143	-59.4	-79.7	271	23
2023-08-21T12:00	14450	143	-59.3	-79.8	271	23
2023-08-21T12:00	14471	142	-59.3	-79.9	271	22
2023-08-21T12:00	14496	142	-59.3	-80.0	270	21
2023-08-21T12:00	14518	141	-59.0	-80.0	269	20
2023-08-21T12:00	14539	141	-58.8	-79.9	268	20
2023-08-21T12:00	14563	140	-58.9	-80.1	267	20
2023-08-21T12:00	14586	140	-59.0	-80.3	266	20
2023-08-21T12:00	14606	139	-59.1	-80.4	265	20
2023-08-21T12:00	14628	139	-59.1	-80.4	264	20
2023-08-21T12:00	14651	138	-59.3	-80.6	263	20
2023-08-21T12:00	14671	138	-59.5	-80.7	263	20
2023-08-21T12:00	14696	137	-59.5	-80.7	262	20
2023-08-21T12:00	14718	137	-59.6	-80.8	261	21
2023-08-21T12:00	14738	136	-59.8	-81.0	261	21
2023-08-21T12:00	14758	136	-60.0	-81.1	260	22
2023-08-21T12:00	14785	135	-60.0		261	23
2023-08-21T12:00	14807	135	-59.6	-81.3	262	23
2023-08-21T12:00	14828	134	-59.3	-81.3	264	24
2023-08-21T12:00	14848	134	-59.3	-81.7	265	24
2023-08-21T12:00	14873	133	-59.2	-82.1	267	23
2023-08-21T12:00	14898	133	-58.8	-82.2	269	23
2023-08-21T12:00	14922	132	-57.8	-82.0	271	22
2023-08-21T12:00	14946	132	-57.3	-82.1	274	21
2023-08-21T12:00	14977	131	-57.2	-82.2	276	20
2023-08-21T12:00	15003	131	-57.1	-82.2	278	19
2023-08-21T12:00	15033	130	-57.1	-82.2	280	18
2023-08-21T12:00	15065	129	-56.9	-81.8	283	17
2023-08-21T12:00	15090	129	-57.0	-81.8	285	17
2023-08-21T12:00	15115	128	-57.0	-81.6	288	17
2023-08-21T12:00	15143	128	-57.1	-81.7	290	16
2023-08-21T12:00	15167	127	-57.2	-81.8	292	16
2023-08-21T12:00	15190	127	-57.3	-81.6	294	15
2023-08-21T12:00	15216	126	-57.5	-81.8	295	14
2023-08-21T12:00	15237	126	-57.5	-81.8	295	14
2023-08-21T12:00	15262	125	-57.6	-81.9	295	13
2023-08-21T12:00	15287	125	-57.7		294	12
2023-08-21T12:00	15307	125	-57.6	-81.9	292	12
2023-08-21T12:00	15330	124	-57.7		290	11
2023-08-21T12:00	15354	124	-57.7	-81.7	288	11
2023-08-21T12:00	15376	123	-57.8	-81.8	286	11
2023-08-21T12:00	15398	123	-58.0	-82.0	285	11
2023-08-21T12:00	15420	122	-58.1	-82.0	284	11
2023-08-21T12:00	15442	122	-58.2	-82.1	283	11
2023-08-21T12:00	15462	121	-58.4	-82.1	281	11
2023-08-21T12:00	15484	121	-58.5	-82.1	280	11
2023-08-21T12:00	15506	121	-58.6	-82.2	279	11
2023-08-21T12:00	15526	120	-58.6	-82.2	278	12
2023-08-21T12:00	15548	120	-58.7	-82.3	277	12
2023-08-21T12:00	15568	119	-58.6	-82.2	277	12
2023-08-21T12:00	15592	119	-58.5	-82.1	277	12
2023-08-21T12:00	15612	119	-58.6	-82.2	278	13
2023-08-21T12:00	15633	118	-58.6	-82.4	279	13
2023-08-21T12:00	15653	118	-58.5	-82.4	280	13
2023-08-21T12:00	15670	117	-58.3	-82.2	282	13
2023-08-21T12:00	15693	117	-58.0	-82.2	283	13
2023-08-21T12:00	15717	117	-57.8	-82.2	283	12
2023-08-21T12:00	15740	116	-57.4	-82.2	284	11
2023-08-21T12:00	15762	116	-57.0	-81.8	284	10
2023-08-21T12:00	15781	115	-56.9	-82.0	283	10
2023-08-21T12:00	15805	115	-56.9	-82.0	281	9
2023-08-21T12:00	15829	115	-56.9	-82.0	277	8
2023-08-21T12:00	15853	114	-56.9	-82.0	272	8
2023-08-21T12:00	15877	114	-56.8	-81.9	268	7
2023-08-21T12:00	15899	113	-56.8	-81.9	264	7
2023-08-21T12:00	15922	113	-56.9	-82.0	260	7
2023-08-21T12:00	15945	113	-57.0	-82.1	256	7
2023-08-21T12:00	15970	112	-57.1	-82.2	252	7
2023-08-21T12:00	15994	112	-57.2	-82.2	247	7
2023-08-21T12:00	16019	111	-57.5	-82.2	242	8
2023-08-21T12:00	16044	111	-57.6	-82.3	237	8
2023-08-21T12:00	16066	110	-57.8	-82.5	234	9
2023-08-21T12:00	16091	110	-57.9	-82.6	231	9
2023-08-21T12:00	16113	110	-58.1	-82.7	230	10
2023-08-21T12:00	16135	109	-58.1	-82.7	229	11
2023-08-21T12:00	16156	109	-58.1	-83.0	228	11
2023-08-21T12:00	16181	108	-58.0	-82.9	227	12
2023-08-21T12:00	16205	108	-58.0	-82.9	226	12
2023-08-21T12:00	16227	108	-58.2	-83.0	226	13
2023-08-21T12:00	16253	107	-58.3	-83.1	227	13
2023-08-21T12:00	16274	107	-58.5	-83.3	229	14
2023-08-21T12:00	16294	106	-58.6	-83.3	231	14
2023-08-21T12:00	16319	106	-58.5	-83.3	234	15
2023-08-21T12:00	16343	106	-58.5	-83.3	237	15
2023-08-21T12:00	16364	105	-58.6	-83.3	240	15
2023-08-21T12:00	16387	105	-58.5	-83.3	243	15
2023-08-21T12:00	16415	104	-58.4	-83.2	246	15
2023-08-21T12:00	16435	104	-58.4	-83.2	249	16
2023-08-21T12:00	16459	104	-58.5	-83.3	251	16
2023-08-21T12:00	16482	103	-58.6	-83.3	253	16
2023-08-21T12:00	16506	103	-58.6	-83.3	256	17
2023-08-21T12:00	16530	103	-58.7	-83.2	258	17
2023-08-21T12:00	16548	102	-58.8	-83.3	261	16
2023-08-21T12:00	16574	102	-58.9	-83.6	264	16
2023-08-21T12:00	16594	101	-58.9	-83.6	267	16
2023-08-21T12:00	16618	101	-58.8	-83.5	270	15
2023-08-21T12:00	16642	101	-58.5	-83.5	273	15
2023-08-21T12:00	16661	100	-58.4	-83.4	276	14
2023-08-21T12:00	16686	100	-58.4	-83.7	280	14
2023-08-21T12:00	16707	100	-58.4	-83.7	284	14
2023-08-21T12:00	16733	99	-58.4	-83.7	287	13
2023-08-21T12:00	16757	99	-58.5	-83.8	291	13
2023-08-21T12:00	16780	99	-58.4	-83.7	294	12
2023-08-21T12:00	16803	98	-58.4	-83.7	297	11
2023-08-21T12:00	16828	98	-58.4	-84.0	298	10
2023-08-21T12:00	16852	97	-58.3	-83.9	298	9
2023-08-21T12:00	16874	97	-58.0	-83.9	295	9
2023-08-21T12:00	16892	97	-57.8	-83.8	291	8
2023-08-21T12:00	16920	96	-57.8	-83.8	287	8
2023-08-21T12:00	16940	96	-57.9	-83.9	283	9
2023-08-21T12:00	16963	96	-58.0	-83.9	279	9
2023-08-21T12:00	16985	95	-58.1	-83.7	276	9
2023-08-21T12:00	17008	95	-58.2	-83.8	274	10
2023-08-21T12:00	17029	95	-58.4	-84.0	272	11
2023-08-21T12:00	17054	94	-58.5	-84.0	271	11
2023-08-21T12:00	17074	94	-58.4	-84.0	271	12
2023-08-21T12:00	17099	94	-58.4	-84.3	271	12
2023-08-21T12:00	17121	93	-58.3	-84.2	272	13
2023-08-21T12:00	17144	93	-58.4	-84.3	274	13
2023-08-21T12:00	17166	93	-58.5	-84.0	276	13
2023-08-21T12:00	17191	92	-58.6	-84.1	279	14
2023-08-21T12:00	17215	92	-58.6	-84.1	282	14
2023-08-21T12:00	17239	92	-58.6	-84.4	284	14
2023-08-21T12:00	17258	91	-58.6	-84.4	286	14
2023-08-21T12:00	17284	91	-58.6	-84.4	288	14
2023-08-21T12:00	17308	91	-58.5	-84.6	289	13
2023-08-21T12:00	17331	90	-58.3	-84.5	290	12
2023-08-21T12:00	17355	90	-58.2	-84.4	290	11
2023-08-21T12:00	17374	90	-58.2	-84.4	291	10
2023-08-21T12:00	17399	89	-58.3	-84.8	291	9
2023-08-21T12:00	17421	89	-58.1	-84.6	290	8
2023-08-21T12:00	17450	89	-57.9	-84.5	290	7
2023-08-21T12:00	17468	88	-57.8	-84.4	289	7
2023-08-21T12:00	17493	88	-57.9	-84.5	287	6
2023-08-21T12:00	17514	88	-58.0	-84.6	285	6
2023-08-21T12:00	17539	87	-57.9	-84.5	283	6
2023-08-21T12:00	17559	87	-57.6	-84.6	280	6
2023-08-21T12:00	17586	87	-57.5	-84.5	278	6
2023-08-21T12:00	17606	86	-57.4	-84.4	275	6
2023-08-21T12:00	17627	86	-57.3	-84.4	273	6
2023-08-21T12:00	17651	86	-57.4	-84.4	271	7
2023-08-21T12:00	17674	86	-57.5	-84.5	270	7
2023-08-21T12:00	17699	85	-57.6	-84.6	270	7
2023-08-21T12:00	17721	85	-57.7	-84.7	270	7
2023-08-21T12:00	17743	85	-57.8	-84.4	271	7
2023-08-21T12:00	17764	84	-57.8	-84.4	270	6
2023-08-21T12:00	17787	84	-57.7	-84.7	268	6
2023-08-21T12:00	17809	84	-57.6	-84.6	265	6
2023-08-21T12:00	17829	83	-57.6	-84.6	260	6
2023-08-21T12:00	17855	83	-57.8	-84.7	256	7
2023-08-21T12:00	17878	83	-57.8	-84.7	252	7
2023-08-21T12:00	17897	83	-57.7	-84.7	249	7
2023-08-21T12:00	17925	82	-57.8	-84.7	248	7
2023-08-21T12:00	17945	82	-57.9	-84.8	248	7
2023-08-21T12:00	17967	82	-57.8	-84.7	248	7
2023-08-21T12:00	17988	81	-57.7	-84.7	249	7
2023-08-21T12:00	18010	81	-57.7	-84.7	250	6
2023-08-21T12:00	18033	81	-57.7	-84.7	252	6
2023-08-21T12:00	18058	80	-57.8	-84.7	254	5
2023-08-21T12:00	18081	80	-57.9	-84.8	256	5
2023-08-21T12:00	18104	80	-58.0	-84.9	258	5
2023-08-21T12:00	18128	80	-58.0	-84.9	257	5
2023-08-21T12:00	18153	79	-57.9	-84.8	255	4
2023-08-21T12:00	18175	79	-57.9	-84.8	251	4
2023-08-21T12:00	18199	79	-57.8	-84.7	247	4
2023-08-21T12:00	18222	78	-57.9	-84.8	246	4
2023-08-21T12:00	18247	78	-58.0	-84.9	247	5
2023-08-21T12:00	18266	78	-58.1	-85.0	250	5
2023-08-21T12:00	18290	78	-58.0	-84.9	255	5
2023-08-21T12:00	18312	77	-57.8	-85.1	261	5
2023-08-21T12:00	18334	77	-57.7	-85.0	267	5
2023-08-21T12:00	18359	77	-57.7	-85.0	271	5
2023-08-21T12:00	18382	76	-57.8	-85.1	274	5
2023-08-21T12:00	18405	76	-57.9	-85.2	274	5
2023-08-21T12:00	18426	76	-57.8	-85.1	273	5
2023-08-21T12:00	18451	76	-57.7	-85.0	270	5
2023-08-21T12:00	18472	75	-57.6	-84.9	268	5
2023-08-21T12:00	18499	75	-57.6	-84.9	264	4
2023-08-21T12:00	18517	75	-57.6	-84.9	260	4
2023-08-21T12:00	18543	75	-57.8	-85.1	255	4
2023-08-21T12:00	18566	74	-57.9	-85.2	250	4
2023-08-21T12:00	18591	74	-57.9	-84.8	246	4
2023-08-21T12:00	18616	74	-58.0	-84.9	245	4
2023-08-21T12:00	18640	73	-58.2	-85.0	248	4
2023-08-21T12:00	18659	73	-58.4	-85.2	252	4
2023-08-21T12:00	18685	73	-58.3	-85.1	258	5
2023-08-21T12:00	18710	73	-58.2	-85.0	263	5
2023-08-21T12:00	18733	72	-58.1	-85.3	268	5
2023-08-21T12:00	18753	72	-58.1	-85.3	271	5
2023-08-21T12:00	18775	72	-58.1	-85.3	274	5
2023-08-21T12:00	18801	72	-58.1	-85.3	276	4
2023-08-21T12:00	18825	71	-58.1	-85.3	279	4
2023-08-21T12:00	18852	71	-58.1	-85.3	282	3
2023-08-21T12:00	18877	71	-57.8	-85.5	286	2
2023-08-21T12:00	18901	70	-57.6	-85.3	292	2
2023-08-21T12:00	18924	70	-57.5	-85.2	311	1
2023-08-21T12:00	18950	70	-57.6	-85.3	17	1
2023-08-21T12:00	18974	70	-57.5	-85.2	69	1
2023-08-21T12:00	19000	69	-57.5	-85.2	88	1
2023-08-21T12:00	19026	69	-57.5	-85.2	103	2
2023-08-21T12:00	19045	69	-57.5	-85.2	118	2
2023-08-21T12:00	19071	69	-57.4	-85.2	134	2
2023-08-21T12:00	19100	68	-57.3	-85.1	148	2
2023-08-21T12:00	19122	68	-57.3	-85.1	160	2
2023-08-21T12:00	19147	68	-57.4	-85.2	169	3
2023-08-21T12:00	19174	67	-57.4	-85.2	177	3
2023-08-21T12:00	19195	67	-57.4	-84.8	184	3
2023-08-21T12:00	19215	67	-57.6	-84.9	190	4
2023-08-21T12:00	19240	67	-57.8	-85.1	197	4
2023-08-21T12:00	19266	66	-57.8	-85.1	205	4
2023-08-21T12:00	19289	66	-57.9	-85.2	214	5
2023-08-21T12:00	19314	66	-57.9	-85.2	222	5
2023-08-21T12:00	19339	66	-58.1	-85.3	231	5
2023-08-21T12:00	19360	65	-58.0	-85.2	239	6
2023-08-21T12:00	19388	65	-57.9	-85.5	245	6
2023-08-21T12:00	19411	65	-57.9	-85.5	251	6
2023-08-21T12:00	19433	65	-57.6	-85.3	254	5
2023-08-21T12:00	19457	64	-57.3	-85.5	258	5
2023-08-21T12:00	19480	64	-57.2	-85.4	261	4
2023-08-21T12:00	19504	64	-57.2	-85.4	264	3
2023-08-21T12:00	19528	64	-57.2	-85.4	265	3
2023-08-21T12:00	19552	63	-57.2	-85.4	263	2
2023-08-21T12:00	19577	63	-57.2	-85.4	258	2
2023-08-21T12:00	19600	63	-57.1	-85.3	250	3
2023-08-21T12:00	19622	63	-57.0	-85.2	243	3
2023-08-21T12:00	19646	63	-57.0	-85.2	236	3
2023-08-21T12:00	19674	62	-57.0	-85.2	229	3
2023-08-21T12:00	19698	62	-57.0	-85.2	222	3
2023-08-21T12:00	19715	62	-57.0	-84.8	215	3
2023-08-21T12:00	19743	62	-57.1	-84.9	208	3
2023-08-21T12:00	19770	61	-57.1	-85.3	203	3
2023-08-21T12:00	19796	61	-57.0	-85.2	202	3
2023-08-21T12:00	19818	61	-57.0	-85.2	204	3
2023-08-21T12:00	19839	61	-57.0	-85.2	208	3
2023-08-21T12:00	19864	60	-56.9	-85.2	213	4
2023-08-21T12:00	19887	60	-56.8	-85.1	220	4
2023-08-21T12:00	19910	60	-56.7	-85.0	228	4
2023-08-21T12:00	19934	60	-56.7	-85.0	238	4
2023-08-21T12:00	19958	60	-56.6	-84.9	249	3
2023-08-21T12:00	19980	59	-56.5	-84.9	261	3
2023-08-21T12:00	20006	59	-56.5	-84.9	272	3
2023-08-21T12:00	20026	59	-56.4	-84.8	281	3
2023-08-21T12:00	20055	59	-56.5	-84.9	288	3
2023-08-21T12:00	20074	58	-56.6	-84.9	296	4
2023-08-21T12:00	20103	58	-56.8	-85.1	305	3
2023-08-21T12:00	20127	58	-56.9	-85.2	317	3
2023-08-21T12:00	20150	58	-56.9	-85.2	331	3
2023-08-21T12:00	20179	58	-56.9	-85.2	348	3
2023-08-21T12:00	20194	57	-56.8	-85.1	6	3
2023-08-21T12:00	20225	57	-56.5	-84.9	27	2
2023-08-21T12:00	20249	57	-56.3	-85.1	48	2
2023-08-21T12:00	20276	57	-56.3	-85.1	70	2
2023-08-21T12:00	20298	56	-56.1	-85.0	91	2
2023-08-21T12:00	20324	56	-55.9	-84.8	105	2
2023-08-21T12:00	20353	56	-55.9	-84.8	111	2
2023-08-21T12:00	20375	56	-55.9	-84.8	105	1
2023-08-21T12:00	20401	56	-55.9	-84.4	83	1
2023-08-21T12:00	20428	55	-56.0	-84.5	57	2
2023-08-21T12:00	20450	55	-56.1	-84.6	45	2
2023-08-21T12:00	20473	55	-56.2	-84.6	42	3
2023-08-21T12:00	20495	55	-56.1	-84.6	44	3
2023-08-21T12:00	20519	54	-56.1	-84.6	49	4
2023-08-21T12:00	20544	54	-56.1	-84.6	54	4
2023-08-21T12:00	20570	54	-56.1	-84.6	60	4
2023-08-21T12:00	20596	54	-56.1	-84.6	66	5
2023-08-21T12:00	20624	54	-56.1	-84.6	73	5
2023-08-21T12:00	20650	53	-56.2	-84.6	80	5
2023-08-21T12:00	20671	53	-56.1	-84.6	88	5
2023-08-21T12:00	20698	53	-56.1	-84.6	96	5
2023-08-21T12:00	20723	53	-56.0	-84.5	105	5
2023-08-21T12:00	20747	53	-56.0	-84.5	115	5
2023-08-21T12:00	20773	52	-56.2	-84.6	125	5
2023-08-21T12:00	20798	52	-56.3	-84.7	133	5
2023-08-21T12:00	20822	52	-56.4	-84.8	139	5
2023-08-21T12:00	20847	52	-56.5	-84.5	145	5
2023-08-21T12:00	20871	52	-56.6	-84.5	150	5
2023-08-21T12:00	20898	51	-56.6	-84.5	156	5
2023-08-21T12:00	20924	51	-56.8	-84.7	162	5
2023-08-21T12:00	20948	51	-56.8	-85.1	169	5
2023-08-21T12:00	20974	51	-56.8	-85.1	175	5
2023-08-21T12:00	20998	51	-56.7	-85.0	181	5
2023-08-21T12:00	21022	50	-56.7	-85.0	185	5
2023-08-21T12:00	21046	50	-56.8	-85.1	188	5
2023-08-21T12:00	21073	50	-56.8	-85.1	190	4
2023-08-21T12:00	21098	50	-56.8	-85.1	189	4
2023-08-21T12:00	21123	50	-56.7	-85.0	183	3
2023-08-21T12:00	21148	49	-56.8	-85.1	170	3
2023-08-21T12:00	21171	49	-56.8	-85.1	151	2
2023-08-21T12:00	21194	49	-56.8	-85.1	135	2
2023-08-21T12:00	21217	49	-56.7	-85.0	128	2
2023-08-21T12:00	21244	49	-56.5	-84.9	127	3
2023-08-21T12:00	21269	48	-56.4	-84.8	133	3
2023-08-21T12:00	21297	48	-56.3	-84.7	140	3
2023-08-21T12:00	21320	48	-56.3	-84.7	145	3
2023-08-21T12:00	21342	48	-56.3	-84.7	147	3
2023-08-21T12:00	21370	48	-56.3	-84.7	142	3
2023-08-21T12:00	21394	47	-56.4	-84.8	131	2
2023-08-21T12:00	21421	47	-56.3	-85.1	117	3
2023-08-21T12:00	21448	47	-56.2	-85.1	107	3
2023-08-21T12:00	21471	47	-56.1	-85.0	102	4
2023-08-21T12:00	21499	47	-56.0	-84.9	101	4
2023-08-21T12:00	21522	47	-55.9	-84.8	101	5
2023-08-21T12:00	21545	46	-55.7	-84.7	102	5
2023-08-21T12:00	21574	46	-55.6	-84.6	102	5
2023-08-21T12:00	21592	46	-55.6	-84.6	101	5
2023-08-21T12:00	21622	46	-55.6	-84.6	101	5
2023-08-21T12:00	21644	46	-55.6	-84.6	100	4
2023-08-21T12:00	21667	46	-55.6	-84.6	99	4
2023-08-21T12:00	21691	45	-55.7	-84.7	100	4
2023-08-21T12:00	21717	45	-55.8	-84.8	101	3
2023-08-21T12:00	21741	45	-55.8	-84.8	102	3
2023-08-21T12:00	21769	45	-55.8	-84.8	103	3
2023-08-21T12:00	21792	45	-55.7	-84.7	103	3
2023-08-21T12:00	21817	44	-55.6	-84.6	100	3
2023-08-21T12:00	21842	44	-55.5	-84.5	97	3
2023-08-21T12:00	21866	44	-55.4	-84.5	91	2
2023-08-21T12:00	21888	44	-55.4	-84.5	86	2
2023-08-21T12:00	21915	44	-55.4	-84.5	84	2
2023-08-21T12:00	21940	44	-55.2	-84.3	83	2
2023-08-21T12:00	21968	43	-55.1	-84.2	86	2
2023-08-21T12:00	21992	43	-55.2	-84.3	88	2
2023-08-21T12:00	22012	43	-55.2	-84.3	88	2
2023-08-21T12:00	22039	43	-55.2	-84.3	85	3
2023-08-21T12:00	22067	43	-55.3	-84.4	81	3
2023-08-21T12:00	22093	43	-55.5	-84.5	79	3
2023-08-21T12:00	22115	42	-55.6	-84.6	78	4
2023-08-21T12:00	22143	42	-55.7	-84.7	79	4
2023-08-21T12:00	22168	42	-55.8	-84.8	82	5
2023-08-21T12:00	22193	42	-55.7	-84.7	86	5
2023-08-21T12:00	22223	42	-55.6	-84.6	90	5
2023-08-21T12:00	22246	42	-55.5	-84.5	94	5
2023-08-21T12:00	22272	41	-55.3	-84.4	97	5
2023-08-21T12:00	22297	41	-55.2	-84.8	100	5
2023-08-21T12:00	22315	41	-55.0	-84.6	101	5
2023-08-21T12:00	22349	41	-54.8	-84.5	103	5
2023-08-21T12:00	22374	41	-54.6	-84.3	104	6
2023-08-21T12:00	22393	41	-54.6	-84.3	106	6
2023-08-21T12:00	22421	40	-54.6	-84.3	110	6
2023-08-21T12:00	22447	40	-54.6	-84.3	114	7
2023-08-21T12:00	22473	40	-54.5	-84.3	117	7
2023-08-21T12:00	22500	40	-54.4	-84.2	119	7
2023-08-21T12:00	22528	40	-54.3	-84.1	121	7
2023-08-21T12:00	22556	40	-54.4	-84.2	120	7
2023-08-21T12:00	22578	39	-54.4	-84.2	119	7
2023-08-21T12:00	22602	39	-54.4	-84.2	116	6
2023-08-21T12:00	22632	39	-54.4	-84.2	112	6
2023-08-21T12:00	22653	39	-54.5	-84.3	109	5
2023-08-21T12:00	22681	39	-54.7	-84.4	105	5
2023-08-21T12:00	22705	39	-54.7	-84.4	103	5
2023-08-21T12:00	22735	39	-54.6	-84.3	102	5
2023-08-21T12:00	22755	38	-54.6	-84.3	103	5
2023-08-21T12:00	22780	38	-54.6	-84.3	104	5
2023-08-21T12:00	22808	38	-54.6	-84.3	107	5
2023-08-21T12:00	22832	38	-54.5	-84.3	109	5
2023-08-21T12:00	22856	38	-54.5	-84.3	109	5
2023-08-21T12:00	22882	38	-54.4	-84.2	108	5
2023-08-21T12:00	22909	37	-54.4	-84.2	104	4
2023-08-21T12:00	22937	37	-54.3	-84.1	99	4
2023-08-21T12:00	22966	37	-54.3	-84.1	93	4
2023-08-21T12:00	22985	37	-54.2	-84.0	88	4
2023-08-21T12:00	23013	37	-54.2	-84.0	85	4
2023-08-21T12:00	23038	37	-54.2	-84.0	84	4
2023-08-21T12:00	23068	37	-54.2	-84.0	86	4
2023-08-21T12:00	23092	36	-54.0	-83.9	90	5
2023-08-21T12:00	23121	36	-54.0	-83.9	96	5
2023-08-21T12:00	23145	36	-54.1	-84.0	103	5
2023-08-21T12:00	23164	36	-54.2	-84.0	110	5
2023-08-21T12:00	23191	36	-54.2	-84.0	117	5
2023-08-21T12:00	23217	36	-54.2	-84.0	123	5
2023-08-21T12:00	23244	36	-54.2	-84.0	127	5
2023-08-21T12:00	23271	35	-54.1	-84.0	129	4
2023-08-21T12:00	23292	35	-54.1	-84.0	128	4
2023-08-21T12:00	23318	35	-54.2	-84.0	122	4
2023-08-21T12:00	23344	35	-54.1	-84.0	112	4
2023-08-21T12:00	23374	35	-54.0	-83.9	100	4
2023-08-21T12:00	23401	35	-53.9	-83.8	88	4
2023-08-21T12:00	23426	35	-54.0	-83.9	79	5
2023-08-21T12:00	23449	34	-54.0	-83.9	72	5
2023-08-21T12:00	23484	34	-53.9	-83.8	66	6
2023-08-21T12:00	23505	34	-53.9	-83.8	62	6
2023-08-21T12:00	23528	34	-53.9	-83.8	58	7
2023-08-21T12:00	23558	34	-54.0	-83.9	56	7
2023-08-21T12:00	23583	34	-54.0	-83.9	56	6
2023-08-21T12:00	23609	34	-54.0	-83.9	59	6
2023-08-21T12:00	23637	33	-53.9	-83.8	66	5
2023-08-21T12:00	23659	33	-53.9	-83.8	75	5
2023-08-21T12:00	23690	33	-53.9	-84.3	86	5
2023-08-21T12:00	23711	33	-54.0	-84.4	94	5
2023-08-21T12:00	23749	33	-53.7	-84.2	102	6
2023-08-21T12:00	23767	33	-53.2	-83.8	107	6
2023-08-21T12:00	23796	33	-52.9	-83.6	111	6
2023-08-21T12:00	23822	33	-52.9	-83.6	114	6
2023-08-21T12:00	23850	32	-53.0	-83.6	115	5
2023-08-21T12:00	23880	32	-53.0	-83.6	115	5
2023-08-21T12:00	23906	32	-53.0	-83.6	113	5
2023-08-21T12:00	23926	32	-52.9	-83.6	111	4
2023-08-21T12:00	23955	32	-52.8	-83.5	109	4
2023-08-21T12:00	23981	32	-52.6	-83.3	107	4
2023-08-21T12:00	24007	32	-52.5	-83.3	104	4
2023-08-21T12:00	24038	31	-52.5	-83.3	101	4
2023-08-21T12:00	24061	31	-52.5	-83.3	97	4
2023-08-21T12:00	24089	31	-52.5	-83.3	92	4
2023-08-21T12:00	24114	31	-52.5	-83.3	86	4
2023-08-21T12:00	24138	31	-52.6	-83.3	82	4
2023-08-21T12:00	24168	31	-52.8	-83.5	78	5
2023-08-21T12:00	24193	31	-53.0	-83.6	73	5
2023-08-21T12:00	24218	31	-53.0	-83.6	69	5
2023-08-21T12:00	24246	30	-53.1	-83.7	66	5
2023-08-21T12:00	24276	30	-53.1	-83.7	64	5
2023-08-21T12:00	24303	30	-53.0	-83.6	64	5
2023-08-21T12:00	24326	30	-52.8	-83.5	67	5
2023-08-21T12:00	24350	30	-52.7	-83.4	71	6
2023-08-21T12:00	24379	30	-52.5	-83.8	77	6
2023-08-21T12:00	24407	30	-52.4	-83.8	82	6
2023-08-21T12:00	24437	30	-52.3	-83.7	85	6
2023-08-21T12:00	24464	29	-52.4	-83.2	88	6
2023-08-21T12:00	24489	29	-52.4	-83.2	91	6
2023-08-21T12:00	24514	29	-52.5	-83.3	94	6
2023-08-21T12:00	24547	29	-52.6	-83.3	98	5
2023-08-21T12:00	24569	29	-52.5	-83.3	103	5
2023-08-21T12:00	24600	29	-52.5	-83.8	110	4
2023-08-21T12:00	24623	29	-52.3	-83.7	117	4
2023-08-21T12:00	24652	29	-52.2	-83.6	124	4
2023-08-21T12:00	24675	28	-52.1	-83.5	129	4
2023-08-21T12:00	24713	28	-52.1	-83.5	132	4
2023-08-21T12:00	24738	28	-51.9	-83.4	134	4
2023-08-21T12:00	24762	28	-51.7	-83.2	135	3
2023-08-21T12:00	24790	28	-51.6	-83.2	134	3
2023-08-21T12:00	24820	28	-51.6	-83.2	134	3
2023-08-21T12:00	24849	28	-51.6	-83.2	134	3
2023-08-21T12:00	24876	28	-51.6	-83.2	136	3
2023-08-21T12:00	24900	28	-51.5	-83.1	139	3
2023-08-21T12:00	24928	27	-51.5	-83.1	141	3
2023-08-21T12:00	24953	27	-51.5	-83.1	140	3
2023-08-21T12:00	24985	27	-51.5	-83.1	136	3
2023-08-21T12:00	25011	27	-51.4	-83.0	128	2
2023-08-21T12:00	25035	27	-51.3	-82.9	114	2
2023-08-21T12:00	25061	27	-51.3	-82.9	96	2
2023-08-21T12:00	25095	27	-51.2	-82.9	77	2
2023-08-21T12:00	25122	27	-51.2	-82.9	61	2
2023-08-21T12:00	25150	26	-51.1	-82.8	53	3
2023-08-21T12:00	25176	26	-51.1	-82.8	49	3
2023-08-21T12:00	25198	26	-51.2	-82.9	48	4
2023-08-21T12:00	25228	26	-51.1	-82.8	50	4
2023-08-21T12:00	25253	26	-51.1	-82.8	53	5
2023-08-21T12:00	25283	26	-51.2	-82.9	57	5
2023-08-21T12:00	25308	26	-51.4	-83.0	63	5
2023-08-21T12:00	25331	26	-51.4	-83.0	71	4
2023-08-21T12:00	25372	26	-51.3	-82.9	81	4
2023-08-21T12:00	25390	26	-51.3	-82.9	93	4
2023-08-21T12:00	25417	25	-51.3	-82.9	106	3
2023-08-21T12:00	25443	25	-51.1	-82.8	118	3
2023-08-21T12:00	25469	25	-50.9	-82.7	129	3
2023-08-21T12:00	25493	25	-50.9	-82.7	140	3
2023-08-21T12:00	25524	25	-50.9	-82.7	149	3
2023-08-21T12:00	25551	25	-51.0	-82.7	158	3
2023-08-21T12:00	25577	25	-50.9	-82.7	166	2
2023-08-21T12:00	25605	25	-50.8	-82.6	174	2
2023-08-21T12:00	25629	25	-50.8	-82.6	186	1
2023-08-21T12:00	25652	25	-50.9	-82.7	222	1
2023-08-21T12:00	25682	24	-51.0	-82.7	289	1
2023-08-21T12:00	25709	24	-51.1	-82.8	311	1
2023-08-21T12:00	25732	24	-51.0	-82.7	319	2
2023-08-21T12:00	25761	24	-51.0	-82.7	325	2
2023-08-21T12:00	25783	24	-51.0	-82.7	334	2
2023-08-21T12:00	25811	24	-50.9	-82.7	344	2
2023-08-21T12:00	25835	24	-50.9	-82.7	355	3
2023-08-21T12:00	25870	24	-50.8	-82.6	3	3
2023-08-21T12:00	25884	24	-50.9	-82.7	11	3
2023-08-21T12:00	25915	24	-51.0	-82.7	18	3
2023-08-21T12:00	25944	23	-51.1	-82.8	27	3
2023-08-21T12:00	25967	23	-51.2	-82.9	38	3
2023-08-21T12:00	25988	23	-51.1	-82.8	47	3
2023-08-21T12:00	26022	23	-51.0	-82.7	52	3
2023-08-21T12:00	26049	23	-50.8	-83.2	54	4
2023-08-21T12:00	26079	23	-50.7	-83.1	52	4
2023-08-21T12:00	26110	23	-50.7	-83.1	49	4
2023-08-21T12:00	26134	23	-50.6	-83.1	47	5
2023-08-21T12:00	26157	23	-50.5	-83.0	46	5
2023-08-21T12:00	26183	23	-50.5	-83.0	46	5
2023-08-21T12:00	26209	22	-50.4	-82.9	47	6
2023-08-21T12:00	26238	22	-50.2	-82.8	50	6
2023-08-21T12:00	26270	22	-49.8	-82.5	53	6
2023-08-21T12:00	26308	22	-49.5	-82.9	58	7
2023-08-21T12:00	26322	22	-49.2	-82.7	63	7
2023-08-21T12:00	26354	22	-49.0	-82.6	67	7
2023-08-21T12:00	26376	22	-48.8	-82.4	71	7
2023-08-21T12:00	26402	22	-48.7	-82.4	73	6
2023-08-21T12:00	26431	22	-48.6	-82.3	75	6
2023-08-21T12:00	26459	22	-48.5	-82.2	75	6
2023-08-21T12:00	26485	22	-48.4	-82.2	77	5
2023-08-21T12:00	26514	22	-48.4	-82.2	79	5
2023-08-21T12:00	26537	21	-48.2	-82.0	83	5
2023-08-21T12:00	26567	21	-48.1	-81.9	88	5
2023-08-21T12:00	26591	21	-47.9	-81.8	92	5
2023-08-21T12:00	26618	21	-47.6	-81.6	96	5
2023-08-21T12:00	26649	21	-47.4	-81.4	100	5
2023-08-21T12:00	26674	21	-47.3	-81.4	104	4
2023-08-21T12:00	26702	21	-47.3	-81.4	108	4
2023-08-21T12:00	26743	21	-47.3	-81.4	112	4
2023-08-21T12:00	26764	21	-47.4	-81.4	115	4
2023-08-21T12:00	26797	21	-47.4	-81.4	118	4
2023-08-21T12:00	26830	21	-47.3	-81.4	120	4
2023-08-21T12:00	26851	20	-47.2	-81.3	121	4
2023-08-21T12:00	26879	20	-47.1	-81.2	121	4
2023-08-21T12:00	26906	20	-47.0	-81.1	121	4
2023-08-21T12:00	26931	20	-46.9	-81.1	119	4
2023-08-21T12:00	26955	20	-46.8	-81.0	116	4
2023-08-21T12:00	26984	20	-46.7	-80.9	112	4
2023-08-21T12:00	27007	20	-46.7	-80.9	109	4
2023-08-21T12:00	27038	20	-46.7	-80.9	106	4
2023-08-21T12:00	27061	20	-46.7	-80.9	105	4
2023-08-21T12:00	27101	20	-46.8	-81.0	103	4
2023-08-21T12:00	27122	20	-46.9	-81.1	104	4
2023-08-21T12:00	27149	20	-46.9	-81.1	106	4
2023-08-21T12:00	27181	19	-46.9	-81.1	110	4
2023-08-21T12:00	27202	19	-46.8	-81.0	114	5
2023-08-21T12:00	27234	19	-46.8	-81.0	117	5
2023-08-21T12:00	27264	19	-46.8	-81.0	120	6
2023-08-21T12:00	27285	19	-46.8	-81.0	121	6
2023-08-21T12:00	27312	19	-46.9	-81.1	122	6
2023-08-21T12:00	27343	19	-47.0	-81.1	122	5
2023-08-21T12:00	27361	19	-47.0	-81.1	120	5
2023-08-21T12:00	27390	19	-47.0	-81.1	117	4
2023-08-21T12:00	27424	19	-46.9	-81.1	114	3
2023-08-21T12:00	27452	19	-46.8	-81.0	112	2
2023-08-21T12:00	27478	19	-46.6	-80.9	110	1
2023-08-21T12:00	27497	19	-46.5	-80.8	321	0
2023-08-21T12:00	27527	18	-46.4	-80.7	299	1
2023-08-21T12:00	27556	18	-46.4	-81.5	302	2
2023-08-21T12:00	27581	18	-46.5	-81.6	305	3
2023-08-21T12:00	27612	18	-46.5	-81.6	309	4
2023-08-21T12:00	27633	18	-46.5	-81.6	312	4
2023-08-21T12:00	27669	18	-46.4	-81.5	317	5
2023-08-21T12:00	27694	18	-46.2	-81.4	323	5
2023-08-21T12:00	27732	18	-46.2	-81.4	331	4
2023-08-21T12:00	27746	18	-46.1	-81.3	343	4
2023-08-21T12:00	27763	18	-45.8	-81.1	357	4
2023-08-21T12:00	27802	18	-45.7	-81.0	12	3
2023-08-21T12:00	27826	18	-45.7	-81.0	27	3
2023-08-21T12:00	27857	18	-45.7	-81.0	41	3
2023-08-21T12:00	27883	17	-45.6	-80.9	55	3
2023-08-21T12:00	27915	17	-45.7	-81.0	67	3
2023-08-21T12:00	27942	17	-45.9	-81.2	77	3
2023-08-21T12:00	27975	17	-46.1	-80.5	83	3
2023-08-21T12:00	27991	17	-46.1	-80.5	87	3
2023-08-21T12:00	28023	17	-46.2	-80.6	90	2
2023-08-21T12:00	28052	17	-46.3	-80.6	92	2
2023-08-21T12:00	28076	17	-46.4	-80.7	96	2
2023-08-21T12:00	28109	17	-46.4	-80.7	105	1
2023-08-21T12:00	28135	17	-46.4	-81.5	124	1
2023-08-21T12:00	28159	17	-46.5	-81.6	175	0
2023-08-21T12:00	28189	17	-46.4	-81.5	230	0
2023-08-21T12:00	28217	17	-46.2	-81.4	259	1
2023-08-21T12:00	28241	17	-45.9	-81.2	278	1
2023-08-21T12:00	28279	16	-45.7	-81.0	294	1
2023-08-21T12:00	28295	16	-45.5	-80.9	309	1
2023-08-21T12:00	28321	16	-45.3	-80.7	321	1
2023-08-21T12:00	28351	16	-45.2	-80.7	330	1
2023-08-21T12:00	28383	16	-45.2	-80.7	336	2
2023-08-21T12:00	28399	16	-45.1	-80.6	339	2
2023-08-21T12:00	28450	16	-45.1	-80.6	340	3
2023-08-21T12:00	28465	16	-45.0	-80.5	341	3
2023-08-21T12:00	28505	16	-44.9	-80.4	344	4
2023-08-21T12:00	28523	16	-44.9	-80.4	348	4
2023-08-21T12:00	28551	16	-44.9	-80.4	355	4
2023-08-21T12:00	28580	16	-44.8	-80.4	3	4
2023-08-21T12:00	28604	16	-44.6	-80.2	13	4
2023-08-21T12:00	28624	16	-44.4	-80.1	23	4
2023-08-21T12:00	28663	16	-44.4	-80.1	33	4
2023-08-21T12:00	28688	16	-44.4	-80.1	43	3
2023-08-21T12:00	28725	15	-44.4	-80.1	53	4
2023-08-21T12:00	28739	15	-44.4	-80.1	61	4
2023-08-21T12:00	28773	15	-44.4	-80.1	68	4
2023-08-21T12:00	28790	15	-44.5	-80.1	76	4
2023-08-21T12:00	28820	15	-44.6	-80.2	83	4
2023-08-21T12:00	28852	15	-44.6	-80.2	90	4
2023-08-21T12:00	28884	15	-44.3	-80.0	96	4
2023-08-21T12:00	28905	15	-44.1	-79.9	100	3
2023-08-21T12:00	28930	15	-44.1	-80.8	102	2
2023-08-21T12:00	28956	15	-44.1	-80.8	98	2
2023-08-21T12:00	28984	15	-44.0	-80.7	83	1
2023-08-21T12:00	29008	15	-43.9	-80.7	58	1
2023-08-21T12:00	29047	15	-43.8	-80.6	39	2
2023-08-21T12:00	29062	15	-43.7	-80.5	32	2
2023-08-21T12:00	29107	15	-43.5	-80.4	31	3
2023-08-21T12:00	29135	15	-43.3	-80.2	34	3
2023-08-21T12:00	29150	14	-42.9	-80.0	39	4
2023-08-21T12:00	29198	14	-42.7	-79.8	44	4
2023-08-21T12:00	29226	14	-42.6	-79.7	49	4
2023-08-21T12:00	29249	14	-42.6	-79.7	54	5
2023-08-21T12:00	29267	14	-42.7	-79.8	59	5
2023-08-21T12:00	29301	14	-42.7	-79.8	64	5
2023-08-21T12:00	29329	14	-42.8	-79.9	70	5
2023-08-21T12:00	29352	14	-42.9	-80.0	77	5
2023-08-21T12:00	29388	14	-43.0	-80.0	85	5
2023-08-21T12:00	29415	14	-43.1	-80.1	94	5
2023-08-21T12:00	29443	14	-43.2	-80.2	104	5
2023-08-21T12:00	29474	14	-43.3	-80.2	113	5
2023-08-21T12:00	29498	14	-43.4	-80.3	123	5
2023-08-21T12:00	29531	14	-43.4	-80.3	132	5
2023-08-21T12:00	29560	14	-43.3	-80.2	141	5
2023-08-21T12:00	29591	14	-43.2	-80.2	152	5
2023-08-21T12:00	29617	13	-43.0	-80.0	163	5
2023-08-21T12:00	29665	13	-42.9	-80.0	174	5
2023-08-21T12:00	29680	13	-42.8	-79.9	185	5
2023-08-21T12:00	29704	13	-42.9	-80.0	195	5
2023-08-21T12:00	29737	13	-42.9	-80.0	205	5
2023-08-21T12:00	29759	13	-42.8	-79.9	214	5
2023-08-21T12:00	29796	13	-42.6	-79.7	221	5
2023-08-21T12:00	29824	13	-42.4	-79.6	227	5
2023-08-21T12:00	29837	13	-42.1	-79.4	230	4
2023-08-21T12:00	29851	13	-42.0	-79.3	230	4
2023-08-21T12:00	29901	13	-42.0	-79.3	228	3
2023-08-21T12:00	29917	13	-42.0	-79.3	224	2
2023-08-21T12:00	29938	13	-41.9	-79.2	213	2
2023-08-21T12:00	29982	13	-41.8	-79.2	191	1
2023-08-21T12:00	30002	13	-41.6	-79.0	157	1
2023-08-21T12:00	30035	13	-41.6	-80.1	133	2
2023-08-21T12:00	30047	13	-41.5	-80.1	122	3
2023-08-21T12:00	30085	13	-41.5	-80.1	118	3
2023-08-21T12:00	30103	13	-41.5	-80.1	117	4
2023-08-21T12:00	30118	13	-41.6	-80.1	120	4
2023-08-21T12:00	30147	12	-41.5	-80.1	125	4
2023-08-21T12:00	30182	12	-41.3	-79.9	132	4
2023-08-21T12:00	30215	12	-40.9	-79.7	140	4
2023-08-21T12:00	30247	12	-40.5	-79.4	147	4
2023-08-21T12:00	30265	12	-40.5	-79.4	152	4
2023-08-21T12:00	30292	12	-40.6	-79.5	156	3
2023-08-21T12:00	30318	12	-40.7	-79.5	157	3
2023-08-21T12:00	30361	12	-40.8	-79.6	157	2
2023-08-21T12:00	30372	12	-40.8	-79.6	156	2
2023-08-21T12:00	30397	12	-40.7	-79.5	154	1
2023-08-21T12:00	30426	12	-40.6	-79.5	153	1
2023-08-21T12:00	30466	12	-40.6	-79.5	155	1
2023-08-21T12:00	30470	12	-40.7	-79.5	158	2
2023-08-21T12:00	30507	12	-40.6	-79.5	159	2
2023-08-21T12:00	30530	12	-40.7	-79.5	160	3
2023-08-21T12:00	30564	12	-40.8	-79.6	160	4
2023-08-21T12:00	30595	12	-40.9	-79.7	160	5
2023-08-21T12:00	30621	12	-40.9	-79.7	161	5
2023-08-21T12:00	30651	12	-40.9	-79.7	160	6
2023-08-21T12:00	30675	12	-40.8	-79.6	160	6
2023-08-21T12:00	30700	12	-40.6	-79.5	158	6
2023-08-21T12:00	30723	11	-40.4	-79.3	155	5
2023-08-21T12:00	30742	11	-40.3	-79.2	152	5
2023-08-21T12:00	30763	11	-40.2	-79.2	150	4
2023-08-21T12:00	30807	11	-40.2	-79.2	149	4
2023-08-21T12:00	30832	11	-40.0	-79.0	152	3
2023-08-21T12:00	30879	11	-39.8	-78.9	157	3
2023-08-21T12:00	30899	11	-39.6	-78.8	161	3
2023-08-21T12:00	30921	11	-39.5	-78.7	162	3
2023-08-21T12:00	30950	11	-39.5	-78.7	160	4
2023-08-21T12:00	30977	11	-39.6	-78.8	158	4
2023-08-21T12:00	30986	11	-39.5	-78.7	156	5
2023-08-21T12:00	31025	11	-39.5	-78.7	156	5
2023-08-21T12:00	31045	11	-39.5	-78.7	157	6
2023-08-21T12:00	31080	11	-39.4	-78.6	161	6
2023-08-21T12:00	31082	11	-39.2	-78.5	166	6
2023-08-21T12:00	31117	11	-38.9	-78.3	172	6
2023-08-21T12:00	31160	11	-38.8	-78.2	179	6
2023-08-21T12:00	31170	11	-38.8	-78.2	187	6
2023-08-21T12:00	31186	11	-38.6	-78.1	196	6
2023-08-21T12:00	31234	11	-38.3	-77.9	204	6
2023-08-21T12:00	31256	11	-37.9	-77.6	212	7
2023-08-21T12:00	31281	11	-37.7	-77.4	218	7
2023-08-21T12:00	31303	11	-37.5	-77.3	223	7
2023-08-21T12:00	31344	11	-37.3	-77.2	227	7
2023-08-21T12:00	31352	10	-37.1	-77.0	230	7
2023-08-21T12:00	31383	10	-36.8	-76.8	234	7
2023-08-21T12:00	31410	10	-36.6	-76.7	240	6
2023-08-21T12:00	31437	10	-36.5	-76.6	248	6
2023-08-21T12:00	31448	10	-36.5	-76.6	257	6
2023-08-21T12:00	31486	10	-36.4	-76.5	268	6
2023-08-21T12:00	31513	10	-36.4	-76.5	278	6
2023-08-21T12:00	31555	10	-36.1	-76.3	288	6
2023-08-21T12:00	31568	10	-35.8	-76.1	296	5
2023-08-21T12:00	31585	10	-35.6	-76.0	302	5
2023-08-21T12:00	31641	10	-35.2	-75.7	318	3
2023-08-21T12:00	31647	10	-35.1	-75.6	330	2
2023-08-21T12:00	31700	10	-35.0	-75.6	348	2
2023-08-21T12:00	31724	10	-34.8	-75.4	24	2
2023-08-21T12:00	31751	10	-34.8	-75.4	35	2
2023-08-21T12:00	31771	10	-34.8	-75.4	42	2
2023-08-21T12:00	31812	10	-34.8	-75.4	48	2
2023-08-21T12:00	31833	10	-34.8	-75.4	53	2
2023-08-21T12:00	31842	10	-34.8	-75.4	59	2
2023-08-21T12:00	31885	10	-34.8	-75.4	65	2
2023-08-21T12:00	31926	10	-34.9	-75.5	71	2
2023-08-21T12:00	31932	10	-34.9	-75.5	77	2
2023-08-21T12:00	31945	10	-35.0	-75.6	83	2
2023-08-21T12:00	31989	10	-35.0	-75.6	89	2
2023-08-21T12:00	32032	10	-35.1	-75.6	92	2
2023-08-21T12:00	32038	9	-35.2	-75.7	91	2
2023-08-21T12:00	32067	9	-35.2	-75.7	84	2
2023-08-21T12:00	32081	9	-35.3	-75.8	71	2
2023-08-21T12:00	32118	9	-35.3	-75.8	53	2
2023-08-21T12:00	32173	9	-35.3	-75.8	36	2
2023-08-21T12:00	32180	9	-35.2	-75.7	28	2
2023-08-21T12:00	32211	9	-35.1	-75.6	26	2
2023-08-21T12:00	32247	9	-34.8	-75.4	37	2
2023-08-21T12:00	32284	9	-34.5	-75.2	47	2
2023-08-21T12:00	32306	9	-34.4	-75.2	58	1
2023-08-21T12:00	32325	9	-34.3	-75.1	73	1
2023-08-21T12:00	32360	9	-34.3	-75.1	108	0
2023-08-21T12:00	32388	9	-34.3	-75.1	182	1
2023-08-21T12:00	32405	9	-34.4	-75.2	212	1
2023-08-21T12:00	32434	9	-34.5	-75.2	226	1
2023-08-21T12:00	32478	9	-34.6	-75.3	237	2
2023-08-21T12:00	32495	9	-34.6	-75.3	250	2
2023-08-21T12:00	32523	9	-34.6	-75.3	264	2
2023-08-21T12:00	32563	9	-34.6	-75.3	274	1
2023-08-21T12:00	32586	9	-34.4	-75.2	274	1
2023-08-21T12:00	32615	9	-34.2	-75.0	221	0
2023-08-21T18:00	115	1008	24.6	12.8	325	2
2023-08-21T18:00	150	1004	25.1	11.2	328	3
2023-08-21T18:00	177	1001	24.9	11.0	328	4
2023-08-21T18:00	203	998	24.7	11.1	327	4
2023-08-21T18:00	227	995	24.4	10.9	325	5
2023-08-21T18:00	252	993	24.2	10.6	323	5
2023-08-21T18:00	276	990	24.0	10.7	323	5
2023-08-21T18:00	300	987	23.8	10.6	324	5
2023-08-21T18:00	325	985	23.5	10.5	326	5
2023-08-21T18:00	345	982	23.3	10.4	328	5
2023-08-21T18:00	368	980	23.1	10.4	330	5
2023-08-21T18:00	389	977	22.9	10.4	330	5
2023-08-21T18:00	410	975	22.7	10.4	330	5
2023-08-21T18:00	436	972	22.4	10.3	329	5
2023-08-21T18:00	460	969	22.2	10.3	329	5
2023-08-21T18:00	487	966	21.9	10.3	330	5
2023-08-21T18:00	517	963	21.7	10.3	330	5
2023-08-21T18:00	547	960	21.4	10.1	330	5
2023-08-21T18:00	574	957	21.1	10.0	330	5
2023-08-21T18:00	603	953	20.8	10.0	330	5
2023-08-21T18:00	632	950	20.5	9.9	329	5
2023-08-21T18:00	660	947	20.3	9.9	328	5
2023-08-21T18:00	688	944	20.0	9.9	325	5
2023-08-21T18:00	712	941	19.8	9.8	322	5
2023-08-21T18:00	739	938	19.5	9.8	319	4
2023-08-21T18:00	766	935	19.2	9.7	317	4
2023-08-21T18:00	793	933	19.0	9.7	314	4
2023-08-21T18:00	817	930	18.7	9.6	312	4
2023-08-21T18:00	841	927	18.5	9.7	309	4
2023-08-21T18:00	868	924	18.3	9.7	305	4
2023-08-21T18:00	898	921	18.0	9.6	300	4
2023-08-21T18:00	926	918	17.7	9.6	296	3
2023-08-21T18:00	949	916	17.5	9.5	293	4
2023-08-21T18:00	974	913	17.3	9.5	291	4
2023-08-21T18:00	995	911	17.1	9.6	292	4
2023-08-21T18:00	1020	908	16.8	9.5	293	4
2023-08-21T18:00	1045	906	16.6	9.5	293	4
2023-08-21T18:00	1069	903	16.4	9.7	293	4
2023-08-21T18:00	1098	900	16.2	9.7	291	4
2023-08-21T18:00	1124	897	15.9	9.6	289	4
2023-08-21T18:00	1148	895	15.7	9.9	285	4
2023-08-21T18:00	1175	892	15.5	10.0	282	5
2023-08-21T18:00	1205	889	15.3	10.0	278	5
2023-08-21T18:00	1240	885	15.2	10.2	274	6
2023-08-21T18:00	1267	882	15.0		271	7
2023-08-21T18:00	1291	880	14.8	10.2	270	7
2023-08-21T18:00	1322	877	14.8	10.4	270	8
2023-08-21T18:00	1350	874	14.6	10.3	271	8
2023-08-21T18:00	1379	871	14.6	10.4	273	9
2023-08-21T18:00	1408	868	14.5	10.3	275	9
2023-08-21T18:00	1435	865	14.3	10.2	276	9
2023-08-21T18:00	1463	862	14.0	10.0	277	10
2023-08-21T18:00	1494	859	13.7	10.0	278	10
2023-08-21T18:00	1520	856	13.5	10.1	278	10
2023-08-21T18:00	1546	854	13.3	9.9	279	10
2023-08-21T18:00	1572	851	13.1	9.7	280	10
2023-08-21T18:00	1600	848	12.8	9.7	281	10
2023-08-21T18:00	1628	845	12.5	9.6	281	10
2023-08-21T18:00	1658	842	12.3	9.6	282	10
2023-08-21T18:00	1683	840	12.1	9.5	283	10
2023-08-21T18:00	1711	837	11.8	9.3	284	10
2023-08-21T18:00	1739	834	11.6	9.2	285	11
2023-08-21T18:00	1766	831	11.4	9.2	285	11
2023-08-21T18:00	1798	828	11.1	8.8	286	11
2023-08-21T18:00	1829	825	10.9	8.6	286	11
2023-08-21T18:00	1857	822	10.7	8.5	287	12
2023-08-21T18:00	1892	819	10.4	8.1	288	12
2023-08-21T18:00	1917	817	10.2	8.0	289	12
2023-08-21T18:00	1943	814	10.1	7.7	289	12
2023-08-21T18:00	1966	812	10.0	7.7	288	12
2023-08-21T18:00	2000	809	9.7	7.4	287	13
2023-08-21T18:00	2028	806	9.7	7.1	287	13
2023-08-21T18:00	2051	803	9.5	7.2	286	14
2023-08-21T18:00	2079	801	9.3	7.1	286	14
2023-08-21T18:00	2105	798	9.0	7.2	285	14
2023-08-21T18:00	2137	795	8.8	7.3	285	14
2023-08-21T18:00	2166	793	8.6	7.1	285	14
2023-08-21T18:00	2190	790	8.4	7.1	285	15
2023-08-21T18:00	2213	788	8.2	7.1	285	15
2023-08-21T18:00	2237	786	8.0	6.8	284	15
2023-08-21T18:00	2266	783	7.7	6.5	284	15
2023-08-21T18:00	2295	780	7.6	6.2	283	16
2023-08-21T18:00	2318	778	7.5	6.2	281	16
2023-08-21T18:00	2345	776	7.3	5.9	280	16
2023-08-21T18:00	2371	773	7.1	5.8	278	16
2023-08-21T18:00	2399	770	6.9	5.6	276	16
2023-08-21T18:00	2427	768	6.8	5.6	274	17
2023-08-21T18:00	2453	765	6.7	5.3	272	18
2023-08-21T18:00	2484	763	6.7	4.5	272	18
2023-08-21T18:00	2510	760	6.7	4.6	272	18
2023-08-21T18:00	2532	758	6.5	4.6	273	18
2023-08-21T18:00	2555	756	6.4	4.6	274	18
2023-08-21T18:00	2582	754	6.2	4.5	275	18
2023-08-21T18:00	2606	751	6.0	4.4	276	18
2023-08-21T18:00	2629	749	5.8	4.4	277	18
2023-08-21T18:00	2661	746	5.5	4.3	278	18
2023-08-21T18:00	2688	744	5.3	4.1	278	19
2023-08-21T18:00	2710	742	5.1	4.2	279	19
2023-08-21T18:00	2735	740	4.9	3.8	279	19
2023-08-21T18:00	2759	738	4.9	3.3	279	20
2023-08-21T18:00	2778	736	4.8	3.1	279	20
2023-08-21T18:00	2798	734	5.0	2.1	279	20
2023-08-21T18:00	2824	732	5.4	0.7	279	20
2023-08-21T18:00	2847	730	5.7	-3.3	278	19
2023-08-21T18:00	2870	727	5.9	-6.3	278	19
2023-08-21T18:00	2894	725	6.3	-14.2	278	18
2023-08-21T18:00	2919	723	7.0	-20.4	277	18
2023-08-21T18:00	2943	721	7.2	-21.7	277	17
2023-08-21T18:00	2966	719	7.2	-20.6	276	16
2023-08-21T18:00	2989	717	7.2	-21.6	275	15
2023-08-21T18:00	3014	715	7.5	-20.9	273	15
2023-08-21T18:00	3040	712	7.6	-20.1	272	14
2023-08-21T18:00	3070	710	7.5	-19.7	271	14
2023-08-21T18:00	3093	708	7.4	-19.7	271	14
2023-08-21T18:00	3121	706	7.3	-19.4	271	14
2023-08-21T18:00	3145	703	7.1	-18.9	271	14
2023-08-21T18:00	3175	701	6.9	-17.6	271	14
2023-08-21T18:00	3200	699	6.7	-17.3	270	14
2023-08-21T18:00	3227	697	6.4	-17.8	269	14
2023-08-21T18:00	3254	694	6.2	-18.2	267	14
2023-08-21T18:00	3282	692	6.0	-18.4	266	14
2023-08-21T18:00	3307	690	5.9	-18.2	266	14
2023-08-21T18:00	3334	688	5.8	-18.3	266	14
2023-08-21T18:00	3360	685	5.6	-18.8	267	14
2023-08-21T18:00	3387	683	5.5	-20.0	268	15
2023-08-21T18:00	3415	681	5.4	-18.1	269	15
2023-08-21T18:00	3440	679	5.4	-17.0	269	15
2023-08-21T18:00	3469	676	5.3	-16.7	269	16
2023-08-21T18:00	3501	674	5.1	-16.2	270	16
2023-08-21T18:00	3531	671	5.0	-13.8	271	17
2023-08-21T18:00	3560	669	5.1	-18.0	272	18
2023-08-21T18:00	3589	666	5.2	-18.9	272	18
2023-08-21T18:00	3620	664	5.3	-13.5	273	18
2023-08-21T18:00	3654	661	5.7	-34.4	273	18
2023-08-21T18:00	3679	659	5.9	-27.7	272	18
2023-08-21T18:00	3703	657	5.7	-26.7	272	18
2023-08-21T18:00	3730	655	5.5	-23.2	271	18
2023-08-21T18:00	3760	653	5.2	-17.2	271	18
2023-08-21T18:00	3786	650	4.9	-13.1	270	18
2023-08-21T18:00	3815	648	4.7	-12.9	269	18
2023-08-21T18:00	3848	646	4.4	-13.1	268	18
2023-08-21T18:00	3877	643	4.2	-13.6	268	18
2023-08-21T18:00	3906	641	4.1	-14.0	268	18
2023-08-21T18:00	3935	639	4.0	-14.2	268	19
2023-08-21T18:00	3963	636	3.7	-14.3	268	19
2023-08-21T18:00	3997	634	3.5	-14.6	269	20
2023-08-21T18:00	4021	632	3.3	-14.8	269	20
2023-08-21T18:00	4048	630	3.2	-15.0	269	20
2023-08-21T18:00	4071	628	3.0	-15.2	268	20
2023-08-21T18:00	4101	626	2.8	-15.5	268	20
2023-08-21T18:00	4126	624	2.6	-15.7	267	20
2023-08-21T18:00	4152	622	2.4	-15.7	266	20
2023-08-21T18:00	4171	620	2.3	-15.6	265	21
2023-08-21T18:00	4195	618	2.0	-15.7	265	21
2023-08-21T18:00	4229	616	1.8	-15.8	265	21
2023-08-21T18:00	4255	614	1.6	-15.9	265	21
2023-08-21T18:00	4285	612	1.4	-16.1	266	20
2023-08-21T18:00	4312	610	1.2	-16.2	267	20
2023-08-21T18:00	4330	608	1.1	-16.1	268	20
2023-08-21T18:00	4354	606	0.8	-16.3	269	20
2023-08-21T18:00	4382	604	0.6	-16.4	269	20
2023-08-21T18:00	4405	603	0.4	-16.6	269	20
2023-08-21T18:00	4425	601	0.2	-16.8	269	20
2023-08-21T18:00	4451	599	0.0	-17.1	269	21
2023-08-21T18:00	4482	597	-0.2	-17.7	270	21
2023-08-21T18:00	4509	595	-0.4	-18.1	271	21
2023-08-21T18:00	4535	593	-0.5	-19.3	272	21
2023-08-21T18:00	4558	591	-0.5	-20.4	273	21
2023-08-21T18:00	4579	589	-0.7	-20.7	274	20
2023-08-21T18:00	4604	588	-0.9	-20.8	275	20
2023-08-21T18:00	4633	586	-1.1	-21.0	275	20
2023-08-21T18:00	4662	583	-1.2	-21.8	276	20
2023-08-21T18:00	4687	582	-1.2	-22.6	276	20
2023-08-21T18:00	4703	580	-1.3	-23.4	276	20
2023-08-21T18:00	4718	579	-1.4	-22.2	277	20
2023-08-21T18:00	4737	578	-1.5	-20.6	277	20
2023-08-21T18:00	4764	576	-1.7	-21.1	278	20
2023-08-21T18:00	4784	574	-1.8	-21.4	279	20
2023-08-21T18:00	4814	572	-2.0	-22.3	279	20
2023-08-21T18:00	4845	570	-2.0	-24.4	280	20
2023-08-21T18:00	4869	568	-2.1	-24.7	280	20
2023-08-21T18:00	4890	567	-2.0	-25.9	280	20
2023-08-21T18:00	4917	565	-1.9	-28.1	279	21
2023-08-21T18:00	4943	563	-2.0	-29.2	278	21
2023-08-21T18:00	4968	561	-2.0	-29.5	278	21
2023-08-21T18:00	4990	560	-2.1	-30.0	277	21
2023-08-21T18:00	5016	558	-2.2	-30.6	277	21
2023-08-21T18:00	5044	556	-2.4	-30.2	278	22
2023-08-21T18:00	5063	555	-2.5	-30.3	278	21
2023-08-21T18:00	5086	553	-2.6	-30.3	278	21
2023-08-21T18:00	5117	551	-2.6	-29.9	279	21
2023-08-21T18:00	5142	549	-2.7	-30.9	280	21
2023-08-21T18:00	5164	548	-2.7	-32.8	282	21
2023-08-21T18:00	5185	546	-2.8	-33.4	283	20
2023-08-21T18:00	5209	545	-2.9	-33.0	284	20
2023-08-21T18:00	5230	543	-3.0	-32.9	284	20
2023-08-21T18:00	5254	542	-3.2	-33.2	284	20
2023-08-21T18:00	5273	540	-3.4	-33.4	283	20
2023-08-21T18:00	5292	539	-3.6	-33.5	282	20
2023-08-21T18:00	5312	537	-3.7	-33.8	282	20
2023-08-21T18:00	5339	536	-3.8	-33.8	281	20
2023-08-21T18:00	5363	534	-4.0	-34.0	280	20
2023-08-21T18:00	5401	532	-4.3	-33.6	279	20
2023-08-21T18:00	5425	530	-4.5	-33.3	278	19
2023-08-21T18:00	5448	528	-4.6	-33.4	278	19
2023-08-21T18:00	5469	527	-4.7	-33.5	279	19
2023-08-21T18:00	5494	525	-4.8	-33.4	279	19
2023-08-21T18:00	5530	523	-5.1	-33.8	280	20
2023-08-21T18:00	5551	521	-5.2	-33.4	281	20
2023-08-21T18:00	5576	520	-5.4	-34.2	282	20
2023-08-21T18:00	5598	518	-5.6	-35.4	282	21
2023-08-21T18:00	5628	516	-5.8	-35.6	282	21
2023-08-21T18:00	5655	515	-6.0	-35.9	283	21
2023-08-21T18:00	5685	513	-6.2	-35.6	283	21
2023-08-21T18:00	5715	511	-6.4	-35.6	284	20
2023-08-21T18:00	5744	509	-6.6	-35.9	284	20
2023-08-21T18:00	5765	507	-6.7	-35.8	284	20
2023-08-21T18:00	5794	506	-6.9	-29.5	285	20
2023-08-21T18:00	5817	504	-7.1	-29.7	285	20
2023-08-21T18:00	5836	503	-7.3	-29.6	286	20
2023-08-21T18:00	5859	501	-7.5	-30.2	286	20
2023-08-21T18:00	5880	500	-7.7	-30.3	285	20
2023-08-21T18:00	5904	498	-7.9	-30.5	285	20
2023-08-21T18:00	5934	497	-8.2	-30.3	284	20
2023-08-21T18:00	5956	495	-8.4	-30.4	284	20
2023-08-21T18:00	5976	494	-8.6	-30.3	283	20
2023-08-21T18:00	5998	492	-8.8	-30.3	283	20
2023-08-21T18:00	6026	491	-9.1	-29.7	282	20
2023-08-21T18:00	6053	489	-9.3	-30.5	282	20
2023-08-21T18:00	6079	487	-9.3	-34.5	282	20
2023-08-21T18:00	6107	486	-9.5	-35.9	283	20
2023-08-21T18:00	6135	484	-9.7	-33.3	283	20
2023-08-21T18:00	6170	481	-9.9	-33.2	284	20
2023-08-21T18:00	6206	479	-10.2	-34.7	284	20
2023-08-21T18:00	6240	477	-10.5		284	20
2023-08-21T18:00	6264	476	-10.6	-35.4	284	20
2023-08-21T18:00	6286	474	-10.8	-33.8	283	20
2023-08-21T18:00	6316	472	-11.1	-34.9	283	20
2023-08-21T18:00	6348	471	-11.3	-38.9	284	20
2023-08-21T18:00	6376	469	-11.5	-39.6	284	20
2023-08-21T18:00	6405	467	-11.7	-39.3	283	20
2023-08-21T18:00	6432	465	-11.9	-39.2	282	20
2023-08-21T18:00	6464	464	-12.2	-39.0	281	20
2023-08-21T18:00	6491	462	-12.4	-39.3	280	20
2023-08-21T18:00	6523	460	-12.7	-39.5	279	20
2023-08-21T18:00	6556	458	-13.0	-35.6	278	20
2023-08-21T18:00	6594	456	-13.3	-32.9	278	20
2023-08-21T18:00	6636	453	-13.6	-40.4	278	20
2023-08-21T18:00	6666	451	-13.8	-36.1	278	21
2023-08-21T18:00	6699	449	-14.1	-36.3	277	21
2023-08-21T18:00	6724	448	-14.2	-36.2	277	21
2023-08-21T18:00	6749	446	-14.4	-40.6	277	21
2023-08-21T18:00	6774	445	-14.5	-41.6	277	21
2023-08-21T18:00	6808	443	-14.7	-41.6	276	21
2023-08-21T18:00	6832	442	-14.8	-41.4	276	20
2023-08-21T18:00	6854	440	-15.0	-40.9	276	20
2023-08-21T18:00	6877	439	-15.2	-40.0	276	21
2023-08-21T18:00	6911	437	-15.5	-39.2	276	21
2023-08-21T18:00	6942	435	-15.7	-38.8	276	21
2023-08-21T18:00	6968	434	-15.9	-40.9	276	21
2023-08-21T18:00	6999	432	-16.2	-41.4	275	21
2023-08-21T18:00	7034	430	-16.4	-38.7	274	22
2023-08-21T18:00	7072	428	-16.6	-38.1	273	22
2023-08-21T18:00	7099	426	-16.9	-36.6	272	21
2023-08-21T18:00	7128	424	-17.1	-36.3	273	21
2023-08-21T18:00	7161	423	-17.4	-35.0	273	21
2023-08-21T18:00	7191	421	-17.7	-35.4	273	20
2023-08-21T18:00	7226	419	-18.0	-34.4	273	20
2023-08-21T18:00	7259	417	-18.3	-34.5	274	20
2023-08-21T18:00	7293	415	-18.5	-36.7	274	20
2023-08-21T18:00	7328	413	-18.5	-42.9	275	21
2023-08-21T18:00	7361	411	-18.8	-41.0	276	21
2023-08-21T18:00	7395	410	-19.1	-41.3	277	21
2023-08-21T18:00	7420	408	-19.3	-40.9	278	20
2023-08-21T18:00	7457	406	-19.5	-39.4	277	20
2023-08-21T18:00	7486	404	-19.8	-39.5	276	20
2023-08-21T18:00	7521	403	-20.1	-39.3	275	20
2023-08-21T18:00	7551	401	-20.3	-36.1	274	20
2023-08-21T18:00	7579	400	-20.2	-34.3	274	21
2023-08-21T18:00	7611	398	-20.3	-34.0	275	21
2023-08-21T18:00	7646	396	-20.6	-35.0	276	22
2023-08-21T18:00	7682	394	-20.8	-34.3	276	22
2023-08-21T18:00	7707	393	-21.0	-34.3	277	23
2023-08-21T18:00	7734	391	-21.2	-34.3	277	23
2023-08-21T18:00	7761	390	-21.3	-34.6	277	23
2023-08-21T18:00	7792	388	-21.5	-34.6	277	23
2023-08-21T18:00	7816	387	-21.7	-34.7	277	23
2023-08-21T18:00	7845	385	-21.9	-34.7	277	23
2023-08-21T18:00	7874	384	-22.0	-34.5	276	23
2023-08-21T18:00	7907	382	-22.3	-34.3	276	23
2023-08-21T18:00	7936	381	-22.5	-33.6	276	23
2023-08-21T18:00	7971	379	-22.8	-32.9	277	23
2023-08-21T18:00	7996	378	-23.0	-32.7	277	23
2023-08-21T18:00	8022	376	-23.2	-32.8	277	23
2023-08-21T18:00	8053	375	-23.4	-32.8	277	24
2023-08-21T18:00	8089	373	-23.6	-33.2	277	24
2023-08-21T18:00	8120	371	-23.6	-34.1	276	24
2023-08-21T18:00	8152	370	-23.9	-34.2	276	24
2023-08-21T18:00	8183	368	-24.1	-34.3	276	24
2023-08-21T18:00	8207	367	-24.3	-34.4	277	23
2023-08-21T18:00	8233	365	-24.6	-34.5	278	23
2023-08-21T18:00	8263	364	-24.8	-34.6	279	23
2023-08-21T18:00	8295	362	-25.1	-34.9	280	23
2023-08-21T18:00	8324	361	-25.4	-34.9	281	23
2023-08-21T18:00	8354	359	-25.7	-35.0	282	23
2023-08-21T18:00	8390	358	-25.9	-35.2	282	23
2023-08-21T18:00	8411	357	-26.1	-35.2	282	23
2023-08-21T18:00	8439	355	-26.4	-35.3	283	24
2023-08-21T18:00	8469	354	-26.7	-35.4	283	25
2023-08-21T18:00	8503	352	-27.0	-35.7	284	26
2023-08-21T18:00	8534	351	-27.1	-36.5	284	27
2023-08-21T18:00	8556	350	-27.3	-36.5	284	28
2023-08-21T18:00	8575	349	-27.4	-37.2	283	28
2023-08-21T18:00	8596	348	-27.5	-37.5	283	28
2023-08-21T18:00	8622	346	-27.6	-38.0	283	28
2023-08-21T18:00	8651	345	-27.8	-38.4	283	29
2023-08-21T18:00	8674	344	-28.0	-38.5	283	29
2023-08-21T18:00	8700	343	-28.2	-38.9	283	29
2023-08-21T18:00	8729	341	-28.5	-39.2	284	29
2023-08-21T18:00	8757	340	-28.8	-39.4	283	30
2023-08-21T18:00	8787	339	-29.0	-39.5	283	30
2023-08-21T18:00	8810	337	-29.3	-39.6	283	30
2023-08-21T18:00	8836	336	-29.5	-40.0	283	30
2023-08-21T18:00	8859	335	-29.7	-40.2	284	31
2023-08-21T18:00	8887	334	-30.0	-40.7	284	31
2023-08-21T18:00	8913	333	-30.2	-41.1	284	31
2023-08-21T18:00	8936	331	-30.4	-41.4	284	31
2023-08-21T18:00	8958	330	-30.6	-41.6	284	31
2023-08-21T18:00	8983	329	-30.8	-42.5	284	31
2023-08-21T18:00	9007	328	-31.0	-43.6	284	31
2023-08-21T18:00	9029	327	-31.2	-44.1	284	31
2023-08-21T18:00	9054	326	-31.4	-44.4	285	31
2023-08-21T18:00	9080	325	-31.7	-44.4	285	30
2023-08-21T18:00	9117	323	-32.0	-44.6	285	30
2023-08-21T18:00	9143	322	-32.2	-44.9	285	29
2023-08-21T18:00	9164	321	-32.4	-44.9	285	29
2023-08-21T18:00	9187	320	-32.6	-44.7	285	29
2023-08-21T18:00	9215	319	-32.8	-44.7	285	29
2023-08-21T18:00	9242	317	-32.9	-45.2	285	29
2023-08-21T18:00	9263	316	-33.1	-45.3	285	29
2023-08-21T18:00	9286	315	-33.3	-45.3	285	30
2023-08-21T18:00	9309	314	-33.6	-45.4	285	30
2023-08-21T18:00	9329	313	-33.8	-45.4	284	30
2023-08-21T18:00	9351	313	-34.0	-45.3	284	30
2023-08-21T18:00	9375	312	-34.2	-45.2	284	30
2023-08-21T18:00	9395	311	-34.4	-45.0	284	30
2023-08-21T18:00	9419	310	-34.6		284	30
2023-08-21T18:00	9438	309	-34.8	-45.0	284	30
2023-08-21T18:00	9459	308	-35.0	-44.8	284	30
2023-08-21T18:00	9475	307	-35.2	-44.8	284	30
2023-08-21T18:00	9497	306	-35.4	-44.5	283	30
2023-08-21T18:00	9514	305	-35.6	-44.4	283	30
2023-08-21T18:00	9536	304	-35.8	-44.6	283	30
2023-08-21T18:00	9556	304	-36.0	-44.3	283	30
2023-08-21T18:00	9575	303	-36.2	-44.1	283	30
2023-08-21T18:00	9596	302	-36.3	-44.2	283	30
2023-08-21T18:00	9616	301	-36.4	-44.2	283	30
2023-08-21T18:00	9636	300	-36.6	-44.2	283	30
2023-08-21T18:00	9654	299	-36.8	-44.3	283	30
2023-08-21T18:00	9675	298	-37.0	-44.2	284	30
2023-08-21T18:00	9696	297	-37.2	-44.5	284	30
2023-08-21T18:00	9718	296	-37.4	-44.8	285	30
2023-08-21T18:00	9741	295	-37.5	-45.0	285	31
2023-08-21T18:00	9770	294	-37.8	-45.4	286	31
2023-08-21T18:00	9792	293	-37.9	-45.6	286	31
2023-08-21T18:00	9814	292	-38.2	-45.7	286	31
2023-08-21T18:00	9835	291	-38.3	-45.9	286	31
2023-08-21T18:00	9859	291	-38.5	-46.3	286	31
2023-08-21T18:00	9881	289	-38.7	-46.8	286	31
2023-08-21T18:00	9908	288	-38.8	-48.1	285	31
2023-08-21T18:00	9929	287	-38.9	-48.3	285	31
2023-08-21T18:00	9958	286	-39.2	-48.7	285	31
2023-08-21T18:00	9982	285	-39.3	-49.4	285	31
2023-08-21T18:00	10002	284	-39.3	-50.8	286	32
2023-08-21T18:00	10027	283	-39.4	-52.4	286	32
2023-08-21T18:00	10052	282	-39.5	-52.8	287	32
2023-08-21T18:00	10076	281	-39.7	-53.5	288	32
2023-08-21T18:00	10099	280	-39.8	-53.9	289	33
2023-08-21T18:00	10122	280	-40.0	-54.2	289	33
2023-08-21T18:00	10146	279	-40.2	-54.5	290	33
2023-08-21T18:00	10170	278	-40.4	-55.0	290	33
2023-08-21T18:00	10196	276	-40.5	-55.7	290	33
2023-08-21T18:00	10225	275	-40.7	-56.2	290	33
2023-08-21T18:00	10255	274	-40.9	-56.7	290	32
2023-08-21T18:00	10283	273	-41.1	-56.9	290	32
2023-08-21T18:00	10313	272	-41.3	-56.5	291	32
2023-08-21T18:00	10340	271	-41.5	-56.7	291	32
2023-08-21T18:00	10368	270	-41.8	-57.5	291	32
2023-08-21T18:00	10394	269	-41.9		291	32
2023-08-21T18:00	10425	267	-42.3	-57.7	291	32
2023-08-21T18:00	10454	266	-42.5	-57.6	291	32
2023-08-21T18:00	10479	265	-42.7	-57.7	291	32
2023-08-21T18:00	10506	264	-42.9	-57.7	291	32
2023-08-21T18:00	10533	263	-43.1	-57.9	291	32
2023-08-21T18:00	10561	262	-43.3	-57.7	291	32
2023-08-21T18:00	10586	261	-43.6	-57.5	291	33
2023-08-21T18:00	10614	260	-43.8	-57.3	292	33
2023-08-21T18:00	10642	259	-44.1	-57.5	292	33
2023-08-21T18:00	10668	258	-44.3	-57.9	292	33
2023-08-21T18:00	10698	257	-44.5	-58.4	292	32
2023-08-21T18:00	10724	256	-44.7	-58.9	291	32
2023-08-21T18:00	10753	255	-44.8	-59.2	291	31
2023-08-21T18:00	10779	254	-45.0	-59.4	291	31
2023-08-21T18:00	10806	253	-45.3	-59.7	291	31
2023-08-21T18:00	10832	252	-45.5	-59.7	291	30
2023-08-21T18:00	10855	251	-45.7	-59.7	291	30
2023-08-21T18:00	10880	250	-46.0	-59.9	292	30
2023-08-21T18:00	10906	249	-46.2	-60.1	292	30
2023-08-21T18:00	10935	248	-46.5	-60.4	292	30
2023-08-21T18:00	10967	247	-46.8	-60.8	292	30
2023-08-21T18:00	10994	246	-47.0	-61.0	292	30
2023-08-21T18:00	11022	245	-47.2	-61.5	291	30
2023-08-21T18:00	11049	244	-47.3	-62.3	290	30
2023-08-21T18:00	11074	243	-47.5	-62.5	289	31
2023-08-21T18:00	11107	241	-47.7	-62.6	288	30
2023-08-21T18:00	11134	240	-47.8	-62.6	287	30
2023-08-21T18:00	11162	239	-48.1	-62.6	287	30
2023-08-21T18:00	11191	238	-48.3	-62.7	287	30
2023-08-21T18:00	11218	237	-48.5	-62.7	287	30
2023-08-21T18:00	11246	236	-48.8	-62.8	287	29
2023-08-21T18:00	11275	235	-49.1	-62.8	287	29
2023-08-21T18:00	11303	234	-49.3	-62.6	287	29
2023-08-21T18:00	11331	233	-49.6	-62.7	286	29
2023-08-21T18:00	11356	232	-49.8	-62.8	286	29
2023-08-21T18:00	11387	231	-50.1	-62.7	286	29
2023-08-21T18:00	11414	230	-50.3	-62.5	286	28
2023-08-21T18:00	11441	229	-50.6	-62.4	286	28
2023-08-21T18:00	11465	229	-50.9	-62.3	286	28
2023-08-21T18:00	11493	228	-51.1	-62.4	286	28
2023-08-21T18:00	11521	227	-51.4	-62.6	287	28
2023-08-21T18:00	11547	226	-51.6	-62.7	287	27
2023-08-21T18:00	11572	225	-51.8	-62.5	288	27
2023-08-21T18:00	11603	224	-52.2	-62.6	288	27
2023-08-21T18:00	11631	223	-52.4	-62.7	288	27
2023-08-21T18:00	11657	222	-52.6	-62.7	287	27
2023-08-21T18:00	11680	221	-52.9	-62.9	287	27
2023-08-21T18:00	11707	220	-53.2	-63.2	287	27
2023-08-21T18:00	11738	219	-53.3	-63.2	287	26
2023-08-21T18:00	11764	218	-53.5	-63.2	288	26
2023-08-21T18:00	11793	217	-53.6	-63.4	289	27
2023-08-21T18:00	11819	216	-53.8	-64.1	289	27
2023-08-21T18:00	11843	216	-53.9	-64.6	290	27
2023-08-21T18:00	11864	215	-54.1	-65.1	290	28
2023-08-21T18:00	11891	214	-54.3	-65.3	290	28
2023-08-21T18:00	11912	213	-54.5	-65.3	290	28
2023-08-21T18:00	11937	212	-54.7	-65.3	290	28
2023-08-21T18:00	11960	212	-55.0	-65.3	290	29
2023-08-21T18:00	11985	211	-55.2	-65.3	291	29
2023-08-21T18:00	12007	210	-55.4	-65.2	291	29
2023-08-21T18:00	12027	209	-55.6	-65.1	292	29
2023-08-21T18:00	12049	209	-55.9	-65.1	292	29
2023-08-21T18:00	12070	208	-56.0	-64.8	293	29
2023-08-21T18:00	12091	207	-56.2	-64.7	294	29
2023-08-21T18:00	12112	207	-56.1	-64.5	294	29
2023-08-21T18:00	12135	206	-56.2	-64.5	294	29
2023-08-21T18:00	12157	205	-56.3	-64.6	294	29
2023-08-21T18:00	12177	205	-56.5	-64.8	294	29
2023-08-21T18:00	12200	204	-56.7	-64.8	293	29
2023-08-21T18:00	12222	203	-56.9	-64.8	293	29
2023-08-21T18:00	12245	202	-57.1	-64.9	293	29
2023-08-21T18:00	12266	202	-57.2	-65.1	292	29
2023-08-21T18:00	12287	201	-57.4	-65.7	292	29
2023-08-21T18:00	12309	200	-57.5	-66.3	292	29
2023-08-21T18:00	12329	200	-57.6	-66.6	291	29
2023-08-21T18:00	12351	199	-57.8	-66.6	291	29
2023-08-21T18:00	12373	198	-58.0	-66.5	291	29
2023-08-21T18:00	12395	198	-58.2	-66.6	291	29
2023-08-21T18:00	12416	197	-58.2	-67.1	292	29
2023-08-21T18:00	12439	196	-58.0	-67.7	292	30
2023-08-21T18:00	12462	196	-58.0	-68.2	293	30
2023-08-21T18:00	12482	195	-58.1	-68.4	293	29
2023-08-21T18:00	12504	194	-58.2	-68.3	293	29
2023-08-21T18:00	12528	194	-58.3	-68.2	292	28
2023-08-21T18:00	12550	193	-58.1	-68.0	291	27
2023-08-21T18:00	12576	192	-57.9	-68.1	289	27
2023-08-21T18:00	12596	191	-57.5	-68.2	288	26
2023-08-21T18:00	12618	191	-57.6	-68.7	287	26
2023-08-21T18:00	12644	190	-57.7	-68.9	286	26
2023-08-21T18:00	12664	189	-57.8	-68.9	285	26
2023-08-21T18:00	12684	189	-57.9	-69.0	283	26
2023-08-21T18:00	12708	188	-58.0	-69.1	282	26
2023-08-21T18:00	12730	187	-58.2	-69.2	281	27
2023-08-21T18:00	12751	187	-58.2	-69.2	281	27
2023-08-21T18:00	12772	186	-58.3	-69.3	280	27
2023-08-21T18:00	12794	185	-58.3	-69.4	280	27
2023-08-21T18:00	12819	185	-58.4	-69.6	279	27
2023-08-21T18:00	12842	184	-58.5	-69.7	279	27
2023-08-21T18:00	12864	183	-58.7	-70.0	278	27
2023-08-21T18:00	12886	183	-58.7	-70.1	277	28
2023-08-21T18:00	12910	182	-58.8	-70.3	277	28
2023-08-21T18:00	12933	181	-59.0	-70.5	277	28
2023-08-21T18:00	12955	181	-59.2	-70.6	277	28
2023-08-21T18:00	12978	180	-59.4	-70.6	277	29
2023-08-21T18:00	13000	179	-59.6	-70.7	278	29
2023-08-21T18:00	13021	179	-59.7	-70.7	278	29
2023-08-21T18:00	13044	178	-59.9	-71.0	278	29
2023-08-21T18:00	13066	178	-60.0	-71.2	278	29
2023-08-21T18:00	13087	177	-59.9	-71.3	278	30
2023-08-21T18:00	13108	176	-59.9	-71.4	278	30
2023-08-21T18:00	13130	176	-60.1	-71.5	278	30
2023-08-21T18:00	13149	175	-60.1	-71.5	278	30
2023-08-21T18:00	13171	175	-60.0	-71.5	278	30
2023-08-21T18:00	13193	174	-59.9	-71.7	278	29
2023-08-21T18:00	13214	173	-59.6	-72.2	277	29
2023-08-21T18:00	13235	173	-59.2	-72.8	277	29
2023-08-21T18:00	13257	172	-59.0	-73.5	277	29
2023-08-21T18:00	13275	172	-58.8	-73.9	277	30
2023-08-21T18:00	13297	171	-58.9	-74.2	277	30
2023-08-21T18:00	13317	171	-59.0	-74.3	278	30
2023-08-21T18:00	13338	170	-59.1	-74.2	278	30
2023-08-21T18:00	13358	170	-59.3	-74.1	278	30
2023-08-21T18:00	13378	169	-59.4	-73.9	279	30
2023-08-21T18:00	13400	168	-59.6	-74.0	279	29
2023-08-21T18:00	13418	168	-59.5	-74.1	280	29
2023-08-21T18:00	13440	167	-59.3	-74.3	280	28
2023-08-21T18:00	13457	167	-59.1	-74.9	280	27
2023-08-21T18:00	13478	166	-59.0	-75.7	279	27
2023-08-21T18:00	13497	166	-58.9	-76.6	279	27
2023-08-21T18:00	13521	165	-58.7	-77.1	278	27
2023-08-21T18:00	13544	165	-58.4	-77.2	278	27
2023-08-21T18:00	13564	164	-58.5	-77.3	277	27
2023-08-21T18:00	13587	163	-58.6	-77.3	276	27
2023-08-21T18:00	13606	163	-58.7	-77.2	275	27
2023-08-21T18:00	13628	162	-58.9	-77.2	275	27
2023-08-21T18:00	13648	162	-59.0	-77.3	275	27
2023-08-21T18:00	13670	161	-58.9	-77.3	275	27
2023-08-21T18:00	13691	161	-58.4	-77.0	275	26
2023-08-21T18:00	13712	160	-58.4	-77.1	275	26
2023-08-21T18:00	13734	160	-58.5	-77.4	276	25
2023-08-21T18:00	13757	159	-58.5	-77.7	275	25
2023-08-21T18:00	13778	159	-58.5	-78.2	275	24
2023-08-21T18:00	13801	158	-58.4	-78.6	275	24
2023-08-21T18:00	13825	157	-58.4		275	24
2023-08-21T18:00	13844	157	-58.6	-79.4	274	24
2023-08-21T18:00	13865	156	-58.5	-79.4	274	24
2023-08-21T18:00	13885	156	-58.4	-79.3	274	24
2023-08-21T18:00	13907	155	-58.6	-79.2	274	24
2023-08-21T18:00	13928	155	-58.6	-79.2	274	24
2023-08-21T18:00	13950	154	-58.5	-79.1	274	24
2023-08-21T18:00	13971	154	-58.4	-79.3	274	24
2023-08-21T18:00	13992	153	-58.3	-79.5	273	24
2023-08-21T18:00	14012	153	-58.2	-79.5	272	24
2023-08-21T18:00	14036	152	-57.9	-79.6	272	24
2023-08-21T18:00	14057	152	-57.8	-79.6	271	24
2023-08-21T18:00	14078	151	-57.9	-79.9	270	24
2023-08-21T18:00	14097	151	-58.0	-80.0	270	24
2023-08-21T18:00	14121	150	-58.2	-80.0	270	24
2023-08-21T18:00	14143	150	-58.3	-79.9	271	24
2023-08-21T18:00	14167	149	-58.5	-79.9	271	24
2023-08-21T18:00	14188	149	-58.7	-80.1	272	24
2023-08-21T18:00	14209	148	-58.8		273	24
2023-08-21T18:00	14230	148	-58.9	-80.2	274	24
2023-08-21T18:00	14254	147	-58.8	-80.3	275	24
2023-08-21T18:00	14275	147	-58.7	-80.5	277	24
2023-08-21T18:00	14295	146	-58.5	-80.7	278	24
2023-08-21T18:00	14316	146	-58.2	-80.8	279	24
2023-08-21T18:00	14337	145	-58.2	-81.0	280	24
2023-08-21T18:00	14357	145	-58.2	-81.1	281	24
2023-08-21T18:00	14382	144	-58.2	-81.3	281	24
2023-08-21T18:00	14402	144	-58.1	-81.4	282	23
2023-08-21T18:00	14426	143	-58.1	-81.6	282	23
2023-08-21T18:00	14452	142	-58.2	-81.7	282	22
2023-08-21T18:00	14471	142	-58.3	-81.8	282	22
2023-08-21T18:00	14495	141	-58.1	-81.8	281	22
2023-08-21T18:00	14515	141	-57.9	-81.9	280	22
2023-08-21T18:00	14538	141	-57.9	-81.9	279	22
2023-08-21T18:00	14560	140	-58.0	-82.2	277	21
2023-08-21T18:00	14580	140	-57.9	-82.1	276	21
2023-08-21T18:00	14602	139	-57.9	-82.1	276	21
2023-08-21T18:00	14624	139	-57.9	-82.1	276	21
2023-08-21T18:00	14645	138	-58.0	-82.4	276	21
2023-08-21T18:00	14666	138	-57.8	-82.2	277	21
2023-08-21T18:00	14687	137	-57.8	-82.5	278	21
2023-08-21T18:00	14709	137	-57.8	-82.7	279	21
2023-08-21T18:00	14730	136	-56.9	-82.5	279	21
2023-08-21T18:00	14751	136	-56.3	-82.3	280	21
2023-08-21T18:00	14771	135	-56.4	-82.4	280	22
2023-08-21T18:00	14794	135	-56.4	-82.4	280	22
2023-08-21T18:00	14815	134	-56.4	-82.4	280	22
2023-08-21T18:00	14836	134	-56.5	-82.2	280	22
2023-08-21T18:00	14856	134	-56.7	-82.4	280	22
2023-08-21T18:00	14878	133	-56.8	-82.2	281	22
2023-08-21T18:00	14900	133	-56.9	-82.3	282	22
2023-08-21T18:00	14920	132	-57.0	-82.3	283	22
2023-08-21T18:00	14942	132	-57.0	-82.3	284	22
2023-08-21T18:00	14968	131	-56.9	-82.5	285	21
2023-08-21T18:00	15000	131	-56.6	-82.3	287	20
2023-08-21T18:00	15024	130	-56.6	-82.3	288	20
2023-08-21T18:00	15056	129	-56.8	-82.5	288	19
2023-08-21T18:00	15082	129	-56.9	-82.3	289	18
2023-08-21T18:00	15104	128	-57.1	-82.4	289	18
2023-08-21T18:00	15128	128	-57.3	-82.3	289	17
2023-08-21T18:00	15151	128	-57.5	-82.5	288	16
2023-08-21T18:00	15174	127	-57.6	-82.6	286	15
2023-08-21T18:00	15199	127	-57.8	-82.7	283	14
2023-08-21T18:00	15227	126	-57.9	-82.8	279	13
2023-08-21T18:00	15248	126	-58.0	-82.9	274	13
2023-08-21T18:00	15270	125	-57.4	-82.7	270	12
2023-08-21T18:00	15290	125	-57.3	-82.8	267	12
2023-08-21T18:00	15311	124	-57.2	-82.8	265	12
2023-08-21T18:00	15335	124	-57.0	-82.9	263	12
2023-08-21T18:00	15356	123	-56.8	-82.7	262	13
2023-08-21T18:00	15379	123	-56.7	-82.7	260	13
2023-08-21T18:00	15400	123	-56.6	-82.6	257	13
2023-08-21T18:00	15422	122	-56.8	-82.7	254	13
2023-08-21T18:00	15445	122	-57.0	-82.9	251	13
2023-08-21T18:00	15467	121	-57.1	-83.0	249	13
2023-08-21T18:00	15491	121	-57.0	-82.9	249	13
2023-08-21T18:00	15511	120	-57.1	-83.0	249	13
2023-08-21T18:00	15533	120	-57.2	-83.0	251	12
2023-08-21T18:00	15557	120	-57.4	-83.2	253	12
2023-08-21T18:00	15580	119	-57.3	-82.8	257	12
2023-08-21T18:00	15603	119	-57.4	-82.9	260	12
2023-08-21T18:00	15625	118	-57.6	-83.1	264	12
2023-08-21T18:00	15647	118	-57.7	-83.2	268	12
2023-08-21T18:00	15670	117	-57.8	-83.5	272	12
2023-08-21T18:00	15689	117	-57.8	-83.5	275	12
2023-08-21T18:00	15707	117	-57.4	-83.5	277	12
2023-08-21T18:00	15733	116	-57.1	-83.5	279	12
2023-08-21T18:00	15753	116	-57.2	-83.6	281	12
2023-08-21T18:00	15774	116	-57.1	-83.9	283	11
2023-08-21T18:00	15798	115	-56.9	-83.7	287	11
2023-08-21T18:00	15821	115	-57.0	-83.8	291	10
2023-08-21T18:00	15843	114	-57.0	-83.8	295	9
2023-08-21T18:00	15869	114	-56.9	-83.7	297	9
2023-08-21T18:00	15890	113	-56.7	-83.6	299	9
2023-08-21T18:00	15914	113	-56.7	-83.6	300	9
2023-08-21T18:00	15935	113	-56.8	-83.3	299	8
2023-08-21T18:00	15957	112	-57.1	-83.5	299	8
2023-08-21T18:00	15978	112	-57.2	-83.6	298	8
2023-08-21T18:00	16002	111	-57.3	-83.4	298	8
2023-08-21T18:00	16024	111	-57.5	-83.6	297	7
2023-08-21T18:00	16047	111	-57.6	-83.6	297	7
2023-08-21T18:00	16069	110	-57.7	-83.4	295	6
2023-08-21T18:00	16092	110	-57.9	-83.6	293	6
2023-08-21T18:00	16113	110	-58.1	-83.7	290	6
2023-08-21T18:00	16139	109	-58.2	-83.8	285	5
2023-08-21T18:00	16161	109	-58.4	-83.7	281	5
2023-08-21T18:00	16185	108	-58.6	-83.9	277	5
2023-08-21T18:00	16210	108	-58.7	-83.9	275	5
2023-08-21T18:00	16232	107	-58.8	-84.0	273	6
2023-08-21T18:00	16256	107	-59.0	-83.9	271	6
2023-08-21T18:00	16279	107	-59.2	-84.1	269	6
2023-08-21T18:00	16300	106	-59.4	-84.0	266	6
2023-08-21T18:00	16324	106	-59.6	-84.1	262	7
2023-08-21T18:00	16348	106	-59.8	-84.3	258	7
2023-08-21T18:00	16372	105	-59.8	-84.3	255	8
2023-08-21T18:00	16394	105	-59.9	-84.4	252	9
2023-08-21T18:00	16420	104	-60.0	-84.4	251	10
2023-08-21T18:00	16442	104	-59.9	-84.4	251	11
2023-08-21T18:00	16467	104	-60.0	-84.4	252	12
2023-08-21T18:00	16487	103	-60.0	-84.4	253	12
2023-08-21T18:00	16510	103	-60.0	-84.4	255	12
2023-08-21T18:00	16536	102	-60.1	-84.5	257	12
2023-08-21T18:00	16557	102	-60.2	-84.6	261	13
2023-08-21T18:00	16581	102	-60.3	-84.7	264	13
2023-08-21T18:00	16605	101	-60.3	-84.7	267	13
2023-08-21T18:00	16627	101	-60.3	-84.9	270	13
2023-08-21T18:00	16654	100	-60.0	-84.7	272	13
2023-08-21T18:00	16677	100	-59.6	-84.6	273	13
2023-08-21T18:00	16699	100	-58.9	-84.4	274	13
2023-08-21T18:00	16725	99	-58.6	-84.4	274	12
2023-08-21T18:00	16748	99	-58.7	-84.5	275	12
2023-08-21T18:00	16773	99	-58.9	-84.6	275	11
2023-08-21T18:00	16794	98	-58.9	-84.6	276	11
2023-08-21T18:00	16818	98	-59.0	-84.7	275	10
2023-08-21T18:00	16840	98	-59.0	-84.7	274	10
2023-08-21T18:00	16862	97	-59.0	-84.7	271	10
2023-08-21T18:00	16886	97	-58.6	-84.7	267	9
2023-08-21T18:00	16909	96	-58.4	-84.9	263	9
2023-08-21T18:00	16933	96	-58.3	-84.8	259	10
2023-08-21T18:00	16958	96	-58.2	-84.7	258	10
2023-08-21T18:00	16983	95	-58.2	-84.7	257	11
2023-08-21T18:00	17006	95	-58.3	-84.8	258	12
2023-08-21T18:00	17026	95	-58.4	-84.9	259	12
2023-08-21T18:00	17052	94	-58.6	-85.0	261	13
2023-08-21T18:00	17075	94	-58.7	-85.1	264	13
2023-08-21T18:00	17098	94	-58.8	-85.2	267	13
2023-08-21T18:00	17121	93	-58.5	-84.9	271	13
2023-08-21T18:00	17144	93	-58.6	-85.0	275	13
2023-08-21T18:00	17168	93	-58.5	-84.9	278	13
2023-08-21T18:00	17191	92	-58.5	-84.9	282	13
2023-08-21T18:00	17213	92	-58.5	-84.9	284	13
2023-08-21T18:00	17240	92	-58.6	-85.4	287	12
2023-08-21T18:00	17259	91	-58.6	-85.4	288	12
2023-08-21T18:00	17284	91	-58.6	-85.4	288	11
2023-08-21T18:00	17308	91	-58.3	-85.5	286	10
2023-08-21T18:00	17335	90	-57.8	-85.1	282	9
2023-08-21T18:00	17358	90	-57.8	-85.1	276	9
2023-08-21T18:00	17383	89	-57.8	-85.5	271	9
2023-08-21T18:00	17407	89	-57.8	-85.5	266	9
2023-08-21T18:00	17429	89	-57.5	-85.2	264	9
2023-08-21T18:00	17456	88	-57.2	-85.0	264	10
2023-08-21T18:00	17475	88	-57.2	-85.0	265	10
2023-08-21T18:00	17501	88	-57.4	-85.2	267	10
2023-08-21T18:00	17526	87	-57.4	-85.2	270	10
2023-08-21T18:00	17548	87	-57.4	-85.2	273	10
2023-08-21T18:00	17573	87	-57.4	-85.2	277	10
2023-08-21T18:00	17595	86	-57.5	-85.2	280	10
2023-08-21T18:00	17618	86	-57.6	-85.3	282	10
2023-08-21T18:00	17641	86	-57.7	-85.0	284	9
2023-08-21T18:00	17665	86	-57.8	-85.1	286	8
2023-08-21T18:00	17689	85	-57.8	-85.5	287	8
2023-08-21T18:00	17714	85	-57.9	-85.5	288	7
2023-08-21T18:00	17736	85	-57.9	-85.5	288	6
2023-08-21T18:00	17761	84	-57.8	-85.5	287	6
2023-08-21T18:00	17784	84	-57.7	-85.4	285	6
2023-08-21T18:00	17810	84	-57.4	-85.2	283	6
2023-08-21T18:00	17832	83	-57.3	-85.5	280	6
2023-08-21T18:00	17854	83	-57.4	-85.2	276	6
2023-08-21T18:00	17880	83	-57.5	-85.2	273	6
2023-08-21T18:00	17905	82	-57.6	-85.3	270	7
2023-08-21T18:00	17928	82	-57.9	-85.2	268	7
2023-08-21T18:00	17952	82	-58.0	-85.2	267	8
2023-08-21T18:00	17974	81	-58.2	-85.4	267	8
2023-08-21T18:00	18000	81	-58.3	-85.5	268	8
2023-08-21T18:00	18021	81	-58.5	-85.6	269	8
2023-08-21T18:00	18045	81	-58.5	-85.6	271	8
2023-08-21T18:00	18071	80	-58.4	-85.5	273	8
2023-08-21T18:00	18094	80	-58.4	-85.5	274	8
2023-08-21T18:00	18116	80	-58.4	-85.5	276	8
2023-08-21T18:00	18139	79	-58.5	-86.0	276	7
2023-08-21T18:00	18165	79	-58.5	-86.0	276	7
2023-08-21T18:00	18188	79	-58.4	-85.9	276	6
2023-08-21T18:00	18211	78	-58.4	-85.9	276	6
2023-08-21T18:00	18234	78	-58.5	-86.0	277	6
2023-08-21T18:00	18257	78	-58.5	-86.0	278	6
2023-08-21T18:00	18282	78	-58.3	-85.8	279	6
2023-08-21T18:00	18304	77	-58.3	-86.2	279	6
2023-08-21T18:00	18326	77	-58.0	-86.0	279	6
2023-08-21T18:00	18349	77	-57.8	-85.9	278	6
2023-08-21T18:00	18371	76	-57.8	-85.9	279	6
2023-08-21T18:00	18399	76	-57.9		280	6
2023-08-21T18:00	18421	76	-58.1	-85.7	282	6
2023-08-21T18:00	18446	76	-58.2	-85.8	283	6
2023-08-21T18:00	18470	75	-58.3	-85.8	282	6
2023-08-21T18:00	18493	75	-58.2	-85.8	280	6
2023-08-21T18:00	18519	75	-58.1	-85.7	276	5
2023-08-21T18:00	18542	74	-58.0	-85.6	274	5
2023-08-21T18:00	18566	74	-58.2	-85.8	273	5
2023-08-21T18:00	18592	74	-58.2	-86.2	275	5
2023-08-21T18:00	18613	74	-58.0	-86.0	279	5
2023-08-21T18:00	18637	73	-58.0	-86.0	285	5
2023-08-21T18:00	18663	73	-58.3	-86.2	293	5
2023-08-21T18:00	18685	73	-58.3	-86.2	300	4
2023-08-21T18:00	18708	72	-58.2	-86.2	307	4
2023-08-21T18:00	18732	72	-58.0	-86.0	313	4
2023-08-21T18:00	18758	72	-58.2	-86.2	316	4
2023-08-21T18:00	18778	72	-57.9	-86.4	314	3
2023-08-21T18:00	18803	71	-57.3	-85.9	306	2
2023-08-21T18:00	18828	71	-57.4	-86.0	286	2
2023-08-21T18:00	18854	71	-57.5	-86.1	258	2
2023-08-21T18:00	18877	71	-57.5	-86.1	238	3
2023-08-21T18:00	18904	70	-57.5	-86.1	229	3
2023-08-21T18:00	18928	70	-57.5	-86.1	225	4
2023-08-21T18:00	18952	70	-57.6	-85.7	225	5
2023-08-21T18:00	18978	69	-57.7	-85.8	227	6
2023-08-21T18:00	19002	69	-57.9		230	6
2023-08-21T18:00	19029	69	-57.9	-86.4	234	7
2023-08-21T18:00	19053	69	-57.6	-86.1	238	7
2023-08-21T18:00	19075	68	-57.2	-85.8	242	7
2023-08-21T18:00	19103	68	-57.0	-85.7	246	7
2023-08-21T18:00	19128	68	-57.1	-85.7	250	7
2023-08-21T18:00	19149	68	-57.2	-85.8	254	7
2023-08-21T18:00	19176	67	-57.4	-86.0	259	7
2023-08-21T18:00	19201	67	-57.5	-86.1	266	7
2023-08-21T18:00	19227	67	-57.5	-86.1	273	6
2023-08-21T18:00	19252	67	-57.6	-85.7	281	6
2023-08-21T18:00	19275	66	-57.8	-85.9	290	6
2023-08-21T18:00	19299	66	-57.9	-86.4	299	6
2023-08-21T18:00	19325	66	-57.7	-86.2	308	6
2023-08-21T18:00	19352	65	-57.4	-86.0	317	5
2023-08-21T18:00	19374	65	-57.2	-86.3	326	5
2023-08-21T18:00	19400	65	-57.0	-86.1	334	4
2023-08-21T18:00	19426	65	-57.1	-86.2	340	4
2023-08-21T18:00	19451	64	-57.2	-85.8	345	3
2023-08-21T18:00	19474	64	-57.1	-85.7	348	3
2023-08-21T18:00	19493	64	-57.2	-85.8	349	2
2023-08-21T18:00	19519	64	-57.2	-85.8	345	1
2023-08-21T18:00	19541	64	-57.1	-85.7	329	1
2023-08-21T18:00	19568	63	-57.2	-85.8	283	1
2023-08-21T18:00	19595	63	-57.2	-85.8	254	1
2023-08-21T18:00	19618	63	-57.3	-85.9	252	1
2023-08-21T18:00	19643	63	-57.3	-85.9	258	2
2023-08-21T18:00	19666	62	-57.4	-86.0	266	3
2023-08-21T18:00	19688	62	-57.3	-85.9	271	3
2023-08-21T18:00	19711	62	-57.2	-86.3	274	4
2023-08-21T18:00	19737	62	-56.9	-86.1	275	4
2023-08-21T18:00	19760	61	-56.7	-85.9	276	4
2023-08-21T18:00	19787	61	-56.6	-85.8	280	4
2023-08-21T18:00	19807	61	-56.6	-85.8	286	4
2023-08-21T18:00	19830	61	-56.4	-86.2	296	3
2023-08-21T18:00	19854	60	-56.2	-86.0	307	3
2023-08-21T18:00	19877	60	-56.1	-86.0	320	3
2023-08-21T18:00	19899	60	-55.9	-85.8	332	3
2023-08-21T18:00	19924	60	-55.9	-85.8	345	3
2023-08-21T18:00	19948	60	-55.7	-85.7	358	3
2023-08-21T18:00	19972	59	-55.8	-85.7	10	3
2023-08-21T18:00	19993	59	-55.8	-85.7	22	3
2023-08-21T18:00	20016	59	-55.9	-85.8	33	3
2023-08-21T18:00	20042	59	-55.7	-85.2	46	3
2023-08-21T18:00	20069	58	-55.8	-85.2	61	2
2023-08-21T18:00	20093	58	-55.9	-85.3	81	2
2023-08-21T18:00	20120	58	-55.9	-85.3	106	2
2023-08-21T18:00	20149	58	-56.0		129	2
2023-08-21T18:00	20173	58	-56.2	-85.5	146	3
2023-08-21T18:00	20199	57	-56.4	-85.2	157	3
2023-08-21T18:00	20225	57	-56.5	-85.3	165	4
2023-08-21T18:00	20251	57	-56.7	-85.4	172	4
2023-08-21T18:00	20275	57	-56.8	-85.5	178	4
2023-08-21T18:00	20303	56	-56.8	-85.5	185	4
2023-08-21T18:00	20326	56	-56.8	-85.5	192	4
2023-08-21T18:00	20347	56	-56.7	-85.9	201	3
2023-08-21T18:00	20376	56	-56.7	-85.9	213	3
2023-08-21T18:00	20402	55	-56.7	-85.9	230	2
2023-08-21T18:00	20429	55	-56.6	-85.8	251	2
2023-08-21T18:00	20452	55	-56.6	-85.8	270	2
2023-08-21T18:00	20484	55	-56.6	-85.8	282	1
2023-08-21T18:00	20505	55	-56.7	-85.9	284	1
2023-08-21T18:00	20533	54	-56.5	-85.8	271	1
2023-08-21T18:00	20555	54	-56.3	-85.6	246	1
2023-08-21T18:00	20581	54	-56.2	-85.5	230	1
2023-08-21T18:00	20607	54	-56.1	-85.5	229	2
2023-08-21T18:00	20629	54	-56.2	-85.5	234	2
2023-08-21T18:00	20654	53	-56.3	-85.6	242	3
2023-08-21T18:00	20679	53	-56.3	-85.6	250	3
2023-08-21T18:00	20702	53	-56.4	-85.7	258	3
2023-08-21T18:00	20729	53	-56.2	-85.5	266	4
2023-08-21T18:00	20750	53	-56.2	-85.5	273	4
2023-08-21T18:00	20777	52	-56.1	-85.5	279	4
2023-08-21T18:00	20800	52	-56.1	-85.5	285	4
2023-08-21T18:00	20828	52	-56.0		293	4
2023-08-21T18:00	20850	52	-55.9	-85.3	303	3
2023-08-21T18:00	20875	51	-56.0		315	3
2023-08-21T18:00	20904	51	-56.0	-85.9	326	4
2023-08-21T18:00	20927	51	-55.8	-85.7	336	4
2023-08-21T18:00	20952	51	-55.7	-85.7	344	4
2023-08-21T18:00	20976	51	-55.7	-85.7	350	4
2023-08-21T18:00	21004	50	-55.7	-85.7	355	4
2023-08-21T18:00	21028	50	-55.7	-85.7	2	4
2023-08-21T18:00	21052	50	-55.5	-85.5	11	3
2023-08-21T18:00	21078	50	-55.4	-85.4	22	3
2023-08-21T18:00	21107	50	-55.4	-85.4	35	2
2023-08-21T18:00	21131	49	-55.3	-85.4	46	2
2023-08-21T18:00	21156	49	-55.4	-85.4	48	2
2023-08-21T18:00	21182	49	-55.4	-85.4	40	2
2023-08-21T18:00	21204	49	-55.3	-85.4	30	2
2023-08-21T18:00	21230	49	-55.3	-85.4	24	3
2023-08-21T18:00	21256	49	-55.1	-85.2	22	3
2023-08-21T18:00	21278	48	-55.1	-85.2	22	4
2023-08-21T18:00	21306	48	-55.1	-85.2	24	4
2023-08-21T18:00	21328	48	-55.1	-85.2	26	4
2023-08-21T18:00	21354	48	-55.1	-85.2	29	4
2023-08-21T18:00	21378	48	-55.2	-85.3	34	4
2023-08-21T18:00	21403	47	-55.2	-85.3	40	3
2023-08-21T18:00	21426	47	-55.2	-85.3	48	3
2023-08-21T18:00	21450	47	-55.3	-84.9	58	2
2023-08-21T18:00	21473	47	-55.5	-85.0	69	2
2023-08-21T18:00	21503	47	-55.6	-85.1	80	1
2023-08-21T18:00	21532	46	-55.8	-85.2	83	1
2023-08-21T18:00	21553	46	-55.8	-85.2	72	1
2023-08-21T18:00	21580	46	-55.8	-85.2	47	1
2023-08-21T18:00	21600	46	-55.7	-85.2	32	1
2023-08-21T18:00	21628	46	-55.8	-85.2	30	2
2023-08-21T18:00	21654	46	-55.7	-85.2	34	2
2023-08-21T18:00	21678	45	-55.6	-85.6	42	2
2023-08-21T18:00	21701	45	-55.6	-85.6	51	2
2023-08-21T18:00	21731	45	-55.5	-85.5	60	2
2023-08-21T18:00	21758	45	-55.5	-85.5	66	2
2023-08-21T18:00	21781	45	-55.4	-85.4	69	3
2023-08-21T18:00	21807	44	-55.4	-85.4	69	3
2023-08-21T18:00	21836	44	-55.4	-85.4	67	3
2023-08-21T18:00	21860	44	-55.3	-85.4	65	4
2023-08-21T18:00	21885	44	-55.2	-85.3	64	4
2023-08-21T18:00	21912	44	-55.1	-85.2	64	4
2023-08-21T18:00	21935	44	-55.1	-85.2	66	4
2023-08-21T18:00	21961	43	-55.0	-85.1	69	5
2023-08-21T18:00	21995	43	-55.0	-85.1	75	5
2023-08-21T18:00	22016	43	-55.0	-85.1	80	5
2023-08-21T18:00	22042	43	-55.1	-85.2	85	5
2023-08-21T18:00	22067	43	-55.1	-85.2	89	5
2023-08-21T18:00	22095	43	-55.2	-85.3	92	5
2023-08-21T18:00	22125	42	-55.3	-85.4	95	5
2023-08-21T18:00	22148	42	-55.4	-85.4	97	4
2023-08-21T18:00	22170	42	-55.4	-85.4	100	4
2023-08-21T18:00	22199	42	-55.3	-85.4	102	4
2023-08-21T18:00	22225	42	-55.2	-85.3	104	4
2023-08-21T18:00	22252	42	-55.2	-85.3	104	4
2023-08-21T18:00	22282	41	-55.2	-85.3	103	3
2023-08-21T18:00	22310	41	-55.1	-85.2	100	3
2023-08-21T18:00	22333	41	-54.9	-85.1	96	4
2023-08-21T18:00	22362	41	-54.9	-85.1	92	4
2023-08-21T18:00	22384	41	-54.9	-85.1	89	4
2023-08-21T18:00	22416	40	-55.1	-85.2	88	4
2023-08-21T18:00	22437	40	-55.0	-85.1	89	4
2023-08-21T18:00	22470	40	-55.1	-85.2	90	3
2023-08-21T18:00	22498	40	-55.3	-85.4	92	3
2023-08-21T18:00	22520	40	-55.4	-85.4	93	2
2023-08-21T18:00	22549	40	-55.3	-85.4	92	2
2023-08-21T18:00	22578	39	-55.2	-85.3	91	1
2023-08-21T18:00	22606	39	-55.3	-85.4	87	1
2023-08-21T18:00	22630	39	-55.3	-85.4	81	1
2023-08-21T18:00	22660	39	-55.3	-85.4	77	0
2023-08-21T18:00	22685	39	-55.3	-85.4	81	0
2023-08-21T18:00	22711	39	-55.4	-85.4	85	1
2023-08-21T18:00	22737	38	-55.2	-85.3	85	1
2023-08-21T18:00	22761	38	-55.3	-85.4	81	1
2023-08-21T18:00	22793	38	-55.4	-85.4	75	2
2023-08-21T18:00	22814	38	-55.5	-85.5	68	2
2023-08-21T18:00	22847	38	-55.4	-85.4	62	2
2023-08-21T18:00	22870	38	-55.3	-85.4	58	2
2023-08-21T18:00	22898	38	-55.3	-85.4	58	3
2023-08-21T18:00	22927	37	-55.3	-85.4	59	3
2023-08-21T18:00	22950	37	-55.2	-85.3	61	3
2023-08-21T18:00	22977	37	-55.0	-85.1	62	4
2023-08-21T18:00	23001	37	-54.9	-85.1	63	4
2023-08-21T18:00	23034	37	-54.8	-85.0	64	4
2023-08-21T18:00	23057	37	-54.8	-85.0	66	4
2023-08-21T18:00	23085	36	-54.7	-84.9	68	5
2023-08-21T18:00	23108	36	-54.8	-85.0	71	5
2023-08-21T18:00	23136	36	-54.9	-85.1	73	5
2023-08-21T18:00	23165	36	-55.0	-85.1	73	4
2023-08-21T18:00	23193	36	-55.0	-85.1	71	4
2023-08-21T18:00	23223	36	-55.1	-85.2	68	4
2023-08-21T18:00	23249	36	-55.2	-85.3	64	4
2023-08-21T18:00	23272	35	-55.3	-85.4	61	4
2023-08-21T18:00	23301	35	-55.2	-85.3	58	5
2023-08-21T18:00	23329	35	-54.9	-85.1	56	5
2023-08-21T18:00	23355	35	-54.7	-85.5	54	5
2023-08-21T18:00	23382	35	-54.6	-85.4	54	5
2023-08-21T18:00	23409	35	-54.6	-85.4	55	5
2023-08-21T18:00	23434	34	-54.7	-85.5	58	5
2023-08-21T18:00	23464	34	-54.6	-85.4	62	5
2023-08-21T18:00	23491	34	-54.6	-85.4	69	5
2023-08-21T18:00	23519	34	-54.5	-85.3	77	5
2023-08-21T18:00	23546	34	-54.5	-85.3	86	5
2023-08-21T18:00	23576	34	-54.5	-85.3	95	5
2023-08-21T18:00	23604	34	-54.5	-85.3	102	6
2023-08-21T18:00	23631	33	-54.5	-85.3	106	6
2023-08-21T18:00	23658	33	-54.6	-85.4	109	6
2023-08-21T18:00	23688	33	-54.6	-85.4	110	7
2023-08-21T18:00	23717	33	-54.7	-85.5	111	6
2023-08-21T18:00	23744	33	-54.6	-85.4	109	6
2023-08-21T18:00	23772	33	-54.6	-85.4	107	5
2023-08-21T18:00	23802	33	-54.6	-85.4	103	5
2023-08-21T18:00	23830	32	-54.5	-85.3	98	4
2023-08-21T18:00	23863	32	-54.5	-85.3	93	4
2023-08-21T18:00	23886	32	-54.5	-85.3	88	3
2023-08-21T18:00	23915	32	-54.6	-85.4	84	3
2023-08-21T18:00	23943	32	-54.6	-85.4	81	2
2023-08-21T18:00	23968	32	-54.6	-85.4	79	2
2023-08-21T18:00	24000	32	-54.6	-85.4	76	2
2023-08-21T18:00	24032	31	-54.6	-85.4	74	2
2023-08-21T18:00	24056	31	-54.5	-85.3	73	2
2023-08-21T18:00	24082	31	-54.5	-85.3	75	2
2023-08-21T18:00	24112	31	-54.5	-85.3	77	2
2023-08-21T18:00	24143	31	-54.5	-85.3	80	2
2023-08-21T18:00	24167	31	-54.6	-85.4	84	2
2023-08-21T18:00	24196	31	-54.7	-85.5	85	2
2023-08-21T18:00	24225	30	-54.8	-85.5	86	2
2023-08-21T18:00	24253	30	-54.7	-84.9	84	2
2023-08-21T18:00	24276	30	-54.6	-85.4	79	2
2023-08-21T18:00	24304	30	-54.6	-85.4	73	2
2023-08-21T18:00	24331	30	-54.7	-85.5	67	2
2023-08-21T18:00	24354	30	-54.7	-85.5	68	2
2023-08-21T18:00	24385	30	-54.8	-85.5	75	2
2023-08-21T18:00	24412	30	-54.8	-85.5	85	2
2023-08-21T18:00	24438	29	-54.8	-85.0	92	2
2023-08-21T18:00	24467	29	-54.9	-85.1	98	3
2023-08-21T18:00	24493	29	-54.8	-85.5	101	3
2023-08-21T18:00	24520	29	-54.8	-85.5	104	3
2023-08-21T18:00	24546	29	-54.8	-85.5	104	3
2023-08-21T18:00	24569	29	-54.7	-85.5	102	3
2023-08-21T18:00	24599	29	-54.6	-85.4	96	3
2023-08-21T18:00	24621	29	-54.2	-85.1	85	3
2023-08-21T18:00	24643	29	-54.1	-85.6	71	3
2023-08-21T18:00	24675	28	-53.8	-85.4	57	3
2023-08-21T18:00	24705	28	-53.6	-85.3	47	3
2023-08-21T18:00	24723	28	-53.3	-85.0	41	4
2023-08-21T18:00	24752	28	-52.7	-85.3	37	4
2023-08-21T18:00	24780	28	-52.5	-85.1	34	5
2023-08-21T18:00	24808	28	-52.3	-85.0	30	5
2023-08-21T18:00	24835	28	-52.2	-84.9	25	5
2023-08-21T18:00	24851	28	-52.2	-84.2	21	5
2023-08-21T18:00	24886	28	-52.1	-84.2	16	5
2023-08-21T18:00	24911	27	-52.1	-84.2	13	5
2023-08-21T18:00	24939	27	-52.0	-84.1	12	5
2023-08-21T18:00	24965	27	-51.9	-84.0	12	5
2023-08-21T18:00	24988	27	-52.0	-84.1	13	4
2023-08-21T18:00	25028	27	-52.1	-84.2	15	5
2023-08-21T18:00	25052	27	-52.2	-84.2	19	5
2023-08-21T18:00	25080	27	-52.2	-84.2	22	5
2023-08-21T18:00	25107	27	-52.1	-84.2	25	5
2023-08-21T18:00	25138	26	-52.0	-84.1	27	6
2023-08-21T18:00	25163	26	-52.1	-84.2	28	6
2023-08-21T18:00	25188	26	-52.1	-84.2	29	6
2023-08-21T18:00	25222	26	-52.1	-84.2	31	5
2023-08-21T18:00	25251	26	-52.1	-84.2	34	5
2023-08-21T18:00	25283	26	-52.2	-84.2	40	4
2023-08-21T18:00	25311	26	-52.3	-84.3	50	4
2023-08-21T18:00	25331	26	-52.3	-84.3	62	4
2023-08-21T18:00	25360	26	-52.4	-84.4	74	4
2023-08-21T18:00	25398	25	-52.4	-84.4	84	3
2023-08-21T18:00	25432	25	-52.2	-84.2	91	3
2023-08-21T18:00	25455	25	-52.0	-84.1	93	3
2023-08-21T18:00	25484	25	-51.8	-83.9	88	2
2023-08-21T18:00	25509	25	-51.9	-84.0	75	2
2023-08-21T18:00	25540	25	-52.0	-84.1	53	2
2023-08-21T18:00	25567	25	-51.9	-84.0	34	3
2023-08-21T18:00	25596	25	-51.9	-84.0	23	3
2023-08-21T18:00	25630	25	-51.9	-84.0	18	4
2023-08-21T18:00	25652	24	-51.8	-83.9	17	5
2023-08-21T18:00	25681	24	-51.7	-83.9	19	6
2023-08-21T18:00	25716	24	-51.5	-84.4	23	6
2023-08-21T18:00	25742	24	-51.2	-84.2	28	7
2023-08-21T18:00	25770	24	-51.1	-84.1	33	7
2023-08-21T18:00	25797	24	-51.0	-84.0	38	7
2023-08-21T18:00	25820	24	-51.0	-84.0	42	7
2023-08-21T18:00	25855	24	-50.9	-84.0	45	7
2023-08-21T18:00	25880	24	-50.8	-83.9	47	7
2023-08-21T18:00	25909	23	-50.5	-83.7	50	6
2023-08-21T18:00	25929	23	-50.4	-83.6	52	5
2023-08-21T18:00	25968	23	-50.4	-83.6	56	5
2023-08-21T18:00	25999	23	-50.3	-83.5	62	5
2023-08-21T18:00	26024	23	-50.2	-83.5	68	5
2023-08-21T18:00	26046	23	-50.0	-83.3	73	5
2023-08-21T18:00	26071	23	-49.9	-83.2	77	5
2023-08-21T18:00	26104	23	-49.8	-83.2	79	5
2023-08-21T18:00	26129	23	-49.8	-83.2	80	5
2023-08-21T18:00	26151	23	-49.6	-83.0	80	5
2023-08-21T18:00	26184	23	-49.5	-82.9	81	6
2023-08-21T18:00	26205	22	-49.4	-82.9	82	6
2023-08-21T18:00	26238	22	-49.3	-82.8	85	6
2023-08-21T18:00	26264	22	-49.3	-82.8	89	5
2023-08-21T18:00	26291	22	-49.2	-82.7	95	5
2023-08-21T18:00	26316	22	-49.3	-82.8	102	5
2023-08-21T18:00	26339	22	-49.3	-82.8	108	5
2023-08-21T18:00	26367	22	-49.3	-82.8	114	4
2023-08-21T18:00	26391	22	-49.2	-82.7	119	4
2023-08-21T18:00	26416	22	-49.1	-83.4	122	4
2023-08-21T18:00	26450	22	-48.8	-83.2	125	3
2023-08-21T18:00	26477	22	-48.7	-83.2	127	3
2023-08-21T18:00	26503	21	-48.6	-83.1	128	3
2023-08-21T18:00	26533	21	-48.5	-83.0	126	3
2023-08-21T18:00	26560	21	-48.5	-83.0	122	2
2023-08-21T18:00	26588	21	-48.4	-82.9	113	2
2023-08-21T18:00	26612	21	-48.3	-82.9	102	2
2023-08-21T18:00	26634	21	-48.2	-82.8	88	2
2023-08-21T18:00	26664	21	-48.0	-82.7	70	2
2023-08-21T18:00	26687	21	-47.8	-82.5	50	2
2023-08-21T18:00	26713	21	-47.7	-82.4	31	2
2023-08-21T18:00	26753	21	-47.8	-82.5	20	2
2023-08-21T18:00	26772	21	-47.7	-82.4	15	3
2023-08-21T18:00	26805	21	-47.7	-82.4	12	3
2023-08-21T18:00	26826	20	-47.8	-82.5	11	4
2023-08-21T18:00	26866	20	-47.8	-82.5	11	4
2023-08-21T18:00	26892	20	-47.7	-82.4	11	4
2023-08-21T18:00	26919	20	-47.6	-82.4	11	4
2023-08-21T18:00	26949	20	-47.5	-82.3	11	4
2023-08-21T18:00	26979	20	-47.4	-82.2	11	4
2023-08-21T18:00	26997	20	-47.2	-82.1	10	4
2023-08-21T18:00	27038	20	-47.2	-82.1	9	4
2023-08-21T18:00	27071	20	-47.2	-82.1	10	4
2023-08-21T18:00	27101	20	-47.3	-82.2	13	4
2023-08-21T18:00	27124	20	-47.3	-82.2	18	4
2023-08-21T18:00	27156	19	-47.3	-82.2	24	4
2023-08-21T18:00	27190	19	-47.4	-82.2	30	4
2023-08-21T18:00	27219	19	-47.3	-82.2	35	4
2023-08-21T18:00	27245	19	-47.2	-82.1	39	3
2023-08-21T18:00	27272	19	-47.0	-81.9	41	3
2023-08-21T18:00	27307	19	-46.9	-81.9	41	3
2023-08-21T18:00	27335	19	-46.9	-81.9	39	3
2023-08-21T18:00	27371	19	-46.9	-81.9	34	2
2023-08-21T18:00	27396	19	-46.7	-81.7	28	2
2023-08-21T18:00	27428	19	-46.7	-81.7	23	2
2023-08-21T18:00	27457	19	-46.6	-82.6	21	2
2023-08-21T18:00	27485	19	-46.4	-82.4	24	2
2023-08-21T18:00	27517	18	-46.3	-82.4	31	2
2023-08-21T18:00	27539	18	-46.4	-82.4	38	3
2023-08-21T18:00	27569	18	-46.4	-81.5	44	4
2023-08-21T18:00	27599	18	-46.3	-81.4	48	4
2023-08-21T18:00	27641	18	-46.5	-81.6	51	5
2023-08-21T18:00	27657	18	-46.6	-81.7	54	6
2023-08-21T18:00	27690	18	-46.7	-81.7	57	6
2023-08-21T18:00	27724	18	-46.7	-81.7	60	7
2023-08-21T18:00	27752	18	-46.6	-81.7	64	7
2023-08-21T18:00	27778	18	-46.7	-81.7	67	7
2023-08-21T18:00	27803	18	-46.8	-81.8	71	6
2023-08-21T18:00	27839	18	-46.7	-81.7	75	6
2023-08-21T18:00	27858	17	-46.5	-81.6	79	5
2023-08-21T18:00	27888	17	-46.4	-82.4	82	4
2023-08-21T18:00	27921	17	-46.3	-82.4	82	3
2023-08-21T18:00	27936	17	-46.1	-82.2	79	2
2023-08-21T18:00	27967	17	-46.1	-82.2	66	2
2023-08-21T18:00	27995	17	-46.1	-82.2	43	2
2023-08-21T18:00	28029	17	-46.1	-82.2	25	2
2023-08-21T18:00	28054	17	-46.1	-82.2	17	3
2023-08-21T18:00	28087	17	-45.8	-82.0	16	3
2023-08-21T18:00	28110	17	-45.4	-81.7	19	4
2023-08-21T18:00	28140	17	-45.2	-81.6	24	5
2023-08-21T18:00	28173	17	-45.1	-81.5	29	5
2023-08-21T18:00	28189	17	-44.9	-81.4	33	6
2023-08-21T18:00	28230	17	-44.8	-81.3	36	6
2023-08-21T18:00	28248	16	-44.8	-81.3	37	6
2023-08-21T18:00	28277	16	-44.7	-81.2	37	6
2023-08-21T18:00	28296	16	-44.6	-81.2	36	6
2023-08-21T18:00	28337	16	-44.6	-81.2	37	5
2023-08-21T18:00	28358	16	-44.5	-81.1	40	5
2023-08-21T18:00	28394	16	-44.5	-81.1	44	5
2023-08-21T18:00	28417	16	-44.4	-81.0	49	5
2023-08-21T18:00	28459	16	-44.3	-80.9	54	5
2023-08-21T18:00	28479	16	-44.2	-80.9	56	5
2023-08-21T18:00	28511	16	-44.2	-80.9	57	5
2023-08-21T18:00	28524	16	-44.1	-80.8	57	5
2023-08-21T18:00	28565	16	-44.1	-80.8	58	5
2023-08-21T18:00	28590	16	-44.2	-80.9	61	5
2023-08-21T18:00	28626	16	-44.2	-80.9	65	5
2023-08-21T18:00	28660	16	-44.2	-80.9	68	5
2023-08-21T18:00	28686	15	-44.2	-80.9	71	5
2023-08-21T18:00	28707	15	-44.1	-80.8	71	5
2023-08-21T18:00	28745	15	-44.0	-80.7	68	4
2023-08-21T18:00	28774	15	-44.0	-80.7	63	4
2023-08-21T18:00	28804	15	-44.0	-80.7	54	3
2023-08-21T18:00	28825	15	-44.1	-80.8	42	3
2023-08-21T18:00	28863	15	-44.1	-80.8	23	2
2023-08-21T18:00	28891	15	-44.1	-80.8	3	2
2023-08-21T18:00	28924	15	-44.1	-80.8	347	3
2023-08-21T18:00	28948	15	-44.1	-80.8	340	3
2023-08-21T18:00	28982	15	-44.1	-80.8	339	3
2023-08-21T18:00	29022	15	-43.9	-80.7	342	3
2023-08-21T18:00	29040	15	-43.8	-81.7	349	3
2023-08-21T18:00	29069	15	-43.5	-81.5	359	4
2023-08-21T18:00	29099	15	-43.4	-81.4	9	4
2023-08-21T18:00	29141	14	-43.4	-81.4	17	4
2023-08-21T18:00	29160	14	-43.3	-81.3	24	4
2023-08-21T18:00	29205	14	-43.4	-81.4	31	4
2023-08-21T18:00	29234	14	-43.2	-81.3	37	4
2023-08-21T18:00	29253	14	-43.2	-81.3	44	4
2023-08-21T18:00	29288	14	-43.2	-81.3	52	3
2023-08-21T18:00	29325	14	-43.2	-81.3	58	3
2023-08-21T18:00	29345	14	-43.3	-81.3	62	3
2023-08-21T18:00	29378	14	-43.4	-81.4	63	3
2023-08-21T18:00	29409	14	-43.4	-81.4	61	2
2023-08-21T18:00	29438	14	-43.3	-81.3	55	2
2023-08-21T18:00	29475	14	-43.2	-81.3	43	2
2023-08-21T18:00	29508	14	-43.0	-81.1	23	1
2023-08-21T18:00	29527	14	-42.8	-81.0	3	2
2023-08-21T18:00	29570	14	-42.7	-80.9	352	2
2023-08-21T18:00	29602	14	-42.7	-80.9	350	3
2023-08-21T18:00	29622	13	-42.5	-80.8	351	4
2023-08-21T18:00	29666	13	-41.9	-80.4	354	5
2023-08-21T18:00	29688	13	-41.7	-80.2	358	5
2023-08-21T18:00	29719	13	-41.7	-80.2	3	6
2023-08-21T18:00	29755	13	-41.6	-80.1	9	7
2023-08-21T18:00	29781	13	-41.6	-80.1	16	7
2023-08-21T18:00	29808	13	-41.6	-80.1	24	8
2023-08-21T18:00	29839	13	-41.5	-80.1	31	9
2023-08-21T18:00	29870	13	-41.5	-80.1	37	9
2023-08-21T18:00	29910	13	-41.3	-79.9	42	10
2023-08-21T18:00	29928	13	-41.4	-80.0	46	10
2023-08-21T18:00	29967	13	-41.3	-79.9	51	10
2023-08-21T18:00	29986	13	-41.3	-79.9	55	10
2023-08-21T18:00	30028	13	-41.2	-79.9	59	10
2023-08-21T18:00	30045	13	-41.1	-79.8	64	10
2023-08-21T18:00	30087	13	-41.1	-79.8	69	9
2023-08-21T18:00	30115	13	-41.2	-79.9	74	8
2023-08-21T18:00	30140	12	-41.3	-79.9	79	8
2023-08-21T18:00	30167	12	-41.3	-79.9	84	7
2023-08-21T18:00	30194	12	-41.5	-80.1	89	6
2023-08-21T18:00	30226	12	-41.6	-80.1	91	6
2023-08-21T18:00	30249	12	-41.6	-80.1	93	5
2023-08-21T18:00	30286	12	-41.7	-80.2	93	5
2023-08-21T18:00	30318	12	-41.8	-80.3	93	5
2023-08-21T18:00	30338	12	-41.8	-80.3	90	4
2023-08-21T18:00	30362	12	-41.7	-80.2	86	4
2023-08-21T18:00	30406	12	-41.3	-79.9	79	4
2023-08-21T18:00	30431	12	-41.0	-79.7	73	4
2023-08-21T18:00	30460	12	-40.9	-79.7	69	5
2023-08-21T18:00	30500	12	-40.7	-79.5	67	6
2023-08-21T18:00	30518	12	-40.6	-79.5	68	6
2023-08-21T18:00	30551	12	-40.6	-79.5	71	6
2023-08-21T18:00	30584	12	-40.6	-79.5	75	7
2023-08-21T18:00	30611	12	-40.6	-79.5	78	6
2023-08-21T18:00	30636	12	-40.6	-79.5	78	6
2023-08-21T18:00	30655	12	-40.5	-79.4	75	6
2023-08-21T18:00	30707	11	-40.5	-79.4	70	6
2023-08-21T18:00	30739	11	-40.4	-79.3	63	6
2023-08-21T18:00	30761	11	-40.3	-79.2	57	6
2023-08-21T18:00	30782	11	-40.1	-79.1	53	6
2023-08-21T18:00	30819	11	-39.8	-78.9	53	7
2023-08-21T18:00	30834	11	-39.5	-78.7	55	7
2023-08-21T18:00	30873	11	-39.4	-78.6	58	6
2023-08-21T18:00	30901	11	-39.2	-78.5	63	6
2023-08-21T18:00	30934	11	-39.0	-78.3	66	6
2023-08-21T18:00	30961	11	-39.1	-78.4	69	6
2023-08-21T18:00	30994	11	-38.9	-78.3	70	6
2023-08-21T18:00	31016	11	-38.9	-78.3	71	7
2023-08-21T18:00	31051	11	-38.9	-78.3	71	7
2023-08-21T18:00	31078	11	-39.0	-78.3	72	7
2023-08-21T18:00	31112	11	-39.0	-78.3	73	7
2023-08-21T18:00	31146	11	-39.0	-78.3	75	7
2023-08-21T18:00	31156	11	-38.8	-78.2	76	7
2023-08-21T18:00	31213	11	-38.8	-78.2	78	6
2023-08-21T18:00	31234	11	-38.9	-78.3	78	6
2023-08-21T18:00	31258	11	-39.0	-78.3	77	6
2023-08-21T18:00	31295	11	-39.1	-78.4	75	5
2023-08-21T18:00	31310	10	-39.1	-78.4	72	5
2023-08-21T18:00	31367	10	-39.1	-78.4	69	5
2023-08-21T18:00	31382	10	-39.1	-78.4	67	6
2023-08-21T18:00	31408	10	-39.1	-78.4	65	6
2023-08-21T18:00	31447	10	-39.3	-78.5	63	6
2023-08-21T18:00	31467	10	-39.3	-78.5	60	6
2023-08-21T18:00	31488	10	-39.3	-78.5	57	6
2023-08-21T18:00	31532	10	-39.2	-78.5	55	6
2023-08-21T18:00	31548	10	-39.3	-78.5	54	6
2023-08-21T18:00	31606	10	-39.2	-78.5	54	7
2023-08-21T18:00	31636	10	-39.3	-78.5	53	7
2023-08-21T18:00	31640	10	-39.4	-78.6	52	8
2023-08-21T18:00	31687	10	-39.5	-78.7	50	9
2023-08-21T18:00	31706	10	-39.5	-78.7	49	10
2023-08-21T18:00	31746	10	-39.6	-78.8	49	10
2023-08-21T18:00	31773	10	-39.8	-78.9	50	11
2023-08-21T18:00	31816	10	-39.7	-78.8	52	11
2023-08-21T18:00	31836	10	-39.6	-78.8	54	11
2023-08-21T18:00	31883	10	-39.5	-78.7	57	12
2023-08-21T18:00	31912	10	-39.6	-78.8	59	12
2023-08-21T18:00	31939	10	-39.8	-78.9	61	12
2023-08-21T18:00	31963	10	-39.9	-79.0	63	13
2023-08-21T18:00	32004	10	-40.2	-79.2	65	13
2023-08-21T18:00	32028	9	-40.3	-79.2	67	14
2023-08-21T18:00	32061	9	-40.4	-79.3	69	14
2023-08-21T18:00	32098	9	-40.5	-79.4	71	15
2023-08-21T18:00	32124	9	-40.6	-79.5	73	15
2023-08-21T18:00	32154	9	-40.8	-79.6	76	15
2023-08-21T18:00	32181	9	-40.9	-79.7	78	15
2023-08-21T18:00	32199	9	-40.9	-79.7	81	15
2023-08-21T18:00	32237	9	-41.0	-79.7	84	15
2023-08-21T18:00	32263	9	-41.0	-79.7	88	14
2023-08-21T18:00	32305	9	-40.8	-79.6	91	14
2023-08-21T18:00	32333	9	-40.7	-79.5	95	13
2023-08-21T18:00	32353	9	-40.5	-79.4	98	12
2023-08-21T18:00	32378	9	-40.6	-79.5	101	11
2023-08-21T18:00	32416	9	-40.7	-79.5	104	10
2023-08-21T18:00	32455	9	-40.6	-79.5	108	9
2023-08-21T18:00	32476	9	-40.6	-79.5	111	8
2023-08-21T18:00	32491	9	-40.6	-79.5	114	7
2023-08-21T18:00	32507	9	-40.6	-79.5	118	6
2023-08-21T18:00	32554	9	-40.5	-79.4	121	5
2023-08-21T18:00	32578	9	-40.4	-79.3	124	4
2023-08-21T18:00	32608	9	-40.4	-79.3	123	4
2023-08-21T18:00	32637	9	-40.3	-79.2	120	4
2023-08-21T18:00	32686	9	-40.1	-79.1	113	4
2023-08-21T18:00	32717	9	-39.9	-79.0	107	4
2023-08-21T18:00	32751	9	-39.5	-78.7	101	4
2023-08-21T18:00	32763	9	-39.1	-78.4	98	5
2023-08-21T18:00	32791	8	-38.8	-78.2	96	5
2023-08-21T18:00	32810	8	-38.5	-78.0	93	5
2023-08-21T18:00	32849	8	-38.4	-77.9	91	5
2023-08-21T18:00	32877	8	-38.4	-77.9	87	5
2023-08-21T18:00	32904	8	-38.4	-77.9	82	5
2023-08-21T18:00	32932	8	-38.4	-77.9	77	5
2023-08-21T18:00	32956	8	-38.3	-77.9	72	5
2023-08-21T18:00	32992	8	-38.0	-77.6	68	5
2023-08-21T18:00	33013	8	-38.0	-77.6	67	5
2023-08-21T18:00	33047	8	-37.7	-77.4	66	5
2023-08-21T18:00	33068	8	-37.6	-77.4	66	6
2023-08-21T18:00	33094	8	-37.6	-77.4	66	6
2023-08-21T18:00	33107	8	-37.4	-77.2	66	6
2023-08-21T18:00	33162	8	-37.2	-77.1	66	6
2023-08-21T18:00	33177	8	-37.0	-77.0	68	5
2023-08-21T18:00	33209	8	-36.9	-76.9	72	5
2023-08-21T18:00	33239	8	-36.9	-76.9	77	4
2023-08-21T18:00	33263	8	-37.0	-77.0	82	4
2023-08-21T18:00	33274	8	-36.9	-76.9	84	3
2023-08-21T18:00	33318	8	-36.7	-76.7	79	3
2023-08-21T18:00	33364	8	-36.5	-76.6	69	3
2023-08-21T18:00	33400	8	-36.0	-76.3	54	4
2023-08-21T18:00	33448	8	-35.8	-76.1	51	4
2023-08-21T18:00	33461	8	-35.7	-76.1	52	4
2023-08-21T18:00	33510	8	-35.6	-76.0	54	5
2023-08-21T18:00	33516	8	-35.6	-76.0	56	5
2023-08-21T18:00	33555	8	-35.6	-76.0	57	5
2023-08-21T18:00	33570	8	-35.5	-75.9	57	6
2023-08-21T18:00	33607	8	-35.5	-75.9	56	6
2023-08-21T18:00	33639	8	-35.6	-76.0	55	6
2023-08-21T18:00	33653	7	-35.6	-76.0	55	6
2023-08-21T18:00	33704	7	-35.6	-76.0	54	6
2023-08-21T18:00	33735	7	-35.7	-76.1	55	5
2023-08-21T18:00	33756	7	-35.8	-76.1	57	5
2023-08-21T18:00	33806	7	-35.8	-76.1	66	4
2023-08-21T18:00	33836	7	-35.9	-76.2	73	3
2023-08-21T18:00	33857	7	-35.8	-76.1	83	3
2023-08-21T18:00	33880	7	-35.5	-75.9	98	2
2023-08-21T18:00	33909	7	-35.3	-75.8	124	2
2023-08-21T18:00	33934	7	-35.2	-75.7	158	2
2023-08-21T18:00	33970	7	-35.0	-75.6	182	2
2023-08-21T18:00	33977	7	-34.7	-75.4	193	2
2023-08-21T18:00	34023	7	-34.5	-75.2	198	2
2023-08-21T18:00	34060	7	-34.1	-75.0	199	2
2023-08-21T18:00	34076	7	-33.7	-74.7	196	2
2023-08-21T18:00	34087	7	-33.6	-74.6	189	1
2023-08-22T00:00	-999					
2023-08-22T00:00	129	1006	19.3	14.2	68	2
2023-08-22T00:00	150	1004	19.6	13.8	72	4
2023-08-22T00:00	174	1001	20.2	13.7	75	5
2023-08-22T00:00	199	998	20.3	13.7	77	5
2023-08-22T00:00	223	996	20.3	13.8	78	6
2023-08-22T00:00	251	993	20.5	13.5	79	7
2023-08-22T00:00	272	990	20.6	13.1	79	7
2023-08-22T00:00	292	988	20.5	12.9	78	7
2023-08-22T00:00	315	985	20.5	12.5	75	6
2023-08-22T00:00	342	982	20.6	11.5	71	6
2023-08-22T00:00	363	979	20.6	11.0	67	5
2023-08-22T00:00	390	977	20.5	10.7	63	4
2023-08-22T00:00	414	974	20.3	10.6	57	4
2023-08-22T00:00	435	971	20.3	10.5	50	3
2023-08-22T00:00	464	968	20.2	10.5	39	3
2023-08-22T00:00	487	966	20.2	10.7	24	2
2023-08-22T00:00	510	963	20.1	10.4	8	2
2023-08-22T00:00	533	961	20.1	10.0	355	2
2023-08-22T00:00	554	958	19.9	9.9	344	2
2023-08-22T00:00	576	956	19.8	9.7	337	2
2023-08-22T00:00	596	954	19.8	9.4	333	1
2023-08-22T00:00	617	951	19.7	8.8	331	1
2023-08-22T00:00	646	948	19.5	8.7	332	1
2023-08-22T00:00	670	945	19.3	8.2	329	1
2023-08-22T00:00	696	942	19.2	8.1	323	1
2023-08-22T00:00	719	940	18.9	8.5	315	2
2023-08-22T00:00	748	937	18.7	9.4	308	2
2023-08-22T00:00	771	934	18.7	10.5	300	3
2023-08-22T00:00	792	932	18.5	11.1	289	3
2023-08-22T00:00	813	930	18.3	11.3	274	3
2023-08-22T00:00	837	927	18.2	11.5	255	3
2023-08-22T00:00	863	924	18.0	11.5	239	3
2023-08-22T00:00	894	921	17.8	11.5	228	4
2023-08-22T00:00	919	918	17.5	11.4	223	4
2023-08-22T00:00	941	916	17.4	11.1	221	5
2023-08-22T00:00	968	913	17.5	11.0	222	5
2023-08-22T00:00	998	910	17.1	10.8	223	6
2023-08-22T00:00	1023	907	16.9	10.8	224	6
2023-08-22T00:00	1047	905	17.0	10.8	226	6
2023-08-22T00:00	1073	902	16.9	11.1	228	7
2023-08-22T00:00	1095	900	16.8	11.1	230	7
2023-08-22T00:00	1118	897	16.7	11.2	234	7
2023-08-22T00:00	1145	894	16.5	11.2	238	7
2023-08-22T00:00	1167	892	16.3	11.2	244	7
2023-08-22T00:00	1194	889	16.1	11.3	250	7
2023-08-22T00:00	1221	887	15.8	11.2	255	7
2023-08-22T00:00	1249	884	15.6	11.3	259	7
2023-08-22T00:00	1273	881	15.4	11.2	261	7
2023-08-22T00:00	1295	879	15.2	11.0	262	8
2023-08-22T00:00	1314	877	15.1	11.2	262	8
2023-08-22T00:00	1338	874	14.8	11.1	263	8
2023-08-22T00:00	1364	872	14.6	11.1	264	8
2023-08-22T00:00	1391	869	14.3	11.0	266	8
2023-08-22T00:00	1417	866	14.1	11.0	268	8
2023-08-22T00:00	1444	863	13.8	10.8	270	8
2023-08-22T00:00	1466	861	13.6	10.7	271	8
2023-08-22T00:00	1491	859	13.4	10.7	273	7
2023-08-22T00:00	1516	856	13.2	10.6	274	7
2023-08-22T00:00	1540	853	13.0	10.5	274	7
2023-08-22T00:00	1570	851	12.7	10.3	275	8
2023-08-22T00:00	1593	848	12.5	10.3	275	8
2023-08-22T00:00	1620	846	12.3	10.2	275	8
2023-08-22T00:00	1642	843	12.0	10.0	275	8
2023-08-22T00:00	1668	841	11.8	10.0	276	8
2023-08-22T00:00	1694	838	11.6	10.0	278	9
2023-08-22T00:00	1719	835	11.4	9.9	280	9
2023-08-22T00:00	1748	833	11.3	9.9	281	9
2023-08-22T00:00	1768	831	11.1	9.6	282	9
2023-08-22T00:00	1787	829	11.1	9.6	282	10
2023-08-22T00:00	1809	827	10.9	9.5	282	10
2023-08-22T00:00	1832	824	10.7	9.4	282	11
2023-08-22T00:00	1854	822	10.8	9.1	283	12
2023-08-22T00:00	1880	820	10.6	9.3	283	13
2023-08-22T00:00	1901	818	10.5	9.1	284	14
2023-08-22T00:00	1926	815	10.5	9.0	284	15
2023-08-22T00:00	1951	813	10.4	8.9	283	16
2023-08-22T00:00	1975	811	10.3	8.8	282	16
2023-08-22T00:00	1999	808	10.5	8.8	280	16
2023-08-22T00:00	2023	806	10.3	8.7	277	16
2023-08-22T00:00	2045	804	10.1	8.8	275	15
2023-08-22T00:00	2060	802	10.0	8.8	274	15
2023-08-22T00:00	2082	800	9.8	8.8	274	15
2023-08-22T00:00	2108	798	9.6	8.7	275	16
2023-08-22T00:00	2132	795	9.5	8.7	276	16
2023-08-22T00:00	2148	794	9.4	8.6	277	16
2023-08-22T00:00	2172	791	9.3	8.2	277	17
2023-08-22T00:00	2205	788	9.0	8.0	277	17
2023-08-22T00:00	2233	786	8.9	7.8	277	17
2023-08-22T00:00	2263	783	8.7	7.6	277	17
2023-08-22T00:00	2282	781	8.6	7.6	277	17
2023-08-22T00:00	2303	779	8.4	7.2	276	18
2023-08-22T00:00	2318	777	8.3	7.1	275	18
2023-08-22T00:00	2346	775	8.1	7.0	274	18
2023-08-22T00:00	2364	773	8.0	6.9	273	18
2023-08-22T00:00	2389	771	7.8	6.9	272	18
2023-08-22T00:00	2409	769	7.6	6.9	270	18
2023-08-22T00:00	2426	767	7.5	6.9	269	18
2023-08-22T00:00	2456	765	7.3	6.4	269	18
2023-08-22T00:00	2487	762	7.3	5.1	269	18
2023-08-22T00:00	2506	760	7.2	5.1	269	18
2023-08-22T00:00	2527	758	7.0	5.0	269	18
2023-08-22T00:00	2545	756	6.8	4.7	268	18
2023-08-22T00:00	2569	754	6.6	4.7	268	18
2023-08-22T00:00	2594	752	6.5	4.5	268	19
2023-08-22T00:00	2616	750	6.3		268	19
2023-08-22T00:00	2635	748	6.1	4.4	269	19
2023-08-22T00:00	2662	746	5.9	4.2	269	19
2023-08-22T00:00	2682	744	5.7	4.0	269	19
2023-08-22T00:00	2704	742	5.5	3.9	269	19
2023-08-22T00:00	2721	740	5.4	3.8	268	19
2023-08-22T00:00	2741	739	5.2	3.6	268	18
2023-08-22T00:00	2762	737	5.0	3.7	269	18
2023-08-22T00:00	2786	735	4.9	3.5	270	18
2023-08-22T00:00	2807	733	5.0	2.1	271	17
2023-08-22T00:00	2833	730	5.3	0.2	274	17
2023-08-22T00:00	2857	728	5.6	-1.5	277	17
2023-08-22T00:00	2885	726	5.8	-4.0	279	17
2023-08-22T00:00	2911	724	5.7	-5.1	281	17
2023-08-22T00:00	2935	721	5.9	-11.0	282	17
2023-08-22T00:00	2958	719	6.1	-12.3	282	16
2023-08-22T00:00	2985	717	6.6	-16.8	281	16
2023-08-22T00:00	3009	715	6.7	-19.7	280	16
2023-08-22T00:00	3035	713	6.7	-18.5	280	16
2023-08-22T00:00	3057	711	6.7	-17.4	280	16
2023-08-22T00:00	3077	709	6.7	-17.9	279	16
2023-08-22T00:00	3094	707	6.7	-18.0	279	16
2023-08-22T00:00	3119	705	6.8	-17.9	277	16
2023-08-22T00:00	3147	703	6.9	-18.7	275	16
2023-08-22T00:00	3171	701	6.8	-20.9	274	16
2023-08-22T00:00	3197	699	6.9	-23.9	275	16
2023-08-22T00:00	3218	697	7.0	-22.7	276	16
2023-08-22T00:00	3238	695	6.9	-20.4	277	16
2023-08-22T00:00	3256	694	6.8	-17.0	279	16
2023-08-22T00:00	3283	691	6.5	-11.6	280	16
2023-08-22T00:00	3312	689	6.3	-10.7	281	16
2023-08-22T00:00	3338	687	6.0	-10.5	281	17
2023-08-22T00:00	3358	685	5.9	-10.1	281	17
2023-08-22T00:00	3380	683	5.7	-9.9	281	18
2023-08-22T00:00	3405	681	5.5	-9.5	281	18
2023-08-22T00:00	3429	679	5.4	-9.4	281	19
2023-08-22T00:00	3451	677	5.3	-9.0	282	19
2023-08-22T00:00	3469	676	5.1	-9.1	282	20
2023-08-22T00:00	3488	674	5.0	-8.8	282	19
2023-08-22T00:00	3515	672	4.8	-8.7	282	19
2023-08-22T00:00	3539	670	4.6	-8.8	281	19
2023-08-22T00:00	3558	668	4.5	-9.2	281	18
2023-08-22T00:00	3586	666	4.3	-9.2	282	18
2023-08-22T00:00	3605	665	4.2	-9.2	282	18
2023-08-22T00:00	3623	663	4.0	-9.2	281	18
2023-08-22T00:00	3644	661	3.8	-9.3	280	18
2023-08-22T00:00	3675	659	3.6	-9.6	280	19
2023-08-22T00:00	3691	658	3.4	-9.6	279	19
2023-08-22T00:00	3709	656	3.3	-9.4	279	19
2023-08-22T00:00	3726	655	3.1	-9.4	279	19
2023-08-22T00:00	3743	653	3.0	-9.5	280	19
2023-08-22T00:00	3761	652	2.9	-9.5	280	19
2023-08-22T00:00	3782	650	2.8	-9.8	280	19
2023-08-22T00:00	3802	649	2.7	-10.1	279	19
2023-08-22T00:00	3824	647	2.6	-10.7	279	19
2023-08-22T00:00	3851	645	2.7	-14.1	278	19
2023-08-22T00:00	3876	643	2.7	-16.0	278	19
2023-08-22T00:00	3896	641	3.0		278	19
2023-08-22T00:00	3920	639	3.2	-25.8	277	20
2023-08-22T00:00	3947	637	3.4	-23.9	277	20
2023-08-22T00:00	3970	635	3.4	-20.0	277	21
2023-08-22T00:00	3987	634	3.4	-20.5	277	21
2023-08-22T00:00	4007	632	3.5	-18.1	277	21
2023-08-22T00:00	4029	631	3.5	-17.4	276	21
2023-08-22T00:00	4057	629	3.3	-16.1	276	22
2023-08-22T00:00	4082	627	3.1	-16.2	276	22
2023-08-22T00:00	4103	625	2.9	-16.4	276	22
2023-08-22T00:00	4124	623	2.7	-16.6	276	22
2023-08-22T00:00	4143	622	2.5	-16.8	277	22
2023-08-22T00:00	4162	620	2.4	-16.8	278	22
2023-08-22T00:00	4189	618	2.2	-17.0	278	22
2023-08-22T00:00	4209	617	2.0	-17.5	279	22
2023-08-22T00:00	4227	616	1.8	-17.9	278	22
2023-08-22T00:00	4245	614	1.7	-18.8	278	21
2023-08-22T00:00	4267	612	1.6	-18.7	278	21
2023-08-22T00:00	4300	610	1.4	-21.7	278	21
2023-08-22T00:00	4325	608	1.3	-21.4	278	22
2023-08-22T00:00	4345	607	1.1	-20.8	278	22
2023-08-22T00:00	4362	605	1.0	-20.8	277	22
2023-08-22T00:00	4379	604	0.9	-20.6	276	23
2023-08-22T00:00	4401	602	0.8	-20.7	274	23
2023-08-22T00:00	4434	600	0.6	-20.9	274	23
2023-08-22T00:00	4453	598	0.5	-21.5	273	23
2023-08-22T00:00	4467	597	0.4	-22.3	273	23
2023-08-22T00:00	4481	596	0.4	-22.7	273	23
2023-08-22T00:00	4499	595	0.3	-23.0	273	22
2023-08-22T00:00	4515	594	0.2	-23.1	273	22
2023-08-22T00:00	4529	593	0.1	-23.1	273	22
2023-08-22T00:00	4549	591	-0.1	-23.2	272	22
2023-08-22T00:00	4569	590	-0.2	-23.1	270	22
2023-08-22T00:00	4600	588	-0.3	-23.4	268	22
2023-08-22T00:00	4622	586	-0.4	-23.7	267	22
2023-08-22T00:00	4649	584	-0.6	-24.1	266	22
2023-08-22T00:00	4675	582	-0.7	-24.4	266	22
2023-08-22T00:00	4699	580	-0.7	-24.9	267	22
2023-08-22T00:00	4727	578	-0.9	-25.5	268	22
2023-08-22T00:00	4748	577	-1.1	-26.1	270	22
2023-08-22T00:00	4771	575	-1.1	-22.9	272	22
2023-08-22T00:00	4799	573	-1.3	-15.5	273	22
2023-08-22T00:00	4827	571	-1.6	-15.2	274	22
2023-08-22T00:00	4854	569	-1.9	-15.1	274	21
2023-08-22T00:00	4875	568	-2.1	-15.1	274	21
2023-08-22T00:00	4895	566	-2.3	-15.2	274	21
2023-08-22T00:00	4916	565	-2.5	-15.2	273	20
2023-08-22T00:00	4937	563	-2.7	-15.2	273	20
2023-08-22T00:00	4970	561	-3.0	-15.1	273	19
2023-08-22T00:00	4990	559	-3.2	-14.4	273	19
2023-08-22T00:00	5008	558	-3.4	-13.4	273	18
2023-08-22T00:00	5032	556	-3.6	-13.3	273	18
2023-08-22T00:00	5059	555	-3.8	-13.3	273	18
2023-08-22T00:00	5089	552	-4.1	-13.5	274	19
2023-08-22T00:00	5123	550	-4.4	-13.6	274	19
2023-08-22T00:00	5151	548	-4.7	-13.8	274	19
2023-08-22T00:00	5168	547	-4.9	-13.8	273	19
2023-08-22T00:00	5187	546	-5.0	-13.8	272	20
2023-08-22T00:00	5206	544	-5.2	-13.7	271	20
2023-08-22T00:00	5225	543	-5.4	-13.4	270	20
2023-08-22T00:00	5247	541	-5.6	-13.4	270	21
2023-08-22T00:00	5278	539	-5.8	-14.8	270	21
2023-08-22T00:00	5302	538	-5.9	-15.5	271	21
2023-08-22T00:00	5326	536	-6.0	-16.0	271	21
2023-08-22T00:00	5355	534	-6.2	-16.0	271	21
2023-08-22T00:00	5384	532	-6.4	-16.4	271	21
2023-08-22T00:00	5408	530	-6.6	-16.6	271	21
2023-08-22T00:00	5440	528	-6.8	-16.8	271	21
2023-08-22T00:00	5467	527	-7.0	-16.7	270	21
2023-08-22T00:00	5493	525	-7.1	-17.3	270	21
2023-08-22T00:00	5509	524	-7.2	-17.8	271	21
2023-08-22T00:00	5526	522	-7.2	-17.3	272	21
2023-08-22T00:00	5547	521	-7.2	-19.1	273	22
2023-08-22T00:00	5574	519	-7.2	-23.0	275	22
2023-08-22T00:00	5597	518	-7.3	-23.7	276	22
2023-08-22T00:00	5614	517	-7.5	-24.2	276	22
2023-08-22T00:00	5632	515	-7.5	-25.4	277	21
2023-08-22T00:00	5654	514	-7.6	-25.5	277	21
2023-08-22T00:00	5680	512	-7.7	-23.4	277	21
2023-08-22T00:00	5714	510	-7.8	-21.7	277	21
2023-08-22T00:00	5744	508	-7.8	-23.2	277	21
2023-08-22T00:00	5762	507	-7.7	-27.8	278	22
2023-08-22T00:00	5779	506	-7.8	-29.5	278	22
2023-08-22T00:00	5796	505	-7.8	-32.5	279	22
2023-08-22T00:00	5816	503	-7.9	-32.4	280	22
2023-08-22T00:00	5837	502	-8.1	-34.5	281	22
2023-08-22T00:00	5859	501	-8.2	-36.0	281	22
2023-08-22T00:00	5889	499	-8.3	-35.5	282	23
2023-08-22T00:00	5917	497	-8.5	-29.2	282	23
2023-08-22T00:00	5943	495	-8.6	-27.4	282	23
2023-08-22T00:00	5972	493	-8.7	-25.9	283	23
2023-08-22T00:00	5997	492	-9.0	-25.3	284	23
2023-08-22T00:00	6028	490	-9.1	-25.9	284	23
2023-08-22T00:00	6059	488	-9.4	-23.0	284	24
2023-08-22T00:00	6085	486	-9.7	-21.4	284	24
2023-08-22T00:00	6110	485	-9.8	-22.6	282	24
2023-08-22T00:00	6136	483	-10.0	-21.2	281	24
2023-08-22T00:00	6163	481	-10.2	-22.0	279	24
2023-08-22T00:00	6191	480	-10.4	-23.4	278	24
2023-08-22T00:00	6216	478	-10.5	-24.8	277	23
2023-08-22T00:00	6241	476	-10.6	-25.1	276	23
2023-08-22T00:00	6275	474	-10.8	-23.5	277	23
2023-08-22T00:00	6297	473	-11.0	-23.8	277	23
2023-08-22T00:00	6311	472	-11.2	-23.9	277	23
2023-08-22T00:00	6330	471	-11.3	-24.2	278	23
2023-08-22T00:00	6349	470	-11.4	-25.7	279	23
2023-08-22T00:00	6366	469	-11.5	-26.5	279	23
2023-08-22T00:00	6385	468	-11.7	-25.1	280	23
2023-08-22T00:00	6404	466	-11.8	-23.8	280	23
2023-08-22T00:00	6430	465	-11.9	-25.3	280	24
2023-08-22T00:00	6460	463	-12.1	-28.1	280	24
2023-08-22T00:00	6496	461	-12.0	-38.5	280	24
2023-08-22T00:00	6520	459	-12.2	-35.0	280	24
2023-08-22T00:00	6536	458	-12.3	-32.4	281	24
2023-08-22T00:00	6553	457	-12.5	-31.2	281	24
2023-08-22T00:00	6571	456	-12.7	-28.3	282	24
2023-08-22T00:00	6590	455	-12.8	-27.5	282	24
2023-08-22T00:00	6606	454	-12.9	-28.0	282	24
2023-08-22T00:00	6623	453	-13.0	-28.5	282	24
2023-08-22T00:00	6642	452	-13.2	-28.0	282	25
2023-08-22T00:00	6661	451	-13.3	-26.5	282	25
2023-08-22T00:00	6678	450	-13.5	-26.4	282	25
2023-08-22T00:00	6697	449	-13.6	-26.0	282	25
2023-08-22T00:00	6713	448	-13.8	-24.7	282	25
2023-08-22T00:00	6733	447	-14.0	-23.6	282	25
2023-08-22T00:00	6750	446	-14.1	-22.9	282	25
2023-08-22T00:00	6767	445	-14.2	-23.2	282	25
2023-08-22T00:00	6784	444	-14.4	-23.1	281	25
2023-08-22T00:00	6802	443	-14.5	-24.1	281	25
2023-08-22T00:00	6821	442	-14.6	-23.4	281	25
2023-08-22T00:00	6837	441	-14.8	-23.6	281	25
2023-08-22T00:00	6855	440	-14.9	-23.5	281	25
2023-08-22T00:00	6874	439	-15.1	-23.7	281	25
2023-08-22T00:00	6893	437	-15.3	-23.7	281	25
2023-08-22T00:00	6910	436	-15.4	-23.6	281	25
2023-08-22T00:00	6928	435	-15.6	-24.3	281	24
2023-08-22T00:00	6947	434	-15.7	-25.3	281	24
2023-08-22T00:00	6968	433	-15.7	-27.6	280	24
2023-08-22T00:00	6991	432	-15.8	-30.6	280	24
2023-08-22T00:00	7009	431	-15.9	-32.9	279	24
2023-08-22T00:00	7032	429	-16.0	-35.1	279	24
2023-08-22T00:00	7060	428	-16.1	-35.1	278	24
2023-08-22T00:00	7084	426	-16.2	-35.9	277	24
2023-08-22T00:00	7108	425	-16.4	-36.1	277	24
2023-08-22T00:00	7136	424	-16.6	-36.4	277	24
2023-08-22T00:00	7162	422	-16.8	-36.8	277	25
2023-08-22T00:00	7185	421	-17.0	-35.9	278	25
2023-08-22T00:00	7207	419	-17.2	-36.0	279	25
2023-08-22T00:00	7233	418	-17.4	-36.5	279	25
2023-08-22T00:00	7265	416	-17.5	-39.5	280	25
2023-08-22T00:00	7296	415	-17.6	-36.5	281	25
2023-08-22T00:00	7327	413	-17.8	-33.7	282	25
2023-08-22T00:00	7352	412	-18.0	-30.1	282	25
2023-08-22T00:00	7376	410	-18.2	-29.6	282	25
2023-08-22T00:00	7400	409	-18.4	-29.1	282	25
2023-08-22T00:00	7422	408	-18.7	-28.4	282	25
2023-08-22T00:00	7444	406	-18.9	-28.5	281	25
2023-08-22T00:00	7475	405	-19.1	-27.9	281	25
2023-08-22T00:00	7503	403	-19.4	-28.2	281	25
2023-08-22T00:00	7534	402	-19.7	-28.1	281	26
2023-08-22T00:00	7560	400	-19.9	-28.2	281	26
2023-08-22T00:00	7588	399	-20.1	-29.0	281	26
2023-08-22T00:00	7609	397	-20.3	-29.7	281	26
2023-08-22T00:00	7638	396	-20.6	-28.6	281	27
2023-08-22T00:00	7666	394	-20.8	-28.6	281	27
2023-08-22T00:00	7692	393	-20.9	-28.7	281	27
2023-08-22T00:00	7720	392	-21.2	-28.0	281	26
2023-08-22T00:00	7746	390	-21.4	-27.0	280	26
2023-08-22T00:00	7772	389	-21.6	-27.0	280	26
2023-08-22T00:00	7797	388	-21.8	-27.3	281	25
2023-08-22T00:00	7824	386	-22.1	-27.5	281	25
2023-08-22T00:00	7844	385	-22.3	-27.6	281	25
2023-08-22T00:00	7865	384	-22.5	-27.7	281	25
2023-08-22T00:00	7887	383	-22.7	-27.8	281	25
2023-08-22T00:00	7908	382	-22.9	-28.0	281	25
2023-08-22T00:00	7933	380	-23.1	-28.0	281	25
2023-08-22T00:00	7956	379	-23.3	-28.0	281	25
2023-08-22T00:00	7987	378	-23.6	-28.1	281	25
2023-08-22T00:00	8021	376	-23.9	-28.3	281	25
2023-08-22T00:00	8046	375	-24.1	-28.3	281	25
2023-08-22T00:00	8069	373	-24.4	-28.4	282	25
2023-08-22T00:00	8088	372	-24.5	-28.6	282	25
2023-08-22T00:00	8110	371	-24.7	-28.6	282	25
2023-08-22T00:00	8128	370	-24.9	-28.9	282	25
2023-08-22T00:00	8147	369	-25.1	-29.1	282	25
2023-08-22T00:00	8166	368	-25.2	-29.1	282	26
2023-08-22T00:00	8186	367	-25.4	-29.5	281	26
2023-08-22T00:00	8206	366	-25.6	-29.5	281	26
2023-08-22T00:00	8228	365	-25.8	-29.6	281	26
2023-08-22T00:00	8246	364	-25.9	-30.2	281	26
2023-08-22T00:00	8267	363	-26.1	-30.6	281	26
2023-08-22T00:00	8289	362	-26.3	-30.7	280	26
2023-08-22T00:00	8308	361	-26.4	-30.7	280	26
2023-08-22T00:00	8328	360	-26.6	-30.7	280	26
2023-08-22T00:00	8350	359	-26.9	-30.9	280	26
2023-08-22T00:00	8376	358	-27.1	-30.9	280	26
2023-08-22T00:00	8401	357	-27.3	-30.9	280	26
2023-08-22T00:00	8425	356	-27.6	-30.9	280	26
2023-08-22T00:00	8446	354	-27.8	-31.0	279	26
2023-08-22T00:00	8471	353	-28.0	-31.2	279	26
2023-08-22T00:00	8496	352	-28.1	-31.6	279	26
2023-08-22T00:00	8519	351	-28.3	-31.9	279	26
2023-08-22T00:00	8538	350	-28.5	-32.4	280	26
2023-08-22T00:00	8559	349	-28.6	-32.8	280	26
2023-08-22T00:00	8577	348	-28.8	-33.3	281	26
2023-08-22T00:00	8595	347	-28.9	-33.7	281	26
2023-08-22T00:00	8613	346	-29.0	-35.4	281	25
2023-08-22T00:00	8630	345	-28.8	-38.0	281	25
2023-08-22T00:00	8649	345	-28.9	-38.0	281	26
2023-08-22T00:00	8667	344	-29.0	-38.1	281	26
2023-08-22T00:00	8684	343	-29.2	-38.2	280	26
2023-08-22T00:00	8702	342	-29.4	-38.3	280	26
2023-08-22T00:00	8720	341	-29.5	-38.4	280	26
2023-08-22T00:00	8740	340	-29.7	-38.5	281	26
2023-08-22T00:00	8758	339	-29.8	-39.7	280	26
2023-08-22T00:00	8779	338	-30.0	-41.5	280	26
2023-08-22T00:00	8800	337	-30.1	-43.8	280	26
2023-08-22T00:00	8820	336	-30.2	-47.8	280	26
2023-08-22T00:00	8838	336	-30.3	-46.2	280	26
2023-08-22T00:00	8858	335	-30.4	-46.6	280	26
2023-08-22T00:00	8874	334	-30.6	-47.3	280	26
2023-08-22T00:00	8893	333	-30.7	-48.5	280	26
2023-08-22T00:00	8911	332	-30.9	-47.0	280	26
2023-08-22T00:00	8928	331	-31.1	-46.7	280	26
2023-08-22T00:00	8948	330	-31.2	-44.3	279	26
2023-08-22T00:00	8963	330	-31.4	-43.0	279	26
2023-08-22T00:00	8982	329	-31.5	-44.1	279	27
2023-08-22T00:00	9002	328	-31.7	-42.7	279	27
2023-08-22T00:00	9019	327	-31.8	-45.0	279	27
2023-08-22T00:00	9038	326	-31.9	-43.8	279	27
2023-08-22T00:00	9055	325	-32.1	-44.5	279	27
2023-08-22T00:00	9072	325	-32.2	-46.9	279	27
2023-08-22T00:00	9089	324	-32.4	-47.1	279	27
2023-08-22T00:00	9108	323	-32.5	-46.6	279	27
2023-08-22T00:00	9126	322	-32.7	-44.7	279	27
2023-08-22T00:00	9143	321	-32.8	-45.7	279	27
2023-08-22T00:00	9160	321	-32.9	-45.6	279	27
2023-08-22T00:00	9179	320	-33.1	-45.2	279	27
2023-08-22T00:00	9197	319	-33.3	-44.5	279	27
2023-08-22T00:00	9214	318	-33.5	-44.4	279	27
2023-08-22T00:00	9232	317	-33.6	-45.2	279	27
2023-08-22T00:00	9249	317	-33.7	-44.1	279	27
2023-08-22T00:00	9266	316	-33.9	-44.3	279	27
2023-08-22T00:00	9286	315	-34.1	-45.0	279	27
2023-08-22T00:00	9304	314	-34.3	-44.8	279	28
2023-08-22T00:00	9323	313	-34.4	-44.8	279	28
2023-08-22T00:00	9339	312	-34.6	-43.0	279	28
2023-08-22T00:00	9358	312	-34.7	-41.9	279	28
2023-08-22T00:00	9377	311	-34.8	-43.2	280	28
2023-08-22T00:00	9396	310	-35.0	-44.4	280	28
2023-08-22T00:00	9414	309	-35.1	-44.9	280	28
2023-08-22T00:00	9433	308	-35.3	-44.6	281	28
2023-08-22T00:00	9454	307	-35.5	-44.8	281	28
2023-08-22T00:00	9471	307	-35.6	-44.8	281	27
2023-08-22T00:00	9490	306	-35.8	-44.6	281	27
2023-08-22T00:00	9509	305	-35.9	-44.0	281	27
2023-08-22T00:00	9525	304	-36.1	-42.8	281	27
2023-08-22T00:00	9543	303	-36.3	-42.4	280	27
2023-08-22T00:00	9562	303	-36.4	-42.5	280	27
2023-08-22T00:00	9579	302	-36.6	-43.2	280	27
2023-08-22T00:00	9597	301	-36.8	-43.7	280	27
2023-08-22T00:00	9615	300	-36.9	-44.9	280	27
2023-08-22T00:00	9632	300	-37.0	-47.0	280	26
2023-08-22T00:00	9650	299	-37.1	-46.3	280	27
2023-08-22T00:00	9667	298	-37.2	-43.5	280	27
2023-08-22T00:00	9686	297	-37.4	-42.5	280	27
2023-08-22T00:00	9706	296	-37.6	-42.9	280	27
2023-08-22T00:00	9726	296	-37.8	-43.1	280	27
2023-08-22T00:00	9744	295	-38.0	-43.2	280	27
2023-08-22T00:00	9764	294	-38.2	-43.2	279	27
2023-08-22T00:00	9783	293	-38.4	-43.2	279	27
2023-08-22T00:00	9803	292	-38.5	-43.2	279	27
2023-08-22T00:00	9822	291	-38.7	-43.2	279	27
2023-08-22T00:00	9842	291	-38.9	-43.3	279	27
2023-08-22T00:00	9860	290	-39.1	-43.3	279	27
2023-08-22T00:00	9882	289	-39.3	-43.3	279	27
2023-08-22T00:00	9903	288	-39.5	-43.4	278	27
2023-08-22T00:00	9924	287	-39.7	-43.5	278	27
2023-08-22T00:00	9941	286	-39.9	-43.6	278	27
2023-08-22T00:00	9962	286	-40.1	-43.6	278	27
2023-08-22T00:00	9981	285	-40.3	-43.7	278	27
2023-08-22T00:00	10001	284	-40.5	-43.7	278	27
2023-08-22T00:00	10022	283	-40.7	-43.9	278	27
2023-08-22T00:00	10040	282	-40.8	-43.8	278	27
2023-08-22T00:00	10059	282	-41.0	-43.9	278	27
2023-08-22T00:00	10081	281	-41.2	-43.8	278	27
2023-08-22T00:00	10100	280	-41.4	-44.0	278	27
2023-08-22T00:00	10120	279	-41.5	-44.5	278	27
2023-08-22T00:00	10139	278	-41.6	-45.0	279	27
2023-08-22T00:00	10159	277	-41.7	-45.3	280	27
2023-08-22T00:00	10180	277	-41.9	-45.6	280	27
2023-08-22T00:00	10202	276	-42.0	-46.6	281	27
2023-08-22T00:00	10222	275	-42.1	-47.7	282	27
2023-08-22T00:00	10241	274	-42.2	-47.7	282	27
2023-08-22T00:00	10261	273	-42.4	-48.2	282	27
2023-08-22T00:00	10281	272	-42.6	-48.6	282	27
2023-08-22T00:00	10300	272	-42.8	-48.6	282	27
2023-08-22T00:00	10319	271	-42.9	-48.6	282	27
2023-08-22T00:00	10340	270	-43.1	-48.8	282	27
2023-08-22T00:00	10359	269	-43.3	-49.0	282	27
2023-08-22T00:00	10380	268	-43.5	-49.1	282	27
2023-08-22T00:00	10399	268	-43.7	-49.1	281	27
2023-08-22T00:00	10419	267	-43.9	-49.1	281	27
2023-08-22T00:00	10438	266	-44.0	-49.1	280	27
2023-08-22T00:00	10457	265	-44.2	-49.3	280	27
2023-08-22T00:00	10478	265	-44.4	-49.3	279	27
2023-08-22T00:00	10494	264	-44.5	-49.5	279	27
2023-08-22T00:00	10516	263	-44.6	-50.4	279	27
2023-08-22T00:00	10535	262	-44.7	-51.0	279	27
2023-08-22T00:00	10553	262	-44.8	-50.9	279	27
2023-08-22T00:00	10573	261	-44.9	-51.2	279	27
2023-08-22T00:00	10593	260	-45.0	-51.3	279	27
2023-08-22T00:00	10611	259	-45.2	-51.2	280	27
2023-08-22T00:00	10632	259	-45.3	-51.3	280	28
2023-08-22T00:00	10652	258	-45.4	-51.9	280	28
2023-08-22T00:00	10671	257	-45.5	-52.3	280	28
2023-08-22T00:00	10689	256	-45.6	-52.7	280	28
2023-08-22T00:00	10710	256	-45.8	-53.2	280	29
2023-08-22T00:00	10730	255	-45.9	-53.1	279	29
2023-08-22T00:00	10748	254	-46.0	-52.6	279	28
2023-08-22T00:00	10767	253	-46.2	-52.1	279	28
2023-08-22T00:00	10788	253	-46.4	-52.2	279	28
2023-08-22T00:00	10806	252	-46.6	-52.6	279	28
2023-08-22T00:00	10826	251	-46.7	-52.6	279	28
2023-08-22T00:00	10844	250	-46.9	-52.6	279	28
2023-08-22T00:00	10864	250	-47.0	-53.1	279	28
2023-08-22T00:00	10883	249	-47.1	-54.0	279	28
2023-08-22T00:00	10901	248	-47.3	-54.6	279	28
2023-08-22T00:00	10919	248	-47.4	-54.8	278	28
2023-08-22T00:00	10937	247	-47.5	-55.1	278	28
2023-08-22T00:00	10955	246	-47.7	-55.3	278	28
2023-08-22T00:00	10974	246	-47.9	-55.4	278	28
2023-08-22T00:00	10993	245	-48.0	-55.4	278	28
2023-08-22T00:00	11011	244	-48.2	-55.5	278	28
2023-08-22T00:00	11029	244	-48.4	-55.5	278	28
2023-08-22T00:00	11048	243	-48.5	-55.4	278	28
2023-08-22T00:00	11068	242	-48.7	-55.3	278	28
2023-08-22T00:00	11087	241	-48.9	-55.3	279	28
2023-08-22T00:00	11107	241	-49.0	-55.5	279	28
2023-08-22T00:00	11125	240	-49.2	-56.0	279	27
2023-08-22T00:00	11143	239	-49.3	-56.3	279	27
2023-08-22T00:00	11161	239	-49.5	-56.8	279	27
2023-08-22T00:00	11180	238	-49.6	-57.0	279	27
2023-08-22T00:00	11199	237	-49.8	-57.2	279	27
2023-08-22T00:00	11217	237	-50.0	-57.5	279	27
2023-08-22T00:00	11235	236	-50.1	-57.5	279	27
2023-08-22T00:00	11254	235	-50.3	-57.5	278	27
2023-08-22T00:00	11273	235	-50.4	-57.4	278	27
2023-08-22T00:00	11292	234	-50.6	-57.7	278	27
2023-08-22T00:00	11310	233	-50.7	-58.1	277	27
2023-08-22T00:00	11327	233	-50.8	-58.5	277	27
2023-08-22T00:00	11346	232	-50.9	-59.2	278	27
2023-08-22T00:00	11364	231	-50.9	-59.5	278	27
2023-08-22T00:00	11384	231	-51.0	-59.6	279	28
2023-08-22T00:00	11404	230	-51.2		279	28
2023-08-22T00:00	11423	229	-51.3	-59.6	280	28
2023-08-22T00:00	11442	229	-51.4	-59.7	280	28
2023-08-22T00:00	11463	228	-51.6	-59.8	280	28
2023-08-22T00:00	11482	227	-51.7	-59.8	280	28
2023-08-22T00:00	11503	227	-51.9	-60.0	280	28
2023-08-22T00:00	11522	226	-52.0	-60.1	280	28
2023-08-22T00:00	11539	225	-52.2	-60.4	280	28
2023-08-22T00:00	11559	225	-52.3	-60.6	281	28
2023-08-22T00:00	11580	224	-52.4	-60.7	281	28
2023-08-22T00:00	11599	223	-52.6	-60.9	281	28
2023-08-22T00:00	11619	222	-52.7	-60.9	282	29
2023-08-22T00:00	11638	222	-52.9	-61.1	282	29
2023-08-22T00:00	11656	221	-53.0	-61.1	283	29
2023-08-22T00:00	11677	220	-53.1	-61.3	284	29
2023-08-22T00:00	11696	220	-53.2	-61.6	285	29
2023-08-22T00:00	11714	219	-53.2	-62.4	286	28
2023-08-22T00:00	11734	219	-52.8	-63.3	286	28
2023-08-22T00:00	11754	218	-52.8	-64.2	287	28
2023-08-22T00:00	11774	217	-53.0	-64.4	288	28
2023-08-22T00:00	11791	217	-53.1	-64.4	288	27
2023-08-22T00:00	11810	216	-53.2	-64.4	289	27
2023-08-22T00:00	11828	215	-53.4	-64.6	290	27
2023-08-22T00:00	11847	215	-53.5	-64.7	290	27
2023-08-22T00:00	11866	214	-53.6	-64.9	291	27
2023-08-22T00:00	11887	213	-53.8	-65.1	291	27
2023-08-22T00:00	11904	213	-53.9	-64.9	292	27
2023-08-22T00:00	11927	212	-54.1	-64.8	292	27
2023-08-22T00:00	11945	211	-54.3	-64.7	293	27
2023-08-22T00:00	11965	211	-54.4	-64.6	293	27
2023-08-22T00:00	11985	210	-54.5	-64.5	293	27
2023-08-22T00:00	12002	210	-54.6	-64.4	293	27
2023-08-22T00:00	12021	209	-54.8	-64.5	292	27
2023-08-22T00:00	12038	208	-54.9	-64.5	292	27
2023-08-22T00:00	12058	208	-55.1	-64.6	291	26
2023-08-22T00:00	12074	207	-55.2	-64.6	291	26
2023-08-22T00:00	12093	207	-55.4	-64.8	290	26
2023-08-22T00:00	12114	206	-55.5	-64.9	289	26
2023-08-22T00:00	12133	205	-55.7	-65.1	289	26
2023-08-22T00:00	12151	205	-55.8	-65.2	288	26
2023-08-22T00:00	12169	204	-55.8	-65.4	287	26
2023-08-22T00:00	12187	204	-55.9	-65.7	287	27
2023-08-22T00:00	12206	203	-56.0	-66.1	287	27
2023-08-22T00:00	12227	202	-56.1	-66.7	287	26
2023-08-22T00:00	12244	202	-56.0	-67.2	286	26
2023-08-22T00:00	12263	201	-55.8	-67.7	286	26
2023-08-22T00:00	12282	201	-55.8	-68.0	286	26
2023-08-22T00:00	12300	200	-55.8	-68.2	285	26
2023-08-22T00:00	12319	199	-55.9	-68.4	285	26
2023-08-22T00:00	12337	199	-55.9	-68.4	286	25
2023-08-22T00:00	12357	198	-56.0	-68.3	286	25
2023-08-22T00:00	12376	198	-56.1	-68.1	287	25
2023-08-22T00:00	12396	197	-56.2	-67.9	288	25
2023-08-22T00:00	12414	196	-56.4	-67.8	288	25
2023-08-22T00:00	12430	196	-56.5		288	25
2023-08-22T00:00	12449	195	-56.7	-67.5	288	25
2023-08-22T00:00	12467	195	-56.8	-67.5	288	25
2023-08-22T00:00	12485	194	-57.0	-67.5	288	24
2023-08-22T00:00	12505	194	-57.2	-67.5	287	24
2023-08-22T00:00	12525	193	-57.3	-67.6	286	24
2023-08-22T00:00	12544	192	-57.1	-67.6	285	24
2023-08-22T00:00	12564	192	-57.2	-67.8	284	24
2023-08-22T00:00	12584	191	-57.2	-68.0	283	24
2023-08-22T00:00	12603	191	-57.1	-68.2	282	24
2023-08-22T00:00	12626	190	-57.2	-68.5	281	24
2023-08-22T00:00	12643	189	-57.4	-68.8	280	25
2023-08-22T00:00	12661	189	-57.5	-69.1	280	25
2023-08-22T00:00	12681	188	-57.6	-69.4	280	25
2023-08-22T00:00	12700	188	-57.6	-69.7	280	25
2023-08-22T00:00	12720	187	-57.5	-69.8	280	25
2023-08-22T00:00	12738	187	-57.5	-69.8	281	25
2023-08-22T00:00	12755	186	-57.4	-69.6	281	25
2023-08-22T00:00	12777	186	-57.5	-69.6	280	25
2023-08-22T00:00	12797	185	-57.6	-69.6	280	26
2023-08-22T00:00	12816	184	-57.7	-69.7	280	26
2023-08-22T00:00	12835	184	-57.9	-70.0	279	26
2023-08-22T00:00	12856	183	-57.9	-70.3	279	26
2023-08-22T00:00	12875	183	-58.1	-70.7	278	26
2023-08-22T00:00	12895	182	-58.2	-71.0	278	26
2023-08-22T00:00	12917	181	-58.2	-71.1	278	26
2023-08-22T00:00	12934	181	-58.3	-71.3	277	26
2023-08-22T00:00	12955	180	-58.2	-71.2	277	26
2023-08-22T00:00	12973	180	-58.2	-71.3	278	26
2023-08-22T00:00	12993	179	-58.3	-71.5	278	26
2023-08-22T00:00	13011	179	-58.3	-71.4	278	25
2023-08-22T00:00	13032	178	-58.4	-71.5	278	25
2023-08-22T00:00	13052	178	-58.4	-71.4	279	25
2023-08-22T00:00	13071	177	-58.5	-71.5	279	25
2023-08-22T00:00	13090	176	-58.5	-71.5	279	25
2023-08-22T00:00	13110	176	-58.5	-71.6	279	25
2023-08-22T00:00	13130	175	-58.6	-71.8	279	25
2023-08-22T00:00	13149	175	-58.7	-71.9	278	25
2023-08-22T00:00	13169	174	-58.9	-72.2	278	25
2023-08-22T00:00	13188	174	-59.0	-72.3	277	25
2023-08-22T00:00	13210	173	-59.1	-72.4	277	25
2023-08-22T00:00	13229	173	-59.2	-72.6	277	24
2023-08-22T00:00	13250	172	-59.2	-72.7	277	24
2023-08-22T00:00	13270	171	-59.2	-72.8	278	24
2023-08-22T00:00	13292	171	-59.3	-73.1	278	24
2023-08-22T00:00	13308	170	-59.2	-73.1	278	24
2023-08-22T00:00	13332	170	-59.2	-73.3	277	23
2023-08-22T00:00	13353	169	-59.0	-73.4	277	23
2023-08-22T00:00	13371	169	-59.1	-73.7	277	23
2023-08-22T00:00	13394	168	-58.9	-73.7	276	22
2023-08-22T00:00	13414	168	-58.8	-73.8	276	22
2023-08-22T00:00	13437	167	-58.8	-74.0	276	22
2023-08-22T00:00	13458	166	-58.7	-74.0	275	22
2023-08-22T00:00	13477	166	-58.7	-74.2	275	22
2023-08-22T00:00	13495	165	-58.7	-74.2	275	22
2023-08-22T00:00	13515	165	-58.8	-74.3	275	22
2023-08-22T00:00	13537	164	-58.8	-74.3	275	22
2023-08-22T00:00	13558	164	-58.9	-74.3	274	22
2023-08-22T00:00	13579	163	-59.0	-74.3	273	22
2023-08-22T00:00	13598	163	-59.1	-74.4	272	22
2023-08-22T00:00	13621	162	-59.3	-74.6	271	22
2023-08-22T00:00	13645	162	-59.3	-74.6	271	22
2023-08-22T00:00	13666	161	-59.3	-74.7	271	22
2023-08-22T00:00	13687	160	-59.4	-75.0	271	22
2023-08-22T00:00	13706	160	-59.4	-75.2	271	22
2023-08-22T00:00	13728	159	-59.3	-75.3	272	22
2023-08-22T00:00	13749	159	-59.3	-75.5	272	22
2023-08-22T00:00	13771	158	-59.3	-75.6	272	22
2023-08-22T00:00	13791	158	-59.3	-75.8	272	22
2023-08-22T00:00	13812	157	-59.3	-76.1	272	22
2023-08-22T00:00	13832	157	-59.4	-76.4	273	22
2023-08-22T00:00	13852	156	-59.5	-76.7	273	22
2023-08-22T00:00	13872	156	-59.5	-76.9	273	22
2023-08-22T00:00	13891	155	-59.6	-77.3	273	22
2023-08-22T00:00	13913	155	-59.4	-77.4	273	21
2023-08-22T00:00	13932	154	-59.5	-77.9	274	21
2023-08-22T00:00	13953	154	-59.4	-78.0	275	21
2023-08-22T00:00	13974	153	-59.3	-78.1	276	21
2023-08-22T00:00	13992	153	-59.2	-78.1	278	21
2023-08-22T00:00	14013	152	-59.3	-78.4	279	21
2023-08-22T00:00	14031	152	-59.3	-78.6	280	21
2023-08-22T00:00	14051	151	-59.1	-78.6	280	21
2023-08-22T00:00	14070	151	-59.1	-78.8	280	21
2023-08-22T00:00	14092	150	-59.1	-78.9	279	21
2023-08-22T00:00	14112	150	-59.1	-79.0	279	21
2023-08-22T00:00	14128	150	-59.2	-79.2	278	22
2023-08-22T00:00	14150	149	-59.3	-79.4	278	22
2023-08-22T00:00	14172	149	-59.4	-79.6	279	21
2023-08-22T00:00	14193	148	-59.5	-79.8	279	21
2023-08-22T00:00	14211	148	-59.4	-79.8	280	21
2023-08-22T00:00	14234	147	-59.3	-79.9	280	20
2023-08-22T00:00	14253	147	-59.4	-80.0	279	20
2023-08-22T00:00	14276	146	-59.4	-80.0	278	19
2023-08-22T00:00	14296	146	-59.4	-80.0	277	19
2023-08-22T00:00	14318	145	-59.5		276	19
2023-08-22T00:00	14339	145	-59.7	-80.2	275	18
2023-08-22T00:00	14360	144	-59.9	-80.2	275	18
2023-08-22T00:00	14379	144	-59.9	-80.2	275	18
2023-08-22T00:00	14401	143	-59.9	-80.2	275	18
2023-08-22T00:00	14422	143	-60.0	-80.5	276	18
2023-08-22T00:00	14441	142	-60.1	-80.5	277	18
2023-08-22T00:00	14462	142	-60.0	-80.7	278	17
2023-08-22T00:00	14482	141	-59.8	-80.8	278	17
2023-08-22T00:00	14504	141	-59.8	-81.1	278	17
2023-08-22T00:00	14523	140	-59.5	-81.2	276	17
2023-08-22T00:00	14545	140	-59.4	-81.4	275	17
2023-08-22T00:00	14566	139	-59.1	-81.3	273	17
2023-08-22T00:00	14588	139	-59.2	-81.4	272	17
2023-08-22T00:00	14609	138	-59.3	-81.3	271	17
2023-08-22T00:00	14629	138	-59.4	-81.3	270	17
2023-08-22T00:00	14649	138	-59.5	-81.2	269	17
2023-08-22T00:00	14670	137	-59.6	-81.3	268	17
2023-08-22T00:00	14689	137	-59.7	-81.5	268	17
2023-08-22T00:00	14709	136	-59.7	-81.7	269	18
2023-08-22T00:00	14728	136	-59.6	-81.7	269	18
2023-08-22T00:00	14750	135	-59.1	-81.7	271	18
2023-08-22T00:00	14769	135	-59.1	-81.9	272	18
2023-08-22T00:00	14791	134	-58.8	-81.8	272	18
2023-08-22T00:00	14812	134	-58.6	-81.8	273	18
2023-08-22T00:00	14834	134	-58.6	-81.8	274	18
2023-08-22T00:00	14856	133	-58.8	-82.0	275	19
2023-08-22T00:00	14877	133	-58.9	-81.9	276	19
2023-08-22T00:00	14897	132	-59.0	-82.0	277	19
2023-08-22T00:00	14918	132	-59.0	-82.0	278	19
2023-08-22T00:00	14939	131	-59.1	-82.0	278	19
2023-08-22T00:00	14960	131	-59.1	-82.2	277	19
2023-08-22T00:00	14979	131	-58.9	-82.1	276	19
2023-08-22T00:00	15000	130	-58.6	-82.0	275	19
2023-08-22T00:00	15018	130	-58.6	-82.0	274	19
2023-08-22T00:00	15040	129	-58.7	-82.1	273	19
2023-08-22T00:00	15061	129	-58.8	-82.2	273	18
2023-08-22T00:00	15078	128	-58.9	-82.1	273	18
2023-08-22T00:00	15099	128	-59.0	-82.1	274	18
2023-08-22T00:00	15118	128	-59.0	-82.1	275	18
2023-08-22T00:00	15138	127	-59.1	-82.2	275	17
2023-08-22T00:00	15157	127	-59.2	-82.3	275	17
2023-08-22T00:00	15174	127	-59.2	-82.1	275	18
2023-08-22T00:00	15193	126	-59.3	-82.2	275	18
2023-08-22T00:00	15212	126	-59.3	-82.2	275	18
2023-08-22T00:00	15230	125	-59.1	-82.2	276	18
2023-08-22T00:00	15247	125	-59.0	-82.3	277	18
2023-08-22T00:00	15266	125	-58.1	-81.8	279	18
2023-08-22T00:00	15281	124	-58.0	-81.8	280	18
2023-08-22T00:00	15303	124	-58.0	-81.8	281	19
2023-08-22T00:00	15320	124	-58.1	-81.8	282	19
2023-08-22T00:00	15338	123	-58.2		283	19
2023-08-22T00:00	15357	123	-58.3	-82.0	283	19
2023-08-22T00:00	15375	123	-58.3	-82.0	283	19
2023-08-22T00:00	15394	122	-58.2	-82.1	283	18
2023-08-22T00:00	15413	122	-57.8	-82.0	282	18
2023-08-22T00:00	15433	121	-57.6	-82.1	280	17
2023-08-22T00:00	15449	121	-57.4	-82.2	277	16
2023-08-22T00:00	15481	121	-57.2	-82.2	274	15
2023-08-22T00:00	15504	120	-56.8	-82.2	271	15
2023-08-22T00:00	15524	120	-56.0	-81.8	269	14
2023-08-22T00:00	15545	119	-55.9	-82.0	267	14
2023-08-22T00:00	15569	119	-56.0	-82.1	266	15
2023-08-22T00:00	15593	118	-56.2	-82.3	264	15
2023-08-22T00:00	15618	118	-56.5	-82.2	263	15
2023-08-22T00:00	15637	118	-56.7	-82.4	262	15
2023-08-22T00:00	15658	117	-56.7	-82.4	260	16
2023-08-22T00:00	15674	117	-56.7	-82.4	257	16
2023-08-22T00:00	15697	116	-56.9	-82.5	255	16
2023-08-22T00:00	15721	116	-56.9	-82.5	252	16
2023-08-22T00:00	15739	116	-56.9	-82.5	250	16
2023-08-22T00:00	15760	115	-57.1	-82.7	248	16
2023-08-22T00:00	15783	115	-57.1	-82.7	247	16
2023-08-22T00:00	15803	115	-57.1	-82.7	248	17
2023-08-22T00:00	15819	114	-57.0	-82.6	249	17
2023-08-22T00:00	15841	114	-57.0	-82.9	250	17
2023-08-22T00:00	15862	113	-57.1	-83.0	252	17
2023-08-22T00:00	15883	113	-57.1	-83.0	254	17
2023-08-22T00:00	15907	113	-57.0	-82.6	256	17
2023-08-22T00:00	15928	112	-57.1	-82.7	258	17
2023-08-22T00:00	15947	112	-57.1	-82.7	260	17
2023-08-22T00:00	15969	112	-57.3	-82.8	261	17
2023-08-22T00:00	15988	111	-57.5	-83.0	262	17
2023-08-22T00:00	16010	111	-57.5	-83.0	263	17
2023-08-22T00:00	16027	111	-57.6	-83.1	264	17
2023-08-22T00:00	16048	110	-57.6	-83.1	265	17
2023-08-22T00:00	16067	110	-57.6	-83.1	265	17
2023-08-22T00:00	16089	109	-57.7	-83.2	265	17
2023-08-22T00:00	16107	109	-57.7	-83.2	265	17
2023-08-22T00:00	16127	109	-57.6	-83.1	265	17
2023-08-22T00:00	16146	108	-57.8	-83.0	265	17
2023-08-22T00:00	16165	108	-57.9	-83.0	265	17
2023-08-22T00:00	16186	108	-58.0	-83.1	265	17
2023-08-22T00:00	16201	108	-58.1	-83.2	265	17
2023-08-22T00:00	16223	107	-58.3		266	17
2023-08-22T00:00	16242	107	-58.4	-83.2	267	17
2023-08-22T00:00	16260	107	-58.5	-83.3	269	18
2023-08-22T00:00	16280	106	-58.4	-83.2	270	18
2023-08-22T00:00	16299	106	-58.6	-83.6	272	18
2023-08-22T00:00	16319	106	-58.7	-83.7	274	19
2023-08-22T00:00	16336	105	-58.2	-83.5	276	19
2023-08-22T00:00	16355	105	-57.6	-83.3	278	19
2023-08-22T00:00	16373	105	-57.3	-83.4	281	19
2023-08-22T00:00	16394	104	-57.1	-83.2	284	18
2023-08-22T00:00	16411	104	-56.9	-83.4	286	18
2023-08-22T00:00	16430	104	-56.9	-83.4	289	18
2023-08-22T00:00	16449	103	-56.5	-83.4	291	17
2023-08-22T00:00	16467	103	-56.5	-83.4	292	16
2023-08-22T00:00	16487	103	-56.0	-83.0	293	15
2023-08-22T00:00	16508	102	-55.9	-83.3	293	14
2023-08-22T00:00	16527	102	-55.6	-83.1	293	14
2023-08-22T00:00	16548	102	-55.7	-83.1	293	13
2023-08-22T00:00	16566	102	-55.7	-83.1	293	12
2023-08-22T00:00	16587	101	-55.9	-82.9	293	12
2023-08-22T00:00	16606	101	-56.0	-83.0	293	12
2023-08-22T00:00	16630	101	-56.1	-83.1	292	12
2023-08-22T00:00	16648	100	-56.3	-83.3	291	12
2023-08-22T00:00	16668	100	-56.3	-83.3	291	12
2023-08-22T00:00	16688	100	-56.2	-83.2	290	13
2023-08-22T00:00	16710	99	-56.2	-83.2	290	13
2023-08-22T00:00	16732	99	-56.3	-83.3	290	13
2023-08-22T00:00	16753	99	-56.4	-83.3	290	14
2023-08-22T00:00	16775	98	-56.5	-83.4	291	14
2023-08-22T00:00	16797	98	-56.7	-83.2	291	14
2023-08-22T00:00	16816	98	-56.8	-83.3	292	15
2023-08-22T00:00	16836	97	-57.0	-83.5	293	15
2023-08-22T00:00	16858	97	-57.1	-83.5	294	15
2023-08-22T00:00	16880	97	-57.2	-83.6	294	15
2023-08-22T00:00	16904	96	-57.3	-83.7	295	15
2023-08-22T00:00	16925	96	-57.2	-83.6	297	15
2023-08-22T00:00	16949	96	-57.1	-83.9	298	15
2023-08-22T00:00	16969	95	-57.1	-83.9	298	15
2023-08-22T00:00	16990	95	-57.1	-83.9	299	15
2023-08-22T00:00	17016	95	-57.2	-83.9	299	14
2023-08-22T00:00	17037	94	-57.3	-83.7	298	14
2023-08-22T00:00	17056	94	-57.5	-83.9	297	13
2023-08-22T00:00	17079	94	-57.6	-84.3	296	12
2023-08-22T00:00	17105	93	-57.5	-84.2	295	11
2023-08-22T00:00	17129	93	-57.5	-84.2	293	10
2023-08-22T00:00	17151	93	-57.3	-84.0	291	9
2023-08-22T00:00	17176	92	-57.3	-84.0	288	9
2023-08-22T00:00	17197	92	-57.3	-84.0	284	8
2023-08-22T00:00	17224	92	-57.5	-84.2	279	7
2023-08-22T00:00	17251	91	-57.3	-84.4	273	7
2023-08-22T00:00	17276	91	-57.3	-84.0	267	6
2023-08-22T00:00	17301	90	-57.4	-84.1	261	6
2023-08-22T00:00	17325	90	-57.5	-84.2	256	7
2023-08-22T00:00	17351	90	-57.7	-84.3	253	7
2023-08-22T00:00	17377	89	-57.9	-84.2	251	8
2023-08-22T00:00	17397	89	-58.0	-84.2	251	8
2023-08-22T00:00	17419	89	-58.2	-84.4	252	8
2023-08-22T00:00	17443	88	-58.4	-84.6	253	8
2023-08-22T00:00	17462	88	-58.6	-84.4	255	8
2023-08-22T00:00	17486	88	-58.7	-84.5	256	9
2023-08-22T00:00	17510	87	-59.0	-84.7	256	9
2023-08-22T00:00	17532	87	-59.2	-84.9	257	9
2023-08-22T00:00	17554	87	-59.3	-85.0	259	9
2023-08-22T00:00	17574	87	-59.5	-85.1	260	9
2023-08-22T00:00	17595	86	-59.1	-85.1	263	9
2023-08-22T00:00	17616	86	-58.8	-84.9	265	8
2023-08-22T00:00	17642	86	-58.8	-85.2	267	8
2023-08-22T00:00	17663	85	-58.8	-85.2	269	7
2023-08-22T00:00	17683	85	-58.6	-85.4	269	7
2023-08-22T00:00	17702	85	-58.2	-85.0	269	7
2023-08-22T00:00	17722	85	-58.1	-85.0	268	7
2023-08-22T00:00	17748	84	-58.0	-84.9	267	8
2023-08-22T00:00	17764	84	-58.1	-85.0	266	8
2023-08-22T00:00	17786	84	-58.2	-85.0	265	9
2023-08-22T00:00	17808	83	-58.4	-84.9	265	9
2023-08-22T00:00	17827	83	-58.5	-84.9	266	10
2023-08-22T00:00	17850	83	-58.7	-85.1	269	10
2023-08-22T00:00	17871	83	-58.5	-84.9	272	10
2023-08-22T00:00	17890	82	-58.3	-85.1	276	10
2023-08-22T00:00	17912	82	-58.3	-85.1	280	10
2023-08-22T00:00	17933	82	-58.3	-85.1	283	10
2023-08-22T00:00	17955	81	-58.3	-85.1	285	9
2023-08-22T00:00	17980	81	-58.1	-85.0	286	9
2023-08-22T00:00	18003	81	-58.2	-85.0	287	8
2023-08-22T00:00	18022	81	-58.3	-85.1	288	8
2023-08-22T00:00	18042	80	-58.2	-85.4	287	7
2023-08-22T00:00	18065	80	-58.0	-85.2	287	6
2023-08-22T00:00	18085	80	-57.9	-85.2	286	6
2023-08-22T00:00	18108	80	-58.0	-85.2	284	6
2023-08-22T00:00	18132	79	-58.0	-85.2	281	6
2023-08-22T00:00	18153	79	-57.9	-85.2	278	6
2023-08-22T00:00	18177	79	-57.7	-85.0	275	6
2023-08-22T00:00	18196	78	-57.7	-85.0	274	6
2023-08-22T00:00	18220	78	-57.7	-85.0	274	6
2023-08-22T00:00	18242	78	-57.8	-85.1	275	6
2023-08-22T00:00	18268	78	-58.0	-85.2	277	6
2023-08-22T00:00	18290	77	-57.9	-85.2	279	5
2023-08-22T00:00	18315	77	-57.6	-84.9	280	5
2023-08-22T00:00	18340	77	-57.5	-85.2	280	4
2023-08-22T00:00	18363	76	-57.4	-85.2	277	4
2023-08-22T00:00	18381	76	-57.3	-85.1	273	4
2023-08-22T00:00	18407	76	-57.2	-85.0	268	4
2023-08-22T00:00	18430	76	-57.2	-85.0	264	4
2023-08-22T00:00	18454	75	-57.4	-85.2	262	5
2023-08-22T00:00	18474	75	-57.6	-84.9	261	5
2023-08-22T00:00	18501	75	-57.7	-85.0	262	5
2023-08-22T00:00	18521	74	-57.9	-85.2	265	5
2023-08-22T00:00	18544	74	-58.0	-85.2	270	6
2023-08-22T00:00	18569	74	-58.0	-85.2	277	6
2023-08-22T00:00	18589	74	-58.0	-85.2	283	6
2023-08-22T00:00	18612	73	-58.1	-85.3	290	6
2023-08-22T00:00	18635	73	-58.2	-85.4	295	6
2023-08-22T00:00	18656	73	-58.2	-85.4	299	5
2023-08-22T00:00	18677	73	-58.3	-85.5	301	5
2023-08-22T00:00	18698	72	-58.2	-85.4	301	5
2023-08-22T00:00	18724	72	-58.3	-85.5	299	5
2023-08-22T00:00	18748	72	-58.3	-85.5	293	4
2023-08-22T00:00	18768	72	-58.2	-85.4	285	4
2023-08-22T00:00	18791	71	-58.1	-85.3	278	4
2023-08-22T00:00	18815	71	-58.0	-85.6	273	5
2023-08-22T00:00	18831	71	-58.1	-85.7	270	5
2023-08-22T00:00	18856	71	-58.1	-85.7	270	6
2023-08-22T00:00	18877	70	-58.1	-85.3	271	6
2023-08-22T00:00	18895	70	-58.3	-85.5	273	7
2023-08-22T00:00	18918	70	-58.5	-85.6	276	7
2023-08-22T00:00	18937	70	-58.3	-85.8	279	7
2023-08-22T00:00	18961	69	-58.1	-85.7	283	7
2023-08-22T00:00	18980	69	-58.0	-85.6	288	7
2023-08-22T00:00	19003	69	-57.8	-85.5	294	7
2023-08-22T00:00	19019	69	-57.8	-85.5	301	7
2023-08-22T00:00	19043	69	-57.8	-85.9	308	6
2023-08-22T00:00	19064	68	-57.8	-85.9	315	6
2023-08-22T00:00	19089	68	-57.5	-85.6	322	6
2023-08-22T00:00	19108	68	-57.3	-85.5	329	5
2023-08-22T00:00	19136	68	-57.1	-85.3	335	4
2023-08-22T00:00	19154	67	-56.9	-85.2	342	4
2023-08-22T00:00	19174	67	-56.9	-85.2	347	3
2023-08-22T00:00	19199	67	-56.8	-85.1	353	2
2023-08-22T00:00	19221	67	-56.9	-85.2	359	2
2023-08-22T00:00	19242	66	-57.0	-85.2	9	1
2023-08-22T00:00	19264	66	-57.0	-85.2	28	1
2023-08-22T00:00	19285	66	-57.1	-85.3	63	1
2023-08-22T00:00	19310	66	-57.0	-85.2	106	1
2023-08-22T00:00	19329	66	-57.0	-85.2	136	1
2023-08-22T00:00	19354	65	-57.0	-85.2	153	1
2023-08-22T00:00	19373	65	-57.2	-85.0	162	2
2023-08-22T00:00	19396	65	-57.4	-85.2	168	2
2023-08-22T00:00	19420	65	-57.6	-85.3	172	2
2023-08-22T00:00	19441	64	-57.8	-85.5	176	2
2023-08-22T00:00	19458	64	-57.9	-85.5	182	3
2023-08-22T00:00	19483	64	-58.0	-85.6	190	3
2023-08-22T00:00	19506	64	-58.1	-85.7	198	3
2023-08-22T00:00	19531	63	-58.3	-85.8	206	3
2023-08-22T00:00	19551	63	-58.2	-85.8	216	3
2023-08-22T00:00	19573	63	-58.0	-85.6	227	3
2023-08-22T00:00	19600	63	-58.0	-85.6	238	3
2023-08-22T00:00	19623	63	-57.9	-85.5	249	3
2023-08-22T00:00	19642	62	-57.9		261	3
2023-08-22T00:00	19670	62	-57.9		272	2
2023-08-22T00:00	19692	62	-57.8	-85.9	284	2
2023-08-22T00:00	19714	62	-57.7	-85.8	297	2
2023-08-22T00:00	19736	61	-57.8	-85.9	313	1
2023-08-22T00:00	19763	61	-57.9		339	1
2023-08-22T00:00	19784	61	-58.0	-86.0	35	1
2023-08-22T00:00	19808	61	-57.9		82	1
2023-08-22T00:00	19829	61	-57.8	-85.9	100	1
2023-08-22T00:00	19854	60	-57.7	-85.8	111	1
2023-08-22T00:00	19875	60	-57.7	-85.8	122	1
2023-08-22T00:00	19900	60	-57.6	-85.7	137	1
2023-08-22T00:00	19923	60	-57.6	-85.7	153	2
2023-08-22T00:00	19949	59	-57.5	-85.6	164	2
2023-08-22T00:00	19970	59	-57.1	-85.7	173	3
2023-08-22T00:00	19994	59	-57.0	-85.7	181	3
2023-08-22T00:00	20019	59	-57.0	-85.7	189	4
2023-08-22T00:00	20039	59	-56.7	-85.4	198	4
2023-08-22T00:00	20064	58	-56.6	-85.4	206	4
2023-08-22T00:00	20088	58	-56.7	-85.4	215	4
2023-08-22T00:00	20110	58	-56.8	-85.5	224	4
2023-08-22T00:00	20135	58	-56.9	-85.2	234	4
2023-08-22T00:00	20152	57	-57.0	-85.2	243	4
2023-08-22T00:00	20177	57	-57.1	-85.3	250	5
2023-08-22T00:00	20201	57	-57.1	-85.3	256	5
2023-08-22T00:00	20223	57	-57.0	-85.2	261	5
2023-08-22T00:00	20248	57	-57.0	-85.2	266	5
2023-08-22T00:00	20265	56	-57.1	-85.3	273	5
2023-08-22T00:00	20289	56	-57.1	-85.3	282	5
2023-08-22T00:00	20310	56	-57.0	-85.2	293	4
2023-08-22T00:00	20338	56	-57.0	-85.2	305	3
2023-08-22T00:00	20355	56	-57.0	-85.7	317	3
2023-08-22T00:00	20379	55	-56.9	-85.6	331	2
2023-08-22T00:00	20404	55	-56.7	-85.4	346	2
2023-08-22T00:00	20420	55	-56.7	-85.4	3	1
2023-08-22T00:00	20444	55	-56.7	-85.4	18	1
2023-08-22T00:00	20470	55	-56.6	-85.4	14	0
2023-08-22T00:00	20494	55	-56.7	-85.4	328	0
2023-08-22T00:00	20513	54	-56.6	-85.4	311	1
2023-08-22T00:00	20534	54	-56.5	-85.3	315	1
2023-08-22T00:00	20559	54	-56.4	-85.2	323	2
2023-08-22T00:00	20584	54	-56.3	-85.1	331	3
2023-08-22T00:00	20606	54	-56.1	-85.0	338	3
2023-08-22T00:00	20627	53	-56.3	-85.1	344	3
2023-08-22T00:00	20654	53	-56.3	-85.1	352	3
2023-08-22T00:00	20675	53	-56.3	-85.1	2	3
2023-08-22T00:00	20701	53	-56.2	-85.1	17	3
2023-08-22T00:00	20726	53	-56.2	-85.1	37	3
2023-08-22T00:00	20749	52	-56.1	-85.0	58	3
2023-08-22T00:00	20772	52	-55.9	-85.3	76	3
2023-08-22T00:00	20793	52	-55.5	-85.0	90	3
2023-08-22T00:00	20817	52	-55.5	-85.0	100	3
2023-08-22T00:00	20838	52	-55.5	-85.0	107	4
2023-08-22T00:00	20863	51	-55.5	-85.0	113	4
2023-08-22T00:00	20890	51	-55.5	-85.0	117	4
2023-08-22T00:00	20914	51	-55.5	-84.5	120	4
2023-08-22T00:00	20939	51	-55.4	-84.5	122	4
2023-08-22T00:00	20966	51	-55.5	-84.5	123	3
2023-08-22T00:00	20988	50	-55.6	-84.6	125	3
2023-08-22T00:00	21013	50	-55.6	-84.6	127	2
2023-08-22T00:00	21037	50	-55.8	-84.8	130	2
2023-08-22T00:00	21059	50	-55.9	-84.8	133	1
2023-08-22T00:00	21083	50	-56.0	-84.9	126	0
2023-08-22T00:00	21116	49	-56.1	-85.0	31	0
2023-08-22T00:00	21133	49	-56.1	-85.0	19	1
2023-08-22T00:00	21153	49	-56.1	-85.0	29	1
2023-08-22T00:00	21183	49	-56.0	-84.9	40	2
2023-08-22T00:00	21206	49	-55.8	-84.8	51	2
2023-08-22T00:00	21232	49	-55.9	-84.8	60	3
2023-08-22T00:00	21254	48	-55.9	-84.8	69	3
2023-08-22T00:00	21275	48	-55.9	-84.8	75	3
2023-08-22T00:00	21301	48	-56.0	-84.9	80	3
2023-08-22T00:00	21326	48	-56.2	-85.1	82	3
2023-08-22T00:00	21355	48	-56.3	-85.1	81	2
2023-08-22T00:00	21373	47	-56.2	-85.1	75	2
2023-08-22T00:00	21398	47	-56.2	-85.1	67	2
2023-08-22T00:00	21423	47	-56.2	-85.1	60	2
2023-08-22T00:00	21446	47	-56.0	-84.9	56	3
2023-08-22T00:00	21471	47	-55.9	-84.8	55	3
2023-08-22T00:00	21495	47	-55.9	-84.8	55	3
2023-08-22T00:00	21519	46	-55.8	-84.8	56	3
2023-08-22T00:00	21540	46	-55.8	-84.8	56	3
2023-08-22T00:00	21567	46	-56.0	-84.9	55	3
2023-08-22T00:00	21593	46	-56.0		51	3
2023-08-22T00:00	21615	46	-55.6	-85.1	45	2
2023-08-22T00:00	21643	46	-55.6	-85.1	37	2
2023-08-22T00:00	21663	45	-55.7	-85.2	30	2
2023-08-22T00:00	21686	45	-55.6	-85.1	27	2
2023-08-22T00:00	21706	45	-55.6	-85.1	29	1
2023-08-22T00:00	21735	45	-55.7	-84.7	36	1
2023-08-22T00:00	21758	45	-55.6	-84.6	51	1
2023-08-22T00:00	21783	45	-55.6	-84.6	71	1
2023-08-22T00:00	21804	44	-55.7	-84.7	92	1
2023-08-22T00:00	21823	44	-55.7	-84.7	108	2
2023-08-22T00:00	21847	44	-55.8	-84.8	119	2
2023-08-22T00:00	21873	44	-55.8	-84.8	125	2
2023-08-22T00:00	21898	44	-55.9	-84.8	127	2
2023-08-22T00:00	21911	44	-55.8	-84.8	125	2
2023-08-22T00:00	21942	43	-55.8	-84.8	119	2
2023-08-22T00:00	21966	43	-55.8	-84.8	112	2
2023-08-22T00:00	21987	43	-55.8	-84.8	105	1
2023-08-22T00:00	22011	43	-55.7	-84.7	98	1
2023-08-22T00:00	22034	43	-55.7	-84.7	92	1
2023-08-22T00:00	22060	43	-55.7	-85.2	84	1
2023-08-22T00:00	22083	42	-55.8	-85.2	74	1
2023-08-22T00:00	22106	42	-55.7	-85.2	65	1
2023-08-22T00:00	22131	42	-55.6	-85.1	58	1
2023-08-22T00:00	22149	42	-55.6	-85.1	55	1
2023-08-22T00:00	22177	42	-55.6	-85.1	56	1
2023-08-22T00:00	22198	42	-55.4	-84.9	60	1
2023-08-22T00:00	22222	42	-55.4	-84.9	68	1
2023-08-22T00:00	22249	41	-55.4	-84.9	80	1
2023-08-22T00:00	22273	41	-55.3	-84.9	91	1
2023-08-22T00:00	22297	41	-55.0	-84.6	96	1
2023-08-22T00:00	22317	41	-55.0	-84.6	96	2
2023-08-22T00:00	22339	41	-55.1	-84.7	91	2
2023-08-22T00:00	22364	41	-55.0	-84.6	84	2
2023-08-22T00:00	22385	40	-55.0	-84.6	77	2
2023-08-22T00:00	22412	40	-55.1	-84.7	71	3
2023-08-22T00:00	22434	40	-55.1	-84.7	67	3
2023-08-22T00:00	22462	40	-55.1	-84.7	64	4
2023-08-22T00:00	22484	40	-55.3	-84.9	62	5
2023-08-22T00:00	22507	40	-55.1	-84.7	62	5
2023-08-22T00:00	22531	40	-54.9	-85.1	62	6
2023-08-22T00:00	22553	39	-54.6	-84.8	62	6
2023-08-22T00:00	22576	39	-54.3	-84.6	61	7
2023-08-22T00:00	22604	39	-54.3	-84.6	61	7
2023-08-22T00:00	22621	39	-54.4	-84.7	62	7
2023-08-22T00:00	22647	39	-54.5	-84.8	63	6
2023-08-22T00:00	22674	39	-54.6	-84.8	64	6
2023-08-22T00:00	22689	39	-54.4	-84.7	67	5
2023-08-22T00:00	22715	38	-54.5	-84.8	70	5
2023-08-22T00:00	22738	38	-54.5	-84.3	74	5
2023-08-22T00:00	22761	38	-54.6	-84.3	79	5
2023-08-22T00:00	22783	38	-54.6	-84.8	85	5
2023-08-22T00:00	22811	38	-54.5	-84.8	91	5
2023-08-22T00:00	22828	38	-54.5	-84.8	97	5
2023-08-22T00:00	22849	38	-54.5	-84.8	102	5
2023-08-22T00:00	22878	38	-54.6	-84.8	105	5
2023-08-22T00:00	22900	37	-54.6	-84.8	107	5
2023-08-22T00:00	22926	37	-54.6	-84.3	107	4
2023-08-22T00:00	22953	37	-54.7	-84.4	106	4
2023-08-22T00:00	22974	37	-54.8	-84.5	104	4
2023-08-22T00:00	22999	37	-54.8	-84.5	101	4
2023-08-22T00:00	23023	37	-54.9	-85.1	97	4
2023-08-22T00:00	23044	37	-54.9	-85.1	94	4
2023-08-22T00:00	23072	36	-54.9	-85.1	92	4
2023-08-22T00:00	23094	36	-54.8	-85.0	93	4
2023-08-22T00:00	23113	36	-54.7	-84.9	97	4
2023-08-22T00:00	23139	36	-54.5	-84.8	103	4
2023-08-22T00:00	23170	36	-54.1	-84.5	109	4
2023-08-22T00:00	23189	36	-54.2	-84.5	114	4
2023-08-22T00:00	23219	36	-54.2	-84.5	118	4
2023-08-22T00:00	23240	35	-54.1	-84.5	121	4
2023-08-22T00:00	23269	35	-54.0	-84.4	122	4
2023-08-22T00:00	23293	35	-54.0	-84.4	122	4
2023-08-22T00:00	23316	35	-54.1	-84.5	120	3
2023-08-22T00:00	23344	35	-54.2	-84.5	114	3
2023-08-22T00:00	23366	35	-54.4	-84.7	101	3
2023-08-22T00:00	23391	35	-54.5	-84.8	83	3
2023-08-22T00:00	23416	34	-54.6	-84.8	64	3
2023-08-22T00:00	23446	34	-54.5	-84.8	50	3
2023-08-22T00:00	23467	34	-54.5	-84.8	42	4
2023-08-22T00:00	23492	34	-54.5	-84.8	35	4
2023-08-22T00:00	23513	34	-54.4	-84.7	30	5
2023-08-22T00:00	23546	34	-54.4	-84.7	24	5
2023-08-22T00:00	23573	34	-54.3	-84.6	19	5
2023-08-22T00:00	23596	34	-54.3	-84.6	16	5
2023-08-22T00:00	23619	33	-54.1	-85.0	15	5
2023-08-22T00:00	23648	33	-54.1	-85.0	16	5
2023-08-22T00:00	23664	33	-54.0	-84.9	20	5
2023-08-22T00:00	23696	33	-53.8	-84.8	25	5
2023-08-22T00:00	23717	33	-53.7	-84.7	30	5
2023-08-22T00:00	23744	33	-53.7	-84.7	35	5
2023-08-22T00:00	23766	33	-53.7	-84.2	40	5
2023-08-22T00:00	23799	32	-53.7	-84.2	44	6
2023-08-22T00:00	23819	32	-53.7	-84.2	48	6
2023-08-22T00:00	23848	32	-53.8	-84.2	52	7
2023-08-22T00:00	23874	32	-53.9	-84.3	55	7
2023-08-22T00:00	23895	32	-53.9	-84.3	56	7
2023-08-22T00:00	23921	32	-53.7	-84.7	57	7
2023-08-22T00:00	23948	32	-53.6	-84.6	56	7
2023-08-22T00:00	23975	32	-53.6	-84.6	55	7
2023-08-22T00:00	23992	32	-53.7	-84.7	53	7
2023-08-22T00:00	24015	31	-53.7	-84.7	50	7
2023-08-22T00:00	24050	31	-53.8	-84.8	49	7
2023-08-22T00:00	24070	31	-53.8	-84.2	48	7
2023-08-22T00:00	24093	31	-53.8	-84.2	49	7
2023-08-22T00:00	24118	31	-53.8	-84.2	51	7
2023-08-22T00:00	24141	31	-53.7	-84.2	53	7
2023-08-22T00:00	24161	31	-53.5	-84.0	56	7
2023-08-22T00:00	24191	31	-53.5	-84.0	59	7
2023-08-22T00:00	24215	30	-53.5	-84.6	60	6
2023-08-22T00:00	24234	30	-53.6	-84.6	61	6
2023-08-22T00:00	24265	30	-53.7	-84.7	61	6
2023-08-22T00:00	24289	30	-53.7	-84.2	61	6
2023-08-22T00:00	24314	30	-53.7	-84.2	62	6
2023-08-22T00:00	24336	30	-53.6	-84.1	62	6
2023-08-22T00:00	24365	30	-53.5	-84.0	62	6
2023-08-22T00:00	24382	30	-53.5	-84.0	62	5
2023-08-22T00:00	24406	30	-53.4	-84.5	62	5
2023-08-22T00:00	24433	29	-53.3	-84.4	60	5
2023-08-22T00:00	24451	29	-53.2	-84.4	59	5
2023-08-22T00:00	24478	29	-53.3	-84.4	57	5
2023-08-22T00:00	24511	29	-53.3	-84.4	55	5
2023-08-22T00:00	24530	29	-53.3	-84.4	55	5
2023-08-22T00:00	24552	29	-53.3	-84.4	56	5
2023-08-22T00:00	24576	29	-53.2	-84.4	58	5
2023-08-22T00:00	24603	29	-53.2	-84.4	61	5
2023-08-22T00:00	24627	29	-53.2	-84.4	64	5
2023-08-22T00:00	24656	28	-53.3	-84.4	67	6
2023-08-22T00:00	24676	28	-53.2	-84.4	69	6
2023-08-22T00:00	24696	28	-53.1	-84.3	71	7
2023-08-22T00:00	24727	28	-53.2	-84.4	73	7
2023-08-22T00:00	24751	28	-53.2	-84.4	76	7
2023-08-22T00:00	24781	28	-53.2	-84.4	78	7
2023-08-22T00:00	24810	28	-53.1	-84.3	81	6
2023-08-22T00:00	24833	28	-53.1	-84.3	84	6
2023-08-22T00:00	24862	28	-53.1	-84.3	87	6
2023-08-22T00:00	24887	27	-53.2	-83.8	89	6
2023-08-22T00:00	24903	27	-53.2	-83.8	92	6
2023-08-22T00:00	24939	27	-53.4	-83.9	94	6
2023-08-22T00:00	24957	27	-53.5	-84.0	97	6
2023-08-22T00:00	24984	27	-53.6	-84.1	101	6
2023-08-22T00:00	25013	27	-53.7	-84.2	104	6
2023-08-22T00:00	25038	27	-53.6	-84.1	107	5
2023-08-22T00:00	25062	27	-53.7	-84.2	109	5
2023-08-22T00:00	25093	27	-53.6	-84.1	109	5
2023-08-22T00:00	25119	26	-53.6	-84.6	108	4
2023-08-22T00:00	25144	26	-53.6	-84.6	106	4
2023-08-22T00:00	25167	26	-53.7	-84.7	103	4
2023-08-22T00:00	25199	26	-53.6	-84.6	102	4
2023-08-22T00:00	25220	26	-53.6	-84.6	101	4
2023-08-22T00:00	25246	26	-53.5	-84.6	102	4
2023-08-22T00:00	25272	26	-53.5	-84.6	104	4
2023-08-22T00:00	25304	26	-53.5	-84.6	105	4
2023-08-22T00:00	25327	26	-53.4	-84.5	105	4
2023-08-22T00:00	25357	26	-53.4	-84.5	103	3
2023-08-22T00:00	25380	25	-53.4	-84.5	96	3
2023-08-22T00:00	25405	25	-53.3	-84.4	84	2
2023-08-22T00:00	25426	25	-52.9	-84.1	70	2
2023-08-22T00:00	25451	25	-52.6	-83.9	61	2
2023-08-22T00:00	25480	25	-52.7	-84.0	58	2
2023-08-22T00:00	25508	25	-52.6	-84.5	61	3
2023-08-22T00:00	25534	25	-52.7	-84.6	66	3
2023-08-22T00:00	25557	25	-52.6	-84.5	71	4
2023-08-22T00:00	25582	25	-52.6	-84.5	76	4
2023-08-22T00:00	25601	25	-52.5	-84.4	81	5
2023-08-22T00:00	25631	24	-52.2	-84.2	86	5
2023-08-22T00:00	25665	24	-52.0	-84.1	92	6
2023-08-22T00:00	25682	24	-51.8	-83.9	99	6
2023-08-22T00:00	25708	24	-51.8	-83.9	106	6
2023-08-22T00:00	25743	24	-51.8	-83.9	113	6
2023-08-22T00:00	25761	24	-51.8	-83.9	120	6
2023-08-22T00:00	25782	24	-51.7	-83.9	125	6
2023-08-22T00:00	25802	24	-51.6	-83.8	128	5
2023-08-22T00:00	25829	24	-51.5	-83.7	130	5
2023-08-22T00:00	25851	24	-51.5	-83.7	130	4
2023-08-22T00:00	25880	24	-51.3	-83.6	128	4
2023-08-22T00:00	25899	23	-51.0	-83.3	124	3
2023-08-22T00:00	25920	23	-50.8	-83.9	119	3
2023-08-22T00:00	25952	23	-50.5	-83.7	113	2
2023-08-22T00:00	25978	23	-50.3	-83.5	106	2
2023-08-22T00:00	26004	23	-50.1	-83.4	100	1
2023-08-22T00:00	26031	23	-49.9	-83.2	100	1
2023-08-22T00:00	26052	23	-49.8	-83.2	115	1
2023-08-22T00:00	26081	23	-49.8	-83.2	152	1
2023-08-22T00:00	26110	23	-49.8	-83.2	178	1
2023-08-22T00:00	26127	23	-49.9	-83.2	189	1
2023-08-22T00:00	26153	23	-49.7	-83.1	195	1
2023-08-22T00:00	26188	22	-49.7	-83.1	206	0
2023-08-22T00:00	26212	22	-49.6	-83.0	3	0
2023-08-22T00:00	26239	22	-49.3	-82.8	13	1
2023-08-22T00:00	26259	22	-49.0	-82.6	18	2
2023-08-22T00:00	26276	22	-48.9	-82.5	22	2
2023-08-22T00:00	26320	22	-48.7	-82.4	26	3
2023-08-22T00:00	26339	22	-48.8	-82.4	30	3
2023-08-22T00:00	26373	22	-48.8	-82.4	35	4
2023-08-22T00:00	26404	22	-48.9	-82.5	39	4
2023-08-22T00:00	26431	22	-49.0	-82.6	43	4
2023-08-22T00:00	26452	22	-48.9	-82.5	47	5
2023-08-22T00:00	26481	21	-48.8	-82.4	51	5
2023-08-22T00:00	26509	21	-48.8	-82.4	56	5
2023-08-22T00:00	26533	21	-48.7	-82.4	63	5
2023-08-22T00:00	26558	21	-48.8	-82.4	72	5
2023-08-22T00:00	26588	21	-48.7	-82.4	84	5
2023-08-22T00:00	26622	21	-48.7	-82.4	96	5
2023-08-22T00:00	26646	21	-48.8	-82.4	107	5
2023-08-22T00:00	26666	21	-48.9	-82.5	114	5
2023-08-22T00:00	26705	21	-48.8	-82.4	116	5
2023-08-22T00:00	26726	21	-48.9	-82.5	115	5
2023-08-22T00:00	26753	21	-48.8	-82.4	110	4
2023-08-22T00:00	26780	21	-48.7	-82.4	103	4
2023-08-22T00:00	26807	20	-48.5	-82.2	96	4
2023-08-22T00:00	26835	20	-48.4	-82.2	89	5
2023-08-22T00:00	26863	20	-48.2	-82.8	84	5
2023-08-22T00:00	26885	20	-48.0	-82.7	80	5
2023-08-22T00:00	26912	20	-47.7	-82.4	78	5
2023-08-22T00:00	26931	20	-47.4	-82.2	76	5
2023-08-22T00:00	26962	20	-47.2	-82.1	75	5
2023-08-22T00:00	26979	20	-47.2	-82.1	75	5
2023-08-22T00:00	27009	20	-47.1	-82.0	76	5
2023-08-22T00:00	27040	20	-47.2	-82.1	77	5
2023-08-22T00:00	27061	20	-47.1	-82.0	79	5
2023-08-22T00:00	27082	20	-47.0	-81.9	80	5
2023-08-22T00:00	27117	20	-47.0	-81.9	82	5
2023-08-22T00:00	27138	19	-47.0	-81.9	85	5
2023-08-22T00:00	27160	19	-47.1	-82.0	89	5
2023-08-22T00:00	27191	19	-47.2	-82.1	92	5
2023-08-22T00:00	27216	19	-47.2	-82.1	95	5
2023-08-22T00:00	27221	19	-47.2	-82.1	95	5
2023-08-22T00:00	27257	19	-47.1	-82.0	95	5
2023-08-22T00:00	27278	19	-47.0	-81.9	93	5
2023-08-22T00:00	27296	19	-46.6	-81.7	90	4
2023-08-22T00:00	27323	19	-46.5	-81.6	86	3
2023-08-22T00:00	27353	19	-46.6	-81.7	81	3
2023-08-22T00:00	27381	19	-46.8	-81.8	78	2
2023-08-22T00:00	27402	19	-46.7	-81.7	80	2
2023-08-22T00:00	27430	19	-46.6	-81.7	88	2
2023-08-22T00:00	27459	19	-46.5	-81.6	100	2
2023-08-22T00:00	27478	18	-46.4	-81.5	112	2
2023-08-22T00:00	27513	18	-46.3	-81.4	122	2
2023-08-22T00:00	27534	18	-46.1	-81.3	130	3
2023-08-22T00:00	27556	18	-46.2	-81.4	138	3
2023-08-22T00:00	27591	18	-46.2	-81.4	146	3
2023-08-22T00:00	27619	18	-46.2	-81.4	153	2
2023-08-22T00:00	27640	18	-46.0	-81.2	158	2
2023-08-22T00:00	27667	18	-45.9	-81.2	152	1
2023-08-22T00:00	27696	18	-45.8	-81.1	59	1
2023-08-22T00:00	27720	18	-45.6	-80.9	36	1
2023-08-22T00:00	27745	18	-45.2	-81.6	41	2
2023-08-22T00:00	27783	18	-45.0	-81.4	51	3
2023-08-22T00:00	27799	18	-44.8	-81.3	62	3
2023-08-22T00:00	27835	18	-44.6	-81.2	72	4
2023-08-22T00:00	27864	17	-44.7	-81.2	82	4
2023-08-22T00:00	27894	17	-44.6	-81.2	90	5
2023-08-22T00:00	27920	17	-44.6	-80.2	97	5
2023-08-22T00:00	27943	17	-44.7	-80.3	102	5
2023-08-22T00:00	27982	17	-44.6	-80.2	107	5
2023-08-22T00:00	28007	17	-44.5	-80.1	112	5
2023-08-22T00:00	28039	17	-44.4	-80.1	118	4
2023-08-22T00:00	28062	17	-44.3	-80.9	125	3
2023-08-22T00:00	28100	17	-44.4	-81.0	135	3
2023-08-22T00:00	28115	17	-44.5	-81.1	149	2
2023-08-22T00:00	28153	17	-44.3	-80.0	163	2
2023-08-22T00:00	28183	17	-44.2	-79.9	177	2
2023-08-22T00:00	28205	17	-44.3	-80.0	188	2
2023-08-22T00:00	28243	16	-44.5	-80.1	198	2
2023-08-22T00:00	28268	16	-44.6	-80.2	207	2
2023-08-22T00:00	28283	16	-44.8	-80.4	216	2
2023-08-22T00:00	28323	16	-44.9	-80.4	223	2
2023-08-22T00:00	28343	16	-44.9	-80.4	228	2
2023-08-22T00:00	28373	16	-45.1	-80.6	232	2
2023-08-22T00:00	28408	16	-45.3	-80.7	235	3
2023-08-22T00:00	28426	16	-45.5	-80.9	239	3
2023-08-22T00:00	28462	16	-45.7	-81.0	244	3
2023-08-22T00:00	28490	16	-45.9	-81.2	251	3
2023-08-22T00:00	28511	16	-46.0	-81.2	258	4
2023-08-22T00:00	28544	16	-46.1	-81.3	265	4
2023-08-22T00:00	28566	16	-46.2	-81.4	271	4
2023-08-22T00:00	28594	16	-46.0	-81.2	278	4
2023-08-22T00:00	28622	16	-45.9	-81.2	285	5
2023-08-22T00:00	28653	16	-45.8	-82.0	292	4
2023-08-22T00:00	28674	15	-45.8	-82.0	301	4
2023-08-22T00:00	28694	15	-45.8	-81.1	310	4
2023-08-22T00:00	28714	15	-45.7	-81.0	318	4
2023-08-22T00:00	28757	15	-45.8	-81.1	326	4
2023-08-22T00:00	28769	15	-45.8	-81.1	333	3
2023-08-22T00:00	28791	15	-45.9	-82.1	339	3
2023-08-22T00:00	28830	15	-45.9	-82.1	344	3
2023-08-22T00:00	28866	15	-45.9	-82.1	350	3
2023-08-22T00:00	28882	15	-45.6	-81.9	359	2
2023-08-22T00:00	28909	15	-45.4	-81.7	11	2
2023-08-22T00:00	28929	15	-45.3	-81.6	30	2
2023-08-22T00:00	28966	15	-45.2	-81.6	49	2
2023-08-22T00:00	28988	15	-45.0	-81.4	63	3
2023-08-22T00:00	29017	15	-44.8	-81.3	73	3
2023-08-22T00:00	29040	15	-44.7	-81.2	79	4
2023-08-22T00:00	29062	15	-44.6	-81.2	83	4
2023-08-22T00:00	29092	15	-44.6	-81.2	86	4
2023-08-22T00:00	29111	14	-44.4	-81.0	87	4
2023-08-22T00:00	29150	14	-44.4	-81.0	88	3
2023-08-22T00:00	29171	14	-44.5	-81.1	86	2
2023-08-22T00:00	29198	14	-44.5	-81.1	79	2
2023-08-22T00:00	29229	14	-44.5	-81.1	62	1
2023-08-22T00:00	29244	14	-44.6	-81.2	34	1
2023-08-22T00:00	29268	14	-44.7	-81.2	7	2
2023-08-22T00:00	29301	14	-44.7	-81.2	350	2
2023-08-22T00:00	29337	14	-44.6	-81.2	341	3
2023-08-22T00:00	29359	14	-44.6	-81.2	335	4
2023-08-22T00:00	29393	14	-44.5	-81.1	332	4
2023-08-22T00:00	29412	14	-44.5	-81.1	331	4
2023-08-22T00:00	29436	14	-44.5	-81.1	334	4
2023-08-22T00:00	29468	14	-44.4	-81.0	341	4
2023-08-22T00:00	29486	14	-44.4	-81.0	354	3
2023-08-22T00:00	29518	14	-44.5	-81.1	11	3
2023-08-22T00:00	29553	14	-44.5	-81.1	29	3
2023-08-22T00:00	29573	13	-44.4	-81.0	45	3
2023-08-22T00:00	29596	13	-44.3	-80.9	57	3
2023-08-22T00:00	29636	13	-44.3	-80.9	67	4
2023-08-22T00:00	29660	13	-44.3	-80.9	76	4
2023-08-22T00:00	29688	13	-44.2	-80.9	86	4
2023-08-22T00:00	29720	13	-44.1	-80.8	96	4
2023-08-22T00:00	29757	13	-43.9	-80.7	107	4
2023-08-22T00:00	29778	13	-43.9	-80.7	118	5
2023-08-22T00:00	29801	13	-43.8	-80.6	129	5
2023-08-22T00:00	29833	13	-43.8	-80.6	140	5
2023-08-22T00:00	29855	13	-43.7	-80.5	150	5
2023-08-22T00:00	29883	13	-43.8	-80.6	159	5
2023-08-22T00:00	29914	13	-43.8	-80.6	168	5
2023-08-22T00:00	29932	13	-43.6	-80.4	175	5
2023-08-22T00:00	29972	13	-43.6	-80.4	182	5
2023-08-22T00:00	29996	13	-43.6	-81.5	190	5
2023-08-22T00:00	30031	13	-43.6	-81.5	200	4
2023-08-22T00:00	30050	13	-43.6	-81.5	210	4
2023-08-22T00:00	30083	13	-43.4	-81.4	222	3
2023-08-22T00:00	30106	12	-43.4	-81.4	237	3
2023-08-22T00:00	30134	12	-43.3	-81.3	255	3
2023-08-22T00:00	30149	12	-43.2	-81.3	280	2
2023-08-22T00:00	30189	12	-42.8	-81.0	309	2
2023-08-22T00:00	30222	12	-42.5	-80.8	333	2
2023-08-22T00:00	30249	12	-42.1	-80.5	351	3
2023-08-22T00:00	30276	12	-42.0	-80.4	3	3
2023-08-22T00:00	30307	12	-42.0	-80.4	12	3
2023-08-22T00:00	30326	12	-41.8	-80.3	20	3
2023-08-22T00:00	30355	12	-41.8	-80.3	26	3
2023-08-22T00:00	30388	12	-41.9	-80.4	30	3
2023-08-22T00:00	30414	12	-41.9	-80.4	34	3
2023-08-22T00:00	30444	12	-42.0	-80.4	36	3
2023-08-22T00:00	30463	12	-42.1	-80.5	36	3
2023-08-22T00:00	30473	12	-42.1	-80.5	33	3
2023-08-22T00:00	30496	12	-41.9	-80.4	28	3
2023-08-22T00:00	30543	12	-41.7	-80.2	22	2
2023-08-22T00:00	30556	12	-41.6	-80.1	16	3
2023-08-22T00:00	30577	12	-41.5	-80.1	13	3
2023-08-22T00:00	30606	12	-41.3	-79.9	14	2
2023-08-22T00:00	30635	12	-41.2	-79.9	20	2
2023-08-22T00:00	30650	12	-41.1	-79.8	34	2
2023-08-22T00:00	30685	11	-41.1	-79.8	51	2
2023-08-22T00:00	30713	11	-41.0	-79.7	71	3
2023-08-22T00:00	30733	11	-40.8	-79.6	86	3
2023-08-22T00:00	30762	11	-40.6	-79.5	97	3
2023-08-22T00:00	30771	11	-40.5	-79.4	106	3
2023-08-22T00:00	30798	11	-40.5	-79.4	113	3
2023-08-22T00:00	30825	11	-40.4	-79.3	119	3
2023-08-22T00:00	30856	11	-40.2	-79.2	126	3
2023-08-22T00:00	30876	11	-40.0	-79.0	132	2
2023-08-22T00:00	30917	11	-39.9	-79.0	139	2
2023-08-22T00:00	30918	11	-39.8	-78.9	141	2
2023-08-22T00:00	30956	11	-39.6	-78.8	137	1
2023-08-22T00:00	30975	11	-39.4	-78.6	122	1
2023-08-22T00:00	30997	11	-39.3	-78.5	94	1
2023-08-22T00:00	31025	11	-39.1	-78.4	67	1
2023-08-22T00:00	31056	11	-39.1	-78.4	51	2
2023-08-22T00:00	31072	11	-38.9	-78.3	42	2
2023-08-22T00:00	31099	11	-38.5	-78.0	39	2
2023-08-22T00:00	31129	11	-38.3	-77.9	39	2
2023-08-22T00:00	31142	11	-38.2	-77.8	39	2
2023-08-22T00:00	31160	11	-38.2	-77.8	41	2
2023-08-22T00:00	31207	11	-38.1	-77.7	44	2
2023-08-22T00:00	31233	11	-38.0	-77.6	50	2
2023-08-22T00:00	31245	11	-37.9	-77.6	58	2
2023-08-22T00:00	31263	11	-37.8	-77.5	70	2
2023-08-22T00:00	31298	10	-37.8	-77.5	85	2
2023-08-22T00:00	31330	10	-37.8	-77.5	104	2
2023-08-22T00:00	31356	10	-37.8	-77.5	124	2
2023-08-22T00:00	31372	10	-37.8	-77.5	139	3
2023-08-22T00:00	31412	10	-37.7	-77.4	149	3
2023-08-22T00:00	31433	10	-37.6	-77.4	157	4
2023-08-22T00:00	31462	10	-37.5	-77.3	163	4
2023-08-22T00:00	31490	10	-37.5	-77.3	168	4
2023-08-22T00:00	31508	10	-37.5	-77.3	175	4
2023-08-22T00:00	31540	10	-37.3	-77.2	181	5
2023-08-22T00:00	31550	10	-37.1	-77.0	188	5
2023-08-22T00:00	31586	10	-37.0	-77.0	194	5
2023-08-22T00:00	31610	10	-36.9	-76.9	199	4
2023-08-22T00:00	31629	10	-36.9	-76.9	203	4
2023-08-22T00:00	31661	10	-36.9	-76.9	207	4
2023-08-22T00:00	31680	10	-36.9	-76.9	212	4
2023-08-22T00:00	31720	10	-37.0	-77.0	220	3
2023-08-22T00:00	31755	10	-36.9	-76.9	253	2
2023-08-22T00:00	31772	10	-36.7	-76.7	280	2
2023-08-22T00:00	31808	10	-36.4	-76.5	306	2
2023-08-22T00:00	31821	10	-36.1	-76.3	325	3
2023-08-22T00:00	31853	10	-36.0	-76.3	339	4
2023-08-22T00:00	31876	10	-36.0	-76.3	349	4
2023-08-22T00:00	31909	10	-36.0	-76.3	356	5
2023-08-22T00:00	31931	10	-36.0	-76.3	3	6
2023-08-22T00:00	31944	10	-35.8	-76.1	9	6
2023-08-22T00:00	31979	9	-35.8	-76.1	14	7
2023-08-22T00:00	32011	9	-35.9	-76.2	18	7
2023-08-22T00:00	32035	9	-35.9	-76.2	23	8
2023-08-22T00:00	32058	9	-36.0	-76.3	27	8
2023-08-22T00:00	32074	9	-35.9	-76.2	32	8
2023-08-22T00:00	32096	9	-35.8	-76.1	36	9
2023-08-22T00:00	32114	9	-35.6	-76.0	41	9
2023-08-22T00:00	32173	9	-35.7	-76.1	46	9
2023-08-22T00:00	32187	9	-35.7	-76.1	50	9
2023-08-22T00:00	32209	9	-35.6	-76.0	55	9
2023-08-22T00:00	32220	9	-35.5	-75.9	59	8
2023-08-22T00:00	32227	9	-35.3	-75.8	62	8
2023-08-22T00:00	32260	9	-35.3	-75.8	65	8
2023-08-22T00:00	32306	9	-35.4	-75.8	67	7
2023-08-22T00:00	32330	9	-35.4	-75.8	70	7
2023-08-22T00:00	32342	9	-35.5	-75.9	72	6
2023-08-22T00:00	32394	9	-35.5	-75.9	75	6
2023-08-22T00:00	32396	9	-35.6	-76.0	77	5
2023-08-22T00:00	32426	9	-35.7	-76.1	78	5
2023-08-22T00:00	32443	9	-35.8	-76.1	77	4
2023-08-22T00:00	32481	9	-35.9	-76.2	76	4
2023-08-22T00:00	32509	9	-36.1	-76.3	74	4
2023-08-22T00:00	32529	9	-36.2	-76.4	74	3
2023-08-22T00:00	32562	9	-36.3	-76.5	76	3
2023-08-22T00:00	32586	9	-36.3	-76.5	81	3
2023-08-22T00:00	32615	9	-36.4	-76.5	88	3
2023-08-22T00:00	32639	9	-36.5	-76.6	94	3
2023-08-22T00:00	32677	9	-36.4	-76.5	96	4
2023-08-22T00:00	32701	9	-36.4	-76.5	94	4
2023-08-22T00:00	32732	9	-36.3	-76.5	91	4
2023-08-22T00:00	32752	8	-36.3	-76.5	91	4
2023-08-22T00:00	32780	8	-36.3	-76.5	93	4
2023-08-22T00:00	32816	8	-36.3	-76.5	99	4
2023-08-22T00:00	32837	8	-36.4	-76.5	110	4
2023-08-22T00:00	32868	8	-36.5	-76.6	121	4
2023-08-22T00:00	32876	8	-36.5	-76.6	131	4
2023-08-22T00:00	32923	8	-36.5	-76.6	138	5
2023-08-22T00:00	32951	8	-36.6	-76.7	143	5
2023-08-22T00:00	32961	8	-36.8	-76.8	144	5
2023-08-22T00:00	32967	8	-36.8	-76.8	144	5
2023-08-22T00:00	32996	8	-36.8	-76.8	140	4
2023-08-22T00:00	33028	8	-36.8	-76.8	135	3
2023-08-22T00:00	33046	8	-36.7	-76.7	126	3
2023-08-22T00:00	33061	8	-36.7	-76.7	115	3
2023-08-22T00:00	33102	8	-36.8	-76.8	100	2
2023-08-22T00:00	33105	8	-36.8	-76.8	87	2
2023-08-22T00:00	33132	8	-36.8	-76.8	78	3
2023-08-22T00:00	33163	8	-36.6	-76.7	74	3
2023-08-22T00:00	33220	8	-36.6	-76.7	74	3
2023-08-22T00:00	33238	8	-36.3	-76.5	78	4
2023-08-22T00:00	33270	8	-36.3	-76.5	82	3
2023-08-22T00:00	33292	8	-36.4	-76.5	86	3
2023-08-22T00:00	33297	8	-36.4	-76.5	91	3
2023-08-22T00:00	33323	8	-36.4	-76.5	95	3
2023-08-22T00:00	33325	8	-36.5	-76.6	100	3
2023-08-22T00:00	33368	8	-36.6	-76.7	106	3
2023-08-22T00:00	33398	8	-36.6	-76.7	113	3
2023-08-22T00:00	33447	8	-36.7	-76.7	131	3
2023-08-22T00:00	33470	8	-36.7	-76.7	136	3
2023-08-22T00:00	33480	8	-36.6	-76.7	138	4
2023-08-22T00:00	33511	8	-36.5	-76.6	137	4
2023-08-22T00:00	33559	8	-36.4	-76.5	136	4
2023-08-22T00:00	33596	8	-36.1	-76.3	139	3
2023-08-22T00:00	33615	8	-36.2	-76.4	140	3
2023-08-22T00:00	33634	7	-36.4	-76.5	140	3
2023-08-22T00:00	33667	7	-36.4	-76.5	137	3
2023-08-22T00:00	33673	7	-36.5	-76.6	130	2
2023-08-22T00:00	33724	7	-36.4	-76.5	118	2
2023-08-22T00:00	33773	7	-36.3	-76.5	104	2
2023-08-22T00:00	33799	7	-36.2	-76.4	78	2
2023-08-22T00:00	33817	7	-36.1	-76.3	70	2
2023-08-22T00:00	33845	7	-36.1	-76.3	65	3
2023-08-22T00:00	33862	7	-36.0	-76.3	61	3
2023-08-22T00:00	33887	7	-36.0	-76.3	60	4
2023-08-22T00:00	33913	7	-36.0	-76.3	59	4
2023-08-22T00:00	33921	7	-36.0	-76.3	60	5
2023-08-22T00:00	33976	7	-36.1	-76.3	61	5
2023-08-22T00:00	33984	7	-36.2	-76.4	62	6
2023-08-22T00:00	33987	7	-36.3	-76.5	62	6
2023-08-22T00:00	34037	7	-36.4	-76.5	61	7
2023-08-22T00:00	34049	7	-36.4	-76.5	60	7
2023-08-22T00:00	34121	7	-36.3	-76.5	59	7
2023-08-22T00:00	34143	7	-36.1	-76.3	57	7
2023-08-22T00:00	34145	7	-36.0	-76.3	56	7
2023-08-22T00:00	34153	7	-36.0	-76.3	54	6
2023-08-22T00:00	34168	7	-36.2	-76.4	51	6
2023-08-22T00:00	34206	7	-36.2	-76.4	47	6
2023-08-22T00:00	34230	7	-36.3	-76.5	44	5
2023-08-22T00:00	34253	7	-36.3	-76.5	41	5
2023-08-22T00:00	34263	7	-36.2	-76.4	40	4
2023-08-22T00:00	34273	7	-36.2	-76.4	39	4
2023-08-22T00:00	34302	7	-36.2	-76.4	40	4
2023-08-22T00:00	34325	7	-36.2	-76.4	41	3
2023-08-22T00:00	34338	7	-36.1	-76.3	41	3
2023-08-22T00:00	34368	7	-36.1	-76.3	41	2
2023-08-22T00:00	34400	7	-36.2	-76.4	38	2
2023-08-22T00:00	34426	7	-36.2	-76.4	21	1
2023-08-22T00:00	34453	7	-36.2	-76.4	7	1
2023-08-22T00:00	34460	7	-36.2	-76.4	351	1
2023-08-22T00:00	34500	7	-36.2	-76.4	336	1
2023-08-22T00:00	34530	7	-36.2	-76.4	324	2
2023-08-22T00:00	34550	7	-36.3	-76.5	306	2
2023-08-22T00:00	34558	7	-36.3	-76.5	300	3
2023-08-22T00:00	34589	7	-36.2	-76.4	296	3
2023-08-22T00:00	34591	7	-36.0	-76.3	294	4
2023-08-22T00:00	34632	7	-35.8	-76.1	295	4
2023-08-22T00:00	34637	6	-35.4	-75.8	298	4
2023-08-22T00:00	34664	6	-35.3	-75.8	302	3
2023-08-22T00:00	34693	6	-35.1	-75.6	306	3
2023-08-22T06:00	113	1007	17.5	14.3	77	3
2023-08-22T06:00	147	1003	17.3	13.8	84	4
2023-08-22T06:00	165	1001	17.4	13.4	89	6
2023-08-22T06:00	189	998	17.8	13.1	93	8
2023-08-22T06:00	214	995	18.2	13.0	97	9
2023-08-22T06:00	232	993	18.2	13.0	100	10
2023-08-22T06:00	254	991	18.2	13.0	103	11
2023-08-22T06:00	273	988	18.4	12.9	105	11
2023-08-22T06:00	297	986	18.8	12.9	107	11
2023-08-22T06:00	320	983	18.8	13.2	108	10
2023-08-22T06:00	342	981	18.7	13.2	109	10
2023-08-22T06:00	364	978	18.8	13.1	110	9
2023-08-22T06:00	389	975	18.9	12.8	111	8
2023-08-22T06:00	409	973	18.7	12.8	110	7
2023-08-22T06:00	434	970	18.9	12.2	107	6
2023-08-22T06:00	458	967	19.1	11.7	100	4
2023-08-22T06:00	483	965	19.3	11.2	91	4
2023-08-22T06:00	506	962	19.2	10.9	83	3
2023-08-22T06:00	527	960	19.3	10.7	77	3
2023-08-22T06:00	551	957	19.1	10.3	77	3
2023-08-22T06:00	578	954	18.9	10.4	81	2
2023-08-22T06:00	606	951	18.9	10.5	86	2
2023-08-22T06:00	629	948	18.8	10.8	90	2
2023-08-22T06:00	651	946	18.7	10.9	89	1
2023-08-22T06:00	675	943	18.6	9.8	84	1
2023-08-22T06:00	698	941	18.5	9.6	83	1
2023-08-22T06:00	721	938	18.3	9.4	95	1
2023-08-22T06:00	747	935	18.1	9.3	132	1
2023-08-22T06:00	774	933	17.9	9.2	170	1
2023-08-22T06:00	794	930	17.7	9.3	187	1
2023-08-22T06:00	817	928	17.6	10.0	191	1
2023-08-22T06:00	845	925	17.4	10.3	190	2
2023-08-22T06:00	871	922	17.1	10.2	185	2
2023-08-22T06:00	899	919	16.8	10.3	181	2
2023-08-22T06:00	924	916	16.6	10.3	179	3
2023-08-22T06:00	945	914	16.4	10.4	178	3
2023-08-22T06:00	967	912	16.3	10.5	179	3
2023-08-22T06:00	988	909	16.1	10.6	181	4
2023-08-22T06:00	1011	907	15.9	10.6	184	4
2023-08-22T06:00	1040	904	15.6	10.3	187	5
2023-08-22T06:00	1066	901	15.4	10.5	191	5
2023-08-22T06:00	1089	899	15.3	11.1	195	6
2023-08-22T06:00	1107	897	15.1	11.8	200	6
2023-08-22T06:00	1134	894	14.9	12.9	204	7
2023-08-22T06:00	1158	891	14.9	13.1	208	7
2023-08-22T06:00	1182	889	15.0	13.1	211	7
2023-08-22T06:00	1204	887	14.8	13.8	214	7
2023-08-22T06:00	1225	884	14.9	13.0	216	7
2023-08-22T06:00	1252	882	14.8	12.3	220	7
2023-08-22T06:00	1272	879	14.8	11.8	224	7
2023-08-22T06:00	1295	877	14.7	11.8	227	7
2023-08-22T06:00	1311	875	14.6	11.6	229	7
2023-08-22T06:00	1329	873	14.5	11.6	229	7
2023-08-22T06:00	1356	871	14.3	11.4	228	7
2023-08-22T06:00	1375	869	14.2	11.5	226	7
2023-08-22T06:00	1394	867	14.0	11.3	226	7
2023-08-22T06:00	1416	865	13.8	11.2	227	6
2023-08-22T06:00	1439	862	13.6	11.2	229	6
2023-08-22T06:00	1465	860	13.4	11.1	232	6
2023-08-22T06:00	1486	857	13.3	11.0	236	6
2023-08-22T06:00	1507	855	13.2	11.0	241	6
2023-08-22T06:00	1531	853	13.2	10.9	246	6
2023-08-22T06:00	1553	851	13.0	10.8	249	7
2023-08-22T06:00	1573	849	12.9	10.9	251	7
2023-08-22T06:00	1597	846	12.8	11.0	251	7
2023-08-22T06:00	1621	844	12.6	11.0	250	7
2023-08-22T06:00	1644	842	12.5	11.1	250	8
2023-08-22T06:00	1668	839	12.5	10.9	251	8
2023-08-22T06:00	1689	837	12.4	11.0	253	8
2023-08-22T06:00	1710	835	12.2	10.8	256	9
2023-08-22T06:00	1731	833	12.0	10.9	258	9
2023-08-22T06:00	1760	830	11.8	10.8	259	10
2023-08-22T06:00	1780	828	11.7	11.0	260	10
2023-08-22T06:00	1798	826	11.5	10.8	260	10
2023-08-22T06:00	1821	824	11.4	10.8	261	10
2023-08-22T06:00	1844	822	11.3	10.6	263	10
2023-08-22T06:00	1873	819	11.1	10.4	266	10
2023-08-22T06:00	1900	816	10.9	9.8	268	10
2023-08-22T06:00	1923	814	10.9	9.7	269	10
2023-08-22T06:00	1941	812	10.8	9.6	269	10
2023-08-22T06:00	1962	810	10.6	9.1	269	10
2023-08-22T06:00	1984	808	10.5	8.8	268	10
2023-08-22T06:00	2007	806	10.4	8.0	268	11
2023-08-22T06:00	2025	804	10.5	7.8	268	11
2023-08-22T06:00	2043	802	10.4	7.7	268	11
2023-08-22T06:00	2069	800	10.3	7.4	267	11
2023-08-22T06:00	2089	798	10.2	7.1	267	11
2023-08-22T06:00	2108	796	10.1	7.2	267	11
2023-08-22T06:00	2136	794	9.9	7.2	267	11
2023-08-22T06:00	2168	791	9.6	7.2	266	11
2023-08-22T06:00	2194	788	9.3	6.8	266	12
2023-08-22T06:00	2216	786	9.2	7.0	265	12
2023-08-22T06:00	2246	783	9.0	6.8	264	12
2023-08-22T06:00	2272	781	8.9	6.3	264	13
2023-08-22T06:00	2294	779	8.7	6.2	264	13
2023-08-22T06:00	2315	776	8.6	6.1	264	13
2023-08-22T06:00	2343	774	8.4	5.7	264	13
2023-08-22T06:00	2370	771	8.2	5.5	264	13
2023-08-22T06:00	2397	769	7.9	5.4	264	13
2023-08-22T06:00	2422	767	7.7	5.3	264	13
2023-08-22T06:00	2448	764	7.5	5.2	264	13
2023-08-22T06:00	2469	762	7.3	5.1	265	13
2023-08-22T06:00	2493	760	7.1	5.0	266	13
2023-08-22T06:00	2514	758	6.9	4.9	267	13
2023-08-22T06:00	2536	756	6.7	4.9	268	13
2023-08-22T06:00	2563	754	6.5	4.7	269	13
2023-08-22T06:00	2592	751	6.4	4.5	269	14
2023-08-22T06:00	2615	749	6.3	4.4	269	14
2023-08-22T06:00	2639	747	6.1	4.3	269	14
2023-08-22T06:00	2663	744	5.9	4.1	269	14
2023-08-22T06:00	2687	742	5.7	4.1	268	14
2023-08-22T06:00	2709	740	5.6	4.1	267	14
2023-08-22T06:00	2734	738	5.4	4.1	266	14
2023-08-22T06:00	2762	736	5.1	4.2	264	14
2023-08-22T06:00	2788	733	4.9	4.2	262	14
2023-08-22T06:00	2818	731	4.6	4.0	261	15
2023-08-22T06:00	2845	728	4.4	3.6	261	15
2023-08-22T06:00	2870	726	4.5	2.8	261	16
2023-08-22T06:00	2894	724	4.6	1.9	262	16
2023-08-22T06:00	2922	721	4.8	0.1	264	16
2023-08-22T06:00	2943	719	4.8	0.0	266	16
2023-08-22T06:00	2968	717	4.9	-1.0	268	16
2023-08-22T06:00	2989	715	5.6	-2.8	270	16
2023-08-22T06:00	3017	713	6.4	-3.9	271	16
2023-08-22T06:00	3043	711	6.8	-4.1	273	16
2023-08-22T06:00	3064	709	7.0	-6.5	274	17
2023-08-22T06:00	3086	707	7.2	-10.4	276	17
2023-08-22T06:00	3105	705	7.1	-12.5	277	17
2023-08-22T06:00	3133	703	7.3	-12.9	278	17
2023-08-22T06:00	3154	701	7.4	-12.7	279	18
2023-08-22T06:00	3175	699	7.3	-13.1	280	18
2023-08-22T06:00	3200	697	7.3	-13.2	281	18
2023-08-22T06:00	3224	695	7.2	-13.1	280	18
2023-08-22T06:00	3245	693	7.1	-12.5	280	19
2023-08-22T06:00	3265	692	7.1	-11.9	278	19
2023-08-22T06:00	3287	690	6.9	-11.7	277	19
2023-08-22T06:00	3308	688	6.7	-11.7	276	20
2023-08-22T06:00	3334	686	6.5	-11.6	275	20
2023-08-22T06:00	3352	684	6.4	-11.3	275	20
2023-08-22T06:00	3369	683	6.5	-11.1	275	20
2023-08-22T06:00	3393	681	6.4	-11.2	276	19
2023-08-22T06:00	3409	680	6.2	-11.3	278	19
2023-08-22T06:00	3430	678	6.2	-12.1	279	19
2023-08-22T06:00	3461	676	6.2	-13.9	280	19
2023-08-22T06:00	3483	674	6.1	-14.6	281	20
2023-08-22T06:00	3504	672	6.0	-14.7	281	20
2023-08-22T06:00	3525	670	5.9	-13.8	280	20
2023-08-22T06:00	3544	668	5.9	-12.7	279	20
2023-08-22T06:00	3565	667	5.9	-12.9	278	20
2023-08-22T06:00	3592	665	5.8	-13.4	277	20
2023-08-22T06:00	3616	663	5.6	-13.4	277	21
2023-08-22T06:00	3638	661	5.5	-13.9	278	21
2023-08-22T06:00	3658	659	5.3	-13.5	279	21
2023-08-22T06:00	3676	658	5.2	-13.0	280	21
2023-08-22T06:00	3701	656	5.0	-13.0	281	21
2023-08-22T06:00	3725	654	4.8	-13.2	281	20
2023-08-22T06:00	3752	652	4.7	-13.0	280	20
2023-08-22T06:00	3772	650	4.5	-13.1	279	20
2023-08-22T06:00	3793	648	4.3	-13.4	278	19
2023-08-22T06:00	3819	646	4.1	-13.8	278	19
2023-08-22T06:00	3837	645	4.0	-13.0	278	19
2023-08-22T06:00	3860	643	3.8	-12.6	278	20
2023-08-22T06:00	3891	641	3.6	-12.1	278	20
2023-08-22T06:00	3907	639	3.6	-11.2	278	20
2023-08-22T06:00	3924	638	3.5	-10.7	279	20
2023-08-22T06:00	3946	636	3.4	-9.9	279	20
2023-08-22T06:00	3968	635	3.2	-9.5	279	20
2023-08-22T06:00	3995	633	3.0	-9.6	280	19
2023-08-22T06:00	4018	631	2.9	-9.9	280	19
2023-08-22T06:00	4037	629	2.7	-9.8	280	19
2023-08-22T06:00	4060	627	2.5	-9.4	279	19
2023-08-22T06:00	4086	625	2.4	-6.9	278	19
2023-08-22T06:00	4114	623	2.1	-6.0	277	19
2023-08-22T06:00	4139	621	1.9	-5.9	276	19
2023-08-22T06:00	4169	619	1.7	-7.0	276	19
2023-08-22T06:00	4200	617	1.6	-8.1	277	19
2023-08-22T06:00	4221	615	1.4	-8.7	277	19
2023-08-22T06:00	4242	613	1.3	-9.0	278	20
2023-08-22T06:00	4262	612	1.2	-9.3	278	21
2023-08-22T06:00	4287	610	1.0	-9.1	278	21
2023-08-22T06:00	4317	608	0.8	-9.2	278	22
2023-08-22T06:00	4340	606	0.6	-9.1	278	22
2023-08-22T06:00	4363	604	0.4	-8.7	277	22
2023-08-22T06:00	4386	603	0.2	-8.5	276	22
2023-08-22T06:00	4410	601	0.0	-8.8	276	22
2023-08-22T06:00	4439	599	-0.3	-8.7	275	22
2023-08-22T06:00	4466	597	-0.5	-8.6	275	22
2023-08-22T06:00	4485	595	-0.7	-8.5	275	22
2023-08-22T06:00	4516	593	-1.0	-8.1	276	22
2023-08-22T06:00	4538	591	-1.1	-8.0	276	22
2023-08-22T06:00	4560	590	-1.3	-7.8	277	22
2023-08-22T06:00	4583	588	-1.5	-7.9	278	22
2023-08-22T06:00	4610	586	-1.7	-7.9	278	22
2023-08-22T06:00	4636	584	-1.9	-8.0	278	22
2023-08-22T06:00	4669	582	-2.2	-7.8	278	21
2023-08-22T06:00	4693	580	-2.4	-8.0	277	21
2023-08-22T06:00	4728	577	-2.6	-8.6	276	21
2023-08-22T06:00	4758	575	-2.7	-8.5	275	21
2023-08-22T06:00	4789	573	-2.9	-8.6	274	21
2023-08-22T06:00	4818	571	-3.1	-9.2	273	21
2023-08-22T06:00	4847	569	-3.3	-9.3	274	21
2023-08-22T06:00	4876	567	-3.4	-10.0	274	21
2023-08-22T06:00	4902	565	-3.5	-8.5	274	21
2023-08-22T06:00	4927	563	-3.7	-8.5	275	21
2023-08-22T06:00	4954	561	-4.0	-8.4	276	21
2023-08-22T06:00	4977	559	-4.2	-8.5	277	21
2023-08-22T06:00	5006	557	-4.5	-8.5	278	21
2023-08-22T06:00	5033	555	-4.7	-8.3	280	20
2023-08-22T06:00	5056	554	-4.9	-8.2	281	20
2023-08-22T06:00	5083	552	-5.2	-8.3	282	20
2023-08-22T06:00	5107	550	-5.4	-8.4	283	21
2023-08-22T06:00	5133	548	-5.6	-8.5	282	21
2023-08-22T06:00	5161	546	-5.8	-8.6	281	22
2023-08-22T06:00	5190	545	-6.0	-8.7	280	23
2023-08-22T06:00	5214	543	-6.3	-8.8	279	23
2023-08-22T06:00	5235	541	-6.4		278	23
2023-08-22T06:00	5259	540	-6.7	-8.9	278	23
2023-08-22T06:00	5284	538	-6.9	-8.9	277	23
2023-08-22T06:00	5310	536	-7.2	-9.1	278	23
2023-08-22T06:00	5333	535	-7.4	-9.2	278	23
2023-08-22T06:00	5354	533	-7.6	-9.2	278	23
2023-08-22T06:00	5383	531	-7.8	-9.2	279	23
2023-08-22T06:00	5409	529	-8.1	-9.3	279	24
2023-08-22T06:00	5430	528	-8.3	-9.4	278	24
2023-08-22T06:00	5458	526	-8.6	-9.5	277	25
2023-08-22T06:00	5484	524	-8.8	-9.6	276	25
2023-08-22T06:00	5507	523	-9.0	-9.8	275	26
2023-08-22T06:00	5528	521	-9.1	-9.8	273	26
2023-08-22T06:00	5553	520	-8.6	-10.7	272	26
2023-08-22T06:00	5580	518	-8.0	-11.4	271	26
2023-08-22T06:00	5602	516	-7.8	-11.6	271	26
2023-08-22T06:00	5625	515	-7.8	-11.8	270	25
2023-08-22T06:00	5654	513	-8.0	-12.1	270	25
2023-08-22T06:00	5683	511	-8.1	-12.7	270	24
2023-08-22T06:00	5705	510	-8.1	-13.5	270	24
2023-08-22T06:00	5729	508	-8.2	-13.5	270	24
2023-08-22T06:00	5755	506	-8.5	-13.7	271	24
2023-08-22T06:00	5784	504	-8.7	-13.8	272	24
2023-08-22T06:00	5816	503	-9.0	-14.0	272	23
2023-08-22T06:00	5835	501	-9.2	-14.1	273	23
2023-08-22T06:00	5858	500	-9.4	-14.2	272	23
2023-08-22T06:00	5879	498	-9.6	-14.2	272	23
2023-08-22T06:00	5900	497	-9.7	-14.5	272	22
2023-08-22T06:00	5920	496	-9.8	-15.0	273	22
2023-08-22T06:00	5940	494	-9.9	-15.0	273	22
2023-08-22T06:00	5962	493	-10.1	-14.6	274	22
2023-08-22T06:00	5984	491	-10.2	-14.3	275	22
2023-08-22T06:00	6012	490	-10.5	-14.3	275	22
2023-08-22T06:00	6045	488	-10.7	-14.5	276	22
2023-08-22T06:00	6071	486	-11.0	-14.7	277	22
2023-08-22T06:00	6098	484	-11.2	-14.6	277	22
2023-08-22T06:00	6128	482	-11.4	-14.8	278	22
2023-08-22T06:00	6153	481	-11.6	-15.2	278	22
2023-08-22T06:00	6177	479	-11.7	-15.6	278	23
2023-08-22T06:00	6206	478	-11.9	-16.3	278	23
2023-08-22T06:00	6232	476	-12.2	-16.6	279	23
2023-08-22T06:00	6255	475	-12.3	-16.7	279	23
2023-08-22T06:00	6276	473	-12.5	-16.8	280	23
2023-08-22T06:00	6294	472	-12.7	-16.9	280	23
2023-08-22T06:00	6314	471	-12.8	-17.0	280	23
2023-08-22T06:00	6335	469	-13.0	-17.1	280	24
2023-08-22T06:00	6356	468	-13.2	-17.3	279	24
2023-08-22T06:00	6377	467	-13.4	-17.4	278	24
2023-08-22T06:00	6400	466	-13.6	-17.5	277	24
2023-08-22T06:00	6426	464	-13.8	-17.5	276	24
2023-08-22T06:00	6453	462	-14.1	-17.7	275	24
2023-08-22T06:00	6477	461	-14.3	-17.8	275	25
2023-08-22T06:00	6498	460	-14.5	-17.8	275	25
2023-08-22T06:00	6522	458	-14.7	-17.9	275	24
2023-08-22T06:00	6543	457	-14.9	-17.9	275	24
2023-08-22T06:00	6567	455	-15.1	-18.1	275	24
2023-08-22T06:00	6595	454	-15.4	-18.4	275	24
2023-08-22T06:00	6625	452	-15.6	-18.6	275	24
2023-08-22T06:00	6656	450	-15.9	-18.8	274	24
2023-08-22T06:00	6681	449	-16.1	-19.0	273	24
2023-08-22T06:00	6710	447	-16.3	-19.1	272	24
2023-08-22T06:00	6731	446	-16.5	-19.4	271	24
2023-08-22T06:00	6754	444	-16.7	-20.1	271	24
2023-08-22T06:00	6776	443	-16.9	-20.1	271	24
2023-08-22T06:00	6799	442	-17.1	-20.5	271	25
2023-08-22T06:00	6827	440	-17.3	-21.2	272	25
2023-08-22T06:00	6850	439	-17.4	-20.9	272	25
2023-08-22T06:00	6879	437	-17.6	-21.7	272	25
2023-08-22T06:00	6913	435	-17.6	-22.3	272	25
2023-08-22T06:00	6940	433	-17.8	-21.1	272	25
2023-08-22T06:00	6969	432	-18.0	-21.3	272	26
2023-08-22T06:00	7001	430	-18.1	-23.5	271	26
2023-08-22T06:00	7019	429	-18.0	-27.4	271	27
2023-08-22T06:00	7039	428	-17.9	-32.3	270	27
2023-08-22T06:00	7059	427	-18.0	-31.1	270	27
2023-08-22T06:00	7080	425	-18.1	-30.0	270	27
2023-08-22T06:00	7104	424	-18.1	-30.1	270	27
2023-08-22T06:00	7130	422	-18.1	-31.8	270	27
2023-08-22T06:00	7155	421	-18.2	-28.2	270	27
2023-08-22T06:00	7188	419	-18.4	-23.9	270	28
2023-08-22T06:00	7211	418	-18.7	-23.1	270	28
2023-08-22T06:00	7232	417	-18.9	-23.4	270	28
2023-08-22T06:00	7252	416	-19.1	-23.7	270	28
2023-08-22T06:00	7271	414	-19.2	-23.9	270	28
2023-08-22T06:00	7294	413	-19.4	-24.3	270	28
2023-08-22T06:00	7319	412	-19.7	-23.8	270	29
2023-08-22T06:00	7341	411	-19.9		270	29
2023-08-22T06:00	7367	409	-20.1	-23.5	270	29
2023-08-22T06:00	7392	408	-20.4	-23.7	270	29
2023-08-22T06:00	7419	406	-20.6	-23.6	270	29
2023-08-22T06:00	7443	405	-20.8	-23.3	271	29
2023-08-22T06:00	7472	403	-21.1	-23.1	271	29
2023-08-22T06:00	7498	402	-21.4	-23.3	271	29
2023-08-22T06:00	7523	401	-21.6	-23.3	271	29
2023-08-22T06:00	7550	399	-21.8	-23.4	271	29
2023-08-22T06:00	7578	398	-22.1	-23.4	271	29
2023-08-22T06:00	7608	396	-22.4	-23.1	272	29
2023-08-22T06:00	7641	394	-22.6	-22.9	272	29
2023-08-22T06:00	7669	393	-22.8	-23.1	272	30
2023-08-22T06:00	7696	391	-22.8	-23.4	271	30
2023-08-22T06:00	7721	390	-22.9	-23.7	271	30
2023-08-22T06:00	7741	389	-22.8	-24.8	272	30
2023-08-22T06:00	7763	388	-22.9	-25.0	272	30
2023-08-22T06:00	7788	386	-23.1	-25.3	272	30
2023-08-22T06:00	7813	385	-23.3	-25.8	272	30
2023-08-22T06:00	7839	384	-23.5	-26.2	272	30
2023-08-22T06:00	7865	382	-23.7	-26.4	273	30
2023-08-22T06:00	7889	381	-23.9	-27.2	273	30
2023-08-22T06:00	7914	380	-23.9	-27.4	273	30
2023-08-22T06:00	7934	379	-24.0	-27.4	273	30
2023-08-22T06:00	7957	378	-24.2	-27.1	273	30
2023-08-22T06:00	7980	377	-24.3	-27.6	273	30
2023-08-22T06:00	8004	375	-24.4	-28.1	273	31
2023-08-22T06:00	8025	374	-24.6	-28.2	273	31
2023-08-22T06:00	8048	373	-24.8	-28.2	274	31
2023-08-22T06:00	8070	372	-25.0	-28.2	274	31
2023-08-22T06:00	8095	371	-25.2	-28.6	274	31
2023-08-22T06:00	8119	369	-25.3	-28.6	274	31
2023-08-22T06:00	8146	368	-25.5	-28.9	275	32
2023-08-22T06:00	8177	366	-25.8	-29.2	275	32
2023-08-22T06:00	8202	365	-25.9	-29.6	275	32
2023-08-22T06:00	8224	364	-26.0	-29.8	275	33
2023-08-22T06:00	8248	363	-26.2	-30.2	275	33
2023-08-22T06:00	8273	362	-26.3	-30.4	274	32
2023-08-22T06:00	8297	360	-26.5	-30.3	274	32
2023-08-22T06:00	8327	359	-26.8	-30.8	274	32
2023-08-22T06:00	8353	358	-27.0	-31.1	273	32
2023-08-22T06:00	8377	356	-27.2	-31.7	273	32
2023-08-22T06:00	8399	355	-27.3	-32.3	273	32
2023-08-22T06:00	8423	354	-27.5	-32.8	272	32
2023-08-22T06:00	8447	353	-27.7	-33.4	272	32
2023-08-22T06:00	8470	352	-27.8	-34.3	271	32
2023-08-22T06:00	8497	351	-28.0	-33.8	271	32
2023-08-22T06:00	8517	350	-28.2	-33.8	271	32
2023-08-22T06:00	8538	349	-28.4	-33.8	271	32
2023-08-22T06:00	8559	348	-28.6	-34.1	271	32
2023-08-22T06:00	8581	346	-28.8	-34.9	271	32
2023-08-22T06:00	8603	345	-28.9	-36.0	271	31
2023-08-22T06:00	8624	344	-29.1	-36.5	271	31
2023-08-22T06:00	8645	343	-29.2	-36.6	271	31
2023-08-22T06:00	8664	342	-29.4	-36.7	271	31
2023-08-22T06:00	8687	341	-29.5	-36.9	271	31
2023-08-22T06:00	8707	340	-29.7	-37.5	271	31
2023-08-22T06:00	8730	339	-29.8	-37.7	271	31
2023-08-22T06:00	8752	338	-29.9	-37.8	271	31
2023-08-22T06:00	8778	337	-30.1	-38.1	271	32
2023-08-22T06:00	8806	336	-30.3	-38.1	271	32
2023-08-22T06:00	8836	334	-30.6	-38.4	272	32
2023-08-22T06:00	8863	333	-30.8	-38.3	272	32
2023-08-22T06:00	8890	332	-31.0	-38.1	272	32
2023-08-22T06:00	8918	330	-31.2	-37.9	272	32
2023-08-22T06:00	8948	329	-31.5	-39.3	271	32
2023-08-22T06:00	8973	328	-31.7	-39.6	271	32
2023-08-22T06:00	9002	326	-31.9	-39.9	271	32
2023-08-22T06:00	9029	325	-32.1	-40.4	271	32
2023-08-22T06:00	9060	324	-32.4	-40.6	272	31
2023-08-22T06:00	9084	323	-32.6	-40.9	272	31
2023-08-22T06:00	9114	321	-32.8	-41.2	273	31
2023-08-22T06:00	9139	320	-33.0	-41.4	274	31
2023-08-22T06:00	9164	319	-33.1	-41.4	274	31
2023-08-22T06:00	9190	318	-33.2	-41.9	274	31
2023-08-22T06:00	9214	317	-33.1	-41.6	275	32
2023-08-22T06:00	9239	316	-33.3	-42.3	275	32
2023-08-22T06:00	9265	315	-33.5	-42.5	275	32
2023-08-22T06:00	9290	313	-33.8	-42.8	275	32
2023-08-22T06:00	9323	312	-34.0	-43.5	275	32
2023-08-22T06:00	9344	311	-34.2	-43.5	275	32
2023-08-22T06:00	9365	310	-34.4	-43.5	274	32
2023-08-22T06:00	9392	309	-34.6	-42.6	274	32
2023-08-22T06:00	9415	308	-34.8	-42.1	274	32
2023-08-22T06:00	9441	307	-35.1	-42.5	275	31
2023-08-22T06:00	9470	305	-35.3	-42.6	275	31
2023-08-22T06:00	9495	304	-35.6	-43.1	275	31
2023-08-22T06:00	9519	303	-35.7	-43.6	275	31
2023-08-22T06:00	9540	302	-35.9	-43.6	275	32
2023-08-22T06:00	9560	302	-36.1	-43.7	274	32
2023-08-22T06:00	9578	301	-36.3	-43.8	274	32
2023-08-22T06:00	9596	300	-36.4		274	32
2023-08-22T06:00	9615	299	-36.4	-45.5	273	32
2023-08-22T06:00	9635	298	-36.6	-45.6	274	32
2023-08-22T06:00	9654	297	-36.7	-45.6	274	32
2023-08-22T06:00	9674	297	-36.9	-45.8	275	32
2023-08-22T06:00	9694	296	-37.0	-46.2	275	32
2023-08-22T06:00	9715	295	-37.2	-46.4	276	32
2023-08-22T06:00	9735	294	-37.3	-47.0	276	32
2023-08-22T06:00	9756	293	-37.4	-48.3	276	32
2023-08-22T06:00	9774	292	-37.6	-48.6	276	32
2023-08-22T06:00	9794	291	-37.7	-48.6	277	32
2023-08-22T06:00	9815	291	-37.9	-48.9	277	31
2023-08-22T06:00	9834	290	-38.1	-49.2	277	31
2023-08-22T06:00	9852	289	-38.3	-49.6	277	31
2023-08-22T06:00	9871	288	-38.4	-49.9	278	31
2023-08-22T06:00	9892	287	-38.5	-50.3	278	31
2023-08-22T06:00	9910	287	-38.6	-50.5	278	30
2023-08-22T06:00	9930	286	-38.8	-50.7	278	30
2023-08-22T06:00	9951	285	-38.9	-50.9	278	30
2023-08-22T06:00	9971	284	-39.1	-51.2	277	30
2023-08-22T06:00	9991	283	-39.2	-51.5	277	30
2023-08-22T06:00	10010	282	-39.3	-52.3	277	30
2023-08-22T06:00	10029	282	-39.4	-53.2	277	30
2023-08-22T06:00	10050	281	-39.5	-53.8	277	30
2023-08-22T06:00	10073	280	-39.7	-53.8	277	30
2023-08-22T06:00	10092	279	-39.8	-53.7	277	29
2023-08-22T06:00	10114	278	-40.0	-53.4	277	29
2023-08-22T06:00	10136	277	-40.2	-53.2	277	29
2023-08-22T06:00	10159	276	-40.4	-52.9	277	29
2023-08-22T06:00	10178	276	-40.6	-53.0	277	29
2023-08-22T06:00	10199	275	-40.8	-52.7	277	29
2023-08-22T06:00	10217	274	-41.1	-51.9	277	29
2023-08-22T06:00	10240	273	-41.2	-51.9	277	30
2023-08-22T06:00	10259	272	-41.3	-52.2	277	30
2023-08-22T06:00	10280	272	-41.6	-52.2	277	30
2023-08-22T06:00	10299	271	-41.8	-52.2	277	30
2023-08-22T06:00	10319	270	-42.0	-52.3	277	30
2023-08-22T06:00	10341	269	-42.2	-52.2	277	30
2023-08-22T06:00	10365	268	-42.4	-52.0	277	30
2023-08-22T06:00	10387	267	-42.6	-52.0	277	30
2023-08-22T06:00	10411	266	-42.8	-52.0	277	30
2023-08-22T06:00	10434	265	-43.1	-52.3	277	30
2023-08-22T06:00	10459	264	-43.3	-52.5	277	30
2023-08-22T06:00	10482	264	-43.5	-52.5	277	30
2023-08-22T06:00	10504	263	-43.8	-52.6	277	30
2023-08-22T06:00	10522	262	-44.0	-52.2	277	30
2023-08-22T06:00	10547	261	-44.2	-52.1	277	30
2023-08-22T06:00	10569	260	-44.4	-52.3	277	30
2023-08-22T06:00	10592	259	-44.6	-52.4	277	30
2023-08-22T06:00	10618	258	-44.9	-52.6	277	30
2023-08-22T06:00	10641	257	-45.1	-52.6	277	31
2023-08-22T06:00	10670	256	-45.4	-52.5	277	31
2023-08-22T06:00	10695	255	-45.6	-52.5	277	31
2023-08-22T06:00	10715	254	-45.8	-52.4	277	31
2023-08-22T06:00	10743	253	-46.1	-52.4	277	31
2023-08-22T06:00	10765	253	-46.3	-52.5	277	30
2023-08-22T06:00	10790	252	-46.5	-52.7	277	30
2023-08-22T06:00	10814	251	-46.8	-52.8	277	30
2023-08-22T06:00	10840	250	-47.0	-52.8	277	30
2023-08-22T06:00	10865	249	-47.3	-52.9	277	30
2023-08-22T06:00	10891	248	-47.5	-52.8	277	30
2023-08-22T06:00	10922	247	-47.8	-52.9	277	30
2023-08-22T06:00	10948	246	-48.0	-52.9	278	31
2023-08-22T06:00	10974	245	-48.3	-53.0	278	31
2023-08-22T06:00	10998	244	-48.5	-52.9	279	31
2023-08-22T06:00	11024	243	-48.8	-52.9	280	31
2023-08-22T06:00	11051	242	-49.0	-52.8	280	31
2023-08-22T06:00	11080	241	-49.3	-52.8	280	31
2023-08-22T06:00	11103	240	-49.4	-52.9	280	32
2023-08-22T06:00	11127	239	-49.6	-53.2	280	32
2023-08-22T06:00	11149	238	-49.7	-53.8	281	32
2023-08-22T06:00	11173	237	-49.7	-54.9	282	32
2023-08-22T06:00	11198	237	-49.9	-55.9	282	32
2023-08-22T06:00	11222	236	-50.0	-56.2	283	33
2023-08-22T06:00	11242	235	-50.2	-56.4	283	33
2023-08-22T06:00	11264	234	-50.4	-56.4	284	33
2023-08-22T06:00	11286	233	-50.6	-56.3	284	33
2023-08-22T06:00	11306	233	-50.8	-56.3	284	33
2023-08-22T06:00	11326	232	-51.0	-56.4	284	33
2023-08-22T06:00	11347	231	-51.1	-56.4	284	33
2023-08-22T06:00	11368	230	-51.3	-56.5	284	33
2023-08-22T06:00	11387	230	-51.5	-56.7	284	33
2023-08-22T06:00	11409	229	-51.7	-57.2	284	33
2023-08-22T06:00	11428	228	-51.9	-57.6	283	33
2023-08-22T06:00	11451	227	-52.1	-57.6	283	33
2023-08-22T06:00	11471	227	-52.2	-57.6	283	33
2023-08-22T06:00	11492	226	-52.4	-57.7	284	33
2023-08-22T06:00	11512	225	-52.6	-58.0	284	33
2023-08-22T06:00	11532	225	-52.8	-58.2	284	33
2023-08-22T06:00	11556	224	-53.0	-58.4	285	33
2023-08-22T06:00	11577	223	-53.2	-58.5	285	34
2023-08-22T06:00	11598	222	-53.4	-58.6	285	34
2023-08-22T06:00	11619	222	-53.6	-58.7	285	34
2023-08-22T06:00	11641	221	-53.8	-58.8	285	34
2023-08-22T06:00	11663	220	-54.0	-58.8	285	34
2023-08-22T06:00	11684	219	-54.2	-58.7	285	34
2023-08-22T06:00	11705	219	-54.3	-58.7	285	33
2023-08-22T06:00	11727	218	-54.5	-58.9	285	33
2023-08-22T06:00	11747	217	-54.6	-59.2	285	33
2023-08-22T06:00	11771	216	-54.8	-59.6	284	32
2023-08-22T06:00	11792	216	-55.0	-60.3	284	31
2023-08-22T06:00	11824	215	-55.2	-61.6	283	31
2023-08-22T06:00	11843	214	-55.1	-62.7	283	30
2023-08-22T06:00	11864	213	-55.2	-62.9	282	30
2023-08-22T06:00	11884	213	-55.4	-62.6	281	30
2023-08-22T06:00	11903	212	-55.6	-62.5	280	30
2023-08-22T06:00	11921	211	-55.6	-62.8	279	31
2023-08-22T06:00	11942	211	-55.5	-63.6	278	31
2023-08-22T06:00	11962	210	-55.6	-64.4	278	31
2023-08-22T06:00	11983	209	-55.6	-64.7	278	32
2023-08-22T06:00	12002	209	-55.6	-64.9	277	32
2023-08-22T06:00	12021	208	-55.7	-65.2	278	32
2023-08-22T06:00	12043	207	-55.9	-65.6	278	33
2023-08-22T06:00	12060	207	-56.0	-65.8	278	33
2023-08-22T06:00	12080	206	-56.1	-65.9	278	33
2023-08-22T06:00	12098	206	-56.2	-66.0	279	33
2023-08-22T06:00	12118	205	-56.3	-65.9	279	33
2023-08-22T06:00	12136	204	-56.5	-65.9	279	33
2023-08-22T06:00	12153	204	-56.6	-65.9	279	34
2023-08-22T06:00	12174	203	-56.7	-66.0	279	34
2023-08-22T06:00	12193	203	-56.8	-66.3	279	34
2023-08-22T06:00	12212	202	-57.0	-66.5	279	34
2023-08-22T06:00	12230	201	-57.2	-66.6	280	34
2023-08-22T06:00	12249	201	-57.3	-66.4	280	34
2023-08-22T06:00	12270	200	-57.5	-66.3	280	34
2023-08-22T06:00	12289	199	-57.7	-66.3	280	34
2023-08-22T06:00	12309	199	-57.9	-66.5	280	34
2023-08-22T06:00	12328	198	-58.0	-66.7	280	34
2023-08-22T06:00	12348	198	-58.1	-66.8	281	34
2023-08-22T06:00	12366	197	-58.3	-67.0	281	34
2023-08-22T06:00	12389	196	-58.5	-67.2	281	34
2023-08-22T06:00	12408	196	-58.6	-67.4	281	34
2023-08-22T06:00	12427	195	-58.8	-67.8	281	34
2023-08-22T06:00	12449	195	-58.9	-68.1	281	34
2023-08-22T06:00	12465	194	-59.0	-68.2	281	34
2023-08-22T06:00	12488	193	-59.1	-68.3	281	34
2023-08-22T06:00	12508	193	-59.1	-68.4	281	34
2023-08-22T06:00	12529	192	-59.0	-68.4	281	35
2023-08-22T06:00	12550	191	-59.1	-68.6	281	35
2023-08-22T06:00	12572	191	-59.3	-68.9	281	35
2023-08-22T06:00	12594	190	-59.5	-69.1	281	35
2023-08-22T06:00	12617	189	-59.7	-69.2	281	35
2023-08-22T06:00	12635	189	-59.9	-69.2	281	34
2023-08-22T06:00	12656	188	-60.0	-69.1	281	34
2023-08-22T06:00	12676	188	-60.2	-69.0	281	34
2023-08-22T06:00	12696	187	-60.4	-69.0	281	34
2023-08-22T06:00	12718	186	-60.5	-69.0	281	34
2023-08-22T06:00	12738	186	-60.6	-68.9	280	34
2023-08-22T06:00	12757	185	-60.6	-68.8	280	34
2023-08-22T06:00	12781	184	-60.8	-68.7	279	34
2023-08-22T06:00	12802	184	-61.0	-68.5	278	34
2023-08-22T06:00	12822	183	-61.1	-68.1	277	34
2023-08-22T06:00	12846	183	-61.2	-67.9	277	34
2023-08-22T06:00	12869	182	-61.3	-67.9	277	33
2023-08-22T06:00	12889	181	-61.4	-67.9	277	33
2023-08-22T06:00	12909	181	-61.5	-67.9	277	33
2023-08-22T06:00	12932	180	-61.7	-68.1	278	33
2023-08-22T06:00	12956	179	-61.9	-68.2	279	33
2023-08-22T06:00	12976	179	-62.1	-68.2	280	33
2023-08-22T06:00	12997	178	-62.2	-68.3	281	32
2023-08-22T06:00	13019	177	-62.2	-68.5	282	32
2023-08-22T06:00	13043	177	-61.9	-68.6	283	30
2023-08-22T06:00	13064	176	-61.6	-68.9	283	29
2023-08-22T06:00	13084	176	-61.3	-69.4	284	28
2023-08-22T06:00	13105	175	-60.9	-69.8	284	27
2023-08-22T06:00	13129	174	-60.7	-70.5	283	26
2023-08-22T06:00	13150	174	-60.4	-71.0	282	25
2023-08-22T06:00	13171	173	-60.0	-71.3	280	25
2023-08-22T06:00	13190	173	-59.8	-71.9	278	24
2023-08-22T06:00	13209	172	-59.6	-72.3	276	24
2023-08-22T06:00	13229	172	-59.5	-72.6	275	24
2023-08-22T06:00	13251	171	-59.6	-73.1	273	24
2023-08-22T06:00	13274	170	-59.6	-73.7	272	24
2023-08-22T06:00	13293	170	-59.4	-74.2	271	24
2023-08-22T06:00	13313	169	-59.3	-74.6	270	24
2023-08-22T06:00	13335	169	-59.4	-74.8	269	24
2023-08-22T06:00	13353	168	-59.6	-74.7	268	24
2023-08-22T06:00	13375	168	-59.8	-74.5	268	24
2023-08-22T06:00	13395	167	-60.0	-74.5	267	24
2023-08-22T06:00	13417	166	-60.1	-74.5	266	24
2023-08-22T06:00	13436	166	-59.8	-74.3	265	24
2023-08-22T06:00	13458	165	-59.9	-74.5	265	24
2023-08-22T06:00	13481	165	-60.1	-74.7	264	24
2023-08-22T06:00	13501	164	-60.2	-74.7	264	24
2023-08-22T06:00	13522	164	-60.1	-74.6	264	24
2023-08-22T06:00	13543	163	-60.1	-74.6	264	24
2023-08-22T06:00	13564	163	-60.1	-74.5	265	24
2023-08-22T06:00	13587	162	-60.3	-74.7	265	24
2023-08-22T06:00	13606	161	-60.3	-74.6	265	24
2023-08-22T06:00	13631	161	-60.3	-74.6	265	24
2023-08-22T06:00	13651	160	-60.3	-74.7	265	24
2023-08-22T06:00	13671	160	-60.2		265	24
2023-08-22T06:00	13692	159	-60.0	-74.6	265	25
2023-08-22T06:00	13714	159	-59.8	-74.5	265	25
2023-08-22T06:00	13733	158	-59.8	-74.7	265	25
2023-08-22T06:00	13755	158	-59.8	-74.8	265	25
2023-08-22T06:00	13775	157	-59.8	-74.9	265	25
2023-08-22T06:00	13796	157	-59.9	-75.1	264	25
2023-08-22T06:00	13818	156	-60.0	-75.2	265	25
2023-08-22T06:00	13840	156	-60.1	-75.4	265	25
2023-08-22T06:00	13862	155	-60.1	-75.6	266	25
2023-08-22T06:00	13881	155	-59.8	-75.9	267	25
2023-08-22T06:00	13903	154	-59.4	-76.1	268	25
2023-08-22T06:00	13925	153	-59.2	-76.6	268	24
2023-08-22T06:00	13949	153	-59.1	-77.3	268	24
2023-08-22T06:00	13968	152	-58.8	-77.9	267	24
2023-08-22T06:00	13991	152	-58.2	-78.4	266	24
2023-08-22T06:00	14011	151	-58.1	-79.2	265	23
2023-08-22T06:00	14031	151	-57.9	-79.4	263	23
2023-08-22T06:00	14054	150	-57.6	-79.5	263	23
2023-08-22T06:00	14075	150	-57.2	-79.3	262	23
2023-08-22T06:00	14096	149	-56.9	-79.1	262	23
2023-08-22T06:00	14118	149	-56.9	-78.9	263	23
2023-08-22T06:00	14136	148	-56.7		264	23
2023-08-22T06:00	14159	148	-56.5	-78.8	265	23
2023-08-22T06:00	14179	147	-56.5	-79.1	266	24
2023-08-22T06:00	14202	147	-56.6	-79.5	268	24
2023-08-22T06:00	14220	146	-56.6	-79.7	270	24
2023-08-22T06:00	14240	146	-56.5	-80.0	271	25
2023-08-22T06:00	14261	146	-56.4	-80.3	272	25
2023-08-22T06:00	14280	145	-56.3	-80.4	273	25
2023-08-22T06:00	14301	145	-56.4	-80.5	274	25
2023-08-22T06:00	14322	144	-56.5	-80.6	274	25
2023-08-22T06:00	14341	144	-56.5	-80.6	274	24
2023-08-22T06:00	14361	143	-56.5	-80.6	274	24
2023-08-22T06:00	14380	143	-56.6	-80.6	273	23
2023-08-22T06:00	14402	142	-56.5	-80.8	273	22
2023-08-22T06:00	14422	142	-56.2	-80.8	272	21
2023-08-22T06:00	14444	141	-55.9	-80.7	270	21
2023-08-22T06:00	14462	141	-55.6	-80.8	269	20
2023-08-22T06:00	14484	141	-55.5	-80.7	267	20
2023-08-22T06:00	14504	140	-55.5	-80.7	266	19
2023-08-22T06:00	14524	140	-55.4	-80.8	265	19
2023-08-22T06:00	14544	139	-55.5	-80.9	264	19
2023-08-22T06:00	14564	139	-55.6	-81.0	263	18
2023-08-22T06:00	14586	138	-55.6	-81.0	263	18
2023-08-22T06:00	14605	138	-55.5	-80.9	262	17
2023-08-22T06:00	14625	137	-55.3	-81.0	262	16
2023-08-22T06:00	14645	137	-55.3	-81.0	262	16
2023-08-22T06:00	14668	137	-55.3	-80.8	262	16
2023-08-22T06:00	14687	136	-55.3	-80.8	262	16
2023-08-22T06:00	14706	136	-55.4	-80.8	263	16
2023-08-22T06:00	14728	135	-55.6	-80.8	263	16
2023-08-22T06:00	14749	135	-55.8	-80.9	264	16
2023-08-22T06:00	14772	134	-56.0	-81.1	265	16
2023-08-22T06:00	14791	134	-56.2	-81.0	266	17
2023-08-22T06:00	14814	133	-56.3	-81.1	268	17
2023-08-22T06:00	14835	133	-56.3	-81.1	269	17
2023-08-22T06:00	14855	133	-56.5	-81.2	271	18
2023-08-22T06:00	14878	132	-56.6	-81.1	273	18
2023-08-22T06:00	14899	132	-56.6	-81.1	275	18
2023-08-22T06:00	14921	131	-56.6	-81.1	277	18
2023-08-22T06:00	14945	131	-56.7	-81.2	279	18
2023-08-22T06:00	14968	130	-56.8	-81.5	281	18
2023-08-22T06:00	14989	130	-56.7	-81.4	284	18
2023-08-22T06:00	15013	129	-56.7	-81.4	286	19
2023-08-22T06:00	15033	129	-56.7	-81.6	287	19
2023-08-22T06:00	15056	128	-56.6	-81.5	289	19
2023-08-22T06:00	15077	128	-56.5	-81.7	289	18
2023-08-22T06:00	15101	128	-56.5	-81.7	290	18
2023-08-22T06:00	15125	127	-56.5	-81.7	289	17
2023-08-22T06:00	15147	127	-56.4	-81.6	289	17
2023-08-22T06:00	15169	126	-56.5	-81.7	287	16
2023-08-22T06:00	15194	126	-56.3	-81.5	285	16
2023-08-22T06:00	15217	125	-56.3	-81.5	283	15
2023-08-22T06:00	15239	125	-56.4	-81.6	281	15
2023-08-22T06:00	15262	124	-56.5	-81.7	279	15
2023-08-22T06:00	15285	124	-56.7	-81.9	277	15
2023-08-22T06:00	15309	123	-56.8	-81.9	276	14
2023-08-22T06:00	15332	123	-56.5	-81.7	274	14
2023-08-22T06:00	15356	122	-56.4	-81.9	272	14
2023-08-22T06:00	15380	122	-56.6	-82.0	270	14
2023-08-22T06:00	15401	122	-56.8	-82.2	268	14
2023-08-22T06:00	15426	121	-57.0	-82.3	266	15
2023-08-22T06:00	15448	121	-57.0	-82.3	264	16
2023-08-22T06:00	15472	120	-56.7	-82.1	263	16
2023-08-22T06:00	15494	120	-56.7	-82.1	263	17
2023-08-22T06:00	15513	119	-56.7	-82.1	264	17
2023-08-22T06:00	15535	119	-56.8	-82.2	265	17
2023-08-22T06:00	15561	119	-56.9	-82.0	266	18
2023-08-22T06:00	15581	118	-57.0	-82.1	268	18
2023-08-22T06:00	15606	118	-57.1	-82.2	269	18
2023-08-22T06:00	15629	117	-57.1	-82.2	270	18
2023-08-22T06:00	15652	117	-57.2	-82.2	270	18
2023-08-22T06:00	15673	117	-57.3	-82.3	270	18
2023-08-22T06:00	15692	116	-57.3	-82.3	271	18
2023-08-22T06:00	15716	116	-57.4	-82.4	271	17
2023-08-22T06:00	15738	115	-57.4	-82.4	272	17
2023-08-22T06:00	15758	115	-57.4	-82.4	273	17
2023-08-22T06:00	15778	115	-57.4	-82.4	274	17
2023-08-22T06:00	15803	114	-57.5	-82.5	275	17
2023-08-22T06:00	15825	114	-57.5	-82.5	277	17
2023-08-22T06:00	15848	113	-57.5	-82.5	279	17
2023-08-22T06:00	15871	113	-57.5	-82.5	280	17
2023-08-22T06:00	15893	113	-57.5	-82.5	281	17
2023-08-22T06:00	15915	112	-57.7	-82.4	281	18
2023-08-22T06:00	15937	112	-57.8	-82.5	282	18
2023-08-22T06:00	15958	111	-58.0	-82.6	282	18
2023-08-22T06:00	15979	111	-58.0	-82.6	283	18
2023-08-22T06:00	16002	111	-58.1	-82.7	283	17
2023-08-22T06:00	16023	110	-58.2	-82.8	283	17
2023-08-22T06:00	16045	110	-58.2	-82.8	282	17
2023-08-22T06:00	16065	109	-58.3	-82.9	281	16
2023-08-22T06:00	16088	109	-58.1	-82.7	279	16
2023-08-22T06:00	16109	109	-58.0	-82.9	278	15
2023-08-22T06:00	16132	108	-58.0	-82.9	276	15
2023-08-22T06:00	16154	108	-57.9	-82.8	276	14
2023-08-22T06:00	16177	108	-57.8	-82.7	276	14
2023-08-22T06:00	16197	107	-57.9	-83.0	277	14
2023-08-22T06:00	16222	107	-57.9	-83.0	279	14
2023-08-22T06:00	16244	106	-57.7	-82.9	280	14
2023-08-22T06:00	16267	106	-57.7	-82.9	282	14
2023-08-22T06:00	16289	106	-57.8	-83.0	283	14
2023-08-22T06:00	16314	105	-57.9	-83.0	283	14
2023-08-22T06:00	16336	105	-58.0	-83.1	284	14
2023-08-22T06:00	16357	105	-58.1	-83.2	283	14
2023-08-22T06:00	16380	104	-57.9	-83.0	283	14
2023-08-22T06:00	16402	104	-57.9	-83.0	283	14
2023-08-22T06:00	16424	103	-58.0	-83.4	283	13
2023-08-22T06:00	16449	103	-57.9	-83.3	284	13
2023-08-22T06:00	16472	103	-57.7	-83.4	285	12
2023-08-22T06:00	16498	102	-57.3	-83.1	286	11
2023-08-22T06:00	16519	102	-57.0	-83.2	287	11
2023-08-22T06:00	16543	101	-57.2	-83.3	288	10
2023-08-22T06:00	16568	101	-57.3	-83.4	288	10
2023-08-22T06:00	16589	101	-57.5	-83.3	289	9
2023-08-22T06:00	16611	100	-57.6	-83.3	290	9
2023-08-22T06:00	16636	100	-57.6	-83.3	291	8
2023-08-22T06:00	16657	100	-57.7	-83.4	293	8
2023-08-22T06:00	16680	99	-57.9	-83.3	295	7
2023-08-22T06:00	16702	99	-58.0	-83.4	296	7
2023-08-22T06:00	16729	99	-58.1	-83.5	298	6
2023-08-22T06:00	16751	98	-58.2	-83.5	298	6
2023-08-22T06:00	16773	98	-58.3	-83.6	297	5
2023-08-22T06:00	16797	97	-58.4	-83.7	294	5
2023-08-22T06:00	16819	97	-58.5	-83.5	290	5
2023-08-22T06:00	16842	97	-58.6	-83.6	285	5
2023-08-22T06:00	16861	96	-58.7	-83.7	281	5
2023-08-22T06:00	16884	96	-58.8	-84.0	277	5
2023-08-22T06:00	16909	96	-58.9	-84.1	273	5
2023-08-22T06:00	16929	95	-58.6	-84.1	268	5
2023-08-22T06:00	16951	95	-58.4	-84.3	263	5
2023-08-22T06:00	16976	95	-58.1	-84.3	257	6
2023-08-22T06:00	16997	94	-57.7	-84.0	253	6
2023-08-22T06:00	17019	94	-57.4	-84.1	249	7
2023-08-22T06:00	17041	94	-57.4	-84.1	247	8
2023-08-22T06:00	17063	93	-57.5	-84.2	246	8
2023-08-22T06:00	17085	93	-57.6	-83.9	245	8
2023-08-22T06:00	17107	93	-57.7	-84.0	245	9
2023-08-22T06:00	17132	92	-57.9	-83.9	245	9
2023-08-22T06:00	17157	92	-58.1	-84.0	245	10
2023-08-22T06:00	17179	92	-58.2	-84.1	246	10
2023-08-22T06:00	17201	91	-58.4	-84.3	248	11
2023-08-22T06:00	17223	91	-58.5	-84.0	249	11
2023-08-22T06:00	17246	91	-58.5	-84.0	249	12
2023-08-22T06:00	17269	90	-58.6	-84.1	250	12
2023-08-22T06:00	17290	90	-58.6	-84.1	251	13
2023-08-22T06:00	17314	90	-58.8	-84.3	253	13
2023-08-22T06:00	17332	90	-58.9	-84.4	255	13
2023-08-22T06:00	17356	89	-59.0	-84.4	259	13
2023-08-22T06:00	17377	89	-59.2	-84.6	263	13
2023-08-22T06:00	17400	89	-59.3	-84.7	266	13
2023-08-22T06:00	17423	88	-59.1	-84.8	270	13
2023-08-22T06:00	17441	88	-58.9	-84.6	273	12
2023-08-22T06:00	17467	88	-58.9	-84.6	277	11
2023-08-22T06:00	17487	87	-58.8	-84.9	280	10
2023-08-22T06:00	17508	87	-58.9	-84.9	283	10
2023-08-22T06:00	17531	87	-58.9	-84.9	286	9
2023-08-22T06:00	17553	86	-58.8	-84.9	290	8
2023-08-22T06:00	17575	86	-58.7	-84.8	293	8
2023-08-22T06:00	17597	86	-58.8	-84.9	295	7
2023-08-22T06:00	17620	86	-58.8	-84.9	296	6
2023-08-22T06:00	17642	85	-58.8	-84.9	295	6
2023-08-22T06:00	17666	85	-58.5	-84.9	291	6
2023-08-22T06:00	17688	85	-58.3	-84.8	287	6
2023-08-22T06:00	17713	84	-58.2	-84.7	283	7
2023-08-22T06:00	17735	84	-58.3	-84.8	280	7
2023-08-22T06:00	17758	84	-58.4	-84.9	278	8
2023-08-22T06:00	17780	83	-58.4	-84.9	278	9
2023-08-22T06:00	17807	83	-58.5	-84.9	278	9
2023-08-22T06:00	17827	83	-58.6	-85.0	280	9
2023-08-22T06:00	17851	82	-58.7	-85.1	282	8
2023-08-22T06:00	17875	82	-58.7	-85.1	285	7
2023-08-22T06:00	17899	82	-58.5	-84.9	287	7
2023-08-22T06:00	17920	82	-58.3	-84.8	288	6
2023-08-22T06:00	17945	81	-58.2	-84.7	287	6
2023-08-22T06:00	17971	81	-58.3	-84.8	283	5
2023-08-22T06:00	17992	81	-58.4	-84.9	277	5
2023-08-22T06:00	18020	80	-58.5	-84.9	269	5
2023-08-22T06:00	18040	80	-58.6	-85.0	262	6
2023-08-22T06:00	18064	80	-58.7	-85.1	256	6
2023-08-22T06:00	18090	79	-58.8	-85.2	252	7
2023-08-22T06:00	18111	79	-58.9	-85.3	250	8
2023-08-22T06:00	18134	79	-58.9	-85.3	250	8
2023-08-22T06:00	18161	79	-58.8	-85.2	251	9
2023-08-22T06:00	18184	78	-58.4	-85.2	253	9
2023-08-22T06:00	18208	78	-58.3	-85.1	256	9
2023-08-22T06:00	18231	78	-58.4	-85.2	258	9
2023-08-22T06:00	18253	77	-58.5	-85.3	261	9
2023-08-22T06:00	18276	77	-58.6	-85.0	264	9
2023-08-22T06:00	18299	77	-58.8	-85.2	267	9
2023-08-22T06:00	18325	76	-58.9	-85.3	271	9
2023-08-22T06:00	18347	76	-58.9	-85.3	274	9
2023-08-22T06:00	18369	76	-58.9	-85.3	276	8
2023-08-22T06:00	18394	76	-58.9	-85.3	277	8
2023-08-22T06:00	18417	75	-58.7	-85.4	276	8
2023-08-22T06:00	18441	75	-58.6	-85.4	273	7
2023-08-22T06:00	18462	75	-58.6	-85.4	270	7
2023-08-22T06:00	18486	75	-58.4	-85.2	265	6
2023-08-22T06:00	18507	74	-58.4	-85.5	261	5
2023-08-22T06:00	18532	74	-58.4	-85.5	255	5
2023-08-22T06:00	18557	74	-58.3	-85.5	250	4
2023-08-22T06:00	18579	73	-57.9	-85.2	245	4
2023-08-22T06:00	18600	73	-57.8	-85.1	243	4
2023-08-22T06:00	18626	73	-57.7	-85.0	244	4
2023-08-22T06:00	18650	73	-57.7	-85.0	247	5
2023-08-22T06:00	18673	72	-57.8	-85.1	252	5
2023-08-22T06:00	18695	72	-58.0	-85.2	257	5
2023-08-22T06:00	18720	72	-58.2	-85.4	262	5
2023-08-22T06:00	18748	72	-58.4	-85.5	267	5
2023-08-22T06:00	18767	71	-58.5	-85.6	271	5
2023-08-22T06:00	18794	71	-58.1	-85.3	274	4
2023-08-22T06:00	18814	71	-57.7	-85.4	277	4
2023-08-22T06:00	18837	70	-57.4	-85.2	278	3
2023-08-22T06:00	18860	70	-57.2	-85.0	280	3
2023-08-22T06:00	18887	70	-57.3	-85.1	283	3
2023-08-22T06:00	18911	70	-57.5	-85.2	285	3
2023-08-22T06:00	18934	69	-57.6	-85.3	284	2
2023-08-22T06:00	18957	69	-57.7	-85.4	279	2
2023-08-22T06:00	18983	69	-57.6	-85.3	267	2
2023-08-22T06:00	19008	69	-57.2	-85.0	251	2
2023-08-22T06:00	19032	68	-56.9	-84.8	237	3
2023-08-22T06:00	19059	68	-57.0	-84.8	229	3
2023-08-22T06:00	19082	68	-57.2	-85.0	225	4
2023-08-22T06:00	19105	68	-57.4	-85.2	223	4
2023-08-22T06:00	19126	67	-57.5	-85.2	224	5
2023-08-22T06:00	19152	67	-57.6	-84.9	227	5
2023-08-22T06:00	19175	67	-57.7	-85.0	231	6
2023-08-22T06:00	19198	67	-57.8	-85.1	236	6
2023-08-22T06:00	19223	66	-57.8	-85.5	242	6
2023-08-22T06:00	19246	66	-57.8	-85.5	249	6
2023-08-22T06:00	19271	66	-57.7	-85.4	256	7
2023-08-22T06:00	19295	66	-57.6	-85.3	264	7
2023-08-22T06:00	19320	65	-57.5	-85.2	273	7
2023-08-22T06:00	19346	65	-57.5	-85.2	280	7
2023-08-22T06:00	19371	65	-57.6	-85.3	287	7
2023-08-22T06:00	19394	65	-57.7	-85.4	291	7
2023-08-22T06:00	19421	64	-57.8	-85.5	294	7
2023-08-22T06:00	19446	64	-57.7	-85.4	295	6
2023-08-22T06:00	19471	64	-57.5	-85.2	295	6
2023-08-22T06:00	19497	64	-57.3	-85.5	292	5
2023-08-22T06:00	19520	63	-57.2	-85.4	288	4
2023-08-22T06:00	19544	63	-57.2	-85.4	283	4
2023-08-22T06:00	19566	63	-57.3	-85.5	277	4
2023-08-22T06:00	19592	63	-57.4	-85.6	273	4
2023-08-22T06:00	19616	62	-57.2	-85.4	272	4
2023-08-22T06:00	19638	62	-56.9	-85.2	272	4
2023-08-22T06:00	19660	62	-56.9	-85.2	274	5
2023-08-22T06:00	19683	62	-57.0	-85.2	275	5
2023-08-22T06:00	19706	61	-56.9	-85.2	278	5
2023-08-22T06:00	19729	61	-56.8	-85.1	280	4
2023-08-22T06:00	19756	61	-56.6	-84.9	282	4
2023-08-22T06:00	19781	61	-56.5	-84.9	284	5
2023-08-22T06:00	19806	60	-56.5	-84.9	284	5
2023-08-22T06:00	19825	60	-56.5	-84.9	285	5
2023-08-22T06:00	19850	60	-56.5	-84.9	286	6
2023-08-22T06:00	19873	60	-56.6	-84.9	288	6
2023-08-22T06:00	19900	60	-56.7	-85.0	292	6
2023-08-22T06:00	19919	59	-56.8	-85.1	298	6
2023-08-22T06:00	19942	59	-56.6	-84.9	306	6
2023-08-22T06:00	19965	59	-56.6	-84.9	315	5
2023-08-22T06:00	19987	59	-56.7	-85.0	326	5
2023-08-22T06:00	20009	59	-56.6	-84.9	337	5
2023-08-22T06:00	20037	58	-56.7	-85.0	347	5
2023-08-22T06:00	20061	58	-56.5	-84.9	356	5
2023-08-22T06:00	20082	58	-56.3	-85.1	6	5
2023-08-22T06:00	20106	58	-56.3	-85.1	15	4
2023-08-22T06:00	20130	57	-56.0	-84.9	25	4
2023-08-22T06:00	20156	57	-56.0	-84.9	36	4
2023-08-22T06:00	20176	57	-56.0	-84.9	47	3
2023-08-22T06:00	20205	57	-56.0	-84.9	60	3
2023-08-22T06:00	20226	57	-56.1	-85.0	73	3
2023-08-22T06:00	20250	56	-56.2	-85.1	84	2
2023-08-22T06:00	20272	56	-56.1	-85.0	92	2
2023-08-22T06:00	20296	56	-55.8	-84.8	94	2
2023-08-22T06:00	20319	56	-55.7	-84.7	94	2
2023-08-22T06:00	20344	56	-55.6	-84.6	93	3
2023-08-22T06:00	20364	55	-55.6	-84.6	95	3
2023-08-22T06:00	20392	55	-55.5	-84.5	99	3
2023-08-22T06:00	20419	55	-55.4	-84.5	104	4
2023-08-22T06:00	20444	55	-55.4	-84.5	109	4
2023-08-22T06:00	20460	55	-55.2	-84.3	113	5
2023-08-22T06:00	20489	54	-55.0	-84.2	117	5
2023-08-22T06:00	20516	54	-54.9	-84.1	121	5
2023-08-22T06:00	20536	54	-55.0	-84.2	127	5
2023-08-22T06:00	20564	54	-55.0	-84.2	134	5
2023-08-22T06:00	20586	53	-55.1	-84.2	141	5
2023-08-22T06:00	20612	53	-55.2	-84.3	147	5
2023-08-22T06:00	20634	53	-55.3	-84.4	153	4
2023-08-22T06:00	20664	53	-55.5	-84.1	159	4
2023-08-22T06:00	20686	53	-55.5	-84.1	165	4
2023-08-22T06:00	20713	52	-55.6	-84.2	170	3
2023-08-22T06:00	20738	52	-55.6	-84.2	176	3
2023-08-22T06:00	20763	52	-55.8	-84.3	183	3
2023-08-22T06:00	20782	52	-55.8	-84.3	191	3
2023-08-22T06:00	20807	52	-55.9	-84.4	199	3
2023-08-22T06:00	20833	51	-56.0	-84.5	209	2
2023-08-22T06:00	20858	51	-56.1	-84.6	220	2
2023-08-22T06:00	20885	51	-56.2	-84.6	232	2
2023-08-22T06:00	20905	51	-56.1	-84.6	245	1
2023-08-22T06:00	20933	51	-56.0	-84.9	260	1
2023-08-22T06:00	20961	50	-55.9	-84.8	277	1
2023-08-22T06:00	20982	50	-55.8	-84.8	304	0
2023-08-22T06:00	21004	50	-55.7	-84.7	348	0
2023-08-22T06:00	21033	50	-55.7	-84.7	17	0
2023-08-22T06:00	21055	50	-55.6	-84.6	310	0
2023-08-22T06:00	21082	49	-55.5	-84.5	271	0
2023-08-22T06:00	21104	49	-55.3	-84.4	278	1
2023-08-22T06:00	21130	49	-55.3	-84.4	295	1
2023-08-22T06:00	21156	49	-55.2	-84.3	322	1
2023-08-22T06:00	21181	49	-55.2	-84.3	351	1
2023-08-22T06:00	21204	49	-55.1	-84.2	13	2
2023-08-22T06:00	21230	48	-55.0	-84.2	25	2
2023-08-22T06:00	21252	48	-55.0	-84.2	32	2
2023-08-22T06:00	21280	48	-55.1	-84.2	38	1
2023-08-22T06:00	21303	48	-55.1	-84.2	44	1
2023-08-22T06:00	21332	48	-55.2	-84.3	60	1
2023-08-22T06:00	21353	47	-55.2	-84.3	92	1
2023-08-22T06:00	21379	47	-55.1	-84.2	110	1
2023-08-22T06:00	21406	47	-55.0	-84.2	113	1
2023-08-22T06:00	21431	47	-54.9	-84.1	110	2
2023-08-22T06:00	21457	47	-54.9	-84.1	105	2
2023-08-22T06:00	21480	46	-55.0	-84.2	101	3
2023-08-22T06:00	21500	46	-55.3	-84.4	96	3
2023-08-22T06:00	21529	46	-55.5	-84.5	93	3
2023-08-22T06:00	21553	46	-55.4	-84.5	90	3
2023-08-22T06:00	21580	46	-55.3	-84.4	86	3
2023-08-22T06:00	21605	46	-55.4	-84.5	80	2
2023-08-22T06:00	21628	45	-55.5	-84.5	70	2
2023-08-22T06:00	21653	45	-55.6	-84.6	55	2
2023-08-22T06:00	21682	45	-55.6	-84.6	38	2
2023-08-22T06:00	21712	45	-55.6	-84.6	25	2
2023-08-22T06:00	21734	45	-55.4	-84.5	16	3
2023-08-22T06:00	21754	45	-55.3	-84.4	12	3
2023-08-22T06:00	21787	44	-55.3	-84.9	12	3
2023-08-22T06:00	21807	44	-55.2	-84.8	15	3
2023-08-22T06:00	21834	44	-55.1	-84.7	21	3
2023-08-22T06:00	21861	44	-55.1	-84.7	29	2
2023-08-22T06:00	21883	44	-55.2	-84.8	38	2
2023-08-22T06:00	21907	43	-55.2	-84.3	48	3
2023-08-22T06:00	21933	43	-55.2	-84.3	56	3
2023-08-22T06:00	21962	43	-55.2	-84.3	63	3
2023-08-22T06:00	21983	43	-55.2	-84.8	69	3
2023-08-22T06:00	22009	43	-55.1	-84.7	73	3
2023-08-22T06:00	22037	43	-55.0	-84.6	76	3
2023-08-22T06:00	22054	42	-54.9	-84.6	78	3
2023-08-22T06:00	22087	42	-54.8	-84.5	76	3
2023-08-22T06:00	22116	42	-54.7	-84.4	70	3
2023-08-22T06:00	22133	42	-54.7	-84.4	62	3
2023-08-22T06:00	22160	42	-54.7	-84.4	54	3
2023-08-22T06:00	22188	42	-54.7	-84.4	49	3
2023-08-22T06:00	22217	41	-54.7	-84.4	46	3
2023-08-22T06:00	22240	41	-54.7	-84.4	47	3
2023-08-22T06:00	22266	41	-54.6	-84.3	48	4
2023-08-22T06:00	22289	41	-54.6	-84.3	50	4
2023-08-22T06:00	22313	41	-54.6	-84.3	53	4
2023-08-22T06:00	22342	41	-54.7	-84.4	57	4
2023-08-22T06:00	22361	40	-54.7	-84.4	62	3
2023-08-22T06:00	22389	40	-54.8	-84.5	69	3
2023-08-22T06:00	22417	40	-54.7	-84.4	79	3
2023-08-22T06:00	22445	40	-54.8	-84.5	91	3
2023-08-22T06:00	22469	40	-54.8	-84.5	104	3
2023-08-22T06:00	22490	40	-54.7	-84.4	116	3
2023-08-22T06:00	22524	40	-54.8	-84.5	126	3
2023-08-22T06:00	22547	39	-54.9	-84.1	136	3
2023-08-22T06:00	22570	39	-55.1	-84.2	143	3
2023-08-22T06:00	22598	39	-55.2	-84.3	146	3
2023-08-22T06:00	22625	39	-55.2	-84.3	146	3
2023-08-22T06:00	22648	39	-55.2	-84.3	143	3
2023-08-22T06:00	22676	39	-55.2	-84.3	137	3
2023-08-22T06:00	22701	38	-55.3	-84.4	126	2
2023-08-22T06:00	22725	38	-55.4	-84.5	111	2
2023-08-22T06:00	22756	38	-55.4	-84.5	91	1
2023-08-22T06:00	22771	38	-55.3	-84.4	66	1
2023-08-22T06:00	22805	38	-55.4	-84.5	42	1
2023-08-22T06:00	22829	38	-55.6	-84.6	26	1
2023-08-22T06:00	22857	37	-55.6	-84.6	18	2
2023-08-22T06:00	22882	37	-55.5	-84.5	15	2
2023-08-22T06:00	22909	37	-55.6	-84.6	14	3
2023-08-22T06:00	22934	37	-55.6	-84.6	14	3
2023-08-22T06:00	22961	37	-55.7	-84.7	16	3
2023-08-22T06:00	22987	37	-55.7	-84.7	19	4
2023-08-22T06:00	23008	37	-55.7	-84.7	24	4
2023-08-22T06:00	23037	36	-55.7	-84.7	29	4
2023-08-22T06:00	23060	36	-55.8	-84.8	33	5
2023-08-22T06:00	23087	36	-55.7	-84.7	35	5
2023-08-22T06:00	23110	36	-55.7	-85.2	35	6
2023-08-22T06:00	23137	36	-55.6	-85.1	33	6
2023-08-22T06:00	23166	36	-55.5	-85.0	30	6
2023-08-22T06:00	23190	36	-55.4	-84.9	27	6
2023-08-22T06:00	23209	35	-55.3	-84.9	24	5
2023-08-22T06:00	23238	35	-55.4	-84.9	21	5
2023-08-22T06:00	23267	35	-55.5	-85.0	21	5
2023-08-22T06:00	23285	35	-55.5	-85.0	24	5
2023-08-22T06:00	23319	35	-55.4	-84.9	29	5
2023-08-22T06:00	23347	35	-55.4	-84.9	36	5
2023-08-22T06:00	23370	35	-55.3	-84.9	43	5
2023-08-22T06:00	23392	34	-55.3	-84.9	50	5
2023-08-22T06:00	23421	34	-55.2	-84.8	55	5
2023-08-22T06:00	23444	34	-55.2	-84.8	60	5
2023-08-22T06:00	23475	34	-55.2	-84.8	64	5
2023-08-22T06:00	23499	34	-55.2	-84.8	67	6
2023-08-22T06:00	23526	34	-55.2	-84.8	71	6
2023-08-22T06:00	23553	34	-55.2	-84.8	74	6
2023-08-22T06:00	23578	33	-55.3	-84.9	77	6
2023-08-22T06:00	23605	33	-55.3	-84.9	80	6
2023-08-22T06:00	23623	33	-55.3	-84.9	82	6
2023-08-22T06:00	23662	33	-55.2	-84.8	84	6
2023-08-22T06:00	23681	33	-55.2	-84.8	87	6
2023-08-22T06:00	23708	33	-55.2	-84.8	89	6
2023-08-22T06:00	23726	33	-55.4	-84.9	91	6
2023-08-22T06:00	23760	33	-55.1	-84.7	93	6
2023-08-22T06:00	23779	32	-54.8	-85.0	95	5
2023-08-22T06:00	23811	32	-54.8	-85.0	95	4
2023-08-22T06:00	23836	32	-54.9	-85.1	93	4
2023-08-22T06:00	23870	32	-54.8	-85.0	90	4
2023-08-22T06:00	23891	32	-54.6	-84.8	87	4
2023-08-22T06:00	23916	32	-54.5	-84.8	86	4
2023-08-22T06:00	23948	32	-54.4	-84.7	88	4
2023-08-22T06:00	23975	31	-54.4	-84.7	92	4
2023-08-22T06:00	23996	31	-54.2	-84.5	98	5
2023-08-22T06:00	24028	31	-54.1	-84.5	103	5
2023-08-22T06:00	24058	31	-54.0	-84.4	107	5
2023-08-22T06:00	24077	31	-53.8	-84.2	110	5
2023-08-22T06:00	24110	31	-53.8	-84.2	112	5
2023-08-22T06:00	24138	31	-53.8	-84.2	113	4
2023-08-22T06:00	24168	31	-53.9	-84.3	114	4
2023-08-22T06:00	24187	30	-53.8	-84.2	113	3
2023-08-22T06:00	24214	30	-53.8	-84.2	111	3
2023-08-22T06:00	24244	30	-53.8	-84.2	106	3
2023-08-22T06:00	24277	30	-53.9	-84.3	101	3
2023-08-22T06:00	24304	30	-53.8	-84.2	99	3
2023-08-22T06:00	24328	30	-53.8	-84.2	100	3
2023-08-22T06:00	24352	30	-53.7	-84.2	102	4
2023-08-22T06:00	24386	30	-53.6	-84.1	104	4
2023-08-22T06:00	24415	29	-53.7	-84.2	107	5
2023-08-22T06:00	24438	29	-53.7	-84.2	109	5
2023-08-22T06:00	24466	29	-53.7	-84.2	111	5
2023-08-22T06:00	24494	29	-53.6	-84.1	113	5
2023-08-22T06:00	24521	29	-53.6	-84.1	117	5
2023-08-22T06:00	24545	29	-53.5	-84.0	122	4
2023-08-22T06:00	24575	29	-53.4	-84.5	129	4
2023-08-22T06:00	24602	29	-53.4	-84.5	138	3
2023-08-22T06:00	24624	28	-53.3	-84.4	147	3
2023-08-22T06:00	24653	28	-53.2	-84.4	155	3
2023-08-22T06:00	24685	28	-53.2	-84.4	161	3
2023-08-22T06:00	24710	28	-53.2	-84.4	164	2
2023-08-22T06:00	24736	28	-53.3	-83.9	165	2
2023-08-22T06:00	24769	28	-53.3	-83.9	163	2
2023-08-22T06:00	24790	28	-53.3	-83.9	157	1
2023-08-22T06:00	24814	28	-53.3	-83.9	146	1
2023-08-22T06:00	24839	27	-53.3	-84.4	126	1
2023-08-22T06:00	24876	27	-53.3	-84.4	101	1
2023-08-22T06:00	24898	27	-53.2	-84.4	79	1
2023-08-22T06:00	24927	27	-53.1	-84.3	65	1
2023-08-22T06:00	24955	27	-53.0	-84.2	56	1
2023-08-22T06:00	24985	27	-53.0	-84.2	47	1
2023-08-22T06:00	25011	27	-52.8	-84.1	40	2
2023-08-22T06:00	25032	27	-52.6	-83.9	36	2
2023-08-22T06:00	25063	27	-52.5	-83.8	35	3
2023-08-22T06:00	25080	26	-52.3	-83.7	37	3
2023-08-22T06:00	25119	26	-52.1	-83.5	40	4
2023-08-22T06:00	25147	26	-52.0	-83.5	46	4
2023-08-22T06:00	25170	26	-51.9	-83.4	55	4
2023-08-22T06:00	25188	26	-52.0	-83.5	65	4
2023-08-22T06:00	25223	26	-52.0	-83.5	78	3
2023-08-22T06:00	25251	26	-51.9	-83.4	91	3
2023-08-22T06:00	25277	26	-51.7	-83.2	103	3
2023-08-22T06:00	25303	26	-51.6	-83.2	113	3
2023-08-22T06:00	25334	25	-51.6	-83.2	120	3
2023-08-22T06:00	25362	25	-51.6	-83.2	125	3
2023-08-22T06:00	25382	25	-51.6	-83.2	129	3
2023-08-22T06:00	25416	25	-51.5	-83.7	135	3
2023-08-22T06:00	25443	25	-51.3	-83.6	142	3
2023-08-22T06:00	25472	25	-51.3	-83.6	153	3
2023-08-22T06:00	25496	25	-51.3	-83.6	169	2
2023-08-22T06:00	25528	25	-51.3	-83.6	186	2
2023-08-22T06:00	25554	25	-51.4	-83.0	205	2
2023-08-22T06:00	25581	25	-51.5	-83.1	224	2
2023-08-22T06:00	25599	24	-51.6	-83.2	248	2
2023-08-22T06:00	25638	24	-51.6	-83.2	280	1
2023-08-22T06:00	25657	24	-51.5	-83.1	317	1
2023-08-22T06:00	25690	24	-51.5	-83.1	345	2
2023-08-22T06:00	25722	24	-51.4	-83.0	4	2
2023-08-22T06:00	25739	24	-51.4	-83.6	18	3
2023-08-22T06:00	25769	24	-51.2	-83.5	30	3
2023-08-22T06:00	25793	24	-51.2	-83.5	39	3
2023-08-22T06:00	25829	24	-51.2	-83.5	47	3
2023-08-22T06:00	25854	24	-51.3	-83.6	53	3
2023-08-22T06:00	25889	23	-51.2	-83.5	60	4
2023-08-22T06:00	25913	23	-51.2	-83.5	65	4
2023-08-22T06:00	25942	23	-51.1	-83.4	71	4
2023-08-22T06:00	25971	23	-51.1	-83.4	76	5
2023-08-22T06:00	25994	23	-51.1	-83.4	80	5
2023-08-22T06:00	26024	23	-51.1	-83.4	83	5
2023-08-22T06:00	26054	23	-51.0	-83.3	86	5
2023-08-22T06:00	26085	23	-51.0	-83.3	88	5
2023-08-22T06:00	26102	23	-50.9	-83.3	90	5
2023-08-22T06:00	26132	23	-50.8	-83.2	92	5
2023-08-22T06:00	26161	22	-50.7	-83.1	92	5
2023-08-22T06:00	26190	22	-50.6	-83.1	92	5
2023-08-22T06:00	26218	22	-50.5	-83.0	92	5
2023-08-22T06:00	26250	22	-50.4	-82.9	92	5
2023-08-22T06:00	26276	22	-50.4	-82.9	91	4
2023-08-22T06:00	26299	22	-50.4	-82.9	91	4
2023-08-22T06:00	26328	22	-50.4	-82.9	92	4
2023-08-22T06:00	26350	22	-50.5	-83.0	94	4
2023-08-22T06:00	26382	22	-50.4	-82.9	96	3
2023-08-22T06:00	26414	22	-50.3	-82.8	98	3
2023-08-22T06:00	26434	22	-50.2	-82.8	97	3
2023-08-22T06:00	26470	21	-50.0	-83.3	92	2
2023-08-22T06:00	26490	21	-49.8	-83.2	77	2
2023-08-22T06:00	26526	21	-49.7	-83.1	53	2
2023-08-22T06:00	26551	21	-49.5	-82.9	33	2
2023-08-22T06:00	26580	21	-49.2	-82.7	25	2
2023-08-22T06:00	26613	21	-49.1	-82.7	24	2
2023-08-22T06:00	26632	21	-49.1	-82.7	27	3
2023-08-22T06:00	26663	21	-49.1	-82.7	32	3
2023-08-22T06:00	26692	21	-49.2	-82.7	38	3
2023-08-22T06:00	26710	21	-49.2	-82.7	44	4
2023-08-22T06:00	26742	21	-49.3	-82.8	50	4
2023-08-22T06:00	26769	20	-49.3	-82.8	57	4
2023-08-22T06:00	26808	20	-49.3	-82.8	66	4
2023-08-22T06:00	26823	20	-49.2	-82.7	78	3
2023-08-22T06:00	26861	20	-49.3	-82.8	93	3
2023-08-22T06:00	26883	20	-49.5	-82.9	112	3
2023-08-22T06:00	26920	20	-49.5	-82.9	131	3
2023-08-22T06:00	26944	20	-49.4	-82.9	147	3
2023-08-22T06:00	26962	20	-49.2	-82.7	161	3
2023-08-22T06:00	26996	20	-48.8	-82.4	172	3
2023-08-22T06:00	27021	20	-48.7	-82.4	181	3
2023-08-22T06:00	27051	20	-48.5	-82.2	188	3
2023-08-22T06:00	27073	20	-48.3	-82.1	193	3
2023-08-22T06:00	27100	19	-48.2	-82.8	196	3
2023-08-22T06:00	27132	19	-47.9	-82.6	198	3
2023-08-22T06:00	27159	19	-47.8	-82.5	199	3
2023-08-22T06:00	27191	19	-47.9	-81.8	200	3
2023-08-22T06:00	27215	19	-47.9	-81.8	199	2
2023-08-22T06:00	27242	19	-47.8	-81.7	195	2
2023-08-22T06:00	27271	19	-47.7	-82.4	187	2
2023-08-22T06:00	27295	19	-47.5	-82.3	167	1
2023-08-22T06:00	27337	19	-47.2	-82.1	134	1
2023-08-22T06:00	27362	19	-47.0	-81.9	105	2
2023-08-22T06:00	27395	19	-46.9	-81.9	90	2
2023-08-22T06:00	27422	19	-46.8	-81.8	83	2
2023-08-22T06:00	27440	18	-46.6	-81.7	78	2
2023-08-22T06:00	27476	18	-46.5	-81.6	72	1
2023-08-22T06:00	27494	18	-46.6	-81.7	63	1
2023-08-22T06:00	27534	18	-46.8	-81.8	51	1
2023-08-22T06:00	27558	18	-46.7	-81.7	42	1
2023-08-22T06:00	27583	18	-46.6	-81.7	38	1
2023-08-22T06:00	27614	18	-46.8	-81.8	41	1
2023-08-22T06:00	27644	18	-46.8	-81.8	53	1
2023-08-22T06:00	27677	18	-46.8	-81.8	76	1
2023-08-22T06:00	27710	18	-47.0	-81.9	95	1
2023-08-22T06:00	27730	18	-47.1	-81.2	107	2
2023-08-22T06:00	27764	18	-47.1	-82.0	114	2
2023-08-22T06:00	27791	18	-47.0	-81.9	122	2
2023-08-22T06:00	27824	17	-46.9	-81.9	134	3
2023-08-22T06:00	27853	17	-46.9	-81.9	151	2
2023-08-22T06:00	27883	17	-46.8	-81.8	172	3
2023-08-22T06:00	27909	17	-46.6	-81.7	191	3
2023-08-22T06:00	27945	17	-46.6	-81.7	205	3
2023-08-22T06:00	27968	17	-46.6	-81.7	217	3
2023-08-22T06:00	27996	17	-46.6	-81.7	230	3
2023-08-22T06:00	28026	17	-46.5	-81.6	248	3
2023-08-22T06:00	28053	17	-46.4	-81.5	271	2
2023-08-22T06:00	28093	17	-46.1	-81.3	299	2
2023-08-22T06:00	28109	17	-46.0	-81.2	325	2
2023-08-22T06:00	28150	17	-45.9	-81.2	346	3
2023-08-22T06:00	28176	17	-45.8	-81.1	4	3
2023-08-22T06:00	28202	16	-45.6	-81.9	19	3
2023-08-22T06:00	28227	16	-45.3	-81.6	29	4
2023-08-22T06:00	28266	16	-45.2	-81.6	35	4
2023-08-22T06:00	28282	16	-45.1	-81.5	36	4
2023-08-22T06:00	28315	16	-45.0	-81.4	35	5
2023-08-22T06:00	28348	16	-45.0	-81.4	32	5
2023-08-22T06:00	28382	16	-45.0	-81.4	30	6
2023-08-22T06:00	28400	16	-44.9	-81.4	29	7
2023-08-22T06:00	28435	16	-44.8	-81.3	29	7
2023-08-22T06:00	28462	16	-44.5	-81.1	30	8
2023-08-22T06:00	28493	16	-44.3	-80.9	33	8
2023-08-22T06:00	28518	16	-44.2	-80.9	36	8
2023-08-22T06:00	28543	16	-44.1	-80.8	40	8
2023-08-22T06:00	28583	16	-44.0	-80.7	44	8
2023-08-22T06:00	28613	16	-44.0	-80.7	48	7
2023-08-22T06:00	28639	15	-44.1	-80.8	52	7
2023-08-22T06:00	28677	15	-44.2	-80.9	56	7
2023-08-22T06:00	28696	15	-44.2	-80.9	59	7
2023-08-22T06:00	28733	15	-44.3	-80.9	63	6
2023-08-22T06:00	28762	15	-44.5	-80.1	67	6
2023-08-22T06:00	28794	15	-44.7	-80.3	70	5
2023-08-22T06:00	28816	15	-44.8	-80.4	72	5
2023-08-22T06:00	28848	15	-44.9	-80.4	75	4
2023-08-22T06:00	28883	15	-45.0	-80.5	77	3
2023-08-22T06:00	28922	15	-45.1	-80.6	79	3
2023-08-22T06:00	28937	15	-45.2	-80.7	80	2
2023-08-22T06:00	28977	15	-45.3	-80.7	76	1
2023-08-22T06:00	29013	15	-45.3	-80.7	62	1
2023-08-22T06:00	29041	15	-45.3	-80.7	43	1
2023-08-22T06:00	29065	14	-45.3	-80.7	32	2
2023-08-22T06:00	29103	14	-45.3	-81.6	31	2
2023-08-22T06:00	29119	14	-45.3	-81.6	34	3
2023-08-22T06:00	29168	14	-45.3	-81.6	37	4
2023-08-22T06:00	29169	14	-45.2	-81.6	41	4
2023-08-22T06:00	29220	14	-45.1	-81.5	45	5
2023-08-22T06:00	29244	14	-45.0	-81.4	48	5
2023-08-22T06:00	29272	14	-44.8	-81.3	50	5
2023-08-22T06:00	29309	14	-44.7	-81.2	53	5
2023-08-22T06:00	29348	14	-44.7	-81.2	56	4
2023-08-22T06:00	29373	14	-44.5	-81.1	59	4
2023-08-22T06:00	29399	14	-44.5	-81.1	62	3
2023-08-22T06:00	29431	14	-44.6	-81.2	62	3
2023-08-22T06:00	29460	14	-44.6	-81.2	57	2
2023-08-22T06:00	29480	14	-44.5	-81.1	39	1
2023-08-22T06:00	29516	14	-44.4	-81.0	7	1
2023-08-22T06:00	29544	13	-44.2	-80.9	347	2
2023-08-22T06:00	29583	13	-44.0	-80.7	340	3
2023-08-22T06:00	29609	13	-43.7	-80.5	341	3
2023-08-22T06:00	29627	13	-43.5	-80.4	345	4
2023-08-22T06:00	29663	13	-43.4	-80.3	350	5
2023-08-22T06:00	29694	13	-43.4	-80.3	356	5
2023-08-22T06:00	29722	13	-43.6	-80.4	1	6
2023-08-22T06:00	29744	13	-43.6	-80.4	5	7
2023-08-22T06:00	29789	13	-43.6	-80.4	9	8
2023-08-22T06:00	29821	13	-43.5	-80.4	13	8
2023-08-22T06:00	29835	13	-43.5	-80.4	17	9
2023-08-22T06:00	29874	13	-43.4	-80.3	21	9
2023-08-22T06:00	29885	13	-43.4	-80.3	25	10
2023-08-22T06:00	29930	13	-43.4	-80.3	29	10
2023-08-22T06:00	29958	13	-43.5	-80.4	32	10
2023-08-22T06:00	29986	13	-43.5	-80.4	36	10
2023-08-22T06:00	30013	13	-43.6	-80.4	39	10
2023-08-22T06:00	30048	13	-43.8	-80.6	43	10
2023-08-22T06:00	30065	12	-43.9	-80.7	46	10
2023-08-22T06:00	30094	12	-44.0	-80.7	49	10
2023-08-22T06:00	30133	12	-44.2	-80.9	54	9
2023-08-22T06:00	30165	12	-44.2	-80.9	58	9
2023-08-22T06:00	30192	12	-44.3	-80.9	63	9
2023-08-22T06:00	30216	12	-44.3	-80.9	67	9
2023-08-22T06:00	30242	12	-44.4	-81.0	71	8
2023-08-22T06:00	30270	12	-44.3	-80.9	74	8
2023-08-22T06:00	30311	12	-44.4	-81.0	78	8
2023-08-22T06:00	30341	12	-44.6	-81.2	81	7
2023-08-22T06:00	30367	12	-44.7	-81.2	85	7
2023-08-22T06:00	30396	12	-44.7	-81.2	87	6
2023-08-22T06:00	30430	12	-44.7	-81.2	88	6
2023-08-22T06:00	30463	12	-44.6	-81.2	86	5
2023-08-22T06:00	30492	12	-44.6	-81.2	79	4
2023-08-22T06:00	30526	12	-44.5	-81.1	71	4
2023-08-22T06:00	30555	12	-44.2	-80.9	63	4
2023-08-22T06:00	30569	12	-44.0	-80.7	59	4
2023-08-22T06:00	30616	12	-43.9	-81.8	60	4
2023-08-22T06:00	30645	11	-43.8	-81.7	65	4
2023-08-22T06:00	30667	11	-43.6	-81.5	70	4
2023-08-22T06:00	30692	11	-43.4	-81.4	73	4
2023-08-22T06:00	30726	11	-43.3	-81.3	73	4
2023-08-22T06:00	30746	11	-43.2	-81.3	69	4
2023-08-22T06:00	30785	11	-43.2	-81.3	59	3
2023-08-22T06:00	30811	11	-43.1	-81.2	45	3
2023-08-22T06:00	30839	11	-43.1	-81.2	33	4
2023-08-22T06:00	30880	11	-43.0	-81.1	26	4
2023-08-22T06:00	30898	11	-42.9	-81.1	23	5
2023-08-22T06:00	30933	11	-42.6	-80.8	23	6
2023-08-22T06:00	30972	11	-42.4	-80.7	24	6
2023-08-22T06:00	30985	11	-42.2	-80.6	27	7
2023-08-22T06:00	31028	11	-42.1	-80.5	31	7
2023-08-22T06:00	31050	11	-42.0	-80.4	36	7
2023-08-22T06:00	31101	11	-41.9	-80.4	43	8
2023-08-22T06:00	31127	11	-41.8	-80.3	49	8
2023-08-22T06:00	31164	11	-41.9	-80.4	55	9
2023-08-22T06:00	31186	11	-42.0	-80.4	60	9
2023-08-22T06:00	31203	11	-42.2	-80.6	64	10
2023-08-22T06:00	31241	10	-42.4	-80.7	67	10
2023-08-22T06:00	31285	10	-42.5	-80.8	70	11
2023-08-22T06:00	31291	10	-42.5	-80.8	72	11
2023-08-22T06:00	31348	10	-42.4	-80.7	75	11
2023-08-22T06:00	31369	10	-42.4	-80.7	77	11
2023-08-22T06:00	31410	10	-42.4	-80.7	79	11
2023-08-22T06:00	31419	10	-42.5	-80.8	80	11
2023-08-22T06:00	31452	10	-42.6	-80.8	81	10
2023-08-22T06:00	31493	10	-42.6	-80.8	81	10
2023-08-22T06:00	31520	10	-42.7	-80.9	80	10
2023-08-22T06:00	31530	10	-42.7	-80.9	79	9
2023-08-22T06:00	31579	10	-42.7	-80.9	76	9
2023-08-22T06:00	31603	10	-42.8	-81.0	73	8
2023-08-22T06:00	31638	10	-42.9	-81.1	69	7
2023-08-22T06:00	31658	10	-43.0	-81.1	64	7
2023-08-22T06:00	31697	10	-42.9	-81.1	59	7
2023-08-22T06:00	31713	10	-42.6	-80.8	55	7
2023-08-22T06:00	31758	10	-42.3	-80.6	53	7
2023-08-22T06:00	31786	10	-42.0	-80.4	54	7
2023-08-22T06:00	31815	10	-41.8	-80.3	57	7
2023-08-22T06:00	31844	10	-41.5	-80.1	61	8
2023-08-22T06:00	31876	10	-41.2	-79.9	65	8
2023-08-22T06:00	31907	10	-41.2	-79.9	69	9
2023-08-22T06:00	31932	9	-41.2	-79.9	73	10
2023-08-22T06:00	31960	9	-41.3	-79.9	76	10
2023-08-22T06:00	31982	9	-41.3	-79.9	80	10
2023-08-22T06:00	32033	9	-41.2	-79.9	83	10
2023-08-22T06:00	32049	9	-41.0	-79.7	87	10
2023-08-22T06:00	32066	9	-40.8	-79.6	92	10
2023-08-22T06:00	32106	9	-40.8	-79.6	97	10
2023-08-22T06:00	32148	9	-40.7	-79.5	103	10
2023-08-22T06:00	32171	9	-40.6	-79.5	109	10
2023-08-22T06:00	32206	9	-40.4	-79.3	115	9
2023-08-22T06:00	32226	9	-40.4	-79.3	121	9
2023-08-22T06:00	32261	9	-40.3	-79.2	127	9
2023-08-22T06:00	32300	9	-40.3	-79.2	131	9
2023-08-22T06:00	32321	9	-40.2	-79.2	133	8
2023-08-22T06:00	32364	9	-40.1	-79.1	133	8
2023-08-22T06:00	32370	9	-40.0	-79.0	129	7
2023-08-22T06:00	32406	9	-39.7	-78.8	123	6
2023-08-22T06:00	32420	9	-39.5	-78.7	113	5
2023-08-22T06:00	32477	9	-39.1	-78.4	100	5
2023-08-22T06:00	32480	9	-38.9	-78.3	87	5
2023-08-22T06:00	32518	9	-38.7	-78.1	76	5
2023-08-22T06:00	32529	9	-38.5	-78.0	69	5
2023-08-22T06:00	32586	9	-38.2	-77.8	66	5
2023-08-22T06:00	32631	9	-37.9	-77.6	66	5
2023-08-22T06:00	32632	9	-37.6	-77.4	66	5
2023-08-22T06:00	32672	9	-37.5	-77.3	67	5
2023-08-22T06:00	32686	8	-37.4	-77.2	66	5
2023-08-22T06:00	32731	8	-37.2	-77.1	63	5
2023-08-22T06:00	32771	8	-37.0	-77.0	61	5
2023-08-22T06:00	32807	8	-36.8	-76.8	60	5
2023-08-22T06:00	32810	8	-36.8	-76.8	61	5
2023-08-22T06:00	32817	8	-36.9	-76.9	65	5
2023-08-22T06:00	32876	8	-36.8	-76.8	70	5
2023-08-22T06:00	32883	8	-36.7	-76.7	76	5
2023-08-22T06:00	32927	8	-36.6	-76.7	79	5
2023-08-22T06:00	32954	8	-36.4	-76.5	80	5
2023-08-22T06:00	32984	8	-36.3	-76.5	79	5
2023-08-22T06:00	33004	8	-36.4	-76.5	76	5
2023-08-22T06:00	33054	8	-36.4	-76.5	72	5
2023-08-22T06:00	33072	8	-36.3	-76.5	66	4
2023-08-22T06:00	33082	8	-36.2	-76.4	60	4
2023-08-22T06:00	33134	8	-36.1	-76.3	55	4
2023-08-22T06:00	33178	8	-35.9	-76.2	52	4
2023-08-22T06:00	33189	8	-35.8	-76.1	51	4
2023-08-22T06:00	33225	8	-35.8	-76.1	53	4
2023-08-22T06:00	33253	8	-35.7	-76.1	57	4
2023-08-22T06:00	33295	8	-35.7	-76.1	64	3
2023-08-22T06:00	33307	8	-35.7	-76.1	73	3
2023-08-22T06:00	33328	8	-35.7	-76.1	81	3
2023-08-22T06:00	33358	8	-35.6	-76.0	88	3
2023-08-22T06:00	33392	8	-35.6	-76.0	95	4
2023-08-22T06:00	33430	8	-35.5	-75.9	103	4
2023-08-22T06:00	33442	8	-35.4	-75.8	111	5
2023-08-22T06:00	33471	8	-35.3	-75.8	119	6
2023-08-22T06:00	33523	8	-35.1	-75.6	126	6
2023-08-22T06:00	33533	8	-35.0	-75.6	131	7
2023-08-22T06:00	33556	8	-35.0	-75.6	136	7
2023-08-22T06:00	33565	7	-34.9	-75.5	140	8
2023-08-22T06:00	33605	7	-34.9	-75.5	144	8
2023-08-22T06:00	33641	7	-35.0	-75.6	147	8
2023-08-22T06:00	33662	7	-35.1	-75.6	149	8
2023-08-22T06:00	33701	7	-35.1	-75.6	150	9
2023-08-22T06:00	33727	7	-35.2	-75.7	149	9
2023-08-22T06:00	33748	7	-35.2	-75.7	147	9
2023-08-22T06:00	33780	7	-35.1	-75.6	145	9
2023-08-22T06:00	33806	7	-35.1	-75.6	143	8
2023-08-22T06:00	33811	7	-35.2	-75.7	141	8
2023-08-22T06:00	33880	7	-35.3	-75.8	139	8
2023-08-22T06:00	33907	7	-35.3	-75.8	136	8
2023-08-22T06:00	33915	7	-35.2	-75.7	133	8
2023-08-22T06:00	33948	7	-35.2	-75.7	129	8
2023-08-22T06:00	33985	7	-35.2	-75.7	126	8
2023-08-22T06:00	33994	7	-35.1	-75.6	124	8
2023-08-22T06:00	34055	7	-35.2	-75.7	122	8
2023-08-22T06:00	34066	7	-35.2	-75.7	122	8
2023-08-22T06:00	34092	7	-35.2	-75.7	122	8
2023-08-22T06:00	34121	7	-35.3	-75.8	121	8
2023-08-22T06:00	34149	7	-35.4	-75.8	119	8
2023-08-22T06:00	34164	7	-35.4	-75.8	116	8
2023-08-22T06:00	34199	7	-35.4	-75.8	111	8
2023-08-22T06:00	34228	7	-35.2	-75.7	107	8
2023-08-22T06:00	34254	7	-35.0	-75.6	104	9
2023-08-22T06:00	34306	7	-34.9	-75.5	102	9
2023-08-22T06:00	34337	7	-34.9	-75.5	103	9
2023-08-22T06:00	34346	7	-34.9	-75.5	105	9
2023-08-22T06:00	34364	7	-34.9	-75.5	108	8
2023-08-22T06:00	34403	7	-34.9	-75.5	114	9
2023-08-22T06:00	34435	7	-34.9	-75.5	119	9
2023-08-22T06:00	34441	7	-34.7	-75.4	125	9
2023-08-22T12:00	-999					
2023-08-22T12:00	126	1003	23.9	14.6	87	4
2023-08-22T12:00	148	1001	23.5	13.8	87	5
2023-08-22T12:00	166	999	23.5	14.0	86	6
2023-08-22T12:00	181	997	23.2	13.8	84	6
2023-08-22T12:00	200	995	23.0	13.6	81	7
2023-08-22T12:00	219	993	22.8	13.8	76	7
2023-08-22T12:00	238	991	22.6	13.6	72	6
2023-08-22T12:00	258	988	22.5	13.7	68	6
2023-08-22T12:00	277	986	22.3	13.8	66	6
2023-08-22T12:00	302	984	22.1	13.7	65	6
2023-08-22T12:00	320	981	21.9	13.7	66	5
2023-08-22T12:00	340	979	21.8	13.8	67	5
2023-08-22T12:00	360	977	21.6	13.9	66	5
2023-08-22T12:00	380	975	21.4	13.7	64	4
2023-08-22T12:00	402	972	21.1	13.5	60	4
2023-08-22T12:00	420	970	20.9	13.5	56	4
2023-08-22T12:00	440	968	20.8	13.6	57	3
2023-08-22T12:00	463	965	20.6	13.6	64	4
2023-08-22T12:00	487	963	20.3	13.4	75	4
2023-08-22T12:00	510	960	20.2	13.5	84	4
2023-08-22T12:00	529	958	19.9	13.5	89	5
2023-08-22T12:00	551	956	19.8	13.6	89	5
2023-08-22T12:00	568	953	19.6	13.5	88	5
2023-08-22T12:00	592	951	19.4	13.5	86	6
2023-08-22T12:00	613	949	19.2	13.6	86	5
2023-08-22T12:00	635	946	19.1	13.6	88	5
2023-08-22T12:00	655	944	18.9	13.6	93	4
2023-08-22T12:00	675	942	18.8	13.7	101	4
2023-08-22T12:00	697	939	18.6	13.7	112	3
2023-08-22T12:00	718	937	18.4	13.6	125	3
2023-08-22T12:00	742	935	18.3	13.7	135	3
2023-08-22T12:00	763	932	18.1	13.6	140	4
2023-08-22T12:00	783	930	18.0	13.5	143	4
2023-08-22T12:00	804	928	17.9	13.5	148	4
2023-08-22T12:00	824	926	17.8	13.5	157	4
2023-08-22T12:00	845	923	17.6	13.4	169	4
2023-08-22T12:00	866	921	17.5	13.3	181	4
2023-08-22T12:00	888	919	17.4	13.2	187	5
2023-08-22T12:00	908	917	17.5	12.9	189	5
2023-08-22T12:00	927	915	17.7	12.4	187	6
2023-08-22T12:00	944	913	17.7	12.3	185	6
2023-08-22T12:00	965	911	17.7	12.3	182	5
2023-08-22T12:00	987	908	17.6	12.0	182	5
2023-08-22T12:00	1006	906	17.5	12.2	185	5
2023-08-22T12:00	1029	904	17.4	11.8	191	4
2023-08-22T12:00	1050	902	17.3	11.5	197	4
2023-08-22T12:00	1068	900	17.2	11.3	201	4
2023-08-22T12:00	1086	898	17.1	11.1	203	4
2023-08-22T12:00	1109	895	17.0	10.7	204	5
2023-08-22T12:00	1135	893	16.8	10.7	206	5
2023-08-22T12:00	1153	891	16.7	10.8	209	4
2023-08-22T12:00	1172	889	16.5	11.7	214	4
2023-08-22T12:00	1193	887	16.4	13.1	221	4
2023-08-22T12:00	1216	884	16.3	13.4	230	4
2023-08-22T12:00	1246	881	16.2	13.4	239	4
2023-08-22T12:00	1278	878	16.1	13.7	245	4
2023-08-22T12:00	1300	876	16.0		249	5
2023-08-22T12:00	1323	873	15.8	13.9	250	5
2023-08-22T12:00	1346	871	15.7	14.2	250	6
2023-08-22T12:00	1365	869	15.6	14.1	250	7
2023-08-22T12:00	1383	867	15.5	14.2	249	8
2023-08-22T12:00	1406	865	15.5	14.1	248	8
2023-08-22T12:00	1425	863	15.6	14.0	246	9
2023-08-22T12:00	1446	861	15.5	13.9	245	8
2023-08-22T12:00	1465	859	15.4	13.7	245	8
2023-08-22T12:00	1483	857	15.2	13.7	245	8
2023-08-22T12:00	1501	855	15.2	13.5	245	8
2023-08-22T12:00	1525	853	15.0	13.3	244	8
2023-08-22T12:00	1547	851	14.8	13.1	241	8
2023-08-22T12:00	1564	849	14.7	13.0	238	9
2023-08-22T12:00	1585	847	14.6	12.7	234	9
2023-08-22T12:00	1605	845	14.5	12.6	232	10
2023-08-22T12:00	1627	843	14.4	12.7	231	11
2023-08-22T12:00	1646	841	14.2	12.7	232	11
2023-08-22T12:00	1667	839	14.2	12.1	233	12
2023-08-22T12:00	1685	837	14.0	11.9	235	13
2023-08-22T12:00	1707	835	14.0	11.8	236	13
2023-08-22T12:00	1725	833	13.7	11.8	238	13
2023-08-22T12:00	1747	831	13.5	11.7	239	12
2023-08-22T12:00	1766	829	13.4	11.7	239	11
2023-08-22T12:00	1788	827	13.3	11.8	238	11
2023-08-22T12:00	1806	825	13.0	11.8	235	10
2023-08-22T12:00	1827	823	12.9	11.9	233	10
2023-08-22T12:00	1848	821	12.7	11.8	233	10
2023-08-22T12:00	1868	819	12.5	11.6	235	10
2023-08-22T12:00	1888	817	12.4	11.6	238	10
2023-08-22T12:00	1908	815	12.2	11.5	241	11
2023-08-22T12:00	1930	813	12.0	11.3	241	11
2023-08-22T12:00	1948	811	11.8	11.2	239	12
2023-08-22T12:00	1971	809	11.7	11.2	237	12
2023-08-22T12:00	1990	807	11.5	11.1	234	11
2023-08-22T12:00	2010	805	11.4	10.9	234	11
2023-08-22T12:00	2029	803	11.2	10.7	235	11
2023-08-22T12:00	2047	802	11.1	10.6	237	10
2023-08-22T12:00	2063	800	10.9	10.4	240	11
2023-08-22T12:00	2083	798	10.8	10.4	240	11
2023-08-22T12:00	2100	796	10.7	10.4	239	12
2023-08-22T12:00	2127	794	10.5	10.0	238	12
2023-08-22T12:00	2150	792	10.3	9.6	237	12
2023-08-22T12:00	2169	790	10.2	9.5	237	12
2023-08-22T12:00	2189	788	10.0	9.0	240	11
2023-08-22T12:00	2211	786	9.9	8.9	243	11
2023-08-22T12:00	2229	784	9.8	8.6	246	11
2023-08-22T12:00	2250	782	9.6	8.5	248	11
2023-08-22T12:00	2271	780	9.4	8.3	248	10
2023-08-22T12:00	2292	778	9.2	8.0	246	10
2023-08-22T12:00	2312	776	9.1	7.6	244	9
2023-08-22T12:00	2333	775	9.0	7.1	242	9
2023-08-22T12:00	2353	773	8.9	6.8	241	9
2023-08-22T12:00	2372	771	8.8	6.7	240	9
2023-08-22T12:00	2391	769	8.6	6.4	240	10
2023-08-22T12:00	2410	767	8.5	5.7	241	10
2023-08-22T12:00	2428	766	8.4	6.1	242	11
2023-08-22T12:00	2446	764	8.3	6.0	241	11
2023-08-22T12:00	2465	762	8.1	5.9	240	12
2023-08-22T12:00	2488	760	7.9	5.5	238	12
2023-08-22T12:00	2509	758	7.8	5.5	237	12
2023-08-22T12:00	2531	756	7.6	5.2	237	12
2023-08-22T12:00	2551	754	7.5	5.3	238	12
2023-08-22T12:00	2569	753	7.3	5.3	239	12
2023-08-22T12:00	2590	751	7.3	4.9	239	12
2023-08-22T12:00	2608	749	7.1	4.9	240	12
2023-08-22T12:00	2629	747	6.9	4.7	242	12
2023-08-22T12:00	2649	745	6.7	4.6	246	12
2023-08-22T12:00	2671	743	6.5	4.5	251	12
2023-08-22T12:00	2691	742	6.4	3.7	254	12
2023-08-22T12:00	2711	740	6.3	3.2	256	13
2023-08-22T12:00	2731	738	6.3	2.0	256	14
2023-08-22T12:00	2751	736	6.3	1.7	254	14
2023-08-22T12:00	2767	735	6.2	1.2	252	14
2023-08-22T12:00	2787	733	6.2	1.4	249	14
2023-08-22T12:00	2808	731	6.1	0.9	247	14
2023-08-22T12:00	2828	729	6.0	0.9	245	13
2023-08-22T12:00	2849	728	6.1	-1.4	245	13
2023-08-22T12:00	2867	726	6.2	-2.2	247	12
2023-08-22T12:00	2887	724	6.4	-5.3	250	12
2023-08-22T12:00	2907	722	6.4	-6.2	254	12
2023-08-22T12:00	2928	721	6.3	-7.5	258	12
2023-08-22T12:00	2947	719	6.1	-7.9	261	12
2023-08-22T12:00	2965	717	6.1	-9.3	263	13
2023-08-22T12:00	2983	716	6.0	-9.2	264	13
2023-08-22T12:00	3007	714	5.8	-9.1	264	14
2023-08-22T12:00	3028	712	5.5	-8.0	263	15
2023-08-22T12:00	3051	710	5.4	-5.8	263	15
2023-08-22T12:00	3070	708	5.4	-12.2	263	15
2023-08-22T12:00	3089	707	5.6	-18.9	263	15
2023-08-22T12:00	3107	705	5.7	-19.7	263	15
2023-08-22T12:00	3130	703	5.6	-19.3	262	16
2023-08-22T12:00	3151	701	5.7	-18.0	261	16
2023-08-22T12:00	3170	700	5.8	-18.1	260	16
2023-08-22T12:00	3188	698	5.8	-19.4	259	16
2023-08-22T12:00	3206	696	5.8	-19.6	260	15
2023-08-22T12:00	3229	695	5.7	-16.9	261	15
2023-08-22T12:00	3248	693	5.5	-15.2	263	15
2023-08-22T12:00	3269	691	5.4	-12.9	265	16
2023-08-22T12:00	3288	689	5.4	-11.7	265	16
2023-08-22T12:00	3309	688	5.4	-14.8	264	17
2023-08-22T12:00	3326	686	5.4	-15.4	263	17
2023-08-22T12:00	3348	685	5.3	-15.2	262	18
2023-08-22T12:00	3368	683	5.2	-15.2	262	18
2023-08-22T12:00	3391	681	5.1	-15.2	263	18
2023-08-22T12:00	3410	679	5.0	-16.9	265	18
2023-08-22T12:00	3437	677	5.0	-19.2	266	18
2023-08-22T12:00	3469	675	5.0	-21.2	266	17
2023-08-22T12:00	3492	673	5.0	-21.3	266	17
2023-08-22T12:00	3510	671	4.9	-21.6	265	17
2023-08-22T12:00	3530	669	4.8	-21.5	264	17
2023-08-22T12:00	3552	667	4.7	-21.7	263	17
2023-08-22T12:00	3577	666	4.5	-22.2	263	17
2023-08-22T12:00	3596	664	4.4	-22.6	263	16
2023-08-22T12:00	3622	662	4.2	-23.1	263	16
2023-08-22T12:00	3650	660	4.2	-24.5	265	16
2023-08-22T12:00	3670	658	4.1	-24.4	267	16
2023-08-22T12:00	3689	656	4.1	-24.2	269	16
2023-08-22T12:00	3709	655	3.8	-23.9	273	16
2023-08-22T12:00	3734	653	3.7	-22.6	275	16
2023-08-22T12:00	3754	651	3.5	-22.1	277	17
2023-08-22T12:00	3778	649	3.3	-19.3	277	17
2023-08-22T12:00	3799	647	3.1	-14.5	276	18
2023-08-22T12:00	3818	646	2.9	-12.5	275	18
2023-08-22T12:00	3834	645	2.7	-11.1	273	18
2023-08-22T12:00	3850	643	2.5	-10.1	272	19
2023-08-22T12:00	3878	641	2.1	-4.7	272	19
2023-08-22T12:00	3902	639	1.9	-3.1	271	19
2023-08-22T12:00	3921	638	1.6	-2.9	271	19
2023-08-22T12:00	3940	636	1.4	-2.5	271	19
2023-08-22T12:00	3963	635	1.3	-2.0	270	19
2023-08-22T12:00	3978	633	1.2	-1.8	270	19
2023-08-22T12:00	4008	631	1.0	-2.3	268	19
2023-08-22T12:00	4027	629	0.9	-2.6	267	19
2023-08-22T12:00	4050	628	0.7	-2.4	266	20
2023-08-22T12:00	4072	626	0.6	-2.2	265	20
2023-08-22T12:00	4095	624	0.5	-2.3	264	20
2023-08-22T12:00	4113	623	0.4	-2.5	264	20
2023-08-22T12:00	4131	621	0.3	-2.5	265	20
2023-08-22T12:00	4154	620	0.1	-2.5	265	20
2023-08-22T12:00	4182	618	-0.1	-2.7	266	20
2023-08-22T12:00	4202	616	-0.3	-2.9	266	21
2023-08-22T12:00	4222	614	-0.4	-3.2	266	21
2023-08-22T12:00	4241	613	-0.5	-3.5	267	21
2023-08-22T12:00	4265	611	-0.7	-4.0	267	21
2023-08-22T12:00	4287	609	-0.8	-4.1	267	21
2023-08-22T12:00	4307	608	-1.0	-3.7	267	21
2023-08-22T12:00	4331	606	-1.1		267	21
2023-08-22T12:00	4358	604	-1.3	-4.1	267	22
2023-08-22T12:00	4379	602	-1.5	-4.7	268	22
2023-08-22T12:00	4400	601	-1.6	-5.2	267	22
2023-08-22T12:00	4417	599	-1.7	-5.8	265	22
2023-08-22T12:00	4442	598	-1.9	-5.9	264	22
2023-08-22T12:00	4463	596	-2.1	-6.2	262	22
2023-08-22T12:00	4481	595	-2.2	-6.2	260	22
2023-08-22T12:00	4499	593	-2.3	-6.2	260	21
2023-08-22T12:00	4524	592	-2.4	-6.3	259	21
2023-08-22T12:00	4545	590	-2.7	-6.5	260	21
2023-08-22T12:00	4564	589	-2.8	-6.7	261	21
2023-08-22T12:00	4588	587	-3.0	-6.7	261	20
2023-08-22T12:00	4614	585	-3.1	-6.6	262	20
2023-08-22T12:00	4633	583	-3.3	-6.0	262	21
2023-08-22T12:00	4658	582	-3.5	-5.5	262	21
2023-08-22T12:00	4680	580	-3.6	-5.6	261	21
2023-08-22T12:00	4698	579	-3.8	-5.4	261	21
2023-08-22T12:00	4720	577	-3.9	-5.1	261	21
2023-08-22T12:00	4735	576	-4.1	-4.9	260	22
2023-08-22T12:00	4756	574	-4.2	-4.7	260	22
2023-08-22T12:00	4782	573	-4.4	-4.8	259	23
2023-08-22T12:00	4803	571	-4.5	-5.3	259	23
2023-08-22T12:00	4826	569	-4.7	-5.5	260	24
2023-08-22T12:00	4853	568	-4.8	-5.8	260	24
2023-08-22T12:00	4873	566	-5.0	-5.7	260	24
2023-08-22T12:00	4893	565	-5.1	-5.3	259	24
2023-08-22T12:00	4915	563	-5.1	-5.3	258	24
2023-08-22T12:00	4936	561	-5.1	-5.4	256	24
2023-08-22T12:00	4956	560	-5.2	-5.6	255	25
2023-08-22T12:00	4975	559	-5.3	-5.7	255	25
2023-08-22T12:00	4997	557	-5.5	-5.9	256	24
2023-08-22T12:00	5015	556	-5.7	-5.9	257	24
2023-08-22T12:00	5037	554	-5.9	-6.3	259	23
2023-08-22T12:00	5059	553	-6.0		261	23
2023-08-22T12:00	5077	551	-6.3	-6.4	262	23
2023-08-22T12:00	5098	550	-6.5	-6.7	263	23
2023-08-22T12:00	5124	548	-6.7	-6.8	262	24
2023-08-22T12:00	5148	547	-6.8	-7.1	261	24
2023-08-22T12:00	5168	545	-7.1	-7.1	261	24
2023-08-22T12:00	5197	543	-7.3	-7.4	261	24
2023-08-22T12:00	5222	541	-7.5	-7.7	262	24
2023-08-22T12:00	5251	539	-7.7	-8.9	264	25
2023-08-22T12:00	5278	538	-7.7	-9.4	265	26
2023-08-22T12:00	5295	536	-7.6	-9.0	265	26
2023-08-22T12:00	5318	535	-7.7	-8.9	265	27
2023-08-22T12:00	5337	533	-7.8	-8.9	265	27
2023-08-22T12:00	5354	532	-8.0	-9.0	264	27
2023-08-22T12:00	5371	531	-8.0	-9.5	264	27
2023-08-22T12:00	5392	530	-8.2	-9.5	265	27
2023-08-22T12:00	5419	528	-8.4	-10.0	265	27
2023-08-22T12:00	5437	527	-8.4	-9.7	266	27
2023-08-22T12:00	5456	525	-8.6	-10.0	266	27
2023-08-22T12:00	5475	524	-8.7	-10.1	266	28
2023-08-22T12:00	5496	523	-8.7	-10.0	266	27
2023-08-22T12:00	5520	521	-9.0	-10.2	265	27
2023-08-22T12:00	5540	520	-9.1	-10.5	264	27
2023-08-22T12:00	5561	518	-9.2	-10.3	263	27
2023-08-22T12:00	5585	517	-9.4	-10.3	262	28
2023-08-22T12:00	5603	515	-9.5	-10.3	261	28
2023-08-22T12:00	5634	514	-9.8	-10.5	260	29
2023-08-22T12:00	5654	512	-9.9	-10.6	261	29
2023-08-22T12:00	5675	511	-10.1	-10.6	261	29
2023-08-22T12:00	5695	509	-10.1	-11.0	263	29
2023-08-22T12:00	5715	508	-10.2	-11.2	264	28
2023-08-22T12:00	5740	506	-10.4	-11.3	265	28
2023-08-22T12:00	5759	505	-10.5	-11.4	265	28
2023-08-22T12:00	5784	504	-10.7	-11.8	265	28
2023-08-22T12:00	5806	502	-11.0	-12.0	264	28
2023-08-22T12:00	5823	501	-11.1	-12.1	263	28
2023-08-22T12:00	5841	500	-11.2	-12.3	262	28
2023-08-22T12:00	5862	498	-11.4	-12.5	262	28
2023-08-22T12:00	5881	497	-11.6	-12.8	261	28
2023-08-22T12:00	5904	496	-11.8	-13.0	261	27
2023-08-22T12:00	5924	494	-11.8	-13.1	261	27
2023-08-22T12:00	5944	493	-12.1	-13.3	262	27
2023-08-22T12:00	5964	492	-12.3	-13.7	262	27
2023-08-22T12:00	5985	491	-12.4	-13.9	262	27
2023-08-22T12:00	6005	489	-12.6	-13.8	263	27
2023-08-22T12:00	6029	488	-12.9	-14.1	263	27
2023-08-22T12:00	6052	486	-13.1	-14.3	264	27
2023-08-22T12:00	6075	485	-13.2	-14.2	264	27
2023-08-22T12:00	6097	483	-13.4	-14.6	265	28
2023-08-22T12:00	6114	482	-13.7		266	28
2023-08-22T12:00	6141	481	-13.7	-15.7	267	28
2023-08-22T12:00	6163	479	-13.7	-15.7	268	28
2023-08-22T12:00	6181	478	-13.8	-15.9	268	28
2023-08-22T12:00	6211	476	-13.9	-16.8	268	27
2023-08-22T12:00	6231	475	-13.9	-16.9	268	27
2023-08-22T12:00	6251	474	-14.1	-16.8	268	27
2023-08-22T12:00	6276	472	-14.2	-16.9	267	28
2023-08-22T12:00	6297	471	-14.4	-16.8	267	28
2023-08-22T12:00	6316	470	-14.6	-16.9	268	28
2023-08-22T12:00	6335	468	-14.8	-16.9	268	29
2023-08-22T12:00	6355	467	-14.9	-17.0	268	29
2023-08-22T12:00	6385	465	-15.2	-17.2	268	28
2023-08-22T12:00	6408	464	-15.2	-17.4	268	28
2023-08-22T12:00	6436	462	-15.3	-17.4	267	28
2023-08-22T12:00	6455	461	-15.3	-17.2	267	29
2023-08-22T12:00	6469	460	-15.5	-17.2	266	29
2023-08-22T12:00	6491	459	-15.6	-17.8	266	29
2023-08-22T12:00	6514	457	-15.7	-17.6	266	29
2023-08-22T12:00	6533	456	-15.8	-18.0	266	29
2023-08-22T12:00	6552	455	-15.9	-18.4	267	29
2023-08-22T12:00	6575	454	-15.9	-17.9	267	30
2023-08-22T12:00	6595	453	-16.0	-17.4	266	30
2023-08-22T12:00	6618	451	-16.2	-17.2	265	30
2023-08-22T12:00	6635	450	-16.3	-17.3	265	30
2023-08-22T12:00	6651	449	-16.5	-17.5	264	30
2023-08-22T12:00	6670	448	-16.5	-17.3	263	30
2023-08-22T12:00	6687	447	-16.7	-17.3	263	30
2023-08-22T12:00	6707	446	-16.9	-17.5	262	30
2023-08-22T12:00	6731	444	-17.0	-17.8	262	30
2023-08-22T12:00	6751	443	-16.8	-18.9	262	30
2023-08-22T12:00	6769	442	-16.8	-20.9	262	30
2023-08-22T12:00	6787	441	-16.8	-21.1	262	30
2023-08-22T12:00	6805	440	-16.8	-19.7	262	30
2023-08-22T12:00	6823	439	-16.9	-18.9	262	30
2023-08-22T12:00	6843	438	-17.1	-18.3	262	30
2023-08-22T12:00	6861	437	-17.1	-18.4	262	29
2023-08-22T12:00	6878	436	-17.2	-18.9	262	29
2023-08-22T12:00	6900	435	-17.2	-20.3	262	29
2023-08-22T12:00	6923	433	-17.3	-21.7	262	29
2023-08-22T12:00	6941	432	-17.5	-24.0	262	28
2023-08-22T12:00	6961	431	-17.6	-23.4	263	28
2023-08-22T12:00	6979	430	-17.7	-23.4	264	28
2023-08-22T12:00	6995	429	-17.8	-23.8	264	28
2023-08-22T12:00	7012	428	-17.8	-23.2	265	28
2023-08-22T12:00	7029	427	-18.0	-23.7	265	28
2023-08-22T12:00	7048	426	-18.1	-23.6	265	27
2023-08-22T12:00	7064	425	-18.2	-23.1	265	27
2023-08-22T12:00	7081	424	-18.2	-22.5	264	27
2023-08-22T12:00	7100	423	-18.4	-21.2	264	27
2023-08-22T12:00	7120	422	-18.5	-21.4	263	27
2023-08-22T12:00	7142	421	-18.7	-21.8	263	27
2023-08-22T12:00	7160	420	-18.9	-21.8	263	27
2023-08-22T12:00	7177	419	-18.9	-21.8	264	28
2023-08-22T12:00	7195	418	-19.1	-21.9	264	28
2023-08-22T12:00	7212	417	-19.1	-22.0	264	28
2023-08-22T12:00	7228	416	-19.3	-22.1	265	29
2023-08-22T12:00	7244	415	-19.5	-22.0	265	29
2023-08-22T12:00	7261	414	-19.6	-22.2	265	30
2023-08-22T12:00	7280	413	-19.8	-22.3	264	30
2023-08-22T12:00	7299	412	-19.9	-22.6	264	30
2023-08-22T12:00	7320	411	-20.0	-22.5	264	31
2023-08-22T12:00	7339	410	-20.2	-22.8	264	31
2023-08-22T12:00	7357	409	-20.3	-23.0	265	30
2023-08-22T12:00	7375	408	-20.4	-23.2	265	30
2023-08-22T12:00	7393	407	-20.5	-23.4	266	30
2023-08-22T12:00	7413	406	-20.6	-23.5	267	30
2023-08-22T12:00	7432	405	-20.8	-23.6	267	30
2023-08-22T12:00	7455	403	-20.9	-23.7	267	30
2023-08-22T12:00	7476	402	-21.1	-23.8	267	30
2023-08-22T12:00	7492	401	-21.3	-23.9	267	30
2023-08-22T12:00	7511	400	-21.5	-24.0	267	30
2023-08-22T12:00	7529	399	-21.6	-24.1	267	30
2023-08-22T12:00	7547	398	-21.7	-24.2	267	31
2023-08-22T12:00	7567	397	-21.8	-24.2	267	31
2023-08-22T12:00	7586	396	-22.1	-24.3	267	31
2023-08-22T12:00	7606	395	-22.3	-24.5	267	31
2023-08-22T12:00	7627	394	-22.4	-24.8	267	31
2023-08-22T12:00	7646	393	-22.5	-25.1	267	31
2023-08-22T12:00	7662	392	-22.6	-25.2	266	31
2023-08-22T12:00	7678	391	-22.8	-25.2	266	31
2023-08-22T12:00	7699	390	-22.9	-25.2	266	32
2023-08-22T12:00	7717	389	-23.1	-25.3	266	32
2023-08-22T12:00	7736	388	-23.2	-25.3	266	32
2023-08-22T12:00	7753	387	-23.3	-25.4	267	32
2023-08-22T12:00	7773	386	-23.4	-25.3	267	32
2023-08-22T12:00	7792	385	-23.6	-25.3	267	33
2023-08-22T12:00	7808	384	-23.7	-25.6	267	33
2023-08-22T12:00	7826	383	-23.8	-25.7	267	33
2023-08-22T12:00	7847	382	-24.0	-25.9	267	33
2023-08-22T12:00	7865	381	-24.0	-26.2	267	33
2023-08-22T12:00	7884	380	-24.0	-26.4	267	33
2023-08-22T12:00	7904	379	-24.2	-26.5	267	33
2023-08-22T12:00	7925	378	-24.4	-26.8	267	33
2023-08-22T12:00	7942	377	-24.6	-26.9	267	33
2023-08-22T12:00	7962	376	-24.8	-27.0	267	33
2023-08-22T12:00	7983	375	-24.9	-27.2	267	33
2023-08-22T12:00	8000	374	-25.1	-27.4	266	33
2023-08-22T12:00	8020	373	-25.3	-27.6	266	33
2023-08-22T12:00	8037	373	-25.3	-27.8	266	33
2023-08-22T12:00	8054	372	-25.4	-27.9	266	33
2023-08-22T12:00	8073	371	-25.5	-28.1	266	33
2023-08-22T12:00	8092	370	-25.7	-28.2	266	33
2023-08-22T12:00	8112	369	-25.8	-28.5	266	33
2023-08-22T12:00	8132	368	-26.0	-28.4	266	33
2023-08-22T12:00	8150	367	-26.2	-28.7	266	33
2023-08-22T12:00	8166	366	-26.3	-28.7	266	33
2023-08-22T12:00	8185	365	-26.5	-28.8	266	33
2023-08-22T12:00	8206	364	-26.7	-28.9	266	33
2023-08-22T12:00	8227	363	-26.8	-28.9	266	33
2023-08-22T12:00	8248	362	-26.9	-29.1	266	33
2023-08-22T12:00	8267	361	-27.0		267	33
2023-08-22T12:00	8284	360	-27.2	-29.3	267	34
2023-08-22T12:00	8305	359	-27.4	-29.6	268	34
2023-08-22T12:00	8323	358	-27.6	-29.9	268	34
2023-08-22T12:00	8343	357	-27.8	-29.9	268	34
2023-08-22T12:00	8361	356	-27.8	-30.1	269	34
2023-08-22T12:00	8383	355	-28.0	-30.1	269	34
2023-08-22T12:00	8399	354	-28.1	-29.8	269	34
2023-08-22T12:00	8419	353	-28.2	-30.0	269	34
2023-08-22T12:00	8439	352	-28.4	-30.4	269	34
2023-08-22T12:00	8456	351	-28.6	-30.6	268	34
2023-08-22T12:00	8476	351	-28.7	-30.8	268	34
2023-08-22T12:00	8493	350	-28.8	-30.8	268	34
2023-08-22T12:00	8513	349	-28.9	-31.0	268	34
2023-08-22T12:00	8531	348	-29.1	-31.2	268	33
2023-08-22T12:00	8551	347	-29.3	-31.2	269	33
2023-08-22T12:00	8570	346	-29.5	-31.3	269	33
2023-08-22T12:00	8587	345	-29.5	-31.3	269	33
2023-08-22T12:00	8607	344	-29.8	-31.6	270	33
2023-08-22T12:00	8624	343	-29.9	-31.9	270	33
2023-08-22T12:00	8642	342	-30.0	-32.0	270	34
2023-08-22T12:00	8660	342	-30.1	-32.7	271	33
2023-08-22T12:00	8678	341	-30.1	-33.8	271	33
2023-08-22T12:00	8696	340	-29.9	-36.1	271	33
2023-08-22T12:00	8713	339	-30.0	-36.0	272	33
2023-08-22T12:00	8730	338	-30.0	-36.7	272	33
2023-08-22T12:00	8748	337	-30.0	-36.3	272	33
2023-08-22T12:00	8766	337	-30.1	-36.8	272	33
2023-08-22T12:00	8784	336	-30.2	-37.3	271	33
2023-08-22T12:00	8800	335	-30.5	-37.9	271	33
2023-08-22T12:00	8818	334	-30.6	-39.2	270	33
2023-08-22T12:00	8835	333	-30.6	-39.3	270	33
2023-08-22T12:00	8849	333	-30.6	-39.0	270	33
2023-08-22T12:00	8868	332	-30.9	-39.5	270	33
2023-08-22T12:00	8885	331	-31.0	-40.1	270	33
2023-08-22T12:00	8904	330	-31.0	-40.5	270	33
2023-08-22T12:00	8922	329	-31.1	-40.3	270	33
2023-08-22T12:00	8941	328	-31.3	-40.3	270	33
2023-08-22T12:00	8960	327	-31.5	-40.7	270	33
2023-08-22T12:00	8981	327	-31.7	-41.0	270	33
2023-08-22T12:00	9002	326	-31.7	-41.1	269	33
2023-08-22T12:00	9018	325	-32.0	-41.2	269	33
2023-08-22T12:00	9036	324	-32.2	-41.2	268	34
2023-08-22T12:00	9056	323	-32.4	-41.4	268	34
2023-08-22T12:00	9074	322	-32.6	-41.3	268	34
2023-08-22T12:00	9095	321	-32.7	-40.7	267	34
2023-08-22T12:00	9114	320	-32.9	-40.6	267	34
2023-08-22T12:00	9133	320	-33.1	-40.7	266	34
2023-08-22T12:00	9153	319	-33.3	-40.4	266	34
2023-08-22T12:00	9175	318	-33.3	-40.6	266	35
2023-08-22T12:00	9195	317	-33.5	-41.0	266	35
2023-08-22T12:00	9213	316	-33.5	-41.4	266	35
2023-08-22T12:00	9230	315	-33.5	-41.7	266	35
2023-08-22T12:00	9250	314	-33.7	-41.7	266	36
2023-08-22T12:00	9268	313	-33.8	-41.8	267	36
2023-08-22T12:00	9287	313	-34.0	-42.1	267	36
2023-08-22T12:00	9307	312	-34.1	-42.1	267	36
2023-08-22T12:00	9328	311	-34.3	-42.5	267	36
2023-08-22T12:00	9347	310	-34.3	-43.5	267	36
2023-08-22T12:00	9367	309	-34.4	-43.7	267	37
2023-08-22T12:00	9386	308	-34.6	-43.6	267	37
2023-08-22T12:00	9404	307	-34.9	-43.8	266	37
2023-08-22T12:00	9426	306	-35.0	-44.4	266	37
2023-08-22T12:00	9445	306	-35.0	-45.0	266	37
2023-08-22T12:00	9466	305	-35.2	-45.2	266	37
2023-08-22T12:00	9489	304	-35.5	-45.9	266	37
2023-08-22T12:00	9505	303	-35.5	-46.4	266	37
2023-08-22T12:00	9524	302	-35.6	-46.5	266	37
2023-08-22T12:00	9545	301	-35.8	-46.3	266	37
2023-08-22T12:00	9565	300	-36.0	-46.3	266	37
2023-08-22T12:00	9584	300	-36.2		266	37
2023-08-22T12:00	9603	299	-36.4	-46.2	266	37
2023-08-22T12:00	9623	298	-36.5	-46.4	266	37
2023-08-22T12:00	9642	297	-36.7	-46.5	266	37
2023-08-22T12:00	9663	296	-36.9	-46.5	266	37
2023-08-22T12:00	9682	295	-37.1	-46.6	267	37
2023-08-22T12:00	9701	295	-37.3	-46.8	267	37
2023-08-22T12:00	9721	294	-37.4	-46.8	267	37
2023-08-22T12:00	9741	293	-37.7	-47.0	267	37
2023-08-22T12:00	9762	292	-37.8	-47.2	267	37
2023-08-22T12:00	9781	291	-38.0	-47.2	267	37
2023-08-22T12:00	9803	290	-38.1	-47.2	267	37
2023-08-22T12:00	9823	289	-38.3	-47.4	268	37
2023-08-22T12:00	9843	289	-38.6	-47.4	268	37
2023-08-22T12:00	9864	288	-38.8	-47.2	268	36
2023-08-22T12:00	9881	287	-38.9	-47.2	268	36
2023-08-22T12:00	9903	286	-39.0	-47.4	267	36
2023-08-22T12:00	9924	285	-39.3	-47.4	267	36
2023-08-22T12:00	9943	284	-39.5	-47.4	267	36
2023-08-22T12:00	9962	284	-39.7	-47.5	267	36
2023-08-22T12:00	9984	283	-39.9	-47.6	267	36
2023-08-22T12:00	10001	282	-40.0	-47.8	267	36
2023-08-22T12:00	10018	281	-40.3	-48.1	267	36
2023-08-22T12:00	10041	280	-40.4	-48.1	267	36
2023-08-22T12:00	10063	279	-40.6	-48.7	267	36
2023-08-22T12:00	10087	278	-40.7	-49.0	267	36
2023-08-22T12:00	10109	278	-40.9	-49.4	266	36
2023-08-22T12:00	10128	277	-41.1	-49.4	266	36
2023-08-22T12:00	10147	276	-41.3	-49.7	266	36
2023-08-22T12:00	10163	275	-41.3	-49.9	266	35
2023-08-22T12:00	10181	275	-41.4	-49.8	267	35
2023-08-22T12:00	10201	274	-41.6	-49.8	267	35
2023-08-22T12:00	10218	273	-41.7	-49.8	267	35
2023-08-22T12:00	10237	272	-41.9	-50.0	267	35
2023-08-22T12:00	10255	272	-42.0	-50.7	267	35
2023-08-22T12:00	10271	271	-42.1	-51.3	267	35
2023-08-22T12:00	10290	270	-42.2	-51.6	267	35
2023-08-22T12:00	10309	270	-42.4	-51.9	266	35
2023-08-22T12:00	10326	269	-42.5	-52.3	267	35
2023-08-22T12:00	10343	268	-42.5	-52.5	267	34
2023-08-22T12:00	10361	267	-42.7	-52.7	267	34
2023-08-22T12:00	10381	267	-42.8	-53.2	267	34
2023-08-22T12:00	10398	266	-42.8	-53.6	267	34
2023-08-22T12:00	10415	265	-43.0	-53.6	267	34
2023-08-22T12:00	10432	265	-43.0	-53.7	267	34
2023-08-22T12:00	10450	264	-43.3	-53.9	267	34
2023-08-22T12:00	10468	263	-43.4	-54.2	267	34
2023-08-22T12:00	10485	262	-43.5	-54.2	267	34
2023-08-22T12:00	10502	262	-43.7	-54.2	268	34
2023-08-22T12:00	10519	261	-43.9	-54.1	268	34
2023-08-22T12:00	10536	261	-44.0	-54.2	268	34
2023-08-22T12:00	10552	260	-44.1	-54.4	269	34
2023-08-22T12:00	10571	259	-44.4	-54.7	270	34
2023-08-22T12:00	10587	259	-44.5	-55.0	270	34
2023-08-22T12:00	10603	258	-44.6	-55.2	271	33
2023-08-22T12:00	10623	257	-44.8	-55.6	271	33
2023-08-22T12:00	10644	256	-44.9	-55.8	271	32
2023-08-22T12:00	10664	256	-45.1	-55.7	271	32
2023-08-22T12:00	10682	255	-45.2	-55.7	271	32
2023-08-22T12:00	10700	254	-45.3	-55.8	271	32
2023-08-22T12:00	10720	253	-45.5	-55.7	270	32
2023-08-22T12:00	10739	253	-45.7	-55.2	269	32
2023-08-22T12:00	10768	252	-45.9	-54.6	269	32
2023-08-22T12:00	10786	251	-46.1	-54.8	268	32
2023-08-22T12:00	10806	250	-46.3	-54.8	267	32
2023-08-22T12:00	10828	249	-46.6	-54.8	266	32
2023-08-22T12:00	10847	249	-46.8	-54.8	265	33
2023-08-22T12:00	10864	248	-46.9	-55.1	264	33
2023-08-22T12:00	10881	247	-47.0	-55.3	263	33
2023-08-22T12:00	10896	247	-47.2	-55.4	263	33
2023-08-22T12:00	10914	246	-47.2	-55.7	262	33
2023-08-22T12:00	10932	246	-47.4	-56.0	262	33
2023-08-22T12:00	10947	245	-47.6	-56.0	261	33
2023-08-22T12:00	10963	244	-47.7	-56.3	261	33
2023-08-22T12:00	10979	244	-47.9	-56.6	260	33
2023-08-22T12:00	10995	243	-47.9	-56.6	260	33
2023-08-22T12:00	11011	243	-48.0	-56.9	261	33
2023-08-22T12:00	11028	242	-48.2	-57.2	261	33
2023-08-22T12:00	11043	241	-48.3	-57.4	262	34
2023-08-22T12:00	11061	241	-48.4	-57.7	262	34
2023-08-22T12:00	11077	240	-48.5	-57.7	263	34
2023-08-22T12:00	11094	240	-48.8	-57.7	263	34
2023-08-22T12:00	11110	239	-48.9	-57.9	264	33
2023-08-22T12:00	11126	238	-49.0	-58.4	264	33
2023-08-22T12:00	11144	238	-49.1	-59.0	264	33
2023-08-22T12:00	11158	237	-49.2	-59.6	265	32
2023-08-22T12:00	11177	236	-49.3	-60.2	265	32
2023-08-22T12:00	11196	236	-49.3	-60.2	265	32
2023-08-22T12:00	11214	235	-49.4	-60.1	266	32
2023-08-22T12:00	11231	235	-49.6	-60.0	266	32
2023-08-22T12:00	11248	234	-49.8	-60.1	266	32
2023-08-22T12:00	11269	233	-49.9	-60.4	266	32
2023-08-22T12:00	11287	233	-49.9	-60.6	267	32
2023-08-22T12:00	11304	232	-50.0	-60.6	267	32
2023-08-22T12:00	11320	231	-50.1	-60.6	267	32
2023-08-22T12:00	11341	231	-50.4	-60.8	266	32
2023-08-22T12:00	11362	230	-50.5	-60.9	266	32
2023-08-22T12:00	11381	229	-50.6	-61.1	266	32
2023-08-22T12:00	11403	229	-50.9	-61.3	265	32
2023-08-22T12:00	11423	228	-51.0	-61.2	265	32
2023-08-22T12:00	11446	227	-51.2	-61.4	265	32
2023-08-22T12:00	11465	226	-51.4	-61.4	265	32
2023-08-22T12:00	11487	226	-51.6	-61.3	265	32
2023-08-22T12:00	11516	225	-51.8	-61.3	266	32
2023-08-22T12:00	11549	224	-52.1	-61.5	265	32
2023-08-22T12:00	11566	223	-52.3	-61.6	265	32
2023-08-22T12:00	11584	222	-52.3	-61.5	265	32
2023-08-22T12:00	11601	222	-52.4	-61.5	264	32
2023-08-22T12:00	11618	221	-52.6	-61.5	264	32
2023-08-22T12:00	11636	220	-52.8	-61.6	265	32
2023-08-22T12:00	11655	220	-53.0	-61.8	265	32
2023-08-22T12:00	11674	219	-53.1	-61.9	265	32
2023-08-22T12:00	11694	218	-53.3	-62.0	266	32
2023-08-22T12:00	11717	218	-53.6	-62.1	266	32
2023-08-22T12:00	11737	217	-53.8	-62.1	266	32
2023-08-22T12:00	11756	216	-54.0	-62.2	266	32
2023-08-22T12:00	11774	216	-54.1	-62.4	267	33
2023-08-22T12:00	11793	215	-54.3	-62.6	267	33
2023-08-22T12:00	11812	214	-54.4	-62.7	268	33
2023-08-22T12:00	11830	214	-54.6	-62.9	268	33
2023-08-22T12:00	11848	213	-54.8	-62.9	268	33
2023-08-22T12:00	11867	213	-55.0	-63.0	268	33
2023-08-22T12:00	11884	212	-55.1	-63.1	268	33
2023-08-22T12:00	11905	211	-55.2	-63.3	268	33
2023-08-22T12:00	11925	211	-55.3	-63.4	268	33
2023-08-22T12:00	11944	210	-55.6	-63.6	268	32
2023-08-22T12:00	11961	209	-55.8	-63.7	268	32
2023-08-22T12:00	11982	209	-55.9	-63.6	268	32
2023-08-22T12:00	12002	208	-56.1	-63.7	269	32
2023-08-22T12:00	12024	207	-56.3	-63.9	269	31
2023-08-22T12:00	12045	207	-56.4	-64.0	269	31
2023-08-22T12:00	12064	206	-56.6	-64.2	269	32
2023-08-22T12:00	12083	206	-56.7	-64.2	270	32
2023-08-22T12:00	12099	205	-56.8	-64.1	270	32
2023-08-22T12:00	12118	204	-57.0	-64.1	270	32
2023-08-22T12:00	12139	204	-57.2	-64.2	270	32
2023-08-22T12:00	12155	203	-57.4	-64.1	270	32
2023-08-22T12:00	12174	203	-57.7	-64.2	270	32
2023-08-22T12:00	12196	202	-57.9	-64.2	270	32
2023-08-22T12:00	12215	201	-58.0	-64.1	270	32
2023-08-22T12:00	12234	201	-58.2	-64.2	270	32
2023-08-22T12:00	12253	200	-58.3	-64.1	271	32
2023-08-22T12:00	12272	199	-58.5	-64.2	271	32
2023-08-22T12:00	12290	199	-58.6	-64.1	271	32
2023-08-22T12:00	12310	198	-58.6	-63.9	271	32
2023-08-22T12:00	12330	198	-58.9	-64.0	271	32
2023-08-22T12:00	12348	197	-59.3	-64.1	271	32
2023-08-22T12:00	12368	196	-59.5	-64.0	270	32
2023-08-22T12:00	12386	196	-59.7	-64.0	270	32
2023-08-22T12:00	12404	195	-59.9	-64.1	270	32
2023-08-22T12:00	12423	195	-60.0	-64.3	269	32
2023-08-22T12:00	12441	194	-60.3	-64.9	269	32
2023-08-22T12:00	12460	194	-60.5	-65.4	269	32
2023-08-22T12:00	12478	193	-60.5	-65.9	269	32
2023-08-22T12:00	12499	192	-60.5	-66.4	270	32
2023-08-22T12:00	12517	192	-60.6	-67.1	271	33
2023-08-22T12:00	12543	191	-60.7	-67.8	272	33
2023-08-22T12:00	12575	190	-60.6	-68.1	272	33
2023-08-22T12:00	12595	189	-60.5	-68.3	273	33
2023-08-22T12:00	12620	189	-60.5	-68.3	273	34
2023-08-22T12:00	12641	188	-60.6	-68.4	273	34
2023-08-22T12:00	12667	187	-60.8	-68.6	272	34
2023-08-22T12:00	12688	187	-60.9	-68.7	273	34
2023-08-22T12:00	12710	186	-61.0	-68.7	273	34
2023-08-22T12:00	12729	185	-61.2	-68.8	274	34
2023-08-22T12:00	12750	185	-61.4	-68.8	275	34
2023-08-22T12:00	12770	184	-61.7	-69.0	276	34
2023-08-22T12:00	12790	184	-61.8	-69.0	277	34
2023-08-22T12:00	12812	183	-61.9	-69.2	278	33
2023-08-22T12:00	12833	182	-62.2	-69.7	278	33
2023-08-22T12:00	12857	181	-62.3	-70.0	279	32
2023-08-22T12:00	12889	181	-61.9	-70.0	278	31
2023-08-22T12:00	12919	180	-61.7	-70.5	277	30
2023-08-22T12:00	12951	179	-60.6	-70.4	275	29
2023-08-22T12:00	12979	178	-59.9	-70.5	274	29
2023-08-22T12:00	13005	177	-59.8	-71.1	272	29
2023-08-22T12:00	13026	177	-59.6	-71.3	270	29
2023-08-22T12:00	13047	176	-59.5	-71.4	269	29
2023-08-22T12:00	13067	176	-59.6	-71.5	268	29
2023-08-22T12:00	13088	175	-59.6	-71.6	268	29
2023-08-22T12:00	13105	174	-59.5	-71.5	267	30
2023-08-22T12:00	13124	174	-59.3	-71.5	267	30
2023-08-22T12:00	13142	173	-59.1	-71.5	267	31
2023-08-22T12:00	13163	173	-59.0	-71.5	267	31
2023-08-22T12:00	13183	172	-59.2	-71.5	267	32
2023-08-22T12:00	13203	172	-59.3	-71.4	267	32
2023-08-22T12:00	13224	171	-59.4	-71.4	267	33
2023-08-22T12:00	13242	171	-59.5	-71.5	267	33
2023-08-22T12:00	13264	170	-59.5	-71.5	268	33
2023-08-22T12:00	13284	170	-59.5	-71.5	269	33
2023-08-22T12:00	13305	169	-59.6	-71.6	270	33
2023-08-22T12:00	13324	168	-59.8	-71.9	271	33
2023-08-22T12:00	13346	168	-59.9	-72.3	272	33
2023-08-22T12:00	13365	167	-60.0	-72.8	273	32
2023-08-22T12:00	13383	167	-59.9	-73.3	273	32
2023-08-22T12:00	13402	166	-59.8	-73.9	274	31
2023-08-22T12:00	13426	166	-59.7	-74.3	274	31
2023-08-22T12:00	13445	165	-59.5	-74.6	274	31
2023-08-22T12:00	13464	165	-59.3	-75.0	274	30
2023-08-22T12:00	13486	164	-59.1	-75.3	273	30
2023-08-22T12:00	13503	164	-59.0	-75.6	272	30
2023-08-22T12:00	13523	163	-58.9	-75.8	271	30
2023-08-22T12:00	13544	163	-58.8	-75.8	271	30
2023-08-22T12:00	13561	162	-59.0	-76.0	271	30
2023-08-22T12:00	13582	162	-59.0	-76.1	271	30
2023-08-22T12:00	13600	161	-58.9	-76.2	271	30
2023-08-22T12:00	13621	161	-58.8	-76.3	272	31
2023-08-22T12:00	13641	160	-58.7	-76.8	272	31
2023-08-22T12:00	13658	160	-58.5	-77.1	271	31
2023-08-22T12:00	13677	159	-58.5	-77.5	271	31
2023-08-22T12:00	13700	159	-58.4	-77.6	270	31
2023-08-22T12:00	13720	158	-58.4	-77.7	270	31
2023-08-22T12:00	13737	158	-58.4	-77.7	269	31
2023-08-22T12:00	13753	157	-58.4	-77.9	269	31
2023-08-22T12:00	13774	157	-58.4	-78.2	269	30
2023-08-22T12:00	13792	156	-58.3	-78.3	269	30
2023-08-22T12:00	13813	156	-58.2	-78.4	268	30
2023-08-22T12:00	13832	155	-57.8	-78.3	268	30
2023-08-22T12:00	13848	155	-57.8	-78.4	268	29
2023-08-22T12:00	13867	155	-57.9	-78.7	268	29
2023-08-22T12:00	13885	154	-57.8	-78.7	268	29
2023-08-22T12:00	13903	154	-57.7	-78.7	268	30
2023-08-22T12:00	13922	153	-57.7	-78.8	269	30
2023-08-22T12:00	13943	153	-57.6	-79.0	269	30
2023-08-22T12:00	13963	152	-57.4	-78.7	269	30
2023-08-22T12:00	13981	152	-57.2	-78.4	269	30
2023-08-22T12:00	13999	151	-57.2	-78.2	270	30
2023-08-22T12:00	14018	151	-57.3	-78.1	270	30
2023-08-22T12:00	14038	150	-57.4	-78.2	271	30
2023-08-22T12:00	14057	150	-57.5	-78.2	272	30
2023-08-22T12:00	14075	150	-57.6	-78.4	272	29
2023-08-22T12:00	14095	149	-57.7	-78.4	273	29
2023-08-22T12:00	14113	149	-57.6	-78.5	273	29
2023-08-22T12:00	14131	148	-57.7	-78.7	273	28
2023-08-22T12:00	14150	148	-57.7	-78.7	273	28
2023-08-22T12:00	14172	147	-57.7	-78.7	273	27
2023-08-22T12:00	14192	147	-57.8	-78.8	272	27
2023-08-22T12:00	14218	146	-57.8	-78.8	272	26
2023-08-22T12:00	14241	146	-57.8	-79.1	271	25
2023-08-22T12:00	14265	145	-57.9	-79.4	270	24
2023-08-22T12:00	14282	145	-57.7	-79.4	270	24
2023-08-22T12:00	14302	144	-57.4	-79.5	270	24
2023-08-22T12:00	14320	144	-57.3	-79.7	269	23
2023-08-22T12:00	14339	143	-57.2	-80.0	269	23
2023-08-22T12:00	14357	143	-57.1	-80.3	268	23
2023-08-22T12:00	14375	143	-56.7	-80.1	268	23
2023-08-22T12:00	14396	142	-56.5	-80.4	267	23
2023-08-22T12:00	14415	142	-56.5	-80.6	267	22
2023-08-22T12:00	14435	141	-56.4	-80.7	267	22
2023-08-22T12:00	14452	141	-56.1	-80.5	266	22
2023-08-22T12:00	14472	140	-56.1	-80.2	266	21
2023-08-22T12:00	14492	140	-56.0	-80.2	265	21
2023-08-22T12:00	14512	140	-56.1	-80.2	265	21
2023-08-22T12:00	14530	139	-56.0	-80.2	265	21
2023-08-22T12:00	14548	139	-55.9	-80.1	265	22
2023-08-22T12:00	14567	138	-55.9	-79.9	265	22
2023-08-22T12:00	14588	138	-55.9	-79.9	265	22
2023-08-22T12:00	14608	137	-55.8	-80.0	265	22
2023-08-22T12:00	14628	137	-55.7	-80.1	266	22
2023-08-22T12:00	14647	137	-55.7	-80.1	267	22
2023-08-22T12:00	14669	136	-55.8	-80.0	268	22
2023-08-22T12:00	14688	136	-56.0	-80.2	269	22
2023-08-22T12:00	14707	135	-56.2	-80.3	270	22
2023-08-22T12:00	14729	135	-56.3	-80.4	270	21
2023-08-22T12:00	14750	134	-56.4	-80.5	271	21
2023-08-22T12:00	14768	134	-56.4	-80.7	271	20
2023-08-22T12:00	14787	134	-56.4	-80.9	272	20
2023-08-22T12:00	14808	133	-56.3	-80.8	273	20
2023-08-22T12:00	14829	133	-56.3	-80.8	275	19
2023-08-22T12:00	14852	132	-56.1	-80.7	277	19
2023-08-22T12:00	14874	132	-55.8	-80.7	279	19
2023-08-22T12:00	14895	131	-55.7	-80.8	280	19
2023-08-22T12:00	14913	131	-55.7	-81.1	281	19
2023-08-22T12:00	14936	131	-55.7	-81.3	282	18
2023-08-22T12:00	14954	130	-55.5	-81.2	282	18
2023-08-22T12:00	14978	130	-55.4	-81.1	282	17
2023-08-22T12:00	14995	129	-55.3	-81.0	281	16
2023-08-22T12:00	15018	129	-55.4	-81.4	279	16
2023-08-22T12:00	15038	128	-55.5	-81.4	278	16
2023-08-22T12:00	15062	128	-55.6	-81.5	276	16
2023-08-22T12:00	15082	128	-55.7	-81.6	275	16
2023-08-22T12:00	15106	127	-55.7	-81.6	273	16
2023-08-22T12:00	15127	127	-55.9	-82.0	272	16
2023-08-22T12:00	15149	126	-56.1	-81.9	271	16
2023-08-22T12:00	15169	126	-56.0	-81.6	270	16
2023-08-22T12:00	15188	125	-56.1	-81.4	270	16
2023-08-22T12:00	15209	125	-56.2	-81.2	271	17
2023-08-22T12:00	15228	125	-56.2	-81.2	271	17
2023-08-22T12:00	15247	124	-56.1	-81.4	271	17
2023-08-22T12:00	15268	124	-56.1	-81.6	271	17
2023-08-22T12:00	15289	124	-56.2	-81.7	271	17
2023-08-22T12:00	15306	123	-56.2	-81.7	270	17
2023-08-22T12:00	15328	123	-56.3	-81.8	269	17
2023-08-22T12:00	15350	122	-56.3	-81.8	268	17
2023-08-22T12:00	15372	122	-56.5	-82.0	268	18
2023-08-22T12:00	15391	121	-56.7	-82.1	268	18
2023-08-22T12:00	15414	121	-56.9	-82.0	269	18
2023-08-22T12:00	15432	121	-57.0	-81.8	270	19
2023-08-22T12:00	15456	120	-57.1	-81.9	271	19
2023-08-22T12:00	15475	120	-57.1	-81.9	272	19
2023-08-22T12:00	15495	120	-57.2	-82.2	273	18
2023-08-22T12:00	15518	119	-57.2	-82.2	273	18
2023-08-22T12:00	15536	119	-57.2	-82.2	274	17
2023-08-22T12:00	15557	118	-57.3	-82.3	274	16
2023-08-22T12:00	15580	118	-57.2	-82.2	274	15
2023-08-22T12:00	15599	118	-57.2	-82.2	273	15
2023-08-22T12:00	15620	117	-57.2	-82.5	271	14
2023-08-22T12:00	15640	117	-57.1	-82.4	269	13
2023-08-22T12:00	15662	116	-57.1	-82.7	267	13
2023-08-22T12:00	15684	116	-57.1	-82.7	264	12
2023-08-22T12:00	15703	116	-56.9	-82.5	262	12
2023-08-22T12:00	15723	115	-56.8	-82.5	258	12
2023-08-22T12:00	15746	115	-56.8	-82.5	255	11
2023-08-22T12:00	15765	115	-56.9	-82.5	251	11
2023-08-22T12:00	15781	114	-57.0	-82.9	248	11
2023-08-22T12:00	15803	114	-57.0	-82.9	245	11
2023-08-22T12:00	15822	113	-57.0	-82.9	243	11
2023-08-22T12:00	15846	113	-57.0	-82.9	241	11
2023-08-22T12:00	15865	113	-57.0	-82.6	240	12
2023-08-22T12:00	15885	112	-57.0	-82.6	240	12
2023-08-22T12:00	15906	112	-56.9	-82.8	241	12
2023-08-22T12:00	15924	112	-56.6	-82.6	242	13
2023-08-22T12:00	15945	111	-56.4	-82.7	244	13
2023-08-22T12:00	15966	111	-56.2	-82.6	246	13
2023-08-22T12:00	15987	111	-56.4	-82.7	248	14
2023-08-22T12:00	16006	110	-56.5	-82.8	250	14
2023-08-22T12:00	16026	110	-56.4	-83.0	251	14
2023-08-22T12:00	16048	110	-56.3	-82.9	252	15
2023-08-22T12:00	16067	109	-56.3	-83.3	253	15
2023-08-22T12:00	16086	109	-56.4	-83.3	253	15
2023-08-22T12:00	16107	109	-56.4	-83.3	254	15
2023-08-22T12:00	16129	108	-56.4	-83.0	253	16
2023-08-22T12:00	16148	108	-56.2	-82.9	252	15
2023-08-22T12:00	16167	107	-56.2	-82.9	251	15
2023-08-22T12:00	16191	107	-56.4	-83.0	249	15
2023-08-22T12:00	16216	107	-56.4	-83.3	247	15
2023-08-22T12:00	16234	106	-55.8	-83.2	245	15
2023-08-22T12:00	16252	106	-55.4	-82.9	243	15
2023-08-22T12:00	16274	106	-55.5	-83.0	242	15
2023-08-22T12:00	16296	105	-55.5	-83.0	241	15
2023-08-22T12:00	16316	105	-55.4	-82.9	240	16
2023-08-22T12:00	16337	105	-55.4	-82.9	240	16
2023-08-22T12:00	16357	104	-55.6	-83.1	241	16
2023-08-22T12:00	16377	104	-55.6	-83.1	241	16
2023-08-22T12:00	16398	104	-55.6	-83.1	242	17
2023-08-22T12:00	16416	103	-55.8	-83.2	244	17
2023-08-22T12:00	16438	103	-56.0	-83.4	245	18
2023-08-22T12:00	16460	103	-56.2	-83.5	247	18
2023-08-22T12:00	16483	102	-56.3	-83.6	249	19
2023-08-22T12:00	16500	102	-56.4	-83.3	250	19
2023-08-22T12:00	16525	102	-56.5	-83.4	252	19
2023-08-22T12:00	16548	101	-56.5	-83.4	254	20
2023-08-22T12:00	16569	101	-56.4	-83.3	256	20
2023-08-22T12:00	16589	101	-56.4	-83.3	259	20
2023-08-22T12:00	16612	100	-56.4	-83.3	261	20
2023-08-22T12:00	16635	100	-56.5	-83.7	263	20
2023-08-22T12:00	16654	100	-56.6	-83.8	266	20
2023-08-22T12:00	16675	99	-56.8	-84.0	268	19
2023-08-22T12:00	16697	99	-56.8	-84.0	271	19
2023-08-22T12:00	16719	99	-56.7	-83.9	273	19
2023-08-22T12:00	16742	98	-56.7	-83.9	275	19
2023-08-22T12:00	16765	98	-56.5	-83.7	277	19
2023-08-22T12:00	16787	98	-56.4	-83.7	279	18
2023-08-22T12:00	16805	97	-56.5	-83.7	281	18
2023-08-22T12:00	16828	97	-56.5	-84.1	283	17
2023-08-22T12:00	16849	97	-56.5	-84.1	284	16
2023-08-22T12:00	16871	96	-56.7	-84.2	285	16
2023-08-22T12:00	16892	96	-56.7	-84.2	286	15
2023-08-22T12:00	16915	96	-56.6	-84.5	286	14
2023-08-22T12:00	16934	95	-56.1	-84.2	286	14
2023-08-22T12:00	16954	95	-55.9	-84.4	286	13
2023-08-22T12:00	16977	95	-55.7	-84.3	285	12
2023-08-22T12:00	16995	94	-55.1	-84.2	284	12
2023-08-22T12:00	17021	94	-54.6	-83.9	282	11
2023-08-22T12:00	17042	94	-54.7	-83.9	279	11
2023-08-22T12:00	17063	93	-54.8	-83.6	276	10
2023-08-22T12:00	17085	93	-55.0	-83.7	274	9
2023-08-22T12:00	17105	93	-55.2	-83.9	272	8
2023-08-22T12:00	17131	92	-55.3	-83.6	270	8
2023-08-22T12:00	17152	92	-55.5	-84.1	269	8
2023-08-22T12:00	17174	92	-55.5	-84.1	267	8
2023-08-22T12:00	17198	91	-55.2	-83.9	266	8
2023-08-22T12:00	17220	91	-55.0	-83.7	265	8
2023-08-22T12:00	17242	91	-55.1	-83.8	264	9
2023-08-22T12:00	17264	90	-55.2	-83.9	263	9
2023-08-22T12:00	17288	90	-55.4	-84.0	262	9
2023-08-22T12:00	17310	90	-55.4	-83.6	262	9
2023-08-22T12:00	17332	90	-55.4	-83.6	262	9
2023-08-22T12:00	17351	89	-55.6	-83.8	262	9
2023-08-22T12:00	17375	89	-55.8	-83.9	264	9
2023-08-22T12:00	17397	89	-56.0	-84.1	265	9
2023-08-22T12:00	17422	88	-56.1	-84.2	268	10
2023-08-22T12:00	17445	88	-56.4	-84.0	270	10
2023-08-22T12:00	17469	88	-56.6	-84.2	273	10
2023-08-22T12:00	17491	87	-56.7	-84.2	276	10
2023-08-22T12:00	17512	87	-56.8	-84.3	278	10
2023-08-22T12:00	17535	87	-57.0	-84.5	280	11
2023-08-22T12:00	17559	86	-57.1	-84.6	282	11
2023-08-22T12:00	17577	86	-57.3	-84.7	283	11
2023-08-22T12:00	17600	86	-57.4	-84.4	283	10
2023-08-22T12:00	17617	86	-57.6	-84.6	282	10
2023-08-22T12:00	17639	85	-57.8	-84.7	281	10
2023-08-22T12:00	17663	85	-57.8	-85.1	281	9
2023-08-22T12:00	17687	85	-57.5	-84.9	280	9
2023-08-22T12:00	17708	84	-57.4	-84.8	279	8
2023-08-22T12:00	17731	84	-57.4	-84.8	278	8
2023-08-22T12:00	17751	84	-57.3	-85.1	276	8
2023-08-22T12:00	17774	83	-57.3	-85.1	274	8
2023-08-22T12:00	17796	83	-57.1	-84.9	272	8
2023-08-22T12:00	17818	83	-57.1	-84.9	271	9
2023-08-22T12:00	17842	83	-57.2	-85.0	270	10
2023-08-22T12:00	17863	82	-57.1	-84.9	270	10
2023-08-22T12:00	17883	82	-56.9	-84.8	272	10
2023-08-22T12:00	17905	82	-57.0	-84.8	274	10
2023-08-22T12:00	17927	82	-57.0	-84.8	277	10
2023-08-22T12:00	17946	81	-57.3	-84.7	281	10
2023-08-22T12:00	17965	81	-57.4	-84.8	284	9
2023-08-22T12:00	17984	81	-57.4	-84.8	287	8
2023-08-22T12:00	18007	80	-57.5	-84.9	290	8
2023-08-22T12:00	18028	80	-57.4	-85.2	292	7
2023-08-22T12:00	18047	80	-57.1	-84.9	293	6
2023-08-22T12:00	18069	80	-56.9	-84.8	294	6
2023-08-22T12:00	18087	79	-56.8	-84.7	293	6
2023-08-22T12:00	18110	79	-56.8	-84.7	290	5
2023-08-22T12:00	18130	79	-56.7	-84.6	285	5
2023-08-22T12:00	18150	79	-56.8	-84.7	279	5
2023-08-22T12:00	18169	78	-56.8	-84.7	272	5
2023-08-22T12:00	18190	78	-56.6	-84.5	264	5
2023-08-22T12:00	18211	78	-56.4	-84.8	257	5
2023-08-22T12:00	18232	78	-56.4	-84.8	252	5
2023-08-22T12:00	18255	77	-56.4	-84.8	250	5
2023-08-22T12:00	18273	77	-56.3	-84.7	250	6
2023-08-22T12:00	18299	77	-56.3	-84.7	252	6
2023-08-22T12:00	18323	77	-56.2	-84.6	254	6
2023-08-22T12:00	18343	76	-56.1	-84.6	257	7
2023-08-22T12:00	18365	76	-56.1	-84.6	260	7
2023-08-22T12:00	18385	76	-56.0	-84.5	263	7
2023-08-22T12:00	18410	76	-55.9	-84.4	265	8
2023-08-22T12:00	18431	75	-56.2	-84.6	267	8
2023-08-22T12:00	18453	75	-56.5	-84.5	270	8
2023-08-22T12:00	18473	75	-56.6	-84.5	272	9
2023-08-22T12:00	18498	74	-56.7	-84.6	275	9
2023-08-22T12:00	18520	74	-56.9	-84.8	278	9
2023-08-22T12:00	18542	74	-57.0	-84.8	281	9
2023-08-22T12:00	18564	74	-57.0	-84.8	284	9
2023-08-22T12:00	18588	73	-57.3	-85.1	286	9
2023-08-22T12:00	18609	73	-57.3	-85.1	288	8
2023-08-22T12:00	18634	73	-57.2	-85.0	288	8
2023-08-22T12:00	18656	73	-57.1	-85.3	287	7
2023-08-22T12:00	18676	72	-57.0	-85.2	286	6
2023-08-22T12:00	18701	72	-56.8	-85.1	285	6
2023-08-22T12:00	18722	72	-56.7	-85.0	283	5
2023-08-22T12:00	18749	72	-56.6	-84.9	279	5
2023-08-22T12:00	18771	71	-56.8	-85.1	274	5
2023-08-22T12:00	18795	71	-56.9	-84.8	268	5
2023-08-22T12:00	18816	71	-57.1	-84.9	263	5
2023-08-22T12:00	18841	71	-57.2	-85.0	259	5
2023-08-22T12:00	18866	70	-57.2	-85.0	257	5
2023-08-22T12:00	18889	70	-57.1	-84.9	258	6
2023-08-22T12:00	18911	70	-57.2	-85.0	260	6
2023-08-22T12:00	18935	69	-57.3	-85.1	262	7
2023-08-22T12:00	18959	69	-57.4	-85.2	264	7
2023-08-22T12:00	18983	69	-57.4	-85.2	266	8
2023-08-22T12:00	19008	69	-57.4	-85.2	269	8
2023-08-22T12:00	19031	68	-57.1	-84.9	273	8
2023-08-22T12:00	19057	68	-57.2	-85.0	276	8
2023-08-22T12:00	19079	68	-57.4	-85.2	280	7
2023-08-22T12:00	19102	68	-57.5	-85.2	283	7
2023-08-22T12:00	19125	67	-57.7	-85.4	287	7
2023-08-22T12:00	19147	67	-57.3	-85.5	290	6
2023-08-22T12:00	19171	67	-57.1	-85.3	293	6
2023-08-22T12:00	19192	67	-57.1	-85.3	296	5
2023-08-22T12:00	19216	66	-57.1	-85.3	299	5
2023-08-22T12:00	19237	66	-57.0	-85.2	302	4
2023-08-22T12:00	19259	66	-57.1	-85.3	304	3
2023-08-22T12:00	19284	66	-57.2	-85.4	307	2
2023-08-22T12:00	19305	66	-57.4	-85.6	309	2
2023-08-22T12:00	19332	65	-57.3	-85.5	308	1
2023-08-22T12:00	19352	65	-57.2	-85.4	288	1
2023-08-22T12:00	19373	65	-57.1	-85.3	232	1
2023-08-22T12:00	19398	65	-57.0	-85.2	213	1
2023-08-22T12:00	19419	64	-57.0	-85.2	212	2
2023-08-22T12:00	19440	64	-56.8	-85.1	216	2
2023-08-22T12:00	19461	64	-56.8	-85.1	224	2
2023-08-22T12:00	19482	64	-56.9	-85.2	232	3
2023-08-22T12:00	19502	64	-56.8	-85.1	239	3
2023-08-22T12:00	19524	63	-56.9	-85.2	246	3
2023-08-22T12:00	19545	63	-57.1	-85.3	253	3
2023-08-22T12:00	19568	63	-57.1	-85.3	260	3
2023-08-22T12:00	19595	63	-57.2	-85.4	267	3
2023-08-22T12:00	19616	62	-57.3	-85.1	273	3
2023-08-22T12:00	19642	62	-57.3	-85.1	275	3
2023-08-22T12:00	19663	62	-57.3	-85.1	274	3
2023-08-22T12:00	19684	62	-57.5	-85.2	270	3
2023-08-22T12:00	19705	62	-57.6	-85.7	263	2
2023-08-22T12:00	19727	61	-57.6	-85.7	254	2
2023-08-22T12:00	19743	61	-57.4	-85.6	245	2
2023-08-22T12:00	19768	61	-57.3	-85.5	238	2
2023-08-22T12:00	19790	61	-57.3	-85.5	232	2
2023-08-22T12:00	19814	60	-57.3	-85.5	227	2
2023-08-22T12:00	19837	60	-57.2	-85.4	220	2
2023-08-22T12:00	19859	60	-57.1	-85.7	209	2
2023-08-22T12:00	19880	60	-56.9	-85.6	199	2
2023-08-22T12:00	19904	60	-56.8	-85.5	194	3
2023-08-22T12:00	19926	59	-56.8	-85.5	195	3
2023-08-22T12:00	19947	59	-56.6	-85.4	199	4
2023-08-22T12:00	19970	59	-56.4	-85.2	204	5
2023-08-22T12:00	19994	59	-56.4	-85.2	210	5
2023-08-22T12:00	20015	59	-56.3	-85.1	214	6
2023-08-22T12:00	20037	58	-56.2	-85.1	218	7
2023-08-22T12:00	20061	58	-56.0	-84.9	220	7
2023-08-22T12:00	20084	58	-55.9	-84.8	223	8
2023-08-22T12:00	20104	58	-56.1	-85.0	226	8
2023-08-22T12:00	20127	58	-56.2	-85.1	229	8
2023-08-22T12:00	20152	57	-56.3	-85.1	234	8
2023-08-22T12:00	20170	57	-56.4	-85.2	239	8
2023-08-22T12:00	20193	57	-56.3	-85.1	243	8
2023-08-22T12:00	20213	57	-56.2	-85.1	247	7
2023-08-22T12:00	20237	57	-56.3	-85.1	250	6
2023-08-22T12:00	20263	56	-56.3	-85.1	253	6
2023-08-22T12:00	20282	56	-56.3	-85.1	256	5
2023-08-22T12:00	20305	56	-56.4	-85.2	261	5
2023-08-22T12:00	20329	56	-56.3	-85.1	264	5
2023-08-22T12:00	20355	56	-56.3	-85.1	264	5
2023-08-22T12:00	20377	55	-56.2	-85.1	263	5
2023-08-22T12:00	20399	55	-56.2	-85.1	261	5
2023-08-22T12:00	20421	55	-56.2	-85.1	260	5
2023-08-22T12:00	20442	55	-56.2	-85.1	261	5
2023-08-22T12:00	20468	55	-56.2	-85.1	264	6
2023-08-22T12:00	20493	54	-56.2	-85.1	267	6
2023-08-22T12:00	20515	54	-56.2	-85.1	272	6
2023-08-22T12:00	20541	54	-56.3	-85.1	278	6
2023-08-22T12:00	20566	54	-56.3	-84.7	285	6
2023-08-22T12:00	20585	54	-56.4	-84.8	293	6
2023-08-22T12:00	20609	53	-56.6	-84.9	301	6
2023-08-22T12:00	20631	53	-56.6	-84.9	309	6
2023-08-22T12:00	20655	53	-56.5	-85.3	316	6
2023-08-22T12:00	20678	53	-56.4	-85.2	325	5
2023-08-22T12:00	20705	53	-56.4	-85.2	334	5
2023-08-22T12:00	20727	52	-56.3	-85.1	344	5
2023-08-22T12:00	20750	52	-56.1	-85.0	355	5
2023-08-22T12:00	20773	52	-55.9	-84.8	7	5
2023-08-22T12:00	20793	52	-55.8	-84.8	18	5
2023-08-22T12:00	20821	52	-55.9	-84.8	27	5
2023-08-22T12:00	20842	51	-55.9	-84.8	35	5
2023-08-22T12:00	20866	51	-55.9	-84.8	42	5
2023-08-22T12:00	20886	51	-55.7	-84.7	48	5
2023-08-22T12:00	20909	51	-55.5	-84.5	54	5
2023-08-22T12:00	20933	51	-55.6	-84.6	59	4
2023-08-22T12:00	20956	51	-55.6	-84.6	65	4
2023-08-22T12:00	20979	50	-55.7	-84.7	70	3
2023-08-22T12:00	21005	50	-55.8	-84.8	75	3
2023-08-22T12:00	21022	50	-55.8	-84.8	82	2
2023-08-22T12:00	21048	50	-55.9	-84.8	90	2
2023-08-22T12:00	21070	50	-55.8	-84.8	99	2
2023-08-22T12:00	21096	49	-55.9	-84.8	103	2
2023-08-22T12:00	21116	49	-55.9	-84.8	102	2
2023-08-22T12:00	21139	49	-55.9	-84.8	98	2
2023-08-22T12:00	21161	49	-55.9	-84.8	94	3
2023-08-22T12:00	21183	49	-55.9	-84.8	93	3
2023-08-22T12:00	21209	49	-55.8	-84.8	94	3
2023-08-22T12:00	21228	48	-55.8	-84.8	97	3
2023-08-22T12:00	21249	48	-55.8	-84.8	102	2
2023-08-22T12:00	21272	48	-56.0	-84.9	105	2
2023-08-22T12:00	21293	48	-56.1	-85.0	105	2
2023-08-22T12:00	21320	48	-56.0	-84.9	102	2
2023-08-22T12:00	21341	48	-55.8	-84.8	98	2
2023-08-22T12:00	21365	47	-55.8	-84.8	99	1
2023-08-22T12:00	21390	47	-55.8	-84.8	110	1
2023-08-22T12:00	21409	47	-55.7	-85.2	138	1
2023-08-22T12:00	21439	47	-55.4	-84.9	166	1
2023-08-22T12:00	21460	47	-55.4	-84.9	172	1
2023-08-22T12:00	21483	47	-55.5	-85.0	163	1
2023-08-22T12:00	21508	46	-55.6	-85.1	145	1
2023-08-22T12:00	21533	46	-55.6	-85.1	127	1
2023-08-22T12:00	21559	46	-55.4	-84.9	113	2
2023-08-22T12:00	21576	46	-55.2	-84.8	104	2
2023-08-22T12:00	21601	46	-55.1	-84.7	101	2
2023-08-22T12:00	21626	45	-54.8	-84.5	102	3
2023-08-22T12:00	21647	45	-54.8	-84.5	106	3
2023-08-22T12:00	21671	45	-55.0	-84.6	112	4
2023-08-22T12:00	21699	45	-55.0	-84.6	119	4
2023-08-22T12:00	21724	45	-55.0	-84.6	125	5
2023-08-22T12:00	21750	45	-55.1	-84.7	131	5
2023-08-22T12:00	21775	44	-55.1	-84.7	138	5
2023-08-22T12:00	21797	44	-55.2	-84.8	144	5
2023-08-22T12:00	21824	44	-55.3	-84.9	152	5
2023-08-22T12:00	21848	44	-55.3	-84.9	160	4
2023-08-22T12:00	21867	44	-55.2	-84.8	168	4
2023-08-22T12:00	21898	44	-55.0	-84.6	177	4
2023-08-22T12:00	21919	43	-55.1	-84.7	185	4
2023-08-22T12:00	21947	43	-55.1	-84.7	193	4
2023-08-22T12:00	21969	43	-55.1	-84.7	200	4
2023-08-22T12:00	21998	43	-55.2	-84.8	205	4
2023-08-22T12:00	22016	43	-55.4	-84.9	210	4
2023-08-22T12:00	22037	43	-55.5	-85.0	215	3
2023-08-22T12:00	22063	42	-55.4	-84.9	217	3
2023-08-22T12:00	22090	42	-55.4	-84.5	215	2
2023-08-22T12:00	22110	42	-55.5	-84.5	202	1
2023-08-22T12:00	22136	42	-55.5	-85.0	169	1
2023-08-22T12:00	22160	42	-55.5	-85.0	142	1
2023-08-22T12:00	22174	42	-55.5	-85.0	133	2
2023-08-22T12:00	22200	42	-55.4	-84.9	134	2
2023-08-22T12:00	22230	41	-55.2	-84.8	139	2
2023-08-22T12:00	22252	41	-55.2	-84.8	148	2
2023-08-22T12:00	22277	41	-55.0	-84.6	157	2
2023-08-22T12:00	22302	41	-54.9	-85.1	167	2
2023-08-22T12:00	22325	41	-54.8	-85.0	176	1
2023-08-22T12:00	22353	41	-54.7	-84.9	190	1
2023-08-22T12:00	22372	40	-54.7	-84.9	243	0
2023-08-22T12:00	22401	40	-54.6	-84.8	334	1
2023-08-22T12:00	22423	40	-54.6	-84.8	351	1
2023-08-22T12:00	22452	40	-54.5	-84.8	359	1
2023-08-22T12:00	22472	40	-54.4	-84.7	6	2
2023-08-22T12:00	22489	40	-54.3	-84.6	12	2
2023-08-22T12:00	22520	40	-54.2	-84.5	19	2
2023-08-22T12:00	22547	39	-54.3	-84.6	28	2
2023-08-22T12:00	22570	39	-54.4	-84.7	40	2
2023-08-22T12:00	22591	39	-54.4	-84.7	52	2
2023-08-22T12:00	22619	39	-54.4	-84.7	63	2
2023-08-22T12:00	22643	39	-54.4	-84.7	70	2
2023-08-22T12:00	22668	39	-54.3	-84.6	78	2
2023-08-22T12:00	22698	38	-54.3	-84.1	86	2
2023-08-22T12:00	22715	38	-54.5	-84.3	96	3
2023-08-22T12:00	22743	38	-54.5	-84.3	103	3
2023-08-22T12:00	22769	38	-54.6	-84.3	108	3
2023-08-22T12:00	22794	38	-54.8	-84.5	113	4
2023-08-22T12:00	22819	38	-54.8	-84.5	117	4
2023-08-22T12:00	22842	38	-54.7	-84.4	123	5
2023-08-22T12:00	22868	37	-54.6	-84.3	131	5
2023-08-22T12:00	22890	37	-54.6	-84.3	138	5
2023-08-22T12:00	22912	37	-54.7	-84.4	144	5
2023-08-22T12:00	22936	37	-54.9	-84.6	148	5
2023-08-22T12:00	22961	37	-55.0	-84.6	151	5
2023-08-22T12:00	22990	37	-54.9	-84.6	153	5
2023-08-22T12:00	23008	37	-54.7	-84.9	152	4
2023-08-22T12:00	23039	36	-54.6	-84.8	149	4
2023-08-22T12:00	23065	36	-54.6	-84.8	143	3
2023-08-22T12:00	23094	36	-54.6	-84.8	132	3
2023-08-22T12:00	23119	36	-54.4	-84.7	120	3
2023-08-22T12:00	23145	36	-54.3	-84.6	111	2
2023-08-22T12:00	23170	36	-54.4	-84.7	109	2
2023-08-22T12:00	23192	36	-54.2	-84.5	115	2
2023-08-22T12:00	23216	35	-54.1	-84.5	131	1
2023-08-22T12:00	23236	35	-54.2	-84.5	153	1
2023-08-22T12:00	23266	35	-54.2	-84.5	174	1
2023-08-22T12:00	23290	35	-54.0	-84.4	189	1
2023-08-22T12:00	23314	35	-54.0	-84.4	213	0
2023-08-22T12:00	23341	35	-54.1	-84.5	353	0
2023-08-22T12:00	23365	35	-53.9	-84.3	2	1
2023-08-22T12:00	23388	35	-53.8	-84.2	1	1
2023-08-22T12:00	23412	34	-53.7	-84.2	357	2
2023-08-22T12:00	23434	34	-53.7	-84.2	353	2
2023-08-22T12:00	23459	34	-53.8	-84.2	348	2
2023-08-22T12:00	23482	34	-53.8	-84.2	343	2
2023-08-22T12:00	23513	34	-53.8	-84.2	338	2
2023-08-22T12:00	23539	34	-53.9	-84.3	335	2
2023-08-22T12:00	23560	34	-54.1	-84.5	332	2
2023-08-22T12:00	23579	34	-54.2	-84.5	333	2
2023-08-22T12:00	23609	33	-54.2	-84.5	337	2
2023-08-22T12:00	23630	33	-54.2	-84.5	344	3
2023-08-22T12:00	23655	33	-54.3	-84.6	354	3
2023-08-22T12:00	23680	33	-54.2	-84.5	6	3
2023-08-22T12:00	23704	33	-54.3	-84.6	17	3
2023-08-22T12:00	23733	33	-54.3	-84.6	28	3
2023-08-22T12:00	23754	33	-54.3	-84.6	36	3
2023-08-22T12:00	23782	33	-54.3	-84.6	43	3
2023-08-22T12:00	23804	32	-54.3	-84.6	49	3
2023-08-22T12:00	23826	32	-54.4	-84.7	54	3
2023-08-22T12:00	23852	32	-54.4	-84.7	58	3
2023-08-22T12:00	23876	32	-54.4	-84.7	60	2
2023-08-22T12:00	23904	32	-54.5	-84.8	59	2
2023-08-22T12:00	23921	32	-54.4	-84.7	51	2
2023-08-22T12:00	23949	32	-54.3	-84.6	36	2
2023-08-22T12:00	23975	32	-54.1	-84.5	21	2
2023-08-22T12:00	23998	31	-54.1	-84.5	12	2
2023-08-22T12:00	24020	31	-54.1	-84.5	9	3
2023-08-22T12:00	24038	31	-54.0	-84.4	10	3
2023-08-22T12:00	24067	31	-53.9	-84.3	13	3
2023-08-22T12:00	24087	31	-54.0	-84.4	16	4
2023-08-22T12:00	24115	31	-54.0	-84.4	19	4
2023-08-22T12:00	24134	31	-54.1	-84.5	24	4
2023-08-22T12:00	24156	31	-54.0	-84.4	30	4
2023-08-22T12:00	24189	31	-54.0	-84.9	36	4
2023-08-22T12:00	24208	30	-53.8	-84.8	42	3
2023-08-22T12:00	24233	30	-53.8	-84.8	44	3
2023-08-22T12:00	24259	30	-53.7	-84.7	41	3
2023-08-22T12:00	24283	30	-53.5	-84.6	32	3
2023-08-22T12:00	24307	30	-53.3	-84.4	21	3
2023-08-22T12:00	24331	30	-53.2	-84.4	12	4
2023-08-22T12:00	24357	30	-53.3	-84.4	7	4
2023-08-22T12:00	24382	30	-53.2	-84.4	7	5
2023-08-22T12:00	24405	29	-53.1	-84.3	10	5
2023-08-22T12:00	24427	29	-53.0	-84.2	16	5
2023-08-22T12:00	24454	29	-52.7	-84.0	24	6
2023-08-22T12:00	24479	29	-52.7	-84.0	31	6
2023-08-22T12:00	24507	29	-52.8	-84.1	38	6
2023-08-22T12:00	24528	29	-52.8	-84.1	42	6
2023-08-22T12:00	24559	29	-52.8	-84.1	44	6
2023-08-22T12:00	24584	29	-52.7	-84.0	44	7
2023-08-22T12:00	24610	29	-52.6	-83.9	45	7
2023-08-22T12:00	24639	28	-52.6	-83.9	46	7
2023-08-22T12:00	24664	28	-52.5	-83.8	49	7
2023-08-22T12:00	24680	28	-52.5	-83.8	53	8
2023-08-22T12:00	24707	28	-52.4	-83.8	57	8
2023-08-22T12:00	24740	28	-52.4	-83.8	62	8
2023-08-22T12:00	24761	28	-52.5	-83.8	66	7
2023-08-22T12:00	24786	28	-52.7	-84.0	71	7
2023-08-22T12:00	24811	28	-52.7	-84.0	75	7
2023-08-22T12:00	24839	28	-52.6	-83.9	81	7
2023-08-22T12:00	24870	27	-52.5	-83.8	87	7
2023-08-22T12:00	24891	27	-52.6	-83.9	94	7
2023-08-22T12:00	24918	27	-52.7	-84.0	100	7
2023-08-22T12:00	24944	27	-52.9	-84.1	107	7
2023-08-22T12:00	24969	27	-53.1	-84.3	115	6
2023-08-22T12:00	24992	27	-53.2	-84.4	122	6
2023-08-22T12:00	25025	27	-53.2	-84.4	130	5
2023-08-22T12:00	25046	27	-53.1	-84.3	137	5
2023-08-22T12:00	25079	27	-52.9	-84.1	143	4
2023-08-22T12:00	25104	26	-52.8	-84.1	146	4
2023-08-22T12:00	25122	26	-52.9	-84.1	147	3
2023-08-22T12:00	25153	26	-52.8	-84.1	146	3
2023-08-22T12:00	25177	26	-52.6	-83.9	145	3
2023-08-22T12:00	25207	26	-52.6	-83.9	143	2
2023-08-22T12:00	25229	26	-52.6	-83.9	140	2
2023-08-22T12:00	25251	26	-52.4	-83.8	134	1
2023-08-22T12:00	25271	26	-52.3	-83.7	118	1
2023-08-22T12:00	25303	26	-52.4	-83.8	87	1
2023-08-22T12:00	25323	26	-52.6	-83.9	60	1
2023-08-22T12:00	25348	25	-52.7	-84.0	48	2
2023-08-22T12:00	25370	25	-52.8	-84.1	43	3
2023-08-22T12:00	25399	25	-52.6	-84.5	41	3
2023-08-22T12:00	25422	25	-52.2	-84.2	43	4
2023-08-22T12:00	25450	25	-51.8	-83.9	46	4
2023-08-22T12:00	25470	25	-51.7	-83.9	52	5
2023-08-22T12:00	25498	25	-51.6	-83.8	58	5
2023-08-22T12:00	25522	25	-51.5	-83.7	64	6
2023-08-22T12:00	25544	25	-51.4	-83.6	69	6
2023-08-22T12:00	25566	25	-51.3	-83.6	74	6
2023-08-22T12:00	25590	25	-51.1	-83.4	78	6
2023-08-22T12:00	25617	24	-50.9	-84.0	82	5
2023-08-22T12:00	25637	24	-50.7	-83.8	87	5
2023-08-22T12:00	25665	24	-50.4	-83.6	96	4
2023-08-22T12:00	25690	24	-50.2	-83.5	108	4
2023-08-22T12:00	25712	24	-50.2	-83.5	123	4
2023-08-22T12:00	25739	24	-50.1	-83.4	138	4
2023-08-22T12:00	25763	24	-50.1	-83.4	151	4
2023-08-22T12:00	25786	24	-50.2	-83.5	163	4
2023-08-22T12:00	25815	24	-50.2	-83.5	173	4
2023-08-22T12:00	25833	24	-50.1	-83.4	180	4
2023-08-22T12:00	25852	24	-49.9	-83.2	184	3
2023-08-22T12:00	25882	23	-49.9	-83.2	187	3
2023-08-22T12:00	25907	23	-49.8	-83.2	190	3
2023-08-22T12:00	25935	23	-49.7	-83.1	191	2
2023-08-22T12:00	25963	23	-49.5	-82.9	190	2
2023-08-22T12:00	25984	23	-49.3	-82.8	183	1
2023-08-22T12:00	26008	23	-49.1	-82.7	166	1
2023-08-22T12:00	26039	23	-49.0	-82.6	145	1
2023-08-22T12:00	26064	23	-49.0	-82.6	129	1
2023-08-22T12:00	26085	23	-49.1	-82.7	121	2
2023-08-22T12:00	26110	23	-49.3	-82.8	116	2
2023-08-22T12:00	26137	23	-49.4	-82.9	111	2
2023-08-22T12:00	26160	22	-49.5	-82.9	105	3
2023-08-22T12:00	26184	22	-49.4	-82.9	99	3
2023-08-22T12:00	26217	22	-49.3	-82.8	95	3
2023-08-22T12:00	26245	22	-49.4	-82.9	93	4
2023-08-22T12:00	26262	22	-49.5	-82.9	93	4
2023-08-22T12:00	26289	22	-49.6	-83.0	94	4
2023-08-22T12:00	26313	22	-49.7	-83.1	96	4
2023-08-22T12:00	26344	22	-49.8	-83.2	98	4
2023-08-22T12:00	26373	22	-49.8	-83.2	101	4
2023-08-22T12:00	26398	22	-49.8	-83.2	107	4
2023-08-22T12:00	26418	22	-49.7	-83.1	115	4
2023-08-22T12:00	26441	22	-49.8	-83.2	123	4
2023-08-22T12:00	26472	21	-49.9	-83.2	131	4
2023-08-22T12:00	26490	21	-49.6	-83.0	137	4
2023-08-22T12:00	26517	21	-49.4	-82.9	141	4
2023-08-22T12:00	26545	21	-49.5	-82.9	144	4
2023-08-22T12:00	26568	21	-49.6	-83.0	147	3
2023-08-22T12:00	26593	21	-49.6	-83.0	149	3
2023-08-22T12:00	26616	21	-49.6	-83.0	150	2
2023-08-22T12:00	26645	21	-49.2	-82.7	150	1
2023-08-22T12:00	26671	21	-48.8	-82.4	144	1
2023-08-22T12:00	26695	21	-48.9	-83.3	102	0
2023-08-22T12:00	26720	21	-48.8	-83.2	37	1
2023-08-22T12:00	26749	21	-48.5	-83.0	27	1
2023-08-22T12:00	26776	20	-48.3	-82.9	28	2
2023-08-22T12:00	26795	20	-48.2	-82.8	32	3
2023-08-22T12:00	26818	20	-48.1	-82.7	35	3
2023-08-22T12:00	26859	20	-47.9	-82.6	39	4
2023-08-22T12:00	26878	20	-48.0	-82.7	43	4
2023-08-22T12:00	26901	20	-47.8	-82.5	46	4
2023-08-22T12:00	26925	20	-47.8	-82.5	50	4
2023-08-22T12:00	26958	20	-47.9	-82.6	53	4
2023-08-22T12:00	26976	20	-48.0	-82.7	55	4
2023-08-22T12:00	27002	20	-48.2	-82.0	56	4
2023-08-22T12:00	27034	20	-48.2	-82.0	56	4
2023-08-22T12:00	27055	20	-47.9	-81.8	54	4
2023-08-22T12:00	27083	20	-47.8	-82.5	54	3
2023-08-22T12:00	27105	19	-48.0	-82.7	55	3
2023-08-22T12:00	27134	19	-47.9	-82.6	58	3
2023-08-22T12:00	27163	19	-47.8	-82.5	63	3
2023-08-22T12:00	27179	19	-47.8	-82.5	69	3
2023-08-22T12:00	27201	19	-47.7	-82.4	73	3
2023-08-22T12:00	27231	19	-47.5	-82.3	75	2
2023-08-22T12:00	27254	19	-47.3	-82.2	73	2
2023-08-22T12:00	27284	19	-47.1	-82.0	66	2
2023-08-22T12:00	27309	19	-47.1	-82.0	56	2
2023-08-22T12:00	27331	19	-47.0	-81.9	44	1
2023-08-22T12:00	27366	19	-46.8	-81.8	35	1
2023-08-22T12:00	27379	19	-46.6	-81.7	30	1
2023-08-22T12:00	27408	19	-46.7	-81.7	29	1
2023-08-22T12:00	27444	19	-46.6	-81.7	30	1
2023-08-22T12:00	27473	18	-46.4	-81.5	33	1
2023-08-22T12:00	27483	18	-46.2	-81.4	35	1
2023-08-22T12:00	27512	18	-46.2	-81.4	38	1
2023-08-22T12:00	27541	18	-46.3	-81.4	42	1
2023-08-22T12:00	27571	18	-46.2	-81.4	46	1
2023-08-22T12:00	27598	18	-46.0	-82.1	46	0
2023-08-22T12:00	27620	18	-45.9	-82.1	38	1
2023-08-22T12:00	27642	18	-45.9	-82.1	33	1
2023-08-22T12:00	27680	18	-45.8	-82.0	32	2
2023-08-22T12:00	27701	18	-45.6	-81.9	32	2
2023-08-22T12:00	27727	18	-45.5	-81.8	33	3
2023-08-22T12:00	27763	18	-45.4	-81.7	35	4
2023-08-22T12:00	27789	18	-45.4	-81.7	38	4
2023-08-22T12:00	27801	18	-45.5	-81.8	42	5
2023-08-22T12:00	27831	17	-45.4	-81.7	48	5
2023-08-22T12:00	27861	17	-45.4	-80.8	54	5
2023-08-22T12:00	27891	17	-45.4	-80.8	60	5
2023-08-22T12:00	27922	17	-45.5	-80.9	67	5
2023-08-22T12:00	27939	17	-45.6	-80.9	73	6
2023-08-22T12:00	27970	17	-45.6	-80.9	79	6
2023-08-22T12:00	27996	17	-45.6	-80.9	87	6
2023-08-22T12:00	28023	17	-45.6	-80.9	95	6
2023-08-22T12:00	28050	17	-45.6	-80.9	104	6
2023-08-22T12:00	28074	17	-45.7	-81.0	113	6
2023-08-22T12:00	28091	17	-45.6	-80.9	122	6
2023-08-22T12:00	28134	17	-45.7	-81.0	131	6
2023-08-22T12:00	28147	17	-45.9	-81.2	140	6
2023-08-22T12:00	28185	17	-46.1	-81.3	149	6
2023-08-22T12:00	28198	17	-46.1	-81.3	158	6
2023-08-22T12:00	28229	16	-46.1	-81.3	166	6
2023-08-22T12:00	28260	16	-46.0	-81.2	172	6
2023-08-22T12:00	28283	16	-46.0	-82.1	176	6
2023-08-22T12:00	28307	16	-45.9	-82.1	178	7
2023-08-22T12:00	28331	16	-45.7	-81.9	179	7
2023-08-22T12:00	28357	16	-45.6	-81.9	180	7
2023-08-22T12:00	28381	16	-45.5	-81.8	182	7
2023-08-22T12:00	28418	16	-45.3	-81.6	184	7
2023-08-22T12:00	28432	16	-45.2	-81.6	187	7
2023-08-22T12:00	28461	16	-45.3	-81.6	189	7
2023-08-22T12:00	28480	16	-45.3	-81.6	191	7
2023-08-22T12:00	28497	16	-45.2	-81.6	193	6
2023-08-22T12:00	28527	16	-45.2	-81.6	195	6
2023-08-22T12:00	28550	16	-45.3	-81.6	198	5
2023-08-22T12:00	28584	16	-45.4	-81.7	202	4
2023-08-22T12:00	28602	16	-45.4	-81.7	208	4
2023-08-22T12:00	28631	16	-45.3	-81.6	216	3
2023-08-22T12:00	28648	15	-45.2	-81.6	224	2
2023-08-22T12:00	28689	15	-45.2	-81.6	234	2
2023-08-22T12:00	28700	15	-45.1	-81.5	244	1
2023-08-22T12:00	28741	15	-45.0	-81.4	250	1
2023-08-22T12:00	28764	15	-44.7	-81.2	248	1
2023-08-22T12:00	28784	15	-44.5	-81.1	227	0
2023-08-22T12:00	28801	15	-44.2	-80.9	198	0
2023-08-22T12:00	28834	15	-44.0	-80.7	188	1
2023-08-22T12:00	28859	15	-43.7	-80.5	193	1
2023-08-22T12:00	28878	15	-43.6	-80.4	199	1
2023-08-22T12:00	28904	15	-43.5	-80.4	201	1
2023-08-22T12:00	28934	15	-43.5	-80.4	201	2
2023-08-22T12:00	28955	15	-43.5	-80.4	200	2
2023-08-22T12:00	28982	15	-43.5	-80.4	203	2
2023-08-22T12:00	29004	15	-43.4	-81.4	212	2
2023-08-22T12:00	29029	15	-43.3	-81.3	228	2
2023-08-22T12:00	29049	15	-43.3	-81.3	248	2
2023-08-22T12:00	29076	15	-43.3	-81.3	263	2
2023-08-22T12:00	29114	14	-43.2	-81.3	271	2
2023-08-22T12:00	29131	14	-43.1	-81.2	278	2
2023-08-22T12:00	29162	14	-43.1	-81.2	286	1
2023-08-22T12:00	29180	14	-43.1	-81.2	302	1
2023-08-22T12:00	29210	14	-43.1	-81.2	337	1
2023-08-22T12:00	29229	14	-42.9	-81.1	15	1
2023-08-22T12:00	29244	14	-42.8	-81.0	32	1
2023-08-22T12:00	29275	14	-42.7	-80.9	39	2
2023-08-22T12:00	29309	14	-42.9	-81.1	42	3
2023-08-22T12:00	29347	14	-43.0	-81.1	45	3
2023-08-22T12:00	29362	14	-43.1	-81.2	48	4
2023-08-22T12:00	29389	14	-43.2	-81.3	54	4
2023-08-22T12:00	29412	14	-43.2	-81.3	64	4
2023-08-22T12:00	29432	14	-43.1	-81.2	78	3
2023-08-22T12:00	29461	14	-43.0	-81.1	94	3
2023-08-22T12:00	29485	14	-43.0	-81.1	108	4
2023-08-22T12:00	29528	14	-43.2	-81.3	118	4
2023-08-22T12:00	29536	14	-43.1	-81.2	125	4
2023-08-22T12:00	29573	13	-43.1	-81.2	132	5
2023-08-22T12:00	29589	13	-43.2	-81.3	138	5
2023-08-22T12:00	29637	13	-43.2	-81.3	144	5
2023-08-22T12:00	29644	13	-42.9	-81.1	150	5
2023-08-22T12:00	29673	13	-42.5	-80.8	158	4
2023-08-22T12:00	29696	13	-42.4	-80.7	166	4
2023-08-22T12:00	29732	13	-42.5	-80.8	177	4
2023-08-22T12:00	29762	13	-42.6	-80.8	189	4
2023-08-22T12:00	29769	13	-42.5	-80.8	201	4
2023-08-22T12:00	29794	13	-42.5	-80.8	213	5
2023-08-22T12:00	29836	13	-42.4	-80.7	224	5
2023-08-22T12:00	29847	13	-42.1	-80.5	236	4
2023-08-22T12:00	29877	13	-41.9	-80.4	248	4
2023-08-22T12:00	29910	13	-41.7	-80.2	262	4
2023-08-22T12:00	29932	13	-41.6	-80.1	278	3
2023-08-22T12:00	29946	13	-41.4	-80.0	294	3
2023-08-22T12:00	29966	13	-41.2	-79.9	312	2
2023-08-22T12:00	30000	13	-41.0	-79.7	332	2
2023-08-22T12:00	30023	13	-40.9	-79.7	359	2
2023-08-22T12:00	30054	13	-40.9	-79.7	25	2
2023-08-22T12:00	30072	13	-40.9	-79.7	44	2
2023-08-22T12:00	30091	12	-40.8	-79.6	55	2
2023-08-22T12:00	30120	12	-40.7	-79.5	63	2
2023-08-22T12:00	30148	12	-40.5	-79.4	69	2
2023-08-22T12:00	30170	12	-40.4	-79.3	73	2
2023-08-22T12:00	30199	12	-40.4	-79.3	76	1
2023-08-22T12:00	30219	12	-40.3	-79.2	75	1
2023-08-22T12:00	30240	12	-40.2	-79.2	61	1
2023-08-22T12:00	30262	12	-40.2	-79.2	354	0
2023-08-22T12:00	30292	12	-40.2	-79.2	313	1
2023-08-22T12:00	30318	12	-40.2	-79.2	305	1
2023-08-22T12:00	30334	12	-40.2	-79.2	304	1
2023-08-22T12:00	30360	12	-40.2	-79.2	304	1
2023-08-22T12:00	30387	12	-40.1	-79.1	300	1
2023-08-22T12:00	30412	12	-39.9	-79.0	160	0
2023-08-22T12:00	30418	12	-39.9	-79.0	139	1
2023-08-22T12:00	30464	12	-39.8	-78.9	137	2
2023-08-22T12:00	30492	12	-39.8	-78.9	136	3
2023-08-22T12:00	30505	12	-39.8	-78.9	134	4
2023-08-22T12:00	30533	12	-39.8	-78.9	132	4
2023-08-22T12:00	30555	12	-39.8	-78.9	128	5
2023-08-22T12:00	30601	12	-39.8	-78.9	124	5
2023-08-22T12:00	30615	12	-39.8	-78.9	121	5
2023-08-22T12:00	30642	12	-39.8	-78.9	119	5
2023-08-22T12:00	30655	11	-39.9	-79.0	121	6
2023-08-22T12:00	30690	11	-40.0	-79.0	125	5
2023-08-22T12:00	30710	11	-40.3	-79.2	131	5
2023-08-22T12:00	30750	11	-40.5	-79.4	139	5
2023-08-22T12:00	30773	11	-40.6	-79.5	148	4
2023-08-22T12:00	30791	11	-40.6	-79.5	159	4
2023-08-22T12:00	30819	11	-40.5	-79.4	172	3
2023-08-22T12:00	30832	11	-40.4	-79.3	185	3
2023-08-22T12:00	30874	11	-40.3	-79.2	195	3
2023-08-22T12:00	30882	11	-40.4	-79.3	201	3
2023-08-22T12:00	30923	11	-40.4	-79.3	205	3
2023-08-22T12:00	30944	11	-40.2	-79.2	207	3
2023-08-22T12:00	30975	11	-40.1	-79.1	212	3
2023-08-22T12:00	31003	11	-40.1	-79.1	222	3
2023-08-22T12:00	31033	11	-40.1	-79.1	235	3
2023-08-22T12:00	31054	11	-40.0	-79.0	248	3
2023-08-22T12:00	31067	11	-39.9	-79.0	257	3
2023-08-22T12:00	31092	11	-39.8	-78.9	258	2
2023-08-22T12:00	31117	11	-39.7	-78.8	250	2
2023-08-22T12:00	31143	11	-39.5	-78.7	221	1
2023-08-22T12:00	31170	11	-39.3	-78.5	182	2
2023-08-22T12:00	31191	11	-39.1	-78.4	161	2
2023-08-22T12:00	31227	11	-38.9	-78.3	151	3
2023-08-22T12:00	31237	11	-38.7	-78.1	146	4
2023-08-22T12:00	31256	11	-38.4	-77.9	143	4
2023-08-22T12:00	31301	10	-38.3	-77.9	141	5
2023-08-22T12:00	31310	10	-38.3	-77.9	138	5
2023-08-22T12:00	31327	10	-38.3	-77.9	136	5
2023-08-22T12:00	31365	10	-38.4	-77.9	134	6
2023-08-22T12:00	31386	10	-38.5	-78.0	134	6
2023-08-22T12:00	31419	10	-38.5	-78.0	134	6
2023-08-22T12:00	31436	10	-38.3	-77.9	137	6
2023-08-22T12:00	31446	10	-38.2	-77.8	141	6
2023-08-22T12:00	31488	10	-38.2	-77.8	147	6
2023-08-22T12:00	31502	10	-38.4	-77.9	154	6
2023-08-22T12:00	31528	10	-38.6	-78.1	161	6
2023-08-22T12:00	31553	10	-38.7	-78.1	168	7
2023-08-22T12:00	31576	10	-38.8	-78.2	174	7
2023-08-22T12:00	31609	10	-38.8	-78.2	180	7
2023-08-22T12:00	31623	10	-38.8	-78.2	187	7
2023-08-22T12:00	31641	10	-38.8	-78.2	194	7
2023-08-22T12:00	31669	10	-38.8	-78.2	200	7
2023-08-22T12:00	31703	10	-38.7	-78.1	207	7
2023-08-22T12:00	31712	10	-38.7	-78.1	212	7
2023-08-22T12:00	31743	10	-38.7	-78.1	216	7
2023-08-22T12:00	31760	10	-38.4	-77.9	219	7
2023-08-22T12:00	31793	10	-37.9	-77.6	223	6
2023-08-22T12:00	31805	10	-37.8	-77.5	227	6
2023-08-22T12:00	31833	10	-37.9	-77.6	234	5
2023-08-22T12:00	31852	10	-37.8	-77.5	243	5
2023-08-22T12:00	31879	10	-37.6	-77.4	254	4
2023-08-22T12:00	31913	10	-37.5	-77.3	267	4
2023-08-22T12:00	31930	10	-37.5	-77.3	281	3
2023-08-22T12:00	31960	10	-37.6	-77.4	296	3
2023-08-22T12:00	31973	9	-37.7	-77.4	310	3
2023-08-22T12:00	32009	9	-37.5	-77.3	321	4
2023-08-22T12:00	32029	9	-37.3	-77.2	328	4
2023-08-22T12:00	32059	9	-37.3	-77.2	332	4
2023-08-22T12:00	32060	9	-37.3	-77.2	334	4
2023-08-22T12:00	32106	9	-37.2	-77.1	335	4
2023-08-22T12:00	32132	9	-37.2	-77.1	335	4
2023-08-22T12:00	32147	9	-37.3	-77.2	335	4
2023-08-22T12:00	32187	9	-37.2	-77.1	334	4
2023-08-22T12:00	32196	9	-37.1	-77.0	335	3
2023-08-22T12:00	32231	9	-37.0	-77.0	336	3
2023-08-22T12:00	32257	9	-36.9	-76.9	338	3
2023-08-22T12:00	32273	9	-36.8	-76.8	342	3
2023-08-22T12:00	32301	9	-36.9	-76.9	347	2
2023-08-22T12:00	32337	9	-37.0	-77.0	354	2
2023-08-22T12:00	32360	9	-37.0	-77.0	4	1
2023-08-22T12:00	32389	9	-37.0	-77.0	23	1
2023-08-22T12:00	32404	9	-37.1	-77.0	103	0
2023-08-22T12:00	32445	9	-37.1	-77.0	159	1
2023-08-22T12:00	32486	9	-37.5	-77.3	162	2
2023-08-22T12:00	32519	9	-37.6	-77.4	156	3
2023-08-22T12:00	32561	9	-37.5	-77.3	149	3
2023-08-22T12:00	32577	9	-37.6	-77.4	149	4
2023-08-22T12:00	32605	9	-37.7	-77.4	151	4
2023-08-22T12:00	32625	9	-37.6	-77.4	155	4
2023-08-22T12:00	32649	9	-37.8	-77.5	160	4
2023-08-22T12:00	32670	9	-37.9	-77.6	164	5
2023-08-22T12:00	32689	9	-37.9	-77.6	166	5
2023-08-22T12:00	32708	9	-37.7	-77.4	166	6
2023-08-22T12:00	32751	9	-37.4	-77.2	165	7
2023-08-22T12:00	32760	8	-37.2	-77.1	165	7
2023-08-22T12:00	32782	8	-37.1	-77.0	166	7
2023-08-22T12:00	32816	8	-37.3	-77.2	168	7
2023-08-22T12:00	32822	8	-37.5	-77.3	171	6
2023-08-22T12:00	32859	8	-37.7	-77.4	175	6
2023-08-22T12:00	32875	8	-37.8	-77.5	180	5
2023-08-22T12:00	32909	8	-37.7	-77.4	184	5
2023-08-22T12:00	32914	8	-37.7	-77.4	186	4
2023-08-22T12:00	32937	8	-37.6	-77.4	187	4
2023-08-22T12:00	32948	8	-37.3	-77.2	188	4
2023-08-22T12:00	32965	8	-37.1	-77.0	188	4
2023-08-22T12:00	33007	8	-36.9	-76.9	189	5
2023-08-22T12:00	33016	8	-36.8	-76.8	189	5
2023-08-22T12:00	33050	8	-36.8	-76.8	189	5
2023-08-22T12:00	33076	8	-36.9	-76.9	188	5
2023-08-22T12:00	33093	8	-36.9	-76.9	187	5
2023-08-22T12:00	33116	8	-36.9	-76.9	186	5
2023-08-22T12:00	33140	8	-37.0	-77.0	184	5
2023-08-22T12:00	33168	8	-37.1	-77.0	182	5
2023-08-22T12:00	33182	8	-37.2	-77.1	179	5
2023-08-22T12:00	33201	8	-37.0	-77.0	175	5
2023-08-22T12:00	33223	8	-37.0	-77.0	172	5
2023-08-22T12:00	33253	8	-37.2	-77.1	168	5
2023-08-22T12:00	33272	8	-37.2	-77.1	164	5
2023-08-22T12:00	33275	8	-37.0	-77.0	160	5
2023-08-22T12:00	33301	8	-37.0	-77.0	156	5
2023-08-22T12:00	33315	8	-37.1	-77.0	151	5
2023-08-22T12:00	33372	8	-36.8	-76.8	142	4
2023-08-22T12:00	33403	8	-36.8	-76.8	138	4
2023-08-22T12:00	33427	8	-36.7	-76.7	136	3
2023-08-22T12:00	33458	8	-36.6	-76.7	136	3
2023-08-22T12:00	33484	8	-36.6	-76.7	136	2
2023-08-22T12:00	33493	8	-36.5	-76.6	137	2
2023-08-22T12:00	33515	8	-36.6	-76.7	139	2
2023-08-22T12:00	33539	8	-36.5	-76.6	142	1
2023-08-22T12:00	33569	8	-36.4	-76.5	145	1
2023-08-22T12:00	33590	8	-36.3	-76.5	143	0
2023-08-22T12:00	33601	8	-36.2	-76.4	0	0
2023-08-22T12:00	33644	7	-36.1	-76.3	344	1
2023-08-22T12:00	33667	7	-36.0	-76.3	343	2
2023-08-22T12:00	33675	7	-36.0	-76.3	343	2
2023-08-22T12:00	33690	7	-36.0	-76.3	343	3
2023-08-22T12:00	33706	7	-35.9	-76.2	343	3
2023-08-22T12:00	33739	7	-35.9	-76.2	344	4
2023-08-22T12:00	33771	7	-35.9	-76.2	345	4
2023-08-22T12:00	33802	7	-35.8	-76.1	347	4
2023-08-22T12:00	33825	7	-35.8	-76.1	350	4
2023-08-22T12:00	33837	7	-35.8	-76.1	353	3
2023-08-22T12:00	33848	7	-35.8	-76.1	357	3
2023-08-22T12:00	33879	7	-35.8	-76.1	359	3
2023-08-22T12:00	33885	7	-35.7	-76.1	1	3
2023-08-22T12:00	33924	7	-35.8	-76.1	360	3
2023-08-22T12:00	33935	7	-35.9	-76.2	356	3
2023-08-22T12:00	33965	7	-36.1	-76.3	350	2
2023-08-22T12:00	33982	7	-36.3	-76.5	339	2
2023-08-22T12:00	34000	7	-36.4	-76.5	324	2
2023-08-22T12:00	34015	7	-36.2	-76.4	307	2
2023-08-22T12:00	34038	7	-36.0	-76.3	293	2
2023-08-22T12:00	34078	7	-36.0	-76.3	286	2
2023-08-22T12:00	34087	7	-36.0	-76.3	285	2
2023-08-22T12:00	34116	7	-35.9	-76.2	290	3
2023-08-22T12:00	34118	7	-35.9	-76.2	301	3
2023-08-22T12:00	34159	7	-35.9	-76.2	313	3
2023-08-22T12:00	34184	7	-35.9	-76.2	322	3
2023-08-22T12:00	34214	7	-35.8	-76.1	327	4
2023-08-22T12:00	34231	7	-35.8	-76.1	329	4
2023-08-22T12:00	34264	7	-35.8	-76.1	328	3
2023-08-22T12:00	34277	7	-35.6	-76.0	327	3
2023-08-22T12:00	34331	7	-35.4	-75.8	327	3
2023-08-22T12:00	34355	7	-35.2	-75.7	320	3
2023-08-22T12:00	34383	7	-35.1	-75.6	316	4
2023-08-22T12:00	34434	7	-34.7	-75.4	313	4
2023-08-22T12:00	34440	7	-34.3	-75.1	319	4
2023-08-22T12:00	34468	7	-34.3	-75.1	325	4
2023-08-22T12:00	34485	7	-34.2	-75.0	331	4
2023-08-22T12:00	34543	7	-34.1	-75.0	336	4
2023-08-22T12:00	34556	7	-34.0	-74.9	341	5
2023-08-22T12:00	34557	7	-33.9	-74.8	346	5
2023-08-22T12:00	34612	7	-34.1	-75.0	351	5
2023-08-22T12:00	34665	6	-34.1	-75.0	1	5
2023-08-22T18:00	112	1006	22.1	15.7	10	3
2023-08-22T18:00	135	1003	22.5	14.6	348	3
2023-08-22T18:00	161	1000	22.4	13.9	348	4
2023-08-22T18:00	185	998	22.2	13.7	348	5
2023-08-22T18:00	205	995	22.0	13.7	348	5
2023-08-22T18:00	228	993	21.8	13.7	349	6
2023-08-22T18:00	246	990	21.6	13.6	351	6
2023-08-22T18:00	272	988	21.4	13.7	353	6
2023-08-22T18:00	294	985	21.2	13.5	354	6
2023-08-22T18:00	316	983	21.0	13.5	355	6
2023-08-22T18:00	336	980	20.9	13.5	355	6
2023-08-22T18:00	357	978	20.7	13.2	356	6
2023-08-22T18:00	376	976	20.6	13.1	356	6
2023-08-22T18:00	395	974	20.4	12.9	357	6
2023-08-22T18:00	415	971	20.2	12.7	359	6
2023-08-22T18:00	444	968	20.2	11.6	359	6
2023-08-22T18:00	469	965	20.1	11.3	360	5
2023-08-22T18:00	493	963	19.9	10.9	359	5
2023-08-22T18:00	518	960	19.8	10.1	357	5
2023-08-22T18:00	542	957	19.6	9.9	354	5
2023-08-22T18:00	565	955	19.4	9.9	351	5
2023-08-22T18:00	590	952	19.2	9.8	348	5
2023-08-22T18:00	614	949	19.0	9.7	346	5
2023-08-22T18:00	644	946	18.7	9.6	344	5
2023-08-22T18:00	665	944	18.5	9.7	344	5
2023-08-22T18:00	685	941	18.3	9.6	344	5
2023-08-22T18:00	707	939	18.2	9.6	344	5
2023-08-22T18:00	727	937	18.2	9.7	343	5
2023-08-22T18:00	749	934	18.0	10.3	340	5
2023-08-22T18:00	770	932	17.8	10.2	337	6
2023-08-22T18:00	792	930	17.7	10.3	333	6
2023-08-22T18:00	810	928	17.5	10.3	330	6
2023-08-22T18:00	833	925	17.4	10.4	327	6
2023-08-22T18:00	855	923	17.2	10.6	326	7
2023-08-22T18:00	872	921	17.0	10.7	326	7
2023-08-22T18:00	897	918	16.8	10.7	327	7
2023-08-22T18:00	919	916	16.6	10.5	328	7
2023-08-22T18:00	940	914	16.5	10.7	330	6
2023-08-22T18:00	959	912	16.3	10.3	332	6
2023-08-22T18:00	975	910	16.3	9.8	333	6
2023-08-22T18:00	997	908	16.1	9.7	332	5
2023-08-22T18:00	1025	905	15.9	9.9	329	5
2023-08-22T18:00	1045	903	15.8	10.3	324	5
2023-08-22T18:00	1063	900	15.6	10.5	319	5
2023-08-22T18:00	1089	898	15.5	10.3	315	5
2023-08-22T18:00	1109	896	15.3	10.0	313	4
2023-08-22T18:00	1130	894	15.1	10.0	313	4
2023-08-22T18:00	1155	891	14.9	10.2	316	4
2023-08-22T18:00	1177	889	14.7	10.2	321	4
2023-08-22T18:00	1198	886	14.5	10.3	323	4
2023-08-22T18:00	1220	884	14.3	10.3	323	4
2023-08-22T18:00	1242	882	14.0	10.2	319	4
2023-08-22T18:00	1273	879	13.8	10.4	313	4
2023-08-22T18:00	1298	876	13.7	10.6	306	5
2023-08-22T18:00	1320	874	13.6	10.8	301	5
2023-08-22T18:00	1340	872	13.5	11.4	299	5
2023-08-22T18:00	1360	869	13.4	11.6	299	6
2023-08-22T18:00	1381	867	13.2	11.6	301	6
2023-08-22T18:00	1403	865	13.1	11.7	305	6
2023-08-22T18:00	1427	863	13.0	11.7	307	6
2023-08-22T18:00	1450	860	12.9	11.6	308	6
2023-08-22T18:00	1476	858	12.7	11.6	307	6
2023-08-22T18:00	1504	855	12.5	11.7	304	6
2023-08-22T18:00	1525	853	12.4	11.8	300	7
2023-08-22T18:00	1551	850	12.2	11.5	297	7
2023-08-22T18:00	1577	847	12.4	10.7	296	8
2023-08-22T18:00	1597	845	12.3	10.2	296	8
2023-08-22T18:00	1617	843	12.2	10.1	297	8
2023-08-22T18:00	1641	841	12.0	9.7	299	8
2023-08-22T18:00	1660	839	11.8	9.6	301	8
2023-08-22T18:00	1683	837	11.6	9.2	302	7
2023-08-22T18:00	1706	835	11.5	9.1	303	7
2023-08-22T18:00	1725	833	11.5	8.8	303	7
2023-08-22T18:00	1749	830	11.5	7.4	303	7
2023-08-22T18:00	1770	828	11.6		302	7
2023-08-22T18:00	1795	826	12.0	-1.3	300	7
2023-08-22T18:00	1820	823	12.4	-4.4	297	7
2023-08-22T18:00	1840	821	12.6	-7.0	293	7
2023-08-22T18:00	1863	819	12.7	-9.9	289	8
2023-08-22T18:00	1883	817	12.8	-11.5	286	8
2023-08-22T18:00	1909	815	12.6	-11.6	285	8
2023-08-22T18:00	1930	812	12.5	-11.4	286	8
2023-08-22T18:00	1955	810	12.5	-13.2	287	8
2023-08-22T18:00	1980	808	12.5	-13.7	289	8
2023-08-22T18:00	2000	806	12.4	-13.5	291	8
2023-08-22T18:00	2024	803	12.2	-13.1	293	7
2023-08-22T18:00	2043	801	12.2	-12.4	296	7
2023-08-22T18:00	2067	799	12.1	-12.0	301	7
2023-08-22T18:00	2092	797	12.0	-10.8	305	7
2023-08-22T18:00	2111	795	11.8	-10.5	308	7
2023-08-22T18:00	2133	793	11.7	-9.0	309	7
2023-08-22T18:00	2157	791	11.5	-8.4	308	7
2023-08-22T18:00	2191	788	11.2	-5.8	306	8
2023-08-22T18:00	2219	785	11.1	-5.4	304	8
2023-08-22T18:00	2240	783	10.9	-4.3	301	8
2023-08-22T18:00	2267	781	10.6	-3.9	300	9
2023-08-22T18:00	2288	778	10.4	0.7	298	9
2023-08-22T18:00	2314	776	10.1	1.2	297	9
2023-08-22T18:00	2341	774	9.9	1.0	296	9
2023-08-22T18:00	2363	771	9.7	1.8	294	9
2023-08-22T18:00	2383	769	9.7	-1.2	292	9
2023-08-22T18:00	2404	768	9.7	-2.5	290	10
2023-08-22T18:00	2427	765	9.6	-2.8	287	10
2023-08-22T18:00	2454	763	9.4	-2.4	285	11
2023-08-22T18:00	2472	761	9.4	-3.1	284	11
2023-08-22T18:00	2496	759	9.3	-3.4	283	11
2023-08-22T18:00	2513	757	9.1	-2.0	283	11
2023-08-22T18:00	2534	756	8.9	-2.7	283	11
2023-08-22T18:00	2559	753	8.8	-2.7	284	11
2023-08-22T18:00	2587	751	8.7	-3.6	284	11
2023-08-22T18:00	2607	749	8.5	-3.1	284	11
2023-08-22T18:00	2634	747	8.3		283	11
2023-08-22T18:00	2656	745	8.1	-2.4	283	11
2023-08-22T18:00	2675	743	7.9	-2.6	283	11
2023-08-22T18:00	2699	741	7.6	-2.7	284	11
2023-08-22T18:00	2722	739	7.4	-2.6	284	10
2023-08-22T18:00	2746	737	7.2	-2.4	283	10
2023-08-22T18:00	2767	735	7.0	-2.4	282	10
2023-08-22T18:00	2790	733	6.8	-2.5	281	10
2023-08-22T18:00	2816	730	6.5	-2.4	279	10
2023-08-22T18:00	2838	728	6.3	-2.4	278	10
2023-08-22T18:00	2858	726	6.2	-3.6	277	10
2023-08-22T18:00	2883	724	6.1	-5.4	278	10
2023-08-22T18:00	2903	723	5.9	-4.0	279	10
2023-08-22T18:00	2923	721	5.8	-5.0	280	10
2023-08-22T18:00	2948	719	5.7	-7.0	281	10
2023-08-22T18:00	2966	717	5.7	-6.8	281	11
2023-08-22T18:00	2995	715	5.7	-7.8	280	11
2023-08-22T18:00	3021	712	5.5	-7.0	280	12
2023-08-22T18:00	3047	710	5.3	-7.5	280	13
2023-08-22T18:00	3062	708	5.2	-6.9	281	13
2023-08-22T18:00	3088	706	5.0	-6.9	282	13
2023-08-22T18:00	3108	705	4.9	-7.2	283	14
2023-08-22T18:00	3129	703	4.8	-7.1	283	14
2023-08-22T18:00	3151	701	4.6	-7.5	282	14
2023-08-22T18:00	3174	699	4.5	-7.2	282	14
2023-08-22T18:00	3192	697	4.5	-7.5	281	15
2023-08-22T18:00	3212	696	4.5	-7.8	281	15
2023-08-22T18:00	3234	694	4.5	-8.3	282	16
2023-08-22T18:00	3259	692	4.4	-8.0	282	16
2023-08-22T18:00	3287	689	4.3	-7.8	282	17
2023-08-22T18:00	3313	687	4.2	-6.8	281	17
2023-08-22T18:00	3337	685	4.2	-5.7	279	17
2023-08-22T18:00	3362	683	4.1	-5.2	277	18
2023-08-22T18:00	3381	681	3.9	-4.9	276	18
2023-08-22T18:00	3403	680	3.8	-4.5	275	18
2023-08-22T18:00	3426	678	3.7	-4.2	274	18
2023-08-22T18:00	3447	676	3.6	-4.1	273	18
2023-08-22T18:00	3462	675	3.5	-4.1	273	18
2023-08-22T18:00	3484	673	3.3	-4.0	272	18
2023-08-22T18:00	3506	671	3.2	-3.4	272	18
2023-08-22T18:00	3531	669	2.9	-2.4	272	18
2023-08-22T18:00	3561	667	2.7	-2.5	272	18
2023-08-22T18:00	3582	665	2.5	-2.5	273	18
2023-08-22T18:00	3603	663	2.3	-2.4	273	18
2023-08-22T18:00	3623	661	2.1	-2.4	273	18
2023-08-22T18:00	3652	659	1.8	-2.5	272	18
2023-08-22T18:00	3672	657	1.6	-2.5	271	18
2023-08-22T18:00	3697	655	1.4	-2.6	270	19
2023-08-22T18:00	3723	653	1.2	-2.9	269	19
2023-08-22T18:00	3746	651	1.2	-3.1	269	19
2023-08-22T18:00	3767	650	1.2	-3.6	269	19
2023-08-22T18:00	3793	648	1.0	-3.7	270	19
2023-08-22T18:00	3812	646	0.8	-3.6	270	19
2023-08-22T18:00	3836	644	0.7	-2.0	271	19
2023-08-22T18:00	3862	642	0.5	-2.1	270	20
2023-08-22T18:00	3884	640	0.3	-2.5	270	20
2023-08-22T18:00	3902	639	0.2	-2.7	270	20
2023-08-22T18:00	3922	637	0.0	-2.4	270	20
2023-08-22T18:00	3943	636	-0.1	-1.3	270	20
2023-08-22T18:00	3967	634	-0.3	-1.6	271	20
2023-08-22T18:00	3993	632	-0.5	-1.8	271	20
2023-08-22T18:00	4019	629	-0.8	-2.2	272	19
2023-08-22T18:00	4052	627	-1.0	-2.6	272	19
2023-08-22T18:00	4071	625	-1.2	-2.7	272	19
2023-08-22T18:00	4099	623	-1.4	-2.7	272	20
2023-08-22T18:00	4126	621	-1.6	-2.7	272	20
2023-08-22T18:00	4158	619	-1.8	-2.9	272	20
2023-08-22T18:00	4185	617	-2.0	-3.4	273	21
2023-08-22T18:00	4204	615	-2.1	-4.5	273	21
2023-08-22T18:00	4226	613	-2.1	-5.8	274	21
2023-08-22T18:00	4247	612	-2.2	-6.2	274	22
2023-08-22T18:00	4272	610	-2.3	-5.5	274	22
2023-08-22T18:00	4300	608	-2.5	-5.1	273	22
2023-08-22T18:00	4334	605	-2.6	-5.7	273	22
2023-08-22T18:00	4351	604	-2.6	-5.4	273	22
2023-08-22T18:00	4373	602	-2.8	-5.3	274	22
2023-08-22T18:00	4396	600	-2.8	-5.8	275	22
2023-08-22T18:00	4426	598	-2.9	-6.4	276	23
2023-08-22T18:00	4447	597	-3.0	-7.0	276	23
2023-08-22T18:00	4469	595	-3.2	-7.2	276	23
2023-08-22T18:00	4488	593	-3.4	-7.4	276	23
2023-08-22T18:00	4511	592	-3.6	-7.5	275	23
2023-08-22T18:00	4539	590	-3.8	-8.7	275	23
2023-08-22T18:00	4568	588	-4.0	-9.4	275	23
2023-08-22T18:00	4588	586	-4.1	-8.7	275	23
2023-08-22T18:00	4610	585	-4.3	-10.2	276	23
2023-08-22T18:00	4628	583	-4.4	-12.5	278	23
2023-08-22T18:00	4649	582	-4.5	-14.4	278	23
2023-08-22T18:00	4669	580	-4.6	-13.9	279	23
2023-08-22T18:00	4689	579	-4.8	-9.7	279	23
2023-08-22T18:00	4708	577	-5.1	-6.7	280	23
2023-08-22T18:00	4732	575	-5.3	-6.8	280	24
2023-08-22T18:00	4762	573	-5.6	-6.9	280	24
2023-08-22T18:00	4788	571	-5.8	-7.3	280	24
2023-08-22T18:00	4806	570	-6.0	-7.5	280	24
2023-08-22T18:00	4826	569	-6.1	-7.5	280	24
2023-08-22T18:00	4846	567	-6.1	-8.3	280	24
2023-08-22T18:00	4871	565	-6.2	-9.8	281	24
2023-08-22T18:00	4898	563	-6.3	-11.3	282	24
2023-08-22T18:00	4924	561	-6.5	-11.1	283	24
2023-08-22T18:00	4952	560	-6.7	-11.6	283	24
2023-08-22T18:00	4975	558	-6.8	-13.6	284	24
2023-08-22T18:00	4993	557	-6.9	-14.5	284	24
2023-08-22T18:00	5011	555	-7.0	-16.0	284	23
2023-08-22T18:00	5033	554	-7.3	-15.6	284	23
2023-08-22T18:00	5052	552	-7.3	-16.6	284	23
2023-08-22T18:00	5076	551	-7.5	-16.3	285	23
2023-08-22T18:00	5107	549	-7.8	-15.8	285	23
2023-08-22T18:00	5126	547	-7.9	-15.5	285	22
2023-08-22T18:00	5146	546	-8.1	-15.2	284	22
2023-08-22T18:00	5177	544	-8.4	-14.8	283	22
2023-08-22T18:00	5199	542	-8.5	-14.2	282	22
2023-08-22T18:00	5217	541	-8.7	-14.1	281	22
2023-08-22T18:00	5238	539	-8.9	-14.0	280	23
2023-08-22T18:00	5260	538	-9.1	-13.4	279	23
2023-08-22T18:00	5280	536	-9.3	-11.7	278	23
2023-08-22T18:00	5297	535	-9.4	-10.7	277	23
2023-08-22T18:00	5316	534	-9.6	-10.8	276	23
2023-08-22T18:00	5335	533	-9.7	-11.0	275	23
2023-08-22T18:00	5358	531	-9.8	-11.3	275	23
2023-08-22T18:00	5386	529	-10.0	-11.3	274	23
2023-08-22T18:00	5407	528	-10.1	-11.7	273	23
2023-08-22T18:00	5421	527	-10.3	-11.5	273	23
2023-08-22T18:00	5441	525	-10.4	-11.9	273	22
2023-08-22T18:00	5458	524	-10.4	-12.8	274	22
2023-08-22T18:00	5474	523	-10.5	-12.5	273	22
2023-08-22T18:00	5497	522	-10.6	-12.2	273	22
2023-08-22T18:00	5519	520	-10.8	-12.7	272	22
2023-08-22T18:00	5541	519	-11.0	-13.5	271	23
2023-08-22T18:00	5561	517	-10.9	-14.2	269	24
2023-08-22T18:00	5589	515	-11.1	-14.2	268	25
2023-08-22T18:00	5618	513	-10.9	-13.2	267	25
2023-08-22T18:00	5646	512	-11.0	-12.9	267	26
2023-08-22T18:00	5671	510	-10.8	-12.2	267	27
2023-08-22T18:00	5699	508	-10.8	-11.8	267	27
2023-08-22T18:00	5726	506	-10.6	-11.6	268	28
2023-08-22T18:00	5745	505	-11.4	-12.3	268	28
2023-08-22T18:00	5759	504	-11.3	-12.1	268	29
2023-08-22T18:00	5776	503	-11.2	-11.8	268	29
2023-08-22T18:00	5798	501	-10.7	-11.5	268	29
2023-08-22T18:00	5820	500	-10.8	-11.7	268	29
2023-08-22T18:00	5839	499	-11.0	-11.7	267	30
2023-08-22T18:00	5866	497	-11.2	-11.9	267	30
2023-08-22T18:00	5889	496	-11.3	-12.3	267	30
2023-08-22T18:00	5912	494	-11.4	-12.3	268	30
2023-08-22T18:00	5941	492	-11.7	-12.8	268	30
2023-08-22T18:00	5959	491	-11.8	-12.8	269	30
2023-08-22T18:00	5982	490	-12.0	-13.1	268	30
2023-08-22T18:00	6004	488	-12.1	-13.1	268	30
2023-08-22T18:00	6033	486	-12.3	-13.0	267	30
2023-08-22T18:00	6056	485	-12.5	-13.4	267	30
2023-08-22T18:00	6081	483	-12.6	-14.1	266	30
2023-08-22T18:00	6100	482	-12.7	-14.9	266	31
2023-08-22T18:00	6122	481	-12.9	-14.8	267	31
2023-08-22T18:00	6148	479	-13.0	-15.3	267	31
2023-08-22T18:00	6175	477	-13.2	-15.5	267	31
2023-08-22T18:00	6197	476	-13.4	-15.6	268	31
2023-08-22T18:00	6221	475	-13.6	-15.2	268	31
2023-08-22T18:00	6245	473	-13.7	-14.9	268	31
2023-08-22T18:00	6263	472	-13.8	-14.8	268	31
2023-08-22T18:00	6289	470	-13.7	-14.5	268	31
2023-08-22T18:00	6307	469	-13.9	-14.5	267	31
2023-08-22T18:00	6331	468	-14.2	-14.7	267	31
2023-08-22T18:00	6354	466	-14.3	-14.8	268	31
2023-08-22T18:00	6380	465	-14.5	-14.8	269	31
2023-08-22T18:00	6406	463	-14.8	-15.0	270	31
2023-08-22T18:00	6431	462	-15.0	-15.0	271	31
2023-08-22T18:00	6458	460	-15.2	-15.2	272	31
2023-08-22T18:00	6484	458	-15.4	-15.4	272	31
2023-08-22T18:00	6509	457	-15.6	-15.6	272	31
2023-08-22T18:00	6537	455	-15.8	-15.8	272	31
2023-08-22T18:00	6565	454	-15.9	-15.9	272	31
2023-08-22T18:00	6594	452	-16.2	-16.2	273	31
2023-08-22T18:00	6623	450	-16.4	-16.4	273	31
2023-08-22T18:00	6652	448	-16.6	-16.6	273	32
2023-08-22T18:00	6682	446	-16.9	-17.1	274	32
2023-08-22T18:00	6715	445	-17.1	-17.7	274	32
2023-08-22T18:00	6747	443	-17.4	-18.1	275	33
2023-08-22T18:00	6774	441	-17.5	-18.4	275	33
2023-08-22T18:00	6802	439	-17.4	-19.2	275	33
2023-08-22T18:00	6830	438	-17.5	-19.2	274	33
2023-08-22T18:00	6862	436	-17.7	-19.4	274	33
2023-08-22T18:00	6889	434	-17.9	-19.7	273	33
2023-08-22T18:00	6916	433	-17.9	-21.8	273	33
2023-08-22T18:00	6948	431	-17.9	-21.5	273	33
2023-08-22T18:00	6977	429	-18.1	-21.7	273	33
2023-08-22T18:00	7007	428	-18.3	-21.9	274	33
2023-08-22T18:00	7035	426	-18.5	-22.0	274	32
2023-08-22T18:00	7060	424	-18.7	-22.1	274	32
2023-08-22T18:00	7087	423	-18.9	-22.1	273	32
2023-08-22T18:00	7115	421	-19.2	-22.4	273	32
2023-08-22T18:00	7144	420	-19.4	-22.3	272	32
2023-08-22T18:00	7174	418	-19.6	-22.5	272	32
2023-08-22T18:00	7198	417	-19.8	-22.6	271	32
2023-08-22T18:00	7227	415	-20.0	-22.6	271	32
2023-08-22T18:00	7253	414	-20.3	-22.8	271	33
2023-08-22T18:00	7280	412	-20.5	-22.9	270	33
2023-08-22T18:00	7309	411	-20.7	-22.9	270	33
2023-08-22T18:00	7335	409	-21.0	-23.1	269	33
2023-08-22T18:00	7361	408	-21.2	-23.1	269	32
2023-08-22T18:00	7392	406	-21.4	-23.1	269	32
2023-08-22T18:00	7419	404	-21.7	-23.2	269	32
2023-08-22T18:00	7442	403	-21.9	-23.2	269	32
2023-08-22T18:00	7470	402	-22.2	-23.3	269	32
2023-08-22T18:00	7494	400	-22.3	-23.4	269	33
2023-08-22T18:00	7518	399	-22.5	-23.3	269	33
2023-08-22T18:00	7540	398	-22.6	-23.4	269	33
2023-08-22T18:00	7561	397	-22.8	-23.8	269	33
2023-08-22T18:00	7585	395	-22.6	-25.2	269	33
2023-08-22T18:00	7616	394	-22.8	-25.3	269	32
2023-08-22T18:00	7641	392	-23.0	-25.5	269	31
2023-08-22T18:00	7670	391	-23.2	-25.8	269	31
2023-08-22T18:00	7695	389	-23.5	-25.8	268	31
2023-08-22T18:00	7721	388	-23.7	-25.8	268	31
2023-08-22T18:00	7740	387	-23.9	-25.9	267	31
2023-08-22T18:00	7763	386	-24.1	-26.0	266	31
2023-08-22T18:00	7789	385	-24.3	-26.6	266	31
2023-08-22T18:00	7814	383	-24.5	-26.4	265	31
2023-08-22T18:00	7838	382	-24.7	-26.4	265	31
2023-08-22T18:00	7860	381	-24.9	-26.7	265	31
2023-08-22T18:00	7884	380	-25.1	-27.1	266	31
2023-08-22T18:00	7903	378	-25.3	-27.0	267	30
2023-08-22T18:00	7928	377	-25.5	-26.7	268	30
2023-08-22T18:00	7948	376	-25.8	-27.1	268	30
2023-08-22T18:00	7974	375	-26.0	-27.0	268	29
2023-08-22T18:00	7996	374	-26.2	-26.8	268	29
2023-08-22T18:00	8021	372	-26.5	-27.1	268	30
2023-08-22T18:00	8043	371	-26.7	-27.1	268	30
2023-08-22T18:00	8060	370	-26.9	-27.1	268	30
2023-08-22T18:00	8085	369	-27.1	-27.3	269	30
2023-08-22T18:00	8099	368	-27.3	-27.3	270	30
2023-08-22T18:00	8119	367	-27.6	-27.7	270	30
2023-08-22T18:00	8147	366	-27.7	-27.7	270	30
2023-08-22T18:00	8164	365	-27.9	-28.0	270	30
2023-08-22T18:00	8187	364	-28.2	-28.2	270	30
2023-08-22T18:00	8214	363	-28.3	-28.4	270	30
2023-08-22T18:00	8239	361	-28.6	-28.9	270	30
2023-08-22T18:00	8271	360	-28.8	-29.0	270	30
2023-08-22T18:00	8299	358	-28.7	-30.6	271	30
2023-08-22T18:00	8319	357	-28.8	-30.4	271	30
2023-08-22T18:00	8340	356	-28.9	-30.1	271	30
2023-08-22T18:00	8362	355	-29.0	-30.1	271	30
2023-08-22T18:00	8385	354	-29.2	-30.2	271	31
2023-08-22T18:00	8410	353	-29.4	-30.5	271	31
2023-08-22T18:00	8439	351	-29.6	-30.9	272	31
2023-08-22T18:00	8472	350	-29.9	-31.1	273	32
2023-08-22T18:00	8501	348	-30.1	-31.1	274	32
2023-08-22T18:00	8531	347	-30.3	-31.5	274	32
2023-08-22T18:00	8558	346	-30.5	-31.5	275	33
2023-08-22T18:00	8581	344	-30.7	-31.9	275	33
2023-08-22T18:00	8603	343	-30.8	-32.1	275	33
2023-08-22T18:00	8626	342	-30.9	-32.1	275	33
2023-08-22T18:00	8649	341	-31.1	-32.1	275	33
2023-08-22T18:00	8671	340	-31.3	-32.7	275	33
2023-08-22T18:00	8694	339	-31.5	-33.0	275	34
2023-08-22T18:00	8718	338	-31.6	-33.0	275	34
2023-08-22T18:00	8741	337	-31.7	-34.3	274	34
2023-08-22T18:00	8766	336	-31.8	-36.4	274	35
2023-08-22T18:00	8791	334	-32.0	-35.9	274	35
2023-08-22T18:00	8814	333	-32.1	-36.5	273	35
2023-08-22T18:00	8840	332	-32.2	-41.3	273	36
2023-08-22T18:00	8864	331	-31.9	-41.6	273	36
2023-08-22T18:00	8884	330	-31.8	-40.4	272	36
2023-08-22T18:00	8903	329	-31.8	-40.1	272	36
2023-08-22T18:00	8924	328	-32.0		272	36
2023-08-22T18:00	8945	327	-32.0	-40.2	272	36
2023-08-22T18:00	8965	326	-32.1	-41.6	272	36
2023-08-22T18:00	8990	325	-32.3	-42.5	273	36
2023-08-22T18:00	9014	324	-32.5	-42.5	274	36
2023-08-22T18:00	9045	323	-32.7	-43.1	274	36
2023-08-22T18:00	9077	321	-33.0	-43.1	275	36
2023-08-22T18:00	9096	320	-33.1	-43.0	276	36
2023-08-22T18:00	9114	319	-33.3	-43.1	276	36
2023-08-22T18:00	9135	318	-33.4	-42.2	276	37
2023-08-22T18:00	9159	317	-33.6	-42.3	277	37
2023-08-22T18:00	9181	316	-33.8	-42.8	277	37
2023-08-22T18:00	9207	315	-34.0	-42.6	277	37
2023-08-22T18:00	9227	314	-34.2	-42.4	276	37
2023-08-22T18:00	9247	313	-34.4	-41.8	276	37
2023-08-22T18:00	9270	312	-34.5	-41.3	276	37
2023-08-22T18:00	9297	311	-34.6	-42.4	276	37
2023-08-22T18:00	9318	310	-34.6	-43.0	276	38
2023-08-22T18:00	9339	309	-34.7	-43.6	276	38
2023-08-22T18:00	9362	308	-34.8	-43.8	277	38
2023-08-22T18:00	9384	307	-35.0	-43.9	277	38
2023-08-22T18:00	9404	306	-35.2	-44.0	277	39
2023-08-22T18:00	9428	305	-35.3	-44.8	277	39
2023-08-22T18:00	9447	305	-35.4	-45.9	278	39
2023-08-22T18:00	9467	304	-35.5	-46.3	278	39
2023-08-22T18:00	9489	303	-35.6	-46.1	278	39
2023-08-22T18:00	9514	302	-35.9	-46.2	278	39
2023-08-22T18:00	9535	301	-36.1	-46.3	277	39
2023-08-22T18:00	9555	300	-36.2	-46.1	277	39
2023-08-22T18:00	9574	299	-36.4	-46.1	277	39
2023-08-22T18:00	9593	298	-36.5	-45.7	276	39
2023-08-22T18:00	9614	297	-36.6	-45.2	276	39
2023-08-22T18:00	9633	296	-36.8	-45.5	275	39
2023-08-22T18:00	9653	296	-36.9	-45.9	275	39
2023-08-22T18:00	9673	295	-37.1	-46.2	275	39
2023-08-22T18:00	9691	294	-37.2	-47.0	275	38
2023-08-22T18:00	9709	293	-37.4	-47.7	275	38
2023-08-22T18:00	9728	292	-37.5	-47.3	275	38
2023-08-22T18:00	9747	292	-37.7	-47.1	274	38
2023-08-22T18:00	9767	291	-37.9	-47.2	274	38
2023-08-22T18:00	9784	290	-38.1	-47.4	274	38
2023-08-22T18:00	9803	289	-38.1	-47.4	274	38
2023-08-22T18:00	9823	288	-38.3	-48.0	274	38
2023-08-22T18:00	9841	288	-38.4	-48.0	274	38
2023-08-22T18:00	9860	287	-38.6	-48.0	273	38
2023-08-22T18:00	9880	286	-38.7	-48.6	273	38
2023-08-22T18:00	9900	285	-38.9	-48.3	273	38
2023-08-22T18:00	9920	284	-39.1	-48.4	272	38
2023-08-22T18:00	9939	284	-39.3	-48.4	272	38
2023-08-22T18:00	9956	283	-39.4	-48.2	272	38
2023-08-22T18:00	9976	282	-39.6	-48.2	272	38
2023-08-22T18:00	9995	281	-39.8	-48.4	272	38
2023-08-22T18:00	10013	281	-39.9	-48.5	272	38
2023-08-22T18:00	10033	280	-40.1	-48.6	272	38
2023-08-22T18:00	10052	279	-40.3	-48.8	271	37
2023-08-22T18:00	10072	278	-40.4	-48.8	271	37
2023-08-22T18:00	10091	277	-40.6	-49.0	271	37
2023-08-22T18:00	10109	277	-40.7	-49.0	271	37
2023-08-22T18:00	10127	276	-40.9	-48.9	271	37
2023-08-22T18:00	10147	275	-41.0	-48.7	270	37
2023-08-22T18:00	10165	274	-41.2	-48.8	270	37
2023-08-22T18:00	10187	273	-41.4	-48.8	270	37
2023-08-22T18:00	10206	273	-41.5	-49.0	270	37
2023-08-22T18:00	10225	272	-41.6	-49.7	270	37
2023-08-22T18:00	10245	271	-41.7	-50.5	270	37
2023-08-22T18:00	10263	270	-41.8	-50.4	270	37
2023-08-22T18:00	10282	270	-41.9		270	37
2023-08-22T18:00	10300	269	-42.1	-51.8	271	37
2023-08-22T18:00	10320	268	-42.2		271	37
2023-08-22T18:00	10349	267	-42.5	-52.0	272	37
2023-08-22T18:00	10370	266	-42.5	-52.4	273	38
2023-08-22T18:00	10393	265	-42.5	-53.1	274	38
2023-08-22T18:00	10415	264	-42.7	-52.9	274	38
2023-08-22T18:00	10441	263	-42.9	-53.0	275	38
2023-08-22T18:00	10466	262	-43.1	-53.1	275	38
2023-08-22T18:00	10489	262	-43.3	-53.1	275	37
2023-08-22T18:00	10509	261	-43.5	-53.0	276	37
2023-08-22T18:00	10529	260	-43.7	-53.0	276	37
2023-08-22T18:00	10549	259	-43.9	-53.1	276	37
2023-08-22T18:00	10569	258	-44.1	-53.3	276	37
2023-08-22T18:00	10589	258	-44.3	-53.7	275	37
2023-08-22T18:00	10609	257	-44.5	-54.0	275	37
2023-08-22T18:00	10631	256	-44.6	-54.6	275	37
2023-08-22T18:00	10652	255	-44.8	-56.0	275	37
2023-08-22T18:00	10674	254	-45.0	-56.3	275	37
2023-08-22T18:00	10696	254	-45.2	-56.8	275	37
2023-08-22T18:00	10718	253	-45.3	-55.7	275	37
2023-08-22T18:00	10738	252	-45.5	-54.3	275	37
2023-08-22T18:00	10758	251	-45.7	-54.2	275	37
2023-08-22T18:00	10777	250	-45.9	-53.5	275	37
2023-08-22T18:00	10800	250	-46.0	-53.8	275	37
2023-08-22T18:00	10819	249	-46.1	-55.7	275	37
2023-08-22T18:00	10841	248	-46.2	-57.4	275	37
2023-08-22T18:00	10862	247	-46.4	-58.3	275	37
2023-08-22T18:00	10883	247	-46.6	-58.0	275	37
2023-08-22T18:00	10903	246	-46.8		275	37
2023-08-22T18:00	10923	245	-47.0	-59.7	275	37
2023-08-22T18:00	10945	244	-47.2	-58.2	275	37
2023-08-22T18:00	10965	243	-47.3	-56.6	275	37
2023-08-22T18:00	10986	243	-47.5	-55.6	275	37
2023-08-22T18:00	11007	242	-47.7	-55.4	275	38
2023-08-22T18:00	11029	241	-47.9	-55.7	276	38
2023-08-22T18:00	11049	240	-48.1	-56.3	275	38
2023-08-22T18:00	11071	240	-48.2	-56.7	275	37
2023-08-22T18:00	11091	239	-48.4	-57.6	275	37
2023-08-22T18:00	11110	238	-48.5	-59.4	275	37
2023-08-22T18:00	11130	237	-48.3	-61.5	274	37
2023-08-22T18:00	11153	237	-48.4	-62.0	274	37
2023-08-22T18:00	11175	236	-48.5	-61.8	274	37
2023-08-22T18:00	11195	235	-48.6	-62.0	274	37
2023-08-22T18:00	11220	234	-48.8	-62.1	274	37
2023-08-22T18:00	11240	233	-49.0	-61.9	274	38
2023-08-22T18:00	11263	233	-49.2	-61.9	274	38
2023-08-22T18:00	11285	232	-49.4	-62.0	274	38
2023-08-22T18:00	11307	231	-49.6	-62.2	274	38
2023-08-22T18:00	11329	230	-49.8	-62.3	274	38
2023-08-22T18:00	11352	230	-50.0	-62.3	274	38
2023-08-22T18:00	11377	229	-50.2	-62.3	274	38
2023-08-22T18:00	11401	228	-50.4	-62.4	274	38
2023-08-22T18:00	11426	227	-50.7	-62.5	274	38
2023-08-22T18:00	11450	226	-50.9	-62.5	274	38
2023-08-22T18:00	11471	225	-51.1	-62.5	274	38
2023-08-22T18:00	11491	225	-51.3	-62.4	274	38
2023-08-22T18:00	11512	224	-51.5	-62.4	274	38
2023-08-22T18:00	11537	223	-51.7	-62.5	274	38
2023-08-22T18:00	11559	222	-51.9	-62.5	274	38
2023-08-22T18:00	11580	222	-52.1	-62.6	273	38
2023-08-22T18:00	11603	221	-52.4	-62.6	273	38
2023-08-22T18:00	11625	220	-52.6	-62.6	273	38
2023-08-22T18:00	11648	219	-52.8	-62.6	274	38
2023-08-22T18:00	11670	219	-53.0	-62.7	274	38
2023-08-22T18:00	11694	218	-53.3	-62.7	274	38
2023-08-22T18:00	11715	217	-53.4	-62.6	274	38
2023-08-22T18:00	11739	216	-53.7	-62.7	274	38
2023-08-22T18:00	11760	216	-53.9	-62.7	274	38
2023-08-22T18:00	11783	215	-54.1	-62.7	273	38
2023-08-22T18:00	11805	214	-54.3	-62.7	273	38
2023-08-22T18:00	11826	213	-54.5	-62.7	273	38
2023-08-22T18:00	11849	213	-54.7		273	38
2023-08-22T18:00	11871	212	-54.9	-62.7	273	38
2023-08-22T18:00	11895	211	-55.2	-62.8	272	38
2023-08-22T18:00	11923	210	-55.4	-62.7	272	38
2023-08-22T18:00	11941	209	-55.6	-62.7	271	38
2023-08-22T18:00	11964	209	-55.7	-62.7	271	38
2023-08-22T18:00	11981	208	-55.8	-62.8	271	38
2023-08-22T18:00	12003	207	-56.0	-63.2	271	38
2023-08-22T18:00	12024	207	-56.0	-63.6	272	37
2023-08-22T18:00	12045	206	-56.2	-64.3	272	37
2023-08-22T18:00	12068	205	-56.3	-64.6	273	37
2023-08-22T18:00	12089	205	-56.5	-65.0	274	37
2023-08-22T18:00	12114	204	-56.6	-65.1	275	37
2023-08-22T18:00	12135	203	-56.9	-65.3	276	38
2023-08-22T18:00	12162	202	-57.1	-65.5	277	38
2023-08-22T18:00	12191	202	-57.3	-65.7	278	38
2023-08-22T18:00	12212	201	-57.4	-65.9	278	38
2023-08-22T18:00	12236	200	-57.6	-66.3	279	39
2023-08-22T18:00	12261	199	-57.8	-66.8	280	39
2023-08-22T18:00	12281	199	-57.9	-67.1	280	39
2023-08-22T18:00	12308	198	-58.1	-67.6	280	39
2023-08-22T18:00	12329	197	-58.3	-67.8	281	39
2023-08-22T18:00	12348	196	-58.4	-68.0	281	39
2023-08-22T18:00	12368	196	-58.6	-68.3	281	39
2023-08-22T18:00	12389	195	-58.8	-68.8	281	39
2023-08-22T18:00	12412	195	-58.7	-69.0	281	39
2023-08-22T18:00	12432	194	-58.7	-69.0	281	39
2023-08-22T18:00	12453	193	-58.9	-68.6	281	38
2023-08-22T18:00	12473	193	-59.1	-68.2	281	38
2023-08-22T18:00	12494	192	-59.3	-68.0	281	38
2023-08-22T18:00	12513	191	-59.4	-67.7	282	38
2023-08-22T18:00	12535	191	-59.6	-67.6	282	38
2023-08-22T18:00	12556	190	-59.7	-67.4	282	38
2023-08-22T18:00	12575	189	-59.8	-67.3	282	38
2023-08-22T18:00	12596	189	-59.9	-67.1	282	38
2023-08-22T18:00	12618	188	-60.1	-67.1	282	38
2023-08-22T18:00	12640	188	-60.3	-67.3	282	38
2023-08-22T18:00	12661	187	-60.4	-67.4	282	37
2023-08-22T18:00	12683	186	-60.7	-67.7	281	37
2023-08-22T18:00	12705	186	-60.7	-67.7	281	37
2023-08-22T18:00	12725	185	-60.8	-67.7	280	38
2023-08-22T18:00	12743	184	-60.8	-67.7	280	38
2023-08-22T18:00	12763	184	-60.9	-67.7	280	38
2023-08-22T18:00	12785	183	-61.1	-67.8	280	38
2023-08-22T18:00	12804	183	-61.2	-67.8	280	38
2023-08-22T18:00	12824	182	-61.3	-67.9	280	38
2023-08-22T18:00	12845	181	-61.5	-68.2	281	38
2023-08-22T18:00	12864	181	-61.6	-68.4	281	38
2023-08-22T18:00	12883	180	-61.6	-68.6	282	38
2023-08-22T18:00	12903	180	-61.7	-69.2	282	37
2023-08-22T18:00	12922	179	-61.7	-69.7	283	37
2023-08-22T18:00	12942	179	-61.4	-70.0	284	37
2023-08-22T18:00	12961	178	-61.4	-70.5	285	36
2023-08-22T18:00	12982	177	-61.4	-70.9	285	35
2023-08-22T18:00	13005	177	-61.5	-71.5	285	34
2023-08-22T18:00	13038	176	-61.2	-72.1	285	33
2023-08-22T18:00	13083	175	-60.4	-72.7	284	32
2023-08-22T18:00	13112	174	-60.3	-73.9	283	31
2023-08-22T18:00	13133	173	-60.3	-74.9	282	30
2023-08-22T18:00	13160	173	-60.3	-75.3	281	29
2023-08-22T18:00	13177	172	-60.4	-75.4	280	28
2023-08-22T18:00	13196	171	-60.4	-75.3	278	27
2023-08-22T18:00	13216	171	-60.4	-75.3	276	27
2023-08-22T18:00	13234	170	-60.3	-75.4	274	27
2023-08-22T18:00	13256	170	-60.1	-75.4	271	27
2023-08-22T18:00	13275	169	-59.6	-75.2	270	27
2023-08-22T18:00	13297	169	-59.3	-75.2	268	27
2023-08-22T18:00	13318	168	-59.1	-75.1	267	27
2023-08-22T18:00	13339	168	-59.1	-75.1	266	27
2023-08-22T18:00	13361	167	-59.2	-75.0	265	28
2023-08-22T18:00	13384	166	-59.4	-74.8	265	28
2023-08-22T18:00	13407	166	-59.5	-74.7	264	29
2023-08-22T18:00	13426	165	-59.7	-74.6	264	29
2023-08-22T18:00	13447	165	-59.8	-74.5	265	30
2023-08-22T18:00	13465	164	-59.8	-74.3	265	30
2023-08-22T18:00	13486	164	-59.6	-73.8	265	30
2023-08-22T18:00	13508	163	-59.4	-73.1	266	31
2023-08-22T18:00	13526	163	-59.2	-72.6	266	31
2023-08-22T18:00	13547	162	-58.9	-72.3	267	32
2023-08-22T18:00	13567	162	-58.4	-72.5	268	32
2023-08-22T18:00	13587	161	-58.2	-73.6	269	31
2023-08-22T18:00	13609	161	-57.8	-75.1	270	31
2023-08-22T18:00	13631	160	-57.4	-77.0	272	30
2023-08-22T18:00	13652	159	-56.8	-78.7	273	30
2023-08-22T18:00	13672	159	-56.4	-79.7	274	30
2023-08-22T18:00	13694	158	-56.1	-79.8	274	30
2023-08-22T18:00	13715	158	-56.0	-79.8	274	30
2023-08-22T18:00	13738	157	-55.6	-79.6	274	30
2023-08-22T18:00	13757	157	-55.7	-79.9	274	30
2023-08-22T18:00	13780	156	-55.9	-80.1	274	30
2023-08-22T18:00	13800	156	-56.1		275	30
2023-08-22T18:00	13819	155	-56.1		276	31
2023-08-22T18:00	13843	155	-56.2	-79.9	277	31
2023-08-22T18:00	13862	154	-56.2	-79.9	277	31
2023-08-22T18:00	13882	154	-56.1		278	31
2023-08-22T18:00	13904	153	-55.8	-79.8	278	31
2023-08-22T18:00	13923	153	-55.5	-79.6	277	31
2023-08-22T18:00	13944	152	-55.6	-79.8	277	30
2023-08-22T18:00	13964	152	-55.7	-79.9	277	30
2023-08-22T18:00	13984	151	-55.7	-79.7	277	29
2023-08-22T18:00	14005	151	-55.6	-79.6	277	29
2023-08-22T18:00	14026	150	-55.4	-79.7	278	28
2023-08-22T18:00	14048	150	-55.1	-79.5	278	28
2023-08-22T18:00	14066	149	-55.0	-79.2	278	27
2023-08-22T18:00	14087	149	-55.0	-78.8	277	27
2023-08-22T18:00	14106	148	-55.0	-78.0	277	27
2023-08-22T18:00	14126	148	-55.1	-77.5	276	27
2023-08-22T18:00	14147	148	-55.2	-77.1	275	26
2023-08-22T18:00	14168	147	-55.3	-77.0	274	26
2023-08-22T18:00	14189	147	-55.4	-77.6	273	26
2023-08-22T18:00	14210	146	-55.4	-78.2	271	26
2023-08-22T18:00	14230	146	-55.5	-78.8	270	26
2023-08-22T18:00	14251	145	-55.4	-79.1	269	26
2023-08-22T18:00	14272	145	-55.5	-79.4	269	26
2023-08-22T18:00	14291	144	-55.6	-79.6	268	26
2023-08-22T18:00	14311	144	-55.7	-79.7	268	26
2023-08-22T18:00	14333	143	-55.7	-79.7	267	26
2023-08-22T18:00	14352	143	-55.7	-79.9	267	26
2023-08-22T18:00	14373	142	-55.7	-79.9	266	26
2023-08-22T18:00	14394	142	-55.6	-79.8	265	26
2023-08-22T18:00	14415	141	-55.6	-79.8	265	26
2023-08-22T18:00	14435	141	-55.7	-79.9	265	26
2023-08-22T18:00	14457	141	-55.6	-79.8	265	26
2023-08-22T18:00	14477	140	-55.6	-79.6	266	26
2023-08-22T18:00	14500	140	-55.5	-79.6	267	25
2023-08-22T18:00	14520	139	-55.5	-79.8	269	25
2023-08-22T18:00	14542	139	-55.5	-80.0	271	25
2023-08-22T18:00	14562	138	-55.3	-80.0	273	25
2023-08-22T18:00	14583	138	-55.0	-80.0	275	24
2023-08-22T18:00	14604	137	-55.0	-80.0	276	24
2023-08-22T18:00	14628	137	-55.0	-80.3	277	23
2023-08-22T18:00	14648	136	-54.9	-80.2	276	23
2023-08-22T18:00	14670	136	-55.0	-80.3	275	23
2023-08-22T18:00	14694	135	-54.9	-80.4	274	23
2023-08-22T18:00	14719	135	-54.8	-80.4	272	23
2023-08-22T18:00	14746	134	-54.9	-80.4	271	23
2023-08-22T18:00	14769	134	-54.9	-80.4	270	23
2023-08-22T18:00	14792	133	-55.0	-80.3	270	24
2023-08-22T18:00	14814	133	-55.0	-80.3	270	24
2023-08-22T18:00	14838	132	-55.2	-80.2	270	24
2023-08-22T18:00	14857	132	-55.3	-80.0	271	24
2023-08-22T18:00	14879	131	-55.5	-80.2	271	25
2023-08-22T18:00	14904	131	-55.7	-80.1	272	25
2023-08-22T18:00	14924	131	-55.8	-80.2	272	25
2023-08-22T18:00	14944	130	-56.0	-80.2	272	25
2023-08-22T18:00	14968	130	-56.2	-80.3	273	25
2023-08-22T18:00	14985	129	-56.3	-80.4	273	24
2023-08-22T18:00	15010	129	-56.0	-80.4	274	24
2023-08-22T18:00	15031	128	-56.0	-80.4	275	24
2023-08-22T18:00	15052	128	-56.0	-80.4	275	23
2023-08-22T18:00	15075	128	-56.0	-80.6	276	22
2023-08-22T18:00	15097	127	-55.9	-80.5	276	21
2023-08-22T18:00	15121	127	-55.8	-80.7	275	21
2023-08-22T18:00	15140	126	-55.7	-80.6	275	20
2023-08-22T18:00	15160	126	-55.6	-80.5	275	19
2023-08-22T18:00	15182	125	-55.6	-80.8	275	19
2023-08-22T18:00	15203	125	-55.6	-80.8	274	19
2023-08-22T18:00	15223	125	-55.6	-80.8	274	19
2023-08-22T18:00	15245	124	-55.4	-80.8	274	19
2023-08-22T18:00	15266	124	-55.3	-80.8	273	19
2023-08-22T18:00	15287	123	-55.3	-81.0	273	19
2023-08-22T18:00	15309	123	-55.4	-81.1	272	19
2023-08-22T18:00	15328	123	-55.5	-81.2	272	20
2023-08-22T18:00	15349	122	-55.5	-81.2	272	20
2023-08-22T18:00	15371	122	-55.5	-81.2	272	20
2023-08-22T18:00	15394	121	-55.6	-81.3	273	21
2023-08-22T18:00	15415	121	-55.6	-81.3	274	21
2023-08-22T18:00	15439	120	-55.5	-81.2	275	21
2023-08-22T18:00	15456	120	-55.4	-81.1	277	21
2023-08-22T18:00	15476	120	-55.4	-81.4	278	21
2023-08-22T18:00	15500	119	-55.0	-81.1	280	20
2023-08-22T18:00	15519	119	-54.8	-81.2	281	20
2023-08-22T18:00	15540	119	-54.7	-81.1	281	19
2023-08-22T18:00	15559	118	-54.6	-81.0	281	18
2023-08-22T18:00	15582	118	-54.5	-80.9	280	17
2023-08-22T18:00	15603	117	-54.5	-80.9	279	17
2023-08-22T18:00	15623	117	-54.5	-80.9	278	17
2023-08-22T18:00	15644	117	-54.4	-80.9	277	17
2023-08-22T18:00	15665	116	-54.3	-80.8	276	17
2023-08-22T18:00	15683	116	-54.4	-80.9	276	17
2023-08-22T18:00	15704	116	-54.5	-80.9	275	18
2023-08-22T18:00	15724	115	-54.7	-81.1	273	18
2023-08-22T18:00	15747	115	-54.8	-81.2	272	18
2023-08-22T18:00	15768	114	-54.9	-81.3	270	18
2023-08-22T18:00	15791	114	-55.0	-81.3	268	18
2023-08-22T18:00	15813	114	-55.1	-81.1	266	19
2023-08-22T18:00	15837	113	-55.2	-81.2	264	19
2023-08-22T18:00	15863	113	-55.4	-81.4	263	19
2023-08-22T18:00	15885	112	-55.6	-81.3	262	19
2023-08-22T18:00	15906	112	-55.7	-81.3	262	20
2023-08-22T18:00	15929	112	-55.9	-81.5	261	20
2023-08-22T18:00	15946	111	-56.0	-81.6	261	20
2023-08-22T18:00	15971	111	-56.2	-81.7	261	21
2023-08-22T18:00	15993	110	-56.3	-81.5	262	21
2023-08-22T18:00	16015	110	-56.5	-81.7	263	21
2023-08-22T18:00	16035	110	-56.7	-81.9	265	21
2023-08-22T18:00	16057	109	-56.8	-81.9	266	21
2023-08-22T18:00	16080	109	-56.9	-82.0	268	21
2023-08-22T18:00	16103	109	-57.0	-82.1	269	21
2023-08-22T18:00	16128	108	-56.9	-82.0	271	21
2023-08-22T18:00	16149	108	-56.7	-82.1	272	20
2023-08-22T18:00	16170	107	-56.8	-82.2	272	20
2023-08-22T18:00	16194	107	-56.8	-82.2	272	20
2023-08-22T18:00	16216	107	-56.6	-82.0	271	20
2023-08-22T18:00	16235	106	-56.6	-82.0	270	19
2023-08-22T18:00	16260	106	-56.7	-82.4	269	19
2023-08-22T18:00	16280	106	-56.7	-82.4	268	19
2023-08-22T18:00	16303	105	-56.7	-82.4	268	19
2023-08-22T18:00	16325	105	-56.5	-82.2	269	19
2023-08-22T18:00	16346	104	-56.4	-82.1	270	18
2023-08-22T18:00	16372	104	-56.2	-82.0	272	18
2023-08-22T18:00	16394	104	-56.3	-82.1	274	18
2023-08-22T18:00	16417	103	-56.3	-82.1	276	18
2023-08-22T18:00	16441	103	-56.3	-82.1	278	18
2023-08-22T18:00	16464	103	-56.4	-82.4	280	18
2023-08-22T18:00	16488	102	-56.4	-82.4	280	18
2023-08-22T18:00	16510	102	-56.1	-82.2	280	18
2023-08-22T18:00	16532	101	-56.2	-82.3	280	18
2023-08-22T18:00	16555	101	-56.3	-82.1	279	18
2023-08-22T18:00	16577	101	-56.5	-82.2	279	18
2023-08-22T18:00	16599	100	-56.6	-82.3	280	18
2023-08-22T18:00	16623	100	-56.6	-82.3	282	18
2023-08-22T18:00	16651	100	-56.8	-82.5	285	18
2023-08-22T18:00	16684	99	-56.9	-82.5	288	17
2023-08-22T18:00	16715	99	-56.8	-82.5	292	17
2023-08-22T18:00	16741	98	-56.8	-82.5	294	16
2023-08-22T18:00	16768	98	-56.9	-82.8	297	16
2023-08-22T18:00	16799	97	-56.7	-82.7	299	15
2023-08-22T18:00	16832	97	-56.7	-82.9	300	15
2023-08-22T18:00	16856	96	-56.5	-82.8	302	15
2023-08-22T18:00	16883	96	-56.7	-82.7	303	14
2023-08-22T18:00	16905	96	-56.8	-82.7	305	14
2023-08-22T18:00	16927	95	-57.1	-82.7	306	13
2023-08-22T18:00	16949	95	-57.3	-82.8	307	13
2023-08-22T18:00	16975	95	-57.4	-82.9	308	12
2023-08-22T18:00	16996	94	-57.5	-83.0	308	12
2023-08-22T18:00	17015	94	-57.6	-83.1	307	11
2023-08-22T18:00	17037	94	-57.6	-83.1	306	11
2023-08-22T18:00	17060	93	-57.6	-83.1	305	10
2023-08-22T18:00	17081	93	-57.6	-83.1	303	10
2023-08-22T18:00	17101	93	-57.6	-83.3	301	9
2023-08-22T18:00	17121	92	-57.6	-83.3	299	8
2023-08-22T18:00	17143	92	-57.7	-83.4	298	8
2023-08-22T18:00	17164	92	-57.7	-83.4	296	7
2023-08-22T18:00	17186	92	-57.7	-83.7	295	7
2023-08-22T18:00	17205	91	-57.5	-83.6	292	7
2023-08-22T18:00	17227	91	-57.1	-83.5	289	6
2023-08-22T18:00	17248	91	-56.9	-83.4	284	6
2023-08-22T18:00	17270	90	-56.5	-83.4	278	6
2023-08-22T18:00	17289	90	-56.5	-83.4	272	6
2023-08-22T18:00	17313	90	-56.4	-83.3	266	5
2023-08-22T18:00	17334	89	-56.3	-82.9	262	6
2023-08-22T18:00	17356	89	-56.5	-83.1	258	6
2023-08-22T18:00	17381	89	-56.7	-83.2	255	6
2023-08-22T18:00	17403	88	-56.8	-83.3	252	7
2023-08-22T18:00	17422	88	-56.8	-83.3	250	7
2023-08-22T18:00	17443	88	-56.7	-83.2	249	7
2023-08-22T18:00	17465	88	-56.8	-83.3	249	8
2023-08-22T18:00	17489	87	-56.8	-83.3	249	8
2023-08-22T18:00	17512	87	-56.8	-83.3	248	8
2023-08-22T18:00	17534	87	-56.5	-83.1	248	9
2023-08-22T18:00	17555	86	-56.5	-83.1	247	9
2023-08-22T18:00	17577	86	-56.7	-83.2	246	9
2023-08-22T18:00	17599	86	-56.9	-83.4	246	10
2023-08-22T18:00	17620	85	-57.1	-83.2	246	10
2023-08-22T18:00	17647	85	-57.2	-83.3	247	10
2023-08-22T18:00	17665	85	-57.3	-83.1	248	11
2023-08-22T18:00	17688	85	-57.5	-83.3	248	11
2023-08-22T18:00	17709	84	-57.6	-83.3	249	12
2023-08-22T18:00	17734	84	-57.8	-83.5	251	12
2023-08-22T18:00	17755	84	-57.8	-83.5	253	13
2023-08-22T18:00	17778	83	-57.8	-83.5	256	13
2023-08-22T18:00	17800	83	-57.8	-83.8	259	13
2023-08-22T18:00	17822	83	-57.9	-83.9	261	13
2023-08-22T18:00	17844	82	-57.9	-83.9	264	12
2023-08-22T18:00	17867	82	-57.8	-83.8	266	12
2023-08-22T18:00	17890	82	-57.7	-83.7	269	11
2023-08-22T18:00	17910	82	-57.8	-83.8	271	10
2023-08-22T18:00	17934	81	-57.8	-84.1	274	10
2023-08-22T18:00	17958	81	-57.5	-83.9	276	9
2023-08-22T18:00	17979	81	-57.3	-83.7	278	8
2023-08-22T18:00	18001	80	-57.3	-84.0	277	7
2023-08-22T18:00	18023	80	-57.4	-84.1	275	7
2023-08-22T18:00	18047	80	-57.2	-83.9	272	6
2023-08-22T18:00	18071	80	-56.9	-83.7	269	6
2023-08-22T18:00	18091	79	-56.8	-83.6	266	5
2023-08-22T18:00	18115	79	-56.9	-83.7	264	5
2023-08-22T18:00	18136	79	-56.9	-83.4	261	5
2023-08-22T18:00	18160	78	-57.0	-83.5	259	6
2023-08-22T18:00	18182	78	-57.1	-83.5	256	6
2023-08-22T18:00	18207	78	-57.3	-83.4	254	6
2023-08-22T18:00	18230	78	-57.5	-83.6	252	7
2023-08-22T18:00	18253	77	-57.5	-83.6	251	7
2023-08-22T18:00	18278	77	-57.7	-83.7	251	8
2023-08-22T18:00	18299	77	-57.8	-83.8	252	8
2023-08-22T18:00	18320	76	-57.9	-83.9	255	9
2023-08-22T18:00	18346	76	-58.1	-84.0	258	10
2023-08-22T18:00	18370	76	-58.1	-84.0	261	10
2023-08-22T18:00	18392	76	-58.0	-83.9	264	10
2023-08-22T18:00	18412	75	-57.9	-83.9	268	11
2023-08-22T18:00	18434	75	-57.9	-83.9	271	11
2023-08-22T18:00	18460	75	-58.1	-84.0	274	11
2023-08-22T18:00	18484	75	-58.2	-84.1	277	11
2023-08-22T18:00	18508	74	-58.3	-84.2	279	11
2023-08-22T18:00	18529	74	-58.3	-84.2	282	10
2023-08-22T18:00	18557	74	-58.4	-84.3	284	10
2023-08-22T18:00	18575	73	-58.4	-84.3	287	10
2023-08-22T18:00	18598	73	-58.3	-84.2	288	9
2023-08-22T18:00	18620	73	-58.3	-84.5	290	8
2023-08-22T18:00	18644	73	-58.0	-84.2	290	8
2023-08-22T18:00	18664	72	-57.7	-84.3	290	7
2023-08-22T18:00	18692	72	-57.4	-84.1	289	6
2023-08-22T18:00	18712	72	-57.5	-84.2	287	5
2023-08-22T18:00	18735	72	-57.5	-84.2	283	5
2023-08-22T18:00	18761	71	-57.5	-84.2	278	5
2023-08-22T18:00	18781	71	-57.4	-84.1	274	5
2023-08-22T18:00	18806	71	-57.3	-84.0	270	5
2023-08-22T18:00	18830	71	-57.1	-83.9	266	6
2023-08-22T18:00	18853	70	-57.2	-83.9	262	6
2023-08-22T18:00	18876	70	-57.3	-84.0	258	7
2023-08-22T18:00	18897	70	-57.4	-84.1	256	7
2023-08-22T18:00	18918	70	-57.5	-83.9	255	8
2023-08-22T18:00	18944	69	-57.6	-83.9	256	8
2023-08-22T18:00	18964	69	-57.7	-84.0	259	8
2023-08-22T18:00	18985	69	-57.7	-84.3	262	8
2023-08-22T18:00	19009	69	-57.5	-84.2	267	8
2023-08-22T18:00	19031	68	-57.1	-83.9	271	7
2023-08-22T18:00	19054	68	-57.1	-83.9	275	7
2023-08-22T18:00	19075	68	-57.1	-83.9	278	6
2023-08-22T18:00	19101	68	-57.0	-84.1	278	6
2023-08-22T18:00	19121	67	-57.0	-84.1	276	5
2023-08-22T18:00	19143	67	-56.7	-83.9	271	4
2023-08-22T18:00	19168	67	-56.6	-83.8	263	4
2023-08-22T18:00	19189	67	-56.6	-83.8	254	4
2023-08-22T18:00	19210	66	-56.6	-83.8	248	4
2023-08-22T18:00	19235	66	-56.6	-83.8	244	5
2023-08-22T18:00	19259	66	-56.7	-83.9	242	5
2023-08-22T18:00	19280	66	-56.8	-84.0	242	6
2023-08-22T18:00	19302	65	-56.8	-84.0	243	6
2023-08-22T18:00	19321	65	-56.4	-83.7	245	6
2023-08-22T18:00	19343	65	-56.2	-83.5	248	6
2023-08-22T18:00	19364	65	-56.1	-83.4	252	6
2023-08-22T18:00	19387	65	-56.3	-83.6	255	6
2023-08-22T18:00	19409	64	-56.4	-83.7	257	6
2023-08-22T18:00	19428	64	-56.4	-83.7	259	6
2023-08-22T18:00	19455	64	-56.5	-83.7	259	5
2023-08-22T18:00	19478	64	-56.4	-83.7	257	5
2023-08-22T18:00	19499	63	-56.3	-83.6	254	4
2023-08-22T18:00	19520	63	-56.2	-83.5	249	4
2023-08-22T18:00	19542	63	-56.0	-83.7	243	3
2023-08-22T18:00	19566	63	-55.9	-83.6	239	4
2023-08-22T18:00	19590	63	-56.0	-83.7	239	4
2023-08-22T18:00	19609	62	-56.0	-83.7	242	4
2023-08-22T18:00	19636	62	-56.0	-83.4	247	5
2023-08-22T18:00	19660	62	-55.9	-83.3	251	5
2023-08-22T18:00	19684	62	-55.7	-83.1	254	6
2023-08-22T18:00	19706	61	-55.9	-83.3	254	6
2023-08-22T18:00	19731	61	-56.0	-83.4	253	6
2023-08-22T18:00	19755	61	-55.9	-83.3	250	5
2023-08-22T18:00	19780	61	-55.8	-83.6	248	5
2023-08-22T18:00	19803	60	-55.6	-83.4	247	5
2023-08-22T18:00	19827	60	-55.5		248	6
2023-08-22T18:00	19849	60	-55.5		252	6
2023-08-22T18:00	19871	60	-55.2	-83.1	258	6
2023-08-22T18:00	19898	60	-55.3	-83.2	265	6
2023-08-22T18:00	19920	59	-55.4	-83.3	272	6
2023-08-22T18:00	19947	59	-55.5		279	6
2023-08-22T18:00	19972	59	-55.6	-83.1	285	6
2023-08-22T18:00	19995	59	-55.6	-83.1	290	7
2023-08-22T18:00	20018	58	-55.7	-83.1	294	7
2023-08-22T18:00	20045	58	-55.8	-83.2	298	7
2023-08-22T18:00	20069	58	-55.9	-83.3	303	7
2023-08-22T18:00	20093	58	-55.9	-83.3	308	7
2023-08-22T18:00	20114	58	-56.0	-83.4	314	7
2023-08-22T18:00	20136	57	-56.1	-83.4	320	7
2023-08-22T18:00	20161	57	-56.0	-83.4	326	7
2023-08-22T18:00	20187	57	-55.9	-83.3	333	7
2023-08-22T18:00	20209	57	-56.0	-83.4	340	6
2023-08-22T18:00	20233	57	-56.0	-83.4	347	6
2023-08-22T18:00	20256	56	-56.2	-83.5	354	5
2023-08-22T18:00	20281	56	-56.1	-83.4	1	5
2023-08-22T18:00	20308	56	-55.9	-83.3	7	4
2023-08-22T18:00	20332	56	-55.8	-83.6	12	4
2023-08-22T18:00	20354	55	-55.8	-83.6	16	4
2023-08-22T18:00	20377	55	-55.7	-83.5	18	3
2023-08-22T18:00	20398	55	-55.7	-83.5	20	3
2023-08-22T18:00	20427	55	-55.6	-83.4	21	3
2023-08-22T18:00	20447	55	-55.7	-83.1	23	3
2023-08-22T18:00	20473	54	-55.7	-83.1	26	4
2023-08-22T18:00	20495	54	-55.7	-83.5	29	4
2023-08-22T18:00	20522	54	-55.6	-83.4	33	4
2023-08-22T18:00	20544	54	-55.6	-83.4	37	4
2023-08-22T18:00	20567	54	-55.6	-83.4	42	3
2023-08-22T18:00	20596	53	-55.5		51	3
2023-08-22T18:00	20619	53	-55.2	-83.1	66	3
2023-08-22T18:00	20642	53	-55.2	-83.1	88	2
2023-08-22T18:00	20665	53	-55.0	-82.9	112	2
2023-08-22T18:00	20686	53	-55.0	-82.9	129	3
2023-08-22T18:00	20711	52	-55.1	-83.0	140	3
2023-08-22T18:00	20737	52	-55.2	-83.1	149	3
2023-08-22T18:00	20756	52	-55.2	-83.1	157	4
2023-08-22T18:00	20780	52	-55.3	-82.8	166	4
2023-08-22T18:00	20800	52	-55.4	-82.9	175	4
2023-08-22T18:00	20828	52	-55.4	-82.9	185	4
2023-08-22T18:00	20853	51	-55.5	-83.0	193	4
2023-08-22T18:00	20873	51	-55.6	-83.1	202	4
2023-08-22T18:00	20899	51	-55.6	-83.4	210	4
2023-08-22T18:00	20916	51	-55.4	-83.3	219	4
2023-08-22T18:00	20945	51	-55.3	-83.2	227	3
2023-08-22T18:00	20965	50	-55.2	-83.1	234	3
2023-08-22T18:00	20991	50	-55.1	-83.0	238	3
2023-08-22T18:00	21013	50	-54.9	-83.3	239	3
2023-08-22T18:00	21036	50	-54.8	-83.2	238	3
2023-08-22T18:00	21058	50	-54.8	-83.2	237	3
2023-08-22T18:00	21085	49	-54.8	-83.2	237	3
2023-08-22T18:00	21107	49	-54.8	-83.2	239	3
2023-08-22T18:00	21131	49	-54.7	-83.1	242	3
2023-08-22T18:00	21154	49	-54.5	-82.9	246	3
2023-08-22T18:00	21178	49	-54.5	-82.9	250	2
2023-08-22T18:00	21201	49	-54.5	-82.9	254	2
2023-08-22T18:00	21226	48	-54.4	-82.9	260	2
2023-08-22T18:00	21247	48	-54.0	-82.6	268	1
2023-08-22T18:00	21271	48	-54.0	-82.6	286	1
2023-08-22T18:00	21297	48	-54.0	-82.6	320	1
2023-08-22T18:00	21322	48	-54.1	-82.6	354	1
2023-08-22T18:00	21342	48	-53.9	-82.5	12	2
2023-08-22T18:00	21364	47	-53.9	-82.5	18	2
2023-08-22T18:00	21390	47	-53.9	-82.5	19	2
2023-08-22T18:00	21413	47	-53.9	-82.5	16	3
2023-08-22T18:00	21440	47	-53.9	-82.5	11	3
2023-08-22T18:00	21465	47	-54.0	-82.6	3	2
2023-08-22T18:00	21487	46	-54.1	-82.6	353	2
2023-08-22T18:00	21512	46	-54.2	-82.3	343	2
2023-08-22T18:00	21541	46	-54.2	-82.3	335	2
2023-08-22T18:00	21564	46	-54.4	-82.5	329	2
2023-08-22T18:00	21586	46	-54.5	-82.6	324	2
2023-08-22T18:00	21611	46	-54.4	-82.5	318	2
2023-08-22T18:00	21639	45	-54.4	-82.5	309	1
2023-08-22T18:00	21665	45	-54.6	-82.6	295	1
2023-08-22T18:00	21692	45	-54.6	-82.6	270	1
2023-08-22T18:00	21715	45	-54.5	-82.6	244	1
2023-08-22T18:00	21735	45	-54.6	-82.6	230	1
2023-08-22T18:00	21761	45	-54.7	-82.7	232	1
2023-08-22T18:00	21787	44	-54.7	-82.7	249	1
2023-08-22T18:00	21804	44	-54.8	-82.8	282	1
2023-08-22T18:00	21835	44	-54.7	-82.7	313	1
2023-08-22T18:00	21860	44	-54.6	-82.6	332	2
2023-08-22T18:00	21884	44	-54.5	-82.9	342	2
2023-08-22T18:00	21910	44	-54.4	-82.9	349	3
2023-08-22T18:00	21931	43	-54.6	-83.0	356	3
2023-08-22T18:00	21956	43	-54.6	-83.0	3	4
2023-08-22T18:00	21984	43	-54.6	-83.0	11	4
2023-08-22T18:00	22011	43	-54.6	-83.0	20	4
2023-08-22T18:00	22035	43	-54.6	-83.0	29	4
2023-08-22T18:00	22060	42	-54.6	-83.0	37	5
2023-08-22T18:00	22088	42	-54.6	-83.0	44	5
2023-08-22T18:00	22116	42	-54.6	-83.0	49	5
2023-08-22T18:00	22140	42	-54.6	-83.0	53	5
2023-08-22T18:00	22167	42	-54.6	-82.6	56	4
2023-08-22T18:00	22195	42	-54.7	-82.7	58	4
2023-08-22T18:00	22221	41	-54.7	-82.7	59	3
2023-08-22T18:00	22249	41	-54.8	-82.8	60	3
2023-08-22T18:00	22276	41	-55.0	-82.9	61	3
2023-08-22T18:00	22300	41	-55.1	-83.0	62	2
2023-08-22T18:00	22326	41	-55.1	-83.0	64	2
2023-08-22T18:00	22353	41	-55.2	-83.1	64	1
2023-08-22T18:00	22379	40	-55.3	-83.2	54	1
2023-08-22T18:00	22404	40	-55.4	-83.3	35	1
2023-08-22T18:00	22432	40	-55.5	-83.0	21	1
2023-08-22T18:00	22461	40	-55.6	-83.1	17	2
2023-08-22T18:00	22484	40	-55.7	-83.1	18	2
2023-08-22T18:00	22510	40	-55.8	-83.2	22	2
2023-08-22T18:00	22536	39	-55.9	-83.3	27	3
2023-08-22T18:00	22560	39	-55.9	-83.3	33	3
2023-08-22T18:00	22592	39	-55.9	-83.3	38	3
2023-08-22T18:00	22616	39	-56.0	-83.4	42	3
2023-08-22T18:00	22647	39	-56.2	-83.5	46	3
2023-08-22T18:00	22667	39	-56.1	-83.4	51	3
2023-08-22T18:00	22696	38	-56.1	-83.8	56	3
2023-08-22T18:00	22719	38	-56.0	-83.7	63	3
2023-08-22T18:00	22746	38	-56.0	-83.7	71	3
2023-08-22T18:00	22772	38	-55.9	-83.6	78	3
2023-08-22T18:00	22799	38	-55.9	-83.6	83	3
2023-08-22T18:00	22830	38	-55.7	-83.5	85	2
2023-08-22T18:00	22848	38	-55.7	-83.5	85	2
2023-08-22T18:00	22881	37	-55.8	-83.6	82	2
2023-08-22T18:00	22902	37	-55.8	-83.6	77	2
2023-08-22T18:00	22926	37	-55.8	-83.6	69	1
2023-08-22T18:00	22950	37	-55.8	-83.6	46	1
2023-08-22T18:00	22978	37	-55.7	-83.5	348	1
2023-08-22T18:00	23005	37	-55.8	-83.6	313	1
2023-08-22T18:00	23024	37	-55.9	-83.6	304	2
2023-08-22T18:00	23050	36	-55.9	-83.6	304	2
2023-08-22T18:00	23078	36	-55.9	-83.6	307	3
2023-08-22T18:00	23107	36	-55.9	-83.6	312	3
2023-08-22T18:00	23131	36	-55.7	-83.5	318	3
2023-08-22T18:00	23149	36	-55.8	-83.6	324	3
2023-08-22T18:00	23176	36	-55.8	-83.6	330	3
2023-08-22T18:00	23201	36	-55.7	-83.9	335	3
2023-08-22T18:00	23230	35	-55.5	-83.7	339	3
2023-08-22T18:00	23249	35	-55.3	-83.6	342	2
2023-08-22T18:00	23274	35	-55.1	-83.4	343	2
2023-08-22T18:00	23298	35	-55.0		342	2
2023-08-22T18:00	23320	35	-55.0		339	2
2023-08-22T18:00	23341	35	-55.1	-83.4	338	2
2023-08-22T18:00	23372	35	-55.1	-83.4	341	1
2023-08-22T18:00	23392	34	-55.2	-83.5	348	1
2023-08-22T18:00	23421	34	-55.1	-83.4	359	1
2023-08-22T18:00	23443	34	-55.1	-83.0	8	2
2023-08-22T18:00	23466	34	-55.3	-83.2	14	2
2023-08-22T18:00	23494	34	-55.4	-83.3	17	2
2023-08-22T18:00	23521	34	-55.4	-83.3	21	2
2023-08-22T18:00	23546	34	-55.4	-83.3	26	2
2023-08-22T18:00	23564	34	-55.5		32	3
2023-08-22T18:00	23594	33	-55.4	-83.3	39	3
2023-08-22T18:00	23624	33	-55.3	-83.2	44	3
2023-08-22T18:00	23643	33	-55.5		46	3
2023-08-22T18:00	23670	33	-55.5	-83.7	47	3
2023-08-22T18:00	23695	33	-55.6	-83.8	47	4
2023-08-22T18:00	23719	33	-55.3	-83.6	47	4
2023-08-22T18:00	23748	33	-55.1	-83.4	47	4
2023-08-22T18:00	23775	32	-54.9	-83.7	48	4
2023-08-22T18:00	23795	32	-54.7	-83.5	49	4
2023-08-22T18:00	23824	32	-54.4	-83.3	50	4
2023-08-22T18:00	23844	32	-54.3	-83.2	49	4
2023-08-22T18:00	23873	32	-54.3	-83.2	49	3
2023-08-22T18:00	23899	32	-54.3	-83.2	47	3
2023-08-22T18:00	23922	32	-54.4	-82.9	44	3
2023-08-22T18:00	23950	32	-54.4	-82.9	40	3
2023-08-22T18:00	23972	31	-54.5	-82.9	37	3
2023-08-22T18:00	24002	31	-54.6	-83.0	35	4
2023-08-22T18:00	24029	31	-54.6	-83.0	36	4
2023-08-22T18:00	24052	31	-54.5	-82.9	39	5
2023-08-22T18:00	24081	31	-54.3	-83.2	43	5
2023-08-22T18:00	24110	31	-54.0	-83.0	47	6
2023-08-22T18:00	24135	31	-54.0	-83.0	50	6
2023-08-22T18:00	24161	31	-54.1	-83.1	53	6
2023-08-22T18:00	24186	30	-54.0	-83.0	56	6
2023-08-22T18:00	24217	30	-53.9	-82.9	59	6
2023-08-22T18:00	24242	30	-54.0	-83.0	61	5
2023-08-22T18:00	24266	30	-53.9	-82.9	62	5
2023-08-22T18:00	24283	30	-53.9	-82.9	61	4
2023-08-22T18:00	24315	30	-53.9	-82.9	54	3
2023-08-22T18:00	24338	30	-53.9	-82.9	41	3
2023-08-22T18:00	24373	30	-53.9	-82.9	29	3
2023-08-22T18:00	24396	29	-54.0	-83.0	23	3
2023-08-22T18:00	24422	29	-54.1	-83.1	24	4
2023-08-22T18:00	24447	29	-53.9	-82.9	30	4
2023-08-22T18:00	24475	29	-53.8	-82.8	38	4
2023-08-22T18:00	24502	29	-53.9	-82.9	47	5
2023-08-22T18:00	24527	29	-54.0	-83.0	54	5
2023-08-22T18:00	24554	29	-54.1	-82.6	60	5
2023-08-22T18:00	24575	29	-54.2	-82.7	65	5
2023-08-22T18:00	24606	29	-54.3	-82.8	69	4
2023-08-22T18:00	24636	28	-54.4	-82.9	74	3
2023-08-22T18:00	24653	28	-54.2	-83.1	82	3
2023-08-22T18:00	24682	28	-54.1	-83.1	95	2
2023-08-22T18:00	24709	28	-54.0	-83.0	115	2
2023-08-22T18:00	24734	28	-53.9	-82.9	133	2
2023-08-22T18:00	24765	28	-53.5	-83.0	149	2
2023-08-22T18:00	24783	28	-53.4	-83.0	165	1
2023-08-22T18:00	24808	28	-53.3	-82.9	188	1
2023-08-22T18:00	24836	28	-53.2	-82.8	225	1
2023-08-22T18:00	24863	27	-53.1	-82.7	267	1
2023-08-22T18:00	24890	27	-52.8	-82.5	294	2
2023-08-22T18:00	24913	27	-52.6	-82.8	311	3
2023-08-22T18:00	24939	27	-52.4	-82.7	322	3
2023-08-22T18:00	24964	27	-52.1	-82.5	328	4
2023-08-22T18:00	24997	27	-51.5	-82.0	333	5
2023-08-22T18:00	25015	27	-51.3	-81.9	337	5
2023-08-22T18:00	25044	27	-51.2	-81.8	340	5
2023-08-22T18:00	25072	27	-51.1	-81.7	344	5
2023-08-22T18:00	25097	26	-51.0	-81.6	349	5
2023-08-22T18:00	25130	26	-50.9	-81.6	355	4
2023-08-22T18:00	25150	26	-50.9	-81.6	1	4
2023-08-22T18:00	25173	26	-50.9	-81.6	8	4
2023-08-22T18:00	25199	26	-50.7	-81.4	14	3
2023-08-22T18:00	25235	26	-50.5	-81.3	21	3
2023-08-22T18:00	25262	26	-50.6	-81.3	28	3
2023-08-22T18:00	25284	26	-50.8	-81.5	38	3
2023-08-22T18:00	25310	26	-50.9	-81.1	53	2
2023-08-22T18:00	25345	25	-51.0	-81.2	74	2
2023-08-22T18:00	25365	25	-51.0	-81.6	98	2
2023-08-22T18:00	25387	25	-50.8	-81.5	118	2
2023-08-22T18:00	25416	25	-50.6	-81.3	134	3
2023-08-22T18:00	25444	25	-50.6	-81.3	148	3
2023-08-22T18:00	25462	25	-50.7	-81.4	164	3
2023-08-22T18:00	25502	25	-50.7	-81.4	181	3
2023-08-22T18:00	25526	25	-50.6	-81.3	196	3
2023-08-22T18:00	25555	25	-50.4	-81.2	208	3
2023-08-22T18:00	25577	25	-50.4	-81.2	217	3
2023-08-22T18:00	25614	24	-50.4	-81.2	227	3
2023-08-22T18:00	25637	24	-50.3	-81.1	238	3
2023-08-22T18:00	25674	24	-50.2	-81.0	252	3
2023-08-22T18:00	25693	24	-50.1	-81.0	268	3
2023-08-22T18:00	25716	24	-50.0	-80.9	286	3
2023-08-22T18:00	25752	24	-49.9	-80.8	300	3
2023-08-22T18:00	25773	24	-49.9	-80.8	310	3
2023-08-22T18:00	25804	24	-49.9	-80.8	318	4
2023-08-22T18:00	25828	24	-49.9	-80.8	324	4
2023-08-22T18:00	25856	24	-49.9	-80.8	331	4
2023-08-22T18:00	25888	23	-50.0	-80.9	339	4
2023-08-22T18:00	25910	23	-50.1	-81.0	347	4
2023-08-22T18:00	25939	23	-50.0	-80.9	356	4
2023-08-22T18:00	25969	23	-49.9	-80.8	6	4
2023-08-22T18:00	26003	23	-49.8	-80.8	17	3
2023-08-22T18:00	26022	23	-49.7	-80.7	29	3
2023-08-22T18:00	26050	23	-49.6	-80.6	43	3
2023-08-22T18:00	26076	23	-49.6	-80.6	55	2
2023-08-22T18:00	26114	23	-49.7	-80.7	62	2
2023-08-22T18:00	26144	23	-49.7	-80.7	64	2
2023-08-22T18:00	26172	22	-49.5	-80.5	60	1
2023-08-22T18:00	26191	22	-49.4	-80.5	53	1
2023-08-22T18:00	26219	22	-49.3	-80.9	43	1
2023-08-22T18:00	26250	22	-49.2	-80.8	18	0
2023-08-22T18:00	26273	22	-49.2	-80.8	285	0
2023-08-22T18:00	26296	22	-49.2	-80.8	262	1
2023-08-22T18:00	26329	22	-49.3	-80.9	260	1
2023-08-22T18:00	26352	22	-49.2	-80.8	263	1
2023-08-22T18:00	26388	22	-48.9	-80.6	271	1
2023-08-22T18:00	26415	22	-48.9	-80.6	283	1
2023-08-22T18:00	26438	22	-48.8	-80.5	298	2
2023-08-22T18:00	26466	21	-48.7	-80.5	311	2
2023-08-22T18:00	26493	21	-48.6	-80.4	319	3
2023-08-22T18:00	26521	21	-48.7	-80.5	325	3
2023-08-22T18:00	26553	21	-48.7	-80.5	330	4
2023-08-22T18:00	26585	21	-48.7	-80.5	334	4
2023-08-22T18:00	26616	21	-48.7	-80.5	339	4
2023-08-22T18:00	26640	21	-48.8	-80.5	345	4
2023-08-22T18:00	26676	21	-48.7	-80.5	352	4
2023-08-22T18:00	26702	21	-48.6	-80.4	0	4
2023-08-22T18:00	26726	21	-48.6	-80.4	8	4
2023-08-22T18:00	26757	21	-48.5	-80.3	16	3
2023-08-22T18:00	26785	20	-48.6	-80.4	25	3
2023-08-22T18:00	26813	20	-48.6	-80.4	34	2
2023-08-22T18:00	26839	20	-48.5	-80.3	46	2
2023-08-22T18:00	26872	20	-48.5	-80.3	62	2
2023-08-22T18:00	26898	20	-48.3	-80.2	80	1
2023-08-22T18:00	26926	20	-48.2	-80.1	96	1
2023-08-22T18:00	26947	20	-48.1	-80.0	108	1
2023-08-22T18:00	26983	20	-48.0	-79.9	122	1
2023-08-22T18:00	27009	20	-48.1	-80.0	139	1
2023-08-22T18:00	27031	20	-48.0	-79.9	159	1
2023-08-22T18:00	27056	20	-48.0	-79.9	179	1
2023-08-22T18:00	27076	20	-47.7	-79.7	192	2
2023-08-22T18:00	27109	19	-47.7	-80.3	200	2
2023-08-22T18:00	27140	19	-47.6	-80.2	205	2
2023-08-22T18:00	27178	19	-47.5	-80.2	208	2
2023-08-22T18:00	27207	19	-47.3	-80.0	211	2
2023-08-22T18:00	27235	19	-47.2	-79.9	214	2
2023-08-22T18:00	27247	19	-47.0	-79.8	219	2
2023-08-22T18:00	27283	19	-46.9	-79.7	224	2
2023-08-22T18:00	27313	19	-47.0	-79.8	229	2
2023-08-22T18:00	27349	19	-46.9	-79.7	234	2
2023-08-22T18:00	27375	19	-46.9	-79.7	239	2
2023-08-22T18:00	27402	19	-46.8	-79.6	244	2
2023-08-22T18:00	27434	19	-46.6	-79.5	249	2
2023-08-22T18:00	27457	18	-46.7	-79.6	253	2
2023-08-22T18:00	27492	18	-46.7	-79.6	255	2
2023-08-22T18:00	27510	18	-46.6	-79.5	256	2
2023-08-22T18:00	27543	18	-46.6	-79.5	256	2
2023-08-22T18:00	27574	18	-46.6	-79.5	255	3
2023-08-22T18:00	27600	18	-46.5	-79.4	254	3
2023-08-22T18:00	27626	18	-46.4	-79.3	254	3
2023-08-22T18:00	27659	18	-46.4	-79.3	256	3
2023-08-22T18:00	27688	18	-46.4	-79.3	258	3
2023-08-22T18:00	27715	18	-46.4	-79.3	261	3
2023-08-22T18:00	27733	18	-46.4	-79.3	266	2
2023-08-22T18:00	27769	18	-46.5	-79.4	270	2
2023-08-22T18:00	27794	18	-46.6	-79.5	273	2
2023-08-22T18:00	27825	17	-46.6	-79.5	272	2
2023-08-22T18:00	27868	17	-46.8	-79.6	265	2
2023-08-22T18:00	27880	17	-46.9	-79.7	247	1
2023-08-22T18:00	27922	17	-46.9	-79.7	224	2
2023-08-22T18:00	27943	17	-46.8	-79.6	211	2
2023-08-22T18:00	27968	17	-46.5	-79.4	209	2
2023-08-22T18:00	27998	17	-46.3	-79.3	215	3
2023-08-22T18:00	28026	17	-46.2	-79.2	225	3
2023-08-22T18:00	28065	17	-46.2	-79.2	237	4
2023-08-22T18:00	28085	17	-46.3	-79.3	246	4
2023-08-22T18:00	28123	17	-46.3	-79.3	254	5
2023-08-22T18:00	28147	17	-46.1	-79.1	260	5
2023-08-22T18:00	28177	17	-45.9	-79.0	267	5
2023-08-22T18:00	28207	17	-45.9	-79.0	274	6
2023-08-22T18:00	28232	16	-45.9	-79.0	281	6
2023-08-22T18:00	28259	16	-45.8	-78.9	288	6
2023-08-22T18:00	28284	16	-45.9	-79.0	295	6
2023-08-22T18:00	28329	16	-46.1	-79.1	302	7
2023-08-22T18:00	28338	16	-46.1	-79.1	309	7
2023-08-22T18:00	28386	16	-45.9	-79.0	316	7
2023-08-22T18:00	28414	16	-45.7	-78.8	322	7
2023-08-22T18:00	28432	16	-45.5	-78.7	327	7
2023-08-22T18:00	28460	16	-45.4	-78.6	332	8
2023-08-22T18:00	28506	16	-45.4	-79.3	336	8
2023-08-22T18:00	28522	16	-45.4	-79.3	341	8
2023-08-22T18:00	28556	16	-45.5	-79.3	346	8
2023-08-22T18:00	28581	16	-45.4	-79.3	352	8
2023-08-22T18:00	28625	16	-45.0	-79.0	358	8
2023-08-22T18:00	28640	15	-45.0	-79.0	4	8
2023-08-22T18:00	28662	15	-45.0	-79.0	9	8
2023-08-22T18:00	28701	15	-44.8	-78.8	14	8
2023-08-22T18:00	28725	15	-44.7	-78.8	18	8
2023-08-22T18:00	28755	15	-44.7	-78.8	22	8
2023-08-22T18:00	28791	15	-44.6	-78.7	26	8
2023-08-22T18:00	28817	15	-44.7	-78.8	31	7
2023-08-22T18:00	28836	15	-44.8	-78.8	35	7
2023-08-22T18:00	28867	15	-44.9	-78.3	39	7
2023-08-22T18:00	28900	15	-45.1	-78.4	44	7
2023-08-22T18:00	28928	15	-45.1	-78.4	48	6
2023-08-22T18:00	28963	15	-45.2	-78.5	51	6
2023-08-22T18:00	28975	15	-45.2	-78.5	53	5
2023-08-22T18:00	29009	15	-45.2	-78.5	55	5
2023-08-22T18:00	29040	15	-45.3	-78.5	55	4
2023-08-22T18:00	29066	15	-45.3	-78.5	55	4
2023-08-22T18:00	29100	14	-45.4	-78.6	53	4
2023-08-22T18:00	29130	14	-45.4	-78.6	51	3
2023-08-22T18:00	29142	14	-45.4	-78.6	47	3
2023-08-22T18:00	29173	14	-45.3	-79.2	42	4
2023-08-22T18:00	29203	14	-45.2	-79.1	37	4
2023-08-22T18:00	29233	14	-45.3	-79.2	32	4
2023-08-22T18:00	29252	14	-45.2	-79.1	27	4
2023-08-22T18:00	29274	14	-45.2	-79.1	24	5
2023-08-22T18:00	29319	14	-45.3	-79.2	23	5
2023-08-22T18:00	29346	14	-45.3	-79.2	24	5
2023-08-22T18:00	29376	14	-45.2	-79.1	28	5
2023-08-22T18:00	29399	14	-45.2	-79.1	32	5
2023-08-22T18:00	29433	14	-45.1	-79.0	36	5
2023-08-22T18:00	29464	14	-45.0	-79.0	39	5
2023-08-22T18:00	29482	14	-44.9	-78.9	41	4
2023-08-22T18:00	29509	14	-44.9	-78.9	41	4
2023-08-22T18:00	29544	14	-44.8	-78.8	40	3
2023-08-22T18:00	29565	13	-44.7	-78.8	35	3
2023-08-22T18:00	29605	13	-44.4	-78.5	24	2
2023-08-22T18:00	29626	13	-44.2	-78.4	5	2
2023-08-22T18:00	29656	13	-44.1	-78.3	340	2
2023-08-22T18:00	29682	13	-43.9	-78.2	318	2
2023-08-22T18:00	29728	13	-43.9	-78.2	304	3
2023-08-22T18:00	29740	13	-43.8	-78.1	297	4
2023-08-22T18:00	29776	13	-43.8	-78.1	296	4
2023-08-22T18:00	29816	13	-43.7	-78.0	300	5
2023-08-22T18:00	29838	13	-43.6	-78.7	306	6
2023-08-22T18:00	29865	13	-43.3	-78.5	314	7
2023-08-22T18:00	29883	13	-43.1	-78.3	321	7
2023-08-22T18:00	29922	13	-43.0	-78.3	328	8
2023-08-22T18:00	29957	13	-43.0	-78.3	335	8
2023-08-22T18:00	29983	13	-43.0	-78.3	341	9
2023-08-22T18:00	30022	13	-42.9	-78.2	347	9
2023-08-22T18:00	30040	13	-42.8	-78.1	352	9
2023-08-22T18:00	30075	12	-42.8	-78.1	357	9
2023-08-22T18:00	30110	12	-42.9	-78.2	3	9
2023-08-22T18:00	30142	12	-43.0	-78.3	9	9
2023-08-22T18:00	30175	12	-42.9	-78.2	15	8
2023-08-22T18:00	30204	12	-42.9	-78.2	21	8
2023-08-22T18:00	30236	12	-42.9	-78.2	28	7
2023-08-22T18:00	30265	12	-42.8	-78.1	34	7
2023-08-22T18:00	30290	12	-42.8	-78.1	38	6
2023-08-22T18:00	30323	12	-42.8	-78.1	41	6
2023-08-22T18:00	30346	12	-42.8	-78.1	42	6
2023-08-22T18:00	30373	12	-42.8	-78.1	40	5
2023-08-22T18:00	30412	12	-42.8	-78.1	36	5
2023-08-22T18:00	30445	12	-42.8	-78.1	32	5
2023-08-22T18:00	30466	12	-42.7	-78.0	30	5
2023-08-22T18:00	30491	12	-42.5	-77.9	31	5
2023-08-22T18:00	30530	12	-42.3	-77.8	34	5
2023-08-22T18:00	30551	12	-42.2	-77.7	39	6
2023-08-22T18:00	30574	12	-42.1	-77.6	43	6
2023-08-22T18:00	30603	12	-42.0	-77.5	46	6
2023-08-22T18:00	30648	11	-41.9	-77.5	49	6
2023-08-22T18:00	30676	11	-41.8	-77.4	51	6
2023-08-22T18:00	30696	11	-41.8	-77.4	55	5
2023-08-22T18:00	30722	11	-41.6	-77.3	59	5
2023-08-22T18:00	30757	11	-41.7	-77.3	64	4
2023-08-22T18:00	30782	11	-41.8	-77.4	69	4
2023-08-22T18:00	30814	11	-41.7	-77.3	71	3
2023-08-22T18:00	30835	11	-41.5	-77.2	70	3
2023-08-22T18:00	30861	11	-41.3	-77.0	65	3
2023-08-22T18:00	30893	11	-41.2	-77.8	57	4
2023-08-22T18:00	30921	11	-40.7	-77.4	50	4
2023-08-22T18:00	30950	11	-40.6	-77.4	44	5
2023-08-22T18:00	30981	11	-40.3	-77.2	41	6
2023-08-22T18:00	31004	11	-40.3	-77.2	39	7
2023-08-22T18:00	31027	11	-40.4	-77.2	39	8
2023-08-22T18:00	31057	11	-40.2	-77.1	40	8
2023-08-22T18:00	31092	11	-40.1	-77.0	42	9
2023-08-22T18:00	31139	11	-39.8	-76.8	46	9
2023-08-22T18:00	31147	11	-39.8	-76.8	50	9
2023-08-22T18:00	31187	11	-39.8	-76.8	55	9
2023-08-22T18:00	31198	11	-39.8	-76.8	60	9
2023-08-22T18:00	31231	11	-39.8	-76.8	65	9
2023-08-22T18:00	31263	10	-39.9	-76.9	69	9
2023-08-22T18:00	31300	10	-40.0	-76.9	73	9
2023-08-22T18:00	31328	10	-40.1	-77.0	77	9
2023-08-22T18:00	31357	10	-40.1	-77.0	81	8
2023-08-22T18:00	31379	10	-40.0	-76.9	86	8
2023-08-22T18:00	31425	10	-39.9	-76.9	92	7
2023-08-22T18:00	31446	10	-39.9	-76.9	99	7
2023-08-22T18:00	31469	10	-40.0	-76.9	107	6
2023-08-22T18:00	31487	10	-40.1	-76.2	114	6
2023-08-22T18:00	31539	10	-40.3	-76.3	120	6
2023-08-22T18:00	31570	10	-40.4	-76.4	126	5
2023-08-22T18:00	31584	10	-40.5	-76.5	130	5
2023-08-22T18:00	31614	10	-40.8	-76.7	135	4
2023-08-22T18:00	31661	10	-40.8	-76.7	142	3
2023-08-22T18:00	31676	10	-40.6	-76.5	151	3
2023-08-22T18:00	31710	10	-40.4	-77.2	163	2
2023-08-22T18:00	31743	10	-40.3	-77.2	174	2
2023-08-22T18:00	31767	10	-40.3	-77.2	181	1
2023-08-22T18:00	31839	10	-40.2	-77.1	181	1
2023-08-22T18:00	31842	10	-40.2	-77.1	55	0
2023-08-22T18:00	31858	10	-40.2	-77.1	29	1
2023-08-22T18:00	31907	10	-40.2	-77.1	28	2
2023-08-22T18:00	31940	10	-40.2	-77.1	28	2
2023-08-22T18:00	31963	9	-40.2	-77.1	29	3
2023-08-22T18:00	31986	9	-40.1	-77.0	31	3
2023-08-22T18:00	32017	9	-40.1	-77.0	33	3
2023-08-22T18:00	32037	9	-40.1	-77.0	36	4
2023-08-22T18:00	32084	9	-40.1	-77.0	40	4
2023-08-22T18:00	32108	9	-40.1	-77.0	46	4
2023-08-22T18:00	32144	9	-40.1	-77.0	53	5
2023-08-22T18:00	32191	9	-40.1	-77.0	62	5
2023-08-22T18:00	32216	9	-40.3	-77.2	70	5
2023-08-22T18:00	32241	9	-40.2	-77.1	77	6
2023-08-22T18:00	32278	9	-40.2	-77.1	85	6
2023-08-22T18:00	32293	9	-40.1	-77.0	91	6
2023-08-22T18:00	32328	9	-40.0	-76.9	97	6
2023-08-22T18:00	32365	9	-40.0	-76.9	103	7
2023-08-22T18:00	32399	9	-40.0	-76.9	108	7
2023-08-22T18:00	32420	9	-40.0	-76.9	112	7
2023-08-22T18:00	32452	9	-40.0	-76.9	115	7
2023-08-22T18:00	32487	9	-40.0	-76.9	118	7
2023-08-22T18:00	32506	9	-40.0	-76.9	120	7
2023-08-22T18:00	32547	9	-40.0	-76.9	120	6
2023-08-22T18:00	32569	9	-39.8	-76.8	120	6
2023-08-22T18:00	32597	9	-39.8	-76.8	117	5
2023-08-22T18:00	32641	9	-39.6	-76.7	111	4
2023-08-22T18:00	32664	9	-39.4	-76.5	104	4
2023-08-22T18:00	32666	9	-39.3	-76.4	96	3
2023-08-22T18:00	32715	9	-39.1	-76.3	89	3
2023-08-22T18:00	32741	8	-39.1	-76.3	81	2
2023-08-22T18:00	32776	8	-38.9	-76.2	70	2
2023-08-22T18:00	32793	8	-38.9	-76.2	52	2
2023-08-22T18:00	32818	8	-38.7	-76.0	26	2
2023-08-22T18:00	32853	8	-38.5	-76.9	6	2
2023-08-22T18:00	32869	8	-38.3	-76.7	356	2
2023-08-22T18:00	32903	8	-38.1	-76.6	354	3
2023-08-22T18:00	32942	8	-37.8	-76.4	356	4
2023-08-22T18:00	32997	8	-37.3	-76.0	7	4
2023-08-22T18:00	33004	8	-37.2	-75.9	13	5
2023-08-22T18:00	33044	8	-37.2	-75.9	16	5
2023-08-22T18:00	33071	8	-37.1	-75.9	18	5
2023-08-22T18:00	33106	8	-36.9	-75.7	18	5
2023-08-22T18:00	33171	8	-36.6	-75.5	17	5
2023-08-22T18:00	33193	8	-36.4	-75.4	17	4
2023-08-22T18:00	33214	8	-36.2	-75.2	18	3
2023-08-22T18:00	33265	8	-36.0	-75.1	19	3
2023-08-22T18:00	33300	8	-35.7	-74.9	32	2
2023-08-22T18:00	33328	8	-35.8	-75.0	47	1
2023-08-22T18:00	33354	8	-35.9	-75.0	62	2
2023-08-22T18:00	33378	8	-35.7	-74.9	71	2
2023-08-22T18:00	33394	8	-35.7	-74.9	75	2
2023-08-22T18:00	33441	8	-35.6	-74.8	76	3
2023-08-22T18:00	33490	8	-35.6	-74.8	75	3
2023-08-22T18:00	33536	8	-35.5	-74.8	74	5
2023-08-22T18:00	33557	8	-35.4	-74.7	76	5
2023-08-22T18:00	33621	7	-35.2	-74.5	78	6
2023-08-22T18:00	33635	7	-34.9	-74.3	82	7
2023-08-22T18:00	33644	7	-34.7	-74.2	85	8
2023-08-22T18:00	33663	7	-34.6	-74.1	87	9
2023-08-22T18:00	33705	7	-34.5	-74.1	88	10
2023-08-22T18:00	33721	7	-34.6	-74.1	89	11
2023-08-22T18:00	33768	7	-34.7	-74.2	89	11
2023-08-22T18:00	33805	7	-34.8	-74.3	90	11
2023-08-22T18:00	33812	7	-34.7	-74.2	90	11
2023-08-22T18:00	33866	7	-34.7	-74.2	91	10
2023-08-22T18:00	33905	7	-34.8	-74.3	91	10
2023-08-22T18:00	33943	7	-35.2	-74.5	89	9
2023-08-22T18:00	33961	7	-35.3	-74.6	87	8
2023-08-22T18:00	34002	7	-35.4	-74.7	82	8
2023-08-22T18:00	34040	7	-35.3	-74.6	77	8
2023-08-22T18:00	34076	7	-35.1	-74.5	72	8
2023-08-22T18:00	34092	7	-35.1	-74.5	68	8
2023-08-22T18:00	34146	7	-34.9	-74.3	67	9
2023-08-22T18:00	34162	7	-34.4	-75.2	70	9
2023-08-22T18:00	34218	7	-34.4	-75.2	73	8
2023-08-22T18:00	34219	7	-34.5	-75.2	76	8
2023-08-22T18:00	34242	7	-34.4	-75.2	77	8
2023-08-22T18:00	34279	7	-34.4	-75.2	76	8
2023-08-22T18:00	34313	7	-34.3	-75.1	75	8
2023-08-22T18:00	34342	7	-34.1	-75.0	74	8
2023-08-22T18:00	34343	7	-33.9	-74.8	74	7
2023-08-22T18:00	34381	7	-33.8	-74.7	74	7
2023-08-22T18:00	34415	7	-33.8	-74.7	76	7
2023-08-22T18:00	34428	7	-34.0	-74.9	77	7
2023-08-22T18:00	34475	7	-34.1	-75.0	79	7
2023-08-22T18:00	34493	7	-34.2	-75.0	81	7
2023-08-22T18:00	34518	7	-34.2	-75.0	84	8
2023-08-22T18:00	34552	7	-33.9	-74.8	91	8
2023-08-22T18:00	34583	6	-33.6	-74.6	94	8
2023-08-22T18:00	34619	6	-33.4	-74.5	97	9
2023-08-22T18:00	34659	6	-33.3	-74.4	100	9
2023-08-22T18:00	34684	6	-32.9	-74.1	104	9
2023-08-22T18:00	34713	6	-32.9	-74.1	105	8
2023-08-22T18:00	34734	6	-32.8	-74.1	104	8
2023-08-22T18:00	34771	6	-32.7	-74.0	102	7
2023-08-22T18:00	34806	6	-32.3	-73.7	96	7
2023-08-22T18:00	34830	6	-31.7	-73.3	96	6
2023-08-22T18:00	34855	6	-31.5	-73.2	99	6
2023-08-22T18:00	34887	6	-31.5	-73.2	106	6
2023-08-22T18:00	34933	6	-31.3	-73.0	112	6
2023-08-22T18:00	34945	6	-31.3	-73.0	115	6
2023-08-22T18:00	34965	6	-31.4	-73.1	115	6
2023-08-22T18:00	34994	6	-31.5	-73.2	111	7
2023-08-22T18:00	35012	6	-30.8	-72.7	106	7
2023-08-22T18:00	35054	6	-30.5	-72.5	99	7
2023-08-22T18:00	35100	6	-30.5	-72.5	93	7
2023-08-22T18:00	35103	6	-30.4	-72.4	88	7
2023-08-22T18:00	35138	6	-30.4	-72.4	85	7
2023-08-22T18:00	35158	6	-30.4	-72.4	85	7
2023-08-22T18:00	35204	6	-30.3	-72.3	85	7
2023-08-22T18:00	35210	6	-30.2	-72.3	87	7
2023-08-22T18:00	35276	6	-30.2	-72.3	88	7
2023-08-22T18:00	35284	6	-30.1	-72.2	90	7
2023-08-22T18:00	35295	6	-30.1	-72.2	91	7
2023-08-22T18:00	35343	6	-29.9	-72.1	93	7
2023-08-22T18:00	35360	6	-29.5	-71.8	100	7
2023-08-22T18:00	35417	6	-29.7	-71.9	105	7
2023-08-22T18:00	35427	6	-29.8	-72.0	109	6
2023-08-22T18:00	35474	6	-29.9	-72.1	111	6
2023-08-22T18:00	35486	6	-30.1	-72.2	112	6
2023-08-22T18:00	35541	6	-30.1	-72.2	110	6
2023-08-22T18:00	35555	6	-30.1	-72.2	107	6
2023-08-22T18:00	35606	6	-30.1	-72.2	101	5
2023-08-22T18:00	35613	6	-30.1	-72.2	94	5
2023-08-22T18:00	35649	6	-30.1	-72.2	88	5
2023-08-22T18:00	35678	6	-30.2	-72.3	82	5
2023-08-22T18:00	35684	6	-30.3	-72.3	77	5
2023-08-22T18:00	35729	6	-30.4	-72.4	73	4
2023-08-22T18:00	35754	6	-30.4	-72.4	69	4
2023-08-22T18:00	35786	6	-30.4	-72.4	65	4
2023-08-22T18:00	35791	5	-30.5	-72.5	61	4
2023-08-22T18:00	35824	5	-30.5	-72.5	57	5
2023-08-22T18:00	35875	5	-30.5	-72.5	51	5
2023-08-22T18:00	35893	5	-30.5	-72.5	49	6
2023-08-22T18:00	35933	5	-30.6	-72.5	48	6
2023-08-22T18:00	35980	5	-30.6	-72.5	47	7
2023-08-22T18:00	35995	5	-30.6	-72.5	47	7
2023-08-22T18:00	36042	5	-30.6	-72.5	47	8
2023-08-22T18:00	36057	5	-30.7	-72.6	48	8
2023-08-22T18:00	36084	5	-30.7	-72.6	49	8
2023-08-22T18:00	36147	5	-30.7	-72.6	50	9
2023-08-22T18:00	36150	5	-30.8	-72.7	50	9
2023-08-22T18:00	36154	5	-30.7	-72.6	50	10
2023-08-22T18:00	36174	5	-30.7	-72.6	50	10
2023-08-22T18:00	36212	5	-30.6	-72.5	51	11
2023-08-22T18:00	36239	5	-30.4	-72.4	52	11
2023-08-22T18:00	36295	5	-30.3	-72.3	54	12
2023-08-22T18:00	36311	5	-30.2	-72.3	57	12
2023-08-22T18:00	36362	5	-30.3	-72.3	64	12
2023-08-22T18:00	36393	5	-30.4	-72.4	68	12
2023-08-22T18:00	36426	5	-30.4	-72.4	79	11
2023-08-22T18:00	36462	5	-30.2	-72.3	84	11
2023-08-22T18:00	36515	5	-29.9	-72.1	95	11
2023-08-22T18:00	36568	5	-29.9	-72.1	100	10
2023-08-22T18:00	36579	5	-30.0	-72.1	116	9
2023-08-22T18:00	36632	5	-30.1	-72.2	121	9
2023-08-22T18:00	36684	5	-30.2	-72.3	130	8
2023-08-22T18:00	36729	5	-30.3	-72.3	134	8
2023-08-22T18:00	36754	5	-30.4	-72.4	139	8
2023-08-22T18:00	36784	5	-30.6	-72.5	144	7
2023-08-22T18:00	36800	5	-30.8	-72.7	150	7
2023-08-22T18:00	36844	5	-30.9	-72.8	156	7
2023-08-22T18:00	36887	5	-31.2	-73.0	162	6
2023-08-22T18:00	36934	5	-31.4	-73.1	176	5
2023-08-22T18:00	36979	5	-31.4	-73.1	183	4
2023-08-22T18:00	37035	5	-31.3	-73.0	181	4
2023-08-22T18:00	37066	5	-31.2	-73.0	173	3
2023-08-22T18:00	37091	5	-30.8	-72.7	113	2
2023-08-22T18:00	37122	5	-30.5	-72.5	68	3
2023-08-22T18:00	37175	5	-30.4	-72.4	64	4
2023-08-22T18:00	37198	5	-30.3	-72.3	65	6
2023-08-22T18:00	37246	4	-30.3	-72.3	68	7
2023-08-22T18:00	37262	4	-29.9	-72.1	74	9
2023-08-22T18:00	37318	4	-29.8	-72.0	77	10
2023-08-22T18:00	37345	4	-29.8	-72.0	83	10
2023-08-22T18:00	37375	4	-29.7	-71.9	85	10
2023-08-22T18:00	37420	4	-29.7	-71.9	88	9
2023-08-22T18:00	37437	4	-29.7	-71.9	91	9
2023-08-22T18:00	37473	4	-29.5	-71.8	98	7
2023-08-22T18:00	37505	4	-29.4	-71.7	102	6
2023-08-22T18:00	37516	4	-29.7	-71.9	106	5
2023-08-22T18:00	37586	4	-29.7	-71.9	108	4
2023-08-22T18:00	37599	4	-29.9	-72.1	110	3
2023-08-22T18:00	37623	4	-29.8	-72.0	110	2
2023-08-22T18:00	37667	4	-29.9	-72.1	113	2
2023-08-22T18:00	37677	4	-29.8	-72.0	140	1
2023-08-22T18:00	37701	4	-29.8	-72.0	232	1
2023-08-23T00:00	112	1006	18.3	13.0	100	1
2023-08-23T00:00	139	1003	20.1	14.2	93	1
2023-08-23T00:00	162	1001	20.4	12.3	92	1
2023-08-23T00:00	189	998	20.8	10.2	86	1
2023-08-23T00:00	210	995	21.2	6.4	77	2
2023-08-23T00:00	236	992	21.3	5.7	69	2
2023-08-23T00:00	258	990	21.4	4.9	60	2
2023-08-23T00:00	283	987	21.2	5.8	53	2
2023-08-23T00:00	309	984	21.1	6.5	47	2
2023-08-23T00:00	336	981	20.8	7.6	39	2
2023-08-23T00:00	359	978	20.5	7.9	31	2
2023-08-23T00:00	390	975	20.2	8.3	22	2
2023-08-23T00:00	408	973	20.0	8.3	15	3
2023-08-23T00:00	428	970	19.8	8.7	9	3
2023-08-23T00:00	456	967	19.6	9.1	6	3
2023-08-23T00:00	480	964	19.5	9.1	3	3
2023-08-23T00:00	506	962	19.4	9.1	360	3
2023-08-23T00:00	532	959	19.2	9.1	355	3
2023-08-23T00:00	557	956	18.9	9.1	349	3
2023-08-23T00:00	580	953	18.7	9.2	343	3
2023-08-23T00:00	611	950	18.5	9.0	338	3
2023-08-23T00:00	638	947	18.3	8.8	336	3
2023-08-23T00:00	658	945	18.1	8.7	337	3
2023-08-23T00:00	680	942	17.9	8.7	341	4
2023-08-23T00:00	704	940	17.7	8.7	347	4
2023-08-23T00:00	721	938	17.6	8.4	351	4
2023-08-23T00:00	740	936	17.5	8.1	351	4
2023-08-23T00:00	757	934	17.3	8.0	347	4
2023-08-23T00:00	776	932	17.2	8.0	343	4
2023-08-23T00:00	795	930	17.0	8.1	340	4
2023-08-23T00:00	812	928	16.9	8.2	340	4
2023-08-23T00:00	830	926	16.8	8.2	344	4
2023-08-23T00:00	849	924	16.7	8.3	349	4
2023-08-23T00:00	866	922	16.6	8.1	352	5
2023-08-23T00:00	885	920	16.4	8.0	352	5
2023-08-23T00:00	909	917	16.2	7.9	350	5
2023-08-23T00:00	933	915	16.0	7.8	348	6
2023-08-23T00:00	954	913	15.8	7.7	345	6
2023-08-23T00:00	976	910	15.6	7.6	342	5
2023-08-23T00:00	1001	907	15.4	7.6	340	5
2023-08-23T00:00	1023	905	15.2	7.7	339	5
2023-08-23T00:00	1054	902	14.9	7.8	341	5
2023-08-23T00:00	1082	899	14.6	7.9	345	5
2023-08-23T00:00	1105	896	14.5	7.0	349	5
2023-08-23T00:00	1124	894	14.4	6.3	350	5
2023-08-23T00:00	1144	892	14.4	5.9	348	5
2023-08-23T00:00	1164	890	14.3	5.5	342	5
2023-08-23T00:00	1183	888	14.2	4.3	336	5
2023-08-23T00:00	1204	886	14.3	3.0	331	5
2023-08-23T00:00	1221	884	14.4	1.8	329	5
2023-08-23T00:00	1242	882	14.3	1.4	330	5
2023-08-23T00:00	1264	880	14.2		333	5
2023-08-23T00:00	1289	877	14.1	0.0	335	5
2023-08-23T00:00	1315	874	13.9	-0.5	334	5
2023-08-23T00:00	1342	872	13.7	-0.5	332	5
2023-08-23T00:00	1367	869	13.5	-1.3	330	5
2023-08-23T00:00	1385	867	13.4	-1.7	332	5
2023-08-23T00:00	1407	865	13.3	-1.0	337	5
2023-08-23T00:00	1426	863	13.3	-2.3	343	5
2023-08-23T00:00	1446	861	13.4	-2.4	346	6
2023-08-23T00:00	1465	859	13.4	-3.4	345	6
2023-08-23T00:00	1481	857	13.3	-4.7	340	7
2023-08-23T00:00	1505	855	13.2	-5.1	334	8
2023-08-23T00:00	1523	853	13.1	-4.8	327	8
2023-08-23T00:00	1541	851	13.1	-4.3	319	8
2023-08-23T00:00	1561	849	12.9	-4.1	312	8
2023-08-23T00:00	1581	847	12.8	-4.2	304	7
2023-08-23T00:00	1603	845	12.8	-4.2	298	7
2023-08-23T00:00	1628	842	12.7	-4.6	294	6
2023-08-23T00:00	1656	840	12.5	-5.1	292	5
2023-08-23T00:00	1681	837	12.4	-5.3	291	4
2023-08-23T00:00	1708	834	12.2	-5.7	292	4
2023-08-23T00:00	1733	832	12.1	-5.6	292	4
2023-08-23T00:00	1759	829	12.0	-6.9	291	4
2023-08-23T00:00	1789	826	11.8	-6.8	291	5
2023-08-23T00:00	1817	824	11.6	-6.2	289	5
2023-08-23T00:00	1845	821	11.5	-7.3	287	5
2023-08-23T00:00	1876	818	11.4	-8.4	285	5
2023-08-23T00:00	1905	815	11.3	-8.0	282	5
2023-08-23T00:00	1933	812	11.3	-8.1	281	5
2023-08-23T00:00	1956	810	11.2	-8.3	283	5
2023-08-23T00:00	1979	808	11.1	-8.0	287	5
2023-08-23T00:00	2006	805	11.0	-7.5	292	6
2023-08-23T00:00	2030	803	10.8	-7.3	294	7
2023-08-23T00:00	2050	801	10.7	-7.0	294	8
2023-08-23T00:00	2070	799	10.5	-6.9	291	8
2023-08-23T00:00	2093	797	10.4	-6.5	287	9
2023-08-23T00:00	2116	795	10.2	-5.2	284	9
2023-08-23T00:00	2135	793	10.1	-4.6	283	9
2023-08-23T00:00	2157	791	9.9	-4.1	284	9
2023-08-23T00:00	2179	789	9.7	-3.6	286	9
2023-08-23T00:00	2202	786	9.5	-3.4	288	9
2023-08-23T00:00	2231	784	9.5	-3.7	288	8
2023-08-23T00:00	2254	781	9.2	-1.0	286	8
2023-08-23T00:00	2276	779	9.2	-2.8	283	9
2023-08-23T00:00	2299	777	9.1	-4.7	280	9
2023-08-23T00:00	2331	774	9.0	-5.5	278	9
2023-08-23T00:00	2360	772	8.6	-0.6	277	10
2023-08-23T00:00	2383	769	8.4	1.5	277	10
2023-08-23T00:00	2412	767	8.1	1.9	277	10
2023-08-23T00:00	2438	764	7.8	2.5	279	10
2023-08-23T00:00	2461	762	7.7	2.3	280	10
2023-08-23T00:00	2489	759	7.7	1.3	280	11
2023-08-23T00:00	2520	757	7.6	0.8	280	11
2023-08-23T00:00	2543	755	7.5	0.3	278	11
2023-08-23T00:00	2567	752	7.3	0.1	277	11
2023-08-23T00:00	2594	750	7.2	-0.3	276	11
2023-08-23T00:00	2618	748	7.0	-1.0	277	11
2023-08-23T00:00	2641	746	6.8	-1.0	278	10
2023-08-23T00:00	2665	744	6.6	-1.2	280	10
2023-08-23T00:00	2681	742	6.5	-1.2	281	10
2023-08-23T00:00	2703	740	6.4	-1.8	280	10
2023-08-23T00:00	2723	738	6.3	-2.5	278	10
2023-08-23T00:00	2743	736	6.2	-2.7	277	11
2023-08-23T00:00	2768	734	6.0	-2.8	275	12
2023-08-23T00:00	2794	732	5.9	-3.8	275	13
2023-08-23T00:00	2822	729	5.7	-4.2	275	13
2023-08-23T00:00	2847	727	5.7	-4.7	275	14
2023-08-23T00:00	2871	725	5.6	-6.0	274	14
2023-08-23T00:00	2891	723	5.6	-6.8	274	14
2023-08-23T00:00	2913	721	5.6	-10.8	273	14
2023-08-23T00:00	2938	719	5.8	-18.7	273	14
2023-08-23T00:00	2961	717	6.0	-28.0	273	13
2023-08-23T00:00	2973	716	6.0	-28.0	274	13
2023-08-23T00:00	2994	714	5.9	-28.5	275	12
2023-08-23T00:00	3020	712	5.8	-27.9	275	12
2023-08-23T00:00	3038	710	5.9	-24.5	275	12
2023-08-23T00:00	3062	708	5.8	-16.6	274	12
2023-08-23T00:00	3083	706	5.6	-15.2	272	12
2023-08-23T00:00	3108	704	5.4	-14.6	272	12
2023-08-23T00:00	3129	703	5.2	-13.6	273	13
2023-08-23T00:00	3147	701	5.0	-13.1	274	13
2023-08-23T00:00	3165	699	4.9	-12.1	276	13
2023-08-23T00:00	3192	697	4.6	-10.0	277	14
2023-08-23T00:00	3219	695	4.4	-9.6	278	14
2023-08-23T00:00	3240	693	4.3	-9.9	278	15
2023-08-23T00:00	3265	691	4.1	-10.3	277	15
2023-08-23T00:00	3289	689	4.0	-10.6	276	15
2023-08-23T00:00	3320	686	3.9	-11.1	276	15
2023-08-23T00:00	3340	684	3.8	-12.0	275	15
2023-08-23T00:00	3362	683	3.6	-12.1	274	15
2023-08-23T00:00	3383	681	3.5	-12.2	274	15
2023-08-23T00:00	3408	679	3.3	-12.4	273	15
2023-08-23T00:00	3437	676	3.0	-12.5	272	16
2023-08-23T00:00	3462	674	2.9	-12.5	272	16
2023-08-23T00:00	3485	672	2.7	-12.5	273	17
2023-08-23T00:00	3501	671	2.5	-12.3	274	17
2023-08-23T00:00	3524	669	2.4	-12.4	276	16
2023-08-23T00:00	3550	667	2.3	-15.7	277	16
2023-08-23T00:00	3580	665	2.4	-26.8	279	16
2023-08-23T00:00	3602	663	2.3	-25.0	279	16
2023-08-23T00:00	3629	661	2.2	-24.1	279	16
2023-08-23T00:00	3654	658	2.0	-22.8	278	16
2023-08-23T00:00	3679	656	1.8	-21.2	277	16
2023-08-23T00:00	3695	655	1.7	-20.7	276	16
2023-08-23T00:00	3712	654	1.6	-20.8	276	17
2023-08-23T00:00	3739	652	1.4	-15.6	276	17
2023-08-23T00:00	3761	650	1.2	-15.6	277	17
2023-08-23T00:00	3785	648	1.0	-15.4	277	17
2023-08-23T00:00	3811	646	0.9	-15.6	277	17
2023-08-23T00:00	3839	643	0.7	-19.9	278	17
2023-08-23T00:00	3868	641	0.5	-19.1	279	16
2023-08-23T00:00	3895	639	0.2	-18.8	280	16
2023-08-23T00:00	3910	638	0.1	-18.3	281	16
2023-08-23T00:00	3928	636	0.1	-20.0	282	17
2023-08-23T00:00	3949	634	0.1	-20.5	283	17
2023-08-23T00:00	3981	632	-0.1	-19.9	283	18
2023-08-23T00:00	4006	630	-0.2	-19.5	284	18
2023-08-23T00:00	4026	629	-0.4	-19.6	284	19
2023-08-23T00:00	4050	627	-0.5	-19.7	284	19
2023-08-23T00:00	4072	625	-0.7	-18.9	285	19
2023-08-23T00:00	4088	624	-0.9	-14.3	285	19
2023-08-23T00:00	4108	622	-1.1	-10.7	284	19
2023-08-23T00:00	4136	620	-1.4	-11.1	284	20
2023-08-23T00:00	4164	618	-1.7	-10.1	283	20
2023-08-23T00:00	4183	616	-1.9	-8.7	283	20
2023-08-23T00:00	4201	615	-2.0	-9.7	283	20
2023-08-23T00:00	4221	613	-2.1	-11.7	284	19
2023-08-23T00:00	4243	612	-2.2	-13.1	285	19
2023-08-23T00:00	4272	609	-2.3	-15.9	285	19
2023-08-23T00:00	4295	608	-2.4	-16.7	286	19
2023-08-23T00:00	4313	606	-2.5	-13.7	286	18
2023-08-23T00:00	4334	605	-2.8	-11.1	285	18
2023-08-23T00:00	4361	603	-2.9	-13.2	285	18
2023-08-23T00:00	4384	601	-3.1	-11.7	284	19
2023-08-23T00:00	4413	599	-3.4	-9.2	284	19
2023-08-23T00:00	4433	597	-3.7	-9.4	283	19
2023-08-23T00:00	4452	596	-3.8	-9.2	282	19
2023-08-23T00:00	4480	594	-4.2	-7.1	281	19
2023-08-23T00:00	4513	591	-4.4	-8.3	281	19
2023-08-23T00:00	4531	590	-4.5	-9.3	280	19
2023-08-23T00:00	4553	588	-4.6	-9.6	281	19
2023-08-23T00:00	4575	587	-4.7	-9.8	282	19
2023-08-23T00:00	4593	585	-4.9	-10.4	283	19
2023-08-23T00:00	4628	583	-5.1	-10.9	282	19
2023-08-23T00:00	4657	580	-5.4	-10.2	281	19
2023-08-23T00:00	4686	578	-5.6	-11.1	280	19
2023-08-23T00:00	4705	577	-5.8	-11.1	279	19
2023-08-23T00:00	4722	576	-5.9	-11.1	278	19
2023-08-23T00:00	4737	574	-6.0	-11.3	278	19
2023-08-23T00:00	4758	573	-6.2	-11.0	278	19
2023-08-23T00:00	4782	571	-6.4	-10.6	278	19
2023-08-23T00:00	4811	569	-6.6	-10.5	277	20
2023-08-23T00:00	4835	568	-6.7	-10.7	276	20
2023-08-23T00:00	4853	566	-6.6	-11.1	275	20
2023-08-23T00:00	4879	564	-6.5	-12.1	275	21
2023-08-23T00:00	4905	562	-6.6	-11.6	274	21
2023-08-23T00:00	4934	560	-6.7	-12.1	274	21
2023-08-23T00:00	4955	559	-6.8	-11.3	275	21
2023-08-23T00:00	4972	558	-7.0	-10.9	275	21
2023-08-23T00:00	4989	556	-7.2	-10.6	275	20
2023-08-23T00:00	5010	555	-7.3	-10.6	275	19
2023-08-23T00:00	5038	553	-7.5	-11.3	275	19
2023-08-23T00:00	5067	551	-7.4	-15.7	274	18
2023-08-23T00:00	5092	549	-7.1	-18.6	273	18
2023-08-23T00:00	5121	547	-7.1	-20.0	272	18
2023-08-23T00:00	5151	545	-7.2	-22.4	271	19
2023-08-23T00:00	5175	543	-7.3	-21.0	270	20
2023-08-23T00:00	5199	542	-7.5	-19.8	270	21
2023-08-23T00:00	5222	540	-7.7	-19.7	269	22
2023-08-23T00:00	5236	539	-7.9	-19.8	269	22
2023-08-23T00:00	5262	537	-8.0	-17.9	268	23
2023-08-23T00:00	5291	535	-8.3	-15.8	268	23
2023-08-23T00:00	5307	534	-8.5	-14.3	267	23
2023-08-23T00:00	5323	533	-8.7	-11.3	267	23
2023-08-23T00:00	5340	532	-8.9	-10.7	268	23
2023-08-23T00:00	5358	530	-9.0	-11.0	269	22
2023-08-23T00:00	5386	529	-9.3	-10.9	269	22
2023-08-23T00:00	5410	527	-9.5	-11.1	270	22
2023-08-23T00:00	5430	526	-9.7	-11.3	271	22
2023-08-23T00:00	5454	524	-9.9	-11.7	272	21
2023-08-23T00:00	5476	522	-9.9	-14.9	273	21
2023-08-23T00:00	5501	521	-10.1	-13.8	274	21
2023-08-23T00:00	5534	519	-10.4	-13.4	274	21
2023-08-23T00:00	5552	517	-10.6	-13.3	274	21
2023-08-23T00:00	5576	516	-10.8	-13.0	274	20
2023-08-23T00:00	5603	514	-11.0	-13.0	274	20
2023-08-23T00:00	5632	512	-10.9	-17.0	274	20
2023-08-23T00:00	5663	510	-11.1	-18.5	275	20
2023-08-23T00:00	5686	508	-11.2	-20.5	276	21
2023-08-23T00:00	5710	507	-11.3		276	21
2023-08-23T00:00	5729	506	-11.4	-24.6	276	22
2023-08-23T00:00	5747	504	-11.5	-26.2	276	22
2023-08-23T00:00	5770	503	-11.6	-27.6	276	22
2023-08-23T00:00	5797	501	-11.8	-28.5	276	23
2023-08-23T00:00	5828	499	-12.0	-29.2	275	23
2023-08-23T00:00	5862	497	-12.1	-34.1	274	23
2023-08-23T00:00	5884	495	-12.2	-33.6	273	23
2023-08-23T00:00	5916	493	-12.4	-34.0	272	24
2023-08-23T00:00	5942	492	-12.6	-33.5	271	24
2023-08-23T00:00	5971	490	-12.8	-33.5	271	23
2023-08-23T00:00	6000	488	-12.9	-36.5	273	23
2023-08-23T00:00	6030	486	-13.0	-37.3	274	23
2023-08-23T00:00	6054	484	-13.2	-38.9	276	23
2023-08-23T00:00	6082	483	-13.4	-41.0	277	22
2023-08-23T00:00	6100	482	-13.5	-42.0	278	22
2023-08-23T00:00	6121	480	-13.7	-42.1	277	22
2023-08-23T00:00	6147	479	-13.9	-42.1	277	22
2023-08-23T00:00	6178	477	-14.0	-42.7	276	22
2023-08-23T00:00	6218	474	-14.3	-42.2	275	23
2023-08-23T00:00	6245	473	-14.5	-39.7	275	23
2023-08-23T00:00	6262	471	-14.7	-39.1	275	23
2023-08-23T00:00	6292	470	-14.9	-38.9	276	23
2023-08-23T00:00	6320	468	-15.1	-40.2	277	22
2023-08-23T00:00	6339	467	-15.3	-40.0	278	22
2023-08-23T00:00	6357	466	-15.4	-41.1	279	22
2023-08-23T00:00	6374	464	-15.5	-42.0	280	23
2023-08-23T00:00	6393	463	-15.6	-41.8	281	23
2023-08-23T00:00	6415	462	-15.8	-41.4	282	23
2023-08-23T00:00	6439	461	-16.0	-40.9	282	22
2023-08-23T00:00	6469	459	-16.1	-40.0	282	22
2023-08-23T00:00	6497	457	-16.3	-39.7	283	21
2023-08-23T00:00	6525	455	-16.6	-37.8	283	21
2023-08-23T00:00	6561	453	-16.9	-36.4	284	21
2023-08-23T00:00	6586	452	-17.2	-34.7	284	22
2023-08-23T00:00	6606	450	-17.2	-37.6	284	22
2023-08-23T00:00	6624	449	-17.2	-39.9	283	23
2023-08-23T00:00	6642	448	-17.3	-39.9	283	24
2023-08-23T00:00	6661	447	-17.4	-41.0	283	24
2023-08-23T00:00	6680	446	-17.5	-42.2	283	25
2023-08-23T00:00	6699	445	-17.7	-42.3	283	25
2023-08-23T00:00	6721	443	-17.9	-42.6	282	25
2023-08-23T00:00	6753	442	-18.0	-42.8	281	26
2023-08-23T00:00	6783	440	-18.1	-43.0	281	26
2023-08-23T00:00	6807	439	-18.0	-42.6	281	27
2023-08-23T00:00	6832	437	-18.0		282	27
2023-08-23T00:00	6861	435	-18.2	-43.2	283	27
2023-08-23T00:00	6899	433	-18.4	-42.3	284	28
2023-08-23T00:00	6928	432	-18.6	-43.8	284	28
2023-08-23T00:00	6948	430	-18.7	-44.8	284	28
2023-08-23T00:00	6963	429	-18.9	-45.3	284	28
2023-08-23T00:00	6981	428	-19.0	-45.6	284	28
2023-08-23T00:00	7000	427	-19.1	-45.7	284	28
2023-08-23T00:00	7016	426	-19.2	-45.8	285	28
2023-08-23T00:00	7034	425	-19.3	-45.7	285	28
2023-08-23T00:00	7053	424	-19.4	-45.2	286	28
2023-08-23T00:00	7074	423	-19.4	-43.5	286	28
2023-08-23T00:00	7091	422	-19.5	-42.5	286	28
2023-08-23T00:00	7110	421	-19.7	-43.8	287	28
2023-08-23T00:00	7128	420	-19.8	-45.8	287	28
2023-08-23T00:00	7147	419	-19.7	-47.1	287	28
2023-08-23T00:00	7166	418	-19.8	-46.7	286	28
2023-08-23T00:00	7186	417	-19.8	-46.7	286	28
2023-08-23T00:00	7205	416	-19.9	-44.8	286	28
2023-08-23T00:00	7226	414	-20.1	-42.5	285	28
2023-08-23T00:00	7243	413	-20.2	-44.2	285	28
2023-08-23T00:00	7263	412	-20.2	-44.0	285	28
2023-08-23T00:00	7284	411	-20.3	-42.9	284	28
2023-08-23T00:00	7310	410	-20.5	-40.7	284	28
2023-08-23T00:00	7339	408	-20.7	-40.1	283	28
2023-08-23T00:00	7365	407	-20.9	-42.1	282	27
2023-08-23T00:00	7390	405	-21.0	-42.2	282	27
2023-08-23T00:00	7412	404	-21.2	-43.6	281	27
2023-08-23T00:00	7434	403	-21.3	-43.4	281	27
2023-08-23T00:00	7460	402	-21.4	-44.2	280	26
2023-08-23T00:00	7489	400	-21.6	-44.7	280	26
2023-08-23T00:00	7522	398	-21.7	-45.4	280	26
2023-08-23T00:00	7538	397	-21.8	-45.6	280	25
2023-08-23T00:00	7555	396	-21.9	-45.9	280	25
2023-08-23T00:00	7576	395	-21.8	-46.0	281	25
2023-08-23T00:00	7595	394	-21.9	-46.3	281	25
2023-08-23T00:00	7613	393	-22.0	-46.6	282	25
2023-08-23T00:00	7632	392	-22.1	-46.7	282	25
2023-08-23T00:00	7650	391	-22.3	-46.7	282	25
2023-08-23T00:00	7672	390	-22.4	-46.6	283	25
2023-08-23T00:00	7690	389	-22.5	-46.5	283	25
2023-08-23T00:00	7711	388	-22.7	-46.7	283	25
2023-08-23T00:00	7729	387	-22.9	-46.7	283	25
2023-08-23T00:00	7748	386	-23.0	-46.7	283	25
2023-08-23T00:00	7768	385	-23.2	-46.9	284	25
2023-08-23T00:00	7789	384	-23.3	-47.0	284	25
2023-08-23T00:00	7818	383	-23.6	-47.2	284	25
2023-08-23T00:00	7842	381	-23.8	-47.4	283	25
2023-08-23T00:00	7865	380	-23.9	-46.8	282	25
2023-08-23T00:00	7891	379	-24.2	-46.7	281	25
2023-08-23T00:00	7921	377	-24.5	-46.7	279	25
2023-08-23T00:00	7952	376	-24.8	-46.1	278	26
2023-08-23T00:00	7973	374	-25.0	-45.9	278	26
2023-08-23T00:00	7997	373	-25.2	-45.7	278	26
2023-08-23T00:00	8024	372	-25.4	-45.0	277	26
2023-08-23T00:00	8062	370	-25.8	-45.2	277	26
2023-08-23T00:00	8100	368	-26.0	-45.4	277	26
2023-08-23T00:00	8121	367	-26.2	-45.5	276	26
2023-08-23T00:00	8142	366	-26.3	-45.7	277	26
2023-08-23T00:00	8162	365	-26.5	-46.0	277	26
2023-08-23T00:00	8184	364	-26.6	-45.9	278	26
2023-08-23T00:00	8204	363	-26.8	-46.0	279	26
2023-08-23T00:00	8224	362	-26.9	-46.0	279	26
2023-08-23T00:00	8247	361	-27.1	-46.0	279	26
2023-08-23T00:00	8266	359	-27.2	-46.0	279	27
2023-08-23T00:00	8288	358	-27.4	-46.2	279	27
2023-08-23T00:00	8316	357	-27.6	-46.1	279	27
2023-08-23T00:00	8344	356	-27.8		280	28
2023-08-23T00:00	8375	354	-27.9	-46.3	281	28
2023-08-23T00:00	8398	353	-28.1	-46.5	282	28
2023-08-23T00:00	8425	352	-28.4	-46.9	282	29
2023-08-23T00:00	8451	350	-28.5	-47.1	282	29
2023-08-23T00:00	8472	349	-28.7	-47.4	282	29
2023-08-23T00:00	8495	348	-28.9	-47.1	282	30
2023-08-23T00:00	8519	347	-29.0	-47.0	282	30
2023-08-23T00:00	8546	346	-29.2	-47.7	282	31
2023-08-23T00:00	8575	344	-29.3	-48.1	282	31
2023-08-23T00:00	8596	343	-29.4	-43.7	282	31
2023-08-23T00:00	8619	342	-29.6	-44.0	282	31
2023-08-23T00:00	8641	341	-29.8	-43.7	282	31
2023-08-23T00:00	8661	340	-30.0	-43.5	282	31
2023-08-23T00:00	8682	339	-30.2	-43.0	282	31
2023-08-23T00:00	8700	338	-30.4	-42.8	282	31
2023-08-23T00:00	8719	337	-30.4	-42.2	281	31
2023-08-23T00:00	8740	337	-30.6	-41.7	281	31
2023-08-23T00:00	8759	336	-30.7	-41.8	281	31
2023-08-23T00:00	8777	335	-30.9	-42.4	280	31
2023-08-23T00:00	8794	334	-31.0	-42.3	280	31
2023-08-23T00:00	8811	333	-31.2	-42.3	280	30
2023-08-23T00:00	8830	332	-31.3	-42.3	281	30
2023-08-23T00:00	8848	331	-31.4	-42.1	281	30
2023-08-23T00:00	8868	330	-31.5	-42.1	281	30
2023-08-23T00:00	8885	330	-31.6	-42.6	281	30
2023-08-23T00:00	8901	329	-31.7	-43.3	281	30
2023-08-23T00:00	8919	328	-31.8	-44.0	282	29
2023-08-23T00:00	8936	327	-31.9	-44.0	282	29
2023-08-23T00:00	8951	327	-32.0	-43.3	282	29
2023-08-23T00:00	8970	326	-32.1	-43.8	283	28
2023-08-23T00:00	8986	325	-32.1	-45.4	283	28
2023-08-23T00:00	9005	324	-32.1	-48.7	284	28
2023-08-23T00:00	9021	323	-32.1	-49.8	284	28
2023-08-23T00:00	9037	323	-32.2	-49.6	284	29
2023-08-23T00:00	9053	322	-32.3	-49.0	285	29
2023-08-23T00:00	9071	321	-32.4	-48.6	285	29
2023-08-23T00:00	9089	320	-32.6	-48.7	285	29
2023-08-23T00:00	9107	319	-32.7	-48.5	286	29
2023-08-23T00:00	9125	319	-32.9	-48.4	286	29
2023-08-23T00:00	9146	318	-33.1	-48.3	286	30
2023-08-23T00:00	9164	317	-33.2	-48.2	287	30
2023-08-23T00:00	9181	316	-33.4	-47.9	287	30
2023-08-23T00:00	9199	315	-33.5	-47.4	287	30
2023-08-23T00:00	9218	314	-33.7	-47.0	287	30
2023-08-23T00:00	9236	314	-33.8	-46.4	287	30
2023-08-23T00:00	9255	313	-34.0	-46.1	287	30
2023-08-23T00:00	9273	312	-34.2	-46.2	288	30
2023-08-23T00:00	9291	311	-34.3	-47.0	288	30
2023-08-23T00:00	9308	310	-34.4	-47.9	288	30
2023-08-23T00:00	9328	310	-34.6	-48.1	288	30
2023-08-23T00:00	9345	309	-34.8	-48.0	288	30
2023-08-23T00:00	9363	308	-34.9	-48.0	287	29
2023-08-23T00:00	9379	307	-35.1	-48.2	287	29
2023-08-23T00:00	9396	306	-35.2	-48.0	287	29
2023-08-23T00:00	9416	306	-35.4	-48.5	287	29
2023-08-23T00:00	9433	305	-35.4	-49.2	287	29
2023-08-23T00:00	9449	304	-35.6	-49.5	287	29
2023-08-23T00:00	9467	303	-35.7	-49.7	287	29
2023-08-23T00:00	9486	303	-35.9	-50.1	287	29
2023-08-23T00:00	9502	302	-36.0	-50.6	287	29
2023-08-23T00:00	9520	301	-36.1	-50.8	287	29
2023-08-23T00:00	9539	300	-36.3	-50.5	287	29
2023-08-23T00:00	9556	300	-36.5	-50.5	287	29
2023-08-23T00:00	9574	299	-36.7	-50.4	287	29
2023-08-23T00:00	9591	298	-36.8	-50.7	286	29
2023-08-23T00:00	9609	297	-37.0	-50.8	286	29
2023-08-23T00:00	9629	296	-37.2	-50.8	286	29
2023-08-23T00:00	9645	296	-37.3	-50.9	286	29
2023-08-23T00:00	9665	295	-37.5	-50.9	286	29
2023-08-23T00:00	9685	294	-37.7	-50.8	285	29
2023-08-23T00:00	9706	293	-37.9	-51.0	285	29
2023-08-23T00:00	9727	292	-38.1	-51.6	284	29
2023-08-23T00:00	9747	291	-38.3	-51.5	284	29
2023-08-23T00:00	9765	291	-38.5	-51.7	283	29
2023-08-23T00:00	9788	290	-38.7	-51.9	283	29
2023-08-23T00:00	9809	289	-38.9	-52.0	282	30
2023-08-23T00:00	9828	288	-39.0	-52.0	282	30
2023-08-23T00:00	9848	287	-39.2	-52.1	282	30
2023-08-23T00:00	9867	286	-39.4	-52.6	282	30
2023-08-23T00:00	9885	286	-39.5	-52.6	282	30
2023-08-23T00:00	9906	285	-39.7	-52.2	282	30
2023-08-23T00:00	9926	284	-39.9		281	30
2023-08-23T00:00	9947	283	-40.1	-52.3	281	30
2023-08-23T00:00	9965	282	-40.3	-52.3	281	30
2023-08-23T00:00	9983	281	-40.4	-52.3	281	30
2023-08-23T00:00	10002	281	-40.6	-52.8	281	30
2023-08-23T00:00	10020	280	-40.7	-53.4	281	30
2023-08-23T00:00	10040	279	-40.9	-53.2	281	30
2023-08-23T00:00	10059	278	-41.1	-52.9	281	30
2023-08-23T00:00	10077	278	-41.3	-53.1	281	30
2023-08-23T00:00	10097	277	-41.4	-53.1	281	31
2023-08-23T00:00	10117	276	-41.6	-53.3	282	31
2023-08-23T00:00	10133	275	-41.8	-53.8	282	31
2023-08-23T00:00	10152	275	-42.0	-55.3	282	31
2023-08-23T00:00	10172	274	-42.0	-57.2	282	31
2023-08-23T00:00	10191	273	-42.1	-57.8	283	32
2023-08-23T00:00	10209	272	-42.1	-58.1	283	32
2023-08-23T00:00	10227	272	-42.2	-58.2	283	32
2023-08-23T00:00	10246	271	-42.4	-58.2	283	32
2023-08-23T00:00	10266	270	-42.6	-58.1	284	32
2023-08-23T00:00	10281	269	-42.7	-58.1	284	32
2023-08-23T00:00	10299	269	-42.9	-58.1	284	32
2023-08-23T00:00	10317	268	-43.0	-58.1	285	32
2023-08-23T00:00	10336	267	-43.2	-58.1	285	32
2023-08-23T00:00	10352	267	-43.3	-58.1	285	32
2023-08-23T00:00	10373	266	-43.5	-58.2	285	32
2023-08-23T00:00	10399	265	-43.7	-58.1	286	33
2023-08-23T00:00	10421	264	-43.7	-58.4	286	33
2023-08-23T00:00	10438	263	-43.8	-58.8	286	33
2023-08-23T00:00	10457	262	-43.9	-58.9	287	33
2023-08-23T00:00	10475	262	-44.0	-58.7	286	33
2023-08-23T00:00	10493	261	-44.2	-58.7	286	33
2023-08-23T00:00	10511	260	-44.3	-58.7	286	33
2023-08-23T00:00	10530	260	-44.5	-58.6	286	34
2023-08-23T00:00	10547	259	-44.7	-58.5	286	34
2023-08-23T00:00	10564	258	-44.8	-58.3	286	34
2023-08-23T00:00	10582	258	-45.0	-58.2	286	34
2023-08-23T00:00	10602	257	-45.2	-58.2	286	34
2023-08-23T00:00	10621	256	-45.4	-58.3	286	34
2023-08-23T00:00	10638	255	-45.5	-58.2	286	34
2023-08-23T00:00	10659	255	-45.7	-58.0	286	34
2023-08-23T00:00	10677	254	-45.9	-58.1	286	34
2023-08-23T00:00	10695	253	-46.1	-58.1	286	34
2023-08-23T00:00	10713	253	-46.2	-58.0	286	34
2023-08-23T00:00	10730	252	-46.4	-58.0	286	34
2023-08-23T00:00	10753	251	-46.6	-58.0	286	34
2023-08-23T00:00	10771	250	-46.8	-57.9	286	34
2023-08-23T00:00	10791	250	-47.0	-57.9	286	34
2023-08-23T00:00	10809	249	-47.2	-58.0	286	34
2023-08-23T00:00	10828	248	-47.3	-58.0	286	33
2023-08-23T00:00	10848	247	-47.5	-58.0	285	33
2023-08-23T00:00	10866	247	-47.7	-58.1	285	33
2023-08-23T00:00	10885	246	-47.9		285	33
2023-08-23T00:00	10906	245	-48.1	-58.4	285	33
2023-08-23T00:00	10925	245	-48.3	-58.4	285	33
2023-08-23T00:00	10943	244	-48.4	-58.3	286	33
2023-08-23T00:00	10964	243	-48.6	-57.9	286	33
2023-08-23T00:00	10985	242	-48.8	-57.4	286	33
2023-08-23T00:00	11006	242	-49.0	-57.2	287	33
2023-08-23T00:00	11029	241	-49.2	-57.2	287	33
2023-08-23T00:00	11050	240	-49.4	-57.1	287	33
2023-08-23T00:00	11072	239	-49.6	-57.0	288	33
2023-08-23T00:00	11095	238	-49.8	-57.2	288	33
2023-08-23T00:00	11117	238	-50.0	-57.3	289	33
2023-08-23T00:00	11135	237	-50.2	-57.4	289	33
2023-08-23T00:00	11157	236	-50.4	-57.4	289	33
2023-08-23T00:00	11174	235	-50.6	-57.5	290	33
2023-08-23T00:00	11195	235	-50.7	-57.7	290	33
2023-08-23T00:00	11215	234	-50.8	-58.0	290	33
2023-08-23T00:00	11233	233	-50.9	-58.1	290	33
2023-08-23T00:00	11253	233	-51.1	-58.2	290	33
2023-08-23T00:00	11272	232	-51.3	-58.2	290	33
2023-08-23T00:00	11293	231	-51.5	-58.4	290	33
2023-08-23T00:00	11313	230	-51.6	-58.7	290	33
2023-08-23T00:00	11334	230	-51.7	-59.1	290	33
2023-08-23T00:00	11352	229	-51.9	-59.2	290	33
2023-08-23T00:00	11372	228	-52.0	-59.2	290	33
2023-08-23T00:00	11392	228	-52.2	-59.3	289	33
2023-08-23T00:00	11410	227	-52.3	-59.4	289	33
2023-08-23T00:00	11431	226	-52.5	-59.6	288	33
2023-08-23T00:00	11449	226	-52.6	-59.6	288	33
2023-08-23T00:00	11468	225	-52.8	-59.8	288	33
2023-08-23T00:00	11487	224	-52.9	-59.8	288	33
2023-08-23T00:00	11507	224	-53.0	-59.7	288	33
2023-08-23T00:00	11526	223	-53.2	-59.8	288	33
2023-08-23T00:00	11545	222	-53.3	-60.0	288	33
2023-08-23T00:00	11566	222	-53.4	-60.2	287	33
2023-08-23T00:00	11585	221	-53.6	-60.3	287	33
2023-08-23T00:00	11604	220	-53.8	-60.6	287	33
2023-08-23T00:00	11626	220	-53.9	-60.6	287	34
2023-08-23T00:00	11646	219	-53.9	-60.6	287	34
2023-08-23T00:00	11662	218	-54.1	-60.7	288	34
2023-08-23T00:00	11681	218	-54.3	-60.8	288	34
2023-08-23T00:00	11701	217	-54.4	-60.9	288	34
2023-08-23T00:00	11722	216	-54.6	-61.0	288	34
2023-08-23T00:00	11743	216	-54.7	-61.1	288	34
2023-08-23T00:00	11761	215	-54.9	-61.2	288	34
2023-08-23T00:00	11783	214	-55.1	-61.3	288	34
2023-08-23T00:00	11799	214	-55.2	-61.4	289	34
2023-08-23T00:00	11819	213	-55.3	-61.5	289	34
2023-08-23T00:00	11839	212	-55.4	-61.8	289	34
2023-08-23T00:00	11857	212	-55.5	-62.1	289	34
2023-08-23T00:00	11875	211	-55.5	-62.6	289	34
2023-08-23T00:00	11894	211	-55.5	-63.0	288	34
2023-08-23T00:00	11914	210	-55.6	-63.4	288	34
2023-08-23T00:00	11934	209	-55.7	-63.6	288	34
2023-08-23T00:00	11955	209	-55.8	-63.7	288	34
2023-08-23T00:00	11971	208	-56.0	-64.0	288	34
2023-08-23T00:00	11990	207	-56.0	-64.1	288	34
2023-08-23T00:00	12010	207	-56.2	-64.3	288	34
2023-08-23T00:00	12030	206	-56.3	-64.4	288	34
2023-08-23T00:00	12051	205	-56.4	-64.3	288	34
2023-08-23T00:00	12069	205	-56.6	-64.3	287	34
2023-08-23T00:00	12088	204	-56.8	-64.3	287	34
2023-08-23T00:00	12106	204	-56.9	-64.2	287	34
2023-08-23T00:00	12126	203	-57.1	-64.3	287	34
2023-08-23T00:00	12145	202	-57.2	-64.3	287	34
2023-08-23T00:00	12164	202	-57.4	-64.3	287	34
2023-08-23T00:00	12184	201	-57.5	-64.3	287	34
2023-08-23T00:00	12204	201	-57.7	-64.4	287	35
2023-08-23T00:00	12224	200	-57.9	-64.5	287	35
2023-08-23T00:00	12244	199	-58.0	-64.7	287	35
2023-08-23T00:00	12264	199	-58.1	-64.9	287	35
2023-08-23T00:00	12283	198	-58.2	-65.1	287	35
2023-08-23T00:00	12304	197	-58.3	-65.1	287	35
2023-08-23T00:00	12324	197	-58.5	-65.1	287	35
2023-08-23T00:00	12342	196	-58.7	-65.1	287	35
2023-08-23T00:00	12361	196	-58.9	-65.1	287	35
2023-08-23T00:00	12383	195	-59.0	-65.1	288	34
2023-08-23T00:00	12401	194	-59.0	-65.1	288	34
2023-08-23T00:00	12420	194	-59.2	-65.3	289	34
2023-08-23T00:00	12440	193	-59.3	-65.6	290	33
2023-08-23T00:00	12460	193	-59.3	-65.7	290	33
2023-08-23T00:00	12479	192	-59.2	-65.9	291	33
2023-08-23T00:00	12498	191	-59.3	-66.1	291	32
2023-08-23T00:00	12519	191	-59.5	-66.3	292	32
2023-08-23T00:00	12538	190	-59.6	-66.4	292	32
2023-08-23T00:00	12558	190	-59.7	-66.5	292	32
2023-08-23T00:00	12578	189	-59.8	-66.7	292	32
2023-08-23T00:00	12596	188	-59.9	-67.1	291	32
2023-08-23T00:00	12618	188	-59.7	-67.3	291	32
2023-08-23T00:00	12637	187	-59.5	-67.6	291	32
2023-08-23T00:00	12655	187	-59.6	-68.0	291	31
2023-08-23T00:00	12676	186	-59.6	-68.4	291	31
2023-08-23T00:00	12696	185	-59.5	-68.9	292	31
2023-08-23T00:00	12716	185	-58.9	-69.1	293	30
2023-08-23T00:00	12735	184	-58.5	-69.3	293	30
2023-08-23T00:00	12757	184	-58.5	-69.5	293	29
2023-08-23T00:00	12777	183	-58.5	-69.4	293	29
2023-08-23T00:00	12796	182	-58.7	-69.3	293	28
2023-08-23T00:00	12814	182	-58.8	-69.2	293	28
2023-08-23T00:00	12836	181	-59.0	-69.2	293	28
2023-08-23T00:00	12854	181	-59.1	-69.2	293	28
2023-08-23T00:00	12874	180	-59.3	-69.5	292	28
2023-08-23T00:00	12895	180	-59.5	-69.9	292	28
2023-08-23T00:00	12915	179	-59.5	-70.0	291	28
2023-08-23T00:00	12934	178	-59.5	-70.0	291	28
2023-08-23T00:00	12953	178	-59.6	-70.0	290	28
2023-08-23T00:00	12971	177	-59.7	-70.0	289	27
2023-08-23T00:00	12989	177	-59.9	-70.3	289	27
2023-08-23T00:00	13007	176	-60.0	-70.7	288	27
2023-08-23T00:00	13025	176	-60.0	-71.1	288	27
2023-08-23T00:00	13043	175	-60.0	-71.6	287	27
2023-08-23T00:00	13063	175	-60.1	-72.3	287	27
2023-08-23T00:00	13083	174	-60.0	-72.8	286	27
2023-08-23T00:00	13103	174	-59.8	-73.0	285	27
2023-08-23T00:00	13122	173	-59.9	-73.0	284	27
2023-08-23T00:00	13139	173	-59.8	-72.8	283	27
2023-08-23T00:00	13160	172	-59.6	-72.6	282	27
2023-08-23T00:00	13180	172	-59.6	-72.9	281	27
2023-08-23T00:00	13200	171	-59.7	-73.5	280	26
2023-08-23T00:00	13221	170	-59.8	-74.1	280	26
2023-08-23T00:00	13240	170	-59.8	-74.5	279	26
2023-08-23T00:00	13259	169	-59.7	-74.7	279	26
2023-08-23T00:00	13276	169	-59.6	-74.9	278	26
2023-08-23T00:00	13297	168	-59.3	-75.0	278	27
2023-08-23T00:00	13313	168	-59.3	-75.2	277	27
2023-08-23T00:00	13333	167	-59.4	-75.4	276	27
2023-08-23T00:00	13354	167	-59.5	-75.5	276	27
2023-08-23T00:00	13371	166	-59.6	-75.6	275	27
2023-08-23T00:00	13391	166	-59.6	-75.8	275	28
2023-08-23T00:00	13411	165	-59.6	-76.0	275	28
2023-08-23T00:00	13429	165	-59.4	-76.2	275	28
2023-08-23T00:00	13448	164	-59.1	-76.5	274	28
2023-08-23T00:00	13468	164	-58.8	-76.7	274	28
2023-08-23T00:00	13485	163	-58.6	-77.1	273	28
2023-08-23T00:00	13507	163	-58.1	-77.0	274	28
2023-08-23T00:00	13530	162	-58.0	-76.6	275	28
2023-08-23T00:00	13550	162	-57.8	-75.8	276	29
2023-08-23T00:00	13572	161	-57.7	-75.2	277	29
2023-08-23T00:00	13592	161	-57.3	-74.7	278	28
2023-08-23T00:00	13613	160	-57.1	-74.8	280	28
2023-08-23T00:00	13634	160	-56.6	-74.7	281	28
2023-08-23T00:00	13654	159	-56.7	-75.2	282	28
2023-08-23T00:00	13675	159	-56.8	-75.5	284	28
2023-08-23T00:00	13696	158	-56.8	-75.7	285	27
2023-08-23T00:00	13713	158	-56.3	-75.5	286	27
2023-08-23T00:00	13735	157	-56.1	-75.7	287	26
2023-08-23T00:00	13754	157	-56.1	-76.3	287	26
2023-08-23T00:00	13775	156	-56.0	-76.8	286	26
2023-08-23T00:00	13799	156	-55.9	-77.4	285	25
2023-08-23T00:00	13819	155	-55.4	-77.4	283	25
2023-08-23T00:00	13837	155	-55.1	-77.5	282	25
2023-08-23T00:00	13858	154	-55.2	-77.7	281	25
2023-08-23T00:00	13877	154	-55.2	-77.9	280	26
2023-08-23T00:00	13895	153	-55.2	-78.0	279	26
2023-08-23T00:00	13920	153	-55.0	-78.6	279	26
2023-08-23T00:00	13936	152	-54.6	-79.1	279	27
2023-08-23T00:00	13956	152	-54.6	-80.0	279	27
2023-08-23T00:00	13976	151	-54.5	-80.4	279	26
2023-08-23T00:00	13996	151	-54.5	-80.4	279	26
2023-08-23T00:00	14015	150	-54.5	-80.1	279	26
2023-08-23T00:00	14034	150	-54.7	-80.0	279	25
2023-08-23T00:00	14054	149	-54.8	-79.9	279	25
2023-08-23T00:00	14075	149	-54.9	-80.0	279	25
2023-08-23T00:00	14095	148	-55.0	-79.8	279	25
2023-08-23T00:00	14116	148	-55.1	-80.1	279	25
2023-08-23T00:00	14136	148	-55.2	-80.2	279	26
2023-08-23T00:00	14155	147	-55.4	-80.4	279	26
2023-08-23T00:00	14179	147	-55.6	-80.5	279	26
2023-08-23T00:00	14200	146	-55.7	-80.6	279	25
2023-08-23T00:00	14218	146	-55.8	-80.7	279	25
2023-08-23T00:00	14241	145	-55.9	-80.7	279	25
2023-08-23T00:00	14261	145	-55.8	-80.9	279	25
2023-08-23T00:00	14281	144	-55.9	-81.0	278	25
2023-08-23T00:00	14304	144	-55.9	-81.0	278	25
2023-08-23T00:00	14323	143	-55.8	-81.2	278	25
2023-08-23T00:00	14346	143	-55.8	-81.2	278	26
2023-08-23T00:00	14367	142	-55.8	-81.2	279	26
2023-08-23T00:00	14385	142	-55.9	-81.2	280	26
2023-08-23T00:00	14407	141	-55.9	-81.2	281	26
2023-08-23T00:00	14428	141	-55.8	-81.2	282	26
2023-08-23T00:00	14446	140	-55.7	-80.8	282	26
2023-08-23T00:00	14468	140	-55.8	-80.9	283	26
2023-08-23T00:00	14491	140	-55.9	-80.7	283	26
2023-08-23T00:00	14511	139	-56.1	-80.9	284	26
2023-08-23T00:00	14530	139	-56.2	-81.0	285	25
2023-08-23T00:00	14550	138	-56.3	-81.1	285	25
2023-08-23T00:00	14570	138	-56.4	-80.9	286	25
2023-08-23T00:00	14591	137	-56.5	-81.2	286	24
2023-08-23T00:00	14614	137	-56.5	-81.2	286	23
2023-08-23T00:00	14637	136	-56.5	-81.2	286	23
2023-08-23T00:00	14659	136	-56.6	-81.3	285	22
2023-08-23T00:00	14680	135	-56.7	-81.4	284	21
2023-08-23T00:00	14701	135	-56.7	-81.6	283	21
2023-08-23T00:00	14721	135	-56.7	-81.6	282	21
2023-08-23T00:00	14743	134	-56.6	-81.5	282	21
2023-08-23T00:00	14763	134	-56.4	-81.6	281	21
2023-08-23T00:00	14783	133	-56.5	-81.7	280	22
2023-08-23T00:00	14805	133	-56.4	-81.6	279	22
2023-08-23T00:00	14826	132	-56.2	-81.7	279	22
2023-08-23T00:00	14846	132	-56.0	-81.6	278	22
2023-08-23T00:00	14866	132	-56.1	-81.6	277	22
2023-08-23T00:00	14884	131	-56.0	-81.8	276	22
2023-08-23T00:00	14905	131	-56.0	-81.8	275	23
2023-08-23T00:00	14926	130	-56.0	-81.8	275	23
2023-08-23T00:00	14945	130	-56.0	-81.8	275	23
2023-08-23T00:00	14964	129	-56.1	-81.9	276	23
2023-08-23T00:00	14983	129	-55.9	-81.8	276	23
2023-08-23T00:00	15003	129	-55.5	-81.4	277	23
2023-08-23T00:00	15027	128	-55.4	-81.4	277	22
2023-08-23T00:00	15045	128	-55.1	-81.4	277	21
2023-08-23T00:00	15066	127	-55.0	-81.3	277	21
2023-08-23T00:00	15086	127	-55.0	-81.3	276	20
2023-08-23T00:00	15105	127	-55.0	-81.3	275	20
2023-08-23T00:00	15125	126	-55.0	-81.3	275	21
2023-08-23T00:00	15147	126	-55.1	-81.4	274	21
2023-08-23T00:00	15170	125	-55.1	-81.4	273	21
2023-08-23T00:00	15190	125	-55.0	-81.3	271	21
2023-08-23T00:00	15214	124	-55.0	-81.3	270	21
2023-08-23T00:00	15240	124	-55.0	-81.3	269	21
2023-08-23T00:00	15260	124	-55.2	-81.2	269	21
2023-08-23T00:00	15280	123	-55.4	-81.4	269	21
2023-08-23T00:00	15304	123	-55.6	-81.5	270	21
2023-08-23T00:00	15325	122	-55.6	-81.5	272	22
2023-08-23T00:00	15342	122	-55.6	-81.5	273	22
2023-08-23T00:00	15361	122	-55.5	-81.4	274	22
2023-08-23T00:00	15382	121	-55.5	-81.4	275	22
2023-08-23T00:00	15405	121	-55.6	-81.5	276	22
2023-08-23T00:00	15428	120	-55.6	-81.5	278	23
2023-08-23T00:00	15449	120	-55.8	-81.4	279	23
2023-08-23T00:00	15468	120	-55.9	-81.5	280	23
2023-08-23T00:00	15488	119	-56.0	-81.6	281	23
2023-08-23T00:00	15507	119	-55.9	-81.5	281	23
2023-08-23T00:00	15527	119	-55.9	-81.8	281	22
2023-08-23T00:00	15553	118	-56.0	-81.8	282	22
2023-08-23T00:00	15572	118	-56.0	-81.8	282	21
2023-08-23T00:00	15597	117	-56.1	-81.6	283	21
2023-08-23T00:00	15619	117	-56.2	-81.7	284	21
2023-08-23T00:00	15640	116	-56.2	-81.7	286	20
2023-08-23T00:00	15662	116	-56.2	-81.7	287	20
2023-08-23T00:00	15683	116	-56.3	-81.8	288	19
2023-08-23T00:00	15705	115	-56.5	-82.0	289	19
2023-08-23T00:00	15728	115	-56.7	-82.1	289	18
2023-08-23T00:00	15749	114	-56.9	-82.3	290	18
2023-08-23T00:00	15768	114	-56.8	-82.2	290	18
2023-08-23T00:00	15791	114	-56.7	-82.1	289	17
2023-08-23T00:00	15810	113	-56.6	-82.3	288	17
2023-08-23T00:00	15831	113	-56.3	-82.1	287	17
2023-08-23T00:00	15855	113	-56.2	-82.3	285	17
2023-08-23T00:00	15875	112	-56.2	-82.3	284	16
2023-08-23T00:00	15896	112	-56.3	-82.3	282	16
2023-08-23T00:00	15919	111	-56.4	-82.4	281	16
2023-08-23T00:00	15942	111	-56.4	-82.4	279	16
2023-08-23T00:00	15964	111	-56.3	-82.3	278	16
2023-08-23T00:00	15988	110	-56.4	-82.4	276	17
2023-08-23T00:00	16010	110	-56.6	-82.6	275	17
2023-08-23T00:00	16030	110	-56.7	-82.7	274	18
2023-08-23T00:00	16053	109	-56.8	-82.7	273	19
2023-08-23T00:00	16074	109	-56.9	-82.5	272	19
2023-08-23T00:00	16094	108	-57.1	-82.7	271	19
2023-08-23T00:00	16114	108	-57.1	-83.0	270	20
2023-08-23T00:00	16135	108	-57.2	-83.0	270	20
2023-08-23T00:00	16154	107	-56.2	-82.6	270	19
2023-08-23T00:00	16176	107	-56.2	-82.6	270	19
2023-08-23T00:00	16195	107	-56.3	-82.6	270	19
2023-08-23T00:00	16214	106	-56.4	-82.7	271	19
2023-08-23T00:00	16234	106	-56.6	-82.9	273	19
2023-08-23T00:00	16257	106	-56.8	-82.7	274	19
2023-08-23T00:00	16275	105	-56.9	-82.8	276	19
2023-08-23T00:00	16295	105	-57.1	-82.7	277	18
2023-08-23T00:00	16313	105	-57.2	-82.8	277	18
2023-08-23T00:00	16334	104	-57.3	-82.8	278	18
2023-08-23T00:00	16356	104	-57.3	-82.8	277	17
2023-08-23T00:00	16373	104	-57.2	-82.8	277	17
2023-08-23T00:00	16399	103	-57.3	-82.6	276	16
2023-08-23T00:00	16416	103	-57.4	-82.7	276	16
2023-08-23T00:00	16437	103	-57.5	-82.7	276	16
2023-08-23T00:00	16458	102	-57.5	-82.7	276	15
2023-08-23T00:00	16477	102	-57.5	-82.7	277	15
2023-08-23T00:00	16498	102	-57.1	-82.7	279	15
2023-08-23T00:00	16519	101	-56.9	-82.5	281	15
2023-08-23T00:00	16538	101	-56.9	-82.8	282	14
2023-08-23T00:00	16560	101	-56.9	-83.1	282	14
2023-08-23T00:00	16580	100	-56.9	-83.1	281	13
2023-08-23T00:00	16606	100	-56.5	-83.1	278	13
2023-08-23T00:00	16630	100	-56.3	-83.3	275	12
2023-08-23T00:00	16655	99	-56.1	-83.1	271	12
2023-08-23T00:00	16678	99	-55.9	-82.9	267	11
2023-08-23T00:00	16701	99	-55.9	-82.9	264	11
2023-08-23T00:00	16723	98	-55.9	-82.9	261	11
2023-08-23T00:00	16751	98	-56.0	-83.0	258	12
2023-08-23T00:00	16774	97	-56.2	-83.2	256	12
2023-08-23T00:00	16804	97	-56.2	-83.2	254	13
2023-08-23T00:00	16824	97	-56.2	-83.5	253	13
2023-08-23T00:00	16844	96	-56.2	-83.5	253	14
2023-08-23T00:00	16865	96	-55.9	-83.3	252	14
2023-08-23T00:00	16885	96	-56.0	-83.4	252	15
2023-08-23T00:00	16907	95	-56.0	-83.4	251	15
2023-08-23T00:00	16931	95	-56.0	-83.4	251	15
2023-08-23T00:00	16949	95	-55.7	-83.5	250	15
2023-08-23T00:00	16971	94	-55.5		249	15
2023-08-23T00:00	16991	94	-55.5		248	15
2023-08-23T00:00	17015	94	-55.6	-83.1	247	16
2023-08-23T00:00	17035	93	-55.8	-83.2	247	16
2023-08-23T00:00	17056	93	-56.0	-83.4	246	16
2023-08-23T00:00	17077	93	-56.1	-83.4	246	17
2023-08-23T00:00	17095	93	-56.2	-83.5	246	17
2023-08-23T00:00	17118	92	-56.1	-83.4	246	17
2023-08-23T00:00	17140	92	-56.1	-83.4	246	18
2023-08-23T00:00	17162	92	-55.9	-83.3	246	18
2023-08-23T00:00	17183	91	-55.9	-83.3	247	18
2023-08-23T00:00	17205	91	-56.1	-83.4	247	18
2023-08-23T00:00	17227	91	-55.9	-83.3	248	18
2023-08-23T00:00	17249	90	-56.1	-83.4	249	18
2023-08-23T00:00	17274	90	-56.3	-83.6	251	18
2023-08-23T00:00	17298	90	-56.4	-83.3	253	17
2023-08-23T00:00	17327	89	-56.7	-83.6	256	17
2023-08-23T00:00	17353	89	-56.8	-83.6	260	17
2023-08-23T00:00	17379	89	-56.9	-83.7	264	18
2023-08-23T00:00	17409	88	-57.0	-83.8	267	18
2023-08-23T00:00	17437	88	-57.1	-83.9	271	18
2023-08-23T00:00	17462	87	-57.1	-83.9	274	18
2023-08-23T00:00	17486	87	-57.3	-84.0	276	18
2023-08-23T00:00	17505	87	-57.1	-83.9	278	18
2023-08-23T00:00	17527	87	-57.0	-83.8	280	18
2023-08-23T00:00	17549	86	-57.1	-83.9	282	18
2023-08-23T00:00	17570	86	-57.1	-83.9	284	18
2023-08-23T00:00	17590	86	-57.2	-83.9	286	18
2023-08-23T00:00	17611	85	-57.2	-84.3	287	17
2023-08-23T00:00	17634	85	-57.2	-84.3	289	17
2023-08-23T00:00	17658	85	-57.1	-84.2	291	16
2023-08-23T00:00	17676	84	-57.2	-84.3	293	16
2023-08-23T00:00	17698	84	-57.1	-84.2	294	15
2023-08-23T00:00	17718	84	-57.1	-84.2	296	15
2023-08-23T00:00	17740	84	-56.9	-84.0	297	14
2023-08-23T00:00	17763	83	-57.0	-84.5	299	14
2023-08-23T00:00	17784	83	-56.8	-84.3	299	13
2023-08-23T00:00	17807	83	-56.7	-84.2	299	13
2023-08-23T00:00	17828	83	-56.5	-84.1	299	13
2023-08-23T00:00	17849	82	-56.5	-84.1	298	14
2023-08-23T00:00	17869	82	-56.5	-84.1	297	14
2023-08-23T00:00	17890	82	-56.6	-84.2	296	14
2023-08-23T00:00	17914	81	-56.8	-84.0	295	14
2023-08-23T00:00	17935	81	-56.9	-84.0	293	14
2023-08-23T00:00	17956	81	-57.0	-84.1	290	14
2023-08-23T00:00	17975	81	-57.1	-84.2	288	13
2023-08-23T00:00	17995	80	-57.2	-84.3	285	14
2023-08-23T00:00	18021	80	-57.3	-84.7	284	14
2023-08-23T00:00	18039	80	-57.0	-84.5	283	14
2023-08-23T00:00	18061	80	-56.8	-84.3	283	14
2023-08-23T00:00	18076	79	-56.9	-84.4	284	15
2023-08-23T00:00	18101	79	-56.9	-84.4	286	15
2023-08-23T00:00	18119	79	-57.0	-84.5	288	15
2023-08-23T00:00	18143	78	-57.0	-84.5	290	14
2023-08-23T00:00	18164	78	-56.8	-84.7	291	14
2023-08-23T00:00	18185	78	-56.2	-84.2	293	14
2023-08-23T00:00	18204	78	-56.2	-84.2	294	14
2023-08-23T00:00	18224	77	-56.3	-84.3	295	13
2023-08-23T00:00	18243	77	-56.3	-84.3	298	13
2023-08-23T00:00	18264	77	-56.4	-84.4	300	13
2023-08-23T00:00	18288	77	-56.5	-84.5	303	12
2023-08-23T00:00	18306	76	-56.4	-84.4	306	12
2023-08-23T00:00	18331	76	-56.4	-84.4	308	11
2023-08-23T00:00	18354	76	-56.5	-84.5	311	10
2023-08-23T00:00	18376	76	-56.4	-84.4	313	9
2023-08-23T00:00	18400	75	-56.1	-84.2	315	8
2023-08-23T00:00	18425	75	-55.9	-84.4	317	7
2023-08-23T00:00	18447	75	-55.7	-84.3	316	6
2023-08-23T00:00	18469	75	-55.7	-84.3	314	5
2023-08-23T00:00	18494	74	-55.7	-84.3	309	4
2023-08-23T00:00	18514	74	-55.7	-84.3	301	3
2023-08-23T00:00	18543	74	-55.7	-84.3	291	3
2023-08-23T00:00	18563	73	-55.8	-83.9	281	2
2023-08-23T00:00	18583	73	-55.8	-83.9	272	2
2023-08-23T00:00	18610	73	-56.0	-84.1	265	2
2023-08-23T00:00	18632	73	-56.1	-84.2	258	2
2023-08-23T00:00	18657	72	-56.3	-83.9	253	3
2023-08-23T00:00	18680	72	-56.5	-84.1	249	3
2023-08-23T00:00	18702	72	-56.8	-84.3	246	4
2023-08-23T00:00	18727	72	-57.0	-84.5	246	4
2023-08-23T00:00	18749	71	-57.1	-84.6	248	5
2023-08-23T00:00	18773	71	-57.3	-84.7	251	5
2023-08-23T00:00	18799	71	-57.2	-84.6	256	6
2023-08-23T00:00	18825	71	-56.9	-84.4	262	6
2023-08-23T00:00	18851	70	-56.9	-84.4	268	6
2023-08-23T00:00	18873	70	-57.0	-84.5	273	7
2023-08-23T00:00	18898	70	-57.2	-84.6	278	7
2023-08-23T00:00	18919	69	-57.3	-84.7	282	7
2023-08-23T00:00	18942	69	-57.4	-84.8	286	8
2023-08-23T00:00	18963	69	-57.5	-84.9	290	7
2023-08-23T00:00	18985	69	-57.4	-84.8	293	7
2023-08-23T00:00	19006	69	-57.3	-85.1	296	7
2023-08-23T00:00	19029	68	-57.3	-85.1	296	6
2023-08-23T00:00	19051	68	-57.1	-84.9	294	5
2023-08-23T00:00	19075	68	-56.9	-84.8	289	5
2023-08-23T00:00	19099	68	-56.7	-84.6	280	4
2023-08-23T00:00	19123	67	-56.7	-84.6	271	4
2023-08-23T00:00	19141	67	-56.8	-84.7	265	4
2023-08-23T00:00	19165	67	-56.8	-84.7	263	4
2023-08-23T00:00	19185	67	-56.9	-84.8	266	4
2023-08-23T00:00	19211	66	-56.8	-84.7	271	4
2023-08-23T00:00	19231	66	-56.6	-84.5	277	5
2023-08-23T00:00	19254	66	-56.5	-84.9	282	5
2023-08-23T00:00	19279	66	-56.4	-84.8	286	4
2023-08-23T00:00	19300	65	-56.4	-84.8	289	4
2023-08-23T00:00	19322	65	-56.4	-84.8	291	4
2023-08-23T00:00	19345	65	-56.2	-84.6	292	4
2023-08-23T00:00	19371	65	-56.0	-84.5	295	3
2023-08-23T00:00	19394	64	-55.8	-84.8	298	3
2023-08-23T00:00	19416	64	-55.7	-84.7	301	2
2023-08-23T00:00	19439	64	-55.6	-84.6	305	2
2023-08-23T00:00	19463	64	-55.5	-84.5	309	2
2023-08-23T00:00	19487	64	-55.5	-84.5	310	1
2023-08-23T00:00	19509	63	-55.4	-84.0	308	1
2023-08-23T00:00	19532	63	-55.5	-84.1	304	2
2023-08-23T00:00	19557	63	-55.6	-84.2	300	2
2023-08-23T00:00	19577	63	-55.8	-84.3	298	2
2023-08-23T00:00	19600	62	-55.9	-84.4	297	3
2023-08-23T00:00	19629	62	-56.0	-84.5	298	3
2023-08-23T00:00	19649	62	-55.9	-84.4	302	4
2023-08-23T00:00	19671	62	-55.9	-84.4	305	4
2023-08-23T00:00	19696	61	-56.0	-84.5	309	4
2023-08-23T00:00	19721	61	-56.1	-84.6	312	4
2023-08-23T00:00	19746	61	-56.3	-84.7	314	4
2023-08-23T00:00	19770	61	-56.1	-84.6	317	3
2023-08-23T00:00	19794	61	-55.9	-84.4	319	3
2023-08-23T00:00	19819	60	-56.0	-84.5	321	2
2023-08-23T00:00	19845	60	-56.1	-84.6	324	2
2023-08-23T00:00	19865	60	-56.0	-84.5	326	2
2023-08-23T00:00	19890	60	-56.1	-84.6	328	3
2023-08-23T00:00	19914	59	-55.9	-84.4	329	4
2023-08-23T00:00	19937	59	-56.0	-84.5	330	4
2023-08-23T00:00	19961	59	-56.1	-84.6	332	5
2023-08-23T00:00	19985	59	-56.2	-84.6	334	5
2023-08-23T00:00	20002	59	-56.3	-84.7	336	5
2023-08-23T00:00	20028	58	-56.3	-84.7	340	5
2023-08-23T00:00	20049	58	-56.1	-84.6	344	4
2023-08-23T00:00	20076	58	-56.0	-84.5	349	3
2023-08-23T00:00	20099	58	-56.0	-84.5	353	3
2023-08-23T00:00	20123	57	-55.8	-84.3	355	2
2023-08-23T00:00	20146	57	-55.9	-84.4	355	1
2023-08-23T00:00	20171	57	-56.0	-84.5	339	1
2023-08-23T00:00	20198	57	-56.1	-84.6	249	1
2023-08-23T00:00	20220	57	-56.2	-84.6	221	1
2023-08-23T00:00	20241	56	-56.2	-84.6	218	2
2023-08-23T00:00	20262	56	-56.2	-84.6	219	3
2023-08-23T00:00	20286	56	-56.2	-84.6	221	3
2023-08-23T00:00	20315	56	-56.2	-84.6	223	4
2023-08-23T00:00	20331	56	-56.0	-84.5	224	4
2023-08-23T00:00	20358	55	-55.9	-84.4	225	4
2023-08-23T00:00	20380	55	-56.0	-84.5	225	4
2023-08-23T00:00	20405	55	-55.9	-84.4	225	4
2023-08-23T00:00	20430	55	-55.7	-84.3	223	4
2023-08-23T00:00	20450	55	-55.6	-84.6	222	5
2023-08-23T00:00	20472	54	-55.6	-84.2	221	5
2023-08-23T00:00	20494	54	-55.6	-84.2	222	5
2023-08-23T00:00	20518	54	-55.5	-84.1	225	5
2023-08-23T00:00	20542	54	-55.6	-84.2	230	6
2023-08-23T00:00	20567	54	-55.7	-84.3	236	6
2023-08-23T00:00	20588	53	-55.6	-84.2	243	6
2023-08-23T00:00	20609	53	-55.7	-84.3	249	6
2023-08-23T00:00	20633	53	-55.8	-84.3	256	6
2023-08-23T00:00	20660	53	-55.8	-84.3	262	5
2023-08-23T00:00	20686	53	-55.8	-84.3	270	5
2023-08-23T00:00	20706	52	-55.9	-84.4	278	5
2023-08-23T00:00	20732	52	-55.9	-84.4	286	5
2023-08-23T00:00	20757	52	-55.7	-84.3	294	6
2023-08-23T00:00	20779	52	-55.5	-84.1	301	6
2023-08-23T00:00	20802	52	-55.5	-84.1	307	6
2023-08-23T00:00	20825	51	-55.5	-84.1	312	7
2023-08-23T00:00	20850	51	-55.5	-84.1	317	7
2023-08-23T00:00	20875	51	-55.6	-84.2	323	7
2023-08-23T00:00	20898	51	-55.6	-84.2	328	7
2023-08-23T00:00	20923	51	-55.6	-84.2	333	7
2023-08-23T00:00	20945	51	-55.7	-84.3	339	7
2023-08-23T00:00	20969	50	-55.8	-84.3	344	6
2023-08-23T00:00	20989	50	-55.8	-84.3	350	5
2023-08-23T00:00	21017	50	-55.6	-84.2	357	5
2023-08-23T00:00	21042	50	-55.6	-84.2	4	4
2023-08-23T00:00	21064	50	-55.6	-84.2	12	3
2023-08-23T00:00	21089	49	-55.5	-84.1	19	3
2023-08-23T00:00	21112	49	-55.5	-84.1	24	3
2023-08-23T00:00	21132	49	-55.5	-84.1	27	3
2023-08-23T00:00	21154	49	-55.4	-84.0	30	3
2023-08-23T00:00	21179	49	-55.4	-84.0	32	3
2023-08-23T00:00	21202	49	-55.4	-84.0	35	3
2023-08-23T00:00	21222	48	-55.6	-84.2	38	3
2023-08-23T00:00	21249	48	-55.6	-84.2	41	3
2023-08-23T00:00	21268	48	-55.7	-84.3	43	3
2023-08-23T00:00	21295	48	-55.8	-84.3	46	3
2023-08-23T00:00	21317	48	-56.0	-84.5	48	3
2023-08-23T00:00	21343	47	-56.1	-84.6	51	3
2023-08-23T00:00	21364	47	-56.0	-84.5	55	3
2023-08-23T00:00	21390	47	-55.9	-84.4	59	2
2023-08-23T00:00	21414	47	-55.8	-84.3	64	2
2023-08-23T00:00	21435	47	-55.7	-84.3	73	1
2023-08-23T00:00	21460	47	-55.8	-84.3	94	1
2023-08-23T00:00	21485	46	-55.9	-84.4	137	1
2023-08-23T00:00	21508	46	-56.1	-84.6	170	1
2023-08-23T00:00	21529	46	-56.1	-84.6	182	1
2023-08-23T00:00	21559	46	-56.2	-84.6	185	1
2023-08-23T00:00	21580	46	-56.0	-84.5	186	1
2023-08-23T00:00	21605	46	-56.0	-84.5	185	1
2023-08-23T00:00	21632	45	-55.7	-84.7	185	1
2023-08-23T00:00	21656	45	-55.4	-84.5	187	0
2023-08-23T00:00	21680	45	-55.4	-84.5	353	0
2023-08-23T00:00	21707	45	-55.4	-84.5	356	1
2023-08-23T00:00	21725	45	-55.2	-84.3	357	1
2023-08-23T00:00	21757	44	-55.0	-84.2	358	1
2023-08-23T00:00	21777	44	-54.9	-84.1	2	1
2023-08-23T00:00	21805	44	-54.9	-84.1	9	1
2023-08-23T00:00	21832	44	-55.0	-84.2	24	1
2023-08-23T00:00	21856	44	-55.2	-84.3	44	1
2023-08-23T00:00	21880	44	-55.2	-84.3	66	1
2023-08-23T00:00	21902	43	-55.2	-84.3	85	1
2023-08-23T00:00	21925	43	-55.2	-84.3	100	2
2023-08-23T00:00	21949	43	-55.2	-84.3	110	2
2023-08-23T00:00	21978	43	-55.2	-84.3	117	2
2023-08-23T00:00	22004	43	-55.0	-84.2	124	2
2023-08-23T00:00	22029	43	-55.0	-84.2	131	3
2023-08-23T00:00	22053	42	-55.1	-84.2	138	3
2023-08-23T00:00	22076	42	-55.1	-84.2	145	3
2023-08-23T00:00	22095	42	-55.0	-84.2	152	3
2023-08-23T00:00	22123	42	-55.0	-84.2	158	3
2023-08-23T00:00	22148	42	-55.1	-84.2	162	3
2023-08-23T00:00	22169	42	-55.2	-83.9	166	2
2023-08-23T00:00	22196	42	-55.3	-84.0	169	2
2023-08-23T00:00	22218	41	-55.3	-84.0	170	1
2023-08-23T00:00	22241	41	-55.4	-84.0	161	0
2023-08-23T00:00	22263	41	-55.3	-84.4	12	0
2023-08-23T00:00	22285	41	-55.3	-84.4	9	1
2023-08-23T00:00	22307	41	-55.4	-84.5	12	2
2023-08-23T00:00	22328	41	-55.5	-84.5	15	2
2023-08-23T00:00	22354	41	-55.2	-84.3	19	2
2023-08-23T00:00	22379	40	-54.9	-84.1	23	2
2023-08-23T00:00	22401	40	-54.8	-84.0	26	2
2023-08-23T00:00	22425	40	-54.7	-83.9	28	1
2023-08-23T00:00	22448	40	-54.7	-83.9	26	1
2023-08-23T00:00	22468	40	-54.8	-84.0	12	1
2023-08-23T00:00	22492	40	-54.8	-84.0	339	0
2023-08-23T00:00	22514	40	-54.8	-84.0	312	1
2023-08-23T00:00	22533	39	-54.9	-84.1	305	1
2023-08-23T00:00	22558	39	-54.8	-84.0	306	1
2023-08-23T00:00	22582	39	-54.7	-83.9	311	2
2023-08-23T00:00	22608	39	-54.7	-83.9	318	2
2023-08-23T00:00	22632	39	-54.7	-83.9	326	2
2023-08-23T00:00	22650	39	-54.7	-83.9	332	3
2023-08-23T00:00	22679	39	-54.8	-84.0	338	3
2023-08-23T00:00	22700	38	-54.7	-83.9	343	3
2023-08-23T00:00	22724	38	-54.7	-83.9	347	3
2023-08-23T00:00	22745	38	-54.7	-83.9	350	3
2023-08-23T00:00	22771	38	-54.8	-84.0	355	4
2023-08-23T00:00	22792	38	-54.8	-84.0	0	4
2023-08-23T00:00	22817	38	-54.9	-84.1	7	4
2023-08-23T00:00	22846	38	-54.8	-84.0	13	5
2023-08-23T00:00	22872	37	-54.8	-84.0	19	5
2023-08-23T00:00	22896	37	-54.9	-84.1	25	6
2023-08-23T00:00	22920	37	-54.9	-84.1	29	6
2023-08-23T00:00	22945	37	-54.8	-84.0	33	6
2023-08-23T00:00	22972	37	-54.8	-84.0	37	6
2023-08-23T00:00	23000	37	-54.8	-84.0	40	7
2023-08-23T00:00	23025	36	-54.8	-84.0	43	7
2023-08-23T00:00	23050	36	-54.9	-84.1	45	6
2023-08-23T00:00	23078	36	-54.9	-84.1	47	6
2023-08-23T00:00	23100	36	-54.5	-84.3	48	6
2023-08-23T00:00	23125	36	-54.4	-84.2	47	5
2023-08-23T00:00	23154	36	-54.4	-84.2	43	5
2023-08-23T00:00	23179	36	-54.4	-84.2	37	4
2023-08-23T00:00	23209	35	-54.4	-84.2	31	4
2023-08-23T00:00	23229	35	-54.5	-84.3	26	4
2023-08-23T00:00	23259	35	-54.5	-84.3	24	4
2023-08-23T00:00	23285	35	-54.3	-84.1	25	3
2023-08-23T00:00	23310	35	-54.3	-84.1	30	3
2023-08-23T00:00	23337	35	-54.2	-84.0	37	3
2023-08-23T00:00	23366	35	-54.2	-84.0	44	3
2023-08-23T00:00	23384	34	-54.1	-84.0	48	3
2023-08-23T00:00	23419	34	-54.0	-83.9	50	3
2023-08-23T00:00	23441	34	-53.9	-83.8	50	3
2023-08-23T00:00	23462	34	-53.7	-83.7	50	4
2023-08-23T00:00	23492	34	-53.7	-83.7	51	4
2023-08-23T00:00	23519	34	-53.7	-83.7	54	4
2023-08-23T00:00	23539	34	-53.6	-83.6	56	4
2023-08-23T00:00	23569	33	-53.6	-83.6	59	4
2023-08-23T00:00	23599	33	-53.5	-83.5	62	4
2023-08-23T00:00	23619	33	-53.5	-83.5	64	3
2023-08-23T00:00	23650	33	-53.6	-83.6	66	3
2023-08-23T00:00	23675	33	-53.8	-83.7	66	2
2023-08-23T00:00	23696	33	-54.0	-83.9	62	2
2023-08-23T00:00	23725	33	-54.0	-83.4	55	2
2023-08-23T00:00	23751	33	-54.1	-83.5	46	2
2023-08-23T00:00	23775	32	-54.2	-83.6	39	1
2023-08-23T00:00	23801	32	-54.3	-83.6	36	2
2023-08-23T00:00	23820	32	-54.2	-84.0	39	2
2023-08-23T00:00	23848	32	-54.2	-84.0	47	2
2023-08-23T00:00	23871	32	-54.2	-84.0	58	2
2023-08-23T00:00	23898	32	-54.2	-84.0	67	2
2023-08-23T00:00	23914	32	-54.1	-84.0	74	2
2023-08-23T00:00	23945	32	-54.0	-83.9	79	2
2023-08-23T00:00	23966	31	-54.0	-83.9	82	2
2023-08-23T00:00	23992	31	-54.2	-84.0	86	2
2023-08-23T00:00	24020	31	-53.9	-83.8	92	1
2023-08-23T00:00	24041	31	-53.8	-83.7	113	1
2023-08-23T00:00	24067	31	-53.9	-83.8	235	1
2023-08-23T00:00	24084	31	-54.0	-83.9	255	1
2023-08-23T00:00	24111	31	-54.0	-83.9	260	2
2023-08-23T00:00	24137	31	-53.9	-83.8	264	2
2023-08-23T00:00	24162	31	-53.8	-83.7	268	3
2023-08-23T00:00	24186	30	-53.9	-83.8	274	3
2023-08-23T00:00	24213	30	-53.9	-83.8	283	2
2023-08-23T00:00	24242	30	-53.8	-83.7	300	2
2023-08-23T00:00	24268	30	-54.0	-83.9	329	2
2023-08-23T00:00	24296	30	-54.0	-83.9	0	2
2023-08-23T00:00	24317	30	-53.9	-83.8	19	2
2023-08-23T00:00	24347	30	-53.8	-83.7	26	2
2023-08-23T00:00	24370	30	-53.8	-84.2	22	2
2023-08-23T00:00	24397	29	-53.6	-84.1	7	2
2023-08-23T00:00	24423	29	-53.2	-83.8	347	2
2023-08-23T00:00	24453	29	-53.2	-83.8	335	3
2023-08-23T00:00	24478	29	-53.1	-83.7	330	3
2023-08-23T00:00	24500	29	-52.9	-83.6	329	4
2023-08-23T00:00	24530	29	-52.8	-83.5	331	5
2023-08-23T00:00	24552	29	-52.8	-83.5	333	5
2023-08-23T00:00	24578	29	-52.8	-83.5	337	5
2023-08-23T00:00	24609	29	-52.7	-83.4	342	5
2023-08-23T00:00	24633	28	-52.7	-83.4	347	5
2023-08-23T00:00	24658	28	-52.9	-83.6	351	5
2023-08-23T00:00	24692	28	-53.1	-83.7	355	5
2023-08-23T00:00	24715	28	-53.2	-83.3	357	6
2023-08-23T00:00	24739	28	-53.1	-83.2	359	6
2023-08-23T00:00	24766	28	-53.1	-83.2	2	6
2023-08-23T00:00	24794	28	-53.1	-83.2	5	6
2023-08-23T00:00	24829	28	-53.1	-83.2	9	6
2023-08-23T00:00	24851	27	-53.2	-83.3	14	6
2023-08-23T00:00	24877	27	-53.3		19	6
2023-08-23T00:00	24902	27	-53.4	-83.4	24	7
2023-08-23T00:00	24930	27	-53.4	-83.4	29	7
2023-08-23T00:00	24950	27	-53.4	-83.4	34	7
2023-08-23T00:00	24979	27	-53.5	-83.5	39	7
2023-08-23T00:00	25006	27	-53.6	-83.6	45	7
2023-08-23T00:00	25028	27	-53.7	-83.7	51	7
2023-08-23T00:00	25058	27	-53.9	-83.8	58	7
2023-08-23T00:00	25088	26	-54.0	-83.9	65	7
2023-08-23T00:00	25108	26	-54.1	-84.0	73	7
2023-08-23T00:00	25130	26	-54.1	-84.0	82	6
2023-08-23T00:00	25161	26	-54.2	-84.0	92	6
2023-08-23T00:00	25186	26	-54.2	-84.0	102	6
2023-08-23T00:00	25207	26	-54.1	-84.0	111	6
2023-08-23T00:00	25238	26	-54.0	-83.9	116	5
2023-08-23T00:00	25258	26	-53.7	-84.2	118	5
2023-08-23T00:00	25279	26	-53.6	-84.1	115	5
2023-08-23T00:00	25299	26	-53.6	-84.1	109	4
2023-08-23T00:00	25326	25	-53.6	-84.1	102	4
2023-08-23T00:00	25349	25	-53.6	-84.1	96	4
2023-08-23T00:00	25373	25	-53.6	-84.1	94	3
2023-08-23T00:00	25399	25	-53.6	-83.6	95	3
2023-08-23T00:00	25425	25	-53.6	-83.6	98	3
2023-08-23T00:00	25443	25	-53.6	-84.1	101	2
2023-08-23T00:00	25483	25	-53.7	-84.2	97	1
2023-08-23T00:00	25507	25	-53.7	-84.2	56	1
2023-08-23T00:00	25534	25	-53.6	-84.1	351	1
2023-08-23T00:00	25555	25	-53.1	-83.7	340	2
2023-08-23T00:00	25584	25	-52.7	-84.0	341	3
2023-08-23T00:00	25596	24	-52.5	-83.8	346	4
2023-08-23T00:00	25626	24	-52.1	-83.5	352	4
2023-08-23T00:00	25653	24	-51.9	-83.4	359	5
2023-08-23T00:00	25685	24	-51.8	-83.3	5	5
2023-08-23T00:00	25707	24	-51.8	-83.3	10	6
2023-08-23T00:00	25732	24	-51.7	-83.2	14	6
2023-08-23T00:00	25761	24	-51.6	-83.2	18	6
2023-08-23T00:00	25780	24	-51.6	-83.2	22	6
2023-08-23T00:00	25807	24	-51.5	-83.1	27	6
2023-08-23T00:00	25831	24	-51.3	-82.9	34	5
2023-08-23T00:00	25856	23	-51.3	-82.9	41	5
2023-08-23T00:00	25884	23	-51.2	-82.9	50	5
2023-08-23T00:00	25907	23	-51.3	-82.9	59	4
2023-08-23T00:00	25933	23	-51.1	-82.8	68	4
2023-08-23T00:00	25957	23	-50.8	-82.6	75	4
2023-08-23T00:00	25983	23	-50.7	-82.5	81	4
2023-08-23T00:00	26012	23	-50.7	-82.5	83	4
2023-08-23T00:00	26037	23	-50.4	-82.3	82	3
2023-08-23T00:00	26069	23	-50.4	-82.3	76	3
2023-08-23T00:00	26097	23	-50.2	-82.1	65	3
2023-08-23T00:00	26119	23	-50.3	-82.2	54	3
2023-08-23T00:00	26143	22	-50.2	-82.1	44	3
2023-08-23T00:00	26165	22	-50.3	-82.2	39	3
2023-08-23T00:00	26198	22	-50.4	-82.3	36	4
2023-08-23T00:00	26220	22	-50.5		36	4
2023-08-23T00:00	26252	22	-50.6	-82.4	37	4
2023-08-23T00:00	26269	22	-50.5		39	4
2023-08-23T00:00	26298	22	-50.5		43	5
2023-08-23T00:00	26325	22	-50.5		47	5
2023-08-23T00:00	26347	22	-50.4	-82.3	52	5
2023-08-23T00:00	26379	22	-50.3	-82.2	57	5
2023-08-23T00:00	26407	22	-50.3	-82.2	60	5
2023-08-23T00:00	26430	22	-50.4	-82.3	61	5
2023-08-23T00:00	26451	21	-50.4	-82.3	58	5
2023-08-23T00:00	26482	21	-50.4	-82.3	56	5
2023-08-23T00:00	26503	21	-50.3	-82.2	55	5
2023-08-23T00:00	26529	21	-50.5		58	5
2023-08-23T00:00	26558	21	-50.5		64	5
2023-08-23T00:00	26574	21	-50.4	-82.3	73	5
2023-08-23T00:00	26607	21	-50.4	-82.3	82	5
2023-08-23T00:00	26635	21	-50.3	-82.2	89	5
2023-08-23T00:00	26655	21	-50.2	-82.1	95	5
2023-08-23T00:00	26684	21	-50.0	-82.6	99	4
2023-08-23T00:00	26702	21	-49.9	-82.5	102	4
2023-08-23T00:00	26739	21	-49.7	-82.4	103	4
2023-08-23T00:00	26766	20	-49.5	-82.3	101	3
2023-08-23T00:00	26783	20	-49.2	-82.0	94	3
2023-08-23T00:00	26811	20	-49.0	-81.9	83	2
2023-08-23T00:00	26834	20	-48.9	-81.8	69	2
2023-08-23T00:00	26859	20	-49.0	-81.9	55	2
2023-08-23T00:00	26882	20	-49.1	-82.0	42	2
2023-08-23T00:00	26913	20	-49.0	-81.9	31	2
2023-08-23T00:00	26937	20	-49.0	-81.9	20	2
2023-08-23T00:00	26962	20	-49.0	-81.9	11	2
2023-08-23T00:00	26990	20	-48.9	-81.8	4	3
2023-08-23T00:00	27012	20	-48.8	-81.7	2	3
2023-08-23T00:00	27029	20	-48.7	-81.7	2	3
2023-08-23T00:00	27068	20	-48.8	-81.7	5	4
2023-08-23T00:00	27099	19	-48.7	-81.7	10	4
2023-08-23T00:00	27116	19	-48.8	-81.7	14	4
2023-08-23T00:00	27144	19	-48.7	-81.7	18	4
2023-08-23T00:00	27170	19	-48.6	-81.6	23	4
2023-08-23T00:00	27209	19	-48.6	-81.6	27	4
2023-08-23T00:00	27237	19	-48.4	-81.4	31	4
2023-08-23T00:00	27265	19	-48.4	-81.4	34	4
2023-08-23T00:00	27279	19	-48.4	-81.4	37	4
2023-08-23T00:00	27318	19	-48.3	-81.4	39	4
2023-08-23T00:00	27343	19	-48.2	-81.3	41	4
2023-08-23T00:00	27368	19	-48.3	-81.4	42	4
2023-08-23T00:00	27386	19	-48.3	-81.4	43	4
2023-08-23T00:00	27425	19	-48.2	-81.3	45	5
2023-08-23T00:00	27449	18	-48.2	-81.3	47	5
2023-08-23T00:00	27478	18	-48.1	-81.2	48	4
2023-08-23T00:00	27497	18	-47.8	-81.0	49	4
2023-08-23T00:00	27538	18	-47.8	-81.7	50	4
2023-08-23T00:00	27558	18	-47.8	-81.7	50	4
2023-08-23T00:00	27587	18	-47.6	-81.6	50	4
2023-08-23T00:00	27613	18	-47.5	-81.5	51	4
2023-08-23T00:00	27643	18	-47.5	-81.5	53	4
2023-08-23T00:00	27670	18	-47.4	-81.4	57	4
2023-08-23T00:00	27694	18	-47.4	-81.4	64	3
2023-08-23T00:00	27721	18	-47.3	-81.4	73	3
2023-08-23T00:00	27735	18	-47.3	-81.4	83	3
2023-08-23T00:00	27775	18	-47.1	-81.2	92	3
2023-08-23T00:00	27807	17	-47.1	-81.2	99	3
2023-08-23T00:00	27823	17	-47.0	-81.1	100	3
2023-08-23T00:00	27842	17	-47.0	-81.1	96	3
2023-08-23T00:00	27872	17	-46.8	-81.0	87	3
2023-08-23T00:00	27907	17	-46.6	-80.9	74	3
2023-08-23T00:00	27930	17	-46.5	-80.8	61	3
2023-08-23T00:00	27952	17	-46.3	-80.6	50	3
2023-08-23T00:00	27985	17	-46.3	-80.6	41	3
2023-08-23T00:00	28009	17	-46.3	-80.6	35	4
2023-08-23T00:00	28029	17	-46.3	-80.6	31	4
2023-08-23T00:00	28055	17	-46.2	-80.6	30	5
2023-08-23T00:00	28069	17	-46.2	-80.6	30	6
2023-08-23T00:00	28103	17	-46.2	-80.6	31	7
2023-08-23T00:00	28128	17	-46.1	-80.5	34	7
2023-08-23T00:00	28154	17	-46.0	-80.4	37	7
2023-08-23T00:00	28176	17	-46.0	-80.4	43	7
2023-08-23T00:00	28195	16	-46.1	-80.5	49	6
2023-08-23T00:00	28222	16	-46.0	-80.4	57	6
2023-08-23T00:00	28249	16	-45.8	-80.3	65	5
2023-08-23T00:00	28271	16	-45.8	-80.3	75	5
2023-08-23T00:00	28301	16	-45.6	-80.1	86	4
2023-08-23T00:00	28316	16	-45.6	-80.1	98	4
2023-08-23T00:00	28351	16	-45.6	-80.1	111	4
2023-08-23T00:00	28377	16	-45.7	-80.2	121	4
2023-08-23T00:00	28402	16	-45.8	-80.3	127	4
2023-08-23T00:00	28434	16	-45.7	-80.2	132	4
2023-08-23T00:00	28450	16	-45.3	-80.7	137	4
2023-08-23T00:00	28477	16	-45.2	-80.7	146	4
2023-08-23T00:00	28510	16	-45.0	-80.5	158	4
2023-08-23T00:00	28534	16	-44.7	-80.3	173	4
2023-08-23T00:00	28566	16	-44.7	-80.3	185	5
2023-08-23T00:00	28593	16	-44.7	-80.3	195	5
2023-08-23T00:00	28610	15	-44.5	-80.1	202	5
2023-08-23T00:00	28636	15	-44.3	-80.0	208	5
2023-08-23T00:00	28668	15	-44.2	-79.9	213	5
2023-08-23T00:00	28697	15	-44.2	-79.9	218	4
2023-08-23T00:00	28735	15	-44.1	-79.9	225	4
2023-08-23T00:00	28760	15	-44.0	-79.8	232	3
2023-08-23T00:00	28765	15	-43.8	-79.6	241	2
2023-08-23T00:00	28803	15	-43.6	-79.5	253	1
2023-08-23T00:00	28828	15	-43.5	-79.4	271	1
2023-08-23T00:00	28841	15	-43.3	-79.3	290	1
2023-08-23T00:00	28875	15	-43.2	-79.2	306	1
2023-08-23T00:00	28904	15	-43.1		324	1
2023-08-23T00:00	28920	15	-43.0	-79.1	2	0
2023-08-23T00:00	28954	15	-42.9	-79.0	51	1
2023-08-23T00:00	28989	15	-42.8	-78.9	73	1
2023-08-23T00:00	29014	15	-42.8	-78.9	84	1
2023-08-23T00:00	29040	15	-42.8	-78.9	94	1
2023-08-23T00:00	29067	14	-42.8	-78.9	112	1
2023-08-23T00:00	29087	14	-42.8	-78.9	154	1
2023-08-23T00:00	29115	14	-42.7	-78.9	202	1
2023-08-23T00:00	29141	14	-42.8	-78.9	225	1
2023-08-23T00:00	29176	14	-42.7	-78.9	238	2
2023-08-23T00:00	29187	14	-42.7	-78.9	247	2
2023-08-23T00:00	29213	14	-42.7	-78.9	254	2
2023-08-23T00:00	29235	14	-42.5	-78.7	259	2
2023-08-23T00:00	29260	14	-42.3	-79.5	262	2
2023-08-23T00:00	29284	14	-42.4	-79.6	263	2
2023-08-23T00:00	29310	14	-42.5	-79.7	265	2
2023-08-23T00:00	29335	14	-42.3	-79.5	267	2
2023-08-23T00:00	29362	14	-42.3	-79.5	272	2
2023-08-23T00:00	29390	14	-42.1	-79.4	285	1
2023-08-23T00:00	29412	14	-42.2	-78.5	319	1
2023-08-23T00:00	29442	14	-42.3		10	1
2023-08-23T00:00	29469	14	-42.4	-78.7	33	1
2023-08-23T00:00	29492	14	-42.5	-78.7	43	2
2023-08-23T00:00	29513	14	-42.6	-78.8	49	3
2023-08-23T00:00	29536	13	-42.7	-78.9	54	3
2023-08-23T00:00	29563	13	-42.8	-78.9	59	4
2023-08-23T00:00	29583	13	-42.9	-79.0	64	4
2023-08-23T00:00	29618	13	-43.0	-79.1	69	4
2023-08-23T00:00	29633	13	-43.0	-79.1	73	5
2023-08-23T00:00	29674	13	-43.0	-79.1	77	5
2023-08-23T00:00	29692	13	-42.9	-79.0	80	5
2023-08-23T00:00	29715	13	-42.9	-79.0	84	5
2023-08-23T00:00	29754	13	-42.8	-78.9	90	5
2023-08-23T00:00	29772	13	-42.8	-79.9	97	5
2023-08-23T00:00	29780	13	-42.6	-79.7	104	6
2023-08-23T00:00	29822	13	-42.5	-79.7	111	6
2023-08-23T00:00	29846	13	-42.4	-79.6	118	6
2023-08-23T00:00	29875	13	-42.2	-79.5	125	6
2023-08-23T00:00	29904	13	-42.0	-79.3	132	6
2023-08-23T00:00	29911	13	-42.0	-79.3	139	6
2023-08-23T00:00	29945	13	-42.0	-79.3	145	6
2023-08-23T00:00	29995	13	-41.9	-79.2	152	5
2023-08-23T00:00	30005	13	-41.9	-79.2	158	5
2023-08-23T00:00	30044	13	-41.9	-79.2	164	4
2023-08-23T00:00	30072	12	-42.0	-79.3	168	4
2023-08-23T00:00	30102	12	-41.7	-79.1	170	3
2023-08-23T00:00	30126	12	-41.7	-79.1	169	2
2023-08-23T00:00	30157	12	-41.7	-79.1	163	2
2023-08-23T00:00	30179	12	-41.5	-79.0	154	2
2023-08-23T00:00	30226	12	-41.5	-79.0	143	1
2023-08-23T00:00	30248	12	-41.4	-78.9	136	1
2023-08-23T00:00	30296	12	-41.3	-78.8	133	1
2023-08-23T00:00	30310	12	-41.3	-78.8	137	1
2023-08-23T00:00	30347	12	-41.3	-78.8	150	1
2023-08-23T00:00	30368	12	-41.2	-78.8	172	1
2023-08-23T00:00	30391	12	-41.1	-78.7	195	1
2023-08-23T00:00	30431	12	-41.2	-78.8	211	1
2023-08-23T00:00	30452	12	-41.2	-78.8	217	1
2023-08-23T00:00	30489	12	-41.2	-78.8	217	1
2023-08-23T00:00	30526	12	-41.2	-78.8	209	0
2023-08-23T00:00	30545	12	-41.3	-78.8	160	0
2023-08-23T00:00	30559	12	-41.4	-78.9	23	0
2023-08-23T00:00	30609	12	-41.5	-79.0	5	1
2023-08-23T00:00	30633	11	-41.4	-78.9	353	1
2023-08-23T00:00	30654	11	-41.3	-78.8	346	1
2023-08-23T00:00	30700	11	-41.3	-78.8	344	2
2023-08-23T00:00	30707	11	-41.1	-78.7	346	2
2023-08-23T00:00	30757	11	-41.0	-78.6	351	2
2023-08-23T00:00	30762	11	-40.9		359	2
2023-08-23T00:00	30786	11	-41.0	-78.6	8	2
2023-08-23T00:00	30832	11	-41.1	-78.7	16	2
2023-08-23T00:00	30856	11	-41.1	-78.7	23	2
2023-08-23T00:00	30884	11	-41.3	-78.8	32	2
2023-08-23T00:00	30896	11	-41.4	-78.9	44	2
2023-08-23T00:00	30928	11	-41.2	-78.8	64	1
2023-08-23T00:00	30946	11	-41.1	-78.7	89	1
2023-08-23T00:00	30956	11	-41.2	-78.8	111	2
2023-08-23T00:00	30994	11	-41.3	-78.8	125	2
2023-08-23T00:00	31029	11	-41.2	-78.8	133	2
2023-08-23T00:00	31048	11	-41.1	-78.7	137	2
2023-08-23T00:00	31078	11	-41.1	-78.7	140	2
2023-08-23T00:00	31098	11	-41.1	-78.7	143	2
2023-08-23T00:00	31127	11	-41.1	-78.7	146	2
2023-08-23T00:00	31144	11	-41.1	-78.7	150	2
2023-08-23T00:00	31170	11	-41.1	-78.7	156	2
2023-08-23T00:00	31185	11	-41.1	-78.7	162	2
2023-08-23T00:00	31207	11	-41.1	-78.7	170	1
2023-08-23T00:00	31251	11	-41.1	-78.7	178	1
2023-08-23T00:00	31288	10	-40.8	-78.5	205	1
2023-08-23T00:00	31320	10	-40.7	-78.4	256	0
2023-08-23T00:00	31335	10	-40.3	-79.2	324	1
2023-08-23T00:00	31344	10	-40.2	-79.2	340	2
2023-08-23T00:00	31368	10	-40.1	-79.1	347	2
2023-08-23T00:00	31418	10	-40.2	-79.2	350	3
2023-08-23T00:00	31435	10	-40.2	-79.2	352	4
2023-08-23T00:00	31457	10	-40.2	-79.2	354	5
2023-08-23T00:00	31477	10	-39.7	-78.8	355	6
2023-08-23T00:00	31488	10	-39.7	-78.8	357	7
2023-08-23T00:00	31533	10	-39.4	-78.6	358	7
2023-08-23T00:00	31564	10	-39.3	-78.5	360	7
2023-08-23T00:00	31583	10	-39.3	-78.5	2	7
2023-08-23T00:00	31605	10	-39.2	-78.5	6	6
2023-08-23T00:00	31631	10	-39.1	-78.4	11	6
2023-08-23T00:00	31663	10	-39.0	-78.3	19	5
2023-08-23T00:00	31697	10	-39.0	-78.3	31	4
2023-08-23T00:00	31724	10	-39.1	-78.4	46	4
2023-08-23T00:00	31749	10	-39.2	-78.5	63	4
2023-08-23T00:00	31776	10	-39.2	-78.5	78	4
2023-08-23T00:00	31815	10	-39.4	-78.6	92	4
2023-08-23T00:00	31837	10	-39.6	-77.6	103	5
2023-08-23T00:00	31875	10	-39.7	-77.7	112	5
2023-08-23T00:00	31891	10	-39.9	-77.8	119	5
2023-08-23T00:00	31922	10	-40.0	-77.9	124	6
2023-08-23T00:00	31951	9	-40.2	-78.0	127	6
2023-08-23T00:00	31983	9	-40.3	-78.1	130	6
2023-08-23T00:00	31989	9	-40.5	-78.3	133	6
2023-08-23T00:00	32043	9	-40.6	-78.3	136	6
2023-08-23T00:00	32068	9	-40.8	-78.5	140	6
2023-08-23T00:00	32084	9	-40.9		144	6
2023-08-23T00:00	32121	9	-40.9		148	5
2023-08-23T00:00	32172	9	-40.9		154	5
2023-08-23T00:00	32173	9	-41.0	-78.6	160	4
2023-08-23T00:00	32215	9	-40.9		168	3
2023-08-23T00:00	32245	9	-40.9		180	3
2023-08-23T00:00	32259	9	-40.7	-78.4	194	3
2023-08-23T00:00	32297	9	-40.8	-78.5	211	2
2023-08-23T00:00	32328	9	-40.8	-78.5	226	2
2023-08-23T00:00	32360	9	-40.9		246	3
2023-08-23T00:00	32401	9	-40.9		253	3
2023-08-23T00:00	32413	9	-40.8	-78.5	259	3
2023-08-23T00:00	32432	9	-40.7	-79.5	264	3
2023-08-23T00:00	32451	9	-40.5	-79.4	268	3
2023-08-23T00:00	32486	9	-40.4	-79.3	271	4
2023-08-23T00:00	32506	9	-40.4	-79.3	273	4
2023-08-23T00:00	32512	9	-40.4	-79.3	274	4
2023-08-23T00:00	32539	9	-40.3	-79.2	275	3
2023-08-23T00:00	32558	9	-40.2	-79.2	276	3
2023-08-23T00:00	32584	9	-40.1	-79.1	278	2
2023-08-23T00:00	32608	9	-40.0	-79.0	284	2
2023-08-23T00:00	32646	9	-39.8	-78.9	293	1
2023-08-23T00:00	32661	9	-39.8	-78.9	301	2
2023-08-23T00:00	32684	9	-39.7	-78.8	305	2
2023-08-23T00:00	32702	8	-39.7	-78.8	309	2
2023-08-23T00:00	32731	8	-39.6	-78.8	313	2
2023-08-23T00:00	32741	8	-39.6	-78.8	321	2
2023-08-23T00:00	32767	8	-39.7	-78.8	336	2
2023-08-23T00:00	32797	8	-39.7	-78.8	357	1
2023-08-23T00:00	32808	8	-39.7	-78.8	19	2
2023-08-23T00:00	32865	8	-39.7	-78.8	37	2
2023-08-23T00:00	32898	8	-39.9	-79.0	65	2
2023-08-23T00:00	32924	8	-40.0	-79.0	74	3
2023-08-23T00:00	32935	8	-40.2	-79.2	82	3
2023-08-23T00:00	32988	8	-40.3	-79.2	87	4
2023-08-23T00:00	33004	8	-40.4	-79.3	91	4
2023-08-23T00:00	33028	8	-40.3	-79.2	94	5
2023-08-23T00:00	33061	8	-40.2	-79.2	96	5
2023-08-23T00:00	33087	8	-40.2	-79.2	99	5
2023-08-23T00:00	33118	8	-40.2	-79.2	102	5
2023-08-23T00:00	33153	8	-40.3	-79.2	106	5
2023-08-23T00:00	33162	8	-40.3	-79.2	111	5
2023-08-23T00:00	33200	8	-40.3	-79.2	116	5
2023-08-23T00:00	33224	8	-40.3	-79.2	121	5
2023-08-23T00:00	33229	8	-40.3	-79.2	125	5
2023-08-23T00:00	33255	8	-40.3	-79.2	130	5
2023-08-23T00:00	33286	8	-40.3	-79.2	134	5
2023-08-23T00:00	33307	8	-40.3	-79.2	138	5
2023-08-23T00:00	33368	8	-40.3	-79.2	143	5
2023-08-23T00:00	33391	8	-40.6	-79.5	151	5
2023-08-23T00:00	33438	8	-40.8	-78.5	153	6
2023-08-23T00:00	33463	8	-41.0	-78.6	155	6
2023-08-23T00:00	33477	8	-41.1	-78.7	156	5
2023-08-23T00:00	33495	8	-41.1	-78.7	156	5
2023-08-23T00:00	33535	8	-41.2	-78.8	156	4
2023-08-23T00:00	33557	7	-41.2	-78.8	154	4
2023-08-23T00:00	33563	7	-41.2	-78.8	151	3
2023-08-23T00:00	33595	7	-41.3	-78.8	146	2
2023-08-23T00:00	33642	7	-41.4	-78.9	139	1
2023-08-23T00:00	33686	7	-41.3	-78.8	135	1
2023-08-23T00:00	33700	7	-41.0	-79.7	276	1
2023-08-23T06:00	116	1006	16.3	14.9	243	2
2023-08-23T06:00	143	1003	17.5	13.9	245	2
2023-08-23T06:00	166	1000	18.4	13.5	244	3
2023-08-23T06:00	190	997	18.9	12.7	245	4
2023-08-23T06:00	216	994	19.4	10.8	246	4
2023-08-23T06:00	242	991	19.6	10.7	247	4
2023-08-23T06:00	266	988	19.7	10.3	246	4
2023-08-23T06:00	295	985	19.7	9.1	244	4
2023-08-23T06:00	316	983	19.9	5.1	241	3
2023-08-23T06:00	339	980	19.9	8.1	237	3
2023-08-23T06:00	363	977	19.8	8.6	236	3
2023-08-23T06:00	380	975	19.6	9.5	240	2
2023-08-23T06:00	406	972	19.5	10.0	248	2
2023-08-23T06:00	431	969	19.2	10.7	257	3
2023-08-23T06:00	456	967	19.0	11.5	264	3
2023-08-23T06:00	482	964	18.8	11.3	269	3
2023-08-23T06:00	504	961	18.7	11.2	269	3
2023-08-23T06:00	530	959	18.6	11.1	267	3
2023-08-23T06:00	553	956	18.4	11.1	261	2
2023-08-23T06:00	572	954	18.2	11.2	254	2
2023-08-23T06:00	593	951	18.0	11.4	250	3
2023-08-23T06:00	617	949	17.8	11.3	249	3
2023-08-23T06:00	637	947	17.6	11.3	252	3
2023-08-23T06:00	659	944	17.4	11.4	257	3
2023-08-23T06:00	688	941	17.2	11.5	262	2
2023-08-23T06:00	711	938	17.0	11.4	266	2
2023-08-23T06:00	734	936	16.8	11.3	267	2
2023-08-23T06:00	757	933	16.6	11.4	265	2
2023-08-23T06:00	779	931	16.4	11.2	261	2
2023-08-23T06:00	803	928	16.2	11.1	258	2
2023-08-23T06:00	823	926	16.0	11.1	260	2
2023-08-23T06:00	849	923	15.9	10.6	265	2
2023-08-23T06:00	872	921	15.7	10.5	271	2
2023-08-23T06:00	894	918	15.5		277	3
2023-08-23T06:00	918	916	15.3	9.9	283	3
2023-08-23T06:00	940	913	15.1	10.3	289	2
2023-08-23T06:00	962	911	14.9	9.8	297	2
2023-08-23T06:00	986	909	14.7	9.9	306	2
2023-08-23T06:00	1011	906	14.5	10.2	315	2
2023-08-23T06:00	1034	903	14.2	10.6	326	2
2023-08-23T06:00	1057	901	13.9	10.9	338	1
2023-08-23T06:00	1078	899	13.7	11.0	350	1
2023-08-23T06:00	1097	897	13.5	10.9	356	1
2023-08-23T06:00	1120	894	13.3	10.9	351	1
2023-08-23T06:00	1148	891	13.1	10.9	339	1
2023-08-23T06:00	1186	888	12.8	9.9	321	1
2023-08-23T06:00	1204	885	12.6	9.9	300	1
2023-08-23T06:00	1224	883	12.5	9.7	275	1
2023-08-23T06:00	1246	881	12.3	9.6	255	1
2023-08-23T06:00	1273	878	12.0	9.2	243	1
2023-08-23T06:00	1303	875	11.8	9.2	243	1
2023-08-23T06:00	1327	872	11.6	9.1	254	1
2023-08-23T06:00	1354	870	11.3	9.1	279	1
2023-08-23T06:00	1378	867	11.0	9.4	304	1
2023-08-23T06:00	1399	865	10.8	9.9	318	1
2023-08-23T06:00	1426	862	10.5	10.1	323	1
2023-08-23T06:00	1450	860	10.3	10.0	324	1
2023-08-23T06:00	1475	857	10.1	9.9	325	1
2023-08-23T06:00	1504	854	9.8	9.7	327	1
2023-08-23T06:00	1527	852	9.6	9.0	347	0
2023-08-23T06:00	1551	850	9.5	8.6	153	0
2023-08-23T06:00	1569	848	9.4	7.8	181	0
2023-08-23T06:00	1587	846	9.4	7.2	231	1
2023-08-23T06:00	1611	843	9.3	6.6	261	1
2023-08-23T06:00	1635	841	9.3	5.7	274	2
2023-08-23T06:00	1661	838	9.2	4.5	281	3
2023-08-23T06:00	1681	836	9.2	3.8	285	4
2023-08-23T06:00	1703	834	9.1	2.6	288	5
2023-08-23T06:00	1728	832	9.1	1.8	290	5
2023-08-23T06:00	1749	829	8.9	1.5	290	5
2023-08-23T06:00	1769	827	8.8	1.4	288	5
2023-08-23T06:00	1794	825	8.7	0.4	284	5
2023-08-23T06:00	1814	823	8.7	-0.5	280	6
2023-08-23T06:00	1845	820	8.7	-1.4	277	6
2023-08-23T06:00	1867	818	8.7	-2.4	276	6
2023-08-23T06:00	1891	815	8.7	-2.9	276	7
2023-08-23T06:00	1918	813	8.5	-3.7	277	7
2023-08-23T06:00	1937	811	8.5	-4.4	280	7
2023-08-23T06:00	1958	809	8.6	-5.0	282	7
2023-08-23T06:00	1982	806	8.5	-5.6	284	7
2023-08-23T06:00	2001	804	8.4	-5.4	284	8
2023-08-23T06:00	2026	802	8.4	-5.8	284	8
2023-08-23T06:00	2047	800	8.3	-6.5	284	8
2023-08-23T06:00	2068	798	8.5	-7.7	283	9
2023-08-23T06:00	2093	796	8.4	-2.8	282	9
2023-08-23T06:00	2115	793	8.2	0.0	281	9
2023-08-23T06:00	2139	791	8.0	-1.1	279	9
2023-08-23T06:00	2162	789	7.9	-1.6	279	9
2023-08-23T06:00	2184	787	7.7	-0.1	279	9
2023-08-23T06:00	2212	784	7.4	-0.3	280	9
2023-08-23T06:00	2239	782	7.3	-0.2	284	9
2023-08-23T06:00	2262	779	7.2	-1.8	287	9
2023-08-23T06:00	2282	777	7.4	-8.1	291	9
2023-08-23T06:00	2306	775	7.4	-7.9	293	9
2023-08-23T06:00	2327	773	7.3	-6.2	293	10
2023-08-23T06:00	2350	771	7.2	-5.1	293	10
2023-08-23T06:00	2376	769	7.3	-11.2	292	10
2023-08-23T06:00	2399	766	7.9	-29.1	291	11
2023-08-23T06:00	2427	764	8.0	-26.1	289	11
2023-08-23T06:00	2453	762	8.1	-26.6	288	12
2023-08-23T06:00	2475	760	8.0	-28.1	287	13
2023-08-23T06:00	2496	757	7.8	-25.0	286	13
2023-08-23T06:00	2521	755	7.6	-26.5	286	14
2023-08-23T06:00	2542	753	7.6	-27.1	286	14
2023-08-23T06:00	2566	751	7.5	-29.2	285	14
2023-08-23T06:00	2585	749	7.4	-16.0	283	14
2023-08-23T06:00	2615	747	7.3	-14.2	281	14
2023-08-23T06:00	2641	744	7.4	-22.7	280	14
2023-08-23T06:00	2659	743	7.5	-30.7	280	14
2023-08-23T06:00	2683	741	7.4	-25.8	280	14
2023-08-23T06:00	2703	739	7.3	-21.9	281	14
2023-08-23T06:00	2723	737	7.0	-15.7	282	14
2023-08-23T06:00	2745	735	6.9	-15.5	283	15
2023-08-23T06:00	2773	732	6.8	-17.1	283	15
2023-08-23T06:00	2797	730	6.9	-24.9	283	15
2023-08-23T06:00	2823	728	7.0	-27.7	283	15
2023-08-23T06:00	2845	726	6.9	-29.8	283	15
2023-08-23T06:00	2874	724	6.9	-31.1	283	15
2023-08-23T06:00	2895	722	6.9	-31.4	282	15
2023-08-23T06:00	2924	719	6.8	-32.1	282	15
2023-08-23T06:00	2947	717	6.8	-32.7	282	15
2023-08-23T06:00	2964	715	6.7	-32.1	282	15
2023-08-23T06:00	2987	714	6.7	-29.9	282	15
2023-08-23T06:00	3009	711	6.5	-18.3	282	15
2023-08-23T06:00	3035	709	6.2	-16.6	282	16
2023-08-23T06:00	3064	707	6.0	-15.4	282	16
2023-08-23T06:00	3091	705	5.8	-15.7	282	16
2023-08-23T06:00	3111	703	5.6	-16.9	282	16
2023-08-23T06:00	3135	701	5.5	-18.4	281	16
2023-08-23T06:00	3160	698	5.4	-19.0	282	16
2023-08-23T06:00	3191	696	5.2	-19.0	283	16
2023-08-23T06:00	3220	694	5.0	-18.9	284	16
2023-08-23T06:00	3244	692	4.7	-18.8	285	16
2023-08-23T06:00	3265	690	4.6	-17.6	285	16
2023-08-23T06:00	3286	688	4.4	-16.3	285	16
2023-08-23T06:00	3314	686	4.1	-14.3	285	16
2023-08-23T06:00	3336	684	3.8	-11.1	284	17
2023-08-23T06:00	3358	682	3.6	-10.7	283	17
2023-08-23T06:00	3385	680	3.4	-10.7	282	17
2023-08-23T06:00	3408	678	3.2	-11.3	281	17
2023-08-23T06:00	3428	676	3.0	-11.2	280	17
2023-08-23T06:00	3459	673	2.8	-12.1	280	17
2023-08-23T06:00	3484	671	2.6	-13.9	280	16
2023-08-23T06:00	3507	669	2.4	-12.2	281	16
2023-08-23T06:00	3529	667	2.2	-9.1	281	17
2023-08-23T06:00	3553	665	2.1	-9.1	280	17
2023-08-23T06:00	3584	663	1.8	-9.0	279	17
2023-08-23T06:00	3608	661	1.6	-9.4	277	16
2023-08-23T06:00	3635	659	1.4	-9.0	276	16
2023-08-23T06:00	3655	657	1.2	-9.4	275	15
2023-08-23T06:00	3679	655	1.2	-17.5	276	15
2023-08-23T06:00	3702	653	1.0	-10.5	277	15
2023-08-23T06:00	3727	651	0.7	-10.9	279	15
2023-08-23T06:00	3756	649	0.4		280	15
2023-08-23T06:00	3788	647	0.1	-8.8	280	16
2023-08-23T06:00	3814	644	-0.1	-9.5	280	16
2023-08-23T06:00	3845	642	-0.4	-10.3	280	17
2023-08-23T06:00	3871	640	-0.6	-10.2	280	17
2023-08-23T06:00	3892	638	-0.8	-9.9	281	17
2023-08-23T06:00	3913	636	-1.0	-8.9	283	16
2023-08-23T06:00	3942	634	-1.2	-12.4	284	16
2023-08-23T06:00	3971	632	-1.1	-19.5	285	16
2023-08-23T06:00	3989	630	-1.2	-19.1	285	16
2023-08-23T06:00	4014	628	-1.3	-19.5	285	16
2023-08-23T06:00	4041	626	-1.2	-20.6	284	16
2023-08-23T06:00	4059	625	-1.3	-18.9	284	16
2023-08-23T06:00	4078	623	-1.5	-14.1	283	16
2023-08-23T06:00	4100	622	-1.6	-13.7	283	16
2023-08-23T06:00	4125	620	-1.8	-13.7	283	15
2023-08-23T06:00	4146	618	-1.9	-14.3	283	15
2023-08-23T06:00	4174	616	-2.0	-15.0	283	15
2023-08-23T06:00	4202	614	-2.1	-15.7	283	15
2023-08-23T06:00	4224	612	-2.2	-16.2	283	16
2023-08-23T06:00	4246	610	-2.2	-16.9	283	16
2023-08-23T06:00	4274	608	-2.3	-17.4	283	16
2023-08-23T06:00	4298	606	-2.3	-18.2	283	16
2023-08-23T06:00	4325	604	-2.5	-18.4	284	16
2023-08-23T06:00	4347	603	-2.5	-19.3	284	16
2023-08-23T06:00	4371	601	-2.6	-19.4	284	16
2023-08-23T06:00	4400	599	-2.8	-19.6	285	16
2023-08-23T06:00	4429	596	-2.9	-19.9	285	16
2023-08-23T06:00	4451	595	-2.9	-20.5	285	16
2023-08-23T06:00	4473	593	-3.0	-21.4	285	16
2023-08-23T06:00	4496	591	-3.1	-20.6	285	15
2023-08-23T06:00	4516	590	-3.2	-20.6	285	15
2023-08-23T06:00	4541	588	-3.4	-20.5	285	15
2023-08-23T06:00	4573	586	-3.7	-20.6	285	16
2023-08-23T06:00	4599	584	-3.9		284	16
2023-08-23T06:00	4616	582	-4.0	-20.7	285	17
2023-08-23T06:00	4636	581	-4.2	-20.9	285	17
2023-08-23T06:00	4659	579	-4.4	-21.1	287	16
2023-08-23T06:00	4688	577	-4.6	-20.9	288	16
2023-08-23T06:00	4717	575	-4.9	-20.9	289	16
2023-08-23T06:00	4747	573	-5.1	-20.7	289	16
2023-08-23T06:00	4772	571	-5.2	-21.3	289	16
2023-08-23T06:00	4790	570	-5.3	-21.8	288	16
2023-08-23T06:00	4809	568	-5.5	-21.2	287	17
2023-08-23T06:00	4830	567	-5.6	-20.2	287	17
2023-08-23T06:00	4858	565	-5.6	-21.8	287	17
2023-08-23T06:00	4882	563	-5.6	-22.9	287	18
2023-08-23T06:00	4908	561	-5.8	-22.9	287	18
2023-08-23T06:00	4926	560	-5.9	-23.2	287	18
2023-08-23T06:00	4944	559	-6.1	-22.9	287	19
2023-08-23T06:00	4964	557	-6.2	-22.7	287	19
2023-08-23T06:00	4987	555	-6.4	-22.3	287	19
2023-08-23T06:00	5013	554	-6.6	-22.2	288	19
2023-08-23T06:00	5039	552	-6.9	-22.4	289	18
2023-08-23T06:00	5062	550	-7.0	-22.7	289	18
2023-08-23T06:00	5082	549	-7.2	-22.8	289	18
2023-08-23T06:00	5102	547	-7.4	-22.8	289	19
2023-08-23T06:00	5130	545	-7.7	-22.8	288	19
2023-08-23T06:00	5157	543	-7.9	-22.7	288	19
2023-08-23T06:00	5185	541	-8.2	-22.7	287	20
2023-08-23T06:00	5223	539	-8.6	-22.7	287	20
2023-08-23T06:00	5245	537	-8.7	-23.0	287	19
2023-08-23T06:00	5263	536	-8.9	-23.2	288	19
2023-08-23T06:00	5282	535	-9.1	-23.6	289	18
2023-08-23T06:00	5302	533	-9.2	-24.3	289	18
2023-08-23T06:00	5327	532	-9.3	-26.1	290	18
2023-08-23T06:00	5351	530	-9.4	-28.0	291	18
2023-08-23T06:00	5382	528	-9.4	-29.5	292	19
2023-08-23T06:00	5415	526	-9.4	-30.6	293	19
2023-08-23T06:00	5433	524	-9.4	-31.2	294	20
2023-08-23T06:00	5456	523	-9.4	-31.5	295	20
2023-08-23T06:00	5484	521	-9.4	-32.4	296	21
2023-08-23T06:00	5514	519	-9.4	-33.5	296	21
2023-08-23T06:00	5542	517	-9.4	-34.3	295	21
2023-08-23T06:00	5575	515	-9.5	-34.5	295	21
2023-08-23T06:00	5599	513	-9.7	-34.9	294	21
2023-08-23T06:00	5628	511	-9.8	-34.9	294	21
2023-08-23T06:00	5659	509	-9.9	-35.2	294	21
2023-08-23T06:00	5683	508	-10.0	-35.7	293	21
2023-08-23T06:00	5708	506	-10.1	-36.3	293	20
2023-08-23T06:00	5740	504	-10.1	-37.2	293	20
2023-08-23T06:00	5769	502	-10.0	-38.6	293	20
2023-08-23T06:00	5793	500	-10.0	-38.1	293	20
2023-08-23T06:00	5825	498	-10.3	-34.0	293	20
2023-08-23T06:00	5860	496	-10.6	-33.9	293	21
2023-08-23T06:00	5878	495	-10.8	-33.6	293	21
2023-08-23T06:00	5901	494	-11.0	-33.2	293	22
2023-08-23T06:00	5923	492	-11.2	-32.6	293	22
2023-08-23T06:00	5941	491	-11.3	-32.4	293	22
2023-08-23T06:00	5963	490	-11.5	-32.9	293	22
2023-08-23T06:00	5992	488	-11.8	-33.1	293	21
2023-08-23T06:00	6022	486	-12.0	-33.3	293	22
2023-08-23T06:00	6042	485	-12.2	-33.7	294	22
2023-08-23T06:00	6064	483	-12.4	-34.6	295	22
2023-08-23T06:00	6090	482	-12.6	-36.0	296	22
2023-08-23T06:00	6122	480	-12.8	-36.9	297	22
2023-08-23T06:00	6140	478	-12.9	-36.2	297	22
2023-08-23T06:00	6162	477	-13.0	-37.2	297	21
2023-08-23T06:00	6188	475	-13.0	-38.7	296	21
2023-08-23T06:00	6221	473	-13.0	-40.0	296	21
2023-08-23T06:00	6251	472	-12.8	-40.8	296	21
2023-08-23T06:00	6281	470	-13.0	-41.0	296	21
2023-08-23T06:00	6307	468	-13.3	-41.2	296	21
2023-08-23T06:00	6333	466	-13.5	-41.2	296	22
2023-08-23T06:00	6361	465	-13.7	-41.5	296	22
2023-08-23T06:00	6392	463	-13.9	-41.4	296	22
2023-08-23T06:00	6427	461	-14.2	-40.9	296	23
2023-08-23T06:00	6458	459	-14.3	-41.1	295	23
2023-08-23T06:00	6482	457	-14.5	-41.3	294	23
2023-08-23T06:00	6511	456	-14.7	-41.6	293	23
2023-08-23T06:00	6543	454	-14.9	-42.2	292	23
2023-08-23T06:00	6573	452	-15.1	-42.5	291	24
2023-08-23T06:00	6608	450	-15.2	-43.0	291	24
2023-08-23T06:00	6634	448	-15.4	-43.5	291	24
2023-08-23T06:00	6658	447	-15.5	-43.6	292	23
2023-08-23T06:00	6686	445	-15.5	-44.1	293	23
2023-08-23T06:00	6719	443	-15.7	-44.1	293	23
2023-08-23T06:00	6754	441	-15.8	-45.5	293	23
2023-08-23T06:00	6778	440	-15.8	-45.0	293	23
2023-08-23T06:00	6803	438	-16.0	-46.3	293	23
2023-08-23T06:00	6830	437	-16.2	-45.3	293	23
2023-08-23T06:00	6858	435	-16.3	-45.2	293	23
2023-08-23T06:00	6882	434	-16.4	-46.2	292	24
2023-08-23T06:00	6909	432	-16.6	-45.4	292	24
2023-08-23T06:00	6937	431	-16.8	-46.1	292	24
2023-08-23T06:00	6965	429	-17.0	-45.8	292	24
2023-08-23T06:00	6992	428	-17.0	-44.8	293	24
2023-08-23T06:00	7012	426	-17.1	-44.2	293	24
2023-08-23T06:00	7034	425	-17.3	-44.4	293	24
2023-08-23T06:00	7053	424	-17.5	-44.4	294	24
2023-08-23T06:00	7074	423	-17.7	-44.4	294	25
2023-08-23T06:00	7100	421	-17.9	-44.9	294	25
2023-08-23T06:00	7131	420	-18.2	-43.5	294	25
2023-08-23T06:00	7156	418	-18.4	-41.6	294	26
2023-08-23T06:00	7179	417	-18.6	-39.9	294	26
2023-08-23T06:00	7199	416	-18.7	-39.4	293	26
2023-08-23T06:00	7219	415	-18.9	-37.3	292	26
2023-08-23T06:00	7244	413	-19.0		292	26
2023-08-23T06:00	7273	412	-19.3		292	26
2023-08-23T06:00	7302	410	-19.5	-35.7	292	25
2023-08-23T06:00	7328	408	-19.7		292	25
2023-08-23T06:00	7361	407	-19.9	-35.5	291	24
2023-08-23T06:00	7382	406	-20.0	-35.6	291	24
2023-08-23T06:00	7412	404	-20.2	-35.2	291	24
2023-08-23T06:00	7444	402	-20.5	-35.2	291	24
2023-08-23T06:00	7467	401	-20.6	-35.6	291	23
2023-08-23T06:00	7487	400	-20.8	-35.6	291	23
2023-08-23T06:00	7511	399	-21.0	-35.7	291	23
2023-08-23T06:00	7534	397	-21.2	-35.9	292	23
2023-08-23T06:00	7556	396	-21.4	-35.8	292	23
2023-08-23T06:00	7585	395	-21.7	-35.7	293	23
2023-08-23T06:00	7622	393	-22.0	-35.6	294	23
2023-08-23T06:00	7646	391	-22.2	-35.6	295	23
2023-08-23T06:00	7674	390	-22.5	-35.5	295	24
2023-08-23T06:00	7706	388	-22.8	-35.3	296	24
2023-08-23T06:00	7729	387	-22.9	-35.4	297	25
2023-08-23T06:00	7754	386	-23.2	-35.5	297	25
2023-08-23T06:00	7789	384	-23.5	-35.5	298	25
2023-08-23T06:00	7810	383	-23.7	-35.3	298	25
2023-08-23T06:00	7834	381	-23.9	-35.1	298	25
2023-08-23T06:00	7859	380	-24.1	-34.9	297	26
2023-08-23T06:00	7879	379	-24.3	-34.8	296	26
2023-08-23T06:00	7902	378	-24.5	-34.6	295	26
2023-08-23T06:00	7922	377	-24.7	-34.4	295	26
2023-08-23T06:00	7950	375	-25.0	-34.5	295	25
2023-08-23T06:00	7977	374	-25.2	-34.7	295	25
2023-08-23T06:00	8008	373	-25.5	-35.2	295	25
2023-08-23T06:00	8034	371	-25.7	-35.0	295	25
2023-08-23T06:00	8066	370	-26.1	-35.2	295	25
2023-08-23T06:00	8095	368	-26.3	-35.8	295	25
2023-08-23T06:00	8124	367	-26.6	-36.3	294	25
2023-08-23T06:00	8157	365	-26.9	-36.6	293	25
2023-08-23T06:00	8185	363	-27.1	-36.7	293	25
2023-08-23T06:00	8211	362	-27.4	-37.0	292	25
2023-08-23T06:00	8236	361	-27.5	-37.1	291	25
2023-08-23T06:00	8261	360	-27.7	-36.7	290	25
2023-08-23T06:00	8287	358	-27.9	-36.8	289	25
2023-08-23T06:00	8318	357	-28.2	-37.2	288	25
2023-08-23T06:00	8348	355	-28.4	-37.5	287	25
2023-08-23T06:00	8371	354	-28.5	-37.5	286	25
2023-08-23T06:00	8396	353	-28.6	-39.4	285	24
2023-08-23T06:00	8425	351	-28.7	-40.0	284	24
2023-08-23T06:00	8453	350	-28.9	-39.9	284	25
2023-08-23T06:00	8480	349	-29.1	-40.2	283	25
2023-08-23T06:00	8509	347	-29.3	-40.5	283	25
2023-08-23T06:00	8532	346	-29.5	-40.6	283	25
2023-08-23T06:00	8557	345	-29.7	-40.5	283	25
2023-08-23T06:00	8585	344	-29.9	-40.6	283	25
2023-08-23T06:00	8613	342	-30.1	-40.8	283	25
2023-08-23T06:00	8634	341	-30.3	-40.8	283	25
2023-08-23T06:00	8654	340	-30.5	-40.8	282	24
2023-08-23T06:00	8674	339	-30.6	-41.2	282	24
2023-08-23T06:00	8699	338	-30.9	-41.4	283	24
2023-08-23T06:00	8722	337	-31.1	-41.5	283	24
2023-08-23T06:00	8743	336	-31.3	-41.6	283	23
2023-08-23T06:00	8766	335	-31.5	-41.6	283	23
2023-08-23T06:00	8788	334	-31.7	-41.9	283	23
2023-08-23T06:00	8810	333	-31.8	-42.0	283	23
2023-08-23T06:00	8830	332	-32.0	-42.2	284	23
2023-08-23T06:00	8850	331	-32.1	-42.2	284	23
2023-08-23T06:00	8869	330	-32.3	-42.4	284	22
2023-08-23T06:00	8890	329	-32.5	-42.8	284	22
2023-08-23T06:00	8911	328	-32.6	-42.9	284	22
2023-08-23T06:00	8931	327	-32.8	-43.0	284	22
2023-08-23T06:00	8953	326	-33.0	-43.0	284	22
2023-08-23T06:00	8973	325	-33.2	-43.1	284	22
2023-08-23T06:00	8996	324	-33.4	-43.2	284	22
2023-08-23T06:00	9017	323	-33.6	-43.3	284	22
2023-08-23T06:00	9038	322	-33.8	-43.3	285	22
2023-08-23T06:00	9058	321	-34.0	-43.4	285	22
2023-08-23T06:00	9079	320	-34.2	-43.4	286	22
2023-08-23T06:00	9101	319	-34.4	-43.5	286	22
2023-08-23T06:00	9122	319	-34.6	-43.6	286	22
2023-08-23T06:00	9148	317	-34.9	-43.6	286	22
2023-08-23T06:00	9177	316	-35.2	-43.8	286	22
2023-08-23T06:00	9207	315	-35.4	-43.9	286	22
2023-08-23T06:00	9234	313	-35.7	-44.0	286	22
2023-08-23T06:00	9264	312	-36.0	-44.2	286	22
2023-08-23T06:00	9294	311	-36.3	-44.3	287	22
2023-08-23T06:00	9328	309	-36.6	-44.3	287	23
2023-08-23T06:00	9354	308	-36.8	-44.8	288	23
2023-08-23T06:00	9377	307	-37.0	-45.1	288	23
2023-08-23T06:00	9403	306	-37.2	-45.9	288	23
2023-08-23T06:00	9425	305	-37.4	-45.7	288	23
2023-08-23T06:00	9450	304	-37.6		288	23
2023-08-23T06:00	9475	303	-37.9	-45.9	288	23
2023-08-23T06:00	9497	302	-38.1	-46.0	288	23
2023-08-23T06:00	9526	301	-38.4	-46.1	288	23
2023-08-23T06:00	9552	299	-38.6	-46.3	288	23
2023-08-23T06:00	9581	298	-38.9	-46.6	288	23
2023-08-23T06:00	9606	297	-39.1	-46.5	289	23
2023-08-23T06:00	9629	296	-39.4	-46.6	289	24
2023-08-23T06:00	9651	295	-39.6	-46.6	290	24
2023-08-23T06:00	9672	294	-39.8	-46.5	290	24
2023-08-23T06:00	9694	293	-40.0	-46.6	290	24
2023-08-23T06:00	9715	292	-40.2	-46.8	290	24
2023-08-23T06:00	9740	291	-40.4	-46.7	290	24
2023-08-23T06:00	9761	290	-40.7	-46.7	289	24
2023-08-23T06:00	9784	289	-40.9	-46.7	289	24
2023-08-23T06:00	9809	288	-41.1	-46.9	289	24
2023-08-23T06:00	9837	287	-41.4	-47.3	289	25
2023-08-23T06:00	9867	286	-41.7	-47.6	289	25
2023-08-23T06:00	9896	285	-42.0	-47.6	289	25
2023-08-23T06:00	9920	284	-42.2	-47.7	289	25
2023-08-23T06:00	9942	283	-42.4	-47.5	289	24
2023-08-23T06:00	9968	282	-42.6	-47.5	289	24
2023-08-23T06:00	9991	281	-42.9	-47.8	290	24
2023-08-23T06:00	10018	280	-43.1	-47.8	290	24
2023-08-23T06:00	10045	278	-43.4	-47.9	291	24
2023-08-23T06:00	10071	277	-43.6	-47.9	290	23
2023-08-23T06:00	10095	276	-43.8	-48.5	290	23
2023-08-23T06:00	10117	275	-43.9	-50.2	289	23
2023-08-23T06:00	10140	275	-43.7	-53.9	288	23
2023-08-23T06:00	10162	274	-43.8	-55.3	286	23
2023-08-23T06:00	10182	273	-43.9	-55.0	286	23
2023-08-23T06:00	10205	272	-44.1	-54.9	285	23
2023-08-23T06:00	10226	271	-44.2	-55.1	284	23
2023-08-23T06:00	10245	270	-44.4	-55.7	284	24
2023-08-23T06:00	10264	269	-44.5	-56.5	283	24
2023-08-23T06:00	10284	269	-44.5	-57.4	283	24
2023-08-23T06:00	10306	268	-44.6	-57.5	282	24
2023-08-23T06:00	10324	267	-44.8	-57.6	282	24
2023-08-23T06:00	10348	266	-44.9	-57.8	282	24
2023-08-23T06:00	10368	265	-45.1	-58.1	281	24
2023-08-23T06:00	10388	265	-45.1	-58.0	281	24
2023-08-23T06:00	10408	264	-45.3	-57.9	281	24
2023-08-23T06:00	10427	263	-45.5	-57.7	281	24
2023-08-23T06:00	10447	262	-45.7	-57.6	281	24
2023-08-23T06:00	10467	261	-45.9	-57.6	281	24
2023-08-23T06:00	10485	261	-46.1	-57.4	281	24
2023-08-23T06:00	10503	260	-46.2	-57.3	281	24
2023-08-23T06:00	10522	259	-46.3	-57.5	282	24
2023-08-23T06:00	10542	258	-46.5	-57.6	283	24
2023-08-23T06:00	10560	258	-46.6	-57.8	284	24
2023-08-23T06:00	10579	257	-46.7	-58.4	284	24
2023-08-23T06:00	10598	256	-46.8	-59.1	285	24
2023-08-23T06:00	10619	256	-46.9	-59.5	285	24
2023-08-23T06:00	10638	255	-47.1	-59.7	285	24
2023-08-23T06:00	10657	254	-47.2	-59.6	285	24
2023-08-23T06:00	10677	253	-47.4	-59.6	285	24
2023-08-23T06:00	10700	252	-47.6	-59.5	284	25
2023-08-23T06:00	10726	251	-47.8	-59.3	284	25
2023-08-23T06:00	10758	250	-48.0	-59.3	284	25
2023-08-23T06:00	10782	249	-48.1	-59.3	283	26
2023-08-23T06:00	10803	248	-48.3	-59.3	282	26
2023-08-23T06:00	10832	247	-48.5	-59.3	281	27
2023-08-23T06:00	10855	247	-48.6	-59.5	280	27
2023-08-23T06:00	10879	246	-48.7	-59.9	279	28
2023-08-23T06:00	10907	245	-48.7	-60.3	278	28
2023-08-23T06:00	10933	244	-48.8	-60.6	278	28
2023-08-23T06:00	10958	243	-48.9	-60.7	278	28
2023-08-23T06:00	10981	242	-49.1	-60.8	279	28
2023-08-23T06:00	11010	241	-49.3	-60.8	280	28
2023-08-23T06:00	11035	240	-49.6	-61.0	280	27
2023-08-23T06:00	11054	239	-49.7	-61.1	280	27
2023-08-23T06:00	11074	238	-49.8	-61.3	280	27
2023-08-23T06:00	11094	238	-50.0	-61.3	280	28
2023-08-23T06:00	11114	237	-50.1	-61.3	279	28
2023-08-23T06:00	11135	236	-50.3	-61.4	279	28
2023-08-23T06:00	11156	235	-50.5	-61.6	278	28
2023-08-23T06:00	11176	235	-50.6	-61.7	278	29
2023-08-23T06:00	11196	234	-50.7	-62.0	277	29
2023-08-23T06:00	11217	233	-50.7	-62.2	277	29
2023-08-23T06:00	11237	233	-50.9	-62.3	278	28
2023-08-23T06:00	11256	232	-51.1	-62.3	278	28
2023-08-23T06:00	11277	231	-51.2	-62.3	279	28
2023-08-23T06:00	11298	230	-51.4	-62.5	279	28
2023-08-23T06:00	11318	230	-51.5	-62.7	279	28
2023-08-23T06:00	11339	229	-51.7	-62.8	280	28
2023-08-23T06:00	11360	228	-51.8	-62.8	280	28
2023-08-23T06:00	11378	228	-52.0	-62.9	280	28
2023-08-23T06:00	11399	227	-52.2	-62.9	280	28
2023-08-23T06:00	11420	226	-52.3	-62.8	280	29
2023-08-23T06:00	11441	225	-52.5		280	29
2023-08-23T06:00	11460	225	-52.7	-62.9	280	29
2023-08-23T06:00	11481	224	-52.9	-63.0	280	29
2023-08-23T06:00	11503	223	-53.1	-63.0	280	29
2023-08-23T06:00	11524	222	-53.2		281	29
2023-08-23T06:00	11544	222	-53.4	-63.2	281	29
2023-08-23T06:00	11565	221	-53.6	-63.2	281	29
2023-08-23T06:00	11585	220	-53.7	-63.2	282	29
2023-08-23T06:00	11607	220	-53.9	-63.3	282	29
2023-08-23T06:00	11629	219	-54.1	-63.5	283	29
2023-08-23T06:00	11652	218	-54.1	-63.7	283	29
2023-08-23T06:00	11673	217	-54.2	-63.9	283	29
2023-08-23T06:00	11695	217	-54.3	-64.1	282	29
2023-08-23T06:00	11718	216	-54.5	-64.2	281	28
2023-08-23T06:00	11740	215	-54.6	-64.3	281	28
2023-08-23T06:00	11762	214	-54.8	-64.4	280	28
2023-08-23T06:00	11783	214	-54.9	-64.5	279	27
2023-08-23T06:00	11804	213	-55.0	-64.6	279	27
2023-08-23T06:00	11826	212	-55.2	-64.7	279	27
2023-08-23T06:00	11845	212	-55.3	-64.7	279	27
2023-08-23T06:00	11868	211	-55.5	-64.7	278	27
2023-08-23T06:00	11890	210	-55.7	-64.8	278	27
2023-08-23T06:00	11912	209	-55.9	-64.9	278	27
2023-08-23T06:00	11932	209	-56.1	-65.0	278	27
2023-08-23T06:00	11954	208	-56.2	-65.0	278	27
2023-08-23T06:00	11976	207	-56.4	-65.1	277	27
2023-08-23T06:00	11996	207	-56.6	-65.2	277	27
2023-08-23T06:00	12019	206	-56.7	-65.3	277	27
2023-08-23T06:00	12041	205	-56.8	-65.5	277	27
2023-08-23T06:00	12061	204	-56.9	-65.6	277	27
2023-08-23T06:00	12081	204	-57.1	-65.8	277	27
2023-08-23T06:00	12106	203	-57.2	-65.9	277	27
2023-08-23T06:00	12127	202	-57.4	-66.1	277	27
2023-08-23T06:00	12147	202	-57.4	-66.2	276	27
2023-08-23T06:00	12168	201	-57.5	-66.4	276	27
2023-08-23T06:00	12191	200	-57.7	-66.6	275	27
2023-08-23T06:00	12209	200	-57.8	-66.7	274	27
2023-08-23T06:00	12229	199	-58.0	-66.8	274	27
2023-08-23T06:00	12249	198	-58.1	-66.9	274	28
2023-08-23T06:00	12270	198	-58.1	-67.0	274	28
2023-08-23T06:00	12292	197	-58.2	-67.0	274	28
2023-08-23T06:00	12310	197	-58.4	-67.1	275	28
2023-08-23T06:00	12332	196	-58.4	-67.2	275	28
2023-08-23T06:00	12351	195	-58.4	-67.6	275	27
2023-08-23T06:00	12372	195	-57.7	-67.6	275	27
2023-08-23T06:00	12392	194	-57.8	-68.2	274	26
2023-08-23T06:00	12414	193	-57.9	-68.5	274	26
2023-08-23T06:00	12433	193	-57.9	-68.5	273	26
2023-08-23T06:00	12455	192	-58.1	-68.7	272	26
2023-08-23T06:00	12474	191	-58.2	-68.7	272	26
2023-08-23T06:00	12497	191	-58.3	-68.6	272	26
2023-08-23T06:00	12516	190	-58.4	-68.6	272	26
2023-08-23T06:00	12537	190	-58.4	-68.5	273	27
2023-08-23T06:00	12557	189	-58.5	-68.6	273	27
2023-08-23T06:00	12579	188	-58.5	-68.6	273	27
2023-08-23T06:00	12603	188	-58.6	-68.7	273	27
2023-08-23T06:00	12623	187	-58.7	-68.7	273	27
2023-08-23T06:00	12645	186	-58.9	-68.7	273	27
2023-08-23T06:00	12666	186	-59.1	-68.6	273	27
2023-08-23T06:00	12690	185	-59.3	-68.8	274	27
2023-08-23T06:00	12718	184	-59.2	-68.8	275	27
2023-08-23T06:00	12744	184	-59.1	-68.9	277	27
2023-08-23T06:00	12765	183	-59.2	-69.3	279	27
2023-08-23T06:00	12793	182	-59.4	-69.5	281	27
2023-08-23T06:00	12813	181	-59.5	-69.6	282	27
2023-08-23T06:00	12833	181	-59.7	-69.7	283	27
2023-08-23T06:00	12856	180	-59.9	-69.8	283	26
2023-08-23T06:00	12877	180	-59.9	-69.8	282	26
2023-08-23T06:00	12897	179	-60.0	-69.9	281	25
2023-08-23T06:00	12918	178	-60.0	-69.9	281	24
2023-08-23T06:00	12939	178	-60.2	-70.2	280	24
2023-08-23T06:00	12959	177	-60.1	-70.1	279	23
2023-08-23T06:00	12980	177	-60.2	-70.2	278	23
2023-08-23T06:00	13000	176	-60.2	-70.2	277	23
2023-08-23T06:00	13021	176	-60.3	-70.2	277	24
2023-08-23T06:00	13039	175	-60.4	-70.3	276	24
2023-08-23T06:00	13059	174	-60.4	-70.3	276	25
2023-08-23T06:00	13082	174	-60.4	-70.3	276	25
2023-08-23T06:00	13101	173	-60.5	-70.5	277	26
2023-08-23T06:00	13122	173	-60.6	-70.6	277	27
2023-08-23T06:00	13145	172	-60.7	-70.9	278	27
2023-08-23T06:00	13167	171	-60.5	-71.0	278	28
2023-08-23T06:00	13191	171	-60.2	-71.1	279	28
2023-08-23T06:00	13212	170	-60.2	-71.6	280	29
2023-08-23T06:00	13233	170	-59.9	-71.9	281	29
2023-08-23T06:00	13255	169	-59.8	-72.2	283	29
2023-08-23T06:00	13279	168	-59.9	-72.5	284	30
2023-08-23T06:00	13300	168	-60.0	-72.8	285	30
2023-08-23T06:00	13323	167	-59.7	-72.7	286	30
2023-08-23T06:00	13345	167	-59.5	-72.8	287	30
2023-08-23T06:00	13366	166	-59.3	-73.1	288	29
2023-08-23T06:00	13393	165	-59.1	-73.4	289	29
2023-08-23T06:00	13413	165	-58.9	-73.6	290	29
2023-08-23T06:00	13434	164	-59.0	-74.0	291	29
2023-08-23T06:00	13455	164	-59.0	-74.1	291	29
2023-08-23T06:00	13478	163	-59.0	-74.1	290	28
2023-08-23T06:00	13500	163	-59.1	-74.5	290	28
2023-08-23T06:00	13522	162	-58.9	-74.6	289	27
2023-08-23T06:00	13546	161	-58.6	-74.9	288	27
2023-08-23T06:00	13566	161	-58.4	-75.2	288	26
2023-08-23T06:00	13590	160	-58.3	-75.4	288	26
2023-08-23T06:00	13613	160	-58.4	-75.6	288	25
2023-08-23T06:00	13636	159	-58.5	-75.7	288	25
2023-08-23T06:00	13658	159	-58.5	-75.8	288	24
2023-08-23T06:00	13678	158	-58.6	-75.9	289	24
2023-08-23T06:00	13703	157	-58.6	-76.1	289	23
2023-08-23T06:00	13725	157	-58.5	-76.2	289	23
2023-08-23T06:00	13750	156	-58.5	-76.3	288	23
2023-08-23T06:00	13771	156	-58.6	-76.6	287	23
2023-08-23T06:00	13793	155	-57.8	-76.3	286	23
2023-08-23T06:00	13814	155	-57.6	-76.5	286	24
2023-08-23T06:00	13836	154	-57.6	-77.2	285	24
2023-08-23T06:00	13857	154	-57.6	-77.9	286	24
2023-08-23T06:00	13879	153	-57.6	-78.5	286	24
2023-08-23T06:00	13900	153	-57.5	-78.8	287	24
2023-08-23T06:00	13919	152	-57.4	-79.0	287	23
2023-08-23T06:00	13940	152	-57.3	-79.1	288	23
2023-08-23T06:00	13960	151	-57.4	-79.3	288	22
2023-08-23T06:00	13981	151	-57.4	-79.5	288	22
2023-08-23T06:00	14000	150	-57.3	-79.6	287	22
2023-08-23T06:00	14019	150	-57.1	-79.4	286	22
2023-08-23T06:00	14039	149	-57.2	-79.6	285	22
2023-08-23T06:00	14059	149	-57.3	-79.6	284	22
2023-08-23T06:00	14075	148	-57.3	-79.6	282	22
2023-08-23T06:00	14095	148	-57.4	-79.5	281	22
2023-08-23T06:00	14117	147	-57.4	-79.5	280	22
2023-08-23T06:00	14136	147	-57.5	-79.4	279	22
2023-08-23T06:00	14156	146	-57.5	-79.1	279	22
2023-08-23T06:00	14177	146	-57.6	-79.2	279	23
2023-08-23T06:00	14197	146	-57.6	-79.2	280	23
2023-08-23T06:00	14220	145	-57.6	-79.3	280	24
2023-08-23T06:00	14240	145	-57.5	-79.6	281	25
2023-08-23T06:00	14263	144	-57.4	-80.0	282	25
2023-08-23T06:00	14282	144	-57.4	-80.3	282	26
2023-08-23T06:00	14304	143	-57.3	-80.6	283	26
2023-08-23T06:00	14323	143	-57.2	-80.7	283	26
2023-08-23T06:00	14346	142	-57.1	-80.8	283	26
2023-08-23T06:00	14368	142	-57.0	-81.0	284	26
2023-08-23T06:00	14389	141	-56.8	-81.0	284	26
2023-08-23T06:00	14410	141	-56.8	-81.0	285	26
2023-08-23T06:00	14433	140	-56.6	-81.1	285	25
2023-08-23T06:00	14452	140	-56.6	-81.1	286	25
2023-08-23T06:00	14476	139	-56.3	-81.1	286	25
2023-08-23T06:00	14497	139	-56.1	-80.9	287	25
2023-08-23T06:00	14518	138	-56.1	-80.7	287	24
2023-08-23T06:00	14542	138	-56.2	-80.8	287	24
2023-08-23T06:00	14563	137	-56.2	-81.0	287	23
2023-08-23T06:00	14586	137	-56.2	-81.0	286	23
2023-08-23T06:00	14609	136	-56.0	-80.8	285	22
2023-08-23T06:00	14631	136	-56.0	-80.8	284	21
2023-08-23T06:00	14653	135	-56.1	-80.7	283	21
2023-08-23T06:00	14675	135	-56.2	-81.0	282	20
2023-08-23T06:00	14696	135	-56.2	-81.0	282	20
2023-08-23T06:00	14719	134	-56.1	-81.1	281	20
2023-08-23T06:00	14740	134	-56.0	-81.3	281	20
2023-08-23T06:00	14761	133	-55.9	-81.5	281	20
2023-08-23T06:00	14783	133	-55.7	-81.6	281	21
2023-08-23T06:00	14803	132	-55.7	-81.6	281	21
2023-08-23T06:00	14822	132	-55.8	-81.7	281	21
2023-08-23T06:00	14845	131	-56.0	-81.8	281	22
2023-08-23T06:00	14867	131	-56.1	-81.9	281	22
2023-08-23T06:00	14889	130	-56.3	-81.8	281	22
2023-08-23T06:00	14913	130	-56.5	-82.0	282	23
2023-08-23T06:00	14932	130	-56.6	-82.0	283	23
2023-08-23T06:00	14954	129	-56.5	-82.0	284	23
2023-08-23T06:00	14975	129	-56.3	-82.1	285	24
2023-08-23T06:00	14996	128	-56.2	-82.0	286	24
2023-08-23T06:00	15018	128	-56.2	-82.0	287	24
2023-08-23T06:00	15040	127	-56.1	-81.9	288	24
2023-08-23T06:00	15064	127	-56.0	-81.8	289	24
2023-08-23T06:00	15085	127	-56.0	-81.8	290	24
2023-08-23T06:00	15107	126	-56.0	-81.8	291	23
2023-08-23T06:00	15131	126	-56.0	-81.8	291	22
2023-08-23T06:00	15153	125	-56.0	-81.8	290	22
2023-08-23T06:00	15177	125	-55.7	-81.9	290	21
2023-08-23T06:00	15199	124	-55.6	-81.8	289	21
2023-08-23T06:00	15220	124	-55.5	-82.0	288	20
2023-08-23T06:00	15242	123	-55.6	-82.1	288	20
2023-08-23T06:00	15263	123	-55.7	-82.2	287	19
2023-08-23T06:00	15286	123	-55.6	-82.1	287	19
2023-08-23T06:00	15304	122	-55.6	-82.1	287	19
2023-08-23T06:00	15326	122	-55.6	-82.1	286	19
2023-08-23T06:00	15348	121	-55.5	-82.0	286	19
2023-08-23T06:00	15367	121	-55.6	-82.1	285	19
2023-08-23T06:00	15393	121	-55.6	-82.1	285	20
2023-08-23T06:00	15413	120	-55.7	-82.2	285	20
2023-08-23T06:00	15435	120	-55.7	-82.2	285	20
2023-08-23T06:00	15458	119	-55.6	-82.1	285	20
2023-08-23T06:00	15481	119	-55.6	-82.1	284	19
2023-08-23T06:00	15500	119	-55.7	-82.2	283	19
2023-08-23T06:00	15523	118	-55.9	-82.3	283	19
2023-08-23T06:00	15546	118	-56.0	-82.4	282	19
2023-08-23T06:00	15569	117	-55.9	-82.3	282	19
2023-08-23T06:00	15591	117	-55.9	-82.3	283	19
2023-08-23T06:00	15612	116	-56.0	-82.4	283	19
2023-08-23T06:00	15633	116	-56.1	-82.5	283	18
2023-08-23T06:00	15656	116	-56.1	-82.5	282	18
2023-08-23T06:00	15676	115	-56.0	-82.4	282	18
2023-08-23T06:00	15698	115	-55.7	-82.2	281	17
2023-08-23T06:00	15722	114	-55.7	-82.2	280	17
2023-08-23T06:00	15744	114	-55.9	-82.3	279	17
2023-08-23T06:00	15766	114	-56.0	-82.4	277	17
2023-08-23T06:00	15789	113	-55.8	-82.2	276	18
2023-08-23T06:00	15813	113	-55.5	-82.0	275	18
2023-08-23T06:00	15836	112	-55.6	-82.1	273	18
2023-08-23T06:00	15858	112	-55.7	-82.2	272	19
2023-08-23T06:00	15883	112	-55.9	-82.3	270	19
2023-08-23T06:00	15906	111	-56.0	-82.1	269	19
2023-08-23T06:00	15930	111	-56.1	-82.2	268	20
2023-08-23T06:00	15951	110	-56.3	-82.3	267	20
2023-08-23T06:00	15973	110	-56.5	-82.2	267	20
2023-08-23T06:00	15998	110	-56.6	-82.3	268	21
2023-08-23T06:00	16023	109	-56.8	-82.5	269	21
2023-08-23T06:00	16045	109	-56.9	-82.5	270	21
2023-08-23T06:00	16067	108	-57.1	-82.7	271	21
2023-08-23T06:00	16088	108	-57.2	-82.8	272	20
2023-08-23T06:00	16111	108	-57.2	-82.8	272	20
2023-08-23T06:00	16136	107	-57.2	-82.8	273	20
2023-08-23T06:00	16160	107	-57.2	-82.8	274	20
2023-08-23T06:00	16180	106	-57.4	-82.9	276	20
2023-08-23T06:00	16208	106	-57.6	-83.1	278	20
2023-08-23T06:00	16227	106	-57.4	-83.2	280	19
2023-08-23T06:00	16253	105	-57.1	-83.0	282	19
2023-08-23T06:00	16275	105	-56.9	-83.1	284	19
2023-08-23T06:00	16298	105	-56.9	-83.1	286	18
2023-08-23T06:00	16323	104	-56.9	-83.1	288	18
2023-08-23T06:00	16342	104	-56.9	-83.1	289	17
2023-08-23T06:00	16366	103	-56.9	-83.1	290	16
2023-08-23T06:00	16388	103	-57.0	-83.2	289	15
2023-08-23T06:00	16411	103	-57.0	-83.2	288	15
2023-08-23T06:00	16435	102	-56.8	-83.0	286	14
2023-08-23T06:00	16456	102	-56.8	-83.0	284	14
2023-08-23T06:00	16479	102	-56.8	-83.3	281	14
2023-08-23T06:00	16502	101	-56.9	-83.4	278	14
2023-08-23T06:00	16523	101	-56.9	-83.4	276	14
2023-08-23T06:00	16547	101	-56.9	-83.4	274	15
2023-08-23T06:00	16571	100	-56.9	-83.4	272	15
2023-08-23T06:00	16595	100	-57.0	-83.5	272	15
2023-08-23T06:00	16616	99	-57.0	-83.5	272	16
2023-08-23T06:00	16638	99	-57.1	-83.5	272	16
2023-08-23T06:00	16661	99	-57.2	-83.6	273	16
2023-08-23T06:00	16682	98	-57.2	-83.6	274	16
2023-08-23T06:00	16704	98	-57.2	-83.6	275	16
2023-08-23T06:00	16730	98	-57.1	-83.5	275	16
2023-08-23T06:00	16751	97	-57.2	-83.6	276	16
2023-08-23T06:00	16774	97	-57.1	-83.5	276	17
2023-08-23T06:00	16795	97	-57.1	-83.5	276	17
2023-08-23T06:00	16817	96	-57.1	-83.5	275	18
2023-08-23T06:00	16840	96	-57.0	-83.5	275	18
2023-08-23T06:00	16862	96	-57.1	-83.5	276	18
2023-08-23T06:00	16887	95	-57.1	-83.5	276	18
2023-08-23T06:00	16907	95	-56.9	-83.7	277	18
2023-08-23T06:00	16928	95	-56.5	-83.7	278	18
2023-08-23T06:00	16950	94	-56.2	-83.5	280	17
2023-08-23T06:00	16972	94	-56.2	-83.9	281	17
2023-08-23T06:00	17000	94	-56.0	-83.7	283	17
2023-08-23T06:00	17018	93	-55.9	-83.6	284	16
2023-08-23T06:00	17044	93	-55.9	-83.6	285	16
2023-08-23T06:00	17065	93	-55.9	-83.6	286	15
2023-08-23T06:00	17088	92	-56.0	-83.4	287	15
2023-08-23T06:00	17108	92	-56.2	-83.5	288	14
2023-08-23T06:00	17130	92	-56.3	-83.6	289	14
2023-08-23T06:00	17157	91	-56.3	-83.6	290	13
2023-08-23T06:00	17180	91	-56.2	-83.5	291	12
2023-08-23T06:00	17205	91	-56.2	-83.5	293	12
2023-08-23T06:00	17225	90	-56.2	-83.5	295	12
2023-08-23T06:00	17249	90	-56.3	-83.6	296	11
2023-08-23T06:00	17273	90	-56.4	-83.7	296	11
2023-08-23T06:00	17294	89	-56.5	-83.7	296	10
2023-08-23T06:00	17316	89	-56.5	-84.1	295	10
2023-08-23T06:00	17339	89	-56.3	-83.9	295	10
2023-08-23T06:00	17362	88	-56.2	-83.9	296	9
2023-08-23T06:00	17384	88	-56.2	-83.9	298	9
2023-08-23T06:00	17409	88	-56.2	-83.9	302	9
2023-08-23T06:00	17434	87	-56.0	-83.7	306	8
2023-08-23T06:00	17456	87	-55.8	-83.9	310	8
2023-08-23T06:00	17479	87	-55.4	-83.6	314	8
2023-08-23T06:00	17501	86	-55.2	-83.9	317	7
2023-08-23T06:00	17526	86	-55.0	-83.7	318	7
2023-08-23T06:00	17550	86	-54.9	-83.7	317	7
2023-08-23T06:00	17575	86	-54.9	-83.7	315	7
2023-08-23T06:00	17597	85	-55.1	-83.4	314	7
2023-08-23T06:00	17618	85	-55.3	-83.6	312	7
2023-08-23T06:00	17641	85	-55.5	-83.7	311	8
2023-08-23T06:00	17663	84	-55.5		311	8
2023-08-23T06:00	17692	84	-55.6	-83.4	311	9
2023-08-23T06:00	17711	84	-55.7	-83.5	312	9
2023-08-23T06:00	17735	83	-55.8	-83.6	313	9
2023-08-23T06:00	17757	83	-56.0	-83.7	314	9
2023-08-23T06:00	17781	83	-56.1	-83.8	314	8
2023-08-23T06:00	17807	82	-56.2	-83.9	314	8
2023-08-23T06:00	17828	82	-56.3	-83.9	314	7
2023-08-23T06:00	17854	82	-56.4	-84.0	312	7
2023-08-23T06:00	17878	82	-56.5	-83.7	309	6
2023-08-23T06:00	17902	81	-56.6	-83.8	306	6
2023-08-23T06:00	17925	81	-56.8	-84.0	302	6
2023-08-23T06:00	17948	81	-57.0	-84.1	296	5
2023-08-23T06:00	17976	80	-57.2	-84.3	288	4
2023-08-23T06:00	17999	80	-57.2	-84.3	278	4
2023-08-23T06:00	18024	80	-57.3	-84.4	267	4
2023-08-23T06:00	18047	79	-57.3	-84.7	259	4
2023-08-23T06:00	18070	79	-57.2	-84.6	255	4
2023-08-23T06:00	18095	79	-57.0	-84.5	254	4
2023-08-23T06:00	18118	78	-57.0	-84.5	254	5
2023-08-23T06:00	18142	78	-57.0	-84.5	256	5
2023-08-23T06:00	18170	78	-57.1	-84.6	258	5
2023-08-23T06:00	18191	78	-57.1	-84.6	259	6
2023-08-23T06:00	18214	77	-57.0	-84.5	260	6
2023-08-23T06:00	18240	77	-57.0	-84.5	259	6
2023-08-23T06:00	18262	77	-57.1	-84.6	259	6
2023-08-23T06:00	18288	76	-57.3	-84.4	258	6
2023-08-23T06:00	18310	76	-57.5	-84.5	257	6
2023-08-23T06:00	18335	76	-57.6	-84.6	256	6
2023-08-23T06:00	18355	76	-57.8	-84.7	257	6
2023-08-23T06:00	18382	75	-57.9	-84.8	259	5
2023-08-23T06:00	18405	75	-57.9	-84.8	262	5
2023-08-23T06:00	18429	75	-57.8	-84.7	264	4
2023-08-23T06:00	18454	74	-57.8	-85.1	266	4
2023-08-23T06:00	18478	74	-57.7	-85.0	265	4
2023-08-23T06:00	18503	74	-57.6	-84.9	262	4
2023-08-23T06:00	18527	74	-57.4	-84.8	259	4
2023-08-23T06:00	18550	73	-57.5	-84.9	258	5
2023-08-23T06:00	18572	73	-57.7	-85.0	258	5
2023-08-23T06:00	18596	73	-57.8	-84.7	258	6
2023-08-23T06:00	18619	73	-57.9	-84.8	259	6
2023-08-23T06:00	18640	72	-58.1	-85.0	260	6
2023-08-23T06:00	18666	72	-58.3	-85.1	262	7
2023-08-23T06:00	18686	72	-58.4	-84.9	264	8
2023-08-23T06:00	18713	71	-58.5	-84.9	267	8
2023-08-23T06:00	18732	71	-58.7	-85.4	270	9
2023-08-23T06:00	18757	71	-58.7	-85.4	273	9
2023-08-23T06:00	18781	71	-58.5	-85.3	277	10
2023-08-23T06:00	18806	70	-58.4	-85.2	281	10
2023-08-23T06:00	18829	70	-58.4	-85.2	285	10
2023-08-23T06:00	18852	70	-58.3	-85.5	289	10
2023-08-23T06:00	18874	70	-58.2	-85.4	293	10
2023-08-23T06:00	18896	69	-58.1	-85.3	297	10
2023-08-23T06:00	18920	69	-58.1	-85.3	301	10
2023-08-23T06:00	18941	69	-58.0	-85.2	305	9
2023-08-23T06:00	18966	69	-58.0	-85.2	308	9
2023-08-23T06:00	18985	68	-57.9	-85.2	311	8
2023-08-23T06:00	19006	68	-58.0	-85.2	313	8
2023-08-23T06:00	19034	68	-58.0	-85.2	314	7
2023-08-23T06:00	19058	68	-58.1	-85.3	313	6
2023-08-23T06:00	19084	67	-58.1	-85.3	311	6
2023-08-23T06:00	19106	67	-58.1	-85.3	306	5
2023-08-23T06:00	19131	67	-58.1	-85.3	298	5
2023-08-23T06:00	19152	67	-58.1	-85.3	290	5
2023-08-23T06:00	19176	66	-58.2	-85.4	284	5
2023-08-23T06:00	19199	66	-58.2	-85.4	280	6
2023-08-23T06:00	19220	66	-58.0	-85.2	278	6
2023-08-23T06:00	19243	66	-58.0	-85.2	278	7
2023-08-23T06:00	19266	65	-58.0	-85.2	278	7
2023-08-23T06:00	19288	65	-58.0	-85.2	279	7
2023-08-23T06:00	19311	65	-57.9	-85.5	279	7
2023-08-23T06:00	19334	65	-57.7	-85.4	280	7
2023-08-23T06:00	19360	64	-57.7	-85.4	280	6
2023-08-23T06:00	19385	64	-57.7	-85.4	280	6
2023-08-23T06:00	19410	64	-57.6	-85.3	280	5
2023-08-23T06:00	19433	64	-57.5	-85.2	280	5
2023-08-23T06:00	19451	64	-57.2	-85.4	280	5
2023-08-23T06:00	19479	63	-57.0	-85.2	280	6
2023-08-23T06:00	19502	63	-56.9	-85.2	281	6
2023-08-23T06:00	19524	63	-56.8	-85.1	282	7
2023-08-23T06:00	19549	63	-56.7	-85.0	284	7
2023-08-23T06:00	19572	62	-56.7	-85.0	287	8
2023-08-23T06:00	19598	62	-56.7	-85.0	291	7
2023-08-23T06:00	19618	62	-56.7	-85.0	295	7
2023-08-23T06:00	19645	62	-56.7	-85.0	298	6
2023-08-23T06:00	19668	61	-56.5	-84.9	300	5
2023-08-23T06:00	19693	61	-56.4	-84.8	300	5
2023-08-23T06:00	19715	61	-56.2	-84.6	297	4
2023-08-23T06:00	19735	61	-56.0	-84.5	293	4
2023-08-23T06:00	19761	60	-55.9	-84.8	291	4
2023-08-23T06:00	19785	60	-55.8	-84.8	292	4
2023-08-23T06:00	19808	60	-55.8	-84.8	295	3
2023-08-23T06:00	19830	60	-55.8	-84.8	298	3
2023-08-23T06:00	19855	60	-55.6	-84.6	300	3
2023-08-23T06:00	19886	59	-55.4	-84.5	298	3
2023-08-23T06:00	19907	59	-55.4	-84.0	290	2
2023-08-23T06:00	19934	59	-55.5	-84.1	277	2
2023-08-23T06:00	19960	59	-55.6	-84.2	264	2
2023-08-23T06:00	19987	58	-55.6	-84.2	256	3
2023-08-23T06:00	20010	58	-55.6	-84.2	255	3
2023-08-23T06:00	20034	58	-55.6	-84.2	259	3
2023-08-23T06:00	20062	58	-55.4	-84.0	267	3
2023-08-23T06:00	20088	57	-55.4	-84.0	275	4
2023-08-23T06:00	20112	57	-55.5	-84.1	283	4
2023-08-23T06:00	20138	57	-55.5	-84.1	289	4
2023-08-23T06:00	20162	57	-55.7	-84.3	293	5
2023-08-23T06:00	20188	57	-55.9	-84.0	295	5
2023-08-23T06:00	20216	56	-56.1	-84.2	298	5
2023-08-23T06:00	20239	56	-56.2	-84.2	300	6
2023-08-23T06:00	20268	56	-56.4	-84.4	304	6
2023-08-23T06:00	20289	56	-56.4	-84.4	308	6
2023-08-23T06:00	20315	55	-56.5	-84.5	312	6
2023-08-23T06:00	20342	55	-56.5	-84.5	315	6
2023-08-23T06:00	20372	55	-56.5	-84.9	317	6
2023-08-23T06:00	20396	55	-56.4	-84.8	318	5
2023-08-23T06:00	20424	55	-56.2	-84.6	319	5
2023-08-23T06:00	20446	54	-55.8	-84.8	321	4
2023-08-23T06:00	20474	54	-55.6	-84.6	326	4
2023-08-23T06:00	20501	54	-55.2	-84.8	333	5
2023-08-23T06:00	20526	54	-54.7	-84.4	340	5
2023-08-23T06:00	20552	53	-54.7	-84.4	346	5
2023-08-23T06:00	20581	53	-54.7	-84.4	352	5
2023-08-23T06:00	20606	53	-54.7	-83.9	357	5
2023-08-23T06:00	20636	53	-54.7	-83.9	2	4
2023-08-23T06:00	20659	53	-54.7	-83.9	8	4
2023-08-23T06:00	20684	52	-54.7	-83.9	17	3
2023-08-23T06:00	20711	52	-54.6	-83.9	29	3
2023-08-23T06:00	20736	52	-54.7	-83.9	46	3
2023-08-23T06:00	20762	52	-54.8	-84.0	64	3
2023-08-23T06:00	20793	51	-54.8	-84.0	81	3
2023-08-23T06:00	20816	51	-54.9	-84.1	94	3
2023-08-23T06:00	20844	51	-55.0	-84.2	104	3
2023-08-23T06:00	20869	51	-55.0	-84.2	110	3
2023-08-23T06:00	20893	51	-54.9	-84.1	115	3
2023-08-23T06:00	20915	50	-54.7	-83.9	120	2
2023-08-23T06:00	20942	50	-54.6	-83.9	126	2
2023-08-23T06:00	20970	50	-54.7	-83.9	136	2
2023-08-23T06:00	20993	50	-54.8	-84.0	151	1
2023-08-23T06:00	21017	50	-55.0	-83.7	171	1
2023-08-23T06:00	21041	49	-55.2	-83.9	195	1
2023-08-23T06:00	21071	49	-55.4	-84.0	219	1
2023-08-23T06:00	21093	49	-55.6	-84.2	238	1
2023-08-23T06:00	21119	49	-55.7	-84.3	252	1
2023-08-23T06:00	21147	49	-55.6	-84.2	259	1
2023-08-23T06:00	21170	49	-55.4	-84.0	263	1
2023-08-23T06:00	21195	48	-55.2	-84.3	269	1
2023-08-23T06:00	21219	48	-55.2	-84.3	280	1
2023-08-23T06:00	21242	48	-55.2	-84.3	294	1
2023-08-23T06:00	21275	48	-55.2	-84.3	310	2
2023-08-23T06:00	21297	48	-55.0	-84.2	323	2
2023-08-23T06:00	21323	47	-54.9	-84.1	333	3
2023-08-23T06:00	21347	47	-54.8	-84.0	340	3
2023-08-23T06:00	21373	47	-54.9	-84.1	344	4
2023-08-23T06:00	21398	47	-55.0	-84.2	345	4
2023-08-23T06:00	21421	47	-55.0	-84.2	343	4
2023-08-23T06:00	21449	46	-54.9	-84.1	341	5
2023-08-23T06:00	21473	46	-54.9	-84.1	339	5
2023-08-23T06:00	21501	46	-55.0	-84.2	339	5
2023-08-23T06:00	21528	46	-55.2	-84.3	341	5
2023-08-23T06:00	21546	46	-55.2	-84.3	345	5
2023-08-23T06:00	21574	46	-55.1	-84.2	350	5
2023-08-23T06:00	21598	45	-55.0	-84.2	355	5
2023-08-23T06:00	21629	45	-55.1	-83.8	359	4
2023-08-23T06:00	21650	45	-55.3	-84.0	3	4
2023-08-23T06:00	21680	45	-55.5	-84.1	9	3
2023-08-23T06:00	21701	45	-55.6	-84.2	17	3
2023-08-23T06:00	21727	44	-55.8	-84.3	28	3
2023-08-23T06:00	21754	44	-55.8	-84.3	41	3
2023-08-23T06:00	21782	44	-55.9	-84.4	55	2
2023-08-23T06:00	21808	44	-56.0	-84.5	67	2
2023-08-23T06:00	21834	44	-56.0	-84.5	75	2
2023-08-23T06:00	21863	44	-56.1	-84.6	80	2
2023-08-23T06:00	21888	43	-56.0	-84.5	83	1
2023-08-23T06:00	21916	43	-56.0	-84.5	83	1
2023-08-23T06:00	21937	43	-56.0	-84.5	71	0
2023-08-23T06:00	21966	43	-55.8	-84.8	33	0
2023-08-23T06:00	21992	43	-55.7	-84.7	5	1
2023-08-23T06:00	22017	42	-55.6	-84.6	1	1
2023-08-23T06:00	22044	42	-55.6	-84.6	4	1
2023-08-23T06:00	22075	42	-55.7	-84.3	8	1
2023-08-23T06:00	22098	42	-55.8	-84.3	12	2
2023-08-23T06:00	22118	42	-55.9	-84.4	17	2
2023-08-23T06:00	22146	42	-56.0	-84.5	21	3
2023-08-23T06:00	22172	41	-56.0	-84.5	24	3
2023-08-23T06:00	22199	41	-56.0	-84.5	27	3
2023-08-23T06:00	22224	41	-56.0	-84.5	31	3
2023-08-23T06:00	22250	41	-55.9	-84.4	35	3
2023-08-23T06:00	22269	41	-55.9	-84.4	41	3
2023-08-23T06:00	22293	41	-55.9	-84.4	50	3
2023-08-23T06:00	22325	40	-56.0	-84.9	58	2
2023-08-23T06:00	22350	40	-56.0	-84.9	63	2
2023-08-23T06:00	22377	40	-55.6	-84.6	58	1
2023-08-23T06:00	22397	40	-55.5	-84.5	42	1
2023-08-23T06:00	22423	40	-55.4	-84.5	23	2
2023-08-23T06:00	22449	40	-55.4	-84.5	11	2
2023-08-23T06:00	22476	40	-55.4	-84.5	5	2
2023-08-23T06:00	22500	39	-55.6	-84.6	3	3
2023-08-23T06:00	22521	39	-55.7	-84.7	3	3
2023-08-23T06:00	22549	39	-55.7	-84.7	4	3
2023-08-23T06:00	22578	39	-55.7	-84.7	7	4
2023-08-23T06:00	22597	39	-55.5	-84.5	10	4
2023-08-23T06:00	22629	39	-55.4	-84.5	15	4
2023-08-23T06:00	22655	38	-55.5	-84.5	20	4
2023-08-23T06:00	22672	38	-55.5	-84.5	26	3
2023-08-23T06:00	22700	38	-55.4	-84.5	32	3
2023-08-23T06:00	22726	38	-55.2	-84.3	38	3
2023-08-23T06:00	22751	38	-55.1	-84.2	44	3
2023-08-23T06:00	22774	38	-55.0	-84.2	49	3
2023-08-23T06:00	22804	38	-55.0	-84.2	53	2
2023-08-23T06:00	22836	37	-55.1	-84.2	57	2
2023-08-23T06:00	22858	37	-55.0	-84.2	65	2
2023-08-23T06:00	22885	37	-55.1	-84.2	82	2
2023-08-23T06:00	22917	37	-55.2	-84.3	110	1
2023-08-23T06:00	22938	37	-55.4	-84.5	138	2
2023-08-23T06:00	22969	37	-55.4	-84.5	157	2
2023-08-23T06:00	22987	36	-55.2	-84.3	172	2
2023-08-23T06:00	23018	36	-55.3	-84.4	187	2
2023-08-23T06:00	23048	36	-55.4	-84.5	204	2
2023-08-23T06:00	23071	36	-55.4	-84.5	224	1
2023-08-23T06:00	23099	36	-55.2	-84.3	245	1
2023-08-23T06:00	23125	36	-55.1	-84.2	270	1
2023-08-23T06:00	23155	36	-55.2	-84.3	313	1
2023-08-23T06:00	23180	35	-55.3	-84.4	8	1
2023-08-23T06:00	23201	35	-55.3	-84.4	37	1
2023-08-23T06:00	23231	35	-55.3	-84.4	51	2
2023-08-23T06:00	23255	35	-55.3	-84.4	59	3
2023-08-23T06:00	23289	35	-55.4	-84.5	64	3
2023-08-23T06:00	23319	35	-55.5	-84.5	67	4
2023-08-23T06:00	23335	35	-55.5	-84.5	69	4
2023-08-23T06:00	23364	34	-55.4	-84.5	69	5
2023-08-23T06:00	23385	34	-55.3	-84.4	70	5
2023-08-23T06:00	23416	34	-55.3	-84.4	70	4
2023-08-23T06:00	23447	34	-55.4	-84.5	70	4
2023-08-23T06:00	23467	34	-55.5	-84.5	69	4
2023-08-23T06:00	23501	34	-55.6	-84.6	69	3
2023-08-23T06:00	23527	34	-55.8	-84.8	68	3
2023-08-23T06:00	23548	33	-55.8	-84.8	69	3
2023-08-23T06:00	23574	33	-55.8	-84.8	68	3
2023-08-23T06:00	23606	33	-55.9	-84.8	67	3
2023-08-23T06:00	23632	33	-56.0	-84.9	64	3
2023-08-23T06:00	23659	33	-55.9	-84.8	60	3
2023-08-23T06:00	23685	33	-55.7	-84.7	54	2
2023-08-23T06:00	23712	33	-55.7	-84.7	48	2
2023-08-23T06:00	23742	32	-55.8	-84.8	44	3
2023-08-23T06:00	23765	32	-55.8	-84.8	42	3
2023-08-23T06:00	23790	32	-55.8	-84.8	41	3
2023-08-23T06:00	23815	32	-55.8	-84.8	43	4
2023-08-23T06:00	23842	32	-55.7	-84.7	44	4
2023-08-23T06:00	23866	32	-55.7	-84.7	46	5
2023-08-23T06:00	23891	32	-55.5	-84.5	49	5
2023-08-23T06:00	23920	32	-55.4	-84.5	52	5
2023-08-23T06:00	23948	31	-55.5	-85.0	55	5
2023-08-23T06:00	23975	31	-55.4	-84.9	58	5
2023-08-23T06:00	23998	31	-55.3	-84.4	62	4
2023-08-23T06:00	24020	31	-55.3	-84.4	65	4
2023-08-23T06:00	24047	31	-55.2	-84.3	67	4
2023-08-23T06:00	24078	31	-55.3	-84.4	66	4
2023-08-23T06:00	24099	31	-55.3	-84.9	62	4
2023-08-23T06:00	24132	30	-55.3	-84.9	57	4
2023-08-23T06:00	24155	30	-55.2	-84.8	54	5
2023-08-23T06:00	24180	30	-55.1	-84.7	53	5
2023-08-23T06:00	24207	30	-55.2	-84.8	55	6
2023-08-23T06:00	24230	30	-55.1	-84.7	59	6
2023-08-23T06:00	24261	30	-55.0	-84.6	64	6
2023-08-23T06:00	24284	30	-54.8	-84.5	68	6
2023-08-23T06:00	24310	30	-54.7	-84.4	71	6
2023-08-23T06:00	24335	30	-54.7	-84.4	72	6
2023-08-23T06:00	24369	29	-54.7	-84.4	70	6
2023-08-23T06:00	24395	29	-54.7	-84.4	67	6
2023-08-23T06:00	24419	29	-54.7	-84.4	64	6
2023-08-23T06:00	24447	29	-54.7	-84.4	64	7
2023-08-23T06:00	24474	29	-54.5	-84.3	67	7
2023-08-23T06:00	24510	29	-54.4	-84.2	72	7
2023-08-23T06:00	24532	29	-54.4	-84.2	79	7
2023-08-23T06:00	24565	29	-54.4	-84.2	88	6
2023-08-23T06:00	24579	28	-54.3	-84.1	95	6
2023-08-23T06:00	24612	28	-54.3	-84.6	101	6
2023-08-23T06:00	24648	28	-54.2	-84.5	106	6
2023-08-23T06:00	24669	28	-54.0	-84.4	110	5
2023-08-23T06:00	24699	28	-53.9	-84.3	115	5
2023-08-23T06:00	24726	28	-53.7	-84.2	123	4
2023-08-23T06:00	24757	28	-53.5	-84.0	136	3
2023-08-23T06:00	24781	28	-53.3	-83.9	155	3
2023-08-23T06:00	24813	27	-53.2	-84.4	178	2
2023-08-23T06:00	24846	27	-53.0	-84.2	200	2
2023-08-23T06:00	24874	27	-52.7	-84.0	219	2
2023-08-23T06:00	24900	27	-52.4	-83.8	236	2
2023-08-23T06:00	24932	27	-52.2	-83.6	252	2
2023-08-23T06:00	24953	27	-52.1	-83.5	265	2
2023-08-23T06:00	24990	27	-52.2	-83.6	277	2
2023-08-23T06:00	25011	27	-52.2	-83.6	287	1
2023-08-23T06:00	25045	26	-52.0	-83.5	303	1
2023-08-23T06:00	25073	26	-51.9	-83.4	55	0
2023-08-23T06:00	25102	26	-51.9	-83.4	85	1
2023-08-23T06:00	25125	26	-51.8	-83.3	88	2
2023-08-23T06:00	25158	26	-51.8	-83.3	88	3
2023-08-23T06:00	25185	26	-51.7	-83.2	87	4
2023-08-23T06:00	25220	26	-51.6	-83.2	86	4
2023-08-23T06:00	25241	26	-51.5	-83.1	85	5
2023-08-23T06:00	25275	26	-51.4	-83.0	86	5
2023-08-23T06:00	25297	25	-51.3	-82.9	88	6
2023-08-23T06:00	25328	25	-51.3	-82.9	91	6
2023-08-23T06:00	25359	25	-51.3	-82.9	96	6
2023-08-23T06:00	25378	25	-51.4	-83.0	101	6
2023-08-23T06:00	25420	25	-51.5	-83.1	108	6
2023-08-23T06:00	25448	25	-51.5	-83.1	115	6
2023-08-23T06:00	25475	25	-51.2	-82.9	121	6
2023-08-23T06:00	25499	25	-51.1	-82.8	125	5
2023-08-23T06:00	25528	25	-51.0	-82.7	128	5
2023-08-23T06:00	25559	24	-50.9	-82.7	127	5
2023-08-23T06:00	25582	24	-50.9	-82.7	125	5
2023-08-23T06:00	25612	24	-50.7	-82.5	122	6
2023-08-23T06:00	25639	24	-50.5		119	6
2023-08-23T06:00	25672	24	-50.6	-82.4	118	6
2023-08-23T06:00	25699	24	-50.7	-82.5	118	6
2023-08-23T06:00	25728	24	-50.7	-82.5	119	6
2023-08-23T06:00	25752	24	-50.8	-82.6	123	5
2023-08-23T06:00	25783	24	-50.9	-82.7	129	5
2023-08-23T06:00	25817	24	-51.0	-82.7	138	4
2023-08-23T06:00	25840	23	-51.0	-82.7	152	3
2023-08-23T06:00	25886	23	-51.1	-82.8	171	2
2023-08-23T06:00	25906	23	-51.1	-82.8	195	2
2023-08-23T06:00	25927	23	-51.1	-82.8	218	2
2023-08-23T06:00	25958	23	-51.0	-82.7	234	1
2023-08-23T06:00	25986	23	-50.9	-82.7	243	1
2023-08-23T06:00	26020	23	-50.8	-82.6	239	1
2023-08-23T06:00	26051	23	-50.7	-82.5	214	1
2023-08-23T06:00	26079	23	-50.6	-82.4	171	1
2023-08-23T06:00	26109	22	-50.5	-83.0	145	1
2023-08-23T06:00	26141	22	-50.3	-82.8	134	2
2023-08-23T06:00	26159	22	-50.2	-82.8	129	2
2023-08-23T06:00	26197	22	-50.0	-82.6	126	2
2023-08-23T06:00	26227	22	-49.7	-82.4	123	2
2023-08-23T06:00	26251	22	-49.5	-82.3	119	2
2023-08-23T06:00	26282	22	-49.4	-82.2	111	2
2023-08-23T06:00	26307	22	-49.4	-82.2	101	1
2023-08-23T06:00	26337	22	-49.3	-82.1	91	1
2023-08-23T06:00	26370	22	-49.2	-82.0	81	1
2023-08-23T06:00	26400	21	-49.1	-82.0	66	1
2023-08-23T06:00	26435	21	-49.0	-81.9	44	1
2023-08-23T06:00	26455	21	-49.0	-81.9	22	1
2023-08-23T06:00	26489	21	-49.0	-81.9	12	1
2023-08-23T06:00	26513	21	-49.0	-81.9	11	2
2023-08-23T06:00	26528	21	-49.1	-82.0	14	2
2023-08-23T06:00	26559	21	-49.2	-82.0	16	2
2023-08-23T06:00	26595	21	-49.3	-81.5	16	2
2023-08-23T06:00	26616	21	-49.4	-81.6	13	2
2023-08-23T06:00	26643	21	-49.5	-81.6	9	3
2023-08-23T06:00	26683	21	-49.6	-81.7	7	3
2023-08-23T06:00	26709	21	-49.6	-81.7	10	3
2023-08-23T06:00	26740	20	-49.6	-81.7	20	3
2023-08-23T06:00	26764	20	-49.7	-82.4	37	3
2023-08-23T06:00	26801	20	-49.7	-82.4	54	3
2023-08-23T06:00	26822	20	-49.6	-82.3	68	4
2023-08-23T06:00	26842	20	-49.4	-82.2	77	5
2023-08-23T06:00	26877	20	-49.1	-82.0	83	6
2023-08-23T06:00	26910	20	-48.8	-81.7	86	6
2023-08-23T06:00	26925	20	-48.7	-81.7	88	6
2023-08-23T06:00	26961	20	-48.7	-81.7	90	6
2023-08-23T06:00	26989	20	-48.7	-81.7	90	6
2023-08-23T06:00	27018	20	-48.6	-81.6	91	5
2023-08-23T06:00	27032	19	-48.5	-81.5	90	5
2023-08-23T06:00	27079	19	-48.4	-82.2	87	4
2023-08-23T06:00	27100	19	-48.2	-82.0	84	4
2023-08-23T06:00	27127	19	-48.1	-81.9	80	3
2023-08-23T06:00	27156	19	-48.0	-81.9	79	3
2023-08-23T06:00	27183	19	-47.9	-81.8	84	3
2023-08-23T06:00	27224	19	-47.8	-81.7	95	3
2023-08-23T06:00	27245	19	-47.7	-81.6	108	3
2023-08-23T06:00	27279	19	-47.6	-81.6	118	3
2023-08-23T06:00	27306	19	-47.4	-81.4	123	3
2023-08-23T06:00	27326	19	-47.3	-81.4	122	2
2023-08-23T06:00	27372	19	-47.1	-81.2	115	2
2023-08-23T06:00	27388	18	-47.0	-81.1	100	2
2023-08-23T06:00	27408	18	-47.1	-81.2	80	1
2023-08-23T06:00	27449	18	-47.0	-81.1	61	1
2023-08-23T06:00	27488	18	-47.0	-81.1	48	1
2023-08-23T06:00	27503	18	-47.0	-81.1	36	1
2023-08-23T06:00	27538	18	-47.0	-81.1	23	1
2023-08-23T06:00	27563	18	-47.0	-81.1	7	2
2023-08-23T06:00	27598	18	-46.9	-81.1	354	2
2023-08-23T06:00	27619	18	-46.9	-81.1	345	3
2023-08-23T06:00	27651	18	-46.8	-81.0	341	3
2023-08-23T06:00	27680	18	-46.6	-80.9	340	4
2023-08-23T06:00	27696	18	-46.5	-80.8	340	4
2023-08-23T06:00	27740	18	-46.4	-80.7	343	3
2023-08-23T06:00	27777	17	-46.2	-80.6	350	2
2023-08-23T06:00	27795	17	-46.2	-80.6	7	1
2023-08-23T06:00	27823	17	-46.2	-80.6	77	1
2023-08-23T06:00	27869	17	-46.2	-80.6	125	1
2023-08-23T06:00	27881	17	-46.1	-80.5	137	2
2023-08-23T06:00	27911	17	-46.2	-80.6	144	2
2023-08-23T06:00	27934	17	-46.1	-80.5	150	3
2023-08-23T06:00	27971	17	-45.9	-81.2	159	2
2023-08-23T06:00	27991	17	-45.6	-80.9	175	2
2023-08-23T06:00	28016	17	-45.3	-80.7	202	2
2023-08-23T06:00	28064	17	-45.2	-80.7	236	2
2023-08-23T06:00	28081	17	-45.2	-80.7	262	2
2023-08-23T06:00	28107	17	-45.2	-80.7	278	3
2023-08-23T06:00	28146	17	-45.1	-80.6	289	3
2023-08-23T06:00	28167	16	-45.1	-80.6	294	4
2023-08-23T06:00	28211	16	-45.1	-79.8	296	4
2023-08-23T06:00	28226	16	-45.2	-79.8	296	5
2023-08-23T06:00	28260	16	-45.4	-80.0	294	5
2023-08-23T06:00	28294	16	-45.6	-80.1	292	6
2023-08-23T06:00	28333	16	-45.8	-80.3	292	6
2023-08-23T06:00	28347	16	-46.0	-80.4	293	7
2023-08-23T06:00	28371	16	-46.0	-80.4	297	7
2023-08-23T06:00	28417	16	-45.9	-80.3	301	7
2023-08-23T06:00	28443	16	-45.8	-80.3	306	7
2023-08-23T06:00	28469	16	-45.7	-80.2	312	7
2023-08-23T06:00	28503	16	-45.7	-80.2	318	7
2023-08-23T06:00	28525	16	-45.8	-80.3	324	7
2023-08-23T06:00	28557	16	-45.9	-80.3	330	8
2023-08-23T06:00	28608	15	-45.8	-81.1	336	8
2023-08-23T06:00	28623	15	-45.6	-80.9	342	9
2023-08-23T06:00	28665	15	-45.4	-80.8	347	9
2023-08-23T06:00	28677	15	-45.3	-80.7	352	9
2023-08-23T06:00	28727	15	-45.3	-80.7	357	8
2023-08-23T06:00	28739	15	-45.3	-80.7	1	8
2023-08-23T06:00	28788	15	-45.4	-80.8	6	8
2023-08-23T06:00	28809	15	-45.5	-80.9	10	8
2023-08-23T06:00	28849	15	-45.5	-80.9	15	9
2023-08-23T06:00	28861	15	-45.5	-80.9	18	8
2023-08-23T06:00	28902	15	-45.4	-80.8	22	8
2023-08-23T06:00	28920	15	-45.3	-80.7	25	7
2023-08-23T06:00	28964	15	-45.5	-80.9	28	7
2023-08-23T06:00	28990	15	-45.6	-80.9	31	6
2023-08-23T06:00	29022	14	-45.6	-80.9	33	5
2023-08-23T06:00	29039	14	-45.7	-81.0	35	4
2023-08-23T06:00	29071	14	-45.7	-81.0	35	3
2023-08-23T06:00	29109	14	-45.7	-81.0	32	3
2023-08-23T06:00	29144	14	-45.6	-80.9	28	2
2023-08-23T06:00	29175	14	-45.4	-80.8	23	2
2023-08-23T06:00	29197	14	-45.4	-80.8	21	2
2023-08-23T06:00	29214	14	-45.4	-80.8	22	2
2023-08-23T06:00	29265	14	-45.3	-80.7	24	3
2023-08-23T06:00	29295	14	-45.2	-80.7	27	3
2023-08-23T06:00	29318	14	-45.2	-80.7	29	4
2023-08-23T06:00	29343	14	-45.2	-80.7	31	4
2023-08-23T06:00	29380	14	-45.1	-80.6	32	4
2023-08-23T06:00	29408	14	-45.0	-80.5	33	4
2023-08-23T06:00	29443	14	-45.0	-80.5	35	4
2023-08-23T06:00	29486	14	-45.0	-80.5	38	4
2023-08-23T06:00	29490	13	-45.0	-80.5	42	4
2023-08-23T06:00	29532	13	-44.9	-80.4	48	3
2023-08-23T06:00	29562	13	-44.7	-80.3	56	3
2023-08-23T06:00	29576	13	-44.5	-80.1	68	2
2023-08-23T06:00	29591	13	-44.5	-80.1	84	2
2023-08-23T06:00	29629	13	-44.5	-80.1	103	2
2023-08-23T06:00	29658	13	-44.4	-80.1	121	2
2023-08-23T06:00	29699	13	-44.1	-79.9	137	2
2023-08-23T06:00	29725	13	-44.0	-79.8	152	3
2023-08-23T06:00	29742	13	-44.1	-79.9	164	3
2023-08-23T06:00	29778	13	-44.3	-80.0	175	3
2023-08-23T06:00	29797	13	-44.3	-80.0	186	3
2023-08-23T06:00	29831	13	-44.4	-80.1	197	3
2023-08-23T06:00	29863	13	-44.4	-80.1	212	3
2023-08-23T06:00	29885	13	-44.3	-80.0	231	2
2023-08-23T06:00	29933	13	-44.1	-79.9	253	2
2023-08-23T06:00	29967	13	-44.0	-79.8	276	2
2023-08-23T06:00	29970	13	-43.9	-79.7	296	3
2023-08-23T06:00	30015	12	-43.9	-79.7	312	3
2023-08-23T06:00	30041	12	-44.0	-79.8	325	4
2023-08-23T06:00	30072	12	-44.1	-79.9	336	4
2023-08-23T06:00	30113	12	-44.0	-79.8	345	5
2023-08-23T06:00	30135	12	-43.8	-79.6	354	5
2023-08-23T06:00	30152	12	-43.6	-80.4	2	5
2023-08-23T06:00	30175	12	-43.4	-80.3	10	5
2023-08-23T06:00	30214	12	-43.3	-80.2	18	4
2023-08-23T06:00	30248	12	-43.2	-80.2	27	4
2023-08-23T06:00	30279	12	-43.3	-80.2	36	4
2023-08-23T06:00	30318	12	-43.3	-80.2	44	5
2023-08-23T06:00	30324	12	-43.4	-80.3	49	5
2023-08-23T06:00	30373	12	-43.4	-79.4	53	5
2023-08-23T06:00	30411	12	-43.5	-79.4	55	5
2023-08-23T06:00	30423	12	-43.6	-79.5	57	5
2023-08-23T06:00	30467	12	-43.6	-79.5	58	5
2023-08-23T06:00	30492	12	-43.6	-79.5	58	4
2023-08-23T06:00	30539	12	-43.5	-80.4	59	4
2023-08-23T06:00	30568	12	-43.5	-80.4	59	3
2023-08-23T06:00	30600	11	-43.4	-80.3	58	3
2023-08-23T06:00	30621	11	-43.3	-80.2	56	3
2023-08-23T06:00	30658	11	-43.1	-80.1	55	3
2023-08-23T06:00	30680	11	-42.9	-80.0	54	3
2023-08-23T06:00	30739	11	-42.7	-79.8	53	4
2023-08-23T06:00	30764	11	-42.6	-79.7	53	4
2023-08-23T06:00	30795	11	-42.7	-79.8	54	4
2023-08-23T06:00	30827	11	-42.8	-79.9	54	4
2023-08-23T06:00	30864	11	-42.9	-80.0	54	4
2023-08-23T06:00	30892	11	-42.9	-80.0	53	4
2023-08-23T06:00	30916	11	-42.9	-80.0	50	3
2023-08-23T06:00	30960	11	-42.8	-79.9	43	3
2023-08-23T06:00	30989	11	-42.8	-79.9	31	2
2023-08-23T06:00	31026	11	-42.8	-79.9	14	2
2023-08-23T06:00	31055	11	-42.8	-79.9	359	2
2023-08-23T06:00	31070	11	-42.6	-79.7	352	2
2023-08-23T06:00	31119	11	-42.2	-79.5	352	3
2023-08-23T06:00	31163	11	-41.9	-79.2	356	3
2023-08-23T06:00	31184	10	-41.6	-79.0	0	4
2023-08-23T06:00	31238	10	-41.5	-79.0	5	4
2023-08-23T06:00	31259	10	-41.5	-79.0	9	4
2023-08-23T06:00	31284	10	-41.6	-79.0	13	4
2023-08-23T06:00	31319	10	-41.7	-79.1	18	4
2023-08-23T06:00	31342	10	-41.7	-79.1	25	4
2023-08-23T06:00	31366	10	-41.7	-79.1	35	3
2023-08-23T06:00	31408	10	-41.8	-79.2	49	3
2023-08-23T06:00	31440	10	-42.0	-79.3	64	3
2023-08-23T06:00	31475	10	-42.1	-79.4	77	3
2023-08-23T06:00	31494	10	-42.2	-79.5	87	4
2023-08-23T06:00	31535	10	-42.3	-79.5	95	4
2023-08-23T06:00	31565	10	-42.3	-79.5	101	5
2023-08-23T06:00	31605	10	-42.2	-79.5	108	5
2023-08-23T06:00	31616	10	-42.1	-79.4	115	5
2023-08-23T06:00	31657	10	-41.8	-79.2	122	5
2023-08-23T06:00	31688	10	-41.6	-79.0	129	5
2023-08-23T06:00	31716	10	-41.6	-79.0	136	5
2023-08-23T06:00	31719	10	-41.7	-79.1	146	4
2023-08-23T06:00	31764	10	-42.0	-79.3	158	4
2023-08-23T06:00	31805	10	-42.2	-79.5	173	3
2023-08-23T06:00	31832	10	-42.2	-79.5	192	3
2023-08-23T06:00	31866	10	-42.1	-79.4	210	3
2023-08-23T06:00	31888	9	-42.0	-79.3	225	3
2023-08-23T06:00	31899	9	-41.9	-79.2	237	3
2023-08-23T06:00	31949	9	-41.8	-79.2	245	3
2023-08-23T06:00	31965	9	-41.7	-79.1	252	3
2023-08-23T06:00	31982	9	-41.6	-79.0	260	3
2023-08-23T06:00	32016	9	-41.6	-79.0	268	3
2023-08-23T06:00	32057	9	-41.7	-79.1	278	3
2023-08-23T06:00	32070	9	-41.7	-79.1	289	3
2023-08-23T06:00	32095	9	-41.5	-79.0	302	2
2023-08-23T06:00	32145	9	-41.4	-78.9	318	2
2023-08-23T06:00	32164	9	-41.2	-79.9	340	2
2023-08-23T06:00	32186	9	-41.1	-79.8	8	2
2023-08-23T06:00	32215	9	-41.1	-79.8	32	2
2023-08-23T06:00	32269	9	-41.2	-79.9	45	3
2023-08-23T06:00	32276	9	-41.2	-79.9	51	3
2023-08-23T06:00	32354	9	-41.2	-78.8	54	4
2023-08-23T06:00	32357	9	-41.1	-78.7	60	5
2023-08-23T06:00	32395	9	-41.0	-79.7	65	6
2023-08-23T06:00	32433	9	-41.0	-78.6	71	6
2023-08-23T06:00	32468	9	-41.0	-78.6	79	6
2023-08-23T06:00	32500	9	-41.1	-78.7	88	6
2023-08-23T06:00	32508	9	-41.2	-78.8	97	5
2023-08-23T06:00	32555	9	-41.3	-78.8	104	5
2023-08-23T06:00	32608	9	-41.2	-78.8	110	5
2023-08-23T06:00	32623	9	-41.2	-79.9	114	5
2023-08-23T06:00	32684	8	-41.1	-79.8	117	4
2023-08-23T06:00	32696	8	-41.0	-79.7	122	3
2023-08-23T06:00	32717	8	-40.8	-79.6	132	2
2023-08-23T06:00	32751	8	-40.4	-79.3	151	1
2023-08-23T06:00	32787	8	-40.1	-79.1	180	1
2023-08-23T06:00	32805	8	-39.9	-79.0	204	1
2023-08-23T06:00	32852	8	-39.7	-78.8	222	1
2023-08-23T06:00	32899	8	-39.5	-78.7	241	1
2023-08-23T06:00	32963	8	-39.1	-78.4	304	1
2023-08-23T06:00	32988	8	-39.0	-78.3	326	2
2023-08-23T06:00	33037	8	-39.0	-78.3	337	2
2023-08-23T06:00	33043	8	-39.0	-78.3	342	3
2023-08-23T06:00	33085	8	-39.1	-78.4	345	3
2023-08-23T06:00	33103	8	-39.1	-78.4	349	3
2023-08-23T06:00	33128	8	-39.2	-78.5	356	3
2023-08-23T06:00	33183	8	-39.2	-78.5	6	4
2023-08-23T06:00	33210	8	-39.2	-78.5	19	4
2023-08-23T06:00	33249	8	-39.2	-78.5	32	4
2023-08-23T06:00	33276	8	-39.2	-78.5	44	4
2023-08-23T06:00	33297	8	-39.1	-78.4	53	5
2023-08-23T06:00	33371	8	-39.1	-78.4	58	6
2023-08-23T06:00	33425	8	-38.9	-78.3	64	6
2023-08-23T06:00	33464	8	-38.7	-78.1	71	7
2023-08-23T06:00	33528	7	-38.5	-78.0	74	7
2023-08-23T06:00	33561	7	-38.3	-77.9	79	7
2023-08-23T06:00	33593	7	-38.1	-77.7	78	7
2023-08-23T06:00	33623	7	-37.8	-77.5	75	8
2023-08-23T06:00	33641	7	-37.5	-77.3	72	8
2023-08-23T06:00	33669	7	-37.2	-77.1	68	9
2023-08-23T06:00	33716	7	-37.0	-77.0	65	10
2023-08-23T06:00	33721	7	-37.0	-77.0	61	11
2023-08-23T06:00	33783	7	-37.0	-77.0	59	11
2023-08-23T06:00	33799	7	-37.0	-77.0	57	12
2023-08-23T06:00	33816	7	-36.9	-76.9	57	12
2023-08-23T06:00	33847	7	-36.7	-76.7	58	12
2023-08-23T06:00	33880	7	-36.6	-76.7	59	12
2023-08-23T06:00	33898	7	-36.5	-76.6	62	11
2023-08-23T06:00	33943	7	-36.4	-76.5	64	11
2023-08-23T06:00	33948	7	-36.3	-76.5	65	10
2023-08-23T06:00	33973	7	-36.4	-76.5	66	9
2023-08-23T06:00	33983	7	-36.4	-76.5	66	9
2023-08-23T06:00	34005	7	-36.4	-76.5	64	8
2023-08-23T06:00	34047	7	-36.4	-76.5	62	8
2023-08-23T06:00	34071	7	-36.4	-76.5	59	7
2023-08-23T06:00	34113	7	-36.4	-76.5	58	7
2023-08-23T06:00	34132	7	-36.4	-76.5	58	7
2023-08-23T06:00	34177	7	-36.3	-76.5	60	7
2023-08-23T06:00	34196	7	-36.3	-76.5	63	8
2023-08-23T06:00	34271	7	-36.2	-76.4	70	8
2023-08-23T06:00	34293	7	-36.3	-76.5	74	9
2023-08-23T06:00	34325	7	-36.2	-76.4	77	9
2023-08-23T06:00	34353	7	-36.2	-76.4	80	9
2023-08-23T06:00	34385	7	-36.3	-76.5	83	8
2023-08-23T06:00	34422	7	-36.3	-76.5	87	8
2023-08-23T06:00	34445	7	-36.3	-76.5	91	8
2023-08-23T06:00	34472	7	-36.3	-76.5	96	8
2023-08-23T06:00	34541	6	-36.3	-76.5	100	8
2023-08-23T06:00	34553	6	-36.2	-76.4	103	8
2023-08-23T06:00	34561	6	-36.1	-76.3	106	8
2023-08-23T06:00	34607	6	-35.8	-76.1	107	8
2023-08-23T06:00	34647	6	-35.7	-76.1	108	9
2023-08-23T06:00	34670	6	-35.7	-76.1	108	9
2023-08-23T06:00	34693	6	-35.8	-76.1	108	10
2023-08-23T06:00	34704	6	-35.8	-76.1	107	10
2023-08-23T06:00	34745	6	-35.9	-76.2	105	11
2023-08-23T06:00	34753	6	-35.9	-76.2	101	11
2023-08-23T12:00	115	1006	24.3	13.9	258	3
2023-08-23T12:00	143	1003	23.6	12.9	263	3
2023-08-23T12:00	167	1000	23.3	12.6	263	4
2023-08-23T12:00	188	998	23.0	12.2	264	5
2023-08-23T12:00	209	995	22.7	12.0	265	5
2023-08-23T12:00	228	993	22.6	12.1	265	5
2023-08-23T12:00	243	991	22.4	12.1	264	5
2023-08-23T12:00	265	989	22.2	12.1	262	5
2023-08-23T12:00	281	987	22.0	11.9	260	5
2023-08-23T12:00	299	985	21.9	12.1	259	5
2023-08-23T12:00	322	983	21.7	12.0	260	5
2023-08-23T12:00	339	980	21.5	11.7	262	4
2023-08-23T12:00	357	978	21.3	11.6	264	4
2023-08-23T12:00	376	977	21.2	11.8	266	4
2023-08-23T12:00	390	975	21.0	11.5	265	4
2023-08-23T12:00	408	973	20.8	11.4	263	4
2023-08-23T12:00	424	971	20.7	11.7	261	4
2023-08-23T12:00	444	969	20.5	11.5	260	4
2023-08-23T12:00	462	967	20.3	11.4	259	4
2023-08-23T12:00	481	965	20.1	11.4	259	4
2023-08-23T12:00	499	963	20.0	11.3	258	4
2023-08-23T12:00	516	961	19.8	11.5	257	4
2023-08-23T12:00	532	959	19.6	11.4	256	4
2023-08-23T12:00	557	956	19.4	11.5	256	4
2023-08-23T12:00	574	954	19.2	11.5	258	3
2023-08-23T12:00	589	953	19.1	11.3	259	3
2023-08-23T12:00	604	951	19.0	11.3	258	3
2023-08-23T12:00	615	950	18.8	11.2	252	3
2023-08-23T12:00	628	948	18.7	11.4	244	3
2023-08-23T12:00	643	947	18.5	11.2	239	4
2023-08-23T12:00	656	945	18.4	11.1	238	5
2023-08-23T12:00	667	944	18.3	11.1	240	5
2023-08-23T12:00	680	942	18.3	11.0	246	5
2023-08-23T12:00	696	941	18.1	10.9	252	5
2023-08-23T12:00	710	939	18.0	10.8	257	5
2023-08-23T12:00	727	937	17.8	11.1	256	5
2023-08-23T12:00	743	936	17.6	11.0	251	5
2023-08-23T12:00	759	934	17.5	11.1	244	5
2023-08-23T12:00	774	932	17.3	10.9	237	5
2023-08-23T12:00	788	931	17.2	10.8	232	5
2023-08-23T12:00	801	929	17.1	10.7	231	5
2023-08-23T12:00	817	928	17.0	10.6	235	4
2023-08-23T12:00	833	926	16.9	10.7	242	4
2023-08-23T12:00	847	924	16.7	11.1	245	4
2023-08-23T12:00	865	922	16.5	11.1	244	4
2023-08-23T12:00	879	921	16.3	10.8	239	4
2023-08-23T12:00	895	919	16.2	10.8	234	4
2023-08-23T12:00	913	917	16.0	11.0	232	4
2023-08-23T12:00	926	916	15.9	10.9	238	3
2023-08-23T12:00	938	914	15.8	10.6	252	3
2023-08-23T12:00	955	913	15.6	10.8	265	3
2023-08-23T12:00	971	911	15.5	10.9	271	4
2023-08-23T12:00	991	909	15.3	10.8	272	5
2023-08-23T12:00	1006	907	15.1	11.0	270	5
2023-08-23T12:00	1026	905	14.9	10.8	267	5
2023-08-23T12:00	1044	903	14.7	10.8	263	5
2023-08-23T12:00	1060	901	14.5	10.9	260	5
2023-08-23T12:00	1075	900	14.5	10.5	257	5
2023-08-23T12:00	1096	898	14.3	10.6	255	5
2023-08-23T12:00	1118	895	14.1	10.5	254	5
2023-08-23T12:00	1140	893	13.9	10.2	252	5
2023-08-23T12:00	1162	890	13.8	9.8	250	5
2023-08-23T12:00	1185	888	13.6	9.8	246	4
2023-08-23T12:00	1209	886	13.4	10.0	241	4
2023-08-23T12:00	1231	883	13.3	9.0	237	4
2023-08-23T12:00	1254	881	13.1	8.6	235	4
2023-08-23T12:00	1277	878	12.9	8.5	236	4
2023-08-23T12:00	1298	876	12.7	8.3	238	5
2023-08-23T12:00	1321	874	12.5	8.1	239	5
2023-08-23T12:00	1341	872	12.3	8.3	240	5
2023-08-23T12:00	1359	870	12.1	8.8	241	5
2023-08-23T12:00	1385	867	11.9	8.7	245	5
2023-08-23T12:00	1408	865	11.6	8.9	251	5
2023-08-23T12:00	1429	863	11.4	8.1	259	5
2023-08-23T12:00	1450	860	11.1	8.8	265	5
2023-08-23T12:00	1473	858	11.1	7.8	268	5
2023-08-23T12:00	1488	856	11.0	7.9	266	5
2023-08-23T12:00	1515	854	10.8	8.0	263	6
2023-08-23T12:00	1536	852	10.6	7.1	260	6
2023-08-23T12:00	1559	849	10.5	6.2	259	6
2023-08-23T12:00	1580	847	10.4	5.6	260	6
2023-08-23T12:00	1599	846	10.3	5.5	261	6
2023-08-23T12:00	1613	844	10.2	5.6	261	6
2023-08-23T12:00	1629	842	10.2	6.0	261	6
2023-08-23T12:00	1648	840	10.0	6.0	261	5
2023-08-23T12:00	1662	839	9.8	5.9	261	5
2023-08-23T12:00	1679	837	9.7	6.1	262	5
2023-08-23T12:00	1696	836	9.5	6.1	263	5
2023-08-23T12:00	1711	834	9.4	6.1	263	6
2023-08-23T12:00	1732	832	9.2	6.1	261	6
2023-08-23T12:00	1752	830	9.0	5.9	258	7
2023-08-23T12:00	1768	828	8.8	5.8	256	8
2023-08-23T12:00	1785	827	8.6	5.8	255	8
2023-08-23T12:00	1802	825	8.5	5.5	255	8
2023-08-23T12:00	1832	822	8.4	5.2	257	7
2023-08-23T12:00	1854	820	8.1	5.6	260	7
2023-08-23T12:00	1874	818	7.9	5.2	263	7
2023-08-23T12:00	1897	816	7.8	4.8	265	7
2023-08-23T12:00	1914	814	7.6	5.0	267	8
2023-08-23T12:00	1933	812	7.5	4.7	268	8
2023-08-23T12:00	1955	810	7.5	3.9	268	9
2023-08-23T12:00	1986	807	7.2	4.2	267	9
2023-08-23T12:00	2009	804	7.3	3.4	265	9
2023-08-23T12:00	2037	802	7.0	3.4	263	9
2023-08-23T12:00	2055	800	6.8	2.6	261	9
2023-08-23T12:00	2076	798	6.8	1.8	259	8
2023-08-23T12:00	2094	796	6.7	1.5	259	8
2023-08-23T12:00	2119	794	6.4	1.7	261	7
2023-08-23T12:00	2139	792	6.2	1.9	265	6
2023-08-23T12:00	2158	790	6.2	-0.2	270	6
2023-08-23T12:00	2179	788	6.3	-1.7	275	6
2023-08-23T12:00	2199	786	6.2	-2.1	278	7
2023-08-23T12:00	2216	784	6.0	-2.3	279	7
2023-08-23T12:00	2235	783	6.0	-2.7	279	8
2023-08-23T12:00	2253	781	6.0	-2.6	276	9
2023-08-23T12:00	2279	779	6.0	-4.0	272	9
2023-08-23T12:00	2301	777	6.1	-6.2	268	10
2023-08-23T12:00	2318	775	6.5	-13.2	264	10
2023-08-23T12:00	2341	773	6.9	-24.8	261	11
2023-08-23T12:00	2363	771	7.4	-27.1	260	11
2023-08-23T12:00	2382	769	7.6	-26.3	261	11
2023-08-23T12:00	2404	767	7.9	-25.1	263	11
2023-08-23T12:00	2430	764	7.9	-23.6	267	11
2023-08-23T12:00	2456	762	8.1		273	11
2023-08-23T12:00	2485	759	7.8	-10.6	277	10
2023-08-23T12:00	2508	757	7.5	-6.5	281	10
2023-08-23T12:00	2525	755	7.4	-4.4	281	9
2023-08-23T12:00	2554	753	7.3	-2.9	278	9
2023-08-23T12:00	2585	750	7.3	-3.2	271	8
2023-08-23T12:00	2605	748	7.2	-3.5	264	8
2023-08-23T12:00	2626	746	7.1	-3.6	260	8
2023-08-23T12:00	2647	744	6.9	-3.7	260	8
2023-08-23T12:00	2668	743	6.8	-4.1	264	9
2023-08-23T12:00	2690	741	6.7	-4.6	270	9
2023-08-23T12:00	2716	738	6.5	-3.9	276	9
2023-08-23T12:00	2737	736	6.4	-4.1	280	9
2023-08-23T12:00	2763	734	6.4	-4.6	280	10
2023-08-23T12:00	2787	732	6.2	-4.8	278	10
2023-08-23T12:00	2816	729	6.0	-5.5	275	11
2023-08-23T12:00	2836	727	5.9	-5.6	272	12
2023-08-23T12:00	2859	725	5.8	-5.6	270	12
2023-08-23T12:00	2880	724	5.6		269	11
2023-08-23T12:00	2900	722	5.5	-4.8	268	10
2023-08-23T12:00	2921	720	5.3	-4.8	267	9
2023-08-23T12:00	2944	718	5.2	-4.9	267	8
2023-08-23T12:00	2969	716	5.1	-4.9	270	8
2023-08-23T12:00	2992	714	5.0	-5.1	275	8
2023-08-23T12:00	3018	711	4.9	-5.3	280	9
2023-08-23T12:00	3043	709	4.7	-6.5	284	9
2023-08-23T12:00	3061	708	4.5	-7.1	285	10
2023-08-23T12:00	3086	706	4.5	-7.8	286	10
2023-08-23T12:00	3110	704	4.5	-8.2	286	9
2023-08-23T12:00	3130	702	4.6	-9.0	286	9
2023-08-23T12:00	3149	700	4.8	-12.5	287	9
2023-08-23T12:00	3168	698	5.0	-14.3	288	9
2023-08-23T12:00	3189	696	5.0	-16.2	289	10
2023-08-23T12:00	3218	694	4.9	-11.4	289	10
2023-08-23T12:00	3243	692	4.7	-11.7	290	10
2023-08-23T12:00	3263	690	4.6	-12.1	290	10
2023-08-23T12:00	3282	689	4.6	-14.8	291	10
2023-08-23T12:00	3299	687	4.6	-17.7	292	10
2023-08-23T12:00	3318	685	4.4	-18.8	292	10
2023-08-23T12:00	3344	684	4.4	-19.5	291	10
2023-08-23T12:00	3360	682	4.3	-19.5	291	10
2023-08-23T12:00	3386	680	4.2	-21.9	290	11
2023-08-23T12:00	3408	678	4.0	-23.1	290	11
2023-08-23T12:00	3427	677	3.9	-20.1	290	12
2023-08-23T12:00	3444	675	3.8	-20.1	288	13
2023-08-23T12:00	3461	674	3.7	-19.9	286	13
2023-08-23T12:00	3480	672	3.6	-19.4	283	13
2023-08-23T12:00	3504	670	3.5	-18.4	279	12
2023-08-23T12:00	3526	668	3.3	-19.0	275	12
2023-08-23T12:00	3547	667	3.2	-19.4	273	11
2023-08-23T12:00	3562	665	3.0	-19.4	273	10
2023-08-23T12:00	3581	664	3.0	-18.6	274	10
2023-08-23T12:00	3605	662	2.8	-18.7	278	10
2023-08-23T12:00	3631	660	2.5	-18.8	281	11
2023-08-23T12:00	3647	658	2.3	-18.6	282	12
2023-08-23T12:00	3668	657	2.2	-19.5	282	12
2023-08-23T12:00	3695	655	2.1	-21.4	280	13
2023-08-23T12:00	3715	653	1.9	-21.9	278	14
2023-08-23T12:00	3737	651	1.8	-21.1	276	14
2023-08-23T12:00	3752	650	1.5	-20.2	275	14
2023-08-23T12:00	3772	648	1.4	-22.1	274	13
2023-08-23T12:00	3796	646	1.3	-20.4	275	13
2023-08-23T12:00	3817	645	1.2	-22.8	276	12
2023-08-23T12:00	3837	643	1.1	-21.7	278	12
2023-08-23T12:00	3859	641	0.9	-21.8	281	12
2023-08-23T12:00	3877	640	0.8	-22.1	282	13
2023-08-23T12:00	3900	638	0.6	-22.2	284	14
2023-08-23T12:00	3927	636	0.4	-22.3	285	14
2023-08-23T12:00	3945	634	0.3	-22.6	286	15
2023-08-23T12:00	3965	633	0.2	-22.7	286	16
2023-08-23T12:00	3984	631	0.1	-22.7	286	16
2023-08-23T12:00	4005	630	-0.1	-23.1	284	16
2023-08-23T12:00	4025	628	-0.1	-23.0	282	16
2023-08-23T12:00	4046	626	-0.2	-22.8	279	16
2023-08-23T12:00	4071	625	-0.2	-23.4	277	16
2023-08-23T12:00	4090	623	-0.4	-23.1	276	16
2023-08-23T12:00	4108	622	-0.4	-24.7	276	16
2023-08-23T12:00	4128	620	-0.4	-26.6	278	16
2023-08-23T12:00	4153	618	-0.4	-14.8	281	16
2023-08-23T12:00	4180	616	-0.5	-13.6	284	16
2023-08-23T12:00	4200	615	-0.6	-13.7	286	16
2023-08-23T12:00	4218	613	-0.7	-13.8	287	16
2023-08-23T12:00	4242	611	-0.7	-15.6	288	17
2023-08-23T12:00	4274	609	-0.9	-12.8	287	17
2023-08-23T12:00	4294	607	-1.0	-10.7	287	17
2023-08-23T12:00	4315	606	-1.2	-10.7	286	18
2023-08-23T12:00	4337	604	-1.3	-9.3	287	18
2023-08-23T12:00	4358	602	-1.5	-7.6	287	18
2023-08-23T12:00	4383	601	-1.7	-7.2	287	18
2023-08-23T12:00	4404	599	-2.0	-7.0	288	19
2023-08-23T12:00	4428	597	-2.0	-7.0	287	19
2023-08-23T12:00	4459	595	-2.2	-7.4	286	19
2023-08-23T12:00	4487	593	-2.4	-8.5	285	18
2023-08-23T12:00	4505	591	-2.6	-8.7	284	18
2023-08-23T12:00	4525	590	-2.5	-9.6	284	17
2023-08-23T12:00	4550	588	-2.7	-12.1	284	17
2023-08-23T12:00	4568	587	-2.9	-14.0	284	17
2023-08-23T12:00	4588	585	-2.9	-14.1	285	17
2023-08-23T12:00	4611	584	-3.2	-11.0	285	17
2023-08-23T12:00	4631	582	-3.4	-11.6	284	17
2023-08-23T12:00	4656	580	-3.6	-11.6	284	17
2023-08-23T12:00	4677	579	-3.7	-12.0	283	17
2023-08-23T12:00	4701	577	-3.9	-12.1	282	17
2023-08-23T12:00	4729	575	-4.1	-11.0	282	17
2023-08-23T12:00	4757	573	-4.5	-9.4	282	17
2023-08-23T12:00	4782	571	-4.7	-9.5	283	18
2023-08-23T12:00	4806	569	-4.9	-9.9	283	18
2023-08-23T12:00	4825	568	-5.1	-10.6	283	19
2023-08-23T12:00	4847	566	-5.2	-11.1	282	19
2023-08-23T12:00	4872	565	-5.3	-13.1	281	19
2023-08-23T12:00	4892	563	-5.5	-13.3	281	19
2023-08-23T12:00	4911	562	-5.6	-13.6	281	19
2023-08-23T12:00	4936	560	-5.7	-13.7	282	19
2023-08-23T12:00	4956	558	-6.0	-14.1	284	19
2023-08-23T12:00	4985	557	-6.1	-14.1	286	19
2023-08-23T12:00	5011	555	-6.4	-13.7	286	18
2023-08-23T12:00	5041	553	-6.7	-13.2	286	18
2023-08-23T12:00	5059	551	-6.8	-13.2	285	18
2023-08-23T12:00	5082	550	-6.9	-13.3	283	18
2023-08-23T12:00	5110	548	-7.2	-14.2	282	19
2023-08-23T12:00	5132	546	-7.3	-14.8	281	19
2023-08-23T12:00	5156	544	-7.4	-15.1	281	20
2023-08-23T12:00	5179	543	-7.6	-15.4	280	20
2023-08-23T12:00	5203	541	-7.7	-15.7	280	20
2023-08-23T12:00	5223	540	-7.9	-16.2	279	20
2023-08-23T12:00	5249	538	-7.9	-16.3	278	20
2023-08-23T12:00	5275	536	-8.1	-16.9	278	20
2023-08-23T12:00	5297	535	-8.4	-17.3	278	20
2023-08-23T12:00	5318	533	-8.4	-17.4	278	20
2023-08-23T12:00	5338	532	-8.4	-17.6	279	20
2023-08-23T12:00	5359	531	-8.6	-17.7	279	20
2023-08-23T12:00	5379	529	-8.8	-18.2	280	20
2023-08-23T12:00	5397	528	-8.7	-18.9	281	20
2023-08-23T12:00	5418	526	-8.8	-18.8	282	20
2023-08-23T12:00	5440	525	-8.9	-18.9	284	20
2023-08-23T12:00	5460	524	-8.9	-19.3	286	20
2023-08-23T12:00	5488	522	-8.9	-20.8	288	20
2023-08-23T12:00	5513	520	-9.0	-22.0	289	20
2023-08-23T12:00	5534	519	-9.2	-22.8	290	19
2023-08-23T12:00	5556	517	-9.3	-23.5	290	19
2023-08-23T12:00	5575	516	-9.5	-23.7	290	18
2023-08-23T12:00	5604	514	-9.6	-23.8	288	18
2023-08-23T12:00	5627	512	-9.9	-23.8	287	17
2023-08-23T12:00	5647	511	-10.0	-23.7	286	18
2023-08-23T12:00	5669	510	-10.2	-23.6	285	18
2023-08-23T12:00	5689	508	-10.2	-24.6	283	18
2023-08-23T12:00	5711	507	-10.2	-25.2	282	18
2023-08-23T12:00	5729	506	-10.4	-25.8	281	18
2023-08-23T12:00	5754	504	-10.4	-26.3	280	18
2023-08-23T12:00	5776	502	-10.7	-26.7	279	18
2023-08-23T12:00	5807	501	-10.9	-27.2	277	18
2023-08-23T12:00	5825	499	-11.1	-27.8	277	18
2023-08-23T12:00	5845	498	-11.1	-27.9	277	19
2023-08-23T12:00	5868	497	-11.3	-27.1	279	20
2023-08-23T12:00	5891	495	-11.4	-24.8	279	20
2023-08-23T12:00	5913	494	-11.7	-22.3	280	20
2023-08-23T12:00	5939	492	-11.9	-21.6	280	19
2023-08-23T12:00	5961	491	-12.2	-21.4	279	19
2023-08-23T12:00	5982	489	-12.4	-22.1	277	19
2023-08-23T12:00	6002	488	-12.5	-22.1	276	19
2023-08-23T12:00	6025	487	-12.7	-21.6	275	18
2023-08-23T12:00	6043	485	-12.8	-21.6	275	18
2023-08-23T12:00	6062	484	-13.0	-21.9	275	18
2023-08-23T12:00	6085	483	-13.1	-23.0	275	18
2023-08-23T12:00	6112	481	-13.3	-23.6	275	19
2023-08-23T12:00	6137	479	-13.5	-23.5	274	19
2023-08-23T12:00	6154	478	-13.7	-23.5	274	19
2023-08-23T12:00	6172	477	-13.8	-23.5	274	19
2023-08-23T12:00	6194	476	-14.0	-23.1	275	19
2023-08-23T12:00	6211	475	-14.2	-23.6	275	18
2023-08-23T12:00	6230	474	-14.4	-24.0	275	18
2023-08-23T12:00	6249	472	-14.4	-24.1	276	17
2023-08-23T12:00	6266	471	-14.6	-24.0	276	17
2023-08-23T12:00	6288	470	-14.7	-24.2	276	16
2023-08-23T12:00	6309	469	-14.8	-24.5	277	16
2023-08-23T12:00	6331	467	-14.9	-24.9	277	16
2023-08-23T12:00	6346	466	-15.1	-25.1	277	16
2023-08-23T12:00	6365	465	-15.1	-25.0	276	17
2023-08-23T12:00	6385	464	-15.4	-24.7	275	17
2023-08-23T12:00	6411	462	-15.5	-24.0	274	17
2023-08-23T12:00	6427	461	-15.8	-23.7	274	17
2023-08-23T12:00	6446	460	-15.9	-23.5	274	17
2023-08-23T12:00	6469	459	-16.1	-23.6	275	17
2023-08-23T12:00	6491	457	-16.4	-23.1	275	17
2023-08-23T12:00	6518	456	-16.5	-23.1	275	18
2023-08-23T12:00	6540	455	-16.9	-22.8	274	19
2023-08-23T12:00	6559	453	-17.0	-23.0	273	20
2023-08-23T12:00	6582	452	-17.2	-21.0	272	20
2023-08-23T12:00	6602	451	-17.2	-17.9	272	20
2023-08-23T12:00	6625	449	-17.0	-18.2	272	20
2023-08-23T12:00	6648	448	-16.9	-18.0	272	20
2023-08-23T12:00	6665	447	-17.0	-17.9	273	20
2023-08-23T12:00	6690	446	-17.2	-18.4	273	20
2023-08-23T12:00	6711	444	-17.4	-18.6	274	20
2023-08-23T12:00	6731	443	-17.4	-18.6	275	21
2023-08-23T12:00	6751	442	-17.6	-18.9	276	21
2023-08-23T12:00	6776	440	-17.8	-19.2	276	22
2023-08-23T12:00	6811	439	-18.0	-19.8	276	22
2023-08-23T12:00	6829	437	-18.3	-19.8	276	21
2023-08-23T12:00	6850	436	-18.4	-20.0	275	21
2023-08-23T12:00	6870	435	-18.6	-20.6	276	21
2023-08-23T12:00	6893	434	-18.7	-20.7	276	21
2023-08-23T12:00	6911	432	-18.9	-20.7	277	21
2023-08-23T12:00	6934	431	-19.2	-20.7	278	21
2023-08-23T12:00	6952	430	-19.4	-20.9	279	22
2023-08-23T12:00	6975	429	-19.5	-21.1	279	21
2023-08-23T12:00	6998	427	-19.7	-21.0	279	21
2023-08-23T12:00	7023	426	-20.0	-21.7	279	20
2023-08-23T12:00	7045	425	-20.1	-21.7	279	20
2023-08-23T12:00	7068	423	-20.3	-21.2	278	20
2023-08-23T12:00	7092	422	-20.6	-21.4	277	20
2023-08-23T12:00	7114	421	-20.8	-21.5	276	21
2023-08-23T12:00	7142	419	-21.1	-21.5	276	21
2023-08-23T12:00	7166	418	-21.4	-21.7	276	22
2023-08-23T12:00	7189	417	-21.5	-22.5	278	22
2023-08-23T12:00	7212	415	-21.7	-22.7	279	22
2023-08-23T12:00	7234	414	-21.9	-22.7	280	22
2023-08-23T12:00	7257	413	-22.1	-22.9	281	22
2023-08-23T12:00	7279	412	-22.3	-23.1	280	22
2023-08-23T12:00	7299	410	-22.6	-23.1	279	22
2023-08-23T12:00	7321	409	-22.5	-25.0	278	22
2023-08-23T12:00	7344	408	-22.3	-28.6	277	22
2023-08-23T12:00	7370	407	-22.3	-30.6	277	23
2023-08-23T12:00	7389	405	-22.2	-32.4	277	24
2023-08-23T12:00	7407	404	-22.2	-34.0	277	25
2023-08-23T12:00	7425	403	-21.9	-39.1	277	26
2023-08-23T12:00	7447	402	-22.0	-39.3	277	26
2023-08-23T12:00	7464	401	-22.1	-38.5	277	26
2023-08-23T12:00	7484	400	-22.2	-37.8	278	26
2023-08-23T12:00	7503	399	-22.4		278	26
2023-08-23T12:00	7521	398	-22.5	-38.5	279	26
2023-08-23T12:00	7539	397	-22.5	-38.6	279	26
2023-08-23T12:00	7556	396	-22.5	-38.6	279	26
2023-08-23T12:00	7578	395	-22.7	-38.0	278	26
2023-08-23T12:00	7602	394	-22.9	-38.5	278	26
2023-08-23T12:00	7621	393	-23.1	-39.3	278	26
2023-08-23T12:00	7640	392	-23.2	-38.9	277	26
2023-08-23T12:00	7660	391	-23.3	-38.6	277	26
2023-08-23T12:00	7682	390	-23.4	-37.8	277	26
2023-08-23T12:00	7700	389	-23.5	-36.0	277	26
2023-08-23T12:00	7720	388	-23.5	-35.2	277	26
2023-08-23T12:00	7739	386	-23.6	-35.4	277	26
2023-08-23T12:00	7758	386	-23.8	-35.3	277	26
2023-08-23T12:00	7777	385	-24.0	-35.4	277	26
2023-08-23T12:00	7796	384	-24.1	-35.6	277	26
2023-08-23T12:00	7815	383	-24.2	-35.4	277	26
2023-08-23T12:00	7833	382	-24.4	-35.6	277	26
2023-08-23T12:00	7853	381	-24.6	-35.9	276	26
2023-08-23T12:00	7873	380	-24.8	-36.3	276	26
2023-08-23T12:00	7889	379	-24.9	-35.9	276	26
2023-08-23T12:00	7910	378	-25.1	-35.0	276	26
2023-08-23T12:00	7931	376	-25.1	-35.2	276	26
2023-08-23T12:00	7954	375	-25.3	-35.1	275	26
2023-08-23T12:00	7976	374	-25.6	-35.2	275	26
2023-08-23T12:00	7993	373	-25.8	-35.0	274	26
2023-08-23T12:00	8012	372	-26.0	-35.4	274	26
2023-08-23T12:00	8035	371	-26.1	-35.3	274	26
2023-08-23T12:00	8054	370	-26.4	-35.4	275	26
2023-08-23T12:00	8077	369	-26.6	-35.4	275	26
2023-08-23T12:00	8096	368	-26.8	-35.5	276	26
2023-08-23T12:00	8113	367	-26.9	-35.6	276	26
2023-08-23T12:00	8132	366	-27.1	-35.6	276	26
2023-08-23T12:00	8152	365	-27.4	-35.6	275	26
2023-08-23T12:00	8172	364	-27.6	-35.9	275	26
2023-08-23T12:00	8190	363	-27.6	-36.1	276	27
2023-08-23T12:00	8210	362	-27.9	-36.1	276	27
2023-08-23T12:00	8233	361	-28.1	-36.4	277	27
2023-08-23T12:00	8253	360	-28.3	-37.3	277	27
2023-08-23T12:00	8270	359	-28.5	-38.7	277	27
2023-08-23T12:00	8291	358	-28.5	-40.1	277	27
2023-08-23T12:00	8312	357	-28.6	-41.2	277	27
2023-08-23T12:00	8332	356	-28.8	-43.1	277	28
2023-08-23T12:00	8350	355	-28.9	-43.7	277	28
2023-08-23T12:00	8371	354	-29.0	-45.3	277	28
2023-08-23T12:00	8392	353	-29.1	-44.9	277	29
2023-08-23T12:00	8409	352	-29.3	-44.4	277	29
2023-08-23T12:00	8428	351	-29.5	-44.1	278	29
2023-08-23T12:00	8450	350	-29.6	-44.1	278	29
2023-08-23T12:00	8469	349	-29.8	-43.9	279	29
2023-08-23T12:00	8487	348	-30.0	-43.8	279	29
2023-08-23T12:00	8508	347	-30.2	-43.7	279	29
2023-08-23T12:00	8528	346	-30.3	-43.8	279	28
2023-08-23T12:00	8547	346	-30.5	-44.1	279	28
2023-08-23T12:00	8566	345	-30.6	-44.0	280	28
2023-08-23T12:00	8585	344	-30.7	-44.3	280	28
2023-08-23T12:00	8605	343	-30.8	-44.6	280	28
2023-08-23T12:00	8624	342	-30.9	-44.5	279	28
2023-08-23T12:00	8645	341	-31.1	-44.7	279	27
2023-08-23T12:00	8667	340	-31.3	-44.8	279	27
2023-08-23T12:00	8688	339	-31.5	-45.1	278	27
2023-08-23T12:00	8709	338	-31.6	-45.4	278	27
2023-08-23T12:00	8730	337	-31.8	-45.7	277	27
2023-08-23T12:00	8751	336	-31.9	-46.0	277	27
2023-08-23T12:00	8770	335	-32.1	-45.5	277	27
2023-08-23T12:00	8792	334	-32.3	-45.4	277	27
2023-08-23T12:00	8815	333	-32.5	-45.1	277	28
2023-08-23T12:00	8839	332	-32.8	-45.0	277	28
2023-08-23T12:00	8862	330	-33.0	-44.8	278	28
2023-08-23T12:00	8885	329	-33.2	-44.9	278	29
2023-08-23T12:00	8905	328	-33.3	-44.8	278	29
2023-08-23T12:00	8925	328	-33.5	-44.8	278	29
2023-08-23T12:00	8944	327	-33.6	-44.3	278	29
2023-08-23T12:00	8963	326	-33.7	-44.4	277	29
2023-08-23T12:00	8982	325	-33.9	-44.6	277	29
2023-08-23T12:00	9003	324	-34.1	-45.0	276	29
2023-08-23T12:00	9021	323	-34.2	-45.0	276	29
2023-08-23T12:00	9044	322	-34.5	-45.3	276	29
2023-08-23T12:00	9062	321	-34.6	-46.1	276	29
2023-08-23T12:00	9082	320	-34.5	-46.3	275	29
2023-08-23T12:00	9101	319	-34.7	-46.2	275	30
2023-08-23T12:00	9121	318	-34.9	-46.1	275	30
2023-08-23T12:00	9141	318	-35.0	-45.8	275	30
2023-08-23T12:00	9160	317	-35.2	-46.2	275	30
2023-08-23T12:00	9180	316	-35.2	-47.4	275	30
2023-08-23T12:00	9201	315	-35.4	-48.0	275	30
2023-08-23T12:00	9220	314	-35.5	-48.5	274	30
2023-08-23T12:00	9243	313	-35.7	-48.3	274	30
2023-08-23T12:00	9261	312	-35.8	-48.5	274	30
2023-08-23T12:00	9281	311	-35.9	-48.4	274	30
2023-08-23T12:00	9299	310	-36.1	-48.1	275	30
2023-08-23T12:00	9319	310	-36.3	-48.1	276	31
2023-08-23T12:00	9343	308	-36.5	-48.1	277	31
2023-08-23T12:00	9367	307	-36.7	-49.4	277	31
2023-08-23T12:00	9396	306	-36.8	-50.2	278	31
2023-08-23T12:00	9425	305	-37.2	-49.6	278	31
2023-08-23T12:00	9444	304	-37.4	-49.7	278	30
2023-08-23T12:00	9467	303	-37.5	-50.2	278	30
2023-08-23T12:00	9493	302	-37.7	-50.0	278	30
2023-08-23T12:00	9511	301	-37.9	-49.8	279	30
2023-08-23T12:00	9532	300	-38.2	-50.0	279	30
2023-08-23T12:00	9555	299	-38.3	-50.4	280	30
2023-08-23T12:00	9576	298	-38.5	-51.3	281	30
2023-08-23T12:00	9598	297	-38.5	-52.7	281	29
2023-08-23T12:00	9618	296	-38.6	-52.7	280	29
2023-08-23T12:00	9639	295	-38.9	-52.4	280	28
2023-08-23T12:00	9664	294	-39.1	-52.4	279	28
2023-08-23T12:00	9691	293	-39.3	-52.8	279	27
2023-08-23T12:00	9715	292	-39.5	-52.7	279	27
2023-08-23T12:00	9736	291	-39.7	-52.6	279	27
2023-08-23T12:00	9759	290	-39.9	-52.7	279	27
2023-08-23T12:00	9776	290	-40.0	-52.3	279	27
2023-08-23T12:00	9796	289	-40.2	-52.3	279	27
2023-08-23T12:00	9816	288	-40.3	-52.7	280	27
2023-08-23T12:00	9836	287	-40.6	-52.7	280	27
2023-08-23T12:00	9855	286	-40.7	-52.5	281	27
2023-08-23T12:00	9875	285	-41.0	-52.8	282	27
2023-08-23T12:00	9893	285	-41.0	-52.8	282	27
2023-08-23T12:00	9913	284	-41.1	-52.9	282	27
2023-08-23T12:00	9933	283	-41.3	-52.7	282	27
2023-08-23T12:00	9953	282	-41.5	-52.8	281	27
2023-08-23T12:00	9975	281	-41.5	-53.9	281	26
2023-08-23T12:00	9992	281	-41.6	-54.2	281	26
2023-08-23T12:00	10014	280	-41.8	-53.9	280	26
2023-08-23T12:00	10034	279	-42.0	-54.1	280	26
2023-08-23T12:00	10055	278	-42.1	-54.1	280	26
2023-08-23T12:00	10074	277	-42.3	-54.3	279	26
2023-08-23T12:00	10093	276	-42.5	-54.5	279	26
2023-08-23T12:00	10112	276	-42.6	-54.3	279	26
2023-08-23T12:00	10132	275	-42.8	-54.4	279	27
2023-08-23T12:00	10153	274	-43.0	-54.7	279	27
2023-08-23T12:00	10171	273	-43.2	-54.7	279	27
2023-08-23T12:00	10192	272	-43.3	-54.7	280	27
2023-08-23T12:00	10211	272	-43.4	-55.3	280	27
2023-08-23T12:00	10230	271	-43.5	-55.8	280	27
2023-08-23T12:00	10251	270	-43.6	-56.5	279	27
2023-08-23T12:00	10270	269	-43.7	-56.6	279	26
2023-08-23T12:00	10295	268	-43.9	-57.1	279	26
2023-08-23T12:00	10314	267	-44.0	-58.1	279	26
2023-08-23T12:00	10336	267	-44.1	-58.8	280	26
2023-08-23T12:00	10355	266	-44.2	-58.2	280	25
2023-08-23T12:00	10376	265	-44.4	-57.0	280	25
2023-08-23T12:00	10394	264	-44.6	-56.3	280	25
2023-08-23T12:00	10413	264	-44.7	-55.8	280	26
2023-08-23T12:00	10432	263	-44.9	-55.9	280	26
2023-08-23T12:00	10451	262	-45.1	-56.3	280	26
2023-08-23T12:00	10470	261	-45.3	-56.3	280	27
2023-08-23T12:00	10489	261	-45.5	-56.1	281	27
2023-08-23T12:00	10510	260	-45.5	-56.2	281	26
2023-08-23T12:00	10531	259	-45.8	-56.0	281	26
2023-08-23T12:00	10550	258	-46.0	-55.5	281	26
2023-08-23T12:00	10568	257	-46.0	-55.2	280	26
2023-08-23T12:00	10588	257	-46.1	-55.4	280	26
2023-08-23T12:00	10606	256	-46.3	-55.4	280	26
2023-08-23T12:00	10628	255	-46.5	-55.5	281	26
2023-08-23T12:00	10648	254	-46.7	-55.9	281	26
2023-08-23T12:00	10667	254	-46.8	-56.5	281	26
2023-08-23T12:00	10686	253	-47.0	-56.6	281	26
2023-08-23T12:00	10704	252	-47.2	-56.8	281	26
2023-08-23T12:00	10723	252	-47.4	-57.3	281	26
2023-08-23T12:00	10743	251	-47.5	-57.4	281	26
2023-08-23T12:00	10763	250	-47.5	-57.3	281	26
2023-08-23T12:00	10784	249	-47.7	-57.2	281	26
2023-08-23T12:00	10804	249	-47.8	-57.1	281	25
2023-08-23T12:00	10825	248	-48.1	-57.2	281	25
2023-08-23T12:00	10844	247	-48.2	-57.3	281	25
2023-08-23T12:00	10861	246	-48.3	-57.7	281	25
2023-08-23T12:00	10879	246	-48.5	-57.7	280	25
2023-08-23T12:00	10899	245	-48.6	-57.6	280	25
2023-08-23T12:00	10917	244	-48.7	-57.8	280	25
2023-08-23T12:00	10937	244	-48.8	-57.8	280	25
2023-08-23T12:00	10956	243	-49.0	-57.6	280	25
2023-08-23T12:00	10981	242	-49.2	-58.1	279	25
2023-08-23T12:00	10999	241	-49.3	-58.6	279	26
2023-08-23T12:00	11019	241	-49.4	-58.9	279	26
2023-08-23T12:00	11040	240	-49.5	-59.0	278	26
2023-08-23T12:00	11059	239	-49.7	-59.1	278	26
2023-08-23T12:00	11077	238	-49.8	-59.3	278	26
2023-08-23T12:00	11098	238	-50.0	-59.4	278	26
2023-08-23T12:00	11118	237	-50.1	-59.6	278	26
2023-08-23T12:00	11137	236	-50.2	-59.6	278	26
2023-08-23T12:00	11155	236	-50.4	-59.6	279	25
2023-08-23T12:00	11172	235	-50.7	-59.5	278	25
2023-08-23T12:00	11192	234	-50.8	-59.4	278	25
2023-08-23T12:00	11210	234	-50.9	-59.5	278	25
2023-08-23T12:00	11230	233	-51.1	-59.7	278	25
2023-08-23T12:00	11247	232	-51.1	-59.9	278	26
2023-08-23T12:00	11266	232	-51.3	-60.1	278	26
2023-08-23T12:00	11285	231	-51.6	-60.1	279	26
2023-08-23T12:00	11302	230	-51.6	-60.0	280	26
2023-08-23T12:00	11320	230	-51.8	-60.3	281	26
2023-08-23T12:00	11339	229	-51.8	-60.4	281	26
2023-08-23T12:00	11360	228	-51.9	-60.8	281	26
2023-08-23T12:00	11380	228	-52.0	-61.0	281	26
2023-08-23T12:00	11401	227	-52.1	-61.3	281	26
2023-08-23T12:00	11421	226	-52.3		281	25
2023-08-23T12:00	11443	225	-52.4	-61.8	280	25
2023-08-23T12:00	11464	225	-52.6	-61.8	279	25
2023-08-23T12:00	11486	224	-52.7	-61.8	279	25
2023-08-23T12:00	11510	223	-52.8	-61.9	279	26
2023-08-23T12:00	11530	222	-53.1	-62.2	279	26
2023-08-23T12:00	11553	222	-53.2	-62.3	279	26
2023-08-23T12:00	11574	221	-53.4	-62.4	280	26
2023-08-23T12:00	11592	220	-53.5	-62.4	280	27
2023-08-23T12:00	11612	219	-53.6	-62.4	280	27
2023-08-23T12:00	11631	219	-53.8	-62.7	281	27
2023-08-23T12:00	11652	218	-53.9	-62.9	281	27
2023-08-23T12:00	11670	217	-53.9	-63.2	281	27
2023-08-23T12:00	11691	217	-54.0	-63.3	281	27
2023-08-23T12:00	11714	216	-54.2	-63.3	281	27
2023-08-23T12:00	11733	215	-54.3	-63.2	282	27
2023-08-23T12:00	11753	215	-54.5	-63.3	282	27
2023-08-23T12:00	11776	214	-54.7	-63.4	283	27
2023-08-23T12:00	11796	213	-54.7	-63.4	283	27
2023-08-23T12:00	11819	213	-54.9	-63.8	283	27
2023-08-23T12:00	11839	212	-55.1	-64.0	284	27
2023-08-23T12:00	11860	211	-55.1	-64.0	283	27
2023-08-23T12:00	11878	211	-55.2	-64.2	283	27
2023-08-23T12:00	11899	210	-55.4	-64.4	283	27
2023-08-23T12:00	11922	209	-55.5	-64.5	283	27
2023-08-23T12:00	11944	208	-55.7	-64.7	283	27
2023-08-23T12:00	11963	208	-55.8	-64.5	283	27
2023-08-23T12:00	11983	207	-56.1	-64.4	283	27
2023-08-23T12:00	12002	207	-56.3	-64.4	283	27
2023-08-23T12:00	12021	206	-56.4	-64.4	283	27
2023-08-23T12:00	12041	205	-56.5	-64.3	283	27
2023-08-23T12:00	12062	205	-56.6	-64.3	283	26
2023-08-23T12:00	12080	204	-56.6		283	26
2023-08-23T12:00	12100	203	-56.7	-64.2	283	26
2023-08-23T12:00	12121	203	-56.9	-64.3	283	26
2023-08-23T12:00	12140	202	-57.0	-64.5	283	26
2023-08-23T12:00	12163	201	-57.1	-64.5	283	25
2023-08-23T12:00	12183	201	-57.2	-64.5	283	25
2023-08-23T12:00	12201	200	-57.4	-64.5	283	25
2023-08-23T12:00	12219	199	-57.4	-64.5	283	25
2023-08-23T12:00	12240	199	-57.6	-64.8	284	25
2023-08-23T12:00	12264	198	-57.7	-65.0	284	25
2023-08-23T12:00	12286	197	-57.8	-65.2	284	26
2023-08-23T12:00	12307	197	-58.0	-65.5	284	26
2023-08-23T12:00	12327	196	-58.0	-65.6	285	26
2023-08-23T12:00	12345	196	-58.1	-65.8	285	26
2023-08-23T12:00	12366	195	-58.2	-66.0	285	26
2023-08-23T12:00	12386	194	-58.3	-66.2	286	26
2023-08-23T12:00	12410	194	-58.4	-66.5	286	26
2023-08-23T12:00	12435	193	-58.6	-66.9	287	26
2023-08-23T12:00	12457	192	-58.4	-66.9	286	25
2023-08-23T12:00	12478	191	-58.6	-67.3	285	25
2023-08-23T12:00	12506	191	-58.8	-67.8	284	25
2023-08-23T12:00	12530	190	-58.8	-68.3	282	24
2023-08-23T12:00	12562	189	-58.7	-68.7	281	24
2023-08-23T12:00	12590	188	-58.8	-69.2	280	24
2023-08-23T12:00	12614	187	-59.0	-69.5	280	25
2023-08-23T12:00	12635	187	-59.1	-69.6	280	25
2023-08-23T12:00	12657	186	-59.1	-69.7	280	25
2023-08-23T12:00	12677	186	-59.3	-70.4	280	25
2023-08-23T12:00	12700	185	-58.8	-70.7	280	25
2023-08-23T12:00	12723	184	-58.7	-71.3	280	25
2023-08-23T12:00	12746	184	-58.7	-71.5	280	25
2023-08-23T12:00	12771	183	-58.9	-71.7	281	25
2023-08-23T12:00	12789	182	-58.9	-71.8	282	25
2023-08-23T12:00	12810	182	-58.9	-72.1	283	25
2023-08-23T12:00	12831	181	-58.9	-72.5	283	25
2023-08-23T12:00	12852	180	-58.6	-72.6	284	25
2023-08-23T12:00	12873	180	-58.6	-72.8	284	25
2023-08-23T12:00	12895	179	-58.8	-73.2	285	25
2023-08-23T12:00	12919	178	-58.9	-73.3	285	25
2023-08-23T12:00	12944	178	-58.9	-73.5	285	24
2023-08-23T12:00	12968	177	-58.9	-73.8	284	24
2023-08-23T12:00	12989	177	-59.0	-74.3	283	24
2023-08-23T12:00	13011	176	-58.8	-74.3	282	24
2023-08-23T12:00	13033	175	-58.8	-74.5	281	24
2023-08-23T12:00	13054	175	-58.7	-74.5	280	24
2023-08-23T12:00	13079	174	-58.8	-74.5	279	25
2023-08-23T12:00	13101	173	-59.0	-74.5	278	25
2023-08-23T12:00	13123	173	-59.2	-74.5	277	25
2023-08-23T12:00	13143	172	-59.4	-74.7	276	26
2023-08-23T12:00	13165	172	-59.3	-74.7	276	26
2023-08-23T12:00	13190	171	-59.2	-74.7	276	26
2023-08-23T12:00	13210	170	-58.9	-74.7	277	26
2023-08-23T12:00	13232	170	-58.7	-74.9	277	26
2023-08-23T12:00	13251	169	-58.7	-75.4	277	26
2023-08-23T12:00	13273	169	-58.6	-75.7	278	26
2023-08-23T12:00	13294	168	-58.5	-75.9	278	26
2023-08-23T12:00	13317	168	-58.4	-76.1	279	25
2023-08-23T12:00	13337	167	-58.3	-76.3	279	25
2023-08-23T12:00	13361	166	-58.1	-76.4	279	25
2023-08-23T12:00	13383	166	-57.8	-76.4	279	25
2023-08-23T12:00	13407	165	-57.8	-76.4	279	26
2023-08-23T12:00	13434	165	-57.8	-76.3	279	26
2023-08-23T12:00	13455	164	-57.8	-76.2	280	26
2023-08-23T12:00	13479	163	-58.0	-76.2	280	26
2023-08-23T12:00	13499	163	-58.1	-76.0	280	26
2023-08-23T12:00	13519	162	-58.2	-75.8	280	27
2023-08-23T12:00	13541	162	-58.2	-75.6	281	27
2023-08-23T12:00	13565	161	-58.3		281	27
2023-08-23T12:00	13588	160	-58.3		281	27
2023-08-23T12:00	13611	160	-58.5	-75.9	281	26
2023-08-23T12:00	13634	159	-58.5	-76.1	281	26
2023-08-23T12:00	13654	159	-58.5	-76.2	281	26
2023-08-23T12:00	13681	158	-58.5	-76.3	281	26
2023-08-23T12:00	13703	158	-58.5	-76.4	280	26
2023-08-23T12:00	13725	157	-58.3	-76.4	280	26
2023-08-23T12:00	13748	156	-58.4	-76.9	280	26
2023-08-23T12:00	13768	156	-58.3	-77.3	279	26
2023-08-23T12:00	13789	155	-58.4	-78.0	279	26
2023-08-23T12:00	13810	155	-58.2	-78.2	280	26
2023-08-23T12:00	13832	154	-58.1	-78.4	280	26
2023-08-23T12:00	13855	154	-58.1	-78.4	280	26
2023-08-23T12:00	13875	153	-58.0	-78.4	280	25
2023-08-23T12:00	13896	153	-57.9	-78.6	279	25
2023-08-23T12:00	13922	152	-57.9	-79.0	279	25
2023-08-23T12:00	13947	152	-57.7	-79.3	279	25
2023-08-23T12:00	13967	151	-57.4	-79.5	279	26
2023-08-23T12:00	13989	151	-57.6	-80.0	280	26
2023-08-23T12:00	14008	150	-57.6	-80.5	280	27
2023-08-23T12:00	14030	150	-57.4	-80.9	281	27
2023-08-23T12:00	14049	149	-57.3	-81.4	281	27
2023-08-23T12:00	14069	149	-57.1	-81.7	280	28
2023-08-23T12:00	14091	148	-56.9	-82.0	279	28
2023-08-23T12:00	14112	148	-56.8	-82.2	278	28
2023-08-23T12:00	14132	147	-56.7	-81.9	277	28
2023-08-23T12:00	14154	147	-56.4	-81.6	276	28
2023-08-23T12:00	14176	146	-56.4	-81.6	276	28
2023-08-23T12:00	14197	146	-56.4	-81.6	275	28
2023-08-23T12:00	14220	145	-56.3	-81.8	276	27
2023-08-23T12:00	14246	145	-55.9	-81.5	276	27
2023-08-23T12:00	14265	144	-55.5	-81.4	277	26
2023-08-23T12:00	14287	144	-55.2	-81.5	278	25
2023-08-23T12:00	14309	143	-55.2	-81.5	278	25
2023-08-23T12:00	14329	143	-55.4	-81.6	277	24
2023-08-23T12:00	14353	142	-55.4	-81.6	277	24
2023-08-23T12:00	14373	142	-55.4	-81.4	276	23
2023-08-23T12:00	14390	141	-55.6	-81.5	275	23
2023-08-23T12:00	14412	141	-55.7	-81.9	274	23
2023-08-23T12:00	14433	140	-55.7	-81.9	274	23
2023-08-23T12:00	14453	140	-55.5	-81.7	274	23
2023-08-23T12:00	14477	139	-55.4	-81.6	274	23
2023-08-23T12:00	14501	139	-55.5	-81.7	274	23
2023-08-23T12:00	14521	138	-55.7	-81.9	274	24
2023-08-23T12:00	14544	138	-55.6	-81.8	274	24
2023-08-23T12:00	14567	137	-55.5	-81.4	274	24
2023-08-23T12:00	14592	137	-55.6	-81.5	274	24
2023-08-23T12:00	14615	136	-55.8	-81.7	274	24
2023-08-23T12:00	14637	136	-56.1	-81.9	275	25
2023-08-23T12:00	14661	136	-56.2	-81.7	276	25
2023-08-23T12:00	14682	135	-56.3	-82.1	277	25
2023-08-23T12:00	14707	134	-56.2	-82.0	278	25
2023-08-23T12:00	14732	134	-55.9	-82.0	280	25
2023-08-23T12:00	14755	133	-55.7	-81.9	282	24
2023-08-23T12:00	14778	133	-55.6	-82.1	283	24
2023-08-23T12:00	14800	133	-55.7	-82.5	285	24
2023-08-23T12:00	14824	132	-55.5	-82.3	286	23
2023-08-23T12:00	14849	132	-55.3	-82.5	287	23
2023-08-23T12:00	14869	131	-55.3	-82.5	287	23
2023-08-23T12:00	14894	131	-55.3	-82.5	287	23
2023-08-23T12:00	14919	130	-55.4	-82.6	287	23
2023-08-23T12:00	14942	130	-55.5	-82.6	287	22
2023-08-23T12:00	14966	129	-55.4	-82.6	287	22
2023-08-23T12:00	14992	129	-55.2	-82.7	286	21
2023-08-23T12:00	15015	128	-55.3	-82.8	285	21
2023-08-23T12:00	15039	128	-55.2	-82.7	284	20
2023-08-23T12:00	15059	127	-55.2	-83.1	284	20
2023-08-23T12:00	15086	127	-54.9	-82.9	283	20
2023-08-23T12:00	15107	126	-54.7	-83.1	283	19
2023-08-23T12:00	15130	126	-54.5	-82.9	283	19
2023-08-23T12:00	15154	125	-54.6	-83.0	283	19
2023-08-23T12:00	15178	125	-54.6	-83.0	282	19
2023-08-23T12:00	15202	124	-54.4	-82.9	281	19
2023-08-23T12:00	15224	124	-54.6	-83.0	280	19
2023-08-23T12:00	15248	124	-54.6	-83.0	280	19
2023-08-23T12:00	15271	123	-54.6	-83.0	279	18
2023-08-23T12:00	15292	123	-54.5	-82.9	280	18
2023-08-23T12:00	15317	122	-54.4	-82.9	281	18
2023-08-23T12:00	15339	122	-54.3	-82.8	281	17
2023-08-23T12:00	15360	121	-54.4	-82.9	281	17
2023-08-23T12:00	15383	121	-54.6	-83.0	280	17
2023-08-23T12:00	15405	121	-54.7	-83.1	280	16
2023-08-23T12:00	15427	120	-54.8	-83.2	279	16
2023-08-23T12:00	15450	120	-55.0		279	16
2023-08-23T12:00	15471	119	-55.0		278	16
2023-08-23T12:00	15492	119	-55.0		278	17
2023-08-23T12:00	15516	119	-55.0		279	17
2023-08-23T12:00	15536	118	-54.9	-83.3	279	17
2023-08-23T12:00	15561	118	-54.9	-83.3	280	17
2023-08-23T12:00	15581	117	-55.0		280	17
2023-08-23T12:00	15604	117	-55.1	-83.4	281	17
2023-08-23T12:00	15624	116	-55.1	-83.4	281	17
2023-08-23T12:00	15650	116	-55.1	-83.4	281	17
2023-08-23T12:00	15672	116	-55.1	-83.4	280	17
2023-08-23T12:00	15692	115	-55.2	-83.5	280	17
2023-08-23T12:00	15716	115	-55.4	-83.6	280	18
2023-08-23T12:00	15741	114	-55.5	-83.7	280	18
2023-08-23T12:00	15770	114	-55.3	-83.6	280	19
2023-08-23T12:00	15791	114	-55.3	-83.6	280	20
2023-08-23T12:00	15811	113	-55.2	-83.5	280	20
2023-08-23T12:00	15838	113	-55.3	-83.6	280	20
2023-08-23T12:00	15860	112	-55.4	-83.3	280	20
2023-08-23T12:00	15885	112	-55.6	-83.4	280	20
2023-08-23T12:00	15906	111	-55.8	-83.6	281	20
2023-08-23T12:00	15929	111	-55.8	-83.6	281	19
2023-08-23T12:00	15952	111	-55.9	-83.6	281	19
2023-08-23T12:00	15973	110	-56.0	-83.7	281	19
2023-08-23T12:00	15993	110	-56.1	-83.8	281	20
2023-08-23T12:00	16018	110	-56.4	-83.7	281	20
2023-08-23T12:00	16043	109	-56.5	-83.7	281	20
2023-08-23T12:00	16062	109	-56.6	-83.8	282	20
2023-08-23T12:00	16089	108	-56.8	-84.0	283	19
2023-08-23T12:00	16111	108	-56.9	-84.0	284	19
2023-08-23T12:00	16134	108	-57.0	-84.1	284	18
2023-08-23T12:00	16156	107	-57.0	-84.1	285	17
2023-08-23T12:00	16183	107	-57.0	-84.5	286	16
2023-08-23T12:00	16207	106	-56.7	-84.2	287	16
2023-08-23T12:00	16227	106	-56.6	-84.5	288	15
2023-08-23T12:00	16249	106	-56.3	-84.3	288	14
2023-08-23T12:00	16270	105	-56.2	-84.2	288	14
2023-08-23T12:00	16291	105	-56.2	-84.6	286	14
2023-08-23T12:00	16317	104	-56.2	-84.6	283	13
2023-08-23T12:00	16339	104	-56.0	-84.5	280	13
2023-08-23T12:00	16368	104	-55.9	-84.4	277	13
2023-08-23T12:00	16393	103	-55.9	-84.8	274	13
2023-08-23T12:00	16414	103	-55.7	-84.7	272	14
2023-08-23T12:00	16440	102	-55.7	-84.7	271	14
2023-08-23T12:00	16464	102	-55.9	-84.4	270	14
2023-08-23T12:00	16491	102	-56.1	-84.6	270	15
2023-08-23T12:00	16517	101	-56.2	-84.6	270	15
2023-08-23T12:00	16537	101	-56.5	-84.9	271	15
2023-08-23T12:00	16563	101	-56.6	-84.9	272	15
2023-08-23T12:00	16589	100	-56.6	-84.9	273	15
2023-08-23T12:00	16611	100	-56.5	-84.9	274	15
2023-08-23T12:00	16634	99	-56.5	-84.9	275	16
2023-08-23T12:00	16660	99	-56.7	-85.0	277	16
2023-08-23T12:00	16685	99	-56.5	-84.9	278	16
2023-08-23T12:00	16707	98	-56.6	-85.4	279	16
2023-08-23T12:00	16731	98	-56.7	-85.4	281	16
2023-08-23T12:00	16756	98	-56.8	-85.5	283	16
2023-08-23T12:00	16780	97	-56.8	-85.5	285	16
2023-08-23T12:00	16805	97	-56.7	-85.4	287	17
2023-08-23T12:00	16832	96	-56.7	-85.4	288	17
2023-08-23T12:00	16857	96	-56.9	-85.6	290	17
2023-08-23T12:00	16879	96	-56.8	-85.5	292	17
2023-08-23T12:00	16903	95	-56.6	-85.4	294	17
2023-08-23T12:00	16932	95	-56.7	-85.0	296	16
2023-08-23T12:00	16953	95	-56.5	-84.9	298	16
2023-08-23T12:00	16979	94	-56.4	-84.8	299	15
2023-08-23T12:00	17002	94	-56.6	-84.9	300	15
2023-08-23T12:00	17028	93	-56.7	-85.0	301	14
2023-08-23T12:00	17056	93	-56.9	-85.2	301	13
2023-08-23T12:00	17084	93	-56.9	-85.2	301	13
2023-08-23T12:00	17111	92	-56.9	-85.2	300	12
2023-08-23T12:00	17138	92	-57.0	-85.2	299	11
2023-08-23T12:00	17159	91	-57.0	-85.7	297	10
2023-08-23T12:00	17185	91	-57.1	-85.7	294	10
2023-08-23T12:00	17207	91	-57.0	-85.7	291	10
2023-08-23T12:00	17231	90	-56.9	-85.6	288	9
2023-08-23T12:00	17252	90	-57.2	-85.8	286	9
2023-08-23T12:00	17279	90	-57.3	-85.9	283	9
2023-08-23T12:00	17302	89	-57.2	-85.8	279	8
2023-08-23T12:00	17323	89	-57.3	-85.9	276	7
2023-08-23T12:00	17346	89	-57.4	-86.0	271	7
2023-08-23T12:00	17369	89	-57.3	-86.4	267	7
2023-08-23T12:00	17393	88	-57.0	-86.1	263	6
2023-08-23T12:00	17419	88	-56.9	-86.1	259	6
2023-08-23T12:00	17444	87	-57.1	-86.2	255	6
2023-08-23T12:00	17466	87	-57.3	-86.4	252	7
2023-08-23T12:00	17487	87	-57.5	-86.1	249	7
2023-08-23T12:00	17512	87	-57.7	-86.2	248	7
2023-08-23T12:00	17536	86	-57.8	-86.3	247	8
2023-08-23T12:00	17563	86	-57.8	-85.9	247	9
2023-08-23T12:00	17582	86	-58.0	-86.0	248	9
2023-08-23T12:00	17610	85	-58.1		249	10
2023-08-23T12:00	17631	85	-58.1	-86.5	252	10
2023-08-23T12:00	17655	85	-58.1	-86.5	255	10
2023-08-23T12:00	17681	84	-58.1	-86.5	258	11
2023-08-23T12:00	17705	84	-58.2	-86.6	260	11
2023-08-23T12:00	17728	84	-58.2	-86.6	262	12
2023-08-23T12:00	17752	83	-58.0	-86.4	263	12
2023-08-23T12:00	17775	83	-57.7	-86.2	264	12
2023-08-23T12:00	17800	83	-57.8	-86.7	265	12
2023-08-23T12:00	17824	82	-57.6	-86.6	265	12
2023-08-23T12:00	17848	82	-57.3	-86.9	266	11
2023-08-23T12:00	17870	82	-57.0	-86.6	266	11
2023-08-23T12:00	17897	81	-56.8	-87.0	266	11
2023-08-23T12:00	17919	81	-56.4		267	12
2023-08-23T12:00	17943	81	-56.1	-86.5	267	12
2023-08-23T12:00	17968	81	-56.0	-86.4	267	13
2023-08-23T12:00	17989	80	-56.1	-86.5	267	13
2023-08-23T12:00	18014	80	-56.2	-86.6	267	13
2023-08-23T12:00	18040	80	-56.4	-86.2	267	13
2023-08-23T12:00	18062	79	-56.5	-86.3	267	13
2023-08-23T12:00	18088	79	-56.4		267	13
2023-08-23T12:00	18112	79	-56.1	-86.5	268	12
2023-08-23T12:00	18135	78	-55.9	-86.3	268	12
2023-08-23T12:00	18161	78	-55.8	-86.3	269	11
2023-08-23T12:00	18189	78	-55.9	-86.3	270	10
2023-08-23T12:00	18215	77	-56.1	-86.5	272	10
2023-08-23T12:00	18241	77	-56.2	-86.0	274	10
2023-08-23T12:00	18266	77	-56.3	-86.1	276	9
2023-08-23T12:00	18296	76	-56.5	-86.3	276	9
2023-08-23T12:00	18317	76	-56.5	-86.3	275	9
2023-08-23T12:00	18340	76	-56.5	-86.3	274	9
2023-08-23T12:00	18367	76	-56.3	-86.6	274	10
2023-08-23T12:00	18392	75	-56.3	-86.6	274	10
2023-08-23T12:00	18418	75	-56.4		275	10
2023-08-23T12:00	18446	75	-56.5	-86.3	277	11
2023-08-23T12:00	18470	74	-56.7	-86.4	279	11
2023-08-23T12:00	18496	74	-56.8	-86.5	281	11
2023-08-23T12:00	18523	74	-56.8	-86.5	285	11
2023-08-23T12:00	18549	73	-57.0	-86.6	289	11
2023-08-23T12:00	18577	73	-57.2	-86.8	294	11
2023-08-23T12:00	18607	73	-57.0	-86.6	298	10
2023-08-23T12:00	18633	72	-56.7	-86.9	301	10
2023-08-23T12:00	18664	72	-56.4		303	9
2023-08-23T12:00	18691	72	-56.3	-86.6	304	8
2023-08-23T12:00	18716	72	-56.4		304	7
2023-08-23T12:00	18739	71	-56.5	-86.8	304	7
2023-08-23T12:00	18762	71	-56.6	-86.9	303	6
2023-08-23T12:00	18790	71	-56.8	-86.5	301	5
2023-08-23T12:00	18812	70	-56.8	-86.5	296	5
2023-08-23T12:00	18837	70	-57.0	-86.6	289	4
2023-08-23T12:00	18864	70	-57.1	-86.7	279	4
2023-08-23T12:00	18884	70	-57.2	-86.8	270	5
2023-08-23T12:00	18906	69	-57.2	-86.8	264	6
2023-08-23T12:00	18929	69	-57.3	-86.9	259	6
2023-08-23T12:00	18958	69	-57.5	-87.0	257	7
2023-08-23T12:00	18980	69	-57.3	-87.4	258	8
2023-08-23T12:00	19002	68	-57.0	-87.2	260	9
2023-08-23T12:00	19028	68	-56.8	-87.0	263	9
2023-08-23T12:00	19051	68	-56.8	-87.0	268	9
2023-08-23T12:00	19079	68	-57.0	-87.2	274	8
2023-08-23T12:00	19101	67	-56.8	-87.0	280	8
2023-08-23T12:00	19129	67	-56.5	-86.8	285	7
2023-08-23T12:00	19154	67	-56.5	-87.4	290	7
2023-08-23T12:00	19177	67	-56.5	-87.4	293	6
2023-08-23T12:00	19198	66	-56.3	-87.2	293	5
2023-08-23T12:00	19226	66	-56.0	-87.0	292	4
2023-08-23T12:00	19252	66	-56.0	-87.0	287	4
2023-08-23T12:00	19272	66	-56.0	-87.0	281	4
2023-08-23T12:00	19301	65	-56.0	-87.0	276	3
2023-08-23T12:00	19324	65	-56.1	-86.5	272	3
2023-08-23T12:00	19349	65	-56.3	-86.6	270	4
2023-08-23T12:00	19374	65	-56.5	-86.8	269	4
2023-08-23T12:00	19401	64	-56.5	-86.8	269	4
2023-08-23T12:00	19420	64	-56.6	-86.9	268	5
2023-08-23T12:00	19444	64	-56.6	-86.9	267	5
2023-08-23T12:00	19470	64	-56.8	-87.0	265	5
2023-08-23T12:00	19496	63	-57.0	-87.2	263	4
2023-08-23T12:00	19524	63	-56.9	-87.1	261	4
2023-08-23T12:00	19549	63	-56.7	-86.9	261	3
2023-08-23T12:00	19576	62	-56.8	-87.0	262	2
2023-08-23T12:00	19603	62	-56.6	-87.5	267	2
2023-08-23T12:00	19632	62	-56.1	-87.1	272	2
2023-08-23T12:00	19655	62	-55.9	-86.9	275	2
2023-08-23T12:00	19681	61	-56.0	-87.0	277	3
2023-08-23T12:00	19707	61	-56.1	-87.1	279	3
2023-08-23T12:00	19733	61	-56.0	-87.0	283	4
2023-08-23T12:00	19761	61	-55.9	-86.9	287	5
2023-08-23T12:00	19787	60	-56.0	-87.0	293	5
2023-08-23T12:00	19812	60	-56.1	-87.1	297	5
2023-08-23T12:00	19836	60	-55.9	-86.9	301	5
2023-08-23T12:00	19865	60	-55.6	-86.7	303	5
2023-08-23T12:00	19886	59	-55.4	-86.6	302	4
2023-08-23T12:00	19917	59	-55.4	-86.6	297	4
2023-08-23T12:00	19942	59	-55.5	-86.7	289	3
2023-08-23T12:00	19970	59	-55.5	-86.7	282	3
2023-08-23T12:00	19990	59	-55.4	-86.6	278	3
2023-08-23T12:00	20018	58	-55.5	-86.7	279	4
2023-08-23T12:00	20047	58	-55.8	-86.3	283	4
2023-08-23T12:00	20071	58	-56.0	-86.4	289	4
2023-08-23T12:00	20096	58	-56.1	-86.5	295	5
2023-08-23T12:00	20123	57	-56.3	-86.6	300	5
2023-08-23T12:00	20146	57	-56.4		304	5
2023-08-23T12:00	20170	57	-56.5	-86.8	306	5
2023-08-23T12:00	20200	57	-56.7	-86.9	307	4
2023-08-23T12:00	20225	56	-56.6	-86.9	305	4
2023-08-23T12:00	20245	56	-56.5	-86.8	300	3
2023-08-23T12:00	20272	56	-56.4	-87.3	294	3
2023-08-23T12:00	20303	56	-56.0	-87.0	289	3
2023-08-23T12:00	20327	56	-55.9	-86.9	289	3
2023-08-23T12:00	20350	55	-55.9	-86.9	296	3
2023-08-23T12:00	20379	55	-55.7	-87.5	307	3
2023-08-23T12:00	20404	55	-55.2	-87.1	319	3
2023-08-23T12:00	20430	55	-54.9	-86.9	328	3
2023-08-23T12:00	20457	54	-54.9	-86.9	334	3
2023-08-23T12:00	20480	54	-55.0	-87.0	335	2
2023-08-23T12:00	20508	54	-54.9	-86.9	329	2
2023-08-23T12:00	20532	54	-54.7	-86.7	305	1
2023-08-23T12:00	20560	54	-54.6	-86.7	264	1
2023-08-23T12:00	20582	53	-54.6	-86.7	246	1
2023-08-23T12:00	20606	53	-54.6	-86.7	244	2
2023-08-23T12:00	20637	53	-54.6	-86.7	247	2
2023-08-23T12:00	20662	53	-54.6	-86.7	252	3
2023-08-23T12:00	20687	52	-54.7	-86.7	256	3
2023-08-23T12:00	20717	52	-54.8	-86.1	259	4
2023-08-23T12:00	20739	52	-54.8	-86.1	260	4
2023-08-23T12:00	20765	52	-54.7	-86.1	260	5
2023-08-23T12:00	20792	52	-54.7	-86.1	261	5
2023-08-23T12:00	20816	51	-54.8	-86.1	262	6
2023-08-23T12:00	20839	51	-54.9	-86.2	264	6
2023-08-23T12:00	20867	51	-55.0	-86.3	267	6
2023-08-23T12:00	20896	51	-55.2	-86.4	272	6
2023-08-23T12:00	20923	51	-55.3	-86.5	277	6
2023-08-23T12:00	20947	50	-55.3	-86.5	283	6
2023-08-23T12:00	20976	50	-55.2	-86.4	290	5
2023-08-23T12:00	21002	50	-55.2	-86.4	298	5
2023-08-23T12:00	21028	50	-55.3	-86.5	306	4
2023-08-23T12:00	21051	50	-55.3	-86.5	315	4
2023-08-23T12:00	21080	49	-55.2	-86.4	323	3
2023-08-23T12:00	21107	49	-55.1	-86.4	329	3
2023-08-23T12:00	21130	49	-55.2	-86.4	335	3
2023-08-23T12:00	21156	49	-55.2	-86.4	339	3
2023-08-23T12:00	21177	49	-55.2	-86.4	343	3
2023-08-23T12:00	21205	48	-55.2	-86.4	345	3
2023-08-23T12:00	21234	48	-55.2	-86.4	348	3
2023-08-23T12:00	21256	48	-55.3	-86.5	351	2
2023-08-23T12:00	21280	48	-55.2	-86.4	358	2
2023-08-23T12:00	21310	48	-55.2	-86.4	10	1
2023-08-23T12:00	21333	47	-55.2	-86.4	33	1
2023-08-23T12:00	21360	47	-55.2	-86.4	63	1
2023-08-23T12:00	21388	47	-55.1	-86.4	86	1
2023-08-23T12:00	21412	47	-55.2	-86.4	100	1
2023-08-23T12:00	21435	47	-55.3	-86.5	109	2
2023-08-23T12:00	21462	46	-55.4	-86.6	116	2
2023-08-23T12:00	21487	46	-55.4	-86.6	123	2
2023-08-23T12:00	21507	46	-55.4	-86.6	128	2
2023-08-23T12:00	21531	46	-55.5	-86.7	133	2
2023-08-23T12:00	21559	46	-55.6	-86.7	136	1
2023-08-23T12:00	21591	46	-55.7	-86.8	135	1
2023-08-23T12:00	21614	45	-55.6	-86.7	60	0
2023-08-23T12:00	21642	45	-55.5	-86.7	320	1
2023-08-23T12:00	21661	45	-55.4	-86.6	316	1
2023-08-23T12:00	21689	45	-55.3	-87.2	314	2
2023-08-23T12:00	21721	45	-55.1	-87.0	317	2
2023-08-23T12:00	21744	44	-55.0	-87.0	324	3
2023-08-23T12:00	21778	44	-55.0	-87.0	333	3
2023-08-23T12:00	21798	44	-55.0	-87.0	342	3
2023-08-23T12:00	21828	44	-55.0	-87.0	350	4
2023-08-23T12:00	21848	44	-54.9	-86.9	357	4
2023-08-23T12:00	21877	44	-54.8	-86.8	3	5
2023-08-23T12:00	21909	43	-54.9	-86.9	9	5
2023-08-23T12:00	21932	43	-55.1	-86.4	15	5
2023-08-23T12:00	21962	43	-55.1	-86.4	21	5
2023-08-23T12:00	21990	43	-55.1	-86.4	27	5
2023-08-23T12:00	22020	43	-55.0	-86.3	34	5
2023-08-23T12:00	22045	42	-55.0	-87.0	41	4
2023-08-23T12:00	22069	42	-54.9	-86.9	48	4
2023-08-23T12:00	22099	42	-54.8	-86.8	55	4
2023-08-23T12:00	22128	42	-54.8	-86.8	63	4
2023-08-23T12:00	22151	42	-55.1	-87.0	71	5
2023-08-23T12:00	22185	42	-55.1	-86.4	79	5
2023-08-23T12:00	22207	41	-55.1	-86.4	86	5
2023-08-23T12:00	22239	41	-55.0	-86.3	93	5
2023-08-23T12:00	22265	41	-55.2	-86.4	98	5
2023-08-23T12:00	22292	41	-55.4	-86.6	101	5
2023-08-23T12:00	22326	41	-55.5	-86.7	101	5
2023-08-23T12:00	22349	40	-55.6	-86.7	97	4
2023-08-23T12:00	22379	40	-55.7	-86.8	89	4
2023-08-23T12:00	22408	40	-55.6	-86.7	76	3
2023-08-23T12:00	22428	40	-55.8	-86.9	65	3
2023-08-23T12:00	22461	40	-56.0	-87.0	57	4
2023-08-23T12:00	22485	40	-55.9	-86.9	54	4
2023-08-23T12:00	22511	39	-55.8	-86.9	55	4
2023-08-23T12:00	22538	39	-55.6	-86.7	59	4
2023-08-23T12:00	22565	39	-55.5	-86.7	66	4
2023-08-23T12:00	22593	39	-55.4	-86.6	75	4
2023-08-23T12:00	22622	39	-55.6	-86.7	85	4
2023-08-23T12:00	22649	39	-55.7	-86.8	95	4
2023-08-23T12:00	22676	38	-55.7	-86.8	106	4
2023-08-23T12:00	22703	38	-55.8	-86.9	116	4
2023-08-23T12:00	22724	38	-56.0	-87.0	125	5
2023-08-23T12:00	22752	38	-56.1	-87.1	133	5
2023-08-23T12:00	22784	38	-56.2	-87.2	138	5
2023-08-23T12:00	22806	38	-56.2	-87.2	141	4
2023-08-23T12:00	22836	37	-56.1	-87.1	140	3
2023-08-23T12:00	22856	37	-56.0	-87.0	132	2
2023-08-23T12:00	22891	37	-55.8	-86.9	104	1
2023-08-23T12:00	22916	37	-55.8	-86.9	49	2
2023-08-23T12:00	22938	37	-56.0	-87.0	23	3
2023-08-23T12:00	22965	37	-56.0	-87.7	15	4
2023-08-23T12:00	22991	37	-55.9	-87.6	13	5
2023-08-23T12:00	23024	36	-55.8	-87.5	13	7
2023-08-23T12:00	23043	36	-55.5	-87.3	15	7
2023-08-23T12:00	23074	36	-55.2	-87.1	17	8
2023-08-23T12:00	23089	36	-55.2	-87.1	20	8
2023-08-23T12:00	23120	36	-54.8	-86.8	24	8
2023-08-23T12:00	23143	36	-54.6	-86.7	29	7
2023-08-23T12:00	23169	36	-54.5	-86.6	32	6
2023-08-23T12:00	23200	35	-54.5	-86.6	35	6
2023-08-23T12:00	23227	35	-54.5	-86.6	37	5
2023-08-23T12:00	23249	35	-54.6	-86.7	36	4
2023-08-23T12:00	23274	35	-54.7	-86.7	34	3
2023-08-23T12:00	23306	35	-54.8	-86.8	29	2
2023-08-23T12:00	23323	35	-54.9	-86.9	18	2
2023-08-23T12:00	23355	35	-54.9	-86.9	3	2
2023-08-23T12:00	23381	34	-55.0	-87.0	354	2
2023-08-23T12:00	23409	34	-55.2	-87.1	354	2
2023-08-23T12:00	23429	34	-55.1	-87.0	359	3
2023-08-23T12:00	23457	34	-55.0	-87.0	5	3
2023-08-23T12:00	23490	34	-54.9	-86.9	12	3
2023-08-23T12:00	23516	34	-54.8	-86.8	18	4
2023-08-23T12:00	23544	34	-54.7	-86.7	25	4
2023-08-23T12:00	23573	33	-54.5	-87.3	32	4
2023-08-23T12:00	23598	33	-54.4	-87.3	40	4
2023-08-23T12:00	23624	33	-54.2	-87.1	47	4
2023-08-23T12:00	23656	33	-54.1	-87.1	54	5
2023-08-23T12:00	23684	33	-54.1	-87.1	60	5
2023-08-23T12:00	23716	33	-54.0	-87.0	65	5
2023-08-23T12:00	23744	33	-54.0	-87.0	70	5
2023-08-23T12:00	23770	32	-54.1	-87.1	75	4
2023-08-23T12:00	23796	32	-54.1	-86.3	80	4
2023-08-23T12:00	23824	32	-54.2	-86.4	84	4
2023-08-23T12:00	23857	32	-54.4	-86.5	87	3
2023-08-23T12:00	23886	32	-54.5	-86.6	88	3
2023-08-23T12:00	23913	32	-54.5	-86.6	88	3
2023-08-23T12:00	23939	32	-54.5	-86.6	87	3
2023-08-23T12:00	23964	31	-54.5	-86.6	87	3
2023-08-23T12:00	23993	31	-54.6	-86.7	88	3
2023-08-23T12:00	24015	31	-54.6	-86.7	90	3
2023-08-23T12:00	24048	31	-54.5	-86.6	93	3
2023-08-23T12:00	24082	31	-54.6	-86.7	98	3
2023-08-23T12:00	24105	31	-54.7	-86.7	105	3
2023-08-23T12:00	24129	31	-54.6	-86.7	115	2
2023-08-23T12:00	24163	30	-54.7	-87.5	125	2
2023-08-23T12:00	24182	30	-54.7	-87.5	136	2
2023-08-23T12:00	24211	30	-54.5	-87.3	147	1
2023-08-23T12:00	24247	30	-54.4	-87.3	157	1
2023-08-23T12:00	24277	30	-54.2	-87.1	166	2
2023-08-23T12:00	24299	30	-54.1	-87.1	174	2
2023-08-23T12:00	24320	30	-54.2	-87.1	182	3
2023-08-23T12:00	24355	30	-54.2	-87.1	190	3
2023-08-23T12:00	24375	29	-54.1	-87.1	200	4
2023-08-23T12:00	24406	29	-54.1	-87.1	211	4
2023-08-23T12:00	24431	29	-54.0	-87.0	223	4
2023-08-23T12:00	24458	29	-53.7	-86.8	233	4
2023-08-23T12:00	24479	29	-53.4	-86.5	241	4
2023-08-23T12:00	24508	29	-53.3	-87.3	244	4
2023-08-23T12:00	24538	29	-53.2	-87.3	245	4
2023-08-23T12:00	24560	29	-52.9	-87.1	244	4
2023-08-23T12:00	24587	29	-52.7	-86.9	242	4
2023-08-23T12:00	24612	28	-52.7	-86.9	242	4
2023-08-23T12:00	24639	28	-52.7	-86.9	242	4
2023-08-23T12:00	24665	28	-52.8	-87.0	245	3
2023-08-23T12:00	24691	28	-52.8	-86.1	250	3
2023-08-23T12:00	24725	28	-52.8	-86.1	261	2
2023-08-23T12:00	24747	28	-52.8	-86.1	285	2
2023-08-23T12:00	24775	28	-52.9	-86.2	317	2
2023-08-23T12:00	24798	28	-53.0	-86.3	341	2
2023-08-23T12:00	24826	27	-53.1	-86.3	356	3
2023-08-23T12:00	24858	27	-53.3	-86.5	6	3
2023-08-23T12:00	24885	27	-53.4	-86.5	16	3
2023-08-23T12:00	24913	27	-53.4	-86.5	26	3
2023-08-23T12:00	24939	27	-53.3	-86.5	39	3
2023-08-23T12:00	24963	27	-53.3	-86.5	53	3
2023-08-23T12:00	24994	27	-53.1	-86.3	67	3
2023-08-23T12:00	25019	27	-53.0	-86.3	77	3
2023-08-23T12:00	25045	27	-52.8	-87.0	83	3
2023-08-23T12:00	25077	26	-52.6	-86.8	83	3
2023-08-23T12:00	25112	26	-52.7	-86.9	82	2
2023-08-23T12:00	25128	26	-52.6	-86.8	81	2
2023-08-23T12:00	25161	26	-52.5	-86.8	83	2
2023-08-23T12:00	25189	26	-52.5	-86.8	95	1
2023-08-23T12:00	25219	26	-52.6	-86.8	144	1
2023-08-23T12:00	25247	26	-52.5	-86.8	198	1
2023-08-23T12:00	25278	26	-52.5	-85.9	216	2
2023-08-23T12:00	25305	26	-52.6		226	2
2023-08-23T12:00	25335	25	-52.7	-86.0	233	3
2023-08-23T12:00	25364	25	-52.7	-86.9	241	3
2023-08-23T12:00	25391	25	-52.6	-86.8	249	3
2023-08-23T12:00	25428	25	-52.5	-86.8	258	4
2023-08-23T12:00	25454	25	-52.3	-86.6	268	4
2023-08-23T12:00	25487	25	-52.1	-86.5	278	4
2023-08-23T12:00	25507	25	-51.9	-86.3	289	4
2023-08-23T12:00	25536	25	-51.8	-86.3	300	4
2023-08-23T12:00	25561	25	-51.8	-86.3	312	3
2023-08-23T12:00	25589	24	-51.7	-86.2	322	4
2023-08-23T12:00	25620	24	-51.7	-86.2	331	4
2023-08-23T12:00	25660	24	-51.7	-86.2	336	4
2023-08-23T12:00	25688	24	-51.8	-86.3	339	4
2023-08-23T12:00	25720	24	-51.7	-86.2	340	4
2023-08-23T12:00	25748	24	-51.8	-86.3	340	4
2023-08-23T12:00	25779	24	-52.1	-86.5	340	4
2023-08-23T12:00	25800	24	-52.2	-86.6	342	4
2023-08-23T12:00	25835	24	-52.2	-86.6	347	4
2023-08-23T12:00	25866	23	-52.3	-86.6	356	4
2023-08-23T12:00	25894	23	-52.2	-86.6	6	4
2023-08-23T12:00	25925	23	-51.9	-86.3	16	5
2023-08-23T12:00	25949	23	-51.7	-86.2	23	5
2023-08-23T12:00	25979	23	-51.8	-86.3	28	6
2023-08-23T12:00	26011	23	-51.7	-86.2	33	6
2023-08-23T12:00	26040	23	-51.6	-86.1	37	7
2023-08-23T12:00	26064	23	-51.5	-86.1	41	7
2023-08-23T12:00	26091	23	-51.4	-86.0	45	6
2023-08-23T12:00	26118	23	-51.3	-85.9	50	6
2023-08-23T12:00	26144	22	-51.2	-86.9	54	5
2023-08-23T12:00	26180	22	-51.1	-86.8	59	4
2023-08-23T12:00	26204	22	-50.9	-86.7	64	3
2023-08-23T12:00	26238	22	-50.8	-86.6	66	2
2023-08-23T12:00	26265	22	-50.9	-86.7	63	2
2023-08-23T12:00	26287	22	-51.0	-85.7	56	1
2023-08-23T12:00	26320	22	-51.0	-85.7	51	1
2023-08-23T12:00	26342	22	-50.9	-85.6	51	1
2023-08-23T12:00	26379	22	-50.9	-85.6	54	2
2023-08-23T12:00	26401	22	-50.9	-85.6	57	2
2023-08-23T12:00	26423	21	-50.8	-85.6	59	3
2023-08-23T12:00	26450	21	-50.8	-85.6	59	3
2023-08-23T12:00	26472	21	-50.8	-85.6	59	3
2023-08-23T12:00	26509	21	-50.8	-85.6	59	3
2023-08-23T12:00	26530	21	-50.6	-86.5	56	2
2023-08-23T12:00	26558	21	-50.5	-86.4	50	2
2023-08-23T12:00	26587	21	-50.6	-86.5	39	2
2023-08-23T12:00	26620	21	-50.6	-86.5	29	2
2023-08-23T12:00	26645	21	-50.4	-86.3	25	2
2023-08-23T12:00	26677	21	-50.0	-86.0	22	2
2023-08-23T12:00	26708	21	-49.6	-85.8	20	3
2023-08-23T12:00	26734	21	-49.4	-85.6	14	3
2023-08-23T12:00	26752	20	-49.2	-85.5	3	3
2023-08-23T12:00	26793	20	-48.9	-85.3	348	3
2023-08-23T12:00	26813	20	-48.7	-85.1	331	3
2023-08-23T12:00	26846	20	-48.8	-85.2	318	4
2023-08-23T12:00	26870	20	-48.9	-85.3	311	4
2023-08-23T12:00	26904	20	-48.9	-85.3	308	5
2023-08-23T12:00	26930	20	-48.8	-85.2	308	6
2023-08-23T12:00	26962	20	-48.6	-85.0	310	7
2023-08-23T12:00	26994	20	-48.6	-85.0	312	7
2023-08-23T12:00	27017	20	-48.5	-85.0	315	7
2023-08-23T12:00	27044	20	-48.5	-85.0	318	7
2023-08-23T12:00	27079	19	-48.5	-85.0	323	7
2023-08-23T12:00	27120	19	-48.4	-84.9	328	6
2023-08-23T12:00	27141	19	-48.2	-84.8	334	6
2023-08-23T12:00	27178	19	-48.2	-84.8	340	6
2023-08-23T12:00	27205	19	-48.3	-84.8	343	6
2023-08-23T12:00	27236	19	-48.2	-84.8	344	6
2023-08-23T12:00	27262	19	-48.1	-84.7	342	7
2023-08-23T12:00	27296	19	-48.1	-84.7	341	8
2023-08-23T12:00	27322	19	-48.1	-84.7	339	8
2023-08-23T12:00	27361	19	-48.1	-84.7	339	9
2023-08-23T12:00	27390	19	-48.3	-84.8	340	9
2023-08-23T12:00	27418	18	-48.5	-85.0	341	8
2023-08-23T12:00	27449	18	-48.5	-85.0	343	8
2023-08-23T12:00	27480	18	-48.2	-84.8	345	7
2023-08-23T12:00	27517	18	-48.0	-84.6	347	6
2023-08-23T12:00	27552	18	-48.0	-84.6	350	6
2023-08-23T12:00	27571	18	-47.8	-84.5	352	5
2023-08-23T12:00	27605	18	-47.7	-84.4	355	5
2023-08-23T12:00	27639	18	-47.6	-84.3	357	5
2023-08-23T12:00	27664	18	-47.5	-84.3	360	4
2023-08-23T12:00	27691	18	-47.5	-84.3	5	4
2023-08-23T12:00	27732	18	-47.7	-84.4	10	4
2023-08-23T12:00	27759	18	-47.7	-84.4	14	3
2023-08-23T12:00	27799	17	-47.5	-84.3	13	3
2023-08-23T12:00	27827	17	-47.5	-84.3	6	4
2023-08-23T12:00	27848	17	-47.4	-84.2	355	4
2023-08-23T12:00	27880	17	-47.2	-84.1	346	5
2023-08-23T12:00	27905	17	-47.0	-83.9	338	6
2023-08-23T12:00	27927	17	-47.1	-84.0	331	6
2023-08-23T12:00	27974	17	-47.1	-84.0	326	7
2023-08-23T12:00	27996	17	-47.0	-83.9	322	7
2023-08-23T12:00	28017	17	-46.8	-83.8	321	8
2023-08-23T12:00	28054	17	-46.8	-83.8	322	8
2023-08-23T12:00	28087	17	-46.8	-83.8	325	8
2023-08-23T12:00	28103	17	-46.6	-83.6	330	7
2023-08-23T12:00	28150	17	-46.4	-83.5	337	7
2023-08-23T12:00	28163	16	-46.2	-83.4	344	6
2023-08-23T12:00	28202	16	-46.2	-83.4	352	6
2023-08-23T12:00	28228	16	-46.1	-83.3	1	5
2023-08-23T12:00	28258	16	-45.9	-83.2	9	5
2023-08-23T12:00	28283	16	-45.9	-83.2	18	4
2023-08-23T12:00	28319	16	-45.9	-83.2	29	3
2023-08-23T12:00	28344	16	-45.8	-83.1	44	3
2023-08-23T12:00	28367	16	-45.5	-82.9	66	3
2023-08-23T12:00	28402	16	-45.2	-82.7	93	3
2023-08-23T12:00	28425	16	-44.9	-82.5	117	3
2023-08-23T12:00	28458	16	-44.5	-82.2	134	4
2023-08-23T12:00	28480	16	-44.3	-82.0	147	4
2023-08-23T12:00	28503	16	-44.1	-81.9	157	5
2023-08-23T12:00	28542	16	-44.0	-81.8	165	6
2023-08-23T12:00	28568	16	-43.9	-81.8	172	6
2023-08-23T12:00	28592	15	-43.9	-81.8	177	6
2023-08-23T12:00	28627	15	-43.9	-81.8	182	6
2023-08-23T12:00	28670	15	-43.8	-81.7	188	5
2023-08-23T12:00	28683	15	-43.7	-81.6	193	5
2023-08-23T12:00	28715	15	-43.8	-81.7	198	4
2023-08-23T12:00	28745	15	-43.8	-81.7	203	4
2023-08-23T12:00	28777	15	-43.8	-81.7	210	3
2023-08-23T12:00	28812	15	-43.7	-81.6	219	3
2023-08-23T12:00	28831	15	-43.6	-81.5	231	2
2023-08-23T12:00	28859	15	-43.5	-81.5	249	2
2023-08-23T12:00	28871	15	-43.4	-81.4	275	1
2023-08-23T12:00	28918	15	-43.4	-81.4	307	1
2023-08-23T12:00	28942	15	-43.2	-81.3	339	1
2023-08-23T12:00	28982	15	-43.1	-81.2	7	1
2023-08-23T12:00	29023	15	-43.0	-81.1	54	0
2023-08-23T12:00	29045	14	-43.0	-81.1	150	0
2023-08-23T12:00	29073	14	-42.9	-81.1	178	1
2023-08-23T12:00	29096	14	-42.8	-81.0	190	1
2023-08-23T12:00	29123	14	-42.9	-81.1	198	2
2023-08-23T12:00	29157	14	-43.0	-81.1	204	2
2023-08-23T12:00	29190	14	-42.9	-81.1	207	2
2023-08-23T12:00	29219	14	-42.8	-81.0	209	3
2023-08-23T12:00	29249	14	-42.8	-81.0	210	3
2023-08-23T12:00	29283	14	-43.0	-81.1	212	3
2023-08-23T12:00	29314	14	-43.1	-81.2	215	3
2023-08-23T12:00	29356	14	-42.9	-81.1	220	3
2023-08-23T12:00	29381	14	-42.8	-81.0	225	2
2023-08-23T12:00	29405	14	-42.9	-81.1	229	2
2023-08-23T12:00	29450	14	-43.1	-81.2	233	2
2023-08-23T12:00	29474	14	-43.3	-81.3	238	2
2023-08-23T12:00	29490	14	-43.4	-81.4	250	1
2023-08-23T12:00	29528	13	-43.4	-81.4	269	1
2023-08-23T12:00	29564	13	-43.4	-81.4	289	2
2023-08-23T12:00	29601	13	-43.5	-81.5	304	2
2023-08-23T12:00	29623	13	-43.6	-81.5	316	2
2023-08-23T12:00	29658	13	-43.7	-81.6	326	2
2023-08-23T12:00	29662	13	-43.8	-81.7	336	3
2023-08-23T12:00	29724	13	-43.9	-81.8	348	3
2023-08-23T12:00	29744	13	-43.8	-81.7	360	3
2023-08-23T12:00	29779	13	-43.7	-81.6	13	3
2023-08-23T12:00	29801	13	-43.7	-81.6	30	3
2023-08-23T12:00	29831	13	-43.6	-81.5	49	3
2023-08-23T12:00	29867	13	-43.6	-81.5	69	3
2023-08-23T12:00	29893	13	-43.6	-81.5	87	3
2023-08-23T12:00	29923	13	-43.6	-81.5	101	4
2023-08-23T12:00	29958	13	-43.5	-81.5	111	4
2023-08-23T12:00	29985	13	-43.5	-81.5	118	5
2023-08-23T12:00	30013	13	-43.5	-81.5	125	5
2023-08-23T12:00	30032	13	-43.6	-81.5	130	5
2023-08-23T12:00	30047	12	-43.6	-81.5	136	5
2023-08-23T12:00	30079	12	-43.6	-81.5	142	5
2023-08-23T12:00	30107	12	-43.5	-81.5	148	5
2023-08-23T12:00	30139	12	-43.3	-81.3	155	5
2023-08-23T12:00	30164	12	-43.0	-81.1	162	5
2023-08-23T12:00	30209	12	-42.7	-80.9	169	4
2023-08-23T12:00	30232	12	-42.6	-80.8	176	4
2023-08-23T12:00	30255	12	-42.5	-80.8	183	3
2023-08-23T12:00	30283	12	-42.3	-80.6	190	3
2023-08-23T12:00	30314	12	-42.1	-80.5	195	2
2023-08-23T12:00	30335	12	-41.8	-80.3	197	1
2023-08-23T12:00	30376	12	-41.5	-80.1	188	1
2023-08-23T12:00	30398	12	-41.2	-79.9	152	1
2023-08-23T12:00	30429	12	-41.0	-79.7	130	1
2023-08-23T12:00	30452	12	-40.8	-79.6	128	1
2023-08-23T12:00	30491	12	-40.6	-79.5	132	1
2023-08-23T12:00	30519	12	-40.5	-79.4	135	1
2023-08-23T12:00	30547	12	-40.5	-79.4	136	2
2023-08-23T12:00	30574	12	-40.4	-79.3	135	2
2023-08-23T12:00	30599	11	-40.1	-79.1	133	2
2023-08-23T12:00	30647	11	-39.8	-78.9	131	2
2023-08-23T12:00	30675	11	-39.6	-78.8	127	3
2023-08-23T12:00	30702	11	-39.5	-78.7	121	3
2023-08-23T12:00	30733	11	-39.4	-78.6	114	3
2023-08-23T12:00	30784	11	-39.5	-78.7	105	3
2023-08-23T12:00	30817	11	-39.8	-78.9	91	4
2023-08-23T12:00	30852	11	-39.9	-79.0	89	5
2023-08-23T12:00	30899	11	-40.0	-79.0	90	5
2023-08-23T12:00	30922	11	-40.1	-79.1	93	6
2023-08-23T12:00	30957	11	-40.1	-79.1	97	6
2023-08-23T12:00	30995	11	-40.2	-79.2	101	6
2023-08-23T12:00	31034	11	-40.3	-79.2	105	6
2023-08-23T12:00	31062	11	-40.6	-79.5	108	6
2023-08-23T12:00	31093	11	-40.8	-79.6	111	5
2023-08-23T12:00	31115	11	-41.0	-79.7	113	5
2023-08-23T12:00	31154	11	-41.0	-79.7	113	4
2023-08-23T12:00	31175	11	-41.0	-79.7	110	4
2023-08-23T12:00	31215	11	-41.0	-79.7	103	3
2023-08-23T12:00	31242	10	-40.8	-79.6	92	3
2023-08-23T12:00	31268	10	-40.7	-79.5	81	2
2023-08-23T12:00	31300	10	-40.8	-79.6	69	2
2023-08-23T12:00	31313	10	-40.8	-79.6	57	2
2023-08-23T12:00	31359	10	-40.7	-79.5	47	2
2023-08-23T12:00	31386	10	-40.7	-79.5	40	2
2023-08-23T12:00	31418	10	-40.6	-79.5	37	2
2023-08-23T12:00	31437	10	-40.2	-79.2	37	3
2023-08-23T12:00	31478	10	-40.0	-79.0	37	4
2023-08-23T12:00	31508	10	-39.8	-78.9	37	5
2023-08-23T12:00	31526	10	-39.7	-78.8	38	6
2023-08-23T12:00	31539	10	-39.5	-78.7	40	6
2023-08-23T12:00	31583	10	-39.4	-78.6	44	6
2023-08-23T12:00	31612	10	-39.2	-78.5	50	6
2023-08-23T12:00	31640	10	-39.1	-78.4	57	6
2023-08-23T12:00	31650	10	-39.0	-78.3	66	6
2023-08-23T12:00	31689	10	-39.0	-78.3	76	6
2023-08-23T12:00	31722	10	-39.0	-78.3	86	6
2023-08-23T12:00	31738	10	-38.9	-78.3	96	6
2023-08-23T12:00	31768	10	-38.9	-78.3	105	5
2023-08-23T12:00	31805	10	-38.9	-78.3	114	5
2023-08-23T12:00	31825	10	-38.8	-78.2	123	5
2023-08-23T12:00	31837	10	-38.6	-78.1	131	5
2023-08-23T12:00	31886	10	-38.5	-78.0	140	5
2023-08-23T12:00	31904	10	-38.5	-78.0	149	6
2023-08-23T12:00	31935	9	-38.6	-78.1	159	6
2023-08-23T12:00	31968	9	-38.5	-78.0	169	6
2023-08-23T12:00	31986	9	-38.4	-77.9	177	6
2023-08-23T12:00	32001	9	-38.1	-77.7	184	6
2023-08-23T12:00	32029	9	-37.8	-77.5	190	6
2023-08-23T12:00	32061	9	-37.7	-77.4	194	6
2023-08-23T12:00	32092	9	-37.7	-77.4	198	6
2023-08-23T12:00	32105	9	-37.7	-77.4	201	5
2023-08-23T12:00	32163	9	-37.7	-77.4	204	5
2023-08-23T12:00	32170	9	-37.6	-77.4	205	4
2023-08-23T12:00	32204	9	-37.6	-77.4	204	4
2023-08-23T12:00	32232	9	-37.5	-77.3	199	3
2023-08-23T12:00	32269	9	-37.3	-77.2	191	3
2023-08-23T12:00	32307	9	-37.0	-77.0	162	2
2023-08-23T12:00	32319	9	-36.8	-76.8	140	2
2023-08-23T12:00	32385	9	-36.8	-76.8	120	2
2023-08-23T12:00	32393	9	-36.8	-76.8	107	2
2023-08-23T12:00	32406	9	-36.9	-76.9	101	2
2023-08-23T12:00	32466	9	-37.0	-77.0	99	2
2023-08-23T12:00	32503	9	-37.1	-77.0	99	3
2023-08-23T12:00	32516	9	-37.2	-77.1	97	3
2023-08-23T12:00	32570	9	-37.2	-77.1	94	3
2023-08-23T12:00	32617	9	-37.4	-77.2	89	3
2023-08-23T12:00	32633	9	-37.3	-77.2	90	3
2023-08-23T12:00	32656	9	-37.3	-77.2	94	3
2023-08-23T12:00	32663	9	-37.4	-77.2	103	3
2023-08-23T12:00	32704	8	-37.5	-77.3	114	3
2023-08-23T12:00	32734	8	-37.6	-77.4	125	3
2023-08-23T12:00	32761	8	-37.6	-77.4	133	4
2023-08-23T12:00	32808	8	-37.6	-77.4	139	4
2023-08-23T12:00	32810	8	-37.6	-77.4	144	5
2023-08-23T12:00	32842	8	-37.5	-77.3	150	5
2023-08-23T12:00	32869	8	-37.2	-77.1	157	5
2023-08-23T12:00	32900	8	-37.1	-77.0	165	5
2023-08-23T12:00	32920	8	-36.9	-76.9	173	6
2023-08-23T12:00	32974	8	-36.8	-76.8	182	6
2023-08-23T12:00	32999	8	-36.7	-76.7	197	6
2023-08-23T12:00	33035	8	-36.7	-76.7	203	6
2023-08-23T12:00	33076	8	-36.6	-76.7	209	6
2023-08-23T12:00	33079	8	-36.5	-76.6	213	6
2023-08-23T12:00	33100	8	-36.5	-76.6	215	5
2023-08-23T12:00	33141	8	-36.6	-76.7	216	5
2023-08-23T12:00	33173	8	-36.7	-76.7	216	5
2023-08-23T12:00	33206	8	-36.6	-76.7	216	4
2023-08-23T12:00	33225	8	-36.6	-76.7	216	4
2023-08-23T12:00	33263	8	-36.6	-76.7	216	4
2023-08-23T12:00	33295	8	-36.6	-76.7	215	4
2023-08-23T12:00	33322	8	-36.5	-76.6	213	3
2023-08-23T12:00	33335	8	-36.4	-76.5	211	3
2023-08-23T12:00	33374	8	-36.5	-76.6	206	3
2023-08-23T12:00	33394	8	-36.6	-76.7	202	2
2023-08-23T12:00	33424	8	-36.6	-76.7	198	2
2023-08-23T12:00	33455	8	-36.6	-76.7	197	3
2023-08-23T12:00	33501	8	-36.6	-76.7	199	3
2023-08-23T12:00	33510	8	-36.7	-76.7	204	3
2023-08-23T12:00	33571	8	-36.7	-76.7	213	4
2023-08-23T12:00	33623	7	-36.2	-76.4	236	5
2023-08-23T18:00	112	1005	24.1	13.3	300	3
2023-08-23T18:00	137	1002	24.5	13.3	320	2
2023-08-23T18:00	164	999	24.2	12.5	317	3
2023-08-23T18:00	193	996	23.9	12.2	314	4
2023-08-23T18:00	223	992	23.6	12.1	311	5
2023-08-23T18:00	254	989	23.3	12.1	308	5
2023-08-23T18:00	276	986	23.1	11.7	306	6
2023-08-23T18:00	298	984	22.9	11.7	305	6
2023-08-23T18:00	325	981	22.6	11.5	304	6
2023-08-23T18:00	353	978	22.4	11.5	303	7
2023-08-23T18:00	378	975	22.1	11.4	303	7
2023-08-23T18:00	405	972	21.9	11.4	303	7
2023-08-23T18:00	427	969	21.7	11.4	304	7
2023-08-23T18:00	456	966	21.4	11.3	305	7
2023-08-23T18:00	477	964	21.2	11.3	306	6
2023-08-23T18:00	503	961	20.9	11.2	307	6
2023-08-23T18:00	530	958	20.7	11.2	307	6
2023-08-23T18:00	554	955	20.5	11.3	306	6
2023-08-23T18:00	581	952	20.2	11.1	305	6
2023-08-23T18:00	610	949	19.9	11.2	304	6
2023-08-23T18:00	637	946	19.7	11.1	303	6
2023-08-23T18:00	665	943	19.4	10.9	303	6
2023-08-23T18:00	692	940	19.2	10.9	302	6
2023-08-23T18:00	720	937	18.9	10.8	302	6
2023-08-23T18:00	745	934	18.7	10.8	300	7
2023-08-23T18:00	772	931	18.4	10.6	298	7
2023-08-23T18:00	800	928	18.2	10.6	297	7
2023-08-23T18:00	829	925	17.9		295	7
2023-08-23T18:00	858	922	17.6	10.5	295	7
2023-08-23T18:00	888	919	17.3	10.4	296	7
2023-08-23T18:00	915	916	17.1	10.5	296	6
2023-08-23T18:00	940	913	16.8	10.3	296	6
2023-08-23T18:00	967	910	16.6	10.1	295	6
2023-08-23T18:00	995	907	16.4	10.0	292	6
2023-08-23T18:00	1024	904	16.2	9.9	288	6
2023-08-23T18:00	1052	901	15.9	9.8	284	6
2023-08-23T18:00	1078	898	15.6	9.7	281	6
2023-08-23T18:00	1111	895	15.4	9.7	278	6
2023-08-23T18:00	1140	892	15.1	9.8	275	6
2023-08-23T18:00	1166	889	14.8	9.5	273	6
2023-08-23T18:00	1198	886	14.5	9.5	271	6
2023-08-23T18:00	1230	883	14.2	9.4	270	6
2023-08-23T18:00	1258	880	14.0	9.3	270	6
2023-08-23T18:00	1289	876	13.7	9.4	269	6
2023-08-23T18:00	1319	873	13.4	9.2	267	6
2023-08-23T18:00	1346	870	13.2	9.1	265	6
2023-08-23T18:00	1377	868	13.0	9.1	263	6
2023-08-23T18:00	1403	865	12.7	8.9	261	6
2023-08-23T18:00	1433	862	12.4	8.7	258	6
2023-08-23T18:00	1462	859	12.2	8.8	255	6
2023-08-23T18:00	1489	856	11.9	8.7	252	6
2023-08-23T18:00	1520	853	11.6	8.6	251	6
2023-08-23T18:00	1548	850	11.4	8.6	250	7
2023-08-23T18:00	1573	847	11.1	8.4	251	7
2023-08-23T18:00	1602	844	11.0	8.6	252	7
2023-08-23T18:00	1629	842	10.7	8.4	252	7
2023-08-23T18:00	1659	839	10.4	8.3	251	7
2023-08-23T18:00	1691	836	10.1	8.3	249	7
2023-08-23T18:00	1717	833	9.9	8.3	247	7
2023-08-23T18:00	1750	830	9.7	8.1	245	7
2023-08-23T18:00	1778	827	9.5	7.7	244	7
2023-08-23T18:00	1805	824	9.3	7.5	244	7
2023-08-23T18:00	1832	821	9.0	7.3	245	7
2023-08-23T18:00	1862	818	8.8	7.3	245	7
2023-08-23T18:00	1889	816	8.5	7.2	245	7
2023-08-23T18:00	1920	813	8.3	6.9	246	7
2023-08-23T18:00	1948	810	8.1	6.7	246	7
2023-08-23T18:00	1975	807	7.8	6.5	246	7
2023-08-23T18:00	2003	805	7.6	6.1	248	7
2023-08-23T18:00	2030	802	7.4	5.8	250	7
2023-08-23T18:00	2058	799	7.4	4.7	253	7
2023-08-23T18:00	2088	796	7.3	3.6	257	7
2023-08-23T18:00	2119	793	7.2	2.9	261	8
2023-08-23T18:00	2146	791	7.0	2.5	265	8
2023-08-23T18:00	2175	788	6.8	2.4	269	9
2023-08-23T18:00	2204	785	6.7	2.0	273	9
2023-08-23T18:00	2233	782	6.5	1.7	277	10
2023-08-23T18:00	2267	779	6.3	1.0	280	10
2023-08-23T18:00	2294	777	6.8	-1.4	281	10
2023-08-23T18:00	2324	774	7.1		282	10
2023-08-23T18:00	2347	771	7.1	-5.6	281	10
2023-08-23T18:00	2378	769	7.0	-4.9	279	10
2023-08-23T18:00	2407	766	6.9	-7.3	277	10
2023-08-23T18:00	2436	763	6.8	-8.3	275	10
2023-08-23T18:00	2463	761	6.7	-12.9	274	10
2023-08-23T18:00	2490	758	7.1	-29.0	273	10
2023-08-23T18:00	2518	756	7.1	-28.7	273	10
2023-08-23T18:00	2545	753	7.0	-29.3	273	10
2023-08-23T18:00	2571	751	7.0	-30.0	274	10
2023-08-23T18:00	2598	748	6.8	-28.3	275	11
2023-08-23T18:00	2625	746	6.6	-23.8	276	11
2023-08-23T18:00	2650	744	6.3	-19.5	277	11
2023-08-23T18:00	2675	741	6.1	-12.9	277	11
2023-08-23T18:00	2702	739	5.9	-10.5	276	11
2023-08-23T18:00	2728	737	5.5	-5.7	275	11
2023-08-23T18:00	2755	734	5.1	-1.0	275	11
2023-08-23T18:00	2782	732	5.1		274	11
2023-08-23T18:00	2807	730	5.1	-1.5	274	11
2023-08-23T18:00	2834	727	5.2	-3.0	274	11
2023-08-23T18:00	2859	725	5.3	-7.6	274	12
2023-08-23T18:00	2885	723	5.4	-14.1	275	12
2023-08-23T18:00	2910	720	5.6	-19.3	276	12
2023-08-23T18:00	2936	718	5.6	-28.5	277	12
2023-08-23T18:00	2962	716	5.6	-30.7	279	13
2023-08-23T18:00	2991	713	5.6	-21.8	280	13
2023-08-23T18:00	3017	711	5.4	-9.2	281	13
2023-08-23T18:00	3044	709	5.2	-5.2	281	13
2023-08-23T18:00	3072	706	5.1	-5.4	281	13
2023-08-23T18:00	3100	704	5.0	-5.7	282	13
2023-08-23T18:00	3127	702	4.9	-5.9	283	13
2023-08-23T18:00	3154	699	4.9	-6.1	284	13
2023-08-23T18:00	3182	697	4.9	-6.6	285	13
2023-08-23T18:00	3211	694	4.7	-6.7	286	13
2023-08-23T18:00	3240	692	4.5	-6.8	286	13
2023-08-23T18:00	3267	690	4.5	-7.1	286	13
2023-08-23T18:00	3294	687	4.5	-7.3	285	13
2023-08-23T18:00	3321	685	4.4	-7.3	284	13
2023-08-23T18:00	3352	682	4.2	-7.8	283	13
2023-08-23T18:00	3380	680	4.1	-8.6	281	13
2023-08-23T18:00	3412	677	4.1	-10.7	280	12
2023-08-23T18:00	3439	675	4.1	-9.7	280	12
2023-08-23T18:00	3470	673	3.9	-3.8	280	12
2023-08-23T18:00	3498	670	3.7	-3.2	280	12
2023-08-23T18:00	3527	668	3.4	-2.5	280	12
2023-08-23T18:00	3557	665	3.2	-2.3	280	12
2023-08-23T18:00	3584	663	3.0	-2.4	280	12
2023-08-23T18:00	3615	661	2.8	-3.1	280	13
2023-08-23T18:00	3645	658	2.5	-3.2	279	13
2023-08-23T18:00	3676	656	2.3	-3.3	278	13
2023-08-23T18:00	3705	653	2.2	-4.4	277	14
2023-08-23T18:00	3736	651	2.1	-4.9	277	14
2023-08-23T18:00	3766	648	1.9	-4.7	276	14
2023-08-23T18:00	3798	646	1.7	-5.1	275	14
2023-08-23T18:00	3828	643	1.5	-5.6	275	14
2023-08-23T18:00	3858	641	1.2	-6.5	276	14
2023-08-23T18:00	3889	639	1.1	-8.1	277	14
2023-08-23T18:00	3920	636	0.8	-6.0	278	14
2023-08-23T18:00	3953	634	0.5	-4.5	279	14
2023-08-23T18:00	3983	631	0.2	-4.6	280	14
2023-08-23T18:00	4013	629	0.0	-4.7	280	14
2023-08-23T18:00	4042	626	-0.3	-4.9	280	14
2023-08-23T18:00	4074	624	-0.5	-4.5	280	14
2023-08-23T18:00	4103	622	-0.8	-5.2	280	14
2023-08-23T18:00	4135	619	-1.0	-6.0	279	15
2023-08-23T18:00	4164	617	-1.2	-6.2	279	15
2023-08-23T18:00	4190	615	-1.3	-6.8	278	15
2023-08-23T18:00	4220	613	-1.6	-7.0	277	15
2023-08-23T18:00	4251	610	-1.9	-6.7	277	15
2023-08-23T18:00	4284	608	-2.2	-6.5	276	15
2023-08-23T18:00	4317	605	-2.5	-6.6	275	16
2023-08-23T18:00	4350	603	-2.8	-6.8	275	16
2023-08-23T18:00	4384	600	-3.0	-7.0	275	16
2023-08-23T18:00	4416	598	-3.3	-7.2	275	16
2023-08-23T18:00	4449	595	-3.6	-7.6	275	16
2023-08-23T18:00	4481	593	-3.9	-8.0	274	16
2023-08-23T18:00	4512	590	-4.1	-8.2	274	17
2023-08-23T18:00	4544	588	-4.4	-9.0	273	17
2023-08-23T18:00	4576	586	-4.6	-9.4	273	16
2023-08-23T18:00	4608	583	-4.9	-9.9	273	16
2023-08-23T18:00	4639	581	-5.2	-10.3	272	16
2023-08-23T18:00	4672	579	-5.5	-10.1	272	16
2023-08-23T18:00	4704	576	-5.7	-10.0	271	15
2023-08-23T18:00	4737	574	-6.0	-10.0	270	15
2023-08-23T18:00	4769	572	-6.3	-10.0	269	15
2023-08-23T18:00	4803	569	-6.6	-9.9	268	15
2023-08-23T18:00	4835	567	-6.8	-9.6	268	15
2023-08-23T18:00	4866	565	-7.0	-8.4	268	15
2023-08-23T18:00	4898	562	-7.1	-7.8	269	15
2023-08-23T18:00	4927	560	-7.0	-9.1	269	15
2023-08-23T18:00	4960	558	-7.1	-8.9	271	15
2023-08-23T18:00	4990	556	-7.4	-8.8	272	15
2023-08-23T18:00	5024	553	-7.6		274	15
2023-08-23T18:00	5054	551	-7.9	-9.1	275	15
2023-08-23T18:00	5088	549	-8.1	-9.1	277	15
2023-08-23T18:00	5116	547	-8.2	-8.7	278	15
2023-08-23T18:00	5150	544	-8.3	-8.5	279	15
2023-08-23T18:00	5184	542	-8.5	-8.6	279	15
2023-08-23T18:00	5213	540	-8.8	-8.8	280	15
2023-08-23T18:00	5244	538	-9.0	-9.0	281	15
2023-08-23T18:00	5274	536	-9.3	-9.7	282	16
2023-08-23T18:00	5304	534	-9.4	-10.4	283	16
2023-08-23T18:00	5333	532	-9.5	-10.3	284	16
2023-08-23T18:00	5365	529	-9.8	-10.4	284	16
2023-08-23T18:00	5393	527	-9.9	-10.8	285	15
2023-08-23T18:00	5425	525	-10.2	-10.8	286	15
2023-08-23T18:00	5456	523	-10.4	-10.8	287	15
2023-08-23T18:00	5483	521	-10.2	-11.5	287	15
2023-08-23T18:00	5513	519	-10.0	-12.0	288	16
2023-08-23T18:00	5543	517	-10.0	-12.2	288	16
2023-08-23T18:00	5573	515	-10.1	-12.5	287	16
2023-08-23T18:00	5603	513	-10.2	-12.8	286	16
2023-08-23T18:00	5630	512	-10.3	-12.8	284	16
2023-08-23T18:00	5656	510	-10.5	-12.9	282	16
2023-08-23T18:00	5683	508	-10.6	-13.2	281	16
2023-08-23T18:00	5712	506	-10.8	-13.5	280	17
2023-08-23T18:00	5741	504	-10.9	-13.8	279	17
2023-08-23T18:00	5769	502	-10.9	-15.2	278	17
2023-08-23T18:00	5797	501	-11.0	-14.8	278	17
2023-08-23T18:00	5826	499	-11.2	-15.0	277	18
2023-08-23T18:00	5863	496	-11.3	-16.2	277	18
2023-08-23T18:00	5891	494	-11.5	-16.3	276	18
2023-08-23T18:00	5919	493	-11.6	-16.3	276	18
2023-08-23T18:00	5945	491	-11.9	-16.4	276	18
2023-08-23T18:00	5975	489	-12.1	-16.6	276	18
2023-08-23T18:00	6002	487	-12.2	-16.8	276	18
2023-08-23T18:00	6028	486	-12.2	-17.4	276	18
2023-08-23T18:00	6049	484	-12.2	-18.1	276	18
2023-08-23T18:00	6077	483	-12.3	-19.2	276	19
2023-08-23T18:00	6103	481	-12.4	-20.4	276	19
2023-08-23T18:00	6129	479	-12.5	-21.2	277	19
2023-08-23T18:00	6154	478	-12.7	-21.8	277	20
2023-08-23T18:00	6176	476	-12.8	-22.3	278	20
2023-08-23T18:00	6204	475	-12.9	-24.1	279	20
2023-08-23T18:00	6231	473	-13.1	-24.4	280	20
2023-08-23T18:00	6258	471	-13.4	-24.8	280	21
2023-08-23T18:00	6287	470	-13.6	-25.8	280	21
2023-08-23T18:00	6307	468	-13.8	-26.2	280	21
2023-08-23T18:00	6334	467	-14.1	-26.3	279	21
2023-08-23T18:00	6361	465	-14.3	-27.2	279	21
2023-08-23T18:00	6378	464	-14.2	-29.0	279	21
2023-08-23T18:00	6405	462	-14.3	-29.3	279	21
2023-08-23T18:00	6428	461	-14.3	-29.6	278	21
2023-08-23T18:00	6446	460	-14.3	-30.9	278	21
2023-08-23T18:00	6475	458	-14.5	-30.8	278	21
2023-08-23T18:00	6498	457	-14.7	-30.7	278	21
2023-08-23T18:00	6526	455	-14.9	-33.4	278	21
2023-08-23T18:00	6554	453	-15.0	-32.5	278	21
2023-08-23T18:00	6574	452	-15.2	-29.8	278	21
2023-08-23T18:00	6604	450	-15.5	-28.7	278	21
2023-08-23T18:00	6632	449	-15.7	-29.0	278	22
2023-08-23T18:00	6662	447	-16.0	-28.1	278	22
2023-08-23T18:00	6690	445	-16.2	-28.2	279	22
2023-08-23T18:00	6715	444	-16.4	-28.1	279	22
2023-08-23T18:00	6738	442	-16.6	-27.9	278	22
2023-08-23T18:00	6761	441	-16.8	-28.1	277	22
2023-08-23T18:00	6792	439	-17.0	-28.0	277	22
2023-08-23T18:00	6819	438	-17.2		276	22
2023-08-23T18:00	6845	436	-17.4	-27.7	275	22
2023-08-23T18:00	6875	434	-17.7	-26.9	275	22
2023-08-23T18:00	6901	433	-17.9	-27.4	276	23
2023-08-23T18:00	6927	431	-18.1	-28.3	276	23
2023-08-23T18:00	6955	430	-18.3	-32.9	276	23
2023-08-23T18:00	6981	428	-18.4	-34.8	277	23
2023-08-23T18:00	7012	426	-18.6	-36.2	277	23
2023-08-23T18:00	7047	425	-18.9	-33.2	278	23
2023-08-23T18:00	7073	423	-19.2	-28.9	279	24
2023-08-23T18:00	7098	422	-19.4	-28.4	279	24
2023-08-23T18:00	7120	420	-19.6	-27.3	280	24
2023-08-23T18:00	7151	419	-19.8	-27.7	280	24
2023-08-23T18:00	7177	417	-20.0	-28.2	279	24
2023-08-23T18:00	7203	416	-20.2	-28.7	278	24
2023-08-23T18:00	7229	414	-20.4	-29.0	278	25
2023-08-23T18:00	7261	412	-20.6	-29.3	278	25
2023-08-23T18:00	7292	411	-20.8	-29.9	278	25
2023-08-23T18:00	7323	409	-20.9	-30.5	278	25
2023-08-23T18:00	7352	407	-21.1	-31.0	279	25
2023-08-23T18:00	7378	406	-21.4	-31.2	279	25
2023-08-23T18:00	7412	404	-21.6	-31.6	279	25
2023-08-23T18:00	7443	402	-21.9	-31.8	279	25
2023-08-23T18:00	7474	401	-22.2	-31.9	279	25
2023-08-23T18:00	7499	399	-22.5	-32.3	280	25
2023-08-23T18:00	7530	398	-22.7	-32.3	280	24
2023-08-23T18:00	7560	396	-23.0	-32.5	280	24
2023-08-23T18:00	7587	394	-23.3	-32.8	280	24
2023-08-23T18:00	7621	393	-23.6	-33.1	280	24
2023-08-23T18:00	7654	391	-23.9	-33.0	280	24
2023-08-23T18:00	7687	389	-24.2	-33.1	280	24
2023-08-23T18:00	7709	388	-24.4	-33.2	280	25
2023-08-23T18:00	7735	387	-24.7	-33.8	280	25
2023-08-23T18:00	7758	385	-24.9	-34.5	280	26
2023-08-23T18:00	7789	384	-25.1	-34.9	280	26
2023-08-23T18:00	7820	382	-25.4	-34.8	280	27
2023-08-23T18:00	7845	381	-25.6	-35.0	280	27
2023-08-23T18:00	7873	379	-25.8	-34.9	280	27
2023-08-23T18:00	7903	378	-26.1	-35.1	279	27
2023-08-23T18:00	7936	376	-26.3	-35.6	279	27
2023-08-23T18:00	7963	375	-26.5	-35.7	278	27
2023-08-23T18:00	7987	373	-26.6	-35.5	278	27
2023-08-23T18:00	8011	372	-26.7	-36.4	278	27
2023-08-23T18:00	8034	371	-26.8	-36.7	277	27
2023-08-23T18:00	8061	370	-27.0	-36.9	277	27
2023-08-23T18:00	8088	368	-27.2	-37.0	277	26
2023-08-23T18:00	8111	367	-27.3	-36.9	277	26
2023-08-23T18:00	8146	365	-27.6	-37.3	277	26
2023-08-23T18:00	8176	364	-27.8	-38.3	277	26
2023-08-23T18:00	8200	362	-27.9	-38.8	277	26
2023-08-23T18:00	8225	361	-28.0	-38.8	277	26
2023-08-23T18:00	8245	360	-28.2	-38.9	278	26
2023-08-23T18:00	8271	359	-28.4	-39.1	278	26
2023-08-23T18:00	8295	358	-28.6	-40.0	279	25
2023-08-23T18:00	8321	356	-28.7	-42.8	279	25
2023-08-23T18:00	8344	355	-28.9	-47.3	280	25
2023-08-23T18:00	8366	354	-28.9	-50.0	280	25
2023-08-23T18:00	8392	353	-29.1	-50.6	280	25
2023-08-23T18:00	8416	352	-29.2	-50.9	280	25
2023-08-23T18:00	8445	350	-29.5	-51.1	280	25
2023-08-23T18:00	8469	349	-29.7	-51.2	280	25
2023-08-23T18:00	8490	348	-29.9	-51.0	280	25
2023-08-23T18:00	8510	347	-30.0	-51.3	280	25
2023-08-23T18:00	8531	346	-30.2	-50.9	280	25
2023-08-23T18:00	8555	345	-30.4	-51.1	280	25
2023-08-23T18:00	8580	344	-30.6	-51.6	279	25
2023-08-23T18:00	8604	343	-30.8	-49.4	279	25
2023-08-23T18:00	8630	341	-31.0	-48.2	279	25
2023-08-23T18:00	8656	340	-31.2	-48.9	278	25
2023-08-23T18:00	8682	339	-31.3	-50.4	278	26
2023-08-23T18:00	8708	338	-31.5	-50.0	278	26
2023-08-23T18:00	8735	336	-31.6	-47.9	278	26
2023-08-23T18:00	8760	335	-31.8	-45.6	278	26
2023-08-23T18:00	8784	334	-32.0	-45.9	277	26
2023-08-23T18:00	8806	333	-32.0	-46.2	277	25
2023-08-23T18:00	8837	331	-32.3	-47.5	276	25
2023-08-23T18:00	8871	330	-32.4	-54.2	276	24
2023-08-23T18:00	8897	329	-32.6	-53.9	275	24
2023-08-23T18:00	8921	328	-32.8	-53.6	275	24
2023-08-23T18:00	8943	326	-32.9	-52.9	275	24
2023-08-23T18:00	8965	325	-33.2	-52.2	275	23
2023-08-23T18:00	8989	324	-33.4	-52.2	274	23
2023-08-23T18:00	9014	323	-33.6	-52.0	274	23
2023-08-23T18:00	9044	322	-33.9	-50.7	274	23
2023-08-23T18:00	9080	320	-34.2		273	23
2023-08-23T18:00	9102	319	-34.5	-50.3	273	23
2023-08-23T18:00	9128	318	-34.7	-49.8	273	23
2023-08-23T18:00	9151	317	-34.9	-49.5	273	23
2023-08-23T18:00	9174	316	-35.2	-48.3	273	23
2023-08-23T18:00	9200	315	-35.4	-48.5	273	23
2023-08-23T18:00	9222	314	-35.6	-51.9	274	24
2023-08-23T18:00	9251	312	-35.8	-53.7	274	24
2023-08-23T18:00	9275	311	-36.0	-53.7	274	24
2023-08-23T18:00	9302	310	-36.2	-53.9	274	24
2023-08-23T18:00	9324	309	-36.4	-53.8	274	24
2023-08-23T18:00	9347	308	-36.6	-52.1	274	24
2023-08-23T18:00	9377	307	-36.9	-50.7	274	24
2023-08-23T18:00	9403	306	-37.1	-50.3	274	24
2023-08-23T18:00	9432	304	-37.3	-50.2	274	25
2023-08-23T18:00	9458	303	-37.5	-50.6	275	25
2023-08-23T18:00	9486	302	-37.7	-50.8	275	25
2023-08-23T18:00	9516	301	-37.9	-51.0	276	25
2023-08-23T18:00	9545	299	-38.2	-51.7	277	25
2023-08-23T18:00	9569	298	-38.4	-52.2	277	25
2023-08-23T18:00	9593	297	-38.5	-53.2	277	25
2023-08-23T18:00	9619	296	-38.7	-53.8	278	25
2023-08-23T18:00	9646	295	-38.8	-52.0	278	25
2023-08-23T18:00	9674	294	-39.0	-50.2	279	25
2023-08-23T18:00	9700	293	-39.3	-50.0	280	25
2023-08-23T18:00	9728	292	-39.5	-49.9	281	25
2023-08-23T18:00	9758	290	-39.8	-49.5	282	25
2023-08-23T18:00	9785	289	-40.1	-48.8	283	25
2023-08-23T18:00	9809	288	-40.3	-48.1	283	25
2023-08-23T18:00	9836	287	-40.5	-48.1	284	26
2023-08-23T18:00	9860	286	-40.7	-47.8	284	26
2023-08-23T18:00	9890	285	-40.9	-47.5	284	26
2023-08-23T18:00	9914	284	-41.2	-47.9	284	27
2023-08-23T18:00	9937	283	-41.3	-48.4	284	27
2023-08-23T18:00	9964	282	-41.5	-48.6	284	27
2023-08-23T18:00	9987	281	-41.7	-48.6	284	27
2023-08-23T18:00	10009	280	-41.9	-49.6	283	27
2023-08-23T18:00	10033	279	-42.0	-51.3	282	27
2023-08-23T18:00	10057	278	-42.2	-52.1	282	27
2023-08-23T18:00	10084	277	-42.4	-51.7	282	27
2023-08-23T18:00	10111	276	-42.7	-51.9	282	27
2023-08-23T18:00	10132	275	-42.8	-52.7	282	27
2023-08-23T18:00	10155	274	-43.0	-52.6	282	27
2023-08-23T18:00	10180	273	-43.2	-52.3	282	27
2023-08-23T18:00	10206	272	-43.4	-52.1	283	27
2023-08-23T18:00	10236	271	-43.7	-52.1	283	27
2023-08-23T18:00	10263	269	-44.0	-52.1	283	27
2023-08-23T18:00	10288	268	-44.2	-51.8	283	27
2023-08-23T18:00	10309	268	-44.4	-51.9	283	27
2023-08-23T18:00	10333	267	-44.6	-52.1	283	27
2023-08-23T18:00	10359	266	-44.8	-52.4	284	27
2023-08-23T18:00	10386	264	-45.1	-53.0	285	28
2023-08-23T18:00	10408	264	-45.3	-53.1	285	28
2023-08-23T18:00	10431	263	-45.5	-53.2	286	28
2023-08-23T18:00	10452	262	-45.7	-53.5	286	28
2023-08-23T18:00	10475	261	-45.9	-53.8	286	28
2023-08-23T18:00	10499	260	-46.1	-54.1	286	27
2023-08-23T18:00	10521	259	-46.3	-54.2	286	27
2023-08-23T18:00	10541	258	-46.5	-54.2	286	27
2023-08-23T18:00	10566	257	-46.7	-54.6	286	27
2023-08-23T18:00	10588	257	-46.9	-55.0	286	27
2023-08-23T18:00	10612	256	-47.1	-55.4	286	27
2023-08-23T18:00	10639	255	-47.3	-55.9	286	28
2023-08-23T18:00	10664	254	-47.4	-56.2	286	28
2023-08-23T18:00	10688	253	-47.7	-56.1	286	27
2023-08-23T18:00	10709	252	-47.9	-55.8	286	27
2023-08-23T18:00	10731	251	-48.1	-55.5	286	28
2023-08-23T18:00	10754	250	-48.3	-55.4	286	28
2023-08-23T18:00	10776	249	-48.5	-55.5	286	28
2023-08-23T18:00	10801	248	-48.7	-55.8	286	28
2023-08-23T18:00	10822	248	-48.9	-56.1	286	28
2023-08-23T18:00	10847	247	-49.2	-56.4	287	28
2023-08-23T18:00	10871	246	-49.4	-56.6	287	28
2023-08-23T18:00	10894	245	-49.5	-56.8	287	28
2023-08-23T18:00	10917	244	-49.7	-57.0	288	28
2023-08-23T18:00	10943	243	-49.9	-57.2	288	28
2023-08-23T18:00	10968	242	-50.2	-57.5	287	28
2023-08-23T18:00	10991	241	-50.4	-57.6	287	28
2023-08-23T18:00	11017	240	-50.6	-57.6	287	28
2023-08-23T18:00	11045	239	-50.9	-57.7	287	28
2023-08-23T18:00	11074	238	-51.1	-58.0	287	28
2023-08-23T18:00	11098	237	-51.3	-58.3	287	28
2023-08-23T18:00	11126	236	-51.6	-58.7	287	28
2023-08-23T18:00	11152	235	-51.8	-59.2	287	28
2023-08-23T18:00	11179	234	-52.1	-59.7	287	28
2023-08-23T18:00	11209	233	-52.3	-60.2	287	28
2023-08-23T18:00	11234	232	-52.5	-60.7	288	28
2023-08-23T18:00	11260	231	-52.8	-60.9	288	28
2023-08-23T18:00	11288	231	-53.0	-60.9	288	28
2023-08-23T18:00	11313	230	-53.2	-60.9	288	28
2023-08-23T18:00	11339	229	-53.5	-61.1	288	28
2023-08-23T18:00	11367	228	-53.7	-61.1	288	28
2023-08-23T18:00	11392	227	-53.9	-61.2	288	29
2023-08-23T18:00	11415	226	-54.2	-61.3	288	29
2023-08-23T18:00	11448	225	-54.4	-61.3	288	29
2023-08-23T18:00	11470	224	-54.6	-61.3	288	29
2023-08-23T18:00	11495	223	-54.8	-61.4	288	30
2023-08-23T18:00	11523	222	-55.1	-61.6	288	30
2023-08-23T18:00	11550	221	-55.1	-61.9	288	31
2023-08-23T18:00	11575	220	-55.2	-62.4	289	31
2023-08-23T18:00	11604	219	-55.4	-62.5	289	31
2023-08-23T18:00	11628	219	-55.6	-62.4	289	32
2023-08-23T18:00	11654	218	-55.8	-62.4	289	32
2023-08-23T18:00	11684	217	-56.0	-62.6	289	32
2023-08-23T18:00	11709	216	-56.1	-63.0	288	32
2023-08-23T18:00	11737	215	-56.1	-63.3	288	32
2023-08-23T18:00	11765	214	-56.2	-63.6	288	33
2023-08-23T18:00	11794	213	-56.4	-63.8	288	33
2023-08-23T18:00	11826	212	-56.5	-64.3	289	33
2023-08-23T18:00	11854	211	-56.6	-65.0	290	32
2023-08-23T18:00	11881	210	-56.8	-65.7	291	32
2023-08-23T18:00	11908	209	-57.0	-65.9	292	32
2023-08-23T18:00	11934	208	-57.2	-65.9	294	32
2023-08-23T18:00	11961	207	-57.4	-65.9	295	32
2023-08-23T18:00	11984	207	-57.6	-66.0	295	32
2023-08-23T18:00	12007	206	-57.8	-66.2	296	32
2023-08-23T18:00	12030	205	-57.8	-66.2	296	32
2023-08-23T18:00	12057	204	-58.0	-66.4	296	32
2023-08-23T18:00	12084	203	-58.1	-66.5	295	32
2023-08-23T18:00	12110	203	-58.3	-66.7	295	32
2023-08-23T18:00	12133	202	-58.3	-67.0	294	31
2023-08-23T18:00	12158	201	-58.2	-67.4	293	31
2023-08-23T18:00	12184	200	-58.1	-67.6	292	30
2023-08-23T18:00	12211	199	-58.1	-67.8	291	30
2023-08-23T18:00	12240	198	-58.0	-67.9	290	30
2023-08-23T18:00	12265	198	-58.1	-68.1	289	29
2023-08-23T18:00	12289	197	-58.3	-68.3	289	29
2023-08-23T18:00	12316	196	-58.5	-68.3	289	29
2023-08-23T18:00	12339	195	-58.6	-68.3	290	28
2023-08-23T18:00	12362	195	-58.7	-68.5	290	28
2023-08-23T18:00	12384	194	-58.7	-68.8	290	28
2023-08-23T18:00	12410	193	-58.7	-69.0	290	28
2023-08-23T18:00	12430	192	-58.8	-69.3	290	27
2023-08-23T18:00	12453	192	-58.8	-69.3	290	27
2023-08-23T18:00	12476	191	-58.8	-69.5	290	27
2023-08-23T18:00	12499	190	-58.9	-69.8	290	27
2023-08-23T18:00	12523	190	-58.9	-70.1	289	27
2023-08-23T18:00	12547	189	-58.7	-70.4	288	27
2023-08-23T18:00	12571	188	-58.7	-70.8	287	27
2023-08-23T18:00	12594	188	-58.7	-71.1	286	27
2023-08-23T18:00	12615	187	-58.6	-71.4	285	27
2023-08-23T18:00	12638	186	-58.4	-71.8	283	27
2023-08-23T18:00	12665	185	-58.5	-72.9	282	27
2023-08-23T18:00	12695	185	-58.0	-73.9	281	26
2023-08-23T18:00	12722	184	-57.1	-74.9	279	26
2023-08-23T18:00	12747	183	-57.0	-76.0	278	26
2023-08-23T18:00	12774	182	-57.0	-76.2	276	27
2023-08-23T18:00	12800	182	-57.2	-76.1	275	27
2023-08-23T18:00	12824	181	-57.4	-76.0	274	28
2023-08-23T18:00	12849	180	-57.5	-75.8	273	28
2023-08-23T18:00	12872	179	-57.5	-75.7	273	29
2023-08-23T18:00	12893	179	-57.4	-75.7	272	29
2023-08-23T18:00	12915	178	-57.4	-75.8	272	29
2023-08-23T18:00	12935	178	-57.5	-76.1	271	29
2023-08-23T18:00	12960	177	-57.4	-76.4	271	30
2023-08-23T18:00	12981	176	-57.4	-76.7	271	30
2023-08-23T18:00	13003	176	-57.3	-76.9	270	30
2023-08-23T18:00	13026	175	-57.2	-77.1	270	30
2023-08-23T18:00	13046	175	-57.2	-77.2	271	31
2023-08-23T18:00	13071	174	-57.2	-77.3	272	31
2023-08-23T18:00	13098	173	-57.2	-77.5	274	31
2023-08-23T18:00	13121	173	-57.2	-77.9	275	31
2023-08-23T18:00	13146	172	-57.2	-78.6	277	31
2023-08-23T18:00	13171	171	-57.1	-79.1	279	31
2023-08-23T18:00	13196	170	-56.5	-79.4	280	31
2023-08-23T18:00	13221	170	-56.2	-79.9	281	31
2023-08-23T18:00	13247	169	-56.1	-80.2	281	30
2023-08-23T18:00	13272	168	-56.1	-80.5	281	29
2023-08-23T18:00	13293	168	-55.8	-80.2	281	28
2023-08-23T18:00	13316	167	-55.7	-80.4	281	28
2023-08-23T18:00	13338	167	-55.6	-80.5	279	27
2023-08-23T18:00	13362	166	-55.5	-80.2	278	26
2023-08-23T18:00	13385	166	-55.4	-80.1	277	26
2023-08-23T18:00	13407	165	-55.4	-79.9	275	26
2023-08-23T18:00	13427	164	-55.5	-79.8	275	26
2023-08-23T18:00	13452	164	-55.5	-79.6	274	27
2023-08-23T18:00	13472	163	-55.5	-79.4	274	27
2023-08-23T18:00	13494	163	-55.5	-79.2	275	27
2023-08-23T18:00	13516	162	-55.4	-79.1	276	28
2023-08-23T18:00	13539	162	-55.4	-79.1	277	28
2023-08-23T18:00	13562	161	-55.4	-79.3	277	28
2023-08-23T18:00	13582	160	-55.5	-79.4	277	28
2023-08-23T18:00	13606	160	-55.5	-79.6	276	29
2023-08-23T18:00	13628	159	-55.3	-79.6	276	29
2023-08-23T18:00	13649	159	-55.1	-79.7	275	29
2023-08-23T18:00	13673	158	-55.2	-80.0	275	29
2023-08-23T18:00	13692	158	-55.2	-80.0	274	28
2023-08-23T18:00	13716	157	-55.2	-80.0	274	28
2023-08-23T18:00	13739	157	-55.3	-80.3	274	28
2023-08-23T18:00	13762	156	-55.3	-80.3	273	28
2023-08-23T18:00	13785	155	-55.2	-80.4	272	28
2023-08-23T18:00	13809	155	-55.2	-80.7	271	28
2023-08-23T18:00	13841	154	-55.2	-80.7	271	27
2023-08-23T18:00	13863	154	-55.1	-80.9	271	27
2023-08-23T18:00	13886	153	-54.7	-80.6	272	27
2023-08-23T18:00	13908	152	-54.4	-80.6	273	27
2023-08-23T18:00	13931	152	-54.4	-80.6	275	27
2023-08-23T18:00	13953	151	-54.4	-80.6	277	27
2023-08-23T18:00	13976	151	-54.4	-80.6	278	27
2023-08-23T18:00	13996	150	-54.4	-80.6	279	27
2023-08-23T18:00	14024	150	-54.5	-80.9	281	27
2023-08-23T18:00	14044	149	-54.5	-80.9	282	27
2023-08-23T18:00	14065	149	-54.6	-81.0	283	27
2023-08-23T18:00	14087	148	-54.6	-80.7	284	27
2023-08-23T18:00	14109	148	-54.7	-80.8	284	28
2023-08-23T18:00	14130	147	-54.8	-80.9	285	28
2023-08-23T18:00	14155	147	-55.0	-81.1	285	28
2023-08-23T18:00	14181	146	-55.2	-80.9	286	29
2023-08-23T18:00	14202	146	-55.3	-81.0	286	29
2023-08-23T18:00	14224	145	-55.4	-81.1	286	28
2023-08-23T18:00	14243	145	-55.1	-80.6	286	28
2023-08-23T18:00	14269	144	-55.2	-80.7	286	28
2023-08-23T18:00	14293	144	-55.2	-80.7	285	27
2023-08-23T18:00	14316	143	-55.2	-80.7	285	27
2023-08-23T18:00	14337	143	-55.3	-80.8	285	26
2023-08-23T18:00	14360	142	-55.4	-80.8	285	25
2023-08-23T18:00	14388	141	-55.4	-80.8	285	24
2023-08-23T18:00	14415	141	-55.5	-80.9	285	24
2023-08-23T18:00	14436	140	-55.5	-80.9	285	23
2023-08-23T18:00	14459	140	-55.6	-81.0	285	23
2023-08-23T18:00	14483	139	-55.8	-81.2	284	23
2023-08-23T18:00	14505	139	-55.9	-81.2	284	23
2023-08-23T18:00	14528	138	-56.1	-81.4	283	23
2023-08-23T18:00	14552	138	-56.0	-81.3	283	24
2023-08-23T18:00	14573	137	-55.9	-81.2	283	24
2023-08-23T18:00	14593	137	-55.9	-81.2	283	24
2023-08-23T18:00	14616	136	-56.1	-81.1	284	25
2023-08-23T18:00	14639	136	-56.3	-81.3	284	24
2023-08-23T18:00	14658	136	-56.4	-81.4	283	24
2023-08-23T18:00	14680	135	-56.5	-81.5	283	24
2023-08-23T18:00	14701	135	-56.2	-81.5	283	23
2023-08-23T18:00	14726	134	-56.1	-81.4	283	23
2023-08-23T18:00	14746	134	-56.0	-81.6	282	22
2023-08-23T18:00	14768	133	-55.9	-81.5	282	23
2023-08-23T18:00	14791	133	-55.8	-81.4	282	23
2023-08-23T18:00	14811	132	-55.8	-81.4	282	23
2023-08-23T18:00	14834	132	-55.7	-81.3	282	24
2023-08-23T18:00	14856	131	-55.7	-81.3	282	24
2023-08-23T18:00	14880	131	-55.9	-81.5	282	25
2023-08-23T18:00	14900	130	-56.1	-81.6	283	25
2023-08-23T18:00	14922	130	-56.2	-82.0	283	25
2023-08-23T18:00	14945	130	-55.9	-81.8	283	25
2023-08-23T18:00	14965	129	-56.0	-82.1	284	25
2023-08-23T18:00	14987	129	-56.1	-82.2	284	25
2023-08-23T18:00	15011	128	-56.2	-82.3	284	24
2023-08-23T18:00	15034	128	-56.1	-82.2	283	23
2023-08-23T18:00	15056	127	-55.9	-82.0	283	23
2023-08-23T18:00	15078	127	-55.9	-82.0	282	22
2023-08-23T18:00	15100	126	-56.0	-82.1	281	22
2023-08-23T18:00	15125	126	-56.1	-82.2	280	22
2023-08-23T18:00	15147	126	-56.3	-82.3	280	22
2023-08-23T18:00	15172	125	-56.3	-82.3	279	23
2023-08-23T18:00	15194	125	-56.1	-82.2	279	23
2023-08-23T18:00	15217	124	-55.9	-82.0	279	23
2023-08-23T18:00	15241	124	-56.0	-82.1	280	23
2023-08-23T18:00	15265	123	-56.1	-82.2	280	23
2023-08-23T18:00	15286	123	-56.2	-82.3	279	23
2023-08-23T18:00	15309	122	-56.3	-82.3	278	23
2023-08-23T18:00	15333	122	-56.2	-82.3	277	23
2023-08-23T18:00	15354	122	-55.9	-82.0	277	24
2023-08-23T18:00	15379	121	-55.9	-81.8	277	24
2023-08-23T18:00	15402	121	-56.0	-81.8	278	24
2023-08-23T18:00	15425	120	-56.0	-82.1	279	24
2023-08-23T18:00	15452	120	-56.1	-82.2	281	23
2023-08-23T18:00	15476	119	-56.1	-82.5	283	22
2023-08-23T18:00	15503	119	-55.4	-82.6	285	21
2023-08-23T18:00	15526	118	-54.7	-82.4	286	20
2023-08-23T18:00	15552	118	-53.6	-81.9	286	19
2023-08-23T18:00	15576	117	-53.6	-82.3	286	18
2023-08-23T18:00	15603	117	-53.8	-82.4	286	18
2023-08-23T18:00	15624	116	-53.8	-82.4	286	17
2023-08-23T18:00	15646	116	-53.7	-82.0	286	17
2023-08-23T18:00	15668	116	-53.8	-82.0	287	17
2023-08-23T18:00	15692	115	-53.8	-82.0	287	16
2023-08-23T18:00	15712	115	-53.8	-82.0	287	16
2023-08-23T18:00	15734	114	-53.9	-82.1	287	16
2023-08-23T18:00	15760	114	-54.1	-82.3	287	16
2023-08-23T18:00	15784	114	-54.3	-82.1	287	16
2023-08-23T18:00	15809	113	-54.4	-82.1	287	15
2023-08-23T18:00	15834	113	-54.5	-82.2	287	15
2023-08-23T18:00	15856	112	-54.6	-82.3	287	15
2023-08-23T18:00	15877	112	-54.7	-82.4	286	15
2023-08-23T18:00	15904	112	-54.9	-82.5	285	14
2023-08-23T18:00	15925	111	-54.9	-82.2	284	14
2023-08-23T18:00	15949	111	-55.0	-82.3	283	14
2023-08-23T18:00	15971	110	-55.1	-82.3	282	14
2023-08-23T18:00	15999	110	-55.3	-82.5	281	14
2023-08-23T18:00	16021	109	-55.5	-82.6	280	14
2023-08-23T18:00	16043	109	-55.6	-82.4	278	14
2023-08-23T18:00	16066	109	-55.8	-82.5	277	14
2023-08-23T18:00	16091	108	-55.9	-82.6	276	14
2023-08-23T18:00	16113	108	-56.1	-82.8	275	14
2023-08-23T18:00	16135	108	-56.2	-82.9	274	14
2023-08-23T18:00	16156	107	-56.3	-82.9	273	14
2023-08-23T18:00	16179	107	-56.5	-83.1	271	14
2023-08-23T18:00	16204	106	-56.6	-82.9	270	14
2023-08-23T18:00	16228	106	-56.8	-83.0	268	14
2023-08-23T18:00	16251	106	-56.9	-83.1	267	14
2023-08-23T18:00	16273	105	-57.0	-83.2	266	15
2023-08-23T18:00	16297	105	-57.2	-83.0	266	15
2023-08-23T18:00	16318	104	-57.3	-83.1	266	15
2023-08-23T18:00	16340	104	-57.5	-83.0	266	15
2023-08-23T18:00	16365	104	-57.8	-83.2	266	15
2023-08-23T18:00	16388	103	-57.9	-83.3	267	15
2023-08-23T18:00	16412	103	-58.1	-83.5	268	16
2023-08-23T18:00	16434	103	-58.3	-83.6	270	16
2023-08-23T18:00	16458	102	-58.3	-83.6	271	16
2023-08-23T18:00	16483	102	-58.5	-83.8	273	17
2023-08-23T18:00	16502	101	-58.5	-83.8	275	17
2023-08-23T18:00	16527	101	-58.3	-83.6	276	17
2023-08-23T18:00	16546	101	-58.2	-83.8	278	17
2023-08-23T18:00	16572	100	-58.2	-83.8	279	17
2023-08-23T18:00	16595	100	-58.1	-83.7	281	16
2023-08-23T18:00	16617	100	-58.1	-83.7	283	16
2023-08-23T18:00	16639	99	-58.2	-83.8	284	16
2023-08-23T18:00	16664	99	-58.2	-83.8	285	17
2023-08-23T18:00	16689	99	-58.3	-83.9	286	17
2023-08-23T18:00	16712	98	-58.0	-83.7	287	17
2023-08-23T18:00	16732	98	-58.1	-83.7	288	17
2023-08-23T18:00	16755	97	-58.3	-83.9	289	17
2023-08-23T18:00	16777	97	-58.2	-84.1	291	16
2023-08-23T18:00	16800	97	-57.5	-83.9	292	15
2023-08-23T18:00	16824	96	-57.1	-83.9	292	15
2023-08-23T18:00	16846	96	-56.9	-84.0	291	14
2023-08-23T18:00	16870	96	-56.7	-83.9	290	13
2023-08-23T18:00	16894	95	-56.5	-84.1	289	13
2023-08-23T18:00	16917	95	-56.2	-83.9	288	13
2023-08-23T18:00	16942	95	-56.3	-83.9	288	12
2023-08-23T18:00	16967	94	-56.5	-83.7	288	12
2023-08-23T18:00	16992	94	-56.7	-83.9	289	11
2023-08-23T18:00	17016	94	-57.0	-84.1	290	11
2023-08-23T18:00	17038	93	-57.1	-84.2	292	10
2023-08-23T18:00	17062	93	-57.3	-84.4	294	9
2023-08-23T18:00	17085	93	-57.2	-84.3	294	9
2023-08-23T18:00	17109	92	-57.3	-84.4	293	9
2023-08-23T18:00	17129	92	-56.8	-84.3	290	9
2023-08-23T18:00	17152	92	-56.5	-84.1	286	9
2023-08-23T18:00	17175	91	-56.5	-84.1	283	10
2023-08-23T18:00	17199	91	-56.7	-84.2	281	10
2023-08-23T18:00	17223	91	-56.9	-84.4	279	11
2023-08-23T18:00	17247	90	-57.1	-84.2	277	11
2023-08-23T18:00	17272	90	-57.2	-84.3	276	12
2023-08-23T18:00	17299	89	-57.5	-84.2	274	12
2023-08-23T18:00	17320	89	-57.6	-84.3	272	13
2023-08-23T18:00	17343	89	-57.8	-84.4	271	14
2023-08-23T18:00	17364	88	-57.8	-84.7	270	14
2023-08-23T18:00	17391	88	-57.7	-84.7	269	15
2023-08-23T18:00	17410	88	-57.6	-84.9	267	15
2023-08-23T18:00	17435	88	-57.5	-84.9	266	16
2023-08-23T18:00	17459	87	-57.5	-84.9	266	16
2023-08-23T18:00	17484	87	-57.6	-84.9	266	16
2023-08-23T18:00	17508	87	-57.6	-84.9	267	16
2023-08-23T18:00	17531	86	-57.3	-84.7	268	16
2023-08-23T18:00	17553	86	-57.4	-84.8	270	16
2023-08-23T18:00	17576	86	-57.6	-84.9	273	16
2023-08-23T18:00	17602	85	-57.6	-85.3	275	16
2023-08-23T18:00	17626	85	-57.5	-85.2	277	16
2023-08-23T18:00	17650	85	-57.4	-85.2	279	16
2023-08-23T18:00	17672	84	-57.4	-85.6	282	15
2023-08-23T18:00	17697	84	-57.5	-85.6	285	15
2023-08-23T18:00	17723	84	-57.4	-85.6	288	15
2023-08-23T18:00	17747	83	-57.1	-85.3	293	15
2023-08-23T18:00	17773	83	-57.1	-85.3	297	14
2023-08-23T18:00	17796	83	-57.0	-85.2	300	14
2023-08-23T18:00	17822	82	-56.8	-85.1	303	13
2023-08-23T18:00	17848	82	-56.7	-85.0	304	13
2023-08-23T18:00	17872	82	-56.7	-85.0	305	12
2023-08-23T18:00	17899	81	-56.8	-85.1	305	12
2023-08-23T18:00	17925	81	-56.9	-85.2	305	11
2023-08-23T18:00	17949	81	-56.9	-85.2	304	10
2023-08-23T18:00	17974	80	-57.0	-84.8	303	10
2023-08-23T18:00	17998	80	-57.2	-85.0	302	9
2023-08-23T18:00	18021	80	-57.3	-85.1	299	9
2023-08-23T18:00	18047	79	-57.5	-85.2	296	9
2023-08-23T18:00	18069	79	-57.7	-85.4	293	9
2023-08-23T18:00	18096	79	-57.8	-85.1	289	9
2023-08-23T18:00	18119	79	-57.8	-85.5	286	9
2023-08-23T18:00	18146	78	-57.7	-85.4	284	10
2023-08-23T18:00	18169	78	-57.6	-85.3	282	10
2023-08-23T18:00	18192	78	-57.4	-85.6	280	10
2023-08-23T18:00	18216	77	-57.5	-85.6	279	10
2023-08-23T18:00	18243	77	-57.5	-86.1	278	10
2023-08-23T18:00	18266	77	-57.5	-86.1	277	9
2023-08-23T18:00	18289	76	-57.2	-85.8	276	9
2023-08-23T18:00	18313	76	-57.1	-85.7	275	9
2023-08-23T18:00	18337	76	-57.2	-85.8	275	10
2023-08-23T18:00	18361	76	-57.2	-85.8	275	10
2023-08-23T18:00	18386	75	-57.2	-85.4	277	11
2023-08-23T18:00	18410	75	-57.3	-85.5	279	11
2023-08-23T18:00	18434	75	-57.3	-85.5	283	12
2023-08-23T18:00	18461	74	-57.3	-85.5	287	12
2023-08-23T18:00	18480	74	-57.0	-85.7	292	12
2023-08-23T18:00	18506	74	-56.8	-85.5	296	11
2023-08-23T18:00	18536	74	-57.0	-85.7	301	11
2023-08-23T18:00	18563	73	-56.6	-85.8	304	10
2023-08-23T18:00	18588	73	-56.2	-85.5	305	9
2023-08-23T18:00	18610	73	-56.1	-85.5	305	8
2023-08-23T18:00	18632	72	-56.2	-85.5	304	8
2023-08-23T18:00	18658	72	-56.2	-85.5	303	7
2023-08-23T18:00	18682	72	-56.2	-85.5	302	6
2023-08-23T18:00	18705	72	-56.3	-85.1	301	6
2023-08-23T18:00	18733	71	-56.4	-85.2	300	5
2023-08-23T18:00	18758	71	-56.6	-85.4	298	5
2023-08-23T18:00	18781	71	-56.8	-85.5	294	4
2023-08-23T18:00	18807	70	-56.9	-85.6	287	4
2023-08-23T18:00	18834	70	-57.1	-85.3	279	4
2023-08-23T18:00	18853	70	-57.3	-85.5	271	4
2023-08-23T18:00	18877	70	-57.2	-85.4	266	4
2023-08-23T18:00	18906	69	-57.0	-85.7	263	5
2023-08-23T18:00	18928	69	-57.1	-85.7	262	5
2023-08-23T18:00	18953	69	-57.3	-85.9	264	6
2023-08-23T18:00	18978	69	-57.4	-86.0	267	6
2023-08-23T18:00	19001	68	-57.4	-86.0	272	6
2023-08-23T18:00	19031	68	-57.5	-86.1	278	6
2023-08-23T18:00	19053	68	-57.5	-86.1	284	6
2023-08-23T18:00	19080	68	-57.4	-86.0	289	6
2023-08-23T18:00	19103	67	-57.5	-86.1	294	6
2023-08-23T18:00	19127	67	-57.5	-86.1	297	6
2023-08-23T18:00	19149	67	-57.5	-86.1	300	5
2023-08-23T18:00	19173	66	-57.5	-86.1	301	5
2023-08-23T18:00	19200	66	-57.4	-86.0	302	4
2023-08-23T18:00	19224	66	-57.4	-86.0	302	4
2023-08-23T18:00	19251	66	-57.4	-86.0	299	4
2023-08-23T18:00	19276	65	-57.3	-86.4	294	3
2023-08-23T18:00	19302	65	-57.2	-86.3	287	3
2023-08-23T18:00	19324	65	-57.0	-86.1	283	4
2023-08-23T18:00	19346	65	-57.1	-86.2	281	4
2023-08-23T18:00	19372	64	-57.1	-85.7	283	5
2023-08-23T18:00	19397	64	-57.1	-85.7	287	5
2023-08-23T18:00	19424	64	-57.1	-85.7	292	5
2023-08-23T18:00	19447	64	-57.0	-85.7	298	6
2023-08-23T18:00	19472	63	-57.0	-86.1	304	6
2023-08-23T18:00	19495	63	-56.8	-86.0	308	6
2023-08-23T18:00	19519	63	-56.5	-86.3	309	6
2023-08-23T18:00	19544	63	-56.1	-86.0	308	6
2023-08-23T18:00	19566	63	-55.9	-85.8	305	6
2023-08-23T18:00	19590	62	-55.8	-85.7	302	6
2023-08-23T18:00	19615	62	-55.7	-86.2	300	6
2023-08-23T18:00	19640	62	-55.7	-86.2	300	6
2023-08-23T18:00	19663	62	-55.7	-85.7	303	6
2023-08-23T18:00	19693	61	-55.7	-85.7	307	6
2023-08-23T18:00	19719	61	-55.4	-85.4	312	5
2023-08-23T18:00	19743	61	-55.4	-85.4	317	5
2023-08-23T18:00	19769	61	-55.4	-85.4	321	4
2023-08-23T18:00	19794	60	-55.5	-85.5	325	3
2023-08-23T18:00	19822	60	-55.7	-85.7	328	2
2023-08-23T18:00	19844	60	-55.9	-85.8	328	2
2023-08-23T18:00	19868	60	-56.0		323	2
2023-08-23T18:00	19891	59	-56.2	-85.5	312	1
2023-08-23T18:00	19918	59	-56.3	-85.6	302	2
2023-08-23T18:00	19942	59	-56.4	-85.7	299	2
2023-08-23T18:00	19970	59	-56.2	-85.5	300	3
2023-08-23T18:00	19991	58	-55.8	-85.7	303	4
2023-08-23T18:00	20015	58	-55.8	-85.7	307	4
2023-08-23T18:00	20041	58	-55.7	-85.7	310	5
2023-08-23T18:00	20063	58	-55.5	-86.1	310	5
2023-08-23T18:00	20087	58	-55.1	-85.8	309	5
2023-08-23T18:00	20112	57	-54.7	-85.5	305	5
2023-08-23T18:00	20137	57	-54.5	-85.3	301	5
2023-08-23T18:00	20159	57	-54.3	-85.2	297	5
2023-08-23T18:00	20189	57	-54.4	-85.2	295	5
2023-08-23T18:00	20212	56	-54.4	-84.7	294	5
2023-08-23T18:00	20234	56	-54.5	-84.8	296	5
2023-08-23T18:00	20264	56	-54.6	-84.8	300	5
2023-08-23T18:00	20295	56	-54.7	-84.9	306	4
2023-08-23T18:00	20314	56	-54.7	-85.5	312	4
2023-08-23T18:00	20341	55	-54.7	-85.5	318	3
2023-08-23T18:00	20363	55	-54.6	-85.4	323	2
2023-08-23T18:00	20393	55	-54.6	-85.4	321	2
2023-08-23T18:00	20415	55	-54.7	-84.9	303	1
2023-08-23T18:00	20442	55	-54.8	-85.0	270	1
2023-08-23T18:00	20465	54	-54.7	-84.9	256	2
2023-08-23T18:00	20492	54	-54.6	-85.4	255	2
2023-08-23T18:00	20518	54	-54.5	-85.3	259	3
2023-08-23T18:00	20542	54	-54.5	-85.3	265	3
2023-08-23T18:00	20567	53	-54.6	-85.4	272	4
2023-08-23T18:00	20589	53	-54.8	-85.5	280	4
2023-08-23T18:00	20619	53	-54.9	-85.6	288	4
2023-08-23T18:00	20643	53	-54.8	-85.5	295	4
2023-08-23T18:00	20672	53	-54.7	-85.5	302	4
2023-08-23T18:00	20689	52	-54.7	-85.5	307	5
2023-08-23T18:00	20711	52	-54.7	-85.5	311	5
2023-08-23T18:00	20744	52	-54.8	-85.5	314	4
2023-08-23T18:00	20764	52	-54.8	-85.5	316	4
2023-08-23T18:00	20791	52	-54.8	-85.5	317	4
2023-08-23T18:00	20811	51	-54.5	-85.3	318	3
2023-08-23T18:00	20835	51	-54.3	-85.8	318	3
2023-08-23T18:00	20863	51	-54.1	-85.6	318	3
2023-08-23T18:00	20881	51	-53.8	-85.4	318	3
2023-08-23T18:00	20907	51	-53.6	-85.3	318	3
2023-08-23T18:00	20929	50	-53.5	-85.2	317	2
2023-08-23T18:00	20952	50	-53.5	-85.2	314	2
2023-08-23T18:00	20978	50	-53.6	-85.3	310	2
2023-08-23T18:00	21003	50	-53.7	-85.3	306	2
2023-08-23T18:00	21022	50	-53.9	-84.9	304	2
2023-08-23T18:00	21048	50	-53.9	-84.9	306	2
2023-08-23T18:00	21072	49	-53.8	-84.8	312	2
2023-08-23T18:00	21095	49	-53.8	-84.8	318	1
2023-08-23T18:00	21120	49	-53.7	-84.7	319	1
2023-08-23T18:00	21141	49	-53.7	-84.7	312	1
2023-08-23T18:00	21166	49	-53.7	-84.7	300	2
2023-08-23T18:00	21197	48	-53.6	-84.6	290	2
2023-08-23T18:00	21215	48	-53.7	-84.7	284	3
2023-08-23T18:00	21243	48	-53.8	-84.8	281	4
2023-08-23T18:00	21267	48	-53.7	-84.7	280	4
2023-08-23T18:00	21296	48	-53.8	-84.8	280	5
2023-08-23T18:00	21315	48	-53.9	-84.9	280	5
2023-08-23T18:00	21343	47	-54.0	-84.9	281	5
2023-08-23T18:00	21367	47	-54.0	-84.9	282	5
2023-08-23T18:00	21392	47	-54.0	-84.9	284	5
2023-08-23T18:00	21416	47	-54.1	-85.0	287	5
2023-08-23T18:00	21448	47	-54.0	-84.9	290	5
2023-08-23T18:00	21470	46	-53.9	-84.9	294	4
2023-08-23T18:00	21495	46	-54.0	-84.9	298	4
2023-08-23T18:00	21517	46	-54.1	-85.0	303	3
2023-08-23T18:00	21546	46	-54.1	-85.0	309	3
2023-08-23T18:00	21571	46	-54.2	-85.1	315	2
2023-08-23T18:00	21597	46	-54.2	-85.1	323	2
2023-08-23T18:00	21622	45	-54.2	-84.5	332	2
2023-08-23T18:00	21643	45	-54.3	-84.6	341	2
2023-08-23T18:00	21673	45	-54.4	-84.7	347	2
2023-08-23T18:00	21696	45	-54.5	-84.8	351	2
2023-08-23T18:00	21723	45	-54.6	-84.8	355	2
2023-08-23T18:00	21744	44	-54.6	-84.8	358	2
2023-08-23T18:00	21771	44	-54.6	-84.8	1	2
2023-08-23T18:00	21792	44	-54.7	-84.9	6	1
2023-08-23T18:00	21819	44	-54.8	-85.0	18	1
2023-08-23T18:00	21848	44	-54.7	-84.9	51	1
2023-08-23T18:00	21865	44	-54.7	-84.9	94	1
2023-08-23T18:00	21892	43	-54.7	-84.9	112	1
2023-08-23T18:00	21918	43	-54.7	-84.9	120	2
2023-08-23T18:00	21947	43	-54.8	-85.0	127	2
2023-08-23T18:00	21968	43	-54.8	-85.0	137	2
2023-08-23T18:00	21993	43	-54.8	-85.0	153	2
2023-08-23T18:00	22015	43	-54.9	-85.1	176	1
2023-08-23T18:00	22041	42	-55.0	-85.1	205	1
2023-08-23T18:00	22066	42	-55.1	-85.2	229	2
2023-08-23T18:00	22093	42	-55.0	-85.1	245	2
2023-08-23T18:00	22120	42	-55.0	-85.1	256	3
2023-08-23T18:00	22145	42	-55.1	-85.2	263	3
2023-08-23T18:00	22164	42	-55.1	-85.2	269	4
2023-08-23T18:00	22193	41	-55.2	-85.3	274	4
2023-08-23T18:00	22214	41	-55.2	-85.3	278	4
2023-08-23T18:00	22243	41	-55.2	-85.3	281	4
2023-08-23T18:00	22263	41	-55.2	-85.3	283	3
2023-08-23T18:00	22291	41	-55.2	-85.8	286	3
2023-08-23T18:00	22315	41	-55.0	-85.7	292	2
2023-08-23T18:00	22341	41	-54.9	-85.6	303	2
2023-08-23T18:00	22365	40	-54.7	-85.5	319	1
2023-08-23T18:00	22388	40	-54.7	-85.5	330	1
2023-08-23T18:00	22413	40	-54.7	-85.5	327	1
2023-08-23T18:00	22439	40	-54.7	-85.5	310	1
2023-08-23T18:00	22472	40	-54.7	-85.5	294	1
2023-08-23T18:00	22487	40	-54.7	-85.5	286	2
2023-08-23T18:00	22510	39	-54.7	-85.5	286	3
2023-08-23T18:00	22547	39	-54.7	-85.5	288	4
2023-08-23T18:00	22566	39	-54.7	-85.5	292	4
2023-08-23T18:00	22601	39	-54.7	-85.5	296	5
2023-08-23T18:00	22620	39	-54.7	-85.5	300	5
2023-08-23T18:00	22642	39	-54.7	-85.5	305	5
2023-08-23T18:00	22667	39	-54.7	-85.5	310	5
2023-08-23T18:00	22693	38	-54.7	-85.5	316	5
2023-08-23T18:00	22722	38	-54.8	-85.5	324	5
2023-08-23T18:00	22747	38	-54.6	-85.4	333	5
2023-08-23T18:00	22770	38	-54.5	-85.3	345	4
2023-08-23T18:00	22800	38	-54.4	-85.2	0	4
2023-08-23T18:00	22825	38	-54.3	-85.2	17	4
2023-08-23T18:00	22850	37	-54.4	-85.2	33	4
2023-08-23T18:00	22879	37	-54.4	-85.2	45	4
2023-08-23T18:00	22909	37	-54.5	-85.3	55	5
2023-08-23T18:00	22932	37	-54.5	-85.3	64	5
2023-08-23T18:00	22963	37	-54.6	-84.8	72	5
2023-08-23T18:00	22982	37	-54.7	-84.9	81	5
2023-08-23T18:00	23006	36	-54.8	-85.0	91	5
2023-08-23T18:00	23039	36	-54.8	-85.0	103	4
2023-08-23T18:00	23066	36	-54.9	-85.1	116	4
2023-08-23T18:00	23088	36	-54.9	-85.1	130	4
2023-08-23T18:00	23115	36	-54.8	-85.0	143	4
2023-08-23T18:00	23142	36	-54.9	-85.1	155	4
2023-08-23T18:00	23168	36	-55.1	-85.2	166	4
2023-08-23T18:00	23195	35	-55.1	-85.2	176	3
2023-08-23T18:00	23216	35	-55.1	-85.2	187	3
2023-08-23T18:00	23249	35	-55.0	-85.7	202	2
2023-08-23T18:00	23275	35	-55.0	-85.7	229	1
2023-08-23T18:00	23298	35	-54.9	-85.6	284	1
2023-08-23T18:00	23329	35	-54.9	-85.6	326	2
2023-08-23T18:00	23354	35	-55.0	-85.7	343	2
2023-08-23T18:00	23384	34	-55.0	-85.7	353	3
2023-08-23T18:00	23411	34	-54.9	-85.6	360	3
2023-08-23T18:00	23431	34	-54.9	-85.6	7	4
2023-08-23T18:00	23463	34	-54.8	-85.5	17	4
2023-08-23T18:00	23491	34	-54.8	-85.5	28	3
2023-08-23T18:00	23516	34	-54.8	-85.5	40	3
2023-08-23T18:00	23539	34	-54.8	-85.5	51	4
2023-08-23T18:00	23569	33	-54.9	-85.6	59	4
2023-08-23T18:00	23591	33	-55.0	-85.1	65	4
2023-08-23T18:00	23623	33	-55.1	-85.2	68	4
2023-08-23T18:00	23642	33	-55.1	-85.2	72	4
2023-08-23T18:00	23675	33	-55.2	-85.3	75	3
2023-08-23T18:00	23698	33	-55.3	-85.4	80	3
2023-08-23T18:00	23724	33	-55.3	-85.4	87	2
2023-08-23T18:00	23755	33	-55.3	-85.4	99	1
2023-08-23T18:00	23775	32	-55.4	-85.4	128	1
2023-08-23T18:00	23807	32	-55.5	-85.5	210	0
2023-08-23T18:00	23831	32	-55.7	-85.7	255	1
2023-08-23T18:00	23862	32	-55.8	-85.7	274	1
2023-08-23T18:00	23888	32	-55.9	-85.8	288	2
2023-08-23T18:00	23915	32	-56.0	-85.9	300	2
2023-08-23T18:00	23943	32	-56.1	-86.0	311	3
2023-08-23T18:00	23964	31	-55.9	-85.8	320	3
2023-08-23T18:00	23991	31	-55.8	-85.7	327	4
2023-08-23T18:00	24020	31	-55.7	-86.2	332	4
2023-08-23T18:00	24042	31	-55.7	-86.2	334	4
2023-08-23T18:00	24074	31	-55.6	-86.1	334	4
2023-08-23T18:00	24090	31	-55.5	-86.1	332	4
2023-08-23T18:00	24125	31	-55.3	-85.9	330	4
2023-08-23T18:00	24148	31	-55.2	-85.8	330	4
2023-08-23T18:00	24175	30	-55.1	-85.8	333	5
2023-08-23T18:00	24205	30	-54.8	-85.5	336	5
2023-08-23T18:00	24224	30	-54.7	-86.1	341	5
2023-08-23T18:00	24263	30	-54.5	-85.9	346	6
2023-08-23T18:00	24277	30	-54.5	-85.9	351	6
2023-08-23T18:00	24311	30	-54.7	-85.5	354	7
2023-08-23T18:00	24335	30	-54.8	-85.5	355	7
2023-08-23T18:00	24364	30	-54.7	-85.5	356	7
2023-08-23T18:00	24387	29	-54.6	-85.4	355	7
2023-08-23T18:00	24416	29	-54.4	-85.2	354	8
2023-08-23T18:00	24444	29	-54.3	-85.2	355	8
2023-08-23T18:00	24470	29	-54.3	-85.2	357	8
2023-08-23T18:00	24506	29	-54.4	-85.2	360	8
2023-08-23T18:00	24525	29	-54.5	-85.3	4	8
2023-08-23T18:00	24557	29	-54.6	-85.4	9	8
2023-08-23T18:00	24577	29	-54.3	-85.2	14	7
2023-08-23T18:00	24612	28	-54.3	-85.2	20	7
2023-08-23T18:00	24631	28	-54.4	-85.8	26	6
2023-08-23T18:00	24662	28	-54.2	-85.7	32	6
2023-08-23T18:00	24693	28	-54.1	-85.6	37	5
2023-08-23T18:00	24719	28	-54.0	-85.5	42	5
2023-08-23T18:00	24740	28	-53.8	-85.4	46	4
2023-08-23T18:00	24770	28	-53.7	-85.3	51	4
2023-08-23T18:00	24803	28	-53.5	-85.2	54	3
2023-08-23T18:00	24828	27	-53.4	-85.1	58	2
2023-08-23T18:00	24858	27	-53.3	-85.0	65	2
2023-08-23T18:00	24881	27	-53.3	-85.0	81	1
2023-08-23T18:00	24913	27	-53.3	-85.0	135	1
2023-08-23T18:00	24944	27	-53.0	-84.8	190	1
2023-08-23T18:00	24967	27	-52.8	-84.7	210	1
2023-08-23T18:00	24997	27	-52.9	-84.7	224	1
2023-08-23T18:00	25026	27	-52.8	-84.7	240	1
2023-08-23T18:00	25046	27	-52.7	-84.6	259	1
2023-08-23T18:00	25078	26	-52.8	-84.7	285	1
2023-08-23T18:00	25120	26	-52.7	-84.6	318	1
2023-08-23T18:00	25137	26	-52.6	-84.5	345	2
2023-08-23T18:00	25172	26	-52.4	-85.1	359	2
2023-08-23T18:00	25200	26	-52.1	-84.8	5	3
2023-08-23T18:00	25230	26	-52.2	-84.9	8	4
2023-08-23T18:00	25254	26	-52.1	-84.8	10	5
2023-08-23T18:00	25281	26	-52.0	-84.8	12	6
2023-08-23T18:00	25314	25	-51.9	-84.7	15	7
2023-08-23T18:00	25343	25	-51.9	-84.7	17	7
2023-08-23T18:00	25382	25	-51.9	-84.7	20	7
2023-08-23T18:00	25397	25	-51.8	-84.6	22	6
2023-08-23T18:00	25425	25	-51.7	-84.5	24	6
2023-08-23T18:00	25452	25	-51.6	-84.5	26	5
2023-08-23T18:00	25479	25	-51.6	-84.5	29	4
2023-08-23T18:00	25514	25	-51.5	-84.4	33	4
2023-08-23T18:00	25531	25	-51.6	-84.5	39	3
2023-08-23T18:00	25561	25	-51.5	-84.4	42	3
2023-08-23T18:00	25589	24	-51.4	-84.3	42	3
2023-08-23T18:00	25613	24	-51.3	-84.3	38	4
2023-08-23T18:00	25651	24	-51.1	-84.1	34	4
2023-08-23T18:00	25666	24	-51.1	-84.1	30	5
2023-08-23T18:00	25702	24	-51.0	-84.0	29	6
2023-08-23T18:00	25725	24	-51.0	-84.0	29	6
2023-08-23T18:00	25751	24	-51.0	-84.0	30	6
2023-08-23T18:00	25774	24	-50.9	-84.0	33	5
2023-08-23T18:00	25800	24	-50.8	-83.9	38	5
2023-08-23T18:00	25827	24	-50.8	-83.9	45	4
2023-08-23T18:00	25851	23	-50.7	-83.8	53	3
2023-08-23T18:00	25877	23	-50.8	-83.9	62	3
2023-08-23T18:00	25907	23	-50.8	-83.9	70	2
2023-08-23T18:00	25937	23	-50.7	-83.8	78	2
2023-08-23T18:00	25959	23	-50.7	-83.8	85	1
2023-08-23T18:00	25986	23	-50.7	-83.8	91	0
2023-08-23T18:00	26013	23	-50.7	-83.8	298	0
2023-08-23T18:00	26038	23	-50.6	-83.7	303	1
2023-08-23T18:00	26063	23	-50.7	-83.8	316	1
2023-08-23T18:00	26097	23	-50.8	-83.9	329	2
2023-08-23T18:00	26122	23	-50.6	-83.7	339	3
2023-08-23T18:00	26147	22	-50.3	-83.5	346	3
2023-08-23T18:00	26173	22	-50.3	-83.5	352	4
2023-08-23T18:00	26205	22	-50.4	-83.6	357	5
2023-08-23T18:00	26235	22	-50.4	-83.6	1	5
2023-08-23T18:00	26256	22	-50.5	-83.7	4	6
2023-08-23T18:00	26280	22	-50.5	-83.7	7	5
2023-08-23T18:00	26310	22	-50.4	-83.6	10	5
2023-08-23T18:00	26338	22	-50.1	-83.4	11	5
2023-08-23T18:00	26364	22	-50.1	-83.4	12	5
2023-08-23T18:00	26388	22	-50.3	-83.5	11	4
2023-08-23T18:00	26422	22	-50.1	-84.2	9	4
2023-08-23T18:00	26446	21	-49.9	-84.0	9	4
2023-08-23T18:00	26470	21	-49.6	-83.8	10	5
2023-08-23T18:00	26503	21	-49.4	-83.7	13	5
2023-08-23T18:00	26529	21	-49.4	-83.7	18	5
2023-08-23T18:00	26561	21	-49.3	-83.6	24	5
2023-08-23T18:00	26587	21	-49.2	-83.5	31	5
2023-08-23T18:00	26627	21	-49.3	-83.6	39	4
2023-08-23T18:00	26648	21	-49.5	-83.7	46	4
2023-08-23T18:00	26673	21	-49.6	-83.8	53	3
2023-08-23T18:00	26710	21	-49.4	-83.7	60	3
2023-08-23T18:00	26735	20	-49.3	-83.6	67	2
2023-08-23T18:00	26770	20	-49.3	-83.6	76	1
2023-08-23T18:00	26783	20	-49.4	-83.7	83	1
2023-08-23T18:00	26826	20	-49.5	-83.7	85	1
2023-08-23T18:00	26853	20	-49.5	-83.7	80	2
2023-08-23T18:00	26879	20	-49.3	-83.6	73	2
2023-08-23T18:00	26910	20	-49.2	-83.5	68	3
2023-08-23T18:00	26949	20	-49.3	-83.6	63	4
2023-08-23T18:00	26979	20	-49.2	-83.5	60	5
2023-08-23T18:00	26998	20	-49.2	-83.5	59	6
2023-08-23T18:00	27030	20	-49.0	-83.4	60	6
2023-08-23T18:00	27057	20	-49.0	-83.4	62	6
2023-08-23T18:00	27084	19	-49.0	-83.4	65	6
2023-08-23T18:00	27120	19	-48.8	-83.2	69	5
2023-08-23T18:00	27151	19	-48.6	-83.1	74	4
2023-08-23T18:00	27184	19	-48.5	-83.0	80	4
2023-08-23T18:00	27197	19	-48.4	-82.9	83	3
2023-08-23T18:00	27233	19	-48.1	-83.6	83	3
2023-08-23T18:00	27266	19	-48.0	-83.6	78	3
2023-08-23T18:00	27295	19	-47.8	-83.4	70	3
2023-08-23T18:00	27322	19	-47.4	-83.1	64	3
2023-08-23T18:00	27357	19	-47.2	-83.0	60	4
2023-08-23T18:00	27381	19	-47.0	-82.9	59	4
2023-08-23T18:00	27413	19	-46.9	-82.8	60	4
2023-08-23T18:00	27438	18	-46.4	-82.4	62	3
2023-08-23T18:00	27462	18	-46.4	-82.4	66	2
2023-08-23T18:00	27495	18	-46.5	-82.5	74	1
2023-08-23T18:00	27518	18	-46.6	-82.6	91	1
2023-08-23T18:00	27544	18	-46.7	-82.6	165	0
2023-08-23T18:00	27571	18	-46.7	-82.6	232	1
2023-08-23T18:00	27603	18	-46.7	-82.6	245	1
2023-08-23T18:00	27629	18	-46.6	-82.6	250	2
2023-08-23T18:00	27656	18	-46.5	-82.5	252	2
2023-08-23T18:00	27681	18	-46.6	-82.6	253	3
2023-08-23T18:00	27708	18	-46.5	-82.5	255	3
2023-08-23T18:00	27741	18	-46.4	-82.4	257	3
2023-08-23T18:00	27769	18	-46.4	-82.4	260	3
2023-08-23T18:00	27811	17	-46.4	-82.4	264	2
2023-08-23T18:00	27828	17	-46.2	-82.3	272	2
2023-08-23T18:00	27861	17	-46.2	-82.3	312	1
2023-08-23T18:00	27887	17	-46.3	-82.4	49	1
2023-08-23T18:00	27904	17	-46.5	-82.5	65	2
2023-08-23T18:00	27943	17	-46.6	-82.6	72	3
2023-08-23T18:00	27965	17	-46.7	-82.6	77	4
2023-08-23T18:00	28002	17	-46.7	-82.6	82	5
2023-08-23T18:00	28022	17	-46.6	-82.6	87	5
2023-08-23T18:00	28058	17	-46.4	-82.4	92	5
2023-08-23T18:00	28088	17	-46.3	-82.4	97	5
2023-08-23T18:00	28116	17	-46.3	-82.4	103	5
2023-08-23T18:00	28143	17	-46.2	-82.3	108	4
2023-08-23T18:00	28177	17	-46.0	-82.1	114	4
2023-08-23T18:00	28205	16	-45.8	-82.0	122	3
2023-08-23T18:00	28239	16	-45.9	-82.1	131	2
2023-08-23T18:00	28266	16	-45.7	-81.9	145	2
2023-08-23T18:00	28296	16	-45.7	-81.9	177	1
2023-08-23T18:00	28311	16	-45.6	-81.9	245	1
2023-08-23T18:00	28345	16	-45.5	-81.8	276	2
2023-08-23T18:00	28388	16	-45.5	-81.8	286	3
2023-08-23T18:00	28408	16	-45.7	-81.9	291	3
2023-08-23T18:00	28437	16	-45.8	-82.0	294	4
2023-08-23T18:00	28453	16	-46.0	-82.1	297	4
2023-08-23T18:00	28498	16	-46.1	-82.2	300	5
2023-08-23T18:00	28523	16	-46.1	-82.2	303	5
2023-08-23T18:00	28559	16	-46.0	-82.1	306	6
2023-08-23T18:00	28578	16	-45.7	-81.9	309	6
2023-08-23T18:00	28618	15	-45.8	-82.0	312	7
2023-08-23T18:00	28638	15	-45.8	-82.0	315	8
2023-08-23T18:00	28676	15	-45.8	-82.0	319	9
2023-08-23T18:00	28700	15	-45.6	-81.9	324	9
2023-08-23T18:00	28731	15	-45.5	-81.8	329	9
2023-08-23T18:00	28753	15	-45.3	-82.7	334	9
2023-08-23T18:00	28779	15	-44.9	-82.5	340	9
2023-08-23T18:00	28808	15	-44.8	-82.4	345	9
2023-08-23T18:00	28841	15	-44.6	-82.2	350	9
2023-08-23T18:00	28877	15	-44.4	-82.1	355	8
2023-08-23T18:00	28894	15	-44.3	-82.0	360	7
2023-08-23T18:00	28943	15	-44.2	-82.0	4	7
2023-08-23T18:00	28969	15	-44.2	-82.0	10	6
2023-08-23T18:00	28976	15	-44.3	-82.0	16	5
2023-08-23T18:00	29019	15	-44.3	-82.0	23	4
2023-08-23T18:00	29049	14	-44.3	-82.0	28	4
2023-08-23T18:00	29069	14	-44.1	-81.9	30	4
2023-08-23T18:00	29097	14	-43.9	-81.8	27	4
2023-08-23T18:00	29129	14	-43.7	-81.6	22	4
2023-08-23T18:00	29163	14	-43.7	-81.6	17	5
2023-08-23T18:00	29197	14	-43.6	-81.5	14	5
2023-08-23T18:00	29207	14	-43.6	-81.5	11	5
2023-08-23T18:00	29248	14	-43.6	-81.5	9	5
2023-08-23T18:00	29269	14	-43.6	-81.5	7	5
2023-08-23T18:00	29302	14	-43.5	-81.5	6	5
2023-08-23T18:00	29328	14	-43.4	-81.4	5	5
2023-08-23T18:00	29343	14	-43.3	-81.3	5	5
2023-08-23T18:00	29373	14	-43.1	-81.2	6	5
2023-08-23T18:00	29421	14	-43.1	-81.2	9	4
2023-08-23T18:00	29431	14	-43.1	-81.2	15	4
2023-08-23T18:00	29467	14	-43.1	-81.2	26	3
2023-08-23T18:00	29501	14	-43.1	-81.2	40	3
2023-08-23T18:00	29522	13	-42.9	-81.1	56	3
2023-08-23T18:00	29546	13	-42.7	-80.9	70	3
2023-08-23T18:00	29583	13	-42.7	-80.9	81	3
2023-08-23T18:00	29599	13	-42.6	-80.8	92	3
2023-08-23T18:00	29631	13	-42.5	-80.8	102	3
2023-08-23T18:00	29662	13	-42.2	-80.6	113	3
2023-08-23T18:00	29682	13	-42.0	-80.4	125	3
2023-08-23T18:00	29718	13	-41.9	-80.4	136	3
2023-08-23T18:00	29761	13	-41.7	-80.2	147	4
2023-08-23T18:00	29763	13	-41.7	-80.2	157	4
2023-08-23T18:00	29789	13	-41.7	-80.2	167	4
2023-08-23T18:00	29824	13	-41.8	-80.3	176	3
2023-08-23T18:00	29872	13	-41.8	-80.3	187	3
2023-08-23T18:00	29894	13	-41.8	-80.3	202	2
2023-08-23T18:00	29918	13	-41.7	-80.2	224	2
2023-08-23T18:00	29947	13	-41.8	-80.3	258	1
2023-08-23T18:00	29992	13	-41.8	-80.3	301	1
2023-08-23T18:00	30007	13	-41.7	-80.2	340	1
2023-08-23T18:00	30034	13	-41.7	-80.2	6	2
2023-08-23T18:00	30073	12	-41.4	-80.0	22	2
2023-08-23T18:00	30108	12	-41.1	-79.8	29	3
2023-08-23T18:00	30140	12	-40.9	-79.7	33	3
2023-08-23T18:00	30160	12	-41.0	-79.7	35	4
2023-08-23T18:00	30199	12	-40.9	-79.7	38	4
2023-08-23T18:00	30225	12	-40.9	-79.7	42	5
2023-08-23T18:00	30252	12	-41.1	-79.8	49	5
2023-08-23T18:00	30288	12	-41.0	-79.7	56	5
2023-08-23T18:00	30317	12	-40.9	-79.7	64	5
2023-08-23T18:00	30352	12	-41.0	-79.7	71	5
2023-08-23T18:00	30374	12	-41.0	-79.7	77	5
2023-08-23T18:00	30408	12	-41.1	-79.8	82	5
2023-08-23T18:00	30439	12	-41.1	-79.8	85	5
2023-08-23T18:00	30472	12	-41.2	-79.9	86	4
2023-08-23T18:00	30503	12	-41.3	-79.9	84	4
2023-08-23T18:00	30531	12	-41.3	-79.9	80	3
2023-08-23T18:00	30558	12	-41.3	-79.9	73	3
2023-08-23T18:00	30588	12	-41.2	-79.9	64	3
2023-08-23T18:00	30609	11	-41.2	-79.9	54	3
2023-08-23T18:00	30646	11	-41.1	-79.8	45	4
2023-08-23T18:00	30678	11	-41.0	-79.7	39	4
2023-08-23T18:00	30687	11	-41.0	-79.7	36	4
2023-08-23T18:00	30719	11	-41.0	-79.7	35	4
2023-08-23T18:00	30766	11	-41.0	-79.7	35	4
2023-08-23T18:00	30786	11	-41.0	-79.7	38	4
2023-08-23T18:00	30815	11	-41.0	-79.7	41	3
2023-08-23T18:00	30840	11	-41.1	-79.8	43	3
2023-08-23T18:00	30882	11	-41.2	-79.9	43	2
2023-08-23T18:00	30908	11	-41.2	-79.9	41	2
2023-08-23T18:00	30935	11	-41.0	-79.7	35	2
2023-08-23T18:00	30956	11	-41.0	-79.7	18	1
2023-08-23T18:00	30989	11	-40.7	-79.5	349	1
2023-08-23T18:00	31023	11	-40.6	-79.5	325	1
2023-08-23T18:00	31041	11	-40.5	-79.4	316	1
2023-08-23T18:00	31076	11	-40.3	-79.2	319	1
2023-08-23T18:00	31088	11	-40.2	-79.2	331	1
2023-08-23T18:00	31127	11	-40.0	-79.0	350	1
2023-08-23T18:00	31172	11	-39.9	-79.0	7	2
2023-08-23T18:00	31191	11	-39.8	-78.9	17	2
2023-08-23T18:00	31224	11	-39.6	-78.8	22	3
2023-08-23T18:00	31269	10	-39.5	-78.7	22	4
2023-08-23T18:00	31317	10	-39.3	-78.5	20	5
2023-08-23T18:00	31338	10	-39.1	-78.4	19	5
2023-08-23T18:00	31360	10	-39.1	-78.4	21	5
2023-08-23T18:00	31389	10	-39.0	-78.3	24	4
2023-08-23T18:00	31436	10	-38.9	-78.3	30	4
2023-08-23T18:00	31438	10	-39.0	-78.3	40	3
2023-08-23T18:00	31475	10	-39.2	-78.5	55	2
2023-08-23T18:00	31497	10	-39.3	-78.5	75	2
2023-08-23T18:00	31550	10	-39.3	-78.5	94	2
2023-08-23T18:00	31574	10	-39.4	-78.6	110	2
2023-08-23T18:00	31611	10	-39.4	-78.6	122	3
2023-08-23T18:00	31627	10	-39.5	-78.7	131	3
2023-08-23T18:00	31658	10	-39.7	-78.8	138	4
2023-08-23T18:00	31687	10	-39.8	-78.9	143	4
2023-08-23T18:00	31704	10	-39.9	-79.0	148	3
2023-08-23T18:00	31731	10	-39.9	-79.0	154	3
2023-08-23T18:00	31766	10	-39.7	-78.8	164	3
2023-08-23T18:00	31800	10	-39.5	-78.7	177	2
2023-08-23T18:00	31818	10	-39.5	-78.7	191	2
2023-08-23T18:00	31854	10	-39.3	-78.5	204	2
2023-08-23T18:00	31885	10	-39.2	-78.5	216	2
2023-08-23T18:00	31907	10	-39.0	-78.3	230	2
2023-08-23T18:00	31944	9	-39.0	-78.3	249	2
2023-08-23T18:00	31983	9	-39.0	-78.3	270	2
2023-08-23T18:00	31991	9	-39.0	-78.3	291	2
2023-08-23T18:00	32014	9	-39.0	-78.3	308	3
2023-08-23T18:00	32051	9	-38.9	-78.3	320	3
2023-08-23T18:00	32069	9	-39.0	-78.3	328	4
2023-08-23T18:00	32102	9	-39.0	-78.3	333	5
2023-08-23T18:00	32133	9	-39.1	-78.4	338	5
2023-08-23T18:00	32147	9	-39.2	-78.5	342	5
2023-08-23T18:00	32187	9	-39.2	-78.5	347	6
2023-08-23T18:00	32212	9	-39.1	-78.4	352	6
2023-08-23T18:00	32249	9	-39.2	-78.5	357	6
2023-08-23T18:00	32264	9	-39.3	-78.5	3	6
2023-08-23T18:00	32293	9	-39.3	-78.5	9	7
2023-08-23T18:00	32322	9	-39.2	-78.5	15	7
2023-08-23T18:00	32339	9	-39.1	-78.4	22	7
2023-08-23T18:00	32379	9	-39.0	-78.3	28	7
2023-08-23T18:00	32391	9	-38.9	-78.3	34	7
2023-08-23T18:00	32419	9	-38.9	-78.3	39	6
2023-08-23T18:00	32474	9	-39.0	-78.3	43	6
2023-08-23T18:00	32485	9	-38.9	-78.3	45	5
2023-08-23T18:00	32513	9	-38.9	-78.3	45	5
2023-08-23T18:00	32531	9	-38.8	-78.2	45	4
2023-08-23T18:00	32575	9	-38.9	-78.3	46	3
2023-08-23T18:00	32588	9	-39.0	-78.3	48	3
2023-08-23T18:00	32620	9	-39.0	-78.3	53	2
2023-08-23T18:00	32672	9	-39.1	-78.4	63	1
2023-08-23T18:00	32687	8	-39.2	-78.5	84	1
2023-08-23T18:00	32706	8	-39.2	-78.5	113	1
2023-08-23T18:00	32753	8	-39.1	-78.4	139	1
2023-08-23T18:00	32768	8	-39.0	-78.3	155	1
2023-08-23T18:00	32807	8	-38.6	-78.1	167	1
2023-08-23T18:00	32837	8	-38.2	-77.8	178	2
2023-08-23T18:00	32891	8	-38.1	-77.7	188	2
2023-08-23T18:00	32905	8	-38.0	-77.6	201	3
2023-08-23T18:00	32957	8	-37.9	-77.6	207	3
2023-08-23T18:00	32993	8	-37.8	-77.5	215	3
2023-08-23T18:00	33004	8	-37.9	-77.6	229	2
2023-08-23T18:00	33045	8	-37.9	-77.6	257	2
2023-08-23T18:00	33085	8	-38.1	-77.7	294	2
2023-08-23T18:00	33095	8	-38.1	-77.7	320	2
2023-08-23T18:00	33139	8	-37.9	-77.6	334	3
2023-08-23T18:00	33161	8	-37.8	-77.5	343	4
2023-08-23T18:00	33215	8	-37.9	-77.6	349	4
2023-08-23T18:00	33231	8	-38.0	-77.6	354	5
2023-08-23T18:00	33238	8	-37.9	-77.6	358	5
2023-08-23T18:00	33284	8	-38.0	-77.6	2	6
2023-08-23T18:00	33304	8	-38.0	-77.6	5	6
2023-08-23T18:00	33358	8	-37.9	-77.6	8	6
2023-08-23T18:00	33372	8	-38.0	-77.6	12	5
2023-08-23T18:00	33427	8	-37.9	-77.6	17	5
2023-08-23T18:00	33451	8	-37.8	-77.5	22	4
2023-08-23T18:00	33476	8	-37.6	-77.4	27	4
2023-08-23T18:00	33493	8	-37.4	-77.2	30	4
2023-08-23T18:00	33505	8	-37.4	-77.2	30	3
2023-08-23T18:00	33526	8	-37.4	-77.2	29	3
2023-08-23T18:00	33564	7	-37.4	-77.2	24	3
2023-08-23T18:00	33603	7	-37.3	-77.2	18	2
2023-08-23T18:00	33612	7	-37.3	-77.2	12	2
2023-08-23T18:00	33659	7	-37.3	-77.2	6	2
2023-08-23T18:00	33696	7	-37.3	-77.2	2	3
2023-08-23T18:00	33746	7	-37.0	-77.0	359	4
2023-08-23T18:00	33780	7	-37.0	-77.0	0	5
2023-08-23T18:00	33797	7	-36.9	-76.9	2	5
2023-08-23T18:00	33798	7	-36.7	-76.7	5	5
2023-08-23T18:00	33849	7	-36.5	-76.6	8	5
2023-08-23T18:00	33889	7	-36.3	-76.5	15	5
2023-08-23T18:00	33905	7	-36.3	-76.5	18	4
2023-08-23T18:00	33934	7	-36.4	-76.5	23	4
2023-08-23T18:00	33963	7	-36.5	-76.6	30	3
2023-08-23T18:00	33966	7	-36.5	-76.6	38	3
2023-08-23T18:00	34020	7	-36.4	-76.5	47	3
2023-08-23T18:00	34029	7	-36.4	-76.5	55	2
2023-08-23T18:00	34063	7	-36.4	-76.5	60	2
2023-08-23T18:00	34092	7	-36.3	-76.5	62	1
2023-08-23T18:00	34104	7	-36.3	-76.5	58	1
2023-08-23T18:00	34121	7	-36.3	-76.5	284	0
2023-08-23T18:00	34140	7	-36.4	-76.5	265	1
2023-08-23T18:00	34143	7	-36.4	-76.5	269	1
2023-08-23T18:00	34181	7	-36.5	-76.6	282	1
2023-08-23T18:00	34241	7	-36.5	-76.6	303	2
2023-08-23T18:00	34254	7	-36.5	-76.6	330	2
2023-08-23T18:00	34269	7	-36.4	-76.5	350	2
2023-08-23T18:00	34290	7	-36.2	-76.4	3	3
2023-08-23T18:00	34343	7	-36.2	-76.4	12	4
2023-08-23T18:00	34354	7	-36.0	-76.3	20	4
2023-08-23T18:00	34382	7	-36.0	-76.3	27	4
2023-08-23T18:00	34384	7	-35.9	-76.2	34	4
2023-08-23T18:00	34426	7	-35.8	-76.1	41	4
2023-08-23T18:00	34475	7	-35.7	-76.1	48	4
2023-08-24T00:00	115	1006	18.9	13.4	303	2
2023-08-24T00:00	141	1003	20.3	13.2	312	2
2023-08-24T00:00	161	1000	21.3	12.2	314	3
2023-08-24T00:00	190	997	21.4	11.8	316	3
2023-08-24T00:00	214	994	21.3	11.5	319	3
2023-08-24T00:00	237	991	21.2	11.4	321	4
2023-08-24T00:00	266	988	21.1	11.1	323	4
2023-08-24T00:00	293	985	20.9	11.2	324	5
2023-08-24T00:00	318	982	20.7	11.0	325	5
2023-08-24T00:00	345	979	20.5	10.9	325	5
2023-08-24T00:00	373	976	20.3	10.9	323	5
2023-08-24T00:00	400	973	20.1	10.5	321	5
2023-08-24T00:00	426	970	20.0	10.1	317	5
2023-08-24T00:00	452	967	19.7	10.0	315	5
2023-08-24T00:00	475	965	19.5	10.3	313	5
2023-08-24T00:00	498	962	19.3	10.2	313	5
2023-08-24T00:00	520	960	19.1	10.2	315	5
2023-08-24T00:00	544	957	18.9	10.2	317	5
2023-08-24T00:00	573	954	18.6	10.0	320	5
2023-08-24T00:00	599	951	18.4	10.1	321	5
2023-08-24T00:00	622	948	18.2	9.9	322	6
2023-08-24T00:00	642	946	18.0	9.7	320	6
2023-08-24T00:00	667	943	17.8	9.5	318	6
2023-08-24T00:00	690	941	17.6	9.8	316	6
2023-08-24T00:00	717	938	17.4	9.9	313	6
2023-08-24T00:00	741	935	17.1	9.8	312	6
2023-08-24T00:00	767	932	16.9	9.6	312	6
2023-08-24T00:00	790	930	16.7	8.9	313	6
2023-08-24T00:00	820	927	16.5	8.7	316	6
2023-08-24T00:00	844	924	16.3	8.3	320	6
2023-08-24T00:00	867	921	16.1	8.4	323	6
2023-08-24T00:00	884	919	16.0	8.6	324	6
2023-08-24T00:00	903	917	15.8	8.5	319	6
2023-08-24T00:00	922	915	15.7	8.2	311	6
2023-08-24T00:00	943	913	15.5	8.0	299	6
2023-08-24T00:00	963	911	15.3	8.0	288	6
2023-08-24T00:00	980	909	15.1	8.0	280	6
2023-08-24T00:00	1000	907	14.9	8.1	275	6
2023-08-24T00:00	1018	905	14.8	8.3	274	5
2023-08-24T00:00	1039	903	14.6	8.3	277	5
2023-08-24T00:00	1057	901	14.4	8.2	283	5
2023-08-24T00:00	1086	898	14.1	8.5	289	5
2023-08-24T00:00	1115	895	13.9	8.1	295	5
2023-08-24T00:00	1141	892	13.7	8.0	299	6
2023-08-24T00:00	1167	889	13.5	7.8	300	6
2023-08-24T00:00	1194	887	13.2	7.7	301	6
2023-08-24T00:00	1215	884	13.1	7.1	300	6
2023-08-24T00:00	1243	881	12.9	6.7	298	6
2023-08-24T00:00	1271	878	12.7	6.5	295	6
2023-08-24T00:00	1296	876	12.5	6.3	291	6
2023-08-24T00:00	1315	874	12.4	6.2	289	6
2023-08-24T00:00	1338	871	12.2	6.0	288	7
2023-08-24T00:00	1366	869	12.0	5.7	289	7
2023-08-24T00:00	1394	866	11.9	5.3	290	7
2023-08-24T00:00	1416	863	11.7	4.8	291	7
2023-08-24T00:00	1443	861	11.6	4.6	292	7
2023-08-24T00:00	1465	858	11.4	4.7	292	7
2023-08-24T00:00	1490	856	11.2	4.6	291	7
2023-08-24T00:00	1520	853	10.9	4.5	289	6
2023-08-24T00:00	1547	850	10.7	4.6	288	6
2023-08-24T00:00	1571	848	10.4	4.4	285	7
2023-08-24T00:00	1595	845	10.2	4.9	282	7
2023-08-24T00:00	1621	842	10.0	5.1	277	7
2023-08-24T00:00	1649	840	9.8	5.2	273	7
2023-08-24T00:00	1675	837	9.8	4.3	269	8
2023-08-24T00:00	1700	835	9.7	4.2	266	8
2023-08-24T00:00	1723	832	9.5	4.0	264	9
2023-08-24T00:00	1743	830	9.5	3.8	264	9
2023-08-24T00:00	1765	828	9.4	3.5	265	10
2023-08-24T00:00	1785	826	9.2	3.2	266	10
2023-08-24T00:00	1805	824	9.0	2.5	269	10
2023-08-24T00:00	1830	822	8.8	2.1	272	10
2023-08-24T00:00	1851	819	8.7	1.7	275	10
2023-08-24T00:00	1872	817	8.5	1.6	279	9
2023-08-24T00:00	1893	815	8.4	1.6	282	9
2023-08-24T00:00	1919	813	8.2	0.8	282	9
2023-08-24T00:00	1943	810	8.0	1.3	281	10
2023-08-24T00:00	1968	808	7.8	1.4	278	10
2023-08-24T00:00	1990	806	7.8	1.1	275	11
2023-08-24T00:00	2015	803	8.0	-0.6	273	12
2023-08-24T00:00	2037	801	8.7	-6.2	273	12
2023-08-24T00:00	2056	799	8.9	-9.5	275	13
2023-08-24T00:00	2077	797	9.2	-14.1	278	13
2023-08-24T00:00	2109	794	9.0	-13.8	280	12
2023-08-24T00:00	2136	792	9.2	-11.0	282	12
2023-08-24T00:00	2159	789	9.0	-8.6	283	12
2023-08-24T00:00	2194	786	8.8	-8.7	283	12
2023-08-24T00:00	2220	784	8.6	-8.3	283	13
2023-08-24T00:00	2248	781	8.5	-7.3	283	13
2023-08-24T00:00	2268	779	8.4	-8.7	283	14
2023-08-24T00:00	2294	777	8.5	-3.2	283	15
2023-08-24T00:00	2323	774	8.6	-5.1	282	15
2023-08-24T00:00	2354	771	8.7	-5.8	282	15
2023-08-24T00:00	2387	768	8.4	-0.6	282	15
2023-08-24T00:00	2409	766	8.1	1.0	281	15
2023-08-24T00:00	2436	763	7.8	2.8	280	15
2023-08-24T00:00	2466	761	7.6	2.0	279	15
2023-08-24T00:00	2485	759	7.4	4.7	278	15
2023-08-24T00:00	2514	756	7.5	4.0	277	14
2023-08-24T00:00	2541	754	7.4	3.9	277	14
2023-08-24T00:00	2563	752	7.3	3.6	278	13
2023-08-24T00:00	2585	750	7.2	3.4	279	12
2023-08-24T00:00	2606	748	7.1	3.4	279	12
2023-08-24T00:00	2625	746	7.0	3.2	279	12
2023-08-24T00:00	2641	745	6.9	3.1	278	12
2023-08-24T00:00	2655	743	6.9	3.2	277	13
2023-08-24T00:00	2677	741	6.7	3.0	277	13
2023-08-24T00:00	2701	739	6.5	2.8	277	14
2023-08-24T00:00	2725	737	6.4	2.7	277	14
2023-08-24T00:00	2749	735	6.2	2.6	278	14
2023-08-24T00:00	2774	733	6.0	2.4	279	14
2023-08-24T00:00	2794	731	5.8	2.4	280	14
2023-08-24T00:00	2821	729	5.7	1.9	282	13
2023-08-24T00:00	2843	727	5.5	1.5	283	13
2023-08-24T00:00	2864	725	5.4	1.5	284	13
2023-08-24T00:00	2888	723	5.2	1.4	284	13
2023-08-24T00:00	2906	721	5.1	1.5	284	13
2023-08-24T00:00	2925	719	4.9	1.4	285	13
2023-08-24T00:00	2952	717	4.7	1.5	286	14
2023-08-24T00:00	2975	715	4.5	1.0	286	15
2023-08-24T00:00	2996	713	4.4	0.7	287	15
2023-08-24T00:00	3023	711	4.3	0.1	287	15
2023-08-24T00:00	3048	709	4.2	0.1	287	15
2023-08-24T00:00	3069	707	4.0	0.3	287	15
2023-08-24T00:00	3100	704	3.8	0.0	287	15
2023-08-24T00:00	3131	702	3.6	0.0	286	14
2023-08-24T00:00	3155	699	3.4	-0.1	286	14
2023-08-24T00:00	3177	697	3.3	-0.2	287	14
2023-08-24T00:00	3203	695	3.3	-1.0	288	14
2023-08-24T00:00	3230	693	3.3	-1.0	289	14
2023-08-24T00:00	3249	691	3.3	-1.2	291	14
2023-08-24T00:00	3270	689	3.2		291	14
2023-08-24T00:00	3291	688	3.1	-2.5	292	14
2023-08-24T00:00	3312	686	3.0	-2.0	291	14
2023-08-24T00:00	3339	684	2.9	-2.0	291	14
2023-08-24T00:00	3365	682	3.0	-2.8	291	14
2023-08-24T00:00	3387	680	2.9	-3.2	292	14
2023-08-24T00:00	3411	678	2.9	-4.5	292	13
2023-08-24T00:00	3432	676	2.8	-4.4	293	13
2023-08-24T00:00	3453	674	2.7	-4.1	292	13
2023-08-24T00:00	3490	671	2.4	-4.7	291	12
2023-08-24T00:00	3520	669	2.2	-6.2	290	12
2023-08-24T00:00	3547	666	2.0	-5.1	290	13
2023-08-24T00:00	3569	665	1.9	-6.0	291	13
2023-08-24T00:00	3586	663	1.8	-4.5	293	13
2023-08-24T00:00	3607	661	1.7	-4.0	294	14
2023-08-24T00:00	3628	659	1.7	-5.6	296	14
2023-08-24T00:00	3660	657	1.4	-3.6	296	14
2023-08-24T00:00	3690	655	1.2	-3.5	296	14
2023-08-24T00:00	3719	652	0.9	-3.6	297	15
2023-08-24T00:00	3743	650	0.7	-3.6	296	15
2023-08-24T00:00	3768	648	0.4	-3.7	296	14
2023-08-24T00:00	3793	646	0.3	-3.7	294	14
2023-08-24T00:00	3823	644	0.0	-3.9	292	14
2023-08-24T00:00	3845	642	-0.2	-4.0	291	14
2023-08-24T00:00	3874	640	-0.4	-4.0	291	14
2023-08-24T00:00	3894	638	-0.6	-4.1	291	14
2023-08-24T00:00	3919	636	-0.8	-4.2	292	15
2023-08-24T00:00	3938	635	-1.0	-4.4	294	15
2023-08-24T00:00	3966	632	-1.2	-4.6	296	15
2023-08-24T00:00	3994	630	-1.4	-4.7	297	15
2023-08-24T00:00	4022	628	-1.6	-4.6	297	15
2023-08-24T00:00	4050	626	-1.9	-4.8	297	15
2023-08-24T00:00	4074	624	-2.1	-4.9	296	14
2023-08-24T00:00	4102	622	-2.3	-5.1	294	14
2023-08-24T00:00	4129	620	-2.4	-5.1	293	14
2023-08-24T00:00	4150	618	-2.6	-5.3	292	14
2023-08-24T00:00	4175	616	-2.8	-5.3	291	15
2023-08-24T00:00	4194	615	-3.0	-5.5	292	15
2023-08-24T00:00	4212	613	-3.1	-5.4	292	15
2023-08-24T00:00	4234	611	-3.3	-5.5	293	15
2023-08-24T00:00	4266	609	-3.6	-5.8	294	15
2023-08-24T00:00	4293	607	-3.8	-6.1	294	16
2023-08-24T00:00	4319	605	-4.0	-6.0	294	16
2023-08-24T00:00	4338	603	-4.1	-5.8	293	17
2023-08-24T00:00	4364	601	-4.3	-6.2	293	17
2023-08-24T00:00	4390	600	-4.5	-6.5	293	18
2023-08-24T00:00	4406	598	-4.6	-6.5	292	18
2023-08-24T00:00	4432	596	-4.9	-6.4	291	19
2023-08-24T00:00	4458	594	-5.1	-6.6	291	18
2023-08-24T00:00	4488	592	-5.1	-8.0	290	18
2023-08-24T00:00	4512	590	-5.1	-9.1	290	18
2023-08-24T00:00	4534	589	-5.3		291	18
2023-08-24T00:00	4555	587	-5.4	-8.2	292	18
2023-08-24T00:00	4586	585	-5.6	-8.3	294	18
2023-08-24T00:00	4614	583	-5.8	-8.5	295	17
2023-08-24T00:00	4642	581	-6.0	-8.6	296	17
2023-08-24T00:00	4672	578	-6.3	-8.7	297	17
2023-08-24T00:00	4698	576	-6.5	-8.7	297	17
2023-08-24T00:00	4724	575	-6.7	-8.9	296	16
2023-08-24T00:00	4742	573	-6.8	-9.0	294	16
2023-08-24T00:00	4765	571	-7.0	-9.3	292	16
2023-08-24T00:00	4793	569	-6.9	-10.2	290	16
2023-08-24T00:00	4821	568	-6.9	-11.1	288	16
2023-08-24T00:00	4839	566	-6.9	-11.6	288	16
2023-08-24T00:00	4865	564	-6.8	-12.6	288	16
2023-08-24T00:00	4893	562	-6.8	-12.5	289	16
2023-08-24T00:00	4916	561	-6.7	-13.0	290	16
2023-08-24T00:00	4936	559	-6.6	-13.1	291	17
2023-08-24T00:00	4966	557	-6.7	-13.5	292	17
2023-08-24T00:00	4997	555	-6.9	-14.0	292	18
2023-08-24T00:00	5028	553	-7.1	-14.1	293	18
2023-08-24T00:00	5052	551	-7.3	-14.1	294	18
2023-08-24T00:00	5083	549	-7.5	-14.1	295	18
2023-08-24T00:00	5102	547	-7.6	-14.3	296	17
2023-08-24T00:00	5121	546	-7.7	-14.6	297	17
2023-08-24T00:00	5144	544	-7.7	-14.6	298	17
2023-08-24T00:00	5173	542	-7.8	-15.2	299	16
2023-08-24T00:00	5202	540	-7.9	-15.5	299	16
2023-08-24T00:00	5227	539	-8.2	-15.8	298	16
2023-08-24T00:00	5249	537	-8.4	-16.0	297	16
2023-08-24T00:00	5268	536	-8.5	-16.5	296	17
2023-08-24T00:00	5299	534	-8.6	-18.7	295	18
2023-08-24T00:00	5324	532	-8.5	-21.0	294	19
2023-08-24T00:00	5341	531	-8.5	-22.9	294	19
2023-08-24T00:00	5365	529	-8.6	-24.3	294	19
2023-08-24T00:00	5394	527	-8.8	-27.6	294	19
2023-08-24T00:00	5415	526	-8.9	-28.8	294	18
2023-08-24T00:00	5444	524	-9.0	-28.0	295	18
2023-08-24T00:00	5467	522	-9.1	-30.0	296	18
2023-08-24T00:00	5494	520	-9.3	-30.5	296	18
2023-08-24T00:00	5523	519	-9.5	-29.5	296	19
2023-08-24T00:00	5540	517	-9.7	-27.5	295	19
2023-08-24T00:00	5565	515	-10.0	-27.0	294	19
2023-08-24T00:00	5597	514	-10.2	-25.8	293	20
2023-08-24T00:00	5627	512	-10.5	-25.9	292	20
2023-08-24T00:00	5654	510	-10.6	-27.0	292	20
2023-08-24T00:00	5686	508	-10.6	-28.7	292	21
2023-08-24T00:00	5710	506	-10.5	-30.7	292	21
2023-08-24T00:00	5725	505	-10.4	-32.4	293	20
2023-08-24T00:00	5745	504	-10.5	-33.7	294	20
2023-08-24T00:00	5764	502	-10.5	-34.8	296	19
2023-08-24T00:00	5794	500	-10.6		297	19
2023-08-24T00:00	5823	499	-10.8	-37.5	298	19
2023-08-24T00:00	5843	497	-10.9	-38.3	298	19
2023-08-24T00:00	5862	496	-11.0	-37.4	298	19
2023-08-24T00:00	5883	495	-11.2	-37.4	297	20
2023-08-24T00:00	5913	493	-11.4	-38.8	297	20
2023-08-24T00:00	5941	491	-11.6	-37.8	297	21
2023-08-24T00:00	5959	490	-11.7	-36.9	297	21
2023-08-24T00:00	5983	488	-11.9	-37.2	297	21
2023-08-24T00:00	6011	486	-12.0	-39.3	298	21
2023-08-24T00:00	6045	484	-12.2	-39.9	299	21
2023-08-24T00:00	6067	483	-12.4	-40.0	299	21
2023-08-24T00:00	6082	482	-12.5	-40.0	299	21
2023-08-24T00:00	6102	481	-12.6	-39.9	299	21
2023-08-24T00:00	6119	480	-12.7	-39.9	298	21
2023-08-24T00:00	6136	479	-12.7	-40.1	296	21
2023-08-24T00:00	6153	478	-12.7	-40.4	295	21
2023-08-24T00:00	6171	476	-12.8	-39.8	294	21
2023-08-24T00:00	6189	475	-12.9	-38.0	294	22
2023-08-24T00:00	6207	474	-13.0	-38.0	293	22
2023-08-24T00:00	6230	473	-13.2	-37.1	292	22
2023-08-24T00:00	6257	471	-13.4	-37.3	291	22
2023-08-24T00:00	6286	469	-13.6	-38.1	290	22
2023-08-24T00:00	6309	468	-13.8	-39.3	290	23
2023-08-24T00:00	6341	466	-14.0	-41.3	290	23
2023-08-24T00:00	6367	464	-14.1	-40.2	291	24
2023-08-24T00:00	6398	463	-14.4	-39.3	292	24
2023-08-24T00:00	6419	461	-14.5	-39.4	293	24
2023-08-24T00:00	6438	460	-14.7	-40.8	293	24
2023-08-24T00:00	6460	459	-14.8	-41.4	292	24
2023-08-24T00:00	6489	457	-15.0	-35.2	292	24
2023-08-24T00:00	6513	455	-15.2	-33.6	292	24
2023-08-24T00:00	6541	454	-15.4	-34.9	293	24
2023-08-24T00:00	6570	452	-15.7	-35.9	294	24
2023-08-24T00:00	6597	450	-15.9	-36.7	295	24
2023-08-24T00:00	6621	449	-16.1	-37.1	295	25
2023-08-24T00:00	6644	448	-16.3	-39.2	295	25
2023-08-24T00:00	6676	446	-16.4	-41.2	295	25
2023-08-24T00:00	6713	443	-16.6	-41.1	294	25
2023-08-24T00:00	6746	442	-16.8	-41.1	294	25
2023-08-24T00:00	6763	441	-16.9	-41.0	293	25
2023-08-24T00:00	6781	439	-17.1	-41.0	293	25
2023-08-24T00:00	6803	438	-17.2	-40.8	292	25
2023-08-24T00:00	6829	437	-17.4	-40.8	292	25
2023-08-24T00:00	6862	435	-17.7	-41.0	292	25
2023-08-24T00:00	6889	433	-17.9	-41.0	291	25
2023-08-24T00:00	6922	431	-18.2	-41.2	291	26
2023-08-24T00:00	6948	430	-18.4	-41.2	290	26
2023-08-24T00:00	6972	428	-18.6	-41.6	289	26
2023-08-24T00:00	7002	427	-18.9	-41.8	288	26
2023-08-24T00:00	7028	425	-19.1	-41.5	288	26
2023-08-24T00:00	7059	423	-19.3	-41.3	288	25
2023-08-24T00:00	7086	422	-19.6	-41.3	288	25
2023-08-24T00:00	7114	420	-19.8	-40.8	289	25
2023-08-24T00:00	7150	418	-20.2	-40.0	290	25
2023-08-24T00:00	7184	416	-20.4	-37.6	290	25
2023-08-24T00:00	7206	415	-20.7	-37.9	290	25
2023-08-24T00:00	7229	414	-20.9	-37.6	290	25
2023-08-24T00:00	7249	413	-21.0	-39.0	289	26
2023-08-24T00:00	7276	411	-21.3	-40.7	289	26
2023-08-24T00:00	7307	409	-21.5	-36.0	289	26
2023-08-24T00:00	7345	407	-21.8	-34.9	289	25
2023-08-24T00:00	7382	405	-21.8	-35.7	289	25
2023-08-24T00:00	7405	404	-22.0	-35.6	288	25
2023-08-24T00:00	7425	403	-22.2	-36.1	287	25
2023-08-24T00:00	7445	402	-22.4	-35.8	287	25
2023-08-24T00:00	7464	401	-22.5	-36.3	286	25
2023-08-24T00:00	7483	400	-22.6	-36.3	286	25
2023-08-24T00:00	7501	399	-22.8	-36.3	286	25
2023-08-24T00:00	7520	398	-22.9	-36.5	286	25
2023-08-24T00:00	7539	397	-23.0	-36.4	286	25
2023-08-24T00:00	7558	396	-23.2	-36.5	286	25
2023-08-24T00:00	7578	395	-23.3	-36.7	286	25
2023-08-24T00:00	7597	394	-23.5	-37.1	285	25
2023-08-24T00:00	7616	393	-23.7	-37.2	285	25
2023-08-24T00:00	7637	391	-23.8	-37.2	285	25
2023-08-24T00:00	7657	390	-24.0	-37.5	285	25
2023-08-24T00:00	7677	389	-24.2	-37.7	285	25
2023-08-24T00:00	7698	388	-24.4	-37.8	285	25
2023-08-24T00:00	7722	387	-24.6	-38.1	284	25
2023-08-24T00:00	7752	385	-24.8	-38.8	285	25
2023-08-24T00:00	7785	384	-25.0	-40.4	285	25
2023-08-24T00:00	7806	382	-25.1	-41.6	285	25
2023-08-24T00:00	7834	381	-25.3	-41.2	285	25
2023-08-24T00:00	7867	379	-25.5	-41.4	285	25
2023-08-24T00:00	7901	378	-25.8	-42.0	284	25
2023-08-24T00:00	7924	376	-26.0	-42.3	284	25
2023-08-24T00:00	7947	375	-26.2	-42.0	284	25
2023-08-24T00:00	7970	374	-26.4	-42.0	284	25
2023-08-24T00:00	7998	372	-26.6	-41.8	284	25
2023-08-24T00:00	8033	371	-26.9	-40.5	284	25
2023-08-24T00:00	8074	369	-27.3	-40.7	283	24
2023-08-24T00:00	8112	367	-27.6	-39.2	283	24
2023-08-24T00:00	8127	366	-27.7	-38.9	282	24
2023-08-24T00:00	8146	365	-27.9	-39.1	282	24
2023-08-24T00:00	8163	364	-28.0	-40.1	283	24
2023-08-24T00:00	8180	363	-28.2	-40.4	283	25
2023-08-24T00:00	8198	362	-28.3	-39.7	284	25
2023-08-24T00:00	8215	361	-28.5	-36.5	285	25
2023-08-24T00:00	8232	360	-28.6	-35.7	285	25
2023-08-24T00:00	8252	360	-28.8	-35.6	285	25
2023-08-24T00:00	8271	359	-28.9	-35.7	286	25
2023-08-24T00:00	8289	358	-29.1	-35.8	286	25
2023-08-24T00:00	8308	357	-29.2	-35.9	286	25
2023-08-24T00:00	8327	356	-29.4	-36.2	286	25
2023-08-24T00:00	8345	355	-29.5	-36.2	286	25
2023-08-24T00:00	8362	354	-29.6	-36.5	286	25
2023-08-24T00:00	8380	353	-29.7	-36.6	286	25
2023-08-24T00:00	8400	352	-29.9	-36.7	286	25
2023-08-24T00:00	8416	351	-30.0	-36.8	286	25
2023-08-24T00:00	8435	350	-30.1	-36.9	286	25
2023-08-24T00:00	8453	350	-30.2	-36.9	286	25
2023-08-24T00:00	8471	349	-30.3	-36.9	286	25
2023-08-24T00:00	8488	348	-30.5	-37.2	286	25
2023-08-24T00:00	8507	347	-30.6	-37.4	286	24
2023-08-24T00:00	8526	346	-30.7	-37.6	286	24
2023-08-24T00:00	8544	345	-30.9	-37.7	286	24
2023-08-24T00:00	8564	344	-31.0	-37.7	286	24
2023-08-24T00:00	8581	343	-31.2	-38.1	286	24
2023-08-24T00:00	8599	342	-31.3	-38.4	287	24
2023-08-24T00:00	8619	341	-31.5	-38.4	287	24
2023-08-24T00:00	8639	341	-31.6	-38.4	287	24
2023-08-24T00:00	8656	340	-31.8	-38.4	288	24
2023-08-24T00:00	8676	339	-31.9	-38.3	288	23
2023-08-24T00:00	8694	338	-32.1	-38.8	289	23
2023-08-24T00:00	8715	337	-32.2	-39.3	289	23
2023-08-24T00:00	8733	336	-32.3	-39.4	290	23
2023-08-24T00:00	8753	335	-32.5	-39.5	290	23
2023-08-24T00:00	8770	334	-32.6	-39.4	291	23
2023-08-24T00:00	8790	333	-32.8	-39.4	292	23
2023-08-24T00:00	8811	332	-32.9	-39.6	292	23
2023-08-24T00:00	8830	331	-33.1	-39.7	292	23
2023-08-24T00:00	8849	331	-33.2	-39.6	292	24
2023-08-24T00:00	8868	330	-33.4	-39.6	292	24
2023-08-24T00:00	8888	329	-33.5	-39.5	292	24
2023-08-24T00:00	8908	328	-33.7		292	24
2023-08-24T00:00	8926	327	-33.9	-39.8	291	24
2023-08-24T00:00	8946	326	-34.0	-40.1	291	24
2023-08-24T00:00	8965	325	-34.1	-40.2	291	24
2023-08-24T00:00	8987	324	-34.3	-40.3	291	24
2023-08-24T00:00	9009	323	-34.4	-40.5	291	24
2023-08-24T00:00	9033	322	-34.5	-41.0	291	24
2023-08-24T00:00	9058	321	-34.7	-41.5	291	24
2023-08-24T00:00	9083	320	-34.8	-41.6	291	24
2023-08-24T00:00	9113	318	-35.0	-42.1	291	24
2023-08-24T00:00	9138	317	-35.1	-43.5	291	25
2023-08-24T00:00	9166	316	-35.2	-44.0	291	25
2023-08-24T00:00	9197	314	-35.3	-44.1	291	26
2023-08-24T00:00	9230	313	-35.5	-44.2	291	26
2023-08-24T00:00	9270	311	-35.7	-44.8	291	26
2023-08-24T00:00	9290	310	-35.8	-45.0	291	26
2023-08-24T00:00	9308	309	-36.0	-45.0	290	26
2023-08-24T00:00	9328	309	-36.1	-45.2	290	27
2023-08-24T00:00	9348	308	-36.3	-45.4	290	27
2023-08-24T00:00	9367	307	-36.5	-45.5	290	27
2023-08-24T00:00	9387	306	-36.6	-45.6	290	27
2023-08-24T00:00	9406	305	-36.8	-45.9	290	27
2023-08-24T00:00	9425	304	-36.9	-45.7	290	27
2023-08-24T00:00	9443	303	-37.1	-45.8	289	27
2023-08-24T00:00	9463	303	-37.3	-45.8	289	27
2023-08-24T00:00	9484	302	-37.5	-46.1	289	27
2023-08-24T00:00	9503	301	-37.7	-46.2	289	26
2023-08-24T00:00	9523	300	-37.9	-46.1	288	26
2023-08-24T00:00	9542	299	-38.0	-46.1	288	27
2023-08-24T00:00	9562	298	-38.2	-46.1	288	27
2023-08-24T00:00	9580	298	-38.4	-46.0	288	27
2023-08-24T00:00	9599	297	-38.6	-46.1	287	27
2023-08-24T00:00	9620	296	-38.7	-46.2	287	27
2023-08-24T00:00	9637	295	-38.9	-46.7	287	27
2023-08-24T00:00	9658	294	-39.0	-47.2	286	27
2023-08-24T00:00	9677	293	-39.2	-47.4	286	27
2023-08-24T00:00	9698	292	-39.4	-47.5	285	27
2023-08-24T00:00	9716	292	-39.5	-47.5	285	27
2023-08-24T00:00	9737	291	-39.7	-47.4	285	27
2023-08-24T00:00	9755	290	-39.9	-47.3	286	27
2023-08-24T00:00	9773	289	-40.0	-47.2	285	27
2023-08-24T00:00	9790	288	-40.2	-47.8	285	27
2023-08-24T00:00	9811	288	-40.3	-47.9	285	27
2023-08-24T00:00	9831	287	-40.5	-48.2	284	27
2023-08-24T00:00	9851	286	-40.6	-48.3	284	27
2023-08-24T00:00	9872	285	-40.8	-48.3	284	27
2023-08-24T00:00	9892	284	-41.0	-48.3	284	28
2023-08-24T00:00	9910	283	-41.1	-48.3	284	28
2023-08-24T00:00	9930	283	-41.3	-48.2	284	28
2023-08-24T00:00	9948	282	-41.5	-48.3	284	28
2023-08-24T00:00	9968	281	-41.7	-48.5	285	28
2023-08-24T00:00	9988	280	-41.8	-49.1	285	28
2023-08-24T00:00	10008	279	-41.8	-49.8	285	28
2023-08-24T00:00	10027	279	-42.0	-49.7	285	28
2023-08-24T00:00	10048	278	-42.2	-49.7	285	28
2023-08-24T00:00	10066	277	-42.3	-49.9	284	28
2023-08-24T00:00	10086	276	-42.5	-50.1	284	28
2023-08-24T00:00	10105	275	-42.6	-50.2	284	28
2023-08-24T00:00	10123	275	-42.8	-50.3	285	28
2023-08-24T00:00	10143	274	-43.0	-50.3	285	28
2023-08-24T00:00	10163	273	-43.2	-50.4	285	28
2023-08-24T00:00	10185	272	-43.4	-50.7	286	28
2023-08-24T00:00	10201	272	-43.5	-51.2	286	28
2023-08-24T00:00	10224	271	-43.6	-51.5	287	28
2023-08-24T00:00	10241	270	-43.8	-51.4	287	28
2023-08-24T00:00	10261	269	-44.0	-51.5	288	28
2023-08-24T00:00	10282	268	-44.1	-51.4	288	28
2023-08-24T00:00	10301	268	-44.3	-51.3	288	28
2023-08-24T00:00	10319	267	-44.4	-51.5	289	28
2023-08-24T00:00	10339	266	-44.6	-51.5	289	28
2023-08-24T00:00	10360	265	-44.8	-51.4	289	28
2023-08-24T00:00	10381	264	-45.0	-51.4	289	28
2023-08-24T00:00	10400	264	-45.2	-51.5	289	28
2023-08-24T00:00	10419	263	-45.4	-51.5	288	28
2023-08-24T00:00	10441	262	-45.5	-51.5	288	28
2023-08-24T00:00	10461	261	-45.7	-51.7	288	28
2023-08-24T00:00	10482	260	-45.9	-51.9	288	28
2023-08-24T00:00	10501	260	-46.1	-52.1	288	28
2023-08-24T00:00	10522	259	-46.3	-52.1	288	28
2023-08-24T00:00	10543	258	-46.4	-52.1	288	28
2023-08-24T00:00	10562	257	-46.6	-52.2	288	28
2023-08-24T00:00	10582	256	-46.8	-52.3	287	28
2023-08-24T00:00	10603	256	-47.0	-52.4	287	28
2023-08-24T00:00	10623	255	-47.2	-52.7	286	28
2023-08-24T00:00	10644	254	-47.3	-52.7	286	28
2023-08-24T00:00	10662	253	-47.5	-52.8	286	28
2023-08-24T00:00	10681	253	-47.7	-53.0	285	28
2023-08-24T00:00	10701	252	-47.8	-53.3	286	28
2023-08-24T00:00	10722	251	-48.0	-53.7	286	28
2023-08-24T00:00	10744	250	-48.1	-54.2	286	28
2023-08-24T00:00	10764	250	-48.2	-54.9	286	28
2023-08-24T00:00	10783	249	-48.3	-55.3	286	28
2023-08-24T00:00	10804	248	-48.5	-55.3	287	28
2023-08-24T00:00	10824	247	-48.7	-55.3	287	28
2023-08-24T00:00	10845	246	-48.9	-55.5	287	28
2023-08-24T00:00	10866	246	-49.1	-55.7	287	28
2023-08-24T00:00	10886	245	-49.2	-55.8	287	28
2023-08-24T00:00	10906	244	-49.4	-56.0	286	28
2023-08-24T00:00	10930	243	-49.6	-56.1	286	28
2023-08-24T00:00	10953	242	-49.8	-56.1	286	28
2023-08-24T00:00	10972	242	-49.9	-56.0	286	28
2023-08-24T00:00	10993	241	-50.1	-55.9	286	29
2023-08-24T00:00	11014	240	-50.3	-55.7	286	29
2023-08-24T00:00	11035	239	-50.5	-55.6	286	29
2023-08-24T00:00	11057	239	-50.7	-55.5	286	29
2023-08-24T00:00	11078	238	-50.9	-55.4	286	29
2023-08-24T00:00	11097	237	-51.1	-55.4	286	29
2023-08-24T00:00	11117	236	-51.2	-55.4	287	29
2023-08-24T00:00	11137	236	-51.4	-55.7	287	29
2023-08-24T00:00	11159	235	-51.6	-56.0	287	30
2023-08-24T00:00	11180	234	-51.8	-56.5	287	30
2023-08-24T00:00	11197	233	-51.9	-57.0	287	30
2023-08-24T00:00	11220	233	-51.9	-57.2	287	30
2023-08-24T00:00	11241	232	-52.1	-57.3	287	30
2023-08-24T00:00	11260	231	-52.3	-57.3	287	30
2023-08-24T00:00	11281	231	-52.5		287	30
2023-08-24T00:00	11301	230	-52.7	-57.5	287	30
2023-08-24T00:00	11321	229	-52.8	-57.5	287	30
2023-08-24T00:00	11344	228	-53.0	-57.5	287	30
2023-08-24T00:00	11366	228	-53.2	-57.5	287	30
2023-08-24T00:00	11386	227	-53.4	-57.4	286	30
2023-08-24T00:00	11407	226	-53.6	-57.5	287	30
2023-08-24T00:00	11430	225	-53.8	-57.7	287	30
2023-08-24T00:00	11451	225	-53.9	-57.8	287	31
2023-08-24T00:00	11468	224	-54.1	-58.2	288	31
2023-08-24T00:00	11489	223	-54.2	-58.6	288	31
2023-08-24T00:00	11511	222	-54.3	-58.9	288	31
2023-08-24T00:00	11531	222	-54.5	-59.0	288	31
2023-08-24T00:00	11552	221	-54.7	-59.0	289	31
2023-08-24T00:00	11573	220	-54.9	-59.0	289	31
2023-08-24T00:00	11593	220	-55.1	-59.3	289	31
2023-08-24T00:00	11614	219	-55.2	-59.5	289	31
2023-08-24T00:00	11631	218	-55.4	-59.8	290	31
2023-08-24T00:00	11654	217	-55.5	-59.7	290	31
2023-08-24T00:00	11676	217	-55.7	-59.8	290	31
2023-08-24T00:00	11697	216	-55.9	-59.8	290	31
2023-08-24T00:00	11717	215	-56.0	-59.8	290	31
2023-08-24T00:00	11736	215	-56.1	-59.7	290	31
2023-08-24T00:00	11758	214	-56.3	-59.9	290	31
2023-08-24T00:00	11780	213	-56.5	-60.0	290	30
2023-08-24T00:00	11800	213	-56.7	-60.1	290	30
2023-08-24T00:00	11822	212	-56.9	-60.1	290	31
2023-08-24T00:00	11843	211	-57.1	-60.2	290	31
2023-08-24T00:00	11866	210	-57.3	-60.3	290	31
2023-08-24T00:00	11887	210	-57.4	-60.4	290	31
2023-08-24T00:00	11907	209	-57.6	-60.7	290	31
2023-08-24T00:00	11927	208	-57.7	-60.9	290	31
2023-08-24T00:00	11948	208	-57.7	-61.1	290	31
2023-08-24T00:00	11968	207	-57.7	-61.4	290	31
2023-08-24T00:00	11989	206	-57.7	-61.5	291	31
2023-08-24T00:00	12008	206	-57.9	-61.8	291	31
2023-08-24T00:00	12028	205	-58.0	-61.8	291	31
2023-08-24T00:00	12049	204	-58.1	-61.7	292	31
2023-08-24T00:00	12070	204	-58.3	-61.8	292	31
2023-08-24T00:00	12092	203	-58.4	-62.0	293	31
2023-08-24T00:00	12111	202	-58.5	-62.3	293	31
2023-08-24T00:00	12134	202	-58.7	-62.9	293	31
2023-08-24T00:00	12153	201	-58.8	-63.6	293	31
2023-08-24T00:00	12173	200	-58.8	-64.5	293	31
2023-08-24T00:00	12193	200	-58.8	-65.4	292	31
2023-08-24T00:00	12213	199	-58.9	-66.3	292	32
2023-08-24T00:00	12233	198	-58.9	-66.9	292	32
2023-08-24T00:00	12256	198	-58.6	-66.9	292	33
2023-08-24T00:00	12272	197	-58.5	-66.4	292	33
2023-08-24T00:00	12292	197	-58.6	-65.5	292	34
2023-08-24T00:00	12314	196	-58.7	-64.6	293	34
2023-08-24T00:00	12336	195	-58.8	-64.2	293	34
2023-08-24T00:00	12356	195	-58.9	-64.2	293	34
2023-08-24T00:00	12376	194	-59.0	-64.6	294	34
2023-08-24T00:00	12396	193	-59.2	-65.2	293	34
2023-08-24T00:00	12417	193	-59.2	-65.9	293	33
2023-08-24T00:00	12441	192	-59.2	-66.7	292	33
2023-08-24T00:00	12463	191	-59.2	-67.5	290	32
2023-08-24T00:00	12483	191	-59.1	-68.1	289	32
2023-08-24T00:00	12503	190	-59.2	-68.7	288	32
2023-08-24T00:00	12523	189	-59.2	-69.2	287	32
2023-08-24T00:00	12543	189	-59.3	-69.8	287	32
2023-08-24T00:00	12562	188	-59.3	-70.2	286	32
2023-08-24T00:00	12580	188	-59.1	-70.4	286	32
2023-08-24T00:00	12600	187	-58.9	-70.6	286	33
2023-08-24T00:00	12622	187	-58.9	-70.8	286	33
2023-08-24T00:00	12641	186	-58.7	-70.9	286	33
2023-08-24T00:00	12662	185	-58.7	-71.2	286	34
2023-08-24T00:00	12679	185	-58.5	-71.5	286	34
2023-08-24T00:00	12701	184	-57.9	-71.7	287	35
2023-08-24T00:00	12722	184	-57.8	-72.2	287	35
2023-08-24T00:00	12742	183	-57.6	-72.4	288	36
2023-08-24T00:00	12762	182	-57.7	-72.7	289	36
2023-08-24T00:00	12781	182	-57.8	-72.9	289	36
2023-08-24T00:00	12801	181	-57.8	-73.3	289	36
2023-08-24T00:00	12821	181	-57.4	-73.7	289	36
2023-08-24T00:00	12841	180	-57.3	-74.3	289	35
2023-08-24T00:00	12863	179	-57.3	-74.8	288	35
2023-08-24T00:00	12888	179	-57.2	-74.9	288	35
2023-08-24T00:00	12906	178	-57.3	-75.0	287	34
2023-08-24T00:00	12926	178	-57.4	-75.1	287	34
2023-08-24T00:00	12943	177	-57.4	-75.2	286	35
2023-08-24T00:00	12964	177	-57.4	-75.5	286	35
2023-08-24T00:00	12986	176	-57.6	-75.7	287	35
2023-08-24T00:00	13006	175	-57.7	-75.8	287	35
2023-08-24T00:00	13027	175	-57.8	-76.0	287	35
2023-08-24T00:00	13047	174	-57.8	-76.3	288	35
2023-08-24T00:00	13064	174	-57.5	-76.5	288	35
2023-08-24T00:00	13085	173	-57.3	-76.6	288	35
2023-08-24T00:00	13105	173	-57.2	-76.6	288	35
2023-08-24T00:00	13126	172	-57.2	-76.6	288	35
2023-08-24T00:00	13147	172	-57.0	-76.6	288	34
2023-08-24T00:00	13165	171	-56.9	-76.6	288	34
2023-08-24T00:00	13189	170	-57.1	-76.9	288	34
2023-08-24T00:00	13210	170	-57.1	-77.0	288	33
2023-08-24T00:00	13230	169	-57.1	-77.1	289	33
2023-08-24T00:00	13250	169	-57.2	-77.3	289	32
2023-08-24T00:00	13272	168	-57.2	-77.4	289	32
2023-08-24T00:00	13290	168	-57.2	-77.4	288	32
2023-08-24T00:00	13309	167	-57.3	-77.6	287	32
2023-08-24T00:00	13329	167	-57.4	-77.9	286	32
2023-08-24T00:00	13348	166	-57.4	-78.5	284	32
2023-08-24T00:00	13366	166	-57.0	-78.7	283	32
2023-08-24T00:00	13386	165	-57.0	-79.5	282	32
2023-08-24T00:00	13405	165	-57.1	-80.3	281	32
2023-08-24T00:00	13424	164	-56.9	-80.7	280	33
2023-08-24T00:00	13445	164	-56.2	-80.8	280	33
2023-08-24T00:00	13461	163	-55.6	-80.8	281	33
2023-08-24T00:00	13484	163	-55.3	-81.0	282	33
2023-08-24T00:00	13501	162	-55.1	-81.1	284	33
2023-08-24T00:00	13522	162	-54.7	-80.8	285	33
2023-08-24T00:00	13542	161	-54.6	-80.7	286	32
2023-08-24T00:00	13559	161	-54.5	-80.9	287	32
2023-08-24T00:00	13579	160	-54.5	-80.9	288	32
2023-08-24T00:00	13599	160	-54.5	-80.7	289	31
2023-08-24T00:00	13617	159	-54.5	-80.7	290	31
2023-08-24T00:00	13638	159	-54.5	-80.9	291	31
2023-08-24T00:00	13657	158	-54.5	-80.9	292	30
2023-08-24T00:00	13676	158	-54.4	-80.9	292	30
2023-08-24T00:00	13699	157	-54.5	-80.9	291	29
2023-08-24T00:00	13720	157	-54.5	-80.9	290	28
2023-08-24T00:00	13745	156	-54.3	-81.1	289	27
2023-08-24T00:00	13766	156	-54.2	-81.0	289	27
2023-08-24T00:00	13787	155	-54.3	-81.1	288	26
2023-08-24T00:00	13808	155	-54.3	-81.4	288	26
2023-08-24T00:00	13829	154	-54.1	-81.2	288	26
2023-08-24T00:00	13849	154	-53.9	-81.1	288	26
2023-08-24T00:00	13869	153	-53.6	-81.2	288	26
2023-08-24T00:00	13888	153	-53.2	-81.2	289	25
2023-08-24T00:00	13911	152	-52.6	-80.8	289	25
2023-08-24T00:00	13929	152	-52.7	-80.8	290	24
2023-08-24T00:00	13951	151	-52.8	-80.9	290	24
2023-08-24T00:00	13975	151	-52.9	-81.0	290	23
2023-08-24T00:00	13999	150	-53.1	-81.1	291	23
2023-08-24T00:00	14020	150	-53.2	-81.2	290	22
2023-08-24T00:00	14043	149	-53.3	-80.9	290	22
2023-08-24T00:00	14064	149	-53.5	-81.1	289	21
2023-08-24T00:00	14086	148	-53.7	-81.3	288	21
2023-08-24T00:00	14108	148	-53.8	-81.0	288	21
2023-08-24T00:00	14131	147	-53.9	-81.1	287	21
2023-08-24T00:00	14153	147	-54.1	-81.2	286	21
2023-08-24T00:00	14179	146	-54.3	-81.4	285	20
2023-08-24T00:00	14198	146	-54.5	-81.5	284	20
2023-08-24T00:00	14220	145	-54.7	-81.4	283	20
2023-08-24T00:00	14244	145	-54.9	-81.5	282	20
2023-08-24T00:00	14264	144	-55.0	-81.6	281	21
2023-08-24T00:00	14287	144	-55.0	-81.6	280	21
2023-08-24T00:00	14306	143	-55.0	-81.6	280	21
2023-08-24T00:00	14331	143	-55.0	-81.9	280	22
2023-08-24T00:00	14352	142	-55.1	-82.0	280	22
2023-08-24T00:00	14377	142	-55.0	-81.9	280	23
2023-08-24T00:00	14397	141	-55.0	-81.9	280	23
2023-08-24T00:00	14417	141	-55.1	-82.0	279	24
2023-08-24T00:00	14439	140	-55.2	-81.8	279	24
2023-08-24T00:00	14460	140	-55.3	-81.9	278	24
2023-08-24T00:00	14483	139	-55.3	-81.9	278	24
2023-08-24T00:00	14504	139	-55.3	-81.9	277	24
2023-08-24T00:00	14528	138	-55.5	-82.0	276	24
2023-08-24T00:00	14547	138	-55.6	-82.1	275	24
2023-08-24T00:00	14569	137	-55.8	-82.2	275	24
2023-08-24T00:00	14592	137	-55.9	-82.0	276	24
2023-08-24T00:00	14613	136	-55.8	-82.0	277	24
2023-08-24T00:00	14630	136	-55.8	-82.0	279	24
2023-08-24T00:00	14653	136	-55.8	-82.0	280	25
2023-08-24T00:00	14674	135	-55.9	-82.0	280	25
2023-08-24T00:00	14693	135	-56.0	-81.8	280	25
2023-08-24T00:00	14717	134	-56.0	-81.8	280	25
2023-08-24T00:00	14736	134	-56.0	-81.8	279	25
2023-08-24T00:00	14755	133	-56.1	-81.6	278	25
2023-08-24T00:00	14778	133	-56.0	-81.8	277	24
2023-08-24T00:00	14799	133	-55.8	-81.7	276	24
2023-08-24T00:00	14817	132	-55.9	-82.0	275	24
2023-08-24T00:00	14836	132	-55.8	-82.0	274	24
2023-08-24T00:00	14857	131	-55.0	-81.6	274	24
2023-08-24T00:00	14877	131	-55.0	-81.9	274	24
2023-08-24T00:00	14898	130	-55.1	-82.0	274	24
2023-08-24T00:00	14916	130	-55.0	-81.9	275	24
2023-08-24T00:00	14935	130	-54.8	-81.8	276	24
2023-08-24T00:00	14956	129	-54.8	-81.8	277	25
2023-08-24T00:00	14975	129	-54.9	-81.9	278	25
2023-08-24T00:00	14997	128	-54.8	-81.8	279	25
2023-08-24T00:00	15013	128	-54.9	-81.9	279	25
2023-08-24T00:00	15033	128	-55.0	-81.9	280	26
2023-08-24T00:00	15054	127	-55.1	-82.0	280	26
2023-08-24T00:00	15073	127	-55.1	-81.7	280	26
2023-08-24T00:00	15092	127	-55.1	-81.7	280	26
2023-08-24T00:00	15112	126	-55.1	-81.7	280	25
2023-08-24T00:00	15132	126	-55.1	-81.7	280	25
2023-08-24T00:00	15155	125	-55.2	-81.8	280	25
2023-08-24T00:00	15175	125	-55.3	-81.9	280	24
2023-08-24T00:00	15197	124	-55.4	-81.9	280	24
2023-08-24T00:00	15216	124	-55.5	-82.0	280	24
2023-08-24T00:00	15236	124	-55.7	-81.9	280	23
2023-08-24T00:00	15255	123	-55.8	-82.0	280	23
2023-08-24T00:00	15275	123	-55.8	-82.0	280	24
2023-08-24T00:00	15293	123	-55.9	-82.0	280	24
2023-08-24T00:00	15316	122	-56.1	-81.9	280	24
2023-08-24T00:00	15337	122	-56.2	-82.0	279	24
2023-08-24T00:00	15357	121	-56.3	-82.1	279	25
2023-08-24T00:00	15377	121	-56.4	-82.1	279	25
2023-08-24T00:00	15398	121	-56.6	-82.3	280	25
2023-08-24T00:00	15419	120	-56.7	-82.4	280	25
2023-08-24T00:00	15438	120	-56.5	-82.2	281	25
2023-08-24T00:00	15462	119	-56.5	-82.5	282	25
2023-08-24T00:00	15480	119	-56.6	-82.6	284	24
2023-08-24T00:00	15505	119	-56.7	-82.9	285	24
2023-08-24T00:00	15523	118	-56.7	-82.9	286	23
2023-08-24T00:00	15544	118	-56.6	-82.9	287	23
2023-08-24T00:00	15566	117	-56.4	-83.0	288	22
2023-08-24T00:00	15586	117	-56.3	-82.9	289	22
2023-08-24T00:00	15613	117	-56.2	-82.9	289	21
2023-08-24T00:00	15634	116	-56.2	-82.9	290	21
2023-08-24T00:00	15654	116	-56.3	-82.9	290	21
2023-08-24T00:00	15677	115	-56.4	-83.0	291	21
2023-08-24T00:00	15699	115	-56.3	-82.9	291	21
2023-08-24T00:00	15721	115	-56.2	-83.2	291	21
2023-08-24T00:00	15743	114	-56.1	-83.1	291	21
2023-08-24T00:00	15766	114	-56.1	-83.1	290	21
2023-08-24T00:00	15787	113	-56.0	-83.0	289	20
2023-08-24T00:00	15811	113	-56.1	-83.1	287	20
2023-08-24T00:00	15835	113	-56.2	-83.2	286	20
2023-08-24T00:00	15859	112	-56.4	-83.3	283	19
2023-08-24T00:00	15883	112	-56.5	-83.4	281	19
2023-08-24T00:00	15910	111	-56.5	-83.4	278	19
2023-08-24T00:00	15933	111	-56.7	-83.6	276	18
2023-08-24T00:00	15953	110	-56.5	-83.4	274	18
2023-08-24T00:00	15975	110	-56.5	-83.4	272	18
2023-08-24T00:00	16000	110	-56.6	-83.5	270	18
2023-08-24T00:00	16019	109	-56.8	-83.6	268	19
2023-08-24T00:00	16041	109	-56.7	-83.6	267	19
2023-08-24T00:00	16061	109	-56.7	-83.6	265	19
2023-08-24T00:00	16082	108	-56.6	-83.8	264	19
2023-08-24T00:00	16105	108	-56.2	-83.5	264	20
2023-08-24T00:00	16128	108	-56.1	-83.4	264	20
2023-08-24T00:00	16150	107	-56.2	-83.5	264	21
2023-08-24T00:00	16172	107	-56.3	-83.6	266	21
2023-08-24T00:00	16196	106	-56.3	-83.6	268	21
2023-08-24T00:00	16217	106	-56.0	-83.7	270	21
2023-08-24T00:00	16241	106	-55.8	-83.6	273	21
2023-08-24T00:00	16261	105	-55.8	-83.6	276	20
2023-08-24T00:00	16283	105	-55.9	-83.6	278	20
2023-08-24T00:00	16305	105	-56.0	-83.7	281	20
2023-08-24T00:00	16327	104	-56.1	-83.4	283	20
2023-08-24T00:00	16351	104	-56.1	-83.4	286	20
2023-08-24T00:00	16374	103	-56.2	-83.5	289	20
2023-08-24T00:00	16394	103	-56.3	-83.9	292	20
2023-08-24T00:00	16416	103	-56.3	-83.9	294	19
2023-08-24T00:00	16441	102	-56.2	-83.9	297	19
2023-08-24T00:00	16465	102	-56.0	-84.1	299	18
2023-08-24T00:00	16488	102	-55.7	-83.9	300	18
2023-08-24T00:00	16511	101	-55.5	-83.7	301	17
2023-08-24T00:00	16531	101	-55.6	-84.2	302	17
2023-08-24T00:00	16557	100	-55.4	-84.0	302	16
2023-08-24T00:00	16577	100	-55.4	-84.0	301	16
2023-08-24T00:00	16596	100	-55.5	-84.1	301	15
2023-08-24T00:00	16617	100	-55.6	-83.8	301	15
2023-08-24T00:00	16639	99	-55.7	-83.9	300	15
2023-08-24T00:00	16658	99	-55.8	-83.9	299	15
2023-08-24T00:00	16676	99	-56.0	-84.1	298	15
2023-08-24T00:00	16701	98	-56.1	-84.2	297	15
2023-08-24T00:00	16720	98	-56.2	-83.9	295	15
2023-08-24T00:00	16743	98	-56.3	-83.9	294	14
2023-08-24T00:00	16762	97	-56.5	-84.1	293	14
2023-08-24T00:00	16784	97	-56.3	-83.9	292	14
2023-08-24T00:00	16806	97	-56.4	-84.0	292	14
2023-08-24T00:00	16829	96	-56.6	-83.8	292	14
2023-08-24T00:00	16850	96	-56.7	-83.9	292	14
2023-08-24T00:00	16874	96	-56.9	-84.0	292	13
2023-08-24T00:00	16896	95	-57.1	-84.2	291	13
2023-08-24T00:00	16917	95	-57.1	-84.2	290	13
2023-08-24T00:00	16937	95	-57.3	-84.4	288	12
2023-08-24T00:00	16959	94	-57.4	-84.1	286	12
2023-08-24T00:00	16981	94	-57.5	-84.5	284	12
2023-08-24T00:00	17001	94	-57.4	-84.4	283	12
2023-08-24T00:00	17025	93	-57.3	-84.4	282	13
2023-08-24T00:00	17046	93	-57.5	-84.5	282	13
2023-08-24T00:00	17070	93	-57.6	-84.6	282	13
2023-08-24T00:00	17090	92	-57.5	-84.5	282	13
2023-08-24T00:00	17114	92	-57.6	-84.6	282	14
2023-08-24T00:00	17136	92	-57.6	-84.6	283	14
2023-08-24T00:00	17159	91	-57.8	-84.7	283	15
2023-08-24T00:00	17178	91	-57.9	-84.8	285	15
2023-08-24T00:00	17202	91	-57.9	-84.8	286	15
2023-08-24T00:00	17227	90	-57.8	-85.1	288	15
2023-08-24T00:00	17250	90	-57.7	-85.0	290	15
2023-08-24T00:00	17270	90	-57.7	-85.4	292	14
2023-08-24T00:00	17294	89	-57.1	-85.3	293	14
2023-08-24T00:00	17317	89	-56.5	-85.3	294	13
2023-08-24T00:00	17341	89	-56.0	-84.9	295	13
2023-08-24T00:00	17364	88	-56.0	-84.9	296	12
2023-08-24T00:00	17387	88	-56.1	-85.0	297	12
2023-08-24T00:00	17409	88	-56.3	-85.1	299	11
2023-08-24T00:00	17429	88	-56.4	-85.2	301	11
2023-08-24T00:00	17453	87	-56.4	-85.2	304	11
2023-08-24T00:00	17475	87	-56.4	-84.8	306	11
2023-08-24T00:00	17500	87	-56.4	-84.8	307	10
2023-08-24T00:00	17518	86	-56.5	-84.9	308	10
2023-08-24T00:00	17543	86	-56.6	-84.9	308	9
2023-08-24T00:00	17566	86	-56.6	-84.9	307	8
2023-08-24T00:00	17588	85	-56.5	-84.9	304	8
2023-08-24T00:00	17612	85	-56.5	-85.3	299	7
2023-08-24T00:00	17635	85	-56.6	-85.4	292	6
2023-08-24T00:00	17657	84	-56.3	-85.1	284	6
2023-08-24T00:00	17681	84	-56.2	-85.1	277	6
2023-08-24T00:00	17703	84	-56.1	-85.0	271	6
2023-08-24T00:00	17721	84	-56.3	-85.1	266	6
2023-08-24T00:00	17744	83	-56.4	-85.2	263	6
2023-08-24T00:00	17770	83	-56.5	-85.3	260	7
2023-08-24T00:00	17793	83	-56.6	-84.9	258	7
2023-08-24T00:00	17812	82	-56.7	-85.0	257	8
2023-08-24T00:00	17833	82	-56.9	-85.2	255	8
2023-08-24T00:00	17853	82	-57.0	-85.2	254	8
2023-08-24T00:00	17875	82	-57.2	-85.4	254	9
2023-08-24T00:00	17896	81	-57.4	-85.6	254	9
2023-08-24T00:00	17918	81	-57.5	-85.2	256	10
2023-08-24T00:00	17940	81	-57.7	-85.4	259	10
2023-08-24T00:00	17960	81	-57.8	-85.9	261	11
2023-08-24T00:00	17983	80	-58.0	-86.0	264	12
2023-08-24T00:00	18000	80	-57.9		267	12
2023-08-24T00:00	18024	80	-57.4	-86.0	269	12
2023-08-24T00:00	18044	79	-56.7	-85.9	272	12
2023-08-24T00:00	18068	79	-56.4	-85.7	275	12
2023-08-24T00:00	18087	79	-56.4	-85.7	279	12
2023-08-24T00:00	18111	79	-56.5	-85.8	282	12
2023-08-24T00:00	18132	78	-56.7	-85.9	285	12
2023-08-24T00:00	18155	78	-56.8	-86.0	289	12
2023-08-24T00:00	18175	78	-56.8	-86.0	293	12
2023-08-24T00:00	18196	78	-56.5	-85.8	296	13
2023-08-24T00:00	18216	77	-56.4	-85.7	300	13
2023-08-24T00:00	18239	77	-56.2	-85.5	304	13
2023-08-24T00:00	18261	77	-56.1	-85.5	307	13
2023-08-24T00:00	18284	77	-55.9	-85.3	311	13
2023-08-24T00:00	18309	76	-55.7	-85.2	314	12
2023-08-24T00:00	18327	76	-55.8	-85.2	316	12
2023-08-24T00:00	18349	76	-55.8	-85.2	318	11
2023-08-24T00:00	18370	75	-55.8	-85.2	320	11
2023-08-24T00:00	18393	75	-56.0		321	10
2023-08-24T00:00	18415	75	-56.0		322	9
2023-08-24T00:00	18438	75	-56.1	-85.5	323	8
2023-08-24T00:00	18462	74	-56.2	-85.5	325	7
2023-08-24T00:00	18481	74	-56.2	-85.5	327	6
2023-08-24T00:00	18505	74	-56.2	-85.5	327	5
2023-08-24T00:00	18527	74	-55.8	-85.7	325	4
2023-08-24T00:00	18548	73	-55.7	-85.7	320	4
2023-08-24T00:00	18572	73	-55.6	-85.6	312	4
2023-08-24T00:00	18593	73	-55.7	-85.7	303	4
2023-08-24T00:00	18616	73	-55.9	-85.3	294	4
2023-08-24T00:00	18639	72	-56.0		286	4
2023-08-24T00:00	18663	72	-56.1	-85.5	279	5
2023-08-24T00:00	18686	72	-56.2	-85.5	272	5
2023-08-24T00:00	18707	72	-56.3	-85.6	266	5
2023-08-24T00:00	18732	71	-56.4	-85.7	261	6
2023-08-24T00:00	18752	71	-56.5	-85.8	258	6
2023-08-24T00:00	18776	71	-56.6	-85.8	257	7
2023-08-24T00:00	18798	71	-56.8	-85.5	256	7
2023-08-24T00:00	18819	70	-57.0	-85.7	257	8
2023-08-24T00:00	18842	70	-57.1	-85.7	258	8
2023-08-24T00:00	18864	70	-57.2	-85.8	260	8
2023-08-24T00:00	18888	70	-57.3	-86.4	262	8
2023-08-24T00:00	18912	69	-57.4	-86.4	265	8
2023-08-24T00:00	18935	69	-57.0	-86.1	267	8
2023-08-24T00:00	18959	69	-56.6	-85.8	268	8
2023-08-24T00:00	18981	69	-56.5	-85.8	268	8
2023-08-24T00:00	19004	68	-56.6	-85.8	267	8
2023-08-24T00:00	19027	68	-56.7	-85.9	266	8
2023-08-24T00:00	19053	68	-56.8	-86.0	265	8
2023-08-24T00:00	19075	68	-56.9	-86.1	265	8
2023-08-24T00:00	19093	67	-56.9	-86.1	265	8
2023-08-24T00:00	19119	67	-57.0	-86.1	267	8
2023-08-24T00:00	19147	67	-57.0	-86.6	270	8
2023-08-24T00:00	19166	67	-56.5	-86.3	274	8
2023-08-24T00:00	19193	66	-56.5	-86.3	279	8
2023-08-24T00:00	19214	66	-56.4	-86.2	282	9
2023-08-24T00:00	19236	66	-56.4	-86.2	285	9
2023-08-24T00:00	19258	66	-56.3	-86.1	286	8
2023-08-24T00:00	19281	65	-56.0	-85.9	286	7
2023-08-24T00:00	19304	65	-55.8	-85.7	285	7
2023-08-24T00:00	19326	65	-55.7	-85.7	285	6
2023-08-24T00:00	19348	65	-55.7	-85.7	284	6
2023-08-24T00:00	19371	64	-55.8	-85.7	283	6
2023-08-24T00:00	19396	64	-55.8	-85.7	283	6
2023-08-24T00:00	19420	64	-55.9	-85.8	283	7
2023-08-24T00:00	19449	64	-56.1	-86.0	283	7
2023-08-24T00:00	19465	64	-56.0	-85.9	284	7
2023-08-24T00:00	19489	63	-56.2	-86.0	286	7
2023-08-24T00:00	19513	63	-56.2	-86.0	287	7
2023-08-24T00:00	19537	63	-56.1	-86.0	289	7
2023-08-24T00:00	19560	63	-56.2	-86.0	291	7
2023-08-24T00:00	19583	62	-56.2	-86.0	294	7
2023-08-24T00:00	19608	62	-56.2	-86.0	297	6
2023-08-24T00:00	19625	62	-56.2	-86.0	299	6
2023-08-24T00:00	19654	62	-56.1	-86.0	301	6
2023-08-24T00:00	19676	61	-56.0	-85.9	301	5
2023-08-24T00:00	19700	61	-56.1	-86.0	298	5
2023-08-24T00:00	19723	61	-56.2	-86.0	293	5
2023-08-24T00:00	19744	61	-56.3	-86.1	288	5
2023-08-24T00:00	19770	61	-55.9	-85.8	284	6
2023-08-24T00:00	19788	60	-55.7	-85.7	282	6
2023-08-24T00:00	19813	60	-55.8	-85.7	281	7
2023-08-24T00:00	19836	60	-55.9	-85.8	281	7
2023-08-24T00:00	19861	60	-56.0	-85.9	283	7
2023-08-24T00:00	19883	59	-56.1	-86.0	286	8
2023-08-24T00:00	19906	59	-56.0	-85.9	291	8
2023-08-24T00:00	19930	59	-55.9	-85.8	296	9
2023-08-24T00:00	19952	59	-55.9	-86.3	301	9
2023-08-24T00:00	19979	59	-55.6	-86.1	306	9
2023-08-24T00:00	19996	58	-55.4	-86.0	310	8
2023-08-24T00:00	20019	58	-55.2	-85.8	314	8
2023-08-24T00:00	20041	58	-54.9	-85.6	318	7
2023-08-24T00:00	20062	58	-54.7	-85.5	320	7
2023-08-24T00:00	20087	58	-54.7	-85.5	323	6
2023-08-24T00:00	20108	57	-54.8	-85.5	324	6
2023-08-24T00:00	20133	57	-54.9	-85.6	326	5
2023-08-24T00:00	20155	57	-55.0	-85.7	326	5
2023-08-24T00:00	20177	57	-55.1	-85.2	324	4
2023-08-24T00:00	20204	57	-55.3	-85.4	320	3
2023-08-24T00:00	20228	56	-55.4	-85.4	314	3
2023-08-24T00:00	20246	56	-55.4	-85.4	306	3
2023-08-24T00:00	20272	56	-55.4	-85.4	298	3
2023-08-24T00:00	20295	56	-55.3	-85.4	293	3
2023-08-24T00:00	20317	56	-55.3	-85.9	293	3
2023-08-24T00:00	20342	55	-55.3	-85.9	297	3
2023-08-24T00:00	20365	55	-55.3	-85.9	304	3
2023-08-24T00:00	20386	55	-55.3	-85.9	311	4
2023-08-24T00:00	20409	55	-55.4	-85.4	316	4
2023-08-24T00:00	20437	55	-55.4	-85.4	320	5
2023-08-24T00:00	20457	54	-55.1	-85.2	322	5
2023-08-24T00:00	20482	54	-55.2	-85.3	324	6
2023-08-24T00:00	20507	54	-55.4	-85.4	326	7
2023-08-24T00:00	20528	54	-55.6	-85.6	328	7
2023-08-24T00:00	20553	54	-55.7	-85.7	329	7
2023-08-24T00:00	20580	53	-55.8	-85.7	331	7
2023-08-24T00:00	20603	53	-55.7	-85.7	333	7
2023-08-24T00:00	20625	53	-55.4	-85.4	334	6
2023-08-24T00:00	20652	53	-55.4	-85.4	336	6
2023-08-24T00:00	20672	53	-55.4	-85.4	337	5
2023-08-24T00:00	20695	52	-55.5	-85.5	339	5
2023-08-24T00:00	20717	52	-55.4	-86.0	342	4
2023-08-24T00:00	20741	52	-55.2	-85.8	347	4
2023-08-24T00:00	20766	52	-55.2	-85.8	354	4
2023-08-24T00:00	20786	52	-55.2	-85.8	2	4
2023-08-24T00:00	20812	51	-55.2	-85.3	10	4
2023-08-24T00:00	20832	51	-55.3	-85.4	20	4
2023-08-24T00:00	20859	51	-55.5	-85.5	30	4
2023-08-24T00:00	20883	51	-55.3	-85.4	40	4
2023-08-24T00:00	20905	51	-55.2	-85.3	49	4
2023-08-24T00:00	20930	50	-55.2	-85.3	56	4
2023-08-24T00:00	20952	50	-55.3	-85.4	60	4
2023-08-24T00:00	20978	50	-55.4	-85.4	62	3
2023-08-24T00:00	21005	50	-55.5	-85.5	63	3
2023-08-24T00:00	21030	50	-55.6	-85.6	63	2
2023-08-24T00:00	21050	50	-55.8	-85.7	64	1
2023-08-24T00:00	21077	49	-55.9	-85.8	67	1
2023-08-24T00:00	21099	49	-56.0	-85.9	241	0
2023-08-24T00:00	21120	49	-56.1	-86.0	248	1
2023-08-24T00:00	21147	49	-56.1	-86.0	254	1
2023-08-24T00:00	21173	49	-56.0	-85.9	263	1
2023-08-24T00:00	21193	48	-56.0	-85.9	273	2
2023-08-24T00:00	21215	48	-56.0	-85.9	283	2
2023-08-24T00:00	21240	48	-55.9	-85.8	292	2
2023-08-24T00:00	21264	48	-55.7	-85.7	300	2
2023-08-24T00:00	21288	48	-55.5	-85.5	308	2
2023-08-24T00:00	21312	48	-55.4	-85.4	316	2
2023-08-24T00:00	21335	47	-55.5	-85.5	324	2
2023-08-24T00:00	21361	47	-55.6	-85.6	333	2
2023-08-24T00:00	21385	47	-55.8	-85.7	342	2
2023-08-24T00:00	21410	47	-55.8	-85.7	351	2
2023-08-24T00:00	21434	47	-55.8	-85.7	1	2
2023-08-24T00:00	21459	46	-55.8	-85.7	9	2
2023-08-24T00:00	21479	46	-55.8	-85.7	16	2
2023-08-24T00:00	21504	46	-55.9	-85.8	22	1
2023-08-24T00:00	21530	46	-55.9	-85.8	29	1
2023-08-24T00:00	21552	46	-55.9	-85.8	43	1
2023-08-24T00:00	21576	46	-56.0	-85.9	74	1
2023-08-24T00:00	21604	45	-56.0	-85.9	119	1
2023-08-24T00:00	21628	45	-55.9	-85.8	146	1
2023-08-24T00:00	21652	45	-55.9	-85.8	163	1
2023-08-24T00:00	21678	45	-55.9	-85.8	180	1
2023-08-24T00:00	21696	45	-55.9	-85.8	204	1
2023-08-24T00:00	21720	45	-55.8	-85.7	235	1
2023-08-24T00:00	21744	44	-55.7	-85.7	254	1
2023-08-24T00:00	21770	44	-55.7	-85.7	257	1
2023-08-24T00:00	21795	44	-55.7	-85.7	245	1
2023-08-24T00:00	21815	44	-55.6	-85.6	228	1
2023-08-24T00:00	21843	44	-55.7	-85.7	217	2
2023-08-24T00:00	21869	44	-55.7	-85.7	214	2
2023-08-24T00:00	21885	43	-55.8	-85.7	217	2
2023-08-24T00:00	21912	43	-55.8	-85.7	223	2
2023-08-24T00:00	21937	43	-55.8	-85.7	230	2
2023-08-24T00:00	21959	43	-55.7	-85.7	236	3
2023-08-24T00:00	21982	43	-55.7	-85.7	243	3
2023-08-24T00:00	22002	43	-55.7	-85.7	250	3
2023-08-24T00:00	22027	42	-55.8	-85.7	263	2
2023-08-24T00:00	22056	42	-55.9	-85.8	284	2
2023-08-24T00:00	22076	42	-55.9	-85.8	311	2
2023-08-24T00:00	22102	42	-56.0	-85.9	333	2
2023-08-24T00:00	22120	42	-56.0	-85.9	348	2
2023-08-24T00:00	22148	42	-56.0	-85.9	359	3
2023-08-24T00:00	22177	42	-55.8	-85.7	10	3
2023-08-24T00:00	22201	41	-55.7	-86.2	21	3
2023-08-24T00:00	22221	41	-55.7	-86.2	31	4
2023-08-24T00:00	22245	41	-55.6	-86.1	38	4
2023-08-24T00:00	22272	41	-55.5	-86.1	44	4
2023-08-24T00:00	22292	41	-55.4	-85.4	49	4
2023-08-24T00:00	22321	41	-55.4	-85.4	54	4
2023-08-24T00:00	22343	40	-55.5	-85.5	59	4
2023-08-24T00:00	22371	40	-55.5	-85.5	64	4
2023-08-24T00:00	22400	40	-55.5	-85.5	70	3
2023-08-24T00:00	22420	40	-55.6	-85.6	78	3
2023-08-24T00:00	22452	40	-55.8	-85.7	87	2
2023-08-24T00:00	22476	40	-56.0	-85.9	98	2
2023-08-24T00:00	22495	39	-56.0	-85.9	108	1
2023-08-24T00:00	22521	39	-56.0	-85.9	109	1
2023-08-24T00:00	22551	39	-56.1	-86.0	98	1
2023-08-24T00:00	22575	39	-56.2	-86.0	80	1
2023-08-24T00:00	22602	39	-56.3	-86.1	65	1
2023-08-24T00:00	22627	39	-56.4	-86.2	56	2
2023-08-24T00:00	22655	39	-56.5	-86.3	53	2
2023-08-24T00:00	22676	38	-56.5	-86.3	55	3
2023-08-24T00:00	22702	38	-56.6	-86.3	59	3
2023-08-24T00:00	22736	38	-56.7	-85.9	65	3
2023-08-24T00:00	22755	38	-56.8	-86.0	72	4
2023-08-24T00:00	22782	38	-56.8	-86.5	78	4
2023-08-24T00:00	22809	38	-56.8	-86.5	85	4
2023-08-24T00:00	22832	37	-56.6	-86.3	93	3
2023-08-24T00:00	22858	37	-56.6	-86.3	101	3
2023-08-24T00:00	22881	37	-56.5	-86.3	112	3
2023-08-24T00:00	22905	37	-56.4	-86.2	128	2
2023-08-24T00:00	22925	37	-56.4	-86.2	153	2
2023-08-24T00:00	22955	37	-56.4	-86.2	187	2
2023-08-24T00:00	22980	37	-56.2	-86.0	215	2
2023-08-24T00:00	23006	36	-56.2	-86.0	231	3
2023-08-24T00:00	23030	36	-56.4	-86.2	242	3
2023-08-24T00:00	23054	36	-56.4	-86.2	252	4
2023-08-24T00:00	23079	36	-56.4	-86.2	262	4
2023-08-24T00:00	23105	36	-56.4	-86.2	274	4
2023-08-24T00:00	23128	36	-56.4	-86.2	288	4
2023-08-24T00:00	23154	36	-56.2	-86.0	303	5
2023-08-24T00:00	23179	35	-56.1	-86.0	317	5
2023-08-24T00:00	23201	35	-56.2	-86.6	330	5
2023-08-24T00:00	23232	35	-55.9	-86.3	341	5
2023-08-24T00:00	23251	35	-55.8	-86.3	350	5
2023-08-24T00:00	23280	35	-55.7	-86.2	359	5
2023-08-24T00:00	23301	35	-55.6	-86.1	8	4
2023-08-24T00:00	23332	35	-55.5	-86.1	17	4
2023-08-24T00:00	23356	34	-55.5	-86.1	24	3
2023-08-24T00:00	23386	34	-55.5	-86.1	31	3
2023-08-24T00:00	23406	34	-55.5	-86.1	34	2
2023-08-24T00:00	23429	34	-55.6	-86.1	34	1
2023-08-24T00:00	23456	34	-55.7	-85.7	13	1
2023-08-24T00:00	23483	34	-55.7	-85.7	315	1
2023-08-24T00:00	23509	34	-55.7	-86.2	297	1
2023-08-24T00:00	23534	34	-55.6	-86.1	300	2
2023-08-24T00:00	23554	33	-55.6	-86.1	307	2
2023-08-24T00:00	23584	33	-55.4	-86.0	316	3
2023-08-24T00:00	23608	33	-55.4	-86.0	328	3
2023-08-24T00:00	23637	33	-55.4	-86.0	340	4
2023-08-24T00:00	23663	33	-55.3	-85.9	351	5
2023-08-24T00:00	23688	33	-55.0	-86.3	2	5
2023-08-24T00:00	23715	33	-54.9	-86.2	11	6
2023-08-24T00:00	23742	32	-54.8	-86.1	20	6
2023-08-24T00:00	23772	32	-54.5	-85.9	27	7
2023-08-24T00:00	23790	32	-54.5	-85.9	34	7
2023-08-24T00:00	23823	32	-54.5	-85.3	40	7
2023-08-24T00:00	23847	32	-54.5	-85.3	45	7
2023-08-24T00:00	23871	32	-54.7	-85.5	49	7
2023-08-24T00:00	23900	32	-54.8	-85.5	52	6
2023-08-24T00:00	23922	32	-54.7	-85.5	55	6
2023-08-24T00:00	23946	31	-54.7	-85.5	58	6
2023-08-24T00:00	23975	31	-54.5	-85.3	62	6
2023-08-24T00:00	24000	31	-54.5	-85.3	67	6
2023-08-24T00:00	24028	31	-54.6	-85.4	73	6
2023-08-24T00:00	24050	31	-54.7	-85.5	79	6
2023-08-24T00:00	24072	31	-54.7	-85.5	85	5
2023-08-24T00:00	24094	31	-54.7	-85.5	92	5
2023-08-24T00:00	24122	31	-54.8	-85.5	97	5
2023-08-24T00:00	24146	30	-54.8	-85.5	102	4
2023-08-24T00:00	24167	30	-54.8	-85.5	106	4
2023-08-24T00:00	24196	30	-54.7	-85.5	107	3
2023-08-24T00:00	24220	30	-54.9	-85.6	105	3
2023-08-24T00:00	24248	30	-54.8	-85.5	100	3
2023-08-24T00:00	24267	30	-54.7	-85.5	93	3
2023-08-24T00:00	24299	30	-54.6	-85.4	89	3
2023-08-24T00:00	24320	30	-54.6	-85.4	88	3
2023-08-24T00:00	24341	30	-54.7	-85.5	93	3
2023-08-24T00:00	24373	29	-54.7	-86.1	102	3
2023-08-24T00:00	24390	29	-54.7	-86.1	113	3
2023-08-24T00:00	24416	29	-54.5	-85.9	123	3
2023-08-24T00:00	24434	29	-54.5	-85.9	130	3
2023-08-24T00:00	24465	29	-54.5	-85.9	133	2
2023-08-24T00:00	24487	29	-54.1	-85.6	132	2
2023-08-24T00:00	24512	29	-53.9	-86.2	120	1
2023-08-24T00:00	24535	29	-53.7	-86.0	79	1
2023-08-24T00:00	24563	29	-53.5	-85.9	35	1
2023-08-24T00:00	24576	28	-53.3	-85.7	22	1
2023-08-24T00:00	24604	28	-53.4	-85.8	20	2
2023-08-24T00:00	24631	28	-53.4	-85.1	22	2
2023-08-24T00:00	24665	28	-53.2	-85.0	25	2
2023-08-24T00:00	24681	28	-53.2	-85.0	27	2
2023-08-24T00:00	24706	28	-53.1	-84.9	28	3
2023-08-24T00:00	24728	28	-53.1	-84.9	28	3
2023-08-24T00:00	24764	28	-53.1	-84.9	26	3
2023-08-24T00:00	24781	28	-53.0	-84.8	24	3
2023-08-24T00:00	24811	28	-53.1	-84.9	21	3
2023-08-24T00:00	24831	27	-53.1	-84.9	18	3
2023-08-24T00:00	24862	27	-53.0	-84.8	17	3
2023-08-24T00:00	24885	27	-53.0	-84.8	15	4
2023-08-24T00:00	24914	27	-53.0	-84.8	15	4
2023-08-24T00:00	24935	27	-53.0	-84.8	16	4
2023-08-24T00:00	24963	27	-52.9	-84.7	18	4
2023-08-24T00:00	24985	27	-52.9	-85.4	24	3
2023-08-24T00:00	25020	27	-53.0	-85.5	33	3
2023-08-24T00:00	25034	27	-52.9	-84.7	51	2
2023-08-24T00:00	25065	26	-53.0	-84.8	76	2
2023-08-24T00:00	25093	26	-53.0	-84.8	103	2
2023-08-24T00:00	25122	26	-52.8	-84.7	125	2
2023-08-24T00:00	25145	26	-52.7	-85.3	142	2
2023-08-24T00:00	25174	26	-52.8	-85.3	157	3
2023-08-24T00:00	25201	26	-52.9	-85.4	169	3
2023-08-24T00:00	25221	26	-52.8	-85.3	180	3
2023-08-24T00:00	25251	26	-52.6	-85.2	189	3
2023-08-24T00:00	25283	26	-52.3	-85.0	199	3
2023-08-24T00:00	25301	25	-52.2	-84.9	211	3
2023-08-24T00:00	25327	25	-52.2	-84.9	227	2
2023-08-24T00:00	25356	25	-52.2	-84.9	250	2
2023-08-24T00:00	25382	25	-52.2	-84.9	276	2
2023-08-24T00:00	25410	25	-52.2	-84.9	301	2
2023-08-24T00:00	25440	25	-52.1	-84.8	320	3
2023-08-24T00:00	25460	25	-52.1	-84.8	333	3
2023-08-24T00:00	25488	25	-51.9	-84.7	342	3
2023-08-24T00:00	25514	25	-51.5	-84.4	348	4
2023-08-24T00:00	25535	25	-51.5	-85.2	353	3
2023-08-24T00:00	25570	24	-51.4	-85.1	357	3
2023-08-24T00:00	25594	24	-51.2	-85.0	3	3
2023-08-24T00:00	25616	24	-51.2	-85.0	10	3
2023-08-24T00:00	25647	24	-51.3	-84.3	17	3
2023-08-24T00:00	25669	24	-51.3	-84.3	21	3
2023-08-24T00:00	25699	24	-51.3	-84.3	21	2
2023-08-24T00:00	25725	24	-51.4	-84.3	16	2
2023-08-24T00:00	25742	24	-51.4	-84.3	6	2
2023-08-24T00:00	25767	24	-51.4	-84.3	355	2
2023-08-24T00:00	25801	24	-51.6	-84.5	347	3
2023-08-24T00:00	25827	23	-51.5	-84.4	343	3
2023-08-24T00:00	25858	23	-51.5	-84.4	342	4
2023-08-24T00:00	25876	23	-51.5	-84.4	343	4
2023-08-24T00:00	25909	23	-51.4	-84.3	345	4
2023-08-24T00:00	25930	23	-51.4	-85.1	348	4
2023-08-24T00:00	25953	23	-51.3	-85.0	353	5
2023-08-24T00:00	25985	23	-51.1	-84.9	358	5
2023-08-24T00:00	26010	23	-51.0	-84.8	4	5
2023-08-24T00:00	26031	23	-51.0	-84.8	10	4
2023-08-24T00:00	26057	23	-50.8	-84.7	17	4
2023-08-24T00:00	26076	23	-50.7	-84.6	23	3
2023-08-24T00:00	26103	23	-50.5	-84.5	29	3
2023-08-24T00:00	26128	22	-50.5	-84.5	35	3
2023-08-24T00:00	26160	22	-50.5	-84.5	41	2
2023-08-24T00:00	26194	22	-50.6	-84.5	47	2
2023-08-24T00:00	26212	22	-50.6	-84.5	54	1
2023-08-24T00:00	26235	22	-50.6	-84.5	61	1
2023-08-24T00:00	26261	22	-50.4	-84.4	63	1
2023-08-24T00:00	26289	22	-50.3	-84.3	57	1
2023-08-24T00:00	26316	22	-50.4	-84.4	47	1
2023-08-24T00:00	26337	22	-50.5	-84.5	36	1
2023-08-24T00:00	26365	22	-50.5	-84.5	28	1
2023-08-24T00:00	26392	22	-50.6	-84.5	22	2
2023-08-24T00:00	26422	21	-50.5	-84.5	16	2
2023-08-24T00:00	26448	21	-50.5	-84.5	12	2
2023-08-24T00:00	26477	21	-50.5	-84.5	9	3
2023-08-24T00:00	26497	21	-50.4	-84.4	6	3
2023-08-24T00:00	26523	21	-50.4	-84.4	3	2
2023-08-24T00:00	26545	21	-50.2	-84.2	1	2
2023-08-24T00:00	26580	21	-50.3	-84.3	0	2
2023-08-24T00:00	26597	21	-50.3	-84.3	1	3
2023-08-24T00:00	26634	21	-50.4	-84.4	3	3
2023-08-24T00:00	26656	21	-50.3	-84.3	6	3
2023-08-24T00:00	26689	21	-50.2	-84.2	8	4
2023-08-24T00:00	26709	21	-50.3	-84.3	9	5
2023-08-24T00:00	26737	20	-50.4	-84.4	9	5
2023-08-24T00:00	26765	20	-50.6	-84.5	8	6
2023-08-24T00:00	26789	20	-50.6	-84.5	6	6
2023-08-24T00:00	26822	20	-50.5	-84.5	4	6
2023-08-24T00:00	26847	20	-50.2	-84.2	3	6
2023-08-24T00:00	26875	20	-49.9	-84.0	1	5
2023-08-24T00:00	26903	20	-49.9	-84.0	358	4
2023-08-24T00:00	26931	20	-49.8	-84.0	355	4
2023-08-24T00:00	26955	20	-49.6	-83.8	349	3
2023-08-24T00:00	26983	20	-49.6	-83.8	339	3
2023-08-24T00:00	27016	20	-49.6	-83.8	328	3
2023-08-24T00:00	27044	20	-49.8	-84.0	318	3
2023-08-24T00:00	27073	19	-49.9	-84.0	313	3
2023-08-24T00:00	27093	19	-49.9	-84.0	313	4
2023-08-24T00:00	27126	19	-49.9	-84.0	316	4
2023-08-24T00:00	27164	19	-49.8	-84.0	322	4
2023-08-24T00:00	27182	19	-49.6	-83.8	329	5
2023-08-24T00:00	27211	19	-49.8	-84.0	336	5
2023-08-24T00:00	27241	19	-49.9	-84.0	342	5
2023-08-24T00:00	27269	19	-49.7	-83.9	346	6
2023-08-24T00:00	27300	19	-49.6	-83.8	347	6
2023-08-24T00:00	27328	19	-49.7	-83.9	347	7
2023-08-24T00:00	27359	19	-49.6	-83.8	346	7
2023-08-24T00:00	27380	19	-49.5	-83.7	343	6
2023-08-24T00:00	27414	18	-49.4	-83.7	340	6
2023-08-24T00:00	27437	18	-49.2	-84.4	339	5
2023-08-24T00:00	27463	18	-49.2	-84.4	340	5
2023-08-24T00:00	27490	18	-49.1	-84.3	345	4
2023-08-24T00:00	27525	18	-49.0	-84.3	353	4
2023-08-24T00:00	27544	18	-48.8	-84.1	1	5
2023-08-24T00:00	27573	18	-48.4	-83.8	8	5
2023-08-24T00:00	27598	18	-48.3	-83.8	14	5
2023-08-24T00:00	27626	18	-48.2	-83.7	19	5
2023-08-24T00:00	27654	18	-47.8	-83.4	23	5
2023-08-24T00:00	27679	18	-47.5	-83.2	26	5
2023-08-24T00:00	27707	18	-47.5	-83.2	28	5
2023-08-24T00:00	27730	18	-47.3	-83.1	29	5
2023-08-24T00:00	27753	18	-47.2	-83.0	28	4
2023-08-24T00:00	27779	17	-47.1	-82.9	25	4
2023-08-24T00:00	27799	17	-46.9	-82.8	20	3
2023-08-24T00:00	27824	17	-47.0	-82.9	11	3
2023-08-24T00:00	27847	17	-47.0	-82.9	356	2
2023-08-24T00:00	27877	17	-47.1	-82.9	331	2
2023-08-24T00:00	27895	17	-47.1	-82.9	303	2
2023-08-24T00:00	27929	17	-47.1	-82.9	284	3
2023-08-24T00:00	27956	17	-47.0	-82.9	277	3
2023-08-24T00:00	27992	17	-47.0	-82.9	276	4
2023-08-24T00:00	28014	17	-47.0	-82.9	279	4
2023-08-24T00:00	28038	17	-47.0	-82.9	285	4
2023-08-24T00:00	28063	17	-46.5	-83.6	292	4
2023-08-24T00:00	28097	17	-46.4	-83.5	297	5
2023-08-24T00:00	28111	17	-46.3	-83.4	302	5
2023-08-24T00:00	28151	17	-46.3	-83.4	308	4
2023-08-24T00:00	28173	16	-46.1	-83.3	315	4
2023-08-24T00:00	28193	16	-46.0	-83.2	324	4
2023-08-24T00:00	28213	16	-45.9	-83.2	334	4
2023-08-24T00:00	28240	16	-45.9	-83.2	344	4
2023-08-24T00:00	28261	16	-46.1	-83.3	352	3
2023-08-24T00:00	28294	16	-46.3	-82.4	0	3
2023-08-24T00:00	28334	16	-46.4	-82.4	9	3
2023-08-24T00:00	28348	16	-46.4	-82.4	20	3
2023-08-24T00:00	28388	16	-46.3	-83.4	31	3
2023-08-24T00:00	28404	16	-46.1	-83.3	41	3
2023-08-24T00:00	28438	16	-45.9	-83.2	48	4
2023-08-24T00:00	28462	16	-45.8	-83.1	52	4
2023-08-24T00:00	28496	16	-45.8	-83.1	55	5
2023-08-24T00:00	28526	16	-45.5	-82.9	58	5
2023-08-24T00:00	28550	16	-45.6	-82.9	62	5
2023-08-24T00:00	28576	15	-45.6	-82.9	68	5
2023-08-24T00:00	28604	15	-45.4	-82.8	76	5
2023-08-24T00:00	28633	15	-45.3	-82.7	87	5
2023-08-24T00:00	28661	15	-45.3	-82.7	99	4
2023-08-24T00:00	28694	15	-45.3	-82.7	112	4
2023-08-24T00:00	28725	15	-45.0	-82.5	124	4
2023-08-24T00:00	28751	15	-44.8	-82.4	136	4
2023-08-24T00:00	28772	15	-44.8	-82.4	147	3
2023-08-24T00:00	28808	15	-44.9	-82.5	159	3
2023-08-24T00:00	28823	15	-45.0	-82.5	171	3
2023-08-24T00:00	28852	15	-45.1	-82.6	187	2
2023-08-24T00:00	28884	15	-44.9	-82.5	210	2
2023-08-24T00:00	28913	15	-44.9	-82.5	241	2
2023-08-24T00:00	28940	15	-44.9	-82.5	269	2
2023-08-24T00:00	28977	15	-45.1	-82.6	289	3
2023-08-24T00:00	28987	15	-45.1	-82.6	302	3
2023-08-24T00:00	29019	14	-45.0	-82.5	313	3
2023-08-24T00:00	29051	14	-44.9	-82.5	323	3
2023-08-24T00:00	29070	14	-44.6	-82.2	333	3
2023-08-24T00:00	29100	14	-44.3	-82.0	344	3
2023-08-24T00:00	29123	14	-44.0	-81.8	354	2
2023-08-24T00:00	29146	14	-43.9	-81.8	2	2
2023-08-24T00:00	29173	14	-43.7	-81.6	7	2
2023-08-24T00:00	29209	14	-43.4	-81.4	10	2
2023-08-24T00:00	29232	14	-43.3	-81.3	12	2
2023-08-24T00:00	29255	14	-43.3	-81.3	12	2
2023-08-24T00:00	29280	14	-43.1	-81.2	9	2
2023-08-24T00:00	29309	14	-43.1	-81.2	4	2
2023-08-24T00:00	29332	14	-43.0	-81.1	353	2
2023-08-24T00:00	29365	14	-42.9	-81.1	335	2
2023-08-24T00:00	29382	14	-42.9	-81.1	313	2
2023-08-24T00:00	29403	14	-42.8	-81.0	299	3
2023-08-24T00:00	29418	14	-42.8	-81.0	293	3
2023-08-24T00:00	29447	14	-42.7	-80.9	293	4
2023-08-24T00:00	29482	14	-42.6	-80.8	296	4
2023-08-24T00:00	29504	13	-42.6	-80.8	300	5
2023-08-24T00:00	29532	13	-42.6	-80.8	304	5
2023-08-24T00:00	29553	13	-42.5	-80.8	308	6
2023-08-24T00:00	29598	13	-42.5	-80.8	311	6
2023-08-24T00:00	29626	13	-42.4	-80.7	316	6
2023-08-24T00:00	29638	13	-42.3	-80.6	321	6
2023-08-24T00:00	29669	13	-42.2	-80.6	327	6
2023-08-24T00:00	29683	13	-42.2	-80.6	333	6
2023-08-24T00:00	29709	13	-42.3	-80.6	339	6
2023-08-24T00:00	29744	13	-42.4	-80.7	345	6
2023-08-24T00:00	29779	13	-42.5	-80.8	351	6
2023-08-24T00:00	29811	13	-42.5	-80.8	356	5
2023-08-24T00:00	29816	13	-42.5	-80.8	3	5
2023-08-24T00:00	29847	13	-42.4	-80.7	10	4
2023-08-24T00:00	29864	13	-42.4	-80.7	17	4
2023-08-24T00:00	29898	13	-42.3	-80.6	26	3
2023-08-24T00:00	29924	13	-42.4	-80.7	34	3
2023-08-24T00:00	29952	13	-42.4	-80.7	44	2
2023-08-24T00:00	29985	13	-42.3	-80.6	58	2
2023-08-24T00:00	29999	13	-42.3	-80.6	81	2
2023-08-24T00:00	30018	12	-42.2	-80.6	105	2
2023-08-24T00:00	30047	12	-42.1	-80.5	122	2
2023-08-24T00:00	30079	12	-42.1	-80.5	132	2
2023-08-24T00:00	30124	12	-42.0	-80.4	140	2
2023-08-24T00:00	30158	12	-41.8	-80.3	188	1
2023-08-24T00:00	30189	12	-41.7	-80.2	243	1
2023-08-24T00:00	30219	12	-41.6	-80.1	270	2
2023-08-24T00:00	30240	12	-41.5	-80.1	282	2
2023-08-24T00:00	30260	12	-41.3	-79.9	290	2
2023-08-24T00:00	30308	12	-41.0	-79.7	298	2
2023-08-24T00:00	30332	12	-40.7	-79.5	309	2
2023-08-24T00:00	30355	12	-40.3	-79.2	323	1
2023-08-24T00:00	30375	12	-40.3	-79.2	345	1
2023-08-24T00:00	30412	12	-40.3	-79.2	17	1
2023-08-24T00:00	30429	12	-40.2	-79.2	52	1
2023-08-24T00:00	30465	12	-40.3	-79.2	79	1
2023-08-24T00:00	30487	12	-40.3	-79.2	94	1
2023-08-24T00:00	30534	12	-40.4	-79.3	101	1
2023-08-24T00:00	30559	12	-40.5	-79.4	97	1
2023-08-24T00:00	30599	11	-40.4	-79.3	84	1
2023-08-24T00:00	30624	11	-40.3	-79.2	61	1
2023-08-24T00:00	30643	11	-40.1	-79.1	40	1
2023-08-24T00:00	30663	11	-40.0	-79.0	27	2
2023-08-24T00:00	30697	11	-40.0	-79.0	21	3
2023-08-24T00:00	30718	11	-39.9	-79.0	18	4
2023-08-24T00:00	30763	11	-39.9	-79.0	17	4
2023-08-24T00:00	30774	11	-39.9	-79.0	18	5
2023-08-24T00:00	30792	11	-39.8	-78.9	21	6
2023-08-24T00:00	30838	11	-39.7	-78.8	26	6
2023-08-24T00:00	30867	11	-39.8	-78.9	32	7
2023-08-24T00:00	30902	11	-39.9	-79.0	46	7
2023-08-24T00:00	30935	11	-39.8	-78.9	52	8
2023-08-24T00:00	30967	11	-39.7	-78.8	59	7
2023-08-24T00:00	30990	11	-39.7	-78.8	65	7
2023-08-24T00:00	31020	11	-39.8	-78.9	71	7
2023-08-24T00:00	31060	11	-39.9	-79.0	75	7
2023-08-24T00:00	31089	11	-40.0	-79.0	78	6
2023-08-24T00:00	31121	11	-40.2	-79.2	77	5
2023-08-24T00:00	31160	11	-40.1	-79.1	76	5
2023-08-24T00:00	31188	11	-40.0	-79.0	77	5
2023-08-24T00:00	31207	10	-40.0	-79.0	81	5
2023-08-24T00:00	31241	10	-40.1	-79.1	88	4
2023-08-24T00:00	31268	10	-40.2	-79.2	95	4
2023-08-24T00:00	31287	10	-40.3	-79.2	100	4
2023-08-24T00:00	31316	10	-40.5	-79.4	102	4
2023-08-24T00:00	31346	10	-40.5	-79.4	101	4
2023-08-24T00:00	31375	10	-40.5	-79.4	97	4
2023-08-24T00:00	31394	10	-40.6	-79.5	90	3
2023-08-24T00:00	31417	10	-40.6	-79.5	80	3
2023-08-24T00:00	31432	10	-40.6	-79.5	67	3
2023-08-24T00:00	31471	10	-40.3	-79.2	52	3
2023-08-24T00:00	31498	10	-40.2	-79.2	36	2
2023-08-24T00:00	31532	10	-40.1	-79.1	24	2
2023-08-24T00:00	31555	10	-40.1	-79.1	15	3
2023-08-24T00:00	31581	10	-40.0	-79.0	12	3
2023-08-24T00:00	31607	10	-39.9	-79.0	15	3
2023-08-24T00:00	31633	10	-39.9	-79.0	22	3
2023-08-24T00:00	31657	10	-39.6	-78.8	31	3
2023-08-24T00:00	31673	10	-39.5	-78.7	38	4
2023-08-24T00:00	31707	10	-39.5	-78.7	46	4
2023-08-24T00:00	31738	10	-39.5	-78.7	53	4
2023-08-24T00:00	31762	10	-39.6	-78.8	61	4
2023-08-24T00:00	31796	10	-39.6	-78.8	70	4
2023-08-24T00:00	31810	10	-39.7	-78.8	80	4
2023-08-24T00:00	31838	10	-39.8	-78.9	91	4
2023-08-24T00:00	31863	10	-39.7	-78.8	99	5
2023-08-24T00:00	31869	10	-39.6	-78.8	104	5
2023-08-24T00:00	31916	9	-39.7	-78.8	108	5
2023-08-24T00:00	31938	9	-39.7	-78.8	112	5
2023-08-24T00:00	31962	9	-39.9	-79.0	115	6
2023-08-24T00:00	31998	9	-39.9	-79.0	119	6
2023-08-24T00:00	32039	9	-40.0	-79.0	122	6
2023-08-24T00:00	32070	9	-40.1	-79.1	129	6
2023-08-24T00:00	32091	9	-40.2	-79.2	133	7
2023-08-24T00:00	32121	9	-40.2	-79.2	138	7
2023-08-24T00:00	32146	9	-40.2	-79.2	143	7
2023-08-24T00:00	32183	9	-40.2	-79.2	149	7
2023-08-24T00:00	32193	9	-40.1	-79.1	155	7
2023-08-24T00:00	32234	9	-40.1	-79.1	159	8
2023-08-24T00:00	32245	9	-40.1	-79.1	163	8
2023-08-24T00:00	32285	9	-39.9	-79.0	166	8
2023-08-24T00:00	32317	9	-39.6	-78.8	168	8
2023-08-24T00:00	32336	9	-39.4	-78.6	170	7
2023-08-24T00:00	32352	9	-39.4	-78.6	171	7
2023-08-24T00:00	32382	9	-39.4	-78.6	171	6
2023-08-24T00:00	32408	9	-39.4	-78.6	172	5
2023-08-24T00:00	32436	9	-39.5	-78.7	171	4
2023-08-24T00:00	32447	9	-39.5	-78.7	168	4
2023-08-24T00:00	32464	9	-39.5	-78.7	163	3
2023-08-24T00:00	32497	9	-39.5	-78.7	156	2
2023-08-24T00:00	32528	9	-39.4	-78.6	147	2
2023-08-24T00:00	32534	9	-39.3	-78.5	135	1
2023-08-24T00:00	32574	9	-39.3	-78.5	128	1
2023-08-24T00:00	32613	9	-39.2	-78.5	123	1
2023-08-24T00:00	32636	9	-39.1	-78.4	120	1
2023-08-24T00:00	32656	8	-39.1	-78.4	122	1
2023-08-24T00:00	32673	8	-39.2	-78.5	119	1
2023-08-24T00:00	32730	8	-39.3	-78.5	115	1
2023-08-24T00:00	32734	8	-39.4	-78.6	108	1
2023-08-24T00:00	32771	8	-39.6	-78.8	86	0
2023-08-24T00:00	32776	8	-39.7	-78.8	69	0
2023-08-24T00:00	32832	8	-39.8	-78.9	50	1
2023-08-24T00:00	32833	8	-39.8	-78.9	44	1
2023-08-24T00:00	32858	8	-39.7	-78.8	43	1
2023-08-24T00:00	32899	8	-39.6	-78.8	41	1
2023-08-24T00:00	32925	8	-39.7	-78.8	47	1
2023-08-24T00:00	32929	8	-39.7	-78.8	53	1
2023-08-24T00:00	32977	8	-39.8	-78.9	61	1
2023-08-24T00:00	33008	8	-39.9	-79.0	72	2
2023-08-24T00:00	33018	8	-39.9	-79.0	80	2
2023-08-24T00:00	33046	8	-39.9	-79.0	88	2
2023-08-24T00:00	33069	8	-39.9	-79.0	98	2
2023-08-24T00:00	33076	8	-39.9	-79.0	107	3
2023-08-24T00:00	33106	8	-39.9	-79.0	117	3
2023-08-24T00:00	33154	8	-39.9	-79.0	129	3
2023-08-24T00:00	33158	8	-40.0	-79.0	139	4
2023-08-24T00:00	33192	8	-40.1	-79.1	148	4
2023-08-24T00:00	33203	8	-40.1	-79.1	156	5
2023-08-24T00:00	33224	8	-40.2	-79.2	163	5
2023-08-24T00:00	33267	8	-40.2	-79.2	168	6
2023-08-24T00:00	33310	8	-40.2	-79.2	174	6
2023-08-24T00:00	33359	8	-40.0	-79.0	176	6
2023-08-24T00:00	33386	8	-39.7	-78.8	177	6
2023-08-24T00:00	33404	8	-39.6	-78.8	177	5
2023-08-24T00:00	33448	8	-39.7	-78.8	177	4
2023-08-24T00:00	33462	8	-39.6	-78.8	177	4
2023-08-24T00:00	33469	8	-39.5	-78.7	176	3
2023-08-24T00:00	33495	8	-39.4	-78.6	172	3
2023-08-24T00:00	33531	7	-39.3	-78.5	167	2
2023-08-24T06:00	112	1005	16.9	13.4	190	2
2023-08-24T06:00	137	1002	17.1	12.5	214	2
2023-08-24T06:00	161	999	19.6	10.9	209	2
2023-08-24T06:00	190	996	20.1	10.5	209	3
2023-08-24T06:00	209	994	20.4	10.2	211	3
2023-08-24T06:00	234	991	20.7	9.6	214	3
2023-08-24T06:00	258	988	20.5	10.0	217	3
2023-08-24T06:00	284	986	20.4	10.1	219	4
2023-08-24T06:00	308	983	20.3	10.4	221	4
2023-08-24T06:00	333	980	20.1	9.9	221	4
2023-08-24T06:00	358	977	19.9	9.8	221	4
2023-08-24T06:00	381	974	19.7	10.3	220	4
2023-08-24T06:00	407	972	19.4	10.1	221	3
2023-08-24T06:00	433	969	19.2	10.1	222	3
2023-08-24T06:00	458	966	19.0	9.9	223	3
2023-08-24T06:00	485	963	18.8	9.7	225	3
2023-08-24T06:00	510	960	18.6	9.5	226	3
2023-08-24T06:00	538	957	18.5	9.5	227	3
2023-08-24T06:00	566	954	18.2	9.7	228	3
2023-08-24T06:00	594	951	18.0	10.2	230	3
2023-08-24T06:00	618	948	17.8	10.1	234	3
2023-08-24T06:00	647	945	17.5	9.7	240	2
2023-08-24T06:00	676	942	17.4	9.3	248	2
2023-08-24T06:00	703	939	17.2	9.0	258	2
2023-08-24T06:00	729	936	17.1	8.1	265	2
2023-08-24T06:00	757	933	16.9	8.0	268	2
2023-08-24T06:00	784	930	16.6	8.1	269	2
2023-08-24T06:00	812	927	16.5	7.3	270	2
2023-08-24T06:00	844	923	16.3	6.3	276	2
2023-08-24T06:00	872	920	16.1	6.6	288	2
2023-08-24T06:00	897	917	15.8	7.0	301	2
2023-08-24T06:00	927	914	15.6	6.6	310	2
2023-08-24T06:00	954	911	15.5	6.5	314	3
2023-08-24T06:00	981	908	15.3	5.9	314	3
2023-08-24T06:00	1011	905	15.0	6.2	312	3
2023-08-24T06:00	1038	902	14.7	6.3	308	3
2023-08-24T06:00	1069	899	14.5	6.6	304	3
2023-08-24T06:00	1095	896	14.2	6.6	297	3
2023-08-24T06:00	1123	893	14.0	6.3	290	3
2023-08-24T06:00	1151	890	13.7	6.3	283	3
2023-08-24T06:00	1179	887	13.5	6.3	277	2
2023-08-24T06:00	1205	885	13.3	6.1	274	2
2023-08-24T06:00	1232	882	13.1	6.0	275	2
2023-08-24T06:00	1256	879	12.9	6.0	278	2
2023-08-24T06:00	1283	876	12.7	6.1	283	3
2023-08-24T06:00	1312	873	12.4	6.0	288	3
2023-08-24T06:00	1341	870	12.2	5.8	291	3
2023-08-24T06:00	1368	868	12.0	5.8	292	3
2023-08-24T06:00	1394	865	11.8	5.9	291	4
2023-08-24T06:00	1423	862	11.6	5.7	288	4
2023-08-24T06:00	1452	859	11.3	5.0	284	4
2023-08-24T06:00	1480	856	11.3	4.2	280	4
2023-08-24T06:00	1510	853	11.3	2.9	277	5
2023-08-24T06:00	1541	850	11.3	1.8	274	5
2023-08-24T06:00	1569	847	11.3	1.5	273	5
2023-08-24T06:00	1597	844	11.4	3.7	273	5
2023-08-24T06:00	1622	842	11.3	4.7	273	5
2023-08-24T06:00	1652	839	11.1	5.3	274	5
2023-08-24T06:00	1682	836	11.0	4.4	275	5
2023-08-24T06:00	1707	833	10.8	4.9	274	5
2023-08-24T06:00	1737	830	10.6	4.8	274	5
2023-08-24T06:00	1764	827	10.4	4.3	273	5
2023-08-24T06:00	1793	825	10.2	4.1	273	5
2023-08-24T06:00	1822	822	10.0	5.2	274	5
2023-08-24T06:00	1851	819	9.9	5.3	276	5
2023-08-24T06:00	1880	816	9.6	5.3	278	5
2023-08-24T06:00	1911	813	9.3	5.2	280	5
2023-08-24T06:00	1938	810	9.1	5.2	283	5
2023-08-24T06:00	1967	807	8.8	5.0	286	5
2023-08-24T06:00	1996	805	8.6	4.8	289	6
2023-08-24T06:00	2026	802	8.6	5.0	292	6
2023-08-24T06:00	2055	799	8.4	5.0	295	7
2023-08-24T06:00	2083	796	8.3	5.1	296	7
2023-08-24T06:00	2116	793	8.2	5.2	298	8
2023-08-24T06:00	2146	790	7.9	5.2	299	9
2023-08-24T06:00	2171	788	7.7	5.3	299	9
2023-08-24T06:00	2202	785	7.6	5.3	300	10
2023-08-24T06:00	2230	782	7.5	5.3	300	11
2023-08-24T06:00	2261	779	7.3	5.2	299	11
2023-08-24T06:00	2290	776	7.1	5.1	298	11
2023-08-24T06:00	2321	774	6.8	5.1	297	11
2023-08-24T06:00	2354	771	6.6	5.0	296	11
2023-08-24T06:00	2385	768	6.4	4.9	295	12
2023-08-24T06:00	2415	765	6.1	4.5	295	12
2023-08-24T06:00	2444	762	5.9	4.7	295	12
2023-08-24T06:00	2470	760	5.6	4.4	296	12
2023-08-24T06:00	2502	757	5.3	4.5	296	12
2023-08-24T06:00	2529	754	5.1	4.1	297	13
2023-08-24T06:00	2555	752	4.8	4.1	298	13
2023-08-24T06:00	2585	749	4.6	3.9	298	13
2023-08-24T06:00	2614	746	4.3	3.9	298	13
2023-08-24T06:00	2648	743	4.0	3.9	298	13
2023-08-24T06:00	2676	741	3.8	3.8	298	13
2023-08-24T06:00	2706	738	3.6	3.6	297	12
2023-08-24T06:00	2734	736	3.4	3.4	295	12
2023-08-24T06:00	2762	733	3.3	3.3	294	12
2023-08-24T06:00	2789	731	3.1	3.1	293	12
2023-08-24T06:00	2820	728	2.9	2.9	292	13
2023-08-24T06:00	2854	725	2.7	2.7	291	13
2023-08-24T06:00	2887	722	2.5	2.5	291	13
2023-08-24T06:00	2917	719	2.4	2.4	290	14
2023-08-24T06:00	2952	716	2.0	2.0	289	15
2023-08-24T06:00	2982	713	2.0	1.5	287	15
2023-08-24T06:00	3012	711	3.5	0.4	286	16
2023-08-24T06:00	3043	708	3.5	0.8	284	16
2023-08-24T06:00	3070	706	3.3	0.7	283	16
2023-08-24T06:00	3100	703	3.1	0.6	283	16
2023-08-24T06:00	3127	701	2.9	0.6	282	16
2023-08-24T06:00	3156	698	2.8	0.7	282	16
2023-08-24T06:00	3183	696	2.7	0.5	282	16
2023-08-24T06:00	3218	693	2.6	-0.2	282	16
2023-08-24T06:00	3245	691	2.6	-0.5	281	16
2023-08-24T06:00	3274	688	2.4	-0.8	280	16
2023-08-24T06:00	3299	686	2.3	-1.1	280	16
2023-08-24T06:00	3327	684	2.1	-1.2	279	16
2023-08-24T06:00	3356	681	1.9	-1.3	278	16
2023-08-24T06:00	3385	679	1.6	-1.5	277	15
2023-08-24T06:00	3410	677	1.5	-1.7	277	15
2023-08-24T06:00	3437	674	1.3	-1.8	277	15
2023-08-24T06:00	3463	672	1.1	-1.7	277	15
2023-08-24T06:00	3491	670	1.1	-2.2	278	15
2023-08-24T06:00	3519	668	1.0	-2.3	278	15
2023-08-24T06:00	3544	665	0.9	-2.4	279	15
2023-08-24T06:00	3572	663	0.8	-3.0	280	15
2023-08-24T06:00	3599	661	0.8	-5.5	280	15
2023-08-24T06:00	3625	659	1.3	-13.3	281	15
2023-08-24T06:00	3650	657	1.5	-20.3	281	16
2023-08-24T06:00	3676	655	1.5	-18.6	281	16
2023-08-24T06:00	3709	652	1.5	-19.1	282	16
2023-08-24T06:00	3732	650	1.6	-19.6	283	16
2023-08-24T06:00	3762	648	1.5	-18.9	284	16
2023-08-24T06:00	3791	645	1.4	-15.2	285	16
2023-08-24T06:00	3819	643	1.1	-12.5	286	16
2023-08-24T06:00	3845	641	0.9	-11.9	287	16
2023-08-24T06:00	3874	639	1.0	-11.7	289	17
2023-08-24T06:00	3901	637	1.0	-12.6	290	17
2023-08-24T06:00	3929	634	1.0	-13.0	291	17
2023-08-24T06:00	3954	632	0.8	-13.1	292	17
2023-08-24T06:00	3983	630	0.6	-13.2	292	17
2023-08-24T06:00	4012	628	0.4	-13.5	293	17
2023-08-24T06:00	4039	626	0.3	-13.8	292	17
2023-08-24T06:00	4065	624	0.1	-14.5	292	17
2023-08-24T06:00	4096	621	0.0	-15.0	291	18
2023-08-24T06:00	4125	619	-0.1	-15.2	291	18
2023-08-24T06:00	4152	617	-0.2	-15.8	290	18
2023-08-24T06:00	4181	615	-0.5	-15.7	289	18
2023-08-24T06:00	4210	613	-0.7	-15.6	289	18
2023-08-24T06:00	4237	610	-0.9	-16.1	289	18
2023-08-24T06:00	4266	608	-1.2	-15.9	289	18
2023-08-24T06:00	4293	606	-1.4	-15.4	289	18
2023-08-24T06:00	4321	604	-1.5	-15.0	290	18
2023-08-24T06:00	4349	602	-1.7	-15.1	291	18
2023-08-24T06:00	4378	600	-1.9	-15.3	292	18
2023-08-24T06:00	4407	598	-2.0	-15.7	294	18
2023-08-24T06:00	4437	595	-2.3	-16.2	296	19
2023-08-24T06:00	4469	593	-2.4	-16.7	297	19
2023-08-24T06:00	4495	591	-2.7	-16.8	297	19
2023-08-24T06:00	4521	589	-2.8	-17.0	296	19
2023-08-24T06:00	4547	587	-2.9	-17.0	296	19
2023-08-24T06:00	4574	585	-2.8	-18.9	295	19
2023-08-24T06:00	4601	583	-2.9	-19.9	294	19
2023-08-24T06:00	4629	581	-3.1	-20.3	294	19
2023-08-24T06:00	4657	579	-3.3	-20.6	294	19
2023-08-24T06:00	4686	577	-3.6	-20.7	294	19
2023-08-24T06:00	4715	575	-3.7	-20.9	294	19
2023-08-24T06:00	4744	573	-3.8	-22.5	295	19
2023-08-24T06:00	4770	571	-3.8	-23.6	295	20
2023-08-24T06:00	4802	569	-4.0	-24.1	295	19
2023-08-24T06:00	4826	567	-4.2	-23.7	295	19
2023-08-24T06:00	4856	565	-4.4	-23.0	296	19
2023-08-24T06:00	4884	563	-4.6	-22.2	296	19
2023-08-24T06:00	4911	561	-4.8	-23.0	297	20
2023-08-24T06:00	4934	559	-5.0	-23.6	297	20
2023-08-24T06:00	4963	557	-5.2	-24.0	297	20
2023-08-24T06:00	4989	555	-5.4	-23.4	298	21
2023-08-24T06:00	5012	553	-5.6	-22.9	298	21
2023-08-24T06:00	5040	552	-5.7	-23.5	298	21
2023-08-24T06:00	5066	550	-5.9	-23.4	298	20
2023-08-24T06:00	5098	547	-6.2	-23.6	298	20
2023-08-24T06:00	5126	545	-6.4	-23.0	297	20
2023-08-24T06:00	5156	543	-6.6	-22.9	296	20
2023-08-24T06:00	5179	542	-6.8	-23.0	295	20
2023-08-24T06:00	5208	540	-7.0	-24.1	294	20
2023-08-24T06:00	5233	538	-7.1	-24.2	294	20
2023-08-24T06:00	5257	536	-7.3	-24.4	295	20
2023-08-24T06:00	5287	534	-7.4	-25.6	295	20
2023-08-24T06:00	5315	532	-7.6	-25.3	296	20
2023-08-24T06:00	5344	530	-7.7	-25.9	296	20
2023-08-24T06:00	5368	529	-7.7	-29.3	296	20
2023-08-24T06:00	5394	527	-7.9	-30.3	296	20
2023-08-24T06:00	5417	525	-8.1	-29.4	295	21
2023-08-24T06:00	5439	524	-8.3	-28.7	295	21
2023-08-24T06:00	5460	523	-8.5	-28.7	294	21
2023-08-24T06:00	5482	521	-8.7	-28.5	293	21
2023-08-24T06:00	5512	519	-8.9	-28.5	293	21
2023-08-24T06:00	5539	517	-9.1	-28.1	292	21
2023-08-24T06:00	5568	515	-9.3	-26.6	292	20
2023-08-24T06:00	5593	514	-9.5	-23.3	292	20
2023-08-24T06:00	5620	512	-9.7	-22.4	292	20
2023-08-24T06:00	5643	510	-9.9	-23.1	292	20
2023-08-24T06:00	5668	509	-10.0	-22.0	292	21
2023-08-24T06:00	5697	507	-10.2	-18.1	292	21
2023-08-24T06:00	5727	505	-10.4	-19.5	293	21
2023-08-24T06:00	5760	503	-10.6	-23.2	293	21
2023-08-24T06:00	5788	501	-10.8	-22.9	293	21
2023-08-24T06:00	5815	499	-10.8	-26.6	293	21
2023-08-24T06:00	5844	497	-11.0	-22.3	293	21
2023-08-24T06:00	5871	495	-11.2	-22.3	293	21
2023-08-24T06:00	5903	493	-11.4	-22.1	293	21
2023-08-24T06:00	5931	492	-11.6	-20.8	293	21
2023-08-24T06:00	5960	490	-11.8	-21.9	293	21
2023-08-24T06:00	5988	488	-11.9	-22.2	293	21
2023-08-24T06:00	6013	486	-12.2	-22.4	293	21
2023-08-24T06:00	6038	485	-12.3	-22.7	293	21
2023-08-24T06:00	6061	483	-12.4	-24.1	293	21
2023-08-24T06:00	6084	482	-12.5	-27.8	293	22
2023-08-24T06:00	6105	480	-12.6	-25.6	294	22
2023-08-24T06:00	6133	479	-12.9	-24.3	294	22
2023-08-24T06:00	6156	477	-13.1		294	22
2023-08-24T06:00	6182	476	-13.3	-24.0	293	22
2023-08-24T06:00	6205	474	-13.5	-23.8	293	22
2023-08-24T06:00	6229	473	-13.7	-24.3	293	23
2023-08-24T06:00	6255	471	-13.9	-24.7	293	23
2023-08-24T06:00	6286	469	-14.1	-25.6	292	23
2023-08-24T06:00	6311	468	-14.3	-25.4	291	23
2023-08-24T06:00	6335	466	-14.5	-24.8	291	24
2023-08-24T06:00	6361	465	-14.7	-25.4	290	24
2023-08-24T06:00	6393	463	-14.9	-26.1	290	25
2023-08-24T06:00	6417	461	-15.1	-26.4	291	25
2023-08-24T06:00	6445	460	-15.4	-26.6	291	25
2023-08-24T06:00	6468	458	-15.6	-26.8	292	25
2023-08-24T06:00	6494	456	-15.8	-26.9	292	25
2023-08-24T06:00	6524	455	-16.1	-26.5	293	25
2023-08-24T06:00	6558	453	-16.4	-25.0	293	25
2023-08-24T06:00	6585	451	-16.6	-21.8	293	25
2023-08-24T06:00	6608	450	-16.8	-22.6	294	25
2023-08-24T06:00	6633	448	-16.9	-22.3	294	25
2023-08-24T06:00	6660	447	-17.1	-22.6	295	26
2023-08-24T06:00	6686	445	-17.2	-23.2	296	26
2023-08-24T06:00	6715	443	-17.3	-23.9	297	26
2023-08-24T06:00	6743	442	-17.3	-24.0	298	26
2023-08-24T06:00	6770	440	-17.5	-24.0	299	26
2023-08-24T06:00	6796	438	-17.8	-24.1	299	26
2023-08-24T06:00	6829	437	-18.0	-23.7	299	27
2023-08-24T06:00	6859	435	-18.3	-23.6	298	26
2023-08-24T06:00	6889	433	-18.5	-24.5	298	26
2023-08-24T06:00	6911	432	-18.6	-24.7	297	26
2023-08-24T06:00	6933	430	-18.6	-25.0	297	26
2023-08-24T06:00	6963	429	-18.8	-25.3	298	26
2023-08-24T06:00	7000	427	-19.1	-26.0	298	26
2023-08-24T06:00	7030	425	-19.3	-26.3	297	26
2023-08-24T06:00	7051	424	-19.5	-26.2	297	26
2023-08-24T06:00	7082	422	-19.7	-26.0	296	26
2023-08-24T06:00	7107	421	-19.9	-26.3	296	26
2023-08-24T06:00	7131	419	-20.1	-26.6	296	26
2023-08-24T06:00	7158	418	-20.2	-27.3	296	26
2023-08-24T06:00	7189	416	-20.4	-27.4	296	26
2023-08-24T06:00	7209	415	-20.6	-27.5	296	27
2023-08-24T06:00	7234	413	-20.9	-27.5	296	27
2023-08-24T06:00	7261	412	-21.1	-27.4	296	27
2023-08-24T06:00	7286	410	-21.3	-27.6	296	27
2023-08-24T06:00	7322	409	-21.6	-28.4	296	26
2023-08-24T06:00	7348	407	-21.7	-28.6	296	26
2023-08-24T06:00	7373	406	-22.0		296	26
2023-08-24T06:00	7409	404	-22.2	-28.9	295	26
2023-08-24T06:00	7443	402	-22.4	-29.7	294	26
2023-08-24T06:00	7470	400	-22.6	-29.9	293	26
2023-08-24T06:00	7497	399	-22.9	-30.0	292	27
2023-08-24T06:00	7523	397	-23.1	-30.0	291	27
2023-08-24T06:00	7552	396	-23.4	-30.1	291	27
2023-08-24T06:00	7578	395	-23.6	-30.7	291	27
2023-08-24T06:00	7604	393	-23.8	-30.7	291	27
2023-08-24T06:00	7630	392	-24.0	-31.0	290	27
2023-08-24T06:00	7656	390	-24.2	-31.1	289	27
2023-08-24T06:00	7690	389	-24.5	-31.5	288	27
2023-08-24T06:00	7715	387	-24.7	-32.0	286	28
2023-08-24T06:00	7738	386	-24.7	-32.3	285	28
2023-08-24T06:00	7763	385	-24.9	-32.3	285	28
2023-08-24T06:00	7791	383	-25.0	-32.1	284	28
2023-08-24T06:00	7821	382	-25.3	-32.5	284	28
2023-08-24T06:00	7846	380	-25.5	-32.9	284	28
2023-08-24T06:00	7871	379	-25.7	-33.3	284	28
2023-08-24T06:00	7894	378	-25.9	-32.6	285	29
2023-08-24T06:00	7918	376	-26.1	-32.5	285	29
2023-08-24T06:00	7942	375	-26.3	-32.7	285	29
2023-08-24T06:00	7970	374	-26.5	-33.0	285	29
2023-08-24T06:00	7999	372	-26.8	-33.4	286	29
2023-08-24T06:00	8031	371	-27.0	-33.5	286	29
2023-08-24T06:00	8059	369	-27.3	-33.6	287	29
2023-08-24T06:00	8084	368	-27.6	-33.9	288	29
2023-08-24T06:00	8107	367	-27.8	-34.2	288	29
2023-08-24T06:00	8131	366	-28.0	-34.4	288	28
2023-08-24T06:00	8155	364	-28.2	-34.6	288	28
2023-08-24T06:00	8176	363	-28.4	-34.6	287	28
2023-08-24T06:00	8200	362	-28.7	-34.8	287	27
2023-08-24T06:00	8223	361	-28.9	-34.8	286	27
2023-08-24T06:00	8249	360	-29.1	-34.8	286	27
2023-08-24T06:00	8275	358	-29.4	-35.0	286	28
2023-08-24T06:00	8307	357	-29.7	-35.1	286	28
2023-08-24T06:00	8327	356	-29.9	-35.3	286	28
2023-08-24T06:00	8351	354	-30.1	-35.4	286	28
2023-08-24T06:00	8377	353	-30.4	-35.5	287	28
2023-08-24T06:00	8409	352	-30.6	-35.7	287	28
2023-08-24T06:00	8442	350	-30.9	-36.3	288	28
2023-08-24T06:00	8474	348	-31.2	-37.2	288	28
2023-08-24T06:00	8501	347	-31.4	-37.4	288	28
2023-08-24T06:00	8530	346	-31.6	-37.8	287	28
2023-08-24T06:00	8559	344	-31.9	-38.2	286	28
2023-08-24T06:00	8583	343	-32.1	-38.4	286	28
2023-08-24T06:00	8608	342	-32.3	-38.4	286	28
2023-08-24T06:00	8632	341	-32.5	-38.5	286	28
2023-08-24T06:00	8657	340	-32.7	-38.6	287	28
2023-08-24T06:00	8680	338	-32.9	-38.6	288	28
2023-08-24T06:00	8701	337	-33.1	-38.8	289	28
2023-08-24T06:00	8731	336	-33.4	-39.0	289	29
2023-08-24T06:00	8757	335	-33.6	-39.7	290	29
2023-08-24T06:00	8781	334	-33.8	-40.2	291	29
2023-08-24T06:00	8809	332	-34.1	-40.1	292	29
2023-08-24T06:00	8841	331	-34.4	-40.5	293	29
2023-08-24T06:00	8872	329	-34.6	-41.0	294	29
2023-08-24T06:00	8906	328	-34.9	-41.2	296	29
2023-08-24T06:00	8936	326	-35.2	-41.7	297	29
2023-08-24T06:00	8970	325	-35.4	-42.1	298	29
2023-08-24T06:00	8999	323	-35.6	-42.9	299	29
2023-08-24T06:00	9021	322	-35.8	-43.6	300	29
2023-08-24T06:00	9048	321	-35.9	-44.4	301	29
2023-08-24T06:00	9073	320	-36.1	-44.2	301	29
2023-08-24T06:00	9099	319	-36.3	-44.0	301	29
2023-08-24T06:00	9125	317	-36.5	-44.0	301	29
2023-08-24T06:00	9151	316	-36.8	-44.0	301	29
2023-08-24T06:00	9176	315	-37.0	-43.9	300	29
2023-08-24T06:00	9207	314	-37.3	-43.9	300	28
2023-08-24T06:00	9233	312	-37.6	-44.0	300	28
2023-08-24T06:00	9264	311	-37.8	-44.0	299	27
2023-08-24T06:00	9288	310	-38.1	-44.0	299	27
2023-08-24T06:00	9322	309	-38.4	-43.9	298	26
2023-08-24T06:00	9353	307	-38.6	-44.2	298	26
2023-08-24T06:00	9376	306	-38.8	-44.3	296	26
2023-08-24T06:00	9405	305	-39.1	-44.5	295	26
2023-08-24T06:00	9431	304	-39.3	-44.7	294	27
2023-08-24T06:00	9459	302	-39.5	-45.0	293	27
2023-08-24T06:00	9482	301	-39.7	-45.8	292	26
2023-08-24T06:00	9506	300	-39.8	-47.3	291	26
2023-08-24T06:00	9533	299	-39.5	-49.2	291	26
2023-08-24T06:00	9557	298	-39.5	-47.7	291	26
2023-08-24T06:00	9579	297	-39.7	-47.8	291	26
2023-08-24T06:00	9600	296	-39.8	-47.7	292	26
2023-08-24T06:00	9620	295	-40.0	-47.9	292	26
2023-08-24T06:00	9640	295	-40.2	-48.1	291	26
2023-08-24T06:00	9661	294	-40.3	-47.8	291	26
2023-08-24T06:00	9684	293	-40.4	-46.8	290	26
2023-08-24T06:00	9704	292	-40.5	-47.3	290	26
2023-08-24T06:00	9723	291	-40.6	-47.6	290	26
2023-08-24T06:00	9744	290	-40.8	-47.6	290	26
2023-08-24T06:00	9765	289	-40.9	-47.7	289	26
2023-08-24T06:00	9790	288	-41.1	-47.8	289	26
2023-08-24T06:00	9813	287	-41.3	-47.8	289	26
2023-08-24T06:00	9838	286	-41.6	-47.9	289	26
2023-08-24T06:00	9861	285	-41.8	-48.1	289	25
2023-08-24T06:00	9884	284	-42.0		289	25
2023-08-24T06:00	9907	283	-42.2	-48.1	289	25
2023-08-24T06:00	9929	282	-42.3	-48.5	289	25
2023-08-24T06:00	9952	281	-42.5	-49.0	289	25
2023-08-24T06:00	9978	280	-42.7	-49.0	289	25
2023-08-24T06:00	10004	279	-43.0	-49.1	289	25
2023-08-24T06:00	10024	278	-43.2	-49.1	288	25
2023-08-24T06:00	10051	277	-43.4	-48.9	288	25
2023-08-24T06:00	10072	276	-43.6	-49.0	288	25
2023-08-24T06:00	10096	275	-43.9	-49.3	288	25
2023-08-24T06:00	10118	274	-44.0	-49.6	287	25
2023-08-24T06:00	10137	274	-44.2	-49.7	287	25
2023-08-24T06:00	10157	273	-44.3	-49.9	287	25
2023-08-24T06:00	10181	272	-44.5	-50.0	286	25
2023-08-24T06:00	10204	271	-44.7	-50.5	286	25
2023-08-24T06:00	10225	270	-44.8	-50.9	285	25
2023-08-24T06:00	10252	269	-45.0	-51.3	284	25
2023-08-24T06:00	10277	268	-45.2	-52.0	284	25
2023-08-24T06:00	10297	267	-45.3	-52.2	284	26
2023-08-24T06:00	10320	266	-45.4	-51.9	283	26
2023-08-24T06:00	10340	265	-45.6	-52.0	283	26
2023-08-24T06:00	10360	265	-45.7	-52.1	283	27
2023-08-24T06:00	10385	264	-45.9	-52.4	283	27
2023-08-24T06:00	10407	263	-46.1	-52.6	283	28
2023-08-24T06:00	10433	262	-46.3	-53.0	283	28
2023-08-24T06:00	10469	261	-46.5	-53.3	284	29
2023-08-24T06:00	10489	260	-46.7	-53.4	284	29
2023-08-24T06:00	10517	259	-47.0	-53.5	285	29
2023-08-24T06:00	10543	258	-47.2	-53.5	285	29
2023-08-24T06:00	10567	257	-47.4	-53.6	286	29
2023-08-24T06:00	10592	256	-47.6	-53.6	286	29
2023-08-24T06:00	10617	255	-47.8	-53.7	287	29
2023-08-24T06:00	10641	254	-48.0	-53.9	287	29
2023-08-24T06:00	10664	253	-48.2	-54.1	288	29
2023-08-24T06:00	10689	252	-48.4	-54.2	288	30
2023-08-24T06:00	10712	251	-48.6	-54.4	289	30
2023-08-24T06:00	10739	250	-48.8	-54.4	289	30
2023-08-24T06:00	10768	249	-49.0	-54.3	289	30
2023-08-24T06:00	10801	248	-49.3	-54.5	289	30
2023-08-24T06:00	10825	247	-49.4	-55.0	289	30
2023-08-24T06:00	10846	246	-49.6	-55.1	289	30
2023-08-24T06:00	10869	245	-49.7	-54.6	289	30
2023-08-24T06:00	10892	244	-49.9		288	30
2023-08-24T06:00	10913	243	-50.0	-54.8	288	30
2023-08-24T06:00	10936	242	-50.2	-55.2	287	30
2023-08-24T06:00	10961	242	-50.4	-55.8	287	30
2023-08-24T06:00	10984	241	-50.6	-56.6	286	30
2023-08-24T06:00	11010	240	-50.7	-57.1	286	30
2023-08-24T06:00	11036	239	-50.9	-57.3	286	30
2023-08-24T06:00	11060	238	-51.1	-57.4	286	30
2023-08-24T06:00	11091	237	-51.3	-57.3	285	30
2023-08-24T06:00	11121	236	-51.6	-57.4	285	30
2023-08-24T06:00	11146	235	-51.8	-57.4	285	29
2023-08-24T06:00	11173	234	-52.0	-57.4	285	29
2023-08-24T06:00	11197	233	-52.2	-57.4	284	29
2023-08-24T06:00	11220	232	-52.4	-57.4	284	29
2023-08-24T06:00	11243	231	-52.6	-57.5	284	29
2023-08-24T06:00	11268	230	-52.8	-57.5	284	29
2023-08-24T06:00	11288	230	-53.0	-57.5	284	29
2023-08-24T06:00	11313	229	-53.3	-57.6	285	29
2023-08-24T06:00	11333	228	-53.5	-57.5	285	29
2023-08-24T06:00	11355	227	-53.7	-57.6	286	29
2023-08-24T06:00	11375	227	-53.9	-57.8	286	29
2023-08-24T06:00	11399	226	-54.0	-57.8	286	29
2023-08-24T06:00	11421	225	-54.2	-57.7	287	29
2023-08-24T06:00	11443	224	-54.3	-57.6	287	30
2023-08-24T06:00	11467	223	-54.4	-58.2	287	30
2023-08-24T06:00	11493	222	-54.6	-59.1	286	30
2023-08-24T06:00	11519	222	-54.7	-59.4	286	30
2023-08-24T06:00	11547	221	-54.9	-59.2	286	31
2023-08-24T06:00	11579	220	-55.2	-59.1	285	31
2023-08-24T06:00	11610	218	-55.5	-59.1	285	31
2023-08-24T06:00	11638	217	-55.7	-59.3	285	31
2023-08-24T06:00	11666	217	-55.9	-59.6	286	31
2023-08-24T06:00	11691	216	-56.0	-59.9	286	32
2023-08-24T06:00	11716	215	-56.1	-60.3	287	32
2023-08-24T06:00	11741	214	-56.4	-61.1	287	32
2023-08-24T06:00	11770	213	-56.3	-61.7	287	32
2023-08-24T06:00	11796	212	-56.3	-62.4	288	32
2023-08-24T06:00	11819	211	-56.4	-62.8	288	32
2023-08-24T06:00	11839	211	-56.6	-63.0	288	32
2023-08-24T06:00	11862	210	-56.6	-62.7	288	33
2023-08-24T06:00	11884	209	-56.7	-62.5	288	33
2023-08-24T06:00	11906	209	-56.8	-62.3	289	33
2023-08-24T06:00	11928	208	-56.9	-62.3	289	33
2023-08-24T06:00	11950	207	-56.9	-62.3	289	34
2023-08-24T06:00	11969	206	-57.1	-62.5	288	34
2023-08-24T06:00	11993	206	-57.3	-62.8	288	34
2023-08-24T06:00	12016	205	-57.4	-63.0	288	34
2023-08-24T06:00	12037	204	-57.4	-63.4	288	33
2023-08-24T06:00	12059	204	-57.2	-63.8	288	33
2023-08-24T06:00	12079	203	-57.0	-64.4	288	33
2023-08-24T06:00	12104	202	-56.9	-65.0	287	33
2023-08-24T06:00	12124	201	-56.8	-65.4	287	34
2023-08-24T06:00	12147	201	-56.9	-65.7	287	34
2023-08-24T06:00	12168	200	-56.8	-65.9	286	34
2023-08-24T06:00	12188	199	-56.7	-65.8	286	35
2023-08-24T06:00	12213	199	-56.7	-65.7	286	35
2023-08-24T06:00	12233	198	-56.8	-65.7	286	35
2023-08-24T06:00	12256	197	-56.8	-65.7	286	35
2023-08-24T06:00	12278	197	-56.9	-65.8	286	35
2023-08-24T06:00	12299	196	-57.0	-65.9	286	35
2023-08-24T06:00	12323	195	-57.2	-66.1	287	35
2023-08-24T06:00	12346	195	-57.3	-66.2	287	35
2023-08-24T06:00	12369	194	-57.5	-66.8	287	35
2023-08-24T06:00	12391	193	-57.5	-67.4	287	34
2023-08-24T06:00	12412	192	-57.6	-68.1	287	34
2023-08-24T06:00	12435	192	-57.7	-68.5	287	34
2023-08-24T06:00	12455	191	-57.8	-68.6	287	34
2023-08-24T06:00	12477	190	-57.9	-68.7	287	34
2023-08-24T06:00	12500	190	-58.0	-68.7	287	34
2023-08-24T06:00	12523	189	-58.1	-68.8	287	35
2023-08-24T06:00	12545	188	-58.2	-69.0	286	35
2023-08-24T06:00	12567	188	-58.2	-69.1	286	35
2023-08-24T06:00	12588	187	-58.2	-69.1	285	35
2023-08-24T06:00	12609	187	-58.3	-69.1	285	36
2023-08-24T06:00	12631	186	-58.3	-69.2	285	36
2023-08-24T06:00	12651	185	-58.3	-69.5	285	36
2023-08-24T06:00	12672	185	-58.3	-70.0	286	36
2023-08-24T06:00	12693	184	-58.1	-70.2	286	36
2023-08-24T06:00	12714	183	-58.2	-70.6	287	36
2023-08-24T06:00	12734	183	-58.3	-70.8	287	35
2023-08-24T06:00	12755	182	-58.4	-70.9	287	35
2023-08-24T06:00	12776	182	-58.4	-71.0	287	35
2023-08-24T06:00	12797	181	-58.5	-71.2	287	35
2023-08-24T06:00	12817	180	-58.6	-71.4	287	35
2023-08-24T06:00	12836	180	-58.6	-71.4	287	34
2023-08-24T06:00	12856	179	-58.7	-71.5	287	34
2023-08-24T06:00	12877	179	-58.7	-71.5	287	34
2023-08-24T06:00	12899	178	-58.6	-71.4	287	34
2023-08-24T06:00	12919	178	-58.7	-71.7	287	33
2023-08-24T06:00	12943	177	-58.7	-72.1	287	33
2023-08-24T06:00	12962	176	-58.4	-72.4	286	32
2023-08-24T06:00	12986	176	-58.3	-72.8	285	32
2023-08-24T06:00	13008	175	-58.4	-73.2	284	31
2023-08-24T06:00	13028	175	-58.5	-73.3	283	31
2023-08-24T06:00	13050	174	-58.6	-73.3	282	31
2023-08-24T06:00	13071	173	-58.8	-73.5	281	30
2023-08-24T06:00	13093	173	-58.8	-73.6	280	30
2023-08-24T06:00	13114	172	-58.8	-73.8	279	30
2023-08-24T06:00	13131	172	-58.8	-73.9	279	30
2023-08-24T06:00	13154	171	-58.8	-74.0	279	31
2023-08-24T06:00	13174	171	-58.9	-74.1	279	31
2023-08-24T06:00	13196	170	-59.1	-74.5	279	31
2023-08-24T06:00	13219	169	-59.0	-74.8	280	31
2023-08-24T06:00	13238	169	-58.9	-75.3	280	31
2023-08-24T06:00	13261	168	-58.9	-75.9	281	31
2023-08-24T06:00	13284	168	-58.8	-76.6	281	31
2023-08-24T06:00	13307	167	-58.6	-77.0	282	31
2023-08-24T06:00	13327	166	-58.3	-77.4	283	32
2023-08-24T06:00	13350	166	-58.4	-77.9	283	32
2023-08-24T06:00	13372	165	-58.3	-78.2	284	32
2023-08-24T06:00	13394	165	-58.0	-78.3	285	32
2023-08-24T06:00	13415	164	-57.8	-78.4	285	33
2023-08-24T06:00	13439	164	-57.5	-78.3	286	33
2023-08-24T06:00	13460	163	-57.6	-78.4	286	33
2023-08-24T06:00	13482	162	-57.7	-78.3	287	33
2023-08-24T06:00	13505	162	-57.9	-78.5	288	33
2023-08-24T06:00	13527	161	-58.1	-78.6	289	33
2023-08-24T06:00	13548	161	-58.1	-78.9	291	34
2023-08-24T06:00	13574	160	-57.9	-79.0	292	33
2023-08-24T06:00	13597	159	-57.5	-79.1	293	33
2023-08-24T06:00	13622	159	-57.6	-79.5	294	33
2023-08-24T06:00	13647	158	-57.6	-79.6	294	32
2023-08-24T06:00	13666	158	-57.7	-79.9	295	31
2023-08-24T06:00	13689	157	-57.7	-80.0	295	31
2023-08-24T06:00	13711	157	-57.6	-80.3	295	30
2023-08-24T06:00	13736	156	-57.5	-80.6	296	29
2023-08-24T06:00	13757	155	-57.4	-80.9	296	28
2023-08-24T06:00	13781	155	-57.0	-81.0	295	27
2023-08-24T06:00	13803	154	-57.0	-81.2	294	26
2023-08-24T06:00	13824	154	-56.9	-81.5	293	25
2023-08-24T06:00	13846	153	-56.5	-81.5	292	25
2023-08-24T06:00	13868	153	-56.2	-81.5	290	24
2023-08-24T06:00	13892	152	-56.2	-81.5	289	24
2023-08-24T06:00	13915	152	-56.3	-81.5	287	24
2023-08-24T06:00	13936	151	-56.4	-81.4	286	25
2023-08-24T06:00	13961	151	-56.5	-81.5	285	25
2023-08-24T06:00	13982	150	-56.6	-81.5	284	25
2023-08-24T06:00	14004	149	-56.6	-81.5	283	25
2023-08-24T06:00	14026	149	-56.6	-81.5	283	26
2023-08-24T06:00	14047	148	-56.3	-81.3	283	26
2023-08-24T06:00	14069	148	-56.2	-81.2	284	26
2023-08-24T06:00	14092	147	-56.3	-81.3	284	25
2023-08-24T06:00	14111	147	-56.3	-81.5	285	25
2023-08-24T06:00	14133	146	-56.2	-81.5	285	25
2023-08-24T06:00	14155	146	-56.2	-81.7	285	24
2023-08-24T06:00	14176	145	-56.1	-81.6	285	24
2023-08-24T06:00	14199	145	-56.0	-81.8	285	23
2023-08-24T06:00	14222	144	-55.6	-81.5	285	23
2023-08-24T06:00	14242	144	-55.5	-81.7	285	23
2023-08-24T06:00	14264	144	-55.5	-81.7	285	23
2023-08-24T06:00	14285	143	-55.3	-81.6	285	23
2023-08-24T06:00	14305	143	-55.2	-81.5	286	24
2023-08-24T06:00	14326	142	-55.2	-81.5	287	24
2023-08-24T06:00	14350	142	-55.1	-81.7	288	25
2023-08-24T06:00	14372	141	-55.0	-81.6	289	25
2023-08-24T06:00	14393	141	-55.0	-81.6	289	26
2023-08-24T06:00	14416	140	-55.1	-81.7	290	26
2023-08-24T06:00	14440	140	-55.0	-81.3	290	27
2023-08-24T06:00	14463	139	-55.0	-81.3	291	27
2023-08-24T06:00	14486	139	-55.1	-81.1	291	27
2023-08-24T06:00	14507	138	-55.1	-81.1	291	26
2023-08-24T06:00	14528	138	-55.1	-81.1	291	26
2023-08-24T06:00	14551	137	-54.9	-81.0	291	25
2023-08-24T06:00	14573	137	-54.8	-81.2	291	24
2023-08-24T06:00	14597	136	-54.8	-81.2	291	24
2023-08-24T06:00	14621	136	-54.6	-81.3	290	23
2023-08-24T06:00	14643	135	-54.5	-81.2	289	23
2023-08-24T06:00	14664	135	-54.6	-81.3	288	23
2023-08-24T06:00	14686	134	-54.8	-81.2	286	23
2023-08-24T06:00	14708	134	-54.9	-81.3	284	22
2023-08-24T06:00	14732	133	-54.9	-81.3	282	22
2023-08-24T06:00	14753	133	-54.9	-81.5	280	22
2023-08-24T06:00	14775	132	-55.0	-81.3	279	22
2023-08-24T06:00	14799	132	-55.0	-81.3	278	22
2023-08-24T06:00	14820	132	-54.9	-81.3	279	22
2023-08-24T06:00	14845	131	-54.9	-81.5	281	22
2023-08-24T06:00	14869	131	-54.7	-81.4	282	22
2023-08-24T06:00	14892	130	-54.7	-81.4	284	22
2023-08-24T06:00	14916	130	-54.7	-81.4	286	22
2023-08-24T06:00	14938	129	-54.6	-81.3	286	21
2023-08-24T06:00	14962	129	-54.5	-81.2	286	21
2023-08-24T06:00	14984	128	-54.5	-81.5	285	21
2023-08-24T06:00	15006	128	-54.5	-81.5	284	21
2023-08-24T06:00	15032	127	-54.6	-81.6	282	21
2023-08-24T06:00	15054	127	-54.6	-81.6	280	21
2023-08-24T06:00	15081	126	-54.5	-81.5	279	21
2023-08-24T06:00	15106	126	-54.5	-81.5	277	21
2023-08-24T06:00	15134	125	-54.7	-81.4	276	22
2023-08-24T06:00	15156	125	-54.9	-81.5	276	22
2023-08-24T06:00	15179	124	-55.2	-81.8	276	22
2023-08-24T06:00	15202	124	-55.3	-81.6	277	22
2023-08-24T06:00	15223	124	-55.4	-81.6	277	23
2023-08-24T06:00	15244	123	-55.7	-81.9	278	23
2023-08-24T06:00	15268	123	-55.8	-82.0	279	23
2023-08-24T06:00	15291	122	-56.0	-82.1	280	23
2023-08-24T06:00	15313	122	-56.1	-82.2	280	23
2023-08-24T06:00	15335	121	-56.0	-82.1	279	22
2023-08-24T06:00	15358	121	-56.0	-82.1	278	22
2023-08-24T06:00	15380	121	-56.0	-82.1	276	22
2023-08-24T06:00	15403	120	-56.0	-82.4	275	22
2023-08-24T06:00	15423	120	-55.8	-82.2	274	22
2023-08-24T06:00	15447	119	-55.5	-82.3	273	21
2023-08-24T06:00	15471	119	-55.3	-82.5	272	21
2023-08-24T06:00	15493	118	-54.9	-82.2	272	21
2023-08-24T06:00	15512	118	-54.8	-82.4	272	21
2023-08-24T06:00	15537	118	-54.6	-82.3	271	21
2023-08-24T06:00	15559	117	-54.5	-82.2	271	21
2023-08-24T06:00	15583	117	-54.4	-82.1	272	22
2023-08-24T06:00	15603	116	-54.4	-82.1	272	22
2023-08-24T06:00	15626	116	-54.5	-82.2	272	22
2023-08-24T06:00	15649	116	-54.7	-82.4	273	23
2023-08-24T06:00	15669	115	-54.9	-82.2	273	23
2023-08-24T06:00	15693	115	-55.0	-82.3	273	23
2023-08-24T06:00	15715	114	-55.2	-82.4	274	23
2023-08-24T06:00	15736	114	-55.4	-82.6	274	23
2023-08-24T06:00	15757	114	-55.4	-82.6	275	23
2023-08-24T06:00	15783	113	-55.4	-82.6	276	23
2023-08-24T06:00	15805	113	-55.4	-82.6	277	23
2023-08-24T06:00	15827	112	-55.6	-82.7	278	22
2023-08-24T06:00	15851	112	-55.7	-82.8	280	21
2023-08-24T06:00	15873	112	-55.7	-82.8	281	21
2023-08-24T06:00	15893	111	-55.8	-82.9	281	21
2023-08-24T06:00	15917	111	-55.9	-82.9	282	21
2023-08-24T06:00	15938	110	-56.0	-83.0	283	21
2023-08-24T06:00	15959	110	-55.9	-82.9	283	21
2023-08-24T06:00	15983	110	-56.1	-83.1	284	21
2023-08-24T06:00	16005	109	-56.3	-83.3	285	21
2023-08-24T06:00	16027	109	-56.5	-83.4	286	20
2023-08-24T06:00	16051	108	-56.4	-83.3	287	20
2023-08-24T06:00	16075	108	-56.2	-83.2	288	19
2023-08-24T06:00	16097	108	-56.2	-83.2	288	19
2023-08-24T06:00	16121	107	-56.2	-83.2	289	19
2023-08-24T06:00	16143	107	-56.2	-83.2	290	18
2023-08-24T06:00	16164	107	-56.2	-83.5	291	18
2023-08-24T06:00	16186	106	-56.2	-83.5	292	18
2023-08-24T06:00	16209	106	-55.9	-83.3	294	18
2023-08-24T06:00	16232	105	-55.8	-83.2	297	18
2023-08-24T06:00	16256	105	-55.8	-83.2	298	17
2023-08-24T06:00	16280	105	-55.8	-83.2	300	17
2023-08-24T06:00	16305	104	-55.9	-83.3	301	16
2023-08-24T06:00	16326	104	-56.1	-83.4	301	16
2023-08-24T06:00	16349	103	-56.3	-83.6	300	15
2023-08-24T06:00	16371	103	-56.4	-83.7	300	15
2023-08-24T06:00	16393	103	-55.9	-83.3	299	14
2023-08-24T06:00	16416	102	-55.9	-83.6	297	14
2023-08-24T06:00	16438	102	-56.1	-83.4	296	14
2023-08-24T06:00	16459	102	-56.2	-83.5	294	14
2023-08-24T06:00	16483	101	-56.4	-83.7	292	14
2023-08-24T06:00	16503	101	-56.5	-83.7	290	13
2023-08-24T06:00	16525	101	-56.6	-83.8	288	13
2023-08-24T06:00	16547	100	-56.7	-83.9	285	13
2023-08-24T06:00	16571	100	-56.7	-83.9	283	13
2023-08-24T06:00	16595	100	-56.3	-83.9	281	13
2023-08-24T06:00	16620	99	-56.0	-84.1	279	13
2023-08-24T06:00	16642	99	-56.0	-84.1	277	12
2023-08-24T06:00	16667	98	-55.9	-84.0	276	12
2023-08-24T06:00	16687	98	-55.8	-83.9	276	12
2023-08-24T06:00	16712	98	-55.8	-83.9	275	12
2023-08-24T06:00	16731	97	-55.9	-84.0	273	12
2023-08-24T06:00	16757	97	-55.9	-84.0	271	12
2023-08-24T06:00	16779	97	-55.7	-83.9	267	12
2023-08-24T06:00	16807	96	-55.6	-83.8	264	12
2023-08-24T06:00	16828	96	-55.7	-83.9	261	12
2023-08-24T06:00	16851	96	-55.8	-83.9	258	13
2023-08-24T06:00	16874	95	-55.7	-84.3	257	13
2023-08-24T06:00	16897	95	-55.3	-84.0	256	13
2023-08-24T06:00	16919	95	-55.1	-83.8	256	13
2023-08-24T06:00	16942	94	-55.2	-83.9	257	13
2023-08-24T06:00	16966	94	-55.4	-84.0	258	13
2023-08-24T06:00	16991	94	-55.5	-84.1	259	13
2023-08-24T06:00	17013	93	-55.6	-84.2	261	13
2023-08-24T06:00	17038	93	-55.6	-84.2	263	13
2023-08-24T06:00	17062	93	-55.5	-84.1	265	13
2023-08-24T06:00	17087	92	-55.7	-84.3	266	13
2023-08-24T06:00	17111	92	-55.8	-84.3	268	13
2023-08-24T06:00	17133	92	-55.9	-84.0	269	13
2023-08-24T06:00	17155	91	-56.0	-84.1	271	13
2023-08-24T06:00	17177	91	-56.2	-84.2	274	13
2023-08-24T06:00	17201	91	-56.4	-84.4	276	13
2023-08-24T06:00	17224	90	-56.4	-84.4	278	13
2023-08-24T06:00	17247	90	-56.4	-84.4	279	13
2023-08-24T06:00	17272	90	-56.4	-84.4	279	13
2023-08-24T06:00	17296	89	-56.4	-84.4	278	13
2023-08-24T06:00	17318	89	-56.5	-84.5	278	12
2023-08-24T06:00	17343	89	-56.6	-84.5	277	12
2023-08-24T06:00	17365	88	-56.7	-84.6	276	12
2023-08-24T06:00	17390	88	-56.9	-84.8	276	12
2023-08-24T06:00	17413	88	-57.0	-84.8	275	12
2023-08-24T06:00	17440	87	-57.2	-85.0	275	11
2023-08-24T06:00	17462	87	-57.2	-85.0	275	11
2023-08-24T06:00	17487	87	-57.2	-84.6	276	11
2023-08-24T06:00	17510	86	-57.4	-84.8	277	11
2023-08-24T06:00	17534	86	-57.4	-84.8	278	11
2023-08-24T06:00	17558	86	-57.5	-84.9	278	11
2023-08-24T06:00	17583	85	-57.7	-85.0	278	11
2023-08-24T06:00	17606	85	-57.8	-85.1	278	11
2023-08-24T06:00	17630	85	-58.0	-85.2	276	10
2023-08-24T06:00	17653	84	-58.0	-85.2	274	10
2023-08-24T06:00	17679	84	-58.1	-85.3	271	10
2023-08-24T06:00	17705	84	-58.2	-85.4	268	10
2023-08-24T06:00	17727	83	-58.3	-85.5	265	10
2023-08-24T06:00	17747	83	-58.2	-85.4	262	10
2023-08-24T06:00	17775	83	-58.2	-85.4	261	11
2023-08-24T06:00	17800	82	-58.1	-85.3	260	11
2023-08-24T06:00	17821	82	-58.2	-85.4	259	12
2023-08-24T06:00	17848	82	-58.4	-85.5	259	12
2023-08-24T06:00	17870	81	-58.5	-85.6	259	13
2023-08-24T06:00	17897	81	-58.6	-85.7	260	14
2023-08-24T06:00	17923	81	-58.5	-85.6	261	14
2023-08-24T06:00	17946	80	-58.5	-85.6	262	15
2023-08-24T06:00	17969	80	-58.5	-85.6	263	16
2023-08-24T06:00	17991	80	-58.6	-85.7	264	16
2023-08-24T06:00	18015	80	-58.7	-85.8	266	16
2023-08-24T06:00	18038	79	-58.7	-85.8	268	16
2023-08-24T06:00	18060	79	-58.8	-85.9	270	16
2023-08-24T06:00	18083	79	-58.7	-86.1	273	16
2023-08-24T06:00	18111	78	-58.4	-85.9	276	15
2023-08-24T06:00	18132	78	-58.1		280	15
2023-08-24T06:00	18159	78	-57.9		283	14
2023-08-24T06:00	18187	77	-57.7	-85.8	287	14
2023-08-24T06:00	18209	77	-57.6	-85.7	291	13
2023-08-24T06:00	18233	77	-57.7	-85.8	295	12
2023-08-24T06:00	18260	77	-57.8	-85.9	299	12
2023-08-24T06:00	18284	76	-57.8	-85.9	302	11
2023-08-24T06:00	18311	76	-57.6	-85.7	305	11
2023-08-24T06:00	18335	76	-57.5	-85.6	305	10
2023-08-24T06:00	18359	75	-57.6	-85.7	305	9
2023-08-24T06:00	18387	75	-57.6	-85.7	303	8
2023-08-24T06:00	18411	75	-57.7	-85.8	300	8
2023-08-24T06:00	18436	74	-57.9	-85.5	297	7
2023-08-24T06:00	18462	74	-58.0	-85.6	295	6
2023-08-24T06:00	18486	74	-58.0	-85.6	291	5
2023-08-24T06:00	18508	74	-58.1	-85.7	286	5
2023-08-24T06:00	18537	73	-58.2	-85.8	279	5
2023-08-24T06:00	18560	73	-58.4	-85.9	272	5
2023-08-24T06:00	18583	73	-58.5	-86.0	268	5
2023-08-24T06:00	18605	72	-58.5	-86.0	265	6
2023-08-24T06:00	18628	72	-58.5	-86.0	264	7
2023-08-24T06:00	18653	72	-58.4	-86.3	263	7
2023-08-24T06:00	18673	72	-58.3	-86.2	262	8
2023-08-24T06:00	18701	71	-58.2	-86.2	262	9
2023-08-24T06:00	18723	71	-58.0	-86.4	263	9
2023-08-24T06:00	18748	71	-57.6	-86.1	265	10
2023-08-24T06:00	18774	71	-57.4	-86.0	268	10
2023-08-24T06:00	18797	70	-57.3	-86.4	272	10
2023-08-24T06:00	18819	70	-57.0	-86.1	276	10
2023-08-24T06:00	18840	70	-56.9	-86.1	281	11
2023-08-24T06:00	18870	69	-57.0	-86.1	286	11
2023-08-24T06:00	18897	69	-56.9	-86.1	290	11
2023-08-24T06:00	18924	69	-56.9	-85.6	294	10
2023-08-24T06:00	18946	69	-57.0	-85.7	298	10
2023-08-24T06:00	18972	68	-57.0	-85.7	302	10
2023-08-24T06:00	18995	68	-56.9	-85.6	304	10
2023-08-24T06:00	19019	68	-56.8	-85.5	306	9
2023-08-24T06:00	19041	68	-56.8	-85.5	306	9
2023-08-24T06:00	19068	67	-56.9	-85.6	305	9
2023-08-24T06:00	19094	67	-57.1	-85.7	303	9
2023-08-24T06:00	19118	67	-57.2	-85.8	300	9
2023-08-24T06:00	19140	67	-57.3	-85.9	299	9
2023-08-24T06:00	19164	66	-57.2	-85.8	299	9
2023-08-24T06:00	19189	66	-57.0	-86.1	301	8
2023-08-24T06:00	19213	66	-56.7	-85.9	305	8
2023-08-24T06:00	19238	66	-56.4	-85.7	308	8
2023-08-24T06:00	19261	65	-56.3	-85.6	312	7
2023-08-24T06:00	19284	65	-56.5	-85.8	316	7
2023-08-24T06:00	19312	65	-56.4	-85.7	318	6
2023-08-24T06:00	19335	65	-56.3	-85.6	318	6
2023-08-24T06:00	19360	64	-56.3	-85.6	317	5
2023-08-24T06:00	19387	64	-56.2	-85.5	314	5
2023-08-24T06:00	19408	64	-55.8	-85.2	311	6
2023-08-24T06:00	19430	64	-55.8	-85.2	309	6
2023-08-24T06:00	19456	63	-56.0		308	6
2023-08-24T06:00	19480	63	-56.2	-85.5	309	6
2023-08-24T06:00	19502	63	-56.3	-85.6	311	6
2023-08-24T06:00	19526	63	-56.2	-85.5	315	6
2023-08-24T06:00	19552	62	-56.1	-85.5	321	6
2023-08-24T06:00	19579	62	-56.0		327	6
2023-08-24T06:00	19600	62	-55.8	-85.2	334	6
2023-08-24T06:00	19626	62	-55.7	-85.7	341	5
2023-08-24T06:00	19650	61	-55.6	-85.1	346	5
2023-08-24T06:00	19676	61	-55.8	-85.2	349	4
2023-08-24T06:00	19702	61	-55.9	-85.3	350	4
2023-08-24T06:00	19726	61	-56.1	-85.5	349	4
2023-08-24T06:00	19748	60	-56.2	-85.5	347	4
2023-08-24T06:00	19773	60	-56.1	-85.5	344	4
2023-08-24T06:00	19797	60	-56.1	-85.5	342	4
2023-08-24T06:00	19822	60	-56.3	-85.6	341	4
2023-08-24T06:00	19848	60	-56.2	-85.5	342	4
2023-08-24T06:00	19869	59	-56.2	-85.5	344	4
2023-08-24T06:00	19895	59	-56.2	-85.5	349	3
2023-08-24T06:00	19918	59	-56.3	-85.6	356	3
2023-08-24T06:00	19940	59	-56.4	-85.7	4	3
2023-08-24T06:00	19966	58	-56.4	-85.7	11	3
2023-08-24T06:00	19995	58	-56.3	-85.6	17	3
2023-08-24T06:00	20018	58	-56.3	-85.6	20	3
2023-08-24T06:00	20038	58	-56.2	-85.5	23	3
2023-08-24T06:00	20064	58	-56.0		24	2
2023-08-24T06:00	20089	57	-55.9	-85.3	22	1
2023-08-24T06:00	20117	57	-55.8	-85.7	9	1
2023-08-24T06:00	20141	57	-55.9	-85.8	298	0
2023-08-24T06:00	20164	57	-55.9	-85.3	261	1
2023-08-24T06:00	20183	56	-55.8	-85.2	258	2
2023-08-24T06:00	20210	56	-55.9	-85.3	261	2
2023-08-24T06:00	20234	56	-55.9	-85.3	268	2
2023-08-24T06:00	20259	56	-55.9	-85.8	277	3
2023-08-24T06:00	20283	56	-55.5	-85.5	291	3
2023-08-24T06:00	20309	55	-55.5	-85.5	306	3
2023-08-24T06:00	20337	55	-55.5	-85.5	323	3
2023-08-24T06:00	20360	55	-55.5	-85.5	339	3
2023-08-24T06:00	20386	55	-55.4	-85.4	353	4
2023-08-24T06:00	20410	55	-55.2	-85.3	7	4
2023-08-24T06:00	20435	54	-55.1	-85.2	19	4
2023-08-24T06:00	20465	54	-55.2	-85.3	32	4
2023-08-24T06:00	20493	54	-55.3	-85.4	45	4
2023-08-24T06:00	20517	54	-55.5	-85.0	58	4
2023-08-24T06:00	20548	53	-55.6	-85.1	71	4
2023-08-24T06:00	20571	53	-55.5	-85.0	84	4
2023-08-24T06:00	20606	53	-55.6	-85.1	97	4
2023-08-24T06:00	20632	53	-55.9	-85.3	111	4
2023-08-24T06:00	20659	52	-55.9	-85.3	122	4
2023-08-24T06:00	20687	52	-56.0		132	3
2023-08-24T06:00	20710	52	-56.1	-85.5	140	3
2023-08-24T06:00	20734	52	-56.2	-85.5	149	3
2023-08-24T06:00	20762	52	-56.1	-85.5	159	3
2023-08-24T06:00	20787	51	-56.1	-85.5	170	3
2023-08-24T06:00	20812	51	-56.0		181	3
2023-08-24T06:00	20840	51	-56.0		191	4
2023-08-24T06:00	20865	51	-55.9	-85.3	200	4
2023-08-24T06:00	20890	51	-55.8	-85.2	208	4
2023-08-24T06:00	20913	50	-55.9	-85.8	216	4
2023-08-24T06:00	20942	50	-56.0	-85.9	227	4
2023-08-24T06:00	20971	50	-56.0	-85.9	239	4
2023-08-24T06:00	20996	50	-55.8	-85.7	252	4
2023-08-24T06:00	21028	50	-55.8	-85.2	266	4
2023-08-24T06:00	21049	49	-55.8	-85.7	279	4
2023-08-24T06:00	21072	49	-55.8	-85.7	291	4
2023-08-24T06:00	21100	49	-55.7	-85.7	302	4
2023-08-24T06:00	21128	49	-55.7	-85.7	311	4
2023-08-24T06:00	21154	49	-55.7	-85.7	318	4
2023-08-24T06:00	21178	48	-55.7	-85.2	324	4
2023-08-24T06:00	21202	48	-55.9	-85.3	330	4
2023-08-24T06:00	21233	48	-56.0		336	4
2023-08-24T06:00	21259	48	-55.9	-85.3	342	4
2023-08-24T06:00	21281	48	-55.8	-85.2	346	4
2023-08-24T06:00	21311	47	-55.8	-85.2	348	3
2023-08-24T06:00	21335	47	-55.9	-85.3	345	3
2023-08-24T06:00	21372	47	-55.8	-85.2	339	3
2023-08-24T06:00	21396	47	-55.8	-85.2	332	3
2023-08-24T06:00	21423	47	-55.9	-85.3	328	3
2023-08-24T06:00	21447	46	-56.0		329	3
2023-08-24T06:00	21470	46	-56.1	-85.5	334	3
2023-08-24T06:00	21499	46	-56.0		339	3
2023-08-24T06:00	21525	46	-55.9	-85.3	344	3
2023-08-24T06:00	21549	46	-55.8	-85.7	347	3
2023-08-24T06:00	21579	45	-55.9	-85.8	350	2
2023-08-24T06:00	21604	45	-55.8	-85.7	351	2
2023-08-24T06:00	21628	45	-55.8	-85.7	353	2
2023-08-24T06:00	21663	45	-55.8	-85.7	355	2
2023-08-24T06:00	21684	45	-55.8	-85.7	357	2
2023-08-24T06:00	21714	44	-55.8	-85.7	358	2
2023-08-24T06:00	21738	44	-55.9	-85.8	359	2
2023-08-24T06:00	21766	44	-55.8	-85.7	360	2
2023-08-24T06:00	21790	44	-55.7	-85.7	1	2
2023-08-24T06:00	21815	44	-55.6	-85.6	3	3
2023-08-24T06:00	21845	44	-55.6	-85.6	5	3
2023-08-24T06:00	21870	43	-55.6	-85.6	8	3
2023-08-24T06:00	21899	43	-55.5	-85.5	11	3
2023-08-24T06:00	21922	43	-55.4	-85.4	16	3
2023-08-24T06:00	21953	43	-55.4	-85.4	21	3
2023-08-24T06:00	21980	43	-55.4	-85.4	27	3
2023-08-24T06:00	22003	42	-55.5	-85.5	35	3
2023-08-24T06:00	22030	42	-55.6	-85.6	43	3
2023-08-24T06:00	22062	42	-55.6	-85.6	52	2
2023-08-24T06:00	22079	42	-55.7	-85.7	63	2
2023-08-24T06:00	22109	42	-55.7	-85.2	78	2
2023-08-24T06:00	22138	42	-55.8	-85.2	97	2
2023-08-24T06:00	22168	41	-55.7	-85.7	119	2
2023-08-24T06:00	22194	41	-55.8	-85.7	140	2
2023-08-24T06:00	22221	41	-55.8	-85.7	156	2
2023-08-24T06:00	22241	41	-55.7	-85.7	167	3
2023-08-24T06:00	22271	41	-55.9	-85.3	177	3
2023-08-24T06:00	22298	41	-56.0		185	3
2023-08-24T06:00	22320	40	-56.0		196	2
2023-08-24T06:00	22350	40	-56.0		212	2
2023-08-24T06:00	22377	40	-56.0		238	2
2023-08-24T06:00	22406	40	-56.0	-85.9	274	2
2023-08-24T06:00	22430	40	-55.9	-85.8	301	2
2023-08-24T06:00	22452	40	-55.7	-85.7	317	2
2023-08-24T06:00	22481	39	-55.8	-85.7	327	3
2023-08-24T06:00	22509	39	-55.9	-85.8	335	3
2023-08-24T06:00	22535	39	-55.8	-85.7	342	2
2023-08-24T06:00	22555	39	-55.6	-85.6	349	2
2023-08-24T06:00	22578	39	-55.5	-85.5	356	2
2023-08-24T06:00	22613	39	-55.4	-85.4	360	1
2023-08-24T06:00	22632	38	-55.3	-85.9	359	1
2023-08-24T06:00	22661	38	-55.1	-85.8	355	1
2023-08-24T06:00	22686	38	-55.1	-85.8	350	1
2023-08-24T06:00	22711	38	-55.1	-85.2	347	1
2023-08-24T06:00	22735	38	-55.1	-85.2	345	2
2023-08-24T06:00	22757	38	-55.2	-85.3	344	2
2023-08-24T06:00	22788	38	-55.3	-85.4	344	2
2023-08-24T06:00	22813	37	-55.5	-85.5	345	2
2023-08-24T06:00	22835	37	-55.7	-85.2	347	2
2023-08-24T06:00	22862	37	-55.8	-85.2	351	3
2023-08-24T06:00	22891	37	-55.9	-85.3	355	3
2023-08-24T06:00	22920	37	-56.1	-85.5	358	3
2023-08-24T06:00	22948	37	-56.2	-85.5	2	4
2023-08-24T06:00	22973	36	-56.2	-85.5	6	5
2023-08-24T06:00	23000	36	-56.2	-85.5	10	5
2023-08-24T06:00	23022	36	-56.2	-85.5	15	5
2023-08-24T06:00	23054	36	-56.2	-85.5	21	6
2023-08-24T06:00	23078	36	-56.3	-85.6	28	6
2023-08-24T06:00	23104	36	-56.4	-85.7	36	5
2023-08-24T06:00	23124	36	-56.4	-86.2	44	5
2023-08-24T06:00	23153	35	-56.3	-86.1	54	5
2023-08-24T06:00	23186	35	-56.2	-86.0	62	4
2023-08-24T06:00	23212	35	-56.0	-85.9	69	4
2023-08-24T06:00	23234	35	-56.0	-85.9	72	3
2023-08-24T06:00	23269	35	-55.8	-86.3	68	2
2023-08-24T06:00	23294	35	-55.5	-86.1	54	2
2023-08-24T06:00	23316	35	-55.3	-85.9	33	2
2023-08-24T06:00	23350	34	-55.1	-85.8	15	2
2023-08-24T06:00	23378	34	-55.1	-85.8	7	2
2023-08-24T06:00	23396	34	-55.2	-85.8	5	3
2023-08-24T06:00	23429	34	-55.2	-85.3	6	3
2023-08-24T06:00	23466	34	-55.3	-85.4	9	4
2023-08-24T06:00	23492	34	-55.5	-85.5	12	4
2023-08-24T06:00	23516	33	-55.7	-85.7	16	5
2023-08-24T06:00	23544	33	-55.8	-85.7	21	5
2023-08-24T06:00	23580	33	-55.9	-85.8	26	5
2023-08-24T06:00	23603	33	-55.9	-85.8	33	5
2023-08-24T06:00	23632	33	-55.9	-85.8	42	4
2023-08-24T06:00	23665	33	-55.9	-85.8	52	4
2023-08-24T06:00	23688	33	-55.9	-85.8	63	4
2023-08-24T06:00	23716	32	-55.9	-85.8	75	3
2023-08-24T06:00	23745	32	-55.9	-85.8	87	3
2023-08-24T06:00	23774	32	-55.9	-85.8	99	2
2023-08-24T06:00	23797	32	-55.9	-85.8	113	2
2023-08-24T06:00	23823	32	-55.8	-85.7	131	2
2023-08-24T06:00	23859	32	-55.8	-85.7	157	1
2023-08-24T06:00	23882	32	-55.7	-85.7	193	1
2023-08-24T06:00	23918	31	-55.7	-86.2	227	2
2023-08-24T06:00	23949	31	-55.7	-86.2	247	2
2023-08-24T06:00	23969	31	-55.5	-86.1	259	3
2023-08-24T06:00	23998	31	-55.2	-85.8	267	3
2023-08-24T06:00	24024	31	-55.1	-85.8	273	4
2023-08-24T06:00	24051	31	-55.0	-85.7	280	4
2023-08-24T06:00	24085	31	-54.9	-85.6	289	4
2023-08-24T06:00	24107	31	-54.8	-85.5	299	5
2023-08-24T06:00	24138	30	-54.7	-85.5	310	5
2023-08-24T06:00	24165	30	-54.7	-85.5	319	5
2023-08-24T06:00	24195	30	-54.7	-85.5	326	6
2023-08-24T06:00	24226	30	-54.7	-85.5	331	6
2023-08-24T06:00	24250	30	-54.7	-85.5	335	6
2023-08-24T06:00	24278	30	-54.5	-85.3	338	6
2023-08-24T06:00	24310	30	-54.4	-85.2	339	6
2023-08-24T06:00	24335	29	-54.4	-85.2	339	6
2023-08-24T06:00	24363	29	-54.4	-85.2	339	6
2023-08-24T06:00	24390	29	-54.4	-85.2	339	7
2023-08-24T06:00	24421	29	-54.3	-85.2	338	7
2023-08-24T06:00	24444	29	-54.2	-85.1	338	8
2023-08-24T06:00	24472	29	-54.2	-85.1	339	8
2023-08-24T06:00	24502	29	-54.2	-85.1	341	8
2023-08-24T06:00	24532	29	-54.3	-85.2	343	7
2023-08-24T06:00	24559	28	-54.4	-85.2	346	7
2023-08-24T06:00	24584	28	-54.5	-85.3	349	6
2023-08-24T06:00	24618	28	-54.6	-85.4	354	5
2023-08-24T06:00	24639	28	-54.5	-85.3	358	4
2023-08-24T06:00	24666	28	-54.5	-85.3	1	4
2023-08-24T06:00	24688	28	-54.5	-85.3	2	4
2023-08-24T06:00	24718	28	-54.4	-85.2	0	4
2023-08-24T06:00	24754	28	-54.2	-85.7	0	4
2023-08-24T06:00	24772	28	-54.0	-85.5	2	5
2023-08-24T06:00	24806	27	-53.9	-85.5	6	5
2023-08-24T06:00	24823	27	-53.8	-85.4	13	5
2023-08-24T06:00	24849	27	-53.7	-85.3	19	5
2023-08-24T06:00	24878	27	-53.6	-85.3	25	5
2023-08-24T06:00	24914	27	-53.7	-85.3	28	5
2023-08-24T06:00	24937	27	-53.7	-85.3	29	5
2023-08-24T06:00	24967	27	-53.6	-85.3	27	5
2023-08-24T06:00	24994	27	-53.5	-85.2	24	6
2023-08-24T06:00	25024	26	-53.4	-85.1	19	6
2023-08-24T06:00	25044	26	-53.2	-85.0	15	6
2023-08-24T06:00	25072	26	-53.0	-84.8	10	6
2023-08-24T06:00	25095	26	-53.0	-84.8	6	7
2023-08-24T06:00	25125	26	-53.0	-84.8	4	7
2023-08-24T06:00	25155	26	-52.9	-84.7	4	7
2023-08-24T06:00	25172	26	-52.7	-85.3	5	8
2023-08-24T06:00	25208	26	-52.5	-85.1	8	8
2023-08-24T06:00	25237	26	-52.4	-85.1	12	8
2023-08-24T06:00	25265	26	-52.3	-85.0	17	8
2023-08-24T06:00	25291	25	-52.3	-84.3	22	7
2023-08-24T06:00	25313	25	-52.3	-84.3	26	7
2023-08-24T06:00	25333	25	-52.3	-84.3	31	7
2023-08-24T06:00	25367	25	-52.4	-84.4	35	6
2023-08-24T06:00	25400	25	-52.5	-84.4	39	6
2023-08-24T06:00	25436	25	-52.4	-84.4	43	5
2023-08-24T06:00	25456	25	-52.4	-84.4	45	5
2023-08-24T06:00	25478	25	-52.4	-85.1	44	5
2023-08-24T06:00	25505	25	-52.2	-84.9	40	5
2023-08-24T06:00	25536	24	-51.8	-84.6	35	5
2023-08-24T06:00	25568	24	-51.5	-84.4	28	5
2023-08-24T06:00	25593	24	-51.3	-84.3	21	5
2023-08-24T06:00	25624	24	-51.2	-84.2	15	5
2023-08-24T06:00	25648	24	-51.1	-84.1	11	5
2023-08-24T06:00	25670	24	-51.1	-84.1	10	5
2023-08-24T06:00	25706	24	-51.2	-84.2	12	5
2023-08-24T06:00	25731	24	-51.0	-84.0	15	6
2023-08-24T06:00	25753	24	-50.9	-84.0	20	6
2023-08-24T06:00	25786	24	-50.9	-84.0	25	6
2023-08-24T06:00	25814	23	-50.9	-84.0	30	6
2023-08-24T06:00	25833	23	-50.9	-84.0	35	5
2023-08-24T06:00	25867	23	-50.7	-83.8	41	5
2023-08-24T06:00	25897	23	-50.7	-83.8	45	5
2023-08-24T06:00	25925	23	-50.8	-83.9	48	5
2023-08-24T06:00	25953	23	-50.6	-83.7	49	5
2023-08-24T06:00	25979	23	-50.5	-83.7	48	5
2023-08-24T06:00	26011	23	-50.4	-83.6	45	5
2023-08-24T06:00	26043	23	-50.3	-83.5	41	5
2023-08-24T06:00	26069	23	-50.2	-84.2	35	5
2023-08-24T06:00	26105	22	-50.1	-84.2	29	5
2023-08-24T06:00	26124	22	-50.1	-83.4	23	5
2023-08-24T06:00	26147	22	-50.0	-83.3	17	5
2023-08-24T06:00	26186	22	-50.0	-83.3	13	5
2023-08-24T06:00	26209	22	-49.9	-84.0	12	5
2023-08-24T06:00	26244	22	-49.9	-83.2	13	5
2023-08-24T06:00	26267	22	-50.1	-83.4	18	5
2023-08-24T06:00	26296	22	-50.1	-83.4	24	5
2023-08-24T06:00	26324	22	-50.1	-83.4	33	6
2023-08-24T06:00	26361	22	-50.2	-83.5	42	6
2023-08-24T06:00	26395	21	-50.3	-83.5	50	6
2023-08-24T06:00	26421	21	-50.4	-83.6	56	6
2023-08-24T06:00	26449	21	-50.4	-83.6	61	6
2023-08-24T06:00	26467	21	-50.4	-83.6	63	7
2023-08-24T06:00	26504	21	-50.4	-83.6	63	7
2023-08-24T06:00	26536	21	-50.4	-83.6	63	6
2023-08-24T06:00	26567	21	-50.4	-83.6	63	6
2023-08-24T06:00	26594	21	-50.4	-83.6	63	6
2023-08-24T06:00	26623	21	-50.3	-83.5	66	5
2023-08-24T06:00	26646	21	-50.2	-84.2	71	5
2023-08-24T06:00	26679	21	-50.1	-84.2	79	5
2023-08-24T06:00	26708	20	-50.2	-84.2	88	4
2023-08-24T06:00	26731	20	-50.2	-84.2	95	4
2023-08-24T06:00	26773	20	-50.2	-84.2	100	4
2023-08-24T06:00	26798	20	-50.1	-84.2	100	4
2023-08-24T06:00	26823	20	-50.0	-84.1	97	4
2023-08-24T06:00	26851	20	-49.8	-84.0	91	4
2023-08-24T06:00	26885	20	-49.7	-83.9	82	3
2023-08-24T06:00	26907	20	-49.5	-83.7	71	3
2023-08-24T06:00	26943	20	-49.3	-83.6	59	3
2023-08-24T06:00	26972	20	-49.1	-83.4	51	2
2023-08-24T06:00	27000	20	-48.9	-83.3	49	3
2023-08-24T06:00	27029	19	-48.8	-83.2	54	3
2023-08-24T06:00	27057	19	-48.8	-83.2	63	3
2023-08-24T06:00	27092	19	-48.8	-83.2	72	4
2023-08-24T06:00	27117	19	-48.6	-83.1	78	4
2023-08-24T06:00	27146	19	-48.4	-83.8	83	5
2023-08-24T06:00	27177	19	-48.1	-83.6	86	5
2023-08-24T06:00	27210	19	-47.9	-83.5	88	5
2023-08-24T06:00	27238	19	-47.7	-83.4	89	5
2023-08-24T06:00	27262	19	-47.6	-83.3	89	4
2023-08-24T06:00	27301	19	-47.6	-83.3	89	4
2023-08-24T06:00	27313	19	-47.5	-83.2	87	4
2023-08-24T06:00	27355	19	-47.4	-83.1	85	3
2023-08-24T06:00	27380	18	-47.3	-83.1	84	3
2023-08-24T06:00	27406	18	-47.2	-83.0	87	3
2023-08-24T06:00	27440	18	-47.4	-83.1	93	3
2023-08-24T06:00	27464	18	-47.4	-83.1	102	3
2023-08-24T06:00	27508	18	-47.2	-83.0	111	3
2023-08-24T06:00	27535	18	-47.1	-82.9	120	3
2023-08-24T06:00	27561	18	-47.0	-82.9	128	3
2023-08-24T06:00	27594	18	-46.8	-82.7	136	3
2023-08-24T06:00	27629	18	-46.9	-82.8	143	2
2023-08-24T06:00	27659	18	-47.0	-82.9	149	2
2023-08-24T06:00	27687	18	-47.1	-82.9	150	2
2023-08-24T06:00	27712	18	-47.1	-82.9	142	1
2023-08-24T06:00	27742	17	-47.1	-82.9	115	1
2023-08-24T06:00	27772	17	-47.1	-82.9	79	1
2023-08-24T06:00	27802	17	-47.1	-82.9	58	1
2023-08-24T06:00	27834	17	-47.1	-82.9	46	2
2023-08-24T06:00	27862	17	-47.0	-82.9	36	2
2023-08-24T06:00	27879	17	-47.0	-82.9	27	2
2023-08-24T06:00	27912	17	-47.1	-82.9	22	3
2023-08-24T06:00	27943	17	-47.3	-83.1	23	3
2023-08-24T06:00	27977	17	-47.5	-83.2	27	4
2023-08-24T06:00	28010	17	-47.5	-83.2	35	4
2023-08-24T06:00	28039	17	-47.3	-83.1	43	4
2023-08-24T06:00	28073	17	-47.2	-83.0	51	5
2023-08-24T06:00	28101	17	-47.0	-82.9	58	5
2023-08-24T06:00	28134	16	-46.8	-82.7	65	5
2023-08-24T06:00	28157	16	-46.6	-82.6	71	6
2023-08-24T06:00	28194	16	-46.7	-82.6	78	6
2023-08-24T06:00	28220	16	-46.7	-82.6	84	6
2023-08-24T06:00	28257	16	-46.7	-82.6	88	6
2023-08-24T06:00	28282	16	-46.7	-82.6	90	5
2023-08-24T06:00	28305	16	-46.6	-82.6	89	5
2023-08-24T06:00	28342	16	-46.4	-82.4	86	5
2023-08-24T06:00	28376	16	-46.3	-82.4	82	4
2023-08-24T06:00	28407	16	-46.3	-82.4	80	4
2023-08-24T06:00	28433	16	-46.4	-82.4	82	4
2023-08-24T06:00	28459	16	-46.5	-82.5	87	4
2023-08-24T06:00	28494	16	-46.5	-82.5	95	3
2023-08-24T06:00	28519	16	-46.7	-82.6	105	3
2023-08-24T06:00	28557	15	-46.8	-82.7	116	3
2023-08-24T06:00	28588	15	-46.8	-82.7	130	3
2023-08-24T06:00	28607	15	-46.7	-82.6	147	3
2023-08-24T06:00	28638	15	-46.7	-82.6	164	3
2023-08-24T06:00	28675	15	-46.6	-82.6	179	3
2023-08-24T06:00	28698	15	-46.5	-82.5	194	3
2023-08-24T06:00	28723	15	-46.4	-82.4	208	3
2023-08-24T06:00	28758	15	-46.3	-82.4	222	4
2023-08-24T06:00	28789	15	-46.3	-82.4	234	4
2023-08-24T06:00	28822	15	-46.2	-82.3	246	4
2023-08-24T06:00	28848	15	-46.2	-82.3	257	4
2023-08-24T06:00	28888	15	-46.2	-82.3	271	3
2023-08-24T06:00	28908	15	-46.1	-82.2	288	3
2023-08-24T06:00	28930	15	-46.1	-82.2	310	3
2023-08-24T06:00	28964	15	-46.1	-82.2	332	3
2023-08-24T06:00	28996	14	-46.1	-82.2	350	3
2023-08-24T06:00	29027	14	-46.1	-82.2	5	3
2023-08-24T06:00	29070	14	-46.0	-82.1	20	3
2023-08-24T06:00	29092	14	-45.9	-82.1	37	3
2023-08-24T06:00	29116	14	-45.8	-83.1	56	3
2023-08-24T06:00	29138	14	-45.7	-83.0	75	3
2023-08-24T06:00	29159	14	-45.6	-82.9	89	3
2023-08-24T06:00	29193	14	-45.4	-82.8	95	4
2023-08-24T06:00	29225	14	-45.1	-82.6	97	3
2023-08-24T06:00	29262	14	-44.8	-82.4	95	3
2023-08-24T06:00	29293	14	-44.6	-82.2	89	3
2023-08-24T06:00	29335	14	-44.4	-82.1	80	2
2023-08-24T06:00	29340	14	-44.4	-82.1	68	2
2023-08-24T06:00	29382	14	-44.5	-82.2	54	2
2023-08-24T06:00	29428	14	-44.7	-82.3	43	2
2023-08-24T06:00	29435	14	-44.9	-82.5	36	2
2023-08-24T06:00	29468	13	-45.0	-82.5	31	2
2023-08-24T06:00	29501	13	-45.1	-82.6	28	2
2023-08-24T06:00	29539	13	-45.1	-82.6	24	2
2023-08-24T06:00	29558	13	-45.2	-82.7	19	2
2023-08-24T06:00	29603	13	-45.3	-82.7	15	2
2023-08-24T06:00	29636	13	-45.3	-82.7	14	2
2023-08-24T06:00	29671	13	-45.2	-82.7	18	2
2023-08-24T06:00	29690	13	-45.0	-82.5	25	3
2023-08-24T06:00	29733	13	-44.9	-82.5	34	3
2023-08-24T06:00	29768	13	-44.8	-82.4	44	3
2023-08-24T06:00	29802	13	-44.8	-82.4	52	4
2023-08-24T06:00	29827	13	-44.8	-82.4	59	4
2023-08-24T06:00	29855	13	-44.7	-82.3	64	4
2023-08-24T06:00	29887	13	-44.5	-82.2	68	4
2023-08-24T06:00	29911	13	-44.3	-82.0	71	4
2023-08-24T06:00	29950	13	-44.1	-81.9	73	4
2023-08-24T06:00	29982	12	-43.9	-81.8	75	3
2023-08-24T06:00	29991	12	-43.8	-81.7	76	3
2023-08-24T06:00	30039	12	-43.6	-81.5	73	2
2023-08-24T06:00	30050	12	-43.5	-81.5	66	2
2023-08-24T06:00	30091	12	-43.4	-81.4	51	2
2023-08-24T06:00	30114	12	-43.2	-81.3	34	2
2023-08-24T06:00	30157	12	-43.0	-81.1	22	2
2023-08-24T06:00	30185	12	-42.9	-81.1	12	2
2023-08-24T06:00	30208	12	-42.9	-81.1	4	2
2023-08-24T06:00	30245	12	-42.9	-81.1	357	2
2023-08-24T06:00	30260	12	-42.9	-81.1	354	2
2023-08-24T06:00	30279	12	-43.0	-81.1	355	2
2023-08-24T06:00	30311	12	-42.9	-81.1	0	2
2023-08-24T06:00	30356	12	-42.8	-81.0	6	3
2023-08-24T06:00	30378	12	-42.8	-81.0	11	4
2023-08-24T06:00	30406	12	-42.9	-81.1	15	5
2023-08-24T06:00	30437	12	-43.0	-81.1	18	5
2023-08-24T06:00	30457	12	-43.1	-81.2	22	6
2023-08-24T06:00	30495	12	-43.2	-81.3	26	6
2023-08-24T06:00	30515	12	-43.3	-81.3	30	6
2023-08-24T06:00	30544	11	-43.4	-81.4	35	6
2023-08-24T06:00	30584	11	-43.5	-81.5	40	5
2023-08-24T06:00	30618	11	-43.6	-81.5	44	5
2023-08-24T06:00	30642	11	-43.5	-81.5	48	4
2023-08-24T06:00	30657	11	-43.3	-81.3	53	4
2023-08-24T06:00	30687	11	-43.3	-81.3	57	3
2023-08-24T06:00	30729	11	-43.3	-81.3	61	2
2023-08-24T06:00	30761	11	-43.3	-81.3	62	1
2023-08-24T06:00	30784	11	-43.4	-81.4	53	1
2023-08-24T06:00	30821	11	-43.4	-81.4	25	0
2023-08-24T06:00	30869	11	-43.3	-81.3	3	1
2023-08-24T06:00	30876	11	-43.2	-81.3	1	1
2023-08-24T06:00	30916	11	-43.1	-81.2	11	1
2023-08-24T06:00	30943	11	-42.9	-81.1	22	1
2023-08-24T06:00	30984	11	-42.9	-81.1	32	1
2023-08-24T06:00	30999	11	-42.9	-81.1	43	1
2023-08-24T06:00	31017	11	-42.9	-81.1	67	0
2023-08-24T06:00	31059	11	-43.1	-81.2	132	0
2023-08-24T06:00	31082	11	-43.2	-81.3	164	1
2023-08-24T06:00	31128	11	-43.3	-81.3	174	1
2023-08-24T06:00	31156	10	-43.3	-81.3	179	2
2023-08-24T06:00	31184	10	-43.4	-81.4	185	2
2023-08-24T06:00	31210	10	-43.6	-81.5	191	3
2023-08-24T06:00	31255	10	-43.7	-81.6	198	3
2023-08-24T06:00	31298	10	-43.8	-81.7	205	4
2023-08-24T06:00	31309	10	-43.7	-81.6	212	4
2023-08-24T06:00	31328	10	-43.6	-81.5	220	5
2023-08-24T06:00	31384	10	-43.4	-81.4	227	5
2023-08-24T06:00	31403	10	-43.3	-81.3	234	5
2023-08-24T06:00	31446	10	-43.1	-81.2	243	5
2023-08-24T06:00	31484	10	-43.0	-81.1	252	5
2023-08-24T06:00	31506	10	-42.8	-81.0	261	5
2023-08-24T06:00	31529	10	-42.6	-80.8	268	5
2023-08-24T06:00	31563	10	-42.4	-80.7	273	5
2023-08-24T06:00	31599	10	-42.2	-80.6	278	4
2023-08-24T06:00	31642	10	-42.0	-80.4	281	4
2023-08-24T06:00	31648	10	-42.0	-80.4	286	3
2023-08-24T06:00	31694	10	-42.1	-80.5	297	2
2023-08-24T06:00	31745	10	-41.9	-80.4	11	1
2023-08-24T06:00	31779	10	-41.7	-80.2	53	1
2023-08-24T06:00	31813	10	-41.7	-80.2	72	2
2023-08-24T06:00	31836	10	-41.7	-80.2	81	2
2023-08-24T06:00	31869	9	-41.7	-80.2	85	3
2023-08-24T06:00	31889	9	-41.7	-80.2	83	3
2023-08-24T06:00	31919	9	-41.7	-80.2	78	2
2023-08-24T06:00	31954	9	-41.6	-80.1	68	2
2023-08-24T06:00	31990	9	-41.5	-80.1	58	2
2023-08-24T06:00	32016	9	-41.4	-80.0	47	2
2023-08-24T06:00	32042	9	-41.2	-79.9	38	1
2023-08-24T06:00	32099	9	-41.0	-79.7	30	1
2023-08-24T06:00	32122	9	-40.8	-79.6	17	1
2023-08-24T06:00	32168	9	-40.5	-79.4	298	1
2023-08-24T06:00	32180	9	-40.5	-79.4	292	1
2023-08-24T06:00	32226	9	-40.4	-79.3	298	1
2023-08-24T06:00	32246	9	-40.3	-79.2	306	2
2023-08-24T06:00	32283	9	-40.1	-79.1	312	2
2023-08-24T06:00	32316	9	-40.1	-79.1	318	3
2023-08-24T06:00	32329	9	-40.2	-79.2	325	3
2023-08-24T06:00	32368	9	-40.1	-79.1	333	3
2023-08-24T06:00	32409	9	-40.1	-79.1	343	3
2023-08-24T06:00	32419	9	-40.1	-79.1	354	3
2023-08-24T06:00	32465	9	-40.0	-79.0	5	4
2023-08-24T06:00	32510	9	-39.9	-79.0	15	3
2023-08-24T06:00	32534	9	-39.7	-78.8	26	3
2023-08-24T06:00	32594	9	-39.5	-78.7	54	3
2023-08-24T06:00	32614	8	-39.5	-78.7	70	4
2023-08-24T06:00	32648	8	-39.5	-78.7	82	4
2023-08-24T06:00	32654	8	-39.5	-78.7	91	5
2023-08-24T06:00	32720	8	-39.4	-78.6	96	5
2023-08-24T06:00	32750	8	-39.3	-78.5	98	5
2023-08-24T06:00	32801	8	-38.9	-78.3	97	4
2023-08-24T06:00	32827	8	-38.7	-78.1	93	4
2023-08-24T06:00	32839	8	-38.3	-77.9	88	4
2023-08-24T06:00	32874	8	-37.9	-77.6	81	4
2023-08-24T06:00	32895	8	-37.5	-77.3	72	4
2023-08-24T06:00	32935	8	-37.2	-77.1	62	4
2023-08-24T06:00	32953	8	-36.9	-76.9	51	4
2023-08-24T06:00	32992	8	-36.6	-76.7	41	4
2023-08-24T06:00	33035	8	-36.4	-76.5	34	5
2023-08-24T06:00	33065	8	-36.4	-76.5	25	5
2023-08-24T06:00	33114	8	-36.4	-76.5	25	5
2023-08-24T06:00	33123	8	-36.4	-76.5	26	5
2023-08-24T06:00	33167	8	-36.5	-76.6	30	5
2023-08-24T06:00	33185	8	-36.5	-76.6	34	5
2023-08-24T06:00	33227	8	-36.6	-76.7	39	5
2023-08-24T06:00	33281	8	-36.6	-76.7	46	6
2023-08-24T06:00	33312	8	-36.6	-76.7	50	6
2023-08-24T06:00	33361	8	-36.6	-76.7	53	6
2023-08-24T06:00	33365	8	-36.6	-76.7	57	6
2023-08-24T06:00	33399	8	-36.6	-76.7	61	7
2023-08-24T06:00	33419	8	-36.7	-76.7	66	7
2023-08-24T06:00	33446	8	-36.8	-76.8	70	7
2023-08-24T06:00	33489	7	-36.8	-76.8	73	7
2023-08-24T06:00	33521	7	-36.7	-76.7	75	6
2023-08-24T06:00	33543	7	-36.6	-76.7	74	6
2023-08-24T06:00	33571	7	-36.5	-76.6	72	6
2023-08-24T06:00	33590	7	-36.4	-76.5	68	5
2023-08-24T06:00	33634	7	-36.3	-76.5	62	5
2023-08-24T06:00	33681	7	-36.1	-76.3	56	5
2023-08-24T06:00	33703	7	-35.5	-75.9	48	6
2023-08-24T06:00	33766	7	-35.4	-75.8	47	7
2023-08-24T06:00	33774	7	-35.2	-75.7	48	7
2023-08-24T06:00	33811	7	-35.1	-75.6	50	7
2023-08-24T06:00	33826	7	-35.0	-75.6	53	8
2023-08-24T06:00	33880	7	-35.0	-75.6	57	8
2023-08-24T06:00	33901	7	-35.0	-75.6	62	8
2023-08-24T06:00	33915	7	-35.1	-75.6	67	8
2023-08-24T06:00	33962	7	-35.1	-75.6	71	8
2023-08-24T06:00	33983	7	-35.1	-75.6	75	7
2023-08-24T06:00	34029	7	-35.1	-75.6	78	7
2023-08-24T06:00	34069	7	-34.9	-75.5	75	6
2023-08-24T06:00	34103	7	-34.7	-75.4	69	6
2023-08-24T06:00	34128	7	-34.7	-75.4	61	6
2023-08-24T06:00	34164	7	-34.7	-75.4	54	6
2023-08-24T06:00	34189	7	-34.7	-75.4	49	6
2023-08-24T06:00	34267	7	-34.6	-75.3	47	6
2023-08-24T06:00	34289	7	-34.5	-75.2	48	7
2023-08-24T06:00	34298	7	-34.6	-75.3	51	7
2023-08-24T06:00	34363	7	-34.6	-75.3	55	7
2023-08-24T06:00	34371	7	-34.5	-75.2	60	7
2023-08-24T06:00	34392	7	-34.4	-75.2	65	8
2023-08-24T06:00	34406	7	-34.4	-75.2	69	8
2023-08-24T06:00	34458	7	-34.5	-75.2	73	8
2023-08-24T06:00	34476	6	-34.5	-75.2	75	8
2023-08-24T12:00	-999					
2023-08-24T12:00	134	1002	24.1	13.3	260	2
2023-08-24T12:00	166	998	23.8	12.9	253	2
2023-08-24T12:00	196	995	23.4	12.6	249	2
2023-08-24T12:00	221	992	22.4	12.2	244	2
2023-08-24T12:00	248	989	22.2	12.2	237	2
2023-08-24T12:00	275	986	22.0	12.3	228	2
2023-08-24T12:00	309	982	21.6	12.1	217	2
2023-08-24T12:00	335	979	21.4	12.1	207	2
2023-08-24T12:00	362	976	21.1	12.0	200	2
2023-08-24T12:00	384	974	20.9	12.0	194	2
2023-08-24T12:00	413	970	20.6	12.0	191	2
2023-08-24T12:00	440	967	20.4	11.9	189	2
2023-08-24T12:00	463	965	20.1	11.9	188	2
2023-08-24T12:00	489	962	19.9	11.7	187	2
2023-08-24T12:00	515	959	19.6	11.7	184	2
2023-08-24T12:00	543	956	19.4	11.7	182	2
2023-08-24T12:00	569	953	19.1	11.6	179	2
2023-08-24T12:00	595	950	18.8	11.6	177	2
2023-08-24T12:00	623	947	18.6	11.5	178	1
2023-08-24T12:00	654	944	18.3	11.4	186	1
2023-08-24T12:00	674	941	18.1	11.4	211	1
2023-08-24T12:00	702	938	17.8	11.3	239	1
2023-08-24T12:00	728	936	17.5	11.2	249	1
2023-08-24T12:00	747	934	17.4	11.0	248	1
2023-08-24T12:00	766	931	17.2	10.8	243	1
2023-08-24T12:00	790	929	17.1	10.6	239	2
2023-08-24T12:00	812	926	16.9	10.5	238	2
2023-08-24T12:00	832	924	16.7	10.5	243	2
2023-08-24T12:00	859	921	16.5	10.2	250	2
2023-08-24T12:00	881	919	16.3	10.3	254	2
2023-08-24T12:00	906	916	16.1	10.0	256	2
2023-08-24T12:00	926	914	16.0	9.9	254	2
2023-08-24T12:00	947	912	15.7	9.9	251	3
2023-08-24T12:00	971	909	15.5	9.8	249	3
2023-08-24T12:00	995	907	15.5	8.9	248	3
2023-08-24T12:00	1012	905	15.3	9.0	248	3
2023-08-24T12:00	1032	903	15.2	8.6	247	3
2023-08-24T12:00	1061	900	14.8	8.8	245	3
2023-08-24T12:00	1082	897	14.7		242	4
2023-08-24T12:00	1103	895	14.6	8.0	241	4
2023-08-24T12:00	1127	893	14.8	5.6	240	4
2023-08-24T12:00	1147	890	14.7	5.7	239	4
2023-08-24T12:00	1174	888	14.4	5.6	238	4
2023-08-24T12:00	1197	885	14.2	5.6	236	4
2023-08-24T12:00	1223	883	14.0	5.1	235	4
2023-08-24T12:00	1243	881	13.8	5.4	238	4
2023-08-24T12:00	1260	879	13.8	3.9	246	4
2023-08-24T12:00	1282	876	13.7	3.4	255	4
2023-08-24T12:00	1303	874	13.8	2.7	260	5
2023-08-24T12:00	1326	872	13.6	2.8	261	6
2023-08-24T12:00	1348	870	13.4	3.1	259	7
2023-08-24T12:00	1368	868	13.3	3.2	254	8
2023-08-24T12:00	1389	865	13.2	3.5	249	8
2023-08-24T12:00	1409	863	13.0	3.7	244	8
2023-08-24T12:00	1432	861	12.8	3.6	242	7
2023-08-24T12:00	1456	859	12.9	3.2	243	7
2023-08-24T12:00	1479	856	12.9	3.1	247	6
2023-08-24T12:00	1507	853	13.0	4.2	253	6
2023-08-24T12:00	1529	851	12.8	4.7	257	6
2023-08-24T12:00	1555	849	12.7	5.4	261	5
2023-08-24T12:00	1577	846	12.5	5.9	264	5
2023-08-24T12:00	1598	844	12.3	6.1	267	5
2023-08-24T12:00	1619	842	12.1	6.1	271	5
2023-08-24T12:00	1644	839	11.9	6.2	274	5
2023-08-24T12:00	1671	837	11.7	6.6	276	5
2023-08-24T12:00	1699	834	11.4	7.9	278	6
2023-08-24T12:00	1732	831	11.1	8.2	278	6
2023-08-24T12:00	1756	828	10.9	8.0	278	7
2023-08-24T12:00	1776	826	10.8	8.1	275	7
2023-08-24T12:00	1802	824	10.6	8.0	271	7
2023-08-24T12:00	1831	821	10.3	7.7	266	7
2023-08-24T12:00	1860	818	10.2	7.5	263	8
2023-08-24T12:00	1884	816	10.0	7.4	262	8
2023-08-24T12:00	1908	813	9.8	7.4	264	8
2023-08-24T12:00	1931	811	9.6	7.3	266	8
2023-08-24T12:00	1952	809	9.4	7.3	267	8
2023-08-24T12:00	1981	806	9.2	7.3	266	8
2023-08-24T12:00	2004	804	9.0	7.2	264	8
2023-08-24T12:00	2027	802	8.9	7.2	262	9
2023-08-24T12:00	2050	800	8.7	7.1	261	9
2023-08-24T12:00	2074	797	8.6	7.0	262	9
2023-08-24T12:00	2096	795	8.6	5.6	263	9
2023-08-24T12:00	2117	793	8.8	4.5	265	10
2023-08-24T12:00	2135	791	9.0	0.6	268	10
2023-08-24T12:00	2159	789	9.2	-1.4	272	9
2023-08-24T12:00	2192	786	9.1	-0.5	276	9
2023-08-24T12:00	2209	784	8.9	-0.1	278	10
2023-08-24T12:00	2236	782	8.9	-0.1	277	10
2023-08-24T12:00	2260	780	8.7	0.6	275	10
2023-08-24T12:00	2281	778	8.5	0.9	273	10
2023-08-24T12:00	2302	775	8.4	0.7	271	10
2023-08-24T12:00	2328	773	8.2	1.0	271	10
2023-08-24T12:00	2352	771	8.1	0.8	272	9
2023-08-24T12:00	2374	769	8.0	0.4	275	9
2023-08-24T12:00	2392	767	7.9	0.6	277	9
2023-08-24T12:00	2414	765	7.8	0.3	279	9
2023-08-24T12:00	2438	763	7.7	-0.1	281	9
2023-08-24T12:00	2457	761	7.6	-0.4	282	9
2023-08-24T12:00	2479	759	7.5	-0.6	284	9
2023-08-24T12:00	2505	757	7.4	-0.9	286	8
2023-08-24T12:00	2526	755	7.5	-4.5	289	8
2023-08-24T12:00	2547	753	7.5	-6.5	290	8
2023-08-24T12:00	2577	750	7.5	-5.2	290	8
2023-08-24T12:00	2596	748	7.6	-4.6	289	8
2023-08-24T12:00	2621	746	7.5	-4.4	290	8
2023-08-24T12:00	2638	744	7.4	-4.5	292	8
2023-08-24T12:00	2665	742	7.5	-5.1	294	9
2023-08-24T12:00	2679	741	7.4	-5.2	296	9
2023-08-24T12:00	2696	739	7.3	-5.3	297	9
2023-08-24T12:00	2721	737	7.1	-5.4	298	10
2023-08-24T12:00	2745	735	6.9	-5.6	298	10
2023-08-24T12:00	2774	733	6.7	-5.8	299	10
2023-08-24T12:00	2796	730	6.6	-6.0	299	10
2023-08-24T12:00	2832	728	6.4	-7.1	298	10
2023-08-24T12:00	2854	725	6.3	-8.2	296	11
2023-08-24T12:00	2877	723	6.1	-9.1	294	12
2023-08-24T12:00	2907	721	6.0	-4.1	294	12
2023-08-24T12:00	2927	719	5.9	-2.6	294	13
2023-08-24T12:00	2948	717	5.7	-0.3	295	14
2023-08-24T12:00	2969	715	5.5	-0.1	295	14
2023-08-24T12:00	2987	714	5.3	-0.3	294	15
2023-08-24T12:00	3010	712	5.1	-0.3	292	15
2023-08-24T12:00	3035	709	4.9	-0.3	290	16
2023-08-24T12:00	3055	708	4.7	-0.3	289	16
2023-08-24T12:00	3079	706	4.5	-0.1	289	16
2023-08-24T12:00	3107	703	4.3	-0.1	289	16
2023-08-24T12:00	3131	701	4.1	-0.1	290	15
2023-08-24T12:00	3154	699	3.9	0.0	289	14
2023-08-24T12:00	3172	698	3.8	0.1	286	14
2023-08-24T12:00	3196	696	3.6	0.1	284	14
2023-08-24T12:00	3216	694	3.5	0.2	282	15
2023-08-24T12:00	3237	692	3.8	-0.2	281	16
2023-08-24T12:00	3264	690	3.6	-0.3	281	17
2023-08-24T12:00	3286	688	3.3	-0.4	282	17
2023-08-24T12:00	3304	686	3.2	-0.4	283	18
2023-08-24T12:00	3323	685	3.1	0.4	282	18
2023-08-24T12:00	3351	682	2.8	0.9	281	18
2023-08-24T12:00	3384	680	2.9	0.7	279	18
2023-08-24T12:00	3407	677	2.8	0.5	277	18
2023-08-24T12:00	3440	675	2.6	0.6	275	18
2023-08-24T12:00	3459	673	2.5	0.6	274	18
2023-08-24T12:00	3481	672	2.3	0.3	273	18
2023-08-24T12:00	3502	670	2.2	0.0	272	18
2023-08-24T12:00	3527	668	2.2	-1.0	271	18
2023-08-24T12:00	3553	666	2.1	-0.3	269	19
2023-08-24T12:00	3573	664	2.0	-0.6	268	19
2023-08-24T12:00	3605	661	2.0	-0.8	266	19
2023-08-24T12:00	3629	659	2.1	-0.6	265	18
2023-08-24T12:00	3648	658	2.1	-0.3	264	18
2023-08-24T12:00	3670	656	1.9	-0.3	264	17
2023-08-24T12:00	3695	654	1.8	-0.3	264	17
2023-08-24T12:00	3722	652	1.6	-0.5	265	17
2023-08-24T12:00	3750	650	1.5	-0.6	266	17
2023-08-24T12:00	3771	648	1.3	-0.4	267	17
2023-08-24T12:00	3792	646	1.1	-0.5	268	18
2023-08-24T12:00	3813	644	1.0	-0.5	269	18
2023-08-24T12:00	3837	643	0.9	-0.8	269	18
2023-08-24T12:00	3863	641	0.7	-0.8	269	18
2023-08-24T12:00	3889	638	0.4	-0.7	268	18
2023-08-24T12:00	3913	637	0.2	-0.8	268	19
2023-08-24T12:00	3937	635	0.3	-1.1	268	19
2023-08-24T12:00	3958	633	0.2	-1.1	268	20
2023-08-24T12:00	3980	631	0.0	-1.3	270	20
2023-08-24T12:00	4006	629	-0.1	-1.5	271	20
2023-08-24T12:00	4025	628	-0.3	-1.5	273	20
2023-08-24T12:00	4046	626	-0.4	-1.6	273	20
2023-08-24T12:00	4070	624	-0.7	-1.7	272	20
2023-08-24T12:00	4090	623	-0.8	-1.7	272	20
2023-08-24T12:00	4105	621	-0.9	-1.8	271	20
2023-08-24T12:00	4121	620	-0.9	-2.0	270	20
2023-08-24T12:00	4137	619	-1.0	-2.1	271	20
2023-08-24T12:00	4158	617	-1.2	-2.2	271	20
2023-08-24T12:00	4185	615	-1.2	-2.6	270	21
2023-08-24T12:00	4205	614	-1.3	-2.6	269	21
2023-08-24T12:00	4231	612	-1.4	-3.0	266	21
2023-08-24T12:00	4251	610	-1.6	-2.9	265	21
2023-08-24T12:00	4277	608	-1.7	-3.1	264	21
2023-08-24T12:00	4296	607	-1.8	-3.4	264	21
2023-08-24T12:00	4308	606	-1.9	-3.2	265	21
2023-08-24T12:00	4326	605	-2.0	-3.5	267	21
2023-08-24T12:00	4343	603	-2.1	-3.6	269	20
2023-08-24T12:00	4373	601	-2.3	-3.9	269	20
2023-08-24T12:00	4394	599	-2.5	-3.4	269	20
2023-08-24T12:00	4422	597	-2.7	-3.6	268	20
2023-08-24T12:00	4439	596	-2.7	-4.4	266	20
2023-08-24T12:00	4454	595	-2.7	-4.4	266	20
2023-08-24T12:00	4471	594	-2.8	-4.5	265	20
2023-08-24T12:00	4487	592	-2.9	-4.5	266	20
2023-08-24T12:00	4504	591	-3.0	-4.5	267	20
2023-08-24T12:00	4524	590	-3.2	-4.6	268	20
2023-08-24T12:00	4554	588	-3.4	-4.8	269	20
2023-08-24T12:00	4575	586	-3.6	-4.9	271	20
2023-08-24T12:00	4595	584	-3.8	-4.9	272	20
2023-08-24T12:00	4615	583	-3.9	-4.4	273	21
2023-08-24T12:00	4644	581	-4.1	-4.3	273	21
2023-08-24T12:00	4662	579	-4.2	-4.5	273	20
2023-08-24T12:00	4693	577	-4.2	-5.1	273	20
2023-08-24T12:00	4724	575	-4.4	-5.6	272	20
2023-08-24T12:00	4742	574	-4.5	-5.7	272	19
2023-08-24T12:00	4758	572	-4.7	-5.7	273	19
2023-08-24T12:00	4776	571	-4.8	-5.6	274	18
2023-08-24T12:00	4795	570	-5.0	-5.7	275	18
2023-08-24T12:00	4826	568	-5.2	-6.0	275	18
2023-08-24T12:00	4850	566	-5.3	-6.1	275	18
2023-08-24T12:00	4866	565	-5.5	-6.2	274	18
2023-08-24T12:00	4885	563	-5.5	-6.2	274	18
2023-08-24T12:00	4901	562	-5.6	-6.5	274	19
2023-08-24T12:00	4918	561	-5.7	-6.5	274	19
2023-08-24T12:00	4943	559	-5.9	-6.6	275	20
2023-08-24T12:00	4970	557	-6.1	-6.8	274	20
2023-08-24T12:00	4994	556	-6.1	-6.9	273	20
2023-08-24T12:00	5016	554	-6.3	-7.2	272	20
2023-08-24T12:00	5048	552	-6.5	-7.5	270	20
2023-08-24T12:00	5071	550	-6.7	-7.9	268	20
2023-08-24T12:00	5086	549	-6.8	-8.0	268	20
2023-08-24T12:00	5104	548	-6.9	-8.4	268	20
2023-08-24T12:00	5124	546	-6.9	-8.8	269	20
2023-08-24T12:00	5143	545	-6.9	-9.1	269	20
2023-08-24T12:00	5166	543	-7.1	-9.2	269	20
2023-08-24T12:00	5192	542	-7.2	-9.3	270	20
2023-08-24T12:00	5225	539	-7.5	-9.6	270	20
2023-08-24T12:00	5251	537	-7.6	-9.8	270	20
2023-08-24T12:00	5274	536	-7.8	-9.6	270	20
2023-08-24T12:00	5302	534	-8.0	-9.6	270	21
2023-08-24T12:00	5328	532	-8.0	-10.4	269	21
2023-08-24T12:00	5348	531	-8.2	-10.5	269	20
2023-08-24T12:00	5375	529	-8.3	-11.0	268	20
2023-08-24T12:00	5395	527	-8.4	-11.2	268	19
2023-08-24T12:00	5422	526	-8.6	-11.6	268	18
2023-08-24T12:00	5446	524	-8.6	-12.5	269	17
2023-08-24T12:00	5465	523	-8.6	-12.7	270	16
2023-08-24T12:00	5484	522	-8.7	-12.9	271	16
2023-08-24T12:00	5510	520	-8.9	-12.9	272	16
2023-08-24T12:00	5536	518	-9.2	-13.1	273	16
2023-08-24T12:00	5552	517	-9.3	-13.0	275	16
2023-08-24T12:00	5571	516	-9.4	-13.2	277	16
2023-08-24T12:00	5592	514	-9.6	-13.4	278	16
2023-08-24T12:00	5621	513	-9.7	-13.8	279	16
2023-08-24T12:00	5648	511	-9.9	-14.0	279	16
2023-08-24T12:00	5673	509	-10.1	-14.0	279	17
2023-08-24T12:00	5702	507	-10.3	-14.2	278	17
2023-08-24T12:00	5733	505	-10.5	-14.6	278	17
2023-08-24T12:00	5752	504	-10.6	-14.9	278	18
2023-08-24T12:00	5771	503	-10.7	-15.2	278	18
2023-08-24T12:00	5789	501	-10.8	-15.2	278	18
2023-08-24T12:00	5809	500	-10.9	-15.4	279	19
2023-08-24T12:00	5827	499	-11.1	-15.7	278	19
2023-08-24T12:00	5846	498	-11.1		278	19
2023-08-24T12:00	5864	496	-11.0	-17.5	277	18
2023-08-24T12:00	5894	495	-11.0	-18.1	276	18
2023-08-24T12:00	5924	493	-11.0	-19.1	275	18
2023-08-24T12:00	5943	491	-11.0	-19.9	275	18
2023-08-24T12:00	5963	490	-11.1	-20.3	275	18
2023-08-24T12:00	5988	489	-11.2	-20.5	276	18
2023-08-24T12:00	6016	487	-11.4	-20.8	277	18
2023-08-24T12:00	6042	485	-11.6	-21.6	279	18
2023-08-24T12:00	6069	483	-11.8	-21.9	281	18
2023-08-24T12:00	6094	482	-12.0	-22.4	283	17
2023-08-24T12:00	6122	480	-12.2	-22.8	285	17
2023-08-24T12:00	6139	479	-12.4	-23.3	287	16
2023-08-24T12:00	6164	477	-12.6	-23.3	288	16
2023-08-24T12:00	6192	476	-12.9	-23.6	288	16
2023-08-24T12:00	6214	474	-13.1	-23.7	287	16
2023-08-24T12:00	6231	473	-13.2	-23.9	287	16
2023-08-24T12:00	6253	472	-13.4	-24.1	288	16
2023-08-24T12:00	6273	471	-13.6	-24.6	289	17
2023-08-24T12:00	6298	469	-13.8	-24.7	291	17
2023-08-24T12:00	6322	468	-14.0	-25.2	294	17
2023-08-24T12:00	6350	466	-14.2	-25.8	296	16
2023-08-24T12:00	6384	464	-14.5	-26.3	298	16
2023-08-24T12:00	6407	462	-14.7	-26.5	300	16
2023-08-24T12:00	6428	461	-14.9	-26.4	301	16
2023-08-24T12:00	6448	460	-15.1	-26.7	301	17
2023-08-24T12:00	6473	459	-15.3	-27.3	300	17
2023-08-24T12:00	6496	457	-15.5	-27.6	299	18
2023-08-24T12:00	6522	455	-15.7	-27.9	298	19
2023-08-24T12:00	6550	454	-16.0	-27.9	297	20
2023-08-24T12:00	6578	452	-16.1	-28.3	296	21
2023-08-24T12:00	6597	451	-16.2	-28.7	296	22
2023-08-24T12:00	6620	450	-16.1	-28.8	296	22
2023-08-24T12:00	6637	449	-16.0	-28.9	296	22
2023-08-24T12:00	6654	448	-16.2	-28.8	297	22
2023-08-24T12:00	6671	447	-16.3	-28.8	298	22
2023-08-24T12:00	6688	446	-16.4	-28.4	299	22
2023-08-24T12:00	6705	445	-16.4	-28.4	300	22
2023-08-24T12:00	6722	444	-16.5	-28.5	300	22
2023-08-24T12:00	6737	443	-16.6	-28.7	300	22
2023-08-24T12:00	6752	442	-16.7	-28.9	300	22
2023-08-24T12:00	6771	441	-16.8	-28.9	299	22
2023-08-24T12:00	6788	440	-17.0	-29.1	299	22
2023-08-24T12:00	6804	439	-17.1	-29.2	298	22
2023-08-24T12:00	6823	438	-17.2	-29.4	298	22
2023-08-24T12:00	6840	437	-17.3	-29.8	298	22
2023-08-24T12:00	6860	435	-17.4	-30.0	298	22
2023-08-24T12:00	6883	434	-17.6	-30.1	297	22
2023-08-24T12:00	6912	432	-17.8	-30.3	297	22
2023-08-24T12:00	6940	431	-18.0	-30.6	296	22
2023-08-24T12:00	6967	429	-18.2	-30.5	296	22
2023-08-24T12:00	6993	428	-18.4	-30.6	295	22
2023-08-24T12:00	7023	426	-18.7	-30.9	295	21
2023-08-24T12:00	7044	425	-18.8	-30.9	295	21
2023-08-24T12:00	7061	424	-19.0	-31.1	295	21
2023-08-24T12:00	7078	423	-19.1	-31.1	294	22
2023-08-24T12:00	7095	422	-19.3	-31.2	294	22
2023-08-24T12:00	7114	421	-19.4	-31.3	294	22
2023-08-24T12:00	7132	420	-19.5	-31.5	294	22
2023-08-24T12:00	7150	419	-19.7	-31.7	293	23
2023-08-24T12:00	7172	418	-19.8	-31.8	293	23
2023-08-24T12:00	7192	417	-20.0	-31.8	293	23
2023-08-24T12:00	7212	415	-20.2	-31.8	293	23
2023-08-24T12:00	7231	414	-20.3	-31.7	292	23
2023-08-24T12:00	7254	413	-20.6	-31.8	292	23
2023-08-24T12:00	7278	412	-20.8	-31.8	293	23
2023-08-24T12:00	7301	410	-21.0	-32.0	293	23
2023-08-24T12:00	7327	409	-21.2	-32.2	294	23
2023-08-24T12:00	7358	407	-21.4	-32.7	294	23
2023-08-24T12:00	7386	406	-21.7	-32.9	295	23
2023-08-24T12:00	7415	404	-21.9	-33.4	295	22
2023-08-24T12:00	7448	402	-22.2	-33.6	296	22
2023-08-24T12:00	7477	401	-22.4	-34.2	297	23
2023-08-24T12:00	7508	399	-22.6	-34.0	297	23
2023-08-24T12:00	7537	397	-22.9	-34.0	298	24
2023-08-24T12:00	7560	396	-23.1	-34.1	298	24
2023-08-24T12:00	7585	395	-23.3	-34.0	298	25
2023-08-24T12:00	7613	393	-23.6	-34.3	298	24
2023-08-24T12:00	7633	392	-23.7	-34.4	297	24
2023-08-24T12:00	7659	391	-23.9	-34.8	295	24
2023-08-24T12:00	7689	389	-24.1	-35.0	294	24
2023-08-24T12:00	7720	388	-24.3	-35.2	293	23
2023-08-24T12:00	7747	386	-24.6	-35.5	292	23
2023-08-24T12:00	7778	384	-24.9	-35.9	292	24
2023-08-24T12:00	7815	383	-25.2	-36.6	292	24
2023-08-24T12:00	7843	381	-25.4	-37.0	291	24
2023-08-24T12:00	7862	380	-25.5	-36.9	291	24
2023-08-24T12:00	7878	379	-25.7	-37.4	291	24
2023-08-24T12:00	7898	378	-25.8	-37.2	290	24
2023-08-24T12:00	7917	377	-26.0	-37.2	290	24
2023-08-24T12:00	7934	376	-26.1	-37.4	290	24
2023-08-24T12:00	7952	375	-26.3	-37.6	290	23
2023-08-24T12:00	7969	374	-26.4	-37.9	290	23
2023-08-24T12:00	7990	373	-26.4	-38.7	289	23
2023-08-24T12:00	8006	373	-26.5	-38.7	290	23
2023-08-24T12:00	8024	372	-26.6	-38.9	290	23
2023-08-24T12:00	8041	371	-26.8	-38.8	290	23
2023-08-24T12:00	8059	370	-27.0	-38.8	290	23
2023-08-24T12:00	8077	369	-27.1	-38.9	289	23
2023-08-24T12:00	8097	368	-27.3	-39.0	289	23
2023-08-24T12:00	8115	367	-27.4	-38.9	289	23
2023-08-24T12:00	8132	366	-27.6	-39.1	289	23
2023-08-24T12:00	8151	365	-27.8	-39.0	289	23
2023-08-24T12:00	8168	364	-28.0	-39.1	289	23
2023-08-24T12:00	8188	363	-28.1	-39.1	289	23
2023-08-24T12:00	8204	362	-28.3	-39.3	289	23
2023-08-24T12:00	8223	362	-28.5	-39.4	289	23
2023-08-24T12:00	8241	361	-28.7	-39.0	289	23
2023-08-24T12:00	8259	360	-28.8	-38.8	289	23
2023-08-24T12:00	8276	359	-28.9	-39.3	289	23
2023-08-24T12:00	8294	358	-29.1	-39.3	290	24
2023-08-24T12:00	8311	357	-29.2	-39.3	290	24
2023-08-24T12:00	8329	356	-29.4	-39.6	290	24
2023-08-24T12:00	8346	355	-29.5	-39.5	290	24
2023-08-24T12:00	8364	354	-29.8	-39.6	290	24
2023-08-24T12:00	8382	354	-30.0	-39.7	290	24
2023-08-24T12:00	8403	353	-30.1	-39.7	290	24
2023-08-24T12:00	8421	352	-30.2	-39.8	290	24
2023-08-24T12:00	8439	351	-30.4	-39.7	290	25
2023-08-24T12:00	8458	350	-30.7	-39.6	290	25
2023-08-24T12:00	8482	349	-30.8	-39.9	290	26
2023-08-24T12:00	8506	347	-31.1	-39.9	290	26
2023-08-24T12:00	8535	346	-31.4	-39.9	290	26
2023-08-24T12:00	8563	345	-31.6	-40.3	290	26
2023-08-24T12:00	8592	343	-31.8	-40.4	290	26
2023-08-24T12:00	8621	342	-32.1	-40.5	289	25
2023-08-24T12:00	8651	340	-32.4	-40.5	288	25
2023-08-24T12:00	8674	339	-32.7	-40.7	287	26
2023-08-24T12:00	8696	338	-32.9	-41.3	287	26
2023-08-24T12:00	8720	337	-33.2	-41.4	287	27
2023-08-24T12:00	8749	336	-33.2	-43.4	288	27
2023-08-24T12:00	8778	334	-33.2	-41.9	289	28
2023-08-24T12:00	8807	333	-33.5	-41.9	289	28
2023-08-24T12:00	8830	332	-33.7	-41.8	289	27
2023-08-24T12:00	8853	331	-33.9	-42.0	289	27
2023-08-24T12:00	8873	330	-34.0	-42.3	290	26
2023-08-24T12:00	8891	329	-34.1	-42.1	290	26
2023-08-24T12:00	8915	328	-34.4	-42.2	290	26
2023-08-24T12:00	8940	327	-34.7	-42.2	291	26
2023-08-24T12:00	8958	326	-34.9	-42.5	291	26
2023-08-24T12:00	8977	325	-35.0	-43.1	291	26
2023-08-24T12:00	8996	324	-35.1	-43.4	291	26
2023-08-24T12:00	9013	323	-35.3	-43.9	291	26
2023-08-24T12:00	9032	322	-35.4	-44.2	291	26
2023-08-24T12:00	9049	322	-35.5	-44.5	291	26
2023-08-24T12:00	9067	321	-35.7	-44.9	291	26
2023-08-24T12:00	9086	320	-35.8	-44.9	291	26
2023-08-24T12:00	9103	319	-36.0	-44.8	291	26
2023-08-24T12:00	9123	318	-36.1	-44.8	291	26
2023-08-24T12:00	9140	317	-36.3	-44.8	291	26
2023-08-24T12:00	9160	317	-36.5	-44.8	290	26
2023-08-24T12:00	9176	316	-36.7	-44.6	290	26
2023-08-24T12:00	9195	315	-36.8	-44.6	290	26
2023-08-24T12:00	9213	314	-37.0	-44.6	290	26
2023-08-24T12:00	9232	313	-37.3	-44.6	289	26
2023-08-24T12:00	9249	312	-37.3	-44.7	289	26
2023-08-24T12:00	9268	312	-37.6	-44.9	289	26
2023-08-24T12:00	9285	311	-37.7	-44.6	289	26
2023-08-24T12:00	9304	310	-37.9	-44.7	289	26
2023-08-24T12:00	9322	309	-38.1	-45.2	290	26
2023-08-24T12:00	9340	308	-38.3	-45.3	290	26
2023-08-24T12:00	9359	308	-38.3	-45.2	290	26
2023-08-24T12:00	9376	307	-38.5	-45.3	290	26
2023-08-24T12:00	9394	306	-38.7	-45.4	290	26
2023-08-24T12:00	9411	305	-38.9	-45.7	290	26
2023-08-24T12:00	9428	304	-39.0	-45.8	291	26
2023-08-24T12:00	9446	304	-39.2	-45.8	291	26
2023-08-24T12:00	9464	303	-39.3	-45.8	291	26
2023-08-24T12:00	9479	302	-39.5	-45.9	292	26
2023-08-24T12:00	9498	301	-39.6	-45.9	292	26
2023-08-24T12:00	9516	301	-39.8	-46.2	293	26
2023-08-24T12:00	9533	300	-40.0	-46.0	293	27
2023-08-24T12:00	9548	299	-40.1	-45.9	294	27
2023-08-24T12:00	9566	298	-40.3	-46.0	294	27
2023-08-24T12:00	9582	298	-40.4	-46.1	294	27
2023-08-24T12:00	9601	297	-40.5	-46.5	295	27
2023-08-24T12:00	9618	296	-40.6	-46.6	295	28
2023-08-24T12:00	9633	295	-40.8	-46.9	295	28
2023-08-24T12:00	9648	295	-40.8	-47.2	294	28
2023-08-24T12:00	9666	294	-40.9	-47.6	294	28
2023-08-24T12:00	9684	293	-40.9	-48.4	294	28
2023-08-24T12:00	9698	293	-41.1	-49.6	294	28
2023-08-24T12:00	9717	292	-41.1	-50.3	294	28
2023-08-24T12:00	9734	291	-41.1	-50.6	294	28
2023-08-24T12:00	9750	290	-41.2	-50.4	294	29
2023-08-24T12:00	9765	290	-41.3	-50.4	293	28
2023-08-24T12:00	9782	289	-41.4	-50.7	293	28
2023-08-24T12:00	9802	288	-41.5	-51.6	292	28
2023-08-24T12:00	9820	287	-41.6	-52.2	292	28
2023-08-24T12:00	9838	287	-41.7	-52.1	292	28
2023-08-24T12:00	9855	286	-41.9	-52.0	292	28
2023-08-24T12:00	9872	285	-42.1	-51.9	292	28
2023-08-24T12:00	9889	284	-42.3	-52.0	292	28
2023-08-24T12:00	9906	284	-42.4	-52.1	292	28
2023-08-24T12:00	9925	283	-42.5	-52.2	292	28
2023-08-24T12:00	9941	282	-42.7	-52.2	292	28
2023-08-24T12:00	9959	282	-42.9		292	28
2023-08-24T12:00	9977	281	-43.0	-52.2	292	28
2023-08-24T12:00	9993	280	-43.2	-52.4	292	28
2023-08-24T12:00	10013	279	-43.4	-52.6	291	28
2023-08-24T12:00	10031	279	-43.5	-52.6	291	28
2023-08-24T12:00	10051	278	-43.7	-52.6	291	28
2023-08-24T12:00	10067	277	-43.9	-52.7	291	28
2023-08-24T12:00	10084	276	-44.0	-52.7	291	28
2023-08-24T12:00	10101	276	-44.2	-52.8	291	28
2023-08-24T12:00	10120	275	-44.3	-52.8	291	28
2023-08-24T12:00	10137	274	-44.5	-53.3	291	28
2023-08-24T12:00	10155	273	-44.6	-53.5	291	28
2023-08-24T12:00	10171	273	-44.7	-53.5	291	28
2023-08-24T12:00	10189	272	-45.0	-53.5	291	28
2023-08-24T12:00	10207	271	-45.1	-53.5	291	28
2023-08-24T12:00	10224	271	-45.2	-53.9	291	28
2023-08-24T12:00	10241	270	-45.4	-54.3	291	28
2023-08-24T12:00	10259	269	-45.5	-54.3	291	28
2023-08-24T12:00	10275	269	-45.6	-54.6	291	27
2023-08-24T12:00	10291	268	-45.8	-54.7	291	27
2023-08-24T12:00	10308	267	-46.0	-54.9	291	27
2023-08-24T12:00	10325	267	-46.2	-55.1	292	27
2023-08-24T12:00	10341	266	-46.2	-55.4	292	27
2023-08-24T12:00	10360	265	-46.4	-55.5	292	27
2023-08-24T12:00	10376	265	-46.5	-55.2	292	27
2023-08-24T12:00	10394	264	-46.7	-55.4	292	27
2023-08-24T12:00	10407	263	-46.8	-55.5	292	27
2023-08-24T12:00	10426	263	-47.0	-55.5	292	27
2023-08-24T12:00	10443	262	-47.1	-55.5	291	27
2023-08-24T12:00	10461	261	-47.3	-55.6	291	27
2023-08-24T12:00	10477	261	-47.4	-55.7	290	27
2023-08-24T12:00	10494	260	-47.6	-56.0	290	27
2023-08-24T12:00	10511	259	-47.8	-56.1	290	27
2023-08-24T12:00	10526	259	-48.0	-56.1	290	27
2023-08-24T12:00	10543	258	-48.1	-56.3	290	27
2023-08-24T12:00	10560	257	-48.2	-56.6	290	27
2023-08-24T12:00	10576	257	-48.3	-56.8	290	27
2023-08-24T12:00	10594	256	-48.5	-56.9	290	27
2023-08-24T12:00	10610	255	-48.7	-56.9	290	27
2023-08-24T12:00	10629	255	-48.8	-56.9	290	27
2023-08-24T12:00	10646	254	-49.0	-57.1	290	27
2023-08-24T12:00	10661	253	-49.2	-57.1	290	27
2023-08-24T12:00	10677	253	-49.2	-56.9	290	27
2023-08-24T12:00	10694	252	-49.4	-57.1	289	27
2023-08-24T12:00	10713	251	-49.6	-57.2	289	27
2023-08-24T12:00	10732	251	-49.7	-57.3	289	27
2023-08-24T12:00	10752	250	-49.9	-57.7	289	27
2023-08-24T12:00	10772	249	-50.1	-57.9	289	28
2023-08-24T12:00	10790	248	-50.2	-57.8	289	28
2023-08-24T12:00	10808	248	-50.4	-57.7	289	28
2023-08-24T12:00	10829	247	-50.6	-57.8	289	29
2023-08-24T12:00	10848	246	-50.8	-57.8	289	29
2023-08-24T12:00	10868	245	-50.9	-57.8	289	29
2023-08-24T12:00	10887	245	-51.1	-57.8	290	29
2023-08-24T12:00	10906	244	-51.3	-58.0	290	30
2023-08-24T12:00	10922	243	-51.5	-58.0	291	30
2023-08-24T12:00	10939	243	-51.6	-58.0	291	30
2023-08-24T12:00	10957	242	-51.7	-58.3	292	30
2023-08-24T12:00	10973	241	-51.9	-58.6	292	30
2023-08-24T12:00	10990	241	-52.0	-58.8	293	31
2023-08-24T12:00	11008	240	-52.1	-59.2	293	30
2023-08-24T12:00	11026	240	-52.1	-59.5	294	30
2023-08-24T12:00	11043	239	-52.3	-59.9	294	30
2023-08-24T12:00	11062	238	-52.4	-60.0	295	30
2023-08-24T12:00	11081	238	-52.5	-59.9	295	30
2023-08-24T12:00	11100	237	-52.7	-59.9	295	30
2023-08-24T12:00	11119	236	-52.9	-59.9	295	30
2023-08-24T12:00	11137	235	-53.0	-59.9	295	30
2023-08-24T12:00	11157	235	-53.1	-59.8	295	30
2023-08-24T12:00	11174	234	-53.3	-59.9	295	30
2023-08-24T12:00	11191	233	-53.5		295	30
2023-08-24T12:00	11210	233	-53.7	-59.8	295	30
2023-08-24T12:00	11230	232	-53.9	-59.9	295	30
2023-08-24T12:00	11249	231	-54.0	-60.0	296	30
2023-08-24T12:00	11265	231	-54.2	-60.0	296	30
2023-08-24T12:00	11282	230	-54.4	-59.9	296	30
2023-08-24T12:00	11302	230	-54.6	-59.9	296	30
2023-08-24T12:00	11319	229	-54.7	-59.9	296	30
2023-08-24T12:00	11338	228	-54.9	-59.9	296	31
2023-08-24T12:00	11356	228	-55.1	-60.0	296	31
2023-08-24T12:00	11373	227	-55.2	-60.5	295	31
2023-08-24T12:00	11392	226	-55.0	-61.0	295	31
2023-08-24T12:00	11411	226	-55.0	-61.7	295	31
2023-08-24T12:00	11429	225	-55.1	-62.0	295	31
2023-08-24T12:00	11447	224	-55.3	-62.2	295	31
2023-08-24T12:00	11465	224	-55.4	-62.2	295	31
2023-08-24T12:00	11485	223	-55.5	-62.3	295	32
2023-08-24T12:00	11504	222	-55.6	-62.5	294	32
2023-08-24T12:00	11524	222	-55.6	-62.7	294	33
2023-08-24T12:00	11544	221	-55.7	-63.0	294	33
2023-08-24T12:00	11567	220	-55.8	-63.5	295	33
2023-08-24T12:00	11586	219	-55.4	-63.8	295	34
2023-08-24T12:00	11606	219	-55.4	-64.4	295	34
2023-08-24T12:00	11628	218	-55.5	-64.5	295	34
2023-08-24T12:00	11645	217	-55.7	-64.6	295	34
2023-08-24T12:00	11668	217	-55.7	-64.7	295	34
2023-08-24T12:00	11688	216	-55.8	-64.8	294	34
2023-08-24T12:00	11709	215	-55.9	-64.8	294	34
2023-08-24T12:00	11730	215	-56.1	-65.1	293	34
2023-08-24T12:00	11751	214	-56.1	-65.2	292	34
2023-08-24T12:00	11769	213	-56.2	-65.3	292	34
2023-08-24T12:00	11790	213	-56.2	-65.1	291	35
2023-08-24T12:00	11809	212	-56.4	-64.9	291	35
2023-08-24T12:00	11828	211	-56.5	-64.6	291	34
2023-08-24T12:00	11846	211	-56.7	-64.4	291	34
2023-08-24T12:00	11863	210	-56.6		291	34
2023-08-24T12:00	11882	210	-56.8	-64.3	291	34
2023-08-24T12:00	11900	209	-56.9	-64.2	291	35
2023-08-24T12:00	11919	208	-57.0	-64.1	291	35
2023-08-24T12:00	11939	208	-57.2	-64.1	291	35
2023-08-24T12:00	11961	207	-57.4	-64.1	292	35
2023-08-24T12:00	11982	206	-57.5	-64.2	292	35
2023-08-24T12:00	12003	206	-57.7	-64.4	292	36
2023-08-24T12:00	12025	205	-57.9	-64.6	292	36
2023-08-24T12:00	12048	204	-58.1	-64.8	292	36
2023-08-24T12:00	12071	203	-58.3	-65.0	292	36
2023-08-24T12:00	12092	203	-58.4	-65.1	292	36
2023-08-24T12:00	12113	202	-58.7	-65.5	292	36
2023-08-24T12:00	12138	201	-58.9	-65.8	292	36
2023-08-24T12:00	12158	201	-59.1	-66.0	293	35
2023-08-24T12:00	12175	200	-59.1	-65.6	293	35
2023-08-24T12:00	12194	199	-59.1	-65.1	293	35
2023-08-24T12:00	12213	199	-59.3	-65.0	294	35
2023-08-24T12:00	12232	198	-59.4	-64.9	294	35
2023-08-24T12:00	12250	198	-59.5	-64.7	294	36
2023-08-24T12:00	12269	197	-59.6	-64.6	294	36
2023-08-24T12:00	12286	196	-59.7	-64.6	294	36
2023-08-24T12:00	12305	196	-59.8	-64.7	293	35
2023-08-24T12:00	12323	195	-59.9	-64.9	293	35
2023-08-24T12:00	12341	195	-60.0	-65.7	292	35
2023-08-24T12:00	12360	194	-59.9	-66.9	291	34
2023-08-24T12:00	12379	194	-59.7	-68.2	290	34
2023-08-24T12:00	12407	193	-59.6	-68.9	289	34
2023-08-24T12:00	12428	192	-59.6	-68.9	288	33
2023-08-24T12:00	12445	192	-59.4	-68.1	287	33
2023-08-24T12:00	12465	191	-59.5	-67.5	286	33
2023-08-24T12:00	12484	190	-59.5	-67.0	285	32
2023-08-24T12:00	12500	190	-59.5	-66.7	284	32
2023-08-24T12:00	12518	189	-59.5	-66.7	284	32
2023-08-24T12:00	12534	189	-59.6	-67.2	283	32
2023-08-24T12:00	12553	188	-59.7	-67.9	282	32
2023-08-24T12:00	12569	188	-59.6	-68.8	282	32
2023-08-24T12:00	12588	187	-59.6	-70.1	282	32
2023-08-24T12:00	12605	187	-59.4	-71.4	282	32
2023-08-24T12:00	12624	186	-59.2	-72.6	282	32
2023-08-24T12:00	12640	186	-59.2	-73.5	282	33
2023-08-24T12:00	12657	185	-59.0	-73.7	282	33
2023-08-24T12:00	12674	185	-58.9	-73.8	282	33
2023-08-24T12:00	12695	184	-58.7	-73.7	282	33
2023-08-24T12:00	12714	184	-58.6	-73.3	281	33
2023-08-24T12:00	12731	183	-58.5	-72.8	281	33
2023-08-24T12:00	12748	182	-58.6	-72.6	281	33
2023-08-24T12:00	12767	182	-58.6	-72.4	281	33
2023-08-24T12:00	12786	181	-58.8	-72.4	282	33
2023-08-24T12:00	12805	181	-59.0	-72.4	283	33
2023-08-24T12:00	12824	180	-59.1	-72.5	285	33
2023-08-24T12:00	12844	180	-58.8	-72.5	287	33
2023-08-24T12:00	12862	179	-58.6	-72.9	288	33
2023-08-24T12:00	12878	179	-58.1	-73.2	290	33
2023-08-24T12:00	12897	178	-57.7	-73.6	291	33
2023-08-24T12:00	12917	178	-57.6	-74.2	292	33
2023-08-24T12:00	12937	177	-57.4	-74.5	293	33
2023-08-24T12:00	12954	177	-57.2	-74.8	294	33
2023-08-24T12:00	12975	176	-57.0	-75.1	295	32
2023-08-24T12:00	12995	175	-56.9	-75.3	296	31
2023-08-24T12:00	13013	175	-56.9		297	31
2023-08-24T12:00	13032	174	-56.9	-75.7	297	30
2023-08-24T12:00	13051	174	-56.8	-75.7	297	29
2023-08-24T12:00	13072	173	-56.9	-76.0	296	29
2023-08-24T12:00	13092	173	-56.8	-76.0	296	28
2023-08-24T12:00	13110	172	-56.8	-76.2	295	28
2023-08-24T12:00	13128	172	-56.8	-76.4	294	28
2023-08-24T12:00	13150	171	-56.8	-76.5	294	27
2023-08-24T12:00	13169	171	-56.9	-76.7	293	27
2023-08-24T12:00	13189	170	-56.9		293	26
2023-08-24T12:00	13206	170	-57.0	-77.0	292	26
2023-08-24T12:00	13225	169	-57.1	-77.1	290	26
2023-08-24T12:00	13246	169	-57.2	-77.3	289	26
2023-08-24T12:00	13261	168	-57.3	-77.6	288	26
2023-08-24T12:00	13280	168	-57.2	-77.9	287	26
2023-08-24T12:00	13302	167	-56.9	-78.1	285	26
2023-08-24T12:00	13321	167	-56.6	-78.1	284	26
2023-08-24T12:00	13340	166	-56.5	-78.2	284	26
2023-08-24T12:00	13360	166	-56.6	-78.4	283	26
2023-08-24T12:00	13380	165	-56.8		282	26
2023-08-24T12:00	13399	165	-56.9	-78.6	282	26
2023-08-24T12:00	13418	164	-57.0	-78.7	282	26
2023-08-24T12:00	13439	164	-57.2	-78.9	283	26
2023-08-24T12:00	13456	163	-57.2	-79.2	284	26
2023-08-24T12:00	13477	163	-56.7	-79.1	285	26
2023-08-24T12:00	13494	162	-56.5	-79.6	287	26
2023-08-24T12:00	13515	162	-56.2	-79.9	288	26
2023-08-24T12:00	13534	161	-55.8	-80.2	289	25
2023-08-24T12:00	13551	161	-55.6	-80.5	289	25
2023-08-24T12:00	13570	160	-55.6	-80.8	289	24
2023-08-24T12:00	13593	160	-55.6	-81.0	287	24
2023-08-24T12:00	13611	159	-55.3	-81.0	286	24
2023-08-24T12:00	13633	159	-55.2	-81.2	285	24
2023-08-24T12:00	13654	158	-55.2	-81.2	283	24
2023-08-24T12:00	13677	158	-55.3	-81.0	283	24
2023-08-24T12:00	13692	157	-55.5	-81.2	282	24
2023-08-24T12:00	13713	157	-55.7	-81.1	283	24
2023-08-24T12:00	13731	156	-55.8	-81.2	283	24
2023-08-24T12:00	13752	156	-55.8	-81.2	284	24
2023-08-24T12:00	13767	155	-55.8	-81.4	285	24
2023-08-24T12:00	13788	155	-55.8	-81.4	285	25
2023-08-24T12:00	13807	154	-55.6	-81.5	285	25
2023-08-24T12:00	13825	154	-55.3	-81.3	286	25
2023-08-24T12:00	13843	154	-55.4	-81.4	286	25
2023-08-24T12:00	13863	153	-55.5	-81.4	286	24
2023-08-24T12:00	13881	153	-55.6	-81.5	285	25
2023-08-24T12:00	13899	152	-55.6	-81.5	285	25
2023-08-24T12:00	13919	152	-55.4	-81.6	283	25
2023-08-24T12:00	13939	151	-55.3	-81.6	282	25
2023-08-24T12:00	13959	151	-55.3	-81.6	281	26
2023-08-24T12:00	13978	150	-55.4	-81.6	280	26
2023-08-24T12:00	13996	150	-55.5	-81.7	279	26
2023-08-24T12:00	14015	149	-55.5	-81.7	278	27
2023-08-24T12:00	14032	149	-55.5	-81.4	278	27
2023-08-24T12:00	14053	149	-55.4	-81.4	278	27
2023-08-24T12:00	14070	148	-55.3	-81.6	279	27
2023-08-24T12:00	14090	148	-55.4	-81.6	280	27
2023-08-24T12:00	14112	147	-54.7	-81.4	281	26
2023-08-24T12:00	14131	147	-53.5	-80.8	282	25
2023-08-24T12:00	14153	146	-53.0	-80.4	283	24
2023-08-24T12:00	14169	146	-52.9	-80.3	284	24
2023-08-24T12:00	14188	145	-52.9	-80.3	284	23
2023-08-24T12:00	14208	145	-52.9	-80.3	285	22
2023-08-24T12:00	14230	145	-53.0	-80.4	285	21
2023-08-24T12:00	14249	144	-53.1	-80.5	285	21
2023-08-24T12:00	14266	144	-53.2	-80.5	285	20
2023-08-24T12:00	14285	143	-53.2	-80.5	285	19
2023-08-24T12:00	14303	143	-53.3	-80.6	285	19
2023-08-24T12:00	14325	142	-53.5	-80.8	285	18
2023-08-24T12:00	14346	142	-53.6	-80.9	284	17
2023-08-24T12:00	14369	141	-53.6	-80.9	282	17
2023-08-24T12:00	14387	141	-53.5	-80.8	280	16
2023-08-24T12:00	14409	141	-53.3	-80.9	278	16
2023-08-24T12:00	14427	140	-53.1	-80.8	276	16
2023-08-24T12:00	14444	140	-52.9	-80.6	274	17
2023-08-24T12:00	14465	139	-52.9	-80.6	273	17
2023-08-24T12:00	14485	139	-53.0	-80.4	273	17
2023-08-24T12:00	14505	138	-53.1	-80.5	272	17
2023-08-24T12:00	14526	138	-53.3	-80.6	272	18
2023-08-24T12:00	14549	138	-53.5	-80.5	272	18
2023-08-24T12:00	14567	137	-53.6	-80.5	273	18
2023-08-24T12:00	14584	137	-53.8	-80.7	274	19
2023-08-24T12:00	14605	136	-54.0	-80.6	275	19
2023-08-24T12:00	14625	136	-54.1	-80.6	277	19
2023-08-24T12:00	14643	136	-54.2	-80.7	278	20
2023-08-24T12:00	14665	135	-54.4	-80.9	278	20
2023-08-24T12:00	14683	135	-54.5	-80.7	278	20
2023-08-24T12:00	14704	134	-54.5	-80.9	277	21
2023-08-24T12:00	14723	134	-54.6	-81.0	276	21
2023-08-24T12:00	14744	133	-54.5	-80.9	274	21
2023-08-24T12:00	14763	133	-54.2	-81.0	273	21
2023-08-24T12:00	14783	133	-54.2	-81.0	272	21
2023-08-24T12:00	14800	132	-54.2	-81.0	271	22
2023-08-24T12:00	14822	132	-54.2	-81.0	270	22
2023-08-24T12:00	14841	131	-54.3	-81.1	270	22
2023-08-24T12:00	14862	131	-54.4	-81.2	269	22
2023-08-24T12:00	14880	131	-54.5	-81.2	269	22
2023-08-24T12:00	14900	130	-54.6	-81.3	269	22
2023-08-24T12:00	14920	130	-54.5	-81.2	269	22
2023-08-24T12:00	14939	129	-54.4	-81.2	270	22
2023-08-24T12:00	14959	129	-54.4	-81.5	270	21
2023-08-24T12:00	14981	129	-54.4	-81.5	271	21
2023-08-24T12:00	15001	128	-54.4	-81.5	271	21
2023-08-24T12:00	15021	128	-54.5	-81.2	271	21
2023-08-24T12:00	15043	127	-54.6	-81.3	271	21
2023-08-24T12:00	15062	127	-54.7	-81.4	270	21
2023-08-24T12:00	15082	127	-54.8	-81.5	270	22
2023-08-24T12:00	15105	126	-55.0	-81.3	269	22
2023-08-24T12:00	15122	126	-55.1	-81.4	268	22
2023-08-24T12:00	15142	125	-55.3	-81.6	268	22
2023-08-24T12:00	15164	125	-55.4	-81.6	267	23
2023-08-24T12:00	15182	125	-55.6	-81.5	267	23
2023-08-24T12:00	15202	124	-55.8	-81.7	267	23
2023-08-24T12:00	15222	124	-55.9	-81.8	266	24
2023-08-24T12:00	15243	123	-56.1	-81.9	266	24
2023-08-24T12:00	15262	123	-56.2	-81.7	266	25
2023-08-24T12:00	15281	123	-56.4	-81.9	266	25
2023-08-24T12:00	15301	122	-56.5	-82.0	266	26
2023-08-24T12:00	15319	122	-56.6	-82.0	267	26
2023-08-24T12:00	15341	122	-56.7	-82.1	268	26
2023-08-24T12:00	15357	121	-56.8	-82.2	269	26
2023-08-24T12:00	15378	121	-56.9	-82.3	270	26
2023-08-24T12:00	15394	120	-56.9	-82.5	272	26
2023-08-24T12:00	15414	120	-56.8	-82.5	273	26
2023-08-24T12:00	15433	120	-56.7	-82.4	274	26
2023-08-24T12:00	15450	119	-56.7	-82.7	275	26
2023-08-24T12:00	15468	119	-56.7	-82.7	276	25
2023-08-24T12:00	15488	119	-56.7	-82.7	277	25
2023-08-24T12:00	15507	118	-56.7	-82.7	278	25
2023-08-24T12:00	15524	118	-56.6	-82.6	279	24
2023-08-24T12:00	15543	118	-56.6	-82.9	280	23
2023-08-24T12:00	15563	117	-56.6	-82.9	281	23
2023-08-24T12:00	15581	117	-56.6	-82.9	282	22
2023-08-24T12:00	15602	117	-56.6	-82.9	283	22
2023-08-24T12:00	15619	116	-56.6	-82.9	284	21
2023-08-24T12:00	15640	116	-56.4	-82.7	285	20
2023-08-24T12:00	15659	116	-56.4	-82.7	286	19
2023-08-24T12:00	15681	115	-56.4	-82.7	287	19
2023-08-24T12:00	15700	115	-56.5	-83.1	287	18
2023-08-24T12:00	15720	114	-56.5	-83.1	288	18
2023-08-24T12:00	15739	114	-56.5	-83.1	287	17
2023-08-24T12:00	15757	114	-56.5	-82.8	287	17
2023-08-24T12:00	15777	113	-56.5	-82.8	285	17
2023-08-24T12:00	15797	113	-56.6	-82.9	284	16
2023-08-24T12:00	15815	113	-56.7	-82.9	282	16
2023-08-24T12:00	15837	112	-56.8	-83.0	281	16
2023-08-24T12:00	15855	112	-56.9	-83.1	280	17
2023-08-24T12:00	15875	112	-56.9	-83.4	279	17
2023-08-24T12:00	15895	111	-56.7	-83.2	278	17
2023-08-24T12:00	15916	111	-56.6	-83.2	276	17
2023-08-24T12:00	15938	111	-56.7	-83.2	275	18
2023-08-24T12:00	15954	110	-56.7	-83.2	274	18
2023-08-24T12:00	15975	110	-56.6	-83.2	272	18
2023-08-24T12:00	15995	110	-56.6	-83.2	272	19
2023-08-24T12:00	16013	109	-56.7	-83.2	272	19
2023-08-24T12:00	16033	109	-56.9	-83.4	272	19
2023-08-24T12:00	16053	109	-56.9	-83.4	274	19
2023-08-24T12:00	16074	108	-56.6	-83.2	275	19
2023-08-24T12:00	16095	108	-56.4	-83.0	277	19
2023-08-24T12:00	16113	108	-56.4	-83.0	279	19
2023-08-24T12:00	16132	107	-56.5	-83.1	281	19
2023-08-24T12:00	16155	107	-56.5	-83.1	283	19
2023-08-24T12:00	16172	107	-56.3	-82.9	285	18
2023-08-24T12:00	16193	106	-56.1	-82.8	286	18
2023-08-24T12:00	16214	106	-56.1	-82.8	287	18
2023-08-24T12:00	16235	106	-56.2	-82.9	288	17
2023-08-24T12:00	16254	105	-56.3	-82.9	289	17
2023-08-24T12:00	16275	105	-56.4	-83.0	290	17
2023-08-24T12:00	16296	105	-56.6	-82.9	291	17
2023-08-24T12:00	16315	104	-56.7	-82.9	292	16
2023-08-24T12:00	16335	104	-56.9	-83.1	293	16
2023-08-24T12:00	16357	104	-57.0	-83.5	294	16
2023-08-24T12:00	16376	103	-57.0	-83.5	293	15
2023-08-24T12:00	16400	103	-56.9	-83.4	293	15
2023-08-24T12:00	16422	102	-56.8	-83.6	292	14
2023-08-24T12:00	16442	102	-56.9	-83.7	290	13
2023-08-24T12:00	16464	102	-57.0	-83.8	289	13
2023-08-24T12:00	16485	101	-57.2	-83.9	288	12
2023-08-24T12:00	16508	101	-57.3	-84.0	286	12
2023-08-24T12:00	16529	101	-57.5	-84.2	284	12
2023-08-24T12:00	16550	100	-57.4	-84.1	282	11
2023-08-24T12:00	16571	100	-57.5	-83.9	279	11
2023-08-24T12:00	16591	100	-57.7	-84.0	276	11
2023-08-24T12:00	16611	99	-57.7	-84.0	273	11
2023-08-24T12:00	16631	99	-57.7	-84.3	272	11
2023-08-24T12:00	16651	99	-57.8	-84.4	271	11
2023-08-24T12:00	16667	99	-57.6	-84.6	271	12
2023-08-24T12:00	16688	98	-57.4	-84.4	272	12
2023-08-24T12:00	16707	98	-57.3	-84.4	273	12
2023-08-24T12:00	16728	98	-57.3	-84.4	274	13
2023-08-24T12:00	16744	97	-57.4	-84.4	275	13
2023-08-24T12:00	16765	97	-57.4	-84.4	276	13
2023-08-24T12:00	16785	97	-57.4	-84.4	277	13
2023-08-24T12:00	16804	96	-57.4	-84.4	279	13
2023-08-24T12:00	16822	96	-57.4	-84.4	281	13
2023-08-24T12:00	16844	96	-57.3	-84.7	283	12
2023-08-24T12:00	16862	96	-57.3	-84.7	285	12
2023-08-24T12:00	16881	95	-57.3	-84.7	287	12
2023-08-24T12:00	16902	95	-57.3	-84.7	288	11
2023-08-24T12:00	16921	95	-57.4	-84.8	289	11
2023-08-24T12:00	16938	94	-57.4	-84.8	289	11
2023-08-24T12:00	16960	94	-57.5	-84.9	290	11
2023-08-24T12:00	16978	94	-57.6	-84.9	290	12
2023-08-24T12:00	16999	94	-57.5	-84.9	290	12
2023-08-24T12:00	17015	93	-57.6	-84.9	290	12
2023-08-24T12:00	17038	93	-57.7	-85.0	290	13
2023-08-24T12:00	17052	93	-57.7	-84.7	290	13
2023-08-24T12:00	17075	92	-57.8	-85.1	290	13
2023-08-24T12:00	17092	92	-58.0	-85.2	290	14
2023-08-24T12:00	17110	92	-57.7	-85.0	290	14
2023-08-24T12:00	17133	92	-57.5	-84.9	290	14
2023-08-24T12:00	17153	91	-57.6	-84.9	290	14
2023-08-24T12:00	17169	91	-57.8	-85.1	291	14
2023-08-24T12:00	17187	91	-57.9	-85.2	293	14
2023-08-24T12:00	17208	90	-57.9	-85.2	294	13
2023-08-24T12:00	17226	90	-57.9	-85.2	296	13
2023-08-24T12:00	17244	90	-57.9	-85.2	297	13
2023-08-24T12:00	17265	90	-58.0	-85.2	298	12
2023-08-24T12:00	17284	89	-58.0	-85.2	298	12
2023-08-24T12:00	17304	89	-58.1	-85.3	297	11
2023-08-24T12:00	17323	89	-58.1	-85.0	295	11
2023-08-24T12:00	17341	89	-58.3	-85.1	292	10
2023-08-24T12:00	17363	88	-58.4	-85.5	288	10
2023-08-24T12:00	17384	88	-58.5	-85.6	283	10
2023-08-24T12:00	17403	88	-58.4	-85.5	280	10
2023-08-24T12:00	17422	87	-58.1	-85.7	277	10
2023-08-24T12:00	17443	87	-57.8	-85.5	276	11
2023-08-24T12:00	17463	87	-57.7	-85.4	275	12
2023-08-24T12:00	17483	87	-57.7	-85.4	275	12
2023-08-24T12:00	17501	86	-57.5	-85.6	275	12
2023-08-24T12:00	17519	86	-57.5	-85.6	274	12
2023-08-24T12:00	17540	86	-57.5	-85.6	272	12
2023-08-24T12:00	17558	86	-57.4	-85.6	270	12
2023-08-24T12:00	17582	85	-57.3	-85.5	268	12
2023-08-24T12:00	17600	85	-57.3	-85.5	267	12
2023-08-24T12:00	17621	85	-57.3	-85.5	266	12
2023-08-24T12:00	17639	85	-57.1	-85.3	267	12
2023-08-24T12:00	17659	84	-57.0	-85.7	268	13
2023-08-24T12:00	17677	84	-56.9	-85.6	269	13
2023-08-24T12:00	17698	84	-56.8	-85.5	270	13
2023-08-24T12:00	17715	83	-56.8	-85.5	272	13
2023-08-24T12:00	17736	83	-56.6	-85.4	273	12
2023-08-24T12:00	17754	83	-56.2	-85.1	275	12
2023-08-24T12:00	17773	83	-56.2	-85.1	277	12
2023-08-24T12:00	17797	82	-56.2	-85.1	280	11
2023-08-24T12:00	17821	82	-56.2	-85.1	284	11
2023-08-24T12:00	17845	82	-56.1	-85.0	288	11
2023-08-24T12:00	17863	82	-56.2	-85.1	291	11
2023-08-24T12:00	17888	81	-56.4	-85.2	293	10
2023-08-24T12:00	17905	81	-56.5	-85.3	295	10
2023-08-24T12:00	17928	81	-56.7	-85.0	297	10
2023-08-24T12:00	17947	80	-56.8	-85.1	299	10
2023-08-24T12:00	17968	80	-57.0	-85.2	301	10
2023-08-24T12:00	17987	80	-57.1	-85.3	303	11
2023-08-24T12:00	18011	80	-57.3	-85.5	306	11
2023-08-24T12:00	18028	79	-57.4	-85.6	308	10
2023-08-24T12:00	18048	79	-57.5	-85.6	310	10
2023-08-24T12:00	18070	79	-57.5	-85.6	310	9
2023-08-24T12:00	18092	79	-57.5	-85.6	310	9
2023-08-24T12:00	18112	78	-57.4	-85.6	309	8
2023-08-24T12:00	18130	78	-57.4	-85.6	307	7
2023-08-24T12:00	18152	78	-57.4	-85.6	304	7
2023-08-24T12:00	18172	78	-57.5	-85.6	301	6
2023-08-24T12:00	18194	77	-57.6	-85.7	297	6
2023-08-24T12:00	18218	77	-57.7	-85.8	292	5
2023-08-24T12:00	18236	77	-57.7	-85.8	286	5
2023-08-24T12:00	18256	77	-57.8	-85.9	280	5
2023-08-24T12:00	18276	76	-57.9		276	5
2023-08-24T12:00	18298	76	-58.0	-85.6	272	5
2023-08-24T12:00	18318	76	-58.1	-85.7	268	6
2023-08-24T12:00	18338	76	-58.2	-86.2	264	6
2023-08-24T12:00	18360	75	-58.1		260	7
2023-08-24T12:00	18382	75	-58.1		256	8
2023-08-24T12:00	18405	75	-57.8	-86.3	253	8
2023-08-24T12:00	18425	75	-57.5	-86.1	252	9
2023-08-24T12:00	18443	74	-57.2	-85.8	251	9
2023-08-24T12:00	18463	74	-57.3	-85.9	252	10
2023-08-24T12:00	18486	74	-57.3	-85.9	253	10
2023-08-24T12:00	18507	74	-57.4	-86.0	254	11
2023-08-24T12:00	18531	73	-57.4	-86.0	255	11
2023-08-24T12:00	18551	73	-57.5	-86.1	257	11
2023-08-24T12:00	18571	73	-57.6	-86.1	260	11
2023-08-24T12:00	18592	73	-57.5	-86.1	263	11
2023-08-24T12:00	18616	72	-57.5	-86.1	267	11
2023-08-24T12:00	18637	72	-57.5	-86.1	272	11
2023-08-24T12:00	18659	72	-57.5	-86.1	276	11
2023-08-24T12:00	18681	72	-57.4	-86.0	281	11
2023-08-24T12:00	18704	71	-57.5	-86.1	285	11
2023-08-24T12:00	18722	71	-57.6	-86.1	289	11
2023-08-24T12:00	18747	71	-57.6	-86.1	292	11
2023-08-24T12:00	18769	71	-57.6	-86.1	294	10
2023-08-24T12:00	18790	70	-57.4	-86.0	295	9
2023-08-24T12:00	18812	70	-57.1	-86.2	296	9
2023-08-24T12:00	18831	70	-56.9	-86.1	296	8
2023-08-24T12:00	18854	70	-57.0	-86.1	296	7
2023-08-24T12:00	18874	70	-57.0	-86.1	296	7
2023-08-24T12:00	18894	69	-57.2	-85.8	297	6
2023-08-24T12:00	18915	69	-57.3	-85.9	297	6
2023-08-24T12:00	18937	69	-57.4	-86.0	297	6
2023-08-24T12:00	18959	69	-57.6	-86.1	297	5
2023-08-24T12:00	18974	68	-57.5	-86.1	297	5
2023-08-24T12:00	18995	68	-57.5	-86.1	297	5
2023-08-24T12:00	19017	68	-57.5	-86.1	297	5
2023-08-24T12:00	19038	68	-57.4	-86.0	298	5
2023-08-24T12:00	19056	67	-57.4	-86.4	299	5
2023-08-24T12:00	19081	67	-57.2	-86.3	301	5
2023-08-24T12:00	19100	67	-57.1	-86.2	302	5
2023-08-24T12:00	19121	67	-57.2	-86.3	305	5
2023-08-24T12:00	19141	67	-57.2	-86.3	306	5
2023-08-24T12:00	19162	66	-57.3	-86.4	307	5
2023-08-24T12:00	19182	66	-57.4	-86.0	308	4
2023-08-24T12:00	19205	66	-57.4	-86.0	307	4
2023-08-24T12:00	19224	66	-57.4	-86.4	304	4
2023-08-24T12:00	19246	66	-57.1	-86.2	301	4
2023-08-24T12:00	19264	65	-56.8	-86.0	299	4
2023-08-24T12:00	19286	65	-56.8	-86.0	299	5
2023-08-24T12:00	19307	65	-56.9	-86.1	301	5
2023-08-24T12:00	19327	65	-56.9	-86.6	305	5
2023-08-24T12:00	19348	64	-56.7	-86.4	309	6
2023-08-24T12:00	19369	64	-56.2	-86.0	314	5
2023-08-24T12:00	19389	64	-55.9	-85.8	320	5
2023-08-24T12:00	19412	64	-55.9	-85.8	325	5
2023-08-24T12:00	19433	64	-55.9	-85.8	330	4
2023-08-24T12:00	19456	63	-55.8	-85.7	336	4
2023-08-24T12:00	19479	63	-56.0	-85.9	343	4
2023-08-24T12:00	19499	63	-56.2	-85.5	350	3
2023-08-24T12:00	19518	63	-56.3	-85.6	357	3
2023-08-24T12:00	19541	63	-56.3	-85.6	2	3
2023-08-24T12:00	19560	62	-56.1	-85.5	4	3
2023-08-24T12:00	19583	62	-56.1	-85.5	1	3
2023-08-24T12:00	19605	62	-56.2	-85.5	351	2
2023-08-24T12:00	19628	62	-56.3	-85.6	335	2
2023-08-24T12:00	19646	62	-56.2	-85.5	317	3
2023-08-24T12:00	19671	61	-56.2	-85.5	305	3
2023-08-24T12:00	19691	61	-56.2	-85.5	297	3
2023-08-24T12:00	19715	61	-56.2	-85.5	291	3
2023-08-24T12:00	19735	61	-56.1	-85.5	287	3
2023-08-24T12:00	19760	60	-56.2	-86.0	281	3
2023-08-24T12:00	19779	60	-56.2	-86.0	272	3
2023-08-24T12:00	19801	60	-56.2	-86.0	263	3
2023-08-24T12:00	19818	60	-56.1	-86.0	255	3
2023-08-24T12:00	19844	60	-56.0	-85.9	249	3
2023-08-24T12:00	19861	59	-55.9	-85.8	244	4
2023-08-24T12:00	19886	59	-55.8	-85.7	241	4
2023-08-24T12:00	19909	59	-55.9	-85.3	239	5
2023-08-24T12:00	19932	59	-56.2	-85.5	237	5
2023-08-24T12:00	19951	59	-56.2	-85.5	238	6
2023-08-24T12:00	19974	58	-56.2	-85.5	240	6
2023-08-24T12:00	19996	58	-56.3	-85.6	244	6
2023-08-24T12:00	20018	58	-56.3	-85.6	250	6
2023-08-24T12:00	20037	58	-56.3	-85.6	256	6
2023-08-24T12:00	20061	58	-56.4	-85.7	263	6
2023-08-24T12:00	20083	57	-56.4	-85.7	269	6
2023-08-24T12:00	20105	57	-56.3	-85.6	275	6
2023-08-24T12:00	20121	57	-56.1	-86.0	280	6
2023-08-24T12:00	20147	57	-56.1	-86.0	285	6
2023-08-24T12:00	20168	57	-56.1	-85.5	289	6
2023-08-24T12:00	20189	56	-56.2	-85.5	293	6
2023-08-24T12:00	20213	56	-56.3	-85.6	298	6
2023-08-24T12:00	20232	56	-56.2	-85.5	302	6
2023-08-24T12:00	20254	56	-56.2	-85.5	307	6
2023-08-24T12:00	20276	56	-56.3	-85.6	311	6
2023-08-24T12:00	20301	56	-56.4	-85.7	314	5
2023-08-24T12:00	20318	55	-56.4	-85.7	316	5
2023-08-24T12:00	20340	55	-56.1	-86.0	315	4
2023-08-24T12:00	20364	55	-56.0	-85.9	311	4
2023-08-24T12:00	20385	55	-56.0	-85.9	304	3
2023-08-24T12:00	20405	55	-55.9	-85.8	295	4
2023-08-24T12:00	20426	54	-55.8	-85.7	288	4
2023-08-24T12:00	20448	54	-55.9	-85.8	282	4
2023-08-24T12:00	20468	54	-56.1	-85.5	278	5
2023-08-24T12:00	20490	54	-56.2	-85.5	277	6
2023-08-24T12:00	20514	54	-56.1	-85.5	279	7
2023-08-24T12:00	20530	54	-56.1	-85.5	283	7
2023-08-24T12:00	20556	53	-56.1	-86.0	289	8
2023-08-24T12:00	20574	53	-56.1	-86.0	295	8
2023-08-24T12:00	20595	53	-56.0	-85.9	302	8
2023-08-24T12:00	20618	53	-55.7	-85.7	309	8
2023-08-24T12:00	20633	53	-55.6	-85.6	315	8
2023-08-24T12:00	20659	52	-55.5	-86.1	321	8
2023-08-24T12:00	20682	52	-55.3	-85.9	326	8
2023-08-24T12:00	20698	52	-55.2	-85.8	331	8
2023-08-24T12:00	20719	52	-54.9	-85.6	336	8
2023-08-24T12:00	20739	52	-54.6	-85.4	340	8
2023-08-24T12:00	20761	52	-54.5	-85.3	345	8
2023-08-24T12:00	20785	51	-54.6	-85.4	349	8
2023-08-24T12:00	20806	51	-54.6	-85.4	355	8
2023-08-24T12:00	20829	51	-54.8	-85.0	1	8
2023-08-24T12:00	20856	51	-55.0	-85.1	8	7
2023-08-24T12:00	20876	51	-54.9	-85.1	14	7
2023-08-24T12:00	20901	51	-54.8	-85.0	18	7
2023-08-24T12:00	20924	50	-54.8	-85.0	20	6
2023-08-24T12:00	20946	50	-54.9	-85.1	20	6
2023-08-24T12:00	20965	50	-54.8	-85.0	17	5
2023-08-24T12:00	20988	50	-54.8	-85.0	12	4
2023-08-24T12:00	21010	50	-54.8	-85.0	6	3
2023-08-24T12:00	21030	50	-54.8	-85.5	3	3
2023-08-24T12:00	21051	49	-54.7	-85.5	4	3
2023-08-24T12:00	21072	49	-54.6	-85.4	10	3
2023-08-24T12:00	21101	49	-54.3	-85.2	17	3
2023-08-24T12:00	21120	49	-54.0	-84.9	24	4
2023-08-24T12:00	21141	49	-53.9	-84.9	30	4
2023-08-24T12:00	21162	49	-53.9	-84.9	35	4
2023-08-24T12:00	21184	48	-54.0	-84.9	39	4
2023-08-24T12:00	21210	48	-54.1	-85.0	43	4
2023-08-24T12:00	21225	48	-54.1	-85.0	45	3
2023-08-24T12:00	21250	48	-54.1	-85.0	45	3
2023-08-24T12:00	21265	48	-54.1	-85.0	42	3
2023-08-24T12:00	21291	48	-54.2	-85.1	35	2
2023-08-24T12:00	21314	47	-54.3	-85.2	25	2
2023-08-24T12:00	21335	47	-54.3	-85.2	11	2
2023-08-24T12:00	21355	47	-54.2	-85.1	358	2
2023-08-24T12:00	21375	47	-54.0	-84.9	349	2
2023-08-24T12:00	21394	47	-53.9	-84.9	344	2
2023-08-24T12:00	21418	47	-53.8	-84.8	345	3
2023-08-24T12:00	21442	46	-53.7	-85.3	350	3
2023-08-24T12:00	21462	46	-53.6	-85.3	357	3
2023-08-24T12:00	21478	46	-53.5	-85.2	7	3
2023-08-24T12:00	21504	46	-53.4	-85.1	17	3
2023-08-24T12:00	21522	46	-53.2	-85.0	27	3
2023-08-24T12:00	21544	46	-53.1	-84.9	36	3
2023-08-24T12:00	21566	46	-53.2	-85.0	42	3
2023-08-24T12:00	21586	45	-53.3	-84.4	48	3
2023-08-24T12:00	21608	45	-53.4	-84.5	54	3
2023-08-24T12:00	21630	45	-53.5	-84.6	60	3
2023-08-24T12:00	21654	45	-53.6	-84.6	70	3
2023-08-24T12:00	21676	45	-53.6	-84.6	82	2
2023-08-24T12:00	21693	45	-53.7	-84.7	97	2
2023-08-24T12:00	21718	44	-53.7	-84.7	112	2
2023-08-24T12:00	21738	44	-53.8	-84.8	125	2
2023-08-24T12:00	21761	44	-53.8	-84.8	136	2
2023-08-24T12:00	21780	44	-54.0	-84.9	147	2
2023-08-24T12:00	21804	44	-54.1	-85.0	160	2
2023-08-24T12:00	21829	44	-54.2	-85.1	173	2
2023-08-24T12:00	21848	44	-54.3	-84.6	185	2
2023-08-24T12:00	21870	43	-54.4	-84.7	193	2
2023-08-24T12:00	21895	43	-54.6	-84.8	197	2
2023-08-24T12:00	21920	43	-54.6	-84.8	200	3
2023-08-24T12:00	21938	43	-54.6	-85.4	203	3
2023-08-24T12:00	21959	43	-54.7	-85.5	206	3
2023-08-24T12:00	21985	43	-54.7	-85.5	212	2
2023-08-24T12:00	22004	43	-54.7	-84.9	220	2
2023-08-24T12:00	22025	42	-54.7	-84.9	231	2
2023-08-24T12:00	22054	42	-54.7	-84.9	242	2
2023-08-24T12:00	22070	42	-54.8	-85.0	252	2
2023-08-24T12:00	22093	42	-54.9	-85.1	261	2
2023-08-24T12:00	22113	42	-55.1	-85.2	270	2
2023-08-24T12:00	22142	42	-55.3	-85.4	281	2
2023-08-24T12:00	22162	42	-55.4	-85.4	295	2
2023-08-24T12:00	22185	41	-55.6	-85.6	310	2
2023-08-24T12:00	22207	41	-55.6	-85.6	324	2
2023-08-24T12:00	22230	41	-55.7	-85.7	335	2
2023-08-24T12:00	22251	41	-55.7	-85.7	343	2
2023-08-24T12:00	22278	41	-55.8	-85.7	351	3
2023-08-24T12:00	22299	41	-55.8	-85.7	357	3
2023-08-24T12:00	22323	40	-55.9	-85.8	3	3
2023-08-24T12:00	22341	40	-56.1	-86.0	10	3
2023-08-24T12:00	22368	40	-56.1	-85.5	18	3
2023-08-24T12:00	22394	40	-56.2	-85.5	27	3
2023-08-24T12:00	22409	40	-56.3	-85.6	39	2
2023-08-24T12:00	22434	40	-56.3	-86.1	54	2
2023-08-24T12:00	22455	40	-56.3	-86.1	71	2
2023-08-24T12:00	22478	39	-56.3	-86.1	88	2
2023-08-24T12:00	22498	39	-56.4	-86.2	102	2
2023-08-24T12:00	22522	39	-56.4	-86.2	112	2
2023-08-24T12:00	22547	39	-56.3	-86.1	120	2
2023-08-24T12:00	22572	39	-56.3	-86.1	129	1
2023-08-24T12:00	22591	39	-56.3	-86.1	143	1
2023-08-24T12:00	22615	39	-56.3	-86.1	169	1
2023-08-24T12:00	22635	39	-56.3	-86.1	203	1
2023-08-24T12:00	22659	38	-56.2	-86.0	229	1
2023-08-24T12:00	22683	38	-56.3	-86.1	247	2
2023-08-24T12:00	22702	38	-56.2	-86.0	260	2
2023-08-24T12:00	22727	38	-56.2	-86.0	272	2
2023-08-24T12:00	22747	38	-56.3	-86.1	284	2
2023-08-24T12:00	22773	38	-56.2	-86.0	298	1
2023-08-24T12:00	22797	38	-56.0	-85.9	318	1
2023-08-24T12:00	22815	37	-55.9	-85.8	345	1
2023-08-24T12:00	22842	37	-55.8	-86.3	9	1
2023-08-24T12:00	22863	37	-55.7	-86.2	19	1
2023-08-24T12:00	22885	37	-55.6	-86.1	20	1
2023-08-24T12:00	22907	37	-55.4	-86.0	10	1
2023-08-24T12:00	22930	37	-55.4	-86.0	347	1
2023-08-24T12:00	22947	37	-55.5	-86.1	319	1
2023-08-24T12:00	22971	37	-55.5	-86.1	302	2
2023-08-24T12:00	22997	36	-55.4	-86.0	297	2
2023-08-24T12:00	23021	36	-55.4	-86.0	296	3
2023-08-24T12:00	23040	36	-55.4	-86.0	297	4
2023-08-24T12:00	23063	36	-55.4	-86.0	300	4
2023-08-24T12:00	23087	36	-55.4	-85.4	305	4
2023-08-24T12:00	23105	36	-55.4	-85.4	311	5
2023-08-24T12:00	23129	36	-55.6	-85.6	319	5
2023-08-24T12:00	23151	36	-55.7	-85.7	328	5
2023-08-24T12:00	23176	35	-55.6	-86.1	337	4
2023-08-24T12:00	23201	35	-55.4	-86.0	345	4
2023-08-24T12:00	23224	35	-55.3	-85.9	352	4
2023-08-24T12:00	23248	35	-55.3	-85.9	358	3
2023-08-24T12:00	23271	35	-55.5	-86.1	6	2
2023-08-24T12:00	23292	35	-55.5	-86.1	19	2
2023-08-24T12:00	23318	35	-55.5	-86.1	46	1
2023-08-24T12:00	23337	35	-55.4	-86.0	80	1
2023-08-24T12:00	23368	34	-55.3	-85.9	100	1
2023-08-24T12:00	23388	34	-55.1	-85.8	105	1
2023-08-24T12:00	23412	34	-54.9	-85.6	102	1
2023-08-24T12:00	23436	34	-54.8	-86.1	80	0
2023-08-24T12:00	23459	34	-54.6	-86.0	337	0
2023-08-24T12:00	23484	34	-54.5	-85.9	319	1
2023-08-24T12:00	23504	34	-54.4	-85.8	320	1
2023-08-24T12:00	23537	33	-54.3	-85.8	326	1
2023-08-24T12:00	23557	33	-54.4	-85.2	335	2
2023-08-24T12:00	23575	33	-54.6	-85.4	343	2
2023-08-24T12:00	23599	33	-54.7	-85.5	350	2
2023-08-24T12:00	23619	33	-54.6	-85.4	356	3
2023-08-24T12:00	23647	33	-54.5	-85.3	360	3
2023-08-24T12:00	23666	33	-54.4	-85.2	5	3
2023-08-24T12:00	23692	33	-54.5	-85.3	12	3
2023-08-24T12:00	23710	33	-54.6	-85.4	21	3
2023-08-24T12:00	23737	32	-54.6	-85.4	30	3
2023-08-24T12:00	23758	32	-54.6	-85.4	39	3
2023-08-24T12:00	23783	32	-54.5	-85.3	46	4
2023-08-24T12:00	23798	32	-54.5	-85.3	52	4
2023-08-24T12:00	23823	32	-54.6	-85.4	57	4
2023-08-24T12:00	23848	32	-54.7	-85.5	62	4
2023-08-24T12:00	23868	32	-54.7	-85.5	65	5
2023-08-24T12:00	23890	32	-54.7	-85.5	68	5
2023-08-24T12:00	23910	32	-54.7	-85.5	70	5
2023-08-24T12:00	23932	31	-54.6	-85.4	72	5
2023-08-24T12:00	23948	31	-54.6	-85.4	74	5
2023-08-24T12:00	23972	31	-54.5	-85.9	76	5
2023-08-24T12:00	23991	31	-54.4	-85.8	79	5
2023-08-24T12:00	24016	31	-54.3	-85.8	82	4
2023-08-24T12:00	24034	31	-54.3	-85.8	86	4
2023-08-24T12:00	24055	31	-54.3	-85.2	92	3
2023-08-24T12:00	24078	31	-54.5	-85.3	97	3
2023-08-24T12:00	24096	31	-54.7	-85.5	101	2
2023-08-24T12:00	24118	31	-54.8	-86.1	100	2
2023-08-24T12:00	24142	30	-54.6	-86.0	85	2
2023-08-24T12:00	24162	30	-54.3	-85.8	62	2
2023-08-24T12:00	24180	30	-54.1	-85.6	46	2
2023-08-24T12:00	24207	30	-53.8	-85.4	39	3
2023-08-24T12:00	24227	30	-53.8	-86.1	38	3
2023-08-24T12:00	24250	30	-53.7	-86.0	38	4
2023-08-24T12:00	24266	30	-53.5	-85.9	39	4
2023-08-24T12:00	24287	30	-53.2	-85.6	42	5
2023-08-24T12:00	24305	30	-53.1	-85.6	45	5
2023-08-24T12:00	24331	30	-53.1	-85.6	49	5
2023-08-24T12:00	24351	29	-53.1	-85.6	54	5
2023-08-24T12:00	24373	29	-53.0	-84.8	58	5
2023-08-24T12:00	24396	29	-53.0	-84.8	62	5
2023-08-24T12:00	24424	29	-53.1	-84.9	67	5
2023-08-24T12:00	24440	29	-53.2	-85.0	72	5
2023-08-24T12:00	24466	29	-53.3	-85.0	78	5
2023-08-24T12:00	24487	29	-53.2	-85.0	84	5
2023-08-24T12:00	24515	29	-53.2	-85.0	91	5
2023-08-24T12:00	24536	29	-53.3	-85.0	98	5
2023-08-24T12:00	24558	29	-53.4	-85.1	106	5
2023-08-24T12:00	24589	28	-53.5	-85.2	113	5
2023-08-24T12:00	24607	28	-53.6	-85.3	121	5
2023-08-24T12:00	24639	28	-53.7	-85.3	128	5
2023-08-24T12:00	24653	28	-53.7	-85.3	134	5
2023-08-24T12:00	24679	28	-53.7	-85.3	138	5
2023-08-24T12:00	24708	28	-53.7	-85.3	139	4
2023-08-24T12:00	24723	28	-53.6	-85.3	136	4
2023-08-24T12:00	24755	28	-53.6	-85.3	130	3
2023-08-24T12:00	24772	28	-53.5	-85.2	122	3
2023-08-24T12:00	24802	27	-53.4	-85.8	115	3
2023-08-24T12:00	24827	27	-53.2	-85.6	110	2
2023-08-24T12:00	24852	27	-53.1	-85.6	108	2
2023-08-24T12:00	24876	27	-53.0	-85.5	107	2
2023-08-24T12:00	24900	27	-53.0	-85.5	107	2
2023-08-24T12:00	24923	27	-53.1	-84.9	109	2
2023-08-24T12:00	24948	27	-53.2	-85.0	113	2
2023-08-24T12:00	24970	27	-53.3	-85.0	121	3
2023-08-24T12:00	25000	27	-53.3	-85.0	131	3
2023-08-24T12:00	25025	27	-53.2	-85.0	141	4
2023-08-24T12:00	25047	26	-53.2	-85.0	149	4
2023-08-24T12:00	25072	26	-53.2	-85.0	155	4
2023-08-24T12:00	25094	26	-53.2	-85.6	160	4
2023-08-24T12:00	25121	26	-53.2	-85.6	163	4
2023-08-24T12:00	25139	26	-53.2	-85.6	166	4
2023-08-24T12:00	25177	26	-52.9	-85.4	167	3
2023-08-24T12:00	25188	26	-52.6	-85.2	168	3
2023-08-24T12:00	25215	26	-52.4	-85.1	169	2
2023-08-24T12:00	25235	26	-52.4	-85.1	170	2
2023-08-24T12:00	25257	26	-52.4	-85.1	172	2
2023-08-24T12:00	25282	26	-52.2	-84.9	175	1
2023-08-24T12:00	25314	25	-52.0	-84.8	182	1
2023-08-24T12:00	25340	25	-52.0	-84.8	194	1
2023-08-24T12:00	25357	25	-51.9	-84.7	213	1
2023-08-24T12:00	25387	25	-51.9	-84.7	235	1
2023-08-24T12:00	25410	25	-52.0	-84.8	253	1
2023-08-24T12:00	25433	25	-52.0	-84.8	263	1
2023-08-24T12:00	25462	25	-52.1	-84.8	264	1
2023-08-24T12:00	25476	25	-52.1	-84.8	255	1
2023-08-24T12:00	25502	25	-52.2	-84.9	231	1
2023-08-24T12:00	25529	25	-52.3	-85.0	200	1
2023-08-24T12:00	25554	24	-52.3	-85.0	181	1
2023-08-24T12:00	25580	24	-52.2	-84.9	171	2
2023-08-24T12:00	25601	24	-52.2	-84.9	165	2
2023-08-24T12:00	25623	24	-52.1	-84.8	160	2
2023-08-24T12:00	25648	24	-52.1	-84.8	157	2
2023-08-24T12:00	25669	24	-51.9	-84.7	153	2
2023-08-24T12:00	25697	24	-51.6	-84.5	147	1
2023-08-24T12:00	25719	24	-51.4	-85.1	139	1
2023-08-24T12:00	25733	24	-51.4	-85.1	125	1
2023-08-24T12:00	25768	24	-51.3	-85.0	94	0
2023-08-24T12:00	25790	24	-51.2	-85.0	323	0
2023-08-24T12:00	25815	23	-51.2	-85.0	276	0
2023-08-24T12:00	25838	23	-51.1	-84.9	250	1
2023-08-24T12:00	25860	23	-51.0	-84.8	229	1
2023-08-24T12:00	25887	23	-50.8	-84.7	211	1
2023-08-24T12:00	25907	23	-50.7	-84.6	198	1
2023-08-24T12:00	25932	23	-50.7	-84.6	188	2
2023-08-24T12:00	25956	23	-50.7	-84.6	181	2
2023-08-24T12:00	25977	23	-50.8	-84.7	176	2
2023-08-24T12:00	26003	23	-51.0	-84.0	173	3
2023-08-24T12:00	26019	23	-51.1	-84.1	172	3
2023-08-24T12:00	26044	23	-51.3	-84.3	171	3
2023-08-24T12:00	26071	23	-51.3	-84.3	171	3
2023-08-24T12:00	26097	23	-51.4	-84.3	172	3
2023-08-24T12:00	26116	22	-51.3	-84.3	174	3
2023-08-24T12:00	26141	22	-51.3	-84.3	178	2
2023-08-24T12:00	26168	22	-51.3	-84.3	184	2
2023-08-24T12:00	26194	22	-51.3	-84.3	188	3
2023-08-24T12:00	26211	22	-51.2	-84.2	192	3
2023-08-24T12:00	26239	22	-51.2	-85.0	195	3
2023-08-24T12:00	26257	22	-51.1	-84.9	199	3
2023-08-24T12:00	26290	22	-51.0	-84.8	205	3
2023-08-24T12:00	26310	22	-50.9	-84.7	212	3
2023-08-24T12:00	26326	22	-50.7	-84.6	222	2
2023-08-24T12:00	26354	22	-50.6	-84.5	232	2
2023-08-24T12:00	26378	22	-50.6	-84.5	244	1
2023-08-24T12:00	26400	21	-50.4	-84.4	260	1
2023-08-24T12:00	26433	21	-50.2	-84.2	292	1
2023-08-24T12:00	26449	21	-50.2	-84.2	329	1
2023-08-24T12:00	26468	21	-50.2	-84.2	351	1
2023-08-24T12:00	26498	21	-50.2	-84.2	1	2
2023-08-24T12:00	26528	21	-50.3	-84.3	4	2
2023-08-24T12:00	26537	21	-50.3	-84.3	4	3
2023-08-24T12:00	26567	21	-50.3	-84.3	3	4
2023-08-24T12:00	26588	21	-50.2	-84.2	360	4
2023-08-24T12:00	26614	21	-50.1	-84.2	356	4
2023-08-24T12:00	26633	21	-49.9	-84.0	354	4
2023-08-24T12:00	26661	21	-49.7	-83.9	353	4
2023-08-24T12:00	26677	21	-49.7	-83.9	353	4
2023-08-24T12:00	26703	21	-49.8	-84.0	353	3
2023-08-24T12:00	26724	20	-49.9	-84.0	352	3
2023-08-24T12:00	26745	20	-50.0	-84.1	350	3
2023-08-24T12:00	26774	20	-50.2	-84.2	347	2
2023-08-24T12:00	26795	20	-50.1	-84.2	345	2
2023-08-24T12:00	26815	20	-50.1	-84.2	348	1
2023-08-24T12:00	26846	20	-50.1	-84.2	359	1
2023-08-24T12:00	26871	20	-50.1	-84.2	19	1
2023-08-24T12:00	26888	20	-50.1	-84.2	35	1
2023-08-24T12:00	26911	20	-50.1	-84.2	40	2
2023-08-24T12:00	26934	20	-50.0	-84.1	41	2
2023-08-24T12:00	26954	20	-49.8	-84.8	38	2
2023-08-24T12:00	26986	20	-49.6	-84.7	36	2
2023-08-24T12:00	27004	20	-49.4	-84.6	32	1
2023-08-24T12:00	27022	20	-49.2	-84.4	25	1
2023-08-24T12:00	27049	19	-49.1	-84.3	358	0
2023-08-24T12:00	27071	19	-48.8	-84.1	284	0
2023-08-24T12:00	27100	19	-48.6		264	1
2023-08-24T12:00	27117	19	-48.6		264	1
2023-08-24T12:00	27135	19	-48.7	-84.1	268	1
2023-08-24T12:00	27168	19	-48.8	-84.1	272	2
2023-08-24T12:00	27187	19	-48.8	-84.1	275	2
2023-08-24T12:00	27213	19	-48.9	-84.2	276	2
2023-08-24T12:00	27229	19	-48.9	-84.2	276	2
2023-08-24T12:00	27256	19	-48.8	-83.2	275	2
2023-08-24T12:00	27280	19	-48.7	-84.1	275	2
2023-08-24T12:00	27303	19	-48.7	-84.1	275	2
2023-08-24T12:00	27331	19	-48.7	-84.1	276	2
2023-08-24T12:00	27348	19	-48.7	-84.1	280	1
2023-08-24T12:00	27365	19	-48.6		286	1
2023-08-24T12:00	27395	18	-48.6		298	1
2023-08-24T12:00	27409	18	-48.6		314	1
2023-08-24T12:00	27450	18	-48.5	-83.9	328	1
2023-08-24T12:00	27457	18	-48.2	-83.7	338	1
2023-08-24T12:00	27491	18	-47.8	-83.4	345	1
2023-08-24T12:00	27513	18	-47.5	-83.2	351	2
2023-08-24T12:00	27535	18	-47.4	-83.1	355	2
2023-08-24T12:00	27554	18	-47.3	-83.1	359	2
2023-08-24T12:00	27579	18	-47.3	-83.1	4	2
2023-08-24T12:00	27602	18	-47.2	-83.0	12	1
2023-08-24T12:00	27641	18	-47.2	-83.0	30	1
2023-08-24T12:00	27653	18	-47.1	-82.9	63	1
2023-08-24T12:00	27680	18	-47.1	-82.9	98	1
2023-08-24T12:00	27701	18	-47.1	-82.9	123	1
2023-08-24T12:00	27727	18	-47.2	-83.0	142	2
2023-08-24T12:00	27742	17	-47.1	-82.9	157	2
2023-08-24T12:00	27780	17	-47.0	-82.9	170	3
2023-08-24T12:00	27803	17	-46.9	-82.8	181	3
2023-08-24T12:00	27827	17	-46.8	-83.8	191	3
2023-08-24T12:00	27851	17	-46.6	-83.6	200	3
2023-08-24T12:00	27868	17	-46.4	-83.5	207	4
2023-08-24T12:00	27901	17	-46.3	-83.4	214	4
2023-08-24T12:00	27931	17	-46.3	-83.4	220	4
2023-08-24T12:00	27946	17	-46.3	-83.4	225	4
2023-08-24T12:00	27974	17	-46.3	-83.4	230	4
2023-08-24T12:00	27998	17	-46.2	-83.4	236	4
2023-08-24T12:00	28020	17	-46.0	-83.2	243	4
2023-08-24T12:00	28046	17	-45.9	-83.2	249	4
2023-08-24T12:00	28072	17	-45.8	-83.1	254	4
2023-08-24T12:00	28099	17	-45.7	-83.0	258	4
2023-08-24T12:00	28138	17	-45.5	-82.9	261	4
2023-08-24T12:00	28159	16	-45.3	-82.7	262	3
2023-08-24T12:00	28181	16	-45.2	-82.7	264	3
2023-08-24T12:00	28201	16	-45.1	-82.6	265	3
2023-08-24T12:00	28226	16	-45.1	-82.6	268	3
2023-08-24T12:00	28267	16	-45.1	-82.6	273	3
2023-08-24T12:00	28292	16	-45.2	-82.7	283	2
2023-08-24T12:00	28305	16	-45.2	-82.7	297	2
2023-08-24T12:00	28331	16	-45.2	-82.7	314	2
2023-08-24T12:00	28358	16	-45.2	-82.7	328	2
2023-08-24T12:00	28388	16	-45.2	-82.7	337	2
2023-08-24T12:00	28417	16	-45.2	-82.7	342	3
2023-08-24T12:00	28439	16	-45.3	-82.7	346	3
2023-08-24T12:00	28453	16	-45.4	-82.8	350	3
2023-08-24T12:00	28485	16	-45.5	-82.9	356	3
2023-08-24T12:00	28518	16	-45.6	-82.9	4	4
2023-08-24T12:00	28539	16	-45.7	-83.0	13	4
2023-08-24T12:00	28561	15	-45.8	-83.1	23	4
2023-08-24T12:00	28589	15	-45.7	-83.0	33	4
2023-08-24T12:00	28616	15	-45.7	-83.0	44	3
2023-08-24T12:00	28631	15	-45.8	-83.1	58	3
2023-08-24T12:00	28657	15	-45.7	-83.0	78	2
2023-08-24T12:00	28690	15	-45.5	-82.9	103	2
2023-08-24T12:00	28708	15	-45.6	-82.9	124	3
2023-08-24T12:00	28739	15	-45.6	-82.9	137	3
2023-08-24T12:00	28757	15	-45.6	-82.9	146	4
2023-08-24T12:00	28775	15	-45.3	-82.7	152	4
2023-08-24T12:00	28804	15	-45.1	-82.6	160	4
2023-08-24T12:00	28831	15	-45.1	-82.6	169	4
2023-08-24T12:00	28869	15	-45.2	-82.7	180	3
2023-08-24T12:00	28878	15	-45.2	-82.7	191	3
2023-08-24T12:00	28889	15	-45.2	-82.7	202	4
2023-08-24T12:00	28929	15	-45.3	-82.7	211	4
2023-08-24T12:00	28955	15	-45.5	-82.9	219	4
2023-08-24T12:00	28970	15	-45.6	-82.9	226	4
2023-08-24T12:00	28991	15	-45.7	-83.0	232	5
2023-08-24T12:00	29014	14	-45.8	-83.1	237	5
2023-08-24T12:00	29037	14	-45.9	-83.2	242	5
2023-08-24T12:00	29073	14	-46.0	-83.2	248	5
2023-08-24T12:00	29078	14	-45.9	-83.2	252	5
2023-08-24T12:00	29118	14	-45.8	-83.1	257	5
2023-08-24T12:00	29128	14	-45.6	-82.9	261	4
2023-08-24T12:00	29157	14	-45.4	-82.8	265	3
2023-08-24T12:00	29173	14	-45.3	-82.7	271	3
2023-08-24T12:00	29205	14	-45.2	-82.7	279	2
2023-08-24T12:00	29225	14	-45.0	-82.5	290	2
2023-08-24T12:00	29249	14	-44.8	-82.4	304	1
2023-08-24T12:00	29265	14	-44.7	-82.3	330	1
2023-08-24T12:00	29297	14	-44.6	-82.2	10	1
2023-08-24T12:00	29309	14	-44.5	-82.2	39	1
2023-08-24T12:00	29327	14	-44.5	-82.2	52	1
2023-08-24T12:00	29353	14	-44.4	-82.1	59	2
2023-08-24T12:00	29378	14	-44.3	-82.0	65	1
2023-08-24T12:00	29399	14	-44.3	-82.0	78	1
2023-08-24T12:00	29436	14	-44.3	-82.0	122	1
2023-08-24T12:00	29450	14	-44.2	-82.0	180	1
2023-08-24T12:00	29484	14	-44.1	-81.9	197	2
2023-08-24T12:00	29501	13	-44.3	-82.0	202	3
2023-08-24T12:00	29531	13	-44.5	-82.2	205	4
2023-08-24T12:00	29551	13	-44.4	-82.1	207	4
2023-08-24T12:00	29567	13	-44.4	-82.1	210	5
2023-08-24T12:00	29596	13	-44.5	-82.2	213	5
2023-08-24T12:00	29622	13	-44.4	-82.1	216	5
2023-08-24T12:00	29642	13	-44.3	-82.0	221	5
2023-08-24T12:00	29660	13	-44.1	-81.9	226	5
2023-08-24T12:00	29688	13	-44.1	-81.9	233	5
2023-08-24T12:00	29721	13	-44.1	-81.9	241	5
2023-08-24T12:00	29749	13	-44.0	-81.8	249	5
2023-08-24T12:00	29766	13	-44.0	-81.8	257	5
2023-08-24T12:00	29797	13	-44.1	-81.9	263	5
2023-08-24T12:00	29824	13	-44.2	-82.0	269	5
2023-08-24T12:00	29839	13	-44.2	-82.0	275	5
2023-08-24T12:00	29869	13	-44.2	-82.0	282	5
2023-08-24T12:00	29888	13	-44.2	-82.0	289	5
2023-08-24T12:00	29909	13	-44.1	-81.9	298	4
2023-08-24T12:00	29949	13	-44.1	-81.9	307	4
2023-08-24T12:00	29958	13	-44.1	-81.9	317	4
2023-08-24T12:00	29988	13	-44.1	-81.9	327	4
2023-08-24T12:00	30019	12	-44.2	-82.0	334	4
2023-08-24T12:00	30042	12	-44.3	-82.0	341	4
2023-08-24T12:00	30064	12	-44.3	-82.0	348	4
2023-08-24T12:00	30094	12	-44.3	-82.0	355	4
2023-08-24T12:00	30131	12	-44.3	-82.0	4	3
2023-08-24T12:00	30132	12	-44.3	-82.0	13	3
2023-08-24T12:00	30168	12	-44.2	-82.0	21	3
2023-08-24T12:00	30186	12	-44.2	-82.0	28	2
2023-08-24T12:00	30214	12	-44.1	-81.9	34	2
2023-08-24T12:00	30238	12	-44.0	-81.8	41	2
2023-08-24T12:00	30261	12	-43.9	-81.8	53	2
2023-08-24T12:00	30286	12	-43.8	-81.7	72	1
2023-08-24T12:00	30302	12	-43.7	-81.6	96	1
2023-08-24T12:00	30329	12	-43.7	-81.6	117	1
2023-08-24T12:00	30349	12	-43.7	-81.6	132	1
2023-08-24T12:00	30370	12	-43.7	-81.6	140	1
2023-08-24T12:00	30397	12	-43.5	-81.5	134	0
2023-08-24T12:00	30407	12	-43.3	-81.3	69	0
2023-08-24T12:00	30443	12	-43.0	-81.1	45	1
2023-08-24T12:00	30454	12	-42.7	-80.9	52	1
2023-08-24T12:00	30470	12	-42.4	-80.7	63	1
2023-08-24T12:00	30501	12	-42.4	-80.7	73	1
2023-08-24T12:00	30505	12	-42.3	-80.6	80	2
2023-08-24T12:00	30536	12	-42.2	-80.6	85	2
2023-08-24T12:00	30569	11	-42.1	-80.5	90	2
2023-08-24T12:00	30591	11	-42.2	-80.6	95	3
2023-08-24T12:00	30609	11	-42.2	-80.6	100	3
2023-08-24T12:00	30641	11	-42.1	-80.5	105	3
2023-08-24T12:00	30650	11	-42.1	-80.5	109	3
2023-08-24T12:00	30662	11	-42.1	-80.5	110	3
2023-08-24T12:00	30694	11	-42.1	-80.5	109	3
2023-08-24T12:00	30711	11	-42.1	-80.5	101	2
2023-08-24T12:00	30740	11	-42.1	-80.5	87	2
2023-08-24T12:00	30749	11	-42.0	-80.4	69	2
2023-08-24T12:00	30767	11	-41.7	-80.2	55	3
2023-08-24T12:00	30802	11	-41.3	-79.9	46	3
2023-08-24T12:00	30812	11	-41.1	-79.8	41	4
2023-08-24T12:00	30844	11	-41.1	-79.8	38	4
2023-08-24T12:00	30868	11	-41.0	-79.7	37	5
2023-08-24T12:00	30890	11	-40.6	-79.5	38	6
2023-08-24T12:00	30923	11	-40.5	-79.4	40	7
2023-08-24T12:00	30942	11	-40.5	-79.4	42	7
2023-08-24T12:00	30961	11	-40.7	-79.5	46	7
2023-08-24T12:00	30977	11	-40.7	-79.5	49	8
2023-08-24T12:00	31007	11	-40.7	-79.5	54	8
2023-08-24T12:00	31019	11	-40.7	-79.5	58	8
2023-08-24T12:00	31050	11	-40.8	-79.6	63	8
2023-08-24T12:00	31051	11	-40.7	-79.5	67	8
2023-08-24T12:00	31084	11	-40.6	-79.5	73	8
2023-08-24T12:00	31094	11	-40.6	-79.5	78	8
2023-08-24T12:00	31137	11	-40.6	-79.5	84	7
2023-08-24T12:00	31158	11	-40.6	-79.5	89	7
2023-08-24T12:00	31178	11	-40.6	-79.5	94	7
2023-08-24T12:00	31198	10	-40.5	-79.4	99	6
2023-08-24T12:00	31213	10	-40.5	-79.4	104	6
2023-08-24T12:00	31237	10	-40.5	-79.4	108	6
2023-08-24T12:00	31274	10	-40.6	-79.5	113	5
2023-08-24T12:00	31283	10	-40.6	-79.5	118	5
2023-08-24T12:00	31302	10	-40.7	-79.5	124	5
2023-08-24T12:00	31326	10	-40.8	-79.6	132	4
2023-08-24T12:00	31359	10	-40.9	-79.7	141	4
2023-08-24T12:00	31375	10	-40.9	-79.7	151	4
2023-08-24T12:00	31407	10	-41.0	-79.7	161	4
2023-08-24T12:00	31412	10	-41.1	-79.8	170	4
2023-08-24T12:00	31452	10	-41.0	-79.7	177	4
2023-08-24T12:00	31467	10	-40.9	-79.7	184	4
2023-08-24T12:00	31488	10	-40.8	-79.6	190	3
2023-08-24T12:00	31505	10	-40.8	-79.6	198	3
2023-08-24T12:00	31542	10	-40.7	-79.5	206	3
2023-08-24T12:00	31547	10	-40.7	-79.5	213	3
2023-08-24T12:00	31582	10	-40.7	-79.5	218	3
2023-08-24T12:00	31601	10	-40.6	-79.5	222	3
2023-08-24T12:00	31618	10	-40.5	-79.4	223	3
2023-08-24T12:00	31661	10	-40.3	-79.2	224	3
2023-08-24T12:00	31697	10	-40.1	-79.1	224	3
2023-08-24T12:00	31714	10	-40.0	-79.0	225	3
2023-08-24T12:00	31721	10	-40.0	-79.0	226	3
2023-08-24T12:00	31784	10	-40.0	-79.0	227	3
2023-08-24T12:00	31785	10	-40.1	-79.1	228	3
2023-08-24T12:00	31815	10	-40.1	-79.1	230	3
2023-08-24T12:00	31834	10	-40.1	-79.1	231	3
2023-08-24T12:00	31869	10	-40.2	-79.2	233	3
2023-08-24T12:00	31872	9	-40.2	-79.2	234	2
2023-08-24T12:00	31910	9	-40.3	-79.2	236	2
2023-08-24T12:00	31919	9	-40.2	-79.2	238	1
2023-08-24T12:00	31939	9	-40.2	-79.2	241	1
2023-08-24T12:00	31974	9	-40.2	-79.2	241	1
2023-08-24T12:00	31981	9	-40.2	-79.2	231	0
2023-08-24T12:00	32013	9	-40.3	-79.2	162	0
2023-08-24T12:00	32042	9	-40.4	-79.3	119	1
2023-08-24T12:00	32053	9	-40.4	-79.3	117	1
2023-08-24T12:00	32078	9	-40.4	-79.3	122	2
2023-08-24T12:00	32116	9	-40.4	-79.3	128	2
2023-08-24T12:00	32139	9	-40.4	-79.3	135	3
2023-08-24T12:00	32175	9	-40.5	-79.4	146	3
2023-08-24T12:00	32191	9	-40.5	-79.4	151	4
2023-08-24T12:00	32225	9	-40.5	-79.4	155	4
2023-08-24T12:00	32257	9	-40.4	-79.3	161	3
2023-08-24T12:00	32278	9	-40.1	-79.1	177	3
2023-08-24T12:00	32311	9	-40.1	-79.1	190	3
2023-08-24T12:00	32332	9	-40.0	-79.0	203	3
2023-08-24T12:00	32368	9	-39.9	-79.0	216	3
2023-08-24T12:00	32390	9	-39.8	-78.9	223	3
2023-08-24T12:00	32410	9	-39.6	-78.8	229	4
2023-08-24T12:00	32440	9	-39.5	-78.7	229	4
2023-08-24T12:00	32462	9	-39.4	-78.6	228	4
2023-08-24T12:00	32502	9	-39.3	-78.5	228	4
2023-08-24T12:00	32548	9	-39.2	-78.5	233	4
2023-08-24T12:00	32569	9	-39.3	-78.5	239	4
2023-08-24T12:00	32592	9	-39.2	-78.5	254	5
2023-08-24T12:00	32611	9	-39.2	-78.5	260	5
2023-08-24T12:00	32634	8	-39.1	-78.4	265	6
2023-08-24T12:00	32659	8	-39.2	-78.5	269	7
2023-08-24T12:00	32690	8	-39.2	-78.5	272	7
2023-08-24T12:00	32735	8	-39.3	-78.5	276	7
2023-08-24T12:00	32763	8	-39.3	-78.5	276	6
2023-08-24T12:00	32774	8	-39.1	-78.4	273	6
2023-08-24T12:00	32814	8	-38.9	-78.3	268	5
2023-08-24T12:00	32846	8	-38.9	-78.3	261	5
2023-08-24T12:00	32894	8	-39.1	-78.4	241	4
2023-08-24T12:00	32899	8	-39.2	-78.5	229	3
2023-08-24T12:00	32914	8	-39.3	-78.5	214	3
2023-08-24T12:00	32939	8	-39.2	-78.5	200	3
2023-08-24T12:00	32958	8	-39.2	-78.5	188	3
2023-08-24T12:00	32986	8	-39.1	-78.4	180	3
2023-08-24T12:00	32995	8	-39.2	-78.5	177	3
2023-08-24T12:00	33043	8	-39.2	-78.5	179	3
2023-08-24T12:00	33048	8	-38.8	-78.2	196	3
2023-08-24T12:00	33082	8	-38.6	-78.1	207	3
2023-08-24T12:00	33084	8	-38.4	-77.9	217	3
2023-08-24T12:00	33118	8	-38.2	-77.8	224	4
2023-08-24T12:00	33136	8	-38.2	-77.8	229	4
2023-08-24T12:00	33184	8	-38.1	-77.7	233	4
2023-08-24T12:00	33215	8	-38.1	-77.7	239	5
2023-08-24T12:00	33220	8	-38.0	-77.6	240	5
2023-08-24T12:00	33231	8	-37.9	-77.6	240	5
2023-08-24T12:00	33259	8	-37.8	-77.5	239	5
2023-08-24T12:00	33312	8	-37.7	-77.4	238	5
2023-08-24T12:00	33323	8	-37.5	-77.3	238	4
2023-08-24T12:00	33361	8	-37.2	-77.1	243	4
2023-08-24T12:00	33405	8	-37.2	-77.1	247	4
2023-08-24T12:00	33425	8	-37.1	-77.0	254	4
2023-08-24T12:00	33428	8	-37.1	-77.0	257	4
2023-08-24T12:00	33437	8	-37.1	-77.0	260	4
2023-08-24T12:00	33491	8	-37.1	-77.0	262	4
2023-08-24T12:00	33512	7	-37.3	-77.2	268	4
2023-08-24T12:00	33534	7	-37.3	-77.2	271	4
2023-08-24T12:00	33547	7	-37.3	-77.2	275	4
2023-08-24T12:00	33583	7	-37.4	-77.2	279	3
2023-08-24T12:00	33607	7	-37.4	-77.2	283	3
2023-08-24T12:00	33630	7	-37.4	-77.2	287	3
2023-08-24T12:00	33640	7	-37.4	-77.2	290	3
2023-08-24T12:00	33667	7	-37.3	-77.2	293	3
2023-08-24T12:00	33687	7	-37.3	-77.2	294	3
2023-08-24T12:00	33700	7	-37.2	-77.1	294	3
2023-08-24T12:00	33710	7	-37.1	-77.0	291	3
2023-08-24T12:00	33746	7	-37.1	-77.0	287	3
2023-08-24T12:00	33763	7	-37.1	-77.0	284	3
2023-08-24T12:00	33794	7	-37.1	-77.0	284	3
2023-08-24T12:00	33807	7	-37.0	-77.0	285	3
2023-08-24T12:00	33831	7	-36.9	-76.9	289	4
2023-08-24T12:00	33848	7	-36.9	-76.9	294	4
2023-08-24T12:00	33883	7	-37.0	-77.0	306	5
2023-08-24T12:00	33906	7	-37.0	-77.0	312	5
2023-08-24T12:00	33918	7	-37.0	-77.0	318	5
2023-08-24T12:00	33933	7	-37.1	-77.0	323	5
2023-08-24T12:00	33978	7	-37.0	-77.0	328	5
2023-08-24T12:00	33996	7	-36.6	-76.7	340	4
2023-08-24T12:00	34022	7	-36.6	-76.7	348	4
2023-08-24T12:00	34035	7	-36.7	-76.7	358	3
2023-08-24T12:00	34082	7	-36.8	-76.8	11	3
2023-08-24T12:00	34099	7	-36.8	-76.8	43	3
2023-08-24T12:00	34109	7	-36.9	-76.9	59	3
2023-08-24T12:00	34143	7	-36.8	-76.8	71	3
2023-08-24T12:00	34152	7	-36.7	-76.7	79	3
2023-08-24T12:00	34206	7	-36.7	-76.7	82	3
2023-08-24T12:00	34219	7	-36.8	-76.8	81	3
2023-08-24T12:00	34228	7	-37.0	-77.0	77	3
2023-08-24T12:00	34257	7	-36.9	-76.9	45	2
2023-08-24T12:00	34298	7	-36.8	-76.8	16	2
2023-08-24T12:00	34307	7	-36.9	-76.9	353	2
2023-08-24T12:00	34329	7	-36.8	-76.8	337	3
2023-08-24T12:00	34368	7	-36.7	-76.7	321	4
2023-08-24T12:00	34378	7	-36.7	-76.7	317	5
2023-08-24T12:00	34406	7	-36.7	-76.7	316	6
2023-08-24T12:00	34411	7	-36.6	-76.7	318	8
2023-08-24T12:00	34445	7	-36.5	-76.6	320	8
2023-08-24T12:00	34482	7	-36.4	-76.5	322	8
2023-08-24T12:00	34485	7	-36.2	-76.4	326	8
2023-08-24T12:00	34512	6	-36.1	-76.3	330	7
2023-08-24T12:00	34534	6	-36.0	-76.3	334	7
2023-08-24T12:00	34544	6	-35.9	-76.2	338	7
2023-08-24T12:00	34596	6	-35.8	-76.1	343	6
2023-08-24T12:00	34607	6	-35.4	-75.8	351	6
2023-08-24T12:00	34626	6	-35.2	-75.7	354	6
2023-08-24T12:00	34664	6	-34.9	-75.5	358	6
2023-08-24T12:00	34675	6	-34.6	-75.3	1	6
2023-08-24T12:00	34706	6	-34.4	-75.2	3	6
2023-08-24T12:00	34727	6	-34.1	-75.0	5	6
2023-08-24T12:00	34754	6	-33.7	-74.7	8	6
2023-08-24T12:00	34776	6	-33.6	-74.6	8	6
2023-08-24T12:00	34820	6	-33.4	-74.5	9	7
2023-08-24T18:00	114	1001	25.7	14.8	137	1
2023-08-24T18:00	139	998	25.7	13.6	160	1
2023-08-24T18:00	165	995	25.6	13.3	163	2
2023-08-24T18:00	186	993	25.4	13.1	166	3
2023-08-24T18:00	212	990	25.2	13.1	168	3
2023-08-24T18:00	234	987	25.0	12.8	168	3
2023-08-24T18:00	258	985	24.8		166	3
2023-08-24T18:00	278	982	24.6	12.8	162	3
2023-08-24T18:00	304	980	24.4	12.9	156	3
2023-08-24T18:00	328	977	24.1	12.7	155	3
2023-08-24T18:00	347	975	23.9	12.6	163	2
2023-08-24T18:00	366	972	23.7	12.7	177	2
2023-08-24T18:00	385	970	23.6	12.6	190	3
2023-08-24T18:00	404	968	23.4	12.5	198	3
2023-08-24T18:00	434	965	23.1	12.5	202	4
2023-08-24T18:00	464	962	23.1	11.9	202	4
2023-08-24T18:00	490	959	22.8	11.7	203	4
2023-08-24T18:00	511	956	22.6	11.8	204	4
2023-08-24T18:00	540	953	22.4	11.7	205	4
2023-08-24T18:00	567	950	22.1	11.7	207	4
2023-08-24T18:00	596	947	21.8	11.6	208	4
2023-08-24T18:00	623	944	21.5	11.6	208	4
2023-08-24T18:00	650	941	21.3	11.3	211	4
2023-08-24T18:00	677	938	21.0	11.2	216	4
2023-08-24T18:00	701	936	20.8	11.3	225	4
2023-08-24T18:00	721	934	20.6	11.3	234	4
2023-08-24T18:00	737	932	20.4	11.3	243	4
2023-08-24T18:00	757	930	20.3	11.3	249	4
2023-08-24T18:00	776	928	20.1	11.3	250	3
2023-08-24T18:00	794	926	19.9	11.2	248	3
2023-08-24T18:00	815	923	19.8	11.1	244	3
2023-08-24T18:00	838	921	19.5	10.9	240	3
2023-08-24T18:00	864	918	19.3	10.9	238	3
2023-08-24T18:00	889	916	19.1	10.9	238	4
2023-08-24T18:00	910	913	18.9	10.9	238	4
2023-08-24T18:00	935	911	18.6	10.8	238	4
2023-08-24T18:00	966	907	18.3	10.8	238	4
2023-08-24T18:00	990	905	18.1	10.9	238	5
2023-08-24T18:00	1017	902	17.9	10.8	238	5
2023-08-24T18:00	1038	900	17.7	10.8	238	5
2023-08-24T18:00	1067	897	17.5	10.7	239	5
2023-08-24T18:00	1089	894	17.3	10.9	239	5
2023-08-24T18:00	1117	892	17.1	10.9	239	5
2023-08-24T18:00	1144	889	16.8	10.7	238	5
2023-08-24T18:00	1175	886	16.5	10.5	236	5
2023-08-24T18:00	1199	883	16.3	10.4	235	5
2023-08-24T18:00	1223	880	16.1	10.2	233	5
2023-08-24T18:00	1251	878	15.9	9.9	233	6
2023-08-24T18:00	1280	875	15.7	9.8	235	6
2023-08-24T18:00	1305	872	15.4	9.7	239	5
2023-08-24T18:00	1332	869	15.2	9.2	244	5
2023-08-24T18:00	1360	866	15.0	9.1	249	5
2023-08-24T18:00	1386	864	14.8	9.0	253	6
2023-08-24T18:00	1409	861	14.6	9.1	255	5
2023-08-24T18:00	1438	859	14.3	8.9	255	5
2023-08-24T18:00	1463	856	14.1	8.6	253	5
2023-08-24T18:00	1488	853	13.9	8.7	249	5
2023-08-24T18:00	1512	851	13.7	8.6	245	6
2023-08-24T18:00	1539	848	13.5	8.5	244	6
2023-08-24T18:00	1567	845	13.4	8.6	244	7
2023-08-24T18:00	1601	842	13.2	8.4	246	8
2023-08-24T18:00	1631	839	13.6	7.4	248	8
2023-08-24T18:00	1660	836	13.6	6.8	251	9
2023-08-24T18:00	1690	833	13.7	6.1	254	9
2023-08-24T18:00	1724	830	13.6	5.8	256	9
2023-08-24T18:00	1754	827	13.6	5.4	258	9
2023-08-24T18:00	1780	824	13.6	4.6	259	9
2023-08-24T18:00	1816	821	13.5	4.3	258	9
2023-08-24T18:00	1854	817	13.6	4.1	257	9
2023-08-24T18:00	1886	814	13.4	4.2	256	10
2023-08-24T18:00	1912	811	13.1	4.1	256	10
2023-08-24T18:00	1941	809	12.9	4.3	256	10
2023-08-24T18:00	1971	806	12.7	4.6	256	10
2023-08-24T18:00	1999	803	12.5	4.4	256	10
2023-08-24T18:00	2030	800	12.2	4.1	256	10
2023-08-24T18:00	2058	798	12.0	4.1	256	10
2023-08-24T18:00	2084	795	11.7	4.0	257	9
2023-08-24T18:00	2107	793	11.5	3.9	258	9
2023-08-24T18:00	2136	790	11.3	4.1	260	9
2023-08-24T18:00	2161	788	11.1	4.3	262	9
2023-08-24T18:00	2188	785	10.8	4.2	262	9
2023-08-24T18:00	2215	783	10.6	4.4	261	9
2023-08-24T18:00	2236	781	10.4	4.5	260	9
2023-08-24T18:00	2263	778	10.2	4.7	261	10
2023-08-24T18:00	2291	776	10.0	4.7	263	10
2023-08-24T18:00	2315	773	9.9	4.4	267	10
2023-08-24T18:00	2348	770	9.7	4.2	270	10
2023-08-24T18:00	2374	768	9.7	4.1	273	10
2023-08-24T18:00	2397	766	9.5	4.0	273	9
2023-08-24T18:00	2426	763	9.2	4.0	271	9
2023-08-24T18:00	2451	761	9.0	3.8	268	9
2023-08-24T18:00	2477	758	8.8	3.6	266	10
2023-08-24T18:00	2499	756	8.6	3.5	264	10
2023-08-24T18:00	2522	754	8.5	3.7	265	11
2023-08-24T18:00	2541	753	8.3	3.5	266	11
2023-08-24T18:00	2562	751	8.1	3.6	268	10
2023-08-24T18:00	2589	748	7.8	3.6	271	10
2023-08-24T18:00	2614	746	7.6	3.6	273	10
2023-08-24T18:00	2643	743	7.3	3.5	276	10
2023-08-24T18:00	2666	741	7.2	3.6	277	10
2023-08-24T18:00	2688	739	7.0	3.4	278	10
2023-08-24T18:00	2708	737	6.9	3.4	278	10
2023-08-24T18:00	2732	735	6.7	3.3	278	10
2023-08-24T18:00	2751	734	6.5	3.3	278	10
2023-08-24T18:00	2771	732	6.3	3.1	277	9
2023-08-24T18:00	2795	730	6.2	3.2	276	9
2023-08-24T18:00	2816	728	6.0	3.0	274	9
2023-08-24T18:00	2840	726	5.9	3.0	272	9
2023-08-24T18:00	2866	723	5.7	2.9	270	8
2023-08-24T18:00	2894	721	5.5	2.8	268	8
2023-08-24T18:00	2923	719	5.4	2.2	267	7
2023-08-24T18:00	2945	716	5.4	2.0	267	7
2023-08-24T18:00	2968	714	5.4	1.8	267	6
2023-08-24T18:00	2992	712	5.4	1.6	268	6
2023-08-24T18:00	3014	710	5.4	1.5	269	6
2023-08-24T18:00	3039	708	5.2	1.4	270	6
2023-08-24T18:00	3058	707	5.1	1.5	270	6
2023-08-24T18:00	3080	705	4.9	1.3	270	6
2023-08-24T18:00	3107	702	4.7	1.3	270	7
2023-08-24T18:00	3137	700	4.4	0.9	272	7
2023-08-24T18:00	3159	698	4.4	1.0	274	7
2023-08-24T18:00	3184	696	4.2	0.8	279	7
2023-08-24T18:00	3206	694	4.1	0.6	284	7
2023-08-24T18:00	3230	692	4.0	0.2	288	8
2023-08-24T18:00	3257	690	3.8	0.0	291	8
2023-08-24T18:00	3283	687	3.7	-0.8	291	8
2023-08-24T18:00	3309	685	3.7	-0.9	290	7
2023-08-24T18:00	3341	683	3.6	-0.6	287	7
2023-08-24T18:00	3364	681	3.5	-0.5	285	7
2023-08-24T18:00	3387	679	3.3	-0.7	284	7
2023-08-24T18:00	3411	677	3.2	-0.7	285	6
2023-08-24T18:00	3436	675	3.1	-1.1	287	6
2023-08-24T18:00	3464	672	3.1	-0.9	290	6
2023-08-24T18:00	3488	670	2.9	-1.1	293	6
2023-08-24T18:00	3510	668	2.9	-1.3	296	6
2023-08-24T18:00	3538	666	3.1	-1.6	298	6
2023-08-24T18:00	3574	664	3.1	-2.7	300	6
2023-08-24T18:00	3598	661	3.1	-3.4	303	7
2023-08-24T18:00	3629	659	3.1		305	7
2023-08-24T18:00	3654	657	2.9	-4.1	306	7
2023-08-24T18:00	3675	655	2.8	-3.3	306	8
2023-08-24T18:00	3702	653	2.9	-8.2	305	8
2023-08-24T18:00	3726	651	2.8	-8.3	305	9
2023-08-24T18:00	3751	649	2.7	-9.0	304	9
2023-08-24T18:00	3782	646	2.9	-10.8	303	9
2023-08-24T18:00	3811	644	2.8	-10.9	302	10
2023-08-24T18:00	3837	642	2.6	-11.5	301	9
2023-08-24T18:00	3860	640	2.5	-8.6	299	9
2023-08-24T18:00	3882	638	2.3	-8.9	298	9
2023-08-24T18:00	3908	636	2.1	-8.9	297	10
2023-08-24T18:00	3938	634	1.8	-8.6	298	10
2023-08-24T18:00	3966	632	1.6	-9.0	298	10
2023-08-24T18:00	3988	630	1.4	-9.0	299	11
2023-08-24T18:00	4016	628	1.2	-9.0	300	10
2023-08-24T18:00	4045	626	1.0	-9.0	301	10
2023-08-24T18:00	4075	623	0.7	-9.1	301	10
2023-08-24T18:00	4103	621	0.5	-9.3	301	9
2023-08-24T18:00	4128	619	0.4	-9.6	300	9
2023-08-24T18:00	4154	617	0.2	-9.2	300	9
2023-08-24T18:00	4181	615	0.0	-9.4	299	9
2023-08-24T18:00	4205	613	-0.2	-9.8	299	9
2023-08-24T18:00	4229	611	-0.4	-9.8	299	10
2023-08-24T18:00	4256	609	-0.6	-9.4	299	10
2023-08-24T18:00	4282	607	-0.8	-9.9	298	10
2023-08-24T18:00	4305	606	-1.0	-10.0	298	10
2023-08-24T18:00	4333	604	-1.3	-9.9	299	11
2023-08-24T18:00	4356	602	-1.4	-9.1	300	11
2023-08-24T18:00	4383	600	-1.6	-9.5	301	11
2023-08-24T18:00	4410	598	-1.8	-10.2	302	12
2023-08-24T18:00	4428	596	-1.9	-10.6	302	12
2023-08-24T18:00	4454	594	-2.1	-11.3	300	12
2023-08-24T18:00	4480	592	-2.3	-10.3	298	12
2023-08-24T18:00	4508	591	-2.5	-9.4	296	13
2023-08-24T18:00	4530	589	-2.6	-9.3	293	13
2023-08-24T18:00	4557	587	-2.8	-9.2	291	13
2023-08-24T18:00	4583	585	-2.9	-10.1	289	14
2023-08-24T18:00	4611	583	-3.0	-11.2	286	14
2023-08-24T18:00	4642	581	-2.9	-10.8	283	15
2023-08-24T18:00	4667	579	-3.0	-10.6	280	15
2023-08-24T18:00	4696	577	-3.1	-10.5	278	16
2023-08-24T18:00	4721	575	-3.2	-10.5	276	16
2023-08-24T18:00	4743	573	-3.3	-10.8	274	15
2023-08-24T18:00	4771	571	-3.3	-11.5	273	15
2023-08-24T18:00	4797	569	-3.1	-12.7	271	15
2023-08-24T18:00	4828	567	-2.7	-15.0	270	14
2023-08-24T18:00	4857	565	-2.7	-15.8	268	14
2023-08-24T18:00	4882	563	-2.8	-16.0	266	14
2023-08-24T18:00	4902	562	-2.9	-16.2	264	13
2023-08-24T18:00	4935	560	-3.2	-16.0	261	13
2023-08-24T18:00	4954	558	-3.3	-16.2	258	13
2023-08-24T18:00	4982	556	-3.5	-16.4	256	12
2023-08-24T18:00	5006	554	-3.6	-16.6	255	12
2023-08-24T18:00	5034	553	-3.8	-16.7	255	12
2023-08-24T18:00	5061	551	-4.0	-16.8	256	12
2023-08-24T18:00	5084	549	-4.2	-16.8	256	12
2023-08-24T18:00	5117	547	-4.5	-17.1	256	13
2023-08-24T18:00	5148	545	-4.7	-17.4	257	13
2023-08-24T18:00	5174	543	-4.9	-17.5	257	14
2023-08-24T18:00	5193	541	-5.0	-17.2	257	14
2023-08-24T18:00	5218	540	-5.1	-17.5	257	15
2023-08-24T18:00	5244	538	-5.3	-17.9	256	15
2023-08-24T18:00	5282	536	-5.6	-18.5	257	16
2023-08-24T18:00	5307	534	-5.8	-18.5	257	16
2023-08-24T18:00	5332	532	-5.9	-18.4	258	16
2023-08-24T18:00	5359	530	-6.2	-18.5	259	17
2023-08-24T18:00	5382	529	-6.4	-18.5	259	17
2023-08-24T18:00	5406	527	-6.6	-18.4	259	17
2023-08-24T18:00	5432	525	-6.8	-18.2	258	17
2023-08-24T18:00	5456	523	-7.0	-18.2	256	17
2023-08-24T18:00	5487	522	-7.2	-18.4	255	18
2023-08-24T18:00	5511	520	-7.4	-18.5	255	18
2023-08-24T18:00	5537	518	-7.7	-18.7	256	18
2023-08-24T18:00	5565	516	-7.9		257	19
2023-08-24T18:00	5590	515	-8.2	-18.8	257	19
2023-08-24T18:00	5616	513	-8.4	-18.9	258	19
2023-08-24T18:00	5636	512	-8.6	-19.0	258	19
2023-08-24T18:00	5663	510	-8.8	-19.0	257	18
2023-08-24T18:00	5694	508	-9.1	-19.1	257	18
2023-08-24T18:00	5712	507	-9.2	-18.6	257	18
2023-08-24T18:00	5733	505	-9.4	-18.4	257	18
2023-08-24T18:00	5760	504	-9.6	-18.2	257	18
2023-08-24T18:00	5780	502	-9.8	-18.4	258	18
2023-08-24T18:00	5806	500	-10.0	-18.4	259	19
2023-08-24T18:00	5834	499	-10.3	-18.1	260	19
2023-08-24T18:00	5861	497	-10.5	-18.1	261	19
2023-08-24T18:00	5885	495	-10.7	-18.1	262	19
2023-08-24T18:00	5917	493	-11.0	-18.1	262	19
2023-08-24T18:00	5944	492	-11.2	-18.3	262	19
2023-08-24T18:00	5965	490	-11.4	-18.5	262	19
2023-08-24T18:00	5986	489	-11.5	-18.6	261	19
2023-08-24T18:00	6010	487	-11.7	-18.9	262	18
2023-08-24T18:00	6042	485	-11.7	-20.1	262	18
2023-08-24T18:00	6075	483	-11.9	-20.7	263	17
2023-08-24T18:00	6095	482	-12.0	-20.9	265	17
2023-08-24T18:00	6129	480	-11.9	-21.6	266	17
2023-08-24T18:00	6156	478	-12.0	-22.4	267	17
2023-08-24T18:00	6178	477	-12.1	-22.6	267	18
2023-08-24T18:00	6200	475	-12.2	-22.9	266	18
2023-08-24T18:00	6223	474	-12.4	-23.0	266	18
2023-08-24T18:00	6252	472	-12.7	-22.7	265	18
2023-08-24T18:00	6279	470	-12.9	-22.7	264	17
2023-08-24T18:00	6309	469	-13.2	-23.0	263	17
2023-08-24T18:00	6337	467	-13.4	-23.4	263	16
2023-08-24T18:00	6364	465	-13.5	-23.8	263	16
2023-08-24T18:00	6391	464	-13.6	-24.2	263	16
2023-08-24T18:00	6414	462	-13.7	-24.2	263	16
2023-08-24T18:00	6438	461	-14.0	-24.3	263	16
2023-08-24T18:00	6462	459	-14.2	-24.4	263	16
2023-08-24T18:00	6491	458	-14.5	-24.4	263	16
2023-08-24T18:00	6521	456	-14.7	-24.4	264	16
2023-08-24T18:00	6544	454	-15.0	-24.6	265	16
2023-08-24T18:00	6570	453	-15.2	-24.7	266	15
2023-08-24T18:00	6601	451	-15.3	-25.1	267	15
2023-08-24T18:00	6619	450	-15.3	-26.1	268	15
2023-08-24T18:00	6646	448	-15.4	-26.6	268	15
2023-08-24T18:00	6674	447	-15.6	-26.7	268	16
2023-08-24T18:00	6700	445	-15.8	-27.8	269	16
2023-08-24T18:00	6731	443	-16.1	-27.8	269	17
2023-08-24T18:00	6761	442	-16.3	-27.5	270	17
2023-08-24T18:00	6782	440	-16.4	-26.7	270	17
2023-08-24T18:00	6809	439	-16.6	-26.0	270	17
2023-08-24T18:00	6840	437	-16.8	-25.9	271	17
2023-08-24T18:00	6868	435	-16.9	-27.1	271	17
2023-08-24T18:00	6890	434	-17.1	-27.2	271	17
2023-08-24T18:00	6912	433	-17.3	-27.1	271	18
2023-08-24T18:00	6940	431	-17.5	-27.2	271	18
2023-08-24T18:00	6972	429	-17.8	-27.7	271	18
2023-08-24T18:00	7001	428	-18.0	-28.2	270	18
2023-08-24T18:00	7026	426	-18.3	-28.3	270	18
2023-08-24T18:00	7048	425	-18.5	-28.8	271	18
2023-08-24T18:00	7071	424	-18.7	-28.8	272	18
2023-08-24T18:00	7095	422	-18.9	-29.0	273	17
2023-08-24T18:00	7119	421	-19.1	-29.4	274	17
2023-08-24T18:00	7149	419	-19.3	-29.9	275	17
2023-08-24T18:00	7174	418	-19.5	-30.4	274	17
2023-08-24T18:00	7201	416	-19.7	-30.3	274	17
2023-08-24T18:00	7227	415	-19.9	-29.4	272	17
2023-08-24T18:00	7253	413	-20.1	-29.1	272	18
2023-08-24T18:00	7276	412	-20.3	-29.2	271	18
2023-08-24T18:00	7301	411	-20.5	-29.1	271	18
2023-08-24T18:00	7325	409	-20.7	-28.8	271	18
2023-08-24T18:00	7356	408	-21.0	-28.9	271	19
2023-08-24T18:00	7378	406	-21.2	-29.3	271	19
2023-08-24T18:00	7403	405	-21.4	-29.5	270	19
2023-08-24T18:00	7426	404	-21.5	-29.7	268	20
2023-08-24T18:00	7454	402	-21.4	-30.6	267	20
2023-08-24T18:00	7489	400	-21.5	-31.1	265	20
2023-08-24T18:00	7521	399	-21.8	-31.6	264	19
2023-08-24T18:00	7548	397	-22.0	-31.9	263	19
2023-08-24T18:00	7576	396	-22.2	-32.6	261	19
2023-08-24T18:00	7601	394	-22.4	-32.8	260	19
2023-08-24T18:00	7626	393	-22.6	-33.5	259	19
2023-08-24T18:00	7657	391	-22.9	-34.1	259	19
2023-08-24T18:00	7680	390	-23.1	-34.7	258	19
2023-08-24T18:00	7701	389	-23.3	-35.0	258	19
2023-08-24T18:00	7727	388	-23.5	-35.0	259	19
2023-08-24T18:00	7753	386	-23.7	-35.5	259	18
2023-08-24T18:00	7780	385	-24.0	-36.2	260	18
2023-08-24T18:00	7810	383	-24.2	-36.8	261	18
2023-08-24T18:00	7833	382	-24.3	-37.1	262	17
2023-08-24T18:00	7854	381	-24.5	-36.9	263	17
2023-08-24T18:00	7877	380	-24.6	-36.5	264	17
2023-08-24T18:00	7901	378	-24.7	-36.1	265	17
2023-08-24T18:00	7925	377	-24.8	-35.4	266	17
2023-08-24T18:00	7946	376	-25.0	-35.3	267	17
2023-08-24T18:00	7974	375	-25.2	-35.1	267	18
2023-08-24T18:00	8005	373	-25.5	-35.1	268	18
2023-08-24T18:00	8032	372	-25.7	-35.0	269	18
2023-08-24T18:00	8061	370	-26.0	-34.9	270	18
2023-08-24T18:00	8086	369	-26.3	-34.9	270	18
2023-08-24T18:00	8116	367	-26.5	-34.6	271	19
2023-08-24T18:00	8141	366	-26.8	-34.6	271	19
2023-08-24T18:00	8173	365	-27.0	-34.3	271	19
2023-08-24T18:00	8197	363	-27.2	-34.5	271	20
2023-08-24T18:00	8225	362	-27.5	-34.7	270	20
2023-08-24T18:00	8248	361	-27.7	-34.7	269	19
2023-08-24T18:00	8271	360	-27.9	-34.6	269	19
2023-08-24T18:00	8296	358	-28.2	-34.8	269	19
2023-08-24T18:00	8324	357	-28.4	-34.8	269	18
2023-08-24T18:00	8350	356	-28.7	-35.0	269	18
2023-08-24T18:00	8375	354	-28.9	-34.9	270	18
2023-08-24T18:00	8395	353	-29.1	-34.8	269	18
2023-08-24T18:00	8424	352	-29.4	-34.4	269	18
2023-08-24T18:00	8455	351	-29.6	-34.4	270	18
2023-08-24T18:00	8476	349	-29.8	-34.7	271	18
2023-08-24T18:00	8499	348	-30.0	-34.6	273	18
2023-08-24T18:00	8535	346	-30.3	-34.6	276	18
2023-08-24T18:00	8573	345	-30.5	-34.0	279	19
2023-08-24T18:00	8604	343	-30.6	-33.8	282	19
2023-08-24T18:00	8633	342	-30.8	-33.7	283	19
2023-08-24T18:00	8657	341	-30.9	-33.5	284	19
2023-08-24T18:00	8688	339	-31.1	-33.4	285	19
2023-08-24T18:00	8728	337	-31.5	-33.6	286	19
2023-08-24T18:00	8757	336	-31.7	-33.7	286	19
2023-08-24T18:00	8788	334	-32.0	-33.7	288	19
2023-08-24T18:00	8814	333	-32.3	-33.9	289	19
2023-08-24T18:00	8841	332	-32.5	-34.1	290	19
2023-08-24T18:00	8865	331	-32.7	-34.4	291	19
2023-08-24T18:00	8888	330	-32.8	-34.8	291	19
2023-08-24T18:00	8911	329	-32.9	-35.3	291	19
2023-08-24T18:00	8940	327	-33.1	-35.3	290	19
2023-08-24T18:00	8970	326	-33.4	-35.6	289	19
2023-08-24T18:00	8998	325	-33.6	-35.8	288	19
2023-08-24T18:00	9021	323	-33.8	-36.1	287	19
2023-08-24T18:00	9046	322	-34.0	-36.5	286	19
2023-08-24T18:00	9068	321	-34.2	-36.7	286	20
2023-08-24T18:00	9091	320	-34.4	-37.1	285	20
2023-08-24T18:00	9112	319	-34.5	-38.0	285	21
2023-08-24T18:00	9141	318	-34.6	-38.2	284	21
2023-08-24T18:00	9171	317	-34.8	-38.5	284	22
2023-08-24T18:00	9198	315	-34.9	-38.5	284	23
2023-08-24T18:00	9234	314	-35.0	-39.3	285	24
2023-08-24T18:00	9272	312	-35.2	-39.6	286	24
2023-08-24T18:00	9293	311	-35.3	-40.5	287	25
2023-08-24T18:00	9318	310	-35.5	-40.3	288	25
2023-08-24T18:00	9344	309	-35.8	-40.3	288	25
2023-08-24T18:00	9370	308	-36.0	-40.6	288	25
2023-08-24T18:00	9399	306	-36.3	-40.8	289	25
2023-08-24T18:00	9432	305	-36.5	-42.3	289	25
2023-08-24T18:00	9457	304	-36.8	-42.4	290	25
2023-08-24T18:00	9483	303	-37.0	-42.8	291	25
2023-08-24T18:00	9510	301	-37.3	-42.9	291	26
2023-08-24T18:00	9543	300	-37.5	-43.5	292	27
2023-08-24T18:00	9572	299	-37.8	-43.7	292	27
2023-08-24T18:00	9594	298	-38.0	-43.6	293	28
2023-08-24T18:00	9623	297	-38.2	-44.2	294	28
2023-08-24T18:00	9646	296	-38.4	-44.2	294	29
2023-08-24T18:00	9675	294	-38.6	-44.0	295	29
2023-08-24T18:00	9696	293	-38.8	-43.9	295	29
2023-08-24T18:00	9720	292	-39.0	-43.8	294	29
2023-08-24T18:00	9748	291	-39.3	-44.0	294	28
2023-08-24T18:00	9780	290	-39.5	-43.2	293	28
2023-08-24T18:00	9811	289	-39.8	-43.3	292	28
2023-08-24T18:00	9842	287	-40.0	-43.4	292	28
2023-08-24T18:00	9872	286	-40.3	-43.6	291	28
2023-08-24T18:00	9904	285	-40.6	-43.9	290	28
2023-08-24T18:00	9930	284	-40.9	-44.1	290	28
2023-08-24T18:00	9967	282	-41.2	-44.4	290	28
2023-08-24T18:00	9989	281	-41.4	-44.4	290	27
2023-08-24T18:00	10017	280	-41.7	-44.5	289	27
2023-08-24T18:00	10040	279	-41.9	-44.8	288	27
2023-08-24T18:00	10065	278	-42.1	-44.9	288	27
2023-08-24T18:00	10088	277	-42.3	-45.2	288	28
2023-08-24T18:00	10111	276	-42.5	-45.4	288	28
2023-08-24T18:00	10136	275	-42.8	-45.7	288	28
2023-08-24T18:00	10165	274	-43.0	-45.8	289	28
2023-08-24T18:00	10189	273	-43.2	-46.0	289	28
2023-08-24T18:00	10221	272	-43.5	-46.6	290	28
2023-08-24T18:00	10247	271	-43.7	-47.0	291	28
2023-08-24T18:00	10281	269	-44.0		292	28
2023-08-24T18:00	10311	268	-44.3	-48.2	293	28
2023-08-24T18:00	10345	267	-44.6	-48.3	293	28
2023-08-24T18:00	10374	266	-44.8	-48.7	293	28
2023-08-24T18:00	10397	265	-45.0	-49.2	292	29
2023-08-24T18:00	10417	264	-45.2	-49.3	292	29
2023-08-24T18:00	10441	263	-45.5	-49.6	292	29
2023-08-24T18:00	10469	262	-45.7	-49.7	292	29
2023-08-24T18:00	10497	261	-46.0	-50.0	292	29
2023-08-24T18:00	10529	259	-46.3	-50.6	292	30
2023-08-24T18:00	10559	258	-46.5	-51.1	292	30
2023-08-24T18:00	10589	257	-46.8	-51.3	292	30
2023-08-24T18:00	10611	256	-47.0	-51.2	293	30
2023-08-24T18:00	10645	255	-47.3	-51.3	293	31
2023-08-24T18:00	10673	254	-47.5	-51.4	294	32
2023-08-24T18:00	10700	253	-47.8	-51.7	294	32
2023-08-24T18:00	10726	252	-48.0	-51.8	294	33
2023-08-24T18:00	10751	251	-48.2	-51.9	293	33
2023-08-24T18:00	10775	250	-48.4	-52.1	293	33
2023-08-24T18:00	10802	249	-48.6	-52.3	293	33
2023-08-24T18:00	10829	248	-48.9	-52.7	292	33
2023-08-24T18:00	10858	247	-49.1	-53.0	292	34
2023-08-24T18:00	10890	246	-49.3	-53.3	292	34
2023-08-24T18:00	10916	245	-49.6	-53.5	292	34
2023-08-24T18:00	10938	244	-49.8	-53.6	292	34
2023-08-24T18:00	10970	243	-50.1	-53.9	292	35
2023-08-24T18:00	11001	242	-50.3	-54.1	292	35
2023-08-24T18:00	11028	241	-50.6	-54.4	292	35
2023-08-24T18:00	11051	240	-50.8	-54.5	292	36
2023-08-24T18:00	11078	239	-51.0	-54.7	292	36
2023-08-24T18:00	11101	238	-51.2	-54.9	292	36
2023-08-24T18:00	11127	237	-51.4	-55.1	291	36
2023-08-24T18:00	11150	236	-51.6	-55.3	291	36
2023-08-24T18:00	11175	235	-51.8	-55.4	291	36
2023-08-24T18:00	11196	234	-52.0	-55.5	291	36
2023-08-24T18:00	11221	233	-52.2	-55.7	291	37
2023-08-24T18:00	11244	233	-52.4	-55.9	291	37
2023-08-24T18:00	11266	232	-52.7	-56.3	291	37
2023-08-24T18:00	11291	231	-52.9	-56.5	290	38
2023-08-24T18:00	11316	230	-53.1	-56.8	290	38
2023-08-24T18:00	11340	229	-53.2	-56.9	289	39
2023-08-24T18:00	11364	228	-53.4	-57.1	289	39
2023-08-24T18:00	11389	227	-53.3	-57.0	288	39
2023-08-24T18:00	11414	227	-53.4	-57.2	288	40
2023-08-24T18:00	11442	226	-53.7	-57.5	289	40
2023-08-24T18:00	11467	225	-53.9	-57.6	289	40
2023-08-24T18:00	11491	224	-54.1	-57.8	289	40
2023-08-24T18:00	11516	223	-54.3	-57.9	290	40
2023-08-24T18:00	11538	222	-54.5	-58.1	290	41
2023-08-24T18:00	11561	221	-54.7	-58.2	290	41
2023-08-24T18:00	11583	221	-54.9	-58.4	289	41
2023-08-24T18:00	11604	220	-55.1	-58.6	289	40
2023-08-24T18:00	11627	219	-55.3	-58.7	289	40
2023-08-24T18:00	11648	218	-55.4	-58.9	289	40
2023-08-24T18:00	11672	218	-55.6	-59.3	289	40
2023-08-24T18:00	11695	217	-55.8		289	40
2023-08-24T18:00	11717	216	-56.0	-59.9	289	40
2023-08-24T18:00	11738	215	-56.2	-60.1	289	40
2023-08-24T18:00	11759	215	-56.3	-60.3	289	41
2023-08-24T18:00	11782	214	-56.4	-60.4	289	41
2023-08-24T18:00	11804	213	-56.6	-60.5	289	41
2023-08-24T18:00	11828	212	-56.7	-60.3	289	41
2023-08-24T18:00	11851	212	-56.9	-60.3	288	41
2023-08-24T18:00	11871	211	-57.1	-60.5	288	41
2023-08-24T18:00	11897	210	-57.2	-60.8	288	41
2023-08-24T18:00	11921	209	-57.4	-61.2	287	42
2023-08-24T18:00	11944	209	-57.6	-61.5	287	42
2023-08-24T18:00	11964	208	-57.7	-61.5	287	43
2023-08-24T18:00	11987	207	-57.8	-61.4	288	43
2023-08-24T18:00	12007	206	-58.0	-61.5	288	43
2023-08-24T18:00	12029	206	-58.2	-61.8	288	44
2023-08-24T18:00	12052	205	-58.4	-62.3	288	44
2023-08-24T18:00	12073	204	-58.5	-62.7	288	44
2023-08-24T18:00	12093	204	-58.7	-63.0	288	44
2023-08-24T18:00	12114	203	-58.8	-63.2	288	44
2023-08-24T18:00	12138	202	-59.0	-63.5	288	44
2023-08-24T18:00	12159	201	-59.1	-63.4	288	44
2023-08-24T18:00	12182	201	-59.3	-63.4	289	44
2023-08-24T18:00	12204	200	-59.5	-63.6	289	44
2023-08-24T18:00	12229	199	-59.5	-64.1	290	44
2023-08-24T18:00	12254	198	-59.5	-65.2	290	44
2023-08-24T18:00	12281	198	-59.5	-66.2	291	45
2023-08-24T18:00	12312	197	-59.6	-66.7	291	45
2023-08-24T18:00	12339	196	-59.8	-66.6	291	45
2023-08-24T18:00	12358	195	-60.0	-66.4	291	46
2023-08-24T18:00	12381	194	-60.2	-66.3	292	46
2023-08-24T18:00	12406	194	-60.4	-66.2	292	46
2023-08-24T18:00	12433	193	-60.5	-66.4	293	45
2023-08-24T18:00	12463	192	-59.9	-66.2	294	45
2023-08-24T18:00	12504	191	-59.9	-66.5	295	44
2023-08-24T18:00	12534	190	-60.1	-67.0	296	43
2023-08-24T18:00	12562	189	-60.3	-67.4	296	42
2023-08-24T18:00	12589	188	-60.4	-67.5	297	41
2023-08-24T18:00	12614	187	-60.6	-67.7	297	40
2023-08-24T18:00	12640	187	-60.8	-68.0	298	39
2023-08-24T18:00	12669	186	-60.8	-68.2	298	39
2023-08-24T18:00	12696	185	-61.0	-68.8	299	38
2023-08-24T18:00	12732	184	-61.2	-69.6	299	37
2023-08-24T18:00	12772	183	-61.3	-70.3	299	36
2023-08-24T18:00	12794	182	-61.4	-71.0	299	35
2023-08-24T18:00	12820	181	-61.5	-71.7	299	34
2023-08-24T18:00	12842	181	-61.7	-72.3	298	33
2023-08-24T18:00	12866	180	-61.4	-72.4	298	33
2023-08-24T18:00	12888	179	-61.4	-72.8	299	32
2023-08-24T18:00	12909	179	-61.6	-73.6	299	32
2023-08-24T18:00	12937	178	-61.6	-74.2	300	32
2023-08-24T18:00	12960	177	-60.8	-74.1	301	31
2023-08-24T18:00	12983	176	-60.8	-74.6	302	31
2023-08-24T18:00	13004	176	-60.8	-75.0	303	30
2023-08-24T18:00	13027	175	-60.6	-75.3	303	30
2023-08-24T18:00	13048	175	-60.4	-75.6	303	29
2023-08-24T18:00	13072	174	-60.0	-75.8	303	28
2023-08-24T18:00	13093	173	-59.8	-76.0	303	27
2023-08-24T18:00	13116	173	-59.7	-76.1	302	26
2023-08-24T18:00	13141	172	-59.8	-76.2	302	26
2023-08-24T18:00	13161	171	-59.9	-76.2	301	25
2023-08-24T18:00	13188	171	-60.1	-76.3	300	25
2023-08-24T18:00	13219	170	-60.3	-76.3	299	24
2023-08-24T18:00	13243	169	-60.5	-76.3	298	24
2023-08-24T18:00	13269	169	-60.6	-76.2	297	24
2023-08-24T18:00	13296	168	-60.8	-76.1	295	24
2023-08-24T18:00	13332	167	-61.1	-76.1	293	24
2023-08-24T18:00	13367	166	-61.3	-75.9	290	24
2023-08-24T18:00	13388	165	-61.3	-75.7	286	24
2023-08-24T18:00	13412	165	-61.3	-75.6	283	24
2023-08-24T18:00	13437	164	-61.3	-75.7	281	24
2023-08-24T18:00	13460	163	-60.6	-75.1	279	24
2023-08-24T18:00	13482	163	-60.6	-75.2	278	25
2023-08-24T18:00	13506	162	-60.7	-75.4	277	25
2023-08-24T18:00	13529	162	-60.8	-75.6	277	26
2023-08-24T18:00	13552	161	-60.8	-75.7	276	26
2023-08-24T18:00	13575	160	-60.9	-75.9	276	27
2023-08-24T18:00	13601	160	-61.0	-76.2	276	27
2023-08-24T18:00	13626	159	-61.1	-76.4	276	28
2023-08-24T18:00	13646	159	-61.2	-76.7	277	29
2023-08-24T18:00	13667	158	-61.4	-77.2	279	29
2023-08-24T18:00	13692	157	-61.4	-77.9	280	29
2023-08-24T18:00	13714	157	-61.0	-78.4	282	28
2023-08-24T18:00	13738	156	-60.2	-78.9	284	27
2023-08-24T18:00	13760	156	-59.1	-79.3	285	27
2023-08-24T18:00	13784	155	-58.4	-80.0	286	26
2023-08-24T18:00	13806	155	-58.3	-80.7	287	25
2023-08-24T18:00	13829	154	-58.2	-81.1	288	25
2023-08-24T18:00	13852	154	-57.8	-81.2	288	25
2023-08-24T18:00	13875	153	-57.3	-81.2	288	24
2023-08-24T18:00	13897	152	-57.0	-81.4	288	24
2023-08-24T18:00	13918	152	-56.2	-81.2	288	24
2023-08-24T18:00	13940	151	-55.7	-81.1	288	24
2023-08-24T18:00	13963	151	-55.6	-81.0	287	24
2023-08-24T18:00	13987	150	-55.8	-81.2	287	25
2023-08-24T18:00	14009	150	-56.0	-81.1	287	24
2023-08-24T18:00	14033	149	-56.2	-81.2	287	24
2023-08-24T18:00	14061	149	-55.9	-81.0	287	24
2023-08-24T18:00	14084	148	-55.8	-80.9	288	23
2023-08-24T18:00	14107	147	-56.0	-81.1	288	23
2023-08-24T18:00	14132	147	-56.1	-81.1	288	22
2023-08-24T18:00	14156	146	-56.3	-81.3	288	21
2023-08-24T18:00	14179	146	-56.5	-81.5	287	21
2023-08-24T18:00	14201	145	-56.7	-81.6	286	20
2023-08-24T18:00	14224	145	-56.9	-82.0	286	20
2023-08-24T18:00	14245	144	-56.5	-81.7	284	19
2023-08-24T18:00	14267	144	-56.1	-81.6	283	19
2023-08-24T18:00	14291	143	-56.2	-82.0	282	19
2023-08-24T18:00	14313	143	-56.2	-82.0	280	19
2023-08-24T18:00	14337	142	-56.2	-82.0	278	19
2023-08-24T18:00	14360	142	-56.3	-82.1	276	19
2023-08-24T18:00	14382	141	-56.4	-81.9	274	19
2023-08-24T18:00	14406	141	-56.5	-82.0	273	20
2023-08-24T18:00	14429	140	-56.5	-82.0	271	20
2023-08-24T18:00	14450	140	-56.4	-81.9	271	20
2023-08-24T18:00	14472	139	-56.5	-82.0	270	21
2023-08-24T18:00	14494	139	-56.5	-82.0	270	20
2023-08-24T18:00	14517	138	-56.5	-82.0	269	20
2023-08-24T18:00	14540	138	-56.6	-82.0	269	20
2023-08-24T18:00	14567	137	-56.7	-82.1	268	19
2023-08-24T18:00	14590	137	-56.7	-82.1	268	18
2023-08-24T18:00	14613	136	-56.6	-82.0	267	18
2023-08-24T18:00	14637	136	-56.7	-82.1	266	18
2023-08-24T18:00	14660	135	-56.7	-82.1	266	18
2023-08-24T18:00	14684	135	-56.7	-82.4	265	19
2023-08-24T18:00	14707	134	-56.7	-82.4	265	19
2023-08-24T18:00	14731	134	-56.2	-82.0	265	19
2023-08-24T18:00	14753	133	-56.3	-82.3	264	20
2023-08-24T18:00	14777	133	-56.4	-82.1	264	20
2023-08-24T18:00	14803	132	-56.5	-82.2	264	21
2023-08-24T18:00	14828	132	-56.6	-82.3	265	22
2023-08-24T18:00	14851	131	-56.6	-82.3	266	23
2023-08-24T18:00	14872	131	-56.4	-82.1	267	23
2023-08-24T18:00	14896	130	-56.2	-82.0	268	24
2023-08-24T18:00	14919	130	-55.8	-82.0	269	25
2023-08-24T18:00	14944	129	-55.0	-81.3	270	25
2023-08-24T18:00	14965	129	-54.8	-81.5	272	25
2023-08-24T18:00	14991	128	-54.7	-81.4	273	25
2023-08-24T18:00	15015	128	-54.7	-81.7	275	24
2023-08-24T18:00	15039	127	-54.8	-81.8	276	24
2023-08-24T18:00	15061	127	-54.7	-81.7	277	24
2023-08-24T18:00	15086	126	-54.4	-81.5	279	23
2023-08-24T18:00	15108	126	-54.1	-81.2	280	23
2023-08-24T18:00	15130	126	-54.0	-81.5	282	22
2023-08-24T18:00	15158	125	-54.0	-81.5	284	22
2023-08-24T18:00	15184	124	-53.9	-81.4	285	21
2023-08-24T18:00	15208	124	-53.9	-81.4	286	20
2023-08-24T18:00	15231	124	-54.2	-81.6	287	20
2023-08-24T18:00	15253	123	-54.3	-81.7	287	20
2023-08-24T18:00	15275	123	-54.2	-81.6	288	19
2023-08-24T18:00	15299	122	-54.3	-81.7	288	19
2023-08-24T18:00	15322	122	-54.2	-81.6	289	19
2023-08-24T18:00	15346	121	-54.3	-81.7	290	18
2023-08-24T18:00	15369	121	-54.5	-81.9	291	18
2023-08-24T18:00	15396	120	-54.6	-81.9	292	17
2023-08-24T18:00	15423	120	-54.7	-82.0	293	17
2023-08-24T18:00	15448	119	-54.7	-82.0	293	16
2023-08-24T18:00	15474	119	-54.7	-82.0	293	16
2023-08-24T18:00	15495	119	-54.6	-81.9	293	15
2023-08-24T18:00	15519	118	-54.5	-81.9	292	15
2023-08-24T18:00	15543	118	-54.6	-81.9	291	15
2023-08-24T18:00	15568	117	-54.7	-82.0	289	16
2023-08-24T18:00	15590	117	-54.9	-82.2	287	16
2023-08-24T18:00	15618	116	-55.1	-82.3	286	17
2023-08-24T18:00	15642	116	-55.2	-82.4	284	17
2023-08-24T18:00	15668	115	-55.3	-82.2	281	17
2023-08-24T18:00	15691	115	-55.4	-82.2	279	18
2023-08-24T18:00	15718	115	-55.6	-82.4	276	18
2023-08-24T18:00	15742	114	-55.7	-82.5	274	18
2023-08-24T18:00	15769	114	-55.8	-82.5	272	19
2023-08-24T18:00	15794	113	-55.9	-82.6	271	19
2023-08-24T18:00	15817	113	-56.0	-82.7	270	19
2023-08-24T18:00	15840	112	-56.1	-82.8	271	19
2023-08-24T18:00	15867	112	-56.0	-82.7	272	19
2023-08-24T18:00	15891	111	-56.1	-82.8	273	19
2023-08-24T18:00	15916	111	-56.2	-82.9	275	18
2023-08-24T18:00	15939	111	-56.3	-82.9	276	18
2023-08-24T18:00	15963	110	-56.4	-82.7	278	18
2023-08-24T18:00	15988	110	-56.6	-82.9	279	18
2023-08-24T18:00	16013	109	-56.8	-83.0	280	17
2023-08-24T18:00	16039	109	-57.0	-83.2	281	17
2023-08-24T18:00	16064	108	-57.1	-83.2	281	16
2023-08-24T18:00	16088	108	-57.0	-83.2	281	15
2023-08-24T18:00	16115	108	-57.0	-83.2	280	15
2023-08-24T18:00	16142	107	-57.0	-83.2	280	14
2023-08-24T18:00	16165	107	-57.1	-83.2	280	14
2023-08-24T18:00	16188	106	-57.1	-83.2	280	13
2023-08-24T18:00	16214	106	-57.2	-83.3	280	13
2023-08-24T18:00	16237	106	-57.3	-83.4	279	13
2023-08-24T18:00	16263	105	-57.4	-83.5	278	13
2023-08-24T18:00	16287	105	-57.3	-83.4	275	13
2023-08-24T18:00	16311	104	-57.2	-83.3	272	13
2023-08-24T18:00	16336	104	-57.2	-83.3	269	14
2023-08-24T18:00	16362	103	-57.3	-83.4	268	14
2023-08-24T18:00	16384	103	-57.3	-83.4	267	14
2023-08-24T18:00	16407	103	-57.3	-83.4	267	15
2023-08-24T18:00	16432	102	-57.3	-83.1	268	15
2023-08-24T18:00	16458	102	-57.5	-83.3	269	15
2023-08-24T18:00	16481	102	-57.5	-83.3	269	14
2023-08-24T18:00	16507	101	-57.4	-83.2	270	14
2023-08-24T18:00	16532	101	-57.3	-83.1	270	14
2023-08-24T18:00	16560	100	-57.5	-83.3	270	15
2023-08-24T18:00	16581	100	-57.5	-83.6	271	15
2023-08-24T18:00	16606	100	-57.4	-83.5	272	16
2023-08-24T18:00	16632	99	-57.4	-83.5	272	16
2023-08-24T18:00	16657	99	-57.4	-83.5	272	16
2023-08-24T18:00	16683	98	-57.5	-83.9	272	17
2023-08-24T18:00	16708	98	-57.5	-83.9	271	17
2023-08-24T18:00	16731	98	-57.5	-83.9	271	17
2023-08-24T18:00	16754	97	-57.7	-83.7	271	17
2023-08-24T18:00	16779	97	-57.9	-83.9	272	17
2023-08-24T18:00	16803	96	-57.9	-83.9	273	17
2023-08-24T18:00	16828	96	-57.8	-84.1	275	17
2023-08-24T18:00	16851	96	-57.8	-84.1	277	17
2023-08-24T18:00	16874	95	-57.9	-84.2	280	17
2023-08-24T18:00	16901	95	-58.0	-84.2	282	16
2023-08-24T18:00	16921	95	-57.8	-84.1	284	16
2023-08-24T18:00	16946	94	-57.8	-84.4	286	15
2023-08-24T18:00	16972	94	-57.9	-84.5	288	14
2023-08-24T18:00	16994	94	-57.8	-84.7	288	13
2023-08-24T18:00	17020	93	-57.6	-84.6	288	12
2023-08-24T18:00	17045	93	-57.2	-84.3	287	12
2023-08-24T18:00	17066	93	-57.0	-84.5	285	11
2023-08-24T18:00	17093	92	-57.1	-84.6	283	10
2023-08-24T18:00	17116	92	-57.2	-84.6	281	10
2023-08-24T18:00	17137	91	-57.3	-84.7	279	9
2023-08-24T18:00	17165	91	-57.2	-84.6	276	9
2023-08-24T18:00	17187	91	-57.2	-84.6	273	9
2023-08-24T18:00	17210	90	-57.1	-84.9	271	9
2023-08-24T18:00	17236	90	-56.7	-84.6	269	10
2023-08-24T18:00	17260	90	-56.3	-84.7	267	10
2023-08-24T18:00	17285	89	-56.2	-84.6	267	11
2023-08-24T18:00	17306	89	-56.3	-84.7	268	11
2023-08-24T18:00	17329	89	-56.5	-84.9	269	12
2023-08-24T18:00	17357	88	-56.5	-84.9	271	12
2023-08-24T18:00	17381	88	-56.3	-84.7	274	12
2023-08-24T18:00	17403	88	-56.2	-84.6	277	12
2023-08-24T18:00	17427	87	-56.0	-84.5	279	12
2023-08-24T18:00	17451	87	-55.8	-84.8	282	12
2023-08-24T18:00	17474	87	-55.6	-84.6	285	11
2023-08-24T18:00	17502	86	-55.5	-84.5	289	11
2023-08-24T18:00	17528	86	-55.7	-84.7	294	11
2023-08-24T18:00	17552	86	-55.8	-84.8	299	10
2023-08-24T18:00	17575	85	-55.7	-84.7	303	10
2023-08-24T18:00	17600	85	-55.7	-84.7	307	9
2023-08-24T18:00	17621	85	-55.7	-84.7	309	9
2023-08-24T18:00	17647	84	-55.7	-84.7	310	8
2023-08-24T18:00	17670	84	-55.7	-84.7	310	8
2023-08-24T18:00	17695	84	-55.8	-84.3	309	7
2023-08-24T18:00	17718	84	-56.0	-84.5	309	7
2023-08-24T18:00	17736	83	-56.2	-84.6	308	6
2023-08-24T18:00	17763	83	-56.4	-84.8	306	5
2023-08-24T18:00	17786	83	-56.5	-84.5	303	5
2023-08-24T18:00	17813	82	-56.7	-84.6	299	4
2023-08-24T18:00	17834	82	-56.9	-84.8	294	4
2023-08-24T18:00	17858	82	-56.9	-84.8	287	4
2023-08-24T18:00	17881	81	-57.0	-84.8	280	4
2023-08-24T18:00	17908	81	-57.1	-84.9	273	4
2023-08-24T18:00	17932	81	-57.3	-85.1	267	4
2023-08-24T18:00	17957	80	-57.5	-85.2	264	4
2023-08-24T18:00	17979	80	-57.6	-85.3	261	5
2023-08-24T18:00	18002	80	-57.7	-85.4	260	6
2023-08-24T18:00	18024	80	-57.7	-85.4	260	7
2023-08-24T18:00	18050	79	-57.6	-85.3	259	7
2023-08-24T18:00	18070	79	-57.4	-85.2	258	8
2023-08-24T18:00	18095	79	-57.5	-85.2	256	8
2023-08-24T18:00	18119	78	-57.6	-85.3	253	8
2023-08-24T18:00	18145	78	-57.7	-85.4	250	9
2023-08-24T18:00	18166	78	-57.8	-85.9	248	9
2023-08-24T18:00	18193	77	-57.7	-85.8	248	10
2023-08-24T18:00	18214	77	-57.3	-85.5	250	10
2023-08-24T18:00	18237	77	-57.2	-85.4	252	11
2023-08-24T18:00	18264	77	-57.3	-85.5	255	11
2023-08-24T18:00	18285	76	-57.4	-85.6	259	12
2023-08-24T18:00	18315	76	-57.4	-85.6	263	12
2023-08-24T18:00	18339	76	-57.5	-85.6	267	13
2023-08-24T18:00	18360	75	-57.6	-85.7	271	13
2023-08-24T18:00	18385	75	-57.6	-85.7	275	13
2023-08-24T18:00	18411	75	-57.6	-85.7	279	13
2023-08-24T18:00	18435	75	-57.3	-85.5	284	13
2023-08-24T18:00	18462	74	-57.2	-85.4	289	12
2023-08-24T18:00	18490	74	-57.1	-85.7	295	12
2023-08-24T18:00	18516	74	-57.0	-85.7	300	11
2023-08-24T18:00	18540	73	-57.1	-85.7	306	11
2023-08-24T18:00	18568	73	-57.0	-85.7	311	10
2023-08-24T18:00	18589	73	-57.0	-85.7	315	10
2023-08-24T18:00	18611	73	-56.9	-85.6	319	10
2023-08-24T18:00	18637	72	-56.8	-85.5	322	9
2023-08-24T18:00	18665	72	-56.9	-85.6	325	8
2023-08-24T18:00	18686	72	-57.0	-85.2	327	8
2023-08-24T18:00	18713	71	-57.2	-85.4	329	7
2023-08-24T18:00	18742	71	-57.4	-85.6	329	6
2023-08-24T18:00	18762	71	-57.5	-85.6	328	5
2023-08-24T18:00	18788	71	-57.4	-85.6	324	5
2023-08-24T18:00	18817	70	-57.4	-85.6	315	4
2023-08-24T18:00	18841	70	-57.5	-85.6	302	4
2023-08-24T18:00	18866	70	-57.6	-85.7	287	4
2023-08-24T18:00	18889	69	-57.6	-85.7	276	4
2023-08-24T18:00	18916	69	-57.6	-85.7	268	4
2023-08-24T18:00	18942	69	-57.7	-85.8	265	5
2023-08-24T18:00	18967	69	-57.7	-85.8	265	5
2023-08-24T18:00	18991	68	-57.7	-85.8	265	6
2023-08-24T18:00	19017	68	-57.5	-85.6	266	7
2023-08-24T18:00	19043	68	-57.6	-85.7	267	7
2023-08-24T18:00	19070	67	-57.5	-85.6	267	7
2023-08-24T18:00	19098	67	-57.6	-86.1	267	7
2023-08-24T18:00	19121	67	-57.6	-86.1	267	7
2023-08-24T18:00	19147	67	-57.6	-86.1	267	7
2023-08-24T18:00	19171	66	-57.5	-86.1	266	7
2023-08-24T18:00	19198	66	-57.2	-85.8	266	7
2023-08-24T18:00	19225	66	-57.1	-85.7	265	7
2023-08-24T18:00	19249	66	-56.9	-85.6	263	7
2023-08-24T18:00	19273	65	-56.9	-85.6	262	7
2023-08-24T18:00	19303	65	-57.1	-85.7	262	7
2023-08-24T18:00	19326	65	-57.2	-85.8	263	7
2023-08-24T18:00	19356	64	-57.3	-85.9	264	7
2023-08-24T18:00	19381	64	-57.2	-85.8	267	7
2023-08-24T18:00	19402	64	-57.2	-85.8	270	7
2023-08-24T18:00	19429	64	-57.1	-85.7	275	7
2023-08-24T18:00	19455	63	-57.1	-85.7	279	7
2023-08-24T18:00	19481	63	-57.2	-85.8	282	7
2023-08-24T18:00	19504	63	-57.3	-85.9	284	7
2023-08-24T18:00	19530	63	-57.5	-86.1	283	6
2023-08-24T18:00	19556	62	-57.6	-86.1	278	6
2023-08-24T18:00	19583	62	-57.7	-86.2	270	5
2023-08-24T18:00	19610	62	-57.6	-86.1	260	5
2023-08-24T18:00	19631	62	-57.5	-86.1	254	5
2023-08-24T18:00	19656	61	-57.4	-86.0	253	6
2023-08-24T18:00	19682	61	-57.3	-85.9	256	6
2023-08-24T18:00	19711	61	-57.3	-85.9	262	7
2023-08-24T18:00	19733	61	-57.2	-85.8	269	7
2023-08-24T18:00	19756	61	-57.1	-86.2	275	7
2023-08-24T18:00	19781	60	-57.1	-86.2	279	7
2023-08-24T18:00	19806	60	-56.7	-85.9	283	7
2023-08-24T18:00	19831	60	-56.4	-86.2	286	7
2023-08-24T18:00	19851	60	-56.2	-86.0	290	7
2023-08-24T18:00	19875	59	-55.8	-85.7	295	6
2023-08-24T18:00	19901	59	-55.3	-85.4	300	6
2023-08-24T18:00	19924	59	-55.2	-85.3	306	6
2023-08-24T18:00	19947	59	-55.2	-85.3	311	6
2023-08-24T18:00	19973	58	-55.4	-85.4	316	7
2023-08-24T18:00	19998	58	-55.5	-85.0	320	7
2023-08-24T18:00	20023	58	-55.6	-85.1	323	7
2023-08-24T18:00	20044	58	-55.7	-85.2	327	7
2023-08-24T18:00	20072	58	-55.7	-85.2	332	7
2023-08-24T18:00	20102	57	-55.8	-85.2	337	6
2023-08-24T18:00	20121	57	-55.8	-85.2	343	6
2023-08-24T18:00	20144	57	-55.9	-85.3	349	6
2023-08-24T18:00	20172	57	-55.9	-85.3	355	5
2023-08-24T18:00	20197	56	-55.9	-85.3	360	5
2023-08-24T18:00	20220	56	-56.0		4	4
2023-08-24T18:00	20245	56	-56.0		6	4
2023-08-24T18:00	20272	56	-56.1	-85.5	5	3
2023-08-24T18:00	20298	56	-56.1	-85.5	359	2
2023-08-24T18:00	20324	55	-56.3	-85.6	338	1
2023-08-24T18:00	20348	55	-56.3	-85.6	298	1
2023-08-24T18:00	20374	55	-56.4	-85.7	272	2
2023-08-24T18:00	20400	55	-56.2	-85.5	265	2
2023-08-24T18:00	20429	54	-56.1	-85.5	267	3
2023-08-24T18:00	20453	54	-55.9	-85.3	275	2
2023-08-24T18:00	20480	54	-55.6	-85.6	290	2
2023-08-24T18:00	20507	54	-55.5	-85.5	313	2
2023-08-24T18:00	20535	54	-55.5	-85.5	339	2
2023-08-24T18:00	20560	53	-55.6	-85.6	1	2
2023-08-24T18:00	20588	53	-55.8	-85.2	20	2
2023-08-24T18:00	20615	53	-55.7	-85.2	37	2
2023-08-24T18:00	20640	53	-55.7	-85.2	55	2
2023-08-24T18:00	20669	52	-55.8	-85.2	78	2
2023-08-24T18:00	20695	52	-56.0		105	2
2023-08-24T18:00	20723	52	-55.9	-85.3	129	2
2023-08-24T18:00	20751	52	-56.0		148	2
2023-08-24T18:00	20776	52	-56.0		162	2
2023-08-24T18:00	20803	51	-56.2	-85.5	174	2
2023-08-24T18:00	20830	51	-56.3	-85.6	183	2
2023-08-24T18:00	20854	51	-56.4	-85.7	190	3
2023-08-24T18:00	20885	51	-56.4	-85.7	195	3
2023-08-24T18:00	20914	50	-56.0		199	3
2023-08-24T18:00	20938	50	-56.1	-85.5	203	3
2023-08-24T18:00	20967	50	-56.1	-85.5	206	4
2023-08-24T18:00	20996	50	-56.2	-85.5	210	4
2023-08-24T18:00	21021	50	-56.3	-85.6	215	5
2023-08-24T18:00	21051	49	-56.4	-85.7	220	6
2023-08-24T18:00	21075	49	-56.3	-85.6	225	6
2023-08-24T18:00	21103	49	-56.3	-85.6	230	7
2023-08-24T18:00	21130	49	-56.3	-85.6	235	7
2023-08-24T18:00	21156	49	-56.3	-85.6	239	7
2023-08-24T18:00	21181	48	-56.4	-85.7	243	7
2023-08-24T18:00	21207	48	-56.5	-85.8	247	7
2023-08-24T18:00	21234	48	-56.5	-85.8	251	6
2023-08-24T18:00	21262	48	-56.5	-85.3	256	6
2023-08-24T18:00	21283	48	-56.6	-85.4	260	6
2023-08-24T18:00	21308	47	-56.7	-85.4	265	6
2023-08-24T18:00	21335	47	-57.0	-85.7	269	6
2023-08-24T18:00	21363	47	-57.0	-85.7	273	6
2023-08-24T18:00	21389	47	-57.1	-85.7	278	6
2023-08-24T18:00	21415	47	-57.2	-85.8	283	5
2023-08-24T18:00	21440	46	-57.3	-85.9	287	5
2023-08-24T18:00	21468	46	-57.3	-85.9	289	5
2023-08-24T18:00	21495	46	-57.2	-85.8	290	5
2023-08-24T18:00	21523	46	-57.2	-85.8	289	5
2023-08-24T18:00	21549	46	-57.3	-85.9	290	5
2023-08-24T18:00	21575	45	-57.3	-85.9	293	5
2023-08-24T18:00	21603	45	-57.3	-85.9	299	5
2023-08-24T18:00	21626	45	-57.2	-86.3	308	6
2023-08-24T18:00	21656	45	-57.0	-86.1	317	6
2023-08-24T18:00	21678	45	-56.7	-85.9	327	6
2023-08-24T18:00	21700	45	-56.5	-85.8	337	6
2023-08-24T18:00	21729	44	-56.3	-85.6	345	6
2023-08-24T18:00	21752	44	-56.5	-85.8	352	6
2023-08-24T18:00	21775	44	-56.5	-85.8	359	6
2023-08-24T18:00	21804	44	-56.5	-85.8	3	6
2023-08-24T18:00	21832	44	-56.7	-85.9	4	5
2023-08-24T18:00	21860	43	-56.9	-86.1	1	5
2023-08-24T18:00	21884	43	-56.8	-86.0	354	5
2023-08-24T18:00	21911	43	-56.8	-85.5	345	5
2023-08-24T18:00	21935	43	-56.8	-85.5	336	5
2023-08-24T18:00	21964	43	-56.9	-86.1	329	6
2023-08-24T18:00	21990	43	-57.0	-86.1	326	7
2023-08-24T18:00	22018	42	-57.1	-86.2	325	8
2023-08-24T18:00	22041	42	-56.8	-86.0	326	8
2023-08-24T18:00	22070	42	-56.7	-85.9	328	9
2023-08-24T18:00	22096	42	-56.6	-85.8	332	9
2023-08-24T18:00	22122	42	-56.4	-86.2	336	9
2023-08-24T18:00	22142	42	-56.0	-85.9	342	9
2023-08-24T18:00	22175	41	-55.8	-85.7	348	8
2023-08-24T18:00	22197	41	-55.8	-85.7	354	8
2023-08-24T18:00	22220	41	-55.8	-85.7	0	7
2023-08-24T18:00	22250	41	-55.9	-85.8	5	7
2023-08-24T18:00	22271	41	-55.9	-85.8	8	7
2023-08-24T18:00	22303	41	-55.9	-85.8	9	6
2023-08-24T18:00	22325	40	-55.7	-85.7	8	6
2023-08-24T18:00	22355	40	-55.6	-85.6	5	6
2023-08-24T18:00	22383	40	-55.6	-85.6	1	5
2023-08-24T18:00	22406	40	-55.4	-85.4	356	5
2023-08-24T18:00	22433	40	-55.3	-85.4	353	6
2023-08-24T18:00	22461	40	-55.3	-85.4	352	6
2023-08-24T18:00	22491	39	-55.4	-85.4	352	6
2023-08-24T18:00	22510	39	-55.2	-85.3	354	7
2023-08-24T18:00	22542	39	-55.0	-85.1	357	7
2023-08-24T18:00	22565	39	-55.0	-85.7	2	8
2023-08-24T18:00	22592	39	-54.9	-85.6	6	8
2023-08-24T18:00	22620	39	-54.7	-85.5	11	8
2023-08-24T18:00	22644	38	-54.7	-85.5	16	7
2023-08-24T18:00	22674	38	-54.6	-84.8	21	7
2023-08-24T18:00	22701	38	-54.7	-84.9	26	7
2023-08-24T18:00	22722	38	-54.8	-85.0	30	6
2023-08-24T18:00	22744	38	-54.9	-85.1	34	5
2023-08-24T18:00	22769	38	-55.0	-85.1	35	5
2023-08-24T18:00	22795	38	-55.1	-85.2	35	4
2023-08-24T18:00	22816	37	-55.2	-85.3	31	4
2023-08-24T18:00	22844	37	-55.2	-85.3	24	3
2023-08-24T18:00	22872	37	-55.1	-85.2	16	3
2023-08-24T18:00	22899	37	-55.0	-85.1	9	3
2023-08-24T18:00	22924	37	-55.0	-85.1	5	4
2023-08-24T18:00	22946	37	-55.0	-85.1	3	4
2023-08-24T18:00	22970	36	-55.0	-85.1	4	4
2023-08-24T18:00	22998	36	-54.8	-85.0	6	5
2023-08-24T18:00	23026	36	-54.9	-85.6	8	5
2023-08-24T18:00	23049	36	-54.8	-85.5	10	4
2023-08-24T18:00	23080	36	-54.7	-85.5	10	4
2023-08-24T18:00	23102	36	-54.4	-85.2	9	4
2023-08-24T18:00	23129	36	-54.2	-85.1	6	4
2023-08-24T18:00	23158	35	-54.2	-85.1	3	4
2023-08-24T18:00	23180	35	-54.1	-85.0	0	4
2023-08-24T18:00	23208	35	-53.9	-84.9	0	4
2023-08-24T18:00	23233	35	-53.6	-84.6	2	5
2023-08-24T18:00	23260	35	-53.6	-84.6	5	5
2023-08-24T18:00	23292	35	-53.7	-84.7	9	6
2023-08-24T18:00	23312	35	-53.7	-84.7	13	6
2023-08-24T18:00	23340	34	-53.8	-84.8	17	6
2023-08-24T18:00	23369	34	-53.7	-84.7	21	6
2023-08-24T18:00	23396	34	-53.7	-84.7	26	5
2023-08-24T18:00	23424	34	-53.8	-84.8	32	5
2023-08-24T18:00	23446	34	-53.8	-84.8	39	5
2023-08-24T18:00	23474	34	-53.9	-84.9	44	4
2023-08-24T18:00	23509	34	-54.0	-84.9	49	4
2023-08-24T18:00	23526	33	-53.9	-84.9	50	4
2023-08-24T18:00	23560	33	-54.0	-84.9	47	3
2023-08-24T18:00	23588	33	-54.1	-85.0	41	4
2023-08-24T18:00	23620	33	-54.2	-85.1	34	4
2023-08-24T18:00	23645	33	-54.2	-85.1	29	4
2023-08-24T18:00	23672	33	-54.2	-85.1	25	4
2023-08-24T18:00	23704	33	-54.2	-85.1	24	4
2023-08-24T18:00	23728	32	-54.3	-85.2	23	4
2023-08-24T18:00	23751	32	-54.3	-85.2	23	3
2023-08-24T18:00	23786	32	-54.4	-85.2	23	3
2023-08-24T18:00	23808	32	-54.4	-85.2	22	2
2023-08-24T18:00	23843	32	-54.3	-85.2	20	2
2023-08-24T18:00	23863	32	-54.3	-85.2	17	1
2023-08-24T18:00	23890	32	-54.0	-84.9	13	1
2023-08-24T18:00	23917	32	-53.7	-84.7	9	2
2023-08-24T18:00	23945	31	-53.6	-85.3	5	2
2023-08-24T18:00	23974	31	-53.5	-85.2	0	2
2023-08-24T18:00	23995	31	-53.4	-85.1	356	3
2023-08-24T18:00	24028	31	-53.5	-84.6	355	3
2023-08-24T18:00	24055	31	-53.6	-84.6	355	3
2023-08-24T18:00	24078	31	-53.7	-84.7	358	4
2023-08-24T18:00	24109	31	-53.8	-84.8	3	4
2023-08-24T18:00	24143	30	-53.9	-84.9	9	4
2023-08-24T18:00	24166	30	-53.8	-84.8	18	3
2023-08-24T18:00	24193	30	-53.9	-84.9	28	3
2023-08-24T18:00	24221	30	-54.0	-84.9	39	3
2023-08-24T18:00	24249	30	-54.2	-85.1	53	2
2023-08-24T18:00	24272	30	-54.3	-85.2	66	2
2023-08-24T18:00	24306	30	-54.4	-85.2	80	2
2023-08-24T18:00	24329	30	-54.5	-85.3	93	2
2023-08-24T18:00	24363	29	-54.5	-85.3	109	1
2023-08-24T18:00	24385	29	-54.4	-85.2	130	1
2023-08-24T18:00	24410	29	-54.2	-85.1	152	1
2023-08-24T18:00	24443	29	-53.8	-85.4	172	1
2023-08-24T18:00	24463	29	-53.6	-85.3	186	1
2023-08-24T18:00	24486	29	-53.6	-85.3	198	1
2023-08-24T18:00	24522	29	-53.7	-85.3	213	1
2023-08-24T18:00	24541	29	-53.8	-84.8	233	1
2023-08-24T18:00	24570	28	-53.8	-84.8	259	1
2023-08-24T18:00	24599	28	-53.7	-84.7	282	2
2023-08-24T18:00	24624	28	-53.7	-84.7	300	2
2023-08-24T18:00	24655	28	-53.8	-84.8	314	3
2023-08-24T18:00	24678	28	-53.6	-84.6	323	3
2023-08-24T18:00	24705	28	-53.6	-85.3	330	4
2023-08-24T18:00	24734	28	-53.7	-85.3	334	4
2023-08-24T18:00	24762	28	-53.5	-85.2	337	4
2023-08-24T18:00	24788	28	-53.3	-85.0	340	4
2023-08-24T18:00	24807	27	-53.2	-85.0	344	3
2023-08-24T18:00	24845	27	-53.1	-84.9	348	3
2023-08-24T18:00	24871	27	-53.1	-84.9	352	3
2023-08-24T18:00	24900	27	-53.1	-84.9	355	3
2023-08-24T18:00	24926	27	-53.0	-84.8	356	3
2023-08-24T18:00	24950	27	-52.9	-84.7	356	3
2023-08-24T18:00	24978	27	-52.9	-84.7	356	4
2023-08-24T18:00	25005	27	-52.8	-84.7	354	4
2023-08-24T18:00	25034	26	-52.7	-84.6	351	4
2023-08-24T18:00	25059	26	-52.8	-84.7	348	5
2023-08-24T18:00	25090	26	-52.9	-84.7	346	5
2023-08-24T18:00	25123	26	-53.0	-84.8	346	6
2023-08-24T18:00	25146	26	-53.1	-84.9	348	6
2023-08-24T18:00	25171	26	-53.0	-84.8	351	6
2023-08-24T18:00	25207	26	-52.8	-84.7	356	6
2023-08-24T18:00	25233	26	-52.5	-84.4	2	6
2023-08-24T18:00	25260	26	-52.6	-84.5	8	5
2023-08-24T18:00	25291	25	-52.9	-84.7	16	5
2023-08-24T18:00	25319	25	-53.0	-84.8	24	5
2023-08-24T18:00	25345	25	-52.9	-84.7	32	5
2023-08-24T18:00	25383	25	-53.0	-84.8	41	5
2023-08-24T18:00	25411	25	-53.0	-84.8	49	4
2023-08-24T18:00	25439	25	-52.9	-84.7	55	4
2023-08-24T18:00	25469	25	-52.9	-84.7	58	4
2023-08-24T18:00	25497	25	-52.9	-84.7	55	4
2023-08-24T18:00	25521	25	-52.8	-84.7	46	3
2023-08-24T18:00	25554	24	-52.6	-84.5	34	4
2023-08-24T18:00	25579	24	-52.6	-84.5	23	4
2023-08-24T18:00	25609	24	-52.6	-84.5	14	4
2023-08-24T18:00	25640	24	-52.6	-84.5	8	5
2023-08-24T18:00	25672	24	-52.5	-84.4	3	5
2023-08-24T18:00	25699	24	-52.5	-84.4	0	5
2023-08-24T18:00	25729	24	-52.4	-84.4	0	5
2023-08-24T18:00	25755	24	-52.2	-84.9	3	5
2023-08-24T18:00	25782	24	-52.1	-84.8	9	5
2023-08-24T18:00	25813	23	-52.0	-84.8	16	5
2023-08-24T18:00	25832	23	-52.0	-84.8	25	5
2023-08-24T18:00	25864	23	-51.9	-84.7	34	5
2023-08-24T18:00	25891	23	-51.8	-84.6	41	4
2023-08-24T18:00	25910	23	-51.7	-84.5	47	4
2023-08-24T18:00	25944	23	-51.5	-84.4	51	4
2023-08-24T18:00	25971	23	-51.4	-84.3	52	4
2023-08-24T18:00	25995	23	-51.4	-84.3	49	4
2023-08-24T18:00	26029	23	-51.5	-84.4	40	3
2023-08-24T18:00	26053	23	-51.5	-84.4	28	3
2023-08-24T18:00	26084	23	-51.5	-84.4	16	4
2023-08-24T18:00	26111	22	-51.3	-84.3	9	4
2023-08-24T18:00	26141	22	-51.2	-84.2	6	5
2023-08-24T18:00	26158	22	-51.0	-84.0	5	5
2023-08-24T18:00	26181	22	-50.7	-83.8	6	6
2023-08-24T18:00	26216	22	-50.6	-83.7	7	6
2023-08-24T18:00	26243	22	-50.6	-83.7	10	6
2023-08-24T18:00	26266	22	-50.4	-83.6	13	7
2023-08-24T18:00	26291	22	-50.3	-83.5	17	7
2023-08-24T18:00	26323	22	-50.2	-83.5	21	7
2023-08-24T18:00	26337	22	-50.2	-83.5	25	8
2023-08-24T18:00	26360	22	-50.2	-83.5	28	8
2023-08-24T18:00	26391	21	-50.2	-83.5	31	8
2023-08-24T18:00	26427	21	-50.3	-83.5	35	7
2023-08-24T18:00	26447	21	-50.3	-83.5	39	6
2023-08-24T18:00	26476	21	-50.3	-83.5	44	6
2023-08-24T18:00	26508	21	-50.1	-83.4	50	5
2023-08-24T18:00	26536	21	-50.0	-83.3	58	4
2023-08-24T18:00	26564	21	-49.8	-83.2	68	4
2023-08-24T18:00	26590	21	-49.9	-84.0	80	3
2023-08-24T18:00	26615	21	-49.9	-84.0	92	3
2023-08-24T18:00	26649	21	-49.9	-84.0	104	2
2023-08-24T18:00	26678	21	-49.8	-84.0	113	2
2023-08-24T18:00	26696	20	-49.7	-83.9	117	1
2023-08-24T18:00	26731	20	-49.6	-83.8	111	0
2023-08-24T18:00	26757	20	-49.4	-83.7	360	0
2023-08-24T18:00	26790	20	-49.2	-83.5	318	0
2023-08-24T18:00	26809	20	-48.9	-83.3	302	1
2023-08-24T18:00	26836	20	-48.7	-83.2	288	1
2023-08-24T18:00	26871	20	-48.5	-83.0	278	0
2023-08-24T18:00	26904	20	-48.2	-82.8	293	0
2023-08-24T18:00	26931	20	-48.0	-82.7	346	0
2023-08-24T18:00	26962	20	-47.9	-82.6	4	1
2023-08-24T18:00	26990	20	-48.0	-82.7	8	2
2023-08-24T18:00	27022	20	-47.9	-82.6	9	2
2023-08-24T18:00	27044	19	-47.7	-82.4	11	3
2023-08-24T18:00	27077	19	-47.6	-82.4	16	4
2023-08-24T18:00	27112	19	-47.5	-82.3	21	4
2023-08-24T18:00	27133	19	-47.4	-82.2	28	5
2023-08-24T18:00	27162	19	-47.1	-82.0	34	5
2023-08-24T18:00	27200	19	-47.1	-82.0	39	6
2023-08-24T18:00	27218	19	-47.3	-82.2	43	6
2023-08-24T18:00	27246	19	-47.4	-82.2	46	7
2023-08-24T18:00	27273	19	-47.7	-82.4	49	7
2023-08-24T18:00	27312	19	-47.9	-82.6	51	7
2023-08-24T18:00	27342	19	-48.1	-82.7	53	7
2023-08-24T18:00	27370	19	-48.1	-82.7	55	7
2023-08-24T18:00	27398	18	-48.0	-82.7	57	7
2023-08-24T18:00	27427	18	-47.9	-82.6	59	6
2023-08-24T18:00	27454	18	-48.0	-82.7	61	6
2023-08-24T18:00	27489	18	-48.0	-82.7	62	5
2023-08-24T18:00	27512	18	-48.2	-82.8	61	5
2023-08-24T18:00	27549	18	-48.4	-82.9	59	5
2023-08-24T18:00	27577	18	-48.5	-83.0	55	5
2023-08-24T18:00	27598	18	-48.4	-82.9	51	5
2023-08-24T18:00	27631	18	-48.5	-83.0	47	5
2023-08-24T18:00	27667	18	-48.5	-83.0	45	5
2023-08-24T18:00	27693	18	-48.5	-83.0	42	4
2023-08-24T18:00	27715	18	-48.5	-83.0	38	4
2023-08-24T18:00	27741	17	-48.3	-82.9	33	4
2023-08-24T18:00	27776	17	-48.0	-82.7	25	3
2023-08-24T18:00	27813	17	-47.9	-83.5	16	3
2023-08-24T18:00	27838	17	-47.7	-83.4	8	4
2023-08-24T18:00	27870	17	-47.4	-83.1	3	4
2023-08-24T18:00	27912	17	-47.2	-83.0	1	5
2023-08-24T18:00	27929	17	-47.1	-82.9	359	5
2023-08-24T18:00	27954	17	-46.9	-82.8	360	6
2023-08-24T18:00	27985	17	-46.8	-82.7	3	6
2023-08-24T18:00	28008	17	-46.6	-82.6	9	7
2023-08-24T18:00	28048	17	-46.5	-82.5	16	7
2023-08-24T18:00	28067	17	-46.2	-82.3	23	8
2023-08-24T18:00	28106	17	-45.9	-82.1	29	8
2023-08-24T18:00	28137	17	-45.8	-82.0	33	8
2023-08-24T18:00	28162	16	-45.7	-81.9	36	8
2023-08-24T18:00	28189	16	-45.6	-81.9	39	8
2023-08-24T18:00	28220	16	-45.6	-81.9	41	7
2023-08-24T18:00	28256	16	-45.5	-81.8	44	7
2023-08-24T18:00	28286	16	-45.4	-81.7	47	6
2023-08-24T18:00	28313	16	-45.4	-81.7	51	6
2023-08-24T18:00	28344	16	-45.3	-81.6	54	5
2023-08-24T18:00	28362	16	-45.1	-81.5	57	4
2023-08-24T18:00	28403	16	-45.1	-81.5	62	4
2023-08-24T18:00	28429	16	-44.9	-82.5	67	4
2023-08-24T18:00	28454	16	-44.7	-82.3	73	3
2023-08-24T18:00	28485	16	-44.7	-82.3	79	3
2023-08-24T18:00	28526	16	-44.7	-82.3	84	3
2023-08-24T18:00	28553	15	-44.6	-82.2	87	2
2023-08-24T18:00	28580	15	-44.5	-82.2	87	2
2023-08-24T18:00	28607	15	-44.4	-82.1	75	1
2023-08-24T18:00	28634	15	-44.5	-82.2	42	1
2023-08-24T18:00	28674	15	-44.5	-82.2	8	1
2023-08-24T18:00	28695	15	-44.5	-82.2	355	2
2023-08-24T18:00	28733	15	-44.5	-81.1	353	2
2023-08-24T18:00	28754	15	-44.6	-81.2	357	3
2023-08-24T18:00	28788	15	-44.7	-81.2	5	3
2023-08-24T18:00	28814	15	-44.7	-81.2	15	3
2023-08-24T18:00	28854	15	-44.7	-81.2	26	4
2023-08-24T18:00	28877	15	-44.6	-82.2	36	4
2023-08-24T18:00	28919	15	-44.6	-82.2	45	5
2023-08-24T18:00	28940	15	-44.5	-82.2	51	5
2023-08-24T18:00	28972	15	-44.4	-82.1	55	6
2023-08-24T18:00	28999	14	-44.2	-82.0	58	6
2023-08-24T18:00	29030	14	-43.9	-81.8	60	6
2023-08-24T18:00	29059	14	-43.6	-81.5	63	6
2023-08-24T18:00	29091	14	-43.4	-81.4	67	6
2023-08-24T18:00	29121	14	-43.0	-81.1	71	6
2023-08-24T18:00	29151	14	-42.8	-81.0	75	6
2023-08-24T18:00	29178	14	-42.7	-80.9	78	5
2023-08-24T18:00	29220	14	-42.8	-81.0	81	4
2023-08-24T18:00	29247	14	-42.7	-80.9	84	4
2023-08-24T18:00	29270	14	-42.9	-81.1	87	3
2023-08-24T18:00	29296	14	-42.9	-81.1	94	3
2023-08-24T18:00	29332	14	-42.9	-81.1	103	3
2023-08-24T18:00	29365	14	-43.1	-81.2	112	3
2023-08-24T18:00	29392	14	-43.3	-81.3	118	3
2023-08-24T18:00	29421	14	-43.4	-81.4	119	3
2023-08-24T18:00	29450	14	-43.5	-81.5	114	3
2023-08-24T18:00	29478	13	-43.7	-81.6	103	3
2023-08-24T18:00	29502	13	-43.6	-81.5	91	3
2023-08-24T18:00	29555	13	-43.6	-81.5	80	4
2023-08-24T18:00	29577	13	-43.8	-81.7	75	4
2023-08-24T18:00	29596	13	-43.8	-81.7	73	4
2023-08-24T18:00	29630	13	-43.6	-81.5	74	5
2023-08-24T18:00	29662	13	-43.4	-81.4	77	5
2023-08-24T18:00	29696	13	-43.1	-81.2	80	6
2023-08-24T18:00	29736	13	-42.9	-81.1	83	6
2023-08-24T18:00	29750	13	-42.8	-81.0	87	6
2023-08-24T18:00	29784	13	-42.5	-80.8	90	6
2023-08-24T18:00	29798	13	-42.3	-80.6	95	6
2023-08-24T18:00	29837	13	-42.2	-80.6	100	6
2023-08-24T18:00	29875	13	-42.1	-80.5	106	6
2023-08-24T18:00	29904	13	-41.8	-80.3	113	5
2023-08-24T18:00	29936	13	-41.6	-80.1	120	5
2023-08-24T18:00	29972	13	-41.5	-80.1	126	5
2023-08-24T18:00	30003	13	-41.4	-80.0	128	5
2023-08-24T18:00	30007	12	-41.2	-79.9	129	4
2023-08-24T18:00	30037	12	-41.3	-79.9	129	4
2023-08-24T18:00	30077	12	-41.3	-79.9	130	4
2023-08-24T18:00	30123	12	-41.4	-80.0	132	4
2023-08-24T18:00	30150	12	-41.6	-80.1	133	3
2023-08-24T18:00	30190	12	-41.8	-80.3	133	3
2023-08-24T18:00	30224	12	-41.9	-80.4	130	2
2023-08-24T18:00	30243	12	-42.0	-80.4	121	2
2023-08-24T18:00	30278	12	-42.1	-80.5	107	2
2023-08-24T18:00	30310	12	-42.2	-80.6	92	2
2023-08-24T18:00	30347	12	-42.1	-80.5	84	2
2023-08-24T18:00	30351	12	-42.2	-80.6	81	2
2023-08-24T18:00	30403	12	-42.3	-80.6	81	3
2023-08-24T18:00	30421	12	-42.4	-80.7	83	3
2023-08-24T18:00	30462	12	-42.6	-80.8	88	3
2023-08-24T18:00	30497	12	-42.7	-80.9	94	3
2023-08-24T18:00	30529	12	-42.7	-80.9	103	3
2023-08-24T18:00	30566	12	-42.8	-81.0	114	3
2023-08-24T18:00	30596	11	-42.9	-81.1	123	3
2023-08-24T18:00	30625	11	-42.9	-81.1	132	3
2023-08-24T18:00	30667	11	-43.0	-81.1	139	3
2023-08-24T18:00	30691	11	-43.1	-81.2	146	3
2023-08-24T18:00	30726	11	-43.2	-81.3	154	3
2023-08-24T18:00	30750	11	-43.3	-81.3	163	2
2023-08-24T18:00	30785	11	-43.2	-81.3	173	2
2023-08-24T18:00	30828	11	-43.2	-81.3	181	2
2023-08-24T18:00	30847	11	-43.1	-81.2	184	2
2023-08-24T18:00	30879	11	-42.9	-81.1	182	2
2023-08-24T18:00	30910	11	-42.7	-80.9	174	2
2023-08-24T18:00	30952	11	-42.7	-80.9	162	2
2023-08-24T18:00	30974	11	-42.7	-80.9	152	3
2023-08-24T18:00	31000	11	-42.8	-81.0	143	3
2023-08-24T18:00	31027	11	-43.0	-81.1	137	4
2023-08-24T18:00	31070	11	-43.1	-81.2	135	4
2023-08-24T18:00	31083	11	-43.4	-81.4	137	5
2023-08-24T18:00	31117	11	-43.3	-81.3	140	5
2023-08-24T18:00	31148	11	-43.2	-81.3	145	5
2023-08-24T18:00	31186	10	-43.1	-81.2	152	4
2023-08-24T18:00	31227	10	-42.9	-81.1	160	4
2023-08-24T18:00	31259	10	-42.8	-81.0	171	3
2023-08-24T18:00	31296	10	-42.6	-80.8	186	3
2023-08-24T18:00	31317	10	-42.0	-80.4	205	2
2023-08-24T18:00	31350	10	-41.8	-80.3	224	2
2023-08-24T18:00	31376	10	-41.6	-80.1	245	2
2023-08-24T18:00	31419	10	-41.3	-79.9	275	1
2023-08-24T18:00	31438	10	-41.0	-79.7	322	1
2023-08-24T18:00	31481	10	-40.8	-79.6	358	2
2023-08-24T18:00	31495	10	-40.6	-79.5	16	3
2023-08-24T18:00	31527	10	-40.6	-79.5	26	3
2023-08-24T18:00	31556	10	-40.4	-79.3	32	4
2023-08-24T18:00	31615	10	-40.2	-79.2	37	5
2023-08-24T18:00	31662	10	-40.1	-79.1	43	5
2023-08-24T18:00	31698	10	-40.0	-79.0	45	5
2023-08-24T18:00	31725	10	-40.0	-79.0	46	5
2023-08-24T18:00	31753	10	-40.0	-79.0	47	5
2023-08-24T18:00	31780	10	-40.0	-79.0	48	5
2023-08-24T18:00	31826	10	-39.9	-79.0	51	5
2023-08-24T18:00	31848	10	-40.0	-79.0	55	5
2023-08-24T18:00	31867	9	-39.9	-79.0	61	5
2023-08-24T18:00	31918	9	-40.0	-79.0	69	5
2023-08-24T18:00	31971	9	-39.9	-79.0	79	5
2023-08-24T18:00	32010	9	-40.0	-79.0	98	5
2023-08-24T18:00	32038	9	-40.0	-79.0	103	5
2023-08-24T18:00	32068	9	-40.0	-79.0	107	5
2023-08-24T18:00	32103	9	-40.1	-79.1	107	5
2023-08-24T18:00	32134	9	-39.9	-79.0	105	4
2023-08-24T18:00	32170	9	-39.8	-78.9	99	4
2023-08-24T18:00	32192	9	-39.8	-78.9	86	3
2023-08-24T18:00	32228	9	-39.7	-78.8	68	3
2023-08-24T18:00	32270	9	-39.7	-78.8	51	3
2023-08-24T18:00	32291	9	-39.1	-78.4	44	4
2023-08-24T18:00	32302	9	-38.9	-78.3	44	4
2023-08-24T18:00	32345	9	-38.7	-78.1	47	5
2023-08-24T18:00	32362	9	-38.7	-78.1	51	6
2023-08-24T18:00	32407	9	-38.6	-78.1	54	7
2023-08-24T18:00	32430	9	-38.7	-78.1	57	8
2023-08-24T18:00	32469	9	-38.7	-78.1	60	8
2023-08-24T18:00	32499	9	-38.6	-78.1	62	9
2023-08-24T18:00	32518	9	-38.5	-78.0	63	9
2023-08-24T18:00	32552	9	-38.7	-78.1	63	8
2023-08-24T18:00	32582	9	-38.6	-78.1	63	8
2023-08-24T18:00	32610	9	-38.5	-78.0	61	7
2023-08-24T18:00	32642	8	-38.5	-78.0	58	7
2023-08-24T18:00	32676	8	-38.4	-77.9	54	7
2023-08-24T18:00	32702	8	-38.4	-77.9	50	7
2023-08-24T18:00	32711	8	-38.4	-77.9	46	7
2023-08-25T00:00	115	998	21.5	13.8	109	3
2023-08-25T00:00	139	995	21.7	13.1	120	4
2023-08-25T00:00	165	992	22.6	12.7	130	5
2023-08-25T00:00	187	989	23.1	12.8	136	7
2023-08-25T00:00	211	987	23.2	13.0	141	9
2023-08-25T00:00	229	985	23.2	13.1	144	10
2023-08-25T00:00	256	982	23.3	13.1	145	11
2023-08-25T00:00	275	980	23.4	13.0	145	11
2023-08-25T00:00	295	977	23.9	12.1	145	12
2023-08-25T00:00	319	975	24.3	11.6	145	11
2023-08-25T00:00	338	973	24.2	11.1	145	11
2023-08-25T00:00	355	971	24.3	10.0	146	11
2023-08-25T00:00	373	969	24.3	10.2	147	11
2023-08-25T00:00	393	966	24.2	10.6	148	11
2023-08-25T00:00	419	964	24.0	10.6	148	11
2023-08-25T00:00	444	961	23.8	10.6	148	11
2023-08-25T00:00	463	959	23.7	10.5	148	11
2023-08-25T00:00	484	957	23.5	10.4	148	10
2023-08-25T00:00	506	954	23.3	10.2	149	10
2023-08-25T00:00	526	952	23.2	10.2	150	10
2023-08-25T00:00	551	949	23.0	10.1	151	9
2023-08-25T00:00	575	947	22.8	10.0	153	9
2023-08-25T00:00	596	944	22.7	10.3	154	9
2023-08-25T00:00	619	942	22.6	10.2	156	9
2023-08-25T00:00	640	939	22.4	10.1	157	9
2023-08-25T00:00	663	937	22.2	10.4	159	9
2023-08-25T00:00	690	934	22.0	11.0	162	9
2023-08-25T00:00	715	931	21.8	11.3	166	9
2023-08-25T00:00	744	928	21.6	11.6	170	8
2023-08-25T00:00	770	926	21.4	11.7	174	8
2023-08-25T00:00	793	923	21.3	12.0	178	8
2023-08-25T00:00	815	921	21.1	11.8	180	8
2023-08-25T00:00	840	918	21.0	11.8	181	8
2023-08-25T00:00	862	916	20.8	11.7	183	7
2023-08-25T00:00	888	913	20.7	11.7	186	7
2023-08-25T00:00	914	910	20.6	11.7	189	7
2023-08-25T00:00	934	908	20.5	11.5	192	7
2023-08-25T00:00	959	906	20.3	11.7	195	7
2023-08-25T00:00	979	903	20.1	11.7	198	6
2023-08-25T00:00	1003	901	20.0	11.8	200	6
2023-08-25T00:00	1029	898	19.8	11.8	203	6
2023-08-25T00:00	1053	896	19.6	11.8	205	6
2023-08-25T00:00	1074	893	19.4	11.7	207	6
2023-08-25T00:00	1102	891	19.2	11.8	211	6
2023-08-25T00:00	1124	888	19.1	11.8	216	6
2023-08-25T00:00	1149	886	19.0	11.9	223	6
2023-08-25T00:00	1175	883	18.8	11.6	229	6
2023-08-25T00:00	1198	881	18.7	11.6	236	6
2023-08-25T00:00	1222	878	18.5	11.4	242	6
2023-08-25T00:00	1243	876	18.3	11.2	248	6
2023-08-25T00:00	1265	874	18.1	11.2	254	6
2023-08-25T00:00	1287	872	18.0	11.1	259	6
2023-08-25T00:00	1307	870	17.8	11.1	263	6
2023-08-25T00:00	1327	868	17.8	10.9	264	6
2023-08-25T00:00	1346	866	17.7	10.8	263	6
2023-08-25T00:00	1369	863	17.4	10.8	261	6
2023-08-25T00:00	1391	861	17.3	10.7	259	6
2023-08-25T00:00	1413	859	17.1	10.6	258	6
2023-08-25T00:00	1435	857	16.9	10.7	260	6
2023-08-25T00:00	1460	854	16.7	10.7	261	6
2023-08-25T00:00	1481	852	16.5	10.6	263	7
2023-08-25T00:00	1501	850	16.3	10.4	263	7
2023-08-25T00:00	1527	848	16.1	10.4	262	7
2023-08-25T00:00	1552	845	15.9	10.3	261	7
2023-08-25T00:00	1573	843	15.7	10.2	259	7
2023-08-25T00:00	1596	841	15.5	10.0	258	7
2023-08-25T00:00	1620	838	15.3	10.1	256	7
2023-08-25T00:00	1642	836	15.1	9.5	255	7
2023-08-25T00:00	1669	833	14.9	8.9	253	7
2023-08-25T00:00	1690	831	14.7	8.1	252	7
2023-08-25T00:00	1715	829	14.6	8.4	250	7
2023-08-25T00:00	1738	827	14.3	8.3	249	7
2023-08-25T00:00	1759	825	14.1	8.2	248	7
2023-08-25T00:00	1785	822	13.9	8.2	247	7
2023-08-25T00:00	1811	820	13.7	8.1	247	7
2023-08-25T00:00	1835	817	13.5	8.1	246	7
2023-08-25T00:00	1858	815	13.3	7.3	246	7
2023-08-25T00:00	1883	813	13.1	7.2	246	8
2023-08-25T00:00	1908	810	12.9	7.5	244	8
2023-08-25T00:00	1930	808	12.7	7.5	243	8
2023-08-25T00:00	1956	806	12.5	7.6	240	8
2023-08-25T00:00	1980	803	12.3	7.5	239	8
2023-08-25T00:00	2004	801	12.1	7.6	237	8
2023-08-25T00:00	2031	798	11.9	7.2	237	9
2023-08-25T00:00	2056	796	11.7	7.0	239	9
2023-08-25T00:00	2081	794	11.5	6.7	241	9
2023-08-25T00:00	2104	791	11.3	6.6	243	8
2023-08-25T00:00	2132	789	11.1	6.3	245	8
2023-08-25T00:00	2159	786	11.0	6.2	246	9
2023-08-25T00:00	2180	784	10.8	6.2	248	9
2023-08-25T00:00	2203	782	10.6	6.1	249	9
2023-08-25T00:00	2224	780	10.5	6.2	250	10
2023-08-25T00:00	2243	778	10.3	6.2	251	10
2023-08-25T00:00	2265	776	10.1	6.1	251	10
2023-08-25T00:00	2290	774	10.0	6.2	250	10
2023-08-25T00:00	2315	772	9.8	6.2	249	11
2023-08-25T00:00	2342	769	9.6	6.2	249	11
2023-08-25T00:00	2369	767	9.4	6.1	250	11
2023-08-25T00:00	2398	764	9.1		251	11
2023-08-25T00:00	2425	762	8.9	6.2	253	11
2023-08-25T00:00	2452	759	8.7	6.3	254	12
2023-08-25T00:00	2478	757	8.5	6.3	255	12
2023-08-25T00:00	2509	754	8.3	6.3	254	11
2023-08-25T00:00	2532	752	8.2	6.3	254	11
2023-08-25T00:00	2556	750	8.2	6.1	253	10
2023-08-25T00:00	2579	748	8.0	5.9	251	10
2023-08-25T00:00	2600	746	7.9	5.9	249	9
2023-08-25T00:00	2627	743	7.7	5.7	245	9
2023-08-25T00:00	2649	741	7.5	5.5	240	8
2023-08-25T00:00	2672	739	7.5	5.4	237	8
2023-08-25T00:00	2693	737	7.4	5.2	235	8
2023-08-25T00:00	2714	735	7.2	5.0	237	8
2023-08-25T00:00	2734	734	7.2	4.9	239	8
2023-08-25T00:00	2754	732	7.1	4.7	241	8
2023-08-25T00:00	2781	730	7.0	4.6	242	9
2023-08-25T00:00	2803	727	6.9	4.5	241	9
2023-08-25T00:00	2830	725	6.8	3.8	240	9
2023-08-25T00:00	2852	723	6.7	3.3	241	9
2023-08-25T00:00	2873	721	6.5	3.1	243	10
2023-08-25T00:00	2894	719	6.3	3.1	245	10
2023-08-25T00:00	2923	717	6.1	2.8	246	11
2023-08-25T00:00	2945	715	6.0	2.1	247	11
2023-08-25T00:00	2964	713	6.0	1.8	247	11
2023-08-25T00:00	2985	712	6.1	2.1	247	11
2023-08-25T00:00	3009	709	5.9	2.4	247	11
2023-08-25T00:00	3039	707	5.7	2.7	249	11
2023-08-25T00:00	3066	705	5.6	3.0	251	11
2023-08-25T00:00	3098	702	5.3	2.9	253	11
2023-08-25T00:00	3123	700	5.4	2.8	254	12
2023-08-25T00:00	3145	698	5.3	2.8	254	12
2023-08-25T00:00	3172	695	5.1	2.7	254	13
2023-08-25T00:00	3203	693	5.0	2.6	252	13
2023-08-25T00:00	3233	690	4.9	2.4	251	14
2023-08-25T00:00	3255	688	4.8	2.6	250	14
2023-08-25T00:00	3277	687	4.6	2.5	249	15
2023-08-25T00:00	3298	685	4.4	2.3	249	16
2023-08-25T00:00	3324	683	4.3	2.2	249	16
2023-08-25T00:00	3344	681	4.3	1.9	250	16
2023-08-25T00:00	3369	679	4.1	1.8	250	16
2023-08-25T00:00	3387	677	4.0	1.6	249	16
2023-08-25T00:00	3410	676	3.9	1.3	249	16
2023-08-25T00:00	3439	673	3.7	1.2	249	16
2023-08-25T00:00	3472	671	3.4	1.3	249	16
2023-08-25T00:00	3497	668	3.1	1.3	249	17
2023-08-25T00:00	3521	666	2.9	1.3	248	17
2023-08-25T00:00	3542	665	2.7	1.2	248	16
2023-08-25T00:00	3565	663	2.5	1.2	248	16
2023-08-25T00:00	3588	661	2.3	1.1	247	16
2023-08-25T00:00	3617	659	2.1	1.1	247	15
2023-08-25T00:00	3644	656	1.9	1.1	246	16
2023-08-25T00:00	3666	655	1.7	1.1	246	16
2023-08-25T00:00	3688	653	1.5	1.1	245	16
2023-08-25T00:00	3711	651	1.3	1.2	244	17
2023-08-25T00:00	3735	649	1.2	1.1	244	17
2023-08-25T00:00	3759	647	0.9	0.9	243	17
2023-08-25T00:00	3782	645	0.8	0.8	243	18
2023-08-25T00:00	3805	643	0.7	0.7	243	18
2023-08-25T00:00	3834	641	0.5	0.5	244	17
2023-08-25T00:00	3860	639	0.4	0.4	245	17
2023-08-25T00:00	3883	637	0.3	0.3	245	16
2023-08-25T00:00	3905	635	0.1	0.1	245	16
2023-08-25T00:00	3931	633	0.0	0.0	244	16
2023-08-25T00:00	3954	632	-0.1	-0.1	244	16
2023-08-25T00:00	3978	630	-0.3	-0.3	244	16
2023-08-25T00:00	4002	628	-0.4	-0.4	244	16
2023-08-25T00:00	4029	626	-0.5	-0.5	245	16
2023-08-25T00:00	4062	623	-0.7	-0.7	245	16
2023-08-25T00:00	4086	621	-0.8	-0.8	245	16
2023-08-25T00:00	4108	620	-0.9	-0.9	245	16
2023-08-25T00:00	4132	618	-1.0	-1.0	245	16
2023-08-25T00:00	4161	615	-1.1	-1.1	244	16
2023-08-25T00:00	4188	613	-1.3	-1.3	244	16
2023-08-25T00:00	4214	611	-1.4	-1.4	244	17
2023-08-25T00:00	4247	609	-1.6	-1.6	245	17
2023-08-25T00:00	4273	607	-1.8	-1.8	246	17
2023-08-25T00:00	4299	605	-2.0	-2.0	248	17
2023-08-25T00:00	4320	603	-2.1	-2.1	249	17
2023-08-25T00:00	4341	602	-2.4	-2.4	250	17
2023-08-25T00:00	4363	600	-2.5	-2.5	249	16
2023-08-25T00:00	4386	598	-2.7	-2.7	249	16
2023-08-25T00:00	4417	596	-2.8	-2.8	248	16
2023-08-25T00:00	4438	594	-2.9	-2.9	248	16
2023-08-25T00:00	4461	593	-3.0	-3.0	248	16
2023-08-25T00:00	4487	591	-2.8	-2.8	248	17
2023-08-25T00:00	4511	589	-3.0	-3.0	248	17
2023-08-25T00:00	4534	587	-3.1	-3.1	248	18
2023-08-25T00:00	4555	586	-3.3	-3.4	249	18
2023-08-25T00:00	4582	584	-3.4	-3.5	250	18
2023-08-25T00:00	4602	582	-3.5	-3.7	250	18
2023-08-25T00:00	4625	580	-3.6	-3.8	250	18
2023-08-25T00:00	4651	579	-3.7	-3.8	249	17
2023-08-25T00:00	4676	577	-3.8	-4.0	249	17
2023-08-25T00:00	4697	575	-3.9	-4.0	248	17
2023-08-25T00:00	4729	573	-4.1	-4.1	248	17
2023-08-25T00:00	4754	571	-4.2	-4.2	248	17
2023-08-25T00:00	4779	569	-4.4	-4.4	248	17
2023-08-25T00:00	4805	568	-4.6	-4.6	249	17
2023-08-25T00:00	4830	566	-4.7	-4.7	250	17
2023-08-25T00:00	4857	564	-4.9	-4.9	251	18
2023-08-25T00:00	4889	562	-5.0	-5.0	252	18
2023-08-25T00:00	4912	560	-5.1	-5.1	253	18
2023-08-25T00:00	4934	558	-5.2	-5.2	252	19
2023-08-25T00:00	4961	556	-5.4		251	19
2023-08-25T00:00	4987	555	-5.5	-5.5	249	19
2023-08-25T00:00	5013	553	-5.7	-5.8	248	19
2023-08-25T00:00	5036	551	-5.8	-5.9	246	19
2023-08-25T00:00	5064	549	-5.9	-5.9	245	18
2023-08-25T00:00	5094	547	-6.0	-6.1	245	18
2023-08-25T00:00	5124	545	-6.2	-6.4	245	17
2023-08-25T00:00	5151	543	-6.3	-6.4	246	17
2023-08-25T00:00	5174	541	-6.5	-6.6	247	16
2023-08-25T00:00	5197	540	-6.6	-6.7	247	16
2023-08-25T00:00	5220	538	-6.7	-6.9	247	16
2023-08-25T00:00	5242	537	-6.8	-6.9	246	16
2023-08-25T00:00	5266	535	-7.0	-7.2	245	16
2023-08-25T00:00	5288	534	-7.1	-7.3	245	16
2023-08-25T00:00	5314	532	-7.2	-7.4	244	15
2023-08-25T00:00	5336	530	-7.4	-7.6	244	15
2023-08-25T00:00	5360	529	-7.5	-7.7	245	15
2023-08-25T00:00	5387	527	-7.6	-7.9	245	15
2023-08-25T00:00	5417	525	-7.9	-8.1	245	15
2023-08-25T00:00	5442	523	-8.1	-8.3	245	15
2023-08-25T00:00	5466	522	-8.2	-8.4	245	15
2023-08-25T00:00	5491	520	-8.3	-8.5	244	15
2023-08-25T00:00	5520	518	-8.5	-8.7	243	15
2023-08-25T00:00	5546	516	-8.6	-8.9	242	15
2023-08-25T00:00	5572	514	-8.7	-9.0	242	16
2023-08-25T00:00	5605	512	-8.9	-9.2	241	16
2023-08-25T00:00	5633	510	-9.1	-9.4	241	16
2023-08-25T00:00	5656	509	-9.4	-9.7	242	17
2023-08-25T00:00	5675	508	-9.6	-10.0	242	17
2023-08-25T00:00	5698	506	-9.7	-10.1	242	17
2023-08-25T00:00	5720	505	-9.9	-10.3	242	17
2023-08-25T00:00	5739	503	-10.0	-10.5	241	17
2023-08-25T00:00	5760	502	-10.1	-10.5	241	17
2023-08-25T00:00	5781	501	-10.3	-10.6	241	16
2023-08-25T00:00	5807	499	-10.4	-10.7	242	16
2023-08-25T00:00	5827	498	-10.6		244	16
2023-08-25T00:00	5859	496	-10.7	-11.1	246	16
2023-08-25T00:00	5896	494	-10.9	-11.3	247	17
2023-08-25T00:00	5919	492	-11.0	-11.4	248	17
2023-08-25T00:00	5939	491	-11.2	-11.6	248	17
2023-08-25T00:00	5963	489	-11.2	-11.6	248	17
2023-08-25T00:00	5986	488	-11.4	-11.8	247	17
2023-08-25T00:00	6010	486	-11.6	-12.0	247	17
2023-08-25T00:00	6035	484	-11.7	-12.2	247	17
2023-08-25T00:00	6058	483	-11.8	-12.3	247	17
2023-08-25T00:00	6084	481	-12.0	-12.5	246	17
2023-08-25T00:00	6109	480	-12.1	-12.6	246	16
2023-08-25T00:00	6141	478	-12.3	-12.9	247	16
2023-08-25T00:00	6171	476	-12.4	-13.0	248	16
2023-08-25T00:00	6199	474	-12.6	-13.2	250	16
2023-08-25T00:00	6224	473	-12.8	-13.4	252	17
2023-08-25T00:00	6251	471	-12.9	-13.5	254	17
2023-08-25T00:00	6276	469	-13.1	-13.7	254	17
2023-08-25T00:00	6302	468	-13.2	-13.9	252	18
2023-08-25T00:00	6328	466	-13.3	-14.0	251	18
2023-08-25T00:00	6355	465	-13.4	-14.1	250	18
2023-08-25T00:00	6382	463	-13.6	-14.3	249	18
2023-08-25T00:00	6404	462	-13.7	-14.5	250	17
2023-08-25T00:00	6428	460	-13.9	-14.7	250	17
2023-08-25T00:00	6448	459	-14.0	-14.8	251	17
2023-08-25T00:00	6473	458	-14.1	-15.0	251	18
2023-08-25T00:00	6493	456	-14.2	-15.1	251	18
2023-08-25T00:00	6521	455	-14.4	-15.3	251	19
2023-08-25T00:00	6549	453	-14.5	-15.4	250	19
2023-08-25T00:00	6576	451	-14.7	-15.5	251	20
2023-08-25T00:00	6612	449	-15.1	-15.8	252	20
2023-08-25T00:00	6636	448	-15.3	-15.9	253	21
2023-08-25T00:00	6656	446	-15.3	-16.0	255	21
2023-08-25T00:00	6687	445	-15.4	-16.3	255	22
2023-08-25T00:00	6706	444	-15.5	-16.4	255	23
2023-08-25T00:00	6726	442	-15.8	-16.6	255	24
2023-08-25T00:00	6754	441	-16.1	-16.8	255	24
2023-08-25T00:00	6787	439	-16.4	-17.0	256	24
2023-08-25T00:00	6813	437	-16.6	-17.3	256	24
2023-08-25T00:00	6829	436	-16.8	-17.4	257	24
2023-08-25T00:00	6852	435	-16.9	-17.3	257	24
2023-08-25T00:00	6870	434	-17.1	-17.4	257	24
2023-08-25T00:00	6890	433	-17.1	-17.5	257	24
2023-08-25T00:00	6908	432	-17.2	-17.5	257	24
2023-08-25T00:00	6927	431	-17.2	-18.2	257	24
2023-08-25T00:00	6943	430	-17.2	-18.3	257	23
2023-08-25T00:00	6961	429	-17.2		256	23
2023-08-25T00:00	6978	428	-17.3	-18.2	256	23
2023-08-25T00:00	6994	427	-17.5	-18.4	256	23
2023-08-25T00:00	7012	426	-17.6	-18.6	257	23
2023-08-25T00:00	7027	425	-17.7	-18.8	257	23
2023-08-25T00:00	7045	424	-17.8	-18.9	257	23
2023-08-25T00:00	7060	423	-17.9	-19.2	257	23
2023-08-25T00:00	7074	422	-18.0	-19.3	257	23
2023-08-25T00:00	7087	422	-18.0	-19.2	257	23
2023-08-25T00:00	7103	421	-18.1	-19.3	257	23
2023-08-25T00:00	7118	420	-18.2	-19.4	257	23
2023-08-25T00:00	7130	419	-18.3	-19.5	257	23
2023-08-25T00:00	7144	418	-18.4	-19.6	257	23
2023-08-25T00:00	7159	418	-18.4	-19.5	258	22
2023-08-25T00:00	7176	417	-18.6	-19.9	258	22
2023-08-25T00:00	7191	416	-18.7	-20.1	259	22
2023-08-25T00:00	7205	415	-18.8	-20.5	259	22
2023-08-25T00:00	7220	414	-18.9	-20.7	259	21
2023-08-25T00:00	7235	413	-19.0	-20.9	259	21
2023-08-25T00:00	7252	412	-19.1	-21.2	259	21
2023-08-25T00:00	7269	412	-19.2	-21.4	259	21
2023-08-25T00:00	7284	411	-19.3	-21.6	259	21
2023-08-25T00:00	7300	410	-19.5	-21.8	259	20
2023-08-25T00:00	7318	409	-19.6	-21.8	259	20
2023-08-25T00:00	7335	408	-19.7	-21.9	260	20
2023-08-25T00:00	7353	407	-19.8	-22.2	260	20
2023-08-25T00:00	7370	406	-20.0	-22.5	260	20
2023-08-25T00:00	7392	405	-20.1	-22.6	261	19
2023-08-25T00:00	7412	404	-20.3	-22.7	261	19
2023-08-25T00:00	7432	403	-20.4	-22.7	262	19
2023-08-25T00:00	7451	401	-20.6	-22.9	263	19
2023-08-25T00:00	7473	400	-20.7	-23.0	264	19
2023-08-25T00:00	7491	399	-20.8	-23.3	265	18
2023-08-25T00:00	7512	398	-20.9	-23.8	266	18
2023-08-25T00:00	7537	397	-21.1	-24.2	267	18
2023-08-25T00:00	7569	395	-21.3	-24.5	267	17
2023-08-25T00:00	7600	394	-21.6	-24.7	267	17
2023-08-25T00:00	7619	393	-21.7	-24.6	266	17
2023-08-25T00:00	7638	391	-21.9		266	17
2023-08-25T00:00	7657	390	-22.1	-24.7	266	17
2023-08-25T00:00	7677	389	-22.2	-25.0	266	17
2023-08-25T00:00	7696	388	-22.3	-25.3	267	17
2023-08-25T00:00	7716	387	-22.4	-25.4	267	17
2023-08-25T00:00	7738	386	-22.6	-25.7	268	17
2023-08-25T00:00	7755	385	-22.7	-25.8	269	17
2023-08-25T00:00	7774	384	-22.9	-26.0	269	17
2023-08-25T00:00	7794	383	-23.0	-26.1	269	17
2023-08-25T00:00	7815	382	-23.2	-26.3	269	18
2023-08-25T00:00	7838	381	-23.3	-26.5	270	18
2023-08-25T00:00	7857	380	-23.4	-26.8	270	18
2023-08-25T00:00	7877	379	-23.6	-27.2	270	18
2023-08-25T00:00	7897	378	-23.8	-27.2	271	19
2023-08-25T00:00	7916	377	-23.9	-27.2	271	19
2023-08-25T00:00	7937	376	-24.1	-27.4	272	19
2023-08-25T00:00	7957	375	-24.2	-27.6	272	18
2023-08-25T00:00	7975	374	-24.4	-27.8	273	19
2023-08-25T00:00	7994	373	-24.5	-27.9	273	19
2023-08-25T00:00	8014	372	-24.7	-28.2	273	19
2023-08-25T00:00	8033	371	-24.9	-28.1	273	19
2023-08-25T00:00	8052	370	-25.1	-28.5	273	19
2023-08-25T00:00	8072	369	-25.2	-28.6	273	19
2023-08-25T00:00	8090	368	-25.3	-28.7	273	19
2023-08-25T00:00	8108	367	-25.5	-28.6	273	19
2023-08-25T00:00	8127	366	-25.6	-28.9	273	19
2023-08-25T00:00	8145	365	-25.8	-29.0	273	19
2023-08-25T00:00	8164	364	-25.9	-28.9	273	19
2023-08-25T00:00	8180	363	-26.1	-29.0	273	19
2023-08-25T00:00	8199	363	-26.2	-28.9	273	19
2023-08-25T00:00	8219	362	-26.3	-29.2	272	19
2023-08-25T00:00	8236	361	-26.5	-29.3	272	19
2023-08-25T00:00	8254	360	-26.6	-29.4	272	19
2023-08-25T00:00	8271	359	-26.8	-29.6	272	19
2023-08-25T00:00	8288	358	-26.9	-29.7	272	19
2023-08-25T00:00	8307	357	-27.0	-29.9	272	19
2023-08-25T00:00	8323	356	-27.2	-30.1	272	19
2023-08-25T00:00	8343	355	-27.3	-30.2	272	19
2023-08-25T00:00	8359	355	-27.4	-30.2	272	19
2023-08-25T00:00	8377	354	-27.6	-30.6	271	19
2023-08-25T00:00	8392	353	-27.6	-30.8	270	20
2023-08-25T00:00	8411	352	-27.8	-31.3	269	20
2023-08-25T00:00	8428	351	-27.9	-31.5	268	20
2023-08-25T00:00	8450	350	-28.0	-31.8	268	21
2023-08-25T00:00	8469	349	-28.2	-32.3	268	21
2023-08-25T00:00	8487	348	-28.3		268	21
2023-08-25T00:00	8506	347	-28.4	-32.4	268	21
2023-08-25T00:00	8524	347	-28.6	-32.4	269	21
2023-08-25T00:00	8540	346	-28.7	-32.6	269	21
2023-08-25T00:00	8559	345	-28.8	-32.6	269	21
2023-08-25T00:00	8576	344	-29.0	-32.7	269	22
2023-08-25T00:00	8594	343	-29.2	-32.6	268	22
2023-08-25T00:00	8611	342	-29.3	-32.7	268	22
2023-08-25T00:00	8628	341	-29.4	-32.8	268	22
2023-08-25T00:00	8646	341	-29.5	-32.8	268	22
2023-08-25T00:00	8670	340	-29.7	-33.0	268	23
2023-08-25T00:00	8690	339	-29.9	-33.3	269	23
2023-08-25T00:00	8713	337	-30.0	-33.3	269	23
2023-08-25T00:00	8734	337	-30.1	-33.4	269	23
2023-08-25T00:00	8752	336	-30.3	-33.6	269	23
2023-08-25T00:00	8769	335	-30.5		269	23
2023-08-25T00:00	8785	334	-30.6	-33.8	269	23
2023-08-25T00:00	8803	333	-30.7	-34.1	270	23
2023-08-25T00:00	8820	332	-30.9	-34.7	270	23
2023-08-25T00:00	8839	332	-31.1	-35.4	271	23
2023-08-25T00:00	8854	331	-31.3	-35.7	271	23
2023-08-25T00:00	8872	330	-31.4	-36.0	271	23
2023-08-25T00:00	8893	329	-31.5	-36.8	272	23
2023-08-25T00:00	8910	328	-31.7	-37.0	272	23
2023-08-25T00:00	8926	327	-31.8	-37.0	272	23
2023-08-25T00:00	8946	327	-31.9	-37.0	272	24
2023-08-25T00:00	8966	326	-32.1	-37.1	272	24
2023-08-25T00:00	8987	325	-32.3	-37.2	272	24
2023-08-25T00:00	9009	324	-32.4	-37.2	271	24
2023-08-25T00:00	9030	323	-32.6	-37.3	271	24
2023-08-25T00:00	9057	322	-32.8	-37.4	271	24
2023-08-25T00:00	9079	320	-33.0	-37.5	271	24
2023-08-25T00:00	9101	319	-33.2	-37.6	271	24
2023-08-25T00:00	9128	318	-33.5	-37.7	271	24
2023-08-25T00:00	9152	317	-33.6	-37.6	270	25
2023-08-25T00:00	9180	316	-33.8	-37.6	270	25
2023-08-25T00:00	9211	315	-34.1	-37.9	270	26
2023-08-25T00:00	9236	313	-34.3	-37.9	270	26
2023-08-25T00:00	9258	312	-34.5	-38.0	270	27
2023-08-25T00:00	9290	311	-34.8	-38.1	269	27
2023-08-25T00:00	9318	310	-34.9	-38.4	269	28
2023-08-25T00:00	9333	309	-35.1	-38.7	268	28
2023-08-25T00:00	9359	308	-35.3	-39.0	268	29
2023-08-25T00:00	9384	307	-35.5	-39.2	268	29
2023-08-25T00:00	9405	306	-35.7	-39.2	268	29
2023-08-25T00:00	9428	305	-35.8	-39.4	269	29
2023-08-25T00:00	9457	304	-36.1	-40.0	269	29
2023-08-25T00:00	9487	302	-36.3	-39.8	269	29
2023-08-25T00:00	9513	301	-36.5	-39.8	269	30
2023-08-25T00:00	9546	300	-36.9	-39.9	269	30
2023-08-25T00:00	9559	299	-37.0	-40.2	268	31
2023-08-25T00:00	9572	299	-37.2	-40.5	267	31
2023-08-25T00:00	9587	298	-37.2	-40.8	267	31
2023-08-25T00:00	9603	297	-37.4	-40.9	267	31
2023-08-25T00:00	9623	296	-37.5	-40.8	267	31
2023-08-25T00:00	9637	296	-37.6	-40.9	267	32
2023-08-25T00:00	9651	295	-37.8	-41.2	267	32
2023-08-25T00:00	9666	295	-37.9	-41.6	267	32
2023-08-25T00:00	9680	294	-38.0	-41.6	267	32
2023-08-25T00:00	9695	293	-38.1	-41.7	267	32
2023-08-25T00:00	9713	293	-38.3	-41.9	267	32
2023-08-25T00:00	9729	292	-38.4	-41.9	267	32
2023-08-25T00:00	9743	291	-38.5	-41.8	267	32
2023-08-25T00:00	9756	291	-38.7	-41.9	267	32
2023-08-25T00:00	9771	290	-38.8	-42.2	266	32
2023-08-25T00:00	9789	289	-38.9	-42.3	266	32
2023-08-25T00:00	9806	289	-39.1	-42.3	265	32
2023-08-25T00:00	9823	288	-39.2	-42.2	265	32
2023-08-25T00:00	9842	287	-39.4	-42.3	265	32
2023-08-25T00:00	9859	286	-39.5	-42.4	265	32
2023-08-25T00:00	9875	286	-39.6	-42.4	264	32
2023-08-25T00:00	9893	285	-39.8	-42.6	265	32
2023-08-25T00:00	9910	284	-39.9	-42.6	265	33
2023-08-25T00:00	9929	284	-40.0	-42.6	265	33
2023-08-25T00:00	9943	283	-40.2	-42.8	265	33
2023-08-25T00:00	9961	282	-40.3	-42.9	265	33
2023-08-25T00:00	9978	281	-40.5	-43.1	265	33
2023-08-25T00:00	9994	281	-40.6	-43.2	265	33
2023-08-25T00:00	10010	280	-40.7	-43.3	265	34
2023-08-25T00:00	10025	279	-40.9	-43.3	265	34
2023-08-25T00:00	10044	279	-41.0	-43.3	265	34
2023-08-25T00:00	10062	278	-41.1	-43.7	265	34
2023-08-25T00:00	10078	277	-41.2	-43.8	265	34
2023-08-25T00:00	10096	277	-41.4	-44.1	265	34
2023-08-25T00:00	10111	276	-41.5	-44.4	265	34
2023-08-25T00:00	10130	275	-41.7	-44.7	265	34
2023-08-25T00:00	10147	275	-41.8	-44.8	266	34
2023-08-25T00:00	10164	274	-42.0	-45.1	266	34
2023-08-25T00:00	10180	273	-42.1	-45.5	266	34
2023-08-25T00:00	10197	272	-42.2	-45.7	265	35
2023-08-25T00:00	10216	272	-42.4	-45.8	265	35
2023-08-25T00:00	10234	271	-42.5	-45.8	264	35
2023-08-25T00:00	10256	270	-42.7	-45.9	263	35
2023-08-25T00:00	10273	269	-42.8	-46.8	262	35
2023-08-25T00:00	10293	269	-42.8	-47.7	262	36
2023-08-25T00:00	10309	268	-43.0		262	36
2023-08-25T00:00	10326	267	-43.0	-48.6	262	36
2023-08-25T00:00	10346	267	-43.2	-48.8	262	37
2023-08-25T00:00	10363	266	-43.3	-49.1	261	37
2023-08-25T00:00	10380	265	-43.4	-49.1	261	37
2023-08-25T00:00	10398	265	-43.6	-49.4	261	37
2023-08-25T00:00	10415	264	-43.7	-49.4	261	37
2023-08-25T00:00	10432	263	-43.9	-49.6	261	37
2023-08-25T00:00	10449	262	-44.0	-49.6	261	37
2023-08-25T00:00	10467	262	-44.2	-49.8	262	37
2023-08-25T00:00	10481	261	-44.3	-49.8	262	37
2023-08-25T00:00	10499	261	-44.5	-50.0	262	38
2023-08-25T00:00	10516	260	-44.6	-50.0	263	38
2023-08-25T00:00	10535	259	-44.8	-50.3	263	37
2023-08-25T00:00	10554	258	-44.9	-50.6	263	37
2023-08-25T00:00	10571	258	-45.1	-50.7	263	37
2023-08-25T00:00	10588	257	-45.2	-50.6	263	37
2023-08-25T00:00	10606	256	-45.4	-50.7	264	37
2023-08-25T00:00	10622	256	-45.5	-50.8	264	37
2023-08-25T00:00	10636	255	-45.7	-50.8	264	37
2023-08-25T00:00	10653	255	-45.8	-50.8	264	37
2023-08-25T00:00	10672	254	-46.0	-51.1	263	37
2023-08-25T00:00	10688	253	-46.2	-51.2	263	37
2023-08-25T00:00	10706	253	-46.3	-51.3	263	37
2023-08-25T00:00	10722	252	-46.4	-51.5	263	37
2023-08-25T00:00	10741	251	-46.6	-52.0	263	37
2023-08-25T00:00	10759	251	-46.7	-52.6	263	37
2023-08-25T00:00	10777	250	-46.8	-52.7	263	37
2023-08-25T00:00	10795	249	-47.0	-52.7	263	37
2023-08-25T00:00	10815	248	-47.1	-52.7	263	37
2023-08-25T00:00	10836	248	-47.3	-52.7	263	37
2023-08-25T00:00	10856	247	-47.5	-52.8	263	37
2023-08-25T00:00	10876	246	-47.7	-52.9	263	37
2023-08-25T00:00	10894	246	-47.9	-52.8	263	37
2023-08-25T00:00	10911	245	-48.0	-52.7	263	37
2023-08-25T00:00	10926	244	-48.2	-52.9	263	37
2023-08-25T00:00	10945	244	-48.3	-52.9	264	37
2023-08-25T00:00	10959	243	-48.5	-53.1	264	37
2023-08-25T00:00	10979	242	-48.7	-53.3	264	37
2023-08-25T00:00	10994	242	-48.8	-53.4	264	37
2023-08-25T00:00	11010	241	-49.0	-53.5	264	37
2023-08-25T00:00	11027	241	-49.1	-53.5	264	37
2023-08-25T00:00	11044	240	-49.3	-53.7	264	37
2023-08-25T00:00	11062	239	-49.4	-53.6	264	37
2023-08-25T00:00	11080	239	-49.5	-53.4	264	38
2023-08-25T00:00	11096	238	-49.7	-53.1	264	38
2023-08-25T00:00	11111	238	-49.8	-53.0	264	38
2023-08-25T00:00	11128	237	-49.9	-54.0	264	38
2023-08-25T00:00	11146	236	-50.1	-55.0	264	38
2023-08-25T00:00	11166	236	-50.2	-55.1	265	38
2023-08-25T00:00	11183	235	-50.3	-55.2	265	39
2023-08-25T00:00	11201	234	-50.5	-55.3	265	39
2023-08-25T00:00	11221	234	-50.6	-55.4	265	39
2023-08-25T00:00	11239	233	-50.8	-55.5	265	39
2023-08-25T00:00	11257	232	-50.9	-55.6	265	39
2023-08-25T00:00	11273	232	-51.1	-55.7	265	39
2023-08-25T00:00	11291	231	-51.2	-55.8	266	39
2023-08-25T00:00	11308	230	-51.4	-56.1	266	39
2023-08-25T00:00	11324	230	-51.5	-56.3	266	39
2023-08-25T00:00	11342	229	-51.7	-56.5	266	39
2023-08-25T00:00	11358	229	-51.8	-56.4	266	39
2023-08-25T00:00	11375	228	-51.9	-56.4	267	40
2023-08-25T00:00	11396	227	-52.1	-56.4	267	40
2023-08-25T00:00	11413	227	-52.2	-56.3	267	40
2023-08-25T00:00	11432	226	-52.4	-56.8	267	40
2023-08-25T00:00	11451	225	-52.5	-57.7	267	40
2023-08-25T00:00	11471	225	-52.7	-58.2	266	41
2023-08-25T00:00	11494	224	-52.9	-58.2	266	41
2023-08-25T00:00	11529	223	-53.0	-58.0	265	42
2023-08-25T00:00	11551	222	-53.1	-58.0	265	43
2023-08-25T00:00	11575	221	-53.2	-58.1	265	43
2023-08-25T00:00	11599	220	-53.3	-58.1	265	43
2023-08-25T00:00	11624	220	-53.5	-58.2	265	44
2023-08-25T00:00	11640	219	-53.7	-58.3	265	44
2023-08-25T00:00	11659	218	-53.8	-58.5	265	45
2023-08-25T00:00	11681	217	-53.8	-58.5	265	45
2023-08-25T00:00	11715	216	-53.9	-58.4	265	46
2023-08-25T00:00	11741	216	-53.9	-58.2	265	46
2023-08-25T00:00	11767	215	-54.1	-58.2	264	47
2023-08-25T00:00	11786	214	-54.3	-58.3	264	47
2023-08-25T00:00	11810	213	-54.5	-58.5	263	47
2023-08-25T00:00	11829	213	-54.7	-58.7	263	48
2023-08-25T00:00	11846	212	-54.8	-58.8	263	48
2023-08-25T00:00	11866	211	-55.0	-59.0	263	48
2023-08-25T00:00	11884	211	-55.1	-58.9	263	48
2023-08-25T00:00	11903	210	-55.2	-58.8	263	48
2023-08-25T00:00	11922	210	-55.3	-58.9	263	48
2023-08-25T00:00	11940	209	-55.4	-59.2	263	48
2023-08-25T00:00	11958	208	-55.6	-59.6	264	49
2023-08-25T00:00	11977	208	-55.7	-59.9	264	49
2023-08-25T00:00	11995	207	-55.9	-60.3	264	49
2023-08-25T00:00	12015	206	-56.1	-60.5	264	49
2023-08-25T00:00	12034	206	-56.2	-60.5	265	49
2023-08-25T00:00	12053	205	-56.4	-60.5	265	49
2023-08-25T00:00	12070	205	-56.6	-60.5	265	48
2023-08-25T00:00	12089	204	-56.8	-60.7	265	48
2023-08-25T00:00	12108	203	-56.9	-60.7	265	48
2023-08-25T00:00	12124	203	-57.0	-60.8	265	47
2023-08-25T00:00	12143	202	-57.1	-60.8	265	47
2023-08-25T00:00	12162	202	-57.3	-61.0	265	46
2023-08-25T00:00	12184	201	-57.4	-61.2	265	46
2023-08-25T00:00	12205	200	-57.5	-61.4	265	45
2023-08-25T00:00	12222	200	-57.6	-61.6	265	45
2023-08-25T00:00	12240	199	-57.7	-61.7	265	45
2023-08-25T00:00	12258	199	-57.8	-61.5	265	45
2023-08-25T00:00	12277	198	-58.0	-61.4	265	45
2023-08-25T00:00	12301	197	-58.2	-61.5	266	45
2023-08-25T00:00	12322	197	-58.3	-61.5	266	44
2023-08-25T00:00	12342	196	-58.5	-61.7	266	44
2023-08-25T00:00	12360	195	-58.6	-61.8	267	44
2023-08-25T00:00	12381	195	-58.8	-62.0	267	44
2023-08-25T00:00	12402	194	-58.9	-62.1	267	44
2023-08-25T00:00	12423	193	-59.0	-62.2	267	44
2023-08-25T00:00	12443	193	-59.2	-62.5	266	44
2023-08-25T00:00	12464	192	-59.4	-62.7	266	44
2023-08-25T00:00	12485	192	-59.5	-62.8	266	44
2023-08-25T00:00	12505	191	-59.7	-63.0	266	44
2023-08-25T00:00	12526	190	-59.9	-63.2	266	43
2023-08-25T00:00	12546	190	-60.1	-63.5	266	43
2023-08-25T00:00	12567	189	-60.1	-63.6	266	43
2023-08-25T00:00	12587	188	-60.2	-63.8	267	42
2023-08-25T00:00	12608	188	-60.3	-64.0	267	42
2023-08-25T00:00	12631	187	-60.4	-64.2	268	42
2023-08-25T00:00	12651	187	-60.5	-64.4	268	41
2023-08-25T00:00	12676	186	-60.6	-64.6	268	41
2023-08-25T00:00	12700	185	-60.8	-64.9	269	41
2023-08-25T00:00	12724	184	-61.0	-65.2	269	41
2023-08-25T00:00	12743	184	-61.0	-65.3	269	40
2023-08-25T00:00	12767	183	-61.2	-65.5	270	40
2023-08-25T00:00	12787	183	-61.4	-65.7	270	39
2023-08-25T00:00	12809	182	-61.5	-65.9	271	39
2023-08-25T00:00	12829	181	-61.6	-66.1	271	38
2023-08-25T00:00	12847	181	-61.7	-66.3	271	38
2023-08-25T00:00	12869	180	-61.8	-66.6	271	37
2023-08-25T00:00	12899	179	-62.0	-67.1	272	36
2023-08-25T00:00	12933	178	-61.9	-67.3	273	34
2023-08-25T00:00	12955	178	-62.0	-67.8	274	33
2023-08-25T00:00	12988	177	-62.0	-68.3	275	32
2023-08-25T00:00	13008	176	-62.0	-68.9	276	31
2023-08-25T00:00	13030	176	-62.0	-69.6	276	30
2023-08-25T00:00	13052	175	-61.2	-69.6	276	29
2023-08-25T00:00	13067	174	-60.9	-69.8	276	28
2023-08-25T00:00	13089	174	-60.8	-69.9	276	27
2023-08-25T00:00	13109	173	-60.8	-69.7	276	27
2023-08-25T00:00	13126	173	-60.8	-69.4	275	26
2023-08-25T00:00	13144	172	-60.9	-69.3	275	26
2023-08-25T00:00	13163	172	-61.0	-69.3	275	26
2023-08-25T00:00	13179	171	-61.1	-69.4	275	26
2023-08-25T00:00	13199	171	-61.2	-69.6	274	25
2023-08-25T00:00	13217	170	-61.3	-69.9	273	25
2023-08-25T00:00	13232	170	-61.4	-70.2	273	25
2023-08-25T00:00	13251	169	-61.5	-70.5	272	24
2023-08-25T00:00	13269	169	-61.6	-70.8	271	24
2023-08-25T00:00	13289	168	-61.7	-70.9	271	24
2023-08-25T00:00	13307	168	-61.8	-71.0	270	24
2023-08-25T00:00	13326	167	-61.9	-71.1	270	24
2023-08-25T00:00	13343	167	-62.0	-71.2	269	24
2023-08-25T00:00	13360	166	-62.1	-71.3	269	24
2023-08-25T00:00	13377	166	-62.3	-71.6	269	24
2023-08-25T00:00	13397	165	-62.4	-71.7	268	25
2023-08-25T00:00	13412	165	-62.5	-71.9	268	25
2023-08-25T00:00	13427	165	-62.5	-71.9	267	26
2023-08-25T00:00	13445	164	-62.6	-72.0	267	26
2023-08-25T00:00	13460	164	-62.6		267	27
2023-08-25T00:00	13475	163	-62.4	-71.8	266	27
2023-08-25T00:00	13493	163	-62.3	-71.7	266	27
2023-08-25T00:00	13510	162	-62.3	-71.8	265	27
2023-08-25T00:00	13527	162	-62.3	-71.8	265	27
2023-08-25T00:00	13543	162	-62.4	-72.1	264	27
2023-08-25T00:00	13558	161	-62.5	-72.4	264	26
2023-08-25T00:00	13577	161	-62.5	-72.6	263	26
2023-08-25T00:00	13592	160	-62.5	-72.9	263	26
2023-08-25T00:00	13610	160	-62.1	-72.8	263	26
2023-08-25T00:00	13627	159	-61.9	-72.7	263	26
2023-08-25T00:00	13644	159	-61.7	-72.6	262	26
2023-08-25T00:00	13661	158	-61.5	-72.5	261	26
2023-08-25T00:00	13680	158	-61.4	-72.4	261	26
2023-08-25T00:00	13697	158	-61.5	-72.6	260	26
2023-08-25T00:00	13713	157	-61.6	-72.7	259	27
2023-08-25T00:00	13731	157	-61.7	-72.9	259	27
2023-08-25T00:00	13750	156	-61.7	-73.0	259	27
2023-08-25T00:00	13767	156	-61.7	-73.2	260	27
2023-08-25T00:00	13785	155	-61.8	-73.4	261	28
2023-08-25T00:00	13805	155	-61.8	-73.7	262	28
2023-08-25T00:00	13825	154	-61.8	-73.9	263	28
2023-08-25T00:00	13841	154	-61.8	-74.1	264	28
2023-08-25T00:00	13861	153	-61.8	-74.2	265	29
2023-08-25T00:00	13880	153	-61.7	-74.2	265	29
2023-08-25T00:00	13898	153	-61.7	-74.2	266	29
2023-08-25T00:00	13919	152	-61.8	-74.4	267	28
2023-08-25T00:00	13938	152	-61.9	-74.7	267	28
2023-08-25T00:00	13958	151	-61.8	-74.8	268	28
2023-08-25T00:00	13978	151	-61.5	-74.9	268	27
2023-08-25T00:00	13996	150	-60.9	-74.8	269	27
2023-08-25T00:00	14017	150	-60.9	-75.0	270	26
2023-08-25T00:00	14033	149	-60.9	-75.2	271	26
2023-08-25T00:00	14053	149	-60.9	-75.3	272	25
2023-08-25T00:00	14071	148	-60.8	-75.2	273	25
2023-08-25T00:00	14088	148	-60.6	-74.9	273	25
2023-08-25T00:00	14107	147	-60.5	-74.6	274	25
2023-08-25T00:00	14125	147	-60.2	-74.2	274	25
2023-08-25T00:00	14144	147	-60.2	-74.1	275	25
2023-08-25T00:00	14161	146	-60.4	-74.3	275	26
2023-08-25T00:00	14180	146	-60.5	-74.4	275	26
2023-08-25T00:00	14200	145	-60.7	-74.5	276	26
2023-08-25T00:00	14220	145	-60.9	-74.6	276	26
2023-08-25T00:00	14237	144	-61.0	-74.7	277	26
2023-08-25T00:00	14254	144	-61.2		278	26
2023-08-25T00:00	14275	144	-61.3	-75.4	279	27
2023-08-25T00:00	14292	143	-61.5	-75.9	280	27
2023-08-25T00:00	14314	143	-61.6	-76.2	281	27
2023-08-25T00:00	14333	142	-61.5	-76.0	282	27
2023-08-25T00:00	14351	142	-61.3	-75.6	282	27
2023-08-25T00:00	14369	141	-61.3	-75.3	282	27
2023-08-25T00:00	14388	141	-61.3	-75.1	282	27
2023-08-25T00:00	14407	141	-61.4	-75.1	282	27
2023-08-25T00:00	14427	140	-61.5	-75.3	282	26
2023-08-25T00:00	14446	140	-61.3	-75.2	282	26
2023-08-25T00:00	14470	139	-61.2	-75.2	282	25
2023-08-25T00:00	14485	139	-61.2	-75.2	282	25
2023-08-25T00:00	14505	138	-61.3	-75.3	283	25
2023-08-25T00:00	14525	138	-60.9	-74.9	284	25
2023-08-25T00:00	14546	137	-60.5	-74.6	285	25
2023-08-25T00:00	14565	137	-60.0	-74.3	285	25
2023-08-25T00:00	14584	137	-59.5	-74.0	286	25
2023-08-25T00:00	14604	136	-59.2	-74.0	286	25
2023-08-25T00:00	14622	136	-58.9	-73.9	286	24
2023-08-25T00:00	14640	135	-58.7	-73.9	286	24
2023-08-25T00:00	14658	135	-58.1	-73.4	285	23
2023-08-25T00:00	14675	135	-57.5	-72.8	285	23
2023-08-25T00:00	14695	134	-57.4	-72.6	283	22
2023-08-25T00:00	14712	134	-57.4	-72.5	282	22
2023-08-25T00:00	14728	134	-57.5	-72.6	280	22
2023-08-25T00:00	14746	133	-57.6	-72.6	278	22
2023-08-25T00:00	14764	133	-57.7	-72.8	277	23
2023-08-25T00:00	14782	132	-57.7	-72.8	275	23
2023-08-25T00:00	14800	132	-57.6	-72.9	274	24
2023-08-25T00:00	14816	132	-57.6	-73.2	274	24
2023-08-25T00:00	14833	131	-57.6	-73.3	275	25
2023-08-25T00:00	14852	131	-57.4	-73.2	276	25
2023-08-25T00:00	14870	131	-57.1	-72.9	277	25
2023-08-25T00:00	14887	130	-56.8	-72.5	279	25
2023-08-25T00:00	14907	130	-56.4	-72.2	280	25
2023-08-25T00:00	14924	129	-56.4	-72.4	281	25
2023-08-25T00:00	14943	129	-56.5	-73.1	282	24
2023-08-25T00:00	14959	129	-56.4	-73.9	283	24
2023-08-25T00:00	14978	128	-56.4	-74.6	283	23
2023-08-25T00:00	14995	128	-56.2	-74.5	283	22
2023-08-25T00:00	15013	128	-55.9	-73.6	282	21
2023-08-25T00:00	15032	127	-55.5	-72.8	281	21
2023-08-25T00:00	15050	127	-55.5	-72.5	280	21
2023-08-25T00:00	15069	127	-55.5	-72.3	279	21
2023-08-25T00:00	15089	126	-55.5		279	20
2023-08-25T00:00	15105	126	-55.5	-71.9	278	20
2023-08-25T00:00	15125	125	-55.6	-71.6	278	20
2023-08-25T00:00	15143	125	-55.6	-71.3	279	20
2023-08-25T00:00	15161	125	-55.7	-71.2	279	20
2023-08-25T00:00	15184	124	-55.8	-71.4	280	20
2023-08-25T00:00	15203	124	-55.8	-71.5	280	20
2023-08-25T00:00	15223	123	-55.7	-71.5	281	19
2023-08-25T00:00	15242	123	-55.7	-71.4	280	19
2023-08-25T00:00	15261	123	-55.7	-71.3	280	19
2023-08-25T00:00	15281	122	-55.7	-71.3	279	19
2023-08-25T00:00	15303	122	-55.6	-71.3	278	19
2023-08-25T00:00	15323	122	-55.6	-71.4	276	19
2023-08-25T00:00	15344	121	-55.7	-71.4	275	20
2023-08-25T00:00	15362	121	-55.8	-71.4	274	20
2023-08-25T00:00	15381	120	-55.9	-71.4	274	20
2023-08-25T00:00	15401	120	-56.0	-71.4	274	20
2023-08-25T00:00	15422	120	-56.1	-71.5	275	21
2023-08-25T00:00	15440	119	-56.1	-71.5	276	20
2023-08-25T00:00	15464	119	-56.2	-71.5	276	20
2023-08-25T00:00	15484	119	-56.3	-71.7	277	20
2023-08-25T00:00	15507	118	-56.3	-71.7	277	19
2023-08-25T00:00	15527	118	-56.1	-71.6	277	19
2023-08-25T00:00	15550	117	-55.9	-71.5	277	18
2023-08-25T00:00	15569	117	-55.9	-71.5	276	18
2023-08-25T00:00	15591	117	-56.1	-71.6	274	17
2023-08-25T00:00	15613	116	-56.2	-71.7	273	17
2023-08-25T00:00	15632	116	-56.4	-71.9	272	17
2023-08-25T00:00	15650	115	-56.5	-72.0	271	17
2023-08-25T00:00	15671	115	-56.7	-72.2	271	17
2023-08-25T00:00	15689	115	-56.7	-72.2	271	17
2023-08-25T00:00	15709	114	-56.5	-72.1	272	17
2023-08-25T00:00	15728	114	-56.5	-72.2	273	16
2023-08-25T00:00	15749	114	-56.5	-72.3	274	16
2023-08-25T00:00	15769	113	-56.5	-72.5	275	16
2023-08-25T00:00	15786	113	-56.5	-72.8	277	16
2023-08-25T00:00	15803	113	-56.6	-73.2	278	16
2023-08-25T00:00	15822	112	-56.6	-73.4	280	17
2023-08-25T00:00	15843	112	-56.7	-73.4	281	17
2023-08-25T00:00	15864	112	-56.8	-73.1	282	16
2023-08-25T00:00	15884	111	-56.6	-72.4	282	16
2023-08-25T00:00	15901	111	-56.5	-72.0	283	16
2023-08-25T00:00	15919	111	-56.3	-71.7	282	16
2023-08-25T00:00	15941	110	-56.2	-71.6	282	15
2023-08-25T00:00	15965	110	-56.1	-71.6	281	15
2023-08-25T00:00	15985	110	-56.1	-71.6	279	15
2023-08-25T00:00	16005	109	-56.2	-71.7	278	15
2023-08-25T00:00	16025	109	-56.3	-71.7	278	15
2023-08-25T00:00	16047	108	-56.5	-72.0	278	15
2023-08-25T00:00	16068	108	-56.7	-72.2	278	15
2023-08-25T00:00	16087	108	-56.8	-72.4	279	15
2023-08-25T00:00	16106	107	-56.8	-72.4	281	14
2023-08-25T00:00	16126	107	-56.9	-72.5	282	14
2023-08-25T00:00	16147	107	-56.9	-72.6	284	13
2023-08-25T00:00	16168	106	-56.7	-72.6	286	13
2023-08-25T00:00	16191	106	-56.8	-72.8	288	12
2023-08-25T00:00	16209	106	-56.5	-72.7	291	12
2023-08-25T00:00	16231	105	-56.4	-72.7	293	12
2023-08-25T00:00	16254	105	-56.4	-72.7	294	11
2023-08-25T00:00	16273	105	-56.4	-72.6	294	11
2023-08-25T00:00	16295	104	-56.3	-72.4	293	11
2023-08-25T00:00	16315	104	-56.2	-72.1	292	10
2023-08-25T00:00	16339	104	-56.2	-72.0	291	11
2023-08-25T00:00	16359	103	-56.4	-72.1	290	11
2023-08-25T00:00	16382	103	-56.5	-72.3	289	11
2023-08-25T00:00	16403	103	-56.6	-72.5	287	11
2023-08-25T00:00	16425	102	-56.9	-72.8	286	11
2023-08-25T00:00	16448	102	-57.0	-72.8	284	12
2023-08-25T00:00	16473	101	-57.2	-72.9	282	12
2023-08-25T00:00	16497	101	-57.3	-73.0	280	12
2023-08-25T00:00	16528	101	-57.6	-73.2	278	13
2023-08-25T00:00	16555	100	-57.8	-73.5	276	13
2023-08-25T00:00	16580	100	-58.0	-73.7	274	14
2023-08-25T00:00	16605	99	-58.3	-74.2	273	14
2023-08-25T00:00	16629	99	-58.5	-74.6	272	15
2023-08-25T00:00	16652	99	-58.7	-74.7	271	15
2023-08-25T00:00	16674	98	-58.9	-74.8	272	16
2023-08-25T00:00	16695	98	-58.9	-74.6	274	16
2023-08-25T00:00	16718	98	-58.5	-74.4	277	15
2023-08-25T00:00	16737	97	-58.2	-74.4	280	15
2023-08-25T00:00	16759	97	-58.2	-74.6	284	14
2023-08-25T00:00	16778	97	-58.1	-74.7	287	14
2023-08-25T00:00	16800	96	-58.1	-74.7	289	13
2023-08-25T00:00	16818	96	-58.0	-74.5	291	12
2023-08-25T00:00	16833	96	-57.7	-74.0	291	12
2023-08-25T00:00	16852	95	-57.6	-73.7	291	11
2023-08-25T00:00	16875	95	-57.5	-73.6	290	11
2023-08-25T00:00	16894	95	-57.5	-73.6	289	10
2023-08-25T00:00	16908	95	-57.4	-73.7	288	10
2023-08-25T00:00	16928	94	-57.3	-73.9	286	10
2023-08-25T00:00	16946	94	-57.1	-73.8	283	10
2023-08-25T00:00	16967	94	-57.1	-73.8	281	10
2023-08-25T00:00	16985	93	-57.1	-73.7	278	9
2023-08-25T00:00	17007	93	-57.3	-73.7	275	10
2023-08-25T00:00	17024	93	-57.4	-73.6	273	10
2023-08-25T00:00	17042	93	-57.3	-73.3	271	10
2023-08-25T00:00	17061	92	-57.4	-73.4	271	10
2023-08-25T00:00	17077	92	-57.5	-73.4	272	11
2023-08-25T00:00	17097	92	-57.4	-73.4	273	11
2023-08-25T00:00	17114	92	-57.4	-73.5	274	12
2023-08-25T00:00	17132	91	-57.4	-73.6	275	12
2023-08-25T00:00	17152	91	-57.4	-73.9	277	12
2023-08-25T00:00	17167	91	-57.5	-74.5	278	12
2023-08-25T00:00	17191	91	-57.6	-75.3	280	13
2023-08-25T00:00	17211	90	-57.7	-76.1	283	13
2023-08-25T00:00	17230	90	-57.9	-76.6	285	13
2023-08-25T00:00	17251	90	-57.9	-76.3	287	14
2023-08-25T00:00	17269	89	-57.9	-75.7	288	14
2023-08-25T00:00	17292	89	-57.8	-75.0	289	14
2023-08-25T00:00	17309	89	-57.9	-74.7	290	13
2023-08-25T00:00	17328	89	-58.0	-74.5	290	13
2023-08-25T00:00	17348	88	-58.0	-74.3	290	13
2023-08-25T00:00	17372	88	-57.9	-74.0	291	13
2023-08-25T00:00	17394	88	-57.7	-73.7	291	13
2023-08-25T00:00	17415	87	-57.7	-73.7	291	13
2023-08-25T00:00	17435	87	-57.9	-73.9	292	13
2023-08-25T00:00	17460	87	-57.9	-74.0	293	12
2023-08-25T00:00	17478	86	-58.0	-74.1	293	12
2023-08-25T00:00	17500	86	-58.0	-74.3	294	11
2023-08-25T00:00	17521	86	-58.0	-74.5	294	11
2023-08-25T00:00	17542	86	-58.0	-74.8	294	10
2023-08-25T00:00	17564	85	-58.1	-75.3	293	10
2023-08-25T00:00	17588	85	-58.2	-75.7	292	10
2023-08-25T00:00	17608	85	-58.4	-76.0	290	9
2023-08-25T00:00	17633	84	-58.5	-75.8	287	9
2023-08-25T00:00	17655	84	-58.7	-75.4	284	9
2023-08-25T00:00	17676	84	-58.8	-75.1	280	8
2023-08-25T00:00	17704	83	-58.9	-75.0	276	9
2023-08-25T00:00	17723	83	-59.0		272	9
2023-08-25T00:00	17746	83	-59.0	-75.2	270	9
2023-08-25T00:00	17767	83	-58.9	-75.3	268	10
2023-08-25T00:00	17787	82	-58.6	-75.3	268	10
2023-08-25T00:00	17809	82	-58.5		269	10
2023-08-25T00:00	17830	82	-58.3	-75.1	270	10
2023-08-25T00:00	17848	82	-58.1	-75.0	273	10
2023-08-25T00:00	17868	81	-57.8	-74.6	276	11
2023-08-25T00:00	17888	81	-57.7	-74.6	279	11
2023-08-25T00:00	17910	81	-57.4	-74.4	283	11
2023-08-25T00:00	17925	81	-57.1		287	11
2023-08-25T00:00	17948	80	-56.8	-73.9	291	11
2023-08-25T00:00	17965	80	-56.6	-73.5	295	11
2023-08-25T00:00	17986	80	-56.4	-73.2	299	11
2023-08-25T00:00	18005	80	-56.4	-73.1	302	11
2023-08-25T00:00	18027	79	-56.5	-73.1	306	11
2023-08-25T00:00	18048	79	-56.5	-73.3	310	10
2023-08-25T00:00	18069	79	-56.5	-73.8	314	10
2023-08-25T00:00	18089	78	-56.4	-74.1	318	9
2023-08-25T00:00	18109	78	-56.3	-74.3	322	9
2023-08-25T00:00	18131	78	-56.3	-74.2	326	8
2023-08-25T00:00	18152	78	-56.3	-74.1	329	8
2023-08-25T00:00	18173	77	-56.3	-73.8	331	7
2023-08-25T00:00	18193	77	-56.4	-73.8	334	7
2023-08-25T00:00	18214	77	-56.6	-74.0	337	6
2023-08-25T00:00	18232	77	-56.7	-74.0	340	6
2023-08-25T00:00	18253	76	-56.7	-74.0	342	5
2023-08-25T00:00	18278	76	-56.9	-74.2	342	4
2023-08-25T00:00	18300	76	-56.9	-74.2	339	3
2023-08-25T00:00	18320	76	-56.9	-74.3	333	3
2023-08-25T00:00	18335	75	-57.0	-74.3	320	2
2023-08-25T00:00	18358	75	-57.0	-74.2	300	2
2023-08-25T00:00	18376	75	-57.1	-74.2	270	2
2023-08-25T00:00	18396	75	-57.1	-74.2	243	2
2023-08-25T00:00	18413	75	-57.2	-74.4	228	2
2023-08-25T00:00	18434	74	-57.1	-74.4	222	3
2023-08-25T00:00	18452	74	-57.1	-74.5	219	4
2023-08-25T00:00	18471	74	-57.2	-74.6	219	4
2023-08-25T00:00	18489	74	-57.1	-74.4	219	5
2023-08-25T00:00	18511	73	-57.2	-74.3	219	6
2023-08-25T00:00	18528	73	-57.3	-74.3	219	7
2023-08-25T00:00	18549	73	-57.3	-74.3	219	7
2023-08-25T00:00	18569	73	-57.3	-74.6	220	8
2023-08-25T00:00	18586	73	-57.3	-74.9	221	8
2023-08-25T00:00	18601	72	-57.2	-75.1	224	8
2023-08-25T00:00	18624	72	-57.1	-75.1	227	8
2023-08-25T00:00	18645	72	-57.1	-74.9	230	9
2023-08-25T00:00	18665	72	-57.2	-74.5	234	9
2023-08-25T00:00	18685	71	-57.3	-74.1	237	9
2023-08-25T00:00	18704	71	-57.4	-73.9	241	10
2023-08-25T00:00	18724	71	-57.4	-73.7	246	10
2023-08-25T00:00	18744	71	-57.4	-73.7	250	9
2023-08-25T00:00	18764	71	-57.4	-73.7	254	9
2023-08-25T00:00	18785	70	-57.1	-73.7	257	9
2023-08-25T00:00	18807	70	-57.1	-74.0	259	9
2023-08-25T00:00	18826	70	-57.0	-74.3	261	8
2023-08-25T00:00	18846	70	-56.9	-74.7	263	8
2023-08-25T00:00	18867	69	-56.8	-75.1	265	8
2023-08-25T00:00	18885	69	-56.8	-75.2	268	8
2023-08-25T00:00	18913	69	-56.8	-75.2	271	8
2023-08-25T00:00	18927	69	-56.8	-75.1	274	8
2023-08-25T00:00	18951	69	-56.9	-75.0	277	8
2023-08-25T00:00	18971	68	-56.9	-74.7	280	7
2023-08-25T00:00	18991	68	-56.9	-74.4	283	7
2023-08-25T00:00	19014	68	-56.7	-74.0	286	7
2023-08-25T00:00	19033	68	-56.7	-73.8	289	7
2023-08-25T00:00	19057	67	-56.8	-73.6	291	7
2023-08-25T00:00	19081	67	-56.6	-73.3	291	6
2023-08-25T00:00	19102	67	-56.5	-73.3	291	6
2023-08-25T00:00	19127	67	-56.5	-73.4	289	6
2023-08-25T00:00	19151	66	-56.6	-73.7	286	6
2023-08-25T00:00	19172	66	-56.6	-74.1	282	6
2023-08-25T00:00	19194	66	-56.7	-74.6	279	6
2023-08-25T00:00	19215	66	-56.9	-75.2	277	6
2023-08-25T00:00	19238	65	-56.9	-75.4	274	6
2023-08-25T00:00	19257	65	-56.9	-75.4	272	6
2023-08-25T00:00	19279	65	-56.7	-75.1	270	6
2023-08-25T00:00	19300	65	-56.4	-74.5	269	6
2023-08-25T00:00	19322	65	-56.3	-74.1	269	6
2023-08-25T00:00	19345	64	-56.3	-74.0	271	6
2023-08-25T00:00	19367	64	-56.3	-74.0	275	6
2023-08-25T00:00	19390	64	-56.2	-74.1	280	6
2023-08-25T00:00	19412	64	-56.2	-74.3	286	6
2023-08-25T00:00	19437	63	-56.1	-74.7	291	6
2023-08-25T00:00	19457	63	-56.1	-75.3	295	6
2023-08-25T00:00	19479	63	-56.1	-75.9	299	6
2023-08-25T00:00	19502	63	-56.1	-76.2	303	5
2023-08-25T00:00	19524	63	-56.1	-75.9	306	5
2023-08-25T00:00	19550	62	-56.1	-75.4	307	5
2023-08-25T00:00	19572	62	-56.1	-74.8	307	4
2023-08-25T00:00	19592	62	-56.0	-74.4	305	4
2023-08-25T00:00	19619	62	-56.1	-74.3	301	4
2023-08-25T00:00	19640	61	-56.2	-74.5	298	4
2023-08-25T00:00	19664	61	-56.3	-74.6	295	4
2023-08-25T00:00	19689	61	-56.3	-74.7	292	4
2023-08-25T00:00	19710	61	-56.5	-75.0	291	4
2023-08-25T00:00	19732	61	-56.6	-75.3	289	4
2023-08-25T00:00	19753	60	-56.8	-75.5	287	4
2023-08-25T00:00	19780	60	-56.9	-75.8	284	4
2023-08-25T00:00	19802	60	-57.1	-76.1	282	4
2023-08-25T00:00	19822	60	-57.2	-76.2	279	3
2023-08-25T00:00	19838	60	-57.3	-76.3	276	3
2023-08-25T00:00	19863	59	-57.4	-76.3	274	3
2023-08-25T00:00	19879	59	-57.4	-76.1	271	2
2023-08-25T00:00	19901	59	-57.5	-76.1	266	2
2023-08-25T00:00	19926	59	-57.6	-76.0	259	2
2023-08-25T00:00	19948	59	-57.7	-76.0	248	1
2023-08-25T00:00	19968	58	-57.8	-76.0	237	2
2023-08-25T00:00	19992	58	-57.8	-75.9	231	2
2023-08-25T00:00	20012	58	-57.7	-75.9	229	2
2023-08-25T00:00	20032	58	-57.5	-75.7	230	2
2023-08-25T00:00	20056	58	-57.4	-75.7	233	3
2023-08-25T00:00	20079	57	-57.4	-75.7	237	3
2023-08-25T00:00	20101	57	-57.6	-75.9	241	4
2023-08-25T00:00	20121	57	-57.7	-75.8	245	4
2023-08-25T00:00	20144	57	-57.9	-75.8	249	5
2023-08-25T00:00	20163	57	-57.9	-75.7	252	5
2023-08-25T00:00	20188	56	-57.8	-75.7	255	5
2023-08-25T00:00	20208	56	-57.7	-75.8	258	5
2023-08-25T00:00	20226	56	-57.5	-76.0	262	5
2023-08-25T00:00	20247	56	-57.4	-76.0	267	5
2023-08-25T00:00	20269	56	-57.5	-76.1	273	5
2023-08-25T00:00	20292	55	-57.7	-76.1	280	5
2023-08-25T00:00	20311	55	-57.7	-75.9	286	5
2023-08-25T00:00	20335	55	-57.4	-75.7	292	5
2023-08-25T00:00	20357	55	-57.1	-75.5	297	5
2023-08-25T00:00	20378	55	-57.2	-75.7	300	5
2023-08-25T00:00	20401	54	-57.2	-75.8	301	5
2023-08-25T00:00	20422	54	-57.3	-75.8	300	5
2023-08-25T00:00	20445	54	-57.3	-75.7	296	5
2023-08-25T00:00	20462	54	-57.3	-75.4	290	5
2023-08-25T00:00	20485	54	-57.2	-75.1	283	5
2023-08-25T00:00	20506	54	-57.2	-74.8	276	5
2023-08-25T00:00	20532	53	-57.2	-74.7	272	6
2023-08-25T00:00	20551	53	-57.3	-74.7	270	6
2023-08-25T00:00	20575	53	-57.2	-74.6	272	6
2023-08-25T00:00	20595	53	-57.0	-74.6	275	7
2023-08-25T00:00	20620	53	-56.9	-74.6	280	7
2023-08-25T00:00	20642	52	-56.6	-74.6	286	7
2023-08-25T00:00	20663	52	-56.3	-74.5	291	7
2023-08-25T00:00	20683	52	-56.3	-74.6	297	6
2023-08-25T00:00	20704	52	-56.3	-74.8	302	6
2023-08-25T00:00	20732	52	-56.1	-75.0	307	6
2023-08-25T00:00	20749	52	-56.2	-75.5	312	6
2023-08-25T00:00	20776	51	-56.1	-75.9	316	6
2023-08-25T00:00	20799	51	-56.1	-76.2	319	6
2023-08-25T00:00	20816	51	-55.9	-76.0	322	7
2023-08-25T00:00	20842	51	-56.0	-75.8	323	7
2023-08-25T00:00	20862	51	-56.0	-75.3	325	7
2023-08-25T00:00	20884	50	-56.2	-75.1	326	7
2023-08-25T00:00	20906	50	-56.3	-74.8	329	7
2023-08-25T00:00	20933	50	-56.4	-74.7	331	7
2023-08-25T00:00	20952	50	-56.3	-74.6	334	7
2023-08-25T00:00	20979	50	-56.4	-74.6	337	7
2023-08-25T00:00	20998	50	-56.5	-74.8	340	7
2023-08-25T00:00	21015	49	-56.5	-75.1	342	7
2023-08-25T00:00	21038	49	-56.5	-75.3	345	7
2023-08-25T00:00	21067	49	-56.6	-75.5	347	7
2023-08-25T00:00	21088	49	-56.6	-75.6	351	7
2023-08-25T00:00	21115	49	-56.6	-75.4	355	6
2023-08-25T00:00	21133	49	-56.3	-74.9	359	6
2023-08-25T00:00	21156	48	-56.3	-74.6	4	6
2023-08-25T00:00	21177	48	-56.1	-74.1	8	6
2023-08-25T00:00	21198	48	-56.2	-74.1	12	6
2023-08-25T00:00	21225	48	-56.3	-74.1	16	6
2023-08-25T00:00	21241	48	-56.5	-74.2	20	6
2023-08-25T00:00	21262	48	-56.7	-74.5	23	5
2023-08-25T00:00	21282	47	-56.8	-74.7	26	5
2023-08-25T00:00	21304	47	-56.9	-75.0	28	5
2023-08-25T00:00	21327	47	-56.9	-75.2	29	5
2023-08-25T00:00	21356	47	-57.0	-75.5	29	4
2023-08-25T00:00	21375	47	-57.1	-75.7	28	4
2023-08-25T00:00	21397	47	-57.2	-75.9	29	4
2023-08-25T00:00	21419	46	-57.2	-75.9	30	4
2023-08-25T00:00	21439	46	-57.2	-75.9	34	3
2023-08-25T00:00	21459	46	-57.3	-75.9	42	3
2023-08-25T00:00	21486	46	-57.2	-75.9	56	2
2023-08-25T00:00	21508	46	-57.2	-75.9	76	2
2023-08-25T00:00	21530	46	-57.1	-76.0	100	2
2023-08-25T00:00	21552	45	-56.6	-75.6	119	2
2023-08-25T00:00	21577	45	-56.4	-75.6	133	2
2023-08-25T00:00	21595	45	-56.4	-75.6	143	2
2023-08-25T00:00	21616	45	-56.5	-75.5	149	1
2023-08-25T00:00	21642	45	-56.6	-75.3	149	1
2023-08-25T00:00	21665	45	-56.6	-75.0	34	0
2023-08-25T00:00	21687	45	-56.7	-75.0	11	1
2023-08-25T00:00	21703	44	-56.7	-75.0	15	2
2023-08-25T00:00	21727	44	-56.5	-75.1	22	3
2023-08-25T00:00	21748	44	-56.4		28	3
2023-08-25T00:00	21770	44	-56.4	-75.5	32	4
2023-08-25T00:00	21794	44	-56.4	-75.7	35	5
2023-08-25T00:00	21814	44	-56.5	-75.9	37	6
2023-08-25T00:00	21832	43	-56.5	-75.9	40	7
2023-08-25T00:00	21856	43	-56.6	-75.9	42	7
2023-08-25T00:00	21874	43	-56.7	-76.1	46	8
2023-08-25T00:00	21902	43	-56.7	-76.1	50	8
2023-08-25T00:00	21921	43	-56.8	-76.4	54	7
2023-08-25T00:00	21940	43	-56.6	-76.4	59	7
2023-08-25T00:00	21955	43	-56.5	-76.4	64	7
2023-08-25T00:00	21983	42	-56.6	-76.6	69	6
2023-08-25T00:00	22004	42	-56.6	-76.6	74	6
2023-08-25T00:00	22021	42	-56.7	-76.6	80	6
2023-08-25T00:00	22042	42	-56.8	-76.5	87	5
2023-08-25T00:00	22059	42	-56.8	-76.5	93	5
2023-08-25T00:00	22078	42	-56.9	-76.5	99	5
2023-08-25T00:00	22103	42	-57.0	-76.6	105	4
2023-08-25T00:00	22124	42	-57.0	-76.7	110	4
2023-08-25T00:00	22140	41	-57.1	-76.8	115	3
2023-08-25T00:00	22160	41	-57.1	-76.8	121	3
2023-08-25T00:00	22184	41	-57.2	-77.0	130	2
2023-08-25T00:00	22202	41	-57.2	-77.0	145	1
2023-08-25T00:00	22223	41	-57.3	-77.2	172	1
2023-08-25T00:00	22244	41	-57.2	-77.2	207	1
2023-08-25T00:00	22267	41	-57.1	-77.1	232	1
2023-08-25T00:00	22288	40	-57.1	-77.1	245	2
2023-08-25T00:00	22311	40	-57.2	-77.1	252	2
2023-08-25T00:00	22323	40	-57.4	-77.2	257	2
2023-08-25T00:00	22345	40	-57.4	-77.4	261	1
2023-08-25T00:00	22369	40	-57.5	-77.6	266	1
2023-08-25T00:00	22389	40	-57.4	-77.7	277	0
2023-08-25T00:00	22408	40	-57.4	-77.9	83	0
2023-08-25T00:00	22430	40	-57.3	-77.9	89	1
2023-08-25T00:00	22451	39	-57.3	-77.6	92	2
2023-08-25T00:00	22474	39	-57.3	-77.2	95	2
2023-08-25T00:00	22496	39	-57.4	-76.8	97	2
2023-08-25T00:00	22519	39	-57.6	-76.7	99	2
2023-08-25T00:00	22543	39	-57.7	-76.6	103	2
2023-08-25T00:00	22565	39	-57.8	-76.5	110	2
2023-08-25T00:00	22582	39	-57.8	-76.4	122	2
2023-08-25T00:00	22602	38	-57.8	-76.4	144	1
2023-08-25T00:00	22623	38	-57.7	-76.3	179	1
2023-08-25T00:00	22641	38	-57.6	-76.3	216	1
2023-08-25T00:00	22668	38	-57.3	-76.0	244	1
2023-08-25T00:00	22686	38	-57.2	-76.1	267	2
2023-08-25T00:00	22709	38	-57.1	-76.3	287	2
2023-08-25T00:00	22731	38	-57.1	-76.5	304	2
2023-08-25T00:00	22754	38	-56.9	-76.6	317	3
2023-08-25T00:00	22774	37	-56.9		325	3
2023-08-25T00:00	22792	37	-56.9	-76.9	331	3
2023-08-25T00:00	22817	37	-56.9	-76.9	336	3
2023-08-25T00:00	22839	37	-56.7	-76.7	341	3
2023-08-25T00:00	22856	37	-56.7	-76.7	348	3
2023-08-25T00:00	22878	37	-56.8	-76.7	357	3
2023-08-25T00:00	22902	37	-56.8	-76.9	10	3
2023-08-25T00:00	22923	37	-56.8	-77.0	26	2
2023-08-25T00:00	22948	36	-57.0	-77.1	45	2
2023-08-25T00:00	22965	36	-57.0	-77.1	66	2
2023-08-25T00:00	22990	36	-57.1	-77.2	85	2
2023-08-25T00:00	23008	36	-57.1	-77.2	100	3
2023-08-25T00:00	23030	36	-57.2	-77.2	111	3
2023-08-25T00:00	23051	36	-57.0	-76.9	120	3
2023-08-25T00:00	23067	36	-57.1	-76.9	127	3
2023-08-25T00:00	23086	36	-57.0	-76.6	132	2
2023-08-25T00:00	23112	36	-56.9	-76.2	131	2
2023-08-25T00:00	23130	35	-56.9	-76.0	113	1
2023-08-25T00:00	23159	35	-56.9	-75.9	73	1
2023-08-25T00:00	23183	35	-56.6	-75.6	53	1
2023-08-25T00:00	23205	35	-56.3	-75.4	51	2
2023-08-25T00:00	23221	35	-56.0	-75.3	55	2
2023-08-25T00:00	23244	35	-55.8	-75.5	60	2
2023-08-25T00:00	23266	35	-55.9	-75.8	65	2
2023-08-25T00:00	23283	35	-55.9	-76.1	66	2
2023-08-25T00:00	23302	34	-56.0	-76.4	63	2
2023-08-25T00:00	23321	34	-56.0	-76.7	54	2
2023-08-25T00:00	23341	34	-55.9	-76.7	42	2
2023-08-25T00:00	23360	34	-55.9	-76.7	33	2
2023-08-25T00:00	23380	34	-55.8	-76.5	30	2
2023-08-25T00:00	23400	34	-55.8	-76.5	30	2
2023-08-25T00:00	23416	34	-55.9	-76.6	31	3
2023-08-25T00:00	23437	34	-55.8	-76.6	33	3
2023-08-25T00:00	23454	34	-55.8	-76.8	35	3
2023-08-25T00:00	23476	34	-55.9	-77.0	37	3
2023-08-25T00:00	23484	33	-55.9	-77.0	40	3
2023-08-25T00:00	23518	33	-55.9	-77.0	45	3
2023-08-25T00:00	23539	33	-55.9	-76.8	50	3
2023-08-25T00:00	23559	33	-55.8	-76.6	56	3
2023-08-25T00:00	23576	33	-55.9	-76.6	61	3
2023-08-25T00:00	23599	33	-55.9	-76.6	64	3
2023-08-25T00:00	23613	33	-55.9	-76.8	63	2
2023-08-25T00:00	23637	33	-55.9	-77.1	56	2
2023-08-25T00:00	23658	33	-55.8	-77.3	46	2
2023-08-25T00:00	23683	32	-55.7	-77.6	38	2
2023-08-25T00:00	23702	32	-55.7	-78.0	34	3
2023-08-25T00:00	23725	32	-55.6	-78.0	33	3
2023-08-25T00:00	23745	32	-55.7	-78.1	34	3
2023-08-25T00:00	23773	32	-55.7	-78.0	35	3
2023-08-25T00:00	23792	32	-55.6	-77.4	37	3
2023-08-25T00:00	23810	32	-55.6	-76.9	40	3
2023-08-25T00:00	23835	32	-55.6	-76.3	44	3
2023-08-25T00:00	23860	32	-55.6	-76.0	48	3
2023-08-25T00:00	23881	31	-55.7	-75.8	53	3
2023-08-25T00:00	23901	31	-55.7	-75.8	57	3
2023-08-25T00:00	23928	31	-55.8	-76.2	62	3
2023-08-25T00:00	23952	31	-55.8	-76.5	67	3
2023-08-25T00:00	23975	31	-55.9	-77.0	73	2
2023-08-25T00:00	23997	31	-55.8	-77.3	79	2
2023-08-25T00:00	24018	31	-55.9	-77.4	86	1
2023-08-25T00:00	24045	31	-56.1	-77.3	89	1
2023-08-25T00:00	24061	31	-55.9	-76.5	82	1
2023-08-25T00:00	24083	31	-55.8	-75.9	67	1
2023-08-25T00:00	24106	30	-55.8	-75.6	54	1
2023-08-25T00:00	24125	30	-55.8	-75.5	45	2
2023-08-25T00:00	24155	30	-55.9	-75.6	39	2
2023-08-25T00:00	24173	30	-55.8	-75.6	34	2
2023-08-25T00:00	24197	30	-55.8	-75.6	30	2
2023-08-25T00:00	24216	30	-55.9	-75.7	29	2
2023-08-25T00:00	24239	30	-56.0	-75.8	30	2
2023-08-25T00:00	24260	30	-56.1	-75.9	36	2
2023-08-25T00:00	24278	30	-56.0	-76.0	42	2
2023-08-25T00:00	24305	29	-56.0	-76.3	47	3
2023-08-25T00:00	24317	29	-56.2	-76.8	49	3
2023-08-25T00:00	24347	29	-56.3	-77.2	49	3
2023-08-25T00:00	24361	29	-56.3	-77.4	47	3
2023-08-25T00:00	24383	29	-56.3	-77.4	46	3
2023-08-25T00:00	24411	29	-56.4	-77.5	44	3
2023-08-25T00:00	24432	29	-56.4	-77.5	44	3
2023-08-25T00:00	24460	29	-56.4	-77.5	46	2
2023-08-25T00:00	24472	29	-56.5	-77.7	51	2
2023-08-25T00:00	24488	29	-56.4	-77.7	58	2
2023-08-25T00:00	24512	29	-56.5	-77.9	67	2
2023-08-25T00:00	24532	28	-56.5	-77.9	75	2
2023-08-25T00:00	24545	28	-56.5	-77.9	81	3
2023-08-25T00:00	24576	28	-56.5	-78.0	84	3
2023-08-25T00:00	24599	28	-56.5	-78.3	86	3
2023-08-25T00:00	24616	28	-56.5	-78.3	87	3
2023-08-25T00:00	24639	28	-56.3	-78.1	87	3
2023-08-25T00:00	24658	28	-56.2	-78.1	88	3
2023-08-25T00:00	24676	28	-56.3	-78.1	88	3
2023-08-25T00:00	24697	28	-56.2	-78.1	87	3
2023-08-25T00:00	24711	28	-56.0	-78.0	85	2
2023-08-25T00:00	24727	28	-55.9	-78.0	81	2
2023-08-25T00:00	24755	27	-55.8	-77.9	75	2
2023-08-25T00:00	24770	27	-55.9	-78.0	66	2
2023-08-25T00:00	24787	27	-55.8	-77.7	58	3
2023-08-25T00:00	24812	27	-55.7	-77.6	52	3
2023-08-25T00:00	24832	27	-55.5	-77.6	48	3
2023-08-25T00:00	24851	27	-55.4	-77.9	47	4
2023-08-25T00:00	24881	27	-55.5	-78.1	48	4
2023-08-25T00:00	24895	27	-55.5	-78.3	52	4
2023-08-25T00:00	24917	27	-55.5	-78.4	58	4
2023-08-25T00:00	24940	27	-55.4	-78.5	65	4
2023-08-25T00:00	24957	27	-55.4	-78.5	72	3
2023-08-25T00:00	24982	26	-55.4	-78.5	79	3
2023-08-25T00:00	24999	26	-55.3	-78.3	84	3
2023-08-25T00:00	25026	26	-55.2	-77.9	88	3
2023-08-25T00:00	25052	26	-55.1	-77.3	92	3
2023-08-25T00:00	25067	26	-54.8	-76.8	97	3
2023-08-25T00:00	25097	26	-54.7	-76.4	102	3
2023-08-25T00:00	25122	26	-54.6	-76.2	107	3
2023-08-25T00:00	25139	26	-54.7	-76.4	108	2
2023-08-25T00:00	25165	26	-54.7	-76.5	103	2
2023-08-25T00:00	25185	26	-54.8	-76.6	89	2
2023-08-25T00:00	25211	26	-54.8	-76.6	66	2
2023-08-25T00:00	25240	25	-54.8	-76.5	41	2
2023-08-25T00:00	25263	25	-54.6	-76.3	22	2
2023-08-25T00:00	25274	25	-54.6	-76.2	9	3
2023-08-25T00:00	25306	25	-54.7	-76.1	4	3
2023-08-25T00:00	25332	25	-54.5	-76.0	4	3
2023-08-25T00:00	25366	25	-54.6	-76.0	10	3
2023-08-25T00:00	25376	25	-54.5	-76.1	21	3
2023-08-25T00:00	25411	25	-54.6	-76.2	33	4
2023-08-25T00:00	25430	25	-54.6	-76.3	44	4
2023-08-25T00:00	25455	25	-54.6	-76.6	51	5
2023-08-25T00:00	25483	25	-54.7	-77.0	58	5
2023-08-25T00:00	25509	24	-54.7	-77.3	63	5
2023-08-25T00:00	25532	24	-54.6	-77.6	67	6
2023-08-25T00:00	25553	24	-54.4	-77.6	70	6
2023-08-25T00:00	25578	24	-54.4	-77.6	70	6
2023-08-25T00:00	25605	24	-54.3	-77.5	69	5
2023-08-25T00:00	25641	24	-54.3	-77.1	65	5
2023-08-25T00:00	25656	24	-54.2	-76.9	59	4
2023-08-25T00:00	25703	24	-54.1	-76.7	51	3
2023-08-25T00:00	25716	24	-53.8	-76.3	39	3
2023-08-25T00:00	25736	24	-53.7	-76.2	24	3
2023-08-25T00:00	25762	23	-53.6	-76.3	9	3
2023-08-25T00:00	25787	23	-53.6	-76.3	0	3
2023-08-25T00:00	25813	23	-53.5	-76.2	357	4
2023-08-25T00:00	25831	23	-53.6	-76.3	358	4
2023-08-25T00:00	25860	23	-53.5	-76.2	5	4
2023-08-25T00:00	25871	23	-53.2	-75.9	18	3
2023-08-25T00:00	25901	23	-53.0	-75.8	36	3
2023-08-25T00:00	25925	23	-53.0	-75.9	57	3
2023-08-25T00:00	25942	23	-53.1	-76.2	75	3
2023-08-25T00:00	25970	23	-53.2	-76.4	87	4
2023-08-25T00:00	25989	23	-53.1	-76.3	96	4
2023-08-25T00:00	26013	23	-53.2	-76.4	100	4
2023-08-25T00:00	26031	22	-53.2	-76.4	103	4
2023-08-25T00:00	26049	22	-53.0	-76.3	104	4
2023-08-25T00:00	26074	22	-53.0	-76.4	106	4
2023-08-25T00:00	26098	22	-53.1	-76.7	111	3
2023-08-25T00:00	26115	22	-53.1	-76.9	119	3
2023-08-25T00:00	26130	22	-53.0	-77.0	130	3
2023-08-25T00:00	26146	22	-52.9	-76.9	141	3
2023-08-25T00:00	26168	22	-52.9	-77.1	150	2
2023-08-25T00:00	26186	22	-52.7	-76.9	156	2
2023-08-25T00:00	26193	22	-52.4	-76.7	159	1
2023-08-25T00:00	26226	22	-52.2	-76.7	154	1
2023-08-25T00:00	26243	22	-52.0	-76.8	98	0
2023-08-25T00:00	26262	22	-51.9	-76.7	15	1
2023-08-25T00:00	26280	22	-51.9	-76.9	5	1
2023-08-25T00:00	26291	22	-51.8	-76.8	2	2
2023-08-25T00:00	26315	22	-51.7	-77.0	0	2
2023-08-25T00:00	26341	21	-51.7	-77.2	358	3
2023-08-25T00:00	26351	21	-51.7	-77.2	357	3
2023-08-25T00:00	26376	21	-51.6	-77.4	356	4
2023-08-25T00:00	26400	21	-51.6	-77.4	358	5
2023-08-25T00:00	26408	21	-51.7	-77.2	0	5
2023-08-25T00:00	26431	21	-51.7	-76.6	5	6
2023-08-25T00:00	26453	21	-51.6	-76.1	10	6
2023-08-25T00:00	26476	21	-51.5	-75.4	17	6
2023-08-25T00:00	26504	21	-51.4	-74.8	24	6
2023-08-25T00:00	26526	21	-51.5	-74.7	31	6
2023-08-25T00:00	26551	21	-51.5	-74.7	37	7
2023-08-25T00:00	26573	21	-51.4	-74.8	42	7
2023-08-25T00:00	26597	21	-51.5	-75.1	48	7
2023-08-25T00:00	26622	21	-51.6	-75.1	55	6
2023-08-25T00:00	26655	20	-51.7	-75.4	62	6
2023-08-25T00:00	26663	20	-51.8	-75.5	68	6
2023-08-25T00:00	26691	20	-52.0	-75.6	72	6
2023-08-25T00:00	26713	20	-52.0	-75.8	73	6
2023-08-25T00:00	26742	20	-51.9	-75.7	72	6
2023-08-25T00:00	26778	20	-51.9	-75.9	70	6
2023-08-25T00:00	26781	20	-51.8	-76.0	66	6
2023-08-25T00:00	26811	20	-51.8	-76.2	62	5
2023-08-25T00:00	26840	20	-51.7	-76.4	59	5
2023-08-25T00:00	26851	20	-51.7	-76.6	57	5
2023-08-25T00:00	26880	20	-51.7	-76.8	56	5
2023-08-25T00:00	26892	20	-51.8	-77.1	57	4
2023-08-25T00:00	26924	20	-51.6	-76.9	60	4
2023-08-25T00:00	26950	20	-51.6	-77.1	66	3
2023-08-25T00:00	26970	19	-51.4	-77.5	75	3
2023-08-25T00:00	26995	19	-51.4	-77.7	86	3
2023-08-25T00:00	27030	19	-51.4	-78.3	97	3
2023-08-25T00:00	27047	19	-51.4	-78.5	108	2
2023-08-25T00:00	27070	19	-51.5	-78.9	119	2
2023-08-25T00:00	27087	19	-51.5	-78.6	132	2
2023-08-25T00:00	27115	19	-51.4	-78.3	148	2
2023-08-25T00:00	27136	19	-51.4	-77.5	169	2
2023-08-25T00:00	27156	19	-51.2	-76.6	193	2
2023-08-25T00:00	27170	19	-51.3	-76.0	217	2
2023-08-25T00:00	27200	19	-51.2	-75.4	236	2
2023-08-25T00:00	27220	19	-51.0	-75.0	250	2
2023-08-25T00:00	27242	19	-50.7	-74.6	260	2
2023-08-25T00:00	27264	19	-50.5	-74.6	268	2
2023-08-25T00:00	27283	19	-50.2	-74.6	277	2
2023-08-25T00:00	27310	18	-49.9	-74.7	291	1
2023-08-25T00:00	27326	18	-50.0	-75.0	328	1
2023-08-25T00:00	27355	18	-50.1	-74.9	25	1
2023-08-25T00:00	27377	18	-50.0	-74.2	52	1
2023-08-25T00:00	27398	18	-49.9	-73.6	64	2
2023-08-25T00:00	27411	18	-50.1	-73.3	71	3
2023-08-25T00:00	27438	18	-50.0	-72.9	74	3
2023-08-25T00:00	27468	18	-50.1	-72.8	75	4
2023-08-25T00:00	27473	18	-50.2	-73.1	73	5
2023-08-25T00:00	27488	18	-50.1	-73.3	71	5
2023-08-25T00:00	27526	18	-50.2	-73.7	69	6
2023-08-25T00:00	27540	18	-50.1	-73.8	67	6
2023-08-25T00:00	27564	18	-50.0	-74.0	65	6
2023-08-25T00:00	27574	18	-50.0	-74.0	65	7
2023-08-25T00:00	27607	18	-50.1	-74.1	66	7
2023-08-25T00:00	27612	18	-50.0	-74.0	69	7
2023-08-25T00:00	27642	18	-50.0	-74.2	72	7
2023-08-25T00:00	27668	18	-50.0	-74.2	76	7
2023-08-25T00:00	27677	17	-49.8	-74.1	80	6
2023-08-25T00:00	27706	17	-49.9	-74.0	86	6
2023-08-25T00:00	27719	17	-50.0	-74.0	92	6
2023-08-25T00:00	27747	17	-49.9	-74.0	99	6
2023-08-25T00:00	27770	17	-49.9	-74.0	105	6
2023-08-25T00:00	27781	17	-49.9	-74.1	111	7
2023-08-25T00:00	27797	17	-50.0	-74.4	116	7
2023-08-25T00:00	27827	17	-49.8	-74.4	122	7
2023-08-25T00:00	27859	17	-49.8	-74.4	127	7
2023-08-25T00:00	27862	17	-49.8	-74.6	133	6
2023-08-25T00:00	27896	17	-49.8	-74.6	138	6
2023-08-25T00:00	27915	17	-49.8	-74.8	143	6
2023-08-25T00:00	27934	17	-49.9	-74.9	149	6
2023-08-25T00:00	27969	17	-49.8	-75.1	155	5
2023-08-25T00:00	27978	17	-49.6	-75.3	160	5
2023-08-25T00:00	27998	17	-49.3	-75.3	166	5
2023-08-25T00:00	28011	17	-49.2	-75.7	170	5
2023-08-25T00:00	28036	17	-49.1	-75.9	173	5
2023-08-25T00:00	28051	16	-49.1	-76.2	176	5
2023-08-25T00:00	28088	16	-49.0	-76.7	177	5
2023-08-25T00:00	28108	16	-48.8	-76.8	178	4
2023-08-25T00:00	28127	16	-48.7	-77.4	179	4
2023-08-25T00:00	28142	16	-48.7	-77.8	181	3
2023-08-25T00:00	28160	16	-48.5	-78.0	185	3
2023-08-25T00:00	28173	16	-48.3	-77.9	189	2
2023-08-25T00:00	28208	16	-48.3	-77.1	195	2
2023-08-25T00:00	28225	16	-48.3	-76.8	200	2
2023-08-25T00:00	28242	16	-48.1	-75.7	207	2
2023-08-25T00:00	28256	16	-48.0	-75.1	218	1
2023-08-25T00:00	28293	16	-47.8	-74.4	237	1
2023-08-25T00:00	28311	16	-47.9	-74.2	256	1
2023-08-25T00:00	28341	16	-47.8	-74.2	269	2
2023-08-25T00:00	28349	16	-47.7	-74.1	273	2
2023-08-25T00:00	28372	16	-47.8	-74.4	274	2
2023-08-25T00:00	28390	16	-47.9	-74.7	274	3
2023-08-25T00:00	28415	16	-47.7	-74.6	272	3
2023-08-25T00:00	28439	16	-47.8	-74.7	270	2
2023-08-25T00:00	28461	16	-47.7	-74.6	266	2
2023-08-25T00:00	28469	15	-47.7	-74.6	255	2
2023-08-25T00:00	28496	15	-47.4	-74.4	235	1
2023-08-25T00:00	28525	15	-47.4	-74.6	209	1
2023-08-25T00:00	28547	15	-47.4	-74.6	189	2
2023-08-25T00:00	28572	15	-47.3	-74.8	177	2
2023-08-25T00:00	28595	15	-47.2	-74.7	171	2
2023-08-25T00:00	28606	15	-47.2	-74.7	167	3
2023-08-25T00:00	28646	15	-46.9	-74.5	168	3
2023-08-25T00:00	28664	15	-46.8	-74.4	172	3
2023-08-25T00:00	28683	15	-46.6	-74.0	180	3
2023-08-25T00:00	28711	15	-46.5	-73.9	189	3
2023-08-25T00:00	28727	15	-46.6	-73.7	196	3
2023-08-25T00:00	28754	15	-46.5	-73.2	200	4
2023-08-25T00:00	28778	15	-46.5	-73.2	201	4
2023-08-25T00:00	28808	15	-46.6	-73.2	201	5
2023-08-25T00:00	28824	15	-46.7	-73.6	200	5
2023-08-25T00:00	28861	15	-46.7	-73.8	198	5
2023-08-25T00:00	28878	15	-46.8	-74.4	197	5
2023-08-25T00:00	28889	15	-46.5	-74.2	196	5
2023-08-25T00:00	28925	14	-46.6	-74.3	197	4
2023-08-25T00:00	28947	14	-46.7	-74.3	200	4
2023-08-25T00:00	28975	14	-46.5	-74.2	204	4
2023-08-25T00:00	28986	14	-46.5	-74.5	209	3
2023-08-25T00:00	29024	14	-46.7	-74.6	214	3
2023-08-25T00:00	29053	14	-46.7	-74.6	219	3
2023-08-25T00:00	29075	14	-46.9	-74.8	226	3
2023-08-25T00:00	29100	14	-46.8	-74.4	233	2
2023-08-25T00:00	29117	14	-46.7	-74.1	242	2
2023-08-25T00:00	29146	14	-46.6	-74.0	256	1
2023-08-25T00:00	29176	14	-46.6	-74.3	282	1
2023-08-25T00:00	29184	14	-46.6	-74.6	315	1
2023-08-25T00:00	29216	14	-46.4	-74.7	336	1
2023-08-25T00:00	29258	14	-46.6	-74.9	345	1
2023-08-25T00:00	29269	14	-46.6	-74.9	348	1
2023-08-25T00:00	29300	14	-46.6	-74.9	245	0
2023-08-25T00:00	29325	14	-46.4	-74.4	181	1
2023-08-25T00:00	29336	14	-46.1	-74.5	180	2
2023-08-25T00:00	29366	14	-46.2	-74.5	179	2
2023-08-25T00:00	29385	13	-46.2	-74.5	178	3
2023-08-25T00:00	29420	13	-46.3	-74.3	176	3
2023-08-25T00:00	29448	13	-45.8	-73.9	174	3
2023-08-25T00:00	29472	13	-45.8	-73.6	171	3
2023-08-25T00:00	29494	13	-45.9	-73.2	169	3
2023-08-25T00:00	29527	13	-46.0	-73.0	169	3
2023-08-25T00:00	29540	13	-46.1	-72.8	169	2
2023-08-25T00:00	29579	13	-46.0	-72.8	170	2
2023-08-25T00:00	29596	13	-46.0	-72.5	171	2
2023-08-25T00:00	29603	13	-46.2	-72.9	172	1
2023-08-25T00:00	29620	13	-46.3	-73.2	174	1
2023-08-25T00:00	29647	13	-46.3	-73.5	180	1
2023-08-25T00:00	29688	13	-46.5	-73.9	190	1
2023-08-25T00:00	29718	13	-46.7	-74.3	204	1
2023-08-25T00:00	29739	13	-46.8	-74.1	209	1
2023-08-25T00:00	29765	13	-46.8	-74.1	212	2
2023-08-25T00:00	29784	13	-46.9	-74.2	214	2
2023-08-25T00:00	29805	13	-47.0	-74.3	218	2
2023-08-25T00:00	29830	13	-47.0	-74.6	221	2
2023-08-25T00:00	29856	13	-47.0	-74.6	227	2
2023-08-25T00:00	29875	13	-47.1	-74.7	237	2
2023-08-25T00:00	29908	12	-47.2	-75.0	253	2
2023-08-25T00:00	29925	12	-47.1	-74.9	273	2
2023-08-25T00:00	29963	12	-47.3	-75.1	291	2
2023-08-25T00:00	29991	12	-47.1	-75.2	313	3
2023-08-25T00:00	30000	12	-47.2	-75.3	321	3
2023-08-25T00:00	30028	12	-47.2	-75.6	330	4
2023-08-25T00:00	30054	12	-47.3	-76.0	338	4
2023-08-25T00:00	30070	12	-47.3	-76.0	345	4
2023-08-25T00:00	30106	12	-47.2	-75.9	352	5
2023-08-25T00:00	30110	12	-47.2	-75.6	357	5
2023-08-25T00:00	30137	12	-47.2	-75.0	360	5
2023-08-25T00:00	30177	12	-47.0	-74.6	2	5
2023-08-25T00:00	30187	12	-47.1	-74.4	3	5
2023-08-25T00:00	30219	12	-47.2	-74.5	4	5
2023-08-25T00:00	30234	12	-47.2	-74.5	5	5
2023-08-25T00:00	30264	12	-47.3	-74.8	6	5
2023-08-25T00:00	30292	12	-47.1	-74.9	9	5
2023-08-25T00:00	30315	12	-47.0	-75.2	12	5
2023-08-25T00:00	30325	12	-47.0	-75.5	14	4
2023-08-25T00:00	30357	12	-46.8	-75.6	15	4
2023-08-25T00:00	30374	12	-46.8	-75.6	14	4
2023-08-25T00:00	30399	12	-46.6	-75.8	11	3
2023-08-25T00:00	30418	12	-46.5	-75.8	8	3
2023-08-25T00:00	30452	12	-46.4	-75.7	6	3
2023-08-25T00:00	30488	11	-46.2	-75.9	10	4
2023-08-25T00:00	30493	11	-46.0	-76.1	14	5
2023-08-25T00:00	30537	11	-45.8	-76.0	18	5
2023-08-25T00:00	30546	11	-45.6	-75.8	22	6
2023-08-25T00:00	30583	11	-45.6	-76.2	25	7
2023-08-25T00:00	30598	11	-45.4	-76.1	29	7
2023-08-25T00:00	30623	11	-45.3	-76.0	32	7
2023-08-25T00:00	30658	11	-45.3	-75.6	36	7
2023-08-25T00:00	30660	11	-45.0	-75.4	40	7
2023-08-25T00:00	30688	11	-44.9	-75.3	43	7
2023-08-25T00:00	30696	11	-44.8	-75.2	45	6
2023-08-25T00:00	30734	11	-44.9	-75.3	46	6
2023-08-25T00:00	30765	11	-44.7	-75.1	43	5
2023-08-25T00:00	30781	11	-44.8	-75.2	39	5
2023-08-25T00:00	30785	11	-44.7	-75.1	32	5
2023-08-25T00:00	30807	11	-44.5	-74.6	25	4
2023-08-25T00:00	30830	11	-44.4	-74.5	20	5
2023-08-25T00:00	30856	11	-44.2	-74.4	17	5
2023-08-25T00:00	30875	11	-44.2	-74.4	16	5
2023-08-25T00:00	30888	11	-44.1	-74.3	17	5
2023-08-25T00:00	30911	11	-44.0	-74.2	19	5
2023-08-25T00:00	30940	11	-44.0	-74.2	20	5
2023-08-25T00:00	30953	11	-43.9	-74.2	21	6
2023-08-25T00:00	30968	11	-43.7	-74.4	22	6
2023-08-25T00:00	30999	11	-43.7	-74.4	22	7
2023-08-25T00:00	31008	11	-43.7	-74.4	23	8
2023-08-25T00:00	31029	11	-43.5	-74.2	25	8
2023-08-25T00:00	31040	11	-43.2	-74.4	28	8
2023-08-25T00:00	31052	11	-43.2	-74.4	32	9
2023-08-25T00:00	31080	10	-42.9	-74.7	35	9
2023-08-25T00:00	31111	10	-41.8	-73.8	38	9
2023-08-25T00:00	31140	10	-41.8	-73.8	45	9
2023-08-25T00:00	31173	10	-41.7	-73.8	49	9
2023-08-25T00:00	31204	10	-41.7	-73.8	57	9
2023-08-25T00:00	31223	10	-41.5	-73.6	59	9
2023-08-25T00:00	31237	10	-41.6	-73.7	61	8
2023-08-25T00:00	31253	10	-41.5	-73.6	61	8
2023-08-25T00:00	31271	10	-41.5	-74.1	61	8
2023-08-25T00:00	31284	10	-41.5	-74.1	60	7
2023-08-25T00:00	31299	10	-41.4	-74.0	61	7
2023-08-25T00:00	31323	10	-41.3	-73.9	61	6
2023-08-25T00:00	31349	10	-41.3	-73.9	62	6
2023-08-25T00:00	31362	10	-41.2	-73.9	64	5
2023-08-25T00:00	31387	10	-41.1	-73.8	65	5
2023-08-25T00:00	31404	10	-41.2	-73.9	66	5
2023-08-25T00:00	31430	10	-41.2	-73.9	68	4
2023-08-25T00:00	31472	10	-41.2	-73.9	71	3
2023-08-25T00:00	31492	10	-41.3	-73.9	73	2
2023-08-25T00:00	31526	10	-41.0	-73.7	71	1
2023-08-25T00:00	31561	10	-40.9	-73.6	52	1
2023-08-25T00:00	31586	10	-40.7	-74.0	350	0
2023-08-25T00:00	31613	10	-40.7	-74.0	326	1
2023-08-25T00:00	31634	10	-40.7	-74.6	326	2
2023-08-25T00:00	31663	10	-40.7	-74.6	330	2
2023-08-25T00:00	31682	10	-40.6	-74.5	333	3
2023-08-25T00:00	31707	10	-40.4	-74.4	337	3
2023-08-25T00:00	31712	10	-40.2	-74.2	340	4
2023-08-25T00:00	31751	9	-40.1	-74.1	342	4
2023-08-25T00:00	31785	9	-40.1	-74.1	345	4
2023-08-25T00:00	31795	9	-40.0	-74.1	347	5
2023-08-25T00:00	31816	9	-40.0	-74.7	349	5
2023-08-25T00:00	31862	9	-40.0	-74.7	352	5
2023-08-25T00:00	31877	9	-39.9	-74.6	359	5
2023-08-25T00:00	31911	9	-39.9	-74.6	4	5
2023-08-25T00:00	31955	9	-40.0	-74.7	10	5
2023-08-25T00:00	31969	9	-40.1	-74.8	16	5
2023-08-25T00:00	31993	9	-40.1	-74.8	22	5
2023-08-25T00:00	32019	9	-40.4	-74.4	29	6
2023-08-25T00:00	32052	9	-40.2	-74.2	36	6
2023-08-25T00:00	32070	9	-40.4	-74.4	42	6
2023-08-25T00:00	32119	9	-40.4	-74.4	46	6
2023-08-25T00:00	32144	9	-40.6	-74.5	49	6
2023-08-25T00:00	32147	9	-40.8	-74.1	50	6
2023-08-25T00:00	32185	9	-40.6	-73.9	49	6
2023-08-25T00:00	32238	9	-40.4	-73.8	44	5
2023-08-25T00:00	32249	9	-40.5	-73.9	41	4
2023-08-25T00:00	32274	9	-40.4	-74.4	37	4
2023-08-25T00:00	32296	9	-40.3	-74.9	34	4
2023-08-25T00:00	32324	9	-40.0	-74.7	31	4
2023-08-25T00:00	32351	9	-40.0	-75.4	30	4
2023-08-25T00:00	32378	9	-39.8	-75.2	32	4
2023-08-25T00:00	32387	9	-39.7	-75.9	36	4
2023-08-25T00:00	32398	9	-39.4	-75.7	41	4
2023-08-25T00:00	32427	9	-39.1	-75.5	47	4
2023-08-25T00:00	32431	9	-38.7	-74.4	52	4
2023-08-25T00:00	32480	9	-38.7	-73.7	56	3
2023-08-25T00:00	32487	9	-38.8	-73.2	61	3
2023-08-25T00:00	32516	8	-39.0	-72.8	69	3
2023-08-25T00:00	32566	8	-39.3	-72.5	92	3
2023-08-25T00:00	32601	8	-39.5	-72.6	102	3
2023-08-25T00:00	32622	8	-39.4	-73.1	108	3
2023-08-25T00:00	32636	8	-39.5	-73.1	109	3
2023-08-25T00:00	32639	8	-39.6	-73.8	106	3
2023-08-25T00:00	32642	8	-39.5	-73.1	98	3
2023-08-25T00:00	32653	8	-39.6	-73.2	86	2
2023-08-25T00:00	32714	8	-39.6	-73.2	71	2
2023-08-25T00:00	32718	8	-39.7	-73.3	58	2
2023-08-25T00:00	32750	8	-39.5	-73.1	51	3
2023-08-25T00:00	32782	8	-39.2	-73.5	49	4
2023-08-25T00:00	32790	8	-39.3	-74.2	50	4
2023-08-25T00:00	32844	8	-39.3	-74.2	53	4
2023-08-25T00:00	32879	8	-39.3	-74.9	55	5
2023-08-25T00:00	32913	8	-39.1	-74.7	56	4
2023-08-25T00:00	32921	8	-39.2	-74.8	56	4
2023-08-25T00:00	32957	8	-39.0	-74.6	55	4
2023-08-25T00:00	32969	8	-38.9	-74.6	57	3
2023-08-25T00:00	33001	8	-39.0	-75.4	64	3
2023-08-25T00:00	33012	8	-38.9	-75.3	76	2
2023-08-25T00:00	33060	8	-39.0	-74.6	90	2
2023-08-25T00:00	33067	8	-39.0	-74.6	103	3
2023-08-25T00:00	33088	8	-39.0	-74.6	113	3
2023-08-25T00:00	33116	8	-39.0	-74.6	121	3
2023-08-25T00:00	33141	8	-38.9	-74.6	127	2
2023-08-25T00:00	33170	8	-38.9	-75.3	135	2
2023-08-25T00:00	33186	8	-38.9	-76.2	146	2
2023-08-25T00:00	33204	8	-38.8	-76.1	166	1
2023-08-25T00:00	33233	8	-38.6	-76.9	191	1
2023-08-25T00:00	33244	8	-38.5	-76.9	211	2
2023-08-25T00:00	33251	8	-38.5	-76.9	225	2
2023-08-25T00:00	33289	8	-38.5	-76.9	237	2
2023-08-25T00:00	33313	8	-38.5	-76.9	252	2
2023-08-25T00:00	33322	8	-38.4	-76.8	265	2
2023-08-25T00:00	33336	8	-38.2	-76.6	276	3
2023-08-25T00:00	33346	8	-38.0	-76.5	285	3
2023-08-25T00:00	33373	7	-37.8	-76.4	292	3
2023-08-25T00:00	33409	7	-37.7	-76.3	299	3
2023-08-25T00:00	33444	7	-37.6	-76.2	306	3
2023-08-25T00:00	33477	7	-37.7	-76.3	313	3
2023-08-25T00:00	33492	7	-37.3	-77.2	328	2
2023-08-25T00:00	33538	7	-37.3	-77.2	340	2
2023-08-25T00:00	33553	7	-37.2	-77.1	4	1
2023-08-25T00:00	33587	7	-37.1	-77.0	7	2
2023-08-25T00:00	33612	7	-36.8	-76.8	1	2
2023-08-25T00:00	33656	7	-36.7	-76.7	357	2
2023-08-25T00:00	33680	7	-37.1	-77.0	355	3
2023-08-25T00:00	33695	7	-36.9	-76.9	354	3
2023-08-25T00:00	33724	7	-36.4	-76.5	354	4
2023-08-25T00:00	33745	7	-36.4	-76.5	354	4
2023-08-25T00:00	33762	7	-36.4	-76.5	354	5
2023-08-25T00:00	33768	7	-36.5	-76.6	355	5
2023-08-25T00:00	33826	7	-36.4	-76.5	357	6
2023-08-25T00:00	33849	7	-36.4	-76.5	4	6
2023-08-25T00:00	33891	7	-36.3	-76.5	7	6
2023-08-25T00:00	33927	7	-36.0	-76.3	17	5
2023-08-25T00:00	33932	7	-35.8	-76.1	24	5
2023-08-25T00:00	33960	7	-35.9	-76.2	31	4
2023-08-25T00:00	33997	7	-35.6	-76.0	40	4
2023-08-25T00:00	34011	7	-35.4	-75.8	48	3
2023-08-25T00:00	34049	7	-35.5	-75.9	60	2
2023-08-25T00:00	34066	7	-35.6	-76.0	60	2
2023-08-25T00:00	34079	7	-35.6	-76.0	52	1
2023-08-25T00:00	34097	7	-35.7	-76.1	25	1
2023-08-25T00:00	34135	7	-35.7	-76.1	340	1
2023-08-25T00:00	34149	7	-35.7	-74.9	292	2
2023-08-25T00:00	34182	7	-35.6	-74.8	282	2
2023-08-25T00:00	34217	7	-35.7	-74.9	278	2
2023-08-25T00:00	34219	7	-35.7	-76.1	279	2
2023-08-25T00:00	34234	7	-35.7	-76.1	285	2
2023-08-25T00:00	34259	7	-35.6	-76.0	293	2
2023-08-25T00:00	34271	7	-35.6	-76.0	301	2
2023-08-25T00:00	34308	7	-35.5	-75.9	310	2
2023-08-25T00:00	34324	7	-35.4	-75.8	320	2
2023-08-25T00:00	34325	7	-35.2	-75.7	330	2
2023-08-25T00:00	34367	7	-35.0	-75.6	351	2
2023-08-25T00:00	34399	6	-35.0	-75.6	359	3
2023-08-25T00:00	34421	6	-34.7	-75.4	7	3
2023-08-25T00:00	34424	6	-34.3	-75.1	20	4
2023-08-25T00:00	34471	6	-34.2	-75.0	24	4
2023-08-25T00:00	34485	6	-33.9	-74.8	28	4
2023-08-25T00:00	34504	6	-33.7	-74.7	31	4
2023-08-25T00:00	34524	6	-33.5	-74.5	34	4
2023-08-25T00:00	34565	6	-33.1	-73.1	46	3
2023-08-25T00:00	34591	6	-32.9	-72.9	78	2
2023-08-25T00:00	34609	6	-32.7	-72.8	91	2
2023-08-25T00:00	34618	6	-32.8	-74.1	101	2
2023-08-25T00:00	34637	6	-32.7	-74.0	108	2
2023-08-25T00:00	34641	6	-32.6	-73.9	120	2
2023-08-25T00:00	34672	6	-32.4	-73.8	127	2
2023-08-25T00:00	34686	6	-32.1	-73.6	142	3
2023-08-25T00:00	34734	6	-32.0	-73.5	147	3
2023-08-25T00:00	34735	6	-32.0	-73.5	148	3
2023-08-25T00:00	34758	6	-32.0	-73.5	138	3
2023-08-25T00:00	34798	6	-32.0	-73.5	114	3
2023-08-25T00:00	34830	6	-31.8	-73.4	81	3
2023-08-25T00:00	34841	6	-31.7	-73.3	75	4
2023-08-25T00:00	34845	6	-31.7	-73.3	70	4
2023-08-25T00:00	34888	6	-31.8	-73.4	64	5
2023-08-25T00:00	34900	6	-31.8	-73.4	63	5
2023-08-25T00:00	34912	6	-31.7	-73.3	60	6
2023-08-25T00:00	34913	6	-31.7	-73.3	59	6
2023-08-25T00:00	34936	6	-31.6	-73.2	59	6
2023-08-25T00:00	34967	6	-31.7	-73.3	59	6
2023-08-25T00:00	34978	6	-32.2	-73.6	64	7
2023-08-25T00:00	35021	6	-31.8	-73.4	64	7
2023-08-25T00:00	35049	6	-31.9	-73.4	61	9
2023-08-25T00:00	35074	6	-31.9	-73.4	58	9
2023-08-25T00:00	35080	6	-32.2	-73.6	57	10
2023-08-25T00:00	35091	6	-32.0	-73.5	56	11
2023-08-25T00:00	35117	6	-32.1	-73.6	57	11
2023-08-25T00:00	35183	6	-32.1	-73.6	60	11
2023-08-25T00:00	35213	6	-32.1	-73.6	70	10
2023-08-25T06:00	112	996	18.9	16.0	130	3
2023-08-25T06:00	139	993	19.3	16.0	156	4
2023-08-25T06:00	163	990	19.8	15.3	161	5
2023-08-25T06:00	188	987	20.9	14.9	167	6
2023-08-25T06:00	206	985	21.5	14.8	174	7
2023-08-25T06:00	231	982	21.6	14.7	181	7
2023-08-25T06:00	254	979	22.1	14.3	188	7
2023-08-25T06:00	277	977	22.2	14.3	195	6
2023-08-25T06:00	298	974	22.5	14.1	202	6
2023-08-25T06:00	323	972	22.4	14.1	206	5
2023-08-25T06:00	347	969	22.4	14.0	210	5
2023-08-25T06:00	372	966	22.4	13.9	212	5
2023-08-25T06:00	396	964	22.3	13.7	216	5
2023-08-25T06:00	420	961	22.1	13.7	220	4
2023-08-25T06:00	445	958	21.9	13.6	225	4
2023-08-25T06:00	470	955	21.8	13.7	231	4
2023-08-25T06:00	494	953	21.6	13.6	235	4
2023-08-25T06:00	519	950	21.5	13.6	239	4
2023-08-25T06:00	542	948	21.5	13.5	240	3
2023-08-25T06:00	566	945	21.6	13.4	238	2
2023-08-25T06:00	590	942	21.7	13.0	230	2
2023-08-25T06:00	622	939	21.9	12.6	214	2
2023-08-25T06:00	647	936	21.9	12.5	193	1
2023-08-25T06:00	673	933	22.1	12.2	175	1
2023-08-25T06:00	700	930	22.3	12.1	163	2
2023-08-25T06:00	731	927	22.3	12.0	158	2
2023-08-25T06:00	757	924	22.2	11.9	156	2
2023-08-25T06:00	788	921	22.1	11.9	160	1
2023-08-25T06:00	813	919	22.0	11.8	170	1
2023-08-25T06:00	837	916	21.8	11.8	184	1
2023-08-25T06:00	864	913	21.6	11.6	199	1
2023-08-25T06:00	891	910	21.3	11.5	206	1
2023-08-25T06:00	918	907	21.1	11.5	207	1
2023-08-25T06:00	950	904	20.9	11.3	208	1
2023-08-25T06:00	977	901	20.7	11.2	215	1
2023-08-25T06:00	1006	898	20.5	11.2	223	1
2023-08-25T06:00	1036	895	20.2	11.1	230	2
2023-08-25T06:00	1070	892	19.9	11.0	235	2
2023-08-25T06:00	1097	889	19.7	10.9	237	2
2023-08-25T06:00	1124	886	19.5	10.8	239	3
2023-08-25T06:00	1154	883	19.2	10.7	240	3
2023-08-25T06:00	1183	880	19.0	10.6	240	3
2023-08-25T06:00	1211	877	18.8	10.6	241	3
2023-08-25T06:00	1238	874	18.6	10.5	241	3
2023-08-25T06:00	1265	872	18.3	10.4	240	4
2023-08-25T06:00	1292	869	18.1	10.3	240	4
2023-08-25T06:00	1323	866	17.8	10.2	240	4
2023-08-25T06:00	1346	863	17.6	10.1	240	4
2023-08-25T06:00	1374	861	17.4	10.1	241	5
2023-08-25T06:00	1401	858	17.2	10.0	242	5
2023-08-25T06:00	1428	855	17.0	9.9	243	5
2023-08-25T06:00	1454	853	16.8	9.8	243	5
2023-08-25T06:00	1482	850	16.6	9.8	243	5
2023-08-25T06:00	1508	847	16.3	9.6	242	5
2023-08-25T06:00	1539	844	16.1	9.5	241	5
2023-08-25T06:00	1567	841	15.8	9.3	239	6
2023-08-25T06:00	1593	839	15.6	9.2	238	6
2023-08-25T06:00	1630	835	15.3	9.1	237	6
2023-08-25T06:00	1661	832	15.0	9.1	238	6
2023-08-25T06:00	1686	829	14.8	9.1	240	6
2023-08-25T06:00	1717	827	14.5	9.0	244	6
2023-08-25T06:00	1745	824	14.2	8.8	248	6
2023-08-25T06:00	1773	821	14.0	8.8	252	7
2023-08-25T06:00	1799	819	13.8	8.8	255	7
2023-08-25T06:00	1827	816	13.5	8.8	257	7
2023-08-25T06:00	1854	813	13.3	8.8	259	7
2023-08-25T06:00	1881	811	13.1	8.9	260	7
2023-08-25T06:00	1911	808	12.8	8.9	262	7
2023-08-25T06:00	1937	805	12.5	8.7	263	7
2023-08-25T06:00	1964	803	12.3	8.9	264	7
2023-08-25T06:00	1988	800	12.1	8.9	264	7
2023-08-25T06:00	2012	798	11.8	8.8	264	7
2023-08-25T06:00	2040	796	11.5	8.6	265	7
2023-08-25T06:00	2065	793	11.3	8.7	266	7
2023-08-25T06:00	2090	791	11.1	8.6	268	7
2023-08-25T06:00	2115	788	10.8	8.6	269	7
2023-08-25T06:00	2144	786	10.6	8.6	271	7
2023-08-25T06:00	2170	783	10.3	8.5	272	7
2023-08-25T06:00	2199	781	10.1	8.6	273	7
2023-08-25T06:00	2224	778	9.8	8.3	274	7
2023-08-25T06:00	2250	776	9.6	8.2	275	7
2023-08-25T06:00	2273	774	9.4	8.1	275	7
2023-08-25T06:00	2299	771	9.2	7.5	276	7
2023-08-25T06:00	2324	769	9.0	7.4	277	7
2023-08-25T06:00	2348	767	8.8	7.3	278	7
2023-08-25T06:00	2375	764	8.6	7.1	278	8
2023-08-25T06:00	2402	762	8.4	6.9	278	8
2023-08-25T06:00	2429	759	8.3	5.4	278	8
2023-08-25T06:00	2451	757	8.3	5.1	277	8
2023-08-25T06:00	2478	755	8.2	5.3	277	8
2023-08-25T06:00	2506	752	8.0	5.1	277	8
2023-08-25T06:00	2530	750	7.9	5.1	277	8
2023-08-25T06:00	2555	748	7.7	5.0	277	8
2023-08-25T06:00	2580	745	7.6	5.0	277	8
2023-08-25T06:00	2607	743	7.4	4.8	277	8
2023-08-25T06:00	2636	740	7.2	4.8	277	8
2023-08-25T06:00	2665	738	7.1	4.8	276	8
2023-08-25T06:00	2692	735	6.9	4.9	274	8
2023-08-25T06:00	2721	733	7.1	4.6	272	8
2023-08-25T06:00	2747	730	7.2	4.6	269	9
2023-08-25T06:00	2775	728	7.0	4.6	267	9
2023-08-25T06:00	2806	725	7.1	4.3	267	10
2023-08-25T06:00	2832	723	7.2	3.7	266	10
2023-08-25T06:00	2863	720	7.3	3.4	267	11
2023-08-25T06:00	2889	718	7.1	3.1	267	11
2023-08-25T06:00	2918	715	6.9	3.0	268	11
2023-08-25T06:00	2948	713	6.7	2.9	269	11
2023-08-25T06:00	2975	711	6.5	2.9	269	11
2023-08-25T06:00	3003	708	6.2	2.7	269	12
2023-08-25T06:00	3030	706	6.1	2.3	270	12
2023-08-25T06:00	3059	703	6.1	1.8	271	12
2023-08-25T06:00	3089	701	6.1	1.1	272	13
2023-08-25T06:00	3120	698	6.5	0.4	274	13
2023-08-25T06:00	3149	696	6.6	0.0	275	14
2023-08-25T06:00	3180	693	6.3	-0.1	277	14
2023-08-25T06:00	3205	691	6.1	-0.2	277	14
2023-08-25T06:00	3238	688	5.8	-0.3	278	14
2023-08-25T06:00	3265	686	5.7	-0.3	278	14
2023-08-25T06:00	3294	683	5.4	-0.5	279	14
2023-08-25T06:00	3321	681	5.2	-0.5	279	14
2023-08-25T06:00	3354	678	4.9	-0.6	280	14
2023-08-25T06:00	3384	676	4.7	-0.6	281	14
2023-08-25T06:00	3414	673	4.4	-0.9	281	15
2023-08-25T06:00	3442	671	4.2	-1.1	281	15
2023-08-25T06:00	3472	669	4.0	-1.1	281	16
2023-08-25T06:00	3504	666	3.7	-1.5	281	16
2023-08-25T06:00	3535	664	3.6	-1.9	281	17
2023-08-25T06:00	3565	661	3.5	-2.5	280	18
2023-08-25T06:00	3593	659	3.4	-3.1	280	18
2023-08-25T06:00	3626	656	3.3	-3.5	279	18
2023-08-25T06:00	3657	654	3.2	-4.6	279	19
2023-08-25T06:00	3687	651	3.1	-4.9	279	19
2023-08-25T06:00	3717	649	2.9	-4.6	278	18
2023-08-25T06:00	3746	647	2.6	-4.7	278	18
2023-08-25T06:00	3774	644	2.4	-4.8	278	18
2023-08-25T06:00	3804	642	2.1	-4.9	278	18
2023-08-25T06:00	3833	640	1.8	-4.8	278	19
2023-08-25T06:00	3859	637	1.6	-4.6	277	19
2023-08-25T06:00	3890	635	1.2	-4.4	277	18
2023-08-25T06:00	3917	633	1.0	-4.2	277	18
2023-08-25T06:00	3947	631	0.7	-4.3	277	18
2023-08-25T06:00	3974	628	0.4	-4.3	277	18
2023-08-25T06:00	4004	626	0.2	-4.6	277	18
2023-08-25T06:00	4030	624	-0.1	-4.4	278	18
2023-08-25T06:00	4060	622	-0.4	-4.1	278	18
2023-08-25T06:00	4091	619	-0.6	-4.2	278	18
2023-08-25T06:00	4118	617	-0.9	-4.2	278	18
2023-08-25T06:00	4145	615	-1.2	-4.4	278	18
2023-08-25T06:00	4178	613	-1.5	-4.7	278	18
2023-08-25T06:00	4207	610	-1.7	-4.7	278	19
2023-08-25T06:00	4236	608	-2.0	-4.7	278	19
2023-08-25T06:00	4265	606	-2.3	-4.7	278	19
2023-08-25T06:00	4293	604	-2.6	-4.8	279	19
2023-08-25T06:00	4323	602	-2.8	-4.6	279	19
2023-08-25T06:00	4349	600	-3.0	-4.5	280	19
2023-08-25T06:00	4378	597	-3.3	-4.7	281	20
2023-08-25T06:00	4409	595	-3.5	-4.7	281	20
2023-08-25T06:00	4436	593	-3.7	-4.8	282	20
2023-08-25T06:00	4463	591	-3.8	-4.9	282	20
2023-08-25T06:00	4493	589	-4.1	-5.1	283	20
2023-08-25T06:00	4521	587	-4.3	-5.1	283	20
2023-08-25T06:00	4551	585	-4.6	-5.2	284	20
2023-08-25T06:00	4579	582	-4.8	-5.4	284	20
2023-08-25T06:00	4610	580	-4.8	-5.9	285	19
2023-08-25T06:00	4635	578	-4.5	-7.1	285	19
2023-08-25T06:00	4665	576	-4.3	-7.9	285	19
2023-08-25T06:00	4694	574	-4.4	-8.2	285	18
2023-08-25T06:00	4722	572	-4.6	-8.3	286	18
2023-08-25T06:00	4749	570	-4.9	-8.4	286	18
2023-08-25T06:00	4780	568	-5.1	-8.4	286	18
2023-08-25T06:00	4810	566	-5.4	-8.6	287	18
2023-08-25T06:00	4840	563	-5.6	-8.8	288	18
2023-08-25T06:00	4866	561	-5.9	-9.0	288	18
2023-08-25T06:00	4896	559	-6.1	-9.0	289	18
2023-08-25T06:00	4927	557	-6.3	-9.1	290	18
2023-08-25T06:00	4956	555	-6.6	-9.2	290	18
2023-08-25T06:00	4985	553	-6.9	-9.4	290	17
2023-08-25T06:00	5015	551	-7.2	-9.5	289	17
2023-08-25T06:00	5045	549	-7.4	-9.7	288	17
2023-08-25T06:00	5072	547	-7.7	-9.8	286	16
2023-08-25T06:00	5102	545	-7.9	-9.9	284	16
2023-08-25T06:00	5130	543	-8.0	-10.4	282	16
2023-08-25T06:00	5160	541	-8.1	-10.6	280	16
2023-08-25T06:00	5190	539	-8.2	-11.3	279	16
2023-08-25T06:00	5217	537	-7.7	-11.9	279	16
2023-08-25T06:00	5245	535	-7.6	-12.3	279	17
2023-08-25T06:00	5275	533	-7.7	-12.5	281	17
2023-08-25T06:00	5304	531	-7.9	-12.6	282	17
2023-08-25T06:00	5335	529	-8.0	-12.9	284	18
2023-08-25T06:00	5366	527	-8.1	-13.4	286	18
2023-08-25T06:00	5397	525	-8.1	-14.0	287	19
2023-08-25T06:00	5428	522	-7.8	-14.8	288	19
2023-08-25T06:00	5457	520	-7.8	-15.7	290	19
2023-08-25T06:00	5490	518	-7.5	-16.8	291	18
2023-08-25T06:00	5519	516	-7.5	-17.6	292	18
2023-08-25T06:00	5548	514	-7.5	-18.1	293	18
2023-08-25T06:00	5579	512	-7.5	-18.0	294	18
2023-08-25T06:00	5607	511	-7.5	-17.4	294	18
2023-08-25T06:00	5636	509	-7.7	-17.1	293	18
2023-08-25T06:00	5665	507	-7.9	-16.9	292	18
2023-08-25T06:00	5694	505	-8.2	-17.0	291	18
2023-08-25T06:00	5725	503	-8.5	-17.2	290	19
2023-08-25T06:00	5753	501	-8.7	-17.1	290	19
2023-08-25T06:00	5782	499	-9.0	-17.4	289	19
2023-08-25T06:00	5813	497	-9.1	-17.7	289	19
2023-08-25T06:00	5842	495	-9.3	-18.0	289	19
2023-08-25T06:00	5872	493	-9.5	-18.2	288	18
2023-08-25T06:00	5901	492	-9.8	-18.6	288	18
2023-08-25T06:00	5932	490	-10.1	-19.0	286	18
2023-08-25T06:00	5964	488	-10.2	-19.9	284	18
2023-08-25T06:00	5997	486	-10.4	-20.4	282	18
2023-08-25T06:00	6029	484	-10.6	-20.7	279	18
2023-08-25T06:00	6058	482	-10.9	-20.9	277	19
2023-08-25T06:00	6090	480	-11.0	-20.8	275	19
2023-08-25T06:00	6119	478	-11.2	-20.8	273	19
2023-08-25T06:00	6148	476	-11.4	-20.7	272	19
2023-08-25T06:00	6182	474	-11.7	-20.7	272	19
2023-08-25T06:00	6213	472	-12.0	-20.7	271	19
2023-08-25T06:00	6248	470	-12.3	-20.8	270	20
2023-08-25T06:00	6275	468	-12.6	-20.9	269	20
2023-08-25T06:00	6306	466	-12.8	-20.8	268	20
2023-08-25T06:00	6335	465	-12.9	-20.9	267	20
2023-08-25T06:00	6357	463	-12.9	-21.6	266	20
2023-08-25T06:00	6379	462	-12.9	-21.9	266	19
2023-08-25T06:00	6403	460	-13.0		266	19
2023-08-25T06:00	6428	459	-13.2	-22.2	267	19
2023-08-25T06:00	6450	458	-13.5	-22.3	268	19
2023-08-25T06:00	6474	456	-13.7	-22.3	269	19
2023-08-25T06:00	6497	455	-13.9	-22.5	270	19
2023-08-25T06:00	6528	453	-14.1	-22.7	271	19
2023-08-25T06:00	6556	451	-14.4	-22.7	271	19
2023-08-25T06:00	6592	449	-14.7	-22.5	270	19
2023-08-25T06:00	6614	448	-14.9	-22.6	270	19
2023-08-25T06:00	6635	446	-15.0	-22.8	269	18
2023-08-25T06:00	6663	445	-15.3	-23.0	269	18
2023-08-25T06:00	6690	443	-15.5	-23.1	269	17
2023-08-25T06:00	6715	442	-15.7	-23.1	269	17
2023-08-25T06:00	6740	440	-15.9	-23.1	270	17
2023-08-25T06:00	6762	439	-16.1	-23.3	270	17
2023-08-25T06:00	6784	438	-16.3	-23.4	270	17
2023-08-25T06:00	6805	437	-16.4	-23.9	270	17
2023-08-25T06:00	6828	435	-16.4	-25.0	270	18
2023-08-25T06:00	6852	434	-16.5	-26.7	269	18
2023-08-25T06:00	6887	432	-16.5	-28.5	268	19
2023-08-25T06:00	6917	430	-16.5	-30.0	267	19
2023-08-25T06:00	6946	428	-16.5	-28.8	266	20
2023-08-25T06:00	6975	427	-16.7	-28.1	265	20
2023-08-25T06:00	7002	425	-16.9	-27.6	265	20
2023-08-25T06:00	7024	424	-17.1	-27.5	265	20
2023-08-25T06:00	7047	423	-17.3	-27.4	266	20
2023-08-25T06:00	7070	421	-17.6	-27.6	266	20
2023-08-25T06:00	7091	420	-17.8	-27.8	266	20
2023-08-25T06:00	7114	419	-18.0	-27.8	267	21
2023-08-25T06:00	7139	418	-18.2	-27.9	267	21
2023-08-25T06:00	7161	416	-18.4	-28.1	268	21
2023-08-25T06:00	7185	415	-18.6	-28.3	268	20
2023-08-25T06:00	7210	414	-18.9	-28.5	268	20
2023-08-25T06:00	7234	412	-19.1		269	20
2023-08-25T06:00	7257	411	-19.3	-28.4	269	20
2023-08-25T06:00	7279	410	-19.5	-28.6	270	20
2023-08-25T06:00	7304	409	-19.8	-28.7	270	20
2023-08-25T06:00	7324	407	-20.0	-28.8	270	21
2023-08-25T06:00	7347	406	-20.2	-28.9	271	21
2023-08-25T06:00	7367	405	-20.4	-29.0	271	21
2023-08-25T06:00	7398	403	-20.7	-29.7	272	21
2023-08-25T06:00	7423	402	-20.9	-30.0	272	21
2023-08-25T06:00	7446	401	-21.1	-30.6	272	21
2023-08-25T06:00	7472	399	-21.3	-32.2	272	21
2023-08-25T06:00	7502	398	-21.4	-34.7	272	21
2023-08-25T06:00	7526	396	-21.6	-36.6	272	21
2023-08-25T06:00	7548	395	-21.7	-38.2	272	21
2023-08-25T06:00	7574	394	-21.9	-38.5	273	21
2023-08-25T06:00	7597	393	-22.0	-39.5	273	21
2023-08-25T06:00	7621	391	-22.2	-39.8	273	21
2023-08-25T06:00	7645	390	-22.5	-40.2	274	21
2023-08-25T06:00	7672	389	-22.7	-40.3	274	21
2023-08-25T06:00	7694	387	-22.9	-40.3	273	21
2023-08-25T06:00	7715	386	-23.1	-40.3	273	21
2023-08-25T06:00	7736	385	-23.3	-40.3	273	21
2023-08-25T06:00	7757	384	-23.5	-40.4	272	21
2023-08-25T06:00	7784	383	-23.7	-40.4	272	21
2023-08-25T06:00	7816	381	-24.0	-40.5	272	21
2023-08-25T06:00	7845	379	-24.3	-40.5	271	21
2023-08-25T06:00	7868	378	-24.5	-40.1	270	22
2023-08-25T06:00	7890	377	-24.7	-39.5	270	22
2023-08-25T06:00	7915	376	-24.9	-39.4	270	22
2023-08-25T06:00	7939	375	-25.1	-39.3	270	22
2023-08-25T06:00	7962	373	-25.4	-39.4	270	22
2023-08-25T06:00	7985	372	-25.6	-39.0	270	22
2023-08-25T06:00	8011	371	-25.8	-39.0	270	22
2023-08-25T06:00	8040	369	-25.9	-40.3	270	22
2023-08-25T06:00	8067	368	-26.1	-39.4	271	22
2023-08-25T06:00	8091	367	-26.4	-39.1	271	22
2023-08-25T06:00	8118	365	-26.6	-39.2	270	22
2023-08-25T06:00	8145	364	-26.9	-39.2	270	22
2023-08-25T06:00	8169	363	-27.1	-39.0	270	22
2023-08-25T06:00	8192	362	-27.3	-38.3	270	22
2023-08-25T06:00	8214	361	-27.5	-38.1	270	22
2023-08-25T06:00	8236	359	-27.7	-38.0	270	21
2023-08-25T06:00	8260	358	-28.0	-38.1	270	21
2023-08-25T06:00	8283	357	-28.2	-38.5	269	21
2023-08-25T06:00	8304	356	-28.4	-38.4	269	21
2023-08-25T06:00	8327	355	-28.6	-38.7	269	21
2023-08-25T06:00	8352	354	-28.8	-39.1	269	21
2023-08-25T06:00	8374	353	-29.0	-39.2	270	21
2023-08-25T06:00	8393	352	-29.2	-39.2	270	21
2023-08-25T06:00	8417	351	-29.5	-39.4	270	22
2023-08-25T06:00	8441	349	-29.7	-39.4	271	22
2023-08-25T06:00	8466	348	-29.9	-39.5	271	22
2023-08-25T06:00	8489	347	-30.2	-39.6	270	22
2023-08-25T06:00	8513	346	-30.4	-39.4	270	22
2023-08-25T06:00	8537	345	-30.5	-40.5	269	22
2023-08-25T06:00	8559	344	-30.7	-40.8	269	23
2023-08-25T06:00	8581	343	-30.9	-41.1	269	23
2023-08-25T06:00	8605	341	-31.1	-41.4	270	23
2023-08-25T06:00	8629	340	-31.3	-42.0	270	23
2023-08-25T06:00	8654	339	-31.5	-43.1	271	23
2023-08-25T06:00	8689	337	-31.8	-43.3	271	23
2023-08-25T06:00	8716	336	-32.0	-43.7	271	23
2023-08-25T06:00	8739	335	-32.2	-43.7	270	23
2023-08-25T06:00	8763	334	-32.5	-44.3	269	23
2023-08-25T06:00	8790	333	-32.6	-46.1	269	23
2023-08-25T06:00	8815	331	-32.8	-48.2	268	23
2023-08-25T06:00	8840	330	-32.9	-50.5	268	23
2023-08-25T06:00	8862	329	-32.9	-52.2	268	22
2023-08-25T06:00	8885	328	-33.0	-51.8	267	22
2023-08-25T06:00	8906	327	-33.2	-51.7	267	22
2023-08-25T06:00	8925	326	-33.4	-51.6	267	22
2023-08-25T06:00	8948	325	-33.5	-51.5	266	22
2023-08-25T06:00	8968	324	-33.7	-51.5	266	21
2023-08-25T06:00	8989	323	-33.9	-51.4	265	21
2023-08-25T06:00	9009	322	-34.1	-51.1	265	21
2023-08-25T06:00	9028	322	-34.2	-50.6	264	21
2023-08-25T06:00	9050	321	-34.4	-49.7	264	21
2023-08-25T06:00	9069	320	-34.6	-49.1	264	21
2023-08-25T06:00	9091	319	-34.8	-49.7	265	21
2023-08-25T06:00	9111	318	-35.0	-49.9	265	21
2023-08-25T06:00	9133	317	-35.2	-50.1	266	21
2023-08-25T06:00	9157	316	-35.4	-51.0	266	21
2023-08-25T06:00	9179	315	-35.5	-53.3	266	21
2023-08-25T06:00	9202	314	-35.6	-55.0	267	21
2023-08-25T06:00	9224	313	-35.7	-54.5	267	21
2023-08-25T06:00	9251	311	-35.9	-54.3	267	21
2023-08-25T06:00	9270	310	-36.1	-54.1	266	21
2023-08-25T06:00	9293	309	-36.2	-54.0	266	21
2023-08-25T06:00	9315	309	-36.4	-53.0	265	22
2023-08-25T06:00	9338	307	-36.6	-53.7	265	22
2023-08-25T06:00	9365	306	-36.6	-55.9	265	23
2023-08-25T06:00	9392	305	-36.8	-56.9	265	23
2023-08-25T06:00	9421	304	-37.0	-57.3	265	24
2023-08-25T06:00	9454	302	-37.3	-56.9	265	25
2023-08-25T06:00	9486	301	-37.5	-56.3	266	26
2023-08-25T06:00	9522	300	-37.8	-56.6	266	27
2023-08-25T06:00	9552	298	-38.1	-55.7	266	28
2023-08-25T06:00	9585	297	-38.2	-55.5	266	29
2023-08-25T06:00	9618	295	-38.3	-56.8	265	30
2023-08-25T06:00	9646	294	-38.4	-57.8	264	31
2023-08-25T06:00	9671	293	-38.6	-58.2	264	31
2023-08-25T06:00	9694	292	-38.6	-58.3	263	32
2023-08-25T06:00	9714	291	-38.8	-58.1	263	32
2023-08-25T06:00	9732	290	-38.9	-57.9	262	32
2023-08-25T06:00	9755	289	-39.1	-57.8	262	32
2023-08-25T06:00	9779	288	-39.2	-57.6	262	32
2023-08-25T06:00	9804	287	-39.5	-57.1	262	32
2023-08-25T06:00	9827	286	-39.7	-55.2	262	32
2023-08-25T06:00	9854	285	-39.9	-52.0	262	32
2023-08-25T06:00	9879	284	-40.2	-54.8	262	32
2023-08-25T06:00	9903	283	-40.4	-53.0	262	33
2023-08-25T06:00	9930	282	-40.6	-52.7	262	33
2023-08-25T06:00	9951	281	-40.7	-54.9	262	33
2023-08-25T06:00	9972	280	-40.9	-55.1	263	33
2023-08-25T06:00	9992	280	-41.1	-54.3	263	33
2023-08-25T06:00	10014	279	-41.2	-52.8	263	33
2023-08-25T06:00	10036	278	-41.5	-51.8	263	33
2023-08-25T06:00	10059	277	-41.6	-54.1	263	33
2023-08-25T06:00	10081	276	-41.8	-56.3	263	33
2023-08-25T06:00	10105	275	-42.0	-55.8	263	33
2023-08-25T06:00	10127	274	-42.2	-55.7	263	33
2023-08-25T06:00	10152	273	-42.3	-56.0	263	33
2023-08-25T06:00	10175	272	-42.5	-56.5	263	33
2023-08-25T06:00	10196	271	-42.7	-56.9	263	33
2023-08-25T06:00	10221	270	-42.9	-56.7	263	32
2023-08-25T06:00	10242	269	-43.1	-55.7	263	32
2023-08-25T06:00	10267	268	-43.4	-53.2	263	32
2023-08-25T06:00	10290	267	-43.5	-52.1	263	33
2023-08-25T06:00	10315	266	-43.8	-51.3	263	33
2023-08-25T06:00	10341	265	-44.1	-51.4	263	33
2023-08-25T06:00	10365	265	-44.3	-51.5	263	32
2023-08-25T06:00	10388	264	-44.5	-51.8	263	32
2023-08-25T06:00	10414	263	-44.8	-51.7	263	32
2023-08-25T06:00	10438	262	-45.0	-51.7	263	32
2023-08-25T06:00	10461	261	-45.2	-51.8	263	32
2023-08-25T06:00	10484	260	-45.5	-52.0	263	32
2023-08-25T06:00	10509	259	-45.7	-52.4	262	32
2023-08-25T06:00	10532	258	-45.8	-52.9	262	32
2023-08-25T06:00	10554	257	-46.0	-53.4	262	33
2023-08-25T06:00	10579	256	-46.3	-53.5	261	33
2023-08-25T06:00	10607	255	-46.5	-53.7	261	32
2023-08-25T06:00	10632	254	-46.6	-53.8	260	32
2023-08-25T06:00	10659	253	-46.9		260	32
2023-08-25T06:00	10683	252	-47.1	-54.2	259	32
2023-08-25T06:00	10711	251	-47.3	-54.3	259	32
2023-08-25T06:00	10737	250	-47.6	-55.0	259	32
2023-08-25T06:00	10761	249	-47.7	-55.9	259	32
2023-08-25T06:00	10783	248	-47.8	-56.2	259	33
2023-08-25T06:00	10808	247	-48.1	-56.6	259	33
2023-08-25T06:00	10831	247	-48.2	-56.7	259	33
2023-08-25T06:00	10853	246	-48.4	-56.6	259	33
2023-08-25T06:00	10878	245	-48.6	-57.4	259	33
2023-08-25T06:00	10901	244	-48.7	-59.3	258	33
2023-08-25T06:00	10925	243	-48.8	-60.5	258	33
2023-08-25T06:00	10948	242	-49.1	-59.5	258	33
2023-08-25T06:00	10971	241	-49.2	-58.5	258	33
2023-08-25T06:00	10996	240	-49.5	-58.3	258	33
2023-08-25T06:00	11020	240	-49.7	-57.8	258	33
2023-08-25T06:00	11042	239	-49.9	-57.2	258	33
2023-08-25T06:00	11063	238	-49.9	-57.3	258	33
2023-08-25T06:00	11085	237	-50.1	-59.0	258	33
2023-08-25T06:00	11109	236	-50.2	-60.9	258	33
2023-08-25T06:00	11132	236	-50.3	-61.4	257	33
2023-08-25T06:00	11153	235	-50.5	-61.3	257	32
2023-08-25T06:00	11177	234	-50.6	-61.2	256	32
2023-08-25T06:00	11199	233	-50.8	-61.2	256	32
2023-08-25T06:00	11219	232	-51.0	-61.2	256	32
2023-08-25T06:00	11242	232	-51.2	-61.1	255	32
2023-08-25T06:00	11263	231	-51.4	-61.3	255	32
2023-08-25T06:00	11285	230	-51.5	-61.4	255	33
2023-08-25T06:00	11309	229	-51.7	-61.5	256	33
2023-08-25T06:00	11330	228	-51.9	-61.4	256	33
2023-08-25T06:00	11354	228	-52.1	-61.5	256	33
2023-08-25T06:00	11374	227	-52.3	-61.6	256	33
2023-08-25T06:00	11397	226	-52.5	-61.8	256	34
2023-08-25T06:00	11421	225	-52.7	-61.8	255	34
2023-08-25T06:00	11445	224	-52.9	-61.8	255	34
2023-08-25T06:00	11472	223	-53.1	-62.0	255	34
2023-08-25T06:00	11499	223	-53.3	-62.1	255	34
2023-08-25T06:00	11522	222	-53.4	-62.2	255	34
2023-08-25T06:00	11546	221	-53.6	-62.2	255	34
2023-08-25T06:00	11568	220	-53.8	-62.2	255	34
2023-08-25T06:00	11590	219	-53.9	-62.1	255	34
2023-08-25T06:00	11612	219	-54.1	-62.1	255	35
2023-08-25T06:00	11635	218	-54.3	-62.1	256	35
2023-08-25T06:00	11660	217	-54.5	-62.3	256	35
2023-08-25T06:00	11683	216	-54.7	-62.8	256	36
2023-08-25T06:00	11706	215	-54.9	-63.3	256	36
2023-08-25T06:00	11727	215	-55.0	-63.4	256	36
2023-08-25T06:00	11747	214	-55.1	-63.4	256	36
2023-08-25T06:00	11770	213	-55.3	-63.6	256	36
2023-08-25T06:00	11791	213	-55.4	-63.8	256	36
2023-08-25T06:00	11814	212	-55.5	-64.1	255	36
2023-08-25T06:00	11834	211	-55.6	-64.5	255	37
2023-08-25T06:00	11856	210	-55.7	-64.8	254	37
2023-08-25T06:00	11878	210	-55.9	-65.1	254	37
2023-08-25T06:00	11898	209	-56.0	-65.2	254	37
2023-08-25T06:00	11919	208	-56.2	-65.4	255	37
2023-08-25T06:00	11940	208	-56.4	-65.5	255	38
2023-08-25T06:00	11962	207	-56.6	-65.6	255	38
2023-08-25T06:00	11985	206	-56.5	-65.6	255	38
2023-08-25T06:00	12004	206	-56.5	-65.7	255	38
2023-08-25T06:00	12027	205	-56.5	-65.8	255	38
2023-08-25T06:00	12048	204	-56.7	-65.9	255	37
2023-08-25T06:00	12071	203	-56.8	-66.1	254	37
2023-08-25T06:00	12093	203	-56.8	-66.3	254	37
2023-08-25T06:00	12114	202	-56.9	-66.5	254	37
2023-08-25T06:00	12134	201	-57.0	-66.6	253	37
2023-08-25T06:00	12155	201	-57.2	-66.6	253	37
2023-08-25T06:00	12178	200	-57.4	-66.7	253	37
2023-08-25T06:00	12200	199	-57.6	-66.7	253	37
2023-08-25T06:00	12220	199	-57.7	-66.8	253	36
2023-08-25T06:00	12243	198	-57.8	-66.9	253	36
2023-08-25T06:00	12264	197	-57.9	-67.2	253	36
2023-08-25T06:00	12287	197	-57.9	-67.6	254	35
2023-08-25T06:00	12307	196	-57.8	-68.0	254	35
2023-08-25T06:00	12329	195	-57.7	-68.2	255	35
2023-08-25T06:00	12350	195	-58.0	-68.6	255	36
2023-08-25T06:00	12372	194	-57.9	-68.6	256	36
2023-08-25T06:00	12393	193	-58.0	-68.7	256	36
2023-08-25T06:00	12417	193	-58.1	-68.7	257	37
2023-08-25T06:00	12440	192	-58.2	-68.8	258	37
2023-08-25T06:00	12465	191	-58.4	-69.0	258	36
2023-08-25T06:00	12486	190	-58.5	-69.0	259	36
2023-08-25T06:00	12507	190	-58.7	-69.2	260	36
2023-08-25T06:00	12529	189	-58.8	-69.4	261	36
2023-08-25T06:00	12551	189	-58.8	-69.6	262	36
2023-08-25T06:00	12574	188	-58.8	-69.7	262	36
2023-08-25T06:00	12595	187	-58.8	-69.7	262	36
2023-08-25T06:00	12619	187	-58.8	-69.6	262	36
2023-08-25T06:00	12640	186	-59.0	-69.6	262	36
2023-08-25T06:00	12661	185	-59.0		262	36
2023-08-25T06:00	12684	185	-59.1	-69.9	263	36
2023-08-25T06:00	12706	184	-58.9	-69.8	263	36
2023-08-25T06:00	12730	183	-58.7	-69.5	263	36
2023-08-25T06:00	12749	183	-58.8	-69.4	264	36
2023-08-25T06:00	12773	182	-59.0	-69.6	263	36
2023-08-25T06:00	12794	181	-59.1	-70.0	263	36
2023-08-25T06:00	12817	181	-59.0	-70.7	264	35
2023-08-25T06:00	12840	180	-58.8	-71.4	264	35
2023-08-25T06:00	12862	179	-58.5	-71.9	264	35
2023-08-25T06:00	12884	179	-58.5	-72.5	265	35
2023-08-25T06:00	12905	178	-58.5	-73.1	266	35
2023-08-25T06:00	12929	178	-58.2	-73.5	267	34
2023-08-25T06:00	12953	177	-58.3	-74.1	267	34
2023-08-25T06:00	12975	176	-58.4	-74.5	268	34
2023-08-25T06:00	12995	176	-58.3	-74.7	268	34
2023-08-25T06:00	13020	175	-58.2	-74.8	269	33
2023-08-25T06:00	13039	174	-57.9	-74.5	269	33
2023-08-25T06:00	13060	174	-57.9	-74.4	269	32
2023-08-25T06:00	13082	173	-58.0	-74.3	269	31
2023-08-25T06:00	13105	173	-58.1	-74.3	270	31
2023-08-25T06:00	13128	172	-57.8	-74.2	270	30
2023-08-25T06:00	13151	171	-57.6	-74.5	270	30
2023-08-25T06:00	13172	171	-57.4	-75.0	271	30
2023-08-25T06:00	13196	170	-57.0	-75.2	271	30
2023-08-25T06:00	13217	170	-56.7	-75.4	272	30
2023-08-25T06:00	13240	169	-56.5	-75.7	272	30
2023-08-25T06:00	13264	168	-56.5	-76.0	273	30
2023-08-25T06:00	13288	168	-56.5	-76.1	274	30
2023-08-25T06:00	13310	167	-56.6	-76.3	275	29
2023-08-25T06:00	13335	167	-56.5	-76.2	276	29
2023-08-25T06:00	13354	166	-56.6	-76.3	277	28
2023-08-25T06:00	13375	165	-56.6	-76.3	279	28
2023-08-25T06:00	13397	165	-56.6	-76.4	280	27
2023-08-25T06:00	13419	164	-56.7	-76.4	281	27
2023-08-25T06:00	13444	164	-56.8	-76.6	282	26
2023-08-25T06:00	13473	163	-56.8	-76.7	283	25
2023-08-25T06:00	13500	162	-56.7	-76.8	284	25
2023-08-25T06:00	13526	162	-56.8	-76.9	284	24
2023-08-25T06:00	13551	161	-57.0	-77.1	284	23
2023-08-25T06:00	13574	160	-57.0	-77.4	284	22
2023-08-25T06:00	13602	160	-57.0	-77.6	283	20
2023-08-25T06:00	13633	159	-57.0	-77.9	282	19
2023-08-25T06:00	13664	158	-57.1	-78.2	281	18
2023-08-25T06:00	13700	157	-57.2	-78.6	279	17
2023-08-25T06:00	13725	157	-57.4	-78.7	278	17
2023-08-25T06:00	13747	156	-57.7	-79.0	276	17
2023-08-25T06:00	13770	155	-57.8	-79.1	274	17
2023-08-25T06:00	13792	155	-57.8	-79.1	272	17
2023-08-25T06:00	13817	154	-58.0		271	17
2023-08-25T06:00	13838	154	-58.0		269	17
2023-08-25T06:00	13860	153	-58.1	-79.0	268	17
2023-08-25T06:00	13881	153	-58.2	-79.0	267	18
2023-08-25T06:00	13904	152	-58.4		266	18
2023-08-25T06:00	13927	152	-58.6	-79.3	266	18
2023-08-25T06:00	13950	151	-58.5	-79.4	265	19
2023-08-25T06:00	13972	150	-58.5	-79.6	265	19
2023-08-25T06:00	13996	150	-58.4	-80.0	265	20
2023-08-25T06:00	14018	149	-58.3	-80.4	264	20
2023-08-25T06:00	14042	149	-58.1	-80.7	264	20
2023-08-25T06:00	14066	148	-58.1	-81.1	264	21
2023-08-25T06:00	14087	148	-58.0	-81.4	264	21
2023-08-25T06:00	14110	147	-58.0	-81.8	265	22
2023-08-25T06:00	14132	147	-57.8	-82.0	267	22
2023-08-25T06:00	14153	146	-57.2	-82.0	269	23
2023-08-25T06:00	14176	146	-56.5	-82.0	271	23
2023-08-25T06:00	14196	145	-56.1	-81.9	273	23
2023-08-25T06:00	14220	145	-55.9	-81.8	275	23
2023-08-25T06:00	14243	144	-56.1	-81.9	276	23
2023-08-25T06:00	14266	144	-56.1	-81.9	277	23
2023-08-25T06:00	14289	143	-56.2	-82.0	277	23
2023-08-25T06:00	14308	143	-56.0	-81.8	276	23
2023-08-25T06:00	14331	142	-55.9	-81.8	275	23
2023-08-25T06:00	14354	142	-56.1	-81.9	274	23
2023-08-25T06:00	14372	141	-56.2	-82.0	274	23
2023-08-25T06:00	14397	141	-56.2	-82.0	274	23
2023-08-25T06:00	14420	140	-56.1	-81.9	273	23
2023-08-25T06:00	14438	140	-56.1	-81.9	274	22
2023-08-25T06:00	14461	139	-56.0	-81.8	274	22
2023-08-25T06:00	14483	139	-56.0	-81.8	274	22
2023-08-25T06:00	14504	138	-56.1	-81.9	275	22
2023-08-25T06:00	14528	138	-56.1	-81.9	276	22
2023-08-25T06:00	14551	137	-56.2	-81.7	276	22
2023-08-25T06:00	14573	137	-56.3	-81.8	277	22
2023-08-25T06:00	14596	136	-56.3	-81.8	277	22
2023-08-25T06:00	14620	136	-56.3	-82.1	277	21
2023-08-25T06:00	14642	135	-56.1	-81.9	276	21
2023-08-25T06:00	14664	135	-56.1	-81.9	275	21
2023-08-25T06:00	14688	134	-56.1	-82.2	274	20
2023-08-25T06:00	14711	134	-56.2	-82.3	273	20
2023-08-25T06:00	14733	133	-56.3	-82.3	272	20
2023-08-25T06:00	14764	133	-56.2	-82.3	271	20
2023-08-25T06:00	14785	132	-55.9	-82.0	270	19
2023-08-25T06:00	14809	132	-55.9	-82.0	269	19
2023-08-25T06:00	14832	131	-56.1	-82.2	269	18
2023-08-25T06:00	14855	131	-56.3	-82.3	269	18
2023-08-25T06:00	14878	130	-56.1	-82.2	268	18
2023-08-25T06:00	14899	130	-56.1	-82.2	268	17
2023-08-25T06:00	14921	130	-56.1	-82.2	267	17
2023-08-25T06:00	14943	129	-56.2	-82.3	267	17
2023-08-25T06:00	14968	129	-56.3	-82.1	266	17
2023-08-25T06:00	14990	128	-56.4	-82.1	264	17
2023-08-25T06:00	15012	128	-56.6	-82.3	263	17
2023-08-25T06:00	15033	127	-56.7	-82.1	261	17
2023-08-25T06:00	15059	127	-56.9	-82.3	259	17
2023-08-25T06:00	15082	126	-57.1	-82.2	257	17
2023-08-25T06:00	15108	126	-57.3	-82.3	254	18
2023-08-25T06:00	15137	125	-57.3	-82.3	252	18
2023-08-25T06:00	15160	125	-57.4	-82.2	249	19
2023-08-25T06:00	15187	124	-57.6	-82.3	247	19
2023-08-25T06:00	15209	124	-57.6	-82.3	246	20
2023-08-25T06:00	15231	123	-57.7	-82.4	245	20
2023-08-25T06:00	15257	123	-57.8	-82.2	245	21
2023-08-25T06:00	15279	122	-58.0	-82.4	246	21
2023-08-25T06:00	15300	122	-58.1	-82.5	247	22
2023-08-25T06:00	15319	122	-57.9	-82.3	248	22
2023-08-25T06:00	15342	121	-57.9	-82.3	249	23
2023-08-25T06:00	15366	121	-58.0	-82.4	251	23
2023-08-25T06:00	15388	120	-58.1	-82.5	253	23
2023-08-25T06:00	15411	120	-58.0	-82.4	254	23
2023-08-25T06:00	15432	120	-58.0	-82.6	255	23
2023-08-25T06:00	15456	119	-57.9	-82.6	257	23
2023-08-25T06:00	15476	119	-57.5	-82.5	258	23
2023-08-25T06:00	15499	118	-57.3	-82.3	259	22
2023-08-25T06:00	15520	118	-57.5	-82.7	261	22
2023-08-25T06:00	15543	117	-57.4	-82.7	262	22
2023-08-25T06:00	15565	117	-57.5	-82.7	263	22
2023-08-25T06:00	15588	117	-57.6	-82.6	263	22
2023-08-25T06:00	15610	116	-57.7	-82.6	264	22
2023-08-25T06:00	15632	116	-57.7	-82.6	265	21
2023-08-25T06:00	15656	115	-57.9	-82.6	267	21
2023-08-25T06:00	15680	115	-58.2	-82.8	268	21
2023-08-25T06:00	15702	114	-58.3	-82.9	269	20
2023-08-25T06:00	15727	114	-58.3	-82.9	270	20
2023-08-25T06:00	15751	114	-58.3	-82.9	271	19
2023-08-25T06:00	15773	113	-58.4	-82.9	271	18
2023-08-25T06:00	15799	113	-58.6	-83.3	271	17
2023-08-25T06:00	15823	112	-58.2	-83.0	271	16
2023-08-25T06:00	15845	112	-58.1	-83.2	271	15
2023-08-25T06:00	15867	112	-58.1	-83.2	270	14
2023-08-25T06:00	15893	111	-58.0	-83.4	270	13
2023-08-25T06:00	15916	111	-57.7	-83.2	268	12
2023-08-25T06:00	15938	110	-57.7	-83.4	267	11
2023-08-25T06:00	15962	110	-57.5	-83.3	264	11
2023-08-25T06:00	15987	109	-57.4	-83.2	262	11
2023-08-25T06:00	16010	109	-57.4	-83.2	259	11
2023-08-25T06:00	16034	109	-57.5	-83.3	256	11
2023-08-25T06:00	16060	108	-57.7	-83.4	252	11
2023-08-25T06:00	16083	108	-57.9	-83.3	249	11
2023-08-25T06:00	16107	107	-58.1	-83.5	247	12
2023-08-25T06:00	16128	107	-58.2	-83.5	245	12
2023-08-25T06:00	16153	107	-58.2	-83.5	245	12
2023-08-25T06:00	16177	106	-58.4	-83.7	246	12
2023-08-25T06:00	16198	106	-58.5	-83.8	248	12
2023-08-25T06:00	16223	105	-58.6	-83.9	251	12
2023-08-25T06:00	16246	105	-58.5	-83.8	254	12
2023-08-25T06:00	16268	105	-58.2	-83.8	257	12
2023-08-25T06:00	16294	104	-58.0	-83.7	259	12
2023-08-25T06:00	16318	104	-57.9	-83.9	260	12
2023-08-25T06:00	16338	104	-57.9	-83.9	260	11
2023-08-25T06:00	16360	103	-58.0	-83.9	261	12
2023-08-25T06:00	16386	103	-58.0	-83.7	261	12
2023-08-25T06:00	16412	102	-58.1	-83.7	262	12
2023-08-25T06:00	16432	102	-58.2	-83.8	263	13
2023-08-25T06:00	16456	102	-58.4	-84.0	264	13
2023-08-25T06:00	16480	101	-58.5	-84.0	264	14
2023-08-25T06:00	16502	101	-58.5	-84.0	264	15
2023-08-25T06:00	16525	100	-58.5	-84.0	264	15
2023-08-25T06:00	16549	100	-58.4	-84.0	263	16
2023-08-25T06:00	16572	100	-58.4	-84.3	263	16
2023-08-25T06:00	16598	99	-58.4	-84.3	262	17
2023-08-25T06:00	16619	99	-58.5	-84.0	262	17
2023-08-25T06:00	16643	99	-58.6	-84.1	263	18
2023-08-25T06:00	16670	98	-58.7	-84.2	264	18
2023-08-25T06:00	16692	98	-58.9	-84.4	265	18
2023-08-25T06:00	16715	97	-58.9	-84.4	266	17
2023-08-25T06:00	16739	97	-58.7	-84.2	268	16
2023-08-25T06:00	16762	97	-58.4	-84.3	269	15
2023-08-25T06:00	16781	96	-58.5	-84.3	271	15
2023-08-25T06:00	16806	96	-58.6	-84.4	272	14
2023-08-25T06:00	16829	96	-58.5	-84.3	274	14
2023-08-25T06:00	16854	95	-58.5	-84.6	275	15
2023-08-25T06:00	16875	95	-58.4	-84.6	276	15
2023-08-25T06:00	16899	95	-58.3	-84.5	278	15
2023-08-25T06:00	16921	94	-58.3	-84.5	280	16
2023-08-25T06:00	16944	94	-58.4	-84.6	282	16
2023-08-25T06:00	16969	94	-58.5	-84.6	284	16
2023-08-25T06:00	16992	93	-58.7	-84.8	286	16
2023-08-25T06:00	17014	93	-58.7	-84.8	287	16
2023-08-25T06:00	17038	93	-58.4	-84.6	287	16
2023-08-25T06:00	17057	92	-58.2	-84.7	287	15
2023-08-25T06:00	17081	92	-58.2	-84.7	286	14
2023-08-25T06:00	17105	92	-58.1	-85.0	285	13
2023-08-25T06:00	17126	91	-57.8	-84.7	284	13
2023-08-25T06:00	17148	91	-57.7	-85.0	284	12
2023-08-25T06:00	17171	91	-57.6	-84.9	283	12
2023-08-25T06:00	17195	90	-57.1	-84.9	283	11
2023-08-25T06:00	17219	90	-56.8	-84.7	283	10
2023-08-25T06:00	17241	90	-56.6	-84.5	283	9
2023-08-25T06:00	17262	89	-56.6	-84.5	284	9
2023-08-25T06:00	17287	89	-56.5	-84.5	286	8
2023-08-25T06:00	17312	89	-56.3	-84.3	287	7
2023-08-25T06:00	17333	88	-56.4	-84.4	288	7
2023-08-25T06:00	17356	88	-56.5	-84.5	288	7
2023-08-25T06:00	17379	88	-56.6	-84.5	287	6
2023-08-25T06:00	17403	87	-56.7	-84.6	284	6
2023-08-25T06:00	17428	87	-56.8	-84.7	280	6
2023-08-25T06:00	17449	87	-56.5	-84.5	276	6
2023-08-25T06:00	17475	86	-56.4	-84.4	271	6
2023-08-25T06:00	17499	86	-56.5	-84.5	265	6
2023-08-25T06:00	17522	86	-56.5	-84.5	261	6
2023-08-25T06:00	17546	85	-56.6	-84.5	258	7
2023-08-25T06:00	17568	85	-56.5	-84.5	257	7
2023-08-25T06:00	17591	85	-56.4	-84.4	257	7
2023-08-25T06:00	17613	85	-56.6	-84.5	257	8
2023-08-25T06:00	17635	84	-56.8	-84.7	257	8
2023-08-25T06:00	17659	84	-57.0	-84.8	256	9
2023-08-25T06:00	17685	84	-57.1	-84.6	255	9
2023-08-25T06:00	17706	83	-57.2	-84.6	254	9
2023-08-25T06:00	17731	83	-57.2	-84.6	252	9
2023-08-25T06:00	17751	83	-57.0	-84.5	252	9
2023-08-25T06:00	17778	82	-57.0	-84.5	252	9
2023-08-25T06:00	17801	82	-57.1	-84.6	254	9
2023-08-25T06:00	17825	82	-57.4	-84.8	258	9
2023-08-25T06:00	17847	82	-57.6	-84.9	262	9
2023-08-25T06:00	17870	81	-57.5	-84.9	267	9
2023-08-25T06:00	17891	81	-57.6	-84.9	271	9
2023-08-25T06:00	17919	81	-57.7	-85.0	275	9
2023-08-25T06:00	17938	80	-57.8	-85.1	279	9
2023-08-25T06:00	17966	80	-57.9	-85.2	281	9
2023-08-25T06:00	17987	80	-57.8	-85.1	284	9
2023-08-25T06:00	18010	79	-57.6	-84.9	287	8
2023-08-25T06:00	18036	79	-57.6	-85.3	289	8
2023-08-25T06:00	18056	79	-57.6	-85.3	292	8
2023-08-25T06:00	18079	79	-57.5	-85.2	295	8
2023-08-25T06:00	18101	78	-57.5	-85.2	298	7
2023-08-25T06:00	18126	78	-57.6	-85.3	300	7
2023-08-25T06:00	18150	78	-57.7	-85.0	302	7
2023-08-25T06:00	18171	77	-57.8	-85.1	302	6
2023-08-25T06:00	18195	77	-57.9	-85.2	301	6
2023-08-25T06:00	18222	77	-57.9	-85.2	298	5
2023-08-25T06:00	18242	77	-58.0	-85.2	291	4
2023-08-25T06:00	18266	76	-58.0	-85.2	282	4
2023-08-25T06:00	18290	76	-58.2	-85.4	270	4
2023-08-25T06:00	18314	76	-58.3	-85.5	260	4
2023-08-25T06:00	18337	75	-58.2	-85.8	255	4
2023-08-25T06:00	18363	75	-57.9	-85.5	253	5
2023-08-25T06:00	18385	75	-57.7	-85.4	252	6
2023-08-25T06:00	18407	75	-57.7	-85.4	252	6
2023-08-25T06:00	18432	74	-57.8	-85.5	252	7
2023-08-25T06:00	18458	74	-57.8	-85.5	251	8
2023-08-25T06:00	18481	74	-57.9	-85.5	250	9
2023-08-25T06:00	18508	73	-58.0	-85.6	250	10
2023-08-25T06:00	18530	73	-58.0	-85.6	250	11
2023-08-25T06:00	18556	73	-58.0	-85.6	251	11
2023-08-25T06:00	18580	73	-58.0	-85.6	253	12
2023-08-25T06:00	18603	72	-58.1	-85.7	255	12
2023-08-25T06:00	18629	72	-58.3	-85.5	257	12
2023-08-25T06:00	18653	72	-58.4	-85.5	261	12
2023-08-25T06:00	18682	71	-58.4	-85.5	264	12
2023-08-25T06:00	18706	71	-58.2	-85.4	269	11
2023-08-25T06:00	18731	71	-58.3	-85.5	274	11
2023-08-25T06:00	18756	71	-58.5	-85.6	280	10
2023-08-25T06:00	18784	70	-58.5	-85.6	287	10
2023-08-25T06:00	18817	70	-58.6	-85.7	295	9
2023-08-25T06:00	18840	70	-58.6	-85.7	303	9
2023-08-25T06:00	18868	69	-58.8	-85.9	310	9
2023-08-25T06:00	18898	69	-58.6	-86.1	318	9
2023-08-25T06:00	18922	69	-58.5	-86.0	324	8
2023-08-25T06:00	18944	68	-58.7	-86.1	329	8
2023-08-25T06:00	18970	68	-58.6	-86.1	334	7
2023-08-25T06:00	18995	68	-58.6	-86.1	338	7
2023-08-25T06:00	19023	68	-58.6	-86.1	339	6
2023-08-25T06:00	19047	67	-58.3	-85.8	340	6
2023-08-25T06:00	19072	67	-58.0	-86.0	339	6
2023-08-25T06:00	19096	67	-58.1		337	6
2023-08-25T06:00	19119	67	-58.2	-86.2	334	5
2023-08-25T06:00	19146	66	-58.3	-86.2	332	5
2023-08-25T06:00	19169	66	-58.3	-86.2	328	5
2023-08-25T06:00	19192	66	-58.2	-85.8	323	4
2023-08-25T06:00	19215	66	-58.0	-86.0	316	4
2023-08-25T06:00	19241	65	-58.0	-86.0	307	4
2023-08-25T06:00	19267	65	-58.0	-86.0	298	3
2023-08-25T06:00	19291	65	-58.1		290	4
2023-08-25T06:00	19313	65	-58.0	-86.0	284	4
2023-08-25T06:00	19339	64	-57.8	-86.3	282	4
2023-08-25T06:00	19364	64	-57.4	-86.0	282	4
2023-08-25T06:00	19385	64	-57.3	-85.9	283	5
2023-08-25T06:00	19408	64	-57.0	-85.7	286	5
2023-08-25T06:00	19436	63	-56.9	-85.6	289	5
2023-08-25T06:00	19459	63	-57.0	-85.7	294	5
2023-08-25T06:00	19483	63	-57.1	-85.7	300	5
2023-08-25T06:00	19508	63	-57.2	-85.8	307	5
2023-08-25T06:00	19533	62	-57.3	-85.5	314	4
2023-08-25T06:00	19560	62	-57.2	-85.4	320	4
2023-08-25T06:00	19579	62	-57.2	-85.4	322	4
2023-08-25T06:00	19604	62	-57.2	-85.4	320	3
2023-08-25T06:00	19628	61	-57.1	-85.3	313	3
2023-08-25T06:00	19651	61	-57.3	-85.5	303	3
2023-08-25T06:00	19674	61	-57.4	-85.6	296	3
2023-08-25T06:00	19699	61	-57.3	-85.9	293	3
2023-08-25T06:00	19722	61	-57.1	-85.7	294	3
2023-08-25T06:00	19743	60	-56.8	-85.5	295	3
2023-08-25T06:00	19769	60	-56.5	-85.3	295	3
2023-08-25T06:00	19790	60	-56.5	-85.8	291	4
2023-08-25T06:00	19813	60	-56.4	-85.7	285	4
2023-08-25T06:00	19836	59	-56.2	-85.5	277	4
2023-08-25T06:00	19863	59	-56.2	-85.5	269	5
2023-08-25T06:00	19884	59	-56.0		263	5
2023-08-25T06:00	19908	59	-55.8	-85.2	260	6
2023-08-25T06:00	19931	59	-55.8	-85.2	260	6
2023-08-25T06:00	19955	58	-55.7	-85.2	263	6
2023-08-25T06:00	19980	58	-55.7	-85.2	269	6
2023-08-25T06:00	20002	58	-55.6	-85.1	276	5
2023-08-25T06:00	20029	58	-55.7	-85.2	284	5
2023-08-25T06:00	20047	58	-55.7	-85.2	291	5
2023-08-25T06:00	20075	57	-55.8	-85.2	299	4
2023-08-25T06:00	20098	57	-55.6	-85.1	308	4
2023-08-25T06:00	20121	57	-55.5	-85.0	318	3
2023-08-25T06:00	20149	57	-55.5	-85.0	329	3
2023-08-25T06:00	20173	56	-55.2	-84.8	337	3
2023-08-25T06:00	20201	56	-55.1	-84.7	342	2
2023-08-25T06:00	20222	56	-55.1	-84.7	340	2
2023-08-25T06:00	20248	56	-55.0	-84.6	334	2
2023-08-25T06:00	20272	56	-55.0	-84.6	325	2
2023-08-25T06:00	20298	55	-55.1	-84.7	321	2
2023-08-25T06:00	20322	55	-55.0	-84.6	323	2
2023-08-25T06:00	20350	55	-55.2	-84.8	328	2
2023-08-25T06:00	20372	55	-55.3	-84.9	336	3
2023-08-25T06:00	20401	54	-55.1	-84.7	344	3
2023-08-25T06:00	20422	54	-54.9	-84.6	353	3
2023-08-25T06:00	20451	54	-55.2	-84.8	2	4
2023-08-25T06:00	20477	54	-55.3	-84.9	11	4
2023-08-25T06:00	20502	54	-55.3	-84.4	19	4
2023-08-25T06:00	20532	53	-55.4	-84.5	27	4
2023-08-25T06:00	20554	53	-55.5	-84.5	34	4
2023-08-25T06:00	20580	53	-55.6	-84.6	42	4
2023-08-25T06:00	20608	53	-55.6	-84.6	48	4
2023-08-25T06:00	20632	52	-55.7	-84.7	54	4
2023-08-25T06:00	20656	52	-55.8	-84.8	60	4
2023-08-25T06:00	20688	52	-55.9	-84.8	67	4
2023-08-25T06:00	20712	52	-56.0	-84.9	74	4
2023-08-25T06:00	20738	52	-56.0	-84.9	82	4
2023-08-25T06:00	20762	51	-55.9	-84.8	92	3
2023-08-25T06:00	20789	51	-55.9	-84.8	102	3
2023-08-25T06:00	20812	51	-56.0	-84.9	112	3
2023-08-25T06:00	20837	51	-56.0	-84.9	120	3
2023-08-25T06:00	20866	51	-56.1	-85.0	125	2
2023-08-25T06:00	20887	50	-56.3	-85.1	126	2
2023-08-25T06:00	20917	50	-56.3	-85.1	125	2
2023-08-25T06:00	20942	50	-56.3	-85.1	124	2
2023-08-25T06:00	20967	50	-56.1	-85.0	126	2
2023-08-25T06:00	20995	50	-55.9	-84.8	131	2
2023-08-25T06:00	21017	49	-55.9	-85.3	139	3
2023-08-25T06:00	21044	49	-55.9	-85.3	149	3
2023-08-25T06:00	21070	49	-55.7	-85.2	159	3
2023-08-25T06:00	21093	49	-55.5	-85.0	168	3
2023-08-25T06:00	21119	49	-55.5	-85.0	175	3
2023-08-25T06:00	21149	48	-55.6	-85.1	181	3
2023-08-25T06:00	21169	48	-55.6	-85.1	185	3
2023-08-25T06:00	21194	48	-55.5	-85.0	190	2
2023-08-25T06:00	21220	48	-55.6	-85.1	197	2
2023-08-25T06:00	21245	48	-55.5	-85.0	211	1
2023-08-25T06:00	21275	47	-55.6	-84.6	252	1
2023-08-25T06:00	21301	47	-55.6	-84.6	294	1
2023-08-25T06:00	21325	47	-55.7	-85.2	302	1
2023-08-25T06:00	21348	47	-55.6	-85.1	295	1
2023-08-25T06:00	21375	47	-55.5	-85.0	286	2
2023-08-25T06:00	21401	47	-55.5	-85.0	281	2
2023-08-25T06:00	21426	46	-55.6	-84.6	281	3
2023-08-25T06:00	21453	46	-55.8	-84.8	285	3
2023-08-25T06:00	21480	46	-55.9	-84.8	291	3
2023-08-25T06:00	21505	46	-55.9	-84.8	300	3
2023-08-25T06:00	21531	46	-55.9	-84.8	310	4
2023-08-25T06:00	21553	45	-56.0	-84.9	320	4
2023-08-25T06:00	21586	45	-56.1	-85.0	331	4
2023-08-25T06:00	21611	45	-56.1	-85.0	341	4
2023-08-25T06:00	21632	45	-56.1	-85.0	351	3
2023-08-25T06:00	21668	45	-56.1	-85.0	2	3
2023-08-25T06:00	21694	44	-56.1	-85.0	14	2
2023-08-25T06:00	21719	44	-56.1	-85.0	32	2
2023-08-25T06:00	21741	44	-56.2	-85.1	61	1
2023-08-25T06:00	21770	44	-56.3	-85.1	100	2
2023-08-25T06:00	21798	44	-56.1	-85.0	126	2
2023-08-25T06:00	21820	44	-56.1	-85.0	139	3
2023-08-25T06:00	21849	43	-56.1	-85.0	147	3
2023-08-25T06:00	21880	43	-56.2	-85.1	153	4
2023-08-25T06:00	21901	43	-56.3	-85.1	158	4
2023-08-25T06:00	21924	43	-56.4	-85.2	165	4
2023-08-25T06:00	21955	43	-56.4	-85.2	173	4
2023-08-25T06:00	21979	42	-56.3	-85.6	184	3
2023-08-25T06:00	22012	42	-55.9	-85.3	204	2
2023-08-25T06:00	22040	42	-55.9	-85.3	239	1
2023-08-25T06:00	22063	42	-56.0		281	2
2023-08-25T06:00	22088	42	-56.0		309	2
2023-08-25T06:00	22105	42	-56.1	-85.5	327	3
2023-08-25T06:00	22144	41	-56.2	-85.5	342	3
2023-08-25T06:00	22166	41	-56.1	-85.5	354	3
2023-08-25T06:00	22191	41	-56.1	-85.5	4	4
2023-08-25T06:00	22214	41	-56.0		11	4
2023-08-25T06:00	22240	41	-55.9	-85.3	15	4
2023-08-25T06:00	22267	41	-55.7	-85.2	16	4
2023-08-25T06:00	22292	40	-55.6	-85.1	16	3
2023-08-25T06:00	22321	40	-55.4	-85.4	15	3
2023-08-25T06:00	22344	40	-55.3	-85.4	15	3
2023-08-25T06:00	22374	40	-55.1	-85.2	16	3
2023-08-25T06:00	22400	40	-55.0	-85.1	18	3
2023-08-25T06:00	22421	40	-55.0	-84.6	19	4
2023-08-25T06:00	22443	39	-55.1	-84.7	21	4
2023-08-25T06:00	22474	39	-55.2	-84.8	24	5
2023-08-25T06:00	22498	39	-55.4	-84.9	27	5
2023-08-25T06:00	22525	39	-55.4	-84.9	30	6
2023-08-25T06:00	22548	39	-55.5	-85.0	33	6
2023-08-25T06:00	22572	39	-55.5	-85.0	36	7
2023-08-25T06:00	22602	39	-55.5	-85.0	39	7
2023-08-25T06:00	22628	38	-55.6	-85.1	42	7
2023-08-25T06:00	22653	38	-55.7	-85.2	45	7
2023-08-25T06:00	22678	38	-55.8	-85.2	48	7
2023-08-25T06:00	22706	38	-55.6	-85.1	51	6
2023-08-25T06:00	22732	38	-55.7	-85.2	54	6
2023-08-25T06:00	22758	38	-55.8	-85.2	57	5
2023-08-25T06:00	22784	37	-55.6	-85.1	62	4
2023-08-25T06:00	22810	37	-55.5	-85.0	67	3
2023-08-25T06:00	22836	37	-55.4	-84.9	74	2
2023-08-25T06:00	22862	37	-55.4	-84.9	79	2
2023-08-25T06:00	22884	37	-55.5	-85.0	76	1
2023-08-25T06:00	22913	37	-55.5	-85.0	54	1
2023-08-25T06:00	22935	37	-55.4	-84.9	26	1
2023-08-25T06:00	22963	36	-55.3	-84.9	12	2
2023-08-25T06:00	22985	36	-55.3	-84.9	8	2
2023-08-25T06:00	23016	36	-55.3	-84.9	8	3
2023-08-25T06:00	23041	36	-55.4	-84.9	10	3
2023-08-25T06:00	23066	36	-55.5	-85.0	15	4
2023-08-25T06:00	23092	36	-55.6	-85.1	22	4
2023-08-25T06:00	23120	36	-55.8	-85.2	31	4
2023-08-25T06:00	23141	35	-55.8	-85.2	41	4
2023-08-25T06:00	23164	35	-55.9	-85.3	53	4
2023-08-25T06:00	23198	35	-55.8	-85.2	66	4
2023-08-25T06:00	23223	35	-55.8	-85.2	79	4
2023-08-25T06:00	23248	35	-55.8	-85.2	90	4
2023-08-25T06:00	23279	35	-55.8	-85.2	99	3
2023-08-25T06:00	23304	35	-55.7	-85.2	105	3
2023-08-25T06:00	23324	34	-55.6	-85.1	110	2
2023-08-25T06:00	23348	34	-55.6	-85.1	112	2
2023-08-25T06:00	23385	34	-55.5	-85.5	114	2
2023-08-25T06:00	23413	34	-55.4	-85.4	116	1
2023-08-25T06:00	23436	34	-55.2	-85.3	119	1
2023-08-25T06:00	23465	34	-55.1	-85.2	121	1
2023-08-25T06:00	23491	34	-54.9	-85.1	125	1
2023-08-25T06:00	23517	33	-55.0	-85.1	128	1
2023-08-25T06:00	23546	33	-55.2	-85.3	129	1
2023-08-25T06:00	23568	33	-55.1	-85.2	125	1
2023-08-25T06:00	23598	33	-55.1	-85.2	115	1
2023-08-25T06:00	23628	33	-55.1	-85.2	99	1
2023-08-25T06:00	23649	33	-55.1	-85.2	86	1
2023-08-25T06:00	23685	33	-55.1	-85.2	78	2
2023-08-25T06:00	23708	32	-55.1	-85.2	73	2
2023-08-25T06:00	23732	32	-55.2	-84.8	70	2
2023-08-25T06:00	23764	32	-55.2	-84.8	67	3
2023-08-25T06:00	23795	32	-55.2	-84.8	65	3
2023-08-25T06:00	23818	32	-55.3	-84.9	65	3
2023-08-25T06:00	23849	32	-55.4	-84.9	66	3
2023-08-25T06:00	23873	32	-55.4	-85.4	70	3
2023-08-25T06:00	23903	31	-55.4	-85.4	75	3
2023-08-25T06:00	23938	31	-55.5	-85.0	78	3
2023-08-25T06:00	23957	31	-55.6	-85.1	78	3
2023-08-25T06:00	23990	31	-55.7	-85.2	74	3
2023-08-25T06:00	24012	31	-55.7	-85.7	69	3
2023-08-25T06:00	24045	31	-55.6	-85.6	65	3
2023-08-25T06:00	24071	31	-55.5	-85.5	64	3
2023-08-25T06:00	24099	30	-55.4	-85.4	65	3
2023-08-25T06:00	24122	30	-55.3	-85.4	68	4
2023-08-25T06:00	24155	30	-55.2	-85.3	71	4
2023-08-25T06:00	24179	30	-55.3	-85.4	73	4
2023-08-25T06:00	24213	30	-55.4	-85.4	73	4
2023-08-25T06:00	24232	30	-55.4	-85.4	71	4
2023-08-25T06:00	24261	30	-55.2	-85.3	67	4
2023-08-25T06:00	24293	30	-55.1	-85.2	64	4
2023-08-25T06:00	24317	29	-55.0	-85.1	61	3
2023-08-25T06:00	24344	29	-54.9	-85.1	59	3
2023-08-25T06:00	24371	29	-54.7	-85.5	58	3
2023-08-25T06:00	24400	29	-54.7	-85.5	57	3
2023-08-25T06:00	24429	29	-54.6	-85.4	55	3
2023-08-25T06:00	24454	29	-54.4	-85.2	53	4
2023-08-25T06:00	24480	29	-54.1	-85.0	51	4
2023-08-25T06:00	24510	29	-54.0	-84.9	48	4
2023-08-25T06:00	24542	28	-54.0	-84.9	45	4
2023-08-25T06:00	24565	28	-53.8	-84.8	44	4
2023-08-25T06:00	24588	28	-53.6	-84.6	44	4
2023-08-25T06:00	24611	28	-53.6	-84.6	45	5
2023-08-25T06:00	24653	28	-53.5	-84.6	47	5
2023-08-25T06:00	24672	28	-53.5	-84.6	51	4
2023-08-25T06:00	24700	28	-53.4	-84.5	55	4
2023-08-25T06:00	24732	28	-53.5	-84.6	61	4
2023-08-25T06:00	24756	28	-53.5	-84.6	67	4
2023-08-25T06:00	24780	27	-53.4	-84.5	71	4
2023-08-25T06:00	24804	27	-53.4	-84.5	74	4
2023-08-25T06:00	24833	27	-53.4	-84.5	74	4
2023-08-25T06:00	24856	27	-53.4	-84.5	71	4
2023-08-25T06:00	24887	27	-53.4	-84.5	66	4
2023-08-25T06:00	24911	27	-53.3	-84.4	59	3
2023-08-25T06:00	24941	27	-53.2	-84.4	53	3
2023-08-25T06:00	24972	27	-53.3	-84.4	48	3
2023-08-25T06:00	25001	26	-53.5	-84.6	45	3
2023-08-25T06:00	25019	26	-53.6	-84.6	43	3
2023-08-25T06:00	25059	26	-53.6	-84.6	40	3
2023-08-25T06:00	25075	26	-53.7	-84.7	36	3
2023-08-25T06:00	25110	26	-53.6	-84.6	33	3
2023-08-25T06:00	25140	26	-53.6	-84.6	31	3
2023-08-25T06:00	25172	26	-53.5	-84.6	32	4
2023-08-25T06:00	25196	26	-53.3	-84.4	35	4
2023-08-25T06:00	25222	26	-53.4	-84.5	39	4
2023-08-25T06:00	25265	25	-53.4	-85.1	43	5
2023-08-25T06:00	25288	25	-53.1	-84.9	48	5
2023-08-25T06:00	25308	25	-52.9	-84.7	52	4
2023-08-25T06:00	25336	25	-52.6	-84.5	56	4
2023-08-25T06:00	25375	25	-52.3	-84.3	59	3
2023-08-25T06:00	25404	25	-52.3	-84.3	59	3
2023-08-25T06:00	25430	25	-52.5	-84.4	55	3
2023-08-25T06:00	25457	25	-52.4	-84.4	47	2
2023-08-25T06:00	25493	25	-52.4	-84.4	38	3
2023-08-25T06:00	25519	24	-52.4	-84.4	33	3
2023-08-25T06:00	25532	24	-52.3	-84.3	32	4
2023-08-25T06:00	25566	24	-52.1	-84.2	35	5
2023-08-25T06:00	25600	24	-52.1	-84.2	39	5
2023-08-25T06:00	25624	24	-51.8	-83.9	44	6
2023-08-25T06:00	25650	24	-51.4	-83.6	49	6
2023-08-25T06:00	25688	24	-51.5	-83.7	54	6
2023-08-25T06:00	25713	24	-51.6	-83.8	58	7
2023-08-25T06:00	25731	24	-51.7	-83.9	60	7
2023-08-25T06:00	25768	24	-51.9	-84.0	61	7
2023-08-25T06:00	25795	23	-51.8	-83.9	59	7
2023-08-25T06:00	25822	23	-51.5	-83.7	57	7
2023-08-25T06:00	25849	23	-51.2	-84.2	53	7
2023-08-25T06:00	25880	23	-50.9	-84.0	50	6
2023-08-25T06:00	25907	23	-50.8	-83.9	47	6
2023-08-25T06:00	25943	23	-50.8	-83.9	45	6
2023-08-25T06:00	25964	23	-50.5	-83.7	44	6
2023-08-25T06:00	26000	23	-50.3	-83.5	44	6
2023-08-25T06:00	26024	23	-50.2	-83.5	43	6
2023-08-25T06:00	26061	23	-50.2	-83.5	40	6
2023-08-25T06:00	26083	22	-50.0	-83.3	37	7
2023-08-25T06:00	26115	22	-49.9	-83.2	33	7
2023-08-25T06:00	26143	22	-50.0	-83.3	31	7
2023-08-25T06:00	26167	22	-50.1	-83.4	32	7
2023-08-25T06:00	26194	22	-50.2	-83.5	35	7
2023-08-25T06:00	26224	22	-50.2	-83.5	41	7
2023-08-25T06:00	26253	22	-50.1	-83.4	47	7
2023-08-25T06:00	26289	22	-50.1	-83.4	54	7
2023-08-25T06:00	26302	22	-50.0	-83.3	61	7
2023-08-25T06:00	26340	22	-49.9	-83.2	68	7
2023-08-25T06:00	26365	21	-49.8	-83.2	75	7
2023-08-25T06:00	26394	21	-49.8	-83.2	82	8
2023-08-25T06:00	26431	21	-49.7	-83.1	88	7
2023-08-25T06:00	26455	21	-49.6	-83.0	94	7
2023-08-25T06:00	26483	21	-49.4	-82.9	99	7
2023-08-25T06:00	26509	21	-49.3	-82.8	102	6
2023-08-25T06:00	26537	21	-49.2	-82.7	104	5
2023-08-25T06:00	26568	21	-49.1	-82.7	104	4
2023-08-25T06:00	26595	21	-49.0	-82.6	103	4
2023-08-25T06:00	26623	21	-49.0	-82.6	100	3
2023-08-25T06:00	26651	21	-49.0	-82.6	97	3
2023-08-25T06:00	26686	20	-49.0	-82.6	95	2
2023-08-25T06:00	26708	20	-49.1	-82.7	94	3
2023-08-25T06:00	26732	20	-49.0	-82.6	94	3
2023-08-25T06:00	26766	20	-48.8	-83.2	96	3
2023-08-25T06:00	26800	20	-48.6	-83.1	99	4
2023-08-25T06:00	26822	20	-48.6	-83.1	101	4
2023-08-25T06:00	26850	20	-48.6	-83.1	102	4
2023-08-25T06:00	26885	20	-48.6	-83.1	102	5
2023-08-25T06:00	26912	20	-48.6	-82.3	100	5
2023-08-25T06:00	26947	20	-48.6	-82.3	97	5
2023-08-25T06:00	26980	20	-48.7	-82.4	92	5
2023-08-25T06:00	26990	19	-48.7	-82.4	86	5
2023-08-25T06:00	27040	19	-48.7	-82.4	78	5
2023-08-25T06:00	27059	19	-48.8	-82.4	69	5
2023-08-25T06:00	27088	19	-48.9	-82.5	60	6
2023-08-25T06:00	27131	19	-49.0	-82.6	52	6
2023-08-25T06:00	27157	19	-49.1	-82.7	48	7
2023-08-25T06:00	27177	19	-49.0	-82.6	47	7
2023-08-25T06:00	27212	19	-48.7	-82.4	48	8
2023-08-25T06:00	27242	19	-48.5	-83.0	51	8
2023-08-25T06:00	27267	19	-48.4	-82.9	55	8
2023-08-25T06:00	27299	19	-48.4	-82.9	61	8
2023-08-25T06:00	27343	19	-48.3	-82.9	67	8
2023-08-25T06:00	27366	18	-48.2	-82.8	74	7
2023-08-25T06:00	27400	18	-48.3	-82.9	80	7
2023-08-25T06:00	27431	18	-48.4	-82.9	86	6
2023-08-25T06:00	27456	18	-48.3	-82.9	91	6
2023-08-25T06:00	27490	18	-48.1	-82.7	94	6
2023-08-25T06:00	27515	18	-47.9	-82.6	97	5
2023-08-25T06:00	27548	18	-47.8	-82.5	101	5
2023-08-25T06:00	27571	18	-47.7	-82.4	105	5
2023-08-25T06:00	27620	18	-47.7	-82.4	111	5
2023-08-25T06:00	27636	18	-47.6	-82.4	116	5
2023-08-25T06:00	27667	18	-47.7	-82.4	121	5
2023-08-25T06:00	27681	18	-47.7	-82.4	124	5
2023-08-25T06:00	27724	17	-47.6	-82.4	123	4
2023-08-25T06:00	27752	17	-47.5	-82.3	118	4
2023-08-25T06:00	27776	17	-47.5	-82.3	108	3
2023-08-25T06:00	27805	17	-47.6	-82.4	94	3
2023-08-25T06:00	27832	17	-47.8	-82.5	78	3
2023-08-25T06:00	27866	17	-47.8	-82.5	62	3
2023-08-25T06:00	27899	17	-47.8	-82.5	50	3
2023-08-25T06:00	27925	17	-47.5	-82.3	40	4
2023-08-25T06:00	27954	17	-47.5	-82.3	33	4
2023-08-25T06:00	27973	17	-47.6	-82.4	27	4
2023-08-25T06:00	28012	17	-47.8	-82.5	22	4
2023-08-25T06:00	28029	17	-47.9	-82.6	20	4
2023-08-25T06:00	28073	17	-48.0	-82.7	19	5
2023-08-25T06:00	28096	17	-47.9	-82.6	21	5
2023-08-25T06:00	28127	16	-47.8	-82.5	24	6
2023-08-25T06:00	28154	16	-47.6	-82.4	29	6
2023-08-25T06:00	28181	16	-47.5	-82.3	34	6
2023-08-25T06:00	28208	16	-47.5	-82.3	40	7
2023-08-25T06:00	28244	16	-47.5	-82.3	45	7
2023-08-25T06:00	28274	16	-47.6	-82.4	50	7
2023-08-25T06:00	28295	16	-47.6	-82.4	56	7
2023-08-25T06:00	28327	16	-47.6	-82.4	61	7
2023-08-25T06:00	28370	16	-47.6	-82.4	67	6
2023-08-25T06:00	28396	16	-47.5	-82.3	74	6
2023-08-25T06:00	28420	16	-47.5	-82.3	82	6
2023-08-25T06:00	28451	16	-47.5	-82.3	90	6
2023-08-25T06:00	28470	16	-47.5	-82.3	98	6
2023-08-25T06:00	28509	16	-47.4	-82.2	105	6
2023-08-25T06:00	28536	15	-47.4	-82.2	110	6
2023-08-25T06:00	28564	15	-47.4	-82.2	112	6
2023-08-25T06:00	28595	15	-47.2	-82.1	114	6
2023-08-25T06:00	28627	15	-47.1	-82.0	114	6
2023-08-25T06:00	28658	15	-47.0	-82.9	115	5
2023-08-25T06:00	28695	15	-46.8	-82.7	118	4
2023-08-25T06:00	28723	15	-46.5	-82.5	123	4
2023-08-25T06:00	28747	15	-46.3	-82.4	133	3
2023-08-25T06:00	28781	15	-46.2	-82.3	145	3
2023-08-25T06:00	28806	15	-46.0	-82.1	159	2
2023-08-25T06:00	28846	15	-45.9	-82.1	169	2
2023-08-25T06:00	28872	15	-45.9	-82.1	172	2
2023-08-25T06:00	28893	15	-45.8	-82.0	168	2
2023-08-25T06:00	28931	15	-45.6	-81.9	160	2
2023-08-25T06:00	28959	14	-45.4	-81.7	153	2
2023-08-25T06:00	28985	14	-45.2	-81.6	146	2
2023-08-25T06:00	29016	14	-44.9	-81.4	140	2
2023-08-25T06:00	29047	14	-44.8	-81.3	133	2
2023-08-25T06:00	29084	14	-44.7	-81.2	123	2
2023-08-25T06:00	29104	14	-44.7	-81.2	114	2
2023-08-25T06:00	29144	14	-44.7	-81.2	108	3
2023-08-25T06:00	29164	14	-44.6	-81.2	104	3
2023-08-25T06:00	29191	14	-44.3	-82.0	102	4
2023-08-25T06:00	29225	14	-44.0	-81.8	100	4
2023-08-25T06:00	29259	14	-44.0	-81.8	100	4
2023-08-25T06:00	29282	14	-44.0	-80.7	103	4
2023-08-25T06:00	29304	14	-43.9	-80.7	108	4
2023-08-25T06:00	29346	14	-44.0	-80.7	116	3
2023-08-25T06:00	29378	14	-44.1	-80.8	124	3
2023-08-25T06:00	29415	14	-44.1	-80.8	131	3
2023-08-25T06:00	29446	13	-44.1	-80.8	137	3
2023-08-25T06:00	29481	13	-44.2	-80.9	141	3
2023-08-25T06:00	29496	13	-44.2	-80.9	142	3
2023-08-25T06:00	29523	13	-44.2	-80.9	143	2
2023-08-25T06:00	29549	13	-44.2	-80.9	142	2
2023-08-25T06:00	29589	13	-44.2	-80.9	139	2
2023-08-25T06:00	29632	13	-44.3	-80.9	134	2
2023-08-25T06:00	29640	13	-44.3	-80.9	126	2
2023-08-25T06:00	29670	13	-44.2	-80.9	119	2
2023-08-25T06:00	29714	13	-44.1	-80.8	114	2
2023-08-25T06:00	29742	13	-43.9	-81.8	112	3
2023-08-25T06:00	29783	13	-43.7	-81.6	114	3
2023-08-25T06:00	29803	13	-43.6	-81.5	119	4
2023-08-25T06:00	29834	13	-43.5	-81.5	127	4
2023-08-25T06:00	29875	13	-43.2	-81.3	134	4
2023-08-25T06:00	29905	13	-42.9	-81.1	141	5
2023-08-25T06:00	29928	13	-42.7	-80.9	147	5
2023-08-25T06:00	29966	12	-42.5	-80.8	151	5
2023-08-25T06:00	29978	12	-42.5	-80.8	155	5
2023-08-25T06:00	30016	12	-42.3	-80.6	157	5
2023-08-25T06:00	30051	12	-42.1	-80.5	159	5
2023-08-25T06:00	30104	12	-42.0	-80.4	158	5
2023-08-25T06:00	30122	12	-41.9	-80.4	155	5
2023-08-25T06:00	30154	12	-41.8	-80.3	151	5
2023-08-25T06:00	30183	12	-41.7	-80.2	147	5
2023-08-25T06:00	30227	12	-41.6	-80.1	145	5
2023-08-25T06:00	30244	12	-41.7	-80.2	145	5
2023-08-25T06:00	30291	12	-41.6	-80.1	148	5
2023-08-25T06:00	30322	12	-41.5	-80.1	152	6
2023-08-25T06:00	30354	12	-41.6	-80.1	157	6
2023-08-25T06:00	30383	12	-41.7	-80.2	162	7
2023-08-25T06:00	30425	12	-41.8	-80.3	167	7
2023-08-25T06:00	30452	12	-42.1	-80.5	170	7
2023-08-25T06:00	30488	12	-42.5	-80.8	173	7
2023-08-25T06:00	30521	12	-42.5	-80.8	176	7
2023-08-25T06:00	30541	11	-42.3	-80.6	178	6
2023-08-25T06:00	30585	11	-42.2	-80.6	179	6
2023-08-25T06:00	30598	11	-42.2	-80.6	178	6
2023-08-25T06:00	30647	11	-42.2	-80.6	175	5
2023-08-25T06:00	30688	11	-42.1	-80.5	170	5
2023-08-25T06:00	30722	11	-42.1	-80.5	162	5
2023-08-25T06:00	30725	11	-42.0	-80.4	152	4
2023-08-25T06:00	30786	11	-41.8	-80.3	145	4
2023-08-25T06:00	30831	11	-41.7	-80.2	141	5
2023-08-25T06:00	30843	11	-41.6	-80.1	141	5
2023-08-25T06:00	30871	11	-41.6	-80.1	144	6
2023-08-25T06:00	30914	11	-41.7	-80.2	149	7
2023-08-25T06:00	30951	11	-41.7	-80.2	153	7
2023-08-25T06:00	30977	11	-41.8	-80.3	157	8
2023-08-25T06:00	31012	11	-41.6	-80.1	161	8
2023-08-25T06:00	31040	11	-41.3	-79.9	164	8
2023-08-25T06:00	31070	11	-41.0	-79.7	167	8
2023-08-25T06:00	31107	11	-40.8	-79.6	170	7
2023-08-25T06:00	31117	11	-40.8	-79.6	173	7
2023-08-25T06:00	31152	10	-40.7	-79.5	177	7
2023-08-25T06:00	31186	10	-40.6	-79.5	181	6
2023-08-25T06:00	31221	10	-40.7	-79.5	186	6
2023-08-25T06:00	31259	10	-40.8	-79.6	189	6
2023-08-25T06:00	31275	10	-41.0	-79.7	191	6
2023-08-25T06:00	31318	10	-41.2	-79.9	190	5
2023-08-25T06:00	31350	10	-41.2	-79.9	185	4
2023-08-25T06:00	31378	10	-41.0	-79.7	175	3
2023-08-25T06:00	31421	10	-40.8	-79.6	157	3
2023-08-25T06:00	31463	10	-40.7	-79.5	133	2
2023-08-25T06:00	31488	10	-40.7	-79.5	108	3
2023-08-25T06:00	31514	10	-40.6	-79.5	91	3
2023-08-25T06:00	31559	10	-40.5	-79.4	81	3
2023-08-25T06:00	31570	10	-40.5	-79.4	76	4
2023-08-25T06:00	31618	10	-40.5	-79.4	74	5
2023-08-25T06:00	31634	10	-40.5	-79.4	74	5
2023-08-25T06:00	31665	10	-40.4	-79.3	76	6
2023-08-25T06:00	31704	10	-40.4	-79.3	78	6
2023-08-25T06:00	31726	10	-40.4	-79.3	81	6
2023-08-25T06:00	31785	10	-40.4	-79.3	83	6
2023-08-25T06:00	31802	10	-40.6	-79.5	85	6
2023-08-25T06:00	31827	9	-40.6	-79.5	87	6
2023-08-25T06:00	31858	9	-40.5	-79.4	89	6
2023-08-25T06:00	31885	9	-40.5	-79.4	91	6
2023-08-25T06:00	31924	9	-40.5	-79.4	95	6
2023-08-25T06:00	31938	9	-40.5	-79.4	99	6
2023-08-25T06:00	32000	9	-40.5	-79.4	103	6
2023-08-25T06:00	32015	9	-40.6	-79.5	106	6
2023-08-25T06:00	32044	9	-40.6	-79.5	109	6
2023-08-25T06:00	32068	9	-40.5	-79.4	112	6
2023-08-25T06:00	32101	9	-40.4	-79.3	114	5
2023-08-25T06:00	32146	9	-40.2	-79.2	117	4
2023-08-25T06:00	32165	9	-40.1	-79.1	120	4
2023-08-25T06:00	32189	9	-40.0	-79.0	121	3
2023-08-25T06:00	32236	9	-39.9	-79.0	116	2
2023-08-25T06:00	32255	9	-39.8	-78.9	102	2
2023-08-25T06:00	32282	9	-39.7	-78.8	82	2
2023-08-25T06:00	32323	9	-39.7	-78.8	64	2
2023-08-25T06:00	32335	9	-39.5	-78.7	49	2
2023-08-25T06:00	32375	9	-39.3	-78.5	34	2
2023-08-25T06:00	32405	9	-39.3	-78.5	15	1
2023-08-25T06:00	32430	9	-39.4	-78.6	353	1
2023-08-25T06:00	32454	9	-39.7	-78.8	336	2
2023-08-25T06:00	32498	9	-39.8	-78.9	327	2
2023-08-25T06:00	32522	9	-40.0	-79.0	324	2
2023-08-25T06:00	32544	9	-40.1	-79.1	326	3
2023-08-25T06:00	32560	9	-40.2	-79.2	330	3
2023-08-25T06:00	32613	8	-40.2	-79.2	337	3
2023-08-25T06:00	32657	8	-40.1	-79.1	344	3
2023-08-25T06:00	32704	8	-40.0	-79.0	356	4
2023-08-25T06:00	32733	8	-39.9	-79.0	0	4
2023-08-25T06:00	32752	8	-39.8	-78.9	5	4
2023-08-25T06:00	32794	8	-39.8	-78.9	11	4
2023-08-25T06:00	32836	8	-39.7	-78.8	37	4
2023-08-25T06:00	32877	8	-39.6	-78.8	53	4
2023-08-25T06:00	32919	8	-39.6	-78.8	65	4
2023-08-25T06:00	32942	8	-39.7	-78.8	71	4
2023-08-25T06:00	32989	8	-39.5	-78.7	71	4
2023-08-25T06:00	33029	8	-39.1	-78.4	64	3
2023-08-25T06:00	33046	8	-38.8	-78.2	50	3
2023-08-25T06:00	33051	8	-38.5	-78.0	35	3
2023-08-25T06:00	33106	8	-38.4	-77.9	26	3
2023-08-25T06:00	33145	8	-38.2	-77.8	25	4
2023-08-25T06:00	33180	8	-37.9	-77.6	29	4
2023-08-25T06:00	33194	8	-37.8	-77.5	36	4
2023-08-25T06:00	33248	8	-37.8	-77.5	43	4
2023-08-25T06:00	33254	8	-37.8	-77.5	50	5
2023-08-25T06:00	33290	8	-37.8	-77.5	56	5
2023-08-25T06:00	33328	8	-37.8	-77.5	61	6
2023-08-25T06:00	33346	8	-37.8	-77.5	67	6
2023-08-25T06:00	33375	8	-37.8	-77.5	72	7
2023-08-25T06:00	33423	8	-37.9	-77.6	77	8
2023-08-25T06:00	33441	7	-37.9	-77.6	82	9
2023-08-25T06:00	33501	7	-38.0	-77.6	86	9
2023-08-25T06:00	33518	7	-38.0	-77.6	89	10
2023-08-25T06:00	33531	7	-38.0	-77.6	92	10
2023-08-25T06:00	33562	7	-38.0	-77.6	95	9
2023-08-25T06:00	33597	7	-37.9	-77.6	97	9
2023-08-25T06:00	33653	7	-37.8	-77.5	99	8
2023-08-25T06:00	33678	7	-37.7	-77.4	101	7
2023-08-25T06:00	33682	7	-37.8	-77.5	102	6
2023-08-25T06:00	33721	7	-37.8	-77.5	103	5
2023-08-25T06:00	33759	7	-37.8	-77.5	104	5
2023-08-25T06:00	33803	7	-37.9	-77.6	106	5
2023-08-25T06:00	33826	7	-37.9	-77.6	108	6
2023-08-25T06:00	33864	7	-37.9	-77.6	109	6
2023-08-25T06:00	33909	7	-38.0	-77.6	111	8
2023-08-25T06:00	33940	7	-38.0	-77.6	113	9
2023-08-25T06:00	33960	7	-37.9	-77.6	116	9
2023-08-25T06:00	34018	7	-37.9	-77.6	119	10
2023-08-25T06:00	34040	7	-37.9	-77.6	123	10
2023-08-25T06:00	34055	7	-37.8	-77.5	126	10
2023-08-25T06:00	34106	7	-37.6	-77.4	129	10
2023-08-25T06:00	34141	7	-37.4	-77.2	131	9
2023-08-25T06:00	34174	7	-37.4	-77.2	132	8
2023-08-25T06:00	34190	7	-37.3	-77.2	131	8
2023-08-25T06:00	34212	7	-37.3	-77.2	127	7
2023-08-25T06:00	34235	7	-37.2	-77.1	120	6
2023-08-25T06:00	34268	7	-37.0	-77.0	111	6
2023-08-25T06:00	34315	7	-36.7	-76.7	103	6
2023-08-25T06:00	34334	7	-36.6	-76.7	96	6
2023-08-25T06:00	34342	7	-36.5	-76.6	93	7
2023-08-25T06:00	34412	7	-36.4	-76.5	92	7
2023-08-25T06:00	34447	6	-36.6	-76.7	97	8
2023-08-25T06:00	34466	6	-36.7	-76.7	100	8
2023-08-25T06:00	34528	6	-36.6	-76.7	104	8
2023-08-25T06:00	34539	6	-36.5	-76.6	108	8
2023-08-25T06:00	34570	6	-36.4	-76.5	113	9
2023-08-25T06:00	34591	6	-36.5	-76.6	117	9
2023-08-25T06:00	34608	6	-36.7	-76.7	120	9
2023-08-25T06:00	34643	6	-36.9	-76.9	122	9
2023-08-25T06:00	34686	6	-37.0	-77.0	122	9
2023-08-25T06:00	34711	6	-36.9	-76.9	120	8
2023-08-25T06:00	34741	6	-36.8	-76.8	118	8
2023-08-25T06:00	34766	6	-36.6	-76.7	115	7
2023-08-25T06:00	34808	6	-36.4	-76.5	112	7
2023-08-25T06:00	34832	6	-36.4	-76.5	109	7
2023-08-25T06:00	34875	6	-36.3	-76.5	106	7
2023-08-25T06:00	34917	6	-36.3	-76.5	103	7
2023-08-25T06:00	34959	6	-36.3	-76.5	97	7
2023-08-25T06:00	34960	6	-36.2	-76.4	95	7
2023-08-25T06:00	35001	6	-36.1	-76.3	94	7
2023-08-25T06:00	35014	6	-35.9	-76.2	94	7
2023-08-25T06:00	35051	6	-35.9	-76.2	95	7
2023-08-25T06:00	35091	6	-35.8	-76.1	97	7
2023-08-25T12:00	112	997	27.0	17.8	300	2
2023-08-25T12:00	136	994	26.2	17.6	280	1
2023-08-25T12:00	162	991	25.8	17.2	280	1
2023-08-25T12:00	187	988	25.6	16.7	278	1
2023-08-25T12:00	214	985	25.3	16.5	273	2
2023-08-25T12:00	249	982	25.1	16.4	265	2
2023-08-25T12:00	273	979	24.8	16.3	255	2
2023-08-25T12:00	298	976	24.5	16.6	245	2
2023-08-25T12:00	323	973	24.3	16.5	235	2
2023-08-25T12:00	350	970	24.1	16.4	227	2
2023-08-25T12:00	381	967	23.8	16.4	220	2
2023-08-25T12:00	407	964	23.5	16.3	213	2
2023-08-25T12:00	439	960	23.2	16.3	207	2
2023-08-25T12:00	468	957	22.9	16.2	200	2
2023-08-25T12:00	497	954	22.7		195	2
2023-08-25T12:00	527	951	22.5	16.0	191	2
2023-08-25T12:00	561	947	22.1	15.8	191	2
2023-08-25T12:00	587	944	21.9	15.9	194	2
2023-08-25T12:00	619	941	21.6	15.9	200	2
2023-08-25T12:00	641	938	21.3	16.0	207	3
2023-08-25T12:00	661	936	21.1	16.0	213	3
2023-08-25T12:00	688	933	20.8	15.9	218	3
2023-08-25T12:00	718	930	20.6		219	3
2023-08-25T12:00	743	927	20.3	15.9	218	3
2023-08-25T12:00	775	924	20.1	15.7	215	3
2023-08-25T12:00	801	921	19.8	15.7	211	3
2023-08-25T12:00	826	919	19.6	15.6	209	3
2023-08-25T12:00	847	916	19.4	15.8	209	3
2023-08-25T12:00	868	914	19.2	15.6	211	3
2023-08-25T12:00	891	911	19.0	15.5	215	3
2023-08-25T12:00	919	909	18.7	15.5	218	3
2023-08-25T12:00	944	906	18.4	15.3	222	4
2023-08-25T12:00	971	903	18.3	15.1	225	4
2023-08-25T12:00	995	900	18.1	14.6	228	5
2023-08-25T12:00	1023	898	18.9	11.3	230	5
2023-08-25T12:00	1046	895	18.9	12.0	231	5
2023-08-25T12:00	1073	892	18.7	12.0	233	5
2023-08-25T12:00	1098	890	18.5	12.0	234	5
2023-08-25T12:00	1115	888	18.5	12.0	236	6
2023-08-25T12:00	1136	886	18.3	11.8	238	6
2023-08-25T12:00	1151	884	18.2	11.8	239	6
2023-08-25T12:00	1170	882	18.1	11.8	240	6
2023-08-25T12:00	1192	880	17.9	11.7	239	6
2023-08-25T12:00	1212	878	17.7	11.4	236	6
2023-08-25T12:00	1231	876	17.5	11.3	232	6
2023-08-25T12:00	1251	874	17.4	11.2	228	6
2023-08-25T12:00	1273	872	17.2	11.3	224	6
2023-08-25T12:00	1295	870	17.0	11.2	221	6
2023-08-25T12:00	1316	867	16.9	11.5	218	7
2023-08-25T12:00	1339	865	16.6	11.4	216	7
2023-08-25T12:00	1370	862	16.4	11.4	216	7
2023-08-25T12:00	1397	859	16.1	11.5	217	7
2023-08-25T12:00	1422	857	15.9	11.6	219	7
2023-08-25T12:00	1448	854	15.7	11.5	221	8
2023-08-25T12:00	1475	851	15.6	11.1	223	8
2023-08-25T12:00	1506	849	15.4	10.9	223	9
2023-08-25T12:00	1527	846	15.2	10.6	223	9
2023-08-25T12:00	1548	844	15.1	10.4	223	9
2023-08-25T12:00	1569	842	14.9	10.2	223	9
2023-08-25T12:00	1593	840	14.8	9.4	224	8
2023-08-25T12:00	1615	837	14.7	9.3	224	8
2023-08-25T12:00	1639	835	14.6	9.3	223	7
2023-08-25T12:00	1668	832	14.4	8.8	222	8
2023-08-25T12:00	1690	830	14.4	8.5	221	8
2023-08-25T12:00	1714	828	14.3	8.2	222	8
2023-08-25T12:00	1741	825	14.3	8.0	224	9
2023-08-25T12:00	1763	823	14.0	7.8	227	9
2023-08-25T12:00	1787	821	13.8	7.9	230	9
2023-08-25T12:00	1809	818	13.7	8.1	233	9
2023-08-25T12:00	1836	816	13.4	8.9	236	9
2023-08-25T12:00	1861	813	13.2	9.0	239	9
2023-08-25T12:00	1880	811	13.0	9.0	241	8
2023-08-25T12:00	1901	809	12.9	9.2	244	8
2023-08-25T12:00	1926	807	12.7	9.2	245	8
2023-08-25T12:00	1953	805	12.6	8.5	245	8
2023-08-25T12:00	1974	803	12.4	8.5	245	8
2023-08-25T12:00	1993	800	12.4	8.2	245	8
2023-08-25T12:00	2023	798	12.3	7.8	245	7
2023-08-25T12:00	2044	796	12.1	7.6	245	7
2023-08-25T12:00	2063	794	12.0	7.5	244	7
2023-08-25T12:00	2091	792	11.9	7.0	243	6
2023-08-25T12:00	2114	789	11.8	6.8	243	7
2023-08-25T12:00	2136	787	11.7	6.7	243	7
2023-08-25T12:00	2158	785	11.5	6.7	244	8
2023-08-25T12:00	2184	783	11.5	6.9	246	8
2023-08-25T12:00	2207	781	11.5	6.9	248	9
2023-08-25T12:00	2239	778	11.3	6.7	251	9
2023-08-25T12:00	2259	776	11.1	6.6	254	10
2023-08-25T12:00	2277	774	10.9	6.6	256	10
2023-08-25T12:00	2304	772	10.7	6.3	258	10
2023-08-25T12:00	2322	770	10.6	6.3	259	10
2023-08-25T12:00	2343	768	10.4	6.4	259	10
2023-08-25T12:00	2376	765	10.1	6.2	259	10
2023-08-25T12:00	2400	763	9.9	6.1	260	11
2023-08-25T12:00	2422	761	10.0	5.7	262	12
2023-08-25T12:00	2440	759	10.0	5.2	264	13
2023-08-25T12:00	2465	757	10.1	4.8	265	13
2023-08-25T12:00	2482	755	10.1	4.6	265	14
2023-08-25T12:00	2508	753	10.1	4.0	265	14
2023-08-25T12:00	2525	751	10.1	4.0	265	14
2023-08-25T12:00	2546	749	10.0	3.8	265	14
2023-08-25T12:00	2569	747	9.9	3.5	266	14
2023-08-25T12:00	2591	745	9.9	3.3	267	14
2023-08-25T12:00	2612	743	9.8	3.2	267	14
2023-08-25T12:00	2637	741	9.6	3.0	266	13
2023-08-25T12:00	2657	740	9.6	2.7	265	13
2023-08-25T12:00	2671	738	9.5	2.7	264	13
2023-08-25T12:00	2701	736	9.3	2.4	264	13
2023-08-25T12:00	2731	733	9.1	2.4	266	13
2023-08-25T12:00	2753	731	8.9	2.4	267	13
2023-08-25T12:00	2773	729	8.7	2.3	267	12
2023-08-25T12:00	2794	727	8.5	2.3	267	12
2023-08-25T12:00	2816	725	8.4	2.0	265	12
2023-08-25T12:00	2843	723	8.3	1.2	265	11
2023-08-25T12:00	2861	721	8.3	1.1	264	11
2023-08-25T12:00	2891	719	8.1	0.6	264	11
2023-08-25T12:00	2912	717	8.0	0.6	263	11
2023-08-25T12:00	2927	716	7.9	0.6	260	11
2023-08-25T12:00	2950	714	7.7	0.6	257	11
2023-08-25T12:00	2982	711	7.4	0.3	253	12
2023-08-25T12:00	3009	709	7.2	0.2	250	12
2023-08-25T12:00	3037	706	7.1	0.0	249	11
2023-08-25T12:00	3056	705	6.9	-0.3	249	11
2023-08-25T12:00	3076	703	6.8	-0.5	250	11
2023-08-25T12:00	3098	701	6.6	-0.6	251	11
2023-08-25T12:00	3117	699	6.4	-0.7	252	11
2023-08-25T12:00	3149	697	6.1	-0.8	253	11
2023-08-25T12:00	3169	695	5.9	-0.8	254	11
2023-08-25T12:00	3189	693	5.8	-0.8	255	12
2023-08-25T12:00	3213	691	5.5	-0.8	254	12
2023-08-25T12:00	3239	689	5.3	-0.9	252	12
2023-08-25T12:00	3257	688	5.1	-0.9	249	12
2023-08-25T12:00	3279	686	4.9	-1.0	247	12
2023-08-25T12:00	3303	684	4.7	-1.0	247	12
2023-08-25T12:00	3321	682	4.5	-1.0	248	11
2023-08-25T12:00	3347	680	4.3		251	11
2023-08-25T12:00	3367	678	4.1	-1.1	255	10
2023-08-25T12:00	3391	676	3.9	-1.3	259	10
2023-08-25T12:00	3420	674	3.6	-1.5	261	11
2023-08-25T12:00	3448	672	3.4	-1.5	263	11
2023-08-25T12:00	3471	670	3.3	-1.3	263	11
2023-08-25T12:00	3492	668	3.1	-1.4	263	12
2023-08-25T12:00	3518	666	2.9	-1.4	264	12
2023-08-25T12:00	3539	664	2.7	-1.4	264	13
2023-08-25T12:00	3558	663	2.5	-1.6	264	13
2023-08-25T12:00	3581	661	2.3	-1.5	263	13
2023-08-25T12:00	3610	659	2.1	-1.5	262	14
2023-08-25T12:00	3625	657	2.0	-1.3	262	14
2023-08-25T12:00	3645	656	1.8	-1.0	262	14
2023-08-25T12:00	3670	653	1.6	-1.0	263	14
2023-08-25T12:00	3704	651	1.5	-1.2	264	15
2023-08-25T12:00	3728	649	1.4	-1.3	266	15
2023-08-25T12:00	3753	647	1.2	-1.5	267	15
2023-08-25T12:00	3779	645	1.0	-1.8	267	15
2023-08-25T12:00	3797	643	0.9	-1.8	267	15
2023-08-25T12:00	3817	642	0.7	-2.2	267	15
2023-08-25T12:00	3846	639	0.5	-2.5	267	15
2023-08-25T12:00	3881	637	0.2	-2.2	267	15
2023-08-25T12:00	3905	635	0.1	-2.2	266	15
2023-08-25T12:00	3930	633	-0.1	-2.5	266	15
2023-08-25T12:00	3960	631	-0.3	-2.8	265	16
2023-08-25T12:00	3983	629	-0.5	-3.1	264	16
2023-08-25T12:00	4002	627	-0.6	-3.1	264	16
2023-08-25T12:00	4019	626	-0.7	-3.1	264	17
2023-08-25T12:00	4047	624	-1.0	-3.6	265	17
2023-08-25T12:00	4078	621	-1.2	-3.5	266	17
2023-08-25T12:00	4105	619	-1.4	-4.0	266	18
2023-08-25T12:00	4133	617	-1.6	-4.5	267	17
2023-08-25T12:00	4161	615	-1.9	-4.9	267	17
2023-08-25T12:00	4182	613	-2.0	-5.2	267	17
2023-08-25T12:00	4202	612	-2.1	-5.5	265	17
2023-08-25T12:00	4227	610	-2.0	-7.8	262	18
2023-08-25T12:00	4250	608	-1.9	-8.6	259	18
2023-08-25T12:00	4267	607	-1.8	-9.4	256	18
2023-08-25T12:00	4285	605	-1.6	-9.9	254	18
2023-08-25T12:00	4306	604	-1.5	-12.4	253	18
2023-08-25T12:00	4324	602	-1.2	-15.1	252	18
2023-08-25T12:00	4349	600	-0.9	-18.5	251	17
2023-08-25T12:00	4376	598	-1.0	-16.9	251	17
2023-08-25T12:00	4401	597	-0.9	-16.6	251	17
2023-08-25T12:00	4417	595	-1.1	-14.2	250	17
2023-08-25T12:00	4434	594	-1.2	-14.5	250	17
2023-08-25T12:00	4456	592	-1.4	-16.0	251	17
2023-08-25T12:00	4472	591	-1.5	-14.9	250	17
2023-08-25T12:00	4493	590	-1.7	-15.4	250	17
2023-08-25T12:00	4514	588	-1.8	-15.9	249	17
2023-08-25T12:00	4544	586	-2.0	-16.7	247	16
2023-08-25T12:00	4567	584	-2.2	-17.1	246	16
2023-08-25T12:00	4593	582	-2.3	-18.8	245	15
2023-08-25T12:00	4611	581	-2.5	-19.9	246	15
2023-08-25T12:00	4630	579	-2.6	-20.6	247	15
2023-08-25T12:00	4651	578	-2.6	-21.1	249	16
2023-08-25T12:00	4685	576	-2.9	-20.3	251	16
2023-08-25T12:00	4715	574	-3.2	-20.3	253	16
2023-08-25T12:00	4733	572	-3.4	-20.2	253	16
2023-08-25T12:00	4749	571	-3.6	-20.1	253	16
2023-08-25T12:00	4769	569	-3.7	-20.0	252	16
2023-08-25T12:00	4796	568	-4.0	-19.5	252	17
2023-08-25T12:00	4824	566	-4.2	-19.8	251	17
2023-08-25T12:00	4853	564	-4.4	-20.0	250	17
2023-08-25T12:00	4867	562	-4.6	-20.4	249	18
2023-08-25T12:00	4886	561	-4.6	-21.0	249	18
2023-08-25T12:00	4905	560	-4.8	-21.0	248	18
2023-08-25T12:00	4921	559	-4.9	-20.5	247	18
2023-08-25T12:00	4941	557	-5.0	-20.1	245	18
2023-08-25T12:00	4961	556	-5.1	-20.6	244	18
2023-08-25T12:00	4991	554	-5.2	-20.6	242	18
2023-08-25T12:00	5019	552	-5.4	-20.4	240	18
2023-08-25T12:00	5043	550	-5.6	-20.4	238	18
2023-08-25T12:00	5069	548	-5.8	-20.5	238	18
2023-08-25T12:00	5095	546	-6.0	-20.0	238	19
2023-08-25T12:00	5121	545	-6.2	-19.4	240	20
2023-08-25T12:00	5146	543	-6.4	-19.6	242	20
2023-08-25T12:00	5171	541	-6.6	-20.0	244	20
2023-08-25T12:00	5198	539	-6.7	-20.5	247	20
2023-08-25T12:00	5227	537	-7.0	-20.9	249	19
2023-08-25T12:00	5260	535	-7.1	-22.7	249	18
2023-08-25T12:00	5285	533	-7.0	-23.8	250	18
2023-08-25T12:00	5310	531	-7.1	-24.8	250	17
2023-08-25T12:00	5346	529	-7.3	-25.0	251	17
2023-08-25T12:00	5373	527	-7.5	-25.3	253	17
2023-08-25T12:00	5389	526	-7.5	-25.3	254	17
2023-08-25T12:00	5407	525	-7.7	-25.5	255	17
2023-08-25T12:00	5425	524	-7.8	-25.9	255	17
2023-08-25T12:00	5445	522	-8.0	-26.2	254	17
2023-08-25T12:00	5465	521	-8.1	-26.7	254	16
2023-08-25T12:00	5496	519	-8.2	-28.1	254	16
2023-08-25T12:00	5520	517	-8.4	-28.0	254	16
2023-08-25T12:00	5546	516	-8.5	-26.2	254	15
2023-08-25T12:00	5575	514	-8.8	-26.7	254	15
2023-08-25T12:00	5601	512	-8.9	-29.0	254	15
2023-08-25T12:00	5623	510	-9.1	-28.7	253	16
2023-08-25T12:00	5650	509	-9.3	-29.0	253	16
2023-08-25T12:00	5683	507	-9.5	-29.7	252	16
2023-08-25T12:00	5709	505	-9.6	-29.6	251	16
2023-08-25T12:00	5729	503	-9.8	-29.7	251	17
2023-08-25T12:00	5752	502	-9.9	-29.4	250	17
2023-08-25T12:00	5771	501	-10.1	-29.5	250	16
2023-08-25T12:00	5789	500	-10.3	-29.6	250	16
2023-08-25T12:00	5810	498	-10.3	-29.8	249	16
2023-08-25T12:00	5841	496	-10.5	-29.8	248	16
2023-08-25T12:00	5867	495	-10.8	-29.0	246	16
2023-08-25T12:00	5894	493	-11.0	-28.8	244	17
2023-08-25T12:00	5917	491	-11.2	-28.6	243	17
2023-08-25T12:00	5945	490	-11.5	-28.7	242	17
2023-08-25T12:00	5967	488	-11.7	-28.7	243	18
2023-08-25T12:00	5998	486	-12.0	-28.9	243	18
2023-08-25T12:00	6021	485	-12.2	-29.0	243	18
2023-08-25T12:00	6046	483	-12.5	-29.1	242	18
2023-08-25T12:00	6065	482	-12.7	-29.3	241	18
2023-08-25T12:00	6088	480	-12.9	-29.4	240	18
2023-08-25T12:00	6115	479	-13.1	-29.8	240	18
2023-08-25T12:00	6138	477	-13.3	-29.8	240	19
2023-08-25T12:00	6167	476	-13.4	-29.2	240	20
2023-08-25T12:00	6201	474	-13.6	-28.1	240	20
2023-08-25T12:00	6225	472	-13.7	-29.3	240	21
2023-08-25T12:00	6241	471	-13.6	-32.8	239	20
2023-08-25T12:00	6260	470	-13.6	-33.8	240	20
2023-08-25T12:00	6280	468	-13.7	-34.1	240	19
2023-08-25T12:00	6308	467	-14.0	-34.2	242	19
2023-08-25T12:00	6332	465	-14.2	-34.8	245	18
2023-08-25T12:00	6361	464	-14.2	-35.8	248	18
2023-08-25T12:00	6390	462	-14.2	-33.4	249	18
2023-08-25T12:00	6415	460	-14.2	-30.2	250	18
2023-08-25T12:00	6449	458	-14.5	-30.6	249	18
2023-08-25T12:00	6472	457	-14.7	-30.5	248	18
2023-08-25T12:00	6505	455	-15.0	-30.2	247	18
2023-08-25T12:00	6539	453	-15.3	-30.5	247	18
2023-08-25T12:00	6567	451	-15.6	-30.4	247	19
2023-08-25T12:00	6588	450	-15.7	-32.3	247	19
2023-08-25T12:00	6613	448	-15.9	-32.4	248	19
2023-08-25T12:00	6638	447	-16.1	-28.7	249	19
2023-08-25T12:00	6669	445	-16.4	-28.9	250	18
2023-08-25T12:00	6689	444	-16.5	-28.9	252	18
2023-08-25T12:00	6713	442	-16.8	-28.7	254	18
2023-08-25T12:00	6735	441	-16.9	-29.1	255	18
2023-08-25T12:00	6760	440	-17.1	-29.2	257	18
2023-08-25T12:00	6779	439	-17.3	-29.1	258	18
2023-08-25T12:00	6803	437	-17.5	-29.3	258	18
2023-08-25T12:00	6829	436	-17.7	-29.5	257	18
2023-08-25T12:00	6854	434	-18.0	-29.7	255	18
2023-08-25T12:00	6877	433	-18.1	-29.3	254	17
2023-08-25T12:00	6894	432	-18.4	-29.8	252	17
2023-08-25T12:00	6921	430	-18.5	-29.2	252	17
2023-08-25T12:00	6937	429	-18.6	-29.2	253	17
2023-08-25T12:00	6958	428	-18.8	-29.5	255	17
2023-08-25T12:00	6995	426	-19.2	-29.7	257	17
2023-08-25T12:00	7019	425	-19.4	-30.0	259	17
2023-08-25T12:00	7043	423	-19.6	-29.4	260	18
2023-08-25T12:00	7070	422	-19.9	-28.3	261	19
2023-08-25T12:00	7095	420	-19.9	-26.3	262	20
2023-08-25T12:00	7127	419	-20.3	-26.3	262	21
2023-08-25T12:00	7149	417	-19.8	-23.2	261	21
2023-08-25T12:00	7177	416	-20.0	-23.5	260	22
2023-08-25T12:00	7200	414	-20.1	-23.6	259	22
2023-08-25T12:00	7219	413	-20.3	-23.8	259	23
2023-08-25T12:00	7237	412	-20.4	-23.7	258	23
2023-08-25T12:00	7258	411	-20.5		258	23
2023-08-25T12:00	7287	410	-20.6	-23.9	258	23
2023-08-25T12:00	7310	408	-20.8	-23.9	258	23
2023-08-25T12:00	7332	407	-21.0	-24.0	259	23
2023-08-25T12:00	7356	406	-21.2	-24.0	259	23
2023-08-25T12:00	7380	404	-21.4	-24.1	260	24
2023-08-25T12:00	7407	403	-21.6	-24.1	261	24
2023-08-25T12:00	7440	401	-21.9		261	24
2023-08-25T12:00	7466	400	-22.1	-25.0	261	23
2023-08-25T12:00	7489	398	-22.2	-24.9	261	23
2023-08-25T12:00	7516	397	-22.4	-25.2	260	22
2023-08-25T12:00	7548	395	-22.6	-25.3	259	22
2023-08-25T12:00	7576	394	-22.7	-25.2	258	22
2023-08-25T12:00	7606	392	-22.9	-25.4	258	22
2023-08-25T12:00	7624	391	-23.1	-25.4	257	22
2023-08-25T12:00	7645	390	-23.2	-25.5	258	22
2023-08-25T12:00	7667	389	-23.3	-25.6	259	22
2023-08-25T12:00	7695	388	-23.4	-25.9	260	23
2023-08-25T12:00	7724	386	-23.7	-26.1	260	23
2023-08-25T12:00	7758	384	-24.0	-26.3	260	23
2023-08-25T12:00	7785	383	-24.2	-26.3	260	24
2023-08-25T12:00	7815	381	-24.5	-26.5	259	24
2023-08-25T12:00	7844	380	-24.7	-26.7	259	24
2023-08-25T12:00	7874	378	-24.9	-26.9	258	23
2023-08-25T12:00	7898	377	-25.1	-27.0	258	23
2023-08-25T12:00	7921	376	-25.2	-27.0	258	24
2023-08-25T12:00	7947	374	-25.5	-27.0	258	24
2023-08-25T12:00	7975	373	-25.7	-27.4	259	24
2023-08-25T12:00	8001	371	-25.9	-27.9	260	24
2023-08-25T12:00	8033	370	-26.2	-28.1	260	25
2023-08-25T12:00	8061	368	-26.4	-28.6	261	25
2023-08-25T12:00	8092	367	-26.6	-28.9	261	25
2023-08-25T12:00	8123	365	-26.8	-29.2	260	25
2023-08-25T12:00	8150	364	-27.0	-29.2	260	25
2023-08-25T12:00	8178	363	-27.3	-29.4	260	24
2023-08-25T12:00	8200	361	-27.5	-29.5	260	25
2023-08-25T12:00	8228	360	-27.7	-29.7	261	25
2023-08-25T12:00	8248	359	-27.8	-29.7	262	25
2023-08-25T12:00	8271	358	-28.0	-29.9	262	25
2023-08-25T12:00	8296	357	-28.1	-30.1	261	25
2023-08-25T12:00	8323	355	-28.3	-30.3	260	25
2023-08-25T12:00	8359	354	-28.5	-30.7	259	26
2023-08-25T12:00	8391	352	-28.7	-30.9	259	26
2023-08-25T12:00	8415	351	-28.8	-31.1	259	27
2023-08-25T12:00	8440	349	-29.0	-31.2	259	27
2023-08-25T12:00	8473	348	-29.3	-31.3	258	27
2023-08-25T12:00	8506	346	-29.5	-31.4	256	27
2023-08-25T12:00	8536	345	-29.7	-31.9	255	28
2023-08-25T12:00	8564	344	-29.9	-32.0	253	28
2023-08-25T12:00	8590	342	-30.1	-32.1	252	29
2023-08-25T12:00	8610	341	-30.3	-32.2	252	29
2023-08-25T12:00	8635	340	-30.4	-32.3	253	29
2023-08-25T12:00	8659	339	-30.6	-32.5	254	29
2023-08-25T12:00	8688	338	-30.8	-32.7	256	28
2023-08-25T12:00	8722	336	-31.1	-33.1	257	28
2023-08-25T12:00	8760	334	-31.4	-33.6	258	28
2023-08-25T12:00	8781	333	-31.6	-33.7	258	28
2023-08-25T12:00	8807	332	-31.8	-34.0	259	28
2023-08-25T12:00	8833	331	-32.0	-34.2	259	29
2023-08-25T12:00	8858	329	-32.2	-34.5	259	29
2023-08-25T12:00	8889	328	-32.5	-34.9	260	30
2023-08-25T12:00	8917	327	-32.7	-35.1	260	30
2023-08-25T12:00	8953	325	-32.9	-35.4	260	31
2023-08-25T12:00	8980	324	-33.2	-35.7	260	31
2023-08-25T12:00	9014	322	-33.4	-36.0	260	31
2023-08-25T12:00	9049	321	-33.7	-36.2	260	32
2023-08-25T12:00	9088	319	-33.9	-36.4	259	32
2023-08-25T12:00	9108	318	-34.1	-36.7	259	32
2023-08-25T12:00	9130	317	-34.3	-36.8	259	32
2023-08-25T12:00	9155	316	-34.5		259	32
2023-08-25T12:00	9183	315	-34.7	-37.1	259	32
2023-08-25T12:00	9212	313	-34.9	-37.3	258	32
2023-08-25T12:00	9245	312	-35.2	-37.6	257	32
2023-08-25T12:00	9279	310	-35.4	-37.9	256	32
2023-08-25T12:00	9311	309	-35.6	-37.9	254	33
2023-08-25T12:00	9337	308	-35.9	-38.2	254	33
2023-08-25T12:00	9361	307	-36.1	-38.3	254	34
2023-08-25T12:00	9387	305	-36.3	-38.5	255	34
2023-08-25T12:00	9423	304	-36.5	-38.7	256	35
2023-08-25T12:00	9448	303	-36.7	-39.1	256	35
2023-08-25T12:00	9473	302	-36.8	-39.2	256	35
2023-08-25T12:00	9499	301	-37.0	-39.3	256	35
2023-08-25T12:00	9528	299	-37.2	-39.6	255	35
2023-08-25T12:00	9557	298	-37.5	-40.2	255	35
2023-08-25T12:00	9581	297	-37.7	-40.6	254	35
2023-08-25T12:00	9608	296	-37.9	-40.7	254	35
2023-08-25T12:00	9642	294	-38.2	-41.0	254	35
2023-08-25T12:00	9682	293	-38.6	-41.5	254	35
2023-08-25T12:00	9721	291	-38.9	-42.1	254	34
2023-08-25T12:00	9744	290	-39.1	-41.9	255	34
2023-08-25T12:00	9773	289	-39.4	-42.0	255	34
2023-08-25T12:00	9807	288	-39.6	-42.3	255	35
2023-08-25T12:00	9832	286	-39.9	-42.5	255	35
2023-08-25T12:00	9862	285	-40.1	-43.0	254	35
2023-08-25T12:00	9886	284	-40.4	-42.9	253	35
2023-08-25T12:00	9914	283	-40.6	-43.4	252	34
2023-08-25T12:00	9934	282	-40.8	-43.6	252	34
2023-08-25T12:00	9954	281	-41.0	-44.0	253	33
2023-08-25T12:00	9977	280	-41.2	-44.0	253	33
2023-08-25T12:00	10004	279	-41.5	-44.6	254	34
2023-08-25T12:00	10035	278	-41.8	-45.0	254	34
2023-08-25T12:00	10062	277	-42.0	-45.3	254	34
2023-08-25T12:00	10091	276	-42.2	-45.7	254	35
2023-08-25T12:00	10117	275	-42.4	-45.8	254	35
2023-08-25T12:00	10141	274	-42.6	-46.0	253	34
2023-08-25T12:00	10167	273	-42.9	-46.3	253	34
2023-08-25T12:00	10193	272	-43.1	-46.4	253	34
2023-08-25T12:00	10219	271	-43.3	-46.7	253	34
2023-08-25T12:00	10243	270	-43.6	-46.8	253	35
2023-08-25T12:00	10273	268	-43.8	-47.2	253	36
2023-08-25T12:00	10305	267	-44.0	-47.8	253	37
2023-08-25T12:00	10329	266	-44.2	-48.1	253	38
2023-08-25T12:00	10355	265	-44.4	-48.3	253	38
2023-08-25T12:00	10390	264	-44.7	-48.5	254	39
2023-08-25T12:00	10409	263	-44.8	-48.9	254	39
2023-08-25T12:00	10431	262	-45.0	-49.0	253	39
2023-08-25T12:00	10456	261	-45.3	-48.8	253	38
2023-08-25T12:00	10481	260	-45.5	-48.9	253	38
2023-08-25T12:00	10503	259	-45.7	-49.3	253	38
2023-08-25T12:00	10527	258	-45.9	-49.4	254	37
2023-08-25T12:00	10553	257	-46.1	-49.3	254	37
2023-08-25T12:00	10582	256	-46.4	-49.5	254	37
2023-08-25T12:00	10608	255	-46.7	-50.0	254	38
2023-08-25T12:00	10639	254	-46.9	-50.4	254	39
2023-08-25T12:00	10661	253	-47.1	-50.7	254	40
2023-08-25T12:00	10684	252	-47.3	-50.8	255	41
2023-08-25T12:00	10718	251	-47.6	-51.1	255	42
2023-08-25T12:00	10746	250	-47.8	-51.5	254	42
2023-08-25T12:00	10772	249	-48.1	-51.9	254	42
2023-08-25T12:00	10796	248	-48.3	-52.1	255	42
2023-08-25T12:00	10827	247	-48.6	-52.4	255	42
2023-08-25T12:00	10853	246	-48.9	-52.6	256	42
2023-08-25T12:00	10875	245	-49.1	-52.8	256	42
2023-08-25T12:00	10900	244	-49.3	-52.7	257	41
2023-08-25T12:00	10917	244	-49.5	-52.9	257	41
2023-08-25T12:00	10941	243	-49.7	-53.2	257	42
2023-08-25T12:00	10962	242	-49.8		257	42
2023-08-25T12:00	10982	241	-50.0	-54.1	258	42
2023-08-25T12:00	11003	240	-50.2	-54.1	258	42
2023-08-25T12:00	11023	240	-50.4	-54.0	258	42
2023-08-25T12:00	11047	239	-50.6	-54.1	258	42
2023-08-25T12:00	11068	238	-50.8	-54.3	258	41
2023-08-25T12:00	11088	237	-51.0	-54.5	258	41
2023-08-25T12:00	11110	236	-51.2	-54.6	258	41
2023-08-25T12:00	11131	236	-51.4	-54.7	259	41
2023-08-25T12:00	11154	235	-51.6	-54.8	259	41
2023-08-25T12:00	11174	234	-51.8	-54.9	259	41
2023-08-25T12:00	11195	233	-52.0	-55.1	259	41
2023-08-25T12:00	11218	233	-52.2	-55.5	259	41
2023-08-25T12:00	11239	232	-52.4	-56.0	259	41
2023-08-25T12:00	11260	231	-52.6	-56.5	259	41
2023-08-25T12:00	11282	230	-52.8	-57.0	260	41
2023-08-25T12:00	11301	230	-53.0	-57.6	260	41
2023-08-25T12:00	11321	229	-53.1	-57.7	260	41
2023-08-25T12:00	11343	228	-53.3	-57.8	260	41
2023-08-25T12:00	11365	227	-53.5	-57.9	260	41
2023-08-25T12:00	11390	226	-53.7	-58.0	260	41
2023-08-25T12:00	11411	226	-54.0	-58.1	260	41
2023-08-25T12:00	11433	225	-54.2	-58.2	260	41
2023-08-25T12:00	11457	224	-54.4	-58.4	260	41
2023-08-25T12:00	11479	223	-54.6	-58.7	261	41
2023-08-25T12:00	11506	222	-54.8	-58.8	261	41
2023-08-25T12:00	11528	222	-55.1	-59.1	261	41
2023-08-25T12:00	11551	221	-55.3	-59.4	261	41
2023-08-25T12:00	11573	220	-55.5	-59.7	261	41
2023-08-25T12:00	11595	219	-55.7	-59.9	261	41
2023-08-25T12:00	11619	219	-55.9	-60.0	261	41
2023-08-25T12:00	11639	218	-56.1	-60.2	261	42
2023-08-25T12:00	11659	217	-56.3	-60.4	262	42
2023-08-25T12:00	11681	216	-56.4	-60.4	262	42
2023-08-25T12:00	11703	216	-56.6	-60.7	263	42
2023-08-25T12:00	11725	215	-56.6	-60.9	264	43
2023-08-25T12:00	11756	214	-56.8	-61.4	264	43
2023-08-25T12:00	11777	213	-56.7	-61.4	265	43
2023-08-25T12:00	11795	212	-56.9	-61.6	266	44
2023-08-25T12:00	11819	212	-56.9	-61.6	267	44
2023-08-25T12:00	11839	211	-57.0	-61.5	268	44
2023-08-25T12:00	11859	210	-56.9	-61.3	269	44
2023-08-25T12:00	11878	210	-56.7	-61.3	269	43
2023-08-25T12:00	11897	209	-56.6	-61.4	269	42
2023-08-25T12:00	11919	208	-56.6	-61.6	269	42
2023-08-25T12:00	11939	208	-56.7	-61.8	269	41
2023-08-25T12:00	11961	207	-56.8	-62.0	269	40
2023-08-25T12:00	11983	206	-56.9	-62.1	269	40
2023-08-25T12:00	12004	206	-57.0	-62.3	269	40
2023-08-25T12:00	12023	205	-57.2	-62.6	268	39
2023-08-25T12:00	12044	204	-57.2	-62.8	268	39
2023-08-25T12:00	12064	204	-57.3	-63.1	267	39
2023-08-25T12:00	12086	203	-57.5	-63.4	266	38
2023-08-25T12:00	12105	202	-57.6	-63.5	266	38
2023-08-25T12:00	12127	202	-57.8	-63.7	265	38
2023-08-25T12:00	12146	201	-57.9	-63.9	264	37
2023-08-25T12:00	12169	200	-58.1	-64.3	263	37
2023-08-25T12:00	12189	200	-58.2	-64.7	261	37
2023-08-25T12:00	12219	199	-58.2	-65.2	260	37
2023-08-25T12:00	12252	198	-58.3	-65.8	259	37
2023-08-25T12:00	12273	197	-58.3	-66.3	259	37
2023-08-25T12:00	12297	196	-58.2	-66.8	259	37
2023-08-25T12:00	12321	196	-58.2	-67.6	260	37
2023-08-25T12:00	12346	195	-57.8	-68.4	261	36
2023-08-25T12:00	12369	194	-57.2	-69.3	262	36
2023-08-25T12:00	12392	193	-57.3	-70.5	262	35
2023-08-25T12:00	12414	193	-57.3	-70.8	262	35
2023-08-25T12:00	12442	192	-57.4	-70.6	263	34
2023-08-25T12:00	12473	191	-57.6	-70.3	264	34
2023-08-25T12:00	12497	190	-57.8	-70.0	265	34
2023-08-25T12:00	12519	189	-58.0	-69.7	266	33
2023-08-25T12:00	12543	189	-58.1	-69.2	267	33
2023-08-25T12:00	12566	188	-58.3	-68.9	267	33
2023-08-25T12:00	12587	187	-58.4	-68.7	267	32
2023-08-25T12:00	12611	187	-58.6	-68.8	267	32
2023-08-25T12:00	12632	186	-58.7	-69.3	267	31
2023-08-25T12:00	12652	186	-58.3	-69.8	266	31
2023-08-25T12:00	12672	185	-58.0	-70.6	266	30
2023-08-25T12:00	12692	184	-57.5	-71.1	266	30
2023-08-25T12:00	12715	184	-57.3	-71.5	266	29
2023-08-25T12:00	12738	183	-57.3	-71.8	266	29
2023-08-25T12:00	12758	182	-57.4	-72.0	266	28
2023-08-25T12:00	12777	182	-57.4	-72.0	266	27
2023-08-25T12:00	12800	181	-57.5	-72.2	265	26
2023-08-25T12:00	12822	181	-57.4	-72.2	265	26
2023-08-25T12:00	12839	180	-57.5	-72.3	264	25
2023-08-25T12:00	12860	180	-57.6	-72.6	264	25
2023-08-25T12:00	12878	179	-57.5	-73.0	263	25
2023-08-25T12:00	12895	178	-57.4	-73.7	263	25
2023-08-25T12:00	12918	178	-57.2	-74.5	263	25
2023-08-25T12:00	12933	177	-57.2	-75.4	262	24
2023-08-25T12:00	12952	177	-57.2	-76.0	260	24
2023-08-25T12:00	12974	176	-57.1	-76.6	259	24
2023-08-25T12:00	12994	176	-56.5	-76.5	257	24
2023-08-25T12:00	13014	175	-56.5	-76.7	255	24
2023-08-25T12:00	13034	175	-56.5	-76.7	253	24
2023-08-25T12:00	13051	174	-56.5	-76.7	251	24
2023-08-25T12:00	13070	174	-56.3	-76.6	250	24
2023-08-25T12:00	13087	173	-56.3	-76.7	250	24
2023-08-25T12:00	13105	173	-56.4	-76.8	249	24
2023-08-25T12:00	13123	172	-56.5	-76.8	250	25
2023-08-25T12:00	13143	172	-56.6	-76.8	250	25
2023-08-25T12:00	13160	171	-56.8	-77.0	250	25
2023-08-25T12:00	13178	171	-56.9	-77.2	251	24
2023-08-25T12:00	13200	170	-56.9	-77.3	252	24
2023-08-25T12:00	13217	170	-56.8	-77.3	253	24
2023-08-25T12:00	13235	169	-56.9	-77.5	254	24
2023-08-25T12:00	13254	169	-57.0	-77.6	254	24
2023-08-25T12:00	13274	168	-57.0	-77.9	255	24
2023-08-25T12:00	13293	168	-56.8	-78.0	256	23
2023-08-25T12:00	13313	167	-56.4	-77.8	257	23
2023-08-25T12:00	13335	167	-56.5	-78.0	257	23
2023-08-25T12:00	13353	166	-56.7	-78.0	258	23
2023-08-25T12:00	13376	165	-56.9	-78.1	259	22
2023-08-25T12:00	13409	165	-57.2	-78.3	260	22
2023-08-25T12:00	13427	164	-57.3	-78.4	261	22
2023-08-25T12:00	13444	164	-57.4	-78.3	261	22
2023-08-25T12:00	13467	163	-57.5	-78.4	261	22
2023-08-25T12:00	13487	163	-57.6	-78.5	261	22
2023-08-25T12:00	13507	162	-57.7	-78.6	261	22
2023-08-25T12:00	13525	162	-57.8	-78.5	261	22
2023-08-25T12:00	13548	161	-57.9	-78.6	262	22
2023-08-25T12:00	13567	161	-57.9	-78.6	262	23
2023-08-25T12:00	13586	160	-58.0	-78.7	262	23
2023-08-25T12:00	13605	160	-58.0	-78.7	262	23
2023-08-25T12:00	13626	159	-58.0	-78.7	262	24
2023-08-25T12:00	13649	158	-58.1	-78.8	262	24
2023-08-25T12:00	13668	158	-58.3	-78.8	262	24
2023-08-25T12:00	13689	157	-58.5	-78.9	262	24
2023-08-25T12:00	13711	157	-58.6	-78.8	263	24
2023-08-25T12:00	13734	156	-58.8	-79.0	263	24
2023-08-25T12:00	13753	156	-58.9	-79.1	263	23
2023-08-25T12:00	13775	155	-58.8	-79.0	264	23
2023-08-25T12:00	13797	155	-58.9	-79.2	264	23
2023-08-25T12:00	13816	154	-58.7	-79.0	264	22
2023-08-25T12:00	13839	154	-58.6	-78.9	265	22
2023-08-25T12:00	13858	153	-58.4	-78.8	265	21
2023-08-25T12:00	13880	153	-58.2	-78.6	265	21
2023-08-25T12:00	13899	152	-58.3	-78.9	264	21
2023-08-25T12:00	13920	152	-57.9	-79.0	263	20
2023-08-25T12:00	13944	151	-57.7	-79.7	262	20
2023-08-25T12:00	13973	150	-57.1	-80.3	260	19
2023-08-25T12:00	14003	150	-56.3	-80.6	258	19
2023-08-25T12:00	14030	149	-56.2	-81.2	256	19
2023-08-25T12:00	14053	149	-56.3	-81.5	253	18
2023-08-25T12:00	14074	148	-56.4	-81.6	250	18
2023-08-25T12:00	14094	148	-56.5	-81.5	247	18
2023-08-25T12:00	14118	147	-56.6	-81.3	245	18
2023-08-25T12:00	14143	147	-56.8	-81.5	243	18
2023-08-25T12:00	14165	146	-56.9	-81.3	242	18
2023-08-25T12:00	14190	145	-57.0	-81.4	241	18
2023-08-25T12:00	14213	145	-57.2	-81.5	240	18
2023-08-25T12:00	14235	144	-57.4	-81.5	239	18
2023-08-25T12:00	14256	144	-57.6	-81.6	239	19
2023-08-25T12:00	14275	143	-57.8	-81.8	240	19
2023-08-25T12:00	14298	143	-57.9	-81.9	241	19
2023-08-25T12:00	14320	142	-57.9	-81.9	243	19
2023-08-25T12:00	14338	142	-57.9	-82.1	245	20
2023-08-25T12:00	14361	142	-57.7	-82.2	247	19
2023-08-25T12:00	14380	141	-57.7	-82.2	249	19
2023-08-25T12:00	14399	141	-57.6	-82.1	250	19
2023-08-25T12:00	14417	140	-57.5	-82.2	252	19
2023-08-25T12:00	14438	140	-57.2	-82.0	254	18
2023-08-25T12:00	14456	139	-57.2	-82.0	256	19
2023-08-25T12:00	14478	139	-57.2	-82.0	258	19
2023-08-25T12:00	14496	139	-57.1	-81.9	259	19
2023-08-25T12:00	14514	138	-57.0	-81.8	261	20
2023-08-25T12:00	14534	138	-57.0	-81.8	262	20
2023-08-25T12:00	14555	137	-57.0	-81.8	263	20
2023-08-25T12:00	14577	137	-57.0	-81.8	264	20
2023-08-25T12:00	14598	136	-57.0	-81.8	264	20
2023-08-25T12:00	14618	136	-57.0	-81.8	264	20
2023-08-25T12:00	14639	135	-57.1	-81.9	263	20
2023-08-25T12:00	14656	135	-57.1	-81.9	262	20
2023-08-25T12:00	14679	135	-57.0	-82.1	260	19
2023-08-25T12:00	14701	134	-56.7	-81.9	258	19
2023-08-25T12:00	14722	134	-56.7	-82.1	256	19
2023-08-25T12:00	14742	133	-56.8	-82.2	254	19
2023-08-25T12:00	14763	133	-56.8	-82.2	253	19
2023-08-25T12:00	14782	132	-56.7	-82.1	254	19
2023-08-25T12:00	14803	132	-56.5	-82.0	254	20
2023-08-25T12:00	14827	132	-56.4	-82.1	255	20
2023-08-25T12:00	14844	131	-56.4	-82.1	256	20
2023-08-25T12:00	14867	131	-56.5	-82.0	257	21
2023-08-25T12:00	14887	130	-56.6	-82.0	257	21
2023-08-25T12:00	14907	130	-56.6	-82.0	257	21
2023-08-25T12:00	14930	129	-56.4	-81.9	256	21
2023-08-25T12:00	14953	129	-56.1	-81.9	255	21
2023-08-25T12:00	14974	128	-55.9	-81.5	254	22
2023-08-25T12:00	14994	128	-56.0	-81.6	253	22
2023-08-25T12:00	15021	128	-56.1	-81.4	252	23
2023-08-25T12:00	15040	127	-56.3	-81.5	252	23
2023-08-25T12:00	15064	127	-56.4	-81.4	252	23
2023-08-25T12:00	15088	126	-56.6	-81.5	252	24
2023-08-25T12:00	15109	126	-56.7	-81.4	252	24
2023-08-25T12:00	15130	125	-56.9	-81.5	252	24
2023-08-25T12:00	15152	125	-57.1	-81.7	252	23
2023-08-25T12:00	15175	124	-57.1	-81.9	253	23
2023-08-25T12:00	15196	124	-56.9	-81.8	254	22
2023-08-25T12:00	15219	124	-56.7	-81.6	255	22
2023-08-25T12:00	15241	123	-56.6	-81.8	255	21
2023-08-25T12:00	15263	123	-56.6	-81.8	256	21
2023-08-25T12:00	15285	122	-56.7	-81.9	256	21
2023-08-25T12:00	15309	122	-56.8	-81.9	256	21
2023-08-25T12:00	15330	121	-56.8	-81.9	256	21
2023-08-25T12:00	15350	121	-56.8	-81.7	256	21
2023-08-25T12:00	15372	121	-56.8	-81.7	256	21
2023-08-25T12:00	15394	120	-57.0	-81.8	256	22
2023-08-25T12:00	15415	120	-57.2	-81.8	255	22
2023-08-25T12:00	15438	119	-57.4	-81.9	255	22
2023-08-25T12:00	15462	119	-57.6	-82.1	255	22
2023-08-25T12:00	15484	119	-57.8	-82.0	255	22
2023-08-25T12:00	15505	118	-57.9	-82.1	255	22
2023-08-25T12:00	15529	118	-58.1	-82.0	255	22
2023-08-25T12:00	15553	117	-58.2	-82.1	255	23
2023-08-25T12:00	15574	117	-58.4	-82.3	255	23
2023-08-25T12:00	15598	116	-58.6	-82.4	256	23
2023-08-25T12:00	15618	116	-58.7	-82.3	257	23
2023-08-25T12:00	15642	116	-58.9	-82.5	258	23
2023-08-25T12:00	15666	115	-59.0	-82.5	259	24
2023-08-25T12:00	15688	115	-59.1	-82.4	260	24
2023-08-25T12:00	15710	114	-59.2	-82.5	261	24
2023-08-25T12:00	15734	114	-59.3	-82.6	262	24
2023-08-25T12:00	15756	114	-59.5	-82.7	262	24
2023-08-25T12:00	15781	113	-59.7	-82.9	262	23
2023-08-25T12:00	15804	113	-59.6	-83.0	263	22
2023-08-25T12:00	15826	112	-59.3	-83.0	262	22
2023-08-25T12:00	15848	112	-59.0	-82.8	262	21
2023-08-25T12:00	15871	111	-58.9	-82.9	261	20
2023-08-25T12:00	15896	111	-58.8	-83.0	260	20
2023-08-25T12:00	15918	111	-58.8	-83.0	259	20
2023-08-25T12:00	15940	110	-58.9	-83.1	257	19
2023-08-25T12:00	15963	110	-59.0	-83.0	256	19
2023-08-25T12:00	15987	109	-59.2	-83.1	254	19
2023-08-25T12:00	16007	109	-59.3	-83.2	253	19
2023-08-25T12:00	16028	109	-59.3	-83.2	252	18
2023-08-25T12:00	16051	108	-59.1	-83.3	251	18
2023-08-25T12:00	16074	108	-58.9	-83.3	251	18
2023-08-25T12:00	16096	108	-58.8	-83.3	251	18
2023-08-25T12:00	16117	107	-58.7	-83.4	252	18
2023-08-25T12:00	16138	107	-58.5	-83.5	254	18
2023-08-25T12:00	16159	106	-58.2	-83.3	256	18
2023-08-25T12:00	16185	106	-58.2	-83.5	258	18
2023-08-25T12:00	16207	106	-58.1	-83.5	260	18
2023-08-25T12:00	16229	105	-58.2	-83.5	261	18
2023-08-25T12:00	16252	105	-58.2	-83.5	262	17
2023-08-25T12:00	16273	105	-58.2	-83.5	263	17
2023-08-25T12:00	16298	104	-58.1	-83.5	264	16
2023-08-25T12:00	16319	104	-58.1	-83.5	265	16
2023-08-25T12:00	16339	103	-58.1	-83.5	266	16
2023-08-25T12:00	16361	103	-58.1	-83.5	267	15
2023-08-25T12:00	16383	103	-58.2	-83.5	268	15
2023-08-25T12:00	16403	102	-58.4	-83.7	269	14
2023-08-25T12:00	16427	102	-58.5	-83.8	269	13
2023-08-25T12:00	16451	102	-58.5	-83.8	269	12
2023-08-25T12:00	16476	101	-58.3	-83.6	268	11
2023-08-25T12:00	16500	101	-58.2	-83.5	268	10
2023-08-25T12:00	16520	101	-58.2	-83.5	267	10
2023-08-25T12:00	16543	100	-58.3	-83.6	268	9
2023-08-25T12:00	16563	100	-58.4	-83.7	270	9
2023-08-25T12:00	16587	99	-58.4	-83.7	272	9
2023-08-25T12:00	16610	99	-58.3	-83.6	274	8
2023-08-25T12:00	16632	99	-58.4	-83.7	274	8
2023-08-25T12:00	16654	98	-58.5	-83.8	274	8
2023-08-25T12:00	16674	98	-58.6	-83.9	271	7
2023-08-25T12:00	16695	98	-58.7	-83.9	266	7
2023-08-25T12:00	16717	97	-58.6	-83.9	261	7
2023-08-25T12:00	16741	97	-58.6	-83.9	257	6
2023-08-25T12:00	16758	97	-58.6	-84.1	254	6
2023-08-25T12:00	16783	96	-58.5	-84.0	254	6
2023-08-25T12:00	16807	96	-58.2	-84.1	256	6
2023-08-25T12:00	16828	96	-58.2	-84.1	258	7
2023-08-25T12:00	16853	95	-58.2	-84.4	260	7
2023-08-25T12:00	16875	95	-58.2	-84.4	260	7
2023-08-25T12:00	16896	95	-57.8	-84.1	260	8
2023-08-25T12:00	16916	94	-57.6	-84.3	259	8
2023-08-25T12:00	16939	94	-57.6	-84.3	258	9
2023-08-25T12:00	16960	94	-57.5	-84.2	258	10
2023-08-25T12:00	16981	93	-57.5	-83.9	259	10
2023-08-25T12:00	17002	93	-57.6	-83.9	260	11
2023-08-25T12:00	17023	93	-57.6	-83.9	263	12
2023-08-25T12:00	17045	92	-57.6	-84.3	266	12
2023-08-25T12:00	17070	92	-57.5	-84.2	269	12
2023-08-25T12:00	17090	92	-57.4	-84.1	271	12
2023-08-25T12:00	17107	92	-57.3	-84.0	273	12
2023-08-25T12:00	17130	91	-57.2	-83.9	274	11
2023-08-25T12:00	17153	91	-57.2	-84.3	273	10
2023-08-25T12:00	17177	91	-57.2	-84.3	272	9
2023-08-25T12:00	17197	90	-57.2	-84.3	271	8
2023-08-25T12:00	17221	90	-57.0	-84.1	271	8
2023-08-25T12:00	17242	90	-57.1	-84.2	271	7
2023-08-25T12:00	17264	89	-57.2	-83.9	271	7
2023-08-25T12:00	17285	89	-57.3	-84.0	270	6
2023-08-25T12:00	17305	89	-57.5	-84.2	269	6
2023-08-25T12:00	17330	88	-57.7	-84.3	266	6
2023-08-25T12:00	17351	88	-57.8	-84.4	262	5
2023-08-25T12:00	17374	88	-57.9	-84.5	255	5
2023-08-25T12:00	17396	87	-57.9	-84.5	248	5
2023-08-25T12:00	17417	87	-58.0	-84.2	241	5
2023-08-25T12:00	17444	87	-58.1	-84.3	236	5
2023-08-25T12:00	17465	87	-58.2	-84.4	231	5
2023-08-25T12:00	17488	86	-58.2	-84.7	227	5
2023-08-25T12:00	17509	86	-58.1	-84.6	224	5
2023-08-25T12:00	17531	86	-58.1	-84.6	221	5
2023-08-25T12:00	17555	85	-58.1	-84.6	219	6
2023-08-25T12:00	17573	85	-58.2	-84.7	218	6
2023-08-25T12:00	17597	85	-58.4	-84.9	220	6
2023-08-25T12:00	17620	84	-58.5	-84.6	223	7
2023-08-25T12:00	17644	84	-58.7	-84.8	227	7
2023-08-25T12:00	17666	84	-58.8	-84.9	233	7
2023-08-25T12:00	17688	84	-58.9	-84.9	241	7
2023-08-25T12:00	17711	83	-58.8	-84.9	248	8
2023-08-25T12:00	17734	83	-58.8	-84.9	255	8
2023-08-25T12:00	17755	83	-58.8	-85.2	262	8
2023-08-25T12:00	17778	82	-58.7	-85.1	269	8
2023-08-25T12:00	17801	82	-58.6	-85.0	274	8
2023-08-25T12:00	17823	82	-58.5	-84.9	279	9
2023-08-25T12:00	17846	81	-58.4	-84.9	284	9
2023-08-25T12:00	17870	81	-58.4	-84.9	288	9
2023-08-25T12:00	17891	81	-58.4	-84.9	291	8
2023-08-25T12:00	17916	81	-58.5	-84.9	294	8
2023-08-25T12:00	17936	80	-58.3	-85.1	297	7
2023-08-25T12:00	17956	80	-58.0	-84.9	299	6
2023-08-25T12:00	17980	80	-57.9	-84.8	299	5
2023-08-25T12:00	18004	79	-57.9	-85.2	297	5
2023-08-25T12:00	18025	79	-57.9	-85.2	291	4
2023-08-25T12:00	18048	79	-57.8	-85.1	283	4
2023-08-25T12:00	18069	79	-57.4	-84.8	275	4
2023-08-25T12:00	18092	78	-57.2	-84.6	268	4
2023-08-25T12:00	18114	78	-57.3	-84.7	263	4
2023-08-25T12:00	18134	78	-57.3	-84.7	260	5
2023-08-25T12:00	18159	78	-57.3	-84.7	258	5
2023-08-25T12:00	18181	77	-57.4	-84.8	257	6
2023-08-25T12:00	18201	77	-57.4	-84.8	256	6
2023-08-25T12:00	18223	77	-57.5	-84.9	256	7
2023-08-25T12:00	18246	76	-57.6	-84.9	256	7
2023-08-25T12:00	18268	76	-57.6	-84.9	256	8
2023-08-25T12:00	18290	76	-57.5	-84.9	257	8
2023-08-25T12:00	18313	76	-57.3	-85.1	259	8
2023-08-25T12:00	18333	75	-57.2	-85.0	261	9
2023-08-25T12:00	18354	75	-57.0	-84.8	264	8
2023-08-25T12:00	18377	75	-56.9	-85.2	268	8
2023-08-25T12:00	18398	75	-56.5	-84.9	272	8
2023-08-25T12:00	18416	74	-56.3	-84.7	278	7
2023-08-25T12:00	18439	74	-56.0	-84.9	284	7
2023-08-25T12:00	18459	74	-55.8	-84.8	289	6
2023-08-25T12:00	18484	74	-55.7	-84.7	293	5
2023-08-25T12:00	18506	73	-55.5	-84.5	295	5
2023-08-25T12:00	18529	73	-55.5	-84.5	294	4
2023-08-25T12:00	18552	73	-55.6	-84.2	290	3
2023-08-25T12:00	18574	73	-55.6	-84.2	283	3
2023-08-25T12:00	18594	72	-55.8	-84.3	272	2
2023-08-25T12:00	18620	72	-55.9	-84.4	259	2
2023-08-25T12:00	18641	72	-55.9	-84.4	247	2
2023-08-25T12:00	18664	72	-56.0	-84.5	239	3
2023-08-25T12:00	18689	71	-56.2	-84.2	233	3
2023-08-25T12:00	18709	71	-56.3	-84.3	230	4
2023-08-25T12:00	18733	71	-56.4	-84.4	229	4
2023-08-25T12:00	18756	71	-56.4	-84.4	229	5
2023-08-25T12:00	18776	70	-56.6	-84.5	230	5
2023-08-25T12:00	18800	70	-56.7	-84.6	232	6
2023-08-25T12:00	18825	70	-56.7	-84.6	236	6
2023-08-25T12:00	18844	70	-56.7	-84.6	240	6
2023-08-25T12:00	18866	69	-56.7	-84.6	244	6
2023-08-25T12:00	18890	69	-56.6	-84.9	247	6
2023-08-25T12:00	18913	69	-56.6	-84.9	250	6
2023-08-25T12:00	18935	69	-56.5	-84.5	252	5
2023-08-25T12:00	18959	68	-56.6	-84.5	253	5
2023-08-25T12:00	18982	68	-56.6	-84.5	253	4
2023-08-25T12:00	19006	68	-56.8	-84.7	252	4
2023-08-25T12:00	19031	68	-56.9	-84.8	252	4
2023-08-25T12:00	19053	67	-57.0	-84.8	252	4
2023-08-25T12:00	19072	67	-57.1	-84.9	253	4
2023-08-25T12:00	19097	67	-57.0	-84.8	254	5
2023-08-25T12:00	19120	67	-56.9	-84.8	252	5
2023-08-25T12:00	19141	66	-56.8	-85.1	250	6
2023-08-25T12:00	19163	66	-56.8	-85.1	247	6
2023-08-25T12:00	19186	66	-56.7	-85.0	245	7
2023-08-25T12:00	19212	66	-56.6	-84.9	244	7
2023-08-25T12:00	19234	65	-56.7	-85.0	245	7
2023-08-25T12:00	19256	65	-56.6	-84.9	248	7
2023-08-25T12:00	19279	65	-56.5	-84.9	251	6
2023-08-25T12:00	19304	65	-56.4	-84.8	255	5
2023-08-25T12:00	19327	64	-56.3	-84.7	257	5
2023-08-25T12:00	19350	64	-56.3	-84.7	254	4
2023-08-25T12:00	19373	64	-56.4	-84.8	248	4
2023-08-25T12:00	19396	64	-56.4	-85.2	241	4
2023-08-25T12:00	19418	64	-56.0	-84.9	237	5
2023-08-25T12:00	19440	63	-55.8	-84.8	235	6
2023-08-25T12:00	19464	63	-55.7	-84.7	236	6
2023-08-25T12:00	19486	63	-55.8	-84.8	239	6
2023-08-25T12:00	19507	63	-55.8	-84.8	242	7
2023-08-25T12:00	19530	62	-55.6	-84.6	247	6
2023-08-25T12:00	19553	62	-55.4	-84.5	251	6
2023-08-25T12:00	19574	62	-55.5	-84.5	255	6
2023-08-25T12:00	19599	62	-55.5	-84.5	258	6
2023-08-25T12:00	19618	62	-55.5	-84.5	262	5
2023-08-25T12:00	19638	61	-55.5	-84.5	266	4
2023-08-25T12:00	19661	61	-55.5	-84.5	272	4
2023-08-25T12:00	19688	61	-55.3	-84.4	281	4
2023-08-25T12:00	19713	61	-55.2	-84.3	290	3
2023-08-25T12:00	19736	60	-55.0	-84.2	297	4
2023-08-25T12:00	19753	60	-54.8	-84.0	300	4
2023-08-25T12:00	19777	60	-54.8	-84.0	301	4
2023-08-25T12:00	19798	60	-54.9	-84.1	301	4
2023-08-25T12:00	19821	60	-55.1	-84.2	302	5
2023-08-25T12:00	19844	59	-55.3	-84.4	304	4
2023-08-25T12:00	19869	59	-55.3	-84.0	308	4
2023-08-25T12:00	19893	59	-55.3	-84.0	311	4
2023-08-25T12:00	19915	59	-55.3	-84.0	315	3
2023-08-25T12:00	19934	59	-55.4	-84.0	316	3
2023-08-25T12:00	19953	58	-55.4	-84.0	316	3
2023-08-25T12:00	19980	58	-55.5	-84.5	314	3
2023-08-25T12:00	20002	58	-55.5	-84.5	311	2
2023-08-25T12:00	20026	58	-55.4	-84.5	307	2
2023-08-25T12:00	20047	58	-55.2	-84.3	302	2
2023-08-25T12:00	20072	57	-54.9	-84.1	297	1
2023-08-25T12:00	20096	57	-54.7	-83.9	284	1
2023-08-25T12:00	20116	57	-54.7	-83.9	238	1
2023-08-25T12:00	20143	57	-54.9	-84.1	186	1
2023-08-25T12:00	20165	57	-55.1	-84.2	174	1
2023-08-25T12:00	20191	56	-55.3	-84.0	177	1
2023-08-25T12:00	20216	56	-55.4	-84.0	189	1
2023-08-25T12:00	20238	56	-55.5	-84.1	215	1
2023-08-25T12:00	20259	56	-55.4	-84.0	250	1
2023-08-25T12:00	20285	55	-55.4	-84.0	274	2
2023-08-25T12:00	20311	55	-55.5	-84.1	285	2
2023-08-25T12:00	20330	55	-55.6	-84.2	287	2
2023-08-25T12:00	20353	55	-55.5	-84.5	282	2
2023-08-25T12:00	20377	55	-55.3	-84.4	266	2
2023-08-25T12:00	20401	54	-55.2	-84.3	239	2
2023-08-25T12:00	20424	54	-55.1	-84.2	217	2
2023-08-25T12:00	20448	54	-55.2	-84.3	207	3
2023-08-25T12:00	20472	54	-55.2	-84.3	205	3
2023-08-25T12:00	20495	54	-55.2	-84.3	206	4
2023-08-25T12:00	20522	53	-55.2	-84.3	209	4
2023-08-25T12:00	20545	53	-55.0	-84.2	213	5
2023-08-25T12:00	20564	53	-55.0	-84.2	217	5
2023-08-25T12:00	20586	53	-55.0	-84.2	221	5
2023-08-25T12:00	20613	53	-54.9	-84.1	226	5
2023-08-25T12:00	20638	52	-54.9	-84.1	231	5
2023-08-25T12:00	20659	52	-54.7	-83.9	237	5
2023-08-25T12:00	20686	52	-54.5	-84.3	244	4
2023-08-25T12:00	20707	52	-54.5	-84.3	253	4
2023-08-25T12:00	20735	52	-54.5	-84.3	263	3
2023-08-25T12:00	20755	52	-54.4	-84.2	273	3
2023-08-25T12:00	20777	51	-54.4	-83.7	280	3
2023-08-25T12:00	20801	51	-54.4	-83.7	284	3
2023-08-25T12:00	20824	51	-54.4	-83.7	284	3
2023-08-25T12:00	20847	51	-54.4	-83.7	282	3
2023-08-25T12:00	20870	51	-54.5	-83.8	282	3
2023-08-25T12:00	20893	50	-54.5	-83.8	283	3
2023-08-25T12:00	20916	50	-54.4	-84.2	286	3
2023-08-25T12:00	20938	50	-54.3	-84.1	291	3
2023-08-25T12:00	20961	50	-54.2	-84.0	298	3
2023-08-25T12:00	20986	50	-54.2	-84.0	306	3
2023-08-25T12:00	21008	50	-54.2	-83.6	315	3
2023-08-25T12:00	21031	49	-54.1	-83.5	324	3
2023-08-25T12:00	21057	49	-54.2	-83.6	333	3
2023-08-25T12:00	21081	49	-54.4	-83.7	341	3
2023-08-25T12:00	21101	49	-54.6	-83.9	350	3
2023-08-25T12:00	21130	49	-54.8	-84.0	358	3
2023-08-25T12:00	21153	48	-54.7	-83.9	6	3
2023-08-25T12:00	21177	48	-54.7	-83.9	16	3
2023-08-25T12:00	21201	48	-54.8	-84.0	27	3
2023-08-25T12:00	21228	48	-54.9	-84.1	40	3
2023-08-25T12:00	21247	48	-55.0	-84.2	53	3
2023-08-25T12:00	21275	48	-55.1	-84.2	63	3
2023-08-25T12:00	21305	47	-55.1	-84.2	71	2
2023-08-25T12:00	21331	47	-54.9	-84.1	78	2
2023-08-25T12:00	21349	47	-54.8	-84.0	85	1
2023-08-25T12:00	21379	47	-54.9	-84.1	97	1
2023-08-25T12:00	21402	47	-55.0	-84.2	119	1
2023-08-25T12:00	21426	46	-55.1	-84.2	152	0
2023-08-25T12:00	21446	46	-55.1	-84.2	192	0
2023-08-25T12:00	21474	46	-55.1	-84.2	237	0
2023-08-25T12:00	21501	46	-55.1	-84.2	260	1
2023-08-25T12:00	21521	46	-55.0	-84.2	266	1
2023-08-25T12:00	21548	46	-54.9	-84.1	265	2
2023-08-25T12:00	21569	45	-54.8	-84.5	262	2
2023-08-25T12:00	21597	45	-54.8	-84.5	260	3
2023-08-25T12:00	21624	45	-54.5	-84.3	260	3
2023-08-25T12:00	21644	45	-54.2	-84.0	262	3
2023-08-25T12:00	21667	45	-54.2	-84.0	265	3
2023-08-25T12:00	21693	45	-54.1	-84.0	270	3
2023-08-25T12:00	21722	44	-54.1	-84.0	275	3
2023-08-25T12:00	21743	44	-54.2	-84.0	282	3
2023-08-25T12:00	21769	44	-54.4	-83.7	290	3
2023-08-25T12:00	21788	44	-54.6	-83.9	298	3
2023-08-25T12:00	21814	44	-54.7	-83.9	306	2
2023-08-25T12:00	21842	44	-54.9	-84.1	314	2
2023-08-25T12:00	21860	43	-55.0	-84.2	325	1
2023-08-25T12:00	21888	43	-55.1	-83.8	343	1
2023-08-25T12:00	21912	43	-55.3	-84.0	12	1
2023-08-25T12:00	21939	43	-55.5	-84.1	39	1
2023-08-25T12:00	21961	43	-55.7	-84.3	59	1
2023-08-25T12:00	21986	43	-55.8	-84.3	76	2
2023-08-25T12:00	22010	42	-55.9	-84.4	93	2
2023-08-25T12:00	22036	42	-56.0	-84.5	107	2
2023-08-25T12:00	22059	42	-56.1	-84.6	117	3
2023-08-25T12:00	22080	42	-56.2	-84.6	124	4
2023-08-25T12:00	22101	42	-56.3	-84.7	126	4
2023-08-25T12:00	22127	42	-56.2	-84.6	128	5
2023-08-25T12:00	22148	41	-56.0	-84.9	128	5
2023-08-25T12:00	22176	41	-55.8	-84.8	127	5
2023-08-25T12:00	22200	41	-55.7	-84.7	128	5
2023-08-25T12:00	22222	41	-55.7	-84.7	129	5
2023-08-25T12:00	22244	41	-55.8	-84.8	132	4
2023-08-25T12:00	22273	41	-55.8	-84.8	136	4
2023-08-25T12:00	22293	41	-55.8	-84.8	140	3
2023-08-25T12:00	22319	40	-55.8	-84.8	144	3
2023-08-25T12:00	22346	40	-55.8	-84.8	146	3
2023-08-25T12:00	22370	40	-55.8	-84.8	147	3
2023-08-25T12:00	22392	40	-55.7	-84.7	146	3
2023-08-25T12:00	22421	40	-55.6	-84.6	144	3
2023-08-25T12:00	22440	40	-55.6	-84.6	144	3
2023-08-25T12:00	22468	39	-55.6	-84.6	145	3
2023-08-25T12:00	22493	39	-55.4	-84.5	149	3
2023-08-25T12:00	22519	39	-55.5	-84.5	153	3
2023-08-25T12:00	22542	39	-55.5	-84.5	156	3
2023-08-25T12:00	22565	39	-55.5	-84.5	156	3
2023-08-25T12:00	22598	39	-55.4	-84.9	155	3
2023-08-25T12:00	22622	38	-55.4	-84.5	153	4
2023-08-25T12:00	22650	38	-55.5	-84.5	151	4
2023-08-25T12:00	22675	38	-55.5	-84.5	150	3
2023-08-25T12:00	22704	38	-55.4	-84.5	152	3
2023-08-25T12:00	22728	38	-55.4	-84.5	156	3
2023-08-25T12:00	22755	38	-55.6	-84.6	162	2
2023-08-25T12:00	22783	38	-55.8	-84.8	170	2
2023-08-25T12:00	22808	37	-55.8	-84.8	176	1
2023-08-25T12:00	22838	37	-55.9	-84.8	174	1
2023-08-25T12:00	22856	37	-56.1	-84.6	158	1
2023-08-25T12:00	22885	37	-56.2	-84.6	136	1
2023-08-25T12:00	22911	37	-56.2	-84.6	124	1
2023-08-25T12:00	22939	37	-56.2	-84.6	119	2
2023-08-25T12:00	22968	36	-56.2	-84.6	119	2
2023-08-25T12:00	22997	36	-56.4	-84.8	123	2
2023-08-25T12:00	23022	36	-56.5	-84.9	133	2
2023-08-25T12:00	23048	36	-56.5	-84.9	145	2
2023-08-25T12:00	23080	36	-56.5	-84.9	156	3
2023-08-25T12:00	23103	36	-56.4	-85.2	163	3
2023-08-25T12:00	23132	36	-56.5	-85.3	167	3
2023-08-25T12:00	23152	35	-56.4	-85.2	169	3
2023-08-25T12:00	23183	35	-56.2	-85.1	169	3
2023-08-25T12:00	23206	35	-56.1	-85.0	167	2
2023-08-25T12:00	23234	35	-56.0	-84.9	162	1
2023-08-25T12:00	23255	35	-55.9	-85.3	124	0
2023-08-25T12:00	23282	35	-55.8	-85.2	30	1
2023-08-25T12:00	23307	35	-55.7	-85.2	24	1
2023-08-25T12:00	23332	34	-55.7	-85.2	30	2
2023-08-25T12:00	23356	34	-55.8	-85.2	39	2
2023-08-25T12:00	23381	34	-55.7	-85.2	49	3
2023-08-25T12:00	23410	34	-55.7	-85.2	59	3
2023-08-25T12:00	23433	34	-55.8	-85.2	70	3
2023-08-25T12:00	23458	34	-55.8	-85.2	81	3
2023-08-25T12:00	23485	34	-55.9	-85.3	92	3
2023-08-25T12:00	23508	33	-55.9	-85.3	99	2
2023-08-25T12:00	23536	33	-55.8	-85.2	100	2
2023-08-25T12:00	23559	33	-55.5	-85.0	94	2
2023-08-25T12:00	23583	33	-55.2	-84.8	83	2
2023-08-25T12:00	23608	33	-55.1	-84.7	71	2
2023-08-25T12:00	23634	33	-55.0	-85.1	64	2
2023-08-25T12:00	23655	33	-55.0	-85.1	66	2
2023-08-25T12:00	23681	33	-55.0	-85.1	75	2
2023-08-25T12:00	23703	32	-54.9	-85.1	91	2
2023-08-25T12:00	23732	32	-54.8	-85.0	110	1
2023-08-25T12:00	23753	32	-54.7	-84.9	123	1
2023-08-25T12:00	23781	32	-54.7	-84.9	125	1
2023-08-25T12:00	23805	32	-54.6	-84.8	113	1
2023-08-25T12:00	23830	32	-54.6	-84.8	88	1
2023-08-25T12:00	23857	32	-54.6	-84.8	70	2
2023-08-25T12:00	23881	32	-54.6	-84.3	64	2
2023-08-25T12:00	23906	31	-54.5	-84.3	64	3
2023-08-25T12:00	23933	31	-54.6	-84.3	67	3
2023-08-25T12:00	23953	31	-54.6	-84.3	70	3
2023-08-25T12:00	23980	31	-54.7	-84.4	73	3
2023-08-25T12:00	24006	31	-54.6	-84.3	77	2
2023-08-25T12:00	24034	31	-54.7	-84.4	81	2
2023-08-25T12:00	24058	31	-54.8	-84.5	88	1
2023-08-25T12:00	24083	31	-54.8	-84.5	106	1
2023-08-25T12:00	24112	30	-54.9	-84.6	165	0
2023-08-25T12:00	24140	30	-54.9	-84.6	201	0
2023-08-25T12:00	24163	30	-54.9	-84.6	194	0
2023-08-25T12:00	24193	30	-54.9	-84.6	170	1
2023-08-25T12:00	24223	30	-55.0	-84.6	152	1
2023-08-25T12:00	24249	30	-55.0	-84.6	145	1
2023-08-25T12:00	24272	30	-55.0	-84.6	144	1
2023-08-25T12:00	24303	30	-55.0	-85.1	144	1
2023-08-25T12:00	24325	29	-54.9	-85.1	143	1
2023-08-25T12:00	24340	29	-54.8	-85.0	141	2
2023-08-25T12:00	24376	29	-54.8	-85.0	140	2
2023-08-25T12:00	24407	29	-54.7	-84.9	140	2
2023-08-25T12:00	24435	29	-54.8	-85.0	143	3
2023-08-25T12:00	24457	29	-54.7	-84.9	146	3
2023-08-25T12:00	24483	29	-54.8	-85.0	151	3
2023-08-25T12:00	24509	29	-54.8	-85.0	157	2
2023-08-25T12:00	24539	29	-54.9	-85.1	162	2
2023-08-25T12:00	24561	28	-54.9	-85.1	166	2
2023-08-25T12:00	24589	28	-54.9	-85.1	168	2
2023-08-25T12:00	24615	28	-54.9	-85.1	168	2
2023-08-25T12:00	24642	28	-54.9	-84.6	169	2
2023-08-25T12:00	24674	28	-55.0	-84.6	170	2
2023-08-25T12:00	24697	28	-55.1	-84.7	171	2
2023-08-25T12:00	24720	28	-55.1	-84.7	172	2
2023-08-25T12:00	24752	28	-55.1	-85.2	174	2
2023-08-25T12:00	24779	27	-55.0	-85.1	176	2
2023-08-25T12:00	24803	27	-54.8	-85.0	181	2
2023-08-25T12:00	24833	27	-54.5	-85.3	189	1
2023-08-25T12:00	24852	27	-54.3	-85.2	200	1
2023-08-25T12:00	24878	27	-54.1	-85.0	213	1
2023-08-25T12:00	24899	27	-53.9	-84.9	226	1
2023-08-25T12:00	24921	27	-53.7	-84.7	242	0
2023-08-25T12:00	24947	27	-53.5	-84.6	51	0
2023-08-25T12:00	24978	27	-53.5	-84.6	64	1
2023-08-25T12:00	25002	27	-53.4	-84.5	67	1
2023-08-25T12:00	25020	26	-53.2	-84.4	66	1
2023-08-25T12:00	25046	26	-53.0	-84.2	65	2
2023-08-25T12:00	25072	26	-53.0	-84.2	65	2
2023-08-25T12:00	25096	26	-53.0	-84.2	67	3
2023-08-25T12:00	25123	26	-52.9	-84.1	71	3
2023-08-25T12:00	25150	26	-52.9	-84.7	76	3
2023-08-25T12:00	25169	26	-52.7	-84.6	82	3
2023-08-25T12:00	25193	26	-52.4	-84.4	88	3
2023-08-25T12:00	25215	26	-52.2	-84.2	94	3
2023-08-25T12:00	25242	26	-52.1	-84.2	100	3
2023-08-25T12:00	25263	25	-52.1	-84.2	105	3
2023-08-25T12:00	25294	25	-52.3	-83.7	113	2
2023-08-25T12:00	25324	25	-52.5	-83.8	124	2
2023-08-25T12:00	25341	25	-52.8	-84.1	141	2
2023-08-25T12:00	25371	25	-52.8	-84.1	161	1
2023-08-25T12:00	25394	25	-52.8	-84.1	181	1
2023-08-25T12:00	25417	25	-53.0	-84.2	196	1
2023-08-25T12:00	25447	25	-52.9	-84.1	194	0
2023-08-25T12:00	25469	25	-52.7	-84.0	59	0
2023-08-25T12:00	25495	25	-52.5	-83.8	58	1
2023-08-25T12:00	25523	24	-52.5	-84.4	63	2
2023-08-25T12:00	25549	24	-52.6	-84.5	68	3
2023-08-25T12:00	25565	24	-52.6	-84.5	72	3
2023-08-25T12:00	25602	24	-52.5	-84.4	75	3
2023-08-25T12:00	25623	24	-52.4	-84.4	76	3
2023-08-25T12:00	25653	24	-52.3	-84.3	77	3
2023-08-25T12:00	25679	24	-52.2	-84.2	76	2
2023-08-25T12:00	25706	24	-52.2	-84.2	75	1
2023-08-25T12:00	25728	24	-52.1	-84.2	69	1
2023-08-25T12:00	25767	24	-52.1	-84.2	355	0
2023-08-25T12:00	25786	23	-52.2	-84.2	280	1
2023-08-25T12:00	25815	23	-52.2	-84.2	278	1
2023-08-25T12:00	25839	23	-52.3	-84.3	280	1
2023-08-25T12:00	25872	23	-52.3	-84.3	283	1
2023-08-25T12:00	25899	23	-52.0	-84.1	291	1
2023-08-25T12:00	25926	23	-51.7	-83.9	2	0
2023-08-25T12:00	25955	23	-51.6	-83.8	84	1
2023-08-25T12:00	25981	23	-51.7	-83.9	92	2
2023-08-25T12:00	26012	23	-51.8	-83.9	95	2
2023-08-25T12:00	26037	23	-51.8	-83.9	97	3
2023-08-25T12:00	26069	22	-51.8	-83.9	100	3
2023-08-25T12:00	26100	22	-51.8	-83.9	103	4
2023-08-25T12:00	26130	22	-51.7	-83.9	105	4
2023-08-25T12:00	26153	22	-51.5	-83.7	106	5
2023-08-25T12:00	26183	22	-51.3	-83.6	106	4
2023-08-25T12:00	26204	22	-51.2	-84.2	106	4
2023-08-25T12:00	26234	22	-51.2	-84.2	105	4
2023-08-25T12:00	26264	22	-51.0	-84.0	106	3
2023-08-25T12:00	26284	22	-50.8	-83.9	108	3
2023-08-25T12:00	26312	22	-50.6	-83.7	109	2
2023-08-25T12:00	26340	22	-50.6	-83.7	107	2
2023-08-25T12:00	26366	21	-50.7	-83.8	91	1
2023-08-25T12:00	26389	21	-50.7	-83.8	42	1
2023-08-25T12:00	26426	21	-50.6	-83.7	5	1
2023-08-25T12:00	26453	21	-50.4	-83.6	354	2
2023-08-25T12:00	26477	21	-50.3	-83.5	353	3
2023-08-25T12:00	26504	21	-50.2	-83.5	355	3
2023-08-25T12:00	26528	21	-50.1	-83.4	360	4
2023-08-25T12:00	26556	21	-49.8	-83.2	8	4
2023-08-25T12:00	26584	21	-49.6	-83.0	17	4
2023-08-25T12:00	26611	21	-49.5	-82.9	27	5
2023-08-25T12:00	26631	21	-49.5	-82.9	36	5
2023-08-25T12:00	26655	21	-49.5	-82.9	43	6
2023-08-25T12:00	26680	20	-49.5	-82.9	48	6
2023-08-25T12:00	26712	20	-49.4	-82.9	50	6
2023-08-25T12:00	26734	20	-49.4	-82.9	51	6
2023-08-25T12:00	26754	20	-49.4	-82.9	50	6
2023-08-25T12:00	26784	20	-49.4	-82.9	50	6
2023-08-25T12:00	26809	20	-49.2	-82.7	48	6
2023-08-25T12:00	26838	20	-49.0	-82.6	47	5
2023-08-25T12:00	26860	20	-48.9	-82.5	45	5
2023-08-25T12:00	26875	20	-48.8	-82.4	45	5
2023-08-25T12:00	26907	20	-48.6	-82.3	47	4
2023-08-25T12:00	26931	20	-48.4	-82.9	53	4
2023-08-25T12:00	26956	20	-48.3	-82.9	64	4
2023-08-25T12:00	26989	20	-48.2	-82.8	79	4
2023-08-25T12:00	27014	19	-48.0	-82.7	95	4
2023-08-25T12:00	27031	19	-47.9	-82.6	111	4
2023-08-25T12:00	27070	19	-47.9	-82.6	125	5
2023-08-25T12:00	27091	19	-48.0	-82.7	135	5
2023-08-25T12:00	27117	19	-47.8	-82.5	142	6
2023-08-25T12:00	27148	19	-47.6	-82.4	146	6
2023-08-25T12:00	27167	19	-47.4	-82.2	147	6
2023-08-25T12:00	27182	19	-47.1	-82.0	148	6
2023-08-25T12:00	27212	19	-47.0	-81.9	149	6
2023-08-25T12:00	27252	19	-47.0	-81.9	151	5
2023-08-25T12:00	27277	19	-47.1	-82.0	153	5
2023-08-25T12:00	27297	19	-47.2	-82.1	155	5
2023-08-25T12:00	27322	19	-47.2	-82.1	155	5
2023-08-25T12:00	27353	18	-47.3	-82.2	154	4
2023-08-25T12:00	27372	18	-47.3	-82.2	150	4
2023-08-25T12:00	27401	18	-47.4	-82.2	145	3
2023-08-25T12:00	27441	18	-47.4	-82.2	140	3
2023-08-25T12:00	27457	18	-47.5	-82.3	136	3
2023-08-25T12:00	27484	18	-47.5	-82.3	131	2
2023-08-25T12:00	27523	18	-47.4	-82.2	124	2
2023-08-25T12:00	27540	18	-47.4	-82.2	114	2
2023-08-25T12:00	27572	18	-47.5	-82.3	102	2
2023-08-25T12:00	27614	18	-47.5	-82.3	89	2
2023-08-25T12:00	27638	18	-47.5	-82.3	77	2
2023-08-25T12:00	27662	18	-47.5	-82.3	67	2
2023-08-25T12:00	27681	18	-47.6	-82.4	63	2
2023-08-25T12:00	27710	18	-47.7	-82.4	65	2
2023-08-25T12:00	27749	17	-47.6	-82.4	74	2
2023-08-25T12:00	27775	17	-47.4	-82.2	87	2
2023-08-25T12:00	27799	17	-47.3	-82.2	99	3
2023-08-25T12:00	27826	17	-47.2	-82.1	108	3
2023-08-25T12:00	27852	17	-47.2	-82.1	113	4
2023-08-25T12:00	27891	17	-47.1	-82.0	115	4
2023-08-25T12:00	27907	17	-47.2	-82.1	117	4
2023-08-25T12:00	27938	17	-47.2	-82.1	120	5
2023-08-25T12:00	27957	17	-47.3	-82.2	124	5
2023-08-25T12:00	27984	17	-47.3	-82.2	130	5
2023-08-25T12:00	28012	17	-47.3	-82.2	137	5
2023-08-25T12:00	28048	17	-47.1	-82.0	144	5
2023-08-25T12:00	28062	17	-46.8	-82.7	151	5
2023-08-25T12:00	28096	17	-46.6	-82.6	156	5
2023-08-25T12:00	28114	16	-46.3	-82.4	161	4
2023-08-25T12:00	28138	16	-45.9	-82.1	167	4
2023-08-25T12:00	28179	16	-45.4	-81.7	176	4
2023-08-25T12:00	28204	16	-45.0	-81.4	187	3
2023-08-25T12:00	28228	16	-44.8	-81.3	200	3
2023-08-25T12:00	28248	16	-44.7	-81.2	214	3
2023-08-25T12:00	28270	16	-44.6	-81.2	225	3
2023-08-25T12:00	28296	16	-44.4	-81.0	231	3
2023-08-25T12:00	28334	16	-44.3	-80.9	233	3
2023-08-25T12:00	28352	16	-44.2	-80.9	232	4
2023-08-25T12:00	28382	16	-44.2	-80.9	230	4
2023-08-25T12:00	28398	16	-44.2	-80.9	229	4
2023-08-25T12:00	28423	16	-44.2	-80.9	227	4
2023-08-25T12:00	28458	16	-44.1	-80.8	225	3
2023-08-25T12:00	28484	16	-44.0	-80.7	222	2
2023-08-25T12:00	28499	16	-44.1	-80.8	213	2
2023-08-25T12:00	28527	15	-44.3	-80.9	189	1
2023-08-25T12:00	28551	15	-44.3	-80.9	133	1
2023-08-25T12:00	28578	15	-44.4	-81.0	100	1
2023-08-25T12:00	28607	15	-44.4	-81.0	89	2
2023-08-25T12:00	28636	15	-44.3	-80.9	84	2
2023-08-25T12:00	28662	15	-44.3	-80.9	82	3
2023-08-25T12:00	28694	15	-44.2	-80.9	81	3
2023-08-25T12:00	28718	15	-44.2	-80.9	80	3
2023-08-25T12:00	28737	15	-44.1	-80.8	80	3
2023-08-25T12:00	28766	15	-44.0	-80.7	81	3
2023-08-25T12:00	28796	15	-43.8	-80.6	82	3
2023-08-25T12:00	28818	15	-43.7	-80.5	86	3
2023-08-25T12:00	28855	15	-43.7	-80.5	90	3
2023-08-25T12:00	28869	15	-43.7	-80.5	95	3
2023-08-25T12:00	28891	15	-43.6	-81.5	101	3
2023-08-25T12:00	28923	15	-43.5	-81.5	107	3
2023-08-25T12:00	28961	15	-43.5	-81.5	113	3
2023-08-25T12:00	28992	14	-43.5	-81.5	121	2
2023-08-25T12:00	29018	14	-43.4	-81.4	130	2
2023-08-25T12:00	29028	14	-43.4	-81.4	142	2
2023-08-25T12:00	29064	14	-43.4	-81.4	156	2
2023-08-25T12:00	29098	14	-43.4	-81.4	171	2
2023-08-25T12:00	29118	14	-43.4	-81.4	186	2
2023-08-25T12:00	29133	14	-43.3	-81.3	199	2
2023-08-25T12:00	29177	14	-43.3	-81.3	208	2
2023-08-25T12:00	29216	14	-43.2	-81.3	213	2
2023-08-25T12:00	29242	14	-43.2	-81.3	213	2
2023-08-25T12:00	29279	14	-43.2	-81.3	207	1
2023-08-25T12:00	29286	14	-43.2	-80.2	192	1
2023-08-25T12:00	29314	14	-43.3	-80.2	164	1
2023-08-25T12:00	29345	14	-43.4	-80.3	133	1
2023-08-25T12:00	29378	14	-43.4	-80.3	114	1
2023-08-25T12:00	29400	14	-43.5	-80.4	104	2
2023-08-25T12:00	29438	14	-43.5	-80.4	98	2
2023-08-25T12:00	29461	14	-43.5	-81.5	96	2
2023-08-25T12:00	29486	13	-43.5	-81.5	95	3
2023-08-25T12:00	29516	13	-43.5	-81.5	97	3
2023-08-25T12:00	29546	13	-43.4	-81.4	99	3
2023-08-25T12:00	29573	13	-43.4	-81.4	103	3
2023-08-25T12:00	29595	13	-43.3	-81.3	107	3
2023-08-25T12:00	29604	13	-43.3	-81.3	110	3
2023-08-25T12:00	29651	13	-43.2	-81.3	113	3
2023-08-25T12:00	29677	13	-43.2	-81.3	115	2
2023-08-25T12:00	29696	13	-43.1	-81.2	120	2
2023-08-25T12:00	29716	13	-43.1	-81.2	128	2
2023-08-25T12:00	29764	13	-43.1	-81.2	141	2
2023-08-25T12:00	29776	13	-43.1	-81.2	153	2
2023-08-25T12:00	29796	13	-43.1	-81.2	163	2
2023-08-25T12:00	29846	13	-43.0	-81.1	172	2
2023-08-25T12:00	29855	13	-43.0	-81.1	182	1
2023-08-25T12:00	29877	13	-43.1	-81.2	198	1
2023-08-25T12:00	29907	13	-43.1	-81.2	226	1
2023-08-25T12:00	29935	13	-43.1	-81.2	254	1
2023-08-25T12:00	29973	13	-43.1	-81.2	269	2
2023-08-25T12:00	29989	12	-43.1	-81.2	275	2
2023-08-25T12:00	30009	12	-43.0	-81.1	276	3
2023-08-25T12:00	30031	12	-42.9	-81.1	275	3
2023-08-25T12:00	30060	12	-42.7	-80.9	272	3
2023-08-25T12:00	30090	12	-42.6	-80.8	269	2
2023-08-25T12:00	30107	12	-42.6	-80.8	264	2
2023-08-25T12:00	30139	12	-42.6	-80.8	253	1
2023-08-25T12:00	30150	12	-42.7	-80.9	234	1
2023-08-25T12:00	30179	12	-42.7	-80.9	210	1
2023-08-25T12:00	30228	12	-42.8	-81.0	191	1
2023-08-25T12:00	30259	12	-42.8	-81.0	178	1
2023-08-25T12:00	30263	12	-42.9	-81.1	167	1
2023-08-25T12:00	30283	12	-43.0	-81.1	158	1
2023-08-25T12:00	30322	12	-43.0	-81.1	148	1
2023-08-25T12:00	30348	12	-43.1	-81.2	138	1
2023-08-25T12:00	30364	12	-43.0	-81.1	128	1
2023-08-25T12:00	30401	12	-42.7	-80.9	119	1
2023-08-25T12:00	30410	12	-42.4	-80.7	113	2
2023-08-25T12:00	30451	12	-42.2	-80.6	109	2
2023-08-25T12:00	30475	12	-42.0	-80.4	108	3
2023-08-25T12:00	30500	12	-41.8	-80.3	108	3
2023-08-25T12:00	30539	12	-41.7	-80.2	110	4
2023-08-25T12:00	30558	11	-41.5	-80.1	113	4
2023-08-25T12:00	30577	11	-41.4	-80.0	117	5
2023-08-25T12:00	30612	11	-41.2	-79.9	122	5
2023-08-25T12:00	30630	11	-41.1	-79.8	129	5
2023-08-25T12:00	30645	11	-41.0	-79.7	137	5
2023-08-25T12:00	30695	11	-41.0	-79.7	144	5
2023-08-25T12:00	30725	11	-41.0	-79.7	152	5
2023-08-25T12:00	30736	11	-41.0	-79.7	159	5
2023-08-25T12:00	30776	11	-41.0	-79.7	167	5
2023-08-25T12:00	30816	11	-41.1	-79.8	176	4
2023-08-25T12:00	30845	11	-41.1	-79.8	186	4
2023-08-25T12:00	30852	11	-41.0	-79.7	197	3
2023-08-25T12:00	30890	11	-40.9	-79.7	207	3
2023-08-25T12:00	30923	11	-40.8	-79.6	215	3
2023-08-25T12:00	30944	11	-40.8	-79.6	219	3
2023-08-25T12:00	30969	11	-40.8	-79.6	220	2
2023-08-25T12:00	31006	11	-40.9	-79.7	217	2
2023-08-25T12:00	31042	11	-40.8	-79.6	206	1
2023-08-25T12:00	31069	11	-40.8	-79.6	173	1
2023-08-25T12:00	31102	11	-40.8	-79.6	119	1
2023-08-25T12:00	31132	11	-40.7	-79.5	98	1
2023-08-25T12:00	31146	11	-40.6	-79.5	94	1
2023-08-25T12:00	31166	10	-40.5	-79.4	99	1
2023-08-25T12:00	31201	10	-40.3	-79.2	108	2
2023-08-25T12:00	31240	10	-39.9	-79.0	120	2
2023-08-25T12:00	31255	10	-39.7	-78.8	129	3
2023-08-25T12:00	31292	10	-39.6	-78.8	136	4
2023-08-25T12:00	31318	10	-39.5	-78.7	141	5
2023-08-25T12:00	31342	10	-39.3	-78.5	145	7
2023-08-25T12:00	31382	10	-39.3	-78.5	148	8
2023-08-25T12:00	31415	10	-39.2	-78.5	151	9
2023-08-25T12:00	31427	10	-39.1	-78.4	153	9
2023-08-25T12:00	31474	10	-39.0	-78.3	156	10
2023-08-25T12:00	31501	10	-39.0	-78.3	158	10
2023-08-25T12:00	31526	10	-39.0	-78.3	160	11
2023-08-25T12:00	31561	10	-39.1	-78.4	163	10
2023-08-25T12:00	31570	10	-39.1	-78.4	166	10
2023-08-25T12:00	31608	10	-39.2	-78.5	168	10
2023-08-25T12:00	31660	10	-39.2	-78.5	172	9
2023-08-25T12:00	31668	10	-39.1	-78.4	174	9
2023-08-25T12:00	31692	10	-38.9	-78.3	175	9
2023-08-25T12:00	31727	10	-38.8	-78.2	175	9
2023-08-25T12:00	31769	10	-38.7	-78.1	176	9
2023-08-25T12:00	31791	10	-38.6	-78.1	178	9
2023-08-25T12:00	31816	10	-38.5	-78.0	180	8
2023-08-25T12:00	31830	10	-38.5	-78.0	184	8
2023-08-25T12:00	31853	10	-38.5	-78.0	188	7
2023-08-25T12:00	31891	9	-38.5	-78.0	193	7
2023-08-25T12:00	31904	9	-38.5	-78.0	196	7
2023-08-25T12:00	31935	9	-38.4	-77.9	199	6
2023-08-25T12:00	31951	9	-38.4	-77.9	199	6
2023-08-25T12:00	31968	9	-38.3	-77.9	196	6
2023-08-25T12:00	31994	9	-38.1	-77.7	191	5
2023-08-25T12:00	32042	9	-37.9	-77.6	184	5
2023-08-25T12:00	32052	9	-37.7	-77.4	177	5
2023-08-25T12:00	32094	9	-37.6	-77.4	168	5
2023-08-25T12:00	32103	9	-37.6	-77.4	165	5
2023-08-25T12:00	32148	9	-37.6	-77.4	161	6
2023-08-25T12:00	32159	9	-37.5	-77.3	158	5
2023-08-25T12:00	32193	9	-37.5	-77.3	153	5
2023-08-25T12:00	32194	9	-37.6	-77.4	148	5
2023-08-25T12:00	32240	9	-37.6	-77.4	143	5
2023-08-25T12:00	32261	9	-37.4	-77.2	138	6
2023-08-25T12:00	32275	9	-37.2	-77.1	136	6
2023-08-25T12:00	32307	9	-37.0	-77.0	135	6
2023-08-25T12:00	32339	9	-36.8	-76.8	136	7
2023-08-25T12:00	32364	9	-36.7	-76.7	139	7
2023-08-25T12:00	32393	9	-36.7	-76.7	143	8
2023-08-25T12:00	32415	9	-36.7	-76.7	148	8
2023-08-25T12:00	32443	9	-36.7	-76.7	153	9
2023-08-25T12:00	32460	9	-36.7	-76.7	157	9
2023-08-25T12:00	32479	9	-36.7	-76.7	161	9
2023-08-25T12:00	32515	9	-36.6	-76.7	164	10
2023-08-25T12:00	32542	9	-36.5	-76.6	165	10
2023-08-25T12:00	32575	9	-36.4	-76.5	165	9
2023-08-25T12:00	32593	9	-36.2	-76.4	163	9
2023-08-25T12:00	32609	9	-35.8	-76.1	161	8
2023-08-25T12:00	32633	8	-35.6	-76.0	158	8
2023-08-25T12:00	32674	8	-35.4	-75.8	156	8
2023-08-25T12:00	32724	8	-35.4	-75.8	156	8
2023-08-25T12:00	32727	8	-35.4	-75.8	156	8
2023-08-25T12:00	32760	8	-35.5	-75.9	157	8
2023-08-25T12:00	32794	8	-35.6	-76.0	158	8
2023-08-25T12:00	32816	8	-35.8	-76.1	160	8
2023-08-25T12:00	32852	8	-35.9	-76.2	163	8
2023-08-25T12:00	32879	8	-36.0	-76.3	165	8
2023-08-25T12:00	32924	8	-36.1	-76.3	167	9
2023-08-25T12:00	32964	8	-36.3	-76.5	169	9
2023-08-25T12:00	32977	8	-36.6	-76.7	171	10
2023-08-25T12:00	33007	8	-36.8	-76.8	172	10
2023-08-25T12:00	33018	8	-37.0	-77.0	172	10
2023-08-25T12:00	33073	8	-37.1	-77.0	172	10
2023-08-25T12:00	33086	8	-37.3	-77.2	172	10
2023-08-25T12:00	33107	8	-37.4	-77.2	172	10
2023-08-25T12:00	33138	8	-37.4	-77.2	171	9
2023-08-25T12:00	33193	8	-37.5	-77.3	171	9
2023-08-25T12:00	33218	8	-37.7	-77.4	172	9
2023-08-25T12:00	33229	8	-38.0	-77.6	173	9
2023-08-25T12:00	33259	8	-38.1	-77.7	175	9
2023-08-25T12:00	33296	8	-38.1	-77.7	177	9
2023-08-25T12:00	33324	8	-38.2	-77.8	179	9
2023-08-25T12:00	33348	8	-38.2	-77.8	180	9
2023-08-25T12:00	33389	8	-38.4	-77.9	181	9
2023-08-25T12:00	33409	8	-38.5	-78.0	183	9
2023-08-25T12:00	33446	8	-38.7	-78.1	185	9
2023-08-25T12:00	33490	8	-38.9	-78.3	187	9
2023-08-25T12:00	33509	7	-39.1	-78.4	189	8
2023-08-25T12:00	33518	7	-39.1	-78.4	191	8
2023-08-25T12:00	33546	7	-38.9	-78.3	192	7
2023-08-25T12:00	33550	7	-38.4	-77.9	190	7
2023-08-25T18:00	112	996	24.4	18.8	200	1
2023-08-25T18:00	142	993	24.6	18.8	194	2
2023-08-25T18:00	170	989	24.5	18.6	193	3
2023-08-25T18:00	194	987	24.4	18.5	196	3
2023-08-25T18:00	215	984	24.2	18.3	200	4
2023-08-25T18:00	243	981	24.1	18.1	205	4
2023-08-25T18:00	270	978	23.8	18.1	209	4
2023-08-25T18:00	298	975	23.6	18.0	212	5
2023-08-25T18:00	327	972	23.4	17.7	213	5
2023-08-25T18:00	357	968	23.1	17.7	213	5
2023-08-25T18:00	387	965	22.8	17.5	213	6
2023-08-25T18:00	412	962	22.6	17.4	213	6
2023-08-25T18:00	436	960	22.5	17.4	213	6
2023-08-25T18:00	464	957	22.3	17.2	214	7
2023-08-25T18:00	490	954	22.0	17.0	214	7
2023-08-25T18:00	523	950	21.8	17.1	215	7
2023-08-25T18:00	550	947	21.6	17.0	215	8
2023-08-25T18:00	580	944	21.4	17.0	215	8
2023-08-25T18:00	606	941	21.1	16.8	215	8
2023-08-25T18:00	634	938	20.9	16.7	216	8
2023-08-25T18:00	659	936	20.7	16.7	216	9
2023-08-25T18:00	683	933	20.4	16.5	217	8
2023-08-25T18:00	708	930	20.2	16.5	218	8
2023-08-25T18:00	736	927	20.0	16.6	219	8
2023-08-25T18:00	766	924	19.7	16.5	220	8
2023-08-25T18:00	795	921	19.4	16.2	222	8
2023-08-25T18:00	820	918	19.2	16.3	224	9
2023-08-25T18:00	844	916	19.0	16.2	226	9
2023-08-25T18:00	867	913	18.8	15.6	228	9
2023-08-25T18:00	892	910	18.7	15.0	230	9
2023-08-25T18:00	921	908	18.5	14.9	231	9
2023-08-25T18:00	945	905	18.2	14.6	231	9
2023-08-25T18:00	971	902	18.1	14.1	232	9
2023-08-25T18:00	1000	899	17.8	14.0	232	9
2023-08-25T18:00	1024	897	17.6	13.5	233	9
2023-08-25T18:00	1053	894	17.4	13.3	234	9
2023-08-25T18:00	1079	891	17.2	13.3	235	9
2023-08-25T18:00	1103	888	17.0	13.2	236	9
2023-08-25T18:00	1130	886	16.8	12.8	236	9
2023-08-25T18:00	1159	883	16.8	12.3	235	8
2023-08-25T18:00	1185	880	16.7	12.1	234	8
2023-08-25T18:00	1217	877	16.6	11.5	234	7
2023-08-25T18:00	1244	874	16.5	10.8	232	7
2023-08-25T18:00	1269	871	16.5	10.3	231	6
2023-08-25T18:00	1290	869	16.6	10.3	229	6
2023-08-25T18:00	1316	867	16.8	10.1	226	6
2023-08-25T18:00	1339	864	16.7		222	6
2023-08-25T18:00	1363	862	16.6	10.2	219	6
2023-08-25T18:00	1393	859	16.4	10.1	217	6
2023-08-25T18:00	1422	856	16.3	10.0	217	6
2023-08-25T18:00	1452	853	16.2	10.1	216	6
2023-08-25T18:00	1484	850	15.9	10.1	217	6
2023-08-25T18:00	1512	847	15.6	10.1	217	6
2023-08-25T18:00	1542	844	15.4	10.1	216	6
2023-08-25T18:00	1569	841	15.1	10.0	217	7
2023-08-25T18:00	1597	838	14.9	10.1	217	7
2023-08-25T18:00	1625	836	14.6	9.9	219	7
2023-08-25T18:00	1657	832	14.3	10.0	220	7
2023-08-25T18:00	1691	829	14.0	9.9	222	7
2023-08-25T18:00	1717	827	13.8	9.8	224	7
2023-08-25T18:00	1745	824	13.6	9.6	226	7
2023-08-25T18:00	1774	821	13.4	9.3	229	8
2023-08-25T18:00	1801	818	13.2	8.9	232	8
2023-08-25T18:00	1830	816	13.3	8.9	235	9
2023-08-25T18:00	1855	813	13.3	9.1	238	9
2023-08-25T18:00	1883	810	13.0	9.1	240	9
2023-08-25T18:00	1915	807	12.8	9.1	241	9
2023-08-25T18:00	1942	805	12.5	9.0	242	9
2023-08-25T18:00	1975	802	12.1	8.8	242	9
2023-08-25T18:00	2005	799	11.8	8.8	244	9
2023-08-25T18:00	2039	796	11.5	8.8	247	9
2023-08-25T18:00	2070	793	11.3	9.0	251	10
2023-08-25T18:00	2100	790	11.0	8.8	255	11
2023-08-25T18:00	2130	787	10.9	8.9	259	11
2023-08-25T18:00	2163	784	10.7	9.0	261	12
2023-08-25T18:00	2193	781	10.5	8.9	262	12
2023-08-25T18:00	2227	778	10.2	8.8	262	13
2023-08-25T18:00	2256	775	9.9	8.7	261	13
2023-08-25T18:00	2289	772	9.6	8.7	261	14
2023-08-25T18:00	2319	769	9.4	8.8	260	14
2023-08-25T18:00	2349	767	9.2	8.7	261	14
2023-08-25T18:00	2375	764	9.0	8.4	261	14
2023-08-25T18:00	2406	761	8.8	8.3	261	14
2023-08-25T18:00	2433	759	8.7	8.2	261	14
2023-08-25T18:00	2462	756	8.6	8.1	260	14
2023-08-25T18:00	2493	753	8.5	8.1	258	14
2023-08-25T18:00	2520	751	8.2	8.1	257	15
2023-08-25T18:00	2549	748	8.3	7.2	255	15
2023-08-25T18:00	2576	746	8.1	7.1	255	15
2023-08-25T18:00	2607	743	7.9	6.7	255	15
2023-08-25T18:00	2642	740	7.7	6.1	255	15
2023-08-25T18:00	2669	738	7.5	5.7	256	15
2023-08-25T18:00	2697	735	7.3	5.9	256	16
2023-08-25T18:00	2724	733	7.1	5.9	257	16
2023-08-25T18:00	2752	730	7.0	5.7	258	16
2023-08-25T18:00	2784	727	7.0	5.4	259	16
2023-08-25T18:00	2811	725	6.9	5.1	260	16
2023-08-25T18:00	2839	722	6.9	5.0	260	17
2023-08-25T18:00	2867	720	6.8	4.9	260	17
2023-08-25T18:00	2898	717	6.6	4.9	260	17
2023-08-25T18:00	2928	715	6.3	4.6	260	17
2023-08-25T18:00	2958	712	6.1	4.6	259	17
2023-08-25T18:00	2982	710	6.0	4.6	258	17
2023-08-25T18:00	3013	707	5.8	4.7	257	17
2023-08-25T18:00	3040	705	5.6	4.4	256	16
2023-08-25T18:00	3070	702	5.3	4.3	255	16
2023-08-25T18:00	3100	700	5.1	4.4	254	16
2023-08-25T18:00	3127	698	4.8	4.3	254	16
2023-08-25T18:00	3154	695	4.5	4.2	254	16
2023-08-25T18:00	3183	693	4.3	4.2	254	16
2023-08-25T18:00	3209	691	4.0	4.0	254	16
2023-08-25T18:00	3239	688	3.9	3.6	254	17
2023-08-25T18:00	3266	686	3.8	3.4	254	17
2023-08-25T18:00	3295	683	3.6	3.1	253	17
2023-08-25T18:00	3323	681	3.5	2.5	253	17
2023-08-25T18:00	3352	679	3.4	2.2	252	17
2023-08-25T18:00	3381	676	3.2	1.9	251	17
2023-08-25T18:00	3412	674	3.0	1.5	251	17
2023-08-25T18:00	3441	671	2.8	1.1	251	18
2023-08-25T18:00	3465	669	2.6	1.0	251	18
2023-08-25T18:00	3489	667	2.4	0.9	251	18
2023-08-25T18:00	3519	665	2.1	0.6	250	18
2023-08-25T18:00	3546	663	2.0	0.1	249	18
2023-08-25T18:00	3576	660	2.0	0.0	248	18
2023-08-25T18:00	3603	658	1.7	0.8	248	18
2023-08-25T18:00	3632	655	1.4	0.8	248	17
2023-08-25T18:00	3661	653	1.2	0.7	248	17
2023-08-25T18:00	3691	651	1.0	0.5	248	17
2023-08-25T18:00	3721	648	0.9	0.5	247	17
2023-08-25T18:00	3751	646	0.6	0.3	247	18
2023-08-25T18:00	3782	643	0.6	-0.2	247	18
2023-08-25T18:00	3812	641	0.4	-0.3	248	18
2023-08-25T18:00	3844	638	0.1	-0.4	249	18
2023-08-25T18:00	3874	636	-0.1	-0.6	249	18
2023-08-25T18:00	3904	634	-0.2	-0.8	250	18
2023-08-25T18:00	3932	631	-0.4	-1.1	250	18
2023-08-25T18:00	3964	629	-0.5	-1.3	250	18
2023-08-25T18:00	3994	627	-0.6	-1.7	249	18
2023-08-25T18:00	4025	624	-0.7	-2.0	249	18
2023-08-25T18:00	4056	622	-0.8	-2.3	249	18
2023-08-25T18:00	4088	619	-1.0	-2.7	249	18
2023-08-25T18:00	4117	617	-1.2	-2.9	249	18
2023-08-25T18:00	4148	615	-1.2	-3.3	249	19
2023-08-25T18:00	4181	612	-1.4	-3.6	250	19
2023-08-25T18:00	4211	610	-1.6	-3.9	250	19
2023-08-25T18:00	4244	607	-1.8	-4.0	251	19
2023-08-25T18:00	4276	605	-2.1	-4.3	252	19
2023-08-25T18:00	4305	603	-2.3	-4.3	252	19
2023-08-25T18:00	4334	600	-2.5	-4.4	253	19
2023-08-25T18:00	4363	598	-2.7	-4.9	253	19
2023-08-25T18:00	4392	596	-2.8	-5.8	253	19
2023-08-25T18:00	4423	594	-3.1	-5.5	253	19
2023-08-25T18:00	4452	592	-3.3	-5.4	253	18
2023-08-25T18:00	4483	589	-3.6	-5.9	254	18
2023-08-25T18:00	4514	587	-3.8	-6.5	255	17
2023-08-25T18:00	4546	585	-3.9	-7.4	256	17
2023-08-25T18:00	4574	582	-4.0	-7.4	256	17
2023-08-25T18:00	4607	580	-4.3	-7.4	257	17
2023-08-25T18:00	4633	578	-4.5	-7.1	257	17
2023-08-25T18:00	4665	576	-4.8	-6.8	257	17
2023-08-25T18:00	4696	574	-5.0	-7.1	256	17
2023-08-25T18:00	4725	571	-5.1	-7.2	255	17
2023-08-25T18:00	4757	569	-5.3	-7.6	254	17
2023-08-25T18:00	4785	567	-5.5	-8.0	253	17
2023-08-25T18:00	4814	565	-5.6	-8.5	252	17
2023-08-25T18:00	4845	563	-5.8	-8.9	252	17
2023-08-25T18:00	4876	561	-5.5	-12.7	251	17
2023-08-25T18:00	4905	559	-5.5	-16.8	251	17
2023-08-25T18:00	4935	556	-5.3	-24.4	251	16
2023-08-25T18:00	4961	555	-5.4	-22.4	251	16
2023-08-25T18:00	4988	553	-5.7	-17.3	251	16
2023-08-25T18:00	5017	551	-5.9	-16.9	250	16
2023-08-25T18:00	5045	549	-6.0	-17.2	249	16
2023-08-25T18:00	5074	547	-6.2	-17.2	249	16
2023-08-25T18:00	5104	545	-6.4	-16.3	249	16
2023-08-25T18:00	5133	543	-6.7	-16.5	248	16
2023-08-25T18:00	5161	541	-6.9	-17.0	248	16
2023-08-25T18:00	5189	539	-7.2	-17.2	248	16
2023-08-25T18:00	5219	537	-7.3	-17.7	247	16
2023-08-25T18:00	5246	535	-7.5	-17.5	247	16
2023-08-25T18:00	5273	533	-7.7	-17.8	247	16
2023-08-25T18:00	5301	531	-7.9	-18.6	247	16
2023-08-25T18:00	5330	529	-8.0	-18.6	247	16
2023-08-25T18:00	5358	527	-8.2	-18.3	247	16
2023-08-25T18:00	5383	525	-8.2	-18.5	247	16
2023-08-25T18:00	5411	523	-8.2	-19.5	247	16
2023-08-25T18:00	5437	522	-8.4	-20.9	247	16
2023-08-25T18:00	5464	520	-8.5	-23.8	247	16
2023-08-25T18:00	5491	518	-8.6	-23.7	247	16
2023-08-25T18:00	5519	516	-8.8	-23.5	247	16
2023-08-25T18:00	5544	514	-9.0	-23.1	247	16
2023-08-25T18:00	5574	513	-9.2	-22.1	246	16
2023-08-25T18:00	5603	511	-8.9	-22.5	246	16
2023-08-25T18:00	5630	509	-9.0	-22.3	246	16
2023-08-25T18:00	5659	507	-9.2	-22.3	246	17
2023-08-25T18:00	5684	505	-9.4	-21.8	246	17
2023-08-25T18:00	5713	503	-9.6	-21.4	246	17
2023-08-25T18:00	5740	502	-9.8	-21.1	246	17
2023-08-25T18:00	5768	500	-10.1	-21.1	247	17
2023-08-25T18:00	5796	498	-10.3	-21.0	248	17
2023-08-25T18:00	5826	496	-10.5	-21.0	248	17
2023-08-25T18:00	5853	494	-10.7	-21.8	248	17
2023-08-25T18:00	5881	493	-10.7	-22.2	248	17
2023-08-25T18:00	5911	491	-10.8	-21.2	247	17
2023-08-25T18:00	5938	489	-10.9	-19.4	245	18
2023-08-25T18:00	5967	487	-11.1	-18.4	243	18
2023-08-25T18:00	5998	485	-11.4	-17.7	241	19
2023-08-25T18:00	6027	483	-11.7	-17.7	240	20
2023-08-25T18:00	6056	481	-12.0	-17.9	238	20
2023-08-25T18:00	6085	480	-12.1	-17.7	238	21
2023-08-25T18:00	6106	478	-12.3	-18.2	237	21
2023-08-25T18:00	6128	477	-12.3	-19.5	237	21
2023-08-25T18:00	6152	475	-12.3	-20.1	238	20
2023-08-25T18:00	6176	474	-12.2	-21.9	238	20
2023-08-25T18:00	6199	473	-12.3	-22.3	238	20
2023-08-25T18:00	6228	471	-12.5	-21.7	237	20
2023-08-25T18:00	6252	469	-12.7	-21.4	237	19
2023-08-25T18:00	6277	468	-12.9	-21.8	237	19
2023-08-25T18:00	6303	466	-13.0	-22.2	237	20
2023-08-25T18:00	6338	464	-13.2	-22.0	237	20
2023-08-25T18:00	6369	462	-13.4	-22.0	237	20
2023-08-25T18:00	6396	461	-13.6	-22.5	237	20
2023-08-25T18:00	6417	459	-13.7	-22.9	236	20
2023-08-25T18:00	6444	458	-13.9	-22.8	236	20
2023-08-25T18:00	6466	456	-14.1	-22.4	235	20
2023-08-25T18:00	6494	455	-14.2	-20.7	235	20
2023-08-25T18:00	6520	453	-14.4	-20.2	235	20
2023-08-25T18:00	6547	451	-14.5	-21.6	235	20
2023-08-25T18:00	6575	450	-14.7	-21.6	236	20
2023-08-25T18:00	6602	448	-15.0	-22.0	236	20
2023-08-25T18:00	6631	446	-15.2	-22.1	235	20
2023-08-25T18:00	6660	445	-15.3	-21.1	235	19
2023-08-25T18:00	6694	443	-15.5	-20.3	235	19
2023-08-25T18:00	6725	441	-15.7	-20.7	235	19
2023-08-25T18:00	6756	439	-15.9	-20.6	236	18
2023-08-25T18:00	6781	438	-16.0	-20.9	237	19
2023-08-25T18:00	6808	436	-16.0	-23.5	238	19
2023-08-25T18:00	6840	434	-16.2	-23.5	239	19
2023-08-25T18:00	6871	432	-16.4	-23.4	240	19
2023-08-25T18:00	6899	431	-16.6	-23.5	240	20
2023-08-25T18:00	6925	429	-16.9	-23.8	239	20
2023-08-25T18:00	6953	428	-17.1	-24.9	238	20
2023-08-25T18:00	6981	426	-17.2	-27.2	237	21
2023-08-25T18:00	7013	424	-17.5	-26.9	236	21
2023-08-25T18:00	7046	422	-17.8	-27.1	236	20
2023-08-25T18:00	7082	421	-18.1	-27.5	236	20
2023-08-25T18:00	7104	419	-18.3	-27.7	236	20
2023-08-25T18:00	7128	418	-18.6	-26.2	237	20
2023-08-25T18:00	7154	416	-18.8	-25.7	237	20
2023-08-25T18:00	7185	415	-19.1	-25.4	238	20
2023-08-25T18:00	7219	413	-19.4	-25.6	239	20
2023-08-25T18:00	7254	411	-19.7	-25.6	239	20
2023-08-25T18:00	7285	409	-20.0	-25.6	240	20
2023-08-25T18:00	7312	408	-20.2	-25.7	239	20
2023-08-25T18:00	7336	406	-20.5	-25.7	239	20
2023-08-25T18:00	7366	405	-20.8	-25.7	237	20
2023-08-25T18:00	7405	403	-21.1	-25.9	236	20
2023-08-25T18:00	7434	401	-21.4	-25.8	234	20
2023-08-25T18:00	7462	399	-21.6	-25.6	233	19
2023-08-25T18:00	7487	398	-21.8	-25.0	232	19
2023-08-25T18:00	7513	397	-21.9	-24.1	232	20
2023-08-25T18:00	7537	395	-22.0	-24.5	232	20
2023-08-25T18:00	7561	394	-22.2	-24.4	232	20
2023-08-25T18:00	7585	393	-22.3	-24.3	233	20
2023-08-25T18:00	7609	391	-22.4	-24.3	233	21
2023-08-25T18:00	7636	390	-22.5	-24.3	234	21
2023-08-25T18:00	7659	389	-22.6	-24.1	234	21
2023-08-25T18:00	7685	388	-22.9	-23.9	235	21
2023-08-25T18:00	7709	386	-23.0	-24.2	235	21
2023-08-25T18:00	7742	385	-23.2	-24.5	236	21
2023-08-25T18:00	7766	383	-23.3	-24.7	236	21
2023-08-25T18:00	7790	382	-23.5	-24.9	236	21
2023-08-25T18:00	7817	381	-23.7	-25.0	236	22
2023-08-25T18:00	7842	379	-23.8	-25.4	235	22
2023-08-25T18:00	7867	378	-24.0	-25.7	235	22
2023-08-25T18:00	7893	377	-24.2	-25.9	235	22
2023-08-25T18:00	7918	375	-24.4	-25.9	235	22
2023-08-25T18:00	7942	374	-24.6	-26.0	235	23
2023-08-25T18:00	7965	373	-24.8	-26.0	235	23
2023-08-25T18:00	7989	372	-25.0	-26.3	235	23
2023-08-25T18:00	8013	371	-25.2	-26.6	235	23
2023-08-25T18:00	8036	369	-25.4	-26.9	235	24
2023-08-25T18:00	8062	368	-25.6	-27.4	234	24
2023-08-25T18:00	8089	367	-25.7	-27.8	234	25
2023-08-25T18:00	8113	365	-25.8	-28.1	233	25
2023-08-25T18:00	8137	364	-25.9	-27.9	233	26
2023-08-25T18:00	8162	363	-26.0	-28.1	233	26
2023-08-25T18:00	8185	362	-26.2	-28.4	234	27
2023-08-25T18:00	8208	361	-26.4	-28.5	234	27
2023-08-25T18:00	8235	359	-26.6	-28.6	234	27
2023-08-25T18:00	8265	358	-26.8	-28.7	235	27
2023-08-25T18:00	8296	356	-26.9	-29.1	235	28
2023-08-25T18:00	8334	355	-27.0	-30.0	236	28
2023-08-25T18:00	8359	353	-27.3	-30.1	236	28
2023-08-25T18:00	8389	352	-27.5	-30.0	236	29
2023-08-25T18:00	8421	350	-27.8	-30.2	236	29
2023-08-25T18:00	8447	349	-28.1	-30.4	237	29
2023-08-25T18:00	8476	347	-28.3	-30.3	237	29
2023-08-25T18:00	8504	346	-28.6		238	29
2023-08-25T18:00	8536	345	-28.9	-30.7	239	29
2023-08-25T18:00	8561	343	-29.1	-31.1	240	29
2023-08-25T18:00	8587	342	-29.3	-31.1	241	29
2023-08-25T18:00	8610	341	-29.5	-31.5	241	29
2023-08-25T18:00	8635	340	-29.6	-31.9	241	29
2023-08-25T18:00	8659	339	-29.8	-32.0	241	29
2023-08-25T18:00	8687	337	-30.1	-32.2	241	29
2023-08-25T18:00	8711	336	-30.3	-32.5	241	29
2023-08-25T18:00	8735	335	-30.5	-32.6	241	29
2023-08-25T18:00	8760	334	-30.7	-32.9	242	30
2023-08-25T18:00	8781	333	-30.8	-33.6	242	30
2023-08-25T18:00	8804	332	-31.0	-33.7	242	30
2023-08-25T18:00	8826	331	-31.2	-33.9	243	30
2023-08-25T18:00	8848	330	-31.3	-34.1	243	30
2023-08-25T18:00	8871	329	-31.5	-34.6	243	31
2023-08-25T18:00	8892	328	-31.7	-34.5	243	31
2023-08-25T18:00	8916	327	-31.9	-34.5	243	31
2023-08-25T18:00	8941	325	-32.1	-34.6	242	31
2023-08-25T18:00	8969	324	-32.4	-34.7	242	31
2023-08-25T18:00	8999	323	-32.6	-35.2	241	30
2023-08-25T18:00	9026	322	-32.8	-35.5	241	30
2023-08-25T18:00	9049	321	-33.0	-35.6	241	30
2023-08-25T18:00	9075	319	-33.2	-35.7	241	30
2023-08-25T18:00	9103	318	-33.5	-35.8	241	30
2023-08-25T18:00	9127	317	-33.7	-36.1	241	30
2023-08-25T18:00	9157	316	-34.0	-36.1	240	30
2023-08-25T18:00	9194	314	-34.3	-36.5	240	29
2023-08-25T18:00	9225	313	-34.5	-36.7	239	29
2023-08-25T18:00	9256	311	-34.8	-36.7	239	28
2023-08-25T18:00	9286	310	-35.1	-36.9	238	28
2023-08-25T18:00	9307	309	-35.3		238	28
2023-08-25T18:00	9328	308	-35.5	-37.3	237	28
2023-08-25T18:00	9350	307	-35.7	-37.6	237	29
2023-08-25T18:00	9375	306	-35.8	-38.7	237	29
2023-08-25T18:00	9399	305	-36.0	-38.5	237	29
2023-08-25T18:00	9430	304	-36.2	-39.0	238	29
2023-08-25T18:00	9458	302	-36.4	-39.8	238	29
2023-08-25T18:00	9481	301	-36.6	-40.0	238	29
2023-08-25T18:00	9506	300	-36.8	-40.3	239	29
2023-08-25T18:00	9530	299	-37.0	-40.6	239	30
2023-08-25T18:00	9551	298	-37.1	-41.3	239	30
2023-08-25T18:00	9576	297	-37.3	-41.6	240	30
2023-08-25T18:00	9602	296	-37.5	-41.8	240	30
2023-08-25T18:00	9622	295	-37.6	-42.2	240	31
2023-08-25T18:00	9646	294	-37.7	-43.3	240	31
2023-08-25T18:00	9667	293	-37.8	-44.2	240	31
2023-08-25T18:00	9690	292	-38.0	-44.9	240	32
2023-08-25T18:00	9713	291	-38.1	-45.0	240	32
2023-08-25T18:00	9734	291	-38.2	-45.3	240	32
2023-08-25T18:00	9752	290	-38.4	-46.1	240	32
2023-08-25T18:00	9775	289	-38.5	-46.1	240	32
2023-08-25T18:00	9795	288	-38.7	-46.1	240	32
2023-08-25T18:00	9816	287	-38.9	-46.2	239	32
2023-08-25T18:00	9840	286	-39.1	-46.2	239	32
2023-08-25T18:00	9860	285	-39.3	-46.3	239	32
2023-08-25T18:00	9879	284	-39.5	-46.5	239	32
2023-08-25T18:00	9900	284	-39.7	-46.6	239	33
2023-08-25T18:00	9922	283	-39.9	-46.8	239	33
2023-08-25T18:00	9942	282	-40.0	-47.7	239	33
2023-08-25T18:00	9965	281	-40.2	-48.6	239	33
2023-08-25T18:00	9987	280	-40.3	-49.1	240	33
2023-08-25T18:00	10007	279	-40.5	-49.3	240	33
2023-08-25T18:00	10029	278	-40.7	-49.6	240	33
2023-08-25T18:00	10050	277	-40.9	-49.6	240	34
2023-08-25T18:00	10072	276	-41.1	-49.5	240	34
2023-08-25T18:00	10096	275	-41.3	-49.7	241	34
2023-08-25T18:00	10119	275	-41.5	-49.8	241	34
2023-08-25T18:00	10147	273	-41.8	-50.0	240	34
2023-08-25T18:00	10169	272	-41.9	-50.0	240	34
2023-08-25T18:00	10197	271	-42.2	-50.2	240	34
2023-08-25T18:00	10223	270	-42.4	-49.8	240	34
2023-08-25T18:00	10248	269	-42.6	-49.7	240	34
2023-08-25T18:00	10272	268	-42.8	-49.8	241	34
2023-08-25T18:00	10297	267	-43.1	-49.8	241	35
2023-08-25T18:00	10324	266	-43.3	-49.3	241	35
2023-08-25T18:00	10347	265	-43.6	-48.9	241	35
2023-08-25T18:00	10374	264	-43.9	-48.3	240	35
2023-08-25T18:00	10399	263	-44.1	-48.1	240	36
2023-08-25T18:00	10424	262	-44.2	-47.8	240	36
2023-08-25T18:00	10455	261	-44.4	-47.9	240	36
2023-08-25T18:00	10482	260	-44.6	-48.2	240	36
2023-08-25T18:00	10504	259	-44.8	-48.5	240	36
2023-08-25T18:00	10528	258	-45.0	-48.6	240	36
2023-08-25T18:00	10551	257	-45.3	-48.8	240	36
2023-08-25T18:00	10576	257	-45.5	-49.1	240	36
2023-08-25T18:00	10600	256	-45.7	-49.2	240	36
2023-08-25T18:00	10621	255	-45.9	-49.4	240	36
2023-08-25T18:00	10648	254	-46.1	-49.5	241	36
2023-08-25T18:00	10672	253	-46.3	-49.8	240	36
2023-08-25T18:00	10698	252	-46.5	-50.1	240	36
2023-08-25T18:00	10728	251	-46.8	-50.1	240	37
2023-08-25T18:00	10754	250	-47.1	-50.2	239	37
2023-08-25T18:00	10783	249	-47.3	-50.3	239	36
2023-08-25T18:00	10814	247	-47.6	-50.5	238	36
2023-08-25T18:00	10852	246	-48.0	-50.8	238	36
2023-08-25T18:00	10876	245	-48.2	-50.9	238	36
2023-08-25T18:00	10902	244	-48.5	-50.9	238	36
2023-08-25T18:00	10926	243	-48.7	-50.7	238	36
2023-08-25T18:00	10951	242	-48.9	-50.8	238	37
2023-08-25T18:00	10975	241	-49.2	-51.4	238	37
2023-08-25T18:00	11002	241	-49.3	-52.6	238	37
2023-08-25T18:00	11027	240	-49.4	-54.0	238	37
2023-08-25T18:00	11051	239	-49.6	-54.4	238	37
2023-08-25T18:00	11075	238	-49.9	-54.4	238	37
2023-08-25T18:00	11098	237	-50.1	-54.2	238	37
2023-08-25T18:00	11122	236	-50.3	-54.3	238	37
2023-08-25T18:00	11143	235	-50.5	-54.4	238	37
2023-08-25T18:00	11166	234	-50.7	-54.7	237	37
2023-08-25T18:00	11193	234	-51.0	-55.0	237	37
2023-08-25T18:00	11219	233	-51.2	-55.1	237	36
2023-08-25T18:00	11247	232	-51.4	-55.0	237	36
2023-08-25T18:00	11270	231	-51.7	-54.9	237	36
2023-08-25T18:00	11306	230	-52.0	-54.8	236	36
2023-08-25T18:00	11330	229	-52.2	-54.8	236	36
2023-08-25T18:00	11358	228	-52.5	-55.0	237	36
2023-08-25T18:00	11381	227	-52.7	-55.4	237	35
2023-08-25T18:00	11406	226	-52.9	-55.8	237	35
2023-08-25T18:00	11430	225	-53.1	-56.1	237	35
2023-08-25T18:00	11456	224	-53.3	-56.4	238	35
2023-08-25T18:00	11480	223	-53.6	-56.9	238	35
2023-08-25T18:00	11507	222	-53.8	-57.2	239	35
2023-08-25T18:00	11537	221	-54.1	-57.3	239	35
2023-08-25T18:00	11569	220	-54.4		239	35
2023-08-25T18:00	11590	220	-54.6	-57.5	239	35
2023-08-25T18:00	11612	219	-54.9	-57.8	239	35
2023-08-25T18:00	11640	218	-55.1	-57.8	238	35
2023-08-25T18:00	11663	217	-55.3	-57.8	238	35
2023-08-25T18:00	11689	216	-55.6	-58.0	238	35
2023-08-25T18:00	11710	215	-55.8	-58.2	238	35
2023-08-25T18:00	11735	215	-56.0	-58.5	238	35
2023-08-25T18:00	11768	214	-56.2	-58.9	238	36
2023-08-25T18:00	11797	213	-56.5	-59.4	239	36
2023-08-25T18:00	11829	212	-56.8	-59.9	239	36
2023-08-25T18:00	11848	211	-57.0	-60.5	240	36
2023-08-25T18:00	11873	210	-57.2	-61.0	240	36
2023-08-25T18:00	11900	209	-57.4	-61.4	241	36
2023-08-25T18:00	11924	208	-57.6	-61.6	242	37
2023-08-25T18:00	11948	208	-57.8	-61.7	243	37
2023-08-25T18:00	11980	207	-58.1	-61.9	244	38
2023-08-25T18:00	12009	206	-58.3	-62.1	245	38
2023-08-25T18:00	12034	205	-58.3	-62.2	246	39
2023-08-25T18:00	12058	204	-58.4	-62.4	247	39
2023-08-25T18:00	12083	203	-58.6	-62.6	248	39
2023-08-25T18:00	12107	202	-58.5	-62.9	249	38
2023-08-25T18:00	12134	201	-58.3	-63.8	249	37
2023-08-25T18:00	12174	200	-57.0	-64.6	250	35
2023-08-25T18:00	12206	199	-56.6	-66.3	250	34
2023-08-25T18:00	12232	198	-56.5	-67.9	251	32
2023-08-25T18:00	12261	197	-56.4	-68.9	251	31
2023-08-25T18:00	12295	197	-56.1	-69.5	252	30
2023-08-25T18:00	12318	196	-55.5	-69.6	253	30
2023-08-25T18:00	12338	195	-55.4	-69.9	254	29
2023-08-25T18:00	12358	195	-55.2	-69.7	255	29
2023-08-25T18:00	12381	194	-55.2	-69.3	257	29
2023-08-25T18:00	12404	193	-55.4	-69.0	258	29
2023-08-25T18:00	12426	193	-55.5	-68.8	258	29
2023-08-25T18:00	12446	192	-55.6	-68.6	259	28
2023-08-25T18:00	12468	191	-55.8	-68.6	259	28
2023-08-25T18:00	12485	191	-55.8	-68.5	259	28
2023-08-25T18:00	12509	190	-55.9	-68.7	259	28
2023-08-25T18:00	12529	189	-55.9	-69.0	259	28
2023-08-25T18:00	12549	189	-55.9	-69.3	258	28
2023-08-25T18:00	12571	188	-56.0	-69.5	258	28
2023-08-25T18:00	12593	188	-56.1	-69.6	258	27
2023-08-25T18:00	12612	187	-56.3		257	27
2023-08-25T18:00	12634	186	-56.4	-69.7	257	27
2023-08-25T18:00	12656	186	-56.6	-69.8	256	27
2023-08-25T18:00	12675	185	-56.7	-69.8	256	27
2023-08-25T18:00	12696	184	-56.9	-70.0	255	27
2023-08-25T18:00	12717	184	-56.9	-70.1	254	27
2023-08-25T18:00	12739	183	-56.9	-70.3	253	26
2023-08-25T18:00	12761	183	-56.9	-70.5	252	26
2023-08-25T18:00	12779	182	-56.8	-70.7	251	25
2023-08-25T18:00	12800	181	-56.8	-71.0	250	24
2023-08-25T18:00	12821	181	-56.7	-71.2	249	24
2023-08-25T18:00	12842	180	-56.7	-71.3	248	24
2023-08-25T18:00	12862	180	-56.8	-71.4	248	24
2023-08-25T18:00	12884	179	-57.0	-71.5	247	24
2023-08-25T18:00	12904	179	-57.1	-71.4	246	24
2023-08-25T18:00	12923	178	-57.2	-71.4	245	25
2023-08-25T18:00	12942	177	-57.3	-71.4	245	25
2023-08-25T18:00	12964	177	-57.3	-71.3	244	25
2023-08-25T18:00	12987	176	-57.4	-71.3	244	25
2023-08-25T18:00	13006	176	-57.5	-71.3	245	26
2023-08-25T18:00	13027	175	-57.7	-71.4	245	26
2023-08-25T18:00	13049	175	-57.8	-71.4	245	26
2023-08-25T18:00	13068	174	-57.9	-71.5	246	26
2023-08-25T18:00	13088	173	-57.9	-71.6	246	25
2023-08-25T18:00	13110	173	-58.0	-71.8	247	25
2023-08-25T18:00	13130	172	-58.0	-72.0	247	25
2023-08-25T18:00	13152	172	-58.1	-72.5	247	25
2023-08-25T18:00	13173	171	-58.1	-73.1	248	26
2023-08-25T18:00	13193	171	-58.0	-73.7	248	26
2023-08-25T18:00	13214	170	-58.0	-74.5	249	26
2023-08-25T18:00	13237	169	-57.9	-75.1	249	26
2023-08-25T18:00	13258	169	-57.4	-75.3	250	26
2023-08-25T18:00	13279	168	-57.2	-75.6	250	25
2023-08-25T18:00	13302	168	-57.3	-75.8	250	25
2023-08-25T18:00	13325	167	-57.4	-76.0	250	24
2023-08-25T18:00	13347	166	-57.2	-76.1	249	24
2023-08-25T18:00	13369	166	-56.7	-76.0	249	23
2023-08-25T18:00	13395	165	-56.7	-76.3	248	23
2023-08-25T18:00	13419	165	-56.6	-76.5	247	22
2023-08-25T18:00	13438	164	-56.7	-76.6	247	22
2023-08-25T18:00	13461	163	-56.8	-76.6	246	21
2023-08-25T18:00	13484	163	-56.9	-76.6	245	21
2023-08-25T18:00	13503	162	-57.1	-76.7	245	21
2023-08-25T18:00	13526	162	-57.2	-76.8	244	21
2023-08-25T18:00	13545	161	-57.3	-76.7	244	22
2023-08-25T18:00	13568	161	-57.4	-76.8	244	22
2023-08-25T18:00	13589	160	-57.5	-76.9	243	22
2023-08-25T18:00	13612	160	-57.6	-77.0	243	22
2023-08-25T18:00	13634	159	-57.8	-77.0	242	22
2023-08-25T18:00	13655	159	-57.9	-77.1	242	21
2023-08-25T18:00	13677	158	-58.1	-77.2	242	21
2023-08-25T18:00	13698	157	-58.2	-77.3	241	21
2023-08-25T18:00	13718	157	-58.3	-77.4	241	21
2023-08-25T18:00	13741	156	-58.3	-77.5	240	20
2023-08-25T18:00	13763	156	-58.3	-77.6	239	20
2023-08-25T18:00	13783	155	-58.4	-77.6	238	20
2023-08-25T18:00	13805	155	-58.6	-77.7	237	21
2023-08-25T18:00	13827	154	-58.8	-77.9	237	21
2023-08-25T18:00	13849	154	-59.0	-78.2	237	21
2023-08-25T18:00	13869	153	-59.0	-78.6	237	22
2023-08-25T18:00	13892	153	-58.6	-78.7	238	22
2023-08-25T18:00	13913	152	-58.2	-78.9	240	23
2023-08-25T18:00	13935	152	-58.1	-79.0	241	23
2023-08-25T18:00	13957	151	-58.1	-79.2	243	24
2023-08-25T18:00	13980	151	-58.1	-79.2	245	24
2023-08-25T18:00	14001	150	-57.9	-79.0	247	24
2023-08-25T18:00	14022	150	-57.8	-79.1	248	25
2023-08-25T18:00	14043	149	-57.8	-79.2	249	25
2023-08-25T18:00	14065	149	-57.9	-79.4	250	25
2023-08-25T18:00	14086	148	-58.0	-79.7	250	25
2023-08-25T18:00	14106	148	-58.0	-80.0	251	24
2023-08-25T18:00	14127	147	-57.4	-80.0	251	24
2023-08-25T18:00	14149	147	-57.4	-80.3	252	23
2023-08-25T18:00	14170	146	-57.3	-80.8	253	23
2023-08-25T18:00	14191	146	-56.7	-80.7	254	23
2023-08-25T18:00	14212	145	-56.7	-80.9	254	22
2023-08-25T18:00	14232	145	-56.7	-81.2	254	22
2023-08-25T18:00	14254	144	-56.7	-81.2	255	22
2023-08-25T18:00	14274	144	-56.8	-81.5	255	22
2023-08-25T18:00	14295	143	-56.6	-81.3	256	22
2023-08-25T18:00	14318	143	-56.1	-81.1	257	22
2023-08-25T18:00	14337	142	-56.0	-81.3	257	22
2023-08-25T18:00	14359	142	-56.1	-81.4	257	22
2023-08-25T18:00	14384	141	-55.7	-81.3	256	22
2023-08-25T18:00	14407	141	-55.5	-81.2	254	22
2023-08-25T18:00	14429	140	-55.6	-81.3	253	22
2023-08-25T18:00	14453	140	-55.7	-81.3	251	22
2023-08-25T18:00	14479	139	-55.9	-81.2	250	22
2023-08-25T18:00	14502	139	-56.1	-81.4	249	22
2023-08-25T18:00	14525	138	-56.4	-81.4	248	21
2023-08-25T18:00	14558	137	-56.7	-81.6	246	21
2023-08-25T18:00	14583	137	-56.9	-81.5	245	22
2023-08-25T18:00	14607	136	-57.1	-81.7	243	22
2023-08-25T18:00	14636	136	-57.3	-81.6	242	23
2023-08-25T18:00	14660	135	-57.5	-81.8	241	23
2023-08-25T18:00	14686	135	-57.6	-81.9	241	24
2023-08-25T18:00	14707	134	-57.5	-81.8	241	25
2023-08-25T18:00	14731	134	-57.7	-81.7	241	25
2023-08-25T18:00	14757	133	-57.8	-81.8	241	25
2023-08-25T18:00	14779	133	-58.0	-81.8	241	25
2023-08-25T18:00	14803	132	-58.2	-81.7	241	26
2023-08-25T18:00	14828	132	-58.4	-81.7	241	26
2023-08-25T18:00	14856	131	-58.7	-81.7	241	26
2023-08-25T18:00	14882	131	-58.9	-81.9	241	27
2023-08-25T18:00	14904	130	-59.0	-81.8	242	27
2023-08-25T18:00	14930	130	-58.7	-81.5	244	28
2023-08-25T18:00	14958	129	-58.6	-81.6	246	28
2023-08-25T18:00	14980	129	-58.4	-81.7	247	28
2023-08-25T18:00	15004	128	-58.3	-81.8	249	28
2023-08-25T18:00	15028	128	-58.3	-81.8	250	29
2023-08-25T18:00	15051	127	-58.2	-81.7	251	29
2023-08-25T18:00	15072	127	-58.3	-82.0	253	28
2023-08-25T18:00	15094	126	-58.3	-82.0	254	28
2023-08-25T18:00	15119	126	-57.8	-81.8	255	27
2023-08-25T18:00	15142	125	-57.7		255	27
2023-08-25T18:00	15162	125	-57.5	-81.8	256	27
2023-08-25T18:00	15183	124	-57.5	-81.8	256	26
2023-08-25T18:00	15206	124	-57.5	-82.0	256	26
2023-08-25T18:00	15229	124	-57.5	-82.0	256	26
2023-08-25T18:00	15253	123	-57.5	-82.0	257	26
2023-08-25T18:00	15275	123	-57.5	-82.0	257	25
2023-08-25T18:00	15298	122	-57.5	-82.0	258	25
2023-08-25T18:00	15322	122	-57.4	-81.9	259	24
2023-08-25T18:00	15344	121	-57.3	-81.8	260	23
2023-08-25T18:00	15369	121	-57.2	-82.0	261	23
2023-08-25T18:00	15391	120	-57.1	-81.9	262	22
2023-08-25T18:00	15415	120	-57.1	-81.9	263	22
2023-08-25T18:00	15438	119	-57.2	-82.0	263	21
2023-08-25T18:00	15462	119	-57.3	-81.8	264	21
2023-08-25T18:00	15482	119	-57.5	-82.0	264	20
2023-08-25T18:00	15506	118	-57.7	-82.2	264	20
2023-08-25T18:00	15529	118	-57.8	-82.2	263	19
2023-08-25T18:00	15551	117	-57.7	-82.2	262	18
2023-08-25T18:00	15573	117	-57.6	-82.1	261	18
2023-08-25T18:00	15597	117	-57.8	-82.5	260	17
2023-08-25T18:00	15617	116	-57.5	-82.5	259	16
2023-08-25T18:00	15641	116	-57.2	-82.2	258	16
2023-08-25T18:00	15664	115	-57.2	-82.5	257	15
2023-08-25T18:00	15685	115	-57.0	-82.3	257	15
2023-08-25T18:00	15708	115	-56.7	-82.4	258	15
2023-08-25T18:00	15726	114	-56.4	-82.1	259	14
2023-08-25T18:00	15751	114	-56.4	-82.1	261	15
2023-08-25T18:00	15772	113	-56.5	-82.2	262	15
2023-08-25T18:00	15796	113	-56.6	-82.3	264	15
2023-08-25T18:00	15818	113	-56.8	-82.5	265	16
2023-08-25T18:00	15840	112	-56.9	-82.5	265	16
2023-08-25T18:00	15862	112	-57.0	-82.3	266	16
2023-08-25T18:00	15882	111	-57.1	-82.4	266	17
2023-08-25T18:00	15905	111	-57.2	-82.5	267	17
2023-08-25T18:00	15926	111	-57.3	-82.6	268	18
2023-08-25T18:00	15950	110	-57.5	-82.7	268	18
2023-08-25T18:00	15970	110	-57.6	-82.8	270	18
2023-08-25T18:00	15991	109	-57.6	-82.8	271	18
2023-08-25T18:00	16011	109	-57.5	-82.7	273	18
2023-08-25T18:00	16036	109	-57.5	-82.7	274	18
2023-08-25T18:00	16054	108	-57.6	-83.1	276	18
2023-08-25T18:00	16078	108	-57.5	-83.0	277	17
2023-08-25T18:00	16101	108	-57.3	-82.8	277	16
2023-08-25T18:00	16123	107	-57.3	-83.1	278	15
2023-08-25T18:00	16148	107	-57.2	-83.0	277	14
2023-08-25T18:00	16170	106	-57.2	-83.0	276	13
2023-08-25T18:00	16192	106	-57.4	-83.5	274	12
2023-08-25T18:00	16216	106	-57.2	-83.3	271	11
2023-08-25T18:00	16241	105	-56.5	-83.1	266	10
2023-08-25T18:00	16265	105	-56.1	-83.1	260	9
2023-08-25T18:00	16285	105	-55.9	-82.9	254	8
2023-08-25T18:00	16309	104	-55.8	-82.9	248	8
2023-08-25T18:00	16331	104	-55.8	-82.9	244	8
2023-08-25T18:00	16354	103	-55.8	-82.9	242	9
2023-08-25T18:00	16376	103	-55.8	-82.9	241	9
2023-08-25T18:00	16400	103	-55.9	-82.9	241	10
2023-08-25T18:00	16420	102	-56.0	-83.0	242	10
2023-08-25T18:00	16444	102	-56.1	-83.1	242	11
2023-08-25T18:00	16468	102	-56.2	-83.2	242	11
2023-08-25T18:00	16490	101	-56.3	-83.3	242	12
2023-08-25T18:00	16514	101	-56.4	-83.3	241	12
2023-08-25T18:00	16535	100	-56.4	-83.3	241	13
2023-08-25T18:00	16558	100	-55.8	-82.9	241	13
2023-08-25T18:00	16579	100	-55.9	-82.9	241	13
2023-08-25T18:00	16600	99	-56.1	-83.1	241	14
2023-08-25T18:00	16623	99	-56.3	-83.3	241	14
2023-08-25T18:00	16641	99	-56.3	-83.3	241	14
2023-08-25T18:00	16666	98	-56.5	-83.4	242	15
2023-08-25T18:00	16690	98	-56.6	-83.2	242	15
2023-08-25T18:00	16712	98	-56.7	-83.2	242	15
2023-08-25T18:00	16736	97	-56.8	-83.3	242	16
2023-08-25T18:00	16757	97	-56.7	-83.2	242	16
2023-08-25T18:00	16781	97	-56.9	-83.4	242	16
2023-08-25T18:00	16805	96	-56.8	-83.3	243	16
2023-08-25T18:00	16827	96	-57.0	-83.5	243	16
2023-08-25T18:00	16849	96	-57.0	-83.5	244	15
2023-08-25T18:00	16869	95	-57.1	-83.5	246	15
2023-08-25T18:00	16893	95	-57.2	-83.6	247	14
2023-08-25T18:00	16915	95	-57.3	-83.7	248	14
2023-08-25T18:00	16938	94	-57.4	-83.8	249	13
2023-08-25T18:00	16961	94	-57.6	-83.9	250	13
2023-08-25T18:00	16984	94	-57.7	-83.7	251	12
2023-08-25T18:00	17005	93	-57.9	-83.9	251	12
2023-08-25T18:00	17028	93	-58.0	-83.9	251	11
2023-08-25T18:00	17049	93	-58.0	-83.9	250	11
2023-08-25T18:00	17071	92	-58.1	-84.0	249	11
2023-08-25T18:00	17092	92	-58.1	-84.0	248	10
2023-08-25T18:00	17113	92	-58.1	-84.0	247	10
2023-08-25T18:00	17134	91	-58.2	-84.1	246	10
2023-08-25T18:00	17156	91	-58.3	-84.2	245	9
2023-08-25T18:00	17180	91	-58.5	-84.3	244	9
2023-08-25T18:00	17198	90	-58.6	-84.4	244	9
2023-08-25T18:00	17220	90	-58.5	-84.6	243	9
2023-08-25T18:00	17242	90	-58.2	-84.4	242	9
2023-08-25T18:00	17266	90	-58.0	-84.6	243	9
2023-08-25T18:00	17288	89	-57.9	-84.5	244	10
2023-08-25T18:00	17308	89	-57.7	-84.3	247	10
2023-08-25T18:00	17331	89	-57.7	-84.7	251	10
2023-08-25T18:00	17353	88	-57.7	-84.7	255	11
2023-08-25T18:00	17376	88	-57.6	-84.6	258	11
2023-08-25T18:00	17397	88	-57.3	-84.4	261	11
2023-08-25T18:00	17422	87	-57.3	-84.4	264	11
2023-08-25T18:00	17443	87	-57.2	-84.3	267	10
2023-08-25T18:00	17466	87	-56.9	-84.4	269	10
2023-08-25T18:00	17489	86	-56.8	-84.3	271	10
2023-08-25T18:00	17512	86	-56.9	-84.4	274	9
2023-08-25T18:00	17533	86	-57.1	-84.6	276	8
2023-08-25T18:00	17559	85	-57.2	-84.6	278	8
2023-08-25T18:00	17583	85	-57.0	-84.5	278	7
2023-08-25T18:00	17604	85	-56.8	-84.3	276	7
2023-08-25T18:00	17627	85	-56.8	-84.3	272	7
2023-08-25T18:00	17653	84	-57.0	-84.5	267	7
2023-08-25T18:00	17673	84	-57.1	-84.2	262	7
2023-08-25T18:00	17696	84	-57.2	-84.3	258	7
2023-08-25T18:00	17720	83	-57.4	-84.4	255	7
2023-08-25T18:00	17743	83	-57.5	-84.5	252	7
2023-08-25T18:00	17768	83	-57.4	-84.4	250	7
2023-08-25T18:00	17791	82	-57.4	-84.4	248	7
2023-08-25T18:00	17818	82	-57.4	-84.8	246	6
2023-08-25T18:00	17840	82	-57.4	-84.8	243	6
2023-08-25T18:00	17866	81	-57.3	-84.7	240	5
2023-08-25T18:00	17886	81	-57.3	-84.7	237	5
2023-08-25T18:00	17914	81	-57.2	-84.6	234	5
2023-08-25T18:00	17935	81	-57.3	-84.7	231	5
2023-08-25T18:00	17959	80	-57.3	-84.7	228	5
2023-08-25T18:00	17981	80	-57.2	-84.6	225	4
2023-08-25T18:00	18006	80	-57.1	-84.6	218	4
2023-08-25T18:00	18029	79	-57.1	-84.6	210	3
2023-08-25T18:00	18053	79	-57.2	-84.6	201	3
2023-08-25T18:00	18076	79	-57.3	-84.7	195	4
2023-08-25T18:00	18097	78	-57.0	-84.5	192	4
2023-08-25T18:00	18122	78	-57.0	-84.5	192	4
2023-08-25T18:00	18143	78	-57.1	-84.6	194	5
2023-08-25T18:00	18169	78	-57.3	-84.7	198	5
2023-08-25T18:00	18192	77	-57.6	-84.9	203	5
2023-08-25T18:00	18214	77	-57.7	-84.7	207	6
2023-08-25T18:00	18237	77	-57.8	-84.7	212	6
2023-08-25T18:00	18258	77	-57.9	-84.8	216	7
2023-08-25T18:00	18281	76	-58.1	-85.0	219	7
2023-08-25T18:00	18303	76	-58.2	-85.0	223	7
2023-08-25T18:00	18328	76	-58.2	-85.4	226	7
2023-08-25T18:00	18348	75	-58.0	-85.2	230	7
2023-08-25T18:00	18370	75	-58.0	-85.2	235	7
2023-08-25T18:00	18391	75	-58.0	-85.2	241	7
2023-08-25T18:00	18415	75	-57.8	-85.1	249	6
2023-08-25T18:00	18436	74	-57.7	-85.4	257	6
2023-08-25T18:00	18458	74	-57.7	-85.4	264	6
2023-08-25T18:00	18474	74	-57.6	-85.3	271	6
2023-08-25T18:00	18500	74	-57.6	-85.3	277	6
2023-08-25T18:00	18521	73	-57.6	-85.3	284	6
2023-08-25T18:00	18545	73	-57.6	-85.3	290	6
2023-08-25T18:00	18565	73	-57.6	-85.3	296	6
2023-08-25T18:00	18590	73	-57.6	-85.3	301	5
2023-08-25T18:00	18610	72	-57.6	-85.3	305	5
2023-08-25T18:00	18633	72	-57.4	-85.2	308	5
2023-08-25T18:00	18657	72	-57.4	-85.2	310	4
2023-08-25T18:00	18681	72	-57.5	-85.2	309	4
2023-08-25T18:00	18701	71	-57.7	-85.0	307	3
2023-08-25T18:00	18723	71	-57.9	-85.2	301	3
2023-08-25T18:00	18745	71	-58.1	-85.3	290	2
2023-08-25T18:00	18769	71	-58.2	-85.4	272	2
2023-08-25T18:00	18793	70	-58.3	-85.5	254	2
2023-08-25T18:00	18813	70	-58.2	-85.8	245	2
2023-08-25T18:00	18838	70	-57.9	-85.5	242	3
2023-08-25T18:00	18861	70	-57.6	-85.3	244	3
2023-08-25T18:00	18887	69	-57.6	-85.3	247	3
2023-08-25T18:00	18910	69	-57.4	-85.6	249	3
2023-08-25T18:00	18933	69	-57.4	-85.6	250	4
2023-08-25T18:00	18957	68	-57.6	-85.3	250	4
2023-08-25T18:00	18980	68	-57.7	-85.4	250	4
2023-08-25T18:00	19004	68	-57.6	-85.3	249	4
2023-08-25T18:00	19030	68	-57.4	-85.6	248	4
2023-08-25T18:00	19054	67	-57.3	-85.5	246	4
2023-08-25T18:00	19077	67	-57.2	-85.4	244	4
2023-08-25T18:00	19102	67	-57.1	-85.3	243	4
2023-08-25T18:00	19131	67	-57.2	-85.4	243	5
2023-08-25T18:00	19153	66	-57.1	-85.3	245	6
2023-08-25T18:00	19176	66	-57.2	-85.4	248	6
2023-08-25T18:00	19202	66	-57.3	-85.5	251	7
2023-08-25T18:00	19222	66	-57.1	-85.3	254	7
2023-08-25T18:00	19249	65	-57.0	-85.2	258	7
2023-08-25T18:00	19273	65	-57.1	-85.3	263	6
2023-08-25T18:00	19296	65	-57.0	-85.2	270	6
2023-08-25T18:00	19324	65	-56.9	-85.2	277	6
2023-08-25T18:00	19344	64	-56.8	-85.1	285	5
2023-08-25T18:00	19372	64	-56.9	-85.2	292	5
2023-08-25T18:00	19397	64	-57.1	-85.3	299	5
2023-08-25T18:00	19424	64	-57.3	-85.1	306	4
2023-08-25T18:00	19447	63	-57.4	-85.2	314	4
2023-08-25T18:00	19475	63	-57.6	-85.3	322	3
2023-08-25T18:00	19497	63	-57.6	-85.7	328	3
2023-08-25T18:00	19523	63	-57.3	-85.5	334	3
2023-08-25T18:00	19552	62	-57.0	-85.2	338	3
2023-08-25T18:00	19575	62	-56.9	-85.2	343	3
2023-08-25T18:00	19602	62	-56.9	-85.6	351	3
2023-08-25T18:00	19624	62	-56.8	-85.5	1	3
2023-08-25T18:00	19649	61	-56.7	-85.4	12	3
2023-08-25T18:00	19675	61	-56.9	-85.2	22	3
2023-08-25T18:00	19698	61	-56.8	-85.1	29	3
2023-08-25T18:00	19724	61	-56.7	-85.0	35	2
2023-08-25T18:00	19752	60	-56.6	-84.9	39	2
2023-08-25T18:00	19770	60	-56.7	-85.0	43	1
2023-08-25T18:00	19797	60	-56.6	-84.9	47	0
2023-08-25T18:00	19820	60	-56.7	-85.0	230	1
2023-08-25T18:00	19846	60	-56.9	-85.2	233	1
2023-08-25T18:00	19869	59	-57.0	-85.2	235	1
2023-08-25T18:00	19895	59	-57.2	-85.4	236	1
2023-08-25T18:00	19917	59	-57.0	-85.2	234	1
2023-08-25T18:00	19942	59	-56.7	-85.0	224	1
2023-08-25T18:00	19963	58	-56.7	-85.0	195	1
2023-08-25T18:00	19988	58	-56.8	-85.1	165	1
2023-08-25T18:00	20010	58	-57.0	-85.2	161	1
2023-08-25T18:00	20034	58	-57.1	-85.3	173	1
2023-08-25T18:00	20055	58	-57.0	-85.2	192	1
2023-08-25T18:00	20080	57	-57.0	-85.7	211	2
2023-08-25T18:00	20102	57	-56.5	-85.3	223	2
2023-08-25T18:00	20123	57	-56.1	-85.0	229	2
2023-08-25T18:00	20149	57	-56.0	-84.9	231	2
2023-08-25T18:00	20169	57	-56.1	-85.0	230	3
2023-08-25T18:00	20191	56	-56.2	-85.1	229	3
2023-08-25T18:00	20214	56	-56.4	-85.2	229	3
2023-08-25T18:00	20238	56	-56.3	-85.1	231	3
2023-08-25T18:00	20261	56	-56.4	-85.2	234	3
2023-08-25T18:00	20287	56	-56.4	-85.2	237	3
2023-08-25T18:00	20305	55	-56.3	-85.1	239	3
2023-08-25T18:00	20333	55	-56.1	-85.0	238	3
2023-08-25T18:00	20353	55	-55.8	-84.8	234	3
2023-08-25T18:00	20378	55	-55.8	-84.8	227	3
2023-08-25T18:00	20400	55	-55.8	-84.8	222	3
2023-08-25T18:00	20423	54	-55.5	-84.5	219	3
2023-08-25T18:00	20449	54	-55.5	-84.5	221	3
2023-08-25T18:00	20476	54	-55.8	-84.8	228	3
2023-08-25T18:00	20500	54	-55.9	-84.8	238	3
2023-08-25T18:00	20526	53	-55.9	-84.8	250	3
2023-08-25T18:00	20547	53	-55.9	-84.8	264	3
2023-08-25T18:00	20573	53	-56.0	-84.9	278	3
2023-08-25T18:00	20601	53	-56.0	-84.9	290	3
2023-08-25T18:00	20625	53	-55.7	-85.2	301	3
2023-08-25T18:00	20649	52	-55.1	-84.7	312	3
2023-08-25T18:00	20676	52	-55.0	-84.6	324	2
2023-08-25T18:00	20699	52	-54.8	-84.5	340	2
2023-08-25T18:00	20725	52	-54.9	-84.6	358	2
2023-08-25T18:00	20751	52	-55.1	-84.7	16	1
2023-08-25T18:00	20775	51	-55.3	-84.4	36	1
2023-08-25T18:00	20801	51	-55.5	-84.5	58	1
2023-08-25T18:00	20825	51	-55.6	-84.6	84	1
2023-08-25T18:00	20854	51	-55.8	-84.8	111	1
2023-08-25T18:00	20876	51	-55.9	-84.8	132	1
2023-08-25T18:00	20899	50	-56.0	-84.9	146	1
2023-08-25T18:00	20927	50	-55.9	-84.8	159	0
2023-08-25T18:00	20951	50	-55.7	-84.7	263	0
2023-08-25T18:00	20980	50	-55.7	-84.7	335	0
2023-08-25T18:00	21005	50	-55.5	-85.0	344	1
2023-08-25T18:00	21025	49	-55.3	-84.9	353	1
2023-08-25T18:00	21049	49	-55.3	-84.9	7	0
2023-08-25T18:00	21084	49	-55.4	-84.5	95	0
2023-08-25T18:00	21102	49	-55.5	-84.5	157	1
2023-08-25T18:00	21129	49	-55.6	-84.6	170	1
2023-08-25T18:00	21152	48	-55.8	-84.8	176	1
2023-08-25T18:00	21176	48	-55.9	-84.8	182	2
2023-08-25T18:00	21201	48	-56.0	-84.9	189	2
2023-08-25T18:00	21229	48	-55.9	-84.8	196	3
2023-08-25T18:00	21250	48	-55.8	-84.8	204	3
2023-08-25T18:00	21280	48	-55.8	-84.8	213	3
2023-08-25T18:00	21301	47	-55.7	-85.2	222	3
2023-08-25T18:00	21328	47	-55.5	-85.0	231	3
2023-08-25T18:00	21354	47	-55.3	-84.9	240	2
2023-08-25T18:00	21382	47	-55.1	-84.7	249	2
2023-08-25T18:00	21401	47	-54.9	-84.6	256	2
2023-08-25T18:00	21429	46	-54.8	-84.5	260	2
2023-08-25T18:00	21455	46	-54.9	-84.6	260	1
2023-08-25T18:00	21475	46	-54.8	-84.5	256	1
2023-08-25T18:00	21502	46	-54.6	-84.3	245	1
2023-08-25T18:00	21529	46	-54.6	-84.3	208	0
2023-08-25T18:00	21554	46	-54.9	-84.6	114	0
2023-08-25T18:00	21574	45	-55.0	-84.6	92	0
2023-08-25T18:00	21602	45	-55.1	-84.2	86	1
2023-08-25T18:00	21626	45	-55.3	-84.4	87	1
2023-08-25T18:00	21656	45	-55.4	-84.5	92	1
2023-08-25T18:00	21680	45	-55.5	-84.5	99	1
2023-08-25T18:00	21705	44	-55.5	-84.5	108	1
2023-08-25T18:00	21727	44	-55.5	-84.5	120	1
2023-08-25T18:00	21756	44	-55.6	-84.6	136	1
2023-08-25T18:00	21782	44	-55.7	-84.7	160	1
2023-08-25T18:00	21807	44	-55.7	-85.2	183	1
2023-08-25T18:00	21831	44	-55.4	-84.9	199	2
2023-08-25T18:00	21850	43	-55.3	-84.9	209	2
2023-08-25T18:00	21888	43	-54.9	-85.1	216	3
2023-08-25T18:00	21909	43	-54.8	-85.0	224	3
2023-08-25T18:00	21934	43	-54.8	-85.0	233	4
2023-08-25T18:00	21961	43	-54.5	-84.8	243	4
2023-08-25T18:00	21983	43	-54.5	-84.8	254	4
2023-08-25T18:00	22010	42	-54.2	-84.5	266	4
2023-08-25T18:00	22033	42	-54.2	-84.5	277	4
2023-08-25T18:00	22062	42	-54.3	-84.6	287	4
2023-08-25T18:00	22085	42	-54.3	-84.6	297	3
2023-08-25T18:00	22108	42	-54.3	-84.6	305	3
2023-08-25T18:00	22134	42	-54.4	-84.2	314	3
2023-08-25T18:00	22155	41	-54.4	-84.2	323	3
2023-08-25T18:00	22185	41	-54.4	-84.2	333	3
2023-08-25T18:00	22205	41	-54.5	-84.3	342	3
2023-08-25T18:00	22226	41	-54.6	-84.3	350	3
2023-08-25T18:00	22255	41	-54.7	-84.4	356	2
2023-08-25T18:00	22279	41	-54.8	-84.5	358	2
2023-08-25T18:00	22307	40	-54.9	-84.6	358	2
2023-08-25T18:00	22329	40	-55.0	-84.6	356	2
2023-08-25T18:00	22355	40	-55.1	-84.7	353	2
2023-08-25T18:00	22381	40	-55.1	-84.7	349	2
2023-08-25T18:00	22401	40	-55.1	-84.7	346	2
2023-08-25T18:00	22431	40	-55.1	-84.7	346	2
2023-08-25T18:00	22454	40	-55.0	-84.6	347	2
2023-08-25T18:00	22480	39	-55.1	-84.7	349	2
2023-08-25T18:00	22502	39	-55.1	-84.7	351	2
2023-08-25T18:00	22530	39	-55.3	-84.9	351	2
2023-08-25T18:00	22553	39	-55.4	-84.9	348	2
2023-08-25T18:00	22574	39	-55.4	-84.9	343	2
2023-08-25T18:00	22600	39	-55.5	-85.0	335	2
2023-08-25T18:00	22625	38	-55.6	-85.1	327	2
2023-08-25T18:00	22654	38	-55.6	-85.1	320	2
2023-08-25T18:00	22680	38	-55.5	-85.0	316	2
2023-08-25T18:00	22706	38	-55.4	-84.9	315	2
2023-08-25T18:00	22729	38	-55.5	-85.0	317	2
2023-08-25T18:00	22750	38	-55.5	-85.0	320	2
2023-08-25T18:00	22783	38	-55.4	-84.9	322	2
2023-08-25T18:00	22804	37	-55.4	-84.9	326	1
2023-08-25T18:00	22833	37	-55.3	-84.9	333	1
2023-08-25T18:00	22858	37	-55.2	-84.8	346	1
2023-08-25T18:00	22875	37	-55.2	-84.8	358	1
2023-08-25T18:00	22912	37	-55.1	-84.7	4	2
2023-08-25T18:00	22933	37	-55.0	-84.6	4	2
2023-08-25T18:00	22957	37	-55.1	-84.7	2	3
2023-08-25T18:00	22981	36	-55.1	-84.7	1	3
2023-08-25T18:00	23011	36	-54.9	-84.6	1	3
2023-08-25T18:00	23036	36	-54.9	-84.6	1	3
2023-08-25T18:00	23064	36	-55.1	-84.7	3	3
2023-08-25T18:00	23086	36	-55.4	-84.9	7	3
2023-08-25T18:00	23118	36	-55.6	-84.6	12	3
2023-08-25T18:00	23142	36	-55.8	-84.8	19	3
2023-08-25T18:00	23174	35	-56.1	-85.0	26	2
2023-08-25T18:00	23194	35	-56.2	-85.1	32	2
2023-08-25T18:00	23218	35	-56.2	-85.1	38	2
2023-08-25T18:00	23243	35	-56.4	-85.2	43	2
2023-08-25T18:00	23265	35	-56.5	-85.3	49	2
2023-08-25T18:00	23293	35	-56.7	-85.4	57	2
2023-08-25T18:00	23321	35	-56.8	-85.5	65	2
2023-08-25T18:00	23347	34	-56.7	-85.4	71	1
2023-08-25T18:00	23366	34	-56.5	-85.8	68	1
2023-08-25T18:00	23394	34	-56.3	-85.6	34	1
2023-08-25T18:00	23422	34	-56.0		345	1
2023-08-25T18:00	23448	34	-55.9	-85.3	334	1
2023-08-25T18:00	23464	34	-55.7	-85.2	335	2
2023-08-25T18:00	23496	34	-55.6	-85.6	340	2
2023-08-25T18:00	23516	33	-55.7	-85.2	345	3
2023-08-25T18:00	23547	33	-55.7	-85.2	352	3
2023-08-25T18:00	23562	33	-55.6	-85.1	359	3
2023-08-25T18:00	23589	33	-55.6	-85.1	6	3
2023-08-25T18:00	23616	33	-55.6	-85.1	12	3
2023-08-25T18:00	23639	33	-55.6	-85.1	16	3
2023-08-25T18:00	23671	33	-55.5	-85.0	17	3
2023-08-25T18:00	23687	33	-55.5	-85.0	13	3
2023-08-25T18:00	23714	32	-55.5	-85.0	8	3
2023-08-25T18:00	23736	32	-55.3	-84.9	3	3
2023-08-25T18:00	23758	32	-55.3	-84.9	2	3
2023-08-25T18:00	23779	32	-55.4	-84.9	3	3
2023-08-25T18:00	23806	32	-55.3	-85.4	6	4
2023-08-25T18:00	23830	32	-55.2	-85.3	11	4
2023-08-25T18:00	23853	32	-55.1	-85.2	15	3
2023-08-25T18:00	23885	32	-55.0	-85.1	20	3
2023-08-25T18:00	23907	31	-54.9	-85.1	22	3
2023-08-25T18:00	23936	31	-54.8	-85.0	23	3
2023-08-25T18:00	23958	31	-54.7	-84.9	21	3
2023-08-25T18:00	23979	31	-54.7	-84.9	19	4
2023-08-25T18:00	24013	31	-54.6	-84.8	16	4
2023-08-25T18:00	24035	31	-54.2	-84.5	14	5
2023-08-25T18:00	24059	31	-54.1	-85.0	13	5
2023-08-25T18:00	24088	31	-54.0	-84.9	13	6
2023-08-25T18:00	24115	30	-53.9	-84.9	13	6
2023-08-25T18:00	24137	30	-53.8	-84.8	14	6
2023-08-25T18:00	24165	30	-53.6	-84.6	16	6
2023-08-25T18:00	24193	30	-53.5	-84.6	18	5
2023-08-25T18:00	24225	30	-53.5	-84.6	20	5
2023-08-25T18:00	24249	30	-53.5	-84.6	21	5
2023-08-25T18:00	24277	30	-53.5	-84.6	22	4
2023-08-25T18:00	24298	30	-53.5	-84.6	22	4
2023-08-25T18:00	24329	29	-53.6	-84.6	22	4
2023-08-25T18:00	24358	29	-53.7	-84.7	23	4
2023-08-25T18:00	24379	29	-53.5	-84.6	25	4
2023-08-25T18:00	24417	29	-53.5	-84.6	28	4
2023-08-25T18:00	24434	29	-53.3	-84.4	30	5
2023-08-25T18:00	24463	29	-52.9	-84.1	33	5
2023-08-25T18:00	24493	29	-52.6	-83.9	36	5
2023-08-25T18:00	24522	29	-52.4	-84.4	39	6
2023-08-25T18:00	24547	29	-52.3	-84.3	43	6
2023-08-25T18:00	24568	28	-52.2	-84.2	47	6
2023-08-25T18:00	24597	28	-52.2	-84.2	51	7
2023-08-25T18:00	24623	28	-52.1	-84.2	55	7
2023-08-25T18:00	24653	28	-51.9	-84.0	58	8
2023-08-25T18:00	24681	28	-51.9	-84.0	61	8
2023-08-25T18:00	24709	28	-51.9	-83.4	64	8
2023-08-25T18:00	24736	28	-52.0	-83.5	66	9
2023-08-25T18:00	24766	28	-52.0	-83.5	69	9
2023-08-25T18:00	24793	27	-52.0	-83.5	71	8
2023-08-25T18:00	24823	27	-52.0	-83.5	74	8
2023-08-25T18:00	24848	27	-52.1	-83.5	76	7
2023-08-25T18:00	24871	27	-52.2	-83.6	79	6
2023-08-25T18:00	24904	27	-52.2	-83.6	83	6
2023-08-25T18:00	24932	27	-52.2	-83.6	88	5
2023-08-25T18:00	24958	27	-52.3	-83.7	95	4
2023-08-25T18:00	24980	27	-52.3	-83.7	103	4
2023-08-25T18:00	25017	27	-52.3	-83.7	113	3
2023-08-25T18:00	25038	26	-52.3	-83.7	122	3
2023-08-25T18:00	25066	26	-52.4	-83.8	129	3
2023-08-25T18:00	25091	26	-52.5	-83.8	133	3
2023-08-25T18:00	25119	26	-52.5	-83.8	133	2
2023-08-25T18:00	25146	26	-52.4	-83.8	127	2
2023-08-25T18:00	25175	26	-52.5	-83.8	109	2
2023-08-25T18:00	25195	26	-52.3	-83.7	80	2
2023-08-25T18:00	25222	26	-52.2	-83.6	56	2
2023-08-25T18:00	25248	26	-52.1	-83.5	46	3
2023-08-25T18:00	25274	25	-52.1	-83.5	42	4
2023-08-25T18:00	25301	25	-52.0	-83.5	42	4
2023-08-25T18:00	25327	25	-52.1	-83.5	44	5
2023-08-25T18:00	25347	25	-52.1	-83.5	48	6
2023-08-25T18:00	25374	25	-52.1	-83.5	52	6
2023-08-25T18:00	25409	25	-52.1	-83.5	57	6
2023-08-25T18:00	25423	25	-52.0	-84.1	62	7
2023-08-25T18:00	25451	25	-51.9	-84.0	66	7
2023-08-25T18:00	25471	25	-51.9	-84.0	68	7
2023-08-25T18:00	25493	25	-51.7	-83.9	70	6
2023-08-25T18:00	25526	25	-51.6	-83.8	71	6
2023-08-25T18:00	25559	24	-51.5	-83.7	71	6
2023-08-25T18:00	25575	24	-51.4	-83.6	71	6
2023-08-25T18:00	25605	24	-51.2	-83.5	71	6
2023-08-25T18:00	25617	24	-51.0	-83.3	70	6
2023-08-25T18:00	25656	24	-50.7	-83.8	69	6
2023-08-25T18:00	25670	24	-50.4	-83.6	66	6
2023-08-25T18:00	25706	24	-50.2	-83.5	64	5
2023-08-25T18:00	25731	24	-50.0	-83.3	62	5
2023-08-25T18:00	25753	24	-49.9	-83.2	60	4
2023-08-25T18:00	25780	24	-49.6	-83.0	58	3
2023-08-25T18:00	25802	23	-49.2	-82.7	54	3
2023-08-25T18:00	25828	23	-49.3	-82.8	46	2
2023-08-25T18:00	25861	23	-49.4	-82.9	32	2
2023-08-25T18:00	25876	23	-49.4	-82.9	18	2
2023-08-25T18:00	25913	23	-49.3	-82.8	11	2
2023-08-25T18:00	25940	23	-49.2	-82.7	9	2
2023-08-25T18:00	25967	23	-49.2	-82.7	12	3
2023-08-25T18:00	25998	23	-49.1	-82.7	17	3
2023-08-25T18:00	26022	23	-49.1	-82.7	23	3
2023-08-25T18:00	26044	23	-49.0	-82.6	31	3
2023-08-25T18:00	26072	23	-48.9	-82.5	40	3
2023-08-25T18:00	26096	22	-48.9	-82.5	49	3
2023-08-25T18:00	26131	22	-48.9	-82.5	58	3
2023-08-25T18:00	26156	22	-49.0	-82.6	66	4
2023-08-25T18:00	26177	22	-49.0	-82.6	73	5
2023-08-25T18:00	26206	22	-49.0	-82.6	80	5
2023-08-25T18:00	26234	22	-49.0	-82.6	88	6
2023-08-25T18:00	26267	22	-49.2	-82.7	95	7
2023-08-25T18:00	26295	22	-49.2	-82.7	101	7
2023-08-25T18:00	26320	22	-49.0	-82.6	107	8
2023-08-25T18:00	26347	22	-48.8	-82.4	113	8
2023-08-25T18:00	26373	22	-48.6	-82.3	117	8
2023-08-25T18:00	26397	21	-48.6	-82.3	121	8
2023-08-25T18:00	26431	21	-48.7	-82.4	125	8
2023-08-25T18:00	26466	21	-48.8	-82.4	129	7
2023-08-25T18:00	26486	21	-48.8	-82.4	133	7
2023-08-25T18:00	26515	21	-48.8	-82.4	137	7
2023-08-25T18:00	26538	21	-48.8	-82.4	141	6
2023-08-25T18:00	26566	21	-48.9	-82.5	145	5
2023-08-25T18:00	26594	21	-48.8	-82.4	149	5
2023-08-25T18:00	26628	21	-48.8	-82.4	152	5
2023-08-25T18:00	26645	21	-48.7	-82.4	153	5
2023-08-25T18:00	26679	21	-48.5	-82.2	154	5
2023-08-25T18:00	26706	20	-48.5	-82.2	152	5
2023-08-25T18:00	26727	20	-48.2	-82.8	150	5
2023-08-25T18:00	26762	20	-47.9	-82.6	146	5
2023-08-25T18:00	26790	20	-47.6	-82.4	143	5
2023-08-25T18:00	26818	20	-47.6	-82.4	141	6
2023-08-25T18:00	26840	20	-47.6	-82.4	141	6
2023-08-25T18:00	26865	20	-47.5	-82.3	141	6
2023-08-25T18:00	26888	20	-47.6	-82.4	143	6
2023-08-25T18:00	26927	20	-47.6	-82.4	144	5
2023-08-25T18:00	26947	20	-47.6	-82.4	145	5
2023-08-25T18:00	26981	20	-47.6	-81.6	147	4
2023-08-25T18:00	27006	20	-47.6	-81.6	148	4
2023-08-25T18:00	27031	20	-47.7	-81.6	149	3
2023-08-25T18:00	27059	19	-47.8	-81.7	149	2
2023-08-25T18:00	27086	19	-47.9	-81.8	144	2
2023-08-25T18:00	27107	19	-48.0	-81.9	120	1
2023-08-25T18:00	27126	19	-48.1	-81.9	38	1
2023-08-25T18:00	27172	19	-48.2	-82.0	14	2
2023-08-25T18:00	27190	19	-48.2	-82.0	10	2
2023-08-25T18:00	27220	19	-47.9	-82.6	12	3
2023-08-25T18:00	27244	19	-47.7	-82.4	17	3
2023-08-25T18:00	27265	19	-47.6	-82.4	27	3
2023-08-25T18:00	27292	19	-47.5	-82.3	43	2
2023-08-25T18:00	27332	19	-47.3	-82.2	66	2
2023-08-25T18:00	27344	19	-47.2	-82.1	89	2
2023-08-25T18:00	27376	18	-47.0	-81.9	107	3
2023-08-25T18:00	27411	18	-46.7	-81.7	119	3
2023-08-25T18:00	27433	18	-46.4	-81.5	127	3
2023-08-25T18:00	27460	18	-46.2	-81.4	133	4
2023-08-25T18:00	27477	18	-46.2	-81.4	137	4
2023-08-25T18:00	27523	18	-46.2	-81.4	140	4
2023-08-25T18:00	27539	18	-46.0	-82.1	141	4
2023-08-25T18:00	27578	18	-45.7	-81.9	140	4
2023-08-25T18:00	27590	18	-45.6	-81.9	140	4
2023-08-25T18:00	27614	18	-45.6	-80.9	139	4
2023-08-25T18:00	27655	18	-45.7	-81.0	138	3
2023-08-25T18:00	27676	18	-45.8	-81.1	141	3
2023-08-25T18:00	27699	18	-46.0	-81.2	147	2
2023-08-25T18:00	27734	18	-45.9	-81.2	157	2
2023-08-25T18:00	27754	17	-45.6	-80.9	170	2
2023-08-25T18:00	27778	17	-45.6	-80.9	185	2
2023-08-25T18:00	27808	17	-45.4	-80.8	198	2
2023-08-25T18:00	27849	17	-45.5	-80.9	212	2
2023-08-25T18:00	27859	17	-45.5	-80.9	226	2
2023-08-25T18:00	27892	17	-45.7	-81.0	241	2
2023-08-25T18:00	27910	17	-45.6	-81.9	255	2
2023-08-25T18:00	27946	17	-45.4	-81.7	267	2
2023-08-25T18:00	27968	17	-45.3	-81.6	276	2
2023-08-25T18:00	28006	17	-45.4	-81.7	282	3
2023-08-25T18:00	28024	17	-45.3	-81.6	287	3
2023-08-25T18:00	28046	17	-45.3	-81.6	291	3
2023-08-25T18:00	28086	17	-45.3	-81.6	296	3
2023-08-25T18:00	28109	17	-45.2	-81.6	301	2
2023-08-25T18:00	28137	17	-45.3	-81.6	309	2
2023-08-25T18:00	28161	16	-45.2	-81.6	323	2
2023-08-25T18:00	28189	16	-45.3	-81.6	345	1
2023-08-25T18:00	28217	16	-45.4	-81.7	17	1
2023-08-25T18:00	28238	16	-45.4	-81.7	44	1
2023-08-25T18:00	28266	16	-45.3	-81.6	59	2
2023-08-25T18:00	28297	16	-45.2	-81.6	68	2
2023-08-25T18:00	28327	16	-45.3	-81.6	73	2
2023-08-25T18:00	28352	16	-45.3	-81.6	76	3
2023-08-25T18:00	28376	16	-45.4	-81.7	77	3
2023-08-25T18:00	28400	16	-45.2	-81.6	78	3
2023-08-25T18:00	28438	16	-45.1	-81.5	78	2
2023-08-25T18:00	28469	16	-45.1	-81.5	80	2
2023-08-25T18:00	28490	16	-45.1	-81.5	90	1
2023-08-25T18:00	28515	16	-44.8	-81.3	126	1
2023-08-25T18:00	28554	16	-44.7	-81.2	191	1
2023-08-25T18:00	28582	15	-44.5	-81.1	214	2
2023-08-25T18:00	28610	15	-44.1	-80.8	221	3
2023-08-25T18:00	28637	15	-43.7	-80.5	225	4
2023-08-25T18:00	28667	15	-43.7	-80.5	226	5
2023-08-25T18:00	28683	15	-43.8	-80.6	227	5
2023-08-25T18:00	28727	15	-43.9	-80.7	228	6
2023-08-25T18:00	28749	15	-44.1	-80.8	229	6
2023-08-25T18:00	28776	15	-44.3	-80.9	232	6
2023-08-25T18:00	28800	15	-44.2	-80.9	237	6
2023-08-25T18:00	28837	15	-44.1	-80.8	244	5
2023-08-25T18:00	28872	15	-44.1	-80.8	251	5
2023-08-25T18:00	28894	15	-44.2	-80.9	260	5
2023-08-25T18:00	28933	15	-43.9	-80.7	268	4
2023-08-25T18:00	28950	15	-43.7	-80.5	274	4
2023-08-25T18:00	28978	15	-43.5	-80.4	280	4
2023-08-25T18:00	29010	15	-43.4	-81.4	286	3
2023-08-25T18:00	29027	14	-43.3	-81.3	294	2
2023-08-25T18:00	29059	14	-43.2	-81.3	310	2
2023-08-25T18:00	29087	14	-43.2	-81.3	338	2
2023-08-25T18:00	29122	14	-43.2	-81.3	9	2
2023-08-25T18:00	29139	14	-43.2	-81.3	25	2
2023-08-25T18:00	29172	14	-43.1	-81.2	32	2
2023-08-25T18:00	29193	14	-43.0	-81.1	34	2
2023-08-25T18:00	29224	14	-42.8	-81.0	34	2
2023-08-25T18:00	29249	14	-42.7	-80.9	32	2
2023-08-25T18:00	29285	14	-42.7	-80.9	30	2
2023-08-25T18:00	29305	14	-42.7	-80.9	24	1
2023-08-25T18:00	29332	14	-42.8	-81.0	11	1
2023-08-25T18:00	29357	14	-42.7	-80.9	304	0
2023-08-25T18:00	29388	14	-42.5	-80.8	239	1
2023-08-25T18:00	29414	14	-42.4	-80.7	226	1
2023-08-25T18:00	29436	14	-42.3	-80.6	219	1
2023-08-25T18:00	29470	14	-42.4	-80.7	209	1
2023-08-25T18:00	29493	14	-42.4	-80.7	192	1
2023-08-25T18:00	29516	13	-42.3	-80.6	162	1
2023-08-25T18:00	29539	13	-42.2	-80.6	129	1
2023-08-25T18:00	29560	13	-42.2	-80.6	109	1
2023-08-25T18:00	29594	13	-42.1	-80.5	96	2
2023-08-25T18:00	29623	13	-42.1	-80.5	88	2
2023-08-25T18:00	29654	13	-42.2	-80.6	83	2
2023-08-25T18:00	29677	13	-42.2	-80.6	81	3
2023-08-25T18:00	29692	13	-42.1	-80.5	82	3
2023-08-25T18:00	29736	13	-42.1	-80.5	85	4
2023-08-25T18:00	29749	13	-42.1	-80.5	89	4
2023-08-25T18:00	29792	13	-42.0	-80.4	91	5
2023-08-25T18:00	29808	13	-42.0	-80.4	92	5
2023-08-25T18:00	29852	13	-42.1	-80.5	92	5
2023-08-25T18:00	29863	13	-42.2	-80.6	92	6
2023-08-25T18:00	29884	13	-42.1	-80.5	92	6
2023-08-25T18:00	29929	13	-41.9	-80.4	93	6
2023-08-25T18:00	29943	13	-41.6	-80.1	95	5
2023-08-25T18:00	29964	13	-41.6	-80.1	96	5
2023-08-25T18:00	29996	13	-41.6	-80.1	97	5
2023-08-25T18:00	30017	12	-41.6	-80.1	98	4
2023-08-25T18:00	30054	12	-41.6	-80.1	98	4
2023-08-25T18:00	30090	12	-41.5	-80.1	99	4
2023-08-25T18:00	30098	12	-41.6	-80.1	99	4
2023-08-25T18:00	30128	12	-41.6	-80.1	100	5
2023-08-25T18:00	30156	12	-41.6	-80.1	100	5
2023-08-25T18:00	30186	12	-41.6	-80.1	99	6
2023-08-25T18:00	30221	12	-41.6	-80.1	99	6
2023-08-25T18:00	30235	12	-41.4	-80.0	100	6
2023-08-25T18:00	30280	12	-41.4	-80.0	102	6
2023-08-25T18:00	30298	12	-41.4	-80.0	106	6
2023-08-25T18:00	30320	12	-41.3	-79.9	111	6
2023-08-25T18:00	30349	12	-41.2	-79.9	118	5
2023-08-25T18:00	30372	12	-41.2	-79.9	124	5
2023-08-25T18:00	30401	12	-41.2	-79.9	130	5
2023-08-25T18:00	30442	12	-41.3	-79.9	135	4
2023-08-25T18:00	30447	12	-41.2	-79.9	141	3
2023-08-25T18:00	30492	12	-41.2	-79.9	152	2
2023-08-25T18:00	30530	12	-41.1	-79.8	170	2
2023-08-25T18:00	30540	12	-40.8	-79.6	191	1
2023-08-25T18:00	30581	12	-40.5	-79.4	197	1
2023-08-25T18:00	30607	11	-40.4	-79.3	182	1
2023-08-25T18:00	30638	11	-40.3	-79.2	147	1
2023-08-25T18:00	30667	11	-40.3	-79.2	118	2
2023-08-25T18:00	30680	11	-40.3	-79.2	104	2
2023-08-25T18:00	30733	11	-40.3	-79.2	97	3
2023-08-25T18:00	30755	11	-40.3	-79.2	95	4
2023-08-25T18:00	30780	11	-40.2	-79.2	97	5
2023-08-25T18:00	30789	11	-40.2	-79.2	100	5
2023-08-25T18:00	30825	11	-40.1	-79.1	105	6
2023-08-25T18:00	30857	11	-40.1	-79.1	110	7
2023-08-25T18:00	30895	11	-40.2	-79.2	114	8
2023-08-25T18:00	30911	11	-40.3	-79.2	116	8
2023-08-25T18:00	30937	11	-40.4	-79.3	118	9
2023-08-25T18:00	30963	11	-40.4	-79.3	119	9
2023-08-25T18:00	30996	11	-40.7	-79.5	119	9
2023-08-25T18:00	31024	11	-40.8	-79.6	120	9
2023-08-25T18:00	31059	11	-40.7	-79.5	122	9
2023-08-25T18:00	31084	11	-40.8	-79.6	125	8
2023-08-25T18:00	31108	11	-40.9	-79.7	130	7
2023-08-25T18:00	31130	11	-40.9	-79.7	137	7
2023-08-25T18:00	31178	11	-40.8	-79.6	143	6
2023-08-25T18:00	31213	10	-40.5	-79.4	154	5
2023-08-25T18:00	31254	10	-40.7	-79.5	158	5
2023-08-25T18:00	31265	10	-40.8	-79.6	162	4
2023-08-25T18:00	31293	10	-40.7	-79.5	167	3
2023-08-25T18:00	31324	10	-40.5	-79.4	172	2
2023-08-25T18:00	31349	10	-40.4	-79.3	176	2
2023-08-25T18:00	31393	10	-40.2	-79.2	176	1
2023-08-25T18:00	31412	10	-40.0	-79.0	137	0
2023-08-25T18:00	31454	10	-40.0	-79.0	64	1
2023-08-25T18:00	31484	10	-39.8	-78.9	49	1
2023-08-25T18:00	31492	10	-39.6	-78.8	38	1
2023-08-25T18:00	31523	10	-39.2	-78.5	25	1
2023-08-25T18:00	31536	10	-38.9	-78.3	12	1
2023-08-25T18:00	31592	10	-38.9	-78.3	5	2
2023-08-25T18:00	31603	10	-38.8	-78.2	6	2
2023-08-25T18:00	31622	10	-38.4	-77.9	18	2
2023-08-25T18:00	31656	10	-38.3	-77.9	39	2
2023-08-25T18:00	31684	10	-38.3	-77.9	65	2
2023-08-25T18:00	31710	10	-38.2	-77.8	86	3
2023-08-25T18:00	31747	10	-38.1	-77.7	101	3
2023-08-25T18:00	31764	10	-38.1	-77.7	109	4
2023-08-25T18:00	31790	10	-38.0	-77.6	115	5
2023-08-25T18:00	31837	10	-38.1	-77.7	120	6
2023-08-25T18:00	31885	10	-38.0	-77.6	128	7
2023-08-25T18:00	31913	9	-37.9	-77.6	132	8
2023-08-25T18:00	31949	9	-37.9	-77.6	136	8
2023-08-25T18:00	31986	9	-37.8	-77.5	140	8
2023-08-25T18:00	32004	9	-37.7	-77.4	143	8
2023-08-25T18:00	32036	9	-37.6	-77.4	147	8
2023-08-25T18:00	32059	9	-37.5	-77.3	150	9
2023-08-25T18:00	32089	9	-37.4	-77.2	153	9
2023-08-25T18:00	32119	9	-37.2	-77.1	156	9
2023-08-25T18:00	32163	9	-37.3	-77.2	160	9
2023-08-25T18:00	32172	9	-37.4	-77.2	163	9
2023-08-25T18:00	32218	9	-37.4	-77.2	167	8
2023-08-25T18:00	32240	9	-37.5	-77.3	171	8
2023-08-25T18:00	32281	9	-37.5	-77.3	175	8
2023-08-25T18:00	32328	9	-37.4	-77.2	178	7
2023-08-25T18:00	32355	9	-37.5	-77.3	180	6
2023-08-25T18:00	32380	9	-37.5	-77.3	181	6
2023-08-25T18:00	32407	9	-37.4	-77.2	181	5
2023-08-25T18:00	32429	9	-37.6	-77.4	179	4
2023-08-25T18:00	32474	9	-37.6	-77.4	177	3
2023-08-25T18:00	32528	9	-37.7	-77.4	172	3
2023-08-25T18:00	32544	9	-37.7	-77.4	163	2
2023-08-25T18:00	32579	9	-37.8	-77.5	147	2
2023-08-25T18:00	32603	9	-37.8	-77.5	129	2
2023-08-25T18:00	32645	9	-37.7	-77.4	118	2
2023-08-25T18:00	32670	8	-37.5	-77.3	116	3
2023-08-25T18:00	32713	8	-37.5	-77.3	116	3
2023-08-25T18:00	32736	8	-37.4	-77.2	116	4
2023-08-25T18:00	32779	8	-37.3	-77.2	114	4
2023-08-25T18:00	32805	8	-37.1	-77.0	110	4
2023-08-25T18:00	32840	8	-37.0	-77.0	104	4
2023-08-25T18:00	32881	8	-36.8	-76.8	96	4
2023-08-25T18:00	32889	8	-36.3	-76.5	87	4
2023-08-25T18:00	32945	8	-35.8	-76.1	78	4
2023-08-25T18:00	32985	8	-35.3	-75.8	71	4
2023-08-25T18:00	32990	8	-35.2	-75.7	65	4
2023-08-25T18:00	33035	8	-35.2	-75.7	60	5
2023-08-25T18:00	33049	8	-35.0	-75.6	57	5
2023-08-25T18:00	33069	8	-34.7	-75.4	56	5
2023-08-25T18:00	33112	8	-34.7	-75.4	57	6
2023-08-25T18:00	33131	8	-34.8	-75.4	58	6
2023-08-25T18:00	33161	8	-34.9	-75.5	60	6
2023-08-25T18:00	33183	8	-35.0	-75.6	64	6
2023-08-25T18:00	33215	8	-35.2	-75.7	68	6
2023-08-25T18:00	33239	8	-35.2	-75.7	73	6
2023-08-25T18:00	33288	8	-35.0	-75.6	87	6
2023-08-25T18:00	33312	8	-35.0	-75.6	95	6
2023-08-25T18:00	33337	8	-35.2	-75.7	103	6
2023-08-25T18:00	33365	8	-35.3	-75.8	111	6
2023-08-25T18:00	33389	8	-35.5	-75.9	118	6
2023-08-25T18:00	33411	8	-35.3	-75.8	123	6
2023-08-25T18:00	33455	8	-35.2	-75.7	126	6
2023-08-25T18:00	33481	8	-34.8	-75.4	127	4
2023-08-25T18:00	33533	8	-34.6	-75.3	125	4
2023-08-25T18:00	33547	8	-34.2	-75.0	120	3
2023-08-25T18:00	33592	7	-34.1	-75.0	112	3
2023-08-25T18:00	33595	7	-34.1	-75.0	104	3
2023-08-25T18:00	33624	7	-34.2	-75.0	97	3
2023-08-25T18:00	33625	7	-34.2	-75.0	93	4
2023-08-25T18:00	33640	7	-34.2	-75.0	92	5
2023-08-25T18:00	33662	7	-34.2	-75.0	91	5
2023-08-25T18:00	33717	7	-34.4	-75.2	91	6
2023-08-25T18:00	33742	7	-34.4	-75.2	92	7
2023-08-25T18:00	33774	7	-34.5	-75.2	94	7
2023-08-25T18:00	33785	7	-34.3	-75.1	97	8
2023-08-25T18:00	33814	7	-34.3	-75.1	102	8
2023-08-25T18:00	33856	7	-34.1	-75.0	108	8
2023-08-25T18:00	33890	7	-33.9	-74.8	114	8
2023-08-25T18:00	33908	7	-33.7	-74.7	122	7
2023-08-25T18:00	33950	7	-33.6	-74.6	121	8
2023-08-25T18:00	34015	7	-33.5	-74.5	119	8
2023-08-25T18:00	34060	7	-33.5	-74.5	111	8
2023-08-25T18:00	34095	7	-33.3	-74.4	109	8
2023-08-25T18:00	34112	7	-33.0	-74.2	109	9
2023-08-25T18:00	34130	7	-32.8	-74.1	110	10
2023-08-25T18:00	34139	7	-32.8	-74.1	113	10
2023-08-25T18:00	34215	7	-32.9	-74.1	116	11
2023-08-25T18:00	34242	7	-33.0	-74.2	120	11
2023-08-25T18:00	34268	7	-33.0	-74.2	124	11
2023-08-25T18:00	34299	7	-33.1	-74.3	129	12
2023-08-25T18:00	34321	7	-33.1	-74.3	134	12
2023-08-25T18:00	34338	7	-33.2	-74.3	138	12
2023-08-25T18:00	34382	7	-33.3	-74.4	142	12
2023-08-25T18:00	34425	7	-33.2	-74.3	146	12
2023-08-25T18:00	34478	7	-33.4	-74.5	151	12
2023-08-25T18:00	34499	7	-33.6	-74.6	153	12
2023-08-25T18:00	34527	7	-34.0	-74.9	159	13
2023-08-25T18:00	34566	6	-34.2	-75.0	163	13
2023-08-25T18:00	34599	6	-34.2	-75.0	167	13
2023-08-25T18:00	34631	6	-34.2	-75.0	171	13
2023-08-25T18:00	34661	6	-34.2	-75.0	175	12
2023-08-25T18:00	34674	6	-34.2	-75.0	179	12
2023-08-25T18:00	34720	6	-34.1	-75.0	183	12
2023-08-25T18:00	34725	6	-33.9	-74.8	187	11
2023-08-25T18:00	34743	6	-33.4	-74.5	191	10
2023-08-25T18:00	34752	6	-33.2	-74.3	194	9
2023-08-25T18:00	34819	6	-33.3	-74.4	197	8
2023-08-25T18:00	34825	6	-33.2	-74.3	200	7
2023-08-25T18:00	34898	6	-32.9	-74.1	207	4
2023-08-25T18:00	34910	6	-32.5	-73.8	211	3
2023-08-25T18:00	34947	6	-32.4	-73.8	208	2
2023-08-25T18:00	34963	6	-32.3	-73.7	200	2
2023-08-25T18:00	35016	6	-32.1	-73.6	178	2
2023-08-25T18:00	35021	6	-32.2	-73.6	171	2
2023-08-25T18:00	35037	6	-32.2	-73.6	168	2
2023-08-25T18:00	35053	6	-32.2	-73.6	166	3
2023-08-25T18:00	35082	6	-32.2	-73.6	167	3
2023-08-25T18:00	35124	6	-32.3	-73.7	168	4
2023-08-25T18:00	35185	6	-32.3	-73.7	170	4
2023-08-25T18:00	35186	6	-32.3	-73.7	173	4
2023-08-25T18:00	35218	6	-32.3	-73.7	176	4
2023-08-25T18:00	35227	6	-32.2	-73.6	179	4
2023-08-25T18:00	35286	6	-32.0	-73.5	182	4
2023-08-25T18:00	35323	6	-31.8	-73.4	188	4
2023-08-25T18:00	35377	6	-31.8	-73.4	191	4
2023-08-25T18:00	35382	6	-31.6	-73.2	197	4
2023-08-25T18:00	35427	6	-31.6	-73.2	202	4
2023-08-25T18:00	35441	6	-31.7	-73.3	208	4
2023-08-25T18:00	35457	6	-31.9	-73.4	214	3
2023-08-25T18:00	35481	6	-32.0	-73.5	222	3
2023-08-25T18:00	35501	6	-32.1	-73.6	230	2
2023-08-25T18:00	35542	6	-31.9	-73.4	243	2
2023-08-25T18:00	35578	6	-31.7	-73.3	261	1
2023-08-25T18:00	35622	6	-31.4	-73.1	301	1
2023-08-25T18:00	35668	6	-31.3	-73.0	66	1
2023-08-25T18:00	35689	6	-31.3	-73.0	97	1
2023-08-25T18:00	35714	6	-31.3	-73.0	117	1
2023-08-25T18:00	35748	6	-31.5	-73.2	132	2
2023-08-25T18:00	35754	5	-31.5	-73.2	142	2
2023-08-25T18:00	35768	5	-31.6	-73.2	151	3
2023-08-25T18:00	35810	5	-31.6	-73.2	158	3
2023-08-26T00:00	112	996	17.8	16.5	210	2
2023-08-26T00:00	134	993	18.1		203	4
2023-08-26T00:00	156	991	18.1	16.0	203	6
2023-08-26T00:00	180	988	18.2	15.7	205	7
2023-08-26T00:00	208	985	19.5	13.9	210	8
2023-08-26T00:00	234	982	20.9	13.1	214	9
2023-08-26T00:00	262	978	21.7	13.4	219	9
2023-08-26T00:00	296	975	22.1	13.3	223	10
2023-08-26T00:00	315	973	22.1	13.2	225	10
2023-08-26T00:00	342	970	22.0	13.2	226	11
2023-08-26T00:00	368	967	22.0	12.8	226	11
2023-08-26T00:00	393	964	22.0	12.8	225	11
2023-08-26T00:00	420	961	22.0	12.6	225	12
2023-08-26T00:00	446	958	21.9	12.8	226	13
2023-08-26T00:00	476	955	21.9	13.9	227	14
2023-08-26T00:00	503	952	21.7	14.5	228	15
2023-08-26T00:00	531	949	21.6	15.2	229	15
2023-08-26T00:00	555	946	21.4	15.4	231	15
2023-08-26T00:00	581	944	21.1	15.2	232	16
2023-08-26T00:00	602	941	20.9	15.3	233	16
2023-08-26T00:00	627	938	20.7	15.4	234	16
2023-08-26T00:00	650	936	20.5	15.4	236	16
2023-08-26T00:00	674	933	20.3	15.4	238	16
2023-08-26T00:00	700	931	20.2	15.6	240	16
2023-08-26T00:00	725	928	19.9	15.6	242	16
2023-08-26T00:00	759	924	19.7	15.6	243	16
2023-08-26T00:00	781	922	19.5	15.7	244	16
2023-08-26T00:00	808	919	19.2	15.6	244	16
2023-08-26T00:00	835	916	19.0	15.7	244	16
2023-08-26T00:00	859	913	18.8	15.6	243	16
2023-08-26T00:00	884	911	18.5	15.5	243	15
2023-08-26T00:00	912	908	18.3	15.4	243	15
2023-08-26T00:00	933	906	18.1	15.5	243	15
2023-08-26T00:00	958	903	17.9	15.4	243	15
2023-08-26T00:00	984	900	17.6	15.3	243	15
2023-08-26T00:00	1014	897	17.3	15.1	243	15
2023-08-26T00:00	1048	894	17.0	15.3	243	15
2023-08-26T00:00	1078	891	16.7	15.1	244	15
2023-08-26T00:00	1107	888	16.4	15.1	245	15
2023-08-26T00:00	1127	885	16.2	15.1	247	15
2023-08-26T00:00	1151	883	16.0	15.0	249	15
2023-08-26T00:00	1175	881	15.8	15.0	250	15
2023-08-26T00:00	1198	878	15.6	14.9	251	15
2023-08-26T00:00	1215	876	15.4	14.8	250	15
2023-08-26T00:00	1237	874	15.2	14.6	249	15
2023-08-26T00:00	1259	872	15.0	14.3	248	15
2023-08-26T00:00	1282	869	14.9	14.3	247	15
2023-08-26T00:00	1304	867	14.7	13.9	247	14
2023-08-26T00:00	1332	865	14.6	13.4	247	14
2023-08-26T00:00	1358	862	14.4	13.3	248	13
2023-08-26T00:00	1383	859	14.2	13.2	249	13
2023-08-26T00:00	1403	857	14.0	13.6	250	12
2023-08-26T00:00	1433	854	13.6	13.5	252	12
2023-08-26T00:00	1458	852	13.5	13.1	253	12
2023-08-26T00:00	1484	849	13.3	13.3	254	12
2023-08-26T00:00	1509	846	13.2	12.9	255	12
2023-08-26T00:00	1535	844	13.0	13.0	255	12
2023-08-26T00:00	1566	841	13.0	13.0	254	12
2023-08-26T00:00	1596	838	12.8	12.8	252	13
2023-08-26T00:00	1621	835	12.4	12.4	250	13
2023-08-26T00:00	1642	833	12.2	12.2	248	13
2023-08-26T00:00	1668	831	11.9	11.3	247	13
2023-08-26T00:00	1685	829	12.6	9.4	245	14
2023-08-26T00:00	1705	827	13.3	8.8	244	14
2023-08-26T00:00	1727	825	14.0	8.7	244	14
2023-08-26T00:00	1753	822	14.4	8.4	243	13
2023-08-26T00:00	1775	820	14.2	8.2	242	13
2023-08-26T00:00	1800	818	14.0	8.2	241	13
2023-08-26T00:00	1823	815	13.8	8.2	241	13
2023-08-26T00:00	1847	813	13.6	8.2	241	13
2023-08-26T00:00	1867	811	13.4	8.1	241	13
2023-08-26T00:00	1885	809	13.2	8.3	242	13
2023-08-26T00:00	1915	807	12.9	8.4	243	13
2023-08-26T00:00	1941	804	12.8	8.3	243	13
2023-08-26T00:00	1972	801	12.7	8.1	243	13
2023-08-26T00:00	1994	799	12.5	8.1	243	12
2023-08-26T00:00	2019	797	12.4	7.9	243	12
2023-08-26T00:00	2049	794	12.3	7.4	243	11
2023-08-26T00:00	2075	792	12.2	7.3	243	11
2023-08-26T00:00	2100	789	12.0	7.0	244	10
2023-08-26T00:00	2123	787	11.8	6.8	245	10
2023-08-26T00:00	2146	785	11.7	6.5	245	10
2023-08-26T00:00	2171	782	11.7	6.3	245	9
2023-08-26T00:00	2195	780	11.5	6.1	245	9
2023-08-26T00:00	2215	778	11.4	6.1	244	9
2023-08-26T00:00	2239	776	11.2	5.8	243	9
2023-08-26T00:00	2269	773	11.1	5.3	242	10
2023-08-26T00:00	2300	771	10.9	5.2	242	10
2023-08-26T00:00	2326	768	10.8	5.0	242	11
2023-08-26T00:00	2356	765	10.5	4.6	242	11
2023-08-26T00:00	2379	763	10.4	4.6	242	11
2023-08-26T00:00	2398	761	10.2	4.4	242	11
2023-08-26T00:00	2428	759	10.0	4.2	242	11
2023-08-26T00:00	2453	757	9.8	3.8	242	11
2023-08-26T00:00	2474	754	9.7	3.7	243	11
2023-08-26T00:00	2502	752	9.5	3.5	245	11
2023-08-26T00:00	2528	750	9.3	3.4	248	11
2023-08-26T00:00	2550	748	9.1	3.2	250	12
2023-08-26T00:00	2574	745	8.9	3.2	252	12
2023-08-26T00:00	2605	743	8.6	2.8	253	12
2023-08-26T00:00	2629	741	8.4	2.4	252	12
2023-08-26T00:00	2651	739	8.2	2.7	251	12
2023-08-26T00:00	2672	737	8.0	2.8	250	12
2023-08-26T00:00	2695	735	7.8	2.7	251	13
2023-08-26T00:00	2717	733	7.6	2.7	252	13
2023-08-26T00:00	2745	730	7.4	2.7	252	14
2023-08-26T00:00	2773	728	7.1	2.7	252	14
2023-08-26T00:00	2793	726	6.9	2.6	251	15
2023-08-26T00:00	2821	724	6.7	2.6	250	15
2023-08-26T00:00	2845	721	6.6	2.1	248	15
2023-08-26T00:00	2870	719	6.5	1.7	246	15
2023-08-26T00:00	2900	717	6.3	1.6	244	15
2023-08-26T00:00	2925	715	6.1	1.6	244	15
2023-08-26T00:00	2946	713	6.0	1.5	244	15
2023-08-26T00:00	2967	711	5.9	1.5	245	16
2023-08-26T00:00	2991	709	5.7	1.3	246	16
2023-08-26T00:00	3020	706	5.5	0.6	247	16
2023-08-26T00:00	3050	704	5.3	0.0	249	15
2023-08-26T00:00	3080	701	5.1	-0.7	250	15
2023-08-26T00:00	3101	699	5.0	-0.1	251	15
2023-08-26T00:00	3122	697	5.1	-0.8	251	14
2023-08-26T00:00	3143	696	5.4	-4.4	252	14
2023-08-26T00:00	3165	694	5.4	-4.6	253	14
2023-08-26T00:00	3189	692	5.3	-4.2	254	14
2023-08-26T00:00	3217	689	5.1	-4.8	254	14
2023-08-26T00:00	3241	687	4.9	-5.0	254	14
2023-08-26T00:00	3274	685	4.7	-6.3	254	14
2023-08-26T00:00	3298	683	4.5	-6.1	253	14
2023-08-26T00:00	3319	681	4.3	-4.2	252	14
2023-08-26T00:00	3344	679	4.0	-2.7	251	14
2023-08-26T00:00	3368	677	3.7	-2.2	251	14
2023-08-26T00:00	3395	675	3.4	-2.1	252	14
2023-08-26T00:00	3419	672	3.2	-2.2	252	14
2023-08-26T00:00	3450	670	3.0	-1.7	252	14
2023-08-26T00:00	3480	667	2.8	-1.5	251	15
2023-08-26T00:00	3508	665	2.7	-2.9	250	15
2023-08-26T00:00	3533	663	2.7	-4.5	250	15
2023-08-26T00:00	3555	661	2.6	-4.2	249	16
2023-08-26T00:00	3585	659	2.4	-6.1	250	16
2023-08-26T00:00	3612	657	2.3	-7.8	250	16
2023-08-26T00:00	3642	654	2.1	-8.7	250	16
2023-08-26T00:00	3667	652	2.0	-10.9	250	17
2023-08-26T00:00	3687	650	2.0	-11.5	249	17
2023-08-26T00:00	3715	648	1.8	-11.0	248	17
2023-08-26T00:00	3745	646	1.6	-8.8	248	17
2023-08-26T00:00	3770	644	1.5	-8.1	249	17
2023-08-26T00:00	3796	642	1.3	-7.5	249	17
2023-08-26T00:00	3815	640	1.1	-7.9	250	17
2023-08-26T00:00	3836	639	1.1	-9.2	250	17
2023-08-26T00:00	3862	637	0.9	-8.9	250	18
2023-08-26T00:00	3889	634	0.7	-8.7	250	19
2023-08-26T00:00	3923	632	0.6	-11.6	250	19
2023-08-26T00:00	3943	630	0.5	-12.4	251	19
2023-08-26T00:00	3961	629	0.4	-13.4	252	19
2023-08-26T00:00	3980	627	0.4	-14.4	253	19
2023-08-26T00:00	3999	626	0.2	-15.2	254	18
2023-08-26T00:00	4019	624	0.1	-16.4	255	18
2023-08-26T00:00	4048	622	0.1	-14.8	255	18
2023-08-26T00:00	4069	620	-0.1	-14.8	255	17
2023-08-26T00:00	4090	619	-0.3	-10.9	254	17
2023-08-26T00:00	4116	617	-0.5	-10.4	253	17
2023-08-26T00:00	4145	615	-0.5	-10.7	252	17
2023-08-26T00:00	4164	613	-0.7	-10.3	251	17
2023-08-26T00:00	4189	611	-0.9	-10.6	252	18
2023-08-26T00:00	4210	609	-1.0	-11.1	252	18
2023-08-26T00:00	4234	608	-0.9		253	19
2023-08-26T00:00	4251	606	-1.0	-13.3	254	19
2023-08-26T00:00	4270	605	-1.1	-14.0	255	20
2023-08-26T00:00	4294	603	-1.2	-12.3	255	20
2023-08-26T00:00	4314	602	-1.4	-12.6	255	20
2023-08-26T00:00	4342	600	-1.6	-13.1	255	19
2023-08-26T00:00	4370	597	-1.8	-14.6	255	19
2023-08-26T00:00	4392	596	-1.9	-15.5	255	19
2023-08-26T00:00	4415	594	-2.2	-15.6	255	18
2023-08-26T00:00	4433	593	-2.3	-15.6	255	18
2023-08-26T00:00	4451	591	-2.5	-16.0	255	18
2023-08-26T00:00	4466	590	-2.6	-16.1	255	18
2023-08-26T00:00	4484	589	-2.7	-16.8	255	18
2023-08-26T00:00	4507	587	-2.9	-17.3	254	18
2023-08-26T00:00	4542	585	-3.2	-17.5	255	18
2023-08-26T00:00	4568	583	-3.4	-17.7	255	18
2023-08-26T00:00	4595	581	-3.7	-18.0	255	18
2023-08-26T00:00	4615	579	-3.9	-17.8	255	18
2023-08-26T00:00	4629	578	-4.0	-17.9	255	18
2023-08-26T00:00	4646	577	-4.1	-17.7	255	18
2023-08-26T00:00	4667	575	-4.4	-14.9	254	18
2023-08-26T00:00	4689	574	-4.6		252	18
2023-08-26T00:00	4710	572	-4.7	-17.1	252	18
2023-08-26T00:00	4735	570	-4.9	-16.1	252	19
2023-08-26T00:00	4759	569	-5.1	-15.4	253	19
2023-08-26T00:00	4790	567	-5.5	-15.1	255	20
2023-08-26T00:00	4809	565	-5.7	-15.0	256	20
2023-08-26T00:00	4831	564	-5.9	-15.3	257	20
2023-08-26T00:00	4847	562	-6.0	-14.7	257	20
2023-08-26T00:00	4865	561	-6.2	-13.7	256	20
2023-08-26T00:00	4889	559	-6.5	-13.7	255	20
2023-08-26T00:00	4913	558	-6.5	-15.1	254	20
2023-08-26T00:00	4941	556	-6.7	-15.3	254	20
2023-08-26T00:00	4957	554	-6.8	-15.0	255	20
2023-08-26T00:00	4976	553	-6.9	-14.7	255	20
2023-08-26T00:00	4994	552	-7.1	-14.5	256	21
2023-08-26T00:00	5021	550	-7.3	-14.9	256	21
2023-08-26T00:00	5048	548	-7.5	-15.3	255	21
2023-08-26T00:00	5076	546	-7.7	-15.2	254	21
2023-08-26T00:00	5102	544	-7.9	-15.6	254	20
2023-08-26T00:00	5127	542	-8.1	-15.8	253	20
2023-08-26T00:00	5151	541	-8.3	-15.7	253	19
2023-08-26T00:00	5172	539	-8.5	-15.7	254	19
2023-08-26T00:00	5191	538	-8.7	-15.7	255	19
2023-08-26T00:00	5212	537	-8.8	-15.6	255	19
2023-08-26T00:00	5233	535	-9.0	-15.3	255	18
2023-08-26T00:00	5262	533	-9.2	-15.2	255	18
2023-08-26T00:00	5288	531	-9.4	-15.2	256	18
2023-08-26T00:00	5307	530	-9.5	-15.0	256	18
2023-08-26T00:00	5330	528	-9.7	-15.0	256	18
2023-08-26T00:00	5359	527	-9.8	-15.2	256	18
2023-08-26T00:00	5386	525	-10.0	-15.4	255	18
2023-08-26T00:00	5417	522	-10.2	-15.5	253	19
2023-08-26T00:00	5453	520	-10.5	-16.0	252	20
2023-08-26T00:00	5477	518	-10.5	-15.6	252	21
2023-08-26T00:00	5506	517	-10.7	-15.0	253	22
2023-08-26T00:00	5524	515	-10.8	-14.8	255	22
2023-08-26T00:00	5545	514	-11.0	-14.4	256	22
2023-08-26T00:00	5565	513	-11.1	-14.4	257	23
2023-08-26T00:00	5593	511	-11.0	-14.0	257	23
2023-08-26T00:00	5615	509	-11.0	-14.0	256	23
2023-08-26T00:00	5634	508	-10.8	-14.2	256	24
2023-08-26T00:00	5657	506	-10.3	-14.2	255	25
2023-08-26T00:00	5684	505	-10.1	-14.1	255	26
2023-08-26T00:00	5709	503	-10.1	-14.1	255	26
2023-08-26T00:00	5729	502	-10.2	-14.1	256	26
2023-08-26T00:00	5751	500	-9.9	-14.2	257	26
2023-08-26T00:00	5781	499	-10.0	-14.4	258	26
2023-08-26T00:00	5803	497	-9.9	-14.8	259	26
2023-08-26T00:00	5823	496	-10.0	-15.0	259	26
2023-08-26T00:00	5842	494	-10.0	-15.1	259	25
2023-08-26T00:00	5866	493	-10.2	-15.3	259	25
2023-08-26T00:00	5900	491	-10.2	-15.5	259	25
2023-08-26T00:00	5927	489	-10.3	-15.9	259	25
2023-08-26T00:00	5949	488	-10.5	-16.1	258	26
2023-08-26T00:00	5968	486	-10.6	-16.1	258	26
2023-08-26T00:00	5990	485	-10.7	-16.3	257	27
2023-08-26T00:00	6012	484	-10.8	-16.7	257	27
2023-08-26T00:00	6043	482	-10.9	-16.9	256	27
2023-08-26T00:00	6070	480	-11.1	-17.0	256	27
2023-08-26T00:00	6102	478	-11.4	-17.1	256	27
2023-08-26T00:00	6125	477	-11.6	-17.1	257	26
2023-08-26T00:00	6155	475	-11.8	-17.1	258	26
2023-08-26T00:00	6179	473	-12.1	-17.3	259	26
2023-08-26T00:00	6212	471	-12.4	-17.3	259	26
2023-08-26T00:00	6237	470	-12.6	-17.3	259	26
2023-08-26T00:00	6262	468	-12.9	-17.4	258	26
2023-08-26T00:00	6294	466	-13.2	-17.5	257	25
2023-08-26T00:00	6319	465	-13.4	-17.6	256	25
2023-08-26T00:00	6339	463	-13.6	-17.5	255	26
2023-08-26T00:00	6370	462	-13.9	-17.7	254	26
2023-08-26T00:00	6399	460	-14.2	-17.7	253	27
2023-08-26T00:00	6426	458	-14.4	-17.8	252	27
2023-08-26T00:00	6455	457	-14.7	-18.0	251	27
2023-08-26T00:00	6476	455	-14.9	-18.0	249	27
2023-08-26T00:00	6506	453	-15.1	-18.2	248	27
2023-08-26T00:00	6535	452	-15.2	-18.3	248	27
2023-08-26T00:00	6557	450	-15.4	-18.5	248	27
2023-08-26T00:00	6578	449	-15.1	-19.4	248	27
2023-08-26T00:00	6598	448	-15.1	-20.0	248	26
2023-08-26T00:00	6617	447	-15.2	-20.4	248	26
2023-08-26T00:00	6638	446	-15.4	-20.4	248	27
2023-08-26T00:00	6656	444	-15.6	-20.5	248	27
2023-08-26T00:00	6678	443	-15.7	-20.7	248	27
2023-08-26T00:00	6698	442	-15.9	-20.8	248	27
2023-08-26T00:00	6719	441	-16.1	-20.8	248	28
2023-08-26T00:00	6743	439	-16.4	-21.0	248	28
2023-08-26T00:00	6775	438	-16.6		247	28
2023-08-26T00:00	6803	436	-16.8	-21.1	247	28
2023-08-26T00:00	6830	434	-17.1	-21.3	247	27
2023-08-26T00:00	6852	433	-17.3	-21.4	247	27
2023-08-26T00:00	6877	431	-17.5	-21.4	247	27
2023-08-26T00:00	6911	430	-17.8	-21.6	247	27
2023-08-26T00:00	6938	428	-18.1	-21.8	247	27
2023-08-26T00:00	6965	427	-18.3	-21.8	247	27
2023-08-26T00:00	6993	425	-18.5	-22.0	247	27
2023-08-26T00:00	7025	423	-18.8	-22.1	247	27
2023-08-26T00:00	7052	422	-19.0	-22.5	246	27
2023-08-26T00:00	7084	420	-19.2	-22.9	246	27
2023-08-26T00:00	7115	418	-19.4	-23.5	245	27
2023-08-26T00:00	7142	416	-19.4	-23.9	245	27
2023-08-26T00:00	7172	415	-19.6	-24.3	245	27
2023-08-26T00:00	7202	413	-19.7	-24.7	245	27
2023-08-26T00:00	7232	412	-20.0	-24.8	246	27
2023-08-26T00:00	7258	410	-20.2	-24.9	247	27
2023-08-26T00:00	7283	409	-20.4	-24.7	247	26
2023-08-26T00:00	7311	407	-20.7	-25.0	246	26
2023-08-26T00:00	7336	406	-21.0	-25.3	245	26
2023-08-26T00:00	7354	405	-21.1	-25.2	244	25
2023-08-26T00:00	7373	404	-21.3	-25.4	243	25
2023-08-26T00:00	7393	403	-21.5	-25.6	242	25
2023-08-26T00:00	7412	402	-21.6	-25.7	242	25
2023-08-26T00:00	7430	401	-21.8	-25.9	242	25
2023-08-26T00:00	7449	400	-21.9	-26.2	241	25
2023-08-26T00:00	7475	398	-22.1	-26.5	241	25
2023-08-26T00:00	7503	397	-22.3	-26.9	242	25
2023-08-26T00:00	7531	395	-22.4	-27.2	242	25
2023-08-26T00:00	7565	393	-22.6	-27.7	242	26
2023-08-26T00:00	7594	392	-22.8	-28.1	241	26
2023-08-26T00:00	7625	390	-23.0	-28.4	240	26
2023-08-26T00:00	7654	389	-23.1	-28.9	239	27
2023-08-26T00:00	7685	387	-23.3	-29.0	239	27
2023-08-26T00:00	7715	385	-23.5	-30.2	238	27
2023-08-26T00:00	7739	384	-23.6	-31.3	237	27
2023-08-26T00:00	7768	383	-23.8	-32.9	237	27
2023-08-26T00:00	7796	381	-24.0	-34.7	236	27
2023-08-26T00:00	7823	380	-24.2	-34.7	236	27
2023-08-26T00:00	7854	378	-24.5	-34.8	236	26
2023-08-26T00:00	7884	377	-24.8	-34.9	236	26
2023-08-26T00:00	7912	375	-25.0	-35.2	236	26
2023-08-26T00:00	7940	374	-25.3	-34.8	236	27
2023-08-26T00:00	7968	372	-25.6	-35.3	236	27
2023-08-26T00:00	7994	371	-25.8	-35.6	236	27
2023-08-26T00:00	8018	370	-26.0	-35.7	236	27
2023-08-26T00:00	8044	368	-26.3	-35.9	237	27
2023-08-26T00:00	8071	367	-26.5	-35.5	237	27
2023-08-26T00:00	8099	365	-26.7	-35.9	238	27
2023-08-26T00:00	8131	364	-27.0	-35.9	238	27
2023-08-26T00:00	8158	363	-27.3	-36.0	238	28
2023-08-26T00:00	8185	361	-27.6	-36.1	239	28
2023-08-26T00:00	8213	360	-27.8	-36.0	239	28
2023-08-26T00:00	8242	358	-28.1	-36.2	239	28
2023-08-26T00:00	8266	357	-28.3	-36.4	239	28
2023-08-26T00:00	8289	356	-28.5	-36.6	238	28
2023-08-26T00:00	8313	355	-28.7	-36.7	238	28
2023-08-26T00:00	8338	354	-28.9	-37.3	238	28
2023-08-26T00:00	8361	352	-29.1	-37.9	238	28
2023-08-26T00:00	8386	351	-29.3	-38.0	238	29
2023-08-26T00:00	8408	350	-29.5	-37.6	238	28
2023-08-26T00:00	8430	349	-29.6	-36.9	238	28
2023-08-26T00:00	8450	348	-29.8	-36.4	238	28
2023-08-26T00:00	8471	347	-30.0	-35.7	238	28
2023-08-26T00:00	8490	346	-30.2	-35.0	239	28
2023-08-26T00:00	8509	345	-30.3	-35.3	239	28
2023-08-26T00:00	8527	344	-30.5	-35.6	239	28
2023-08-26T00:00	8546	343	-30.6	-36.4	239	28
2023-08-26T00:00	8565	342	-30.7	-36.6	239	28
2023-08-26T00:00	8583	342	-30.8	-36.5	239	29
2023-08-26T00:00	8601	341	-30.9	-37.3	240	29
2023-08-26T00:00	8619	340	-31.0	-38.1	240	29
2023-08-26T00:00	8637	339	-31.1	-39.4	241	29
2023-08-26T00:00	8656	338	-31.2	-40.1	241	29
2023-08-26T00:00	8672	337	-31.3	-38.8	242	29
2023-08-26T00:00	8690	337	-31.4	-38.1	242	29
2023-08-26T00:00	8707	336	-31.6	-38.3	242	29
2023-08-26T00:00	8727	335	-31.7	-39.0	242	29
2023-08-26T00:00	8744	334	-31.8	-39.5	242	29
2023-08-26T00:00	8762	333	-31.9	-39.3	241	29
2023-08-26T00:00	8781	332	-32.1	-39.4	241	29
2023-08-26T00:00	8802	331	-32.3	-40.4	242	30
2023-08-26T00:00	8825	330	-32.4	-41.8	242	30
2023-08-26T00:00	8850	329	-32.6	-41.1	242	30
2023-08-26T00:00	8872	328	-32.8	-41.1	243	30
2023-08-26T00:00	8896	327	-33.0	-41.2	243	30
2023-08-26T00:00	8924	326	-33.2	-41.2	242	30
2023-08-26T00:00	8945	325	-33.4	-41.9	242	30
2023-08-26T00:00	8967	324	-33.6	-42.5	242	30
2023-08-26T00:00	8989	323	-33.8	-42.6	242	30
2023-08-26T00:00	9009	322	-34.0	-42.7	242	30
2023-08-26T00:00	9029	321	-34.2	-43.0	241	30
2023-08-26T00:00	9048	320	-34.4	-43.3	241	30
2023-08-26T00:00	9064	319	-34.5	-43.5	241	31
2023-08-26T00:00	9083	318	-34.6	-43.6	240	30
2023-08-26T00:00	9099	318	-34.8	-43.7	240	30
2023-08-26T00:00	9115	317	-34.9	-43.6	240	30
2023-08-26T00:00	9131	316	-35.1	-43.7	240	30
2023-08-26T00:00	9148	315	-35.3	-43.7	240	30
2023-08-26T00:00	9162	315	-35.4	-43.8	240	30
2023-08-26T00:00	9180	314	-35.6	-43.9	240	30
2023-08-26T00:00	9195	313	-35.7	-44.0	241	31
2023-08-26T00:00	9213	312	-35.9	-44.0	241	31
2023-08-26T00:00	9228	312	-36.0	-44.0	241	31
2023-08-26T00:00	9244	311	-36.2	-44.1	241	31
2023-08-26T00:00	9261	310	-36.3	-44.2	240	31
2023-08-26T00:00	9278	309	-36.4		240	31
2023-08-26T00:00	9294	309	-36.5	-45.1	240	31
2023-08-26T00:00	9310	308	-36.6	-45.4	239	31
2023-08-26T00:00	9329	307	-36.7	-45.3	239	30
2023-08-26T00:00	9345	306	-36.9	-45.4	239	30
2023-08-26T00:00	9363	306	-37.1	-45.5	239	30
2023-08-26T00:00	9381	305	-37.2	-45.5	239	30
2023-08-26T00:00	9398	304	-37.4	-45.7	239	30
2023-08-26T00:00	9413	303	-37.5	-45.7	240	30
2023-08-26T00:00	9430	303	-37.7	-45.6	240	30
2023-08-26T00:00	9450	302	-37.8	-45.3	240	30
2023-08-26T00:00	9466	301	-37.9	-45.7	240	30
2023-08-26T00:00	9484	300	-38.1	-46.2	240	30
2023-08-26T00:00	9502	300	-38.2	-45.8	239	30
2023-08-26T00:00	9518	299	-38.4	-45.9	239	30
2023-08-26T00:00	9538	298	-38.6	-46.5	239	30
2023-08-26T00:00	9555	297	-38.6	-47.2	239	30
2023-08-26T00:00	9575	296	-38.8	-47.7	239	30
2023-08-26T00:00	9591	296	-38.9	-47.7	239	30
2023-08-26T00:00	9612	295	-39.1	-47.8	239	30
2023-08-26T00:00	9631	294	-39.2	-48.1	239	30
2023-08-26T00:00	9649	293	-39.4	-48.4	239	30
2023-08-26T00:00	9670	292	-39.6	-48.5	239	30
2023-08-26T00:00	9689	291	-39.7	-48.5	239	31
2023-08-26T00:00	9711	291	-39.9	-48.6	239	31
2023-08-26T00:00	9730	290	-40.1	-48.7	239	31
2023-08-26T00:00	9751	289	-40.2	-49.1	239	31
2023-08-26T00:00	9773	288	-40.3	-49.8	239	32
2023-08-26T00:00	9795	287	-40.5	-49.9	240	32
2023-08-26T00:00	9817	286	-40.7	-49.9	240	32
2023-08-26T00:00	9842	285	-41.0	-50.0	240	32
2023-08-26T00:00	9865	284	-41.2	-50.0	240	32
2023-08-26T00:00	9886	283	-41.4	-50.1	240	32
2023-08-26T00:00	9906	282	-41.6	-50.1	240	32
2023-08-26T00:00	9925	282	-41.8	-50.1	239	31
2023-08-26T00:00	9947	281	-41.9	-50.3	239	31
2023-08-26T00:00	9965	280	-42.1	-50.4	239	31
2023-08-26T00:00	9986	279	-42.3	-50.6	239	31
2023-08-26T00:00	10005	278	-42.4	-50.6	239	31
2023-08-26T00:00	10025	277	-42.6	-50.7	239	32
2023-08-26T00:00	10043	277	-42.8	-50.8	239	32
2023-08-26T00:00	10061	276	-42.9	-50.8	239	32
2023-08-26T00:00	10081	275	-43.1	-51.0	239	32
2023-08-26T00:00	10099	274	-43.2	-51.1	239	32
2023-08-26T00:00	10119	274	-43.3	-51.7	239	32
2023-08-26T00:00	10139	273	-43.5	-52.1	239	32
2023-08-26T00:00	10159	272	-43.5	-52.5	239	32
2023-08-26T00:00	10180	271	-43.6	-52.7	239	32
2023-08-26T00:00	10201	270	-43.8	-52.8	239	32
2023-08-26T00:00	10222	269	-43.9	-53.4	239	33
2023-08-26T00:00	10243	269	-43.7	-54.1	240	33
2023-08-26T00:00	10262	268	-43.9	-54.2	240	33
2023-08-26T00:00	10284	267	-44.1	-54.1	240	33
2023-08-26T00:00	10304	266	-44.3	-54.1	240	33
2023-08-26T00:00	10325	265	-44.5	-54.2	240	33
2023-08-26T00:00	10345	264	-44.7	-54.2	240	33
2023-08-26T00:00	10366	264	-44.9	-54.4	240	33
2023-08-26T00:00	10387	263	-45.0	-54.6	240	33
2023-08-26T00:00	10407	262	-45.1	-54.9	240	33
2023-08-26T00:00	10429	261	-45.3	-55.1	240	33
2023-08-26T00:00	10449	260	-45.3	-55.4	240	33
2023-08-26T00:00	10471	260	-45.5	-55.5	240	33
2023-08-26T00:00	10492	259	-45.7	-55.5	240	33
2023-08-26T00:00	10514	258	-45.9	-55.5	240	33
2023-08-26T00:00	10539	257	-46.1	-55.5	240	33
2023-08-26T00:00	10561	256	-46.3	-55.6	240	32
2023-08-26T00:00	10584	255	-46.5	-55.7	241	32
2023-08-26T00:00	10604	254	-46.7	-55.7	241	32
2023-08-26T00:00	10626	254	-46.9	-55.7	241	32
2023-08-26T00:00	10650	253	-47.1	-55.7	241	32
2023-08-26T00:00	10675	252	-47.4	-55.9	241	32
2023-08-26T00:00	10695	251	-47.6	-55.9	241	32
2023-08-26T00:00	10715	250	-47.7	-55.8	241	32
2023-08-26T00:00	10737	249	-47.9	-55.8	241	32
2023-08-26T00:00	10758	249	-48.1	-55.9	241	32
2023-08-26T00:00	10777	248	-48.3	-56.0	241	32
2023-08-26T00:00	10797	247	-48.5	-56.1	242	32
2023-08-26T00:00	10820	246	-48.7	-56.1	242	32
2023-08-26T00:00	10841	245	-48.9	-56.1	242	32
2023-08-26T00:00	10863	245	-49.1	-56.2	242	32
2023-08-26T00:00	10883	244	-49.3	-56.3	242	32
2023-08-26T00:00	10903	243	-49.5	-56.3	242	32
2023-08-26T00:00	10925	242	-49.7	-56.4	242	32
2023-08-26T00:00	10946	242	-49.9	-56.5	242	32
2023-08-26T00:00	10969	241	-50.1	-56.6	241	32
2023-08-26T00:00	10990	240	-50.3	-56.7	241	32
2023-08-26T00:00	11012	239	-50.5	-56.8	241	32
2023-08-26T00:00	11033	238	-50.6	-57.1	241	32
2023-08-26T00:00	11055	238	-50.7	-57.3	240	32
2023-08-26T00:00	11076	237	-50.9	-57.4	240	32
2023-08-26T00:00	11096	236	-51.1	-57.4	240	32
2023-08-26T00:00	11117	235	-51.3	-57.6	239	32
2023-08-26T00:00	11138	235	-51.5	-57.8	238	32
2023-08-26T00:00	11160	234	-51.6	-58.0	238	33
2023-08-26T00:00	11184	233	-51.7	-58.7	237	33
2023-08-26T00:00	11207	232	-51.7	-59.7	237	33
2023-08-26T00:00	11228	231	-51.5	-60.9	236	34
2023-08-26T00:00	11250	231	-51.4	-61.9	236	34
2023-08-26T00:00	11271	230	-51.4	-62.4	236	34
2023-08-26T00:00	11292	229	-51.4	-62.5	235	35
2023-08-26T00:00	11312	228	-51.4	-62.2	235	35
2023-08-26T00:00	11335	228	-51.5	-62.0	235	35
2023-08-26T00:00	11354	227	-51.5	-61.9	234	35
2023-08-26T00:00	11375	226	-51.7	-62.1	234	35
2023-08-26T00:00	11399	225	-51.8	-62.3	233	34
2023-08-26T00:00	11416	225	-51.9	-62.5	233	34
2023-08-26T00:00	11436	224	-51.9	-62.5	233	34
2023-08-26T00:00	11457	223	-51.9	-62.5	233	34
2023-08-26T00:00	11477	223	-52.0	-62.6	233	34
2023-08-26T00:00	11498	222	-52.2	-62.7	233	33
2023-08-26T00:00	11519	221	-52.4	-62.9	233	33
2023-08-26T00:00	11541	220	-52.6	-63.2	233	33
2023-08-26T00:00	11560	220	-52.7	-63.3	233	33
2023-08-26T00:00	11582	219	-52.9	-63.3	233	33
2023-08-26T00:00	11603	218	-53.1	-63.3	233	33
2023-08-26T00:00	11623	218	-53.3	-63.6	233	33
2023-08-26T00:00	11642	217	-53.4	-63.9	234	33
2023-08-26T00:00	11662	216	-53.4	-64.3	234	33
2023-08-26T00:00	11683	216	-53.5	-64.9	234	33
2023-08-26T00:00	11705	215	-53.5	-65.3	233	33
2023-08-26T00:00	11724	214	-53.5	-65.5	233	33
2023-08-26T00:00	11745	214	-53.6	-65.6	233	33
2023-08-26T00:00	11764	213	-53.8	-65.6	233	33
2023-08-26T00:00	11784	212	-53.9	-65.5	233	33
2023-08-26T00:00	11805	212	-54.1	-65.5	233	33
2023-08-26T00:00	11826	211	-54.3	-65.6	233	33
2023-08-26T00:00	11847	210	-54.4	-65.6	233	33
2023-08-26T00:00	11868	209	-54.6	-65.6	233	33
2023-08-26T00:00	11889	209	-54.8	-65.7	233	33
2023-08-26T00:00	11908	208	-55.0	-65.7	234	33
2023-08-26T00:00	11929	207	-55.1	-65.7	234	33
2023-08-26T00:00	11953	207	-55.3	-65.7	234	33
2023-08-26T00:00	11972	206	-55.5	-65.8	235	33
2023-08-26T00:00	11991	205	-55.7	-65.9	235	34
2023-08-26T00:00	12011	205	-55.9	-66.0	235	34
2023-08-26T00:00	12032	204	-56.0	-66.0	236	34
2023-08-26T00:00	12052	204	-56.0	-66.0	236	35
2023-08-26T00:00	12073	203	-56.0	-66.0	236	35
2023-08-26T00:00	12091	202	-56.0	-66.0	237	35
2023-08-26T00:00	12110	202	-56.0	-66.1	238	36
2023-08-26T00:00	12129	201	-56.2	-66.4	238	36
2023-08-26T00:00	12149	200	-56.2	-66.7	239	36
2023-08-26T00:00	12170	200	-56.0	-67.0	240	36
2023-08-26T00:00	12188	199	-56.2	-67.6	241	36
2023-08-26T00:00	12209	199	-56.2	-68.2	242	36
2023-08-26T00:00	12228	198	-56.3	-68.8	242	36
2023-08-26T00:00	12247	197	-56.4	-69.3	243	37
2023-08-26T00:00	12266	197	-56.4	-69.4	243	37
2023-08-26T00:00	12284	196	-56.4	-69.3	243	37
2023-08-26T00:00	12302	196	-56.6	-69.4	243	37
2023-08-26T00:00	12326	195	-56.7	-69.6	243	36
2023-08-26T00:00	12352	194	-56.9	-70.0	242	36
2023-08-26T00:00	12374	193	-56.9	-70.5	241	35
2023-08-26T00:00	12393	193	-56.8	-71.0	241	34
2023-08-26T00:00	12411	192	-56.9	-71.1	240	34
2023-08-26T00:00	12430	192	-56.9	-71.0	240	34
2023-08-26T00:00	12451	191	-56.9	-71.0	239	33
2023-08-26T00:00	12469	191	-56.8	-71.1	239	33
2023-08-26T00:00	12491	190	-57.0	-71.3	239	33
2023-08-26T00:00	12508	189	-57.1	-71.2	239	33
2023-08-26T00:00	12526	189	-57.3	-71.3	239	33
2023-08-26T00:00	12547	188	-57.3	-71.5	239	33
2023-08-26T00:00	12565	188	-57.1	-71.9	239	33
2023-08-26T00:00	12583	187	-57.1	-72.4	239	33
2023-08-26T00:00	12604	187	-57.1	-72.6	239	33
2023-08-26T00:00	12620	186	-57.2	-72.6	239	32
2023-08-26T00:00	12640	185	-57.3	-72.7	239	32
2023-08-26T00:00	12660	185	-57.3	-72.6	239	32
2023-08-26T00:00	12681	184	-57.3	-72.4	240	32
2023-08-26T00:00	12699	184	-57.4	-72.4	240	32
2023-08-26T00:00	12719	183	-57.6	-72.6	241	32
2023-08-26T00:00	12738	183	-57.7	-72.7	241	32
2023-08-26T00:00	12757	182	-57.8	-72.8	242	32
2023-08-26T00:00	12777	182	-57.7	-72.6	243	32
2023-08-26T00:00	12796	181	-57.6	-72.4	244	32
2023-08-26T00:00	12816	180	-57.4	-72.1	245	32
2023-08-26T00:00	12836	180	-57.0	-71.8	246	32
2023-08-26T00:00	12856	179	-56.9	-71.9	246	32
2023-08-26T00:00	12873	179	-56.8	-72.1	246	32
2023-08-26T00:00	12892	178	-56.7	-72.4	246	32
2023-08-26T00:00	12915	178	-56.6	-72.6	246	31
2023-08-26T00:00	12932	177	-56.7	-72.9	246	31
2023-08-26T00:00	12952	177	-56.5	-72.8	247	31
2023-08-26T00:00	12968	176	-56.7	-73.0	247	31
2023-08-26T00:00	12986	176	-56.8	-73.0	248	30
2023-08-26T00:00	13004	175	-57.0	-73.1	248	30
2023-08-26T00:00	13024	175	-57.1	-73.1	248	30
2023-08-26T00:00	13042	174	-57.2	-73.2	248	29
2023-08-26T00:00	13059	174	-57.2	-73.3	248	29
2023-08-26T00:00	13075	173	-57.3	-73.5	248	28
2023-08-26T00:00	13095	173	-57.4	-73.7	248	28
2023-08-26T00:00	13113	172	-57.5	-73.8	248	28
2023-08-26T00:00	13131	172	-57.6	-74.0	248	27
2023-08-26T00:00	13148	171	-57.6		248	27
2023-08-26T00:00	13167	171	-57.7	-74.3	248	27
2023-08-26T00:00	13184	170	-57.9	-74.4	247	27
2023-08-26T00:00	13203	170	-58.0	-74.5	247	27
2023-08-26T00:00	13222	169	-58.1	-74.5	246	26
2023-08-26T00:00	13240	169	-58.2	-74.6	246	26
2023-08-26T00:00	13259	168	-58.3	-74.7	245	26
2023-08-26T00:00	13274	168	-58.4	-74.9	244	27
2023-08-26T00:00	13293	167	-58.5	-75.0	244	27
2023-08-26T00:00	13311	167	-58.4	-75.1	243	27
2023-08-26T00:00	13330	166	-58.5		242	27
2023-08-26T00:00	13351	166	-58.6	-75.5	242	28
2023-08-26T00:00	13369	165	-58.6	-75.5	241	28
2023-08-26T00:00	13387	165	-58.7	-75.8	240	28
2023-08-26T00:00	13406	164	-58.6	-76.0	240	28
2023-08-26T00:00	13427	164	-58.3	-76.2	239	29
2023-08-26T00:00	13446	163	-57.7	-76.2	239	29
2023-08-26T00:00	13466	163	-57.5	-76.3	239	29
2023-08-26T00:00	13489	162	-57.5	-76.5	239	29
2023-08-26T00:00	13507	162	-57.6	-76.6	239	29
2023-08-26T00:00	13525	161	-57.8	-76.7	238	28
2023-08-26T00:00	13549	161	-58.0	-76.9	238	28
2023-08-26T00:00	13574	160	-58.1	-77.0	237	28
2023-08-26T00:00	13593	159	-58.0	-77.0	235	28
2023-08-26T00:00	13616	159	-57.9	-77.0	234	28
2023-08-26T00:00	13638	158	-58.0	-77.1	234	28
2023-08-26T00:00	13658	158	-57.9	-77.0	233	29
2023-08-26T00:00	13680	157	-58.0	-77.1	234	29
2023-08-26T00:00	13702	157	-58.0	-77.1	235	29
2023-08-26T00:00	13722	156	-57.8	-77.1	236	29
2023-08-26T00:00	13742	156	-57.8	-77.2	237	29
2023-08-26T00:00	13766	155	-57.7	-77.2	238	29
2023-08-26T00:00	13785	155	-57.8	-77.4	239	29
2023-08-26T00:00	13804	154	-57.9	-77.4	239	29
2023-08-26T00:00	13826	154	-58.0	-77.5	240	29
2023-08-26T00:00	13847	153	-58.1	-77.6	240	29
2023-08-26T00:00	13872	153	-58.1	-77.6	241	29
2023-08-26T00:00	13890	152	-58.1	-77.7	241	29
2023-08-26T00:00	13911	152	-58.1	-77.8	242	29
2023-08-26T00:00	13931	151	-58.2	-78.0	242	29
2023-08-26T00:00	13953	151	-58.2	-78.0	243	29
2023-08-26T00:00	13974	150	-58.3	-78.1	244	29
2023-08-26T00:00	13997	150	-58.5	-78.3	245	29
2023-08-26T00:00	14016	149	-58.6	-78.3	245	29
2023-08-26T00:00	14036	149	-58.7	-78.5	246	29
2023-08-26T00:00	14057	148	-58.7	-78.9	246	29
2023-08-26T00:00	14081	148	-58.3	-78.9	246	28
2023-08-26T00:00	14104	147	-58.1	-79.2	246	28
2023-08-26T00:00	14126	147	-58.0	-79.5	245	27
2023-08-26T00:00	14147	146	-58.0	-79.8	245	26
2023-08-26T00:00	14167	146	-58.1	-79.9	244	26
2023-08-26T00:00	14190	145	-58.2	-80.1	244	25
2023-08-26T00:00	14211	145	-58.3	-80.2	243	25
2023-08-26T00:00	14235	144	-58.4	-80.3	243	24
2023-08-26T00:00	14256	144	-58.5	-80.4	242	23
2023-08-26T00:00	14279	143	-58.5	-80.4	241	22
2023-08-26T00:00	14303	143	-58.5	-80.5	239	21
2023-08-26T00:00	14325	142	-58.7	-80.7	236	20
2023-08-26T00:00	14344	142	-58.5	-80.7	234	20
2023-08-26T00:00	14365	141	-58.5	-80.9	233	20
2023-08-26T00:00	14383	141	-58.4	-81.1	232	20
2023-08-26T00:00	14404	140	-58.5	-81.4	233	20
2023-08-26T00:00	14422	140	-58.2	-81.5	234	21
2023-08-26T00:00	14442	139	-57.3	-81.2	236	22
2023-08-26T00:00	14460	139	-57.2	-81.5	237	22
2023-08-26T00:00	14480	139	-57.1	-81.7	239	22
2023-08-26T00:00	14499	138	-57.0	-81.6	240	23
2023-08-26T00:00	14520	138	-57.0	-81.6	241	23
2023-08-26T00:00	14540	137	-56.7	-81.6	241	23
2023-08-26T00:00	14558	137	-56.5	-81.5	241	23
2023-08-26T00:00	14575	136	-56.6	-81.8	241	24
2023-08-26T00:00	14596	136	-56.4	-81.6	240	24
2023-08-26T00:00	14616	136	-56.1	-81.6	241	25
2023-08-26T00:00	14636	135	-55.9	-81.8	241	25
2023-08-26T00:00	14656	135	-55.4	-81.4	242	25
2023-08-26T00:00	14675	134	-55.5	-81.4	243	25
2023-08-26T00:00	14697	134	-55.5	-81.7	244	24
2023-08-26T00:00	14717	133	-54.9	-81.3	244	23
2023-08-26T00:00	14738	133	-54.6	-81.0	244	22
2023-08-26T00:00	14760	133	-54.5	-81.2	244	21
2023-08-26T00:00	14785	132	-54.2	-81.0	243	20
2023-08-26T00:00	14813	131	-54.0	-80.9	241	20
2023-08-26T00:00	14833	131	-54.1	-80.9	240	19
2023-08-26T00:00	14858	131	-54.1	-80.9	238	18
2023-08-26T00:00	14878	130	-54.3	-80.8	237	18
2023-08-26T00:00	14902	130	-54.4	-80.9	235	18
2023-08-26T00:00	14923	129	-54.6	-81.0	234	18
2023-08-26T00:00	14945	129	-54.7	-80.8	234	18
2023-08-26T00:00	14966	128	-54.9	-81.0	234	18
2023-08-26T00:00	14986	128	-55.0	-81.1	235	19
2023-08-26T00:00	15006	128	-55.1	-81.1	236	19
2023-08-26T00:00	15028	127	-55.1	-81.1	237	19
2023-08-26T00:00	15050	127	-55.1	-81.1	237	19
2023-08-26T00:00	15068	126	-54.9	-81.0	238	19
2023-08-26T00:00	15089	126	-55.0	-81.1	239	19
2023-08-26T00:00	15112	126	-55.1	-81.1	240	20
2023-08-26T00:00	15129	125	-55.2	-81.2	241	20
2023-08-26T00:00	15151	125	-55.2	-81.2	243	20
2023-08-26T00:00	15170	124	-55.3	-81.3	244	20
2023-08-26T00:00	15191	124	-55.3	-81.3	244	20
2023-08-26T00:00	15215	123	-55.2	-81.5	244	20
2023-08-26T00:00	15237	123	-55.1	-81.4	244	20
2023-08-26T00:00	15257	123	-54.8	-81.2	243	20
2023-08-26T00:00	15278	122	-54.9	-81.3	242	20
2023-08-26T00:00	15298	122	-55.1	-81.4	242	21
2023-08-26T00:00	15320	121	-55.2	-81.5	242	21
2023-08-26T00:00	15339	121	-55.3	-81.3	242	21
2023-08-26T00:00	15359	121	-55.5	-81.4	243	21
2023-08-26T00:00	15379	120	-55.6	-81.5	244	21
2023-08-26T00:00	15403	120	-55.5	-81.7	245	21
2023-08-26T00:00	15420	120	-55.3	-81.6	246	20
2023-08-26T00:00	15443	119	-55.1	-81.4	247	20
2023-08-26T00:00	15464	119	-55.2	-81.5	247	19
2023-08-26T00:00	15484	118	-55.0	-81.6	248	19
2023-08-26T00:00	15505	118	-55.0	-81.6	248	18
2023-08-26T00:00	15526	118	-54.9	-81.5	248	18
2023-08-26T00:00	15547	117	-54.9	-81.5	249	18
2023-08-26T00:00	15571	117	-55.0	-81.6	250	17
2023-08-26T00:00	15590	116	-55.0	-81.6	251	17
2023-08-26T00:00	15616	116	-55.0	-81.6	252	16
2023-08-26T00:00	15636	116	-55.0	-81.6	254	15
2023-08-26T00:00	15659	115	-55.1	-81.7	257	14
2023-08-26T00:00	15682	115	-55.0	-81.6	258	14
2023-08-26T00:00	15704	114	-54.8	-81.8	260	13
2023-08-26T00:00	15723	114	-54.9	-81.9	260	13
2023-08-26T00:00	15748	114	-54.9	-81.9	261	12
2023-08-26T00:00	15769	113	-55.0	-81.9	260	11
2023-08-26T00:00	15793	113	-55.2	-82.1	260	11
2023-08-26T00:00	15813	112	-55.2	-82.1	259	10
2023-08-26T00:00	15834	112	-55.4	-81.9	258	10
2023-08-26T00:00	15857	112	-55.6	-82.1	256	9
2023-08-26T00:00	15877	111	-55.7	-82.2	254	9
2023-08-26T00:00	15901	111	-55.9	-82.3	251	9
2023-08-26T00:00	15921	111	-56.0	-82.1	249	9
2023-08-26T00:00	15944	110	-56.1	-82.2	246	9
2023-08-26T00:00	15964	110	-56.2	-82.3	242	9
2023-08-26T00:00	15990	109	-56.4	-82.4	239	9
2023-08-26T00:00	16013	109	-56.5	-82.5	235	9
2023-08-26T00:00	16038	109	-56.6	-82.6	231	9
2023-08-26T00:00	16060	108	-56.6	-82.6	228	9
2023-08-26T00:00	16081	108	-56.8	-82.7	226	9
2023-08-26T00:00	16102	107	-56.9	-82.8	224	10
2023-08-26T00:00	16123	107	-56.8	-82.7	222	10
2023-08-26T00:00	16145	107	-56.9	-82.8	220	11
2023-08-26T00:00	16167	106	-57.0	-82.9	218	11
2023-08-26T00:00	16186	106	-57.1	-83.0	216	11
2023-08-26T00:00	16208	106	-57.1	-83.2	214	12
2023-08-26T00:00	16229	105	-56.9	-83.1	213	12
2023-08-26T00:00	16253	105	-56.9	-83.1	213	12
2023-08-26T00:00	16275	105	-57.1	-83.2	214	13
2023-08-26T00:00	16292	104	-57.1	-83.2	217	13
2023-08-26T00:00	16317	104	-57.1	-83.2	219	14
2023-08-26T00:00	16337	104	-57.2	-83.3	222	15
2023-08-26T00:00	16357	103	-57.2	-83.3	225	15
2023-08-26T00:00	16376	103	-57.1	-83.2	228	15
2023-08-26T00:00	16399	102	-56.9	-83.4	231	15
2023-08-26T00:00	16423	102	-56.9	-83.4	234	15
2023-08-26T00:00	16440	102	-56.9	-83.4	236	15
2023-08-26T00:00	16463	101	-57.1	-83.5	239	15
2023-08-26T00:00	16485	101	-57.2	-83.3	241	15
2023-08-26T00:00	16507	101	-57.3	-83.4	243	15
2023-08-26T00:00	16529	100	-57.4	-83.5	245	15
2023-08-26T00:00	16547	100	-57.6	-83.6	247	15
2023-08-26T00:00	16569	100	-57.7	-83.7	250	15
2023-08-26T00:00	16592	99	-57.7	-83.7	252	15
2023-08-26T00:00	16612	99	-57.7	-83.7	254	15
2023-08-26T00:00	16634	99	-57.7	-83.7	257	15
2023-08-26T00:00	16658	98	-57.7	-83.7	258	14
2023-08-26T00:00	16679	98	-57.7	-83.7	260	14
2023-08-26T00:00	16701	98	-57.7	-84.0	262	13
2023-08-26T00:00	16724	97	-57.9	-84.2	263	13
2023-08-26T00:00	16743	97	-58.0	-84.2	263	12
2023-08-26T00:00	16765	97	-57.8	-84.1	263	12
2023-08-26T00:00	16786	96	-57.7	-84.0	262	11
2023-08-26T00:00	16810	96	-57.3	-84.0	260	11
2023-08-26T00:00	16831	96	-57.3	-84.0	258	11
2023-08-26T00:00	16853	95	-57.4	-84.1	255	10
2023-08-26T00:00	16875	95	-57.4	-84.1	253	11
2023-08-26T00:00	16896	95	-57.4	-84.1	250	11
2023-08-26T00:00	16918	94	-57.4	-84.1	248	11
2023-08-26T00:00	16942	94	-57.4	-84.1	246	12
2023-08-26T00:00	16963	94	-57.4	-84.1	246	12
2023-08-26T00:00	16984	93	-57.5	-84.2	247	12
2023-08-26T00:00	17005	93	-57.5	-84.2	249	13
2023-08-26T00:00	17027	93	-57.5	-84.2	252	13
2023-08-26T00:00	17048	92	-57.5	-84.2	254	13
2023-08-26T00:00	17070	92	-57.4	-84.1	256	12
2023-08-26T00:00	17091	92	-57.3	-84.0	257	12
2023-08-26T00:00	17111	92	-57.1	-84.2	259	11
2023-08-26T00:00	17134	91	-56.8	-84.0	259	10
2023-08-26T00:00	17152	91	-56.9	-84.0	260	10
2023-08-26T00:00	17173	91	-56.8	-84.0	260	9
2023-08-26T00:00	17196	90	-57.0	-84.1	259	9
2023-08-26T00:00	17215	90	-57.0	-84.1	257	9
2023-08-26T00:00	17237	90	-56.9	-84.4	254	8
2023-08-26T00:00	17260	89	-56.9	-84.4	250	8
2023-08-26T00:00	17279	89	-56.7	-84.2	247	9
2023-08-26T00:00	17300	89	-56.5	-84.1	245	9
2023-08-26T00:00	17320	89	-56.5	-84.1	245	9
2023-08-26T00:00	17339	88	-56.6	-84.2	245	9
2023-08-26T00:00	17361	88	-56.6	-84.2	246	9
2023-08-26T00:00	17383	88	-56.7	-84.2	248	9
2023-08-26T00:00	17403	87	-56.8	-84.3	249	9
2023-08-26T00:00	17423	87	-56.9	-84.4	249	9
2023-08-26T00:00	17447	87	-57.0	-84.5	249	9
2023-08-26T00:00	17467	87	-56.9	-84.4	249	8
2023-08-26T00:00	17487	86	-56.8	-84.3	249	8
2023-08-26T00:00	17510	86	-56.9	-84.4	250	8
2023-08-26T00:00	17528	86	-56.9	-84.4	252	7
2023-08-26T00:00	17548	85	-56.9	-84.4	254	7
2023-08-26T00:00	17567	85	-56.9	-84.4	256	7
2023-08-26T00:00	17590	85	-56.9	-84.4	256	6
2023-08-26T00:00	17611	85	-56.9	-84.8	256	6
2023-08-26T00:00	17629	84	-56.6	-84.5	255	6
2023-08-26T00:00	17653	84	-56.7	-84.2	252	5
2023-08-26T00:00	17672	84	-56.8	-84.3	248	6
2023-08-26T00:00	17693	84	-57.0	-84.5	244	6
2023-08-26T00:00	17712	83	-57.1	-84.6	241	6
2023-08-26T00:00	17733	83	-57.1	-84.6	239	7
2023-08-26T00:00	17753	83	-57.1	-84.6	238	7
2023-08-26T00:00	17774	82	-57.1	-84.9	239	7
2023-08-26T00:00	17795	82	-57.0	-84.8	240	8
2023-08-26T00:00	17814	82	-56.8	-84.7	243	8
2023-08-26T00:00	17833	82	-56.6	-84.5	245	9
2023-08-26T00:00	17854	81	-56.7	-84.6	247	10
2023-08-26T00:00	17875	81	-56.8	-84.7	249	10
2023-08-26T00:00	17894	81	-56.8	-84.7	250	10
2023-08-26T00:00	17913	81	-56.7	-84.6	250	11
2023-08-26T00:00	17935	80	-56.7	-84.6	250	11
2023-08-26T00:00	17959	80	-56.8	-84.7	250	11
2023-08-26T00:00	17980	80	-56.8	-84.7	251	11
2023-08-26T00:00	18000	80	-56.7	-84.6	251	10
2023-08-26T00:00	18020	79	-56.7	-84.6	252	10
2023-08-26T00:00	18042	79	-56.8	-84.7	253	10
2023-08-26T00:00	18064	79	-56.9	-84.8	254	10
2023-08-26T00:00	18086	79	-57.0	-84.8	256	9
2023-08-26T00:00	18105	78	-57.0	-84.8	258	8
2023-08-26T00:00	18127	78	-56.8	-85.1	259	7
2023-08-26T00:00	18148	78	-56.2	-85.1	260	6
2023-08-26T00:00	18168	77	-55.7	-84.7	260	6
2023-08-26T00:00	18191	77	-55.5	-84.5	259	5
2023-08-26T00:00	18212	77	-55.6	-84.6	260	5
2023-08-26T00:00	18233	77	-55.8	-84.8	262	5
2023-08-26T00:00	18256	76	-56.0	-84.5	264	4
2023-08-26T00:00	18275	76	-56.1	-84.6	266	4
2023-08-26T00:00	18298	76	-56.2	-84.6	264	3
2023-08-26T00:00	18319	76	-56.3	-84.7	255	3
2023-08-26T00:00	18341	75	-56.3	-84.7	241	3
2023-08-26T00:00	18366	75	-56.3	-84.7	226	3
2023-08-26T00:00	18391	75	-56.2	-84.6	214	4
2023-08-26T00:00	18407	75	-56.2	-84.6	206	4
2023-08-26T00:00	18429	74	-56.3	-84.7	201	5
2023-08-26T00:00	18454	74	-56.3	-84.7	200	6
2023-08-26T00:00	18475	74	-56.2	-84.6	200	6
2023-08-26T00:00	18494	74	-56.3	-84.7	203	7
2023-08-26T00:00	18518	73	-56.3	-84.7	207	7
2023-08-26T00:00	18537	73	-56.1	-84.6	212	7
2023-08-26T00:00	18556	73	-55.9	-84.4	217	7
2023-08-26T00:00	18581	73	-56.0	-84.9	221	7
2023-08-26T00:00	18602	72	-55.9	-84.8	224	7
2023-08-26T00:00	18623	72	-55.9	-84.8	226	6
2023-08-26T00:00	18645	72	-55.7	-84.7	227	6
2023-08-26T00:00	18668	72	-55.5	-84.5	230	6
2023-08-26T00:00	18690	71	-55.4	-84.5	234	5
2023-08-26T00:00	18713	71	-55.5	-84.5	240	5
2023-08-26T00:00	18735	71	-55.7	-84.7	247	5
2023-08-26T00:00	18758	71	-55.6	-84.6	254	5
2023-08-26T00:00	18780	70	-55.6	-84.6	261	5
2023-08-26T00:00	18803	70	-55.6	-84.6	266	6
2023-08-26T00:00	18826	70	-55.5	-84.5	269	6
2023-08-26T00:00	18848	70	-55.4	-84.5	271	6
2023-08-26T00:00	18868	69	-55.4	-84.5	272	6
2023-08-26T00:00	18892	69	-55.2	-84.3	274	6
2023-08-26T00:00	18916	69	-55.3	-84.4	276	6
2023-08-26T00:00	18939	69	-55.3	-84.4	279	5
2023-08-26T00:00	18963	68	-55.4	-84.5	283	5
2023-08-26T00:00	18986	68	-55.6	-84.6	286	4
2023-08-26T00:00	19007	68	-55.8	-84.3	290	4
2023-08-26T00:00	19030	68	-56.0	-84.5	292	4
2023-08-26T00:00	19055	67	-56.2	-84.6	292	3
2023-08-26T00:00	19078	67	-56.2	-84.6	288	3
2023-08-26T00:00	19096	67	-56.0	-84.5	277	2
2023-08-26T00:00	19121	67	-55.7	-84.7	259	2
2023-08-26T00:00	19144	66	-55.7	-84.7	240	2
2023-08-26T00:00	19167	66	-55.8	-84.8	224	2
2023-08-26T00:00	19188	66	-55.8	-84.8	213	3
2023-08-26T00:00	19210	66	-55.9	-84.4	206	3
2023-08-26T00:00	19235	66	-56.1	-84.6	203	4
2023-08-26T00:00	19255	65	-56.3	-84.7	203	4
2023-08-26T00:00	19282	65	-56.4	-84.8	205	5
2023-08-26T00:00	19306	65	-56.5	-84.9	208	6
2023-08-26T00:00	19328	65	-56.5	-84.9	210	7
2023-08-26T00:00	19347	64	-56.5	-84.9	211	7
2023-08-26T00:00	19370	64	-56.5	-84.9	212	7
2023-08-26T00:00	19393	64	-56.6	-84.9	212	7
2023-08-26T00:00	19414	64	-56.6	-84.9	213	7
2023-08-26T00:00	19440	63	-56.1	-85.0	214	6
2023-08-26T00:00	19465	63	-56.1	-85.0	216	6
2023-08-26T00:00	19487	63	-56.2	-85.1	220	7
2023-08-26T00:00	19514	63	-55.9	-84.8	223	7
2023-08-26T00:00	19537	63	-55.6	-85.1	227	7
2023-08-26T00:00	19561	62	-55.4	-84.9	231	6
2023-08-26T00:00	19585	62	-55.3	-84.9	236	6
2023-08-26T00:00	19609	62	-55.3	-84.9	241	6
2023-08-26T00:00	19634	62	-55.4	-84.9	245	6
2023-08-26T00:00	19659	61	-55.3	-84.9	250	7
2023-08-26T00:00	19682	61	-55.2	-84.8	253	7
2023-08-26T00:00	19710	61	-54.8	-84.5	255	8
2023-08-26T00:00	19730	61	-54.8	-84.5	258	8
2023-08-26T00:00	19753	60	-55.0	-84.6	262	8
2023-08-26T00:00	19780	60	-55.1	-84.7	266	8
2023-08-26T00:00	19800	60	-55.1	-84.7	271	8
2023-08-26T00:00	19824	60	-54.7	-84.4	277	7
2023-08-26T00:00	19847	60	-54.4	-84.2	282	7
2023-08-26T00:00	19867	59	-54.3	-84.1	286	7
2023-08-26T00:00	19893	59	-54.3	-84.1	289	7
2023-08-26T00:00	19915	59	-54.4	-84.2	292	7
2023-08-26T00:00	19939	59	-54.4	-84.2	295	7
2023-08-26T00:00	19963	58	-54.6	-84.3	298	6
2023-08-26T00:00	19986	58	-54.7	-83.9	303	6
2023-08-26T00:00	20009	58	-54.7	-83.9	309	5
2023-08-26T00:00	20035	58	-54.8	-84.0	315	4
2023-08-26T00:00	20051	58	-54.9	-84.1	319	4
2023-08-26T00:00	20078	57	-55.0	-84.2	321	3
2023-08-26T00:00	20100	57	-55.0	-84.2	322	3
2023-08-26T00:00	20125	57	-55.0	-84.2	324	3
2023-08-26T00:00	20149	57	-54.8	-84.5	326	3
2023-08-26T00:00	20167	57	-54.7	-84.4	327	3
2023-08-26T00:00	20191	56	-54.5	-84.3	328	3
2023-08-26T00:00	20211	56	-54.4	-84.2	327	3
2023-08-26T00:00	20229	56	-54.4	-84.2	326	3
2023-08-26T00:00	20251	56	-54.5	-84.3	326	3
2023-08-26T00:00	20273	56	-54.6	-84.3	329	3
2023-08-26T00:00	20296	56	-54.4	-84.2	336	2
2023-08-26T00:00	20316	55	-54.5	-84.3	353	1
2023-08-26T00:00	20337	55	-54.2	-84.0	28	1
2023-08-26T00:00	20362	55	-54.3	-84.1	61	1
2023-08-26T00:00	20384	55	-54.4	-84.2	77	2
2023-08-26T00:00	20405	55	-54.5	-84.3	84	2
2023-08-26T00:00	20427	54	-54.5	-84.3	91	3
2023-08-26T00:00	20449	54	-54.4	-84.2	99	3
2023-08-26T00:00	20469	54	-54.4	-84.2	111	3
2023-08-26T00:00	20494	54	-54.3	-84.1	127	3
2023-08-26T00:00	20519	54	-54.4	-84.2	146	3
2023-08-26T00:00	20541	53	-54.4	-84.2	165	3
2023-08-26T00:00	20564	53	-54.5	-84.3	179	3
2023-08-26T00:00	20585	53	-54.6	-84.3	189	4
2023-08-26T00:00	20606	53	-54.6	-83.9	195	4
2023-08-26T00:00	20633	53	-54.7	-83.9	199	4
2023-08-26T00:00	20652	52	-54.6	-83.9	204	4
2023-08-26T00:00	20677	52	-54.6	-83.9	209	3
2023-08-26T00:00	20698	52	-54.6	-84.3	217	3
2023-08-26T00:00	20725	52	-54.8	-84.5	223	3
2023-08-26T00:00	20749	52	-54.8	-84.5	225	2
2023-08-26T00:00	20769	52	-54.8	-84.5	221	2
2023-08-26T00:00	20797	51	-54.5	-84.3	210	2
2023-08-26T00:00	20818	51	-54.5	-84.3	200	2
2023-08-26T00:00	20846	51	-54.5	-84.3	196	2
2023-08-26T00:00	20868	51	-54.5	-84.3	199	2
2023-08-26T00:00	20890	51	-54.5	-84.3	207	2
2023-08-26T00:00	20916	50	-54.4	-84.2	217	2
2023-08-26T00:00	20940	50	-54.4	-84.2	226	2
2023-08-26T00:00	20969	50	-54.4	-84.2	236	2
2023-08-26T00:00	20991	50	-54.5	-84.3	249	2
2023-08-26T00:00	21015	50	-54.5	-84.3	265	2
2023-08-26T00:00	21041	49	-54.5	-84.3	282	2
2023-08-26T00:00	21069	49	-54.4	-84.2	298	2
2023-08-26T00:00	21095	49	-54.5	-84.3	312	2
2023-08-26T00:00	21121	49	-54.6	-84.3	322	2
2023-08-26T00:00	21143	49	-54.8	-84.0	330	2
2023-08-26T00:00	21164	48	-54.9	-84.1	335	2
2023-08-26T00:00	21191	48	-55.1	-84.2	338	2
2023-08-26T00:00	21216	48	-55.2	-84.3	340	2
2023-08-26T00:00	21240	48	-55.3	-84.4	339	2
2023-08-26T00:00	21265	48	-55.0	-84.2	334	1
2023-08-26T00:00	21293	48	-55.0	-84.6	312	0
2023-08-26T00:00	21312	47	-54.9	-84.6	191	0
2023-08-26T00:00	21339	47	-54.9	-84.6	168	1
2023-08-26T00:00	21363	47	-55.0	-84.6	159	2
2023-08-26T00:00	21391	47	-55.1	-84.2	155	2
2023-08-26T00:00	21412	47	-55.1	-84.2	154	3
2023-08-26T00:00	21434	46	-55.3	-84.4	156	3
2023-08-26T00:00	21461	46	-55.3	-84.4	160	3
2023-08-26T00:00	21481	46	-55.3	-84.4	165	3
2023-08-26T00:00	21508	46	-55.4	-84.5	169	3
2023-08-26T00:00	21532	46	-55.6	-84.6	173	2
2023-08-26T00:00	21553	46	-55.7	-84.7	177	2
2023-08-26T00:00	21584	45	-55.5	-84.5	182	1
2023-08-26T00:00	21605	45	-55.5	-84.5	190	1
2023-08-26T00:00	21629	45	-55.6	-84.6	203	1
2023-08-26T00:00	21655	45	-55.7	-84.7	220	1
2023-08-26T00:00	21682	45	-55.5	-85.0	234	1
2023-08-26T00:00	21697	45	-55.5	-85.0	248	1
2023-08-26T00:00	21723	44	-55.5	-85.0	272	0
2023-08-26T00:00	21749	44	-55.3	-84.9	327	0
2023-08-26T00:00	21774	44	-55.4	-84.9	8	0
2023-08-26T00:00	21795	44	-55.5	-84.5	22	1
2023-08-26T00:00	21824	44	-55.6	-84.6	32	1
2023-08-26T00:00	21845	44	-55.6	-84.6	46	1
2023-08-26T00:00	21864	43	-55.6	-84.6	70	1
2023-08-26T00:00	21890	43	-55.6	-84.6	97	1
2023-08-26T00:00	21914	43	-55.7	-84.7	116	1
2023-08-26T00:00	21939	43	-55.8	-84.8	130	1
2023-08-26T00:00	21961	43	-55.9	-84.8	140	1
2023-08-26T00:00	21985	43	-56.0	-84.9	146	1
2023-08-26T00:00	22011	42	-55.9	-84.8	145	1
2023-08-26T00:00	22037	42	-56.0	-84.9	137	1
2023-08-26T00:00	22065	42	-56.0	-84.9	126	1
2023-08-26T00:00	22093	42	-56.0	-84.9	115	1
2023-08-26T00:00	22110	42	-56.1	-85.0	107	1
2023-08-26T00:00	22139	42	-56.1	-85.0	98	1
2023-08-26T00:00	22165	41	-56.1	-85.5	90	1
2023-08-26T00:00	22191	41	-55.9	-85.3	82	1
2023-08-26T00:00	22214	41	-55.5	-85.0	77	1
2023-08-26T00:00	22237	41	-55.5	-85.0	75	1
2023-08-26T00:00	22267	41	-55.6	-85.1	74	2
2023-08-26T00:00	22292	41	-55.3	-84.9	74	2
2023-08-26T00:00	22310	40	-55.5	-85.0	76	3
2023-08-26T00:00	22339	40	-55.6	-85.1	79	3
2023-08-26T00:00	22367	40	-55.7	-84.7	83	4
2023-08-26T00:00	22395	40	-55.9	-84.8	89	4
2023-08-26T00:00	22422	40	-56.0	-84.9	95	4
2023-08-26T00:00	22445	40	-56.2	-85.1	101	4
2023-08-26T00:00	22469	40	-56.2	-85.1	106	4
2023-08-26T00:00	22494	39	-56.2	-85.1	111	4
2023-08-26T00:00	22520	39	-56.3	-85.1	116	4
2023-08-26T00:00	22547	39	-56.3	-85.1	120	4
2023-08-26T00:00	22571	39	-56.5	-85.3	122	4
2023-08-26T00:00	22599	39	-56.6	-85.4	123	3
2023-08-26T00:00	22625	39	-56.6	-85.4	121	3
2023-08-26T00:00	22647	38	-56.5	-85.3	118	3
2023-08-26T00:00	22677	38	-56.6	-85.4	114	2
2023-08-26T00:00	22700	38	-56.4	-85.2	111	2
2023-08-26T00:00	22724	38	-56.1	-85.5	111	2
2023-08-26T00:00	22744	38	-56.0		113	2
2023-08-26T00:00	22771	38	-55.9	-85.3	115	3
2023-08-26T00:00	22795	38	-56.0		120	3
2023-08-26T00:00	22817	37	-56.0		126	2
2023-08-26T00:00	22842	37	-56.0		134	2
2023-08-26T00:00	22868	37	-55.7	-85.2	143	2
2023-08-26T00:00	22892	37	-55.6	-85.1	152	2
2023-08-26T00:00	22914	37	-55.6	-85.1	155	1
2023-08-26T00:00	22939	37	-55.6	-85.1	136	0
2023-08-26T00:00	22964	37	-55.7	-85.2	32	1
2023-08-26T00:00	22985	36	-55.5	-85.0	17	1
2023-08-26T00:00	23009	36	-55.3	-84.9	15	2
2023-08-26T00:00	23032	36	-55.0	-85.1	16	3
2023-08-26T00:00	23053	36	-54.9	-85.1	20	4
2023-08-26T00:00	23073	36	-54.7	-84.9	24	4
2023-08-26T00:00	23098	36	-54.6	-84.8	29	5
2023-08-26T00:00	23120	36	-54.5	-84.8	35	6
2023-08-26T00:00	23138	36	-54.6	-84.8	39	6
2023-08-26T00:00	23163	35	-54.6	-84.8	44	7
2023-08-26T00:00	23188	35	-54.6	-84.8	48	6
2023-08-26T00:00	23206	35	-54.5	-84.3	52	6
2023-08-26T00:00	23229	35	-54.6	-84.3	55	6
2023-08-26T00:00	23250	35	-54.7	-84.4	58	5
2023-08-26T00:00	23273	35	-54.7	-84.4	60	5
2023-08-26T00:00	23297	35	-54.7	-84.4	62	4
2023-08-26T00:00	23316	35	-54.8	-84.5	61	3
2023-08-26T00:00	23342	34	-54.8	-85.0	58	3
2023-08-26T00:00	23364	34	-54.6	-84.8	52	3
2023-08-26T00:00	23383	34	-54.4	-84.7	45	3
2023-08-26T00:00	23412	34	-54.2	-84.5	42	3
2023-08-26T00:00	23440	34	-54.1	-84.5	42	4
2023-08-26T00:00	23456	34	-54.0	-84.4	46	5
2023-08-26T00:00	23482	34	-54.0	-84.4	52	5
2023-08-26T00:00	23503	34	-53.9	-84.3	61	5
2023-08-26T00:00	23526	33	-53.7	-84.2	70	6
2023-08-26T00:00	23555	33	-53.8	-84.2	78	6
2023-08-26T00:00	23582	33	-53.8	-84.2	84	6
2023-08-26T00:00	23604	33	-53.9	-84.3	88	6
2023-08-26T00:00	23632	33	-54.0	-84.4	88	6
2023-08-26T00:00	23647	33	-54.1	-84.5	87	5
2023-08-26T00:00	23675	33	-54.1	-84.5	82	5
2023-08-26T00:00	23696	33	-53.9	-84.3	76	4
2023-08-26T00:00	23729	32	-53.8	-84.2	70	4
2023-08-26T00:00	23755	32	-53.8	-84.2	66	4
2023-08-26T00:00	23782	32	-53.8	-84.2	64	3
2023-08-26T00:00	23806	32	-53.9	-84.3	66	4
2023-08-26T00:00	23832	32	-54.1	-84.5	71	4
2023-08-26T00:00	23853	32	-54.1	-84.5	76	4
2023-08-26T00:00	23882	32	-54.2	-84.5	82	4
2023-08-26T00:00	23909	32	-54.2	-84.5	87	5
2023-08-26T00:00	23935	31	-54.3	-84.6	92	5
2023-08-26T00:00	23961	31	-54.3	-84.6	96	5
2023-08-26T00:00	23994	31	-54.4	-84.7	99	5
2023-08-26T00:00	24016	31	-54.4	-84.7	102	5
2023-08-26T00:00	24043	31	-54.4	-84.7	106	5
2023-08-26T00:00	24078	31	-54.4	-84.7	111	5
2023-08-26T00:00	24099	31	-54.3	-84.6	116	5
2023-08-26T00:00	24124	31	-54.1	-84.5	121	6
2023-08-26T00:00	24146	30	-54.1	-84.5	126	6
2023-08-26T00:00	24176	30	-54.1	-84.5	129	6
2023-08-26T00:00	24199	30	-54.1	-84.5	131	6
2023-08-26T00:00	24219	30	-54.1	-84.5	133	6
2023-08-26T00:00	24254	30	-54.1	-84.5	136	6
2023-08-26T00:00	24277	30	-54.0	-84.4	139	6
2023-08-26T00:00	24309	30	-53.9	-84.3	142	6
2023-08-26T00:00	24333	30	-54.0	-84.4	146	6
2023-08-26T00:00	24355	29	-53.9	-84.3	148	6
2023-08-26T00:00	24385	29	-53.9	-84.3	149	6
2023-08-26T00:00	24408	29	-54.0	-84.4	149	6
2023-08-26T00:00	24434	29	-53.7	-84.7	147	5
2023-08-26T00:00	24453	29	-53.6	-84.6	145	5
2023-08-26T00:00	24481	29	-53.6	-84.6	143	5
2023-08-26T00:00	24513	29	-53.6	-84.6	142	5
2023-08-26T00:00	24534	29	-53.6	-84.6	140	4
2023-08-26T00:00	24553	29	-53.6	-84.6	139	4
2023-08-26T00:00	24579	28	-53.5	-84.6	139	4
2023-08-26T00:00	24605	28	-53.4	-84.5	142	4
2023-08-26T00:00	24627	28	-53.3	-84.4	147	4
2023-08-26T00:00	24655	28	-53.3	-84.4	154	4
2023-08-26T00:00	24681	28	-53.2	-84.4	161	4
2023-08-26T00:00	24708	28	-53.2	-84.4	169	4
2023-08-26T00:00	24734	28	-53.3	-84.4	176	4
2023-08-26T00:00	24754	28	-53.2	-84.4	180	4
2023-08-26T00:00	24786	28	-53.3	-84.4	183	4
2023-08-26T00:00	24808	27	-53.2	-84.4	182	4
2023-08-26T00:00	24838	27	-53.1	-84.3	179	4
2023-08-26T00:00	24862	27	-53.1	-84.3	174	3
2023-08-26T00:00	24890	27	-53.0	-84.2	163	3
2023-08-26T00:00	24908	27	-53.0	-84.2	147	3
2023-08-26T00:00	24940	27	-52.8	-84.1	127	3
2023-08-26T00:00	24968	27	-52.9	-84.1	109	3
2023-08-26T00:00	24995	27	-52.8	-84.1	96	4
2023-08-26T00:00	25023	27	-52.8	-84.1	89	4
2023-08-26T00:00	25044	26	-52.6	-83.9	87	5
2023-08-26T00:00	25075	26	-52.1	-84.2	87	5
2023-08-26T00:00	25100	26	-52.0	-84.1	91	6
2023-08-26T00:00	25125	26	-51.9	-84.0	96	6
2023-08-26T00:00	25150	26	-51.8	-83.9	103	6
2023-08-26T00:00	25176	26	-51.8	-83.9	111	5
2023-08-26T00:00	25201	26	-51.8	-83.9	121	5
2023-08-26T00:00	25230	26	-51.7	-83.9	133	5
2023-08-26T00:00	25258	26	-51.8	-83.3	145	4
2023-08-26T00:00	25279	25	-51.9	-83.4	157	4
2023-08-26T00:00	25305	25	-52.0	-83.5	168	4
2023-08-26T00:00	25332	25	-52.0	-83.5	179	4
2023-08-26T00:00	25359	25	-52.1	-83.5	190	4
2023-08-26T00:00	25387	25	-52.3	-83.7	199	4
2023-08-26T00:00	25414	25	-52.3	-83.7	206	4
2023-08-26T00:00	25437	25	-52.5	-83.8	211	4
2023-08-26T00:00	25466	25	-52.6	-83.9	214	4
2023-08-26T00:00	25486	25	-52.6	-83.9	214	3
2023-08-26T00:00	25511	25	-52.4	-83.8	212	3
2023-08-26T00:00	25537	25	-52.5	-83.8	211	3
2023-08-26T00:00	25556	24	-52.5	-83.8	212	2
2023-08-26T00:00	25590	24	-52.3	-83.7	217	2
2023-08-26T00:00	25610	24	-52.2	-83.6	223	2
2023-08-26T00:00	25635	24	-52.3	-84.3	227	3
2023-08-26T00:00	25667	24	-52.2	-84.2	227	3
2023-08-26T00:00	25692	24	-52.2	-84.2	223	3
2023-08-26T00:00	25713	24	-52.1	-84.2	215	3
2023-08-26T00:00	25747	24	-51.8	-83.9	205	2
2023-08-26T00:00	25771	24	-51.6	-83.8	192	2
2023-08-26T00:00	25798	24	-51.4	-83.6	181	2
2023-08-26T00:00	25818	23	-51.2	-83.5	173	1
2023-08-26T00:00	25845	23	-51.2	-83.5	171	1
2023-08-26T00:00	25870	23	-51.2	-83.5	170	1
2023-08-26T00:00	25895	23	-51.1	-83.4	161	1
2023-08-26T00:00	25927	23	-51.3	-83.6	135	1
2023-08-26T00:00	25947	23	-51.4	-83.6	113	1
2023-08-26T00:00	25978	23	-51.4	-83.6	107	1
2023-08-26T00:00	26001	23	-51.4	-83.6	108	2
2023-08-26T00:00	26022	23	-51.5	-83.7	110	3
2023-08-26T00:00	26047	23	-51.3	-83.6	114	3
2023-08-26T00:00	26072	23	-51.2	-83.5	118	3
2023-08-26T00:00	26102	22	-51.2	-83.5	123	3
2023-08-26T00:00	26124	22	-50.9	-83.3	127	3
2023-08-26T00:00	26156	22	-50.6	-83.7	132	3
2023-08-26T00:00	26183	22	-50.5	-83.7	136	2
2023-08-26T00:00	26201	22	-50.4	-83.6	140	1
2023-08-26T00:00	26231	22	-50.2	-83.5	150	1
2023-08-26T00:00	26252	22	-50.0	-83.3	234	0
2023-08-26T00:00	26280	22	-50.1	-83.4	288	1
2023-08-26T00:00	26309	22	-50.1	-83.4	291	1
2023-08-26T00:00	26336	22	-50.1	-83.4	289	2
2023-08-26T00:00	26351	22	-50.0	-83.3	288	2
2023-08-26T00:00	26390	22	-49.9	-83.2	289	2
2023-08-26T00:00	26410	21	-49.8	-83.2	296	2
2023-08-26T00:00	26434	21	-49.7	-83.1	312	2
2023-08-26T00:00	26458	21	-49.7	-83.1	340	1
2023-08-26T00:00	26489	21	-49.6	-83.0	7	2
2023-08-26T00:00	26510	21	-49.6	-82.3	25	2
2023-08-26T00:00	26543	21	-49.8	-82.5	37	2
2023-08-26T00:00	26563	21	-50.0	-82.6	46	3
2023-08-26T00:00	26595	21	-50.2	-82.8	53	3
2023-08-26T00:00	26616	21	-50.4	-82.9	59	4
2023-08-26T00:00	26643	21	-50.6	-83.1	63	4
2023-08-26T00:00	26669	21	-50.5	-83.0	67	4
2023-08-26T00:00	26694	21	-50.4	-82.9	71	4
2023-08-26T00:00	26722	20	-50.2	-82.8	74	4
2023-08-26T00:00	26734	20	-50.1	-82.7	77	4
2023-08-26T00:00	26774	20	-50.0	-83.3	78	4
2023-08-26T00:00	26794	20	-49.9	-83.2	77	4
2023-08-26T00:00	26825	20	-49.9	-83.2	74	3
2023-08-26T00:00	26847	20	-50.0	-83.3	69	3
2023-08-26T00:00	26875	20	-49.8	-83.2	61	3
2023-08-26T00:00	26897	20	-49.6	-83.0	54	3
2023-08-26T00:00	26934	20	-49.4	-82.9	49	3
2023-08-26T00:00	26953	20	-49.1	-82.7	47	3
2023-08-26T00:00	26980	20	-49.0	-82.6	49	3
2023-08-26T00:00	27005	20	-49.0	-82.6	55	3
2023-08-26T00:00	27031	19	-48.8	-82.4	65	3
2023-08-26T00:00	27063	19	-48.7	-82.4	78	3
2023-08-26T00:00	27088	19	-48.7	-82.4	91	4
2023-08-26T00:00	27109	19	-48.7	-82.4	103	4
2023-08-26T00:00	27134	19	-48.7	-82.4	112	5
2023-08-26T00:00	27161	19	-48.7	-82.4	118	6
2023-08-26T00:00	27191	19	-48.7	-82.4	121	6
2023-08-26T00:00	27220	19	-48.7	-82.4	122	7
2023-08-26T00:00	27245	19	-48.5	-82.2	120	7
2023-08-26T00:00	27269	19	-48.1	-82.7	118	6
2023-08-26T00:00	27284	19	-47.7	-82.4	115	6
2023-08-26T00:00	27319	19	-47.6	-82.4	112	5
2023-08-26T00:00	27339	19	-47.5	-82.3	111	5
2023-08-26T00:00	27366	19	-47.6	-82.4	110	4
2023-08-26T00:00	27387	18	-47.6	-82.4	109	4
2023-08-26T00:00	27423	18	-47.6	-81.6	106	3
2023-08-26T00:00	27441	18	-47.8	-81.7	101	3
2023-08-26T00:00	27466	18	-48.0	-81.9	96	3
2023-08-26T00:00	27485	18	-47.8	-81.7	91	3
2023-08-26T00:00	27517	18	-47.9	-81.8	89	2
2023-08-26T00:00	27536	18	-47.9	-81.8	87	2
2023-08-26T00:00	27561	18	-47.9	-81.8	86	2
2023-08-26T00:00	27583	18	-47.9	-82.6	84	2
2023-08-26T00:00	27619	18	-47.6	-82.4	81	2
2023-08-26T00:00	27634	18	-47.6	-82.4	79	2
2023-08-26T00:00	27661	18	-47.3	-82.2	76	2
2023-08-26T00:00	27683	18	-47.0	-81.9	74	2
2023-08-26T00:00	27711	18	-46.9	-81.9	72	3
2023-08-26T00:00	27730	18	-46.9	-81.9	70	3
2023-08-26T00:00	27759	17	-46.8	-81.8	70	3
2023-08-26T00:00	27795	17	-46.9	-81.9	74	3
2023-08-26T00:00	27812	17	-46.8	-81.8	85	3
2023-08-26T00:00	27840	17	-46.5	-81.6	99	3
2023-08-26T00:00	27857	17	-46.3	-81.4	110	4
2023-08-26T00:00	27891	17	-46.2	-81.4	115	4
2023-08-26T00:00	27922	17	-45.9	-82.1	115	4
2023-08-26T00:00	27934	17	-45.7	-81.9	111	4
2023-08-26T00:00	27949	17	-45.4	-81.7	108	4
2023-08-26T00:00	27977	17	-45.3	-81.6	107	4
2023-08-26T00:00	28018	17	-45.1	-81.5	110	3
2023-08-26T00:00	28039	17	-44.9	-81.4	118	3
2023-08-26T00:00	28067	17	-44.8	-81.3	131	3
2023-08-26T00:00	28088	17	-44.7	-81.2	144	3
2023-08-26T00:00	28114	17	-44.6	-81.2	153	3
2023-08-26T00:00	28144	16	-44.4	-81.0	158	4
2023-08-26T00:00	28166	16	-44.4	-81.0	162	4
2023-08-26T00:00	28192	16	-44.2	-80.9	163	4
2023-08-26T00:00	28230	16	-44.0	-80.7	161	3
2023-08-26T00:00	28259	16	-43.2	-80.2	155	3
2023-08-26T00:00	28286	16	-43.1	-80.1	140	2
2023-08-26T00:00	28305	16	-43.1	-80.1	113	2
2023-08-26T00:00	28334	16	-43.2	-80.2	86	2
2023-08-26T00:00	28367	16	-43.5	-80.4	70	2
2023-08-26T00:00	28395	16	-43.7	-80.5	62	3
2023-08-26T00:00	28427	16	-43.9	-80.7	57	3
2023-08-26T00:00	28454	16	-44.2	-80.9	55	4
2023-08-26T00:00	28482	16	-44.2	-80.9	55	4
2023-08-26T00:00	28504	16	-43.9	-80.7	57	5
2023-08-26T00:00	28538	16	-43.6	-80.4	61	5
2023-08-26T00:00	28570	15	-43.3	-80.2	66	6
2023-08-26T00:00	28589	15	-43.0	-80.0	71	6
2023-08-26T00:00	28623	15	-43.0	-81.1	77	6
2023-08-26T00:00	28648	15	-42.7	-80.9	84	6
2023-08-26T00:00	28661	15	-42.5	-80.8	92	5
2023-08-26T00:00	28698	15	-42.4	-80.7	102	5
2023-08-26T00:00	28720	15	-42.2	-80.6	112	5
2023-08-26T00:00	28748	15	-42.2	-80.6	123	5
2023-08-26T00:00	28769	15	-42.2	-80.6	134	4
2023-08-26T00:00	28799	15	-42.2	-80.6	146	4
2023-08-26T00:00	28830	15	-42.2	-80.6	157	4
2023-08-26T00:00	28865	15	-42.1	-79.4	166	4
2023-08-26T00:00	28889	15	-42.1	-79.4	175	4
2023-08-26T00:00	28913	15	-42.2	-79.5	182	4
2023-08-26T00:00	28939	15	-42.0	-80.4	190	3
2023-08-26T00:00	28960	15	-42.0	-80.4	197	3
2023-08-26T00:00	28988	15	-41.9	-80.4	204	3
2023-08-26T00:00	29010	15	-41.8	-80.3	211	2
2023-08-26T00:00	29047	14	-41.7	-80.2	216	2
2023-08-26T00:00	29062	14	-41.6	-80.1	218	2
2023-08-26T00:00	29086	14	-41.6	-80.1	215	1
2023-08-26T00:00	29107	14	-41.6	-80.1	200	1
2023-08-26T00:00	29136	14	-41.5	-80.1	147	0
2023-08-26T00:00	29156	14	-41.4	-80.0	86	1
2023-08-26T00:00	29195	14	-41.4	-80.0	66	1
2023-08-26T00:00	29210	14	-41.3	-79.9	58	1
2023-08-26T00:00	29242	14	-41.4	-80.0	55	1
2023-08-26T00:00	29269	14	-41.4	-80.0	59	1
2023-08-26T00:00	29301	14	-41.4	-80.0	79	1
2023-08-26T00:00	29319	14	-41.3	-79.9	132	0
2023-08-26T00:00	29337	14	-41.2	-79.9	165	1
2023-08-26T00:00	29379	14	-41.2	-79.9	176	1
2023-08-26T00:00	29398	14	-41.2	-79.9	181	1
2023-08-26T00:00	29429	14	-41.3	-79.9	188	1
2023-08-26T00:00	29454	14	-41.4	-80.0	198	1
2023-08-26T00:00	29477	14	-41.5	-80.1	210	2
2023-08-26T00:00	29502	13	-41.5	-80.1	220	2
2023-08-26T00:00	29536	13	-41.4	-80.0	225	3
2023-08-26T00:00	29551	13	-41.4	-80.0	225	3
2023-08-26T00:00	29575	13	-41.3	-79.9	221	4
2023-08-26T00:00	29618	13	-41.3	-79.9	213	4
2023-08-26T00:00	29647	13	-41.1	-79.8	204	4
2023-08-26T00:00	29662	13	-41.0	-79.7	196	4
2023-08-26T00:00	29706	13	-40.9	-79.7	189	5
2023-08-26T00:00	29729	13	-40.7	-79.5	185	5
2023-08-26T00:00	29761	13	-40.5	-79.4	184	5
2023-08-26T00:00	29783	13	-40.5	-79.4	187	5
2023-08-26T00:00	29812	13	-40.4	-79.3	191	5
2023-08-26T00:00	29853	13	-40.4	-79.3	195	5
2023-08-26T00:00	29877	13	-40.6	-79.5	200	5
2023-08-26T00:00	29903	13	-40.8	-79.6	204	5
2023-08-26T00:00	29937	13	-41.0	-79.7	208	5
2023-08-26T00:00	29965	13	-41.1	-79.8	212	5
2023-08-26T00:00	29992	13	-41.1	-79.8	216	4
2023-08-26T00:00	30011	13	-41.1	-79.8	221	4
2023-08-26T00:00	30043	12	-41.0	-79.7	229	3
2023-08-26T00:00	30065	12	-41.0	-79.7	239	3
2023-08-26T00:00	30101	12	-41.0	-79.7	249	3
2023-08-26T00:00	30139	12	-40.8	-79.6	259	3
2023-08-26T00:00	30168	12	-40.8	-79.6	266	3
2023-08-26T00:00	30182	12	-40.8	-79.6	269	3
2023-08-26T00:00	30216	12	-40.8	-79.6	267	2
2023-08-26T00:00	30256	12	-40.9	-79.7	248	1
2023-08-26T00:00	30281	12	-40.7	-79.5	195	1
2023-08-26T00:00	30307	12	-40.7	-79.5	161	2
2023-08-26T00:00	30318	12	-40.7	-79.5	150	2
2023-08-26T00:00	30368	12	-40.8	-79.6	144	3
2023-08-26T00:00	30387	12	-40.9	-79.7	140	4
2023-08-26T00:00	30421	12	-41.1	-79.8	136	4
2023-08-26T00:00	30423	12	-41.2	-79.9	133	5
2023-08-26T00:00	30464	12	-41.4	-80.0	130	5
2023-08-26T00:00	30482	12	-41.6	-80.1	128	6
2023-08-26T00:00	30516	12	-41.6	-80.1	129	6
2023-08-26T00:00	30521	12	-41.7	-80.2	132	7
2023-08-26T00:00	30551	12	-41.7	-80.2	136	7
2023-08-26T00:00	30571	12	-41.3	-79.9	141	7
2023-08-26T00:00	30587	11	-41.2	-79.9	147	7
2023-08-26T00:00	30626	11	-41.2	-79.9	153	7
2023-08-26T00:00	30633	11	-41.3	-79.9	159	7
2023-08-26T00:00	30670	11	-41.4	-80.0	165	7
2023-08-26T00:00	30703	11	-41.4	-80.0	171	8
2023-08-26T00:00	30737	11	-41.5	-80.1	183	8
2023-08-26T00:00	30754	11	-41.5	-80.1	187	8
2023-08-26T00:00	30783	11	-41.5	-80.1	190	9
2023-08-26T00:00	30795	11	-41.5	-80.1	191	9
2023-08-26T00:00	30836	11	-41.5	-80.1	191	9
2023-08-26T00:00	30853	11	-41.4	-80.0	191	8
2023-08-26T00:00	30892	11	-41.2	-79.9	191	8
2023-08-26T00:00	30897	11	-41.0	-79.7	192	8
2023-08-26T00:00	30932	11	-40.8	-79.6	193	7
2023-08-26T00:00	30960	11	-40.8	-79.6	194	7
2023-08-26T00:00	30987	11	-40.7	-79.5	195	6
2023-08-26T00:00	31022	11	-40.7	-79.5	195	6
2023-08-26T00:00	31036	11	-40.7	-79.5	194	5
2023-08-26T00:00	31072	11	-40.8	-79.6	191	5
2023-08-26T00:00	31091	11	-40.8	-79.6	186	4
2023-08-26T00:00	31118	11	-40.8	-79.6	179	4
2023-08-26T00:00	31151	11	-40.8	-79.6	171	4
2023-08-26T00:00	31182	11	-40.9	-79.7	164	4
2023-08-26T00:00	31207	11	-40.9	-79.7	161	5
2023-08-26T00:00	31234	10	-40.8	-79.6	160	6
2023-08-26T00:00	31268	10	-40.8	-79.6	161	6
2023-08-26T00:00	31283	10	-40.8	-79.6	163	7
2023-08-26T00:00	31319	10	-40.9	-79.7	166	7
2023-08-26T00:00	31348	10	-41.0	-79.7	168	7
2023-08-26T00:00	31377	10	-40.9	-79.7	169	7
2023-08-26T00:00	31427	10	-41.0	-79.7	171	7
2023-08-26T00:00	31455	10	-41.2	-79.9	172	7
2023-08-26T00:00	31489	10	-41.4	-80.0	173	6
2023-08-26T00:00	31501	10	-41.5	-80.1	172	6
2023-08-26T00:00	31542	10	-41.3	-79.9	169	6
2023-08-26T00:00	31577	10	-41.3	-79.9	165	6
2023-08-26T00:00	31619	10	-41.0	-79.7	161	6
2023-08-26T00:00	31648	10	-40.8	-79.6	159	6
2023-08-26T00:00	31685	10	-40.7	-79.5	158	6
2023-08-26T00:00	31701	10	-40.7	-79.5	158	7
2023-08-26T00:00	31740	10	-40.8	-79.6	159	7
2023-08-26T00:00	31756	10	-40.8	-79.6	161	7
2023-08-26T00:00	31794	10	-40.8	-79.6	164	7
2023-08-26T00:00	31817	10	-40.9	-79.7	168	7
2023-08-26T00:00	31860	10	-41.0	-79.7	174	7
2023-08-26T00:00	31887	10	-40.9	-79.7	181	7
2023-08-26T00:00	31894	9	-40.9	-79.7	187	7
2023-08-26T00:00	31927	9	-40.9	-79.7	192	7
2023-08-26T00:00	31970	9	-40.8	-79.6	195	7
2023-08-26T00:00	31998	9	-40.7	-79.5	198	7
2023-08-26T00:00	32022	9	-40.8	-79.6	200	6
2023-08-26T00:00	32034	9	-40.7	-79.5	203	6
2023-08-26T00:00	32068	9	-40.6	-79.5	209	5
2023-08-26T00:00	32095	9	-40.4	-79.3	219	4
2023-08-26T00:00	32121	9	-40.3	-79.2	235	3
2023-08-26T00:00	32154	9	-40.2	-79.2	256	3
2023-08-26T00:00	32159	9	-40.0	-79.0	275	3
2023-08-26T00:00	32173	9	-39.7	-78.8	293	3
2023-08-26T00:00	32215	9	-39.5	-78.7	311	3
2023-08-26T00:00	32235	9	-39.4	-78.6	329	3
2023-08-26T00:00	32255	9	-39.3	-78.5	346	3
2023-08-26T00:00	32275	9	-39.3	-78.5	360	3
2023-08-26T00:00	32292	9	-39.2	-78.5	10	4
2023-08-26T00:00	32330	9	-39.2	-78.5	17	4
2023-08-26T00:00	32343	9	-39.3	-78.5	23	4
2023-08-26T00:00	32359	9	-39.4	-78.6	28	4
2023-08-26T00:00	32395	9	-39.2	-78.5	34	4
2023-08-26T00:00	32405	9	-39.2	-78.5	40	3
2023-08-26T00:00	32428	9	-39.2	-78.5	48	3
2023-08-26T00:00	32448	9	-39.1	-78.4	60	2
2023-08-26T00:00	32456	9	-38.9	-78.3	77	2
2023-08-26T00:00	32496	9	-38.9	-78.3	100	1
2023-08-26T00:00	32498	9	-38.9	-78.3	128	1
2023-08-26T00:00	32514	9	-38.9	-78.3	152	2
2023-08-26T00:00	32528	9	-38.9	-78.3	165	2
2023-08-26T00:00	32572	9	-38.7	-78.1	171	2
2023-08-26T00:00	32600	9	-38.6	-78.1	171	3
2023-08-26T00:00	32611	9	-38.4	-77.9	171	3
2023-08-26T00:00	32617	9	-38.4	-77.9	171	3
2023-08-26T00:00	32657	9	-38.2	-77.8	174	4
2023-08-26T00:00	32680	8	-37.9	-77.6	181	3
2023-08-26T00:00	32704	8	-37.6	-77.4	191	3
2023-08-26T00:00	32730	8	-37.3	-77.2	206	3
2023-08-26T00:00	32763	8	-37.1	-77.0	237	3
2023-08-26T00:00	32787	8	-37.1	-77.0	251	3
2023-08-26T00:00	32803	8	-37.0	-77.0	264	2
2023-08-26T00:00	32849	8	-36.9	-76.9	278	2
2023-08-26T00:00	32862	8	-36.8	-76.8	293	1
2023-08-26T00:00	32914	8	-36.7	-76.7	313	1
2023-08-26T00:00	32954	8	-36.6	-76.7	45	1
2023-08-26T00:00	32984	8	-36.6	-76.7	73	1
2023-08-26T00:00	32994	8	-36.6	-76.7	85	1
2023-08-26T00:00	33018	8	-36.6	-76.7	92	2
2023-08-26T00:00	33070	8	-36.7	-76.7	97	2
2023-08-26T00:00	33108	8	-36.8	-76.8	106	2
2023-08-26T00:00	33135	8	-36.8	-76.8	110	1
2023-08-26T00:00	33152	8	-36.7	-76.7	114	1
2023-08-26T00:00	33212	8	-36.8	-76.8	118	1
2023-08-26T00:00	33242	8	-36.7	-76.7	129	1
2023-08-26T00:00	33252	8	-36.6	-76.7	130	1
2023-08-26T00:00	33281	8	-36.6	-76.7	124	1
2023-08-26T00:00	33333	8	-36.4	-76.5	112	1
2023-08-26T00:00	33351	8	-36.3	-76.5	104	1
2023-08-26T00:00	33354	8	-35.9	-76.2	101	1
2023-08-26T00:00	33382	8	-35.7	-76.1	105	2
2023-08-26T00:00	33407	8	-35.6	-76.0	113	2
2023-08-26T00:00	33458	8	-35.6	-76.0	123	3
2023-08-26T00:00	33463	8	-35.5	-75.9	134	3
2023-08-26T00:00	33500	8	-35.3	-75.8	144	3
2023-08-26T00:00	33539	7	-35.3	-75.8	159	4
2023-08-26T00:00	33552	7	-35.4	-75.8	164	5
2023-08-26T00:00	33569	7	-35.5	-75.9	167	6
2023-08-26T00:00	33600	7	-35.4	-75.8	168	7
2023-08-26T00:00	33624	7	-35.4	-75.8	169	7
2023-08-26T00:00	33652	7	-35.4	-75.8	169	8
2023-08-26T00:00	33685	7	-35.2	-75.7	168	8
2023-08-26T00:00	33717	7	-35.2	-75.7	166	8
2023-08-26T06:00	112	995	17.5	16.5	190	2
2023-08-26T06:00	138	992	17.6	16.7	219	3
2023-08-26T06:00	167	989	18.4	16.4	221	4
2023-08-26T06:00	196	986	19.3	16.6	227	5
2023-08-26T06:00	221	983	19.7	16.8	234	6
2023-08-26T06:00	249	980	19.7	16.8	242	7
2023-08-26T06:00	277	976	20.2	16.8	249	8
2023-08-26T06:00	307	973	20.2	16.8	254	9
2023-08-26T06:00	328	971	20.4	16.9	257	9
2023-08-26T06:00	351	968	20.5	16.9	259	9
2023-08-26T06:00	377	965	20.4	17.1	260	9
2023-08-26T06:00	401	962	20.3	16.7	261	9
2023-08-26T06:00	429	960	20.2	16.3	262	10
2023-08-26T06:00	456	957	20.0	16.1	262	10
2023-08-26T06:00	485	954	20.0	15.6	262	11
2023-08-26T06:00	506	951	20.2	15.8	262	11
2023-08-26T06:00	530	948	20.0	15.7	262	11
2023-08-26T06:00	554	946	19.9	15.9	262	11
2023-08-26T06:00	579	943	19.6	15.9	262	11
2023-08-26T06:00	602	940	19.6	15.7	263	11
2023-08-26T06:00	626	938	19.6	15.4	263	11
2023-08-26T06:00	648	935	19.4	15.2	263	12
2023-08-26T06:00	673	933	19.3	15.3	263	12
2023-08-26T06:00	698	930	19.0	15.6	262	12
2023-08-26T06:00	721	928	18.8	15.7	262	12
2023-08-26T06:00	745	925	18.6	15.2	261	12
2023-08-26T06:00	767	922	18.5	15.1	259	12
2023-08-26T06:00	794	920	18.3	15.3	257	12
2023-08-26T06:00	816	917	18.0	15.6	255	12
2023-08-26T06:00	840	915	17.9	16.3	253	12
2023-08-26T06:00	861	913	17.8	16.3	251	12
2023-08-26T06:00	882	910	17.7	16.1	251	13
2023-08-26T06:00	907	908	17.6	16.0	251	13
2023-08-26T06:00	932	905	17.6	15.8	252	13
2023-08-26T06:00	956	903	17.6	15.2	253	14
2023-08-26T06:00	982	900	17.6	15.2	253	14
2023-08-26T06:00	1006	897	17.4	15.1	253	14
2023-08-26T06:00	1031	895	17.3	14.5	252	14
2023-08-26T06:00	1056	892	17.1	14.3	250	14
2023-08-26T06:00	1079	890	16.9	14.1	248	14
2023-08-26T06:00	1103	887	16.7	13.9	246	14
2023-08-26T06:00	1129	884	16.5	13.4	244	14
2023-08-26T06:00	1156	882	16.3	13.3	242	14
2023-08-26T06:00	1185	879	16.2	13.2	241	14
2023-08-26T06:00	1210	876	16.1	12.8	240	13
2023-08-26T06:00	1240	873	16.1	12.5	240	13
2023-08-26T06:00	1269	870	16.1	11.8	239	13
2023-08-26T06:00	1298	867	16.0	11.4	237	13
2023-08-26T06:00	1326	864	15.8	11.6	236	13
2023-08-26T06:00	1352	862	15.6	11.7	233	13
2023-08-26T06:00	1381	859	15.7	10.0	231	13
2023-08-26T06:00	1408	856	15.6	9.9	230	13
2023-08-26T06:00	1435	853	15.4	10.2	228	13
2023-08-26T06:00	1461	851	15.1	10.1	227	13
2023-08-26T06:00	1487	848	14.9	10.2	226	13
2023-08-26T06:00	1515	845	14.7	9.8	226	13
2023-08-26T06:00	1543	843	14.6	9.6	226	13
2023-08-26T06:00	1572	840	14.4	9.5	226	13
2023-08-26T06:00	1600	837	14.2	8.9	226	13
2023-08-26T06:00	1626	834	14.0	8.8	227	12
2023-08-26T06:00	1653	831	13.7	8.7	228	12
2023-08-26T06:00	1679	829	13.6	8.6	228	12
2023-08-26T06:00	1705	827	13.6	7.6	229	12
2023-08-26T06:00	1728	824	13.4	7.7	229	12
2023-08-26T06:00	1757	822	13.5	6.9	229	12
2023-08-26T06:00	1780	819	13.3	6.2	229	12
2023-08-26T06:00	1806	817	13.1	6.3	228	12
2023-08-26T06:00	1831	814	13.0	6.5	227	12
2023-08-26T06:00	1859	812	12.7	6.5	226	11
2023-08-26T06:00	1886	809	12.5	6.8	225	11
2023-08-26T06:00	1912	806	12.3	7.4	225	11
2023-08-26T06:00	1940	804	12.0	7.3	225	11
2023-08-26T06:00	1971	801	11.8	7.3	226	11
2023-08-26T06:00	1998	798	11.5	7.2	227	12
2023-08-26T06:00	2026	796	11.3	7.1	227	12
2023-08-26T06:00	2054	793	11.0	7.1	226	12
2023-08-26T06:00	2079	790	10.8	7.0	225	11
2023-08-26T06:00	2107	788	10.6	6.3	224	11
2023-08-26T06:00	2136	785	10.4	6.0	223	11
2023-08-26T06:00	2164	783	10.3	5.8	223	11
2023-08-26T06:00	2188	780	10.2	4.2	222	10
2023-08-26T06:00	2217	777	10.2	3.4	221	10
2023-08-26T06:00	2249	775	10.0	3.3	220	9
2023-08-26T06:00	2278	772	9.8	2.7	219	9
2023-08-26T06:00	2305	769	9.6	2.5	218	9
2023-08-26T06:00	2334	767	9.5	2.1	217	9
2023-08-26T06:00	2358	764	9.4	1.9	218	9
2023-08-26T06:00	2384	762	9.2	2.1	219	9
2023-08-26T06:00	2411	759	8.9	2.0	220	9
2023-08-26T06:00	2443	757	8.6	1.9	220	9
2023-08-26T06:00	2467	754	8.4	2.0	220	9
2023-08-26T06:00	2493	752	8.2	1.9	221	9
2023-08-26T06:00	2520	750	7.9	1.7	221	9
2023-08-26T06:00	2548	747	7.6	1.7	221	9
2023-08-26T06:00	2576	745	7.4	1.5	221	9
2023-08-26T06:00	2598	743	7.3	1.5	220	9
2023-08-26T06:00	2620	741	7.0	1.4	218	9
2023-08-26T06:00	2644	739	6.9	1.5	216	9
2023-08-26T06:00	2666	736	6.7	1.4	214	8
2023-08-26T06:00	2690	734	6.5	1.3	212	8
2023-08-26T06:00	2715	732	6.3	1.2	210	8
2023-08-26T06:00	2738	730	6.1	1.1	210	8
2023-08-26T06:00	2758	728	5.9	1.1	210	9
2023-08-26T06:00	2778	726	5.7	1.0	210	9
2023-08-26T06:00	2797	725	5.5	1.1	211	9
2023-08-26T06:00	2817	723	5.3	0.9	212	9
2023-08-26T06:00	2839	721	5.3	0.8	211	9
2023-08-26T06:00	2858	719	5.3	0.8	210	9
2023-08-26T06:00	2877	718	5.2	1.0	208	9
2023-08-26T06:00	2899	716	5.0	1.0	205	9
2023-08-26T06:00	2923	714	4.8	1.2	203	9
2023-08-26T06:00	2946	712	4.6	1.2	201	9
2023-08-26T06:00	2966	710	4.4	1.3	200	9
2023-08-26T06:00	2985	708	4.3	1.4	200	9
2023-08-26T06:00	3002	707	4.2	1.4	202	10
2023-08-26T06:00	3023	705	4.0	1.3	205	10
2023-08-26T06:00	3042	703	3.9	1.4	208	11
2023-08-26T06:00	3064	701	3.7	1.3	211	11
2023-08-26T06:00	3087	699	3.9	1.3	213	12
2023-08-26T06:00	3111	697	3.8	1.2	214	13
2023-08-26T06:00	3137	695	3.9	1.1	215	13
2023-08-26T06:00	3162	693	3.9	1.2	216	14
2023-08-26T06:00	3191	691	3.7	1.1	216	14
2023-08-26T06:00	3218	688	3.5	0.8	217	14
2023-08-26T06:00	3239	686	3.4	0.6	217	14
2023-08-26T06:00	3268	684	3.1	0.4	217	14
2023-08-26T06:00	3289	682	2.9	0.2	217	14
2023-08-26T06:00	3316	680	2.6	0.1	218	14
2023-08-26T06:00	3346	678	2.3	0.0	218	14
2023-08-26T06:00	3372	676	2.1	0.1	218	14
2023-08-26T06:00	3391	674	1.8	0.0	219	14
2023-08-26T06:00	3410	672	1.5	-0.1	221	14
2023-08-26T06:00	3427	671	1.3		222	14
2023-08-26T06:00	3445	669	1.2	0.1	225	14
2023-08-26T06:00	3464	668	1.0	0.0	227	14
2023-08-26T06:00	3481	666	0.9	-0.2	228	14
2023-08-26T06:00	3498	665	0.9	-0.5	229	14
2023-08-26T06:00	3514	663	0.8	-0.5	229	13
2023-08-26T06:00	3533	662	0.7	-0.6	228	13
2023-08-26T06:00	3554	660	0.6	-0.6	226	13
2023-08-26T06:00	3574	659	0.6	-0.3	224	12
2023-08-26T06:00	3594	657	0.5	-0.4	222	12
2023-08-26T06:00	3613	655	0.3	-0.5	220	12
2023-08-26T06:00	3629	654	0.2	-0.8	219	12
2023-08-26T06:00	3647	653	0.1	-0.7	217	12
2023-08-26T06:00	3665	651	0.0	-0.8	216	12
2023-08-26T06:00	3685	650	-0.1	-1.0	216	12
2023-08-26T06:00	3704	648	-0.2	-1.2	216	12
2023-08-26T06:00	3723	646	-0.3	-1.2	218	12
2023-08-26T06:00	3742	645	-0.5	-1.4	220	12
2023-08-26T06:00	3759	644	-0.6	-1.4	222	13
2023-08-26T06:00	3779	642	-0.7	-1.6	223	13
2023-08-26T06:00	3799	640	-0.8	-1.7	223	14
2023-08-26T06:00	3817	639	-0.9	-1.8	222	15
2023-08-26T06:00	3835	638	-1.0	-1.7	221	15
2023-08-26T06:00	3852	636	-1.1	-1.8	219	16
2023-08-26T06:00	3870	635	-1.1	-1.8	218	16
2023-08-26T06:00	3889	633	-1.2	-1.9	217	16
2023-08-26T06:00	3906	632	-1.3	-2.0	216	16
2023-08-26T06:00	3923	631	-1.5		215	16
2023-08-26T06:00	3942	629	-1.6	-2.3	213	16
2023-08-26T06:00	3958	628	-1.7	-2.4	211	15
2023-08-26T06:00	3977	626	-1.7	-2.4	209	14
2023-08-26T06:00	3995	625	-1.8	-2.5	209	14
2023-08-26T06:00	4013	623	-1.9	-2.6	209	13
2023-08-26T06:00	4031	622	-2.0	-2.8	211	13
2023-08-26T06:00	4048	621	-2.1	-2.9	212	13
2023-08-26T06:00	4067	619	-2.2	-3.0	212	14
2023-08-26T06:00	4085	618	-2.3	-3.1	210	14
2023-08-26T06:00	4105	616	-2.4	-3.2	208	15
2023-08-26T06:00	4122	615	-2.5	-3.3	206	15
2023-08-26T06:00	4143	613	-2.6	-3.5	206	15
2023-08-26T06:00	4164	612	-2.7	-3.6	208	14
2023-08-26T06:00	4186	610	-2.8	-3.6	210	14
2023-08-26T06:00	4206	608	-2.9	-3.7	213	14
2023-08-26T06:00	4228	607	-3.1	-3.9	215	14
2023-08-26T06:00	4249	605	-3.3	-4.0	216	14
2023-08-26T06:00	4270	604	-3.4	-4.0	215	15
2023-08-26T06:00	4291	602	-3.5	-4.1	215	15
2023-08-26T06:00	4315	600	-3.6	-4.2	214	15
2023-08-26T06:00	4338	599	-3.8	-4.4	213	15
2023-08-26T06:00	4358	597	-4.0	-4.6	214	14
2023-08-26T06:00	4378	595	-4.1	-4.6	214	14
2023-08-26T06:00	4400	594	-4.2	-4.7	216	14
2023-08-26T06:00	4422	592	-4.3	-4.8	217	14
2023-08-26T06:00	4444	590	-4.4	-4.9	218	14
2023-08-26T06:00	4467	589	-4.6	-5.0	218	14
2023-08-26T06:00	4487	587	-4.8	-5.2	218	15
2023-08-26T06:00	4512	585	-4.9	-5.2	218	15
2023-08-26T06:00	4532	584	-5.0	-5.3	218	15
2023-08-26T06:00	4555	582	-5.2	-5.5	218	15
2023-08-26T06:00	4578	580	-5.3	-5.5	217	15
2023-08-26T06:00	4602	579	-5.5	-5.7	217	15
2023-08-26T06:00	4624	577	-5.6	-5.7	217	15
2023-08-26T06:00	4648	575	-5.8	-5.9	217	15
2023-08-26T06:00	4670	574	-5.9	-6.0	217	15
2023-08-26T06:00	4691	572	-6.0	-6.3	217	15
2023-08-26T06:00	4714	570	-6.1	-6.3	217	15
2023-08-26T06:00	4738	569	-6.2	-6.4	217	15
2023-08-26T06:00	4761	567	-6.3	-6.6	216	16
2023-08-26T06:00	4781	566	-6.3	-6.9	216	16
2023-08-26T06:00	4803	564	-6.3	-7.0	216	16
2023-08-26T06:00	4824	563	-6.3	-7.3	216	16
2023-08-26T06:00	4845	561	-6.4	-7.5	216	16
2023-08-26T06:00	4866	560	-6.6	-7.7	217	16
2023-08-26T06:00	4885	558	-6.7	-7.7	217	16
2023-08-26T06:00	4908	557	-6.8	-7.8	216	16
2023-08-26T06:00	4930	555	-7.0	-7.9	216	15
2023-08-26T06:00	4952	553	-7.2	-8.1	215	15
2023-08-26T06:00	4972	552	-7.3	-8.1	214	14
2023-08-26T06:00	4995	550	-7.5	-8.3	213	14
2023-08-26T06:00	5015	549	-7.6	-8.3	212	14
2023-08-26T06:00	5036	547	-7.7	-8.6	212	13
2023-08-26T06:00	5059	546	-7.9	-8.8	211	13
2023-08-26T06:00	5080	544	-8.0	-8.8	211	13
2023-08-26T06:00	5103	543	-8.2	-9.0	210	13
2023-08-26T06:00	5128	541	-8.3	-9.2	210	13
2023-08-26T06:00	5150	539	-8.4	-9.2	211	13
2023-08-26T06:00	5176	538	-8.6	-9.4	211	13
2023-08-26T06:00	5202	536	-8.8	-9.6	211	13
2023-08-26T06:00	5226	534	-9.0	-9.7	212	14
2023-08-26T06:00	5251	533	-9.2	-9.8	212	14
2023-08-26T06:00	5278	531	-9.4	-10.0	212	14
2023-08-26T06:00	5302	529	-9.5	-10.1	212	14
2023-08-26T06:00	5328	527	-9.7	-10.2	213	14
2023-08-26T06:00	5355	525	-9.9	-10.2	213	14
2023-08-26T06:00	5381	524	-10.0	-10.4	213	14
2023-08-26T06:00	5406	522	-10.2	-10.6	213	14
2023-08-26T06:00	5434	520	-10.4	-10.8	214	14
2023-08-26T06:00	5457	518	-10.6	-10.8	213	14
2023-08-26T06:00	5483	517	-10.7	-10.9	213	14
2023-08-26T06:00	5510	515	-10.9	-11.0	214	14
2023-08-26T06:00	5531	514	-11.1	-11.1	215	14
2023-08-26T06:00	5552	512	-11.2	-11.3	217	14
2023-08-26T06:00	5573	511	-11.3	-11.3	220	14
2023-08-26T06:00	5599	509	-11.4	-11.5	223	15
2023-08-26T06:00	5622	508	-11.5	-11.7	227	15
2023-08-26T06:00	5645	506	-11.6	-11.9	230	16
2023-08-26T06:00	5668	504	-11.5	-12.1	232	16
2023-08-26T06:00	5693	503	-11.7	-12.3	234	17
2023-08-26T06:00	5717	501	-11.8	-12.5	235	17
2023-08-26T06:00	5741	500	-11.9	-12.6	236	17
2023-08-26T06:00	5765	498	-12.1	-12.8	236	17
2023-08-26T06:00	5791	496	-12.2	-13.0	237	17
2023-08-26T06:00	5817	495	-12.4	-13.2	238	16
2023-08-26T06:00	5842	493	-12.6	-13.3	240	16
2023-08-26T06:00	5866	492	-12.7	-13.4	241	16
2023-08-26T06:00	5887	490	-12.8	-13.7	242	16
2023-08-26T06:00	5905	489	-13.0	-13.7	243	17
2023-08-26T06:00	5935	487	-13.1	-14.1	243	18
2023-08-26T06:00	5958	486	-13.3	-14.5	244	18
2023-08-26T06:00	5982	484	-13.4	-14.5	244	19
2023-08-26T06:00	6004	483	-13.6	-14.7	245	19
2023-08-26T06:00	6028	481	-13.7	-14.8	246	19
2023-08-26T06:00	6052	480	-13.9	-15.1	246	19
2023-08-26T06:00	6079	478	-14.0	-15.3	247	19
2023-08-26T06:00	6103	477	-14.1	-15.4	247	20
2023-08-26T06:00	6128	475	-14.1	-15.4	247	20
2023-08-26T06:00	6153	473	-14.3	-15.6	247	20
2023-08-26T06:00	6175	472	-14.4	-15.7	247	21
2023-08-26T06:00	6200	470	-14.6	-15.8	247	21
2023-08-26T06:00	6224	469	-14.8	-16.1	247	22
2023-08-26T06:00	6247	468	-14.9	-16.3	247	22
2023-08-26T06:00	6270	466	-15.1	-16.4	248	23
2023-08-26T06:00	6295	465	-15.2	-16.6	249	23
2023-08-26T06:00	6323	463	-15.4	-16.7	250	23
2023-08-26T06:00	6346	461	-15.6	-16.9	251	23
2023-08-26T06:00	6373	460	-15.8	-17.0	251	23
2023-08-26T06:00	6395	459	-15.9	-17.2	251	24
2023-08-26T06:00	6417	457	-16.1	-17.3	251	24
2023-08-26T06:00	6440	456	-16.2	-17.6	251	24
2023-08-26T06:00	6464	454	-16.4	-18.0	251	25
2023-08-26T06:00	6489	453	-16.6	-18.1	251	25
2023-08-26T06:00	6512	451	-16.7	-18.1	252	25
2023-08-26T06:00	6536	450	-16.9	-18.4	252	26
2023-08-26T06:00	6559	449	-17.1	-18.5	252	26
2023-08-26T06:00	6580	447	-17.3	-18.8	252	25
2023-08-26T06:00	6603	446	-17.4	-18.7	251	25
2023-08-26T06:00	6629	445	-17.6	-18.9	251	25
2023-08-26T06:00	6652	443	-17.8	-19.1	251	24
2023-08-26T06:00	6673	442	-17.9	-19.3	251	24
2023-08-26T06:00	6697	440	-18.1	-19.4	251	23
2023-08-26T06:00	6719	439	-18.2	-19.8	250	23
2023-08-26T06:00	6743	438	-18.3	-19.8	250	23
2023-08-26T06:00	6769	436	-18.5	-20.0	249	22
2023-08-26T06:00	6793	435	-18.6	-20.2	249	22
2023-08-26T06:00	6817	433	-18.8	-20.4	249	22
2023-08-26T06:00	6841	432	-19.0	-20.6	249	22
2023-08-26T06:00	6867	430	-19.2	-20.8	249	21
2023-08-26T06:00	6895	429	-19.4	-20.8	249	21
2023-08-26T06:00	6921	427	-19.6	-21.1	249	21
2023-08-26T06:00	6947	426	-19.8	-21.2	248	21
2023-08-26T06:00	6975	424	-20.0	-21.4	248	21
2023-08-26T06:00	7003	423	-20.2	-21.7	247	21
2023-08-26T06:00	7031	421	-20.4	-21.9	246	22
2023-08-26T06:00	7061	419	-20.5	-21.9	245	22
2023-08-26T06:00	7090	418	-20.7	-22.1	245	23
2023-08-26T06:00	7120	416	-20.7	-22.2	245	23
2023-08-26T06:00	7150	414	-20.9	-22.4	245	23
2023-08-26T06:00	7176	413	-21.1	-22.7	245	24
2023-08-26T06:00	7200	412	-21.3	-23.0	246	24
2023-08-26T06:00	7224	410	-21.5	-23.6	246	24
2023-08-26T06:00	7250	409	-21.7	-23.8	246	25
2023-08-26T06:00	7275	407	-21.9	-23.9	246	25
2023-08-26T06:00	7300	406	-22.1	-24.0	246	25
2023-08-26T06:00	7328	405	-22.3	-24.3	246	26
2023-08-26T06:00	7350	403	-22.5	-24.6	245	26
2023-08-26T06:00	7376	402	-22.6	-24.6	243	26
2023-08-26T06:00	7400	400	-22.8	-24.8	242	26
2023-08-26T06:00	7429	399	-23.0	-25.1	241	25
2023-08-26T06:00	7456	398	-23.2	-25.3	240	25
2023-08-26T06:00	7481	396	-23.4	-25.5	239	24
2023-08-26T06:00	7506	395	-23.6	-25.8	238	24
2023-08-26T06:00	7528	394	-23.7	-25.9	237	24
2023-08-26T06:00	7547	393	-23.9	-26.0	236	24
2023-08-26T06:00	7573	391	-24.0	-26.2	234	23
2023-08-26T06:00	7598	390	-24.2	-26.3	234	23
2023-08-26T06:00	7628	388	-24.4	-26.4	233	22
2023-08-26T06:00	7655	387	-24.7	-26.6	233	22
2023-08-26T06:00	7682	385	-24.9	-26.8	234	21
2023-08-26T06:00	7706	384	-25.1	-26.9	234	20
2023-08-26T06:00	7731	383	-25.3	-27.3	235	20
2023-08-26T06:00	7755	382	-25.4	-27.5	235	20
2023-08-26T06:00	7785	380	-25.7	-27.7	235	20
2023-08-26T06:00	7813	378	-25.9	-28.1	234	20
2023-08-26T06:00	7844	377	-26.1	-28.1	233	20
2023-08-26T06:00	7875	375	-26.4	-28.3	231	20
2023-08-26T06:00	7907	374	-26.6	-28.6	229	21
2023-08-26T06:00	7939	372	-26.9	-28.8	228	22
2023-08-26T06:00	7971	370	-27.1	-29.0	226	22
2023-08-26T06:00	8002	369	-27.3	-29.3	225	22
2023-08-26T06:00	8031	367	-27.5	-29.4	225	23
2023-08-26T06:00	8056	366	-27.7	-29.6	225	23
2023-08-26T06:00	8089	364	-27.8	-29.9	226	23
2023-08-26T06:00	8126	362	-28.1	-30.2	227	24
2023-08-26T06:00	8156	361	-28.3	-30.5	227	24
2023-08-26T06:00	8184	359	-28.5	-30.7	227	24
2023-08-26T06:00	8216	358	-28.7	-30.8	226	25
2023-08-26T06:00	8244	356	-28.9	-31.1	226	26
2023-08-26T06:00	8277	355	-29.2	-31.3	226	26
2023-08-26T06:00	8312	353	-29.4	-31.6	225	27
2023-08-26T06:00	8347	351	-29.7	-31.9	225	27
2023-08-26T06:00	8382	350	-29.9	-32.1	224	27
2023-08-26T06:00	8411	348	-30.2	-32.5	224	28
2023-08-26T06:00	8444	347	-30.5	-32.8	224	28
2023-08-26T06:00	8477	345	-30.7	-33.1	224	28
2023-08-26T06:00	8502	344	-31.0	-33.4	224	28
2023-08-26T06:00	8529	343	-31.2	-33.5	225	28
2023-08-26T06:00	8555	341	-31.4	-33.9	225	28
2023-08-26T06:00	8587	340	-31.6	-34.0	226	29
2023-08-26T06:00	8619	338	-31.8	-34.2	228	30
2023-08-26T06:00	8648	337	-32.0	-34.5	230	30
2023-08-26T06:00	8671	336	-32.2	-34.5	231	31
2023-08-26T06:00	8703	334	-32.5	-34.8	232	31
2023-08-26T06:00	8735	333	-32.8	-35.1	232	32
2023-08-26T06:00	8759	332	-33.0	-35.5	231	32
2023-08-26T06:00	8783	330	-33.2	-35.7	230	32
2023-08-26T06:00	8806	329	-33.4	-35.8	228	32
2023-08-26T06:00	8835	328	-33.6	-36.1	227	32
2023-08-26T06:00	8860	327	-33.8	-36.4	227	33
2023-08-26T06:00	8886	326	-34.0	-36.6	227	33
2023-08-26T06:00	8913	324	-34.3	-36.8	227	33
2023-08-26T06:00	8939	323	-34.5	-36.9	227	33
2023-08-26T06:00	8969	322	-34.7	-37.0	226	33
2023-08-26T06:00	8996	321	-34.9	-37.4	226	34
2023-08-26T06:00	9021	319	-35.2	-37.4	226	34
2023-08-26T06:00	9052	318	-35.4	-37.8	226	35
2023-08-26T06:00	9080	317	-35.7	-38.1	226	35
2023-08-26T06:00	9102	316	-35.8	-38.4	227	35
2023-08-26T06:00	9122	315	-36.0	-38.4	227	35
2023-08-26T06:00	9148	314	-36.2	-38.5	227	35
2023-08-26T06:00	9178	312	-36.5	-39.0	227	35
2023-08-26T06:00	9201	311	-36.7	-39.2	227	36
2023-08-26T06:00	9228	310	-36.9	-39.4	227	36
2023-08-26T06:00	9254	309	-37.1	-39.4	228	36
2023-08-26T06:00	9283	308	-37.4	-39.8	228	36
2023-08-26T06:00	9308	306	-37.6	-39.9	229	36
2023-08-26T06:00	9344	305	-37.9	-40.4	229	36
2023-08-26T06:00	9369	304	-38.2	-41.0	229	36
2023-08-26T06:00	9398	302	-38.4	-41.2	229	36
2023-08-26T06:00	9423	301	-38.7	-41.4	229	36
2023-08-26T06:00	9457	300	-39.0	-41.4	229	36
2023-08-26T06:00	9485	299	-39.2	-41.4	229	36
2023-08-26T06:00	9514	297	-39.5	-42.0	229	36
2023-08-26T06:00	9542	296	-39.8	-43.2	229	36
2023-08-26T06:00	9577	295	-40.1	-43.8	231	36
2023-08-26T06:00	9608	293	-40.4		232	35
2023-08-26T06:00	9633	292	-40.6	-43.8	234	35
2023-08-26T06:00	9658	291	-40.9	-44.0	235	35
2023-08-26T06:00	9686	290	-41.1	-44.1	235	34
2023-08-26T06:00	9705	289	-41.3		234	34
2023-08-26T06:00	9735	288	-41.5	-44.4	233	34
2023-08-26T06:00	9764	287	-41.8	-44.8	232	35
2023-08-26T06:00	9795	285	-42.0	-44.9	231	35
2023-08-26T06:00	9822	284	-42.2	-44.9	231	36
2023-08-26T06:00	9858	283	-42.5	-45.1	232	37
2023-08-26T06:00	9880	282	-42.7		232	37
2023-08-26T06:00	9906	281	-43.0	-45.2	232	37
2023-08-26T06:00	9932	280	-43.1	-45.1	232	37
2023-08-26T06:00	9953	279	-43.4	-45.3	231	37
2023-08-26T06:00	9977	278	-43.6	-45.4	231	37
2023-08-26T06:00	9996	277	-43.7	-45.5	230	37
2023-08-26T06:00	10023	276	-44.0	-45.6	230	36
2023-08-26T06:00	10045	275	-44.2	-45.9	229	36
2023-08-26T06:00	10076	274	-44.5	-46.1	229	36
2023-08-26T06:00	10103	273	-44.6	-46.6	228	36
2023-08-26T06:00	10126	272	-44.8	-47.1	228	36
2023-08-26T06:00	10153	270	-45.1	-47.2	228	37
2023-08-26T06:00	10187	269	-45.3	-47.6	229	37
2023-08-26T06:00	10212	268	-45.5	-47.8	229	38
2023-08-26T06:00	10250	267	-45.7	-47.9	230	39
2023-08-26T06:00	10270	266	-45.9	-48.2	230	39
2023-08-26T06:00	10298	265	-46.1	-48.3	230	40
2023-08-26T06:00	10331	264	-46.4	-48.6	230	40
2023-08-26T06:00	10351	263	-46.6	-48.8	230	40
2023-08-26T06:00	10375	262	-46.8	-49.1	230	40
2023-08-26T06:00	10401	261	-47.0	-49.4	230	41
2023-08-26T06:00	10437	259	-47.3	-50.3	229	41
2023-08-26T06:00	10461	258	-47.5	-51.0	229	41
2023-08-26T06:00	10479	258	-47.7	-51.3	230	41
2023-08-26T06:00	10502	257	-47.9	-51.8	230	41
2023-08-26T06:00	10532	256	-48.0	-52.4	230	41
2023-08-26T06:00	10562	254	-48.3	-53.0	230	41
2023-08-26T06:00	10581	254	-48.4	-53.2	230	41
2023-08-26T06:00	10600	253	-48.6	-53.3	230	41
2023-08-26T06:00	10619	252	-48.8	-53.4	230	41
2023-08-26T06:00	10640	251	-49.0	-53.6	230	41
2023-08-26T06:00	10664	250	-49.2	-53.8	230	41
2023-08-26T06:00	10687	250	-49.4	-53.9	230	41
2023-08-26T06:00	10713	249	-49.6	-54.1	229	42
2023-08-26T06:00	10739	248	-49.8	-54.1	229	42
2023-08-26T06:00	10764	247	-50.0	-54.3	229	42
2023-08-26T06:00	10792	246	-50.3	-54.6	228	43
2023-08-26T06:00	10824	244	-50.5	-55.1	228	43
2023-08-26T06:00	10841	244	-50.7	-55.4	228	43
2023-08-26T06:00	10861	243	-50.8	-55.3	228	43
2023-08-26T06:00	10883	242	-51.0	-55.4	228	44
2023-08-26T06:00	10907	241	-51.2	-55.5	229	44
2023-08-26T06:00	10936	240	-51.4	-55.7	229	44
2023-08-26T06:00	10960	239	-51.6	-55.9	229	45
2023-08-26T06:00	10984	238	-51.8	-56.0	230	45
2023-08-26T06:00	11003	238	-52.0	-56.0	230	45
2023-08-26T06:00	11026	237	-52.1	-56.0	230	46
2023-08-26T06:00	11044	236	-52.2	-56.1	229	46
2023-08-26T06:00	11064	235	-52.4	-56.4	229	46
2023-08-26T06:00	11083	235	-52.5	-56.6	229	46
2023-08-26T06:00	11104	234	-52.5	-56.7	229	46
2023-08-26T06:00	11125	233	-52.7	-56.8	229	47
2023-08-26T06:00	11151	232	-52.8	-56.9	229	47
2023-08-26T06:00	11172	232	-53.0	-57.3	229	47
2023-08-26T06:00	11198	231	-53.2	-57.8	228	48
2023-08-26T06:00	11228	230	-53.4	-58.3	228	48
2023-08-26T06:00	11255	229	-53.5	-58.6	228	48
2023-08-26T06:00	11278	228	-53.7	-58.7	228	48
2023-08-26T06:00	11305	227	-54.0	-58.8	228	47
2023-08-26T06:00	11333	226	-54.2	-59.0	228	47
2023-08-26T06:00	11362	225	-54.5	-59.7	228	47
2023-08-26T06:00	11392	224	-54.6	-60.3	228	47
2023-08-26T06:00	11416	223	-54.8	-60.5	228	47
2023-08-26T06:00	11447	222	-55.1	-60.6	227	47
2023-08-26T06:00	11479	221	-55.3	-60.6	227	47
2023-08-26T06:00	11506	220	-55.5	-60.7	227	47
2023-08-26T06:00	11533	219	-55.7	-60.9	227	47
2023-08-26T06:00	11555	218	-55.9	-61.3	227	47
2023-08-26T06:00	11580	217	-56.0	-61.5	227	48
2023-08-26T06:00	11603	217	-56.2	-61.8	227	48
2023-08-26T06:00	11625	216	-56.4	-61.9	227	49
2023-08-26T06:00	11648	215	-56.6	-62.1	228	49
2023-08-26T06:00	11678	214	-56.7	-62.4	228	49
2023-08-26T06:00	11701	213	-56.8	-62.9	229	49
2023-08-26T06:00	11721	212	-56.6	-62.9	230	49
2023-08-26T06:00	11744	212	-56.7	-62.9	232	49
2023-08-26T06:00	11774	211	-56.9	-62.7	233	49
2023-08-26T06:00	11819	209	-56.4	-62.3	235	49
2023-08-26T06:00	11854	208	-56.2	-62.4	236	49
2023-08-26T06:00	11871	208	-56.2	-62.5	237	49
2023-08-26T06:00	11890	207	-56.3	-62.5	237	49
2023-08-26T06:00	11912	206	-56.4		237	49
2023-08-26T06:00	11933	206	-56.5	-62.2	237	49
2023-08-26T06:00	11954	205	-56.7	-62.4	238	48
2023-08-26T06:00	11991	204	-56.9	-62.8	238	48
2023-08-26T06:00	12009	203	-56.9	-63.2	239	47
2023-08-26T06:00	12029	202	-56.7	-63.6	239	46
2023-08-26T06:00	12045	202	-56.5	-64.4	239	45
2023-08-26T06:00	12065	201	-56.3	-65.7	240	44
2023-08-26T06:00	12086	201	-55.6	-67.2	240	43
2023-08-26T06:00	12104	200	-55.1	-68.9	241	42
2023-08-26T06:00	12123	199	-54.6	-70.2	241	41
2023-08-26T06:00	12141	199	-54.0	-71.0	242	41
2023-08-26T06:00	12160	198	-53.3	-71.4	242	41
2023-08-26T06:00	12177	198	-53.0	-71.9	243	40
2023-08-26T06:00	12209	197	-52.7	-72.1	244	40
2023-08-26T06:00	12229	196	-52.6	-72.1	244	39
2023-08-26T06:00	12251	196	-52.7	-72.0	245	39
2023-08-26T06:00	12273	195	-52.7	-71.8	245	38
2023-08-26T06:00	12295	194	-52.7	-71.8	246	37
2023-08-26T06:00	12319	193	-52.7	-71.8	246	37
2023-08-26T06:00	12342	193	-52.9	-72.1	247	36
2023-08-26T06:00	12370	192	-53.1	-72.4	248	35
2023-08-26T06:00	12395	191	-53.0	-73.0	249	34
2023-08-26T06:00	12423	190	-52.4	-73.1	249	33
2023-08-26T06:00	12444	190	-52.2	-73.6	248	32
2023-08-26T06:00	12462	189	-52.1	-73.7	248	31
2023-08-26T06:00	12489	189	-51.7	-73.6	246	31
2023-08-26T06:00	12509	188	-51.8	-73.6	245	30
2023-08-26T06:00	12539	187	-52.0	-73.5	243	30
2023-08-26T06:00	12565	186	-52.1	-73.4	242	29
2023-08-26T06:00	12589	186	-52.2	-73.3	241	29
2023-08-26T06:00	12617	185	-52.5	-73.6	240	29
2023-08-26T06:00	12645	184	-52.6	-73.8	240	29
2023-08-26T06:00	12670	183	-52.7	-74.0	241	30
2023-08-26T06:00	12697	183	-52.6	-73.9	242	30
2023-08-26T06:00	12715	182	-52.3	-73.5	243	30
2023-08-26T06:00	12733	181	-52.4	-73.6	244	31
2023-08-26T06:00	12753	181	-52.4	-73.5	244	31
2023-08-26T06:00	12773	180	-52.5	-73.6	245	31
2023-08-26T06:00	12791	180	-52.6	-73.6	245	31
2023-08-26T06:00	12812	179	-52.7	-73.7	245	31
2023-08-26T06:00	12829	179	-52.8	-73.8	245	31
2023-08-26T06:00	12850	178	-52.9	-73.8	246	30
2023-08-26T06:00	12870	178	-53.0	-73.9	246	30
2023-08-26T06:00	12893	177	-53.2	-74.1	246	29
2023-08-26T06:00	12926	176	-53.3	-74.5	246	28
2023-08-26T06:00	12952	175	-52.8	-74.6	246	26
2023-08-26T06:00	12988	174	-52.7	-74.9	246	25
2023-08-26T06:00	13023	174	-52.8	-75.2	246	24
2023-08-26T06:00	13051	173	-52.9	-75.1	246	23
2023-08-26T06:00	13087	172	-53.2	-75.3	245	23
2023-08-26T06:00	13115	171	-53.4	-75.5	245	23
2023-08-26T06:00	13146	170	-53.5	-75.4	244	23
2023-08-26T06:00	13169	170	-53.7	-75.6	244	22
2023-08-26T06:00	13188	169	-53.8	-75.5	243	22
2023-08-26T06:00	13209	169	-53.9	-75.6	243	21
2023-08-26T06:00	13231	168	-54.1	-75.6	243	21
2023-08-26T06:00	13253	167	-54.2	-75.7	242	20
2023-08-26T06:00	13279	167	-54.4	-75.9	241	20
2023-08-26T06:00	13304	166	-54.4	-76.0	240	19
2023-08-26T06:00	13332	165	-54.5	-76.2	238	19
2023-08-26T06:00	13361	165	-54.5	-76.2	235	19
2023-08-26T06:00	13395	164	-54.7	-76.4	232	19
2023-08-26T06:00	13423	163	-54.8	-76.5	229	19
2023-08-26T06:00	13454	162	-55.0	-76.6	226	19
2023-08-26T06:00	13475	162	-55.3	-76.8	225	20
2023-08-26T06:00	13497	161	-55.4	-76.7	224	20
2023-08-26T06:00	13519	161	-55.6	-76.7	225	20
2023-08-26T06:00	13539	160	-55.7	-76.8	225	20
2023-08-26T06:00	13562	160	-55.8	-76.9	225	20
2023-08-26T06:00	13588	159	-55.9	-77.1	226	21
2023-08-26T06:00	13620	158	-55.9	-77.2	225	22
2023-08-26T06:00	13651	157	-56.0	-77.5	225	22
2023-08-26T06:00	13672	157	-56.0	-77.6	225	23
2023-08-26T06:00	13695	156	-56.1	-77.8	225	24
2023-08-26T06:00	13722	156	-56.1	-77.8	225	24
2023-08-26T06:00	13742	155	-56.2	-77.9	224	25
2023-08-26T06:00	13765	154	-56.3	-77.8	224	25
2023-08-26T06:00	13790	154	-56.5	-78.0	223	25
2023-08-26T06:00	13814	153	-56.7	-78.0	222	25
2023-08-26T06:00	13845	153	-56.9	-77.9	222	25
2023-08-26T06:00	13871	152	-57.2	-78.0	221	26
2023-08-26T06:00	13892	151	-57.4	-78.2	222	26
2023-08-26T06:00	13912	151	-57.5	-78.3	222	27
2023-08-26T06:00	13931	150	-57.4	-78.3	223	27
2023-08-26T06:00	13951	150	-57.3	-78.4	224	27
2023-08-26T06:00	13968	150	-57.2	-78.4	225	27
2023-08-26T06:00	13989	149	-57.1	-78.5	226	27
2023-08-26T06:00	14007	149	-57.1	-78.8	228	27
2023-08-26T06:00	14028	148	-57.1	-78.9	230	27
2023-08-26T06:00	14046	148	-57.1	-79.2	232	26
2023-08-26T06:00	14065	147	-56.7	-79.2	234	26
2023-08-26T06:00	14084	147	-56.3	-79.3	235	26
2023-08-26T06:00	14103	146	-55.9	-79.5	236	26
2023-08-26T06:00	14119	146	-55.7	-79.7	237	26
2023-08-26T06:00	14139	146	-55.7	-79.9	238	26
2023-08-26T06:00	14161	145	-55.8	-80.2	239	25
2023-08-26T06:00	14179	145	-55.9	-80.5	240	25
2023-08-26T06:00	14202	144	-55.7	-80.8	240	24
2023-08-26T06:00	14231	144	-55.3	-81.0	241	23
2023-08-26T06:00	14251	143	-54.9	-81.3	241	23
2023-08-26T06:00	14276	143	-54.8	-81.5	241	22
2023-08-26T06:00	14299	142	-54.6	-81.3	240	22
2023-08-26T06:00	14319	142	-54.4	-81.2	240	21
2023-08-26T06:00	14339	141	-54.5	-81.2	239	21
2023-08-26T06:00	14364	141	-54.5	-81.2	238	20
2023-08-26T06:00	14393	140	-54.6	-81.3	237	20
2023-08-26T06:00	14416	139	-54.7	-81.4	236	20
2023-08-26T06:00	14435	139	-54.8	-81.5	236	20
2023-08-26T06:00	14457	139	-54.9	-81.5	236	20
2023-08-26T06:00	14481	138	-54.7	-81.4	237	21
2023-08-26T06:00	14504	138	-54.7	-81.4	238	21
2023-08-26T06:00	14525	137	-54.9	-81.5	239	22
2023-08-26T06:00	14550	137	-55.0	-81.6	239	22
2023-08-26T06:00	14572	136	-55.2	-81.5	240	22
2023-08-26T06:00	14593	136	-55.4	-81.6	240	22
2023-08-26T06:00	14618	135	-55.6	-81.8	239	23
2023-08-26T06:00	14640	135	-55.8	-81.7	239	23
2023-08-26T06:00	14665	134	-56.0	-81.8	239	24
2023-08-26T06:00	14688	134	-56.2	-82.0	240	24
2023-08-26T06:00	14711	133	-56.3	-82.1	240	24
2023-08-26T06:00	14739	133	-56.5	-82.2	241	24
2023-08-26T06:00	14758	132	-55.9	-82.0	243	23
2023-08-26T06:00	14783	132	-55.6	-81.8	244	22
2023-08-26T06:00	14803	131	-55.7	-82.2	245	21
2023-08-26T06:00	14825	131	-55.7	-82.2	246	20
2023-08-26T06:00	14847	130	-55.7	-82.2	247	19
2023-08-26T06:00	14871	130	-55.7	-82.5	246	18
2023-08-26T06:00	14903	129	-55.6	-82.4	245	17
2023-08-26T06:00	14927	129	-55.3	-82.5	243	16
2023-08-26T06:00	14952	128	-55.1	-82.3	241	14
2023-08-26T06:00	14984	128	-54.9	-82.5	237	13
2023-08-26T06:00	15008	127	-54.6	-82.3	234	12
2023-08-26T06:00	15030	127	-54.3	-82.1	231	12
2023-08-26T06:00	15054	126	-54.4	-82.1	228	11
2023-08-26T06:00	15081	126	-54.5	-82.2	226	11
2023-08-26T06:00	15110	125	-54.7	-82.0	224	11
2023-08-26T06:00	15131	125	-54.9	-82.2	223	11
2023-08-26T06:00	15158	124	-54.9	-82.2	222	11
2023-08-26T06:00	15183	124	-55.0	-82.3	221	12
2023-08-26T06:00	15207	123	-55.3	-82.2	220	12
2023-08-26T06:00	15231	123	-55.5	-82.3	220	13
2023-08-26T06:00	15256	122	-55.7	-82.2	219	13
2023-08-26T06:00	15278	122	-55.9	-82.3	219	14
2023-08-26T06:00	15300	121	-55.9	-82.3	219	14
2023-08-26T06:00	15323	121	-56.0	-82.4	219	14
2023-08-26T06:00	15342	121	-56.0	-82.1	219	14
2023-08-26T06:00	15362	120	-56.2	-82.3	218	14
2023-08-26T06:00	15382	120	-56.3	-82.3	218	14
2023-08-26T06:00	15403	119	-56.4	-82.4	216	14
2023-08-26T06:00	15425	119	-56.3	-82.3	215	14
2023-08-26T06:00	15447	119	-56.0	-82.1	214	14
2023-08-26T06:00	15468	118	-56.1	-82.2	213	15
2023-08-26T06:00	15491	118	-56.3	-82.3	213	15
2023-08-26T06:00	15512	117	-56.4	-82.4	213	15
2023-08-26T06:00	15532	117	-56.4	-82.4	212	15
2023-08-26T06:00	15553	117	-56.4	-82.1	212	15
2023-08-26T06:00	15574	116	-56.5	-82.2	212	15
2023-08-26T06:00	15595	116	-56.6	-82.3	212	16
2023-08-26T06:00	15616	115	-56.6	-82.3	212	16
2023-08-26T06:00	15640	115	-56.8	-82.5	212	16
2023-08-26T06:00	15657	115	-56.9	-82.3	212	15
2023-08-26T06:00	15679	114	-57.1	-82.4	213	15
2023-08-26T06:00	15703	114	-57.2	-82.5	214	15
2023-08-26T06:00	15724	114	-57.3	-82.6	215	16
2023-08-26T06:00	15744	113	-57.2	-82.8	217	16
2023-08-26T06:00	15765	113	-57.2	-82.8	219	16
2023-08-26T06:00	15786	112	-57.3	-82.8	222	16
2023-08-26T06:00	15812	112	-57.5	-83.0	224	16
2023-08-26T06:00	15832	112	-57.6	-83.1	225	16
2023-08-26T06:00	15854	111	-57.5	-83.0	226	15
2023-08-26T06:00	15874	111	-57.2	-83.0	227	15
2023-08-26T06:00	15897	111	-57.1	-83.0	228	15
2023-08-26T06:00	15920	110	-57.2	-83.0	229	15
2023-08-26T06:00	15941	110	-57.2	-83.3	231	15
2023-08-26T06:00	15964	109	-57.0	-83.2	231	15
2023-08-26T06:00	15989	109	-56.7	-82.9	231	16
2023-08-26T06:00	16012	109	-56.7	-83.2	231	16
2023-08-26T06:00	16034	108	-56.8	-83.0	231	16
2023-08-26T06:00	16057	108	-56.9	-83.1	230	17
2023-08-26T06:00	16080	107	-57.0	-83.2	230	17
2023-08-26T06:00	16104	107	-57.1	-83.2	230	17
2023-08-26T06:00	16126	107	-57.1	-83.2	230	17
2023-08-26T06:00	16155	106	-57.2	-83.3	232	18
2023-08-26T06:00	16179	106	-57.4	-83.5	234	18
2023-08-26T06:00	16204	105	-57.4	-83.5	236	17
2023-08-26T06:00	16228	105	-57.2	-83.3	239	17
2023-08-26T06:00	16252	104	-57.2	-83.6	242	16
2023-08-26T06:00	16275	104	-56.5	-83.4	245	16
2023-08-26T06:00	16295	104	-56.2	-83.5	247	15
2023-08-26T06:00	16322	103	-56.0	-83.7	249	14
2023-08-26T06:00	16344	103	-55.9	-83.6	250	13
2023-08-26T06:00	16366	103	-55.9	-83.6	252	12
2023-08-26T06:00	16389	102	-56.0	-83.7	253	11
2023-08-26T06:00	16411	102	-55.9	-83.6	255	10
2023-08-26T06:00	16437	101	-55.8	-83.6	255	10
2023-08-26T06:00	16460	101	-55.8	-83.6	255	9
2023-08-26T06:00	16484	101	-56.0	-83.7	255	9
2023-08-26T06:00	16501	100	-56.1	-83.8	254	8
2023-08-26T06:00	16524	100	-56.3	-83.9	252	8
2023-08-26T06:00	16545	100	-56.5	-84.1	248	7
2023-08-26T06:00	16565	99	-56.6	-83.8	243	7
2023-08-26T06:00	16587	99	-56.6	-83.8	236	6
2023-08-26T06:00	16604	99	-56.6	-84.2	228	6
2023-08-26T06:00	16623	99	-56.6	-84.2	220	6
2023-08-26T06:00	16646	98	-56.6	-84.2	213	7
2023-08-26T06:00	16667	98	-56.6	-84.2	208	7
2023-08-26T06:00	16688	98	-56.4	-84.0	206	8
2023-08-26T06:00	16704	97	-56.3	-83.9	206	8
2023-08-26T06:00	16728	97	-56.4	-84.4	208	9
2023-08-26T06:00	16749	97	-56.5	-84.5	211	9
2023-08-26T06:00	16770	96	-56.5	-84.1	214	9
2023-08-26T06:00	16788	96	-56.3	-83.9	218	9
2023-08-26T06:00	16809	96	-56.3	-83.9	222	9
2023-08-26T06:00	16829	95	-56.4	-84.4	226	9
2023-08-26T06:00	16850	95	-56.5	-84.5	231	9
2023-08-26T06:00	16870	95	-56.6	-84.5	235	10
2023-08-26T06:00	16886	95	-56.5	-84.5	239	10
2023-08-26T06:00	16909	94	-56.4	-84.4	242	10
2023-08-26T06:00	16929	94	-56.5	-84.5	244	10
2023-08-26T06:00	16951	94	-56.5	-84.5	245	10
2023-08-26T06:00	16975	93	-56.5	-84.5	246	10
2023-08-26T06:00	16994	93	-56.2	-84.2	245	10
2023-08-26T06:00	17015	93	-56.0	-84.1	244	10
2023-08-26T06:00	17034	92	-56.1	-84.2	243	9
2023-08-26T06:00	17060	92	-56.1	-84.2	242	9
2023-08-26T06:00	17082	92	-56.1	-84.2	240	9
2023-08-26T06:00	17099	91	-56.2	-84.2	238	9
2023-08-26T06:00	17124	91	-56.3	-84.3	235	9
2023-08-26T06:00	17147	91	-56.3	-84.3	232	9
2023-08-26T06:00	17164	90	-56.3	-84.3	229	9
2023-08-26T06:00	17188	90	-56.5	-84.5	226	10
2023-08-26T06:00	17209	90	-56.5	-84.1	224	10
2023-08-26T06:00	17232	90	-56.5	-84.1	221	10
2023-08-26T06:00	17252	89	-56.5	-84.1	220	10
2023-08-26T06:00	17272	89	-56.7	-84.2	219	10
2023-08-26T06:00	17294	89	-56.9	-84.4	218	10
2023-08-26T06:00	17316	88	-57.0	-84.5	217	11
2023-08-26T06:00	17335	88	-57.2	-84.6	217	11
2023-08-26T06:00	17356	88	-57.2	-84.6	217	11
2023-08-26T06:00	17375	88	-57.2	-84.6	218	11
2023-08-26T06:00	17394	87	-57.2	-85.0	219	10
2023-08-26T06:00	17414	87	-57.0	-84.8	221	10
2023-08-26T06:00	17440	87	-57.0	-84.8	222	10
2023-08-26T06:00	17457	86	-57.0	-84.8	224	9
2023-08-26T06:00	17476	86	-57.1	-84.9	226	9
2023-08-26T06:00	17497	86	-57.0	-84.8	227	9
2023-08-26T06:00	17519	86	-56.9	-84.8	229	8
2023-08-26T06:00	17541	85	-56.9	-84.8	231	8
2023-08-26T06:00	17563	85	-57.0	-84.8	232	8
2023-08-26T06:00	17580	85	-57.1	-84.9	233	7
2023-08-26T06:00	17605	84	-57.3	-85.1	232	7
2023-08-26T06:00	17622	84	-57.3	-85.1	230	6
2023-08-26T06:00	17645	84	-57.3	-85.1	229	6
2023-08-26T06:00	17667	84	-57.1	-84.9	228	6
2023-08-26T06:00	17684	83	-57.0	-85.2	228	6
2023-08-26T06:00	17704	83	-57.0	-85.2	230	7
2023-08-26T06:00	17726	83	-57.0	-85.2	232	7
2023-08-26T06:00	17750	83	-56.7	-85.0	234	7
2023-08-26T06:00	17767	82	-56.4	-85.2	235	7
2023-08-26T06:00	17792	82	-56.5	-85.3	235	6
2023-08-26T06:00	17808	82	-56.4	-85.2	233	5
2023-08-26T06:00	17829	81	-56.1	-85.0	227	5
2023-08-26T06:00	17850	81	-56.1	-85.0	218	4
2023-08-26T06:00	17867	81	-56.0	-84.9	206	4
2023-08-26T06:00	17891	81	-55.9	-85.3	194	4
2023-08-26T06:00	17911	80	-55.7	-85.2	183	4
2023-08-26T06:00	17933	80	-55.7	-85.2	174	4
2023-08-26T06:00	17952	80	-55.7	-85.2	166	4
2023-08-26T06:00	17974	80	-55.8	-84.8	161	4
2023-08-26T06:00	17994	79	-55.8	-84.8	157	5
2023-08-26T06:00	18017	79	-55.8	-84.8	155	5
2023-08-26T06:00	18038	79	-55.9	-84.8	154	5
2023-08-26T06:00	18058	79	-56.0	-84.9	153	5
2023-08-26T06:00	18083	78	-56.2	-85.1	153	6
2023-08-26T06:00	18102	78	-56.4	-84.8	154	6
2023-08-26T06:00	18127	78	-56.6	-84.9	156	6
2023-08-26T06:00	18148	77	-56.7	-85.0	158	7
2023-08-26T06:00	18169	77	-56.9	-85.2	162	7
2023-08-26T06:00	18192	77	-57.0	-85.2	167	7
2023-08-26T06:00	18213	77	-57.1	-85.3	172	7
2023-08-26T06:00	18236	76	-56.9	-85.6	177	7
2023-08-26T06:00	18259	76	-56.6	-85.4	183	7
2023-08-26T06:00	18281	76	-56.7	-85.4	189	7
2023-08-26T06:00	18302	76	-56.8	-85.5	195	7
2023-08-26T06:00	18325	75	-56.8	-85.5	201	7
2023-08-26T06:00	18347	75	-56.7	-85.4	206	8
2023-08-26T06:00	18368	75	-56.7	-85.4	210	8
2023-08-26T06:00	18390	75	-56.8	-85.1	213	9
2023-08-26T06:00	18413	74	-57.0	-85.2	217	9
2023-08-26T06:00	18434	74	-57.2	-85.4	222	9
2023-08-26T06:00	18454	74	-57.3	-85.5	227	10
2023-08-26T06:00	18476	74	-57.2	-85.8	233	10
2023-08-26T06:00	18501	73	-56.9	-85.6	238	10
2023-08-26T06:00	18522	73	-56.3	-85.1	243	9
2023-08-26T06:00	18543	73	-56.1	-85.5	248	9
2023-08-26T06:00	18565	73	-56.2	-85.5	252	8
2023-08-26T06:00	18586	72	-56.1	-85.5	256	8
2023-08-26T06:00	18610	72	-56.0		260	7
2023-08-26T06:00	18631	72	-55.9	-85.3	263	7
2023-08-26T06:00	18654	72	-55.9	-85.3	266	7
2023-08-26T06:00	18674	71	-55.6	-85.1	268	7
2023-08-26T06:00	18697	71	-55.7	-85.2	270	6
2023-08-26T06:00	18718	71	-55.9	-85.3	270	6
2023-08-26T06:00	18741	71	-56.1	-85.5	268	6
2023-08-26T06:00	18762	70	-56.0		264	5
2023-08-26T06:00	18781	70	-56.0		259	5
2023-08-26T06:00	18804	70	-55.9	-85.3	252	4
2023-08-26T06:00	18826	70	-55.9	-85.3	245	4
2023-08-26T06:00	18851	69	-56.0		238	4
2023-08-26T06:00	18868	69	-56.1	-85.5	229	3
2023-08-26T06:00	18891	69	-56.2	-85.1	219	3
2023-08-26T06:00	18911	69	-56.3	-85.1	208	3
2023-08-26T06:00	18932	68	-56.5	-85.3	198	4
2023-08-26T06:00	18954	68	-56.6	-85.4	190	4
2023-08-26T06:00	18976	68	-56.5	-85.3	185	4
2023-08-26T06:00	18996	68	-56.6	-85.4	182	5
2023-08-26T06:00	19014	68	-56.7	-85.4	182	5
2023-08-26T06:00	19039	67	-56.8	-85.5	183	6
2023-08-26T06:00	19062	67	-56.6	-85.8	185	6
2023-08-26T06:00	19083	67	-56.3	-85.6	188	6
2023-08-26T06:00	19103	67	-56.2	-85.5	191	6
2023-08-26T06:00	19126	66	-56.1	-85.5	194	7
2023-08-26T06:00	19146	66	-56.1	-85.5	197	7
2023-08-26T06:00	19168	66	-56.1	-85.5	201	7
2023-08-26T06:00	19190	66	-56.1	-85.5	206	7
2023-08-26T06:00	19213	66	-56.0		211	7
2023-08-26T06:00	19234	65	-55.8	-85.2	216	7
2023-08-26T06:00	19259	65	-55.8	-85.2	222	7
2023-08-26T06:00	19280	65	-55.9	-85.3	227	7
2023-08-26T06:00	19301	65	-55.8	-85.2	233	7
2023-08-26T06:00	19322	64	-55.9	-85.3	239	7
2023-08-26T06:00	19343	64	-56.0		244	7
2023-08-26T06:00	19372	64	-56.0		250	7
2023-08-26T06:00	19393	64	-56.1	-85.5	255	7
2023-08-26T06:00	19417	63	-56.0		261	6
2023-08-26T06:00	19438	63	-55.8	-85.2	267	6
2023-08-26T06:00	19461	63	-55.8	-85.2	273	5
2023-08-26T06:00	19486	63	-55.7	-85.7	279	5
2023-08-26T06:00	19508	63	-55.6	-85.6	285	4
2023-08-26T06:00	19528	62	-55.5	-85.5	291	3
2023-08-26T06:00	19549	62	-55.6	-85.1	298	3
2023-08-26T06:00	19572	62	-55.8	-85.2	304	2
2023-08-26T06:00	19598	62	-55.8	-85.2	309	2
2023-08-26T06:00	19620	61	-55.8	-85.2	309	1
2023-08-26T06:00	19642	61	-56.0		295	1
2023-08-26T06:00	19667	61	-56.1	-85.5	204	0
2023-08-26T06:00	19690	61	-56.0		179	1
2023-08-26T06:00	19716	61	-55.9	-85.3	177	1
2023-08-26T06:00	19739	60	-55.9	-85.3	179	2
2023-08-26T06:00	19762	60	-55.9	-85.3	180	2
2023-08-26T06:00	19784	60	-55.8	-85.2	177	2
2023-08-26T06:00	19812	60	-55.7	-85.7	166	1
2023-08-26T06:00	19829	59	-55.8	-85.7	144	1
2023-08-26T06:00	19854	59	-55.7	-85.2	119	1
2023-08-26T06:00	19877	59	-55.7	-85.2	103	2
2023-08-26T06:00	19898	59	-55.9	-85.3	94	2
2023-08-26T06:00	19925	59	-56.1	-85.5	90	2
2023-08-26T06:00	19948	58	-56.0		91	3
2023-08-26T06:00	19971	58	-56.0		96	3
2023-08-26T06:00	19992	58	-55.9	-85.3	105	3
2023-08-26T06:00	20015	58	-55.9	-85.3	118	3
2023-08-26T06:00	20042	58	-55.9	-85.3	134	3
2023-08-26T06:00	20064	57	-56.0		150	3
2023-08-26T06:00	20089	57	-56.1	-85.5	164	3
2023-08-26T06:00	20104	57	-56.2	-85.5	176	3
2023-08-26T06:00	20131	57	-56.3	-85.6	187	3
2023-08-26T06:00	20153	57	-56.3	-85.6	198	3
2023-08-26T06:00	20175	56	-56.1	-85.5	207	4
2023-08-26T06:00	20194	56	-55.9	-85.8	214	4
2023-08-26T06:00	20224	56	-55.6	-85.6	217	4
2023-08-26T06:00	20245	56	-55.4	-85.4	215	4
2023-08-26T06:00	20267	56	-55.4	-85.4	211	4
2023-08-26T06:00	20288	55	-55.4	-85.4	205	4
2023-08-26T06:00	20307	55	-55.5	-85.5	202	4
2023-08-26T06:00	20333	55	-55.6	-85.1	199	4
2023-08-26T06:00	20355	55	-55.8	-85.2	199	5
2023-08-26T06:00	20376	55	-55.8	-85.2	200	5
2023-08-26T06:00	20397	54	-55.9	-85.3	202	5
2023-08-26T06:00	20421	54	-55.9	-85.3	205	5
2023-08-26T06:00	20448	54	-55.7	-85.2	209	5
2023-08-26T06:00	20465	54	-55.7	-85.2	214	5
2023-08-26T06:00	20490	54	-55.8	-85.2	222	5
2023-08-26T06:00	20511	53	-55.8	-85.2	230	5
2023-08-26T06:00	20533	53	-55.8	-85.2	237	5
2023-08-26T06:00	20553	53	-55.9	-85.3	243	5
2023-08-26T06:00	20579	53	-55.9	-85.8	248	5
2023-08-26T06:00	20603	53	-55.8	-85.7	252	5
2023-08-26T06:00	20629	52	-55.8	-85.7	257	5
2023-08-26T06:00	20653	52	-55.6	-85.6	263	4
2023-08-26T06:00	20674	52	-55.4	-85.4	270	4
2023-08-26T06:00	20699	52	-55.3	-85.4	278	3
2023-08-26T06:00	20724	52	-55.4	-85.4	286	3
2023-08-26T06:00	20747	51	-55.2	-85.3	294	2
2023-08-26T06:00	20770	51	-55.3	-85.4	301	2
2023-08-26T06:00	20792	51	-55.3	-85.4	305	2
2023-08-26T06:00	20817	51	-55.3	-85.4	304	1
2023-08-26T06:00	20838	51	-55.5	-85.5	295	1
2023-08-26T06:00	20863	51	-55.6	-85.1	278	1
2023-08-26T06:00	20887	50	-55.7	-85.2	270	1
2023-08-26T06:00	20911	50	-55.7	-85.2	271	2
2023-08-26T06:00	20933	50	-55.7	-85.2	274	2
2023-08-26T06:00	20957	50	-55.8	-85.7	277	3
2023-08-26T06:00	20982	50	-55.8	-85.7	279	3
2023-08-26T06:00	21003	49	-55.8	-85.7	281	3
2023-08-26T06:00	21022	49	-55.6	-85.6	283	3
2023-08-26T06:00	21047	49	-55.6	-85.6	282	3
2023-08-26T06:00	21068	49	-55.5	-85.5	276	2
2023-08-26T06:00	21090	49	-55.5	-85.5	259	2
2023-08-26T06:00	21112	49	-55.2	-85.3	231	2
2023-08-26T06:00	21137	48	-55.2	-85.3	207	2
2023-08-26T06:00	21157	48	-55.3	-85.4	193	2
2023-08-26T06:00	21182	48	-55.4	-85.4	185	3
2023-08-26T06:00	21206	48	-55.5	-85.5	181	3
2023-08-26T06:00	21224	48	-55.4	-85.4	180	3
2023-08-26T06:00	21250	48	-55.3	-85.4	182	3
2023-08-26T06:00	21271	47	-55.2	-85.3	187	3
2023-08-26T06:00	21292	47	-55.1	-85.2	194	3
2023-08-26T06:00	21316	47	-55.0	-85.1	201	3
2023-08-26T06:00	21337	47	-55.0	-85.1	207	3
2023-08-26T06:00	21363	47	-55.0	-85.1	211	3
2023-08-26T06:00	21383	47	-55.0	-85.1	212	3
2023-08-26T06:00	21408	46	-55.0	-85.1	210	3
2023-08-26T06:00	21426	46	-54.9	-85.6	206	3
2023-08-26T06:00	21451	46	-54.7	-85.5	201	2
2023-08-26T06:00	21471	46	-54.7	-85.5	195	2
2023-08-26T06:00	21500	46	-54.7	-85.5	191	2
2023-08-26T06:00	21517	46	-54.6	-85.4	189	1
2023-08-26T06:00	21536	45	-54.5	-85.3	188	1
2023-08-26T06:00	21559	45	-54.6	-85.4	186	1
2023-08-26T06:00	21582	45	-54.6	-85.4	181	1
2023-08-26T06:00	21607	45	-54.6	-85.4	173	1
2023-08-26T06:00	21633	45	-54.7	-84.9	170	1
2023-08-26T06:00	21654	45	-54.7	-84.9	173	1
2023-08-26T06:00	21681	45	-54.8	-85.0	182	1
2023-08-26T06:00	21700	44	-54.9	-85.1	193	1
2023-08-26T06:00	21723	44	-55.0	-85.1	206	2
2023-08-26T06:00	21746	44	-55.1	-85.2	220	2
2023-08-26T06:00	21771	44	-55.2	-85.3	233	2
2023-08-26T06:00	21794	44	-55.2	-85.3	245	2
2023-08-26T06:00	21821	44	-55.3	-85.4	256	2
2023-08-26T06:00	21841	43	-55.3	-85.4	265	2
2023-08-26T06:00	21865	43	-55.2	-85.3	273	1
2023-08-26T06:00	21891	43	-55.2	-85.3	277	1
2023-08-26T06:00	21917	43	-55.2	-85.3	277	1
2023-08-26T06:00	21938	43	-55.0	-85.1	274	1
2023-08-26T06:00	21960	43	-55.0	-85.1	271	1
2023-08-26T06:00	21986	42	-54.9	-85.6	267	1
2023-08-26T06:00	22008	42	-55.0	-85.7	263	1
2023-08-26T06:00	22035	42	-55.1	-85.8	253	1
2023-08-26T06:00	22054	42	-55.0	-85.1	234	1
2023-08-26T06:00	22084	42	-55.0	-85.1	211	1
2023-08-26T06:00	22105	42	-55.1	-85.2	198	1
2023-08-26T06:00	22132	41	-55.2	-85.3	196	1
2023-08-26T06:00	22154	41	-55.3	-85.4	200	1
2023-08-26T06:00	22176	41	-55.3	-85.4	205	1
2023-08-26T06:00	22205	41	-55.4	-85.4	209	2
2023-08-26T06:00	22230	41	-55.6	-85.6	212	2
2023-08-26T06:00	22260	41	-55.5	-85.5	215	2
2023-08-26T06:00	22279	41	-55.3	-85.4	220	2
2023-08-26T06:00	22301	40	-55.4	-85.4	228	2
2023-08-26T06:00	22330	40	-55.4	-86.0	238	2
2023-08-26T06:00	22356	40	-55.3	-85.9	248	2
2023-08-26T06:00	22381	40	-55.0	-85.7	257	2
2023-08-26T06:00	22407	40	-54.8	-85.5	266	2
2023-08-26T06:00	22426	40	-54.6	-85.4	273	2
2023-08-26T06:00	22456	39	-54.6	-85.4	281	2
2023-08-26T06:00	22486	39	-54.7	-85.5	289	2
2023-08-26T06:00	22505	39	-54.7	-85.5	298	2
2023-08-26T06:00	22526	39	-54.8	-85.0	310	2
2023-08-26T06:00	22557	39	-55.0	-85.1	323	2
2023-08-26T06:00	22582	39	-55.1	-84.7	334	2
2023-08-26T06:00	22605	38	-55.1	-84.7	342	1
2023-08-26T06:00	22631	38	-55.0	-84.6	346	1
2023-08-26T06:00	22654	38	-55.2	-85.3	344	1
2023-08-26T06:00	22678	38	-55.4	-85.4	341	1
2023-08-26T06:00	22702	38	-55.4	-85.4	342	1
2023-08-26T06:00	22721	38	-55.3	-85.4	353	1
2023-08-26T06:00	22748	38	-55.1	-85.8	11	1
2023-08-26T06:00	22775	37	-55.0	-85.7	32	2
2023-08-26T06:00	22803	37	-55.1	-85.8	49	2
2023-08-26T06:00	22825	37	-55.1	-85.8	61	3
2023-08-26T06:00	22847	37	-54.9	-85.6	71	3
2023-08-26T06:00	22876	37	-54.8	-85.5	79	4
2023-08-26T06:00	22903	37	-54.9	-85.6	85	4
2023-08-26T06:00	22930	37	-55.0	-85.7	90	5
2023-08-26T06:00	22949	36	-55.0	-85.1	95	5
2023-08-26T06:00	22976	36	-55.1	-85.2	100	5
2023-08-26T06:00	23003	36	-55.3	-85.4	105	5
2023-08-26T06:00	23025	36	-55.5	-85.5	112	5
2023-08-26T06:00	23046	36	-55.4	-85.4	121	4
2023-08-26T06:00	23075	36	-55.4	-85.4	131	4
2023-08-26T06:00	23106	36	-55.4	-85.4	141	4
2023-08-26T06:00	23126	35	-55.4	-86.0	150	5
2023-08-26T06:00	23149	35	-55.3	-85.9	159	4
2023-08-26T06:00	23176	35	-55.1	-85.8	165	4
2023-08-26T06:00	23197	35	-55.0	-85.7	170	4
2023-08-26T06:00	23223	35	-55.0	-85.7	173	3
2023-08-26T06:00	23248	35	-54.9	-85.6	171	2
2023-08-26T06:00	23272	35	-54.8	-85.5	149	1
2023-08-26T06:00	23298	35	-54.6	-85.4	102	1
2023-08-26T06:00	23320	34	-54.5	-85.3	89	1
2023-08-26T06:00	23338	34	-54.5	-85.3	93	2
2023-08-26T06:00	23370	34	-54.4	-85.2	100	3
2023-08-26T06:00	23395	34	-54.4	-85.2	107	3
2023-08-26T06:00	23416	34	-54.4	-85.2	112	4
2023-08-26T06:00	23438	34	-54.4	-85.2	116	4
2023-08-26T06:00	23465	34	-54.5	-85.3	120	5
2023-08-26T06:00	23489	34	-54.5	-85.3	124	5
2023-08-26T06:00	23510	33	-54.6	-85.4	129	5
2023-08-26T06:00	23536	33	-54.7	-85.5	134	4
2023-08-26T06:00	23566	33	-54.9	-85.6	139	4
2023-08-26T06:00	23585	33	-54.9	-85.6	146	3
2023-08-26T06:00	23612	33	-54.9	-85.6	154	3
2023-08-26T06:00	23640	33	-54.8	-85.5	163	2
2023-08-26T06:00	23664	33	-54.8	-85.5	170	2
2023-08-26T06:00	23694	33	-54.8	-85.5	169	1
2023-08-26T06:00	23712	32	-54.7	-85.5	145	1
2023-08-26T06:00	23739	32	-54.6	-85.4	109	1
2023-08-26T06:00	23765	32	-54.6	-85.4	93	1
2023-08-26T06:00	23789	32	-54.5	-85.9	89	2
2023-08-26T06:00	23819	32	-54.4	-85.8	89	2
2023-08-26T06:00	23843	32	-54.3	-85.8	89	2
2023-08-26T06:00	23864	32	-54.1	-85.6	90	2
2023-08-26T06:00	23896	31	-54.2	-85.7	90	2
2023-08-26T06:00	23916	31	-54.2	-85.7	89	2
2023-08-26T06:00	23945	31	-54.3	-85.2	86	1
2023-08-26T06:00	23967	31	-54.3	-85.2	82	1
2023-08-26T06:00	23995	31	-54.3	-85.2	80	1
2023-08-26T06:00	24017	31	-54.2	-85.1	78	1
2023-08-26T06:00	24043	31	-54.2	-85.1	76	1
2023-08-26T06:00	24076	31	-54.3	-85.2	71	1
2023-08-26T06:00	24095	31	-54.4	-85.2	60	1
2023-08-26T06:00	24122	30	-54.4	-85.2	44	1
2023-08-26T06:00	24143	30	-54.3	-85.2	26	1
2023-08-26T06:00	24174	30	-54.3	-85.8	12	2
2023-08-26T06:00	24203	30	-54.2	-85.7	4	2
2023-08-26T06:00	24229	30	-54.3	-85.2	2	2
2023-08-26T06:00	24247	30	-54.5	-85.3	4	2
2023-08-26T06:00	24272	30	-54.5	-85.3	9	2
2023-08-26T06:00	24298	30	-54.4	-85.2	14	2
2023-08-26T06:00	24323	29	-54.4	-85.8	16	2
2023-08-26T06:00	24354	29	-54.3	-85.8	15	3
2023-08-26T06:00	24374	29	-54.2	-85.7	13	3
2023-08-26T06:00	24398	29	-54.1	-85.6	11	3
2023-08-26T06:00	24426	29	-54.1	-85.6	14	3
2023-08-26T06:00	24451	29	-54.0	-85.5	20	3
2023-08-26T06:00	24478	29	-54.1	-85.6	29	4
2023-08-26T06:00	24495	29	-53.9	-85.5	37	4
2023-08-26T06:00	24524	29	-53.9	-85.5	43	4
2023-08-26T06:00	24555	28	-53.9	-85.5	46	4
2023-08-26T06:00	24574	28	-53.9	-85.5	46	4
2023-08-26T06:00	24598	28	-53.9	-85.5	43	4
2023-08-26T06:00	24617	28	-53.8	-85.4	38	5
2023-08-26T06:00	24645	28	-53.6	-85.3	33	5
2023-08-26T06:00	24679	28	-53.4	-85.8	29	6
2023-08-26T06:00	24700	28	-53.3	-85.7	27	6
2023-08-26T06:00	24724	28	-53.0	-85.5	27	7
2023-08-26T06:00	24750	28	-52.7	-85.3	29	7
2023-08-26T06:00	24780	27	-52.5	-85.1	31	7
2023-08-26T06:00	24799	27	-52.5	-85.1	34	7
2023-08-26T06:00	24821	27	-52.4	-85.1	37	7
2023-08-26T06:00	24849	27	-52.2	-84.9	39	6
2023-08-26T06:00	24877	27	-52.2	-84.9	42	6
2023-08-26T06:00	24901	27	-52.2	-84.9	45	6
2023-08-26T06:00	24930	27	-52.2	-84.9	48	5
2023-08-26T06:00	24950	27	-52.2	-84.9	52	5
2023-08-26T06:00	24967	27	-52.2	-84.9	57	4
2023-08-26T06:00	25001	27	-52.4	-85.1	62	4
2023-08-26T06:00	25024	26	-52.3	-85.0	65	3
2023-08-26T06:00	25052	26	-52.1	-84.8	65	3
2023-08-26T06:00	25072	26	-52.0	-84.8	58	3
2023-08-26T06:00	25104	26	-52.0	-84.8	45	3
2023-08-26T06:00	25134	26	-52.0	-84.8	32	3
2023-08-26T06:00	25152	26	-52.0	-84.8	23	4
2023-08-26T06:00	25189	26	-51.8	-84.6	19	5
2023-08-26T06:00	25208	26	-51.8	-84.6	19	6
2023-08-26T06:00	25233	26	-51.7	-84.5	21	7
2023-08-26T06:00	25258	25	-51.6	-84.5	25	7
2023-08-26T06:00	25285	25	-51.5	-84.4	29	8
2023-08-26T06:00	25315	25	-51.5	-84.4	34	8
2023-08-26T06:00	25346	25	-51.4	-84.3	38	8
2023-08-26T06:00	25367	25	-51.4	-84.3	43	8
2023-08-26T06:00	25402	25	-51.4	-84.3	48	8
2023-08-26T06:00	25420	25	-51.4	-84.3	52	8
2023-08-26T06:00	25445	25	-51.2	-84.2	54	9
2023-08-26T06:00	25479	25	-51.0	-84.8	55	9
2023-08-26T06:00	25500	25	-51.0	-84.8	55	9
2023-08-26T06:00	25528	24	-51.0	-84.8	54	9
2023-08-26T06:00	25557	24	-50.8	-84.7	53	9
2023-08-26T06:00	25580	24	-50.5	-84.5	52	9
2023-08-26T06:00	25601	24	-50.3	-84.3	53	8
2023-08-26T06:00	25629	24	-50.2	-84.2	55	8
2023-08-26T06:00	25651	24	-50.1	-84.2	59	8
2023-08-26T06:00	25677	24	-50.0	-84.1	63	7
2023-08-26T06:00	25702	24	-49.9	-84.0	67	7
2023-08-26T06:00	25738	24	-49.6	-83.8	71	7
2023-08-26T06:00	25765	24	-49.3	-83.6	73	6
2023-08-26T06:00	25783	23	-49.2	-83.5	75	6
2023-08-26T06:00	25818	23	-49.1	-83.4	75	6
2023-08-26T06:00	25845	23	-49.2	-83.5	73	5
2023-08-26T06:00	25860	23	-49.3	-83.6	71	5
2023-08-26T06:00	25884	23	-49.3	-83.6	69	5
2023-08-26T06:00	25915	23	-49.4	-83.7	66	5
2023-08-26T06:00	25934	23	-49.5	-83.7	65	5
2023-08-26T06:00	25969	23	-49.6	-83.8	66	5
2023-08-26T06:00	25988	23	-49.7	-83.9	68	5
2023-08-26T06:00	26022	23	-49.7	-83.9	72	5
2023-08-26T06:00	26041	23	-49.9	-84.0	76	5
2023-08-26T06:00	26070	22	-49.9	-84.0	80	5
2023-08-26T06:00	26094	22	-49.9	-84.0	82	5
2023-08-26T06:00	26112	22	-50.0	-84.1	83	5
2023-08-26T06:00	26148	22	-50.0	-84.1	82	5
2023-08-26T06:00	26162	22	-50.0	-84.1	80	5
2023-08-26T06:00	26195	22	-49.9	-84.0	79	5
2023-08-26T06:00	26211	22	-50.0	-84.1	79	5
2023-08-26T06:00	26240	22	-50.1	-84.2	81	5
2023-08-26T06:00	26265	22	-50.1	-84.2	83	5
2023-08-26T06:00	26285	22	-50.0	-84.1	86	5
2023-08-26T06:00	26319	22	-49.8	-84.0	90	5
2023-08-26T06:00	26339	22	-49.7	-83.9	94	5
2023-08-26T06:00	26353	22	-49.7	-83.9	100	5
2023-08-26T06:00	26392	21	-49.7	-83.9	108	4
2023-08-26T06:00	26410	21	-49.6	-83.8	118	5
2023-08-26T06:00	26437	21	-49.5	-83.7	128	5
2023-08-26T06:00	26464	21	-49.5	-83.7	136	5
2023-08-26T06:00	26491	21	-49.5	-83.7	142	5
2023-08-26T06:00	26513	21	-49.3	-83.6	147	5
2023-08-26T06:00	26537	21	-49.1	-84.3	150	5
2023-08-26T06:00	26566	21	-48.8	-84.1	152	4
2023-08-26T06:00	26590	21	-48.6		151	4
2023-08-26T06:00	26613	21	-48.4	-83.8	147	3
2023-08-26T06:00	26633	21	-48.1	-83.6	138	3
2023-08-26T06:00	26663	21	-47.8	-83.4	127	3
2023-08-26T06:00	26685	20	-47.6	-83.3	118	3
2023-08-26T06:00	26711	20	-47.4	-83.1	113	4
2023-08-26T06:00	26738	20	-47.2	-83.0	110	4
2023-08-26T06:00	26764	20	-47.1	-82.9	109	4
2023-08-26T06:00	26789	20	-47.0	-82.9	109	4
2023-08-26T06:00	26816	20	-46.8	-82.7	112	4
2023-08-26T06:00	26843	20	-46.6	-82.6	117	3
2023-08-26T06:00	26869	20	-46.7	-82.6	124	3
2023-08-26T06:00	26893	20	-46.7	-82.6	133	3
2023-08-26T06:00	26921	20	-46.7	-82.6	143	2
2023-08-26T06:00	26951	20	-46.7	-82.6	153	2
2023-08-26T06:00	26974	20	-46.7	-82.6	163	2
2023-08-26T06:00	26997	20	-46.8	-82.7	175	1
2023-08-26T06:00	27031	19	-46.8	-82.7	189	1
2023-08-26T06:00	27059	19	-46.9	-82.8	208	1
2023-08-26T06:00	27084	19	-46.8	-82.7	225	0
2023-08-26T06:00	27104	19	-46.5	-82.5	77	0
2023-08-26T06:00	27145	19	-46.3	-83.4	85	1
2023-08-26T06:00	27167	19	-46.0	-83.2	92	1
2023-08-26T06:00	27196	19	-45.8	-83.1	97	2
2023-08-26T06:00	27211	19	-45.7	-83.0	100	3
2023-08-26T06:00	27243	19	-45.6	-82.9	102	3
2023-08-26T06:00	27277	19	-45.4	-82.8	102	4
2023-08-26T06:00	27299	19	-45.2	-82.7	100	4
2023-08-26T06:00	27333	19	-45.2	-82.7	97	5
2023-08-26T06:00	27361	19	-45.2	-82.7	94	5
2023-08-26T06:00	27388	18	-45.2	-82.7	92	5
2023-08-26T06:00	27405	18	-44.9	-82.5	92	5
2023-08-26T06:00	27447	18	-44.7	-82.3	95	5
2023-08-26T06:00	27457	18	-44.6	-82.2	100	5
2023-08-26T06:00	27503	18	-44.6	-82.2	107	5
2023-08-26T06:00	27515	18	-44.5	-82.2	114	5
2023-08-26T06:00	27554	18	-44.6	-82.2	121	5
2023-08-26T06:00	27575	18	-44.6	-82.2	127	5
2023-08-26T06:00	27606	18	-44.6	-82.2	132	5
2023-08-26T06:00	27631	18	-44.6	-82.2	136	5
2023-08-26T06:00	27656	18	-44.6	-82.2	141	5
2023-08-26T06:00	27689	18	-44.5	-82.2	146	5
2023-08-26T06:00	27712	18	-44.4	-82.1	153	4
2023-08-26T06:00	27731	17	-44.4	-82.1	162	4
2023-08-26T06:00	27767	17	-44.4	-82.1	172	4
2023-08-26T06:00	27790	17	-44.2	-82.0	181	4
2023-08-26T06:00	27828	17	-44.4	-82.1	187	4
2023-08-26T06:00	27860	17	-44.5	-82.2	191	3
2023-08-26T06:00	27876	17	-44.7	-82.3	192	3
2023-08-26T06:00	27911	17	-44.8	-82.4	190	3
2023-08-26T06:00	27933	17	-44.8	-82.4	185	2
2023-08-26T06:00	27957	17	-44.9	-82.5	179	2
2023-08-26T06:00	27996	17	-45.0	-82.5	172	2
2023-08-26T06:00	28028	17	-45.1	-82.6	162	2
2023-08-26T06:00	28051	17	-45.2	-82.7	148	2
2023-08-26T06:00	28096	17	-45.3	-82.7	130	2
2023-08-26T06:00	28111	17	-45.2	-82.7	111	2
2023-08-26T06:00	28133	16	-45.1	-82.6	97	2
2023-08-26T06:00	28174	16	-45.1	-82.6	87	2
2023-08-26T06:00	28195	16	-45.2	-82.7	79	2
2023-08-26T06:00	28217	16	-45.2	-82.7	71	2
2023-08-26T06:00	28264	16	-45.3	-82.7	60	2
2023-08-26T06:00	28294	16	-45.4	-82.8	46	2
2023-08-26T06:00	28329	16	-45.5	-82.9	30	2
2023-08-26T06:00	28349	16	-45.6	-82.9	19	2
2023-08-26T06:00	28377	16	-45.6	-82.9	11	2
2023-08-26T06:00	28403	16	-45.7	-83.0	6	3
2023-08-26T06:00	28431	16	-45.8	-83.1	3	3
2023-08-26T06:00	28465	16	-45.9	-83.2	2	3
2023-08-26T06:00	28494	16	-46.1	-83.3	6	3
2023-08-26T06:00	28523	16	-46.3	-83.4	17	3
2023-08-26T06:00	28565	15	-46.4	-83.5	40	2
2023-08-26T06:00	28591	15	-46.3	-83.4	71	2
2023-08-26T06:00	28616	15	-46.1	-83.3	95	3
2023-08-26T06:00	28656	15	-45.9	-83.2	109	4
2023-08-26T06:00	28672	15	-45.9	-83.2	120	4
2023-08-26T06:00	28702	15	-45.9	-83.2	128	5
2023-08-26T06:00	28736	15	-45.8	-83.1	136	5
2023-08-26T06:00	28767	15	-45.7	-83.0	144	6
2023-08-26T06:00	28788	15	-45.5	-82.9	152	6
2023-08-26T06:00	28809	15	-45.6	-82.9	161	6
2023-08-26T06:00	28845	15	-45.7	-83.0	169	5
2023-08-26T06:00	28869	15	-45.5	-82.9	177	5
2023-08-26T06:00	28877	15	-45.0	-82.5	186	4
2023-08-26T06:00	28914	15	-44.5	-82.2	196	4
2023-08-26T06:00	28947	15	-44.3	-82.0	208	3
2023-08-26T06:00	28968	15	-44.3	-82.0	225	2
2023-08-26T06:00	28996	15	-44.2	-82.0	247	2
2023-08-26T06:00	29013	14	-44.2	-82.0	269	2
2023-08-26T06:00	29036	14	-43.9	-81.8	288	2
2023-08-26T06:00	29069	14	-43.7	-81.6	304	2
2023-08-26T06:00	29087	14	-43.7	-81.6	319	1
2023-08-26T06:00	29108	14	-43.7	-81.6	342	1
2023-08-26T06:00	29134	14	-43.7	-81.6	35	1
2023-08-26T06:00	29161	14	-43.5	-81.5	87	1
2023-08-26T06:00	29191	14	-43.4	-81.4	108	2
2023-08-26T06:00	29211	14	-43.4	-81.4	120	3
2023-08-26T06:00	29223	14	-43.4	-81.4	129	3
2023-08-26T06:00	29264	14	-43.5	-81.5	137	4
2023-08-26T06:00	29303	14	-43.5	-81.5	143	5
2023-08-26T06:00	29306	14	-43.3	-81.3	148	5
2023-08-26T06:00	29339	14	-43.0	-81.1	151	6
2023-08-26T06:00	29365	14	-42.9	-81.1	153	6
2023-08-26T06:00	29389	14	-42.9	-81.1	154	6
2023-08-26T06:00	29420	14	-42.9	-81.1	154	6
2023-08-26T06:00	29451	14	-42.8	-81.0	155	6
2023-08-26T06:00	29479	14	-42.6	-80.8	155	6
2023-08-26T06:00	29497	13	-42.5	-80.8	156	6
2023-08-26T06:00	29526	13	-42.3	-80.6	159	6
2023-08-26T06:00	29551	13	-42.1	-80.5	162	6
2023-08-26T06:00	29580	13	-42.0	-80.4	165	5
2023-08-26T06:00	29608	13	-42.0	-80.4	167	5
2023-08-26T06:00	29642	13	-42.0	-80.4	168	5
2023-08-26T06:00	29667	13	-42.0	-80.4	168	5
2023-08-26T06:00	29701	13	-42.2	-80.6	167	5
2023-08-26T06:00	29733	13	-42.1	-80.5	165	4
2023-08-26T06:00	29758	13	-42.1	-80.5	164	4
2023-08-26T06:00	29795	13	-42.2	-80.6	163	4
2023-08-26T06:00	29812	13	-42.3	-80.6	164	3
2023-08-26T06:00	29840	13	-42.3	-80.6	166	3
2023-08-26T06:00	29866	13	-42.4	-80.7	168	2
2023-08-26T06:00	29908	13	-42.4	-80.7	169	1
2023-08-26T06:00	29934	13	-42.5	-80.8	161	1
2023-08-26T06:00	29966	13	-42.4	-80.7	133	1
2023-08-26T06:00	30001	13	-42.1	-80.5	109	1
2023-08-26T06:00	30032	12	-41.7	-80.2	105	2
2023-08-26T06:00	30064	12	-41.5	-80.1	109	2
2023-08-26T06:00	30094	12	-41.4	-80.0	115	3
2023-08-26T06:00	30132	12	-41.5	-80.1	120	4
2023-08-26T06:00	30149	12	-41.6	-80.1	124	5
2023-08-26T06:00	30191	12	-41.6	-80.1	126	6
2023-08-26T06:00	30204	12	-41.5	-80.1	127	6
2023-08-26T06:00	30238	12	-41.4	-80.0	127	7
2023-08-26T06:00	30270	12	-41.4	-80.0	127	7
2023-08-26T06:00	30303	12	-41.6	-80.1	128	7
2023-08-26T06:00	30331	12	-41.7	-80.2	131	7
2023-08-26T06:00	30364	12	-41.8	-80.3	136	7
2023-08-26T06:00	30397	12	-41.8	-80.3	143	7
2023-08-26T06:00	30416	12	-41.8	-80.3	150	7
2023-08-26T06:00	30441	12	-41.9	-80.4	156	7
2023-08-26T06:00	30468	12	-42.0	-80.4	162	7
2023-08-26T06:00	30507	12	-41.8	-80.3	167	6
2023-08-26T06:00	30537	12	-41.5	-80.1	173	5
2023-08-26T06:00	30564	12	-41.1	-79.8	179	4
2023-08-26T06:00	30605	11	-40.8	-79.6	187	4
2023-08-26T06:00	30633	11	-40.6	-79.5	198	3
2023-08-26T06:00	30637	11	-40.5	-79.4	212	2
2023-08-26T06:00	30683	11	-40.6	-79.5	234	1
2023-08-26T06:00	30708	11	-40.6	-79.5	266	1
2023-08-26T06:00	30727	11	-40.6	-79.5	299	1
2023-08-26T06:00	30758	11	-40.6	-79.5	321	1
2023-08-26T06:00	30776	11	-40.6	-79.5	333	2
2023-08-26T06:00	30810	11	-40.5	-79.4	342	2
2023-08-26T06:00	30821	11	-40.4	-79.3	351	2
2023-08-26T06:00	30859	11	-40.3	-79.2	2	1
2023-08-26T06:00	30881	11	-40.3	-79.2	17	1
2023-08-26T06:00	30914	11	-40.2	-79.2	38	1
2023-08-26T06:00	30950	11	-40.2	-79.2	62	1
2023-08-26T06:00	30970	11	-40.1	-79.1	84	1
2023-08-26T06:00	31009	11	-40.1	-79.1	99	1
2023-08-26T06:00	31038	11	-40.0	-79.0	109	2
2023-08-26T06:00	31041	11	-40.1	-79.1	117	2
2023-08-26T06:00	31063	11	-40.2	-79.2	124	1
2023-08-26T06:00	31111	11	-40.2	-79.2	136	1
2023-08-26T06:00	31123	11	-39.9	-79.0	180	0
2023-08-26T06:00	31164	11	-39.7	-78.8	264	1
2023-08-26T06:00	31195	10	-39.1	-78.4	271	1
2023-08-26T06:00	31230	10	-38.9	-78.3	252	1
2023-08-26T06:00	31270	10	-38.7	-78.1	222	1
2023-08-26T06:00	31291	10	-38.4	-77.9	197	2
2023-08-26T06:00	31302	10	-38.2	-77.8	184	2
2023-08-26T06:00	31347	10	-38.1	-77.7	178	3
2023-08-26T06:00	31384	10	-38.1	-77.7	177	3
2023-08-26T06:00	31386	10	-38.1	-77.7	178	3
2023-08-26T06:00	31422	10	-38.0	-77.6	180	4
2023-08-26T06:00	31461	10	-37.9	-77.6	183	4
2023-08-26T06:00	31470	10	-37.7	-77.4	186	4
2023-08-26T06:00	31508	10	-37.6	-77.4	189	3
2023-08-26T06:00	31539	10	-37.6	-77.4	190	3
2023-08-26T06:00	31579	10	-37.6	-77.4	189	3
2023-08-26T06:00	31590	10	-37.6	-77.4	186	3
2023-08-26T06:00	31629	10	-37.5	-77.3	178	2
2023-08-26T06:00	31650	10	-37.5	-77.3	165	2
2023-08-26T06:00	31677	10	-37.4	-77.2	148	2
2023-08-26T06:00	31692	10	-37.3	-77.2	133	2
2023-08-26T12:00	112	997	22.9	18.0	260	7
2023-08-26T12:00	138	994	21.6	17.3	274	5
2023-08-26T12:00	161	992	21.1	17.0	273	7
2023-08-26T12:00	187	989	20.8	16.9	273	8
2023-08-26T12:00	217	985	20.5	16.9	272	8
2023-08-26T12:00	245	982	20.3	16.8	271	8
2023-08-26T12:00	276	979	20.1	16.8	268	8
2023-08-26T12:00	303	976	19.7	16.7	264	9
2023-08-26T12:00	326	973	19.5	16.8	259	9
2023-08-26T12:00	358	969	19.2	16.6	254	9
2023-08-26T12:00	386	966	19.0	16.5	251	9
2023-08-26T12:00	411	964	18.8	16.1	250	8
2023-08-26T12:00	431	961	18.7	16.0	251	8
2023-08-26T12:00	461	958	18.5	15.8	252	9
2023-08-26T12:00	485	955	18.3	15.6	253	9
2023-08-26T12:00	509	953	18.1	15.5	253	9
2023-08-26T12:00	533	950	17.9	15.8	253	9
2023-08-26T12:00	550	948	17.6	15.9	252	10
2023-08-26T12:00	570	946	17.4	15.7	252	10
2023-08-26T12:00	589	944	17.2	15.8	253	10
2023-08-26T12:00	609	941	17.1	15.6	255	11
2023-08-26T12:00	630	939	16.8	15.8	257	11
2023-08-26T12:00	646	937	16.7	15.6	260	10
2023-08-26T12:00	660	936	16.6	15.6	264	10
2023-08-26T12:00	672	934	16.5	15.6	268	10
2023-08-26T12:00	689	932	16.4	15.4	271	10
2023-08-26T12:00	710	930	16.1	15.3	273	10
2023-08-26T12:00	727	929	16.0	15.5	273	11
2023-08-26T12:00	746	927	15.8	15.4	273	11
2023-08-26T12:00	764	925	15.6	15.3	273	11
2023-08-26T12:00	781	923	15.4	15.4	272	10
2023-08-26T12:00	799	921	15.3	15.3	271	10
2023-08-26T12:00	821	918	15.1	15.1	271	10
2023-08-26T12:00	847	916	14.9	14.9	272	10
2023-08-26T12:00	867	913	14.8	14.8	272	10
2023-08-26T12:00	889	911	14.7	14.7	273	10
2023-08-26T12:00	913	908	14.6	14.6	274	10
2023-08-26T12:00	944	905	14.2	14.2	275	10
2023-08-26T12:00	970	902	14.2	14.2	276	11
2023-08-26T12:00	998	900	13.9	13.9	277	11
2023-08-26T12:00	1022	897	13.8	13.8	278	11
2023-08-26T12:00	1049	894	13.6	13.6	278	11
2023-08-26T12:00	1069	892	13.5	13.4	278	12
2023-08-26T12:00	1090	890	13.3	12.9	277	12
2023-08-26T12:00	1114	887	13.2	12.8	275	13
2023-08-26T12:00	1137	885	13.1	12.5	273	13
2023-08-26T12:00	1160	882	13.1	12.5	273	14
2023-08-26T12:00	1179	880	13.0	12.2	273	15
2023-08-26T12:00	1195	879	13.2	11.9	274	15
2023-08-26T12:00	1214	877	13.2	11.8	274	15
2023-08-26T12:00	1235	875	13.4	11.6	273	15
2023-08-26T12:00	1251	873	13.4	11.3	271	15
2023-08-26T12:00	1267	871	13.6	10.6	269	15
2023-08-26T12:00	1289	869	13.8	9.8	267	15
2023-08-26T12:00	1303	867	13.8	9.6	266	15
2023-08-26T12:00	1319	866	13.7	9.3	264	15
2023-08-26T12:00	1334	864	13.6	9.1	263	15
2023-08-26T12:00	1354	862	13.6	9.1	262	15
2023-08-26T12:00	1374	860	13.5	9.7	260	15
2023-08-26T12:00	1397	858	13.3	9.7	258	15
2023-08-26T12:00	1416	856	13.1	10.2	258	15
2023-08-26T12:00	1438	854	12.9	10.2	258	15
2023-08-26T12:00	1464	851	12.7	10.1	259	15
2023-08-26T12:00	1486	849	12.5	9.9	259	15
2023-08-26T12:00	1504	847	12.4	9.8	259	15
2023-08-26T12:00	1522	845	12.3	9.9	259	14
2023-08-26T12:00	1549	842	12.3	8.9	258	14
2023-08-26T12:00	1578	840	12.4	7.9	256	14
2023-08-26T12:00	1598	838	12.4	7.1	254	14
2023-08-26T12:00	1620	835	12.3	7.1	253	14
2023-08-26T12:00	1642	833	12.1	7.0	252	14
2023-08-26T12:00	1662	831	11.9	7.0	251	14
2023-08-26T12:00	1684	829	11.7	6.8	251	15
2023-08-26T12:00	1706	827	11.6	6.9	251	15
2023-08-26T12:00	1729	825	11.5	6.7	250	16
2023-08-26T12:00	1748	823	11.5	6.4	250	16
2023-08-26T12:00	1767	821	11.4	6.4	250	16
2023-08-26T12:00	1793	818	11.2	6.3	250	15
2023-08-26T12:00	1817	816	11.0	6.1	249	15
2023-08-26T12:00	1844	813	10.8	6.0	248	14
2023-08-26T12:00	1864	811	10.6	6.1	247	14
2023-08-26T12:00	1889	809	10.4	6.1	246	14
2023-08-26T12:00	1907	807	10.2	6.1	245	14
2023-08-26T12:00	1931	805	10.2	6.0	243	14
2023-08-26T12:00	1953	803	10.0	5.8	241	15
2023-08-26T12:00	1977	801	9.8	5.7	239	15
2023-08-26T12:00	1999	798	9.6	5.6	238	15
2023-08-26T12:00	2021	796	9.6		237	15
2023-08-26T12:00	2044	794	9.5	5.2	238	14
2023-08-26T12:00	2075	791	9.2	5.2	239	14
2023-08-26T12:00	2099	789	9.1	5.3	241	14
2023-08-26T12:00	2118	787	8.9	5.4	242	13
2023-08-26T12:00	2143	785	8.7	5.5	243	13
2023-08-26T12:00	2166	783	8.4	5.3	243	13
2023-08-26T12:00	2188	780	8.3	5.5	244	13
2023-08-26T12:00	2214	778	8.0	5.6	243	13
2023-08-26T12:00	2239	776	7.8	5.6	243	13
2023-08-26T12:00	2263	773	7.6	5.6	242	13
2023-08-26T12:00	2288	771	7.4	5.3	241	13
2023-08-26T12:00	2317	769	7.3	5.0	240	14
2023-08-26T12:00	2340	766	7.1	5.0	239	14
2023-08-26T12:00	2374	763	6.9	4.5	238	14
2023-08-26T12:00	2400	761	6.7	4.3	238	15
2023-08-26T12:00	2423	758	6.5	4.1	238	15
2023-08-26T12:00	2444	756	6.3	4.0	238	15
2023-08-26T12:00	2475	754	6.1	3.5	238	15
2023-08-26T12:00	2496	752	6.0	3.5	239	15
2023-08-26T12:00	2527	749	5.6	3.3	239	15
2023-08-26T12:00	2558	746	5.4	3.2	239	16
2023-08-26T12:00	2584	744	5.2	2.9	239	16
2023-08-26T12:00	2606	742	5.0	2.4	238	17
2023-08-26T12:00	2635	739	5.0	2.0	238	17
2023-08-26T12:00	2655	737	4.8	1.7	238	17
2023-08-26T12:00	2685	735	4.7	-0.3	239	18
2023-08-26T12:00	2712	732	4.7	-1.1	240	18
2023-08-26T12:00	2737	730	4.8	-3.1	240	18
2023-08-26T12:00	2766	727	4.6	-1.5	240	18
2023-08-26T12:00	2793	725	4.2	-0.5	240	18
2023-08-26T12:00	2821	722	4.0	0.3	239	18
2023-08-26T12:00	2848	720	3.8	0.7	238	18
2023-08-26T12:00	2878	717	3.8	-0.4	237	18
2023-08-26T12:00	2914	714	3.8	-1.0	236	18
2023-08-26T12:00	2941	712	3.9	-2.3	235	18
2023-08-26T12:00	2964	710	3.8	-2.4	234	18
2023-08-26T12:00	2996	707	3.6	-3.4	232	18
2023-08-26T12:00	3031	704	3.5	-4.3	230	18
2023-08-26T12:00	3060	702	3.4	-4.7	229	18
2023-08-26T12:00	3082	700	3.3	-6.1	229	18
2023-08-26T12:00	3105	698	3.2	-6.6	229	18
2023-08-26T12:00	3127	696	3.1	-4.7	229	17
2023-08-26T12:00	3150	694	2.9	-4.4	229	17
2023-08-26T12:00	3171	692	2.7	-3.7	229	17
2023-08-26T12:00	3200	690	2.5	-3.2	229	17
2023-08-26T12:00	3228	687	2.2	-3.4	228	18
2023-08-26T12:00	3259	685	2.0	-3.5	227	18
2023-08-26T12:00	3282	682	1.8	-3.5	226	18
2023-08-26T12:00	3304	681	1.7	-3.6	225	18
2023-08-26T12:00	3332	678	1.4	-3.5	224	18
2023-08-26T12:00	3367	675	1.1	-3.6	224	18
2023-08-26T12:00	3394	673	0.8	-3.5	225	18
2023-08-26T12:00	3421	671	0.6	-3.5	225	18
2023-08-26T12:00	3446	669	0.6	-5.0	225	18
2023-08-26T12:00	3467	667	1.1	-8.8	225	18
2023-08-26T12:00	3492	665	1.4	-11.1	224	18
2023-08-26T12:00	3519	663	1.4	-11.1	223	17
2023-08-26T12:00	3541	661	1.6	-11.2	223	17
2023-08-26T12:00	3560	659	1.6	-11.2	223	17
2023-08-26T12:00	3584	657	1.5	-11.6	223	17
2023-08-26T12:00	3620	655	1.3	-12.8	224	17
2023-08-26T12:00	3643	653	1.2	-13.3	225	18
2023-08-26T12:00	3669	650	1.0	-13.9	225	18
2023-08-26T12:00	3694	648	1.0	-16.2	226	18
2023-08-26T12:00	3719	646	0.8	-16.9	226	18
2023-08-26T12:00	3740	645	0.7	-17.3	227	18
2023-08-26T12:00	3767	643	0.4	-16.6	226	19
2023-08-26T12:00	3795	640	0.2	-17.7	226	19
2023-08-26T12:00	3820	638	0.1	-17.5	226	19
2023-08-26T12:00	3844	636	-0.2	-17.3	225	18
2023-08-26T12:00	3871	634	-0.4	-17.3	226	18
2023-08-26T12:00	3896	632	-0.7	-17.4	227	18
2023-08-26T12:00	3919	630	-0.9	-17.4	228	18
2023-08-26T12:00	3941	629	-1.1		230	18
2023-08-26T12:00	3966	627	-1.3	-17.4	232	19
2023-08-26T12:00	3989	625	-1.6	-17.4	233	19
2023-08-26T12:00	4025	622	-1.9	-17.7	235	20
2023-08-26T12:00	4045	621	-2.0	-17.7	235	20
2023-08-26T12:00	4064	619	-2.2	-17.6	235	20
2023-08-26T12:00	4089	617	-2.3	-19.6	234	19
2023-08-26T12:00	4114	615	-2.4	-20.5	232	19
2023-08-26T12:00	4146	613	-2.5	-23.1	230	19
2023-08-26T12:00	4163	611	-2.5	-24.5	229	20
2023-08-26T12:00	4187	610	-2.6	-25.6	228	20
2023-08-26T12:00	4212	608	-2.6	-28.3	228	20
2023-08-26T12:00	4231	606	-2.6	-28.1	229	20
2023-08-26T12:00	4249	605	-2.7	-29.2	230	20
2023-08-26T12:00	4274	603	-2.8	-29.7	231	20
2023-08-26T12:00	4298	601	-2.9	-28.8	231	21
2023-08-26T12:00	4323	599	-3.2	-27.7	230	21
2023-08-26T12:00	4344	598	-3.3	-28.2	229	21
2023-08-26T12:00	4363	596	-3.4	-28.5	229	21
2023-08-26T12:00	4386	594	-3.5	-27.3	228	21
2023-08-26T12:00	4406	593	-3.7	-26.5	229	21
2023-08-26T12:00	4434	591	-3.8	-29.5	229	20
2023-08-26T12:00	4480	588	-4.1	-29.4	230	20
2023-08-26T12:00	4505	585	-4.3	-29.3	232	21
2023-08-26T12:00	4533	583	-4.6	-29.4	233	21
2023-08-26T12:00	4565	581	-4.8	-30.3	234	22
2023-08-26T12:00	4588	579	-4.7	-26.7	235	22
2023-08-26T12:00	4606	578	-4.9	-25.7	236	22
2023-08-26T12:00	4634	576	-5.1	-24.9	236	22
2023-08-26T12:00	4662	574	-5.3	-22.5	235	22
2023-08-26T12:00	4678	573	-5.4	-20.4	234	22
2023-08-26T12:00	4700	571	-5.6	-18.5	233	23
2023-08-26T12:00	4734	569	-5.9	-18.1	232	23
2023-08-26T12:00	4757	567	-6.0	-18.3	231	24
2023-08-26T12:00	4776	566	-6.1	-20.1	231	24
2023-08-26T12:00	4803	564	-6.3	-21.4	230	24
2023-08-26T12:00	4827	562	-6.5	-22.6	230	25
2023-08-26T12:00	4845	561	-6.6	-23.1	231	25
2023-08-26T12:00	4869	559	-6.8	-23.9	232	25
2023-08-26T12:00	4900	557	-7.0	-22.0	233	25
2023-08-26T12:00	4927	555	-7.0	-22.6	234	25
2023-08-26T12:00	4957	553	-7.2	-22.5	234	24
2023-08-26T12:00	4978	551	-7.3	-23.5	235	24
2023-08-26T12:00	4998	550	-7.3	-25.2	234	23
2023-08-26T12:00	5019	548	-7.4	-26.5	234	23
2023-08-26T12:00	5041	547	-7.6	-27.1	233	22
2023-08-26T12:00	5073	545	-7.7	-26.6	233	22
2023-08-26T12:00	5100	543	-7.9	-26.8	232	22
2023-08-26T12:00	5117	541	-8.0	-26.8	232	23
2023-08-26T12:00	5138	540	-8.1	-26.9	231	23
2023-08-26T12:00	5163	538	-8.2		232	24
2023-08-26T12:00	5190	536	-8.3	-26.8	232	24
2023-08-26T12:00	5221	534	-8.4	-26.8	233	24
2023-08-26T12:00	5243	533	-8.5	-26.1	233	24
2023-08-26T12:00	5263	531	-8.7	-26.1	232	24
2023-08-26T12:00	5285	530	-8.8	-26.2	231	24
2023-08-26T12:00	5308	528	-9.0	-26.4	229	24
2023-08-26T12:00	5339	526	-9.3	-27.0	228	24
2023-08-26T12:00	5367	524	-9.4	-28.1	227	24
2023-08-26T12:00	5385	523	-9.5	-27.7	227	24
2023-08-26T12:00	5405	522	-9.6	-27.4	226	25
2023-08-26T12:00	5423	520	-9.7	-27.2	225	25
2023-08-26T12:00	5443	519	-9.9	-26.8	224	25
2023-08-26T12:00	5470	517	-10.1	-26.0	223	26
2023-08-26T12:00	5500	515	-10.3	-25.9	222	26
2023-08-26T12:00	5522	514	-10.4	-26.1	221	26
2023-08-26T12:00	5548	512	-10.4	-26.4	221	26
2023-08-26T12:00	5572	510	-10.5	-27.1	221	26
2023-08-26T12:00	5601	508	-10.6	-26.5	222	26
2023-08-26T12:00	5634	506	-10.9	-26.3	222	26
2023-08-26T12:00	5652	505	-11.0	-27.3	223	26
2023-08-26T12:00	5676	504	-11.2	-25.7	223	26
2023-08-26T12:00	5705	502	-11.4		224	26
2023-08-26T12:00	5734	500	-11.7	-27.9	225	26
2023-08-26T12:00	5761	498	-11.9	-28.2	226	26
2023-08-26T12:00	5795	496	-12.3	-28.4	227	26
2023-08-26T12:00	5818	494	-12.5	-28.5	228	26
2023-08-26T12:00	5842	493	-12.5	-27.0	228	27
2023-08-26T12:00	5867	491	-12.7	-26.7	227	27
2023-08-26T12:00	5899	489	-13.0	-26.7	226	28
2023-08-26T12:00	5922	488	-13.2	-26.5	225	28
2023-08-26T12:00	5948	486	-13.5	-26.5	225	29
2023-08-26T12:00	5969	485	-13.7	-26.5	224	28
2023-08-26T12:00	5995	483	-13.9	-26.6	224	28
2023-08-26T12:00	6021	481	-14.2	-26.6	225	28
2023-08-26T12:00	6048	480	-14.4	-26.6	225	27
2023-08-26T12:00	6073	478	-14.7	-26.7	225	27
2023-08-26T12:00	6104	476	-15.0	-26.9	225	28
2023-08-26T12:00	6131	474	-15.2	-26.9	225	28
2023-08-26T12:00	6150	473	-15.4	-26.7	225	28
2023-08-26T12:00	6172	472	-15.6	-27.0	226	28
2023-08-26T12:00	6196	470	-15.9	-27.2	226	28
2023-08-26T12:00	6229	468	-16.2	-28.0	226	28
2023-08-26T12:00	6257	466	-16.4	-28.5	227	28
2023-08-26T12:00	6293	464	-16.7	-29.6	228	28
2023-08-26T12:00	6316	463	-16.8	-30.7	228	28
2023-08-26T12:00	6331	462	-17.0	-31.1	229	28
2023-08-26T12:00	6351	461	-17.1	-31.0	229	28
2023-08-26T12:00	6372	459	-17.3	-30.7	229	28
2023-08-26T12:00	6395	458	-17.5	-30.6	229	28
2023-08-26T12:00	6429	456	-17.8	-30.3	230	28
2023-08-26T12:00	6457	454	-18.1	-30.5	230	28
2023-08-26T12:00	6485	453	-18.3	-31.2	231	28
2023-08-26T12:00	6510	451	-18.5	-31.6	231	28
2023-08-26T12:00	6529	450	-18.6	-32.4	231	28
2023-08-26T12:00	6550	449	-18.7	-32.9	230	28
2023-08-26T12:00	6572	447	-18.9	-33.0	229	27
2023-08-26T12:00	6606	445	-19.2	-32.5	229	28
2023-08-26T12:00	6625	444	-19.4	-32.4	228	28
2023-08-26T12:00	6653	442	-19.7	-31.3	228	28
2023-08-26T12:00	6678	441	-19.9	-30.7	228	28
2023-08-26T12:00	6705	439	-20.0	-31.0	228	28
2023-08-26T12:00	6742	437	-20.2	-33.0	229	28
2023-08-26T12:00	6773	435	-20.4		230	28
2023-08-26T12:00	6791	434	-20.6	-34.1	231	28
2023-08-26T12:00	6808	433	-20.7	-35.5	231	28
2023-08-26T12:00	6825	432	-20.8	-38.2	231	28
2023-08-26T12:00	6844	431	-20.9	-38.9	231	28
2023-08-26T12:00	6867	430	-21.1	-40.0	231	28
2023-08-26T12:00	6904	428	-21.4	-40.1	232	28
2023-08-26T12:00	6929	426	-21.6	-40.3	233	28
2023-08-26T12:00	6954	425	-21.7	-40.2	233	28
2023-08-26T12:00	6974	424	-21.7	-40.0	233	29
2023-08-26T12:00	6994	423	-21.8	-40.2	233	29
2023-08-26T12:00	7008	422	-21.9	-40.5	232	30
2023-08-26T12:00	7030	420	-22.0		232	30
2023-08-26T12:00	7055	419	-22.2	-40.1	231	30
2023-08-26T12:00	7086	417	-22.4	-40.9	231	30
2023-08-26T12:00	7112	416	-22.6	-42.0	231	31
2023-08-26T12:00	7147	414	-22.8	-43.2	232	31
2023-08-26T12:00	7175	412	-23.0	-43.5	233	32
2023-08-26T12:00	7192	411	-23.1	-43.8	233	32
2023-08-26T12:00	7211	410	-23.2	-44.0	234	32
2023-08-26T12:00	7231	409	-23.3	-44.4	235	32
2023-08-26T12:00	7257	408	-23.3	-45.4	235	32
2023-08-26T12:00	7283	406	-23.5	-45.6	236	32
2023-08-26T12:00	7317	404	-23.7	-45.9	236	33
2023-08-26T12:00	7347	403	-23.9		236	33
2023-08-26T12:00	7367	402	-24.0	-46.5	235	33
2023-08-26T12:00	7386	400	-24.1	-46.7	234	33
2023-08-26T12:00	7405	399	-24.2	-46.8	233	33
2023-08-26T12:00	7422	398	-24.3	-47.1	232	33
2023-08-26T12:00	7439	398	-24.4	-47.2	231	33
2023-08-26T12:00	7456	397	-24.6	-47.3	230	33
2023-08-26T12:00	7478	395	-24.7	-47.3	230	33
2023-08-26T12:00	7504	394	-25.0		230	34
2023-08-26T12:00	7533	392	-25.2	-47.6	229	34
2023-08-26T12:00	7567	391	-25.5	-47.7	229	34
2023-08-26T12:00	7611	389	-25.8	-48.2	230	34
2023-08-26T12:00	7631	387	-25.8	-48.3	230	34
2023-08-26T12:00	7649	386	-26.0	-48.3	230	34
2023-08-26T12:00	7673	385	-26.1	-48.3	231	35
2023-08-26T12:00	7701	383	-26.3	-47.9	231	35
2023-08-26T12:00	7729	382	-26.5		231	36
2023-08-26T12:00	7761	380	-26.7	-46.7	230	37
2023-08-26T12:00	7799	378	-26.9	-45.1	230	38
2023-08-26T12:00	7828	377	-27.1	-44.2	229	38
2023-08-26T12:00	7849	376	-27.2	-43.6	229	39
2023-08-26T12:00	7870	375	-27.4	-43.6	230	40
2023-08-26T12:00	7891	374	-27.6	-43.6	230	40
2023-08-26T12:00	7909	373	-27.7	-43.2	231	41
2023-08-26T12:00	7927	372	-27.8	-42.9	231	42
2023-08-26T12:00	7946	371	-27.8	-42.3	231	42
2023-08-26T12:00	7968	369	-27.9	-42.6	231	43
2023-08-26T12:00	7996	368	-28.1	-43.2	231	43
2023-08-26T12:00	8029	366	-28.2	-42.5	230	44
2023-08-26T12:00	8056	365	-28.4	-41.8	230	44
2023-08-26T12:00	8082	364	-28.5	-41.0	230	45
2023-08-26T12:00	8113	362	-28.7	-40.0	230	45
2023-08-26T12:00	8138	361	-28.9	-39.4	230	46
2023-08-26T12:00	8156	360	-29.0	-39.2	230	46
2023-08-26T12:00	8177	359	-29.1	-38.9	229	46
2023-08-26T12:00	8196	358	-29.1	-38.8	229	46
2023-08-26T12:00	8214	357	-29.3	-39.2	229	46
2023-08-26T12:00	8236	356	-29.4	-40.4	229	45
2023-08-26T12:00	8258	355	-29.5	-40.9	230	45
2023-08-26T12:00	8284	353	-29.7	-41.5	230	45
2023-08-26T12:00	8315	352	-30.0	-41.5	229	45
2023-08-26T12:00	8347	351	-30.2	-41.8	229	45
2023-08-26T12:00	8373	349	-30.5	-41.7	229	45
2023-08-26T12:00	8401	348	-30.7	-41.8	229	45
2023-08-26T12:00	8437	346	-31.0	-41.8	230	45
2023-08-26T12:00	8465	345	-31.3	-41.9	231	45
2023-08-26T12:00	8496	343	-31.5	-41.9	231	45
2023-08-26T12:00	8523	342	-31.8	-41.5	232	45
2023-08-26T12:00	8555	340	-32.0	-41.7	233	46
2023-08-26T12:00	8594	339	-32.3	-42.3	234	46
2023-08-26T12:00	8616	337	-32.5	-42.5	234	46
2023-08-26T12:00	8650	336	-32.8	-42.4	235	47
2023-08-26T12:00	8676	335	-33.0	-42.2	235	47
2023-08-26T12:00	8692	334	-33.1	-41.9	235	47
2023-08-26T12:00	8713	333	-33.2	-41.4	235	47
2023-08-26T12:00	8733	332	-33.4	-41.1	235	48
2023-08-26T12:00	8763	330	-33.6	-41.1	235	48
2023-08-26T12:00	8788	329	-33.8	-41.3	235	48
2023-08-26T12:00	8814	328	-34.1	-41.3	235	48
2023-08-26T12:00	8839	327	-34.3	-41.3	235	49
2023-08-26T12:00	8863	326	-34.5	-41.3	235	49
2023-08-26T12:00	8891	324	-34.8	-41.4	235	49
2023-08-26T12:00	8917	323	-34.9	-41.7	235	49
2023-08-26T12:00	8949	322	-35.2	-42.7	235	49
2023-08-26T12:00	8984	320	-35.5	-42.7	235	49
2023-08-26T12:00	9006	319	-35.7	-43.0	235	49
2023-08-26T12:00	9032	318	-36.0	-43.2	235	49
2023-08-26T12:00	9058	317	-36.2	-43.1	236	48
2023-08-26T12:00	9086	315	-36.5	-43.7	236	48
2023-08-26T12:00	9112	314	-36.7	-44.0	236	48
2023-08-26T12:00	9135	313	-36.9	-44.4	236	48
2023-08-26T12:00	9160	312	-37.0	-45.7	237	48
2023-08-26T12:00	9186	311	-37.3	-46.0	237	48
2023-08-26T12:00	9220	309	-37.6	-46.4	237	48
2023-08-26T12:00	9252	308	-37.9	-46.5	237	49
2023-08-26T12:00	9287	306	-38.2	-46.9	237	49
2023-08-26T12:00	9313	305	-38.4	-47.0	237	49
2023-08-26T12:00	9338	304	-38.6	-47.2	238	48
2023-08-26T12:00	9365	303	-38.8	-47.2	238	48
2023-08-26T12:00	9390	302	-39.0	-48.1	237	47
2023-08-26T12:00	9413	301	-39.2	-48.7	237	46
2023-08-26T12:00	9440	300	-39.4	-48.8	236	46
2023-08-26T12:00	9473	298	-39.6	-49.2	236	45
2023-08-26T12:00	9505	297	-39.5	-51.0	235	45
2023-08-26T12:00	9529	296	-39.6	-51.5	234	44
2023-08-26T12:00	9550	295	-39.5	-52.7	233	44
2023-08-26T12:00	9585	293	-39.5	-54.2	232	44
2023-08-26T12:00	9617	292	-39.6	-54.6	231	43
2023-08-26T12:00	9650	291	-39.9	-54.7	229	43
2023-08-26T12:00	9678	289	-40.1	-55.0	228	43
2023-08-26T12:00	9705	288	-40.3		227	43
2023-08-26T12:00	9743	287	-40.6	-55.5	225	44
2023-08-26T12:00	9780	285	-41.0	-55.7	225	44
2023-08-26T12:00	9812	284	-41.2	-55.9	225	45
2023-08-26T12:00	9844	282	-41.4	-56.3	225	46
2023-08-26T12:00	9869	281	-41.6	-56.2	225	46
2023-08-26T12:00	9890	280	-41.9	-56.3	224	46
2023-08-26T12:00	9917	279	-42.1	-56.3	224	46
2023-08-26T12:00	9942	278	-42.3	-56.5	222	46
2023-08-26T12:00	9966	277	-42.5	-56.6	221	45
2023-08-26T12:00	9995	276	-42.7	-56.7	220	45
2023-08-26T12:00	10024	275	-42.9	-56.8	220	45
2023-08-26T12:00	10044	274	-43.1	-56.9	220	46
2023-08-26T12:00	10072	273	-43.3	-56.9	219	46
2023-08-26T12:00	10098	272	-43.5	-56.8	219	46
2023-08-26T12:00	10119	271	-43.7	-56.8	219	46
2023-08-26T12:00	10140	270	-43.9	-56.9	219	46
2023-08-26T12:00	10162	269	-44.1	-56.8	219	46
2023-08-26T12:00	10187	268	-44.3	-56.8	219	46
2023-08-26T12:00	10213	267	-44.6	-56.9	218	46
2023-08-26T12:00	10242	266	-44.8	-56.7	218	46
2023-08-26T12:00	10268	265	-45.0	-56.8	218	46
2023-08-26T12:00	10295	264	-45.3	-56.7	218	45
2023-08-26T12:00	10329	263	-45.6	-56.6	218	45
2023-08-26T12:00	10368	261	-45.9	-56.7	218	45
2023-08-26T12:00	10395	260	-46.2	-56.9	217	45
2023-08-26T12:00	10423	259	-46.4	-57.0	216	45
2023-08-26T12:00	10448	258	-46.5	-57.4	215	45
2023-08-26T12:00	10472	257	-46.6	-57.8	215	46
2023-08-26T12:00	10501	256	-46.8	-58.4	214	46
2023-08-26T12:00	10529	255	-46.8	-59.2	214	46
2023-08-26T12:00	10551	254	-46.9	-59.5	214	46
2023-08-26T12:00	10576	253	-47.1	-59.2	213	46
2023-08-26T12:00	10601	252	-47.2	-58.9	213	47
2023-08-26T12:00	10625	251	-47.3	-58.9	213	47
2023-08-26T12:00	10647	250	-47.5	-59.1	213	47
2023-08-26T12:00	10670	250	-47.7	-59.1	212	47
2023-08-26T12:00	10695	249	-47.9	-59.1	212	47
2023-08-26T12:00	10721	248	-48.1	-59.2	212	47
2023-08-26T12:00	10745	247	-48.3	-59.2	212	48
2023-08-26T12:00	10769	246	-48.5	-59.2	212	48
2023-08-26T12:00	10793	245	-48.7	-59.3	212	48
2023-08-26T12:00	10815	244	-48.9	-59.4	212	49
2023-08-26T12:00	10839	243	-49.0	-59.4	212	49
2023-08-26T12:00	10862	242	-49.2	-59.6	212	49
2023-08-26T12:00	10884	242	-49.3	-59.8	212	50
2023-08-26T12:00	10907	241	-49.4	-59.8	212	50
2023-08-26T12:00	10930	240	-49.6	-59.8	212	50
2023-08-26T12:00	10953	239	-49.7	-59.6	212	51
2023-08-26T12:00	10974	238	-49.8	-59.5	213	51
2023-08-26T12:00	10996	237	-50.0	-59.7	213	51
2023-08-26T12:00	11017	237	-50.2	-59.7	213	51
2023-08-26T12:00	11040	236	-50.4	-59.7	213	51
2023-08-26T12:00	11063	235	-50.6	-59.7	213	51
2023-08-26T12:00	11084	234	-50.8	-59.6	213	51
2023-08-26T12:00	11107	233	-51.0	-59.6	214	51
2023-08-26T12:00	11130	233	-51.2	-59.5	214	51
2023-08-26T12:00	11155	232	-51.5	-59.6	214	51
2023-08-26T12:00	11187	231	-51.8	-59.7	214	51
2023-08-26T12:00	11209	230	-52.0	-59.7	214	51
2023-08-26T12:00	11231	229	-52.1	-59.4	214	52
2023-08-26T12:00	11256	228	-52.4	-59.0	214	52
2023-08-26T12:00	11283	227	-52.6	-58.5	214	52
2023-08-26T12:00	11305	226	-52.8	-58.4	214	52
2023-08-26T12:00	11328	226	-53.1	-58.5	213	52
2023-08-26T12:00	11362	224	-53.4	-58.3	213	52
2023-08-26T12:00	11392	223	-53.7	-58.0	213	51
2023-08-26T12:00	11420	223	-53.8	-57.9	213	51
2023-08-26T12:00	11440	222	-54.0		213	51
2023-08-26T12:00	11461	221	-54.2	-58.4	213	51
2023-08-26T12:00	11484	220	-54.4	-58.7	213	51
2023-08-26T12:00	11511	219	-54.7	-59.3	213	51
2023-08-26T12:00	11533	219	-54.8	-59.6	214	52
2023-08-26T12:00	11552	218	-55.0	-59.8	215	52
2023-08-26T12:00	11592	217	-55.3	-60.0	216	52
2023-08-26T12:00	11617	216	-55.5	-60.5	217	52
2023-08-26T12:00	11642	215	-55.6	-61.3	218	51
2023-08-26T12:00	11672	214	-55.7	-62.1	219	51
2023-08-26T12:00	11694	213	-55.9	-62.6	220	50
2023-08-26T12:00	11712	212	-56.1	-62.8	220	50
2023-08-26T12:00	11738	212	-56.2	-63.1	221	50
2023-08-26T12:00	11758	211	-56.4	-63.4	221	51
2023-08-26T12:00	11778	210	-56.6	-63.5	221	51
2023-08-26T12:00	11801	210	-56.7	-63.5	221	52
2023-08-26T12:00	11822	209	-56.8	-63.5	222	52
2023-08-26T12:00	11846	208	-56.9	-63.7	223	52
2023-08-26T12:00	11866	207	-56.9	-63.9	223	52
2023-08-26T12:00	11890	207	-56.9	-64.1	224	52
2023-08-26T12:00	11912	206	-57.0	-64.3	225	52
2023-08-26T12:00	11931	205	-57.2	-64.8	226	51
2023-08-26T12:00	11949	205	-57.0	-65.2	227	51
2023-08-26T12:00	11968	204	-56.7	-66.0	227	51
2023-08-26T12:00	11987	203	-56.3	-67.0	228	50
2023-08-26T12:00	12007	203	-56.2	-68.0	228	50
2023-08-26T12:00	12028	202	-56.2	-68.6	229	49
2023-08-26T12:00	12049	202	-56.2	-68.9	229	49
2023-08-26T12:00	12068	201	-56.0	-69.0	229	48
2023-08-26T12:00	12089	200	-56.0	-69.3	229	47
2023-08-26T12:00	12107	200	-55.9	-69.5	230	46
2023-08-26T12:00	12127	199	-55.8	-69.9	230	45
2023-08-26T12:00	12147	198	-55.0	-70.0	231	44
2023-08-26T12:00	12167	198	-54.5	-70.5	231	43
2023-08-26T12:00	12187	197	-54.1	-70.9	232	42
2023-08-26T12:00	12206	197	-54.1	-71.3	232	41
2023-08-26T12:00	12229	196	-53.9	-71.6	232	40
2023-08-26T12:00	12248	195	-53.7	-72.4	232	39
2023-08-26T12:00	12269	195	-53.6	-73.1	232	39
2023-08-26T12:00	12288	194	-53.4	-73.6	231	38
2023-08-26T12:00	12308	193	-53.0	-73.5	230	38
2023-08-26T12:00	12330	193	-52.9	-73.4	228	38
2023-08-26T12:00	12351	192	-52.7	-73.1	227	37
2023-08-26T12:00	12371	192	-52.4	-73.0	226	37
2023-08-26T12:00	12392	191	-52.3	-73.3	226	38
2023-08-26T12:00	12412	190	-52.3	-73.6	225	38
2023-08-26T12:00	12434	190	-52.1	-73.9	225	38
2023-08-26T12:00	12454	189	-51.8	-74.1	225	39
2023-08-26T12:00	12476	189	-51.6	-74.2	226	39
2023-08-26T12:00	12496	188	-51.6	-74.3	226	40
2023-08-26T12:00	12515	187	-51.6	-74.3	226	40
2023-08-26T12:00	12537	187	-51.7	-74.3	226	41
2023-08-26T12:00	12557	186	-51.8	-74.2	227	41
2023-08-26T12:00	12577	186	-52.0	-74.4	227	41
2023-08-26T12:00	12598	185	-52.1	-74.3	228	41
2023-08-26T12:00	12618	184	-52.3	-74.3	229	41
2023-08-26T12:00	12641	184	-52.4	-74.3	230	41
2023-08-26T12:00	12661	183	-52.3	-74.2	231	41
2023-08-26T12:00	12684	183	-52.2	-74.2	232	40
2023-08-26T12:00	12705	182	-52.1	-74.4	233	39
2023-08-26T12:00	12726	181	-52.1	-74.6	234	39
2023-08-26T12:00	12748	181	-52.2	-74.7	234	38
2023-08-26T12:00	12770	180	-52.3	-74.9	235	37
2023-08-26T12:00	12791	180	-52.3	-75.1	235	37
2023-08-26T12:00	12813	179	-52.5	-75.4	234	36
2023-08-26T12:00	12834	178	-52.6	-75.6	234	35
2023-08-26T12:00	12858	178	-52.6	-75.8	233	35
2023-08-26T12:00	12879	177	-52.6	-75.9	232	34
2023-08-26T12:00	12903	176	-52.7	-76.0	231	33
2023-08-26T12:00	12930	176	-52.9	-76.4	230	32
2023-08-26T12:00	12954	175	-52.9	-76.4	228	31
2023-08-26T12:00	12984	174	-52.9	-76.5	227	30
2023-08-26T12:00	13007	174	-53.0	-76.6	225	29
2023-08-26T12:00	13029	173	-52.9	-76.7	223	29
2023-08-26T12:00	13049	173	-52.7	-76.8	222	29
2023-08-26T12:00	13068	172	-52.5	-76.8	221	29
2023-08-26T12:00	13089	171	-52.3	-76.6	221	29
2023-08-26T12:00	13110	171	-52.0	-76.6	221	29
2023-08-26T12:00	13130	170	-51.9	-76.5	221	29
2023-08-26T12:00	13153	170	-51.7	-76.6	221	29
2023-08-26T12:00	13176	169	-51.7	-76.8	221	29
2023-08-26T12:00	13194	169	-51.8	-76.8	221	30
2023-08-26T12:00	13216	168	-51.8	-77.1	221	30
2023-08-26T12:00	13239	168	-51.9	-77.1	221	30
2023-08-26T12:00	13261	167	-51.7	-77.2	221	30
2023-08-26T12:00	13284	166	-51.5	-77.5	221	30
2023-08-26T12:00	13307	166	-51.5	-77.8	222	31
2023-08-26T12:00	13327	165	-51.4	-78.0	222	31
2023-08-26T12:00	13349	165	-51.3	-78.2	223	31
2023-08-26T12:00	13370	164	-51.4	-78.3	223	31
2023-08-26T12:00	13394	164	-51.4	-78.3	224	31
2023-08-26T12:00	13414	163	-51.4	-78.5	224	30
2023-08-26T12:00	13439	163	-51.4	-78.5	224	30
2023-08-26T12:00	13458	162	-51.5	-78.6	224	30
2023-08-26T12:00	13481	161	-51.6	-78.7	223	30
2023-08-26T12:00	13499	161	-51.8	-78.9	223	30
2023-08-26T12:00	13523	160	-51.9	-78.6	222	30
2023-08-26T12:00	13547	160	-52.0	-78.7	221	30
2023-08-26T12:00	13569	159	-52.0	-78.7	220	30
2023-08-26T12:00	13590	159	-51.9	-78.6	219	30
2023-08-26T12:00	13614	158	-52.1	-78.5	218	30
2023-08-26T12:00	13636	158	-52.2	-78.3	217	30
2023-08-26T12:00	13657	157	-52.4	-78.5	217	30
2023-08-26T12:00	13677	157	-52.6	-78.4	216	30
2023-08-26T12:00	13701	156	-52.8	-78.6	216	31
2023-08-26T12:00	13722	156	-52.9	-78.6	216	31
2023-08-26T12:00	13744	155	-53.1	-78.6	216	31
2023-08-26T12:00	13765	154	-53.3	-78.7	216	30
2023-08-26T12:00	13787	154	-53.5	-78.6	217	30
2023-08-26T12:00	13810	153	-53.7	-78.8	218	30
2023-08-26T12:00	13832	153	-53.9	-78.9	218	30
2023-08-26T12:00	13855	152	-54.0	-78.8	218	30
2023-08-26T12:00	13878	152	-54.1	-78.9	219	30
2023-08-26T12:00	13903	151	-54.3	-79.0	219	30
2023-08-26T12:00	13924	151	-54.5		219	30
2023-08-26T12:00	13947	150	-54.7	-79.1	219	29
2023-08-26T12:00	13967	150	-54.8	-79.2	219	29
2023-08-26T12:00	13989	149	-55.0	-79.4	219	29
2023-08-26T12:00	14011	149	-55.2	-79.3	218	28
2023-08-26T12:00	14032	148	-55.4	-79.5	218	28
2023-08-26T12:00	14054	148	-55.6	-79.6	218	28
2023-08-26T12:00	14074	147	-55.7	-79.5	217	28
2023-08-26T12:00	14097	147	-55.7	-79.5	217	28
2023-08-26T12:00	14119	146	-55.7	-79.5	217	28
2023-08-26T12:00	14139	146	-55.8	-79.6	216	28
2023-08-26T12:00	14163	145	-55.9	-79.7	215	28
2023-08-26T12:00	14183	145	-55.7	-79.5	214	28
2023-08-26T12:00	14205	144	-55.7	-79.5	214	29
2023-08-26T12:00	14226	144	-55.8	-79.6	213	29
2023-08-26T12:00	14247	143	-55.9	-79.7	213	29
2023-08-26T12:00	14268	143	-55.9	-79.9	214	29
2023-08-26T12:00	14290	142	-55.8	-80.0	214	29
2023-08-26T12:00	14313	142	-55.6	-80.1	215	28
2023-08-26T12:00	14331	141	-55.4	-80.1	216	28
2023-08-26T12:00	14353	141	-55.2	-80.2	217	27
2023-08-26T12:00	14376	140	-55.2	-80.4	218	26
2023-08-26T12:00	14392	140	-55.1	-80.4	219	26
2023-08-26T12:00	14414	140	-55.0	-80.5	219	26
2023-08-26T12:00	14437	139	-54.9	-80.4	219	26
2023-08-26T12:00	14457	139	-54.8	-80.4	219	26
2023-08-26T12:00	14476	138	-54.9	-80.7	219	26
2023-08-26T12:00	14498	138	-54.9	-80.7	219	26
2023-08-26T12:00	14522	137	-54.9	-80.7	219	27
2023-08-26T12:00	14542	137	-55.0	-80.8	219	27
2023-08-26T12:00	14564	136	-55.2	-80.9	220	27
2023-08-26T12:00	14588	136	-55.3	-81.0	220	28
2023-08-26T12:00	14609	135	-55.4	-81.1	221	28
2023-08-26T12:00	14630	135	-55.5	-81.2	222	28
2023-08-26T12:00	14652	134	-55.5	-81.2	222	29
2023-08-26T12:00	14673	134	-55.5	-81.2	223	29
2023-08-26T12:00	14694	134	-55.6	-81.3	224	29
2023-08-26T12:00	14714	133	-55.6	-81.3	225	29
2023-08-26T12:00	14737	133	-55.7	-81.6	227	29
2023-08-26T12:00	14756	132	-55.7	-81.6	228	29
2023-08-26T12:00	14779	132	-55.7	-81.6	230	29
2023-08-26T12:00	14802	131	-55.6	-81.8	231	29
2023-08-26T12:00	14823	131	-55.6	-81.8	232	29
2023-08-26T12:00	14847	130	-55.4	-81.9	233	29
2023-08-26T12:00	14869	130	-54.8	-81.8	233	28
2023-08-26T12:00	14890	130	-54.6	-81.9	233	27
2023-08-26T12:00	14913	129	-54.4	-82.1	233	26
2023-08-26T12:00	14935	129	-54.2	-82.0	232	25
2023-08-26T12:00	14957	128	-54.1	-81.9	230	25
2023-08-26T12:00	14979	128	-53.9	-82.1	229	24
2023-08-26T12:00	15002	127	-53.5	-81.8	227	23
2023-08-26T12:00	15025	127	-53.2	-81.6	226	23
2023-08-26T12:00	15048	126	-53.2	-82.0	224	23
2023-08-26T12:00	15068	126	-53.2	-81.6	223	23
2023-08-26T12:00	15090	126	-53.2	-81.6	223	24
2023-08-26T12:00	15111	125	-53.3	-81.7	222	23
2023-08-26T12:00	15135	125	-53.4	-81.7	222	23
2023-08-26T12:00	15156	124	-53.4	-81.7	221	23
2023-08-26T12:00	15180	124	-53.4	-81.7	221	22
2023-08-26T12:00	15203	123	-53.5	-81.8	220	22
2023-08-26T12:00	15227	123	-53.5	-81.4	219	21
2023-08-26T12:00	15254	122	-53.7	-81.6	218	21
2023-08-26T12:00	15277	122	-53.8	-81.7	218	20
2023-08-26T12:00	15301	122	-54.0	-81.8	217	20
2023-08-26T12:00	15322	121	-54.1	-81.9	217	20
2023-08-26T12:00	15344	121	-54.2	-82.0	218	20
2023-08-26T12:00	15366	120	-54.3	-82.1	219	20
2023-08-26T12:00	15385	120	-54.0	-81.8	220	20
2023-08-26T12:00	15409	119	-54.0	-81.8	221	20
2023-08-26T12:00	15431	119	-54.1	-82.3	222	20
2023-08-26T12:00	15454	119	-54.1	-81.9	222	20
2023-08-26T12:00	15478	118	-54.1	-81.9	222	19
2023-08-26T12:00	15500	118	-53.9	-81.7	222	19
2023-08-26T12:00	15524	117	-53.9	-81.7	221	19
2023-08-26T12:00	15548	117	-54.1	-81.9	221	19
2023-08-26T12:00	15571	117	-54.3	-82.1	221	19
2023-08-26T12:00	15591	116	-54.5	-82.2	221	20
2023-08-26T12:00	15618	116	-54.7	-82.4	221	20
2023-08-26T12:00	15638	115	-54.7	-82.4	221	21
2023-08-26T12:00	15658	115	-54.3	-82.4	221	21
2023-08-26T12:00	15678	115	-53.9	-82.1	220	21
2023-08-26T12:00	15700	114	-54.1	-82.3	220	21
2023-08-26T12:00	15721	114	-54.2	-82.3	220	22
2023-08-26T12:00	15742	113	-54.4	-82.5	221	22
2023-08-26T12:00	15762	113	-54.6	-82.3	221	22
2023-08-26T12:00	15782	113	-54.8	-82.4	221	23
2023-08-26T12:00	15808	112	-54.9	-82.5	221	23
2023-08-26T12:00	15827	112	-55.1	-82.7	221	23
2023-08-26T12:00	15851	112	-55.0	-82.6	221	24
2023-08-26T12:00	15872	111	-55.1	-82.7	221	24
2023-08-26T12:00	15894	111	-55.2	-82.7	221	24
2023-08-26T12:00	15915	110	-55.4	-82.6	221	24
2023-08-26T12:00	15938	110	-55.6	-82.7	222	24
2023-08-26T12:00	15958	110	-55.8	-82.9	223	24
2023-08-26T12:00	15980	109	-55.9	-82.9	225	24
2023-08-26T12:00	16001	109	-55.9	-82.9	227	24
2023-08-26T12:00	16021	109	-56.0	-83.0	229	24
2023-08-26T12:00	16044	108	-56.0	-83.0	231	23
2023-08-26T12:00	16068	108	-56.0	-83.4	233	23
2023-08-26T12:00	16089	107	-55.8	-83.2	236	22
2023-08-26T12:00	16112	107	-55.6	-83.1	238	21
2023-08-26T12:00	16134	107	-55.5		240	20
2023-08-26T12:00	16159	106	-55.3	-83.2	242	19
2023-08-26T12:00	16177	106	-55.2	-83.1	244	18
2023-08-26T12:00	16206	106	-55.2	-83.5	245	17
2023-08-26T12:00	16228	105	-55.1	-83.4	245	16
2023-08-26T12:00	16250	105	-55.1	-83.4	245	15
2023-08-26T12:00	16273	104	-54.8	-83.2	245	15
2023-08-26T12:00	16293	104	-54.7	-83.1	244	14
2023-08-26T12:00	16318	104	-54.8	-83.2	243	14
2023-08-26T12:00	16345	103	-55.0		242	13
2023-08-26T12:00	16369	103	-55.0		241	13
2023-08-26T12:00	16398	102	-55.0		240	12
2023-08-26T12:00	16419	102	-55.2	-83.5	239	12
2023-08-26T12:00	16442	102	-55.3	-83.6	238	12
2023-08-26T12:00	16463	101	-55.4	-83.6	236	12
2023-08-26T12:00	16485	101	-55.4	-83.6	235	12
2023-08-26T12:00	16507	101	-55.5	-83.7	233	12
2023-08-26T12:00	16533	100	-55.5	-83.7	232	12
2023-08-26T12:00	16555	100	-55.5	-83.7	231	13
2023-08-26T12:00	16576	100	-55.6	-83.8	230	13
2023-08-26T12:00	16602	99	-55.7	-83.9	229	14
2023-08-26T12:00	16628	99	-55.9	-84.0	229	14
2023-08-26T12:00	16653	98	-56.0	-84.1	229	14
2023-08-26T12:00	16677	98	-56.0	-84.1	229	15
2023-08-26T12:00	16703	98	-56.0	-84.1	231	15
2023-08-26T12:00	16727	97	-56.0	-84.1	232	15
2023-08-26T12:00	16756	97	-55.9	-84.0	234	14
2023-08-26T12:00	16777	96	-56.1	-84.2	236	14
2023-08-26T12:00	16806	96	-56.2	-84.2	238	14
2023-08-26T12:00	16829	96	-56.1	-84.2	240	14
2023-08-26T12:00	16853	95	-56.0	-84.1	242	13
2023-08-26T12:00	16877	95	-56.0	-84.1	244	13
2023-08-26T12:00	16902	95	-56.1	-84.2	246	13
2023-08-26T12:00	16926	94	-56.2	-84.2	247	13
2023-08-26T12:00	16952	94	-56.3	-84.3	248	12
2023-08-26T12:00	16973	93	-56.5	-84.5	249	12
2023-08-26T12:00	17001	93	-56.6	-84.5	249	11
2023-08-26T12:00	17023	93	-56.6	-84.5	249	11
2023-08-26T12:00	17048	92	-56.6	-84.5	248	10
2023-08-26T12:00	17071	92	-56.4	-84.4	247	10
2023-08-26T12:00	17095	92	-56.4	-84.4	246	9
2023-08-26T12:00	17120	91	-56.4	-84.4	246	8
2023-08-26T12:00	17145	91	-56.4	-84.4	245	8
2023-08-26T12:00	17167	91	-56.5	-84.5	245	8
2023-08-26T12:00	17193	90	-56.6	-84.5	243	7
2023-08-26T12:00	17215	90	-56.5	-84.9	241	8
2023-08-26T12:00	17240	90	-56.3	-84.7	238	8
2023-08-26T12:00	17265	89	-55.9	-84.4	235	9
2023-08-26T12:00	17287	89	-55.7	-84.3	233	10
2023-08-26T12:00	17310	89	-55.8	-84.3	232	11
2023-08-26T12:00	17333	88	-55.9	-84.4	231	11
2023-08-26T12:00	17358	88	-56.1	-84.6	231	12
2023-08-26T12:00	17377	88	-56.3	-84.7	232	12
2023-08-26T12:00	17404	87	-56.3	-84.7	233	13
2023-08-26T12:00	17425	87	-56.2	-84.6	235	13
2023-08-26T12:00	17445	87	-56.2	-84.6	237	13
2023-08-26T12:00	17470	86	-56.2	-84.6	238	13
2023-08-26T12:00	17497	86	-56.2	-85.1	239	12
2023-08-26T12:00	17518	86	-55.5	-85.0	239	11
2023-08-26T12:00	17542	85	-54.8	-84.5	238	10
2023-08-26T12:00	17565	85	-54.8	-84.5	236	9
2023-08-26T12:00	17590	85	-54.9	-84.6	234	9
2023-08-26T12:00	17615	85	-55.0	-84.6	231	8
2023-08-26T12:00	17638	84	-55.1	-84.7	228	8
2023-08-26T12:00	17665	84	-55.3	-84.4	225	8
2023-08-26T12:00	17691	84	-55.6	-84.6	222	8
2023-08-26T12:00	17715	83	-55.8	-84.8	220	8
2023-08-26T12:00	17735	83	-55.9	-84.8	218	8
2023-08-26T12:00	17758	83	-56.1	-85.0	217	8
2023-08-26T12:00	17780	82	-56.1	-85.0	217	9
2023-08-26T12:00	17804	82	-56.0	-84.9	218	9
2023-08-26T12:00	17827	82	-56.1	-85.0	219	10
2023-08-26T12:00	17847	81	-56.1	-85.0	220	10
2023-08-26T12:00	17866	81	-56.1	-85.0	221	10
2023-08-26T12:00	17895	81	-56.2	-85.1	223	11
2023-08-26T12:00	17920	81	-56.3	-85.1	225	11
2023-08-26T12:00	17941	80	-56.4	-84.8	227	11
2023-08-26T12:00	17968	80	-56.6	-84.9	229	11
2023-08-26T12:00	17992	80	-56.7	-85.0	231	11
2023-08-26T12:00	18015	79	-56.8	-85.1	234	11
2023-08-26T12:00	18034	79	-56.9	-85.2	237	11
2023-08-26T12:00	18062	79	-57.0	-85.2	239	11
2023-08-26T12:00	18086	78	-57.0	-85.2	241	10
2023-08-26T12:00	18109	78	-57.0	-85.2	242	10
2023-08-26T12:00	18130	78	-56.9	-85.6	242	9
2023-08-26T12:00	18154	78	-56.8	-85.5	240	8
2023-08-26T12:00	18179	77	-56.5	-85.3	238	8
2023-08-26T12:00	18207	77	-56.4	-85.2	236	7
2023-08-26T12:00	18228	77	-56.5	-85.3	235	7
2023-08-26T12:00	18255	76	-56.7	-85.4	235	7
2023-08-26T12:00	18281	76	-56.9	-85.2	236	7
2023-08-26T12:00	18303	76	-57.1	-85.3	237	7
2023-08-26T12:00	18328	76	-57.3	-85.5	237	7
2023-08-26T12:00	18356	75	-57.5	-85.6	238	7
2023-08-26T12:00	18379	75	-57.7	-85.4	238	7
2023-08-26T12:00	18405	75	-57.9	-85.5	239	7
2023-08-26T12:00	18425	74	-58.0	-85.6	239	7
2023-08-26T12:00	18450	74	-58.2	-85.8	240	7
2023-08-26T12:00	18473	74	-58.3	-85.8	241	6
2023-08-26T12:00	18500	74	-58.1		242	5
2023-08-26T12:00	18522	73	-57.8	-85.9	243	5
2023-08-26T12:00	18545	73	-57.5	-86.1	241	4
2023-08-26T12:00	18566	73	-57.6	-86.1	237	4
2023-08-26T12:00	18591	72	-57.7	-86.2	230	3
2023-08-26T12:00	18613	72	-57.7	-86.2	222	3
2023-08-26T12:00	18637	72	-57.8	-85.9	215	3
2023-08-26T12:00	18661	72	-57.7	-85.8	211	3
2023-08-26T12:00	18682	71	-57.8	-86.3	207	3
2023-08-26T12:00	18702	71	-57.6	-86.1	202	3
2023-08-26T12:00	18728	71	-57.2	-85.8	197	3
2023-08-26T12:00	18749	71	-57.2	-85.8	189	4
2023-08-26T12:00	18774	70	-57.3	-85.9	182	4
2023-08-26T12:00	18798	70	-57.3	-85.9	177	4
2023-08-26T12:00	18822	70	-57.3	-85.9	175	4
2023-08-26T12:00	18844	70	-57.3	-85.9	177	5
2023-08-26T12:00	18865	69	-57.4	-86.0	183	5
2023-08-26T12:00	18886	69	-57.5	-86.1	191	6
2023-08-26T12:00	18911	69	-57.5	-86.1	198	6
2023-08-26T12:00	18932	69	-57.3	-85.9	205	6
2023-08-26T12:00	18954	68	-57.2	-85.8	210	7
2023-08-26T12:00	18974	68	-57.1	-85.7	214	7
2023-08-26T12:00	18997	68	-56.9	-86.1	218	7
2023-08-26T12:00	19022	68	-56.8	-86.0	222	7
2023-08-26T12:00	19048	67	-56.8	-86.0	226	6
2023-08-26T12:00	19069	67	-56.8	-86.0	230	6
2023-08-26T12:00	19096	67	-56.5	-86.3	234	5
2023-08-26T12:00	19117	67	-55.9	-85.8	236	4
2023-08-26T12:00	19139	66	-55.3	-85.4	236	3
2023-08-26T12:00	19166	66	-55.1	-85.8	231	3
2023-08-26T12:00	19191	66	-55.1	-85.2	223	2
2023-08-26T12:00	19218	66	-55.2	-85.3	212	2
2023-08-26T12:00	19243	65	-55.4	-85.4	200	2
2023-08-26T12:00	19267	65	-55.5	-85.5	188	2
2023-08-26T12:00	19288	65	-55.5	-85.0	178	2
2023-08-26T12:00	19311	65	-55.6	-85.1	169	2
2023-08-26T12:00	19337	64	-55.8	-85.2	160	2
2023-08-26T12:00	19359	64	-56.0		153	3
2023-08-26T12:00	19389	64	-56.1	-85.5	147	3
2023-08-26T12:00	19413	64	-56.3	-85.6	146	3
2023-08-26T12:00	19432	63	-56.4	-85.7	147	4
2023-08-26T12:00	19461	63	-56.5	-85.8	150	5
2023-08-26T12:00	19486	63	-56.4	-85.7	154	5
2023-08-26T12:00	19511	63	-56.2	-85.5	158	6
2023-08-26T12:00	19534	62	-56.2	-85.5	162	6
2023-08-26T12:00	19564	62	-56.3	-85.6	166	6
2023-08-26T12:00	19584	62	-56.4	-85.7	170	7
2023-08-26T12:00	19614	62	-56.5	-85.8	173	7
2023-08-26T12:00	19639	61	-56.6	-85.8	176	7
2023-08-26T12:00	19664	61	-56.6	-85.8	180	7
2023-08-26T12:00	19689	61	-56.5	-85.8	184	7
2023-08-26T12:00	19716	61	-56.7	-85.4	188	7
2023-08-26T12:00	19742	60	-56.9	-85.6	193	7
2023-08-26T12:00	19769	60	-57.0	-85.7	198	7
2023-08-26T12:00	19794	60	-57.0	-85.7	203	7
2023-08-26T12:00	19819	60	-57.0	-85.7	208	6
2023-08-26T12:00	19844	59	-57.0	-86.1	211	6
2023-08-26T12:00	19867	59	-56.9	-86.1	213	6
2023-08-26T12:00	19894	59	-56.9	-86.1	213	6
2023-08-26T12:00	19922	59	-56.8	-86.0	213	7
2023-08-26T12:00	19947	59	-56.7	-85.9	214	7
2023-08-26T12:00	19972	58	-56.6	-85.8	217	8
2023-08-26T12:00	19998	58	-56.6	-86.3	221	9
2023-08-26T12:00	20026	58	-56.3	-86.1	226	9
2023-08-26T12:00	20049	58	-55.9	-85.8	231	9
2023-08-26T12:00	20072	57	-55.6	-85.6	237	9
2023-08-26T12:00	20100	57	-55.5	-85.5	243	9
2023-08-26T12:00	20126	57	-55.4	-85.4	249	8
2023-08-26T12:00	20151	57	-55.4	-85.4	255	8
2023-08-26T12:00	20174	56	-55.4	-85.4	261	7
2023-08-26T12:00	20200	56	-55.6	-85.6	267	7
2023-08-26T12:00	20227	56	-55.6	-85.6	271	6
2023-08-26T12:00	20253	56	-55.7	-85.2	275	5
2023-08-26T12:00	20275	56	-55.8	-85.2	277	5
2023-08-26T12:00	20303	55	-55.8	-85.2	277	4
2023-08-26T12:00	20325	55	-55.8	-85.2	274	3
2023-08-26T12:00	20349	55	-55.9	-85.3	269	3
2023-08-26T12:00	20377	55	-56.1	-85.5	266	3
2023-08-26T12:00	20401	54	-56.1	-85.5	266	3
2023-08-26T12:00	20426	54	-56.0		271	3
2023-08-26T12:00	20455	54	-55.8	-85.7	280	3
2023-08-26T12:00	20476	54	-55.8	-85.7	291	3
2023-08-26T12:00	20500	54	-55.7	-85.7	304	2
2023-08-26T12:00	20524	53	-55.5	-85.5	320	2
2023-08-26T12:00	20546	53	-55.4	-85.4	338	2
2023-08-26T12:00	20571	53	-55.5	-85.5	360	2
2023-08-26T12:00	20593	53	-55.7	-85.7	21	2
2023-08-26T12:00	20621	53	-55.7	-85.7	39	2
2023-08-26T12:00	20643	52	-55.7	-85.7	53	2
2023-08-26T12:00	20669	52	-55.7	-85.7	63	3
2023-08-26T12:00	20689	52	-55.7	-85.2	71	3
2023-08-26T12:00	20719	52	-55.7	-85.2	77	3
2023-08-26T12:00	20740	52	-55.8	-85.2	82	2
2023-08-26T12:00	20763	51	-55.9	-85.3	88	2
2023-08-26T12:00	20786	51	-55.9	-85.3	94	1
2023-08-26T12:00	20813	51	-56.0		103	1
2023-08-26T12:00	20834	51	-56.1	-85.5	114	1
2023-08-26T12:00	20855	51	-56.0		208	0
2023-08-26T12:00	20882	51	-56.1	-85.5	286	0
2023-08-26T12:00	20905	50	-56.2	-85.5	300	0
2023-08-26T12:00	20926	50	-56.2	-85.5	348	0
2023-08-26T12:00	20949	50	-56.1	-86.0	85	1
2023-08-26T12:00	20978	50	-55.8	-85.7	96	1
2023-08-26T12:00	20999	50	-55.6	-85.6	96	1
2023-08-26T12:00	21022	49	-55.5	-85.5	91	1
2023-08-26T12:00	21043	49	-55.5	-85.5	78	1
2023-08-26T12:00	21072	49	-55.5	-85.5	53	1
2023-08-26T12:00	21094	49	-55.5	-85.5	16	1
2023-08-26T12:00	21120	49	-55.3	-85.4	341	1
2023-08-26T12:00	21140	49	-55.3	-85.4	316	1
2023-08-26T12:00	21162	48	-55.4	-85.4	301	2
2023-08-26T12:00	21186	48	-55.5	-85.5	295	2
2023-08-26T12:00	21212	48	-55.5	-85.5	296	2
2023-08-26T12:00	21235	48	-55.5	-85.5	302	3
2023-08-26T12:00	21260	48	-55.4	-85.4	312	3
2023-08-26T12:00	21284	47	-55.4	-85.4	327	2
2023-08-26T12:00	21308	47	-55.2	-85.3	345	2
2023-08-26T12:00	21336	47	-55.1	-85.2	1	2
2023-08-26T12:00	21360	47	-55.1	-85.2	13	3
2023-08-26T12:00	21384	47	-55.2	-85.3	20	3
2023-08-26T12:00	21410	47	-55.3	-85.4	24	3
2023-08-26T12:00	21435	46	-55.3	-85.4	26	3
2023-08-26T12:00	21463	46	-55.4	-85.4	27	3
2023-08-26T12:00	21482	46	-55.2	-85.3	27	3
2023-08-26T12:00	21506	46	-55.1	-85.2	26	2
2023-08-26T12:00	21532	46	-55.1	-85.2	24	2
2023-08-26T12:00	21556	45	-55.1	-85.2	20	2
2023-08-26T12:00	21583	45	-55.2	-85.3	15	2
2023-08-26T12:00	21609	45	-55.2	-85.3	14	2
2023-08-26T12:00	21632	45	-55.1	-85.2	16	2
2023-08-26T12:00	21659	45	-55.1	-85.8	20	2
2023-08-26T12:00	21684	45	-54.9	-85.6	26	2
2023-08-26T12:00	21709	44	-54.6	-85.4	31	2
2023-08-26T12:00	21740	44	-54.6	-85.4	36	1
2023-08-26T12:00	21761	44	-54.6	-85.4	37	1
2023-08-26T12:00	21786	44	-54.5	-85.3	32	1
2023-08-26T12:00	21809	44	-54.3	-85.2	23	1
2023-08-26T12:00	21839	44	-54.0	-85.5	15	1
2023-08-26T12:00	21861	43	-53.8	-85.4	9	1
2023-08-26T12:00	21887	43	-53.6	-85.3	5	2
2023-08-26T12:00	21910	43	-53.5	-85.2	4	2
2023-08-26T12:00	21938	43	-53.4	-85.1	8	2
2023-08-26T12:00	21965	43	-53.4	-85.1	15	3
2023-08-26T12:00	21992	42	-53.4	-85.1	23	3
2023-08-26T12:00	22016	42	-53.1	-84.9	30	4
2023-08-26T12:00	22039	42	-52.9	-84.7	36	4
2023-08-26T12:00	22068	42	-52.9	-84.7	41	4
2023-08-26T12:00	22093	42	-53.1	-84.9	45	5
2023-08-26T12:00	22118	42	-53.2	-84.4	50	5
2023-08-26T12:00	22147	41	-53.2	-84.4	55	5
2023-08-26T12:00	22170	41	-53.2	-84.4	60	5
2023-08-26T12:00	22199	41	-53.3	-84.4	65	5
2023-08-26T12:00	22221	41	-53.4	-84.5	70	5
2023-08-26T12:00	22249	41	-53.4	-84.5	74	5
2023-08-26T12:00	22270	41	-53.5	-84.6	78	5
2023-08-26T12:00	22299	40	-53.5	-84.6	81	5
2023-08-26T12:00	22328	40	-53.6	-84.6	84	4
2023-08-26T12:00	22355	40	-53.6	-84.6	87	4
2023-08-26T12:00	22376	40	-53.7	-84.7	86	4
2023-08-26T12:00	22397	40	-53.7	-84.7	82	3
2023-08-26T12:00	22425	40	-53.8	-84.8	74	3
2023-08-26T12:00	22457	40	-53.8	-84.8	66	4
2023-08-26T12:00	22476	39	-53.7	-84.7	62	4
2023-08-26T12:00	22501	39	-53.7	-84.7	60	4
2023-08-26T12:00	22529	39	-53.7	-84.7	62	4
2023-08-26T12:00	22556	39	-53.6	-84.6	66	4
2023-08-26T12:00	22577	39	-53.6	-85.3	73	3
2023-08-26T12:00	22608	39	-53.5	-85.2	82	3
2023-08-26T12:00	22629	38	-53.4	-85.1	92	3
2023-08-26T12:00	22658	38	-53.2	-85.0	101	2
2023-08-26T12:00	22682	38	-53.0	-84.8	107	2
2023-08-26T12:00	22710	38	-53.0	-84.8	108	1
2023-08-26T12:00	22730	38	-53.1	-84.9	96	1
2023-08-26T12:00	22755	38	-53.1	-84.9	59	1
2023-08-26T12:00	22782	38	-52.9	-84.7	32	1
2023-08-26T12:00	22809	37	-52.7	-84.6	27	1
2023-08-26T12:00	22834	37	-52.5	-84.4	28	2
2023-08-26T12:00	22864	37	-52.4	-84.4	32	2
2023-08-26T12:00	22887	37	-52.4	-84.4	36	3
2023-08-26T12:00	22906	37	-52.5	-84.4	40	3
2023-08-26T12:00	22939	37	-52.6	-84.5	45	3
2023-08-26T12:00	22963	37	-52.7	-84.6	52	4
2023-08-26T12:00	22987	36	-52.8	-84.7	60	4
2023-08-26T12:00	23012	36	-52.8	-84.7	69	4
2023-08-26T12:00	23036	36	-52.8	-84.7	78	4
2023-08-26T12:00	23067	36	-52.9	-84.7	86	4
2023-08-26T12:00	23095	36	-52.8	-84.7	93	4
2023-08-26T12:00	23112	36	-52.6	-84.5	100	4
2023-08-26T12:00	23138	36	-52.4	-84.4	106	3
2023-08-26T12:00	23166	35	-52.3	-84.3	111	3
2023-08-26T12:00	23192	35	-52.3	-84.3	112	2
2023-08-26T12:00	23219	35	-52.3	-84.3	102	2
2023-08-26T12:00	23243	35	-52.1	-84.8	81	2
2023-08-26T12:00	23277	35	-52.0	-84.8	65	2
2023-08-26T12:00	23301	35	-51.9	-84.7	60	3
2023-08-26T12:00	23326	35	-51.8	-84.6	62	4
2023-08-26T12:00	23352	34	-51.8	-83.9	65	4
2023-08-26T12:00	23379	34	-52.0	-84.1	69	5
2023-08-26T12:00	23407	34	-52.1	-84.2	73	5
2023-08-26T12:00	23432	34	-52.2	-84.2	77	6
2023-08-26T12:00	23459	34	-52.2	-84.2	81	6
2023-08-26T12:00	23491	34	-52.3	-84.3	84	6
2023-08-26T12:00	23513	34	-52.4	-84.4	87	6
2023-08-26T12:00	23534	33	-52.5	-84.4	89	6
2023-08-26T12:00	23567	33	-52.5	-84.4	91	6
2023-08-26T12:00	23596	33	-52.6	-84.5	92	5
2023-08-26T12:00	23616	33	-52.7	-84.6	93	5
2023-08-26T12:00	23651	33	-52.8	-84.7	92	5
2023-08-26T12:00	23677	33	-52.8	-84.7	90	4
2023-08-26T12:00	23701	33	-52.9	-84.7	87	4
2023-08-26T12:00	23725	32	-52.9	-84.7	83	4
2023-08-26T12:00	23758	32	-52.8	-84.7	81	5
2023-08-26T12:00	23783	32	-52.6	-84.5	80	5
2023-08-26T12:00	23809	32	-52.5	-84.4	81	6
2023-08-26T12:00	23844	32	-52.4	-84.4	82	6
2023-08-26T12:00	23865	32	-52.4	-84.4	84	7
2023-08-26T12:00	23900	32	-52.5	-84.4	87	7
2023-08-26T12:00	23923	31	-52.7	-84.6	91	8
2023-08-26T12:00	23948	31	-52.9	-84.7	96	8
2023-08-26T12:00	23978	31	-52.9	-84.7	101	8
2023-08-26T12:00	24003	31	-52.9	-84.7	107	9
2023-08-26T12:00	24037	31	-52.8	-84.7	112	9
2023-08-26T12:00	24062	31	-52.8	-84.7	116	9
2023-08-26T12:00	24083	31	-52.6	-84.5	120	9
2023-08-26T12:00	24117	31	-52.6	-84.5	123	9
2023-08-26T12:00	24147	30	-52.5	-84.4	125	9
2023-08-26T12:00	24168	30	-52.4	-84.4	127	8
2023-08-26T12:00	24196	30	-52.4	-85.1	127	8
2023-08-26T12:00	24229	30	-52.3	-85.0	127	8
2023-08-26T12:00	24254	30	-52.3	-85.0	126	8
2023-08-26T12:00	24283	30	-52.3	-85.0	125	8
2023-08-26T12:00	24308	30	-52.2	-84.9	125	8
2023-08-26T12:00	24340	30	-52.2	-84.9	124	8
2023-08-26T12:00	24363	29	-52.3	-85.0	123	8
2023-08-26T12:00	24393	29	-52.3	-85.0	123	8
2023-08-26T12:00	24415	29	-52.3	-85.0	123	9
2023-08-26T12:00	24442	29	-52.2	-84.9	124	9
2023-08-26T12:00	24473	29	-52.1	-84.8	125	9
2023-08-26T12:00	24504	29	-52.1	-84.8	128	9
2023-08-26T12:00	24530	29	-52.1	-84.8	131	10
2023-08-26T12:00	24553	29	-52.1	-84.8	134	10
2023-08-26T12:00	24572	28	-51.9	-84.7	138	10
2023-08-26T12:00	24606	28	-51.9	-84.7	142	10
2023-08-26T12:00	24636	28	-52.1	-84.8	147	10
2023-08-26T12:00	24663	28	-52.1	-84.8	151	10
2023-08-26T12:00	24692	28	-51.9	-84.7	155	10
2023-08-26T12:00	24713	28	-51.7	-84.5	158	10
2023-08-26T12:00	24753	28	-51.6	-84.5	159	10
2023-08-26T12:00	24777	28	-51.8	-84.6	160	10
2023-08-26T12:00	24802	27	-51.9	-84.7	160	9
2023-08-26T12:00	24826	27	-52.0	-84.8	161	9
2023-08-26T12:00	24856	27	-52.0	-84.1	162	8
2023-08-26T12:00	24884	27	-52.1	-84.2	164	8
2023-08-26T12:00	24911	27	-52.2	-84.2	167	8
2023-08-26T12:00	24941	27	-52.2	-84.2	169	8
2023-08-26T12:00	24966	27	-52.1	-84.8	169	8
2023-08-26T12:00	24992	27	-52.1	-84.8	167	8
2023-08-26T12:00	25022	27	-52.1	-84.8	163	8
2023-08-26T12:00	25052	26	-52.0	-84.8	160	8
2023-08-26T12:00	25084	26	-51.9	-84.7	156	8
2023-08-26T12:00	25104	26	-51.9	-84.7	154	9
2023-08-26T12:00	25135	26	-51.9	-84.7	154	9
2023-08-26T12:00	25162	26	-51.9	-84.7	155	9
2023-08-26T12:00	25192	26	-51.7	-84.5	158	10
2023-08-26T12:00	25215	26	-51.4	-84.3	162	10
2023-08-26T12:00	25247	26	-51.2	-84.2	165	10
2023-08-26T12:00	25274	26	-51.1	-84.1	169	11
2023-08-26T12:00	25306	25	-51.2	-84.2	172	11
2023-08-26T12:00	25334	25	-51.2	-84.2	176	11
2023-08-26T12:00	25361	25	-51.2	-84.2	179	11
2023-08-26T12:00	25388	25	-51.2	-84.2	182	11
2023-08-26T12:00	25416	25	-51.3	-84.3	186	11
2023-08-26T12:00	25444	25	-51.4	-84.3	189	11
2023-08-26T12:00	25470	25	-51.3	-84.3	191	10
2023-08-26T12:00	25500	25	-51.2	-84.2	194	10
2023-08-26T12:00	25527	25	-51.2	-84.2	196	10
2023-08-26T12:00	25562	24	-51.0	-84.0	197	10
2023-08-26T12:00	25582	24	-50.9	-84.7	197	10
2023-08-26T12:00	25621	24	-50.8	-84.7	197	10
2023-08-26T12:00	25644	24	-50.5	-84.5	196	9
2023-08-26T12:00	25672	24	-50.3	-84.3	195	8
2023-08-26T12:00	25706	24	-50.1	-84.2	194	8
2023-08-26T12:00	25726	24	-50.1	-84.2	193	7
2023-08-26T12:00	25754	24	-50.1	-84.2	193	7
2023-08-26T12:00	25779	24	-50.3	-84.3	193	6
2023-08-26T12:00	25808	24	-50.3	-84.3	195	6
2023-08-26T12:00	25838	23	-50.2	-84.2	198	6
2023-08-26T12:00	25864	23	-49.9	-84.0	202	5
2023-08-26T12:00	25892	23	-49.6	-83.8	208	5
2023-08-26T12:00	25917	23	-49.5	-83.7	213	4
2023-08-26T12:00	25948	23	-49.5	-83.7	217	4
2023-08-26T12:00	25976	23	-49.4	-83.7	218	4
2023-08-26T12:00	26006	23	-49.4	-83.7	216	3
2023-08-26T12:00	26034	23	-49.3	-83.6	210	3
2023-08-26T12:00	26053	23	-49.2	-83.5	204	4
2023-08-26T12:00	26081	23	-49.0	-83.4	197	4
2023-08-26T12:00	26114	22	-48.7	-84.1	192	4
2023-08-26T12:00	26134	22	-48.5	-83.9	189	4
2023-08-26T12:00	26165	22	-48.4	-83.8	188	5
2023-08-26T12:00	26192	22	-48.3	-83.8	190	5
2023-08-26T12:00	26215	22	-48.2	-83.7	193	5
2023-08-26T12:00	26245	22	-48.1	-83.6	198	5
2023-08-26T12:00	26272	22	-47.9	-83.5	204	5
2023-08-26T12:00	26294	22	-47.6	-83.3	211	5
2023-08-26T12:00	26325	22	-47.5	-83.2	218	5
2023-08-26T12:00	26351	22	-47.5	-83.2	225	5
2023-08-26T12:00	26377	22	-47.7	-83.4	232	5
2023-08-26T12:00	26401	22	-47.8	-82.5	241	5
2023-08-26T12:00	26427	21	-48.0	-82.7	251	5
2023-08-26T12:00	26462	21	-48.1	-82.7	261	5
2023-08-26T12:00	26482	21	-48.3	-82.9	270	5
2023-08-26T12:00	26520	21	-48.3	-82.9	278	5
2023-08-26T12:00	26534	21	-48.4	-82.9	285	5
2023-08-26T12:00	26567	21	-48.3	-82.9	290	5
2023-08-26T12:00	26603	21	-48.2	-82.8	294	4
2023-08-26T12:00	26628	21	-48.2	-83.7	298	4
2023-08-26T12:00	26657	21	-48.2	-83.7	300	3
2023-08-26T12:00	26684	21	-48.2	-83.7	301	2
2023-08-26T12:00	26714	21	-48.1	-83.6	297	2
2023-08-26T12:00	26748	20	-48.0	-83.6	279	1
2023-08-26T12:00	26773	20	-48.1	-83.6	228	1
2023-08-26T12:00	26809	20	-48.2	-83.7	194	1
2023-08-26T12:00	26840	20	-48.3	-83.8	183	2
2023-08-26T12:00	26870	20	-48.4	-83.8	177	2
2023-08-26T12:00	26897	20	-48.4	-82.9	174	2
2023-08-26T12:00	26929	20	-48.4	-83.8	172	3
2023-08-26T12:00	26959	20	-48.4	-83.8	171	3
2023-08-26T12:00	26986	20	-48.4	-83.8	172	3
2023-08-26T12:00	27016	20	-48.4	-83.8	173	3
2023-08-26T12:00	27048	20	-48.3	-83.8	172	3
2023-08-26T12:00	27085	19	-48.2	-83.7	169	3
2023-08-26T12:00	27098	19	-48.1	-83.6	163	3
2023-08-26T12:00	27136	19	-48.1	-83.6	157	3
2023-08-26T12:00	27166	19	-48.1	-83.6	152	4
2023-08-26T12:00	27205	19	-48.0	-83.6	148	5
2023-08-26T12:00	27232	19	-47.9	-83.5	145	5
2023-08-26T12:00	27261	19	-47.8	-83.4	143	6
2023-08-26T12:00	27286	19	-47.8	-83.4	143	6
2023-08-26T12:00	27314	19	-47.6	-83.3	144	6
2023-08-26T12:00	27345	19	-47.5	-83.2	147	6
2023-08-26T12:00	27376	19	-47.5	-83.2	153	6
2023-08-26T12:00	27401	18	-47.6	-83.3	160	6
2023-08-26T12:00	27432	18	-47.6	-83.3	167	6
2023-08-26T12:00	27463	18	-47.5	-83.2	172	7
2023-08-26T12:00	27493	18	-47.4	-83.1	176	7
2023-08-26T12:00	27508	18	-47.2	-83.0	179	8
2023-08-26T12:00	27541	18	-47.1	-82.9	181	8
2023-08-26T12:00	27562	18	-46.9	-82.8	184	8
2023-08-26T12:00	27598	18	-46.8	-82.7	187	7
2023-08-26T12:00	27611	18	-46.8	-82.7	191	7
2023-08-26T12:00	27657	18	-46.7	-82.6	196	7
2023-08-26T12:00	27672	18	-46.8	-82.7	201	6
2023-08-26T12:00	27692	18	-46.7	-83.7	204	6
2023-08-26T12:00	27717	18	-46.7	-83.7	206	6
2023-08-26T12:00	27738	18	-46.5	-83.6	206	5
2023-08-26T12:00	27765	18	-46.3	-83.4	207	4
2023-08-26T12:00	27796	17	-46.2	-83.4	208	4
2023-08-26T12:00	27811	17	-46.2	-83.4	209	3
2023-08-26T12:00	27848	17	-46.0	-83.2	209	2
2023-08-26T12:00	27860	17	-45.8	-83.1	207	2
2023-08-26T12:00	27874	17	-45.6	-82.9	200	2
2023-08-26T12:00	27906	17	-45.4	-82.8	190	1
2023-08-26T12:00	27918	17	-45.2	-82.7	183	1
2023-08-26T12:00	27946	17	-44.9	-82.5	182	2
2023-08-26T12:00	27974	17	-44.5	-82.2	185	2
2023-08-26T12:00	28000	17	-44.2	-82.0	186	2
2023-08-26T12:00	28010	17	-44.0	-81.8	185	3
2023-08-26T12:00	28037	17	-43.8	-81.7	181	3
2023-08-26T12:00	28076	17	-43.6	-81.5	176	3
2023-08-26T12:00	28089	17	-43.3	-81.3	172	4
2023-08-26T12:00	28114	17	-43.0	-81.1	171	4
2023-08-26T12:00	28143	17	-42.8	-81.0	173	4
2023-08-26T12:00	28170	16	-42.6	-80.8	178	5
2023-08-26T12:00	28195	16	-42.3	-80.6	185	5
2023-08-26T12:00	28214	16	-42.0	-80.4	196	4
2023-08-26T12:00	28253	16	-41.8	-80.3	209	4
2023-08-26T12:00	28271	16	-41.7	-80.2	227	4
2023-08-26T12:00	28287	16	-41.5	-80.1	248	4
2023-08-26T12:00	28331	16	-41.4	-80.0	267	4
2023-08-26T12:00	28359	16	-41.3	-79.9	283	4
2023-08-26T12:00	28385	16	-41.0	-79.7	294	5
2023-08-26T12:00	28404	16	-40.8	-79.6	302	5
2023-08-26T12:00	28432	16	-40.7	-79.5	309	6
2023-08-26T12:00	28475	16	-40.6	-79.5	315	6
2023-08-26T12:00	28491	16	-40.6	-79.5	321	6
2023-08-26T12:00	28524	16	-40.5	-79.4	328	5
2023-08-26T12:00	28557	16	-40.6	-79.5	336	4
2023-08-26T12:00	28592	16	-40.6	-79.5	346	4
2023-08-26T12:00	28633	15	-40.8	-79.6	359	3
2023-08-26T12:00	28658	15	-40.9	-79.7	13	3
2023-08-26T12:00	28685	15	-41.0	-79.7	27	3
2023-08-26T12:00	28718	15	-41.2	-79.9	41	3
2023-08-26T12:00	28759	15	-41.3	-79.9	54	3
2023-08-26T12:00	28779	15	-41.5	-80.1	66	3
2023-08-26T12:00	28809	15	-41.7	-80.2	76	4
2023-08-26T12:00	28868	15	-41.8	-80.3	84	4
2023-08-26T12:00	28882	15	-41.9	-80.4	90	5
2023-08-26T12:00	28923	15	-42.0	-80.4	95	5
2023-08-26T12:00	28950	15	-42.2	-80.6	99	5
2023-08-26T12:00	28987	15	-42.3	-80.6	103	5
2023-08-26T12:00	29015	15	-42.2	-80.6	108	5
2023-08-26T12:00	29041	15	-42.1	-80.5	113	4
2023-08-26T12:00	29069	14	-42.0	-80.4	122	3
2023-08-26T12:00	29094	14	-41.9	-80.4	134	3
2023-08-26T12:00	29128	14	-42.0	-80.4	151	2
2023-08-26T12:00	29155	14	-42.1	-80.5	170	2
2023-08-26T12:00	29183	14	-42.2	-80.6	184	2
2023-08-26T12:00	29205	14	-42.3	-80.6	193	3
2023-08-26T12:00	29252	14	-42.3	-80.6	200	3
2023-08-26T12:00	29258	14	-42.2	-80.6	207	3
2023-08-26T12:00	29288	14	-42.0	-80.4	214	3
2023-08-26T12:00	29307	14	-41.8	-80.3	221	3
2023-08-26T12:00	29351	14	-41.7	-80.2	227	3
2023-08-26T12:00	29378	14	-41.6	-80.1	230	4
2023-08-26T12:00	29402	14	-41.4	-80.0	230	4
2023-08-26T12:00	29417	14	-41.2	-79.9	229	4
2023-08-26T12:00	29448	14	-41.1	-79.8	227	5
2023-08-26T12:00	29479	14	-41.0	-79.7	224	5
2023-08-26T12:00	29510	14	-41.0	-79.7	220	5
2023-08-26T12:00	29539	14	-41.0	-79.7	216	4
2023-08-26T12:00	29552	13	-41.0	-79.7	211	4
2023-08-26T12:00	29580	13	-40.9	-79.7	208	4
2023-08-26T12:00	29599	13	-40.8	-79.6	205	4
2023-08-26T12:00	29631	13	-40.8	-79.6	201	4
2023-08-26T12:00	29647	13	-40.8	-79.6	196	4
2023-08-26T12:00	29679	13	-40.9	-79.7	190	4
2023-08-26T12:00	29683	13	-41.0	-79.7	182	4
2023-08-26T12:00	29722	13	-40.9	-79.7	176	4
2023-08-26T12:00	29745	13	-40.8	-79.6	171	5
2023-08-26T12:00	29762	13	-40.7	-79.5	168	5
2023-08-26T12:00	29797	13	-40.8	-79.6	166	5
2023-08-26T12:00	29834	13	-40.8	-79.6	164	5
2023-08-26T12:00	29852	13	-40.9	-79.7	163	6
2023-08-26T12:00	29870	13	-40.9	-79.7	162	6
2023-08-26T12:00	29910	13	-40.9	-79.7	161	6
2023-08-26T12:00	29941	13	-40.9	-79.7	160	6
2023-08-26T12:00	29948	13	-40.9	-79.7	160	7
2023-08-26T12:00	29976	13	-40.9	-79.7	161	6
2023-08-26T12:00	30009	13	-40.7	-79.5	163	6
2023-08-26T12:00	30028	13	-40.4	-79.3	167	5
2023-08-26T12:00	30062	12	-40.2	-79.2	173	5
2023-08-26T12:00	30086	12	-40.0	-79.0	180	4
2023-08-26T12:00	30118	12	-40.0	-79.0	189	4
2023-08-26T12:00	30145	12	-40.0	-79.0	197	4
2023-08-26T12:00	30173	12	-40.0	-79.0	207	4
2023-08-26T12:00	30205	12	-40.0	-79.0	217	4
2023-08-26T12:00	30235	12	-39.9	-79.0	225	4
2023-08-26T12:00	30255	12	-39.9	-79.0	231	4
2023-08-26T12:00	30277	12	-39.7	-78.8	236	4
2023-08-26T12:00	30312	12	-39.5	-78.7	241	4
2023-08-26T12:00	30344	12	-39.4	-78.6	246	4
2023-08-26T12:00	30377	12	-39.2	-78.5	252	3
2023-08-26T12:00	30407	12	-39.1	-78.4	255	2
2023-08-26T12:00	30423	12	-39.1	-78.4	250	2
2023-08-26T12:00	30472	12	-39.0	-78.3	220	1
2023-08-26T12:00	30489	12	-39.0	-78.3	173	2
2023-08-26T12:00	30497	12	-39.1	-78.4	154	3
2023-08-26T12:00	30545	12	-39.1	-78.4	148	4
2023-08-26T12:00	30583	12	-39.0	-78.3	147	5
2023-08-26T12:00	30603	12	-38.9	-78.3	148	6
2023-08-26T12:00	30627	11	-38.9	-78.3	149	7
2023-08-26T12:00	30657	11	-38.9	-78.3	151	8
2023-08-26T12:00	30680	11	-38.9	-78.3	153	8
2023-08-26T12:00	30730	11	-38.7	-78.1	155	9
2023-08-26T12:00	30745	11	-38.5	-78.0	157	9
2023-08-26T12:00	30767	11	-38.5	-78.0	159	9
2023-08-26T12:00	30794	11	-38.5	-78.0	161	8
2023-08-26T12:00	30840	11	-38.5	-78.0	164	8
2023-08-26T12:00	30858	11	-38.4	-77.9	167	8
2023-08-26T12:00	30884	11	-38.4	-77.9	170	8
2023-08-26T12:00	30929	11	-38.3	-77.9	172	7
2023-08-26T12:00	30957	11	-38.1	-77.7	172	7
2023-08-26T12:00	30981	11	-37.9	-77.6	170	7
2023-08-26T12:00	31000	11	-37.7	-77.4	167	6
2023-08-26T12:00	31022	11	-37.7	-77.4	163	6
2023-08-26T12:00	31051	11	-37.6	-77.4	161	7
2023-08-26T12:00	31105	11	-37.6	-77.4	160	7
2023-08-26T12:00	31108	11	-37.6	-77.4	161	7
2023-08-26T12:00	31151	11	-37.8	-77.5	162	7
2023-08-26T12:00	31169	11	-37.9	-77.6	165	7
2023-08-26T12:00	31203	11	-38.0	-77.6	167	7
2023-08-26T12:00	31234	11	-38.1	-77.7	169	7
2023-08-26T12:00	31270	10	-38.1	-77.7	172	7
2023-08-26T12:00	31294	10	-38.1	-77.7	175	7
2023-08-26T12:00	31330	10	-38.0	-77.6	178	6
2023-08-26T12:00	31335	10	-37.9	-77.6	182	5
2023-08-26T12:00	31381	10	-37.8	-77.5	185	5
2023-08-26T12:00	31417	10	-37.8	-77.5	189	5
2023-08-26T12:00	31444	10	-37.7	-77.4	193	4
2023-08-26T12:00	31489	10	-37.6	-77.4	196	4
2023-08-26T12:00	31506	10	-37.6	-77.4	197	4
2023-08-26T12:00	31528	10	-37.7	-77.4	196	4
2023-08-26T12:00	31569	10	-37.6	-77.4	193	4
2023-08-26T18:00	112	998	21.9	12.7	290	3
2023-08-26T18:00	135	995	22.0	12.7	296	3
2023-08-26T18:00	159	993	21.8	12.4	295	4
2023-08-26T18:00	186	990	21.6	12.3	292	5
2023-08-26T18:00	210	987	21.4	12.2	290	5
2023-08-26T18:00	236	984	21.2	12.3	287	6
2023-08-26T18:00	261	981	21.0	12.3	285	6
2023-08-26T18:00	285	978	20.7	12.3	283	6
2023-08-26T18:00	313	975	20.5	12.2	283	5
2023-08-26T18:00	344	972	20.2	12.1	284	5
2023-08-26T18:00	372	969	19.9	11.9	286	5
2023-08-26T18:00	397	966	19.7	12.1	289	5
2023-08-26T18:00	428	962	19.4	11.9	291	5
2023-08-26T18:00	453	959	19.2	12.0	293	5
2023-08-26T18:00	479	957	18.9	11.8	295	5
2023-08-26T18:00	506	954	18.7	11.7	296	6
2023-08-26T18:00	533	951	18.4	11.6	295	6
2023-08-26T18:00	560	948	18.2	11.7	294	6
2023-08-26T18:00	587	945	17.9	11.6	292	6
2023-08-26T18:00	611	942	17.7	11.5	290	6
2023-08-26T18:00	633	940	17.5	11.5	288	6
2023-08-26T18:00	657	937	17.2	11.4	286	6
2023-08-26T18:00	681	934	17.0	11.5	285	6
2023-08-26T18:00	701	932	16.8	11.3	282	6
2023-08-26T18:00	724	929	16.6	11.5	279	6
2023-08-26T18:00	753	927	16.3	11.1	275	6
2023-08-26T18:00	775	924	16.1	11.2	272	6
2023-08-26T18:00	796	922	15.9	11.2	269	6
2023-08-26T18:00	820	919	15.7	11.3	268	6
2023-08-26T18:00	840	917	15.5	11.1	267	6
2023-08-26T18:00	865	914	15.2	11.1	267	6
2023-08-26T18:00	887	912	15.1	10.8	266	6
2023-08-26T18:00	907	910	14.9	11.0	266	6
2023-08-26T18:00	927	907	14.7	10.8	266	6
2023-08-26T18:00	951	905	14.5	10.8	266	6
2023-08-26T18:00	970	903	14.3	10.5	266	6
2023-08-26T18:00	991	901	14.2	9.8	265	6
2023-08-26T18:00	1014	898	14.0	9.8	264	6
2023-08-26T18:00	1039	896	13.8	10.0	261	6
2023-08-26T18:00	1068	893	13.6	10.2	260	6
2023-08-26T18:00	1095	890	13.4	10.3	260	7
2023-08-26T18:00	1120	887	13.4	10.2	260	8
2023-08-26T18:00	1147	884	13.2	10.1	261	8
2023-08-26T18:00	1173	881	13.0	10.1	261	9
2023-08-26T18:00	1204	878	12.8	10.1	260	9
2023-08-26T18:00	1235	875	12.5	10.0	257	10
2023-08-26T18:00	1262	872	12.2	9.8	253	10
2023-08-26T18:00	1291	869	12.1	10.1	248	11
2023-08-26T18:00	1319	866	11.9	10.1	244	11
2023-08-26T18:00	1343	864	11.8	10.3	241	12
2023-08-26T18:00	1370	861	11.6	10.2	239	13
2023-08-26T18:00	1393	859	11.5	10.3	238	13
2023-08-26T18:00	1416	856	11.5	10.3	237	14
2023-08-26T18:00	1438	854	11.3	10.0	237	14
2023-08-26T18:00	1457	852	11.4	9.8	237	15
2023-08-26T18:00	1477	850	11.3	9.5	238	16
2023-08-26T18:00	1498	848	11.3	8.8	239	16
2023-08-26T18:00	1520	846	11.3	8.0	239	16
2023-08-26T18:00	1546	843	11.2	7.9	239	16
2023-08-26T18:00	1566	841	11.1	7.8	239	16
2023-08-26T18:00	1587	839	11.0	7.6	237	16
2023-08-26T18:00	1613	837	11.0	7.5	235	16
2023-08-26T18:00	1637	834	11.0	7.3	233	16
2023-08-26T18:00	1663	831	10.9	6.5	232	16
2023-08-26T18:00	1686	829	11.0	4.8	231	16
2023-08-26T18:00	1711	827	11.1	1.0	231	16
2023-08-26T18:00	1734	824	11.1	-0.1	231	16
2023-08-26T18:00	1761	822	10.8	1.5	231	16
2023-08-26T18:00	1786	819	10.6	2.7	230	16
2023-08-26T18:00	1812	817	10.5	1.2	230	16
2023-08-26T18:00	1838	814	10.3	0.6	230	16
2023-08-26T18:00	1864	812	10.1	2.5	231	16
2023-08-26T18:00	1890	809	10.0	-0.9	233	16
2023-08-26T18:00	1918	806	10.2	-2.4	235	16
2023-08-26T18:00	1946	804	10.2	0.8	237	16
2023-08-26T18:00	1973	801	10.0	0.7	239	16
2023-08-26T18:00	1994	799	9.9	0.6	240	16
2023-08-26T18:00	2019	797	9.7	1.1	240	17
2023-08-26T18:00	2046	794	9.6	1.6	240	17
2023-08-26T18:00	2072	792	9.4	1.5	239	17
2023-08-26T18:00	2100	789	9.1	1.5	238	17
2023-08-26T18:00	2129	786	8.9	-0.1	237	17
2023-08-26T18:00	2160	783	9.0	-2.8	236	17
2023-08-26T18:00	2188	781	8.9	-3.9	236	16
2023-08-26T18:00	2216	778	8.8	-4.4	237	16
2023-08-26T18:00	2246	775	8.6	-5.2	238	16
2023-08-26T18:00	2275	772	8.4	-5.1	240	16
2023-08-26T18:00	2303	770	8.2	-5.3	241	17
2023-08-26T18:00	2327	767	8.0	-4.9	243	17
2023-08-26T18:00	2360	765	7.7	-4.0	245	17
2023-08-26T18:00	2390	762	7.4	-4.0	246	17
2023-08-26T18:00	2415	759	7.2	-4.1	246	16
2023-08-26T18:00	2442	757	7.0	-4.8	246	16
2023-08-26T18:00	2471	754	6.9	-6.7	246	16
2023-08-26T18:00	2496	752	6.6	-6.2	246	16
2023-08-26T18:00	2523	749	6.4	-6.8	246	16
2023-08-26T18:00	2554	747	6.1	-7.4	245	16
2023-08-26T18:00	2583	744	5.8	-7.3	245	15
2023-08-26T18:00	2611	741	5.6	-8.4	245	16
2023-08-26T18:00	2638	739	5.4	-8.2	244	16
2023-08-26T18:00	2661	737	5.2	-5.7	244	16
2023-08-26T18:00	2683	735	5.0	-4.1	244	17
2023-08-26T18:00	2710	733	4.8	-3.4	244	17
2023-08-26T18:00	2734	730	4.7	-3.7	244	18
2023-08-26T18:00	2761	728	4.6	-5.0	244	18
2023-08-26T18:00	2787	726	4.4	-5.0	244	18
2023-08-26T18:00	2814	723	4.2	-2.8	244	19
2023-08-26T18:00	2850	720	3.8	-2.8	244	19
2023-08-26T18:00	2877	718	3.5	-2.5	243	19
2023-08-26T18:00	2899	716	3.4	-2.6	243	19
2023-08-26T18:00	2920	714	3.3	-3.0	243	19
2023-08-26T18:00	2941	712	3.1	-3.5	243	19
2023-08-26T18:00	2968	710	3.1	-4.6	244	19
2023-08-26T18:00	2995	707	2.9	-3.8	244	19
2023-08-26T18:00	3021	705	2.8	-3.5	245	20
2023-08-26T18:00	3046	703	2.7	-3.7	246	20
2023-08-26T18:00	3066	701	2.5	-3.3	247	20
2023-08-26T18:00	3090	699	2.4	-3.0	246	20
2023-08-26T18:00	3112	697	2.3	-3.2	246	20
2023-08-26T18:00	3133	695	2.2	-2.9	245	20
2023-08-26T18:00	3151	694	2.1	-3.4	244	20
2023-08-26T18:00	3170	692	2.1	-3.8	243	20
2023-08-26T18:00	3197	690	1.9	-3.7	244	21
2023-08-26T18:00	3225	688	1.6	-3.1	245	22
2023-08-26T18:00	3251	685	1.4	-3.3	246	22
2023-08-26T18:00	3271	684	1.2	-3.1	248	23
2023-08-26T18:00	3294	682	1.1	-3.6	248	23
2023-08-26T18:00	3317	680	1.0	-3.9	248	22
2023-08-26T18:00	3340	678	0.8	-3.0	247	22
2023-08-26T18:00	3361	676	0.6		246	21
2023-08-26T18:00	3384	674	0.5	-4.2	245	21
2023-08-26T18:00	3402	672	0.6	-6.4	244	21
2023-08-26T18:00	3426	671	0.4	-7.0	244	21
2023-08-26T18:00	3449	668	0.2	-6.8	243	21
2023-08-26T18:00	3476	666	0.2	-6.4	243	22
2023-08-26T18:00	3498	664	0.0	-6.8	242	22
2023-08-26T18:00	3522	662	-0.1	-6.7	242	22
2023-08-26T18:00	3549	660	-0.3	-7.3	242	22
2023-08-26T18:00	3578	658	-0.2	-8.6	242	22
2023-08-26T18:00	3608	656	-0.3	-8.8	242	22
2023-08-26T18:00	3637	653	-0.5	-8.3	242	23
2023-08-26T18:00	3661	651	-0.7	-8.1	241	23
2023-08-26T18:00	3685	649	-0.9	-8.1	241	24
2023-08-26T18:00	3712	647	-1.0	-8.4	241	24
2023-08-26T18:00	3735	645	-1.1	-8.6	241	24
2023-08-26T18:00	3761	643	-1.3	-9.6	241	24
2023-08-26T18:00	3792	641	-1.6	-9.4	241	24
2023-08-26T18:00	3821	638	-1.8	-9.4	240	24
2023-08-26T18:00	3841	637	-2.0	-9.8	240	23
2023-08-26T18:00	3862	635	-1.9	-12.3	239	23
2023-08-26T18:00	3894	632	-2.0	-13.2	239	23
2023-08-26T18:00	3920	630	-2.1	-13.3	238	23
2023-08-26T18:00	3950	628	-2.3	-13.3	238	23
2023-08-26T18:00	3979	626	-2.6	-13.3	237	23
2023-08-26T18:00	4002	624	-2.8	-13.3	236	23
2023-08-26T18:00	4034	621	-3.0	-13.8	236	23
2023-08-26T18:00	4062	619	-3.2		236	23
2023-08-26T18:00	4092	617	-3.4	-14.1	237	23
2023-08-26T18:00	4117	615	-3.6	-14.3	237	23
2023-08-26T18:00	4149	612	-3.7	-15.9	237	24
2023-08-26T18:00	4178	610	-4.0	-16.4	238	24
2023-08-26T18:00	4207	608	-4.2	-16.9	238	24
2023-08-26T18:00	4229	606	-4.4	-16.6	238	25
2023-08-26T18:00	4259	604	-4.6	-16.6	238	25
2023-08-26T18:00	4283	602	-4.7	-16.8	239	25
2023-08-26T18:00	4314	600	-4.8	-17.5	239	25
2023-08-26T18:00	4343	598	-4.9	-17.9	238	25
2023-08-26T18:00	4368	596	-5.0	-18.3	238	25
2023-08-26T18:00	4396	593	-5.2	-18.6	237	24
2023-08-26T18:00	4421	591	-5.5	-18.7	236	23
2023-08-26T18:00	4448	589	-5.7	-18.8	236	23
2023-08-26T18:00	4475	587	-5.9	-18.7	236	23
2023-08-26T18:00	4505	585	-6.2	-18.7	236	23
2023-08-26T18:00	4532	583	-6.5	-18.9	236	24
2023-08-26T18:00	4560	581	-6.7	-18.8	236	24
2023-08-26T18:00	4585	579	-6.9	-18.7	235	24
2023-08-26T18:00	4612	577	-7.2	-19.0	235	24
2023-08-26T18:00	4644	575	-7.4	-19.8	234	24
2023-08-26T18:00	4668	573	-7.4	-21.9	233	24
2023-08-26T18:00	4694	571	-7.4	-24.1	232	24
2023-08-26T18:00	4721	569	-7.2	-28.5	231	24
2023-08-26T18:00	4744	568	-6.9	-34.3	231	24
2023-08-26T18:00	4769	566	-6.6	-35.4	230	24
2023-08-26T18:00	4792	564	-6.7	-34.9	230	25
2023-08-26T18:00	4818	562	-6.8	-34.7	230	25
2023-08-26T18:00	4841	560	-7.0	-34.6	230	26
2023-08-26T18:00	4866	559	-7.0	-30.8	231	26
2023-08-26T18:00	4889	557	-7.0	-28.7	231	27
2023-08-26T18:00	4913	555	-7.1	-27.5	231	27
2023-08-26T18:00	4939	553	-7.2	-26.4	232	27
2023-08-26T18:00	4968	551	-7.2	-24.1	232	28
2023-08-26T18:00	4997	550	-7.1	-22.2	232	28
2023-08-26T18:00	5018	548	-7.2	-22.4	233	28
2023-08-26T18:00	5050	546	-7.3	-23.6	235	28
2023-08-26T18:00	5075	544	-7.5	-23.9	236	29
2023-08-26T18:00	5097	542	-7.7	-24.1	238	29
2023-08-26T18:00	5125	541	-7.9	-24.3	239	29
2023-08-26T18:00	5151	539	-8.1	-24.4	240	29
2023-08-26T18:00	5177	537	-8.3	-24.6	240	29
2023-08-26T18:00	5200	535	-8.5	-24.3	240	28
2023-08-26T18:00	5228	533	-8.7	-23.9	239	28
2023-08-26T18:00	5256	531	-9.0	-23.6	239	28
2023-08-26T18:00	5283	529	-9.3	-23.6	239	28
2023-08-26T18:00	5310	528	-9.5	-23.4	239	28
2023-08-26T18:00	5339	526	-9.8	-23.6	240	28
2023-08-26T18:00	5367	524	-10.0	-23.6	240	28
2023-08-26T18:00	5395	522	-10.3	-23.8	241	28
2023-08-26T18:00	5422	520	-10.5	-23.8	241	28
2023-08-26T18:00	5447	518	-10.7	-23.7	242	28
2023-08-26T18:00	5473	517	-10.9	-23.9	242	28
2023-08-26T18:00	5503	515	-11.1	-24.1	242	28
2023-08-26T18:00	5529	513	-11.4	-24.4	243	28
2023-08-26T18:00	5557	511	-11.6	-25.1	243	28
2023-08-26T18:00	5588	509	-11.8	-26.0	244	28
2023-08-26T18:00	5614	507	-11.9	-27.4	245	29
2023-08-26T18:00	5642	505	-12.2	-28.2	245	30
2023-08-26T18:00	5679	503	-12.2	-29.8	246	30
2023-08-26T18:00	5706	501	-12.4	-29.8	246	31
2023-08-26T18:00	5739	499	-12.7	-29.0	246	32
2023-08-26T18:00	5764	497	-12.9	-28.4	246	32
2023-08-26T18:00	5787	496	-13.1	-28.4	246	32
2023-08-26T18:00	5815	494	-13.4	-27.8	246	32
2023-08-26T18:00	5836	493	-13.6	-27.3	246	32
2023-08-26T18:00	5863	491	-13.8	-27.7	247	32
2023-08-26T18:00	5889	489	-14.1	-27.3	247	32
2023-08-26T18:00	5916	488	-14.5	-24.8	247	32
2023-08-26T18:00	5945	486	-14.7	-25.1	247	32
2023-08-26T18:00	5977	483	-14.9	-24.2	246	32
2023-08-26T18:00	6015	481	-15.4	-25.5	245	32
2023-08-26T18:00	6052	479	-15.7	-24.8	243	33
2023-08-26T18:00	6088	477	-16.0	-23.5	242	33
2023-08-26T18:00	6129	474	-16.2	-22.8	240	34
2023-08-26T18:00	6164	472	-16.1	-20.2	239	35
2023-08-26T18:00	6196	470	-16.1	-20.0	239	36
2023-08-26T18:00	6227	468	-16.2	-19.6	238	37
2023-08-26T18:00	6261	466	-16.2	-19.4	237	38
2023-08-26T18:00	6290	464	-16.0	-18.9	236	39
2023-08-26T18:00	6327	462	-16.2	-19.1	235	39
2023-08-26T18:00	6360	460	-16.4	-19.2	234	39
2023-08-26T18:00	6393	458	-16.6	-19.4	233	39
2023-08-26T18:00	6431	455	-16.9	-19.3	233	39
2023-08-26T18:00	6473	453	-17.3	-19.7	232	39
2023-08-26T18:00	6503	451	-17.5	-19.8	232	39
2023-08-26T18:00	6540	449	-17.9	-19.7	231	38
2023-08-26T18:00	6572	447	-18.1	-20.0	231	38
2023-08-26T18:00	6612	445	-18.5	-20.2	231	38
2023-08-26T18:00	6645	442	-18.7	-20.1	230	37
2023-08-26T18:00	6678	441	-19.0	-20.5	230	37
2023-08-26T18:00	6711	439	-19.2	-20.8	230	36
2023-08-26T18:00	6743	437	-19.5	-20.9	229	36
2023-08-26T18:00	6773	435	-19.8	-21.1	229	36
2023-08-26T18:00	6807	433	-20.1	-21.3	228	36
2023-08-26T18:00	6838	431	-20.3	-21.5	228	36
2023-08-26T18:00	6868	429	-20.5	-21.8	228	35
2023-08-26T18:00	6902	427	-20.8	-21.9	228	35
2023-08-26T18:00	6935	426	-21.1	-22.3	228	34
2023-08-26T18:00	6966	424	-21.3	-22.6	228	34
2023-08-26T18:00	6995	422	-21.5	-23.1	228	33
2023-08-26T18:00	7023	420	-21.7	-23.2	228	33
2023-08-26T18:00	7054	419	-22.0	-23.3	227	32
2023-08-26T18:00	7087	417	-22.3	-23.5	227	32
2023-08-26T18:00	7122	415	-22.6	-23.7	227	32
2023-08-26T18:00	7150	413	-22.9	-23.8	226	31
2023-08-26T18:00	7182	411	-23.1	-24.4	226	31
2023-08-26T18:00	7214	410	-23.3	-24.5	226	31
2023-08-26T18:00	7244	408	-23.5	-24.8	226	31
2023-08-26T18:00	7275	406	-23.8	-25.3	225	30
2023-08-26T18:00	7305	405	-24.0	-25.4	225	30
2023-08-26T18:00	7333	403	-24.1	-25.6	224	30
2023-08-26T18:00	7363	402	-24.1	-25.6	224	30
2023-08-26T18:00	7385	400	-24.3	-26.0	225	30
2023-08-26T18:00	7411	399	-24.6	-26.2	225	30
2023-08-26T18:00	7443	397	-24.8	-26.5	226	30
2023-08-26T18:00	7475	395	-25.1	-27.0	227	30
2023-08-26T18:00	7499	394	-25.2	-27.0	227	30
2023-08-26T18:00	7533	392	-25.5	-27.3	226	30
2023-08-26T18:00	7577	390	-25.8	-27.8	226	31
2023-08-26T18:00	7606	388	-26.0	-28.0	226	32
2023-08-26T18:00	7634	387	-26.2	-28.2	226	32
2023-08-26T18:00	7665	385	-26.3	-28.7	227	33
2023-08-26T18:00	7688	384	-26.5	-28.6	227	33
2023-08-26T18:00	7720	382	-26.8	-28.9	228	34
2023-08-26T18:00	7746	381	-27.0	-29.0	228	34
2023-08-26T18:00	7769	379	-27.2	-29.1	228	35
2023-08-26T18:00	7795	378	-27.4	-29.2	229	35
2023-08-26T18:00	7816	377	-27.5	-29.4	229	35
2023-08-26T18:00	7840	376	-27.6	-29.7	229	36
2023-08-26T18:00	7862	375	-27.8	-29.8	229	36
2023-08-26T18:00	7891	373	-28.0	-30.0	229	36
2023-08-26T18:00	7915	372	-28.1	-30.2	229	36
2023-08-26T18:00	7940	371	-28.3	-30.4	229	36
2023-08-26T18:00	7970	369	-28.6	-30.6	229	36
2023-08-26T18:00	8006	367	-28.9	-31.0	229	36
2023-08-26T18:00	8027	366	-29.1	-31.2	228	36
2023-08-26T18:00	8057	365	-29.3	-31.5	228	37
2023-08-26T18:00	8086	363	-29.5	-31.8	227	37
2023-08-26T18:00	8110	362	-29.7	-31.9	226	38
2023-08-26T18:00	8140	360	-29.9	-31.9	225	38
2023-08-26T18:00	8170	359	-29.9	-32.3	224	38
2023-08-26T18:00	8203	357	-30.0	-32.4	223	39
2023-08-26T18:00	8223	356	-30.1	-32.4	223	39
2023-08-26T18:00	8245	355	-30.4	-32.6	223	39
2023-08-26T18:00	8275	354	-30.4	-32.7	223	39
2023-08-26T18:00	8310	352	-30.7	-33.2	223	39
2023-08-26T18:00	8337	351	-30.8	-34.1	223	39
2023-08-26T18:00	8367	349	-31.1	-34.1	223	39
2023-08-26T18:00	8398	348	-31.4	-34.8	223	39
2023-08-26T18:00	8425	346	-31.6	-34.8	223	40
2023-08-26T18:00	8463	345	-31.9	-34.9	223	40
2023-08-26T18:00	8486	343	-32.2	-35.5	223	40
2023-08-26T18:00	8520	342	-32.5	-35.5	224	40
2023-08-26T18:00	8552	340	-32.8	-35.9	224	41
2023-08-26T18:00	8579	339	-33.0	-35.9	225	41
2023-08-26T18:00	8604	338	-33.3	-36.0	226	41
2023-08-26T18:00	8628	336	-33.5	-36.0	226	41
2023-08-26T18:00	8652	335	-33.7	-36.0	226	41
2023-08-26T18:00	8669	334	-33.9	-36.7	226	41
2023-08-26T18:00	8688	334	-34.0	-36.9	226	41
2023-08-26T18:00	8710	332	-34.1	-37.3	226	41
2023-08-26T18:00	8731	331	-34.3	-37.6	226	41
2023-08-26T18:00	8754	330	-34.4	-37.8	226	41
2023-08-26T18:00	8774	329	-34.6	-38.1	226	41
2023-08-26T18:00	8795	328	-34.7	-38.2	225	41
2023-08-26T18:00	8817	327	-34.9	-38.6	225	41
2023-08-26T18:00	8841	326	-35.0	-38.8	224	41
2023-08-26T18:00	8865	325	-35.2	-39.3	223	41
2023-08-26T18:00	8888	324	-35.3	-39.3	223	41
2023-08-26T18:00	8912	323	-35.4	-39.4	222	41
2023-08-26T18:00	8934	322	-35.4	-39.6	222	42
2023-08-26T18:00	8952	321	-35.5	-39.6	222	42
2023-08-26T18:00	8979	320	-35.6	-39.9	222	42
2023-08-26T18:00	9007	319	-35.8	-40.5	222	42
2023-08-26T18:00	9037	317	-36.0	-40.7	222	42
2023-08-26T18:00	9053	316	-36.2	-40.7	221	42
2023-08-26T18:00	9075	315	-36.4	-41.1	221	43
2023-08-26T18:00	9099	314	-36.6	-41.6	221	43
2023-08-26T18:00	9131	313	-36.8	-41.8	221	43
2023-08-26T18:00	9165	312	-37.0	-42.0	221	44
2023-08-26T18:00	9182	311	-37.1	-42.3	221	44
2023-08-26T18:00	9203	310	-37.2	-42.6	221	44
2023-08-26T18:00	9229	309	-37.4	-42.9	221	44
2023-08-26T18:00	9260	307	-37.7	-43.0	221	44
2023-08-26T18:00	9294	306	-37.9	-43.8	221	45
2023-08-26T18:00	9328	304	-38.2	-43.9	221	45
2023-08-26T18:00	9362	303	-38.5	-44.2	221	45
2023-08-26T18:00	9391	301	-38.7	-44.5	222	46
2023-08-26T18:00	9429	300	-38.9	-45.3	223	46
2023-08-26T18:00	9460	298	-39.2	-45.5	224	47
2023-08-26T18:00	9493	297	-39.5	-45.5	224	48
2023-08-26T18:00	9523	296	-39.7	-45.8	224	49
2023-08-26T18:00	9555	294	-40.0	-46.0	224	50
2023-08-26T18:00	9588	293	-40.3	-46.1	224	50
2023-08-26T18:00	9621	291	-40.5	-46.5	225	51
2023-08-26T18:00	9654	290	-40.8	-46.7	225	51
2023-08-26T18:00	9689	289	-41.1	-46.8	226	51
2023-08-26T18:00	9716	287	-41.4	-46.9	226	51
2023-08-26T18:00	9743	286	-41.6	-46.7	226	51
2023-08-26T18:00	9779	285	-42.0	-46.5	226	51
2023-08-26T18:00	9809	283	-42.3	-46.8	226	51
2023-08-26T18:00	9837	282	-42.6	-47.1	226	52
2023-08-26T18:00	9865	281	-42.8	-47.0	226	52
2023-08-26T18:00	9891	280	-43.1	-47.3	226	53
2023-08-26T18:00	9919	279	-43.3	-47.3	227	54
2023-08-26T18:00	9952	277	-43.6	-47.6	228	54
2023-08-26T18:00	9992	276	-43.9	-48.4	229	55
2023-08-26T18:00	10024	275	-44.1	-48.8	230	55
2023-08-26T18:00	10047	274	-44.3	-48.9	230	55
2023-08-26T18:00	10068	273	-44.5	-48.9	230	55
2023-08-26T18:00	10088	272	-44.7	-49.4	230	55
2023-08-26T18:00	10111	271	-44.9	-49.6	230	55
2023-08-26T18:00	10140	270	-45.2	-49.8	230	55
2023-08-26T18:00	10161	269	-45.4	-50.1	230	55
2023-08-26T18:00	10184	268	-45.6	-50.4	230	55
2023-08-26T18:00	10204	267	-45.8	-50.5	230	55
2023-08-26T18:00	10224	266	-45.9	-50.6	230	55
2023-08-26T18:00	10247	266	-46.1	-50.9	229	56
2023-08-26T18:00	10266	265	-46.3	-51.0	229	56
2023-08-26T18:00	10290	264	-46.5	-51.2	229	56
2023-08-26T18:00	10312	263	-46.7	-51.3	229	56
2023-08-26T18:00	10341	262	-46.9	-51.6	228	56
2023-08-26T18:00	10362	261	-47.1		228	56
2023-08-26T18:00	10385	260	-47.3	-51.9	228	56
2023-08-26T18:00	10406	259	-47.5	-52.0	228	56
2023-08-26T18:00	10431	258	-47.7	-52.1	228	56
2023-08-26T18:00	10457	257	-48.0	-52.3	228	56
2023-08-26T18:00	10484	256	-48.2	-52.5	228	56
2023-08-26T18:00	10510	255	-48.5	-52.7	228	56
2023-08-26T18:00	10535	254	-48.7	-52.8	227	55
2023-08-26T18:00	10559	253	-48.9	-52.9	227	55
2023-08-26T18:00	10582	252	-49.2	-53.1	227	55
2023-08-26T18:00	10605	251	-49.4	-53.4	227	55
2023-08-26T18:00	10628	251	-49.6	-53.6	227	55
2023-08-26T18:00	10649	250	-49.8	-53.7	227	55
2023-08-26T18:00	10671	249	-50.0	-53.9	227	55
2023-08-26T18:00	10692	248	-50.2	-54.2	227	55
2023-08-26T18:00	10713	247	-50.4	-54.4	227	55
2023-08-26T18:00	10733	247	-50.5	-54.5	227	55
2023-08-26T18:00	10757	246	-50.8	-54.8	227	55
2023-08-26T18:00	10778	245	-51.0	-54.9	227	56
2023-08-26T18:00	10801	244	-51.2	-55.1	227	56
2023-08-26T18:00	10822	243	-51.4	-55.5	227	55
2023-08-26T18:00	10848	242	-51.6	-55.8	227	55
2023-08-26T18:00	10872	241	-51.9	-56.0	227	55
2023-08-26T18:00	10895	241	-52.1	-56.2	228	55
2023-08-26T18:00	10918	240	-52.3	-56.5	228	55
2023-08-26T18:00	10941	239	-52.5	-56.9	228	56
2023-08-26T18:00	10972	238	-52.8	-57.4	228	56
2023-08-26T18:00	10997	237	-53.0	-57.5	228	56
2023-08-26T18:00	11022	236	-53.2	-57.6	227	56
2023-08-26T18:00	11043	235	-53.4	-57.7	227	55
2023-08-26T18:00	11064	234	-53.6	-57.9	226	55
2023-08-26T18:00	11086	234	-53.8	-58.1	226	55
2023-08-26T18:00	11110	233	-54.1	-58.6	226	55
2023-08-26T18:00	11136	232	-54.3	-59.0	225	55
2023-08-26T18:00	11154	231	-54.4	-59.2	225	55
2023-08-26T18:00	11177	230	-54.6	-59.3	225	55
2023-08-26T18:00	11200	229	-54.8	-59.4	225	55
2023-08-26T18:00	11220	229	-55.0	-59.5	224	55
2023-08-26T18:00	11244	228	-55.2	-59.8	224	55
2023-08-26T18:00	11272	227	-55.4	-60.2	223	55
2023-08-26T18:00	11295	226	-55.6	-60.6	223	55
2023-08-26T18:00	11317	225	-55.8	-60.9	223	55
2023-08-26T18:00	11338	225	-55.9	-61.1	223	55
2023-08-26T18:00	11359	224	-56.1	-61.2	223	55
2023-08-26T18:00	11381	223	-56.3	-61.5	223	56
2023-08-26T18:00	11401	222	-56.5	-62.1	223	56
2023-08-26T18:00	11429	221	-56.6	-63.1	224	56
2023-08-26T18:00	11452	220	-56.6	-63.9	225	56
2023-08-26T18:00	11473	220	-56.4	-64.0	225	56
2023-08-26T18:00	11495	219	-56.6	-64.0	226	56
2023-08-26T18:00	11516	218	-56.7	-63.8	226	56
2023-08-26T18:00	11535	218	-56.7	-63.7	227	57
2023-08-26T18:00	11558	217	-56.7	-64.0	228	57
2023-08-26T18:00	11581	216	-56.8	-64.6	229	57
2023-08-26T18:00	11607	215	-56.8	-65.3	230	57
2023-08-26T18:00	11632	214	-56.0	-65.7	231	56
2023-08-26T18:00	11659	213	-55.4	-66.8	232	56
2023-08-26T18:00	11684	213	-54.2	-67.9	233	55
2023-08-26T18:00	11706	212	-53.5	-69.2	234	55
2023-08-26T18:00	11728	211	-53.3	-69.9	235	54
2023-08-26T18:00	11756	210	-53.3	-70.2	235	53
2023-08-26T18:00	11785	209	-53.4	-70.2	236	53
2023-08-26T18:00	11806	209	-53.5	-70.2	236	52
2023-08-26T18:00	11826	208	-53.3	-70.0	237	50
2023-08-26T18:00	11849	207	-53.4	-70.1	237	49
2023-08-26T18:00	11875	206	-53.4	-70.1	238	48
2023-08-26T18:00	11904	205	-53.3	-70.4	238	46
2023-08-26T18:00	11925	205	-53.1	-70.9	239	45
2023-08-26T18:00	11947	204	-52.7	-71.5	240	44
2023-08-26T18:00	11968	203	-52.6	-72.1	240	43
2023-08-26T18:00	11986	203	-52.2	-72.4	241	42
2023-08-26T18:00	12008	202	-52.1	-73.0	241	42
2023-08-26T18:00	12027	202	-51.6	-73.3	241	41
2023-08-26T18:00	12047	201	-51.2	-73.9	242	40
2023-08-26T18:00	12069	200	-51.2	-74.3	242	40
2023-08-26T18:00	12090	200	-51.1	-74.4	242	39
2023-08-26T18:00	12118	199	-51.1	-74.7	242	38
2023-08-26T18:00	12148	198	-50.9	-74.8	242	37
2023-08-26T18:00	12171	197	-50.6	-74.9	241	36
2023-08-26T18:00	12196	196	-50.5	-75.0	240	35
2023-08-26T18:00	12224	196	-50.5	-75.2	239	34
2023-08-26T18:00	12244	195	-50.5	-75.4	238	34
2023-08-26T18:00	12264	194	-50.3	-75.5	237	33
2023-08-26T18:00	12283	194	-50.2	-75.8	236	33
2023-08-26T18:00	12305	193	-50.4	-76.0	236	33
2023-08-26T18:00	12326	193	-50.5	-76.0	235	33
2023-08-26T18:00	12347	192	-50.6	-76.1	234	33
2023-08-26T18:00	12371	191	-50.7	-76.0	234	33
2023-08-26T18:00	12391	191	-50.7	-75.8	233	32
2023-08-26T18:00	12418	190	-50.9	-75.9	232	32
2023-08-26T18:00	12450	189	-50.9	-75.7	231	32
2023-08-26T18:00	12482	188	-50.9	-75.7	230	32
2023-08-26T18:00	12513	187	-51.1	-75.9	229	32
2023-08-26T18:00	12535	186	-51.2	-76.0	227	31
2023-08-26T18:00	12559	186	-51.4	-75.9	226	31
2023-08-26T18:00	12588	185	-51.6	-76.1	225	30
2023-08-26T18:00	12617	184	-51.8	-76.2	224	30
2023-08-26T18:00	12642	183	-52.0	-76.4	224	30
2023-08-26T18:00	12665	183	-52.2	-76.5	223	30
2023-08-26T18:00	12691	182	-52.4	-76.5	223	31
2023-08-26T18:00	12716	181	-52.5	-76.6	223	31
2023-08-26T18:00	12742	181	-52.7	-76.6	223	32
2023-08-26T18:00	12764	180	-52.9	-76.7	223	32
2023-08-26T18:00	12791	179	-53.2	-76.8	223	33
2023-08-26T18:00	12816	179	-53.4	-76.8	223	33
2023-08-26T18:00	12841	178	-53.6	-76.7	222	33
2023-08-26T18:00	12861	177	-53.7	-76.7	222	34
2023-08-26T18:00	12880	177	-53.9	-76.8	222	34
2023-08-26T18:00	12900	176	-54.0	-76.9	221	34
2023-08-26T18:00	12923	176	-54.0	-77.1	221	34
2023-08-26T18:00	12944	175	-54.0	-77.2	220	34
2023-08-26T18:00	12965	174	-54.1	-77.3	219	34
2023-08-26T18:00	12985	174	-54.2	-77.4	219	34
2023-08-26T18:00	13006	173	-54.3	-77.5	218	35
2023-08-26T18:00	13025	173	-54.4	-77.6	218	35
2023-08-26T18:00	13046	172	-54.5	-77.5	218	35
2023-08-26T18:00	13065	172	-54.7	-77.5	219	36
2023-08-26T18:00	13087	171	-54.8	-77.4	219	37
2023-08-26T18:00	13107	171	-54.8	-77.2	219	37
2023-08-26T18:00	13128	170	-54.7	-77.1	220	38
2023-08-26T18:00	13147	170	-54.7	-77.3	220	39
2023-08-26T18:00	13166	169	-54.7	-77.5	221	39
2023-08-26T18:00	13186	168	-54.8	-77.5	221	39
2023-08-26T18:00	13208	168	-54.8	-77.5	222	40
2023-08-26T18:00	13228	167	-54.9	-77.8	223	40
2023-08-26T18:00	13248	167	-54.9	-78.0	224	40
2023-08-26T18:00	13267	166	-54.5	-77.8	225	40
2023-08-26T18:00	13286	166	-54.3	-78.0	226	40
2023-08-26T18:00	13309	165	-54.2	-78.1	227	40
2023-08-26T18:00	13331	165	-53.8	-78.4	228	39
2023-08-26T18:00	13350	164	-53.4	-78.3	229	39
2023-08-26T18:00	13370	164	-53.1	-78.6	230	39
2023-08-26T18:00	13389	163	-53.1	-78.6	231	39
2023-08-26T18:00	13408	163	-53.1	-78.8	232	38
2023-08-26T18:00	13429	162	-52.8	-78.8	233	38
2023-08-26T18:00	13446	162	-52.6	-78.7	234	37
2023-08-26T18:00	13467	161	-52.5	-78.8	234	37
2023-08-26T18:00	13488	161	-52.4	-78.8	235	36
2023-08-26T18:00	13511	160	-52.3	-79.0	235	35
2023-08-26T18:00	13535	160	-51.9	-78.6	234	34
2023-08-26T18:00	13556	159	-51.8	-78.6	233	34
2023-08-26T18:00	13579	159	-51.6	-78.7	232	33
2023-08-26T18:00	13607	158	-51.7	-78.8	231	32
2023-08-26T18:00	13636	157	-51.7	-78.8	229	32
2023-08-26T18:00	13657	157	-51.8	-78.9	228	32
2023-08-26T18:00	13683	156	-52.0	-78.7	227	32
2023-08-26T18:00	13703	156	-52.1	-78.8	227	32
2023-08-26T18:00	13723	155	-52.2	-78.9	227	32
2023-08-26T18:00	13743	155	-52.3	-79.0	227	32
2023-08-26T18:00	13764	154	-52.4	-78.8	227	33
2023-08-26T18:00	13784	154	-52.4	-79.0	226	33
2023-08-26T18:00	13804	153	-52.4	-79.0	226	33
2023-08-26T18:00	13826	153	-52.4	-79.0	225	33
2023-08-26T18:00	13845	152	-52.4	-79.0	224	33
2023-08-26T18:00	13865	152	-52.4	-79.0	224	33
2023-08-26T18:00	13883	151	-52.5	-79.1	224	34
2023-08-26T18:00	13906	151	-52.5	-79.1	223	34
2023-08-26T18:00	13926	150	-52.5	-79.1	223	34
2023-08-26T18:00	13946	150	-52.6	-79.2	223	35
2023-08-26T18:00	13966	149	-52.6	-79.2	224	35
2023-08-26T18:00	13986	149	-52.7	-79.3	224	35
2023-08-26T18:00	14008	148	-52.6	-79.2	224	36
2023-08-26T18:00	14026	148	-52.5	-79.1	225	35
2023-08-26T18:00	14048	147	-52.5	-79.4	225	35
2023-08-26T18:00	14069	147	-52.5	-79.4	226	35
2023-08-26T18:00	14092	146	-52.5	-79.4	227	34
2023-08-26T18:00	14113	146	-52.6	-79.5	227	34
2023-08-26T18:00	14136	145	-52.5	-79.4	228	34
2023-08-26T18:00	14161	145	-52.6	-79.5	228	33
2023-08-26T18:00	14186	144	-52.7	-79.6	229	33
2023-08-26T18:00	14212	144	-52.8	-79.6	230	33
2023-08-26T18:00	14235	143	-52.9	-79.7	231	34
2023-08-26T18:00	14258	143	-53.1	-79.9	231	34
2023-08-26T18:00	14279	142	-53.1	-79.9	232	34
2023-08-26T18:00	14304	142	-53.1	-79.9	233	34
2023-08-26T18:00	14329	141	-53.3	-80.0	233	34
2023-08-26T18:00	14352	141	-53.5	-80.2	234	34
2023-08-26T18:00	14376	140	-53.6	-80.2	235	34
2023-08-26T18:00	14398	140	-53.8	-80.4	235	34
2023-08-26T18:00	14422	139	-53.8	-80.4	236	34
2023-08-26T18:00	14444	139	-53.7	-80.3	236	34
2023-08-26T18:00	14469	138	-53.9	-80.5	237	34
2023-08-26T18:00	14492	138	-54.0	-80.6	238	33
2023-08-26T18:00	14514	137	-54.2	-80.7	238	33
2023-08-26T18:00	14539	137	-54.3	-80.8	239	33
2023-08-26T18:00	14561	136	-54.4	-80.6	239	33
2023-08-26T18:00	14585	136	-54.6	-80.7	240	32
2023-08-26T18:00	14608	135	-54.7	-80.8	240	32
2023-08-26T18:00	14631	135	-54.8	-80.6	241	31
2023-08-26T18:00	14654	134	-55.0	-80.8	241	31
2023-08-26T18:00	14675	134	-55.1	-80.9	242	30
2023-08-26T18:00	14698	133	-55.3	-81.0	242	30
2023-08-26T18:00	14718	133	-55.4	-81.1	243	29
2023-08-26T18:00	14739	132	-55.3	-81.0	242	28
2023-08-26T18:00	14763	132	-55.3	-81.3	241	27
2023-08-26T18:00	14789	131	-55.1	-81.4	240	26
2023-08-26T18:00	14817	131	-54.9	-81.5	238	25
2023-08-26T18:00	14840	130	-54.9	-81.9	237	24
2023-08-26T18:00	14863	130	-54.9	-81.9	235	23
2023-08-26T18:00	14886	129	-54.9	-81.9	233	23
2023-08-26T18:00	14911	129	-54.9	-81.9	232	22
2023-08-26T18:00	14932	128	-54.9	-81.9	230	22
2023-08-26T18:00	14953	128	-55.0	-81.9	228	22
2023-08-26T18:00	14973	128	-54.9	-81.9	227	23
2023-08-26T18:00	14997	127	-55.0	-81.9	225	23
2023-08-26T18:00	15018	127	-55.0	-81.9	224	24
2023-08-26T18:00	15039	126	-54.9	-82.2	223	24
2023-08-26T18:00	15060	126	-54.7	-82.0	223	25
2023-08-26T18:00	15082	125	-54.8	-81.8	223	25
2023-08-26T18:00	15104	125	-54.9	-81.9	223	25
2023-08-26T18:00	15123	125	-55.1	-82.0	224	25
2023-08-26T18:00	15143	124	-55.3	-82.2	225	26
2023-08-26T18:00	15166	124	-55.3	-82.2	226	26
2023-08-26T18:00	15188	123	-55.3	-82.5	227	27
2023-08-26T18:00	15209	123	-55.0	-82.3	228	27
2023-08-26T18:00	15229	123	-54.9	-82.2	230	27
2023-08-26T18:00	15250	122	-54.9	-82.2	232	27
2023-08-26T18:00	15281	122	-55.0	-82.6	233	26
2023-08-26T18:00	15309	121	-54.8	-82.4	235	26
2023-08-26T18:00	15335	121	-54.6	-82.3	237	25
2023-08-26T18:00	15356	120	-54.5	-82.2	237	24
2023-08-26T18:00	15378	120	-54.3	-82.4	238	23
2023-08-26T18:00	15399	119	-54.4	-82.5	238	22
2023-08-26T18:00	15420	119	-54.3	-82.4	239	21
2023-08-26T18:00	15442	119	-53.8	-82.0	239	21
2023-08-26T18:00	15465	118	-53.8	-82.0	239	20
2023-08-26T18:00	15486	118	-53.6	-81.9	239	20
2023-08-26T18:00	15509	117	-53.7	-82.0	239	19
2023-08-26T18:00	15529	117	-53.5	-82.2	239	19
2023-08-26T18:00	15552	117	-53.2	-82.0	240	18
2023-08-26T18:00	15575	116	-53.1	-81.9	240	18
2023-08-26T18:00	15596	116	-53.0	-81.8	241	17
2023-08-26T18:00	15620	115	-53.1	-81.9	243	17
2023-08-26T18:00	15644	115	-53.2	-82.0	244	16
2023-08-26T18:00	15666	115	-53.2	-81.6	245	16
2023-08-26T18:00	15688	114	-53.3	-81.7	247	15
2023-08-26T18:00	15710	114	-53.3	-81.7	248	15
2023-08-26T18:00	15732	113	-53.5	-81.8	248	15
2023-08-26T18:00	15755	113	-53.5	-81.8	249	15
2023-08-26T18:00	15778	113	-53.6	-81.9	249	15
2023-08-26T18:00	15799	112	-53.8	-82.0	248	15
2023-08-26T18:00	15821	112	-53.8	-82.0	246	15
2023-08-26T18:00	15844	111	-53.6	-81.9	244	15
2023-08-26T18:00	15866	111	-53.5	-81.8	243	15
2023-08-26T18:00	15887	111	-53.5	-81.8	241	15
2023-08-26T18:00	15910	110	-53.7	-82.3	241	15
2023-08-26T18:00	15934	110	-53.7	-82.3	240	14
2023-08-26T18:00	15955	110	-53.8	-82.4	240	14
2023-08-26T18:00	15978	109	-53.8	-82.4	239	13
2023-08-26T18:00	16000	109	-53.8	-82.0	238	13
2023-08-26T18:00	16031	108	-54.0	-82.2	236	12
2023-08-26T18:00	16056	108	-54.1	-82.3	235	11
2023-08-26T18:00	16080	107	-54.2	-82.3	233	11
2023-08-26T18:00	16105	107	-54.3	-82.4	233	10
2023-08-26T18:00	16129	107	-54.4	-82.5	232	9
2023-08-26T18:00	16151	106	-54.4	-82.5	232	8
2023-08-26T18:00	16176	106	-54.5	-82.6	231	8
2023-08-26T18:00	16197	105	-54.6	-82.6	231	7
2023-08-26T18:00	16222	105	-54.7	-82.7	230	7
2023-08-26T18:00	16242	105	-54.7	-82.7	228	6
2023-08-26T18:00	16265	104	-54.7	-82.7	224	5
2023-08-26T18:00	16289	104	-54.8	-82.8	217	5
2023-08-26T18:00	16312	104	-54.8	-82.8	208	5
2023-08-26T18:00	16340	103	-54.8	-83.2	199	5
2023-08-26T18:00	16361	103	-54.6	-83.0	193	6
2023-08-26T18:00	16388	102	-54.5	-82.9	189	7
2023-08-26T18:00	16411	102	-54.5	-82.9	187	7
2023-08-26T18:00	16435	102	-54.6	-83.0	186	7
2023-08-26T18:00	16457	101	-54.8	-82.8	186	8
2023-08-26T18:00	16479	101	-55.0	-82.9	188	8
2023-08-26T18:00	16504	101	-55.2	-83.1	190	8
2023-08-26T18:00	16527	100	-55.3	-83.2	193	8
2023-08-26T18:00	16551	100	-55.4	-83.3	195	8
2023-08-26T18:00	16574	99	-55.5		198	9
2023-08-26T18:00	16598	99	-55.6	-83.4	200	9
2023-08-26T18:00	16618	99	-55.8	-83.6	201	9
2023-08-26T18:00	16644	98	-55.9	-83.6	202	9
2023-08-26T18:00	16668	98	-55.6	-83.4	203	9
2023-08-26T18:00	16692	98	-55.5		203	9
2023-08-26T18:00	16713	97	-55.7	-83.5	203	9
2023-08-26T18:00	16736	97	-55.8	-83.6	201	9
2023-08-26T18:00	16761	97	-55.6	-83.4	198	9
2023-08-26T18:00	16785	96	-55.4	-83.3	195	9
2023-08-26T18:00	16806	96	-55.6	-83.4	192	9
2023-08-26T18:00	16831	96	-55.7	-83.5	189	8
2023-08-26T18:00	16853	95	-55.9	-83.6	187	8
2023-08-26T18:00	16879	95	-56.0	-83.7	184	8
2023-08-26T18:00	16897	94	-56.1	-83.8	181	8
2023-08-26T18:00	16921	94	-56.2	-83.9	178	8
2023-08-26T18:00	16944	94	-55.9	-83.6	177	8
2023-08-26T18:00	16968	93	-55.9	-83.6	176	8
2023-08-26T18:00	16993	93	-55.8	-83.6	177	8
2023-08-26T18:00	17015	93	-55.8	-83.6	179	9
2023-08-26T18:00	17037	92	-56.0	-83.7	181	9
2023-08-26T18:00	17061	92	-56.2	-83.9	185	9
2023-08-26T18:00	17085	92	-56.4	-84.0	189	9
2023-08-26T18:00	17109	91	-56.6	-84.2	194	9
2023-08-26T18:00	17132	91	-56.7	-84.2	200	10
2023-08-26T18:00	17157	91	-56.7	-84.2	204	10
2023-08-26T18:00	17176	90	-56.1	-83.8	209	10
2023-08-26T18:00	17200	90	-56.1	-84.2	212	10
2023-08-26T18:00	17221	90	-56.1	-84.2	214	9
2023-08-26T18:00	17244	89	-56.0	-84.1	216	9
2023-08-26T18:00	17266	89	-56.0	-84.1	218	9
2023-08-26T18:00	17287	89	-56.2	-84.2	220	9
2023-08-26T18:00	17312	89	-56.3	-83.9	223	9
2023-08-26T18:00	17332	88	-56.5	-84.1	227	9
2023-08-26T18:00	17355	88	-56.7	-84.2	231	9
2023-08-26T18:00	17377	88	-56.7	-84.6	236	9
2023-08-26T18:00	17399	87	-56.5	-84.5	241	9
2023-08-26T18:00	17419	87	-56.3	-84.3	244	9
2023-08-26T18:00	17442	87	-55.9	-84.4	247	8
2023-08-26T18:00	17462	86	-55.8	-84.3	248	8
2023-08-26T18:00	17482	86	-55.6	-84.2	249	7
2023-08-26T18:00	17506	86	-55.7	-84.3	250	7
2023-08-26T18:00	17528	86	-55.8	-84.3	251	6
2023-08-26T18:00	17547	85	-55.9	-84.4	252	6
2023-08-26T18:00	17569	85	-56.0	-84.1	252	5
2023-08-26T18:00	17591	85	-56.1	-84.2	252	5
2023-08-26T18:00	17612	84	-56.3	-84.3	250	5
2023-08-26T18:00	17636	84	-56.5	-84.5	245	4
2023-08-26T18:00	17656	84	-56.6	-84.5	238	4
2023-08-26T18:00	17677	84	-56.4	-84.8	228	4
2023-08-26T18:00	17701	83	-55.8	-84.3	218	4
2023-08-26T18:00	17723	83	-55.5	-84.1	211	4
2023-08-26T18:00	17747	83	-55.6	-84.2	206	5
2023-08-26T18:00	17770	82	-55.8	-84.3	204	5
2023-08-26T18:00	17791	82	-55.9	-84.4	202	6
2023-08-26T18:00	17816	82	-55.9	-84.4	201	6
2023-08-26T18:00	17839	81	-55.7	-84.3	201	6
2023-08-26T18:00	17862	81	-55.7	-84.3	200	6
2023-08-26T18:00	17885	81	-55.8	-84.3	199	6
2023-08-26T18:00	17906	81	-55.9	-84.4	198	6
2023-08-26T18:00	17930	80	-56.0	-84.5	199	6
2023-08-26T18:00	17953	80	-56.0	-84.5	200	6
2023-08-26T18:00	17979	80	-56.1	-84.6	204	6
2023-08-26T18:00	18002	79	-56.2	-84.6	207	6
2023-08-26T18:00	18022	79	-56.2	-84.6	210	6
2023-08-26T18:00	18046	79	-56.1	-84.6	212	6
2023-08-26T18:00	18067	79	-56.1	-84.6	213	6
2023-08-26T18:00	18092	78	-56.2	-84.6	213	6
2023-08-26T18:00	18117	78	-56.2	-84.6	212	6
2023-08-26T18:00	18140	78	-56.4	-84.8	211	7
2023-08-26T18:00	18166	77	-56.6	-84.9	210	7
2023-08-26T18:00	18188	77	-56.6	-84.9	210	7
2023-08-26T18:00	18210	77	-56.5	-84.9	211	7
2023-08-26T18:00	18237	77	-56.4	-84.8	212	7
2023-08-26T18:00	18263	76	-56.3	-85.1	214	8
2023-08-26T18:00	18285	76	-56.2	-85.1	215	8
2023-08-26T18:00	18312	76	-55.9	-84.8	217	8
2023-08-26T18:00	18335	75	-55.9	-84.8	218	9
2023-08-26T18:00	18359	75	-55.8	-84.8	218	9
2023-08-26T18:00	18386	75	-55.7	-84.7	218	9
2023-08-26T18:00	18406	75	-55.6	-84.6	217	9
2023-08-26T18:00	18433	74	-55.7	-84.7	215	9
2023-08-26T18:00	18459	74	-55.6	-84.6	213	9
2023-08-26T18:00	18483	74	-55.3	-84.9	212	9
2023-08-26T18:00	18508	73	-55.3	-84.9	211	9
2023-08-26T18:00	18533	73	-55.2	-84.8	212	9
2023-08-26T18:00	18559	73	-55.2	-84.8	213	9
2023-08-26T18:00	18583	73	-55.3	-84.9	215	10
2023-08-26T18:00	18608	72	-55.3	-84.9	217	10
2023-08-26T18:00	18631	72	-55.3	-84.9	219	11
2023-08-26T18:00	18661	72	-55.3	-84.4	220	11
2023-08-26T18:00	18685	71	-55.4	-84.5	221	12
2023-08-26T18:00	18708	71	-55.5	-84.5	222	12
2023-08-26T18:00	18734	71	-55.5	-84.5	224	12
2023-08-26T18:00	18760	71	-55.6	-84.6	225	12
2023-08-26T18:00	18786	70	-55.3	-84.9	228	11
2023-08-26T18:00	18813	70	-55.1	-84.7	231	11
2023-08-26T18:00	18840	70	-55.2	-84.8	235	10
2023-08-26T18:00	18866	69	-55.3	-84.9	238	9
2023-08-26T18:00	18891	69	-55.5	-84.5	242	9
2023-08-26T18:00	18919	69	-55.6	-84.6	246	8
2023-08-26T18:00	18946	68	-55.8	-84.8	251	7
2023-08-26T18:00	18969	68	-55.9	-84.8	255	7
2023-08-26T18:00	18992	68	-56.0	-84.9	258	6
2023-08-26T18:00	19014	68	-56.0	-84.9	259	5
2023-08-26T18:00	19039	68	-56.0	-84.9	258	5
2023-08-26T18:00	19061	67	-55.7	-84.7	254	4
2023-08-26T18:00	19086	67	-55.6	-85.1	248	4
2023-08-26T18:00	19110	67	-55.5	-85.0	239	3
2023-08-26T18:00	19132	67	-55.4	-84.9	230	3
2023-08-26T18:00	19155	66	-55.5	-85.0	221	3
2023-08-26T18:00	19176	66	-55.6	-85.1	210	3
2023-08-26T18:00	19200	66	-55.4	-84.9	198	2
2023-08-26T18:00	19220	66	-55.4	-84.9	186	2
2023-08-26T18:00	19244	65	-55.4	-84.9	179	2
2023-08-26T18:00	19264	65	-55.5	-85.0	179	3
2023-08-26T18:00	19285	65	-55.5	-85.0	185	3
2023-08-26T18:00	19307	65	-55.2	-84.8	193	4
2023-08-26T18:00	19330	64	-54.7	-84.9	200	5
2023-08-26T18:00	19354	64	-54.6	-84.8	207	6
2023-08-26T18:00	19374	64	-54.6	-84.8	213	6
2023-08-26T18:00	19398	64	-54.4	-84.7	218	7
2023-08-26T18:00	19418	64	-54.0	-84.4	224	7
2023-08-26T18:00	19440	63	-53.7	-84.2	229	7
2023-08-26T18:00	19460	63	-53.6	-84.1	234	6
2023-08-26T18:00	19488	63	-53.5	-84.0	239	6
2023-08-26T18:00	19508	63	-53.5	-84.0	244	5
2023-08-26T18:00	19532	62	-53.5	-84.0	249	4
2023-08-26T18:00	19558	62	-53.2	-83.8	254	4
2023-08-26T18:00	19578	62	-53.3	-83.9	260	3
2023-08-26T18:00	19604	62	-53.3	-83.9	266	3
2023-08-26T18:00	19625	62	-53.2	-83.8	274	2
2023-08-26T18:00	19648	61	-53.1	-83.7	286	2
2023-08-26T18:00	19675	61	-52.9	-83.6	302	2
2023-08-26T18:00	19698	61	-53.0	-83.6	321	2
2023-08-26T18:00	19726	61	-52.9	-83.6	338	3
2023-08-26T18:00	19750	60	-52.7	-83.4	353	3
2023-08-26T18:00	19775	60	-52.7	-83.4	6	3
2023-08-26T18:00	19794	60	-52.8	-83.5	16	4
2023-08-26T18:00	19822	60	-52.9	-83.6	24	4
2023-08-26T18:00	19850	59	-53.1	-83.7	31	4
2023-08-26T18:00	19873	59	-53.2	-83.8	37	4
2023-08-26T18:00	19899	59	-53.4	-83.9	44	5
2023-08-26T18:00	19922	59	-53.5	-83.5	50	5
2023-08-26T18:00	19948	59	-53.6	-83.6	57	5
2023-08-26T18:00	19969	58	-53.7	-83.7	63	6
2023-08-26T18:00	19997	58	-53.8	-83.7	69	6
2023-08-26T18:00	20022	58	-54.0	-83.9	75	6
2023-08-26T18:00	20047	58	-54.1	-84.0	81	7
2023-08-26T18:00	20074	57	-54.0	-83.9	87	7
2023-08-26T18:00	20097	57	-54.2	-84.0	93	7
2023-08-26T18:00	20127	57	-54.2	-84.0	99	6
2023-08-26T18:00	20154	57	-54.3	-84.1	105	6
2023-08-26T18:00	20177	57	-54.5	-84.3	112	6
2023-08-26T18:00	20201	56	-54.4	-84.2	120	5
2023-08-26T18:00	20227	56	-54.4	-84.2	127	5
2023-08-26T18:00	20251	56	-54.5	-84.3	134	4
2023-08-26T18:00	20275	56	-54.5	-84.3	139	4
2023-08-26T18:00	20300	55	-54.4	-84.7	142	4
2023-08-26T18:00	20325	55	-54.2	-84.5	143	4
2023-08-26T18:00	20346	55	-54.2	-84.5	144	3
2023-08-26T18:00	20371	55	-54.3	-84.1	145	3
2023-08-26T18:00	20393	55	-54.5	-84.3	146	4
2023-08-26T18:00	20418	54	-54.6	-84.3	149	4
2023-08-26T18:00	20444	54	-54.7	-84.4	151	4
2023-08-26T18:00	20467	54	-54.8	-84.5	154	5
2023-08-26T18:00	20491	54	-54.9	-84.6	158	5
2023-08-26T18:00	20517	54	-55.1	-84.2	161	6
2023-08-26T18:00	20540	53	-55.3	-84.4	164	6
2023-08-26T18:00	20565	53	-55.4	-84.5	167	6
2023-08-26T18:00	20589	53	-55.4	-84.9	170	6
2023-08-26T18:00	20613	53	-55.4	-84.9	173	6
2023-08-26T18:00	20634	53	-55.3	-84.9	175	6
2023-08-26T18:00	20664	52	-55.4	-84.9	178	6
2023-08-26T18:00	20687	52	-55.3	-84.9	180	5
2023-08-26T18:00	20711	52	-55.2	-84.8	183	5
2023-08-26T18:00	20735	52	-55.0	-85.1	185	4
2023-08-26T18:00	20761	52	-54.8	-85.0	188	4
2023-08-26T18:00	20784	51	-54.6	-84.8	190	4
2023-08-26T18:00	20808	51	-54.6	-84.8	191	4
2023-08-26T18:00	20830	51	-54.4	-84.7	189	4
2023-08-26T18:00	20853	51	-54.4	-84.7	186	4
2023-08-26T18:00	20878	51	-54.3	-84.6	183	4
2023-08-26T18:00	20902	50	-54.3	-84.6	181	4
2023-08-26T18:00	20925	50	-54.4	-84.7	182	4
2023-08-26T18:00	20948	50	-54.4	-84.7	186	4
2023-08-26T18:00	20973	50	-54.5	-84.3	191	5
2023-08-26T18:00	20996	50	-54.5	-84.3	196	5
2023-08-26T18:00	21021	50	-54.6	-84.3	201	5
2023-08-26T18:00	21043	49	-54.7	-84.4	205	5
2023-08-26T18:00	21066	49	-54.5	-84.3	207	4
2023-08-26T18:00	21087	49	-54.3	-84.6	207	4
2023-08-26T18:00	21114	49	-54.4	-84.7	204	4
2023-08-26T18:00	21138	49	-54.6	-84.3	199	3
2023-08-26T18:00	21163	48	-54.7	-84.4	192	3
2023-08-26T18:00	21190	48	-54.8	-84.5	183	3
2023-08-26T18:00	21213	48	-54.9	-84.6	175	3
2023-08-26T18:00	21238	48	-54.9	-84.6	170	3
2023-08-26T18:00	21261	48	-55.0	-84.6	168	4
2023-08-26T18:00	21291	48	-55.0	-84.6	170	4
2023-08-26T18:00	21313	47	-55.0	-84.6	173	5
2023-08-26T18:00	21338	47	-54.9	-84.6	177	5
2023-08-26T18:00	21365	47	-54.9	-84.6	182	6
2023-08-26T18:00	21388	47	-54.9	-84.6	186	6
2023-08-26T18:00	21414	47	-55.0	-84.6	189	6
2023-08-26T18:00	21443	46	-55.0	-84.6	191	6
2023-08-26T18:00	21469	46	-55.2	-84.8	193	7
2023-08-26T18:00	21494	46	-55.4	-84.9	194	7
2023-08-26T18:00	21521	46	-55.4	-84.9	194	6
2023-08-26T18:00	21549	46	-55.4	-84.9	194	6
2023-08-26T18:00	21570	45	-55.2	-84.8	193	6
2023-08-26T18:00	21598	45	-55.2	-84.8	192	6
2023-08-26T18:00	21623	45	-55.2	-84.8	193	6
2023-08-26T18:00	21652	45	-55.2	-84.8	194	6
2023-08-26T18:00	21676	45	-55.1	-84.7	197	6
2023-08-26T18:00	21701	45	-55.2	-84.8	201	6
2023-08-26T18:00	21729	44	-55.1	-84.7	205	6
2023-08-26T18:00	21755	44	-55.2	-84.8	209	6
2023-08-26T18:00	21781	44	-55.2	-84.8	213	6
2023-08-26T18:00	21807	44	-55.3	-84.9	218	5
2023-08-26T18:00	21832	44	-55.3	-84.9	225	5
2023-08-26T18:00	21862	43	-55.3	-84.9	232	5
2023-08-26T18:00	21887	43	-55.2	-85.3	239	5
2023-08-26T18:00	21909	43	-55.1	-85.2	245	5
2023-08-26T18:00	21936	43	-55.2	-84.8	249	5
2023-08-26T18:00	21962	43	-55.3	-84.9	251	4
2023-08-26T18:00	21987	43	-55.2	-84.8	251	4
2023-08-26T18:00	22014	42	-55.2	-84.8	249	3
2023-08-26T18:00	22039	42	-55.2	-85.3	245	3
2023-08-26T18:00	22066	42	-55.0	-85.1	235	2
2023-08-26T18:00	22096	42	-55.1	-85.2	219	2
2023-08-26T18:00	22117	42	-55.0	-85.1	197	1
2023-08-26T18:00	22143	42	-54.9	-85.1	177	1
2023-08-26T18:00	22171	41	-54.9	-85.1	169	2
2023-08-26T18:00	22197	41	-55.0	-84.6	173	2
2023-08-26T18:00	22222	41	-55.0	-84.6	183	2
2023-08-26T18:00	22251	41	-55.1	-84.7	195	3
2023-08-26T18:00	22274	41	-55.1	-85.2	205	3
2023-08-26T18:00	22296	41	-55.2	-85.3	213	4
2023-08-26T18:00	22327	40	-55.1	-85.2	218	4
2023-08-26T18:00	22352	40	-55.0	-85.1	222	5
2023-08-26T18:00	22374	40	-54.9	-85.1	225	5
2023-08-26T18:00	22400	40	-54.7	-84.9	227	5
2023-08-26T18:00	22425	40	-54.8	-85.0	229	5
2023-08-26T18:00	22452	40	-54.7	-84.9	231	5
2023-08-26T18:00	22478	39	-54.6	-84.8	232	4
2023-08-26T18:00	22499	39	-54.5	-84.8	232	4
2023-08-26T18:00	22527	39	-54.4	-84.7	230	3
2023-08-26T18:00	22551	39	-54.3	-84.6	226	3
2023-08-26T18:00	22578	39	-54.3	-84.6	222	3
2023-08-26T18:00	22600	39	-54.4	-84.7	218	3
2023-08-26T18:00	22629	39	-54.4	-84.7	215	3
2023-08-26T18:00	22653	38	-54.3	-84.6	213	3
2023-08-26T18:00	22677	38	-54.2	-84.5	212	3
2023-08-26T18:00	22704	38	-54.2	-84.5	211	3
2023-08-26T18:00	22729	38	-54.2	-84.5	211	3
2023-08-26T18:00	22753	38	-54.2	-84.5	211	2
2023-08-26T18:00	22778	38	-54.3	-84.6	213	1
2023-08-26T18:00	22809	37	-54.3	-84.6	216	1
2023-08-26T18:00	22832	37	-53.9	-84.9	209	0
2023-08-26T18:00	22856	37	-53.8	-84.8	155	0
2023-08-26T18:00	22880	37	-53.9	-84.9	137	1
2023-08-26T18:00	22906	37	-53.9	-84.9	140	1
2023-08-26T18:00	22935	37	-53.7	-84.7	146	2
2023-08-26T18:00	22959	37	-53.5	-84.6	151	2
2023-08-26T18:00	22985	36	-53.5	-84.6	156	3
2023-08-26T18:00	23012	36	-53.3	-84.4	161	4
2023-08-26T18:00	23038	36	-52.9	-84.1	166	4
2023-08-26T18:00	23065	36	-52.8	-84.1	171	4
2023-08-26T18:00	23088	36	-52.9	-84.1	177	5
2023-08-26T18:00	23114	36	-52.9	-84.1	183	5
2023-08-26T18:00	23146	36	-52.9	-84.1	189	5
2023-08-26T18:00	23169	35	-52.8	-84.1	196	4
2023-08-26T18:00	23194	35	-52.8	-84.1	203	4
2023-08-26T18:00	23219	35	-52.9	-84.1	210	4
2023-08-26T18:00	23246	35	-52.9	-84.1	217	3
2023-08-26T18:00	23274	35	-52.8	-84.1	222	3
2023-08-26T18:00	23303	35	-52.8	-84.1	226	2
2023-08-26T18:00	23333	35	-52.6	-83.9	226	1
2023-08-26T18:00	23355	34	-52.6	-83.9	207	1
2023-08-26T18:00	23385	34	-52.7	-84.0	133	0
2023-08-26T18:00	23410	34	-52.9	-84.1	114	1
2023-08-26T18:00	23437	34	-53.1	-84.3	120	1
2023-08-26T18:00	23463	34	-53.3	-84.4	133	1
2023-08-26T18:00	23488	34	-53.5	-84.0	150	2
2023-08-26T18:00	23513	34	-53.4	-83.9	168	2
2023-08-26T18:00	23536	33	-53.4	-83.9	185	3
2023-08-26T18:00	23568	33	-53.5	-84.0	199	3
2023-08-26T18:00	23594	33	-53.6	-84.1	209	4
2023-08-26T18:00	23619	33	-53.7	-84.7	218	4
2023-08-26T18:00	23648	33	-53.8	-84.8	227	4
2023-08-26T18:00	23674	33	-53.6	-84.6	237	4
2023-08-26T18:00	23698	33	-53.3	-84.4	247	4
2023-08-26T18:00	23722	33	-53.2	-84.4	256	4
2023-08-26T18:00	23746	32	-53.2	-84.4	263	4
2023-08-26T18:00	23773	32	-53.1	-84.3	266	4
2023-08-26T18:00	23802	32	-53.2	-84.4	265	3
2023-08-26T18:00	23826	32	-53.3	-84.4	260	3
2023-08-26T18:00	23853	32	-53.3	-84.4	253	3
2023-08-26T18:00	23876	32	-53.4	-84.5	245	3
2023-08-26T18:00	23899	32	-53.4	-84.5	241	3
2023-08-26T18:00	23926	31	-53.3	-84.4	242	3
2023-08-26T18:00	23956	31	-53.3	-84.4	245	4
2023-08-26T18:00	23973	31	-53.3	-84.4	249	4
2023-08-26T18:00	24002	31	-53.3	-84.4	254	4
2023-08-26T18:00	24029	31	-53.3	-84.4	257	5
2023-08-26T18:00	24057	31	-53.3	-84.4	260	6
2023-08-26T18:00	24084	31	-53.4	-84.5	263	6
2023-08-26T18:00	24107	31	-53.4	-84.5	267	7
2023-08-26T18:00	24132	30	-53.4	-84.5	272	7
2023-08-26T18:00	24161	30	-53.2	-84.4	278	7
2023-08-26T18:00	24190	30	-52.8	-84.7	284	7
2023-08-26T18:00	24215	30	-52.5	-84.4	288	7
2023-08-26T18:00	24240	30	-52.6	-84.5	291	7
2023-08-26T18:00	24268	30	-52.5	-84.4	293	7
2023-08-26T18:00	24295	30	-52.5	-84.4	296	7
2023-08-26T18:00	24320	30	-52.5	-84.4	298	7
2023-08-26T18:00	24343	30	-52.5	-84.4	302	6
2023-08-26T18:00	24378	29	-52.4	-84.4	307	6
2023-08-26T18:00	24401	29	-52.2	-84.2	312	5
2023-08-26T18:00	24428	29	-52.1	-84.2	317	5
2023-08-26T18:00	24459	29	-52.1	-84.2	320	5
2023-08-26T18:00	24485	29	-52.2	-84.2	323	5
2023-08-26T18:00	24512	29	-52.1	-84.2	325	5
2023-08-26T18:00	24539	29	-52.1	-84.2	327	5
2023-08-26T18:00	24564	29	-52.0	-84.1	329	6
2023-08-26T18:00	24592	28	-51.9	-84.0	331	6
2023-08-26T18:00	24622	28	-51.8	-83.9	334	6
2023-08-26T18:00	24652	28	-51.7	-83.9	336	7
2023-08-26T18:00	24678	28	-51.5	-83.7	336	7
2023-08-26T18:00	24703	28	-51.3	-83.6	336	7
2023-08-26T18:00	24731	28	-51.2	-83.5	335	7
2023-08-26T18:00	24755	28	-51.2	-83.5	333	7
2023-08-26T18:00	24780	28	-51.2	-83.5	330	6
2023-08-26T18:00	24803	27	-51.1	-83.4	329	6
2023-08-26T18:00	24836	27	-50.9	-83.3	329	6
2023-08-26T18:00	24860	27	-51.0	-83.3	330	5
2023-08-26T18:00	24889	27	-51.1	-83.4	333	5
2023-08-26T18:00	24918	27	-51.3	-83.6	335	5
2023-08-26T18:00	24947	27	-51.3	-83.6	337	5
2023-08-26T18:00	24966	27	-51.4	-83.6	336	4
2023-08-26T18:00	25000	27	-51.3	-83.6	334	4
2023-08-26T18:00	25022	27	-51.2	-83.5	330	4
2023-08-26T18:00	25047	26	-51.0	-83.3	325	3
2023-08-26T18:00	25075	26	-51.1	-83.4	322	3
2023-08-26T18:00	25099	26	-51.1	-83.4	322	4
2023-08-26T18:00	25123	26	-51.0	-84.0	326	4
2023-08-26T18:00	25152	26	-50.7	-83.8	330	4
2023-08-26T18:00	25176	26	-50.3	-83.5	336	5
2023-08-26T18:00	25205	26	-50.1	-83.4	340	5
2023-08-26T18:00	25226	26	-50.1	-83.4	344	6
2023-08-26T18:00	25251	26	-50.1	-83.4	347	6
2023-08-26T18:00	25276	26	-50.1	-83.4	348	7
2023-08-26T18:00	25302	25	-50.2	-83.5	350	7
2023-08-26T18:00	25322	25	-50.2	-83.5	353	7
2023-08-26T18:00	25357	25	-50.2	-83.5	357	7
2023-08-26T18:00	25379	25	-50.3	-83.5	2	6
2023-08-26T18:00	25404	25	-50.1	-83.4	10	6
2023-08-26T18:00	25435	25	-50.0	-83.3	17	5
2023-08-26T18:00	25461	25	-50.1	-83.4	25	5
2023-08-26T18:00	25489	25	-50.2	-83.5	30	6
2023-08-26T18:00	25514	25	-50.1	-83.4	34	6
2023-08-26T18:00	25541	25	-49.9	-83.2	37	6
2023-08-26T18:00	25563	24	-49.9	-83.2	39	5
2023-08-26T18:00	25596	24	-50.1	-83.4	42	5
2023-08-26T18:00	25622	24	-50.0	-83.3	46	4
2023-08-26T18:00	25652	24	-49.8	-83.2	54	3
2023-08-26T18:00	25674	24	-49.8	-83.2	63	3
2023-08-26T18:00	25708	24	-49.6	-83.0	71	3
2023-08-26T18:00	25736	24	-49.6	-83.0	75	3
2023-08-26T18:00	25763	24	-49.4	-82.9	73	3
2023-08-26T18:00	25788	24	-49.3	-82.8	70	4
2023-08-26T18:00	25814	24	-49.2	-82.7	67	4
2023-08-26T18:00	25847	23	-49.2	-82.7	66	5
2023-08-26T18:00	25883	23	-49.2	-82.7	66	5
2023-08-26T18:00	25914	23	-49.2	-82.7	67	5
2023-08-26T18:00	25941	23	-49.4	-82.9	68	5
2023-08-26T18:00	25967	23	-49.4	-82.9	70	5
2023-08-26T18:00	26002	23	-49.5	-82.9	71	6
2023-08-26T18:00	26030	23	-49.6	-83.0	73	6
2023-08-26T18:00	26065	23	-49.6	-83.0	77	6
2023-08-26T18:00	26091	23	-49.8	-83.2	80	5
2023-08-26T18:00	26121	22	-49.9	-83.2	84	5
2023-08-26T18:00	26153	22	-50.1	-83.4	87	5
2023-08-26T18:00	26182	22	-50.1	-83.4	89	5
2023-08-26T18:00	26212	22	-50.1	-83.4	90	5
2023-08-26T18:00	26242	22	-50.0	-83.3	90	5
2023-08-26T18:00	26273	22	-49.8	-83.2	91	5
2023-08-26T18:00	26307	22	-49.8	-83.2	92	4
2023-08-26T18:00	26334	22	-49.8	-83.2	94	4
2023-08-26T18:00	26367	22	-49.8	-83.2	96	3
2023-08-26T18:00	26391	22	-49.9	-83.2	98	3
2023-08-26T18:00	26420	21	-50.0	-83.3	97	2
2023-08-26T18:00	26443	21	-50.0	-83.3	93	2
2023-08-26T18:00	26476	21	-50.1	-83.4	85	2
2023-08-26T18:00	26509	21	-50.3	-83.5	77	2
2023-08-26T18:00	26534	21	-50.3	-83.5	72	2
2023-08-26T18:00	26568	21	-50.3	-83.5	73	2
2023-08-26T18:00	26593	21	-50.4	-83.6	80	3
2023-08-26T18:00	26617	21	-50.4	-83.6	89	3
2023-08-26T18:00	26647	21	-50.4	-83.6	97	4
2023-08-26T18:00	26672	21	-50.3	-83.5	102	4
2023-08-26T18:00	26697	21	-50.2	-83.5	106	5
2023-08-26T18:00	26727	21	-50.0	-83.3	108	5
2023-08-26T18:00	26752	20	-49.9	-83.2	110	5
2023-08-26T18:00	26776	20	-49.6	-83.8	113	4
2023-08-26T18:00	26808	20	-49.3	-83.6	116	4
2023-08-26T18:00	26830	20	-49.0	-83.4	120	3
2023-08-26T18:00	26852	20	-48.6	-83.1	122	2
2023-08-26T18:00	26875	20	-48.5	-83.0	119	1
2023-08-26T18:00	26910	20	-48.4	-82.9	107	1
2023-08-26T18:00	26933	20	-48.1	-82.7	78	1
2023-08-26T18:00	26947	20	-47.9	-82.6	66	1
2023-08-26T18:00	26978	20	-47.7	-82.4	78	1
2023-08-26T18:00	27002	20	-47.6	-83.3	98	1
2023-08-26T18:00	27032	20	-47.2	-83.0	116	1
2023-08-26T18:00	27060	19	-46.7	-81.7	136	1
2023-08-26T18:00	27080	19	-46.8	-81.8	162	1
2023-08-26T18:00	27107	19	-47.1	-82.0	190	1
2023-08-26T18:00	27138	19	-47.3	-82.2	209	1
2023-08-26T18:00	27162	19	-47.5	-82.3	218	2
2023-08-26T18:00	27195	19	-47.7	-82.4	223	2
2023-08-26T18:00	27216	19	-47.8	-82.5	226	3
2023-08-26T18:00	27242	19	-47.7	-82.4	228	3
2023-08-26T18:00	27269	19	-47.8	-82.5	229	3
2023-08-26T18:00	27300	19	-47.8	-82.5	231	3
2023-08-26T18:00	27329	19	-47.7	-82.4	233	3
2023-08-26T18:00	27359	19	-47.7	-82.4	237	2
2023-08-26T18:00	27386	19	-47.7	-82.4	246	2
2023-08-26T18:00	27414	18	-47.6	-82.4	261	1
2023-08-26T18:00	27444	18	-47.5	-82.3	279	1
2023-08-26T18:00	27478	18	-47.5	-82.3	290	2
2023-08-26T18:00	27503	18	-47.5	-82.3	292	2
2023-08-26T18:00	27536	18	-47.2	-82.1	292	2
2023-08-26T18:00	27565	18	-47.0	-81.9	292	2
2023-08-26T18:00	27599	18	-47.1	-82.0	293	2
2023-08-26T18:00	27625	18	-47.2	-82.1	297	1
2023-08-26T18:00	27667	18	-46.9	-81.9	307	1
2023-08-26T18:00	27691	18	-46.6	-81.7	6	0
2023-08-26T18:00	27719	18	-46.7	-81.7	88	1
2023-08-26T18:00	27754	18	-46.8	-81.8	99	1
2023-08-26T18:00	27783	17	-46.9	-81.9	104	2
2023-08-26T18:00	27802	17	-46.8	-81.8	108	2
2023-08-26T18:00	27843	17	-46.9	-81.9	113	3
2023-08-26T18:00	27868	17	-46.8	-81.8	120	3
2023-08-26T18:00	27908	17	-46.7	-81.7	126	4
2023-08-26T18:00	27935	17	-46.5	-82.5	131	4
2023-08-26T18:00	27958	17	-46.3	-82.4	134	4
2023-08-26T18:00	28000	17	-46.1	-82.2	137	4
2023-08-26T18:00	28015	17	-46.1	-82.2	141	3
2023-08-26T18:00	28046	17	-45.9	-82.1	148	3
2023-08-26T18:00	28084	17	-45.8	-82.0	157	2
2023-08-26T18:00	28102	17	-45.7	-81.9	163	2
2023-08-26T18:00	28144	17	-45.7	-81.9	160	2
2023-08-26T18:00	28176	16	-45.8	-82.0	144	2
2023-08-26T18:00	28201	16	-45.6	-81.9	126	2
2023-08-26T18:00	28231	16	-45.5	-81.8	114	3
2023-08-26T18:00	28252	16	-45.5	-81.8	108	3
2023-08-26T18:00	28284	16	-45.5	-81.8	104	3
2023-08-26T18:00	28302	16	-45.3	-81.6	103	3
2023-08-26T18:00	28333	16	-45.3	-81.6	104	2
2023-08-26T18:00	28358	16	-45.4	-81.7	108	1
2023-08-26T18:00	28383	16	-45.4	-81.7	122	1
2023-08-26T18:00	28410	16	-45.5	-81.8	226	0
2023-08-26T18:00	28437	16	-45.4	-81.7	263	1
2023-08-26T18:00	28459	16	-45.3	-81.6	271	1
2023-08-26T18:00	28490	16	-45.1	-81.5	279	1
2023-08-26T18:00	28520	16	-44.9	-81.4	303	0
2023-08-26T18:00	28540	16	-44.7	-81.2	21	0
2023-08-26T18:00	28566	16	-44.3	-80.9	52	1
2023-08-26T18:00	28595	15	-44.2	-82.0	65	1
2023-08-26T18:00	28622	15	-44.2	-82.0	74	2
2023-08-26T18:00	28638	15	-44.0	-81.8	85	3
2023-08-26T18:00	28667	15	-43.8	-81.7	95	3
2023-08-26T18:00	28703	15	-43.7	-81.6	103	4
2023-08-26T18:00	28719	15	-43.6	-81.5	111	5
2023-08-26T18:00	28744	15	-43.5	-80.4	117	6
2023-08-26T18:00	28775	15	-43.5	-80.4	122	7
2023-08-26T18:00	28799	15	-43.6	-80.4	127	7
2023-08-26T18:00	28830	15	-43.7	-80.5	131	8
2023-08-26T18:00	28845	15	-43.8	-80.6	135	9
2023-08-26T18:00	28880	15	-43.9	-80.7	138	10
2023-08-26T18:00	28906	15	-43.8	-80.6	141	10
2023-08-26T18:00	28945	15	-43.8	-80.6	144	10
2023-08-26T18:00	28970	15	-43.8	-80.6	146	10
2023-08-26T18:00	28992	15	-43.8	-80.6	149	9
2023-08-26T18:00	29018	15	-43.5	-81.5	152	8
2023-08-26T18:00	29056	14	-43.3	-81.3	154	8
2023-08-26T18:00	29086	14	-43.1	-81.2	157	7
2023-08-26T18:00	29115	14	-43.0	-81.1	160	7
2023-08-26T18:00	29143	14	-43.0	-81.1	163	7
2023-08-26T18:00	29169	14	-42.9	-81.1	166	6
2023-08-26T18:00	29211	14	-42.9	-81.1	168	6
2023-08-26T18:00	29237	14	-43.0	-81.1	170	6
2023-08-26T18:00	29273	14	-42.9	-81.1	171	5
2023-08-26T18:00	29302	14	-42.9	-81.1	172	4
2023-08-26T18:00	29320	14	-42.9	-81.1	173	4
2023-08-26T18:00	29367	14	-42.8	-81.0	173	3
2023-08-26T18:00	29399	14	-42.7	-80.9	172	2
2023-08-26T18:00	29428	14	-42.6	-80.8	165	1
2023-08-26T18:00	29455	14	-42.5	-80.8	139	1
2023-08-26T18:00	29484	14	-42.4	-80.7	104	1
2023-08-26T18:00	29518	14	-42.4	-80.7	97	1
2023-08-26T18:00	29532	13	-42.4	-80.7	104	1
2023-08-26T18:00	29592	13	-42.4	-80.7	111	1
2023-08-26T18:00	29609	13	-42.3	-80.6	114	2
2023-08-26T18:00	29637	13	-42.4	-80.7	116	2
2023-08-26T18:00	29660	13	-42.2	-80.6	118	2
2023-08-26T18:00	29693	13	-41.9	-80.4	121	2
2023-08-26T18:00	29734	13	-41.5	-80.1	127	3
2023-08-26T18:00	29763	13	-41.3	-79.9	133	3
2023-08-26T18:00	29783	13	-41.1	-79.8	141	3
2023-08-26T18:00	29798	13	-40.9	-79.7	149	3
2023-08-26T18:00	29839	13	-40.8	-79.6	157	3
2023-08-26T18:00	29857	13	-40.6	-79.5	166	4
2023-08-26T18:00	29888	13	-40.5	-79.4	175	4
2023-08-26T18:00	29918	13	-40.5	-79.4	183	5
2023-08-26T18:00	29931	13	-40.4	-79.3	190	5
2023-08-26T18:00	29960	13	-40.3	-79.2	197	5
2023-08-26T18:00	30002	13	-40.3	-79.2	202	6
2023-08-26T18:00	30028	13	-39.8	-78.9	207	6
2023-08-26T18:00	30047	12	-39.3	-78.5	210	6
2023-08-26T18:00	30086	12	-39.1	-78.4	213	6
2023-08-26T18:00	30099	12	-39.2	-78.5	215	6
2023-08-26T18:00	30143	12	-39.3	-78.5	216	5
2023-08-26T18:00	30165	12	-39.2	-78.5	219	4
2023-08-26T18:00	30185	12	-39.3	-78.5	224	4
2023-08-26T18:00	30217	12	-39.3	-78.5	233	3
2023-08-26T18:00	30243	12	-39.3	-78.5	247	2
2023-08-26T18:00	30263	12	-39.2	-78.5	264	2
2023-08-26T18:00	30283	12	-39.4	-78.6	286	2
2023-08-26T18:00	30320	12	-39.4	-78.6	310	2
2023-08-26T18:00	30338	12	-39.5	-78.7	330	2
2023-08-26T18:00	30358	12	-39.6	-78.8	345	3
2023-08-26T18:00	30395	12	-39.5	-78.7	354	3
2023-08-26T18:00	30415	12	-39.6	-78.8	1	4
2023-08-26T18:00	30438	12	-39.7	-78.8	7	4
2023-08-26T18:00	30479	12	-39.7	-78.8	12	4
2023-08-26T18:00	30503	12	-39.8	-78.9	16	4
2023-08-26T18:00	30530	12	-39.9	-79.0	19	4
2023-08-26T18:00	30552	12	-39.9	-79.0	21	4
2023-08-26T18:00	30584	12	-39.9	-79.0	20	3
2023-08-26T18:00	30616	12	-39.6	-78.8	15	2
2023-08-26T18:00	30632	11	-39.7	-78.8	356	2
2023-08-26T18:00	30666	11	-39.8	-78.9	312	1
2023-08-26T18:00	30701	11	-39.8	-78.9	279	2
2023-08-26T18:00	30732	11	-39.8	-78.9	269	3
2023-08-26T18:00	30762	11	-39.6	-78.8	268	4
2023-08-26T18:00	30786	11	-39.5	-78.7	271	5
2023-08-26T18:00	30814	11	-39.4	-78.6	276	5
2023-08-26T18:00	30855	11	-38.8	-78.2	284	5
2023-08-26T18:00	30883	11	-38.6	-78.1	293	5
2023-08-26T18:00	30903	11	-38.0	-77.6	303	5
2023-08-26T18:00	30938	11	-37.6	-77.4	313	5
2023-08-26T18:00	30974	11	-37.0	-77.0	321	5
2023-08-26T18:00	30998	11	-36.9	-76.9	327	4
2023-08-26T18:00	31027	11	-36.8	-76.8	331	4
2023-08-26T18:00	31072	11	-36.7	-76.7	332	4
2023-08-26T18:00	31108	11	-36.8	-76.8	331	4
2023-08-26T18:00	31120	11	-36.8	-76.8	329	4
2023-08-26T18:00	31162	11	-36.8	-76.8	327	4
2023-08-26T18:00	31192	11	-36.7	-76.7	326	4
2023-08-26T18:00	31221	11	-36.6	-76.7	327	3
2023-08-26T18:00	31258	10	-36.4	-76.5	331	3
2023-08-26T18:00	31292	10	-36.4	-76.5	339	2
2023-08-26T18:00	31312	10	-36.2	-76.4	355	2
2023-08-26T18:00	31350	10	-36.1	-76.3	19	2
2023-08-26T18:00	31393	10	-36.1	-76.3	39	2
2023-08-26T18:00	31407	10	-36.1	-76.3	49	2
2023-08-26T18:00	31435	10	-36.2	-76.4	51	2
2023-08-26T18:00	31476	10	-36.4	-76.5	48	2
2023-08-26T18:00	31496	10	-36.4	-76.5	44	2
2023-08-26T18:00	31549	10	-36.4	-76.5	43	2
2023-08-26T18:00	31574	10	-36.5	-76.6	47	2
2023-08-26T18:00	31599	10	-36.6	-76.7	56	3
2023-08-26T18:00	31626	10	-36.5	-76.6	67	3
2023-08-26T18:00	31665	10	-36.5	-76.6	78	4
2023-08-26T18:00	31685	10	-36.5	-76.6	88	4
2023-08-26T18:00	31720	10	-36.4	-76.5	96	5
2023-08-26T18:00	31751	10	-36.4	-76.5	104	6
2023-08-26T18:00	31782	10	-36.3	-76.5	110	7
2023-08-26T18:00	31804	10	-36.2	-76.4	116	7
2023-08-26T18:00	31830	10	-36.1	-76.3	121	7
2023-08-26T18:00	31865	10	-36.2	-76.4	124	7
2023-08-26T18:00	31899	10	-36.4	-76.5	126	7
2023-08-26T18:00	31932	10	-36.5	-76.6	126	6
2023-08-26T18:00	31967	9	-36.4	-76.5	126	6
2023-08-26T18:00	31975	9	-36.2	-76.4	125	5
2023-08-26T18:00	32005	9	-36.2	-76.4	123	4
2023-08-26T18:00	32040	9	-36.2	-76.4	122	4
2023-08-26T18:00	32061	9	-36.3	-76.5	122	3
2023-08-26T18:00	32085	9	-36.4	-76.5	123	3
2023-08-26T18:00	32115	9	-36.4	-76.5	122	3
2023-08-26T18:00	32147	9	-36.5	-76.6	120	3
2023-08-26T18:00	32160	9	-36.4	-76.5	116	3
2023-08-26T18:00	32199	9	-36.5	-76.6	110	3
2023-08-26T18:00	32223	9	-36.5	-76.6	103	3
2023-08-26T18:00	32258	9	-36.5	-76.6	93	2
2023-08-26T18:00	32287	9	-36.4	-76.5	76	2
2023-08-26T18:00	32311	9	-36.4	-76.5	50	1
2023-08-26T18:00	32346	9	-36.5	-76.6	25	1
2023-08-26T18:00	32368	9	-36.6	-76.7	10	2
2023-08-26T18:00	32390	9	-36.7	-76.7	6	2
2023-08-26T18:00	32429	9	-36.8	-76.8	7	2
2023-08-26T18:00	32461	9	-37.0	-77.0	12	3
2023-08-26T18:00	32493	9	-37.0	-77.0	21	3
2023-08-26T18:00	32521	9	-37.1	-77.0	31	3
2023-08-26T18:00	32560	9	-37.1	-77.0	43	3
2023-08-26T18:00	32566	9	-37.0	-77.0	53	4
2023-08-26T18:00	32593	9	-37.0	-77.0	63	4
2023-08-26T18:00	32626	9	-37.0	-77.0	71	4
2023-08-26T18:00	32645	9	-36.9	-76.9	79	5
2023-08-26T18:00	32684	9	-36.9	-76.9	85	5
2023-08-26T18:00	32711	9	-36.9	-76.9	90	5
2023-08-26T18:00	32727	8	-37.0	-77.0	94	5
2023-08-26T18:00	32778	8	-37.0	-77.0	96	5
2023-08-26T18:00	32789	8	-37.1	-77.0	94	4
2023-08-26T18:00	32837	8	-36.8	-76.8	89	3
2023-08-26T18:00	32859	8	-36.5	-76.6	78	3
2023-08-26T18:00	32888	8	-36.2	-76.4	62	3
2023-08-26T18:00	32924	8	-36.0	-76.3	48	3
2023-08-26T18:00	32950	8	-36.0	-76.3	38	4
2023-08-26T18:00	32982	8	-36.0	-76.3	32	5
2023-08-26T18:00	33022	8	-36.0	-76.3	30	5
2023-08-26T18:00	33045	8	-35.9	-76.2	30	6
2023-08-26T18:00	33075	8	-35.5	-75.9	33	6
2023-08-26T18:00	33119	8	-35.2	-75.7	38	6
2023-08-26T18:00	33142	8	-35.3	-75.8	46	5
2023-08-26T18:00	33182	8	-35.3	-75.8	56	5
2023-08-26T18:00	33192	8	-35.3	-75.8	68	5
2023-08-26T18:00	33237	8	-35.3	-75.8	81	5
2023-08-26T18:00	33294	8	-35.5	-75.9	95	5
2023-08-26T18:00	33313	8	-35.7	-76.1	119	5
2023-08-26T18:00	33357	8	-35.8	-76.1	130	4
2023-08-26T18:00	33371	8	-35.8	-76.1	140	4
2023-08-26T18:00	33410	8	-35.6	-76.0	152	4
2023-08-26T18:00	33449	8	-35.6	-76.0	165	3
2023-08-26T18:00	33481	8	-35.6	-76.0	181	3
2023-08-26T18:00	33514	8	-35.5	-75.9	198	2
2023-08-26T18:00	33533	8	-35.5	-75.9	217	2
2023-08-26T18:00	33563	8	-35.4	-75.8	241	2
2023-08-26T18:00	33608	7	-35.3	-75.8	270	2
2023-08-26T18:00	33640	7	-35.2	-75.7	303	2
2023-08-26T18:00	33682	7	-35.2	-75.7	330	2
2023-08-26T18:00	33703	7	-35.0	-75.6	349	2
2023-08-26T18:00	33741	7	-34.7	-75.4	2	3
2023-08-26T18:00	33749	7	-34.5	-75.2	12	3
2023-08-26T18:00	33800	7	-34.3	-75.1	21	4
2023-08-26T18:00	33808	7	-34.2	-75.0	30	3
2023-08-26T18:00	33847	7	-34.3	-75.1	43	3
2023-08-26T18:00	33882	7	-34.1	-75.0	61	3
2023-08-26T18:00	33908	7	-34.0	-74.9	85	2
2023-08-26T18:00	33925	7	-33.9	-74.8	109	3
2023-08-26T18:00	33974	7	-33.9	-74.8	126	3
2023-08-26T18:00	33992	7	-33.8	-74.7	138	3
2023-08-26T18:00	34027	7	-33.8	-74.7	149	3
2023-08-26T18:00	34080	7	-33.7	-74.7	159	3
2023-08-26T18:00	34083	7	-33.7	-74.7	171	3
2023-08-26T18:00	34131	7	-33.6	-74.6	183	3
2023-08-26T18:00	34153	7	-33.6	-74.6	192	2
2023-08-26T18:00	34200	7	-33.5	-74.5	193	2
2023-08-26T18:00	34222	7	-33.4	-74.5	184	2
2023-08-26T18:00	34236	7	-32.9	-74.1	166	2
2023-08-26T18:00	34299	7	-32.7	-74.0	148	2
2023-08-26T18:00	34309	7	-32.7	-74.0	134	2
2023-08-26T18:00	34334	7	-32.7	-74.0	127	2
2023-08-26T18:00	34380	7	-32.6	-73.9	123	2
2023-08-26T18:00	34385	7	-32.7	-74.0	121	2
2023-08-26T18:00	34425	7	-32.8	-74.1	119	2
2023-08-26T18:00	34464	7	-32.9	-74.1	114	2
2023-08-26T18:00	34493	7	-32.9	-74.1	108	2
2023-08-26T18:00	34501	7	-32.9	-74.1	102	2
2023-08-26T18:00	34549	7	-33.0	-74.2	96	2
2023-08-26T18:00	34557	7	-33.1	-74.3	93	2
2023-08-26T18:00	34609	6	-33.2	-74.3	92	3
2023-08-26T18:00	34638	6	-33.3	-74.4	91	3
2023-08-26T18:00	34659	6	-33.3	-74.4	92	4
2023-08-26T18:00	34683	6	-33.4	-74.5	93	4
2023-08-26T18:00	34711	6	-33.5	-74.5	94	5
2023-08-26T18:00	34739	6	-33.5	-74.5	96	6
2023-08-26T18:00	34763	6	-33.6	-74.6	98	7
2023-08-26T18:00	34801	6	-33.6	-74.6	100	8
2023-08-26T18:00	34828	6	-33.7	-74.7	102	9
2023-08-26T18:00	34873	6	-33.8	-74.7	104	10
2023-08-26T18:00	34908	6	-34.0	-74.9	108	10
2023-08-26T18:00	34946	6	-34.0	-74.9	111	11
2023-08-26T18:00	34956	6	-34.0	-74.9	113	11
2023-08-26T18:00	34982	6	-34.0	-74.9	115	10
2023-08-26T18:00	35026	6	-33.8	-74.7	118	10
2023-08-26T18:00	35047	6	-33.7	-74.7	120	9
2023-08-26T18:00	35075	6	-33.8	-74.7	123	9
2023-08-26T18:00	35091	6	-33.8	-74.7	124	8
2023-08-26T18:00	35111	6	-33.7	-74.7	124	7
2023-08-26T18:00	35168	6	-33.7	-74.7	125	6
2023-08-26T18:00	35177	6	-33.6	-74.6	125	6
2023-08-26T18:00	35186	6	-33.7	-74.7	127	5
2023-08-26T18:00	35219	6	-33.6	-74.6	131	6
2023-08-26T18:00	35258	6	-33.0	-74.2	135	7
2023-08-26T18:00	35286	6	-32.8	-74.1	138	8
2023-08-26T18:00	35302	6	-32.5	-73.8	140	9
2023-08-26T18:00	35327	6	-31.9	-73.4	143	10
2023-08-26T18:00	35351	6	-31.9	-73.4	145	11
2023-08-26T18:00	35372	6	-31.8	-73.4	148	12
2023-08-26T18:00	35379	6	-31.7	-73.3	151	13
2023-08-26T18:00	35404	6	-31.6	-73.2	154	13
2023-08-26T18:00	35451	6	-31.5	-73.2	156	13
2023-08-26T18:00	35483	6	-31.7	-73.3	158	13
2023-08-26T18:00	35536	6	-31.7	-73.3	158	13
2023-08-26T18:00	35541	6	-31.7	-73.3	159	12
2023-08-26T18:00	35566	6	-31.7	-73.3	158	11
2023-08-26T18:00	35585	6	-31.7	-73.3	157	11
2023-08-26T18:00	35609	6	-31.8	-73.4	156	10
2023-08-26T18:00	35645	6	-31.9	-73.4	154	9
2023-08-26T18:00	35666	6	-31.9	-73.4	151	8
2023-08-26T18:00	35705	6	-31.8	-73.4	147	6
2023-08-26T18:00	35721	6	-31.8	-73.4	144	5
2023-08-26T18:00	35757	6	-31.7	-73.3	140	4
2023-08-26T18:00	35799	5	-31.7	-73.3	136	4
2023-08-26T18:00	35826	5	-31.6	-73.2	132	3
2023-08-26T18:00	35828	5	-31.2	-73.0	125	3
2023-08-26T18:00	35869	5	-31.0	-72.8	117	2
2023-08-26T18:00	35900	5	-30.4	-72.4	105	2
2023-08-26T18:00	35945	5	-30.1	-72.2	108	2
2023-08-26T18:00	35947	5	-29.9	-72.1	115	2
2023-08-26T18:00	35974	5	-29.7	-71.9	127	3
2023-08-26T18:00	36006	5	-29.6	-71.9	141	3
2023-08-26T18:00	36010	5	-29.6	-71.9	152	3
2023-08-26T18:00	36038	5	-29.5	-71.8	162	4
2023-08-26T18:00	36100	5	-29.5	-71.8	169	4
2023-08-26T18:00	36109	5	-29.5	-71.8	175	4
2023-08-26T18:00	36145	5	-29.5	-71.8	180	4
2023-08-26T18:00	36186	5	-29.5	-71.8	184	4
2023-08-26T18:00	36202	5	-29.6	-71.9	192	3
2023-08-26T18:00	36244	5	-29.4	-71.7	196	3
2023-08-26T18:00	36262	5	-29.1	-71.5	201	2
2023-08-26T18:00	36279	5	-28.9	-71.4	205	2
2023-08-26T18:00	36294	5	-28.8	-71.3	208	1
2023-08-26T18:00	36319	5	-28.8	-71.3	198	1
2023-08-26T18:00	36337	5	-28.7	-71.2	177	1
2023-08-27T00:00	112	1000	17.8	11.8	140	2
2023-08-27T00:00	137	997	19.0	9.5	185	1
2023-08-27T00:00	161	994	19.0	8.9	190	1
2023-08-27T00:00	187	991	19.0	8.3	211	1
2023-08-27T00:00	216	988	18.9	8.4	249	1
2023-08-27T00:00	241	985	18.7	8.4	279	1
2023-08-27T00:00	269	982	18.4	8.3	296	1
2023-08-27T00:00	293	979	18.2	8.3	309	1
2023-08-27T00:00	317	976	18.0	8.3	321	1
2023-08-27T00:00	347	973	17.7	8.3	331	1
2023-08-27T00:00	369	970	17.5	8.2	336	1
2023-08-27T00:00	399	967	17.2	8.0	335	2
2023-08-27T00:00	423	964	17.0	7.8	327	2
2023-08-27T00:00	444	962	16.8	7.8	316	2
2023-08-27T00:00	468	959	16.6	7.8	307	2
2023-08-27T00:00	494	956	16.4	7.7	303	2
2023-08-27T00:00	516	953	16.2	7.7	305	2
2023-08-27T00:00	542	951	16.0	7.7	310	3
2023-08-27T00:00	566	948	15.8	7.7	317	3
2023-08-27T00:00	595	945	15.5	7.6	321	3
2023-08-27T00:00	618	942	15.3	7.4	321	3
2023-08-27T00:00	644	939	15.1	7.5	316	3
2023-08-27T00:00	669	937	14.9	7.4	308	3
2023-08-27T00:00	689	934	14.7	7.3	301	3
2023-08-27T00:00	716	931	14.5	7.2	296	4
2023-08-27T00:00	738	929	14.3	7.2	295	4
2023-08-27T00:00	766	926	14.2	7.1	295	4
2023-08-27T00:00	788	923	14.0	7.1	295	5
2023-08-27T00:00	818	920	13.8	7.0	296	5
2023-08-27T00:00	843	917	13.6	7.0	297	6
2023-08-27T00:00	871	914	13.4	6.9	297	6
2023-08-27T00:00	900	911	13.2	6.8	295	6
2023-08-27T00:00	926	908	13.0	6.6	293	7
2023-08-27T00:00	951	906	12.8	6.6	290	7
2023-08-27T00:00	971	903	12.7	6.4	287	7
2023-08-27T00:00	996	901	12.5	5.8	285	8
2023-08-27T00:00	1024	898	12.5	4.5	284	8
2023-08-27T00:00	1055	895	12.2	4.3	285	8
2023-08-27T00:00	1078	892	12.0	4.1	287	9
2023-08-27T00:00	1101	890	11.9	3.2	291	9
2023-08-27T00:00	1121	887	11.7	3.4	294	9
2023-08-27T00:00	1141	885	11.6	3.4	295	9
2023-08-27T00:00	1158	883	11.6	2.7	295	8
2023-08-27T00:00	1182	881	11.5	2.3	292	8
2023-08-27T00:00	1209	878	11.4	2.0	287	7
2023-08-27T00:00	1234	876	11.3	2.1	280	7
2023-08-27T00:00	1256	873	11.1	2.0	273	7
2023-08-27T00:00	1279	871	11.0	1.4	267	7
2023-08-27T00:00	1303	868	10.8	1.4	262	7
2023-08-27T00:00	1329	866	10.5	1.5	257	7
2023-08-27T00:00	1355	863	10.3	1.3	254	8
2023-08-27T00:00	1382	860	10.4	0.2	252	8
2023-08-27T00:00	1411	857	10.4	1.3	251	8
2023-08-27T00:00	1434	855	10.4	2.9	250	9
2023-08-27T00:00	1462	852	10.3	4.1	249	9
2023-08-27T00:00	1491	849	10.1	5.9	246	10
2023-08-27T00:00	1523	846	9.8	7.2	243	10
2023-08-27T00:00	1554	843	9.6	8.2	238	10
2023-08-27T00:00	1582	840	9.5	8.8	234	11
2023-08-27T00:00	1608	837	9.5	9.2	230	11
2023-08-27T00:00	1635	834	9.6	9.5	227	12
2023-08-27T00:00	1657	832	9.4	9.4	224	12
2023-08-27T00:00	1685	829	9.4	9.3	222	12
2023-08-27T00:00	1709	827	9.2	9.2	221	12
2023-08-27T00:00	1732	825	9.2	9.1	221	12
2023-08-27T00:00	1757	822	9.1	8.7	221	12
2023-08-27T00:00	1783	820	9.0	8.6	222	12
2023-08-27T00:00	1808	817	8.8	8.4	223	12
2023-08-27T00:00	1834	815	8.7	8.2	223	13
2023-08-27T00:00	1859	812	8.6	8.0	223	13
2023-08-27T00:00	1881	810	8.4	8.0	223	13
2023-08-27T00:00	1905	808	8.2	7.8	223	13
2023-08-27T00:00	1936	805	8.0	7.7	223	13
2023-08-27T00:00	1965	802	7.9	7.3	223	13
2023-08-27T00:00	1990	799	7.7	7.2	222	13
2023-08-27T00:00	2015	797	7.5	7.1	222	13
2023-08-27T00:00	2043	794	7.4	7.0	222	14
2023-08-27T00:00	2075	791	7.1	7.0	222	14
2023-08-27T00:00	2102	789	6.9	6.9	221	14
2023-08-27T00:00	2127	786	6.7	6.7	220	14
2023-08-27T00:00	2149	784	6.6	6.6	219	14
2023-08-27T00:00	2169	782	6.5	6.5	219	14
2023-08-27T00:00	2192	780	6.4	6.4	219	14
2023-08-27T00:00	2217	778	6.2	6.2	220	14
2023-08-27T00:00	2240	776	6.1	6.1	221	14
2023-08-27T00:00	2269	773	6.0	6.0	221	14
2023-08-27T00:00	2298	770	5.8	5.8	220	14
2023-08-27T00:00	2329	767	5.7	5.7	219	14
2023-08-27T00:00	2351	765	5.5	5.5	219	14
2023-08-27T00:00	2378	763	5.4	5.4	218	14
2023-08-27T00:00	2408	760	5.3	5.3	217	14
2023-08-27T00:00	2429	758	5.1	5.1	216	14
2023-08-27T00:00	2452	756	4.9	4.9	215	14
2023-08-27T00:00	2479	753	4.8	4.8	214	13
2023-08-27T00:00	2504	751	4.7	4.7	214	13
2023-08-27T00:00	2525	749	4.6	4.6	214	13
2023-08-27T00:00	2546	747	4.5	4.5	213	13
2023-08-27T00:00	2573	745	4.3	4.3	213	13
2023-08-27T00:00	2593	743	4.2	4.2	212	12
2023-08-27T00:00	2613	741	4.1	4.1	210	12
2023-08-27T00:00	2633	739	3.9	3.9	209	12
2023-08-27T00:00	2653	737	3.8	3.8	208	11
2023-08-27T00:00	2672	736	3.7	3.7	208	11
2023-08-27T00:00	2692	734	3.5	3.5	209	11
2023-08-27T00:00	2715	732	3.4	3.4	210	12
2023-08-27T00:00	2741	729	3.2	3.2	212	12
2023-08-27T00:00	2769	727	3.1	3.1	213	13
2023-08-27T00:00	2793	725	3.0	3.0	213	13
2023-08-27T00:00	2826	722	2.8	2.8	213	14
2023-08-27T00:00	2848	720	2.6	2.6	213	14
2023-08-27T00:00	2879	717	2.5	2.5	212	14
2023-08-27T00:00	2904	715	2.3	2.3	212	14
2023-08-27T00:00	2929	713	2.1	2.1	212	14
2023-08-27T00:00	2956	710	1.8	1.8	212	14
2023-08-27T00:00	2987	708	1.7	1.7	211	14
2023-08-27T00:00	3022	705	1.4	1.3	211	14
2023-08-27T00:00	3049	702	1.1	0.5	210	13
2023-08-27T00:00	3076	700	0.9	0.3	208	13
2023-08-27T00:00	3096	698	0.7	0.2	208	12
2023-08-27T00:00	3116	696	0.6	0.0	209	12
2023-08-27T00:00	3137	695	0.4		211	11
2023-08-27T00:00	3160	693	0.2	-0.2	213	12
2023-08-27T00:00	3185	690	0.1	-0.4	214	12
2023-08-27T00:00	3212	688	-0.2	-0.5	212	12
2023-08-27T00:00	3240	686	-0.4	-0.6	210	12
2023-08-27T00:00	3269	683	-0.6	-0.6	207	12
2023-08-27T00:00	3290	681	-0.8	-0.8	205	12
2023-08-27T00:00	3313	679	-0.9	-0.9	205	13
2023-08-27T00:00	3342	677	-1.2	-1.2	205	13
2023-08-27T00:00	3372	674	-1.4	-1.4	206	13
2023-08-27T00:00	3402	672	-1.6	-1.6	207	13
2023-08-27T00:00	3430	670	-1.7	-1.7	208	14
2023-08-27T00:00	3455	667	-1.8	-1.8	209	14
2023-08-27T00:00	3478	665	-2.0	-2.0	210	14
2023-08-27T00:00	3509	663	-2.2	-2.2	212	14
2023-08-27T00:00	3534	661	-2.7	-3.3	214	14
2023-08-27T00:00	3559	659	-2.9	-4.5	216	15
2023-08-27T00:00	3587	657	-3.1	-5.5	218	15
2023-08-27T00:00	3617	654	-2.9	-6.5	219	15
2023-08-27T00:00	3652	651	-2.8	-12.2	221	15
2023-08-27T00:00	3678	649	-2.6	-12.3	222	15
2023-08-27T00:00	3704	647	-2.5	-12.7	223	15
2023-08-27T00:00	3724	645	-2.6	-13.0	224	15
2023-08-27T00:00	3759	643	-2.7	-13.7	226	15
2023-08-27T00:00	3781	641	-2.4	-21.5	228	16
2023-08-27T00:00	3806	639	-1.9	-26.7	229	16
2023-08-27T00:00	3831	636	-1.8	-27.2	229	16
2023-08-27T00:00	3859	634	-1.9	-26.9	229	16
2023-08-27T00:00	3883	632	-1.9	-27.5	228	16
2023-08-27T00:00	3908	631	-1.9	-27.3	227	16
2023-08-27T00:00	3929	629	-2.0	-27.5	227	16
2023-08-27T00:00	3951	627	-2.1	-27.7	228	15
2023-08-27T00:00	3974	625	-2.2	-28.3	230	15
2023-08-27T00:00	3999	623	-2.4	-29.4	233	15
2023-08-27T00:00	4024	621	-2.6	-29.5	235	15
2023-08-27T00:00	4050	619	-2.8	-28.7	237	15
2023-08-27T00:00	4077	617	-3.0	-28.8	237	15
2023-08-27T00:00	4094	616	-3.1	-28.6	237	15
2023-08-27T00:00	4123	614	-3.3	-28.6	238	14
2023-08-27T00:00	4144	612	-3.5	-29.6	239	14
2023-08-27T00:00	4170	610	-3.6	-30.0	241	14
2023-08-27T00:00	4192	608	-3.7	-30.0	243	15
2023-08-27T00:00	4219	606	-3.9	-30.1	246	16
2023-08-27T00:00	4259	603	-4.1	-30.4	247	16
2023-08-27T00:00	4290	601	-4.2	-30.6	247	17
2023-08-27T00:00	4318	599	-4.5	-30.7	246	17
2023-08-27T00:00	4347	596	-4.7	-30.5	244	17
2023-08-27T00:00	4367	595	-4.8	-30.9	243	17
2023-08-27T00:00	4386	593	-4.9	-30.0	243	17
2023-08-27T00:00	4406	592	-5.0	-30.5	243	17
2023-08-27T00:00	4434	590	-5.1	-31.2	243	18
2023-08-27T00:00	4457	588	-5.0	-32.2	243	18
2023-08-27T00:00	4477	586	-5.1	-32.9	241	19
2023-08-27T00:00	4504	585	-5.2	-33.7	239	20
2023-08-27T00:00	4527	583	-5.3	-33.8	237	20
2023-08-27T00:00	4547	581	-5.4	-33.9	236	21
2023-08-27T00:00	4570	580	-5.6	-33.5	235	21
2023-08-27T00:00	4599	578	-5.9	-32.8	234	21
2023-08-27T00:00	4615	576	-6.0	-32.1	234	21
2023-08-27T00:00	4638	575	-6.2	-32.6	234	20
2023-08-27T00:00	4667	572	-6.3	-29.5	234	20
2023-08-27T00:00	4698	570	-6.1	-21.6	235	20
2023-08-27T00:00	4737	568	-6.5	-18.1	235	20
2023-08-27T00:00	4766	565	-6.9	-16.1	235	21
2023-08-27T00:00	4793	563	-7.1	-16.9	235	21
2023-08-27T00:00	4813	562	-7.3	-18.3	235	21
2023-08-27T00:00	4836	560	-7.5	-16.6	234	21
2023-08-27T00:00	4859	559	-7.8	-15.3	234	21
2023-08-27T00:00	4886	557	-8.1	-14.5	233	21
2023-08-27T00:00	4908	555	-8.2	-14.0	233	21
2023-08-27T00:00	4942	553	-7.8	-21.5	233	21
2023-08-27T00:00	4975	550	-7.7	-23.8	232	22
2023-08-27T00:00	5010	548	-7.9	-25.0	232	22
2023-08-27T00:00	5039	546	-8.0	-25.6	233	22
2023-08-27T00:00	5069	544	-8.1	-27.2	234	23
2023-08-27T00:00	5095	542	-8.2	-28.3	235	23
2023-08-27T00:00	5118	540	-8.3	-28.4	236	23
2023-08-27T00:00	5137	539	-8.3	-28.2	236	23
2023-08-27T00:00	5158	538	-8.5	-27.9	236	24
2023-08-27T00:00	5174	536	-8.5	-29.3	235	24
2023-08-27T00:00	5196	535	-8.5	-30.9	234	24
2023-08-27T00:00	5214	534	-8.6	-31.4	233	24
2023-08-27T00:00	5237	532	-8.7	-31.8	233	24
2023-08-27T00:00	5260	530	-8.8	-32.6	233	24
2023-08-27T00:00	5291	528	-9.0	-33.3	234	24
2023-08-27T00:00	5325	526	-9.1	-33.1	234	24
2023-08-27T00:00	5355	524	-9.3	-33.4	234	24
2023-08-27T00:00	5375	523	-9.4	-32.7	234	24
2023-08-27T00:00	5393	521	-9.5	-32.5	234	25
2023-08-27T00:00	5410	520	-9.7	-32.4	234	25
2023-08-27T00:00	5430	519	-9.9	-32.6	234	25
2023-08-27T00:00	5450	518	-10.1	-32.7	234	25
2023-08-27T00:00	5471	516	-10.3	-32.6	234	25
2023-08-27T00:00	5495	515	-10.5	-32.8	234	25
2023-08-27T00:00	5523	513	-10.7	-32.9	233	25
2023-08-27T00:00	5555	511	-11.0	-32.8	232	26
2023-08-27T00:00	5579	509	-11.2	-32.7	231	26
2023-08-27T00:00	5598	508	-11.4	-32.6	230	26
2023-08-27T00:00	5628	506	-11.7	-32.6	229	25
2023-08-27T00:00	5656	504	-11.8	-33.0	229	25
2023-08-27T00:00	5683	502	-12.0	-33.2	229	25
2023-08-27T00:00	5713	500	-12.3		229	25
2023-08-27T00:00	5736	499	-12.5	-33.8	228	26
2023-08-27T00:00	5756	497	-12.6	-33.8	228	26
2023-08-27T00:00	5777	496	-12.8	-34.3	228	26
2023-08-27T00:00	5807	494	-13.0	-34.3	227	27
2023-08-27T00:00	5839	492	-13.2	-34.1	226	27
2023-08-27T00:00	5864	490	-13.4	-34.4	226	27
2023-08-27T00:00	5889	489	-13.6	-34.8	226	28
2023-08-27T00:00	5922	487	-13.8	-35.9	226	28
2023-08-27T00:00	5952	485	-14.0	-37.3	226	28
2023-08-27T00:00	5974	483	-14.2	-37.5	227	28
2023-08-27T00:00	5996	482	-14.4	-37.4	227	28
2023-08-27T00:00	6019	480	-14.5	-37.6	227	27
2023-08-27T00:00	6047	479	-14.8	-37.5	226	27
2023-08-27T00:00	6078	477	-15.1	-37.5	226	27
2023-08-27T00:00	6102	475	-15.3	-37.4	226	27
2023-08-27T00:00	6129	474	-15.5	-37.6	226	28
2023-08-27T00:00	6148	472	-15.7	-37.7	226	28
2023-08-27T00:00	6178	470	-15.9	-37.6	227	28
2023-08-27T00:00	6213	468	-16.3	-37.9	227	28
2023-08-27T00:00	6251	466	-16.6	-38.1	227	28
2023-08-27T00:00	6268	465	-16.7	-38.2	226	28
2023-08-27T00:00	6285	464	-16.9	-38.2	226	28
2023-08-27T00:00	6304	463	-17.1	-37.7	226	28
2023-08-27T00:00	6323	461	-17.2	-37.2	225	29
2023-08-27T00:00	6342	460	-17.4	-37.3	225	29
2023-08-27T00:00	6364	459	-17.6	-36.6	225	29
2023-08-27T00:00	6391	457	-17.9	-36.5	226	29
2023-08-27T00:00	6415	456	-18.1	-35.3	226	29
2023-08-27T00:00	6447	454	-18.4	-34.6	226	29
2023-08-27T00:00	6485	452	-18.6	-37.8	227	29
2023-08-27T00:00	6510	450	-18.8	-37.9	227	30
2023-08-27T00:00	6530	449	-18.9	-37.7	227	30
2023-08-27T00:00	6548	448	-19.1	-38.1	227	30
2023-08-27T00:00	6566	447	-19.2	-38.2	227	30
2023-08-27T00:00	6596	445	-19.5	-38.5	227	30
2023-08-27T00:00	6629	443	-19.7	-39.2	227	31
2023-08-27T00:00	6658	441	-20.0	-39.3	228	31
2023-08-27T00:00	6680	440	-20.2	-39.4	228	32
2023-08-27T00:00	6702	439	-20.4	-39.2	229	32
2023-08-27T00:00	6726	437	-20.6	-39.1	229	32
2023-08-27T00:00	6756	435	-20.9	-39.3	230	32
2023-08-27T00:00	6776	434	-21.0	-39.1	230	32
2023-08-27T00:00	6796	433	-21.2	-39.1	230	32
2023-08-27T00:00	6818	432	-21.3	-38.8	229	32
2023-08-27T00:00	6843	430	-21.4	-38.5	230	33
2023-08-27T00:00	6877	428	-21.7	-37.7	230	33
2023-08-27T00:00	6899	427	-21.8	-36.9	231	34
2023-08-27T00:00	6928	425	-22.1		232	34
2023-08-27T00:00	6954	424	-22.3	-35.3	233	34
2023-08-27T00:00	6969	423	-22.5	-35.1	233	34
2023-08-27T00:00	6988	422	-22.6	-34.6	233	34
2023-08-27T00:00	7005	421	-22.8	-34.4	233	34
2023-08-27T00:00	7027	420	-22.9	-34.7	232	34
2023-08-27T00:00	7048	418	-23.0	-35.3	231	35
2023-08-27T00:00	7075	417	-23.1	-35.6	230	35
2023-08-27T00:00	7107	415	-23.2	-35.2	229	35
2023-08-27T00:00	7134	414	-23.3	-34.6	228	36
2023-08-27T00:00	7160	412	-23.4	-35.0	227	35
2023-08-27T00:00	7197	410	-23.6	-34.3	227	35
2023-08-27T00:00	7229	408	-23.9	-33.8	227	35
2023-08-27T00:00	7247	407	-24.1	-33.7	227	35
2023-08-27T00:00	7267	406	-24.2	-33.6	228	36
2023-08-27T00:00	7296	404	-24.4	-33.9	227	37
2023-08-27T00:00	7317	403	-24.4	-37.6	227	37
2023-08-27T00:00	7348	402	-24.5	-39.4	226	38
2023-08-27T00:00	7378	400	-24.5	-42.4	225	38
2023-08-27T00:00	7400	399	-24.5	-43.1	225	39
2023-08-27T00:00	7417	398	-24.5	-38.4	225	39
2023-08-27T00:00	7437	397	-24.5	-35.7	225	40
2023-08-27T00:00	7457	396	-24.7	-36.1	226	40
2023-08-27T00:00	7476	395	-24.9	-36.0	226	40
2023-08-27T00:00	7498	393	-25.1	-35.9	227	41
2023-08-27T00:00	7518	392	-25.2	-35.7	227	41
2023-08-27T00:00	7537	391	-25.4	-36.2	227	41
2023-08-27T00:00	7558	390	-25.5	-37.1	227	41
2023-08-27T00:00	7578	389	-25.6	-38.8	226	41
2023-08-27T00:00	7597	388	-25.8	-39.3	226	41
2023-08-27T00:00	7619	387	-25.9	-37.8	226	41
2023-08-27T00:00	7641	386	-26.1	-37.8	226	42
2023-08-27T00:00	7663	385	-26.3	-38.0	226	42
2023-08-27T00:00	7684	383	-26.3	-44.7	227	42
2023-08-27T00:00	7704	382	-26.2	-46.8	227	43
2023-08-27T00:00	7728	381	-26.2	-43.2	228	43
2023-08-27T00:00	7767	379	-26.5	-41.9	228	44
2023-08-27T00:00	7794	378	-26.7	-42.5	229	44
2023-08-27T00:00	7815	376	-26.8	-42.9	230	44
2023-08-27T00:00	7841	375	-27.0	-42.7	230	44
2023-08-27T00:00	7862	374	-27.1	-42.6	230	44
2023-08-27T00:00	7888	373	-27.3	-42.9	229	44
2023-08-27T00:00	7911	371	-27.5	-43.2	229	45
2023-08-27T00:00	7940	370	-27.6	-43.0	228	45
2023-08-27T00:00	7973	368	-27.7	-42.4	227	45
2023-08-27T00:00	8000	367	-27.9	-43.4	227	45
2023-08-27T00:00	8025	366	-28.0	-43.2	227	45
2023-08-27T00:00	8057	364	-28.3	-42.5	228	46
2023-08-27T00:00	8089	362	-28.5	-42.4	228	46
2023-08-27T00:00	8120	361	-28.8	-42.7	229	46
2023-08-27T00:00	8148	359	-29.1	-43.1	229	46
2023-08-27T00:00	8174	358	-29.2	-44.4	229	45
2023-08-27T00:00	8206	357	-29.5	-44.7	230	45
2023-08-27T00:00	8235	355	-29.8	-45.4	230	44
2023-08-27T00:00	8260	354	-29.9	-45.7	231	43
2023-08-27T00:00	8281	353	-30.1	-45.7	231	43
2023-08-27T00:00	8306	351	-30.4	-45.8	232	43
2023-08-27T00:00	8339	350	-30.7	-46.2	232	43
2023-08-27T00:00	8365	349	-30.9	-46.7	232	44
2023-08-27T00:00	8387	348	-31.0	-47.5	232	44
2023-08-27T00:00	8415	346	-31.2	-47.6	233	45
2023-08-27T00:00	8455	344	-31.5	-47.7	234	46
2023-08-27T00:00	8494	342	-31.9	-48.1	234	47
2023-08-27T00:00	8529	341	-32.1	-48.2	235	48
2023-08-27T00:00	8558	339	-32.3	-48.2	235	49
2023-08-27T00:00	8588	338	-32.5	-48.1	235	50
2023-08-27T00:00	8617	336	-32.8	-48.0	235	50
2023-08-27T00:00	8656	335	-33.1	-47.8	235	51
2023-08-27T00:00	8678	333	-33.3	-47.8	235	51
2023-08-27T00:00	8709	332	-33.5	-47.6	235	51
2023-08-27T00:00	8738	331	-33.6	-47.0	234	51
2023-08-27T00:00	8769	329	-33.6	-45.8	233	51
2023-08-27T00:00	8790	328	-33.6	-45.2	232	51
2023-08-27T00:00	8807	327	-33.7	-44.8	232	51
2023-08-27T00:00	8831	326	-33.8	-44.2	232	50
2023-08-27T00:00	8856	325	-34.0	-44.0	233	50
2023-08-27T00:00	8885	324	-34.3	-44.2	233	51
2023-08-27T00:00	8912	323	-34.5	-44.2	233	51
2023-08-27T00:00	8945	321	-34.8	-44.2	233	51
2023-08-27T00:00	8973	320	-35.1	-44.3	232	51
2023-08-27T00:00	9003	318	-35.4	-44.5	232	52
2023-08-27T00:00	9024	317	-35.6	-44.5	231	52
2023-08-27T00:00	9043	317	-35.7	-44.4	231	52
2023-08-27T00:00	9063	316	-35.9	-44.2	230	52
2023-08-27T00:00	9083	315	-36.1	-44.3	230	52
2023-08-27T00:00	9106	314	-36.3	-44.5	231	52
2023-08-27T00:00	9127	313	-36.4	-44.6	231	52
2023-08-27T00:00	9155	311	-36.6	-44.9	232	52
2023-08-27T00:00	9186	310	-36.9	-45.4	232	52
2023-08-27T00:00	9208	309	-37.1	-45.4	232	52
2023-08-27T00:00	9230	308	-37.3	-45.4	232	52
2023-08-27T00:00	9253	307	-37.6	-45.4	232	52
2023-08-27T00:00	9280	306	-37.8	-45.4	231	52
2023-08-27T00:00	9305	305	-38.1	-45.6	231	52
2023-08-27T00:00	9332	304	-38.3	-45.6	231	51
2023-08-27T00:00	9362	302	-38.6	-45.6	231	51
2023-08-27T00:00	9393	301	-38.9	-45.7	231	51
2023-08-27T00:00	9429	299	-39.3	-45.8	231	51
2023-08-27T00:00	9461	298	-39.5	-45.7	232	51
2023-08-27T00:00	9498	296	-39.9	-46.0	232	51
2023-08-27T00:00	9526	295	-40.2	-46.1	233	51
2023-08-27T00:00	9543	294	-40.3	-46.3	233	51
2023-08-27T00:00	9563	294	-40.5	-46.3	233	51
2023-08-27T00:00	9581	293	-40.6	-46.8	233	51
2023-08-27T00:00	9602	292	-40.8	-47.4	232	51
2023-08-27T00:00	9624	291	-41.0	-48.0	232	51
2023-08-27T00:00	9645	290	-41.1	-48.7	231	51
2023-08-27T00:00	9671	289	-41.3	-48.9	231	51
2023-08-27T00:00	9703	288	-41.5	-49.4	232	51
2023-08-27T00:00	9724	287	-41.7	-49.6	232	52
2023-08-27T00:00	9744	286	-41.9	-49.9	232	52
2023-08-27T00:00	9766	285	-42.1	-50.4	232	52
2023-08-27T00:00	9795	284	-42.3	-50.6	232	52
2023-08-27T00:00	9827	282	-42.6	-50.8	231	52
2023-08-27T00:00	9851	281	-42.6	-50.9	231	52
2023-08-27T00:00	9882	280	-42.8	-51.0	231	52
2023-08-27T00:00	9909	279	-43.1	-51.1	231	52
2023-08-27T00:00	9938	278	-43.4	-51.1	231	53
2023-08-27T00:00	9962	277	-43.6	-51.5	231	53
2023-08-27T00:00	9989	276	-43.8	-52.4	231	53
2023-08-27T00:00	10020	274	-44.0	-52.9	231	54
2023-08-27T00:00	10051	273	-44.3	-53.4	232	54
2023-08-27T00:00	10078	272	-44.6	-53.8	232	54
2023-08-27T00:00	10113	271	-44.9	-54.0	232	54
2023-08-27T00:00	10143	269	-45.2	-55.0	232	54
2023-08-27T00:00	10163	269	-45.3	-55.8	232	54
2023-08-27T00:00	10185	268	-45.5	-56.0	231	54
2023-08-27T00:00	10204	267	-45.6	-56.2	230	54
2023-08-27T00:00	10226	266	-45.8	-56.5	229	54
2023-08-27T00:00	10249	265	-45.9	-56.7	229	53
2023-08-27T00:00	10278	264	-46.1	-56.9	228	53
2023-08-27T00:00	10306	263	-46.3	-56.8	227	53
2023-08-27T00:00	10335	262	-46.5	-56.7	226	52
2023-08-27T00:00	10372	260	-46.8	-56.7	225	52
2023-08-27T00:00	10408	259	-47.0	-56.6	224	52
2023-08-27T00:00	10444	257	-47.3	-56.7	223	51
2023-08-27T00:00	10470	256	-47.5	-56.7	223	51
2023-08-27T00:00	10501	255	-47.8	-56.6	222	50
2023-08-27T00:00	10528	254	-47.7	-56.4	221	50
2023-08-27T00:00	10553	253	-47.9	-56.5	220	50
2023-08-27T00:00	10581	252	-48.1	-56.7	220	50
2023-08-27T00:00	10609	251	-48.3	-56.7	220	49
2023-08-27T00:00	10647	250	-48.5	-56.9	219	49
2023-08-27T00:00	10680	248	-48.6	-56.9	218	49
2023-08-27T00:00	10716	247	-48.8	-57.0	218	49
2023-08-27T00:00	10757	245	-49.2	-57.1	217	49
2023-08-27T00:00	10800	244	-49.7	-57.3	215	48
2023-08-27T00:00	10834	243	-49.9	-57.3	214	48
2023-08-27T00:00	10871	241	-50.1	-57.2	212	47
2023-08-27T00:00	10903	240	-50.1	-57.1	211	47
2023-08-27T00:00	10938	239	-50.4	-57.2	209	47
2023-08-27T00:00	10971	238	-50.6	-57.1	208	47
2023-08-27T00:00	10996	237	-50.8	-57.0	207	47
2023-08-27T00:00	11032	235	-51.0	-57.0	206	47
2023-08-27T00:00	11056	234	-51.2	-56.9	206	47
2023-08-27T00:00	11095	233	-51.4	-56.9	205	47
2023-08-27T00:00	11125	232	-51.8	-57.1	205	47
2023-08-27T00:00	11159	231	-52.0	-57.0	204	48
2023-08-27T00:00	11183	230	-52.3	-57.1	203	48
2023-08-27T00:00	11215	229	-52.3	-56.9	202	48
2023-08-27T00:00	11250	228	-52.6	-57.0	201	49
2023-08-27T00:00	11281	226	-52.8	-57.2	200	49
2023-08-27T00:00	11315	225	-53.1	-57.5	199	50
2023-08-27T00:00	11339	224	-53.3	-57.6	199	51
2023-08-27T00:00	11366	223	-53.5	-57.7	200	52
2023-08-27T00:00	11403	222	-53.7	-57.8	200	52
2023-08-27T00:00	11425	221	-53.8	-58.0	201	53
2023-08-27T00:00	11448	221	-53.9	-58.3	202	53
2023-08-27T00:00	11475	220	-54.0	-58.5	202	52
2023-08-27T00:00	11498	219	-54.3	-58.8	202	52
2023-08-27T00:00	11528	218	-54.5	-58.9	202	52
2023-08-27T00:00	11553	217	-54.8	-59.3	202	52
2023-08-27T00:00	11578	216	-55.0	-59.5	201	52
2023-08-27T00:00	11603	215	-55.2	-59.8	201	53
2023-08-27T00:00	11626	215	-55.3	-59.8	201	53
2023-08-27T00:00	11653	214	-55.5	-60.0	201	52
2023-08-27T00:00	11680	213	-55.8	-60.3	201	52
2023-08-27T00:00	11708	212	-56.0	-60.6	201	52
2023-08-27T00:00	11737	211	-56.3	-60.8	201	52
2023-08-27T00:00	11766	210	-56.6	-61.1	201	53
2023-08-27T00:00	11806	209	-56.9	-61.4	200	53
2023-08-27T00:00	11836	208	-57.2	-61.7	199	53
2023-08-27T00:00	11872	207	-57.5	-61.9	199	53
2023-08-27T00:00	11898	206	-57.8	-62.2	199	52
2023-08-27T00:00	11918	205	-58.0	-62.3	199	52
2023-08-27T00:00	11942	204	-57.6	-62.0	199	52
2023-08-27T00:00	11959	204	-57.2	-61.7	200	52
2023-08-27T00:00	11978	203	-57.0	-61.6	200	52
2023-08-27T00:00	11996	202	-57.0	-61.7	201	52
2023-08-27T00:00	12015	202	-57.1	-62.0	201	52
2023-08-27T00:00	12034	201	-57.3	-62.4	202	52
2023-08-27T00:00	12054	201	-57.4	-62.7	202	52
2023-08-27T00:00	12074	200	-57.5	-63.0	202	52
2023-08-27T00:00	12095	199	-57.6	-63.3	203	51
2023-08-27T00:00	12115	199	-57.6	-63.7	203	51
2023-08-27T00:00	12134	198	-57.7	-64.4	204	50
2023-08-27T00:00	12169	197	-57.8	-65.4	205	50
2023-08-27T00:00	12196	196	-57.7	-66.5	206	49
2023-08-27T00:00	12228	195	-57.0	-67.6	208	48
2023-08-27T00:00	12266	194	-56.2	-69.0	211	48
2023-08-27T00:00	12298	193	-55.3	-70.7	213	47
2023-08-27T00:00	12341	192	-55.1	-73.0	216	47
2023-08-27T00:00	12378	191	-54.5	-74.9	218	48
2023-08-27T00:00	12404	190	-54.7	-76.3	220	48
2023-08-27T00:00	12440	189	-54.7	-76.5	221	48
2023-08-27T00:00	12473	188	-54.7	-76.5	223	48
2023-08-27T00:00	12487	187	-54.4	-76.4	224	48
2023-08-27T00:00	12506	187	-54.5	-76.7	225	47
2023-08-27T00:00	12526	186	-54.3	-76.5	225	47
2023-08-27T00:00	12546	186	-54.2	-76.4	226	47
2023-08-27T00:00	12568	185	-54.2	-76.4	227	47
2023-08-27T00:00	12585	184	-54.3	-76.4	227	46
2023-08-27T00:00	12607	184	-54.1	-75.9	228	46
2023-08-27T00:00	12629	183	-53.9	-75.6	229	46
2023-08-27T00:00	12650	183	-54.0	-75.8	229	46
2023-08-27T00:00	12667	182	-54.1	-75.9	230	46
2023-08-27T00:00	12690	182	-54.0	-76.0	231	46
2023-08-27T00:00	12709	181	-53.8	-76.3	232	46
2023-08-27T00:00	12732	180	-53.3	-76.3	233	46
2023-08-27T00:00	12752	180	-52.9	-76.5	234	45
2023-08-27T00:00	12771	179	-52.8	-77.0	234	44
2023-08-27T00:00	12796	179	-52.8	-77.4	235	44
2023-08-27T00:00	12816	178	-52.9	-77.9	235	43
2023-08-27T00:00	12837	177	-52.9	-78.2	236	43
2023-08-27T00:00	12855	177	-53.0	-78.7	236	42
2023-08-27T00:00	12878	176	-53.1	-79.0	236	41
2023-08-27T00:00	12898	176	-53.2	-79.7	236	41
2023-08-27T00:00	12917	175	-52.9	-79.7	235	40
2023-08-27T00:00	12937	175	-52.6	-79.8	235	40
2023-08-27T00:00	12959	174	-52.6	-80.1	235	40
2023-08-27T00:00	12981	174	-52.5	-80.0	235	40
2023-08-27T00:00	13000	173	-51.8	-79.5	235	40
2023-08-27T00:00	13018	173	-51.7	-79.4	235	40
2023-08-27T00:00	13040	172	-51.7	-79.4	236	39
2023-08-27T00:00	13060	171	-51.5	-79.2	236	39
2023-08-27T00:00	13079	171	-51.5	-79.2	236	38
2023-08-27T00:00	13100	170	-51.4	-79.2	236	38
2023-08-27T00:00	13121	170	-51.0	-78.9	236	37
2023-08-27T00:00	13140	169	-50.8	-79.0	236	36
2023-08-27T00:00	13164	169	-50.5	-78.8	237	35
2023-08-27T00:00	13184	168	-50.4	-79.1	237	34
2023-08-27T00:00	13204	168	-50.2	-78.9	238	34
2023-08-27T00:00	13226	167	-50.2	-79.3	238	33
2023-08-27T00:00	13247	167	-50.3	-79.4	238	32
2023-08-27T00:00	13269	166	-50.4	-79.5	238	31
2023-08-27T00:00	13290	165	-50.3	-79.4	238	30
2023-08-27T00:00	13313	165	-50.2	-79.7	238	29
2023-08-27T00:00	13334	164	-50.0	-80.0	237	29
2023-08-27T00:00	13355	164	-49.6	-80.1	236	28
2023-08-27T00:00	13377	163	-49.3	-79.9	235	28
2023-08-27T00:00	13401	163	-49.3	-80.4	234	28
2023-08-27T00:00	13428	162	-49.3	-80.4	233	28
2023-08-27T00:00	13448	161	-49.3	-80.4	231	28
2023-08-27T00:00	13473	161	-49.5	-80.5	230	28
2023-08-27T00:00	13497	160	-49.7	-80.2	229	28
2023-08-27T00:00	13520	160	-49.8	-80.3	228	28
2023-08-27T00:00	13538	159	-49.9	-80.3	227	28
2023-08-27T00:00	13560	159	-50.0	-80.4	225	28
2023-08-27T00:00	13585	158	-50.1	-80.5	224	28
2023-08-27T00:00	13608	158	-50.2	-80.6	223	28
2023-08-27T00:00	13632	157	-50.2	-80.6	222	28
2023-08-27T00:00	13652	157	-50.2	-80.6	221	28
2023-08-27T00:00	13672	156	-50.4	-80.7	220	28
2023-08-27T00:00	13696	156	-50.4	-80.7	219	29
2023-08-27T00:00	13718	155	-50.4	-80.7	219	29
2023-08-27T00:00	13737	155	-50.6	-80.9	219	29
2023-08-27T00:00	13761	154	-50.7	-80.9	220	30
2023-08-27T00:00	13781	153	-50.9	-81.1	221	30
2023-08-27T00:00	13808	153	-50.9	-81.1	221	31
2023-08-27T00:00	13827	152	-50.9	-81.1	222	31
2023-08-27T00:00	13850	152	-50.8	-80.6	223	31
2023-08-27T00:00	13871	151	-50.9	-80.6	224	31
2023-08-27T00:00	13894	151	-50.9	-80.6	224	31
2023-08-27T00:00	13913	150	-51.1	-80.8	225	31
2023-08-27T00:00	13934	150	-51.2	-80.9	226	31
2023-08-27T00:00	13953	149	-51.3	-80.5	227	31
2023-08-27T00:00	13976	149	-51.4	-80.6	227	31
2023-08-27T00:00	13996	149	-51.4	-80.6	228	31
2023-08-27T00:00	14015	148	-51.5	-80.7	228	31
2023-08-27T00:00	14039	147	-51.6	-80.8	229	30
2023-08-27T00:00	14078	147	-51.5	-81.1	230	29
2023-08-27T00:00	14108	146	-51.2	-80.9	231	29
2023-08-27T00:00	14153	145	-51.7	-81.7	233	28
2023-08-27T00:00	14173	145	-51.7	-81.7	234	27
2023-08-27T00:00	14190	144	-51.5	-81.5	235	27
2023-08-27T00:00	14208	144	-51.4	-81.9	236	26
2023-08-27T00:00	14229	143	-51.6	-82.1	237	26
2023-08-27T00:00	14251	143	-51.6	-82.1	237	26
2023-08-27T00:00	14271	142	-51.7	-82.2	238	25
2023-08-27T00:00	14291	142	-51.7	-82.2	239	25
2023-08-27T00:00	14312	141	-51.6	-82.1	239	24
2023-08-27T00:00	14333	141	-51.6	-82.1	239	23
2023-08-27T00:00	14357	140	-51.6	-82.1	239	23
2023-08-27T00:00	14382	140	-51.5	-82.0	239	22
2023-08-27T00:00	14405	139	-51.6	-82.1	238	21
2023-08-27T00:00	14429	139	-51.7	-82.2	238	21
2023-08-27T00:00	14451	138	-51.8	-82.2	238	21
2023-08-27T00:00	14472	138	-51.9	-82.3	239	21
2023-08-27T00:00	14495	138	-52.0	-81.9	239	21
2023-08-27T00:00	14520	137	-51.9	-82.3	240	21
2023-08-27T00:00	14543	136	-52.0	-82.4	240	21
2023-08-27T00:00	14567	136	-52.2	-82.5	239	22
2023-08-27T00:00	14588	136	-52.4	-82.7	238	21
2023-08-27T00:00	14613	135	-52.4	-82.7	237	21
2023-08-27T00:00	14635	135	-51.9	-82.3	236	21
2023-08-27T00:00	14656	134	-51.9	-82.3	234	20
2023-08-27T00:00	14678	134	-52.0	-82.4	233	19
2023-08-27T00:00	14699	133	-52.1	-82.5	232	19
2023-08-27T00:00	14721	133	-52.2	-82.5	231	18
2023-08-27T00:00	14745	132	-52.2	-82.5	230	18
2023-08-27T00:00	14764	132	-52.2	-82.5	229	17
2023-08-27T00:00	14787	131	-52.4	-82.7	229	17
2023-08-27T00:00	14809	131	-52.5	-82.8	228	17
2023-08-27T00:00	14829	131	-52.4	-82.7	228	16
2023-08-27T00:00	14853	130	-52.4	-82.7	227	16
2023-08-27T00:00	14872	130	-52.3	-82.6	227	16
2023-08-27T00:00	14892	129	-52.4	-82.7	226	16
2023-08-27T00:00	14915	129	-52.2	-82.5	226	16
2023-08-27T00:00	14936	128	-52.3	-82.6	225	16
2023-08-27T00:00	14957	128	-52.4	-82.7	224	17
2023-08-27T00:00	14981	128	-52.6	-82.8	224	17
2023-08-27T00:00	15003	127	-52.7	-82.9	222	17
2023-08-27T00:00	15029	127	-52.9	-83.1	221	17
2023-08-27T00:00	15050	126	-53.1	-82.7	219	17
2023-08-27T00:00	15073	126	-53.2	-82.8	217	17
2023-08-27T00:00	15097	125	-53.4	-83.0	214	18
2023-08-27T00:00	15122	125	-53.5	-83.0	212	18
2023-08-27T00:00	15145	124	-53.4	-83.4	209	18
2023-08-27T00:00	15169	124	-53.4	-83.0	208	19
2023-08-27T00:00	15188	123	-53.5	-83.0	207	19
2023-08-27T00:00	15213	123	-53.7	-83.2	206	19
2023-08-27T00:00	15234	123	-53.9	-83.3	205	19
2023-08-27T00:00	15257	122	-54.1	-83.5	205	20
2023-08-27T00:00	15277	122	-54.3	-83.6	204	20
2023-08-27T00:00	15303	121	-54.5	-83.4	204	20
2023-08-27T00:00	15324	121	-54.6	-83.4	204	21
2023-08-27T00:00	15345	121	-54.8	-83.6	204	21
2023-08-27T00:00	15369	120	-54.9	-83.7	205	22
2023-08-27T00:00	15388	120	-55.0	-83.7	207	23
2023-08-27T00:00	15414	119	-54.9	-84.1	207	23
2023-08-27T00:00	15436	119	-54.5	-83.8	208	24
2023-08-27T00:00	15458	118	-54.1	-83.5	208	25
2023-08-27T00:00	15482	118	-54.2	-83.6	209	25
2023-08-27T00:00	15502	118	-54.4	-83.7	209	25
2023-08-27T00:00	15526	117	-54.5	-83.8	210	26
2023-08-27T00:00	15549	117	-54.7	-83.5	210	26
2023-08-27T00:00	15568	116	-54.8	-83.6	211	26
2023-08-27T00:00	15591	116	-54.9	-83.7	212	26
2023-08-27T00:00	15612	116	-55.1	-83.8	213	26
2023-08-27T00:00	15632	115	-55.2	-83.9	214	26
2023-08-27T00:00	15656	115	-55.3	-83.6	216	26
2023-08-27T00:00	15678	114	-55.5	-83.7	217	26
2023-08-27T00:00	15701	114	-55.6	-83.8	219	26
2023-08-27T00:00	15723	114	-55.7	-83.9	220	26
2023-08-27T00:00	15743	113	-55.7	-83.9	221	25
2023-08-27T00:00	15766	113	-55.7	-83.9	223	25
2023-08-27T00:00	15791	112	-55.7	-83.9	225	25
2023-08-27T00:00	15814	112	-55.7	-84.3	226	25
2023-08-27T00:00	15834	112	-55.7	-84.3	228	24
2023-08-27T00:00	15856	111	-55.6	-84.2	230	24
2023-08-27T00:00	15879	111	-55.5	-84.1	232	24
2023-08-27T00:00	15899	111	-55.5	-84.1	234	23
2023-08-27T00:00	15921	110	-55.5	-84.5	236	23
2023-08-27T00:00	15940	110	-55.4	-84.5	237	22
2023-08-27T00:00	15967	109	-54.8	-84.0	238	22
2023-08-27T00:00	15988	109	-54.3	-84.1	238	21
2023-08-27T00:00	16010	109	-53.9	-83.8	238	20
2023-08-27T00:00	16032	108	-53.8	-83.7	237	19
2023-08-27T00:00	16053	108	-53.9	-83.8	236	18
2023-08-27T00:00	16077	107	-53.9	-83.8	235	18
2023-08-27T00:00	16099	107	-54.0	-83.9	235	17
2023-08-27T00:00	16124	107	-54.1	-84.0	234	16
2023-08-27T00:00	16147	106	-54.2	-84.0	233	16
2023-08-27T00:00	16170	106	-54.3	-83.6	231	15
2023-08-27T00:00	16196	106	-54.5	-83.8	228	15
2023-08-27T00:00	16221	105	-54.5	-83.8	226	14
2023-08-27T00:00	16249	105	-54.7	-83.9	223	14
2023-08-27T00:00	16273	104	-54.9	-84.1	221	14
2023-08-27T00:00	16295	104	-55.0	-84.2	220	15
2023-08-27T00:00	16317	104	-55.1	-84.2	219	15
2023-08-27T00:00	16338	103	-55.2	-84.3	218	15
2023-08-27T00:00	16360	103	-55.1	-83.8	217	15
2023-08-27T00:00	16382	102	-55.3	-84.0	217	15
2023-08-27T00:00	16402	102	-55.5	-84.1	216	15
2023-08-27T00:00	16424	102	-55.5	-84.1	216	15
2023-08-27T00:00	16446	101	-55.6	-84.2	215	15
2023-08-27T00:00	16468	101	-55.6	-84.2	215	15
2023-08-27T00:00	16489	101	-55.5	-84.1	215	15
2023-08-27T00:00	16512	100	-55.6	-84.2	216	15
2023-08-27T00:00	16533	100	-55.8	-84.3	216	15
2023-08-27T00:00	16556	100	-55.9	-84.4	217	16
2023-08-27T00:00	16578	99	-56.0	-84.5	218	16
2023-08-27T00:00	16598	99	-56.1	-84.6	219	17
2023-08-27T00:00	16620	99	-56.3	-84.7	220	17
2023-08-27T00:00	16644	98	-56.4	-84.8	221	17
2023-08-27T00:00	16665	98	-56.2	-84.6	222	16
2023-08-27T00:00	16686	98	-56.1	-85.0	223	16
2023-08-27T00:00	16708	97	-55.9	-84.8	223	16
2023-08-27T00:00	16730	97	-55.8	-84.8	223	15
2023-08-27T00:00	16755	97	-55.7	-84.7	222	15
2023-08-27T00:00	16775	96	-55.6	-85.1	221	14
2023-08-27T00:00	16799	96	-55.7	-85.2	219	14
2023-08-27T00:00	16822	96	-55.4	-84.9	217	14
2023-08-27T00:00	16842	95	-55.4	-84.9	216	13
2023-08-27T00:00	16866	95	-55.5	-85.0	216	13
2023-08-27T00:00	16887	95	-55.7	-85.2	217	13
2023-08-27T00:00	16909	94	-55.9	-85.3	218	13
2023-08-27T00:00	16933	94	-55.7	-85.2	219	13
2023-08-27T00:00	16956	94	-55.3	-84.9	220	13
2023-08-27T00:00	16976	93	-54.8	-84.5	220	13
2023-08-27T00:00	17000	93	-54.7	-84.4	220	13
2023-08-27T00:00	17024	93	-54.8	-84.5	220	14
2023-08-27T00:00	17046	92	-55.0	-84.6	219	14
2023-08-27T00:00	17069	92	-55.2	-84.8	220	14
2023-08-27T00:00	17091	92	-55.4	-84.9	221	15
2023-08-27T00:00	17116	91	-55.6	-84.6	222	15
2023-08-27T00:00	17139	91	-55.6	-84.6	224	16
2023-08-27T00:00	17162	91	-55.5	-85.0	225	16
2023-08-27T00:00	17183	90	-55.6	-85.1	226	16
2023-08-27T00:00	17209	90	-55.2	-84.8	228	16
2023-08-27T00:00	17230	90	-55.1	-84.7	229	16
2023-08-27T00:00	17253	89	-55.2	-84.8	231	16
2023-08-27T00:00	17280	89	-55.2	-84.8	232	16
2023-08-27T00:00	17301	89	-55.2	-84.8	234	15
2023-08-27T00:00	17324	88	-55.3	-84.9	235	15
2023-08-27T00:00	17347	88	-55.2	-84.8	237	15
2023-08-27T00:00	17368	88	-55.0	-84.6	238	15
2023-08-27T00:00	17395	87	-54.9	-85.1	240	15
2023-08-27T00:00	17414	87	-54.7	-84.9	242	15
2023-08-27T00:00	17436	87	-54.8	-85.0	244	16
2023-08-27T00:00	17459	87	-54.9	-85.1	245	16
2023-08-27T00:00	17480	86	-55.0	-85.1	245	16
2023-08-27T00:00	17503	86	-55.1	-85.2	246	17
2023-08-27T00:00	17525	86	-55.2	-84.8	246	17
2023-08-27T00:00	17546	85	-55.3	-84.9	246	17
2023-08-27T00:00	17566	85	-55.5	-85.0	247	16
2023-08-27T00:00	17590	85	-55.4	-84.9	248	16
2023-08-27T00:00	17610	85	-55.4	-84.9	249	16
2023-08-27T00:00	17633	84	-55.4	-84.9	250	16
2023-08-27T00:00	17656	84	-55.4	-84.9	251	15
2023-08-27T00:00	17675	84	-55.4	-85.4	252	15
2023-08-27T00:00	17696	83	-55.2	-85.3	253	15
2023-08-27T00:00	17722	83	-55.0	-85.1	254	14
2023-08-27T00:00	17746	83	-54.9	-85.1	255	14
2023-08-27T00:00	17767	82	-54.5	-85.3	256	13
2023-08-27T00:00	17794	82	-54.1	-85.0	258	12
2023-08-27T00:00	17813	82	-54.2	-85.1	260	11
2023-08-27T00:00	17836	82	-54.4	-85.2	262	11
2023-08-27T00:00	17857	81	-54.4	-85.2	262	10
2023-08-27T00:00	17881	81	-54.5	-84.8	262	9
2023-08-27T00:00	17903	81	-54.6	-84.8	261	9
2023-08-27T00:00	17924	80	-54.7	-84.9	260	8
2023-08-27T00:00	17946	80	-54.8	-85.0	258	8
2023-08-27T00:00	17968	80	-54.9	-85.1	256	7
2023-08-27T00:00	17993	80	-55.1	-85.2	253	7
2023-08-27T00:00	18016	79	-55.3	-85.4	249	7
2023-08-27T00:00	18039	79	-55.5	-85.0	245	6
2023-08-27T00:00	18065	79	-55.7	-85.2	238	6
2023-08-27T00:00	18087	78	-55.9	-85.3	230	5
2023-08-27T00:00	18108	78	-56.0		219	5
2023-08-27T00:00	18135	78	-56.1	-85.5	208	5
2023-08-27T00:00	18161	78	-55.8	-85.2	200	5
2023-08-27T00:00	18184	77	-55.9	-85.3	196	6
2023-08-27T00:00	18203	77	-56.0	-85.9	196	6
2023-08-27T00:00	18224	77	-55.9	-85.8	198	7
2023-08-27T00:00	18252	76	-55.9	-85.8	201	7
2023-08-27T00:00	18269	76	-55.8	-85.7	205	8
2023-08-27T00:00	18293	76	-55.8	-85.7	209	8
2023-08-27T00:00	18309	76	-55.3	-85.4	213	9
2023-08-27T00:00	18336	75	-55.3	-85.9	218	9
2023-08-27T00:00	18361	75	-55.4	-86.0	223	9
2023-08-27T00:00	18383	75	-55.3	-85.9	227	9
2023-08-27T00:00	18404	75	-55.4	-85.4	231	9
2023-08-27T00:00	18429	74	-55.4	-85.4	234	9
2023-08-27T00:00	18451	74	-55.4	-85.4	237	8
2023-08-27T00:00	18479	74	-55.6	-85.6	240	7
2023-08-27T00:00	18503	73	-55.6	-85.6	244	6
2023-08-27T00:00	18532	73	-55.5	-85.5	250	5
2023-08-27T00:00	18559	73	-55.6	-85.6	256	4
2023-08-27T00:00	18585	73	-55.7	-86.2	263	4
2023-08-27T00:00	18605	72	-55.6	-86.1	270	3
2023-08-27T00:00	18634	72	-55.3	-85.9	277	3
2023-08-27T00:00	18660	72	-54.8	-85.5	284	2
2023-08-27T00:00	18685	71	-54.7	-85.5	290	2
2023-08-27T00:00	18712	71	-54.8	-85.5	295	1
2023-08-27T00:00	18739	71	-55.0	-85.7	295	1
2023-08-27T00:00	18761	71	-55.2	-85.8	268	0
2023-08-27T00:00	18782	70	-55.3	-85.9	153	0
2023-08-27T00:00	18806	70	-55.4	-85.4	142	1
2023-08-27T00:00	18829	70	-55.4	-85.4	141	1
2023-08-27T00:00	18855	70	-55.5	-85.5	142	2
2023-08-27T00:00	18874	69	-55.6	-85.6	147	2
2023-08-27T00:00	18898	69	-55.7	-85.7	152	3
2023-08-27T00:00	18922	69	-55.9	-85.8	158	3
2023-08-27T00:00	18949	69	-55.8	-85.7	163	4
2023-08-27T00:00	18973	68	-55.9	-85.8	168	5
2023-08-27T00:00	18994	68	-56.0	-85.9	171	5
2023-08-27T00:00	19016	68	-56.2	-86.0	175	6
2023-08-27T00:00	19042	68	-56.2	-86.0	179	6
2023-08-27T00:00	19064	67	-56.3	-86.1	185	7
2023-08-27T00:00	19089	67	-56.4	-86.2	191	7
2023-08-27T00:00	19109	67	-56.3	-86.6	198	8
2023-08-27T00:00	19134	67	-56.1	-86.5	205	8
2023-08-27T00:00	19157	66	-55.9	-86.3	211	8
2023-08-27T00:00	19178	66	-55.3	-86.5	217	9
2023-08-27T00:00	19204	66	-55.1	-86.4	223	9
2023-08-27T00:00	19225	66	-54.9	-86.2	229	9
2023-08-27T00:00	19245	65	-54.6	-86.0	234	9
2023-08-27T00:00	19266	65	-54.5	-85.9	238	9
2023-08-27T00:00	19285	65	-54.2	-86.4	241	9
2023-08-27T00:00	19309	65	-53.9	-86.2	243	9
2023-08-27T00:00	19332	65	-53.8	-86.1	244	8
2023-08-27T00:00	19352	64	-53.8	-85.4	245	8
2023-08-27T00:00	19372	64	-53.8	-85.4	247	7
2023-08-27T00:00	19392	64	-53.9	-85.5	249	6
2023-08-27T00:00	19418	64	-54.0	-85.5	253	6
2023-08-27T00:00	19436	64	-54.0	-85.5	259	5
2023-08-27T00:00	19458	63	-54.1	-85.6	265	5
2023-08-27T00:00	19476	63	-54.2	-85.7	272	4
2023-08-27T00:00	19499	63	-54.2	-85.7	278	4
2023-08-27T00:00	19520	63	-54.2	-85.7	284	3
2023-08-27T00:00	19540	62	-54.2	-85.7	288	2
2023-08-27T00:00	19565	62	-54.1	-85.6	290	1
2023-08-27T00:00	19584	62	-54.1	-85.6	282	1
2023-08-27T00:00	19605	62	-54.0	-85.5	215	0
2023-08-27T00:00	19628	62	-54.0	-85.5	170	1
2023-08-27T00:00	19647	61	-53.9	-85.5	167	1
2023-08-27T00:00	19668	61	-54.0	-85.5	170	2
2023-08-27T00:00	19687	61	-54.1	-85.6	175	2
2023-08-27T00:00	19710	61	-54.1	-85.6	177	2
2023-08-27T00:00	19735	61	-54.1	-85.6	177	3
2023-08-27T00:00	19754	60	-54.0	-85.5	176	3
2023-08-27T00:00	19777	60	-53.9	-85.5	175	3
2023-08-27T00:00	19801	60	-53.8	-85.4	176	4
2023-08-27T00:00	19822	60	-53.9	-85.5	177	4
2023-08-27T00:00	19846	60	-53.7	-85.3	179	5
2023-08-27T00:00	19871	59	-53.8	-85.4	181	5
2023-08-27T00:00	19895	59	-53.7	-85.3	182	5
2023-08-27T00:00	19916	59	-53.8	-85.4	184	5
2023-08-27T00:00	19941	59	-53.9	-85.5	186	5
2023-08-27T00:00	19964	58	-53.9	-85.5	190	5
2023-08-27T00:00	19987	58	-53.9	-85.5	197	5
2023-08-27T00:00	20014	58	-54.0	-85.5	206	5
2023-08-27T00:00	20041	58	-54.0	-85.5	216	5
2023-08-27T00:00	20064	58	-54.2	-85.7	225	5
2023-08-27T00:00	20091	57	-54.4	-85.8	231	5
2023-08-27T00:00	20116	57	-54.3	-85.8	236	5
2023-08-27T00:00	20141	57	-54.4	-85.8	239	4
2023-08-27T00:00	20168	57	-54.3	-85.8	241	4
2023-08-27T00:00	20193	56	-54.1	-85.6	244	3
2023-08-27T00:00	20220	56	-54.1	-85.6	245	3
2023-08-27T00:00	20245	56	-54.1	-85.6	245	2
2023-08-27T00:00	20272	56	-54.1	-85.6	241	2
2023-08-27T00:00	20299	56	-53.9	-85.5	236	2
2023-08-27T00:00	20326	55	-53.9	-85.5	233	3
2023-08-27T00:00	20351	55	-53.9	-85.5	231	4
2023-08-27T00:00	20379	55	-54.0	-85.5	232	4
2023-08-27T00:00	20401	55	-54.0	-85.5	233	5
2023-08-27T00:00	20425	54	-54.1	-85.6	236	5
2023-08-27T00:00	20452	54	-54.1	-85.6	238	5
2023-08-27T00:00	20476	54	-54.2	-85.7	242	5
2023-08-27T00:00	20503	54	-54.3	-85.2	246	5
2023-08-27T00:00	20527	54	-54.4	-85.2	252	5
2023-08-27T00:00	20550	53	-54.5	-85.3	260	5
2023-08-27T00:00	20576	53	-54.6	-85.4	268	5
2023-08-27T00:00	20604	53	-54.6	-85.4	277	5
2023-08-27T00:00	20623	53	-54.6	-86.0	285	5
2023-08-27T00:00	20649	53	-54.5	-85.9	293	5
2023-08-27T00:00	20672	52	-54.2	-85.7	300	5
2023-08-27T00:00	20699	52	-54.2	-85.7	307	5
2023-08-27T00:00	20726	52	-54.1	-85.6	314	5
2023-08-27T00:00	20746	52	-53.8	-85.4	321	4
2023-08-27T00:00	20771	52	-53.8	-85.4	330	4
2023-08-27T00:00	20793	51	-53.9	-85.5	339	4
2023-08-27T00:00	20818	51	-54.1	-85.6	349	4
2023-08-27T00:00	20840	51	-54.2	-85.7	358	4
2023-08-27T00:00	20861	51	-54.3	-85.2	7	4
2023-08-27T00:00	20883	51	-54.4	-85.2	16	4
2023-08-27T00:00	20909	50	-54.6	-85.4	26	3
2023-08-27T00:00	20935	50	-54.7	-85.5	38	3
2023-08-27T00:00	20957	50	-54.8	-85.5	49	3
2023-08-27T00:00	20979	50	-55.0	-85.7	60	3
2023-08-27T00:00	21001	50	-55.1	-85.8	68	3
2023-08-27T00:00	21024	50	-55.0	-85.7	77	3
2023-08-27T00:00	21048	49	-54.7	-86.1	88	2
2023-08-27T00:00	21069	49	-54.2	-85.7	101	2
2023-08-27T00:00	21091	49	-54.2	-85.7	111	2
2023-08-27T00:00	21110	49	-54.0	-85.5	115	2
2023-08-27T00:00	21136	49	-54.0	-85.5	112	2
2023-08-27T00:00	21158	49	-53.8	-86.1	105	2
2023-08-27T00:00	21183	48	-53.7	-86.0	99	2
2023-08-27T00:00	21204	48	-53.5	-85.9	95	2
2023-08-27T00:00	21228	48	-53.3	-85.0	95	2
2023-08-27T00:00	21250	48	-53.4	-85.1	99	1
2023-08-27T00:00	21271	48	-53.5	-85.2	108	1
2023-08-27T00:00	21298	48	-53.7	-85.3	118	1
2023-08-27T00:00	21323	47	-53.8	-85.4	124	1
2023-08-27T00:00	21343	47	-53.9	-85.5	121	1
2023-08-27T00:00	21369	47	-54.0	-85.5	112	1
2023-08-27T00:00	21398	47	-54.1	-85.6	104	1
2023-08-27T00:00	21416	47	-53.9	-85.5	96	2
2023-08-27T00:00	21441	46	-53.7	-85.3	88	2
2023-08-27T00:00	21464	46	-53.8	-85.4	82	2
2023-08-27T00:00	21491	46	-53.8	-85.4	76	2
2023-08-27T00:00	21516	46	-53.9	-85.5	73	2
2023-08-27T00:00	21531	46	-54.0	-85.5	74	2
2023-08-27T00:00	21560	46	-54.2	-85.7	78	2
2023-08-27T00:00	21584	45	-54.4	-85.8	86	3
2023-08-27T00:00	21610	45	-54.3	-85.8	93	3
2023-08-27T00:00	21635	45	-54.4	-85.8	98	3
2023-08-27T00:00	21662	45	-54.4	-85.8	100	4
2023-08-27T00:00	21687	45	-54.4	-85.8	102	4
2023-08-27T00:00	21713	45	-54.3	-85.8	104	4
2023-08-27T00:00	21736	44	-53.9	-85.5	108	5
2023-08-27T00:00	21759	44	-53.8	-85.4	115	5
2023-08-27T00:00	21785	44	-53.9	-85.5	125	5
2023-08-27T00:00	21815	44	-53.9	-85.5	137	5
2023-08-27T00:00	21840	44	-53.9	-85.5	149	5
2023-08-27T00:00	21865	43	-53.9	-85.5	159	5
2023-08-27T00:00	21888	43	-53.8	-85.4	168	5
2023-08-27T00:00	21918	43	-53.5	-85.2	174	5
2023-08-27T00:00	21944	43	-53.6	-85.3	179	5
2023-08-27T00:00	21969	43	-53.6	-85.3	182	5
2023-08-27T00:00	21995	43	-53.7	-85.3	184	5
2023-08-27T00:00	22024	42	-53.8	-85.4	185	4
2023-08-27T00:00	22044	42	-53.9	-85.5	186	4
2023-08-27T00:00	22076	42	-53.9	-85.5	187	4
2023-08-27T00:00	22105	42	-53.9	-85.5	187	3
2023-08-27T00:00	22125	42	-54.0	-85.5	185	3
2023-08-27T00:00	22157	42	-53.8	-85.4	179	3
2023-08-27T00:00	22177	41	-53.4	-85.8	168	2
2023-08-27T00:00	22210	41	-53.3	-85.7	153	2
2023-08-27T00:00	22235	41	-53.5	-85.9	141	3
2023-08-27T00:00	22266	41	-53.6	-85.3	134	3
2023-08-27T00:00	22285	41	-53.8	-85.4	132	3
2023-08-27T00:00	22317	41	-53.9	-85.5	134	4
2023-08-27T00:00	22344	40	-53.8	-85.4	138	4
2023-08-27T00:00	22365	40	-53.9	-85.5	142	4
2023-08-27T00:00	22394	40	-53.9	-85.5	147	5
2023-08-27T00:00	22419	40	-54.0	-85.5	150	5
2023-08-27T00:00	22445	40	-54.0	-85.5	154	5
2023-08-27T00:00	22472	40	-54.1	-85.6	159	5
2023-08-27T00:00	22494	39	-54.1	-85.6	165	5
2023-08-27T00:00	22522	39	-54.2	-85.7	174	5
2023-08-27T00:00	22542	39	-54.3	-85.8	182	5
2023-08-27T00:00	22569	39	-54.4	-85.8	189	5
2023-08-27T00:00	22589	39	-54.6	-86.0	193	5
2023-08-27T00:00	22615	39	-54.7	-86.1	194	5
2023-08-27T00:00	22641	39	-54.7	-86.1	195	4
2023-08-27T00:00	22663	38	-54.7	-86.1	194	4
2023-08-27T00:00	22690	38	-54.6	-86.0	193	4
2023-08-27T00:00	22712	38	-54.8	-86.1	192	4
2023-08-27T00:00	22739	38	-54.8	-86.1	190	4
2023-08-27T00:00	22761	38	-54.7	-86.1	189	4
2023-08-27T00:00	22784	38	-54.6	-86.0	188	4
2023-08-27T00:00	22805	38	-54.4	-85.8	188	5
2023-08-27T00:00	22833	37	-54.5	-85.9	189	5
2023-08-27T00:00	22856	37	-54.5	-85.9	192	5
2023-08-27T00:00	22878	37	-54.5	-85.9	196	5
2023-08-27T00:00	22899	37	-54.5	-85.9	200	5
2023-08-27T00:00	22917	37	-54.6	-86.0	205	5
2023-08-27T00:00	22952	37	-54.6	-86.0	209	5
2023-08-27T00:00	22969	37	-54.6	-86.0	214	4
2023-08-27T00:00	22990	36	-54.7	-86.1	219	4
2023-08-27T00:00	23013	36	-54.7	-86.1	225	4
2023-08-27T00:00	23043	36	-54.6	-86.0	232	4
2023-08-27T00:00	23066	36	-54.4	-85.8	238	4
2023-08-27T00:00	23084	36	-54.4	-85.8	246	3
2023-08-27T00:00	23111	36	-54.3	-85.8	256	3
2023-08-27T00:00	23138	36	-54.2	-86.4	268	2
2023-08-27T00:00	23162	36	-54.1	-86.3	283	2
2023-08-27T00:00	23184	35	-54.0	-86.2	299	2
2023-08-27T00:00	23208	35	-53.7	-86.0	316	2
2023-08-27T00:00	23234	35	-53.7	-86.0	333	2
2023-08-27T00:00	23253	35	-53.7	-86.0	353	1
2023-08-27T00:00	23286	35	-53.8	-85.4	19	1
2023-08-27T00:00	23312	35	-54.0	-85.5	52	1
2023-08-27T00:00	23334	35	-54.1	-85.6	88	1
2023-08-27T00:00	23357	34	-54.0	-85.5	118	1
2023-08-27T00:00	23384	34	-53.9	-85.5	143	1
2023-08-27T00:00	23407	34	-53.8	-85.4	169	1
2023-08-27T00:00	23438	34	-53.7	-86.0	215	1
2023-08-27T00:00	23464	34	-53.7	-86.0	289	1
2023-08-27T00:00	23489	34	-53.7	-86.0	320	1
2023-08-27T00:00	23513	34	-53.6		333	2
2023-08-27T00:00	23545	34	-53.6		340	3
2023-08-27T00:00	23567	33	-53.6		346	4
2023-08-27T00:00	23593	33	-53.6	-85.3	350	4
2023-08-27T00:00	23615	33	-53.7	-85.3	355	4
2023-08-27T00:00	23647	33	-53.7	-85.3	1	4
2023-08-27T00:00	23675	33	-53.7	-85.3	9	4
2023-08-27T00:00	23703	33	-53.7	-85.3	18	3
2023-08-27T00:00	23729	33	-53.9	-85.5	28	3
2023-08-27T00:00	23753	32	-54.0	-85.5	37	2
2023-08-27T00:00	23784	32	-54.0	-86.2	41	2
2023-08-27T00:00	23806	32	-53.6		40	2
2023-08-27T00:00	23830	32	-53.5	-85.9	36	3
2023-08-27T00:00	23861	32	-53.4	-85.8	32	3
2023-08-27T00:00	23891	32	-53.3	-85.7	31	4
2023-08-27T00:00	23920	32	-53.2	-85.6	31	5
2023-08-27T00:00	23945	31	-53.2	-85.6	33	5
2023-08-27T00:00	23972	31	-53.2	-85.6	37	6
2023-08-27T00:00	24001	31	-53.1	-85.6	42	6
2023-08-27T00:00	24025	31	-53.1	-85.6	49	6
2023-08-27T00:00	24059	31	-53.2	-85.6	56	6
2023-08-27T00:00	24083	31	-53.2	-85.6	62	6
2023-08-27T00:00	24116	31	-53.3	-85.7	67	7
2023-08-27T00:00	24140	31	-53.2	-85.6	70	7
2023-08-27T00:00	24165	30	-53.2	-85.6	71	7
2023-08-27T00:00	24189	30	-53.1	-85.6	73	6
2023-08-27T00:00	24218	30	-53.1	-85.6	74	6
2023-08-27T00:00	24251	30	-52.9	-85.4	75	6
2023-08-27T00:00	24277	30	-52.6	-85.2	76	6
2023-08-27T00:00	24305	30	-52.3	-85.0	76	6
2023-08-27T00:00	24326	30	-52.3	-85.0	77	6
2023-08-27T00:00	24355	30	-52.2	-84.9	78	5
2023-08-27T00:00	24383	29	-52.2	-84.9	80	5
2023-08-27T00:00	24412	29	-52.3	-85.0	82	5
2023-08-27T00:00	24434	29	-52.4	-85.1	84	5
2023-08-27T00:00	24472	29	-52.4	-85.1	86	5
2023-08-27T00:00	24487	29	-52.6	-85.2	89	6
2023-08-27T00:00	24512	29	-52.7	-85.3	91	6
2023-08-27T00:00	24538	29	-52.8	-85.3	93	6
2023-08-27T00:00	24564	29	-52.8	-85.3	96	6
2023-08-27T00:00	24587	28	-52.6	-85.2	98	7
2023-08-27T00:00	24621	28	-52.5	-85.1	101	7
2023-08-27T00:00	24637	28	-52.5	-85.1	103	7
2023-08-27T00:00	24666	28	-52.6	-85.2	107	7
2023-08-27T00:00	24688	28	-52.7	-85.3	110	6
2023-08-27T00:00	24721	28	-52.8	-85.3	114	6
2023-08-27T00:00	24746	28	-52.9	-85.4	119	6
2023-08-27T00:00	24765	28	-52.8	-85.3	125	5
2023-08-27T00:00	24792	28	-52.9	-85.4	132	5
2023-08-27T00:00	24817	28	-52.9	-85.4	138	5
2023-08-27T00:00	24839	27	-52.9	-85.4	142	5
2023-08-27T00:00	24869	27	-52.9	-85.4	143	5
2023-08-27T00:00	24899	27	-52.9	-85.4	142	5
2023-08-27T00:00	24919	27	-52.8	-85.3	139	5
2023-08-27T00:00	24940	27	-52.8	-85.3	137	5
2023-08-27T00:00	24965	27	-53.0	-85.5	136	5
2023-08-27T00:00	24993	27	-52.7	-85.3	137	5
2023-08-27T00:00	25016	27	-52.7	-85.3	138	5
2023-08-27T00:00	25045	27	-52.7	-85.3	137	4
2023-08-27T00:00	25068	26	-52.7	-85.3	134	4
2023-08-27T00:00	25097	26	-52.4	-85.1	128	4
2023-08-27T00:00	25123	26	-52.2	-85.7	122	3
2023-08-27T00:00	25142	26	-52.2	-85.7	119	3
2023-08-27T00:00	25171	26	-51.9	-85.5	122	3
2023-08-27T00:00	25198	26	-51.6	-85.2	130	4
2023-08-27T00:00	25221	26	-51.3	-85.0	139	4
2023-08-27T00:00	25249	26	-51.0	-84.8	148	5
2023-08-27T00:00	25277	26	-50.8	-84.7	156	6
2023-08-27T00:00	25300	26	-50.7	-85.5	163	6
2023-08-27T00:00	25323	25	-50.4	-84.4	170	6
2023-08-27T00:00	25351	25	-50.4	-84.4	177	7
2023-08-27T00:00	25379	25	-50.4	-84.4	184	7
2023-08-27T00:00	25411	25	-50.6	-84.5	190	7
2023-08-27T00:00	25441	25	-50.7	-84.6	195	7
2023-08-27T00:00	25462	25	-50.9	-84.7	198	7
2023-08-27T00:00	25493	25	-51.1	-84.9	197	6
2023-08-27T00:00	25521	25	-51.0	-84.8	194	6
2023-08-27T00:00	25557	25	-50.5	-84.5	190	5
2023-08-27T00:00	25585	24	-50.5	-84.5	185	5
2023-08-27T00:00	25608	24	-50.6	-84.5	182	4
2023-08-27T00:00	25634	24	-50.6	-84.5	180	4
2023-08-27T00:00	25667	24	-50.3	-84.3	181	3
2023-08-27T00:00	25696	24	-50.3	-84.3	184	3
2023-08-27T00:00	25724	24	-50.4	-84.4	189	2
2023-08-27T00:00	25749	24	-50.4	-84.4	196	2
2023-08-27T00:00	25770	24	-50.2	-84.2	204	2
2023-08-27T00:00	25811	24	-50.2	-85.1	213	3
2023-08-27T00:00	25832	24	-50.2	-85.1	223	3
2023-08-27T00:00	25867	23	-49.8	-84.8	233	3
2023-08-27T00:00	25888	23	-49.6	-84.7	243	3
2023-08-27T00:00	25918	23	-49.4	-84.6	253	3
2023-08-27T00:00	25945	23	-49.4	-84.6	265	3
2023-08-27T00:00	25974	23	-49.4	-84.6	280	3
2023-08-27T00:00	25996	23	-48.9	-84.2	299	2
2023-08-27T00:00	26021	23	-48.3	-84.8	319	2
2023-08-27T00:00	26043	23	-47.9	-84.6	337	2
2023-08-27T00:00	26077	23	-47.7	-84.4	348	3
2023-08-27T00:00	26106	23	-47.6	-84.3	353	3
2023-08-27T00:00	26134	22	-47.5	-84.3	351	2
2023-08-27T00:00	26156	22	-47.4	-84.2	343	2
2023-08-27T00:00	26178	22	-46.8	-83.8	325	2
2023-08-27T00:00	26218	22	-46.9	-83.9	296	2
2023-08-27T00:00	26231	22	-47.0	-83.9	266	2
2023-08-27T00:00	26260	22	-47.1	-84.0	246	2
2023-08-27T00:00	26286	22	-47.3	-84.1	236	3
2023-08-27T00:00	26313	22	-47.4	-84.2	234	4
2023-08-27T00:00	26342	22	-47.2	-84.1	235	4
2023-08-27T00:00	26369	22	-47.1	-84.0	240	4
2023-08-27T00:00	26392	22	-47.0	-83.9	247	4
2023-08-27T00:00	26423	22	-46.6	-83.6	255	4
2023-08-27T00:00	26458	21	-46.4	-83.5	263	4
2023-08-27T00:00	26472	21	-46.3	-83.4	272	3
2023-08-27T00:00	26493	21	-45.9	-83.2	281	3
2023-08-27T00:00	26521	21	-45.8	-83.1	291	3
2023-08-27T00:00	26554	21	-45.6	-82.9	301	3
2023-08-27T00:00	26579	21	-45.5	-82.9	309	3
2023-08-27T00:00	26600	21	-45.5	-82.9	315	3
2023-08-27T00:00	26632	21	-45.5	-82.9	320	3
2023-08-27T00:00	26658	21	-45.5	-82.9	323	3
2023-08-27T00:00	26690	21	-45.7	-83.0	326	4
2023-08-27T00:00	26707	21	-45.8	-83.1	330	3
2023-08-27T00:00	26736	21	-45.9	-83.2	334	3
2023-08-27T00:00	26759	20	-46.0	-83.2	339	3
2023-08-27T00:00	26789	20	-46.2	-83.4	342	3
2023-08-27T00:00	26807	20	-46.3	-83.4	344	3
2023-08-27T00:00	26847	20	-46.5	-83.6	346	3
2023-08-27T00:00	26865	20	-46.2	-83.4	347	4
2023-08-27T00:00	26893	20	-46.1	-83.3	350	4
2023-08-27T00:00	26917	20	-46.0	-83.2	353	4
2023-08-27T00:00	26942	20	-46.0	-83.2	355	4
2023-08-27T00:00	26985	20	-45.9	-83.2	357	4
2023-08-27T00:00	26997	20	-45.8	-83.1	358	4
2023-08-27T00:00	27038	20	-45.6	-82.9	359	4
2023-08-27T00:00	27055	20	-45.5	-82.9	359	4
2023-08-27T00:00	27088	19	-45.2	-82.7	1	3
2023-08-27T00:00	27113	19	-45.2	-82.7	7	2
2023-08-27T00:00	27139	19	-45.2	-82.7	19	2
2023-08-27T00:00	27173	19	-45.4	-82.8	37	2
2023-08-27T00:00	27203	19	-45.4	-82.8	55	2
2023-08-27T00:00	27230	19	-45.4	-82.8	67	2
2023-08-27T00:00	27250	19	-45.3	-82.7	75	3
2023-08-27T00:00	27285	19	-45.3	-82.7	81	3
2023-08-27T00:00	27316	19	-45.3	-82.7	86	3
2023-08-27T00:00	27343	19	-45.3	-82.7	91	3
2023-08-27T00:00	27365	19	-45.1	-82.6	99	3
2023-08-27T00:00	27409	19	-45.2	-82.7	110	2
2023-08-27T00:00	27417	19	-45.1	-82.6	123	2
2023-08-27T00:00	27446	18	-44.9	-82.5	138	2
2023-08-27T00:00	27478	18	-44.8	-82.4	155	1
2023-08-27T00:00	27513	18	-45.0	-82.5	176	1
2023-08-27T00:00	27544	18	-45.0	-82.5	198	1
2023-08-27T00:00	27567	18	-45.1	-82.6	214	1
2023-08-27T00:00	27605	18	-45.1	-82.6	222	1
2023-08-27T00:00	27631	18	-45.1	-82.6	226	1
2023-08-27T00:00	27663	18	-45.3	-82.7	232	1
2023-08-27T00:00	27691	18	-45.4	-82.8	243	1
2023-08-27T00:00	27720	18	-45.5	-82.9	253	2
2023-08-27T00:00	27753	18	-45.5	-82.9	259	2
2023-08-27T00:00	27766	18	-45.3	-82.7	261	2
2023-08-27T00:00	27801	17	-45.2	-82.7	261	2
2023-08-27T00:00	27832	17	-45.2	-82.7	261	2
2023-08-27T00:00	27859	17	-45.1	-82.6	259	1
2023-08-27T00:00	27889	17	-45.1	-82.6	252	1
2023-08-27T00:00	27913	17	-44.9	-82.5	234	1
2023-08-27T00:00	27930	17	-44.8	-82.4	223	1
2023-08-27T00:00	27968	17	-44.7	-82.3	222	2
2023-08-27T00:00	27990	17	-44.4	-82.1	223	3
2023-08-27T00:00	28019	17	-44.4	-82.1	222	3
2023-08-27T00:00	28052	17	-44.4	-82.1	221	3
2023-08-27T00:00	28081	17	-44.4	-82.1	217	3
2023-08-27T00:00	28109	17	-44.1	-81.9	210	3
2023-08-27T00:00	28141	17	-44.1	-81.9	198	2
2023-08-27T00:00	28157	17	-44.1	-81.9	182	2
2023-08-27T00:00	28195	17	-44.2	-82.0	164	2
2023-08-27T00:00	28215	16	-44.2	-82.0	148	2
2023-08-27T00:00	28253	16	-44.0	-81.8	137	3
2023-08-27T00:00	28270	16	-43.3	-81.3	131	3
2023-08-27T00:00	28314	16	-43.3	-81.3	130	3
2023-08-27T00:00	28328	16	-43.5	-81.5	132	4
2023-08-27T00:00	28359	16	-43.6	-81.5	138	3
2023-08-27T00:00	28391	16	-43.6	-81.5	150	3
2023-08-27T00:00	28402	16	-43.5	-81.5	166	3
2023-08-27T00:00	28437	16	-43.7	-81.6	183	3
2023-08-27T00:00	28457	16	-43.8	-81.7	196	4
2023-08-27T00:00	28490	16	-43.7	-81.6	204	4
2023-08-27T00:00	28519	16	-43.7	-81.6	210	5
2023-08-27T00:00	28545	16	-43.6	-81.5	214	5
2023-08-27T00:00	28566	16	-43.6	-81.5	219	6
2023-08-27T00:00	28599	16	-43.7	-81.6	224	6
2023-08-27T00:00	28625	15	-43.5	-81.5	229	7
2023-08-27T00:00	28654	15	-43.4	-81.4	235	7
2023-08-27T00:00	28675	15	-43.2	-81.3	240	7
2023-08-27T00:00	28704	15	-43.1	-81.2	245	7
2023-08-27T00:00	28730	15	-43.1	-81.2	251	6
2023-08-27T00:00	28766	15	-43.0	-81.1	256	6
2023-08-27T00:00	28784	15	-42.8	-81.0	263	5
2023-08-27T00:00	28807	15	-42.6	-80.8	270	5
2023-08-27T00:00	28832	15	-42.4	-80.7	278	5
2023-08-27T00:00	28863	15	-42.2	-80.6	288	4
2023-08-27T00:00	28896	15	-42.2	-80.6	299	4
2023-08-27T00:00	28918	15	-42.2	-80.6	309	4
2023-08-27T00:00	28952	15	-42.1	-80.5	318	3
2023-08-27T00:00	28974	15	-42.1	-80.5	326	3
2023-08-27T00:00	28994	15	-42.1	-80.5	333	3
2023-08-27T00:00	29022	15	-42.2	-80.6	341	2
2023-08-27T00:00	29044	15	-42.1	-80.5	349	2
2023-08-27T00:00	29086	14	-42.0	-80.4	1	1
2023-08-27T00:00	29095	14	-42.1	-80.5	18	1
2023-08-27T00:00	29122	14	-42.2	-80.6	54	1
2023-08-27T00:00	29155	14	-42.3	-80.6	101	1
2023-08-27T00:00	29186	14	-42.3	-80.6	129	1
2023-08-27T00:00	29214	14	-42.3	-80.6	144	2
2023-08-27T00:00	29250	14	-42.2	-80.6	154	2
2023-08-27T00:00	29287	14	-42.1	-80.5	162	3
2023-08-27T00:00	29317	14	-42.1	-80.5	168	3
2023-08-27T00:00	29340	14	-42.0	-80.4	172	3
2023-08-27T00:00	29374	14	-41.6	-80.1	174	4
2023-08-27T00:00	29405	14	-41.4	-80.0	175	4
2023-08-27T00:00	29437	14	-41.4	-80.0	176	5
2023-08-27T00:00	29455	14	-41.6	-80.1	176	5
2023-08-27T00:00	29494	14	-41.8	-80.3	176	6
2023-08-27T00:00	29514	14	-42.0	-80.4	177	6
2023-08-27T00:00	29559	13	-42.1	-80.5	179	6
2023-08-27T00:00	29593	13	-42.2	-80.6	182	5
2023-08-27T00:00	29604	13	-42.1	-80.5	186	5
2023-08-27T00:00	29636	13	-42.2	-80.6	192	5
2023-08-27T00:00	29665	13	-42.2	-80.6	197	5
2023-08-27T00:00	29704	13	-42.3	-80.6	203	5
2023-08-27T00:00	29743	13	-42.4	-80.7	207	5
2023-08-27T00:00	29756	13	-42.4	-80.7	210	5
2023-08-27T00:00	29793	13	-42.3	-80.6	213	5
2023-08-27T00:00	29817	13	-42.3	-80.6	216	5
2023-08-27T00:00	29832	13	-42.3	-80.6	220	5
2023-08-27T00:00	29881	13	-42.3	-80.6	225	4
2023-08-27T00:00	29898	13	-42.3	-80.6	230	4
2023-08-27T00:00	29938	13	-42.4	-80.7	236	4
2023-08-27T00:00	29961	13	-42.5	-80.8	243	3
2023-08-27T00:00	29994	13	-42.4	-80.7	250	3
2023-08-27T00:00	30024	13	-42.4	-80.7	257	3
2023-08-27T00:00	30039	13	-42.5	-80.8	265	3
2023-08-27T00:00	30069	13	-42.6	-80.8	271	3
2023-08-27T00:00	30100	12	-42.6	-80.8	276	2
2023-08-27T00:00	30117	12	-42.4	-80.7	281	2
2023-08-27T00:00	30147	12	-42.3	-80.6	284	2
2023-08-27T00:00	30186	12	-41.9	-80.4	285	2
2023-08-27T00:00	30201	12	-41.9	-80.4	283	1
2023-08-27T00:00	30238	12	-41.8	-80.3	261	1
2023-08-27T00:00	30265	12	-41.7	-80.2	195	1
2023-08-27T00:00	30285	12	-41.7	-80.2	168	1
2023-08-27T00:00	30313	12	-41.6	-80.1	162	2
2023-08-27T00:00	30329	12	-41.4	-80.0	159	3
2023-08-27T00:00	30348	12	-41.4	-80.0	158	4
2023-08-27T00:00	30377	12	-41.4	-80.0	157	4
2023-08-27T00:00	30401	12	-41.4	-80.0	157	5
2023-08-27T00:00	30437	12	-41.4	-80.0	159	5
2023-08-27T00:00	30450	12	-41.4	-80.0	162	5
2023-08-27T00:00	30498	12	-41.2	-79.9	166	5
2023-08-27T00:00	30521	12	-41.0	-79.7	172	4
2023-08-27T00:00	30546	12	-40.7	-79.5	176	3
2023-08-27T00:00	30569	12	-40.5	-79.4	180	2
2023-08-27T00:00	30590	12	-40.4	-79.3	173	1
2023-08-27T00:00	30612	12	-40.2	-79.2	87	1
2023-08-27T00:00	30653	11	-40.0	-79.0	51	2
2023-08-27T00:00	30675	11	-39.9	-79.0	50	3
2023-08-27T00:00	30696	11	-40.0	-79.0	54	4
2023-08-27T00:00	30735	11	-39.8	-78.9	59	5
2023-08-27T00:00	30744	11	-39.3	-78.5	65	5
2023-08-27T00:00	30764	11	-38.8	-78.2	72	6
2023-08-27T00:00	30799	11	-38.8	-78.2	79	6
2023-08-27T00:00	30817	11	-38.9	-78.3	85	6
2023-08-27T00:00	30836	11	-38.9	-78.3	91	6
2023-08-27T00:00	30869	11	-39.0	-78.3	97	6
2023-08-27T00:00	30888	11	-38.9	-78.3	103	7
2023-08-27T00:00	30917	11	-38.9	-78.3	108	7
2023-08-27T00:00	30945	11	-38.9	-78.3	112	6
2023-08-27T00:00	30960	11	-38.8	-78.2	115	6
2023-08-27T00:00	30986	11	-38.8	-78.2	116	5
2023-08-27T00:00	31013	11	-38.7	-78.1	115	5
2023-08-27T00:00	31069	11	-38.5	-78.0	114	4
2023-08-27T00:00	31092	11	-38.1	-77.7	111	4
2023-08-27T00:00	31115	11	-38.0	-77.6	111	3
2023-08-27T00:00	31155	11	-37.9	-77.6	111	3
2023-08-27T00:00	31159	11	-37.8	-77.5	112	3
2023-08-27T00:00	31210	11	-37.8	-77.5	114	3
2023-08-27T00:00	31237	11	-37.8	-77.5	116	3
2023-08-27T00:00	31257	11	-37.9	-77.6	119	3
2023-08-27T00:00	31290	10	-37.9	-77.6	123	3
2023-08-27T00:00	31311	10	-38.0	-77.6	128	3
2023-08-27T00:00	31347	10	-38.1	-77.7	133	3
2023-08-27T00:00	31388	10	-38.1	-77.7	135	3
2023-08-27T00:00	31417	10	-38.2	-77.8	137	3
2023-08-27T00:00	31433	10	-38.3	-77.9	135	2
2023-08-27T00:00	31474	10	-38.2	-77.8	134	2
2023-08-27T00:00	31490	10	-38.0	-77.6	136	2
2023-08-27T00:00	31528	10	-37.7	-77.4	142	2
2023-08-27T00:00	31556	10	-37.5	-77.3	156	2
2023-08-27T00:00	31587	10	-37.6	-77.4	172	2
2023-08-27T00:00	31620	10	-37.7	-77.4	184	2
2023-08-27T00:00	31641	10	-37.7	-77.4	193	3
2023-08-27T00:00	31669	10	-37.7	-77.4	198	3
2023-08-27T00:00	31687	10	-37.7	-77.4	202	4
2023-08-27T00:00	31708	10	-37.8	-77.5	206	4
2023-08-27T00:00	31748	10	-37.8	-77.5	209	4
2023-08-27T00:00	31773	10	-37.9	-77.6	211	4
2023-08-27T00:00	31789	10	-38.0	-77.6	213	4
2023-08-27T00:00	31844	10	-37.9	-77.6	214	3
2023-08-27T00:00	31866	10	-37.6	-77.4	215	3
2023-08-27T00:00	31892	10	-37.6	-77.4	212	2
2023-08-27T00:00	31933	10	-37.6	-77.4	199	1
2023-08-27T00:00	31964	9	-37.7	-77.4	84	1
2023-08-27T00:00	31994	9	-37.8	-77.5	79	2
2023-08-27T00:00	32024	9	-37.8	-77.5	83	2
2023-08-27T00:00	32064	9	-37.9	-77.6	91	3
2023-08-27T00:00	32081	9	-37.8	-77.5	102	3
2023-08-27T00:00	32115	9	-37.6	-77.4	112	4
2023-08-27T00:00	32117	9	-37.3	-77.2	120	4
2023-08-27T00:00	32186	9	-37.0	-77.0	126	5
2023-08-27T00:00	32206	9	-37.0	-77.0	132	6
2023-08-27T00:00	32251	9	-37.1	-77.0	135	6
2023-08-27T00:00	32260	9	-37.0	-77.0	139	6
2023-08-27T00:00	32305	9	-36.9	-76.9	144	6
2023-08-27T00:00	32327	9	-36.9	-76.9	155	7
2023-08-27T00:00	32376	9	-36.9	-76.9	161	7
2023-08-27T00:00	32398	9	-36.7	-76.7	165	7
2023-08-27T00:00	32425	9	-36.6	-76.7	169	7
2023-08-27T00:00	32447	9	-36.6	-76.7	173	8
2023-08-27T00:00	32465	9	-36.4	-76.5	176	8
2023-08-27T00:00	32466	9	-36.3	-76.5	179	8
2023-08-27T00:00	32510	9	-36.3	-76.5	182	8
2023-08-27T00:00	32546	9	-36.1	-76.3	185	8
2023-08-27T00:00	32548	9	-35.8	-76.1	187	7
2023-08-27T00:00	32580	9	-35.8	-76.1	187	7
2023-08-27T00:00	32616	9	-35.8	-76.1	186	7
2023-08-27T00:00	32622	9	-35.7	-76.1	185	6
2023-08-27T00:00	32641	9	-35.7	-76.1	183	6
2023-08-27T00:00	32673	9	-35.5	-75.9	181	6
2023-08-27T00:00	32692	9	-35.3	-75.8	180	5
2023-08-27T00:00	32709	9	-35.1	-75.6	181	5
2023-08-27T00:00	32762	9	-35.1	-75.6	182	6
2023-08-27T00:00	32768	8	-34.6	-75.3	187	6
2023-08-27T00:00	32815	8	-34.3	-75.1	189	6
2023-08-27T00:00	32837	8	-34.0	-74.9	190	5
2023-08-27T00:00	32852	8	-33.8	-74.7	189	5
2023-08-27T00:00	32879	8	-33.6	-74.6	186	5
2023-08-27T00:00	32904	8	-33.5	-74.5	180	5
2023-08-27T00:00	32926	8	-33.3	-74.4	173	5
2023-08-27T00:00	32950	8	-33.1	-74.3	166	5
2023-08-27T00:00	32972	8	-33.0	-74.2	160	5
2023-08-27T00:00	33000	8	-32.8	-74.1	156	6
2023-08-27T00:00	33049	8	-32.4	-73.8	155	7
2023-08-27T00:00	33073	8	-31.9	-73.4	156	8
2023-08-27T00:00	33097	8	-31.8	-73.4	158	9
2023-08-27T00:00	33133	8	-31.8	-73.4	163	10
2023-08-27T00:00	33169	8	-32.0	-73.5	166	10
2023-08-27T00:00	33180	8	-31.9	-73.4	169	10
2023-08-27T00:00	33208	8	-32.0	-73.5	172	10
2023-08-27T00:00	33241	8	-32.3	-73.7	175	10
2023-08-27T00:00	33284	8	-32.4	-73.8	179	10
2023-08-27T00:00	33299	8	-32.6	-73.9	182	10
2023-08-27T00:00	33329	8	-32.8	-74.1	185	11
2023-08-27T00:00	33358	8	-32.8	-74.1	187	11
2023-08-27T00:00	33394	8	-33.0	-74.2	190	11
2023-08-27T00:00	33442	8	-33.2	-74.3	192	11
2023-08-27T00:00	33456	8	-33.4	-74.5	195	11
2023-08-27T00:00	33506	8	-33.5	-74.5	198	11
2023-08-27T00:00	33552	8	-33.7	-74.7	204	10
2023-08-27T00:00	33591	8	-33.7	-74.7	208	9
2023-08-27T00:00	33627	8	-33.6	-74.6	211	9
2023-08-27T00:00	33643	7	-33.4	-74.5	213	8
2023-08-27T00:00	33704	7	-33.5	-74.5	215	7
2023-08-27T00:00	33740	7	-33.4	-74.5	214	7
2023-08-27T00:00	33752	7	-33.2	-74.3	213	6
2023-08-27T00:00	33785	7	-33.2	-74.3	212	6
2023-08-27T00:00	33806	7	-33.1	-74.3	212	5
2023-08-27T00:00	33867	7	-33.0	-74.2	214	5
2023-08-27T00:00	33886	7	-32.7	-74.0	216	4
2023-08-27T00:00	33918	7	-32.8	-74.1	218	4
2023-08-27T00:00	33964	7	-32.8	-74.1	221	4
2023-08-27T00:00	33972	7	-33.1	-74.3	222	3
2023-08-27T00:00	34003	7	-33.4	-74.5	225	3
2023-08-27T00:00	34058	7	-33.6	-74.6	229	3
2023-08-27T00:00	34081	7	-33.8	-74.7	234	4
2023-08-27T00:00	34116	7	-33.7	-74.7	241	4
2023-08-27T00:00	34148	7	-33.8	-74.7	248	4
2023-08-27T00:00	34192	7	-34.1	-75.0	255	4
2023-08-27T00:00	34211	7	-34.2	-75.0	268	5
2023-08-27T00:00	34249	7	-34.2	-75.0	272	5
2023-08-27T00:00	34273	7	-34.3	-75.1	274	4
2023-08-27T00:00	34308	7	-34.3	-75.1	274	4
2023-08-27T00:00	34331	7	-34.4	-75.2	272	4
2023-08-27T00:00	34354	7	-34.3	-75.1	267	3
2023-08-27T00:00	34398	7	-34.3	-75.1	261	3
2023-08-27T00:00	34430	7	-34.4	-75.2	254	3
2023-08-27T00:00	34442	7	-34.4	-75.2	247	3
2023-08-27T00:00	34453	7	-34.5	-75.2	241	3
2023-08-27T00:00	34486	7	-34.6	-75.3	237	3
2023-08-27T00:00	34512	7	-34.6	-75.3	238	4
2023-08-27T00:00	34567	7	-34.5	-75.2	241	4
2023-08-27T00:00	34589	7	-34.5	-75.2	246	5
2023-08-27T00:00	34611	7	-34.5	-75.2	250	5
2023-08-27T00:00	34627	7	-34.4	-75.2	253	6
2023-08-27T00:00	34635	6	-34.1	-75.0	254	6
2023-08-27T00:00	34655	6	-33.9	-74.8	252	7
2023-08-27T00:00	34707	6	-33.8	-74.7	250	7
2023-08-27T00:00	34760	6	-33.4	-74.5	243	7
2023-08-27T00:00	34762	6	-33.3	-74.4	244	7
2023-08-27T00:00	34799	6	-33.2	-74.3	247	6
2023-08-27T06:00	112	998	16.4	12.0	110	2
2023-08-27T06:00	133	996	16.8	11.3	78	2
2023-08-27T06:00	158	993	17.8	8.7	84	2
2023-08-27T06:00	177	990	18.1	8.6	86	3
2023-08-27T06:00	202	988	18.0	8.5	87	3
2023-08-27T06:00	229	985	17.9	8.3	88	3
2023-08-27T06:00	252	982	17.8	8.2	88	4
2023-08-27T06:00	272	979	17.6	8.1	88	4
2023-08-27T06:00	298	977	17.4	7.8	88	4
2023-08-27T06:00	314	975	17.2	7.8	88	4
2023-08-27T06:00	334	972	17.1	8.0	87	3
2023-08-27T06:00	360	970	16.9	8.0	88	3
2023-08-27T06:00	382	967	16.7	7.7	90	3
2023-08-27T06:00	410	964	16.5	7.5	93	2
2023-08-27T06:00	434	961	16.4	8.0	95	2
2023-08-27T06:00	453	959	16.2	7.8	95	2
2023-08-27T06:00	478	956	16.0	7.8	94	2
2023-08-27T06:00	501	954	15.8	7.7	94	2
2023-08-27T06:00	526	951	15.6	7.6	94	3
2023-08-27T06:00	546	948	15.4	7.6	94	3
2023-08-27T06:00	572	946	15.2	7.5	95	3
2023-08-27T06:00	596	943	15.0	7.5	95	3
2023-08-27T06:00	616	941	14.8	7.5	95	2
2023-08-27T06:00	639	938	14.6	7.5	93	2
2023-08-27T06:00	664	936	14.4	7.5	89	2
2023-08-27T06:00	688	933	14.2	7.5	80	2
2023-08-27T06:00	715	930	14.0	7.5	65	1
2023-08-27T06:00	743	927	13.7	7.3	46	1
2023-08-27T06:00	768	924	13.5	7.2	33	1
2023-08-27T06:00	793	921	13.3	6.7	28	1
2023-08-27T06:00	819	918	13.1	6.4	28	2
2023-08-27T06:00	843	916	12.9	5.8	31	2
2023-08-27T06:00	868	913	12.7	5.3	34	1
2023-08-27T06:00	901	910	12.6	5.4	36	1
2023-08-27T06:00	925	907	12.5	5.7	35	1
2023-08-27T06:00	946	905	12.3	5.1	31	1
2023-08-27T06:00	972	902	12.3	4.2	21	1
2023-08-27T06:00	998	899	12.2	4.0	7	1
2023-08-27T06:00	1027	896	12.0	4.0	355	1
2023-08-27T06:00	1054	893	11.8	3.4	346	1
2023-08-27T06:00	1082	890	11.6	3.3	340	1
2023-08-27T06:00	1108	887	11.3	3.8	336	1
2023-08-27T06:00	1136	884	11.1	4.2	333	1
2023-08-27T06:00	1163	882	10.9	4.3	329	1
2023-08-27T06:00	1188	879	10.7	4.4	315	1
2023-08-27T06:00	1217	876	10.5	3.4	268	0
2023-08-27T06:00	1236	874	10.5		231	1
2023-08-27T06:00	1264	871	10.3	3.3	224	1
2023-08-27T06:00	1289	868	10.1	3.0	223	1
2023-08-27T06:00	1315	866	10.0	3.0	224	2
2023-08-27T06:00	1338	863	9.8	2.8	225	2
2023-08-27T06:00	1368	860	9.6	2.7	226	2
2023-08-27T06:00	1390	858	9.5		226	3
2023-08-27T06:00	1412	855	9.3	2.7	227	3
2023-08-27T06:00	1441	852	9.1	2.5	229	3
2023-08-27T06:00	1471	849	9.0	2.8	231	4
2023-08-27T06:00	1501	846	8.9	2.7	234	4
2023-08-27T06:00	1530	843	8.9	2.3	236	4
2023-08-27T06:00	1561	840	8.9	1.5	238	4
2023-08-27T06:00	1586	838	8.9	1.8	240	4
2023-08-27T06:00	1609	835	8.8	2.2	242	5
2023-08-27T06:00	1638	833	8.8	3.0	244	5
2023-08-27T06:00	1662	830	8.7	3.1	245	5
2023-08-27T06:00	1688	828	8.5	3.1	244	6
2023-08-27T06:00	1711	825	8.4	3.7	241	6
2023-08-27T06:00	1739	822	8.3	3.6	237	6
2023-08-27T06:00	1768	820	8.3	1.0	232	6
2023-08-27T06:00	1797	817	8.2	1.9	229	7
2023-08-27T06:00	1821	814	8.0	2.6	227	7
2023-08-27T06:00	1844	812	7.8	3.4	227	8
2023-08-27T06:00	1869	810	7.5	5.7	226	8
2023-08-27T06:00	1891	807	7.3	6.0	225	9
2023-08-27T06:00	1917	805	7.0	6.3	224	9
2023-08-27T06:00	1945	802	6.8	6.8	222	10
2023-08-27T06:00	1971	799	6.8	6.6	222	10
2023-08-27T06:00	1999	797	6.7	6.6	221	10
2023-08-27T06:00	2030	794	6.5	6.2	221	11
2023-08-27T06:00	2058	791	6.5	6.0	220	11
2023-08-27T06:00	2085	789	6.3	5.7	219	11
2023-08-27T06:00	2115	786	6.4	5.3	218	11
2023-08-27T06:00	2140	783	6.2	5.1	218	12
2023-08-27T06:00	2160	781	6.1	5.2	217	12
2023-08-27T06:00	2190	779	6.0	4.9	217	13
2023-08-27T06:00	2217	776	5.8	4.6	216	13
2023-08-27T06:00	2245	773	5.6	4.5	216	13
2023-08-27T06:00	2271	771	5.3	4.5	217	13
2023-08-27T06:00	2295	769	5.1	4.2	219	13
2023-08-27T06:00	2322	766	5.0	3.7	221	13
2023-08-27T06:00	2346	764	4.9	3.4	225	12
2023-08-27T06:00	2373	761	4.7	3.1	227	13
2023-08-27T06:00	2394	759	4.6	2.8	227	13
2023-08-27T06:00	2418	757	4.4	2.8	227	13
2023-08-27T06:00	2440	755	4.2	2.8	226	13
2023-08-27T06:00	2467	752	4.0	2.9	226	13
2023-08-27T06:00	2497	750	3.7	2.7	227	13
2023-08-27T06:00	2524	747	3.5	2.3	227	13
2023-08-27T06:00	2558	745	3.3		228	13
2023-08-27T06:00	2580	742	3.3	0.9	227	13
2023-08-27T06:00	2603	740	3.9	-1.9	225	13
2023-08-27T06:00	2635	737	4.9	-5.2	224	13
2023-08-27T06:00	2662	735	5.0	-5.6	223	13
2023-08-27T06:00	2686	732	4.8	-5.3	222	13
2023-08-27T06:00	2715	730	4.6	-5.3	221	12
2023-08-27T06:00	2741	728	4.4	-4.8	220	12
2023-08-27T06:00	2763	726	4.2	-4.6	219	12
2023-08-27T06:00	2791	723	4.0	-4.2	217	12
2023-08-27T06:00	2813	721	3.8	-4.1	214	12
2023-08-27T06:00	2841	719	3.5	-3.9	213	12
2023-08-27T06:00	2872	716	3.2	-3.2	212	13
2023-08-27T06:00	2896	714	3.0	-3.2	211	13
2023-08-27T06:00	2919	712	2.8	-3.6	211	14
2023-08-27T06:00	2943	710	2.6	-2.5	211	14
2023-08-27T06:00	2970	707	2.4	-2.7	210	14
2023-08-27T06:00	3001	705	2.1	-2.5	210	15
2023-08-27T06:00	3032	702	1.8	-1.4	210	15
2023-08-27T06:00	3056	700	1.6	-1.3	210	15
2023-08-27T06:00	3085	697	1.3	-1.4	209	15
2023-08-27T06:00	3111	695	1.0	-1.5	208	15
2023-08-27T06:00	3132	693	0.8	-1.5	206	15
2023-08-27T06:00	3156	691	0.6	-1.3	205	16
2023-08-27T06:00	3185	689	0.4	-1.4	205	16
2023-08-27T06:00	3211	687	0.1	-1.6	206	16
2023-08-27T06:00	3243	684	-0.1	-1.7	208	16
2023-08-27T06:00	3269	682	-0.3	-1.8	209	16
2023-08-27T06:00	3298	679	-0.5	-2.4	211	16
2023-08-27T06:00	3327	677	-0.6	-2.3	213	16
2023-08-27T06:00	3351	675	-0.8	-2.1	214	17
2023-08-27T06:00	3378	672	-1.1	-2.0	216	17
2023-08-27T06:00	3405	670	-1.3	-2.1	217	17
2023-08-27T06:00	3431	668	-1.3	-3.6	219	17
2023-08-27T06:00	3458	666	-1.2	-5.9	220	17
2023-08-27T06:00	3484	664	-1.2	-7.2	220	18
2023-08-27T06:00	3505	662	-1.2	-10.1	220	18
2023-08-27T06:00	3534	659	-1.2	-12.8	219	18
2023-08-27T06:00	3556	658	-1.1	-14.2	217	17
2023-08-27T06:00	3578	656	-1.0	-15.9	217	17
2023-08-27T06:00	3604	654	-1.0	-17.9	217	16
2023-08-27T06:00	3632	651	-0.9	-20.1	217	15
2023-08-27T06:00	3656	649	-1.0	-20.9	217	14
2023-08-27T06:00	3682	647	-1.1	-22.7	218	14
2023-08-27T06:00	3704	645	-1.2	-24.4	219	14
2023-08-27T06:00	3728	643	-1.1	-28.2	220	15
2023-08-27T06:00	3760	641	-1.3	-28.1	221	15
2023-08-27T06:00	3792	638	-1.5	-28.1	222	16
2023-08-27T06:00	3817	636	-1.7	-28.0	224	16
2023-08-27T06:00	3840	635	-1.9	-28.1	225	16
2023-08-27T06:00	3865	632	-2.0	-27.9	226	16
2023-08-27T06:00	3898	630	-2.3	-27.9	227	15
2023-08-27T06:00	3930	627	-2.5	-27.7	228	15
2023-08-27T06:00	3963	625	-2.8	-27.9	229	15
2023-08-27T06:00	3995	622	-3.0	-27.9	230	14
2023-08-27T06:00	4027	620	-3.3	-28.1	231	15
2023-08-27T06:00	4060	617	-3.5	-28.3	232	15
2023-08-27T06:00	4093	615	-3.7	-28.7	233	15
2023-08-27T06:00	4124	612	-3.9	-28.9	234	15
2023-08-27T06:00	4157	610	-4.1	-29.2	235	15
2023-08-27T06:00	4190	607	-4.4	-29.5	235	15
2023-08-27T06:00	4224	604	-4.6	-29.8	235	15
2023-08-27T06:00	4257	602	-4.9	-30.1	234	15
2023-08-27T06:00	4286	600	-5.1	-30.4	233	16
2023-08-27T06:00	4318	597	-5.2	-30.5	232	16
2023-08-27T06:00	4351	595	-5.5	-30.6	231	16
2023-08-27T06:00	4384	592	-5.7	-30.8	231	16
2023-08-27T06:00	4414	590	-5.8	-31.2	231	16
2023-08-27T06:00	4447	588	-5.8	-31.7	232	16
2023-08-27T06:00	4480	585	-5.9	-32.5	233	17
2023-08-27T06:00	4511	583	-6.0	-32.9	235	17
2023-08-27T06:00	4542	580	-6.2	-33.2	236	17
2023-08-27T06:00	4576	578	-6.4	-33.1	238	17
2023-08-27T06:00	4606	576	-6.7	-32.6	239	18
2023-08-27T06:00	4639	573	-6.8	-30.9	240	18
2023-08-27T06:00	4670	571	-7.0	-30.0	241	19
2023-08-27T06:00	4700	569	-7.2	-29.2	242	20
2023-08-27T06:00	4732	566	-7.4	-29.0	243	20
2023-08-27T06:00	4762	564	-7.7	-29.0	244	21
2023-08-27T06:00	4794	562	-8.0	-28.9	244	22
2023-08-27T06:00	4827	560	-7.8	-30.8	244	22
2023-08-27T06:00	4858	557	-7.7	-31.2	244	23
2023-08-27T06:00	4889	555	-7.7	-28.6	244	24
2023-08-27T06:00	4920	553	-7.7	-23.2	243	24
2023-08-27T06:00	4950	551	-7.7	-20.1	243	24
2023-08-27T06:00	4982	549	-7.3	-18.8	242	24
2023-08-27T06:00	5012	546	-7.3	-19.4	241	24
2023-08-27T06:00	5041	544	-7.3	-19.5	240	23
2023-08-27T06:00	5068	542	-7.4	-19.7	239	22
2023-08-27T06:00	5098	540	-7.4	-19.8	237	22
2023-08-27T06:00	5128	538	-7.7	-19.9	236	21
2023-08-27T06:00	5157	536	-7.7	-19.8	236	21
2023-08-27T06:00	5182	535	-7.9	-19.9	235	21
2023-08-27T06:00	5211	533	-8.1	-19.8	235	20
2023-08-27T06:00	5236	531	-8.3	-19.6	235	20
2023-08-27T06:00	5265	529	-8.5	-19.7	235	20
2023-08-27T06:00	5290	527	-8.7	-20.0	235	20
2023-08-27T06:00	5322	525	-9.0	-20.2	234	20
2023-08-27T06:00	5355	523	-9.3		233	19
2023-08-27T06:00	5388	521	-9.6	-20.4	232	19
2023-08-27T06:00	5422	518	-9.9	-20.7	231	19
2023-08-27T06:00	5459	516	-10.2	-20.3	230	19
2023-08-27T06:00	5491	514	-10.4	-19.5	230	18
2023-08-27T06:00	5524	511	-10.7	-19.9	231	18
2023-08-27T06:00	5556	509	-11.0	-19.8	231	18
2023-08-27T06:00	5587	507	-11.3	-19.8	232	18
2023-08-27T06:00	5620	505	-11.7	-19.9	232	18
2023-08-27T06:00	5655	503	-12.0	-19.9	232	18
2023-08-27T06:00	5686	501	-12.3	-20.0	232	19
2023-08-27T06:00	5720	498	-12.6	-19.9	231	19
2023-08-27T06:00	5754	496	-12.9	-19.3	230	19
2023-08-27T06:00	5790	494	-12.9	-18.1	229	20
2023-08-27T06:00	5826	492	-13.1	-18.0	228	20
2023-08-27T06:00	5862	489	-13.4	-17.9	227	20
2023-08-27T06:00	5899	487	-13.6	-17.8	226	21
2023-08-27T06:00	5933	485	-13.9	-17.8	225	21
2023-08-27T06:00	5964	483	-14.1	-17.8	224	21
2023-08-27T06:00	5999	481	-14.5	-18.0	222	21
2023-08-27T06:00	6033	479	-14.8	-18.1	221	21
2023-08-27T06:00	6065	476	-15.0	-18.2	220	21
2023-08-27T06:00	6096	474	-15.3	-18.7	220	21
2023-08-27T06:00	6128	472	-15.5	-19.7	219	22
2023-08-27T06:00	6161	470	-15.8	-20.4	218	22
2023-08-27T06:00	6196	468	-16.1	-20.4	218	22
2023-08-27T06:00	6226	466	-16.5	-20.4	218	22
2023-08-27T06:00	6257	465	-16.8	-20.5	218	21
2023-08-27T06:00	6287	463	-17.0	-20.7	218	21
2023-08-27T06:00	6316	461	-17.3	-20.9	218	21
2023-08-27T06:00	6345	459	-17.6	-20.8	217	21
2023-08-27T06:00	6374	457	-17.9	-21.0	217	20
2023-08-27T06:00	6406	455	-18.2	-21.2	217	20
2023-08-27T06:00	6436	454	-18.4	-21.4	216	20
2023-08-27T06:00	6465	452	-18.7	-21.6	215	20
2023-08-27T06:00	6493	450	-19.0	-21.6	214	21
2023-08-27T06:00	6524	448	-19.2	-21.7	213	21
2023-08-27T06:00	6556	446	-19.5	-21.9	212	21
2023-08-27T06:00	6581	445	-19.8	-22.1	212	22
2023-08-27T06:00	6608	443	-19.9	-22.3	211	22
2023-08-27T06:00	6639	441	-20.2	-22.7	211	23
2023-08-27T06:00	6670	440	-20.4	-22.8	211	23
2023-08-27T06:00	6701	438	-20.7	-23.0	210	23
2023-08-27T06:00	6731	436	-20.8	-23.2	210	23
2023-08-27T06:00	6760	434	-21.0	-23.2	210	24
2023-08-27T06:00	6786	433	-21.2	-23.3	211	24
2023-08-27T06:00	6820	431	-21.3	-23.5	212	24
2023-08-27T06:00	6853	429	-21.4		213	25
2023-08-27T06:00	6885	427	-21.5	-23.5	215	25
2023-08-27T06:00	6915	425	-21.7	-23.6	216	26
2023-08-27T06:00	6947	423	-21.8	-23.6	216	26
2023-08-27T06:00	6976	422	-22.1	-23.8	216	26
2023-08-27T06:00	7006	420	-22.2	-23.9	217	26
2023-08-27T06:00	7037	418	-22.3	-24.1	217	26
2023-08-27T06:00	7068	416	-22.6	-24.4	216	26
2023-08-27T06:00	7096	415	-22.8	-24.7	216	26
2023-08-27T06:00	7128	413	-23.1	-24.8	216	27
2023-08-27T06:00	7161	411	-23.3	-25.1	216	27
2023-08-27T06:00	7193	409	-23.4	-25.3	216	28
2023-08-27T06:00	7219	408	-23.4	-25.3	216	29
2023-08-27T06:00	7250	406	-23.3	-25.3	216	29
2023-08-27T06:00	7282	404	-23.3	-25.5	216	29
2023-08-27T06:00	7307	403	-23.5	-25.6	217	30
2023-08-27T06:00	7339	401	-23.8	-25.9	218	30
2023-08-27T06:00	7375	399	-24.0	-26.1	219	30
2023-08-27T06:00	7409	397	-24.3	-26.5	219	31
2023-08-27T06:00	7442	396	-24.5	-26.7	219	31
2023-08-27T06:00	7476	394	-24.6	-26.9	219	32
2023-08-27T06:00	7511	392	-24.9	-27.1	219	33
2023-08-27T06:00	7548	390	-25.1	-27.3	219	34
2023-08-27T06:00	7582	388	-25.3	-27.5	219	35
2023-08-27T06:00	7616	386	-25.5	-27.6	219	36
2023-08-27T06:00	7649	384	-25.8	-27.8	220	37
2023-08-27T06:00	7685	383	-26.1	-27.7	220	38
2023-08-27T06:00	7716	381	-26.3	-28.1	221	38
2023-08-27T06:00	7750	379	-26.4	-28.2	221	39
2023-08-27T06:00	7782	377	-26.6	-28.4	222	39
2023-08-27T06:00	7814	376	-26.8	-28.5	222	40
2023-08-27T06:00	7847	374	-27.1	-29.0	222	40
2023-08-27T06:00	7879	372	-27.3	-29.0	222	40
2023-08-27T06:00	7905	371	-27.6	-29.3	223	40
2023-08-27T06:00	7931	370	-27.8	-29.5	223	40
2023-08-27T06:00	7952	369	-28.0	-29.6	224	40
2023-08-27T06:00	7978	367	-28.1	-29.9	224	39
2023-08-27T06:00	8009	366	-28.4	-30.2	225	39
2023-08-27T06:00	8041	364	-28.6	-30.3	225	38
2023-08-27T06:00	8073	362	-28.9	-30.5	225	38
2023-08-27T06:00	8107	361	-29.1	-30.9	226	38
2023-08-27T06:00	8134	359	-29.2	-31.5	226	37
2023-08-27T06:00	8158	358	-29.4	-31.7	227	37
2023-08-27T06:00	8183	357	-29.6	-31.9	228	37
2023-08-27T06:00	8211	356	-29.8	-32.2	229	37
2023-08-27T06:00	8232	354	-30.0	-32.4	229	37
2023-08-27T06:00	8259	353	-30.2	-32.8	230	37
2023-08-27T06:00	8293	352	-30.4	-32.9	230	37
2023-08-27T06:00	8317	350	-30.6	-33.1	231	38
2023-08-27T06:00	8353	349	-30.9	-33.1	231	38
2023-08-27T06:00	8384	347	-31.2	-33.4	232	39
2023-08-27T06:00	8414	345	-31.3	-33.1	232	40
2023-08-27T06:00	8450	344	-31.6	-33.3	231	40
2023-08-27T06:00	8487	342	-31.8	-33.3	231	41
2023-08-27T06:00	8523	340	-32.0	-33.4	230	41
2023-08-27T06:00	8560	339	-32.2	-33.4	230	42
2023-08-27T06:00	8593	337	-32.1	-33.9	230	42
2023-08-27T06:00	8616	336	-32.2	-34.1	230	42
2023-08-27T06:00	8640	335	-32.3	-34.4	230	43
2023-08-27T06:00	8664	333	-32.5	-34.6	230	43
2023-08-27T06:00	8690	332	-32.7	-35.0	231	43
2023-08-27T06:00	8718	331	-33.0	-36.9	231	43
2023-08-27T06:00	8738	330	-33.3	-37.7	232	43
2023-08-27T06:00	8762	329	-33.5	-37.5	232	43
2023-08-27T06:00	8792	327	-33.8	-37.4	232	43
2023-08-27T06:00	8826	326	-34.1	-37.9	232	43
2023-08-27T06:00	8855	325	-34.4	-38.3	232	43
2023-08-27T06:00	8874	324	-34.6	-38.2	231	43
2023-08-27T06:00	8897	323	-34.8	-38.3	231	43
2023-08-27T06:00	8924	321	-35.0	-38.5	231	43
2023-08-27T06:00	8952	320	-35.3	-38.9	231	43
2023-08-27T06:00	8977	319	-35.5	-38.8	231	43
2023-08-27T06:00	9007	318	-35.8	-39.0	231	43
2023-08-27T06:00	9036	316	-36.0	-39.0	231	43
2023-08-27T06:00	9068	315	-36.3	-38.9	232	43
2023-08-27T06:00	9099	313	-36.6	-39.5	232	43
2023-08-27T06:00	9130	312	-36.9	-40.5	232	43
2023-08-27T06:00	9160	311	-37.2	-41.2	232	44
2023-08-27T06:00	9189	309	-37.5	-42.0	232	44
2023-08-27T06:00	9224	308	-37.8	-41.7	232	44
2023-08-27T06:00	9255	306	-38.1	-42.3	232	44
2023-08-27T06:00	9286	305	-38.3	-42.1	231	44
2023-08-27T06:00	9316	304	-38.6	-42.3	231	44
2023-08-27T06:00	9349	302	-38.9	-42.5	230	44
2023-08-27T06:00	9377	301	-39.2	-42.3	230	43
2023-08-27T06:00	9404	300	-39.5	-42.8	230	43
2023-08-27T06:00	9430	299	-39.7	-43.8	230	43
2023-08-27T06:00	9461	297	-39.9	-44.0	230	43
2023-08-27T06:00	9489	296	-40.1	-44.2	230	43
2023-08-27T06:00	9519	295	-40.4	-44.4	230	43
2023-08-27T06:00	9552	293	-40.7	-44.9	230	43
2023-08-27T06:00	9585	292	-41.0	-44.8	229	43
2023-08-27T06:00	9618	291	-41.3	-45.0	229	43
2023-08-27T06:00	9643	289	-41.5	-45.2	229	43
2023-08-27T06:00	9671	288	-41.7	-45.4	229	43
2023-08-27T06:00	9699	287	-42.0	-45.9	229	42
2023-08-27T06:00	9733	286	-42.3	-46.0	229	42
2023-08-27T06:00	9767	284	-42.7	-46.1	230	42
2023-08-27T06:00	9793	283	-42.9	-46.2	230	42
2023-08-27T06:00	9826	282	-43.2	-46.8	230	42
2023-08-27T06:00	9860	280	-43.5	-47.0	229	42
2023-08-27T06:00	9897	279	-43.8	-47.3	229	42
2023-08-27T06:00	9934	277	-44.2	-47.8	229	42
2023-08-27T06:00	9972	276	-44.5	-48.1	229	42
2023-08-27T06:00	10005	274	-44.8	-48.2	229	42
2023-08-27T06:00	10042	273	-45.2	-48.3	229	42
2023-08-27T06:00	10074	271	-45.5	-48.6	229	41
2023-08-27T06:00	10111	270	-45.8	-49.0	229	41
2023-08-27T06:00	10148	269	-46.1	-49.9	229	41
2023-08-27T06:00	10176	267	-46.4	-50.4	229	41
2023-08-27T06:00	10209	266	-46.7	-50.6	229	41
2023-08-27T06:00	10245	265	-47.0	-50.9	229	41
2023-08-27T06:00	10275	263	-47.3	-51.2	229	41
2023-08-27T06:00	10301	262	-47.6	-51.9	229	41
2023-08-27T06:00	10333	261	-48.0	-53.3	229	41
2023-08-27T06:00	10364	260	-48.3	-53.6	229	41
2023-08-27T06:00	10397	259	-48.5	-53.0	229	41
2023-08-27T06:00	10433	257	-48.9	-53.0	229	41
2023-08-27T06:00	10455	256	-49.1	-53.6	229	41
2023-08-27T06:00	10488	255	-49.5	-54.2	228	41
2023-08-27T06:00	10515	254	-49.7	-54.2	228	41
2023-08-27T06:00	10550	253	-50.0	-54.1	227	41
2023-08-27T06:00	10587	251	-50.4	-54.2	227	41
2023-08-27T06:00	10624	250	-50.8	-54.5	226	41
2023-08-27T06:00	10662	248	-51.1	-54.8	226	41
2023-08-27T06:00	10700	247	-51.4	-55.2	226	41
2023-08-27T06:00	10740	245	-51.8	-55.6	225	40
2023-08-27T06:00	10779	244	-52.2	-56.1	224	39
2023-08-27T06:00	10812	243	-52.5	-56.4	224	39
2023-08-27T06:00	10849	241	-52.8	-56.6	223	39
2023-08-27T06:00	10881	240	-53.2	-57.0	223	39
2023-08-27T06:00	10918	239	-53.5	-57.3	223	39
2023-08-27T06:00	10956	237	-53.9	-57.7	223	39
2023-08-27T06:00	10991	236	-54.3	-58.0	223	39
2023-08-27T06:00	11027	235	-54.6	-58.2	223	39
2023-08-27T06:00	11052	234	-54.9	-58.6	224	39
2023-08-27T06:00	11090	232	-55.2	-59.4	224	39
2023-08-27T06:00	11127	231	-55.4	-60.2	224	40
2023-08-27T06:00	11162	230	-55.7	-60.9	225	40
2023-08-27T06:00	11195	229	-55.9	-61.0	225	41
2023-08-27T06:00	11227	227	-56.1	-61.0	226	42
2023-08-27T06:00	11253	226	-56.0	-60.8	226	42
2023-08-27T06:00	11278	226	-56.1	-60.9	226	43
2023-08-27T06:00	11312	224	-56.2	-60.9	226	43
2023-08-27T06:00	11339	223	-56.4	-60.9	226	43
2023-08-27T06:00	11366	222	-56.7	-61.2	227	43
2023-08-27T06:00	11391	222	-56.7	-61.5	228	43
2023-08-27T06:00	11420	221	-56.5	-62.1	229	42
2023-08-27T06:00	11458	219	-56.3	-62.6	230	42
2023-08-27T06:00	11492	218	-56.4	-62.8	230	41
2023-08-27T06:00	11515	217	-56.5	-62.7	230	40
2023-08-27T06:00	11537	216	-56.5	-62.7	231	40
2023-08-27T06:00	11570	215	-56.5	-63.7	232	39
2023-08-27T06:00	11600	214	-55.7	-65.0	234	38
2023-08-27T06:00	11616	214	-54.8	-67.4	236	38
2023-08-27T06:00	11641	213	-54.1	-70.3	238	37
2023-08-27T06:00	11670	212	-53.8	-72.0	239	36
2023-08-27T06:00	11694	211	-53.7	-72.4	240	36
2023-08-27T06:00	11715	211	-53.5	-72.2	240	35
2023-08-27T06:00	11733	210	-53.3	-72.1	239	34
2023-08-27T06:00	11758	209	-53.3	-72.3	237	33
2023-08-27T06:00	11795	208	-53.3	-72.6	235	32
2023-08-27T06:00	11825	207	-52.9	-72.8	233	32
2023-08-27T06:00	11848	206	-52.9	-73.1	232	31
2023-08-27T06:00	11869	206	-52.9	-73.1	231	31
2023-08-27T06:00	11892	205	-53.1	-73.0	231	32
2023-08-27T06:00	11915	204	-53.2	-72.8	231	32
2023-08-27T06:00	11936	204	-53.4	-72.8	231	32
2023-08-27T06:00	11959	203	-53.6	-72.8	231	32
2023-08-27T06:00	11981	202	-53.7	-72.9	231	32
2023-08-27T06:00	12004	201	-53.9	-73.1	231	32
2023-08-27T06:00	12027	201	-53.9	-73.2	231	31
2023-08-27T06:00	12052	200	-54.0	-73.4	231	31
2023-08-27T06:00	12075	199	-54.1	-73.4	231	31
2023-08-27T06:00	12099	198	-54.3	-73.4	231	30
2023-08-27T06:00	12121	198	-54.5	-73.5	230	30
2023-08-27T06:00	12143	197	-54.7	-73.6	230	30
2023-08-27T06:00	12165	196	-54.8	-73.6	229	30
2023-08-27T06:00	12191	196	-54.9	-73.7	228	30
2023-08-27T06:00	12218	195	-55.0	-73.6	228	30
2023-08-27T06:00	12244	194	-55.1	-73.7	227	30
2023-08-27T06:00	12273	193	-55.2	-73.7	227	30
2023-08-27T06:00	12299	192	-55.4	-73.8	226	30
2023-08-27T06:00	12326	192	-55.6	-73.8	226	30
2023-08-27T06:00	12349	191	-55.8	-73.6	226	30
2023-08-27T06:00	12372	190	-56.0	-73.4	225	30
2023-08-27T06:00	12393	189	-56.2	-73.2	225	30
2023-08-27T06:00	12416	189	-56.1	-72.8	225	30
2023-08-27T06:00	12437	188	-56.0	-72.7	224	30
2023-08-27T06:00	12460	187	-56.0	-72.8	224	30
2023-08-27T06:00	12481	187	-56.2	-73.0	223	30
2023-08-27T06:00	12504	186	-56.2	-73.0	223	30
2023-08-27T06:00	12529	185	-56.4	-73.2	222	31
2023-08-27T06:00	12552	185	-56.6	-73.3	222	31
2023-08-27T06:00	12576	184	-56.7	-73.4	222	32
2023-08-27T06:00	12600	183	-56.9	-73.6	222	32
2023-08-27T06:00	12625	183	-57.0	-73.6	222	33
2023-08-27T06:00	12647	182	-57.2	-73.8	222	33
2023-08-27T06:00	12670	181	-57.3	-73.9	223	34
2023-08-27T06:00	12691	181	-57.4	-73.9	223	34
2023-08-27T06:00	12713	180	-57.5	-74.1	224	35
2023-08-27T06:00	12735	180	-57.6	-74.5	224	35
2023-08-27T06:00	12756	179	-57.4	-74.8	224	35
2023-08-27T06:00	12777	178	-57.2	-75.2	224	35
2023-08-27T06:00	12798	178	-57.2	-75.9	224	35
2023-08-27T06:00	12821	177	-57.2	-76.3	225	34
2023-08-27T06:00	12841	177	-57.3	-76.7	225	34
2023-08-27T06:00	12863	176	-57.3	-77.0	225	34
2023-08-27T06:00	12884	175	-57.2	-77.3	226	35
2023-08-27T06:00	12905	175	-56.7	-77.5	227	35
2023-08-27T06:00	12927	174	-56.6	-78.2	227	35
2023-08-27T06:00	12949	174	-55.6	-78.2	228	35
2023-08-27T06:00	12969	173	-54.7	-78.2	230	35
2023-08-27T06:00	12988	172	-54.3	-78.2	231	35
2023-08-27T06:00	13011	172	-54.0	-78.4	231	36
2023-08-27T06:00	13033	171	-53.7	-78.6	232	36
2023-08-27T06:00	13054	171	-53.3	-78.5	232	36
2023-08-27T06:00	13075	170	-53.0	-78.5	231	36
2023-08-27T06:00	13095	170	-52.7	-78.2	231	36
2023-08-27T06:00	13113	169	-52.8	-78.1	231	37
2023-08-27T06:00	13137	169	-52.9	-78.2	231	37
2023-08-27T06:00	13159	168	-53.0	-78.2	232	37
2023-08-27T06:00	13176	168	-53.1	-78.3	232	37
2023-08-27T06:00	13198	167	-53.0	-78.2	233	37
2023-08-27T06:00	13218	166	-53.0	-78.2	234	37
2023-08-27T06:00	13238	166	-53.1	-78.6	235	37
2023-08-27T06:00	13259	165	-52.8	-78.3	235	36
2023-08-27T06:00	13279	165	-52.7		235	36
2023-08-27T06:00	13299	164	-52.6	-78.2	236	35
2023-08-27T06:00	13321	164	-52.7	-78.2	236	35
2023-08-27T06:00	13345	163	-52.7	-78.2	236	34
2023-08-27T06:00	13365	163	-52.8	-78.3	236	33
2023-08-27T06:00	13387	162	-52.8	-78.3	236	32
2023-08-27T06:00	13408	162	-52.6	-78.2	236	32
2023-08-27T06:00	13431	161	-52.3	-78.2	235	32
2023-08-27T06:00	13453	160	-51.9	-78.4	236	31
2023-08-27T06:00	13476	160	-51.6	-78.7	236	31
2023-08-27T06:00	13496	159	-51.6	-79.0	236	31
2023-08-27T06:00	13521	159	-51.6	-79.0	236	31
2023-08-27T06:00	13544	158	-51.4	-79.2	236	31
2023-08-27T06:00	13566	158	-51.6	-79.3	237	31
2023-08-27T06:00	13589	157	-51.8	-79.5	237	31
2023-08-27T06:00	13610	157	-51.9	-79.5	237	31
2023-08-27T06:00	13633	156	-52.0	-79.6	238	31
2023-08-27T06:00	13653	156	-52.0	-80.0	239	30
2023-08-27T06:00	13676	155	-52.0	-80.0	239	30
2023-08-27T06:00	13700	155	-51.9	-80.2	239	29
2023-08-27T06:00	13722	154	-51.6	-80.0	239	29
2023-08-27T06:00	13742	153	-51.6	-80.0	239	29
2023-08-27T06:00	13764	153	-51.7	-80.1	239	28
2023-08-27T06:00	13785	152	-51.8	-80.1	239	28
2023-08-27T06:00	13808	152	-51.9	-80.2	239	27
2023-08-27T06:00	13828	151	-51.8	-80.1	238	27
2023-08-27T06:00	13852	151	-51.7	-80.1	237	26
2023-08-27T06:00	13872	150	-51.7	-80.4	236	26
2023-08-27T06:00	13895	150	-51.4	-80.2	234	25
2023-08-27T06:00	13919	149	-51.4	-80.2	232	25
2023-08-27T06:00	13938	149	-51.3	-80.5	230	25
2023-08-27T06:00	13960	148	-51.1	-80.4	228	25
2023-08-27T06:00	13985	148	-50.8	-80.6	227	25
2023-08-27T06:00	14014	147	-50.2	-80.1	226	25
2023-08-27T06:00	14041	147	-50.0	-80.0	224	25
2023-08-27T06:00	14063	146	-50.1	-80.0	223	25
2023-08-27T06:00	14085	146	-50.3	-80.2	223	26
2023-08-27T06:00	14111	145	-50.5	-79.9	222	26
2023-08-27T06:00	14132	145	-50.7	-80.1	222	26
2023-08-27T06:00	14154	144	-50.9	-80.2	221	26
2023-08-27T06:00	14176	144	-51.1	-80.4	221	26
2023-08-27T06:00	14199	143	-51.2	-80.5	221	25
2023-08-27T06:00	14225	143	-50.8	-80.1	221	25
2023-08-27T06:00	14249	142	-50.6	-80.4	221	24
2023-08-27T06:00	14272	141	-50.7	-80.5	221	24
2023-08-27T06:00	14297	141	-50.9	-80.2	221	23
2023-08-27T06:00	14321	140	-51.1	-80.4	221	23
2023-08-27T06:00	14346	140	-51.3	-80.5	221	23
2023-08-27T06:00	14367	139	-51.5	-80.7	220	23
2023-08-27T06:00	14388	139	-51.7	-80.8	220	22
2023-08-27T06:00	14410	139	-51.9	-80.6	219	22
2023-08-27T06:00	14431	138	-52.0	-80.7	219	22
2023-08-27T06:00	14455	138	-52.2	-80.8	218	22
2023-08-27T06:00	14477	137	-52.3	-80.9	217	21
2023-08-27T06:00	14500	137	-52.5	-81.0	215	21
2023-08-27T06:00	14522	136	-52.6	-81.1	214	21
2023-08-27T06:00	14545	136	-52.5	-81.4	212	21
2023-08-27T06:00	14566	135	-52.4	-81.4	212	21
2023-08-27T06:00	14592	135	-52.4	-81.4	212	20
2023-08-27T06:00	14615	134	-52.6	-81.5	213	19
2023-08-27T06:00	14640	134	-52.4	-81.4	214	18
2023-08-27T06:00	14664	133	-51.8	-81.3	216	18
2023-08-27T06:00	14682	133	-51.5	-81.1	217	17
2023-08-27T06:00	14705	132	-51.6	-81.2	218	17
2023-08-27T06:00	14725	132	-51.7	-81.2	219	16
2023-08-27T06:00	14748	132	-51.8	-81.3	220	16
2023-08-27T06:00	14766	131	-51.9	-81.0	220	16
2023-08-27T06:00	14787	131	-52.0	-81.1	220	16
2023-08-27T06:00	14806	130	-52.1	-81.1	220	16
2023-08-27T06:00	14828	130	-52.1	-81.1	218	16
2023-08-27T06:00	14848	129	-52.0	-81.5	217	16
2023-08-27T06:00	14872	129	-51.6	-81.2	215	16
2023-08-27T06:00	14896	128	-51.7	-81.2	214	16
2023-08-27T06:00	14920	128	-51.8	-81.3	213	17
2023-08-27T06:00	14948	127	-52.0	-81.1	213	17
2023-08-27T06:00	14969	127	-52.2	-81.2	213	17
2023-08-27T06:00	14992	127	-52.3	-81.3	213	18
2023-08-27T06:00	15016	126	-52.5	-81.4	214	18
2023-08-27T06:00	15040	126	-52.6	-81.1	214	18
2023-08-27T06:00	15062	125	-52.8	-81.3	214	19
2023-08-27T06:00	15086	125	-53.0	-81.4	215	19
2023-08-27T06:00	15111	124	-53.1	-81.5	215	20
2023-08-27T06:00	15134	124	-53.3	-81.7	215	20
2023-08-27T06:00	15161	123	-53.5	-81.8	216	21
2023-08-27T06:00	15186	123	-53.5	-81.8	217	22
2023-08-27T06:00	15212	122	-53.1	-81.5	219	23
2023-08-27T06:00	15234	122	-53.3	-81.7	220	24
2023-08-27T06:00	15257	122	-53.4	-81.7	221	24
2023-08-27T06:00	15279	121	-53.3	-82.0	222	25
2023-08-27T06:00	15302	121	-53.2	-82.0	223	25
2023-08-27T06:00	15327	120	-53.2	-82.0	224	25
2023-08-27T06:00	15347	120	-53.3	-81.7	225	26
2023-08-27T06:00	15370	119	-53.3	-81.7	227	26
2023-08-27T06:00	15391	119	-53.4	-82.1	229	26
2023-08-27T06:00	15414	119	-53.4	-82.1	230	26
2023-08-27T06:00	15437	118	-53.4	-82.1	232	26
2023-08-27T06:00	15460	118	-53.2	-82.0	233	27
2023-08-27T06:00	15481	117	-53.1	-81.9	234	27
2023-08-27T06:00	15507	117	-53.0	-81.8	235	26
2023-08-27T06:00	15531	116	-52.8	-81.7	236	26
2023-08-27T06:00	15556	116	-52.8	-81.7	237	25
2023-08-27T06:00	15582	116	-52.8	-82.1	238	24
2023-08-27T06:00	15611	115	-52.8	-82.1	240	23
2023-08-27T06:00	15639	115	-52.9	-82.1	242	22
2023-08-27T06:00	15665	114	-53.0	-82.2	244	21
2023-08-27T06:00	15690	114	-52.5	-81.8	246	20
2023-08-27T06:00	15711	113	-52.3	-81.7	248	20
2023-08-27T06:00	15734	113	-52.3	-82.1	249	19
2023-08-27T06:00	15760	112	-52.3	-82.1	250	18
2023-08-27T06:00	15783	112	-52.1	-82.0	249	17
2023-08-27T06:00	15807	112	-51.8	-81.8	249	17
2023-08-27T06:00	15829	111	-51.8	-81.8	248	16
2023-08-27T06:00	15854	111	-51.9	-81.8	247	15
2023-08-27T06:00	15875	110	-52.0	-81.9	246	15
2023-08-27T06:00	15901	110	-52.1	-81.5	244	14
2023-08-27T06:00	15922	110	-52.2	-81.6	243	13
2023-08-27T06:00	15945	109	-52.3	-81.7	241	13
2023-08-27T06:00	15967	109	-52.5	-81.8	239	13
2023-08-27T06:00	15991	108	-52.6	-81.9	236	12
2023-08-27T06:00	16014	108	-52.8	-82.1	234	12
2023-08-27T06:00	16036	108	-53.0	-81.8	231	12
2023-08-27T06:00	16056	107	-53.0	-81.8	228	12
2023-08-27T06:00	16077	107	-53.1	-81.9	226	12
2023-08-27T06:00	16104	107	-53.2	-82.0	223	12
2023-08-27T06:00	16125	106	-53.3	-82.0	222	13
2023-08-27T06:00	16149	106	-53.4	-82.1	220	13
2023-08-27T06:00	16176	105	-53.5	-82.2	220	14
2023-08-27T06:00	16203	105	-53.6	-82.3	220	15
2023-08-27T06:00	16225	105	-53.7	-82.0	221	15
2023-08-27T06:00	16248	104	-53.9	-82.1	222	16
2023-08-27T06:00	16274	104	-54.0	-82.2	224	16
2023-08-27T06:00	16296	103	-54.1	-82.3	225	16
2023-08-27T06:00	16322	103	-54.1	-82.3	227	17
2023-08-27T06:00	16347	103	-54.2	-82.3	228	17
2023-08-27T06:00	16369	102	-54.3	-82.4	229	17
2023-08-27T06:00	16394	102	-54.4	-82.5	230	17
2023-08-27T06:00	16417	101	-54.6	-82.6	231	17
2023-08-27T06:00	16442	101	-54.7	-82.7	233	17
2023-08-27T06:00	16467	101	-54.8	-82.8	234	17
2023-08-27T06:00	16491	100	-54.7	-82.7	235	17
2023-08-27T06:00	16519	100	-54.6	-83.0	237	16
2023-08-27T06:00	16546	99	-54.5	-82.9	240	15
2023-08-27T06:00	16571	99	-54.6	-83.0	242	14
2023-08-27T06:00	16605	99	-54.6	-83.0	244	14
2023-08-27T06:00	16630	98	-54.5	-82.9	246	13
2023-08-27T06:00	16658	98	-54.5	-82.9	248	12
2023-08-27T06:00	16687	97	-54.5	-82.9	248	11
2023-08-27T06:00	16713	97	-54.6	-83.0	248	10
2023-08-27T06:00	16739	97	-54.7	-83.1	248	9
2023-08-27T06:00	16765	96	-54.8	-83.2	247	9
2023-08-27T06:00	16791	96	-55.0	-82.9	247	8
2023-08-27T06:00	16817	95	-55.1	-83.0	245	8
2023-08-27T06:00	16846	95	-55.3	-83.2	243	7
2023-08-27T06:00	16869	95	-55.5		239	6
2023-08-27T06:00	16894	94	-55.7	-83.5	233	6
2023-08-27T06:00	16922	94	-55.8	-83.2	226	6
2023-08-27T06:00	16946	93	-56.0	-83.4	219	6
2023-08-27T06:00	16970	93	-56.1	-83.4	214	6
2023-08-27T06:00	16996	93	-56.2	-83.5	211	7
2023-08-27T06:00	17019	92	-56.3	-83.6	210	7
2023-08-27T06:00	17045	92	-56.4	-83.7	212	8
2023-08-27T06:00	17070	92	-56.5	-84.1	215	8
2023-08-27T06:00	17096	91	-56.4	-84.0	219	9
2023-08-27T06:00	17125	91	-56.0	-84.1	224	9
2023-08-27T06:00	17148	91	-55.8	-83.9	229	9
2023-08-27T06:00	17173	90	-55.9	-84.0	233	10
2023-08-27T06:00	17199	90	-56.1	-84.2	235	10
2023-08-27T06:00	17220	89	-56.1	-84.2	237	10
2023-08-27T06:00	17243	89	-56.1	-84.2	237	10
2023-08-27T06:00	17267	89	-56.1	-83.8	236	10
2023-08-27T06:00	17292	88	-56.4	-84.0	234	10
2023-08-27T06:00	17316	88	-56.5	-84.1	231	10
2023-08-27T06:00	17339	88	-56.4	-84.0	230	10
2023-08-27T06:00	17364	87	-56.5	-84.1	229	10
2023-08-27T06:00	17390	87	-56.6	-84.2	230	10
2023-08-27T06:00	17410	87	-56.8	-84.3	233	10
2023-08-27T06:00	17438	86	-57.0	-84.5	236	10
2023-08-27T06:00	17458	86	-56.9	-84.4	241	10
2023-08-27T06:00	17487	86	-56.6	-84.5	245	9
2023-08-27T06:00	17511	85	-56.2	-84.2	248	9
2023-08-27T06:00	17534	85	-56.2	-84.2	250	9
2023-08-27T06:00	17559	85	-56.2	-84.2	251	9
2023-08-27T06:00	17585	84	-56.3	-84.3	251	9
2023-08-27T06:00	17608	84	-56.4	-84.4	250	9
2023-08-27T06:00	17636	84	-56.5	-84.5	249	9
2023-08-27T06:00	17657	84	-56.5	-84.5	248	8
2023-08-27T06:00	17683	83	-56.5	-84.5	245	8
2023-08-27T06:00	17707	83	-56.5	-84.5	241	7
2023-08-27T06:00	17732	83	-56.5	-84.5	234	6
2023-08-27T06:00	17757	82	-56.5	-84.5	224	6
2023-08-27T06:00	17782	82	-56.6	-84.5	214	6
2023-08-27T06:00	17810	82	-56.6	-84.5	204	7
2023-08-27T06:00	17838	81	-56.5	-84.5	198	7
2023-08-27T06:00	17863	81	-56.4	-84.4	194	8
2023-08-27T06:00	17885	81	-56.2	-84.2	192	8
2023-08-27T06:00	17911	80	-56.0	-84.1	192	8
2023-08-27T06:00	17931	80	-56.0	-84.1	192	9
2023-08-27T06:00	17954	80	-56.0	-84.1	193	9
2023-08-27T06:00	17974	79	-56.1	-84.2	195	9
2023-08-27T06:00	17997	79	-56.2	-84.2	198	9
2023-08-27T06:00	18018	79	-56.2	-84.2	201	9
2023-08-27T06:00	18042	79	-56.2	-84.2	204	9
2023-08-27T06:00	18067	78	-56.1	-84.2	208	9
2023-08-27T06:00	18087	78	-56.0	-84.1	211	9
2023-08-27T06:00	18110	78	-56.1	-84.2	215	9
2023-08-27T06:00	18131	78	-56.1	-84.6	218	9
2023-08-27T06:00	18154	77	-56.0	-84.5	222	9
2023-08-27T06:00	18171	77	-55.9	-84.4	225	9
2023-08-27T06:00	18197	77	-56.0	-84.5	227	9
2023-08-27T06:00	18216	77	-56.0	-84.5	229	8
2023-08-27T06:00	18234	76	-56.1	-84.6	231	8
2023-08-27T06:00	18262	76	-56.1	-84.6	232	8
2023-08-27T06:00	18284	76	-56.1	-84.6	232	7
2023-08-27T06:00	18306	75	-55.9	-84.4	230	7
2023-08-27T06:00	18331	75	-55.9	-84.4	227	6
2023-08-27T06:00	18354	75	-55.9	-84.4	222	6
2023-08-27T06:00	18377	75	-56.0	-84.5	216	5
2023-08-27T06:00	18399	74	-56.1	-84.6	212	5
2023-08-27T06:00	18422	74	-56.1	-84.6	210	5
2023-08-27T06:00	18445	74	-56.1	-84.6	211	6
2023-08-27T06:00	18470	74	-56.0	-84.5	212	6
2023-08-27T06:00	18490	73	-55.7	-84.3	213	6
2023-08-27T06:00	18517	73	-55.6	-84.6	213	6
2023-08-27T06:00	18539	73	-55.6	-84.6	212	6
2023-08-27T06:00	18562	72	-55.5	-84.5	210	6
2023-08-27T06:00	18586	72	-55.6	-84.6	207	6
2023-08-27T06:00	18613	72	-55.6	-84.6	205	6
2023-08-27T06:00	18636	72	-55.6	-84.6	202	7
2023-08-27T06:00	18659	71	-55.6	-84.6	201	7
2023-08-27T06:00	18686	71	-55.6	-84.6	199	7
2023-08-27T06:00	18705	71	-55.6	-84.6	198	8
2023-08-27T06:00	18731	71	-55.5	-84.5	197	8
2023-08-27T06:00	18756	70	-55.5	-84.5	197	9
2023-08-27T06:00	18782	70	-55.7	-84.7	198	9
2023-08-27T06:00	18806	70	-55.8	-84.8	199	10
2023-08-27T06:00	18830	69	-55.9	-84.8	201	10
2023-08-27T06:00	18853	69	-55.9	-84.8	204	10
2023-08-27T06:00	18876	69	-55.7	-84.7	207	10
2023-08-27T06:00	18901	69	-55.7	-84.7	211	10
2023-08-27T06:00	18923	68	-55.7	-84.7	215	9
2023-08-27T06:00	18950	68	-55.6	-84.6	218	9
2023-08-27T06:00	18973	68	-55.5	-84.5	221	9
2023-08-27T06:00	18996	68	-55.4	-84.5	223	9
2023-08-27T06:00	19022	67	-55.4	-84.5	226	8
2023-08-27T06:00	19043	67	-55.6	-84.6	230	8
2023-08-27T06:00	19072	67	-55.5	-84.5	234	7
2023-08-27T06:00	19093	67	-55.3	-84.4	240	6
2023-08-27T06:00	19115	66	-55.2	-84.3	247	6
2023-08-27T06:00	19141	66	-55.2	-84.3	254	5
2023-08-27T06:00	19165	66	-55.2	-84.8	263	5
2023-08-27T06:00	19185	66	-55.2	-84.8	272	5
2023-08-27T06:00	19214	65	-55.1	-84.7	281	4
2023-08-27T06:00	19236	65	-55.0	-84.6	290	4
2023-08-27T06:00	19257	65	-54.9	-84.6	297	4
2023-08-27T06:00	19281	65	-54.9	-84.6	304	4
2023-08-27T06:00	19303	64	-54.9	-84.6	311	3
2023-08-27T06:00	19331	64	-55.0	-84.6	319	3
2023-08-27T06:00	19355	64	-54.9	-84.6	327	2
2023-08-27T06:00	19379	64	-54.7	-84.4	335	2
2023-08-27T06:00	19406	63	-54.7	-84.4	340	1
2023-08-27T06:00	19429	63	-54.8	-84.5	333	0
2023-08-27T06:00	19454	63	-54.9	-84.6	194	0
2023-08-27T06:00	19477	63	-54.9	-84.6	181	1
2023-08-27T06:00	19502	63	-54.9	-84.6	179	2
2023-08-27T06:00	19525	62	-54.9	-84.6	179	3
2023-08-27T06:00	19551	62	-55.0	-84.6	181	3
2023-08-27T06:00	19578	62	-55.0	-84.6	185	4
2023-08-27T06:00	19601	62	-55.0	-84.6	192	4
2023-08-27T06:00	19625	61	-54.8	-84.5	199	5
2023-08-27T06:00	19654	61	-54.8	-84.5	206	5
2023-08-27T06:00	19679	61	-54.7	-84.4	212	5
2023-08-27T06:00	19703	61	-54.7	-84.4	218	6
2023-08-27T06:00	19732	60	-54.8	-84.5	222	6
2023-08-27T06:00	19756	60	-54.8	-84.0	226	6
2023-08-27T06:00	19784	60	-54.9	-84.1	229	6
2023-08-27T06:00	19807	60	-55.0	-84.2	233	7
2023-08-27T06:00	19835	59	-55.2	-84.3	236	7
2023-08-27T06:00	19860	59	-55.4	-84.5	239	7
2023-08-27T06:00	19884	59	-55.5	-84.5	242	7
2023-08-27T06:00	19912	59	-55.4	-84.5	245	7
2023-08-27T06:00	19939	58	-55.4	-84.5	247	6
2023-08-27T06:00	19963	58	-55.3	-84.4	249	5
2023-08-27T06:00	19989	58	-55.3	-84.4	250	5
2023-08-27T06:00	20016	58	-55.4	-84.5	251	4
2023-08-27T06:00	20041	57	-55.5	-84.5	251	3
2023-08-27T06:00	20064	57	-55.6	-84.6	251	3
2023-08-27T06:00	20090	57	-55.7	-84.7	251	2
2023-08-27T06:00	20117	57	-55.6	-84.6	251	2
2023-08-27T06:00	20142	57	-55.5	-84.5	251	1
2023-08-27T06:00	20169	56	-55.1	-84.7	251	1
2023-08-27T06:00	20194	56	-54.8	-84.5	250	0
2023-08-27T06:00	20214	56	-54.8	-84.5	258	0
2023-08-27T06:00	20242	56	-54.7	-84.4	41	0
2023-08-27T06:00	20270	55	-54.5	-84.3	15	0
2023-08-27T06:00	20291	55	-54.4	-84.2	347	0
2023-08-27T06:00	20314	55	-54.2	-84.0	339	1
2023-08-27T06:00	20342	55	-54.2	-84.0	348	1
2023-08-27T06:00	20364	55	-54.1	-84.0	11	1
2023-08-27T06:00	20388	54	-54.1	-84.0	35	1
2023-08-27T06:00	20410	54	-54.2	-84.0	51	2
2023-08-27T06:00	20436	54	-54.3	-84.1	60	2
2023-08-27T06:00	20461	54	-54.4	-84.2	68	3
2023-08-27T06:00	20484	54	-54.5	-84.3	75	3
2023-08-27T06:00	20509	53	-54.3	-84.1	82	4
2023-08-27T06:00	20534	53	-54.2	-84.0	92	4
2023-08-27T06:00	20557	53	-54.1	-84.0	103	4
2023-08-27T06:00	20586	53	-54.1	-84.0	114	5
2023-08-27T06:00	20604	53	-54.0	-83.9	126	5
2023-08-27T06:00	20632	52	-54.0	-83.9	136	5
2023-08-27T06:00	20655	52	-54.0	-83.9	144	6
2023-08-27T06:00	20678	52	-54.1	-84.0	151	6
2023-08-27T06:00	20698	52	-54.0	-83.9	157	6
2023-08-27T06:00	20720	52	-54.0	-83.9	163	7
2023-08-27T06:00	20749	51	-54.0	-83.9	168	7
2023-08-27T06:00	20774	51	-53.9	-83.8	174	7
2023-08-27T06:00	20796	51	-53.9	-83.8	180	7
2023-08-27T06:00	20821	51	-53.9	-83.8	187	7
2023-08-27T06:00	20847	51	-53.9	-83.8	193	7
2023-08-27T06:00	20865	51	-53.8	-84.2	199	7
2023-08-27T06:00	20891	50	-53.7	-84.2	205	7
2023-08-27T06:00	20920	50	-53.4	-83.9	209	6
2023-08-27T06:00	20938	50	-53.4	-83.9	212	6
2023-08-27T06:00	20966	50	-53.4	-83.9	214	6
2023-08-27T06:00	20989	50	-53.4	-83.9	218	5
2023-08-27T06:00	21014	49	-53.3	-83.9	221	5
2023-08-27T06:00	21038	49	-53.4	-83.9	225	4
2023-08-27T06:00	21062	49	-53.5	-83.5	230	4
2023-08-27T06:00	21086	49	-53.5	-83.5	234	3
2023-08-27T06:00	21113	49	-53.6	-83.6	239	3
2023-08-27T06:00	21137	48	-53.6	-83.6	245	2
2023-08-27T06:00	21166	48	-53.5	-83.5	254	2
2023-08-27T06:00	21184	48	-53.6	-83.6	265	2
2023-08-27T06:00	21210	48	-53.8	-83.7	276	1
2023-08-27T06:00	21237	48	-53.8	-83.7	286	1
2023-08-27T06:00	21264	48	-53.9	-83.8	298	1
2023-08-27T06:00	21290	47	-54.1	-84.0	322	0
2023-08-27T06:00	21314	47	-54.2	-84.0	48	0
2023-08-27T06:00	21336	47	-54.3	-84.1	87	1
2023-08-27T06:00	21363	47	-54.4	-83.7	100	1
2023-08-27T06:00	21390	47	-54.5	-83.8	110	2
2023-08-27T06:00	21415	46	-54.5	-83.8	121	2
2023-08-27T06:00	21439	46	-54.6	-84.3	135	2
2023-08-27T06:00	21466	46	-54.7	-84.4	150	3
2023-08-27T06:00	21497	46	-54.6	-84.3	162	3
2023-08-27T06:00	21522	46	-54.5	-84.3	172	4
2023-08-27T06:00	21547	45	-54.5	-84.3	180	5
2023-08-27T06:00	21573	45	-54.5	-84.3	185	6
2023-08-27T06:00	21594	45	-54.5	-84.3	190	6
2023-08-27T06:00	21627	45	-54.5	-84.3	195	6
2023-08-27T06:00	21651	45	-54.5	-84.3	200	6
2023-08-27T06:00	21673	45	-54.5	-84.3	205	6
2023-08-27T06:00	21698	44	-54.4	-84.2	211	5
2023-08-27T06:00	21729	44	-54.4	-84.2	219	5
2023-08-27T06:00	21751	44	-54.4	-84.2	227	4
2023-08-27T06:00	21771	44	-54.5	-84.3	236	4
2023-08-27T06:00	21798	44	-54.5	-84.3	244	3
2023-08-27T06:00	21827	43	-54.6	-84.3	249	3
2023-08-27T06:00	21853	43	-54.6	-84.3	252	2
2023-08-27T06:00	21879	43	-54.6	-84.3	253	2
2023-08-27T06:00	21907	43	-54.4	-84.2	252	1
2023-08-27T06:00	21936	43	-54.4	-84.2	247	0
2023-08-27T06:00	21962	43	-54.5	-84.3	103	0
2023-08-27T06:00	21985	42	-54.7	-84.4	91	1
2023-08-27T06:00	22011	42	-54.8	-84.5	91	1
2023-08-27T06:00	22038	42	-54.8	-84.5	91	2
2023-08-27T06:00	22060	42	-55.0	-84.6	91	2
2023-08-27T06:00	22091	42	-54.9	-84.6	91	2
2023-08-27T06:00	22116	42	-54.6	-84.3	93	2
2023-08-27T06:00	22144	41	-54.5	-84.3	99	2
2023-08-27T06:00	22168	41	-54.5	-84.3	107	3
2023-08-27T06:00	22196	41	-54.4	-84.2	115	3
2023-08-27T06:00	22222	41	-54.4	-84.2	123	3
2023-08-27T06:00	22249	41	-54.5	-84.3	130	3
2023-08-27T06:00	22276	41	-54.7	-84.4	135	4
2023-08-27T06:00	22303	40	-54.8	-84.5	139	4
2023-08-27T06:00	22330	40	-54.8	-84.5	141	4
2023-08-27T06:00	22358	40	-54.8	-84.5	140	3
2023-08-27T06:00	22390	40	-54.8	-84.5	134	3
2023-08-27T06:00	22411	40	-54.7	-84.4	121	2
2023-08-27T06:00	22439	40	-54.7	-84.4	104	2
2023-08-27T06:00	22464	39	-54.6	-84.3	89	2
2023-08-27T06:00	22497	39	-54.5	-84.3	82	2
2023-08-27T06:00	22522	39	-54.5	-84.3	83	3
2023-08-27T06:00	22554	39	-54.4	-84.2	86	3
2023-08-27T06:00	22578	39	-54.3	-84.1	90	3
2023-08-27T06:00	22609	39	-54.3	-84.1	93	3
2023-08-27T06:00	22638	38	-54.4	-84.2	93	3
2023-08-27T06:00	22664	38	-54.4	-84.2	91	3
2023-08-27T06:00	22696	38	-54.3	-84.1	87	3
2023-08-27T06:00	22712	38	-54.3	-84.1	81	3
2023-08-27T06:00	22745	38	-54.3	-84.1	72	2
2023-08-27T06:00	22772	38	-54.5	-84.3	63	2
2023-08-27T06:00	22799	37	-54.6	-84.3	57	2
2023-08-27T06:00	22831	37	-54.6	-84.3	54	2
2023-08-27T06:00	22853	37	-54.5	-84.3	56	2
2023-08-27T06:00	22881	37	-54.4	-84.2	59	2
2023-08-27T06:00	22908	37	-54.4	-84.2	64	2
2023-08-27T06:00	22932	37	-54.3	-84.6	69	2
2023-08-27T06:00	22961	36	-54.3	-84.6	75	2
2023-08-27T06:00	22986	36	-54.1	-84.5	81	2
2023-08-27T06:00	23012	36	-54.0	-84.4	89	2
2023-08-27T06:00	23039	36	-53.8	-84.2	99	2
2023-08-27T06:00	23064	36	-53.4	-83.9	113	2
2023-08-27T06:00	23092	36	-53.2	-84.4	133	1
2023-08-27T06:00	23114	36	-53.1	-84.3	159	1
2023-08-27T06:00	23141	35	-52.9	-84.1	191	1
2023-08-27T06:00	23165	35	-52.7	-84.0	240	0
2023-08-27T06:00	23185	35	-52.5	-83.8	308	0
2023-08-27T06:00	23221	35	-52.2	-83.6	352	1
2023-08-27T06:00	23240	35	-52.1	-83.5	20	1
2023-08-27T06:00	23262	35	-52.2	-83.6	42	1
2023-08-27T06:00	23285	35	-52.3	-83.7	62	1
2023-08-27T06:00	23309	35	-52.4	-83.2	79	1
2023-08-27T06:00	23335	34	-52.4	-83.2	92	1
2023-08-27T06:00	23360	34	-52.5	-83.3	103	2
2023-08-27T06:00	23383	34	-52.6	-83.3	115	2
2023-08-27T06:00	23402	34	-52.8	-83.5	126	2
2023-08-27T06:00	23429	34	-52.9	-83.6	138	2
2023-08-27T06:00	23455	34	-53.1	-83.7	150	3
2023-08-27T06:00	23472	34	-53.1	-83.7	163	3
2023-08-27T06:00	23500	34	-53.0	-83.6	176	3
2023-08-27T06:00	23526	33	-52.9	-83.6	190	3
2023-08-27T06:00	23546	33	-52.8	-83.5	201	3
2023-08-27T06:00	23570	33	-52.8	-83.5	209	3
2023-08-27T06:00	23594	33	-52.8	-83.5	211	3
2023-08-27T06:00	23619	33	-52.8	-83.5	208	3
2023-08-27T06:00	23645	33	-52.7	-83.4	200	3
2023-08-27T06:00	23666	33	-52.7	-83.4	190	3
2023-08-27T06:00	23689	33	-52.9	-83.6	180	3
2023-08-27T06:00	23714	32	-53.0	-83.6	174	3
2023-08-27T06:00	23745	32	-52.9	-83.6	171	4
2023-08-27T06:00	23765	32	-53.0	-83.6	171	5
2023-08-27T06:00	23793	32	-53.1	-83.7	172	5
2023-08-27T06:00	23814	32	-53.1	-83.7	173	6
2023-08-27T06:00	23848	32	-53.1	-83.7	175	6
2023-08-27T06:00	23870	32	-53.3	-83.9	178	6
2023-08-27T06:00	23904	31	-53.3	-83.9	180	6
2023-08-27T06:00	23931	31	-53.3	-83.9	182	6
2023-08-27T06:00	23955	31	-53.4	-83.9	184	7
2023-08-27T06:00	23985	31	-53.5	-84.0	185	7
2023-08-27T06:00	24019	31	-53.7	-83.7	187	7
2023-08-27T06:00	24039	31	-53.8	-83.7	188	7
2023-08-27T06:00	24062	31	-54.0	-84.4	190	7
2023-08-27T06:00	24098	31	-54.1	-84.5	193	6
2023-08-27T06:00	24131	30	-53.9	-84.3	196	6
2023-08-27T06:00	24162	30	-53.4	-83.9	198	5
2023-08-27T06:00	24186	30	-53.2	-83.8	200	4
2023-08-27T06:00	24213	30	-53.3	-84.4	201	4
2023-08-27T06:00	24248	30	-53.3	-84.4	203	3
2023-08-27T06:00	24274	30	-53.2	-83.8	204	2
2023-08-27T06:00	24299	30	-53.2	-83.8	203	2
2023-08-27T06:00	24330	29	-53.2	-83.8	198	2
2023-08-27T06:00	24361	29	-53.2	-83.8	191	2
2023-08-27T06:00	24392	29	-53.0	-83.6	184	2
2023-08-27T06:00	24417	29	-53.1	-83.7	179	2
2023-08-27T06:00	24448	29	-53.2	-83.8	175	2
2023-08-27T06:00	24480	29	-53.1	-83.7	173	2
2023-08-27T06:00	24507	29	-53.0	-83.6	171	2
2023-08-27T06:00	24527	29	-53.0	-83.6	170	2
2023-08-27T06:00	24561	28	-53.0	-83.6	170	2
2023-08-27T06:00	24596	28	-53.0	-83.6	172	2
2023-08-27T06:00	24621	28	-52.9	-83.6	176	2
2023-08-27T06:00	24643	28	-52.9	-83.6	184	2
2023-08-27T06:00	24679	28	-52.8	-83.5	196	2
2023-08-27T06:00	24704	28	-52.9	-83.6	210	2
2023-08-27T06:00	24728	28	-52.9	-83.6	224	2
2023-08-27T06:00	24759	28	-52.9	-83.6	234	3
2023-08-27T06:00	24774	27	-53.0	-83.6	241	3
2023-08-27T06:00	24810	27	-53.1	-83.7	245	4
2023-08-27T06:00	24838	27	-53.3	-83.9	249	4
2023-08-27T06:00	24861	27	-53.4	-83.9	253	4
2023-08-27T06:00	24886	27	-53.6	-84.1	258	4
2023-08-27T06:00	24915	27	-53.5	-84.0	266	4
2023-08-27T06:00	24946	27	-53.2	-83.8	275	4
2023-08-27T06:00	24965	27	-52.8	-84.1	287	3
2023-08-27T06:00	24986	27	-52.6	-83.9	302	3
2023-08-27T06:00	25018	26	-52.7	-84.0	320	2
2023-08-27T06:00	25043	26	-52.6	-83.9	339	2
2023-08-27T06:00	25067	26	-52.5	-83.8	354	2
2023-08-27T06:00	25092	26	-52.4	-83.8	4	3
2023-08-27T06:00	25115	26	-52.3	-83.7	9	3
2023-08-27T06:00	25147	26	-52.2	-83.6	11	2
2023-08-27T06:00	25170	26	-52.0	-83.5	10	2
2023-08-27T06:00	25201	26	-51.8	-83.3	8	2
2023-08-27T06:00	25222	26	-51.6	-83.8	7	3
2023-08-27T06:00	25245	26	-51.5	-83.7	8	3
2023-08-27T06:00	25274	25	-51.4	-83.6	11	4
2023-08-27T06:00	25292	25	-51.2	-83.5	14	4
2023-08-27T06:00	25317	25	-50.9	-83.3	18	5
2023-08-27T06:00	25350	25	-50.8	-83.2	21	5
2023-08-27T06:00	25383	25	-50.4	-83.6	23	4
2023-08-27T06:00	25406	25	-49.8	-83.2	25	4
2023-08-27T06:00	25438	25	-49.5	-82.9	26	3
2023-08-27T06:00	25465	25	-49.3	-82.8	25	3
2023-08-27T06:00	25492	25	-49.2	-82.7	23	3
2023-08-27T06:00	25517	25	-49.0	-82.6	19	2
2023-08-27T06:00	25542	24	-48.9	-82.5	15	2
2023-08-27T06:00	25572	24	-48.9	-82.5	16	2
2023-08-27T06:00	25603	24	-48.8	-82.4	27	1
2023-08-27T06:00	25626	24	-48.5	-82.2	47	2
2023-08-27T06:00	25645	24	-48.3	-82.1	64	2
2023-08-27T06:00	25670	24	-48.0	-81.9	76	3
2023-08-27T06:00	25709	24	-47.8	-81.7	84	3
2023-08-27T06:00	25731	24	-47.9	-81.8	91	3
2023-08-27T06:00	25759	24	-47.8	-81.7	99	4
2023-08-27T06:00	25787	24	-47.7	-81.6	108	4
2023-08-27T06:00	25817	23	-47.6	-81.6	119	3
2023-08-27T06:00	25842	23	-47.6	-81.6	132	3
2023-08-27T06:00	25868	23	-47.7	-81.6	145	3
2023-08-27T06:00	25899	23	-47.8	-81.7	154	4
2023-08-27T06:00	25932	23	-47.7	-81.6	158	4
2023-08-27T06:00	25966	23	-47.8	-81.7	159	4
2023-08-27T06:00	25982	23	-47.8	-81.7	159	5
2023-08-27T06:00	26008	23	-47.8	-81.7	157	4
2023-08-27T06:00	26042	23	-47.7	-81.6	155	4
2023-08-27T06:00	26059	23	-47.4	-81.4	153	4
2023-08-27T06:00	26102	22	-47.0	-81.1	150	3
2023-08-27T06:00	26121	22	-47.0	-81.1	147	3
2023-08-27T06:00	26145	22	-47.1	-81.2	145	2
2023-08-27T06:00	26184	22	-47.2	-81.3	144	2
2023-08-27T06:00	26200	22	-47.4	-81.4	144	1
2023-08-27T06:00	26244	22	-47.6	-81.6	140	1
2023-08-27T06:00	26262	22	-47.7	-80.9	109	0
2023-08-27T06:00	26287	22	-47.9	-81.1	33	1
2023-08-27T06:00	26312	22	-48.1	-81.2	29	1
2023-08-27T06:00	26342	22	-48.1	-81.2	37	2
2023-08-27T06:00	26368	22	-48.1	-81.9	49	2
2023-08-27T06:00	26390	22	-48.0	-81.9	60	3
2023-08-27T06:00	26414	21	-47.9	-81.8	71	3
2023-08-27T06:00	26448	21	-47.8	-81.7	80	3
2023-08-27T06:00	26467	21	-47.5	-81.5	87	3
2023-08-27T06:00	26491	21	-47.3	-81.4	93	3
2023-08-27T06:00	26517	21	-47.3	-81.4	97	3
2023-08-27T06:00	26538	21	-47.3	-81.4	101	3
2023-08-27T06:00	26569	21	-47.1	-81.2	105	2
2023-08-27T06:00	26591	21	-47.0	-81.1	112	2
2023-08-27T06:00	26615	21	-47.0	-81.1	122	2
2023-08-27T06:00	26634	21	-46.7	-81.7	133	3
2023-08-27T06:00	26657	21	-46.5	-81.6	143	3
2023-08-27T06:00	26685	21	-46.5	-81.6	150	3
2023-08-27T06:00	26692	21	-46.5	-81.6	154	4
2023-08-27T06:00	26728	20	-46.4	-81.5	158	4
2023-08-27T06:00	26765	20	-46.3	-81.4	162	3
2023-08-27T06:00	26787	20	-46.2	-81.4	167	3
2023-08-27T06:00	26814	20	-46.1	-81.3	173	3
2023-08-27T06:00	26839	20	-46.0	-81.2	180	3
2023-08-27T06:00	26858	20	-45.8	-81.1	191	3
2023-08-27T06:00	26889	20	-45.8	-81.1	204	3
2023-08-27T06:00	26908	20	-45.8	-81.1	220	3
2023-08-27T06:00	26941	20	-45.7	-81.0	234	3
2023-08-27T06:00	26968	20	-45.5	-80.9	242	4
2023-08-27T06:00	27000	20	-45.4	-80.8	246	4
2023-08-27T06:00	27023	20	-45.3	-80.7	248	5
2023-08-27T06:00	27049	19	-45.2	-80.7	249	5
2023-08-27T06:00	27087	19	-45.1	-80.6	250	5
2023-08-27T06:00	27116	19	-45.1	-80.6	252	5
2023-08-27T06:00	27145	19	-45.0	-80.5	255	5
2023-08-27T06:00	27169	19	-44.9	-80.4	258	5
2023-08-27T06:00	27204	19	-45.0	-80.5	261	5
2023-08-27T06:00	27239	19	-45.2	-80.7	263	4
2023-08-27T06:00	27267	19	-45.4	-80.8	265	4
2023-08-27T06:00	27287	19	-45.6	-80.9	267	4
2023-08-27T06:00	27334	19	-45.6	-80.9	270	4
2023-08-27T06:00	27369	19	-45.7	-81.0	274	5
2023-08-27T06:00	27398	18	-45.6	-80.9	280	5
2023-08-27T06:00	27434	18	-45.7	-81.0	285	5
2023-08-27T06:00	27463	18	-45.7	-81.0	289	6
2023-08-27T06:00	27499	18	-45.7	-81.0	293	6
2023-08-27T06:00	27514	18	-45.6	-80.9	295	6
2023-08-27T06:00	27560	18	-45.6	-80.9	297	6
2023-08-27T06:00	27592	18	-45.6	-80.9	298	6
2023-08-27T06:00	27633	18	-45.7	-81.0	299	6
2023-08-27T06:00	27659	18	-45.7	-81.0	300	5
2023-08-27T06:00	27692	18	-45.8	-81.1	300	5
2023-08-27T06:00	27717	18	-45.9	-81.2	301	4
2023-08-27T06:00	27761	18	-46.1	-81.3	303	4
2023-08-27T06:00	27805	17	-46.3	-80.6	304	3
2023-08-27T06:00	27832	17	-46.4	-80.7	305	2
2023-08-27T06:00	27849	17	-46.4	-81.5	304	2
2023-08-27T06:00	27882	17	-46.4	-81.5	301	2
2023-08-27T06:00	27919	17	-46.3	-81.4	300	2
2023-08-27T06:00	27952	17	-46.2	-81.4	301	2
2023-08-27T06:00	27971	17	-46.2	-81.4	306	2
2023-08-27T06:00	28004	17	-46.0	-81.2	312	3
2023-08-27T06:00	28026	17	-45.9	-81.2	318	3
2023-08-27T06:00	28051	17	-45.7	-81.0	324	3
2023-08-27T06:00	28083	17	-45.6	-80.9	329	3
2023-08-27T06:00	28107	17	-45.5	-80.9	333	3
2023-08-27T06:00	28137	17	-45.5	-80.9	335	3
2023-08-27T06:00	28178	16	-45.6	-80.9	334	2
2023-08-27T06:00	28196	16	-45.5	-80.9	333	2
2023-08-27T06:00	28225	16	-45.4	-80.8	334	2
2023-08-27T06:00	28259	16	-45.2	-80.7	340	1
2023-08-27T06:00	28271	16	-45.0	-80.5	2	1
2023-08-27T06:00	28304	16	-44.8	-80.4	32	1
2023-08-27T06:00	28322	16	-44.7	-81.2	39	1
2023-08-27T06:00	28349	16	-44.4	-81.0	31	1
2023-08-27T06:00	28365	16	-44.2	-80.9	22	2
2023-08-27T06:00	28395	16	-44.0	-80.7	18	3
2023-08-27T06:00	28414	16	-43.8	-80.6	16	3
2023-08-27T06:00	28440	16	-43.4	-80.3	16	4
2023-08-27T06:00	28461	16	-43.1	-80.1	18	5
2023-08-27T06:00	28493	16	-42.9	-80.0	22	5
2023-08-27T06:00	28512	16	-42.9	-80.0	27	6
2023-08-27T06:00	28526	16	-42.8	-79.9	35	5
2023-08-27T06:00	28573	16	-42.4	-79.6	43	5
2023-08-27T06:00	28595	15	-42.2	-79.5	53	5
2023-08-27T06:00	28606	15	-42.1	-79.4	65	5
2023-08-27T06:00	28647	15	-42.3	-79.5	76	5
2023-08-27T06:00	28673	15	-42.4	-79.6	87	5
2023-08-27T06:00	28705	15	-42.4	-79.6	97	5
2023-08-27T06:00	28726	15	-42.4	-79.6	107	5
2023-08-27T06:00	28753	15	-42.4	-79.6	117	5
2023-08-27T06:00	28789	15	-42.4	-79.6	127	5
2023-08-27T06:00	28805	15	-42.4	-79.6	136	5
2023-08-27T06:00	28830	15	-42.4	-79.6	143	5
2023-08-27T06:00	28875	15	-42.4	-79.6	149	6
2023-08-27T06:00	28911	15	-42.4	-79.6	154	6
2023-08-27T06:00	28930	15	-42.3	-79.5	159	6
2023-08-27T06:00	28968	15	-42.3	-79.5	162	6
2023-08-27T06:00	29000	15	-42.2	-79.5	166	6
2023-08-27T06:00	29037	14	-42.1	-79.4	168	6
2023-08-27T06:00	29061	14	-42.0	-79.3	171	6
2023-08-27T06:00	29085	14	-42.1	-79.4	174	6
2023-08-27T06:00	29122	14	-42.2	-79.5	177	5
2023-08-27T06:00	29166	14	-42.3	-79.5	181	5
2023-08-27T06:00	29190	14	-42.0	-79.3	185	4
2023-08-27T06:00	29227	14	-41.7	-80.2	189	3
2023-08-27T06:00	29260	14	-41.4	-80.0	191	3
2023-08-27T06:00	29295	14	-41.2	-79.9	190	3
2023-08-27T06:00	29320	14	-41.1	-79.8	186	2
2023-08-27T06:00	29362	14	-41.1	-79.8	181	2
2023-08-27T06:00	29393	14	-41.1	-79.8	176	2
2023-08-27T06:00	29414	14	-41.0	-79.7	172	2
2023-08-27T06:00	29446	14	-40.9	-79.7	169	2
2023-08-27T06:00	29478	14	-40.9	-79.7	166	1
2023-08-27T06:00	29514	14	-40.8	-79.6	155	1
2023-08-27T06:00	29537	13	-40.7	-79.5	132	1
2023-08-27T06:00	29565	13	-40.6	-79.5	112	1
2023-08-27T06:00	29595	13	-40.5	-79.4	105	2
2023-08-27T06:00	29627	13	-40.5	-79.4	105	2
2023-08-27T06:00	29652	13	-40.6	-79.5	106	3
2023-08-27T06:00	29678	13	-40.7	-79.5	108	3
2023-08-27T06:00	29705	13	-40.6	-79.5	110	4
2023-08-27T06:00	29737	13	-40.5	-79.4	111	4
2023-08-27T06:00	29769	13	-40.4	-79.3	112	4
2023-08-27T06:00	29792	13	-40.3	-79.2	113	5
2023-08-27T06:00	29813	13	-40.3	-79.2	114	5
2023-08-27T06:00	29847	13	-40.4	-79.3	115	5
2023-08-27T06:00	29875	13	-40.4	-79.3	116	5
2023-08-27T06:00	29884	13	-40.4	-79.3	119	5
2023-08-27T06:00	29920	13	-40.3	-79.2	122	5
2023-08-27T06:00	29958	13	-40.3	-79.2	126	5
2023-08-27T06:00	29982	13	-40.3	-79.2	130	4
2023-08-27T06:00	29994	13	-40.2	-79.2	134	4
2023-08-27T06:00	30017	13	-40.2	-79.2	138	3
2023-08-27T06:00	30068	12	-40.2	-79.2	144	2
2023-08-27T06:00	30086	12	-40.1	-79.1	156	2
2023-08-27T06:00	30104	12	-39.9	-79.0	181	1
2023-08-27T06:00	30130	12	-39.9	-79.0	210	1
2023-08-27T06:00	30154	12	-39.9	-79.0	225	2
2023-08-27T06:00	30178	12	-40.0	-79.0	231	2
2023-08-27T06:00	30221	12	-40.1	-79.1	232	3
2023-08-27T06:00	30249	12	-40.2	-79.2	232	3
2023-08-27T06:00	30284	12	-40.2	-79.2	231	3
2023-08-27T06:00	30296	12	-40.1	-79.1	229	3
2023-08-27T06:00	30321	12	-39.9	-79.0	227	3
2023-08-27T06:00	30355	12	-39.6	-78.8	223	3
2023-08-27T06:00	30384	12	-39.6	-78.8	218	3
2023-08-27T06:00	30416	12	-39.7	-78.8	209	2
2023-08-27T06:00	30432	12	-39.9	-79.0	195	2
2023-08-27T06:00	30489	12	-40.2	-79.2	180	2
2023-08-27T06:00	30510	12	-40.4	-79.3	167	2
2023-08-27T06:00	30538	12	-40.6	-79.5	161	3
2023-08-27T06:00	30579	12	-40.8	-79.6	161	3
2023-08-27T06:00	30619	11	-40.8	-79.6	164	4
2023-08-27T06:00	30635	11	-40.8	-79.6	169	5
2023-08-27T06:00	30676	11	-40.9	-79.7	174	5
2023-08-27T06:00	30707	11	-41.0	-79.7	178	6
2023-08-27T06:00	30740	11	-41.1	-79.8	182	6
2023-08-27T06:00	30779	11	-41.3	-79.9	186	6
2023-08-27T06:00	30829	11	-41.5	-79.0	190	6
2023-08-27T06:00	30841	11	-41.6	-79.0	195	6
2023-08-27T06:00	30883	11	-41.6	-79.0	201	5
2023-08-27T06:00	30905	11	-41.7	-80.2	207	4
2023-08-27T06:00	30937	11	-41.6	-80.1	214	4
2023-08-27T06:00	30986	11	-41.6	-80.1	221	3
2023-08-27T06:00	31010	11	-41.7	-80.2	226	3
2023-08-27T06:00	31040	11	-41.7	-80.2	227	3
2023-08-27T06:00	31062	11	-41.6	-80.1	226	3
2023-08-27T06:00	31120	11	-41.4	-80.0	223	3
2023-08-27T06:00	31169	11	-41.2	-79.9	222	3
2023-08-27T06:00	31191	11	-41.2	-79.9	223	3
2023-08-27T06:00	31229	11	-41.1	-79.8	226	3
2023-08-27T06:00	31240	10	-41.0	-79.7	233	2
2023-08-27T06:00	31283	10	-41.0	-79.7	245	2
2023-08-27T06:00	31316	10	-40.8	-79.6	268	1
2023-08-27T06:00	31355	10	-40.9	-79.7	306	1
2023-08-27T06:00	31384	10	-41.0	-79.7	344	1
2023-08-27T06:00	31407	10	-41.0	-79.7	5	1
2023-08-27T06:00	31433	10	-40.8	-79.6	16	1
2023-08-27T06:00	31479	10	-40.7	-79.5	18	1
2023-08-27T06:00	31513	10	-40.6	-79.5	14	1
2023-08-27T06:00	31537	10	-40.6	-79.5	9	1
2023-08-27T06:00	31572	10	-40.7	-79.5	2	1
2023-08-27T06:00	31585	10	-40.8	-79.6	352	0
2023-08-27T06:00	31625	10	-40.9	-79.7	246	0
2023-08-27T06:00	31651	10	-41.0	-79.7	181	0
2023-08-27T06:00	31683	10	-40.9	-79.7	157	0
2023-08-27T06:00	31693	10	-40.8	-79.6	111	0
2023-08-27T06:00	31733	10	-40.6	-79.5	76	1
2023-08-27T06:00	31788	10	-40.4	-79.3	63	2
2023-08-27T06:00	31823	10	-40.2	-79.2	56	3
2023-08-27T06:00	31844	10	-40.2	-79.2	54	4
2023-08-27T06:00	31873	10	-40.2	-79.2	52	4
2023-08-27T06:00	31906	10	-40.1	-79.1	51	4
2023-08-27T06:00	31927	9	-39.9	-79.0	51	4
2023-08-27T06:00	31955	9	-39.8	-78.9	53	3
2023-08-27T06:00	31971	9	-39.8	-78.9	60	3
2023-08-27T06:00	32015	9	-39.8	-78.9	72	2
2023-08-27T06:00	32029	9	-39.7	-78.8	93	2
2023-08-27T06:00	32066	9	-39.6	-78.8	118	2
2023-08-27T06:00	32099	9	-39.5	-78.7	144	2
2023-08-27T06:00	32118	9	-39.4	-78.6	170	1
2023-08-27T06:00	32160	9	-39.2	-78.5	196	1
2023-08-27T06:00	32180	9	-38.9	-78.3	222	1
2023-08-27T06:00	32224	9	-38.8	-78.2	248	1
2023-08-27T06:00	32253	9	-38.7	-78.1	276	1
2023-08-27T06:00	32259	9	-38.5	-78.0	305	2
2023-08-27T06:00	32304	9	-38.4	-77.9	330	2
2023-08-27T06:00	32328	9	-38.3	-77.9	349	3
2023-08-27T06:00	32362	9	-38.2	-77.8	3	3
2023-08-27T06:00	32399	9	-38.2	-77.8	14	4
2023-08-27T06:00	32430	9	-38.2	-77.8	24	5
2023-08-27T06:00	32462	9	-38.2	-77.8	32	6
2023-08-27T06:00	32481	9	-38.0	-77.6	39	7
2023-08-27T06:00	32527	9	-37.9	-77.6	45	7
2023-08-27T06:00	32553	9	-37.7	-77.4	51	7
2023-08-27T06:00	32588	9	-37.5	-77.3	55	7
2023-08-27T06:00	32635	9	-37.3	-77.2	60	7
2023-08-27T06:00	32676	9	-37.1	-77.0	66	7
2023-08-27T06:00	32691	8	-36.9	-76.9	72	6
2023-08-27T06:00	32705	8	-36.7	-76.7	77	6
2023-08-27T06:00	32772	8	-36.4	-76.5	81	6
2023-08-27T06:00	32787	8	-36.2	-76.4	81	6
2023-08-27T06:00	32831	8	-36.2	-76.4	80	6
2023-08-27T06:00	32865	8	-36.2	-76.4	78	7
2023-08-27T06:00	32916	8	-36.2	-76.4	77	8
2023-08-27T06:00	32945	8	-36.2	-76.4	77	8
2023-08-27T06:00	32962	8	-36.2	-76.4	78	9
2023-08-27T06:00	32993	8	-36.2	-76.4	79	9
2023-08-27T06:00	33037	8	-36.2	-76.4	80	9
2023-08-27T06:00	33064	8	-36.2	-76.4	82	9
2023-08-27T06:00	33100	8	-36.2	-76.4	83	9
2023-08-27T06:00	33132	8	-36.2	-76.4	85	9
2023-08-27T06:00	33189	8	-36.5	-76.6	89	9
2023-08-27T06:00	33247	8	-36.7	-76.7	91	9
2023-08-27T06:00	33269	8	-36.7	-76.7	92	8
2023-08-27T06:00	33287	8	-36.7	-76.7	91	8
2023-08-27T06:00	33316	8	-36.7	-76.7	88	7
2023-08-27T06:00	33342	8	-36.7	-76.7	83	6
2023-08-27T06:00	33368	8	-36.5	-76.6	77	6
2023-08-27T06:00	33409	8	-35.7	-76.1	71	7
2023-08-27T06:00	33437	8	-35.3	-75.8	72	8
2023-08-27T06:00	33484	8	-34.8	-75.4	75	9
2023-08-27T06:00	33513	8	-34.3	-75.1	79	10
2023-08-27T06:00	33542	8	-33.3	-74.4	87	11
2023-08-27T06:00	33581	8	-33.0	-74.2	92	12
2023-08-27T06:00	33609	7	-32.6	-73.9	100	12
2023-08-27T06:00	33620	7	-32.5	-73.8	105	11
2023-08-27T06:00	33641	7	-32.4	-73.8	109	11
2023-08-27T06:00	33648	7	-32.3	-73.7	112	11
2023-08-27T06:00	33703	7	-32.2	-73.6	114	11
2023-08-27T06:00	33728	7	-32.0	-73.5	115	11
2023-08-27T06:00	33779	7	-31.9	-73.4	113	11
2023-08-27T06:00	33799	7	-31.7	-73.3	111	11
2023-08-27T06:00	33815	7	-31.6	-73.2	109	11
2023-08-27T06:00	33845	7	-31.5	-73.2	108	11
2023-08-27T06:00	33871	7	-31.4	-73.1	109	11
2023-08-27T06:00	33906	7	-31.4	-73.1	111	11
2023-08-27T06:00	33916	7	-31.4	-73.1	114	10
2023-08-27T06:00	33938	7	-31.4	-73.1	117	10
2023-08-27T06:00	33988	7	-31.4	-73.1	119	10
2023-08-27T06:00	34017	7	-31.4	-73.1	120	9
2023-08-27T06:00	34062	7	-31.3	-73.0	121	9
2023-08-27T06:00	34076	7	-31.2	-73.0	119	9
2023-08-27T06:00	34121	7	-31.1	-72.9	118	10
2023-08-27T06:00	34157	7	-31.1	-72.9	115	10
2023-08-27T06:00	34179	7	-31.2	-73.0	112	10
2023-08-27T06:00	34221	7	-31.4	-73.1	110	10
2023-08-27T06:00	34252	7	-31.5	-73.2	108	11
2023-08-27T06:00	34344	7	-31.7	-73.3	106	12
2023-08-27T06:00	34359	7	-31.8	-73.4	105	12
2023-08-27T06:00	34432	7	-32.0	-73.5	105	13
2023-08-27T06:00	34461	7	-32.6	-73.9	104	13
2023-08-27T06:00	34493	7	-32.9	-74.1	104	13
2023-08-27T06:00	34522	7	-33.1	-74.3	105	13
2023-08-27T06:00	34577	7	-33.2	-74.3	106	12
2023-08-27T06:00	34594	6	-33.3	-74.4	108	12
2023-08-27T06:00	34632	6	-33.5	-74.5	110	11
2023-08-27T06:00	34685	6	-33.7	-74.7	112	10
2023-08-27T06:00	34721	6	-33.8	-74.7	114	10
2023-08-27T06:00	34756	6	-33.9	-74.8	115	9
2023-08-27T06:00	34772	6	-34.1	-75.0	115	9
2023-08-27T06:00	34790	6	-34.2	-75.0	115	9
2023-08-27T06:00	34856	6	-34.3	-75.1	114	9
2023-08-27T06:00	34908	6	-34.3	-75.1	111	10
2023-08-27T06:00	34912	6	-34.2	-75.0	110	11
2023-08-27T06:00	34923	6	-34.0	-74.9	110	12
2023-08-27T06:00	34971	6	-33.8	-74.7	112	13
2023-08-27T06:00	34981	6	-33.6	-74.6	113	14
2023-08-27T06:00	35031	6	-33.3	-74.4	116	15
2023-08-27T06:00	35057	6	-33.1	-74.3	118	15
2023-08-27T06:00	35097	6	-32.9	-74.1	120	16
2023-08-27T06:00	35100	6	-32.9	-74.1	122	16
2023-08-27T06:00	35112	6	-33.0	-74.2	125	16
2023-08-27T06:00	35197	6	-33.1	-74.3	128	15
2023-08-27T06:00	35231	6	-33.1	-74.3	137	14
2023-08-27T06:00	35256	6	-33.1	-74.3	140	14
2023-08-27T06:00	35298	6	-33.1	-74.3	142	13
2023-08-27T06:00	35317	6	-32.6	-73.9	141	11
2023-08-27T06:00	35360	6	-32.3	-73.7	139	11
2023-08-27T06:00	35363	6	-31.9	-73.4	137	10
2023-08-27T06:00	35389	6	-31.7	-73.3	136	10
2023-08-27T06:00	35453	6	-31.5	-73.2	136	10
2023-08-27T06:00	35456	6	-31.5	-73.2	137	9
2023-08-27T06:00	35476	6	-31.5	-73.2	139	9
2023-08-27T06:00	35506	6	-31.6	-73.2	140	8
2023-08-27T06:00	35522	6	-31.6	-73.2	142	7
2023-08-27T06:00	35610	6	-31.6	-73.2	143	6
2023-08-27T06:00	35615	6	-31.4	-73.1	141	6
2023-08-27T06:00	35640	6	-31.3	-73.0	139	7
2023-08-27T12:00	112	997	19.0	10.8	50	1
2023-08-27T12:00	139	994	18.2	11.0	49	1
2023-08-27T12:00	167	991	17.9	10.4	56	2
2023-08-27T12:00	193	988	17.6	10.0	60	2
2023-08-27T12:00	218	985	17.5	10.2	63	2
2023-08-27T12:00	246	982	17.3	9.7	67	2
2023-08-27T12:00	273	979	17.2	8.2	75	2
2023-08-27T12:00	299	976	17.2	7.9	84	2
2023-08-27T12:00	327	973	17.0	7.7	92	2
2023-08-27T12:00	350	970	16.8	7.6	98	2
2023-08-27T12:00	376	967	16.6	7.8	102	3
2023-08-27T12:00	400	964	16.3	7.6	105	3
2023-08-27T12:00	425	962	16.2	7.3	108	3
2023-08-27T12:00	440	959	16.1	7.5	111	3
2023-08-27T12:00	466	957	15.9	7.5	112	3
2023-08-27T12:00	491	954	15.7		112	3
2023-08-27T12:00	513	952	15.6		111	2
2023-08-27T12:00	530	950	15.5	7.3	111	2
2023-08-27T12:00	551	947	15.3	7.3	113	2
2023-08-27T12:00	574	945	15.1	7.3	118	3
2023-08-27T12:00	604	941	14.9	7.2	124	3
2023-08-27T12:00	628	939	14.8	6.4	130	3
2023-08-27T12:00	652	936	14.9	6.4	136	3
2023-08-27T12:00	676	933	14.8	5.8	140	4
2023-08-27T12:00	702	930	14.6	5.3	143	4
2023-08-27T12:00	734	927	14.5	5.0	146	5
2023-08-27T12:00	759	924	14.4	4.6	148	6
2023-08-27T12:00	784	922	14.2	4.2	150	7
2023-08-27T12:00	802	919	14.2	4.0	152	7
2023-08-27T12:00	824	917	14.1	4.3	154	7
2023-08-27T12:00	847	915	13.9	4.3	156	7
2023-08-27T12:00	872	912	13.7	4.3	157	7
2023-08-27T12:00	903	909	13.4	4.6	158	7
2023-08-27T12:00	926	906	13.2	5.3	159	7
2023-08-27T12:00	947	904	13.0	6.0	161	7
2023-08-27T12:00	973	901	12.6	7.9	163	7
2023-08-27T12:00	998	898	12.4	8.6	166	7
2023-08-27T12:00	1029	895	12.0	10.5	168	8
2023-08-27T12:00	1049	893	11.8	10.8	171	8
2023-08-27T12:00	1072	891	11.6	11.5	174	9
2023-08-27T12:00	1093	888	11.5	11.4	176	9
2023-08-27T12:00	1113	886	11.4		178	9
2023-08-27T12:00	1137	884	11.3	11.3	180	9
2023-08-27T12:00	1157	881	11.3	11.3	181	9
2023-08-27T12:00	1189	878	11.4	11.4	182	9
2023-08-27T12:00	1217	875	11.3	11.3	183	9
2023-08-27T12:00	1238	873	11.2	11.2	185	9
2023-08-27T12:00	1262	870	11.1	11.1	188	8
2023-08-27T12:00	1288	868	11.1	11.1	190	8
2023-08-27T12:00	1314	865	11.1	11.1	193	8
2023-08-27T12:00	1338	863	11.0	11.0	195	8
2023-08-27T12:00	1358	861	10.9	10.9	196	7
2023-08-27T12:00	1379	858	10.7	10.7	197	7
2023-08-27T12:00	1402	856	10.5	10.5	196	8
2023-08-27T12:00	1429	853	10.4	10.1	195	8
2023-08-27T12:00	1460	850	10.2	10.0	193	8
2023-08-27T12:00	1483	848	10.1	9.9	191	8
2023-08-27T12:00	1501	846	10.0	9.6	191	8
2023-08-27T12:00	1526	843	9.9	9.5	193	8
2023-08-27T12:00	1559	840	9.6	9.3	196	7
2023-08-27T12:00	1579	838	9.5		202	7
2023-08-27T12:00	1602	836	9.4	9.0	207	7
2023-08-27T12:00	1627	833	9.2	8.9	211	7
2023-08-27T12:00	1656	830	8.9	8.6	212	7
2023-08-27T12:00	1683	828	8.7	8.7	212	7
2023-08-27T12:00	1707	825	8.5	8.5	211	8
2023-08-27T12:00	1737	822	8.3	8.3	210	8
2023-08-27T12:00	1763	819	8.2	8.2	209	8
2023-08-27T12:00	1800	816	8.1	7.7	209	9
2023-08-27T12:00	1826	814	8.1	7.4	211	9
2023-08-27T12:00	1848	811	7.9	7.3	214	10
2023-08-27T12:00	1867	809	8.2	6.6	216	10
2023-08-27T12:00	1889	807	8.1	6.4	218	10
2023-08-27T12:00	1909	805	7.9	6.2	219	10
2023-08-27T12:00	1927	804	7.8	6.0	219	10
2023-08-27T12:00	1949	801	7.7	5.9	218	10
2023-08-27T12:00	1973	799	7.6	5.7	219	11
2023-08-27T12:00	2000	797	7.4	5.7	220	11
2023-08-27T12:00	2025	794	7.2	6.2	222	11
2023-08-27T12:00	2045	792	7.1	6.4	224	12
2023-08-27T12:00	2064	790	7.0	6.2	224	11
2023-08-27T12:00	2083	789	6.9	5.8	222	11
2023-08-27T12:00	2108	786	6.8	5.7	219	11
2023-08-27T12:00	2133	784	6.6	5.5	215	11
2023-08-27T12:00	2152	782	6.4	5.2	212	11
2023-08-27T12:00	2174	780	6.3	5.3	212	11
2023-08-27T12:00	2193	778	6.1	5.2	213	11
2023-08-27T12:00	2218	776	5.9	5.0	217	11
2023-08-27T12:00	2242	773	5.7	5.1	221	11
2023-08-27T12:00	2266	771	5.5	5.1	224	11
2023-08-27T12:00	2288	769	5.3	4.9	225	11
2023-08-27T12:00	2311	767	5.2	4.9	224	11
2023-08-27T12:00	2338	765	5.0	4.6	222	11
2023-08-27T12:00	2358	763	5.0	4.4	220	11
2023-08-27T12:00	2378	761	4.9	4.4	218	12
2023-08-27T12:00	2398	759	4.7	4.3	216	12
2023-08-27T12:00	2423	756	4.5	4.2	215	12
2023-08-27T12:00	2449	754	4.3	4.2	215	12
2023-08-27T12:00	2471	752	4.1	4.1	215	12
2023-08-27T12:00	2492	750	4.0	4.0	215	12
2023-08-27T12:00	2513	748	4.1	4.1	214	12
2023-08-27T12:00	2533	746	4.0	4.0	213	12
2023-08-27T12:00	2552	745	3.8	3.8	211	12
2023-08-27T12:00	2573	743	3.7	3.7	210	12
2023-08-27T12:00	2593	741	3.6	3.6	210	13
2023-08-27T12:00	2616	739	3.5	3.3	209	13
2023-08-27T12:00	2635	737	3.4	3.3	208	13
2023-08-27T12:00	2656	735	3.2	3.2	207	13
2023-08-27T12:00	2676	733	3.1	3.1	206	13
2023-08-27T12:00	2695	732	2.9	2.9	208	13
2023-08-27T12:00	2719	730	2.8	2.8	210	13
2023-08-27T12:00	2739	728	2.6	2.6	213	12
2023-08-27T12:00	2760	726	2.5	2.2	215	12
2023-08-27T12:00	2778	724	2.5	1.7	215	11
2023-08-27T12:00	2802	722	2.4	1.5	213	11
2023-08-27T12:00	2826	720	2.3	1.0	210	11
2023-08-27T12:00	2860	717	2.1	0.7	208	11
2023-08-27T12:00	2885	715	1.9	0.7	206	12
2023-08-27T12:00	2906	713	1.7	0.5	205	12
2023-08-27T12:00	2927	711	1.6	0.4	204	11
2023-08-27T12:00	2955	708	1.4	0.2	204	11
2023-08-27T12:00	2985	706	1.2	-0.1	205	10
2023-08-27T12:00	3008	704	1.0	-0.2	207	10
2023-08-27T12:00	3034	702	0.9	-0.9	209	10
2023-08-27T12:00	3056	700	0.8	-1.4	211	10
2023-08-27T12:00	3082	698	0.7	-1.6	212	10
2023-08-27T12:00	3102	696	0.6	-1.9	211	10
2023-08-27T12:00	3128	693	0.5	-2.0	210	10
2023-08-27T12:00	3154	691	0.3	-2.2	208	10
2023-08-27T12:00	3175	689	0.1	-2.5	208	10
2023-08-27T12:00	3197	687	-0.1	-2.6	207	10
2023-08-27T12:00	3220	686	-0.3	-2.6	206	11
2023-08-27T12:00	3242	684	-0.5	-2.7	205	11
2023-08-27T12:00	3261	682	-0.6	-2.6	203	11
2023-08-27T12:00	3284	680	-0.7	-3.0	201	12
2023-08-27T12:00	3305	678	-0.8	-3.3	200	12
2023-08-27T12:00	3324	677	-0.9		199	12
2023-08-27T12:00	3343	675	-1.0	-3.7	200	13
2023-08-27T12:00	3361	673	-1.2	-3.8	201	12
2023-08-27T12:00	3385	672	-1.4	-4.0	203	12
2023-08-27T12:00	3405	670	-1.6	-4.1	204	12
2023-08-27T12:00	3434	667	-1.8	-4.1	207	12
2023-08-27T12:00	3464	665	-1.9	-3.0	209	12
2023-08-27T12:00	3487	663	-2.1	-2.3	212	12
2023-08-27T12:00	3511	661	-2.0	-2.0	213	12
2023-08-27T12:00	3534	659	-2.2	-2.2	214	12
2023-08-27T12:00	3555	657	-2.2	-2.2	214	12
2023-08-27T12:00	3577	656	-2.3	-2.3	213	11
2023-08-27T12:00	3600	654	-2.5	-2.5	213	11
2023-08-27T12:00	3618	652	-2.5	-2.8	215	10
2023-08-27T12:00	3643	650	-2.2	-3.0	217	9
2023-08-27T12:00	3663	649	-2.1	-3.4	220	8
2023-08-27T12:00	3683	647	-2.0	-3.6	222	7
2023-08-27T12:00	3702	645	-2.0	-3.8	222	7
2023-08-27T12:00	3725	644	-2.2	-3.9	220	7
2023-08-27T12:00	3750	642	-2.4	-3.9	218	8
2023-08-27T12:00	3772	640	-2.6	-4.0	219	8
2023-08-27T12:00	3791	638	-2.8	-4.1	221	9
2023-08-27T12:00	3812	636	-2.9	-4.2	224	9
2023-08-27T12:00	3830	635	-3.0	-4.2	225	9
2023-08-27T12:00	3852	633	-3.2	-4.3	225	9
2023-08-27T12:00	3876	631	-3.4	-4.4	224	9
2023-08-27T12:00	3898	630	-3.6	-4.5	222	10
2023-08-27T12:00	3922	628	-3.8	-4.6	220	10
2023-08-27T12:00	3946	626	-4.0	-4.6	220	10
2023-08-27T12:00	3967	624	-4.2	-4.8	221	11
2023-08-27T12:00	3996	622	-4.3	-4.8	222	11
2023-08-27T12:00	4025	620	-4.4	-4.8	224	11
2023-08-27T12:00	4049	618	-4.6	-5.0	226	12
2023-08-27T12:00	4072	616	-4.7	-5.1	228	13
2023-08-27T12:00	4102	614	-4.9	-5.2	230	13
2023-08-27T12:00	4130	611	-5.1	-5.3	232	14
2023-08-27T12:00	4158	609	-5.1	-5.5	234	15
2023-08-27T12:00	4181	607	-5.1	-5.6	235	15
2023-08-27T12:00	4206	605	-5.3	-5.6	235	15
2023-08-27T12:00	4232	603	-5.6	-5.6	234	15
2023-08-27T12:00	4254	602	-5.7	-5.7	232	15
2023-08-27T12:00	4277	600	-5.8	-5.8	229	15
2023-08-27T12:00	4300	598	-5.9	-6.0	227	15
2023-08-27T12:00	4323	597	-6.1	-6.1	227	15
2023-08-27T12:00	4345	595	-6.2	-6.2	227	15
2023-08-27T12:00	4367	593	-6.3	-6.3	229	15
2023-08-27T12:00	4393	591	-6.4	-6.4	230	15
2023-08-27T12:00	4414	590	-6.6	-6.6	232	15
2023-08-27T12:00	4438	588	-6.7	-6.7	233	14
2023-08-27T12:00	4460	586	-6.8	-6.8	233	14
2023-08-27T12:00	4481	585	-7.0	-7.1	233	13
2023-08-27T12:00	4501	583	-7.0	-7.1	231	13
2023-08-27T12:00	4522	581	-7.1	-7.4	227	12
2023-08-27T12:00	4539	580	-7.2	-7.5	222	12
2023-08-27T12:00	4561	579	-7.4	-7.5	216	13
2023-08-27T12:00	4581	577	-7.5	-7.7	212	13
2023-08-27T12:00	4603	575	-7.6	-7.8	210	13
2023-08-27T12:00	4627	574	-7.7	-7.9	208	14
2023-08-27T12:00	4644	572	-7.8	-8.0	206	14
2023-08-27T12:00	4667	571	-7.8	-8.0	204	15
2023-08-27T12:00	4689	569	-7.8	-8.0	202	16
2023-08-27T12:00	4706	568	-7.6	-7.9	202	17
2023-08-27T12:00	4725	566	-7.7	-7.8	202	17
2023-08-27T12:00	4748	565	-7.7	-7.7	203	18
2023-08-27T12:00	4766	564	-7.6	-7.6	205	18
2023-08-27T12:00	4786	562	-7.6	-7.6	206	19
2023-08-27T12:00	4807	560	-7.7	-7.7	205	20
2023-08-27T12:00	4837	559	-7.8	-7.8	204	21
2023-08-27T12:00	4858	557	-7.7	-7.8	203	21
2023-08-27T12:00	4883	555	-7.8	-7.8	202	22
2023-08-27T12:00	4910	553	-7.9	-7.9	201	22
2023-08-27T12:00	4931	552	-7.9	-8.0	202	22
2023-08-27T12:00	4948	550	-8.0	-8.0	203	22
2023-08-27T12:00	4969	549	-8.0	-8.0	204	22
2023-08-27T12:00	4995	547	-8.1	-8.2	206	23
2023-08-27T12:00	5018	546	-8.2	-8.3	208	23
2023-08-27T12:00	5042	544	-8.2	-8.4	209	24
2023-08-27T12:00	5066	542	-8.4	-8.6	210	24
2023-08-27T12:00	5089	541	-8.5	-8.6	211	25
2023-08-27T12:00	5111	539	-8.5	-8.7	212	25
2023-08-27T12:00	5134	538	-8.6	-8.9	212	25
2023-08-27T12:00	5160	536	-8.7	-9.0	212	25
2023-08-27T12:00	5183	534	-8.8	-9.1	212	25
2023-08-27T12:00	5211	532	-9.0	-9.2	212	25
2023-08-27T12:00	5234	531	-9.1	-9.3	212	25
2023-08-27T12:00	5257	529	-9.2	-9.4	212	25
2023-08-27T12:00	5278	528	-9.4	-9.6	213	25
2023-08-27T12:00	5302	526	-9.5	-9.8	214	25
2023-08-27T12:00	5328	524	-9.6	-9.9	215	26
2023-08-27T12:00	5362	522	-9.8	-10.2	217	26
2023-08-27T12:00	5389	520	-10.0	-10.4	217	26
2023-08-27T12:00	5419	518	-10.1	-10.6	217	27
2023-08-27T12:00	5448	516	-10.2	-10.9	216	28
2023-08-27T12:00	5479	514	-10.3	-11.0	216	28
2023-08-27T12:00	5503	512	-10.5	-11.2	216	28
2023-08-27T12:00	5533	511	-10.6	-11.4	216	28
2023-08-27T12:00	5556	509	-10.8	-11.8	216	27
2023-08-27T12:00	5579	507	-11.1	-12.1	216	27
2023-08-27T12:00	5605	506	-11.2	-12.1	215	26
2023-08-27T12:00	5627	504	-11.4	-12.5	214	26
2023-08-27T12:00	5653	503	-11.6	-12.6	213	26
2023-08-27T12:00	5677	501	-11.8	-12.6	212	26
2023-08-27T12:00	5707	499	-12.1	-13.0	212	27
2023-08-27T12:00	5737	497	-12.2	-13.2	212	28
2023-08-27T12:00	5761	495	-12.3	-13.0	213	28
2023-08-27T12:00	5793	494	-12.4	-13.1	213	29
2023-08-27T12:00	5826	491	-12.5	-13.2	214	29
2023-08-27T12:00	5858	489	-12.7	-13.4	214	29
2023-08-27T12:00	5879	488	-12.8	-13.7	214	29
2023-08-27T12:00	5907	486	-13.2	-16.0	214	29
2023-08-27T12:00	5930	485	-13.2	-15.9	214	29
2023-08-27T12:00	5952	483	-13.3	-16.4	214	29
2023-08-27T12:00	5977	482	-13.5	-16.7	215	29
2023-08-27T12:00	5998	480	-13.6	-16.5	215	29
2023-08-27T12:00	6027	479	-13.8	-16.6	215	30
2023-08-27T12:00	6052	477	-14.0	-16.7	214	30
2023-08-27T12:00	6074	476	-14.2	-16.9	214	30
2023-08-27T12:00	6098	474	-14.3	-16.9	214	30
2023-08-27T12:00	6121	473	-14.5	-16.8	214	29
2023-08-27T12:00	6146	471	-14.7	-17.0	213	29
2023-08-27T12:00	6169	470	-14.9	-17.0	213	28
2023-08-27T12:00	6196	468	-15.1	-17.3	213	28
2023-08-27T12:00	6223	466	-15.4	-17.3	213	28
2023-08-27T12:00	6248	465	-15.6	-17.2	213	28
2023-08-27T12:00	6270	463	-15.8	-17.5	213	28
2023-08-27T12:00	6291	462	-16.0	-17.7	213	28
2023-08-27T12:00	6321	460	-16.3	-18.0	214	28
2023-08-27T12:00	6348	459	-16.5	-18.4	215	27
2023-08-27T12:00	6379	457	-16.7	-18.4	216	27
2023-08-27T12:00	6405	455	-16.9	-18.6	216	27
2023-08-27T12:00	6430	454	-17.1	-18.6	216	27
2023-08-27T12:00	6457	452	-17.2	-18.6	216	27
2023-08-27T12:00	6483	450	-17.4	-18.7	216	28
2023-08-27T12:00	6513	449	-17.7	-18.9	215	28
2023-08-27T12:00	6554	446	-18.0	-19.0	215	28
2023-08-27T12:00	6583	445	-18.2	-19.4	215	28
2023-08-27T12:00	6610	443	-18.4	-19.4	214	28
2023-08-27T12:00	6641	441	-18.6	-19.5	214	28
2023-08-27T12:00	6670	439	-18.6	-19.7	215	29
2023-08-27T12:00	6701	438	-18.7	-19.7	215	29
2023-08-27T12:00	6728	436	-18.8	-19.7	216	29
2023-08-27T12:00	6755	434	-18.8	-19.9	217	30
2023-08-27T12:00	6783	433	-19.0	-20.2	218	30
2023-08-27T12:00	6806	431	-19.0	-20.1	218	31
2023-08-27T12:00	6838	430	-19.2	-20.5	219	31
2023-08-27T12:00	6863	428	-19.3	-20.4	219	32
2023-08-27T12:00	6889	427	-19.5	-20.8	219	32
2023-08-27T12:00	6918	425	-19.7	-21.0	219	31
2023-08-27T12:00	6949	423	-19.9	-21.2	219	31
2023-08-27T12:00	6975	422	-20.1	-21.4	220	31
2023-08-27T12:00	7002	420	-20.3	-21.5	220	31
2023-08-27T12:00	7034	418	-20.6	-21.9	220	31
2023-08-27T12:00	7061	417	-20.9	-22.3	220	31
2023-08-27T12:00	7090	415	-21.0	-22.6	220	31
2023-08-27T12:00	7118	414	-21.2	-22.6	219	31
2023-08-27T12:00	7151	412	-21.5	-22.9	218	32
2023-08-27T12:00	7188	410	-21.7	-23.2	217	32
2023-08-27T12:00	7215	408	-21.8	-23.3	216	31
2023-08-27T12:00	7239	407	-22.0	-23.5	215	31
2023-08-27T12:00	7273	405	-22.3	-23.8	214	31
2023-08-27T12:00	7303	403	-22.4	-24.0	214	30
2023-08-27T12:00	7325	402	-22.6	-24.2	213	30
2023-08-27T12:00	7351	401	-22.7	-24.2	213	30
2023-08-27T12:00	7379	399	-22.8	-24.6	213	31
2023-08-27T12:00	7409	398	-23.1	-24.8	213	31
2023-08-27T12:00	7433	396	-23.3	-25.2	213	31
2023-08-27T12:00	7458	395	-23.5	-25.4	214	31
2023-08-27T12:00	7477	394	-23.6	-25.6	214	31
2023-08-27T12:00	7503	393	-23.8	-25.8	214	31
2023-08-27T12:00	7528	391	-24.0	-26.1	215	31
2023-08-27T12:00	7561	389	-24.3	-26.8	216	32
2023-08-27T12:00	7589	388	-24.5	-26.9	216	32
2023-08-27T12:00	7612	387	-24.7	-27.1	217	32
2023-08-27T12:00	7635	385	-24.8	-27.3	217	32
2023-08-27T12:00	7659	384	-25.0	-27.3	217	32
2023-08-27T12:00	7690	383	-25.3	-27.6	217	32
2023-08-27T12:00	7719	381	-25.5	-27.6	216	32
2023-08-27T12:00	7746	380	-25.7	-27.8	215	32
2023-08-27T12:00	7779	378	-25.8	-27.8	213	32
2023-08-27T12:00	7806	377	-26.0	-28.0	212	32
2023-08-27T12:00	7832	375	-26.2	-28.1	211	32
2023-08-27T12:00	7863	374	-26.5	-28.0	211	32
2023-08-27T12:00	7884	372	-26.7	-28.6	211	32
2023-08-27T12:00	7912	371	-26.9	-28.9	211	32
2023-08-27T12:00	7933	370	-27.0	-28.7	211	33
2023-08-27T12:00	7956	369	-27.2	-29.0	211	33
2023-08-27T12:00	7988	367	-27.5	-29.1	210	33
2023-08-27T12:00	8009	366	-27.6	-29.3	209	34
2023-08-27T12:00	8030	365	-27.7	-29.4	209	34
2023-08-27T12:00	8058	364	-28.0	-29.5	209	33
2023-08-27T12:00	8087	362	-28.2	-29.6	210	33
2023-08-27T12:00	8117	361	-28.5	-30.3	211	33
2023-08-27T12:00	8147	359	-28.7		212	33
2023-08-27T12:00	8177	358	-29.0	-30.6	213	34
2023-08-27T12:00	8200	356	-29.2	-30.6	214	35
2023-08-27T12:00	8221	355	-29.3	-31.2	214	36
2023-08-27T12:00	8247	354	-29.5	-32.1	215	37
2023-08-27T12:00	8276	353	-29.7	-32.1	216	38
2023-08-27T12:00	8310	351	-30.0	-32.2	217	38
2023-08-27T12:00	8346	349	-30.2	-33.2	219	38
2023-08-27T12:00	8390	347	-30.6	-33.9	220	38
2023-08-27T12:00	8423	346	-30.9	-32.7	221	38
2023-08-27T12:00	8447	344	-31.0	-36.2	221	39
2023-08-27T12:00	8482	343	-31.4	-34.5	222	39
2023-08-27T12:00	8515	341	-31.7	-34.6	222	40
2023-08-27T12:00	8552	339	-32.0	-35.1	223	40
2023-08-27T12:00	8576	338	-32.2	-36.2	223	40
2023-08-27T12:00	8607	337	-32.4	-36.8	224	40
2023-08-27T12:00	8636	335	-32.6	-37.2	225	40
2023-08-27T12:00	8662	334	-32.9	-37.7	225	40
2023-08-27T12:00	8691	333	-33.1	-37.9	225	39
2023-08-27T12:00	8720	331	-33.4	-37.6	225	39
2023-08-27T12:00	8744	330	-33.6	-37.7	225	39
2023-08-27T12:00	8774	329	-33.9	-38.5	226	39
2023-08-27T12:00	8809	327	-34.1	-39.5	227	40
2023-08-27T12:00	8841	326	-34.4	-39.5	229	40
2023-08-27T12:00	8872	324	-34.7	-39.8	230	40
2023-08-27T12:00	8901	323	-34.9	-39.7	231	40
2023-08-27T12:00	8927	322	-35.2	-39.8	233	41
2023-08-27T12:00	8952	320	-35.4	-39.9	233	41
2023-08-27T12:00	8977	319	-35.7	-39.9	233	41
2023-08-27T12:00	9000	318	-35.9	-40.2	233	41
2023-08-27T12:00	9030	317	-36.2	-39.9	232	41
2023-08-27T12:00	9060	316	-36.4	-40.5	231	41
2023-08-27T12:00	9083	314	-36.6	-40.7	231	42
2023-08-27T12:00	9113	313	-36.9	-40.6	231	42
2023-08-27T12:00	9146	312	-37.2	-41.2	231	42
2023-08-27T12:00	9169	311	-37.4	-41.5	231	41
2023-08-27T12:00	9192	309	-37.7	-41.6	230	41
2023-08-27T12:00	9224	308	-37.9	-41.7	230	41
2023-08-27T12:00	9256	307	-38.2	-41.9	231	41
2023-08-27T12:00	9285	305	-38.5	-42.2	231	41
2023-08-27T12:00	9310	304	-38.7	-42.3	232	40
2023-08-27T12:00	9336	303	-39.0		232	40
2023-08-27T12:00	9359	302	-39.2	-42.6	232	39
2023-08-27T12:00	9391	301	-39.5	-42.5	231	39
2023-08-27T12:00	9413	300	-39.7	-42.9	230	39
2023-08-27T12:00	9442	298	-40.0	-43.0	230	39
2023-08-27T12:00	9467	297	-40.2	-43.1	230	39
2023-08-27T12:00	9497	296	-40.5	-43.2	231	40
2023-08-27T12:00	9521	295	-40.7	-43.4	232	40
2023-08-27T12:00	9548	294	-40.9	-44.2	233	42
2023-08-27T12:00	9578	292	-41.2		233	43
2023-08-27T12:00	9628	290	-41.7	-44.8	233	44
2023-08-27T12:00	9671	289	-42.0	-45.1	233	45
2023-08-27T12:00	9697	287	-42.3	-45.1	232	46
2023-08-27T12:00	9731	286	-42.6	-45.6	231	47
2023-08-27T12:00	9762	285	-42.8	-46.4	231	47
2023-08-27T12:00	9793	283	-43.0	-46.3	230	47
2023-08-27T12:00	9816	282	-43.2	-46.6	230	47
2023-08-27T12:00	9849	281	-43.6	-46.9	231	46
2023-08-27T12:00	9888	279	-43.9	-47.1	232	46
2023-08-27T12:00	9922	278	-44.2	-47.2	233	46
2023-08-27T12:00	9959	277	-44.5	-47.6	234	46
2023-08-27T12:00	9990	275	-44.8	-48.0	234	47
2023-08-27T12:00	10021	274	-45.1	-48.4	234	48
2023-08-27T12:00	10049	273	-45.4	-48.6	233	48
2023-08-27T12:00	10081	271	-45.7	-48.8	231	48
2023-08-27T12:00	10109	270	-45.9	-49.0	231	48
2023-08-27T12:00	10141	269	-46.2	-49.3	230	47
2023-08-27T12:00	10172	268	-46.5	-49.5	230	46
2023-08-27T12:00	10203	266	-46.8	-49.8	231	46
2023-08-27T12:00	10238	265	-47.1	-50.1	232	46
2023-08-27T12:00	10271	264	-47.3	-50.2	233	46
2023-08-27T12:00	10300	263	-47.5	-50.4	234	47
2023-08-27T12:00	10332	261	-47.8	-51.0	235	47
2023-08-27T12:00	10365	260	-48.2	-52.2	235	48
2023-08-27T12:00	10390	259	-48.4	-52.5	235	48
2023-08-27T12:00	10414	258	-48.7	-52.6	235	49
2023-08-27T12:00	10449	257	-49.0	-52.7	235	49
2023-08-27T12:00	10474	256	-49.2	-52.7	235	50
2023-08-27T12:00	10494	255	-49.4	-53.3	236	50
2023-08-27T12:00	10510	254	-49.6	-53.6	236	51
2023-08-27T12:00	10536	253	-49.8	-53.8	236	51
2023-08-27T12:00	10557	253	-50.0	-54.1	236	52
2023-08-27T12:00	10570	252	-50.0	-54.2	236	52
2023-08-27T12:00	10591	251	-50.1	-54.3	236	52
2023-08-27T12:00	10611	250	-50.2	-54.5	237	51
2023-08-27T12:00	10630	250	-50.4	-54.7	237	51
2023-08-27T12:00	10646	249	-50.5	-54.9	237	51
2023-08-27T12:00	10673	248	-50.8	-55.1	237	51
2023-08-27T12:00	10694	247	-51.0	-55.1	237	51
2023-08-27T12:00	10713	247	-51.2	-55.2	237	51
2023-08-27T12:00	10740	246	-51.4	-54.8	236	51
2023-08-27T12:00	10758	245	-51.4	-54.2	236	52
2023-08-27T12:00	10786	244	-51.6	-54.4	236	52
2023-08-27T12:00	10806	243	-51.7	-54.8	236	52
2023-08-27T12:00	10830	242	-51.9	-55.1	236	53
2023-08-27T12:00	10859	241	-52.1	-55.2	237	53
2023-08-27T12:00	10876	240	-52.2	-55.3	237	53
2023-08-27T12:00	10896	240	-52.3	-55.4	238	53
2023-08-27T12:00	10919	239	-52.6	-55.5	238	54
2023-08-27T12:00	10949	238	-52.8	-55.7	238	54
2023-08-27T12:00	10971	237	-53.0	-56.0	238	54
2023-08-27T12:00	11000	236	-53.2	-56.4	238	55
2023-08-27T12:00	11021	235	-53.3	-56.7	239	55
2023-08-27T12:00	11053	234	-53.6	-57.3	240	56
2023-08-27T12:00	11082	233	-53.9	-57.7	240	56
2023-08-27T12:00	11113	232	-54.1	-57.7	241	57
2023-08-27T12:00	11135	231	-54.1	-57.4	241	58
2023-08-27T12:00	11157	230	-54.3	-57.5	241	59
2023-08-27T12:00	11181	229	-54.3	-58.1	241	60
2023-08-27T12:00	11206	228	-54.3	-59.0	241	60
2023-08-27T12:00	11228	228	-54.2	-59.7	242	61
2023-08-27T12:00	11261	227	-53.9	-59.9	242	60
2023-08-27T12:00	11285	226	-53.7	-59.9	242	60
2023-08-27T12:00	11309	225	-53.9	-59.9	242	59
2023-08-27T12:00	11343	224	-54.1	-59.8	241	58
2023-08-27T12:00	11369	223	-54.3	-59.7	241	57
2023-08-27T12:00	11400	222	-54.6	-59.7	242	56
2023-08-27T12:00	11435	220	-54.8	-59.7	243	55
2023-08-27T12:00	11469	219	-55.1	-59.8	244	54
2023-08-27T12:00	11490	218	-55.2	-59.7	244	52
2023-08-27T12:00	11527	217	-55.5	-60.1	245	51
2023-08-27T12:00	11550	216	-55.4	-60.7	245	49
2023-08-27T12:00	11573	216	-55.2	-61.5	245	48
2023-08-27T12:00	11593	215	-55.3	-62.8	245	47
2023-08-27T12:00	11614	214	-54.9	-63.9	245	45
2023-08-27T12:00	11638	213	-54.7	-65.3	245	44
2023-08-27T12:00	11667	213	-54.8	-66.2	245	43
2023-08-27T12:00	11687	212	-54.9	-66.4	244	42
2023-08-27T12:00	11706	211	-55.0	-66.7	243	42
2023-08-27T12:00	11726	211	-55.0	-67.0	243	42
2023-08-27T12:00	11742	210	-55.1		242	41
2023-08-27T12:00	11767	209	-55.3	-67.6	241	41
2023-08-27T12:00	11796	208	-55.3	-67.7	239	41
2023-08-27T12:00	11826	207	-55.5	-68.1	238	40
2023-08-27T12:00	11850	207	-55.4	-68.2	237	40
2023-08-27T12:00	11867	206	-55.4	-68.4	235	40
2023-08-27T12:00	11899	205	-55.5	-68.7	234	39
2023-08-27T12:00	11929	204	-55.6	-68.9	233	39
2023-08-27T12:00	11962	203	-55.6	-69.1	232	39
2023-08-27T12:00	11986	202	-55.6	-69.5	230	39
2023-08-27T12:00	12013	201	-55.5	-69.8	228	39
2023-08-27T12:00	12038	201	-55.4	-70.2	227	39
2023-08-27T12:00	12062	200	-55.1	-70.6	226	39
2023-08-27T12:00	12090	199	-55.0	-71.0	225	39
2023-08-27T12:00	12112	198	-55.0	-71.4	224	39
2023-08-27T12:00	12141	197	-55.0	-71.4	223	40
2023-08-27T12:00	12167	197	-55.2	-71.6	222	40
2023-08-27T12:00	12191	196	-55.4	-71.8	221	40
2023-08-27T12:00	12225	195	-55.6	-72.0	220	41
2023-08-27T12:00	12256	194	-55.7	-72.2	219	41
2023-08-27T12:00	12272	193	-55.8	-72.2	218	42
2023-08-27T12:00	12293	193	-55.9	-72.5	217	42
2023-08-27T12:00	12317	192	-56.0	-72.7	217	43
2023-08-27T12:00	12343	191	-56.1	-72.8	217	43
2023-08-27T12:00	12365	191	-56.1	-72.8	217	44
2023-08-27T12:00	12386	190	-56.3	-73.0	218	44
2023-08-27T12:00	12409	189	-56.5	-73.3	219	44
2023-08-27T12:00	12426	189	-56.5	-73.8	220	43
2023-08-27T12:00	12445	188	-56.1	-74.2	221	43
2023-08-27T12:00	12464	188	-55.6	-74.7	222	42
2023-08-27T12:00	12482	187	-55.4	-75.4	223	41
2023-08-27T12:00	12500	187	-55.0	-75.4	224	41
2023-08-27T12:00	12519	186	-54.7	-75.4	225	40
2023-08-27T12:00	12537	185	-54.6	-75.4	226	40
2023-08-27T12:00	12554	185	-54.4	-75.2	227	39
2023-08-27T12:00	12571	184	-54.3	-75.2	228	39
2023-08-27T12:00	12591	184	-54.0	-75.0	228	38
2023-08-27T12:00	12611	183	-53.8	-75.3	228	38
2023-08-27T12:00	12627	183	-53.7	-75.7	228	38
2023-08-27T12:00	12646	182	-53.7	-76.2	229	37
2023-08-27T12:00	12664	182	-53.6	-76.4	229	37
2023-08-27T12:00	12681	181	-53.5	-76.8	230	37
2023-08-27T12:00	12703	181	-53.3	-76.9	230	37
2023-08-27T12:00	12722	180	-53.4	-77.1	231	37
2023-08-27T12:00	12743	180	-53.5	-77.4	231	37
2023-08-27T12:00	12763	179	-53.5	-77.6	232	37
2023-08-27T12:00	12782	178	-53.5	-77.6	233	36
2023-08-27T12:00	12805	178	-53.5	-77.8	233	36
2023-08-27T12:00	12828	177	-53.5	-78.2	233	35
2023-08-27T12:00	12852	177	-53.0	-78.0	233	34
2023-08-27T12:00	12874	176	-52.9	-78.2	232	34
2023-08-27T12:00	12895	175	-53.0	-78.2	232	33
2023-08-27T12:00	12918	175	-53.1	-78.3	231	33
2023-08-27T12:00	12940	174	-53.3	-78.5	230	33
2023-08-27T12:00	12963	174	-53.5	-78.4	230	32
2023-08-27T12:00	12985	173	-53.6	-78.5	229	32
2023-08-27T12:00	13007	172	-53.8	-78.6	229	32
2023-08-27T12:00	13028	172	-53.9	-78.5	228	32
2023-08-27T12:00	13049	171	-54.0	-78.6	228	31
2023-08-27T12:00	13069	171	-54.1	-78.7	227	31
2023-08-27T12:00	13091	170	-54.1	-78.9	227	31
2023-08-27T12:00	13114	170	-53.9	-78.9	226	30
2023-08-27T12:00	13136	169	-53.7	-79.0	226	30
2023-08-27T12:00	13156	168	-53.6	-78.9	225	30
2023-08-27T12:00	13174	168	-53.5	-78.9	225	30
2023-08-27T12:00	13194	167	-53.6	-78.9	225	30
2023-08-27T12:00	13216	167	-53.7	-79.0	225	31
2023-08-27T12:00	13234	166	-53.8	-79.1	225	31
2023-08-27T12:00	13255	166	-53.9	-78.9	225	31
2023-08-27T12:00	13275	165	-54.1	-79.1	225	31
2023-08-27T12:00	13294	165	-54.2	-79.2	226	32
2023-08-27T12:00	13313	164	-54.3	-79.3	226	32
2023-08-27T12:00	13333	164	-54.4	-79.3	227	32
2023-08-27T12:00	13349	163	-54.5	-79.4	227	32
2023-08-27T12:00	13367	163	-54.6	-79.5	228	32
2023-08-27T12:00	13386	162	-54.6	-79.5	229	32
2023-08-27T12:00	13403	162	-54.6	-79.5	229	32
2023-08-27T12:00	13420	162	-54.7	-79.6	230	32
2023-08-27T12:00	13443	161	-54.6	-79.5	230	32
2023-08-27T12:00	13462	161	-54.7	-79.6	230	32
2023-08-27T12:00	13481	160	-54.8	-79.7	230	32
2023-08-27T12:00	13500	160	-54.8	-79.7	230	32
2023-08-27T12:00	13520	159	-54.9	-79.7	230	32
2023-08-27T12:00	13539	159	-54.9	-79.7	230	32
2023-08-27T12:00	13560	158	-54.9	-79.7	230	33
2023-08-27T12:00	13578	158	-54.9	-79.7	230	33
2023-08-27T12:00	13597	157	-55.0	-79.8	231	33
2023-08-27T12:00	13616	157	-55.0	-80.0	232	34
2023-08-27T12:00	13637	156	-55.1	-80.1	233	33
2023-08-27T12:00	13655	156	-55.0	-80.0	233	33
2023-08-27T12:00	13673	155	-54.8	-80.1	234	33
2023-08-27T12:00	13692	155	-54.6	-80.0	234	32
2023-08-27T12:00	13710	154	-54.6	-80.2	234	31
2023-08-27T12:00	13728	154	-54.0	-80.3	234	30
2023-08-27T12:00	13750	154	-53.5	-80.2	235	30
2023-08-27T12:00	13769	153	-53.1	-79.9	235	29
2023-08-27T12:00	13789	153	-53.0	-80.1	235	29
2023-08-27T12:00	13807	152	-53.0	-80.1	235	28
2023-08-27T12:00	13828	152	-52.9	-80.3	235	28
2023-08-27T12:00	13849	151	-52.9	-80.6	235	28
2023-08-27T12:00	13872	151	-52.7	-80.5	235	28
2023-08-27T12:00	13891	150	-52.5	-81.0	235	27
2023-08-27T12:00	13910	150	-52.0	-81.1	234	27
2023-08-27T12:00	13929	149	-51.5	-80.7	233	28
2023-08-27T12:00	13950	149	-51.4	-81.0	233	28
2023-08-27T12:00	13972	148	-51.4	-81.0	232	29
2023-08-27T12:00	13991	148	-51.5	-81.5	232	29
2023-08-27T12:00	14011	147	-51.4	-81.5	232	30
2023-08-27T12:00	14033	147	-51.2	-81.3	233	30
2023-08-27T12:00	14051	146	-51.1	-81.2	233	29
2023-08-27T12:00	14072	146	-51.1	-81.2	234	29
2023-08-27T12:00	14095	146	-51.1	-81.2	235	28
2023-08-27T12:00	14119	145	-51.2	-81.8	235	27
2023-08-27T12:00	14139	145	-51.0	-81.6	235	26
2023-08-27T12:00	14159	144	-51.0	-81.6	235	26
2023-08-27T12:00	14180	144	-51.0	-81.6	235	25
2023-08-27T12:00	14201	143	-51.1	-81.7	234	25
2023-08-27T12:00	14222	143	-51.1	-81.7	233	24
2023-08-27T12:00	14240	142	-51.1	-81.7	232	24
2023-08-27T12:00	14260	142	-51.2	-81.8	231	24
2023-08-27T12:00	14280	141	-51.3	-81.4	229	24
2023-08-27T12:00	14302	141	-51.4	-81.5	228	24
2023-08-27T12:00	14323	141	-51.6	-81.6	226	24
2023-08-27T12:00	14344	140	-51.7	-81.7	225	24
2023-08-27T12:00	14367	140	-51.8	-81.8	224	24
2023-08-27T12:00	14388	139	-51.9	-81.8	223	24
2023-08-27T12:00	14406	139	-51.9	-81.8	223	24
2023-08-27T12:00	14430	138	-51.9	-81.8	223	24
2023-08-27T12:00	14453	138	-52.0	-81.9	223	25
2023-08-27T12:00	14474	137	-52.1	-82.0	224	25
2023-08-27T12:00	14493	137	-52.3	-82.1	224	25
2023-08-27T12:00	14515	136	-52.4	-82.2	225	25
2023-08-27T12:00	14536	136	-52.5	-82.3	225	25
2023-08-27T12:00	14557	136	-52.6	-82.4	225	25
2023-08-27T12:00	14576	135	-52.7	-82.4	225	24
2023-08-27T12:00	14598	135	-52.7	-82.9	225	24
2023-08-27T12:00	14620	134	-52.5	-82.8	224	23
2023-08-27T12:00	14639	134	-52.6	-82.8	223	23
2023-08-27T12:00	14663	133	-52.6	-82.8	222	23
2023-08-27T12:00	14688	133	-52.7	-82.9	221	22
2023-08-27T12:00	14706	132	-52.8	-83.0	220	22
2023-08-27T12:00	14727	132	-52.9	-83.1	219	22
2023-08-27T12:00	14748	132	-53.0	-83.1	217	22
2023-08-27T12:00	14768	131	-53.1	-83.2	216	23
2023-08-27T12:00	14784	131	-53.2	-82.8	215	23
2023-08-27T12:00	14804	130	-53.3	-82.9	215	22
2023-08-27T12:00	14821	130	-53.2	-82.8	215	22
2023-08-27T12:00	14840	130	-53.2	-82.8	215	22
2023-08-27T12:00	14860	129	-53.4	-83.0	215	22
2023-08-27T12:00	14877	129	-53.5	-83.0	215	21
2023-08-27T12:00	14899	129	-53.6	-83.1	215	21
2023-08-27T12:00	14920	128	-53.7	-83.2	214	22
2023-08-27T12:00	14940	128	-53.7	-83.2	214	22
2023-08-27T12:00	14958	127	-53.5	-83.5	213	23
2023-08-27T12:00	14979	127	-53.6	-83.1	213	23
2023-08-27T12:00	14997	127	-53.7	-83.2	213	23
2023-08-27T12:00	15018	126	-53.9	-83.3	214	24
2023-08-27T12:00	15042	126	-54.1	-83.5	214	24
2023-08-27T12:00	15061	125	-54.1	-83.5	215	24
2023-08-27T12:00	15080	125	-54.1	-83.5	216	25
2023-08-27T12:00	15100	125	-54.1	-83.5	216	25
2023-08-27T12:00	15120	124	-54.2	-83.6	216	25
2023-08-27T12:00	15138	124	-54.3	-83.6	217	26
2023-08-27T12:00	15161	123	-54.5	-83.8	217	26
2023-08-27T12:00	15178	123	-54.6	-83.9	218	26
2023-08-27T12:00	15199	123	-54.7	-83.9	220	26
2023-08-27T12:00	15217	122	-54.5	-83.8	221	26
2023-08-27T12:00	15238	122	-54.4	-83.7	222	26
2023-08-27T12:00	15261	121	-54.5	-83.8	223	27
2023-08-27T12:00	15282	121	-54.6	-83.9	224	27
2023-08-27T12:00	15302	121	-54.6	-83.9	224	27
2023-08-27T12:00	15324	120	-54.6	-83.9	225	28
2023-08-27T12:00	15343	120	-54.7	-83.9	226	28
2023-08-27T12:00	15362	120	-54.7	-83.9	227	28
2023-08-27T12:00	15383	119	-54.7	-83.9	228	27
2023-08-27T12:00	15404	119	-54.6	-83.9	229	27
2023-08-27T12:00	15424	118	-54.7	-83.9	231	27
2023-08-27T12:00	15443	118	-54.6	-84.3	232	26
2023-08-27T12:00	15464	118	-54.4	-84.2	233	26
2023-08-27T12:00	15486	117	-54.4	-84.2	233	25
2023-08-27T12:00	15504	117	-54.4	-84.2	234	25
2023-08-27T12:00	15525	117	-54.3	-84.1	235	24
2023-08-27T12:00	15546	116	-54.0	-84.4	235	23
2023-08-27T12:00	15567	116	-53.5	-84.0	235	22
2023-08-27T12:00	15587	115	-53.2	-83.8	235	21
2023-08-27T12:00	15611	115	-53.0	-84.2	234	20
2023-08-27T12:00	15632	115	-52.9	-84.1	233	20
2023-08-27T12:00	15650	114	-52.9	-83.6	231	19
2023-08-27T12:00	15673	114	-53.0	-83.6	230	19
2023-08-27T12:00	15692	114	-53.2	-83.8	228	18
2023-08-27T12:00	15713	113	-53.4	-83.9	226	18
2023-08-27T12:00	15731	113	-53.4	-83.9	225	17
2023-08-27T12:00	15751	113	-53.4	-83.9	224	17
2023-08-27T12:00	15769	112	-53.4	-83.9	225	17
2023-08-27T12:00	15787	112	-53.2	-83.8	225	17
2023-08-27T12:00	15808	112	-53.0	-84.2	226	16
2023-08-27T12:00	15828	111	-52.8	-84.1	228	16
2023-08-27T12:00	15847	111	-52.6	-83.9	229	16
2023-08-27T12:00	15865	111	-52.6	-83.9	230	16
2023-08-27T12:00	15885	110	-52.7	-84.0	230	15
2023-08-27T12:00	15903	110	-52.7	-84.0	231	15
2023-08-27T12:00	15924	110	-52.8	-84.1	231	15
2023-08-27T12:00	15946	109	-52.9	-84.1	231	15
2023-08-27T12:00	15965	109	-53.0	-83.6	231	15
2023-08-27T12:00	15984	109	-53.0	-83.6	232	14
2023-08-27T12:00	16004	108	-53.1	-84.3	233	14
2023-08-27T12:00	16024	108	-53.0	-84.2	234	14
2023-08-27T12:00	16045	108	-53.0	-84.2	235	14
2023-08-27T12:00	16063	107	-53.0	-84.2	236	14
2023-08-27T12:00	16085	107	-53.1	-84.3	236	14
2023-08-27T12:00	16104	107	-53.2	-84.4	236	14
2023-08-27T12:00	16127	106	-53.3	-84.4	235	14
2023-08-27T12:00	16149	106	-53.5	-84.6	233	14
2023-08-27T12:00	16169	105	-53.5	-84.6	230	14
2023-08-27T12:00	16190	105	-53.6	-84.6	227	15
2023-08-27T12:00	16216	105	-53.7	-84.7	224	16
2023-08-27T12:00	16236	104	-53.6	-84.6	223	16
2023-08-27T12:00	16261	104	-53.1	-84.3	222	17
2023-08-27T12:00	16281	104	-53.0	-84.2	222	18
2023-08-27T12:00	16303	103	-53.2	-84.4	223	18
2023-08-27T12:00	16326	103	-53.3	-84.4	224	19
2023-08-27T12:00	16347	103	-53.4	-84.5	224	19
2023-08-27T12:00	16370	102	-53.4	-84.5	224	19
2023-08-27T12:00	16394	102	-53.5	-84.6	224	18
2023-08-27T12:00	16420	101	-53.3	-84.4	223	17
2023-08-27T12:00	16443	101	-52.7	-84.0	221	16
2023-08-27T12:00	16469	101	-52.5	-84.4	219	15
2023-08-27T12:00	16493	100	-52.5	-84.4	217	15
2023-08-27T12:00	16512	100	-52.4	-84.4	214	15
2023-08-27T12:00	16533	100	-52.3	-84.3	212	15
2023-08-27T12:00	16555	99	-52.4	-83.8	211	15
2023-08-27T12:00	16576	99	-52.6	-83.9	211	15
2023-08-27T12:00	16597	99	-52.7	-84.0	210	16
2023-08-27T12:00	16618	98	-52.9	-84.1	209	16
2023-08-27T12:00	16641	98	-53.0	-84.2	209	16
2023-08-27T12:00	16660	98	-53.2	-84.4	208	16
2023-08-27T12:00	16684	97	-53.4	-84.5	208	16
2023-08-27T12:00	16702	97	-53.4	-84.5	208	16
2023-08-27T12:00	16724	97	-53.4	-84.5	209	16
2023-08-27T12:00	16746	96	-53.3	-84.4	210	16
2023-08-27T12:00	16768	96	-53.2	-84.4	211	15
2023-08-27T12:00	16787	96	-53.2	-84.4	212	15
2023-08-27T12:00	16809	96	-53.2	-85.0	212	15
2023-08-27T12:00	16830	95	-53.3	-84.4	212	14
2023-08-27T12:00	16852	95	-53.3	-84.4	213	14
2023-08-27T12:00	16872	95	-53.4	-84.5	213	13
2023-08-27T12:00	16893	94	-53.5	-84.6	214	13
2023-08-27T12:00	16915	94	-53.6	-84.6	214	13
2023-08-27T12:00	16934	94	-53.7	-84.7	214	12
2023-08-27T12:00	16957	93	-53.8	-84.8	215	12
2023-08-27T12:00	16980	93	-53.9	-84.9	215	12
2023-08-27T12:00	16999	93	-54.1	-85.0	216	11
2023-08-27T12:00	17020	92	-54.2	-85.1	217	11
2023-08-27T12:00	17043	92	-54.3	-85.2	218	10
2023-08-27T12:00	17067	92	-54.4	-85.2	218	10
2023-08-27T12:00	17089	91	-54.4	-85.2	219	10
2023-08-27T12:00	17110	91	-54.4	-85.2	220	9
2023-08-27T12:00	17133	91	-54.4	-85.2	221	9
2023-08-27T12:00	17155	90	-54.5	-85.3	221	9
2023-08-27T12:00	17177	90	-54.6	-85.4	222	9
2023-08-27T12:00	17201	90	-54.7	-85.5	222	9
2023-08-27T12:00	17222	90	-54.4	-85.2	221	9
2023-08-27T12:00	17245	89	-54.4	-85.2	220	9
2023-08-27T12:00	17267	89	-54.6	-85.4	218	10
2023-08-27T12:00	17291	89	-54.8	-85.5	216	10
2023-08-27T12:00	17316	88	-55.0	-85.7	215	11
2023-08-27T12:00	17342	88	-55.1	-85.2	214	11
2023-08-27T12:00	17364	88	-55.3	-85.4	214	12
2023-08-27T12:00	17387	87	-55.3	-85.4	214	12
2023-08-27T12:00	17410	87	-55.4	-85.4	215	13
2023-08-27T12:00	17432	87	-55.6	-85.6	216	13
2023-08-27T12:00	17455	86	-55.8	-85.7	217	13
2023-08-27T12:00	17476	86	-55.9	-85.8	218	13
2023-08-27T12:00	17499	86	-56.0	-85.9	220	13
2023-08-27T12:00	17522	85	-56.2	-86.0	221	13
2023-08-27T12:00	17542	85	-56.3	-86.1	221	13
2023-08-27T12:00	17567	85	-56.3	-86.1	221	12
2023-08-27T12:00	17587	85	-56.4	-86.2	219	12
2023-08-27T12:00	17609	84	-56.3	-86.1	217	12
2023-08-27T12:00	17629	84	-56.2	-86.0	215	11
2023-08-27T12:00	17654	84	-55.9	-85.8	213	11
2023-08-27T12:00	17673	83	-55.9	-85.8	211	11
2023-08-27T12:00	17694	83	-55.9	-85.8	210	12
2023-08-27T12:00	17718	83	-55.9	-85.8	210	12
2023-08-27T12:00	17739	83	-56.0	-85.9	210	12
2023-08-27T12:00	17762	82	-56.1	-86.0	210	12
2023-08-27T12:00	17782	82	-56.2	-86.0	210	13
2023-08-27T12:00	17802	82	-56.3	-86.1	210	13
2023-08-27T12:00	17825	81	-56.2	-86.6	211	13
2023-08-27T12:00	17844	81	-55.8	-86.3	211	13
2023-08-27T12:00	17864	81	-55.5	-86.1	212	13
2023-08-27T12:00	17886	81	-55.0	-86.3	213	13
2023-08-27T12:00	17908	80	-54.8	-86.1	215	13
2023-08-27T12:00	17928	80	-54.7	-86.1	217	12
2023-08-27T12:00	17947	80	-54.8	-86.1	220	12
2023-08-27T12:00	17971	80	-54.8	-86.1	222	12
2023-08-27T12:00	17994	79	-54.7	-86.1	224	12
2023-08-27T12:00	18013	79	-54.6	-86.0	226	12
2023-08-27T12:00	18035	79	-54.4	-85.8	228	12
2023-08-27T12:00	18059	79	-54.3	-85.8	230	12
2023-08-27T12:00	18082	78	-54.4	-85.8	232	12
2023-08-27T12:00	18105	78	-54.5	-85.9	234	12
2023-08-27T12:00	18126	78	-54.5	-85.9	235	12
2023-08-27T12:00	18150	77	-54.3	-85.8	237	12
2023-08-27T12:00	18171	77	-54.2	-85.7	237	13
2023-08-27T12:00	18196	77	-54.3	-85.8	238	13
2023-08-27T12:00	18217	77	-54.5	-85.9	238	13
2023-08-27T12:00	18241	76	-54.7	-85.5	238	13
2023-08-27T12:00	18264	76	-54.9	-85.6	238	13
2023-08-27T12:00	18289	76	-55.2	-85.8	238	13
2023-08-27T12:00	18310	75	-55.4	-86.0	239	13
2023-08-27T12:00	18335	75	-55.6	-85.6	240	13
2023-08-27T12:00	18357	75	-55.8	-85.7	240	13
2023-08-27T12:00	18380	75	-56.0	-85.9	241	13
2023-08-27T12:00	18402	74	-56.2	-86.0	242	13
2023-08-27T12:00	18425	74	-56.4	-86.2	244	13
2023-08-27T12:00	18444	74	-56.6	-86.3	245	13
2023-08-27T12:00	18469	74	-56.8	-86.5	247	12
2023-08-27T12:00	18493	73	-56.7	-86.4	249	12
2023-08-27T12:00	18514	73	-56.7	-86.4	251	11
2023-08-27T12:00	18535	73	-56.7	-86.4	253	10
2023-08-27T12:00	18557	73	-56.9	-86.6	254	10
2023-08-27T12:00	18579	72	-57.0	-86.6	255	9
2023-08-27T12:00	18598	72	-57.0	-86.6	254	9
2023-08-27T12:00	18620	72	-56.9	-86.6	254	8
2023-08-27T12:00	18642	72	-56.8	-86.5	252	8
2023-08-27T12:00	18666	71	-56.9	-86.6	251	8
2023-08-27T12:00	18687	71	-57.1	-86.7	251	7
2023-08-27T12:00	18705	71	-57.1	-87.2	251	7
2023-08-27T12:00	18725	71	-56.9	-87.1	250	6
2023-08-27T12:00	18745	70	-56.3	-87.2	249	5
2023-08-27T12:00	18768	70	-55.9	-86.9	246	5
2023-08-27T12:00	18787	70	-55.7	-86.8	242	5
2023-08-27T12:00	18807	70	-55.7	-87.5	239	5
2023-08-27T12:00	18829	70	-55.6	-87.4	237	5
2023-08-27T12:00	18848	69	-55.3	-87.2	237	5
2023-08-27T12:00	18868	69	-54.7	-86.7	238	4
2023-08-27T12:00	18889	69	-54.3	-86.4	239	3
2023-08-27T12:00	18909	69	-54.1	-86.3	239	3
2023-08-27T12:00	18931	68	-54.0	-86.2	234	2
2023-08-27T12:00	18952	68	-54.1	-86.3	222	2
2023-08-27T12:00	18975	68	-54.2	-86.4	205	2
2023-08-27T12:00	18997	68	-54.4	-86.5	191	2
2023-08-27T12:00	19015	68	-54.5	-86.6	183	2
2023-08-27T12:00	19040	67	-54.6	-86.0	178	3
2023-08-27T12:00	19057	67	-54.7	-86.1	178	3
2023-08-27T12:00	19080	67	-54.8	-86.1	180	3
2023-08-27T12:00	19104	67	-55.0	-86.3	183	4
2023-08-27T12:00	19125	66	-55.0	-86.3	185	4
2023-08-27T12:00	19151	66	-55.0	-86.3	185	4
2023-08-27T12:00	19171	66	-54.9	-86.9	184	4
2023-08-27T12:00	19197	66	-54.7	-86.7	181	4
2023-08-27T12:00	19219	65	-54.8	-86.8	177	4
2023-08-27T12:00	19242	65	-54.8	-86.8	175	4
2023-08-27T12:00	19265	65	-54.9	-86.2	173	5
2023-08-27T12:00	19288	65	-55.0	-86.3	172	5
2023-08-27T12:00	19314	65	-55.1	-86.4	171	6
2023-08-27T12:00	19338	64	-55.1	-86.4	171	6
2023-08-27T12:00	19360	64	-55.2	-86.4	172	7
2023-08-27T12:00	19383	64	-55.4	-86.6	174	7
2023-08-27T12:00	19407	64	-55.5	-86.7	176	8
2023-08-27T12:00	19427	63	-55.6	-86.7	178	8
2023-08-27T12:00	19454	63	-55.7	-86.8	180	8
2023-08-27T12:00	19476	63	-55.7	-86.8	182	8
2023-08-27T12:00	19501	63	-55.6	-86.7	184	7
2023-08-27T12:00	19520	62	-55.5	-86.7	187	7
2023-08-27T12:00	19548	62	-55.4	-87.2	191	6
2023-08-27T12:00	19569	62	-55.2	-87.1	198	6
2023-08-27T12:00	19593	62	-54.9	-86.9	205	6
2023-08-27T12:00	19615	62	-54.8	-86.8	211	6
2023-08-27T12:00	19636	61	-54.8	-86.8	217	6
2023-08-27T12:00	19661	61	-54.9	-86.9	221	6
2023-08-27T12:00	19682	61	-54.9	-86.9	225	6
2023-08-27T12:00	19705	61	-54.7	-86.7	228	5
2023-08-27T12:00	19729	60	-54.5	-86.6	231	4
2023-08-27T12:00	19750	60	-54.5	-86.6	232	4
2023-08-27T12:00	19774	60	-54.5	-86.6	232	3
2023-08-27T12:00	19795	60	-54.6	-86.7	229	3
2023-08-27T12:00	19816	60	-54.7	-86.7	219	2
2023-08-27T12:00	19837	59	-54.7	-86.7	203	2
2023-08-27T12:00	19856	59	-54.5	-86.6	186	2
2023-08-27T12:00	19879	59	-54.4	-86.5	176	3
2023-08-27T12:00	19907	59	-54.4	-86.5	173	3
2023-08-27T12:00	19924	59	-54.4	-86.5	173	4
2023-08-27T12:00	19947	58	-54.4	-86.5	174	4
2023-08-27T12:00	19970	58	-54.4	-86.5	177	5
2023-08-27T12:00	19994	58	-54.4	-86.5	179	5
2023-08-27T12:00	20019	58	-54.3	-86.4	181	6
2023-08-27T12:00	20037	58	-54.3	-86.4	183	6
2023-08-27T12:00	20056	57	-54.1	-86.3	185	6
2023-08-27T12:00	20081	57	-53.9	-86.2	187	6
2023-08-27T12:00	20106	57	-53.9	-86.2	189	5
2023-08-27T12:00	20127	57	-54.0	-86.2	192	5
2023-08-27T12:00	20151	57	-54.1	-86.3	194	5
2023-08-27T12:00	20172	56	-54.1	-86.3	196	5
2023-08-27T12:00	20199	56	-54.2	-86.4	199	5
2023-08-27T12:00	20225	56	-54.4	-86.5	202	5
2023-08-27T12:00	20246	56	-54.6	-86.7	205	5
2023-08-27T12:00	20272	56	-54.6	-86.7	209	5
2023-08-27T12:00	20291	55	-54.6	-86.7	213	5
2023-08-27T12:00	20317	55	-54.7	-86.7	216	5
2023-08-27T12:00	20338	55	-54.7	-86.7	218	5
2023-08-27T12:00	20362	55	-54.7	-86.7	218	5
2023-08-27T12:00	20387	55	-54.8	-86.8	217	6
2023-08-27T12:00	20411	54	-54.8	-86.8	214	6
2023-08-27T12:00	20435	54	-54.7	-86.7	210	6
2023-08-27T12:00	20460	54	-54.8	-86.8	207	6
2023-08-27T12:00	20486	54	-54.8	-86.8	206	6
2023-08-27T12:00	20510	54	-54.9	-86.9	207	7
2023-08-27T12:00	20534	53	-54.8	-86.8	210	7
2023-08-27T12:00	20561	53	-54.6	-86.7	214	8
2023-08-27T12:00	20582	53	-54.4	-86.5	220	8
2023-08-27T12:00	20610	53	-54.4	-86.5	225	8
2023-08-27T12:00	20628	53	-54.3	-86.4	230	8
2023-08-27T12:00	20656	52	-54.2	-86.4	236	8
2023-08-27T12:00	20682	52	-54.3	-86.4	243	8
2023-08-27T12:00	20706	52	-54.1	-86.3	250	8
2023-08-27T12:00	20732	52	-54.0	-86.2	257	7
2023-08-27T12:00	20752	52	-54.0	-86.2	265	7
2023-08-27T12:00	20776	51	-54.0	-86.2	273	7
2023-08-27T12:00	20805	51	-53.8	-86.1	281	7
2023-08-27T12:00	20829	51	-53.8	-86.1	290	7
2023-08-27T12:00	20850	51	-53.8	-86.8	299	7
2023-08-27T12:00	20877	51	-53.5	-86.6	307	7
2023-08-27T12:00	20898	50	-53.3	-86.5	314	7
2023-08-27T12:00	20918	50	-53.3	-86.5	321	6
2023-08-27T12:00	20946	50	-53.3	-86.5	328	6
2023-08-27T12:00	20971	50	-53.3	-86.5	335	6
2023-08-27T12:00	20993	50	-53.4	-85.8	340	6
2023-08-27T12:00	21020	49	-53.5	-85.9	345	6
2023-08-27T12:00	21045	49	-53.7	-86.0	349	5
2023-08-27T12:00	21068	49	-53.8	-86.1	353	5
2023-08-27T12:00	21096	49	-54.0	-86.2	355	4
2023-08-27T12:00	21115	49	-54.1	-86.3	358	4
2023-08-27T12:00	21137	49	-54.2	-86.4	0	3
2023-08-27T12:00	21160	48	-54.4	-86.5	3	2
2023-08-27T12:00	21183	48	-54.5	-86.6	7	1
2023-08-27T12:00	21208	48	-54.6	-86.7	21	1
2023-08-27T12:00	21231	48	-54.4	-86.5	160	0
2023-08-27T12:00	21251	48	-54.2	-86.4	182	1
2023-08-27T12:00	21273	48	-54.1	-86.3	189	2
2023-08-27T12:00	21295	47	-54.0	-86.2	194	3
2023-08-27T12:00	21322	47	-53.9	-86.9	198	3
2023-08-27T12:00	21342	47	-53.8	-86.8	201	4
2023-08-27T12:00	21361	47	-53.7	-86.8	204	4
2023-08-27T12:00	21379	47	-53.7	-86.8	210	3
2023-08-27T12:00	21407	47	-53.7	-86.8	217	3
2023-08-27T12:00	21428	46	-53.7	-86.8	229	3
2023-08-27T12:00	21452	46	-53.7	-86.8	244	2
2023-08-27T12:00	21475	46	-53.7	-86.8	262	2
2023-08-27T12:00	21498	46	-53.7	-86.8	279	2
2023-08-27T12:00	21520	46	-53.7	-86.0	293	3
2023-08-27T12:00	21544	46	-53.7	-86.0	304	3
2023-08-27T12:00	21565	45	-53.7	-86.0	313	3
2023-08-27T12:00	21587	45	-53.8	-86.1	320	3
2023-08-27T12:00	21606	45	-53.8	-86.1	326	3
2023-08-27T12:00	21636	45	-53.8	-86.1	331	3
2023-08-27T12:00	21656	45	-53.8	-86.1	337	3
2023-08-27T12:00	21674	45	-53.8	-86.1	347	2
2023-08-27T12:00	21698	44	-53.9	-86.2	360	2
2023-08-27T12:00	21726	44	-53.9	-86.2	20	1
2023-08-27T12:00	21751	44	-54.0	-86.2	48	1
2023-08-27T12:00	21769	44	-54.0	-87.0	78	1
2023-08-27T12:00	21786	44	-53.9	-86.9	101	2
2023-08-27T12:00	21813	44	-53.8	-86.8	116	2
2023-08-27T12:00	21836	44	-53.7	-86.8	128	2
2023-08-27T12:00	21863	43	-53.7	-86.8	138	3
2023-08-27T12:00	21885	43	-53.7	-86.8	147	3
2023-08-27T12:00	21909	43	-53.8	-86.1	156	3
2023-08-27T12:00	21930	43	-53.9	-86.2	163	3
2023-08-27T12:00	21952	43	-54.0	-86.2	169	4
2023-08-27T12:00	21975	43	-54.0	-86.2	175	4
2023-08-27T12:00	21995	42	-54.0	-86.2	181	4
2023-08-27T12:00	22022	42	-54.0	-86.2	189	3
2023-08-27T12:00	22046	42	-53.9	-86.2	199	3
2023-08-27T12:00	22072	42	-54.1	-87.1	209	3
2023-08-27T12:00	22095	42	-54.1	-87.1	217	3
2023-08-27T12:00	22119	42	-54.0	-87.0	223	3
2023-08-27T12:00	22143	41	-54.0	-87.0	226	3
2023-08-27T12:00	22169	41	-54.0	-87.0	227	3
2023-08-27T12:00	22195	41	-54.0	-87.0	227	3
2023-08-27T12:00	22217	41	-54.1	-87.1	228	4
2023-08-27T12:00	22242	41	-54.1	-87.1	228	4
2023-08-27T12:00	22265	41	-54.1	-87.1	230	4
2023-08-27T12:00	22295	41	-54.0	-87.0	232	4
2023-08-27T12:00	22317	40	-54.0	-87.0	235	5
2023-08-27T12:00	22341	40	-53.9	-86.9	237	5
2023-08-27T12:00	22359	40	-53.9	-86.9	239	5
2023-08-27T12:00	22387	40	-53.8	-86.8	240	4
2023-08-27T12:00	22406	40	-53.8	-86.8	241	4
2023-08-27T12:00	22434	40	-53.8	-86.8	239	3
2023-08-27T12:00	22458	40	-53.9	-86.9	237	3
2023-08-27T12:00	22483	39	-54.0	-87.0	234	3
2023-08-27T12:00	22503	39	-54.0	-86.2	233	2
2023-08-27T12:00	22525	39	-54.2	-86.4	234	2
2023-08-27T12:00	22555	39	-54.3	-86.4	236	2
2023-08-27T12:00	22578	39	-54.4	-86.5	238	2
2023-08-27T12:00	22600	39	-54.4	-86.5	238	3
2023-08-27T12:00	22621	39	-54.5	-86.6	238	3
2023-08-27T12:00	22649	38	-54.5	-86.6	238	3
2023-08-27T12:00	22671	38	-54.5	-86.6	239	3
2023-08-27T12:00	22696	38	-54.4	-87.3	241	3
2023-08-27T12:00	22720	38	-54.2	-87.1	242	3
2023-08-27T12:00	22739	38	-54.2	-87.1	241	2
2023-08-27T12:00	22762	38	-54.2	-87.1	239	2
2023-08-27T12:00	22786	38	-54.1	-87.1	236	2
2023-08-27T12:00	22804	37	-54.0	-87.0	233	2
2023-08-27T12:00	22825	37	-53.9	-86.9	234	3
2023-08-27T12:00	22844	37	-53.9	-86.9	236	3
2023-08-27T12:00	22869	37	-53.9	-86.9	241	3
2023-08-27T12:00	22887	37	-53.8	-86.8	249	3
2023-08-27T12:00	22910	37	-53.7	-86.8	260	3
2023-08-27T12:00	22933	37	-53.6	-86.7	273	3
2023-08-27T12:00	22955	37	-53.6	-86.7	285	3
2023-08-27T12:00	22974	36	-53.6	-86.7	294	3
2023-08-27T12:00	22995	36	-53.5	-86.6	300	3
2023-08-27T12:00	23017	36	-53.3	-86.5	304	3
2023-08-27T12:00	23043	36	-53.2	-86.4	307	3
2023-08-27T12:00	23063	36	-53.1	-86.3	311	3
2023-08-27T12:00	23086	36	-53.0	-86.3	316	3
2023-08-27T12:00	23107	36	-53.1	-86.3	321	3
2023-08-27T12:00	23131	36	-53.1	-86.3	325	3
2023-08-27T12:00	23150	35	-53.1	-86.3	330	3
2023-08-27T12:00	23175	35	-53.1	-86.3	335	2
2023-08-27T12:00	23197	35	-53.0	-86.3	341	2
2023-08-27T12:00	23221	35	-53.0	-86.3	348	2
2023-08-27T12:00	23245	35	-52.9	-86.2	356	2
2023-08-27T12:00	23269	35	-53.0	-86.3	3	2
2023-08-27T12:00	23291	35	-53.1	-86.3	6	1
2023-08-27T12:00	23318	35	-53.2	-86.4	4	1
2023-08-27T12:00	23340	34	-53.2	-86.4	351	1
2023-08-27T12:00	23361	34	-53.1	-86.3	331	1
2023-08-27T12:00	23388	34	-53.0	-86.3	321	2
2023-08-27T12:00	23416	34	-53.0	-87.1	321	2
2023-08-27T12:00	23439	34	-52.8	-87.0	325	3
2023-08-27T12:00	23464	34	-52.6	-86.8	332	3
2023-08-27T12:00	23485	34	-52.5	-86.8	341	4
2023-08-27T12:00	23510	34	-52.3	-86.6	351	4
2023-08-27T12:00	23540	33	-52.3	-86.6	2	4
2023-08-27T12:00	23563	33	-52.4	-86.7	13	4
2023-08-27T12:00	23591	33	-52.3	-86.6	23	4
2023-08-27T12:00	23615	33	-52.4	-86.7	31	4
2023-08-27T12:00	23636	33	-52.5	-85.9	36	4
2023-08-27T12:00	23671	33	-52.5	-85.9	36	3
2023-08-27T12:00	23692	33	-52.4	-86.7	32	3
2023-08-27T12:00	23727	32	-52.4	-86.7	26	3
2023-08-27T12:00	23748	32	-52.3	-86.6	20	3
2023-08-27T12:00	23774	32	-52.3	-86.6	16	4
2023-08-27T12:00	23803	32	-52.4	-86.7	16	4
2023-08-27T12:00	23823	32	-52.4	-86.7	18	4
2023-08-27T12:00	23848	32	-52.2	-86.6	19	5
2023-08-27T12:00	23875	32	-52.0	-86.4	21	5
2023-08-27T12:00	23904	32	-52.0	-86.4	22	5
2023-08-27T12:00	23928	31	-51.9	-86.3	23	6
2023-08-27T12:00	23954	31	-51.9	-86.3	26	6
2023-08-27T12:00	23981	31	-52.0	-86.4	30	6
2023-08-27T12:00	24007	31	-52.1	-86.5	36	6
2023-08-27T12:00	24028	31	-51.9	-86.3	42	5
2023-08-27T12:00	24058	31	-51.7	-86.2	47	5
2023-08-27T12:00	24089	31	-51.8	-86.3	52	5
2023-08-27T12:00	24112	31	-51.8	-86.3	54	4
2023-08-27T12:00	24134	30	-51.9	-86.3	55	4
2023-08-27T12:00	24159	30	-52.0	-86.4	55	3
2023-08-27T12:00	24181	30	-52.0	-86.4	53	3
2023-08-27T12:00	24211	30	-51.8	-86.3	51	3
2023-08-27T12:00	24233	30	-51.8	-86.3	50	2
2023-08-27T12:00	24258	30	-51.8	-86.3	51	2
2023-08-27T12:00	24289	30	-51.8	-86.3	54	2
2023-08-27T12:00	24316	30	-51.6	-86.1	60	2
2023-08-27T12:00	24333	30	-51.5	-86.1	64	2
2023-08-27T12:00	24364	29	-51.6	-86.1	66	2
2023-08-27T12:00	24389	29	-51.7	-86.2	66	3
2023-08-27T12:00	24418	29	-51.9	-86.3	65	3
2023-08-27T12:00	24437	29	-51.8	-86.3	66	3
2023-08-27T12:00	24461	29	-51.7	-86.2	70	3
2023-08-27T12:00	24487	29	-51.6	-86.1	77	2
2023-08-27T12:00	24511	29	-51.5	-86.1	89	2
2023-08-27T12:00	24534	29	-51.5	-86.1	104	2
2023-08-27T12:00	24559	29	-51.5	-86.1	118	2
2023-08-27T12:00	24585	28	-51.6	-86.1	126	2
2023-08-27T12:00	24612	28	-51.5	-86.1	127	2
2023-08-27T12:00	24634	28	-51.5	-86.1	123	2
2023-08-27T12:00	24664	28	-51.4	-86.0	114	3
2023-08-27T12:00	24687	28	-51.2	-86.9	106	3
2023-08-27T12:00	24710	28	-50.9	-86.7	101	3
2023-08-27T12:00	24739	28	-50.8	-86.6	101	4
2023-08-27T12:00	24760	28	-50.6	-86.5	103	5
2023-08-27T12:00	24785	28	-50.5	-86.4	106	6
2023-08-27T12:00	24814	27	-50.5	-86.4	109	6
2023-08-27T12:00	24835	27	-50.6	-86.5	112	7
2023-08-27T12:00	24864	27	-50.8	-86.6	114	7
2023-08-27T12:00	24880	27	-50.9	-86.7	116	7
2023-08-27T12:00	24911	27	-51.0	-85.7	117	7
2023-08-27T12:00	24933	27	-51.0	-85.7	118	6
2023-08-27T12:00	24961	27	-50.9	-85.6	120	6
2023-08-27T12:00	24988	27	-50.9	-86.7	122	6
2023-08-27T12:00	25007	27	-50.8	-86.6	124	5
2023-08-27T12:00	25031	27	-50.7	-86.5	127	5
2023-08-27T12:00	25061	26	-50.8	-86.6	130	5
2023-08-27T12:00	25083	26	-50.9	-86.7	134	5
2023-08-27T12:00	25102	26	-50.9	-86.7	138	5
2023-08-27T12:00	25131	26	-50.9	-86.7	142	6
2023-08-27T12:00	25153	26	-50.9	-86.7	144	6
2023-08-27T12:00	25183	26	-50.8	-86.6	146	6
2023-08-27T12:00	25211	26	-50.7	-86.5	147	6
2023-08-27T12:00	25230	26	-50.7	-86.5	148	7
2023-08-27T12:00	25256	26	-50.7	-86.5	149	7
2023-08-27T12:00	25283	26	-50.8	-86.6	150	7
2023-08-27T12:00	25310	25	-50.7	-86.5	153	7
2023-08-27T12:00	25338	25	-50.5	-86.4	156	7
2023-08-27T12:00	25354	25	-50.5	-86.4	159	7
2023-08-27T12:00	25384	25	-50.7	-86.5	162	8
2023-08-27T12:00	25408	25	-50.8	-86.6	165	8
2023-08-27T12:00	25433	25	-50.8	-86.6	167	8
2023-08-27T12:00	25461	25	-50.8	-86.6	169	7
2023-08-27T12:00	25493	25	-50.6	-86.5	171	7
2023-08-27T12:00	25514	25	-50.3	-86.2	172	6
2023-08-27T12:00	25546	25	-50.2	-86.2	173	6
2023-08-27T12:00	25565	24	-50.2	-86.2	172	5
2023-08-27T12:00	25598	24	-50.1	-86.1	170	5
2023-08-27T12:00	25614	24	-49.9	-86.0	167	5
2023-08-27T12:00	25646	24	-49.6	-85.8	163	6
2023-08-27T12:00	25680	24	-49.3	-85.5	161	6
2023-08-27T12:00	25699	24	-49.0	-85.3	160	6
2023-08-27T12:00	25730	24	-49.0	-85.3	162	7
2023-08-27T12:00	25748	24	-48.9	-85.3	165	7
2023-08-27T12:00	25776	24	-48.8	-85.2	168	7
2023-08-27T12:00	25801	24	-48.8	-85.2	170	7
2023-08-27T12:00	25828	23	-48.8	-85.2	170	6
2023-08-27T12:00	25854	23	-48.7	-85.1	170	6
2023-08-27T12:00	25887	23	-48.4	-84.9	169	5
2023-08-27T12:00	25904	23	-48.2	-84.8	168	4
2023-08-27T12:00	25924	23	-48.0	-84.6	169	3
2023-08-27T12:00	25951	23	-48.0	-84.6	169	3
2023-08-27T12:00	25977	23	-48.0	-84.6	167	2
2023-08-27T12:00	26002	23	-47.9	-84.6	164	2
2023-08-27T12:00	26020	23	-47.9	-84.6	159	1
2023-08-27T12:00	26054	23	-47.9	-84.6	153	1
2023-08-27T12:00	26078	23	-47.9	-84.6	148	1
2023-08-27T12:00	26097	23	-47.8	-84.5	143	1
2023-08-27T12:00	26122	22	-47.5	-84.3	137	1
2023-08-27T12:00	26148	22	-47.2	-84.1	132	2
2023-08-27T12:00	26167	22	-47.1	-84.0	130	2
2023-08-27T12:00	26194	22	-47.1	-84.0	130	3
2023-08-27T12:00	26214	22	-47.1	-84.0	131	3
2023-08-27T12:00	26237	22	-47.1	-84.0	134	3
2023-08-27T12:00	26270	22	-47.0	-83.9	139	4
2023-08-27T12:00	26294	22	-47.0	-83.9	145	4
2023-08-27T12:00	26321	22	-46.9	-83.9	152	5
2023-08-27T12:00	26346	22	-46.9	-83.9	160	5
2023-08-27T12:00	26367	22	-46.9	-83.9	168	5
2023-08-27T12:00	26395	22	-46.8	-83.8	174	5
2023-08-27T12:00	26420	21	-46.7	-83.7	178	5
2023-08-27T12:00	26449	21	-46.8	-83.8	180	5
2023-08-27T12:00	26477	21	-46.8	-83.8	180	4
2023-08-27T12:00	26497	21	-46.7	-83.7	180	4
2023-08-27T12:00	26528	21	-46.4	-83.5	180	4
2023-08-27T12:00	26545	21	-46.1	-83.3	181	4
2023-08-27T12:00	26578	21	-45.9	-83.2	184	4
2023-08-27T12:00	26613	21	-45.7	-83.0	185	3
2023-08-27T12:00	26633	21	-45.5	-82.9	185	3
2023-08-27T12:00	26660	21	-45.5	-82.9	183	3
2023-08-27T12:00	26687	21	-45.4	-82.8	179	3
2023-08-27T12:00	26712	21	-45.3	-82.7	174	3
2023-08-27T12:00	26740	20	-45.2	-82.7	169	3
2023-08-27T12:00	26768	20	-45.2	-82.7	166	3
2023-08-27T12:00	26790	20	-45.2	-82.7	164	3
2023-08-27T12:00	26822	20	-45.3	-82.7	165	3
2023-08-27T12:00	26848	20	-45.4	-82.8	168	4
2023-08-27T12:00	26872	20	-45.5	-82.9	171	4
2023-08-27T12:00	26902	20	-45.6	-82.9	173	3
2023-08-27T12:00	26931	20	-45.6	-82.9	174	3
2023-08-27T12:00	26953	20	-45.4	-82.8	172	3
2023-08-27T12:00	26982	20	-45.0	-82.5	166	3
2023-08-27T12:00	27010	20	-44.7	-82.3	156	3
2023-08-27T12:00	27031	20	-44.4	-82.1	142	2
2023-08-27T12:00	27073	20	-44.4	-82.1	125	2
2023-08-27T12:00	27089	19	-44.4	-82.1	109	2
2023-08-27T12:00	27120	19	-44.3	-82.0	96	2
2023-08-27T12:00	27147	19	-44.0	-81.8	87	2
2023-08-27T12:00	27171	19	-44.0	-81.8	84	2
2023-08-27T12:00	27195	19	-44.1	-81.9	87	1
2023-08-27T12:00	27227	19	-44.3	-82.0	94	1
2023-08-27T12:00	27256	19	-44.3	-82.0	100	1
2023-08-27T12:00	27284	19	-44.4	-82.1	102	1
2023-08-27T12:00	27300	19	-44.5	-82.2	101	2
2023-08-27T12:00	27328	19	-44.5	-82.2	100	2
2023-08-27T12:00	27355	19	-44.6	-82.2	101	2
2023-08-27T12:00	27379	19	-44.6	-82.2	104	3
2023-08-27T12:00	27403	19	-44.7	-82.3	109	3
2023-08-27T12:00	27432	18	-44.6	-82.2	116	4
2023-08-27T12:00	27452	18	-44.6	-82.2	124	4
2023-08-27T12:00	27469	18	-44.5	-82.2	133	4
2023-08-27T12:00	27508	18	-44.4	-82.1	142	4
2023-08-27T12:00	27528	18	-44.3	-82.0	151	4
2023-08-27T12:00	27572	18	-44.2	-82.0	159	5
2023-08-27T12:00	27586	18	-44.1	-81.9	166	5
2023-08-27T12:00	27618	18	-44.0	-81.8	171	5
2023-08-27T12:00	27646	18	-44.0	-81.8	175	5
2023-08-27T12:00	27665	18	-43.9	-81.8	177	5
2023-08-27T12:00	27687	18	-44.0	-81.8	178	5
2023-08-27T12:00	27720	18	-44.0	-81.8	178	5
2023-08-27T12:00	27758	18	-43.9	-81.8	176	5
2023-08-27T12:00	27772	18	-43.9	-81.8	174	5
2023-08-27T12:00	27804	17	-43.8	-81.7	172	5
2023-08-27T12:00	27835	17	-43.9	-81.8	171	5
2023-08-27T12:00	27854	17	-44.0	-81.8	172	5
2023-08-27T12:00	27884	17	-43.9	-81.8	174	5
2023-08-27T12:00	27907	17	-44.0	-81.8	177	6
2023-08-27T12:00	27935	17	-44.0	-81.8	180	6
2023-08-27T12:00	27961	17	-44.1	-81.9	182	6
2023-08-27T12:00	27986	17	-44.1	-81.9	183	7
2023-08-27T12:00	28026	17	-44.2	-82.0	184	7
2023-08-27T12:00	28039	17	-44.2	-82.0	184	7
2023-08-27T12:00	28063	17	-44.1	-81.9	184	6
2023-08-27T12:00	28085	17	-43.9	-81.8	185	6
2023-08-27T12:00	28118	17	-43.8	-81.7	188	6
2023-08-27T12:00	28157	17	-43.8	-81.7	192	5
2023-08-27T12:00	28175	17	-43.7	-81.6	200	5
2023-08-27T12:00	28212	16	-43.7	-81.6	209	5
2023-08-27T12:00	28237	16	-43.7	-81.6	218	5
2023-08-27T12:00	28248	16	-43.8	-81.7	226	5
2023-08-27T12:00	28276	16	-43.8	-81.7	232	6
2023-08-27T12:00	28310	16	-43.7	-81.6	235	6
2023-08-27T12:00	28334	16	-43.6	-81.5	235	6
2023-08-27T12:00	28365	16	-43.4	-81.4	234	6
2023-08-27T12:00	28386	16	-43.3	-81.3	230	6
2023-08-27T12:00	28409	16	-43.2	-81.3	226	6
2023-08-27T12:00	28437	16	-43.3	-81.3	221	6
2023-08-27T12:00	28463	16	-43.4	-81.4	217	6
2023-08-27T12:00	28484	16	-43.5	-81.5	213	6
2023-08-27T12:00	28519	16	-43.6	-81.5	210	7
2023-08-27T12:00	28535	16	-43.7	-81.6	207	7
2023-08-27T12:00	28560	16	-43.8	-81.7	206	7
2023-08-27T12:00	28583	16	-43.8	-81.7	205	7
2023-08-27T12:00	28616	15	-43.8	-81.7	204	7
2023-08-27T12:00	28646	15	-43.8	-81.7	203	7
2023-08-27T12:00	28664	15	-43.8	-81.7	202	7
2023-08-27T12:00	28703	15	-43.8	-81.7	202	7
2023-08-27T12:00	28717	15	-43.8	-81.7	202	8
2023-08-27T12:00	28746	15	-43.8	-81.7	203	8
2023-08-27T12:00	28769	15	-43.8	-81.7	205	8
2023-08-27T12:00	28791	15	-43.9	-81.8	208	8
2023-08-27T12:00	28829	15	-44.0	-81.8	212	8
2023-08-27T12:00	28855	15	-43.9	-81.8	215	8
2023-08-27T12:00	28865	15	-43.8	-81.7	217	7
2023-08-27T12:00	28892	15	-43.6	-81.5	220	6
2023-08-27T12:00	28925	15	-43.4	-81.4	223	6
2023-08-27T12:00	28965	15	-43.2	-81.3	227	5
2023-08-27T12:00	28973	15	-42.9	-81.1	234	5
2023-08-27T12:00	29011	15	-42.7	-80.9	242	5
2023-08-27T12:00	29036	15	-42.4	-80.7	250	5
2023-08-27T12:00	29067	14	-42.2	-80.6	257	5
2023-08-27T12:00	29092	14	-42.0	-80.4	262	5
2023-08-27T12:00	29116	14	-42.0	-80.4	266	5
2023-08-27T12:00	29138	14	-42.1	-80.5	268	5
2023-08-27T12:00	29167	14	-42.2	-80.6	270	5
2023-08-27T12:00	29198	14	-42.3	-80.6	271	5
2023-08-27T12:00	29218	14	-42.3	-80.6	271	5
2023-08-27T12:00	29242	14	-42.3	-80.6	271	5
2023-08-27T12:00	29294	14	-42.3	-80.6	271	5
2023-08-27T12:00	29312	14	-42.3	-80.6	270	5
2023-08-27T12:00	29339	14	-42.4	-80.7	269	4
2023-08-27T12:00	29364	14	-42.4	-80.7	267	4
2023-08-27T12:00	29398	14	-42.3	-80.6	263	4
2023-08-27T12:00	29425	14	-42.3	-80.6	258	3
2023-08-27T12:00	29460	14	-42.3	-80.6	251	3
2023-08-27T12:00	29482	14	-42.3	-80.6	242	2
2023-08-27T12:00	29515	14	-42.4	-80.7	233	2
2023-08-27T12:00	29533	14	-42.4	-80.7	225	2
2023-08-27T12:00	29561	13	-42.4	-80.7	218	2
2023-08-27T12:00	29585	13	-42.4	-80.7	209	2
2023-08-27T12:00	29615	13	-42.5	-80.8	199	3
2023-08-27T12:00	29658	13	-42.3	-80.6	189	3
2023-08-27T12:00	29669	13	-42.0	-80.4	180	4
2023-08-27T12:00	29695	13	-41.8	-80.3	175	5
2023-08-27T12:00	29727	13	-41.8	-80.3	171	5
2023-08-27T12:00	29759	13	-41.9	-80.4	170	6
2023-08-27T12:00	29774	13	-41.8	-80.3	170	6
2023-08-27T12:00	29803	13	-41.8	-80.3	171	7
2023-08-27T12:00	29822	13	-41.8	-80.3	174	8
2023-08-27T12:00	29857	13	-42.0	-80.4	176	9
2023-08-27T12:00	29879	13	-42.1	-80.5	179	9
2023-08-27T12:00	29912	13	-41.9	-80.4	182	10
2023-08-27T12:00	29923	13	-41.5	-80.1	184	10
2023-08-27T12:00	29959	13	-41.1	-79.8	187	10
2023-08-27T12:00	29971	13	-40.8	-79.6	190	10
2023-08-27T12:00	30012	13	-40.6	-79.5	194	10
2023-08-27T12:00	30026	13	-40.6	-79.5	198	10
2023-08-27T12:00	30059	13	-40.6	-79.5	203	10
2023-08-27T12:00	30070	12	-40.6	-79.5	207	10
2023-08-27T12:00	30112	12	-40.6	-79.5	211	9
2023-08-27T12:00	30130	12	-40.4	-79.3	213	9
2023-08-27T12:00	30164	12	-40.3	-79.2	214	8
2023-08-27T12:00	30192	12	-40.2	-79.2	214	7
2023-08-27T12:00	30207	12	-40.1	-79.1	212	7
2023-08-27T12:00	30241	12	-40.1	-79.1	210	6
2023-08-27T12:00	30265	12	-40.1	-79.1	208	5
2023-08-27T12:00	30294	12	-40.0	-79.0	205	5
2023-08-27T12:00	30313	12	-40.1	-79.1	203	4
2023-08-27T12:00	30344	12	-40.2	-79.2	200	4
2023-08-27T12:00	30366	12	-40.3	-79.2	197	4
2023-08-27T12:00	30409	12	-40.4	-79.3	193	3
2023-08-27T12:00	30417	12	-40.5	-79.4	187	3
2023-08-27T12:00	30451	12	-40.5	-79.4	180	3
2023-08-27T12:00	30458	12	-40.6	-79.5	174	3
2023-08-27T12:00	30502	12	-40.6	-79.5	172	4
2023-08-27T12:00	30516	12	-40.6	-79.5	174	4
2023-08-27T12:00	30553	12	-40.5	-79.4	180	4
2023-08-27T12:00	30574	12	-40.5	-79.4	188	4
2023-08-27T12:00	30592	12	-40.4	-79.3	198	4
2023-08-27T12:00	30635	12	-40.2	-79.2	207	4
2023-08-27T12:00	30660	11	-40.1	-79.1	215	3
2023-08-27T12:00	30689	11	-39.9	-79.0	220	3
2023-08-27T12:00	30722	11	-39.7	-78.8	222	3
2023-08-27T12:00	30743	11	-39.5	-78.7	219	3
2023-08-27T12:00	30765	11	-39.4	-78.6	211	3
2023-08-27T12:00	30792	11	-39.3	-78.5	201	3
2023-08-27T12:00	30823	11	-39.3	-78.5	192	4
2023-08-27T12:00	30869	11	-39.4	-78.6	188	4
2023-08-27T12:00	30894	11	-39.3	-78.5	186	5
2023-08-27T12:00	30903	11	-39.3	-78.5	189	5
2023-08-27T12:00	30932	11	-39.4	-78.6	195	4
2023-08-27T12:00	30976	11	-39.2	-78.5	202	4
2023-08-27T12:00	30999	11	-39.0	-78.3	210	4
2023-08-27T12:00	31054	11	-39.0	-78.3	217	3
2023-08-27T12:00	31087	11	-39.0	-78.3	222	3
2023-08-27T12:00	31117	11	-39.1	-78.4	222	3
2023-08-27T12:00	31142	11	-39.1	-78.4	222	3
2023-08-27T12:00	31174	11	-39.2	-78.5	222	3
2023-08-27T12:00	31201	11	-39.3	-78.5	224	3
2023-08-27T12:00	31239	11	-39.3	-78.5	228	3
2023-08-27T12:00	31253	11	-39.4	-78.6	231	3
2023-08-27T12:00	31267	10	-39.5	-78.7	233	4
2023-08-27T12:00	31293	10	-39.5	-78.7	233	4
2023-08-27T12:00	31344	10	-39.6	-78.8	232	4
2023-08-27T12:00	31371	10	-39.7	-78.8	225	4
2023-08-27T12:00	31397	10	-39.7	-78.8	220	4
2023-08-27T12:00	31427	10	-39.6	-78.8	214	4
2023-08-27T12:00	31449	10	-39.6	-78.8	209	4
2023-08-27T12:00	31483	10	-39.6	-78.8	205	4
2023-08-27T12:00	31507	10	-39.5	-78.7	203	4
2023-08-27T12:00	31527	10	-39.3	-78.5	202	4
2023-08-27T12:00	31530	10	-39.2	-78.5	201	4
2023-08-27T12:00	31570	10	-39.1	-78.4	198	4
2023-08-27T12:00	31604	10	-38.9	-78.3	192	4
2023-08-27T12:00	31627	10	-38.8	-78.2	184	5
2023-08-27T12:00	31642	10	-38.6	-78.1	177	5
2023-08-27T12:00	31675	10	-38.4	-77.9	173	6
2023-08-27T12:00	31686	10	-38.1	-77.7	170	7
2023-08-27T12:00	31718	10	-38.0	-77.6	169	8
2023-08-27T12:00	31734	10	-37.9	-77.6	169	8
2023-08-27T12:00	31761	10	-37.9	-77.6	169	8
2023-08-27T12:00	31786	10	-37.9	-77.6	170	8
2023-08-27T12:00	31812	10	-37.7	-77.4	171	8
2023-08-27T12:00	31828	10	-37.4	-77.2	172	8
2023-08-27T12:00	31848	10	-37.2	-77.1	175	7
2023-08-27T12:00	31881	10	-37.1	-77.0	179	6
2023-08-27T12:00	31898	10	-37.0	-77.0	184	6
2023-08-27T12:00	31933	10	-36.9	-76.9	189	5
2023-08-27T12:00	31939	10	-36.8	-76.8	195	5
2023-08-27T12:00	31974	9	-36.7	-76.7	199	4
2023-08-27T12:00	32010	9	-36.6	-76.7	200	4
2023-08-27T12:00	32028	9	-36.5	-76.6	198	3
2023-08-27T12:00	32042	9	-36.4	-76.5	190	3
2023-08-27T12:00	32082	9	-36.4	-76.5	176	2
2023-08-27T12:00	32104	9	-36.4	-76.5	158	2
2023-08-27T12:00	32135	9	-36.4	-76.5	144	3
2023-08-27T12:00	32156	9	-36.4	-76.5	137	3
2023-08-27T12:00	32173	9	-36.3	-76.5	134	4
2023-08-27T12:00	32221	9	-36.2	-76.4	135	4
2023-08-27T12:00	32232	9	-36.2	-76.4	137	5
2023-08-27T12:00	32247	9	-36.2	-76.4	140	5
2023-08-27T12:00	32288	9	-36.2	-76.4	144	6
2023-08-27T12:00	32303	9	-36.3	-76.5	149	6
2023-08-27T12:00	32333	9	-36.3	-76.5	153	7
2023-08-27T12:00	32391	9	-36.4	-76.5	157	7
2023-08-27T12:00	32446	9	-36.4	-76.5	164	8
2023-08-27T12:00	32454	9	-36.3	-76.5	167	7
2023-08-27T12:00	32515	9	-36.1	-76.3	171	7
2023-08-27T12:00	32547	9	-35.9	-76.2	181	6
2023-08-27T12:00	32569	9	-35.9	-76.2	188	5
2023-08-27T12:00	32592	9	-35.8	-76.1	196	4
2023-08-27T12:00	32629	9	-35.6	-76.0	206	4
2023-08-27T12:00	32659	9	-35.6	-76.0	221	3
2023-08-27T12:00	32680	9	-35.6	-76.0	239	3
2023-08-27T12:00	32706	9	-35.5	-75.9	257	2
2023-08-27T12:00	32719	9	-35.4	-75.8	270	2
2023-08-27T12:00	32755	8	-35.3	-75.8	275	2
2023-08-27T12:00	32790	8	-35.2	-75.7	270	1
2023-08-27T12:00	32832	8	-35.1	-75.6	245	1
2023-08-27T12:00	32860	8	-35.1	-75.6	208	1
2023-08-27T12:00	32879	8	-35.1	-75.6	188	1
2023-08-27T12:00	32918	8	-35.0	-75.6	178	2
2023-08-27T12:00	32958	8	-35.0	-75.6	173	2
2023-08-27T12:00	32974	8	-34.8	-75.4	169	2
2023-08-27T12:00	33010	8	-34.7	-75.4	165	2
2023-08-27T12:00	33031	8	-34.6	-75.3	164	2
2023-08-27T12:00	33059	8	-34.6	-75.3	165	3
2023-08-27T12:00	33076	8	-34.5	-75.2	168	3
2023-08-27T12:00	33107	8	-34.6	-75.3	172	4
2023-08-27T12:00	33148	8	-34.7	-75.4	178	4
2023-08-27T12:00	33170	8	-35.0	-75.6	183	5
2023-08-27T12:00	33198	8	-35.2	-75.7	188	5
2023-08-27T12:00	33227	8	-35.5	-75.9	191	6
2023-08-27T12:00	33236	8	-35.5	-75.9	194	6
2023-08-27T12:00	33264	8	-35.6	-76.0	197	7
2023-08-27T12:00	33295	8	-35.7	-76.1	200	7
2023-08-27T12:00	33324	8	-35.9	-76.2	203	7
2023-08-27T12:00	33326	8	-36.0	-76.3	205	7
2023-08-27T12:00	33376	8	-36.0	-76.3	208	7
2023-08-27T12:00	33406	8	-35.9	-76.2	211	6
2023-08-27T12:00	33444	8	-35.6	-76.0	217	6
2023-08-27T12:00	33461	8	-35.5	-75.9	220	6
2023-08-27T12:00	33498	8	-35.5	-75.9	222	7
2023-08-27T12:00	33521	8	-35.6	-76.0	224	7
2023-08-27T12:00	33555	8	-35.7	-76.1	228	8
2023-08-27T12:00	33610	8	-35.7	-76.1	229	9
2023-08-27T12:00	33620	7	-35.5	-75.9	233	8
2023-08-27T12:00	33639	7	-35.2	-75.7	235	8
2023-08-27T12:00	33684	7	-35.0	-75.6	238	7
2023-08-27T12:00	33697	7	-34.8	-75.4	243	5
2023-08-27T12:00	33713	7	-34.7	-75.4	249	4
2023-08-27T12:00	33748	7	-34.6	-75.3	259	3
2023-08-27T12:00	33780	7	-34.5	-75.2	271	3
2023-08-27T12:00	33813	7	-34.1	-75.0	295	1
2023-08-27T12:00	33837	7	-33.8	-74.7	294	1
2023-08-27T12:00	33865	7	-33.7	-74.7	275	1
2023-08-27T12:00	33897	7	-33.5	-74.5	255	2
2023-08-27T12:00	33934	7	-33.5	-74.5	244	3
2023-08-27T12:00	33950	7	-33.4	-74.5	241	4
2023-08-27T12:00	33965	7	-33.3	-74.4	241	5
2023-08-27T12:00	33991	7	-33.2	-74.3	244	6
2023-08-27T12:00	34021	7	-33.2	-74.3	248	6
2023-08-27T18:00	113	996	16.4	15.4	160	0
2023-08-27T18:00	139	993	16.4	14.6	187	1
2023-08-27T18:00	160	990	16.3	14.4	174	2
2023-08-27T18:00	178	988	16.3	13.7	168	2
2023-08-27T18:00	201	986	16.2	13.6	165	2
2023-08-27T18:00	222	983	16.1	13.7	165	2
2023-08-27T18:00	240	981	16.0	13.6	171	2
2023-08-27T18:00	263	978	15.9	13.6	187	2
2023-08-27T18:00	285	976	15.9	13.8	208	2
2023-08-27T18:00	303	974	15.8	13.8	222	2
2023-08-27T18:00	325	971	15.7	13.9	227	2
2023-08-27T18:00	353	968	15.5	13.4	229	3
2023-08-27T18:00	378	965	15.4	13.2	233	3
2023-08-27T18:00	400	963	15.2	12.9	238	3
2023-08-27T18:00	422	960	15.2	12.6	245	3
2023-08-27T18:00	444	958	15.1	12.3	253	4
2023-08-27T18:00	465	955	15.0	12.1	259	4
2023-08-27T18:00	488	953	14.8	12.1	263	4
2023-08-27T18:00	515	950	14.6	11.8	266	5
2023-08-27T18:00	535	947	14.4	11.8	267	5
2023-08-27T18:00	559	945	14.3	10.6	267	5
2023-08-27T18:00	584	942	14.0	10.8	268	5
2023-08-27T18:00	605	940	14.0	9.0	269	5
2023-08-27T18:00	624	937	13.8	9.8	269	5
2023-08-27T18:00	648	935	13.6	8.7	267	5
2023-08-27T18:00	675	932	13.4	8.3	264	5
2023-08-27T18:00	701	929	13.1	8.9	259	5
2023-08-27T18:00	726	926	13.0	7.6	254	5
2023-08-27T18:00	749	924	12.8	8.0	250	5
2023-08-27T18:00	770	921	12.6	8.8	248	5
2023-08-27T18:00	795	919	12.6	8.1	246	4
2023-08-27T18:00	821	916	12.5	8.4	246	4
2023-08-27T18:00	851	913	12.3	8.4	245	4
2023-08-27T18:00	873	910	12.1	8.3	243	4
2023-08-27T18:00	895	908	12.0	8.3	241	5
2023-08-27T18:00	923	905	11.9	8.6	237	5
2023-08-27T18:00	950	902	11.7	8.4	232	5
2023-08-27T18:00	971	900	11.5	8.1	227	5
2023-08-27T18:00	989	898	11.3	8.0	220	5
2023-08-27T18:00	1011	895	11.2	7.9	214	5
2023-08-27T18:00	1035	893	11.5	9.5	210	6
2023-08-27T18:00	1060	890	11.6	9.2	209	6
2023-08-27T18:00	1085	887	11.9	9.1	209	7
2023-08-27T18:00	1113	885	12.1	8.9	211	7
2023-08-27T18:00	1138	882	12.1	8.9	214	7
2023-08-27T18:00	1162	879	11.9	9.0	218	7
2023-08-27T18:00	1185	877	11.7	8.9	221	7
2023-08-27T18:00	1211	874	11.5	8.9	223	7
2023-08-27T18:00	1241	871	11.2	8.8	225	7
2023-08-27T18:00	1270	868	11.0	8.9	227	8
2023-08-27T18:00	1299	865	10.7	8.8	228	8
2023-08-27T18:00	1331	862	10.5	8.9	230	8
2023-08-27T18:00	1359	859	10.3	8.8	233	8
2023-08-27T18:00	1384	856	10.1	8.8	235	9
2023-08-27T18:00	1408	854	9.8	8.6	236	9
2023-08-27T18:00	1434	851	9.7	8.6	238	9
2023-08-27T18:00	1457	849	9.4	8.5	239	9
2023-08-27T18:00	1485	846	9.4	8.1	241	9
2023-08-27T18:00	1511	843	9.1	8.0	242	9
2023-08-27T18:00	1538	841	8.9	7.9	242	10
2023-08-27T18:00	1564	838	8.7	7.4	243	10
2023-08-27T18:00	1589	835	8.6	7.4	244	10
2023-08-27T18:00	1613	833	8.4	7.2	246	10
2023-08-27T18:00	1640	830	8.3	7.2	247	9
2023-08-27T18:00	1665	828	8.1	6.7	249	10
2023-08-27T18:00	1690	825	8.2	5.8	251	10
2023-08-27T18:00	1715	823	8.1	5.5	252	10
2023-08-27T18:00	1745	820	7.9	5.4	252	10
2023-08-27T18:00	1772	817	8.0	5.2	253	11
2023-08-27T18:00	1798	814	7.9	5.2	253	11
2023-08-27T18:00	1828	812	7.7	5.0	252	11
2023-08-27T18:00	1857	809	7.6	5.0	252	12
2023-08-27T18:00	1882	806	7.4	4.8	251	12
2023-08-27T18:00	1912	803	7.3	4.5	250	13
2023-08-27T18:00	1940	801	7.1	4.4	249	13
2023-08-27T18:00	1969	798	6.8	4.3	248	14
2023-08-27T18:00	1995	795	6.6	4.1	247	14
2023-08-27T18:00	2023	793	6.5	4.0	245	15
2023-08-27T18:00	2052	790	6.4	4.0	245	15
2023-08-27T18:00	2081	787	6.2	3.9	244	16
2023-08-27T18:00	2111	784	6.0	3.9	243	16
2023-08-27T18:00	2138	782	5.8	3.9	243	16
2023-08-27T18:00	2165	779	5.6	4.0	242	16
2023-08-27T18:00	2195	776	5.5	4.0	241	16
2023-08-27T18:00	2225	774	5.3	4.0	239	16
2023-08-27T18:00	2252	771	5.1	3.9	237	15
2023-08-27T18:00	2279	768	5.0	3.9	235	15
2023-08-27T18:00	2306	766	4.8	3.8	234	14
2023-08-27T18:00	2336	763	4.6	3.8	233	14
2023-08-27T18:00	2362	761	4.4	3.8	233	14
2023-08-27T18:00	2388	758	4.3	3.9	232	14
2023-08-27T18:00	2414	756	4.2	3.9	232	14
2023-08-27T18:00	2439	753	3.9	3.7	231	14
2023-08-27T18:00	2466	751	3.7	3.7	231	14
2023-08-27T18:00	2493	748	3.6	3.5	231	14
2023-08-27T18:00	2524	746	3.5	3.5	230	14
2023-08-27T18:00	2551	743	3.4	3.4	230	14
2023-08-27T18:00	2578	741	3.3	3.3	230	14
2023-08-27T18:00	2608	738	3.1	3.1	229	14
2023-08-27T18:00	2634	736	3.0	3.0	227	13
2023-08-27T18:00	2660	733	2.9	2.9	225	13
2023-08-27T18:00	2684	731	2.8	2.8	222	13
2023-08-27T18:00	2708	729	2.7	2.7	219	13
2023-08-27T18:00	2728	727	2.7	2.4	216	13
2023-08-27T18:00	2751	725	2.5	2.5	213	13
2023-08-27T18:00	2778	723	2.3	2.3	210	13
2023-08-27T18:00	2802	720	2.3	2.1	209	13
2023-08-27T18:00	2825	718	2.1	1.9	208	13
2023-08-27T18:00	2850	716	2.0	1.9	208	13
2023-08-27T18:00	2875	714	1.9	1.5	208	13
2023-08-27T18:00	2897	712	1.8	1.5	209	13
2023-08-27T18:00	2917	710	1.6	1.3	210	13
2023-08-27T18:00	2936	708	1.5	1.3	210	13
2023-08-27T18:00	2960	707	1.2	1.2	210	13
2023-08-27T18:00	2980	705	1.1	1.1	210	12
2023-08-27T18:00	2999	703	1.0	1.0	210	12
2023-08-27T18:00	3015	702	0.9	0.9	211	12
2023-08-27T18:00	3033	700	0.8	0.8	211	12
2023-08-27T18:00	3053	698	0.6	0.6	211	13
2023-08-27T18:00	3074	697	0.5	0.5	210	13
2023-08-27T18:00	3095	695	0.4	0.4	209	13
2023-08-27T18:00	3114	693	0.3	0.3	208	13
2023-08-27T18:00	3137	691	0.2	0.2	208	14
2023-08-27T18:00	3158	689	0.1	0.1	208	14
2023-08-27T18:00	3181	687	0.0	0.0	209	14
2023-08-27T18:00	3201	686	-0.1	-0.1	209	14
2023-08-27T18:00	3222	684	-0.3	-0.3	209	14
2023-08-27T18:00	3240	682	-0.4	-0.4	210	14
2023-08-27T18:00	3263	680	-0.5	-0.5	210	14
2023-08-27T18:00	3282	679	-0.6	-0.6	210	14
2023-08-27T18:00	3303	677	-0.7	-0.7	210	14
2023-08-27T18:00	3322	675	-0.8	-0.8	210	14
2023-08-27T18:00	3343	674	-0.9	-0.9	210	14
2023-08-27T18:00	3364	672	-1.0	-1.0	210	14
2023-08-27T18:00	3385	670	-1.1	-1.1	210	14
2023-08-27T18:00	3406	668	-1.2	-1.2	211	14
2023-08-27T18:00	3426	667	-1.4	-1.4	211	14
2023-08-27T18:00	3445	665	-1.5	-1.5	212	14
2023-08-27T18:00	3465	663	-1.5	-1.5	212	14
2023-08-27T18:00	3486	661	-1.7	-1.7	212	14
2023-08-27T18:00	3507	660	-1.8	-1.8	211	14
2023-08-27T18:00	3527	658	-1.9	-1.9	211	14
2023-08-27T18:00	3549	656	-1.9	-1.9	211	14
2023-08-27T18:00	3568	655	-2.1	-2.1	211	14
2023-08-27T18:00	3587	653	-2.2	-2.2	210	14
2023-08-27T18:00	3607	652	-2.3	-2.3	210	14
2023-08-27T18:00	3627	650	-2.4	-2.4	209	14
2023-08-27T18:00	3649	648	-2.5	-2.5	208	14
2023-08-27T18:00	3665	647	-2.5	-2.5	208	15
2023-08-27T18:00	3686	645	-2.6	-2.6	208	15
2023-08-27T18:00	3706	644	-2.7	-2.7	208	15
2023-08-27T18:00	3727	642	-2.8	-2.8	209	15
2023-08-27T18:00	3747	640	-2.8	-2.8	210	15
2023-08-27T18:00	3766	639	-3.0	-3.0	210	15
2023-08-27T18:00	3786	637	-3.0	-3.0	211	15
2023-08-27T18:00	3804	636	-3.1	-3.1	212	16
2023-08-27T18:00	3826	634	-3.3	-3.3	213	16
2023-08-27T18:00	3846	632	-3.4	-3.4	213	16
2023-08-27T18:00	3866	631	-3.4	-3.4	213	17
2023-08-27T18:00	3885	629	-3.5	-3.5	213	17
2023-08-27T18:00	3906	628	-3.6	-3.6	213	17
2023-08-27T18:00	3927	626	-3.7	-3.8	212	16
2023-08-27T18:00	3947	624	-3.7	-3.8	212	16
2023-08-27T18:00	3967	623	-3.8	-3.9	211	16
2023-08-27T18:00	3991	621	-3.9	-4.1	210	15
2023-08-27T18:00	4011	619	-4.0	-4.2	210	15
2023-08-27T18:00	4035	617	-4.1	-4.3	210	15
2023-08-27T18:00	4057	616	-4.2	-4.4	209	15
2023-08-27T18:00	4077	614	-4.4	-4.6	208	14
2023-08-27T18:00	4098	612	-4.5		207	14
2023-08-27T18:00	4119	611	-4.6	-4.9	206	14
2023-08-27T18:00	4144	609	-4.7	-5.1	205	14
2023-08-27T18:00	4165	607	-4.9	-5.3	203	14
2023-08-27T18:00	4187	606	-5.0	-5.3	202	14
2023-08-27T18:00	4209	604	-5.0	-5.2	201	14
2023-08-27T18:00	4230	602	-5.1	-5.4	200	15
2023-08-27T18:00	4253	601	-5.2	-5.4	200	15
2023-08-27T18:00	4275	599	-5.3	-5.5	199	15
2023-08-27T18:00	4295	597	-5.5	-5.7	199	15
2023-08-27T18:00	4318	596	-5.6	-5.7	198	15
2023-08-27T18:00	4341	594	-5.7	-5.8	197	15
2023-08-27T18:00	4362	592	-5.8	-5.9	196	15
2023-08-27T18:00	4385	590	-5.9	-6.0	196	15
2023-08-27T18:00	4409	589	-6.0	-6.1	195	16
2023-08-27T18:00	4430	587	-6.1	-6.2	196	16
2023-08-27T18:00	4452	585	-6.2	-6.4	197	17
2023-08-27T18:00	4476	584	-6.2	-6.4	198	17
2023-08-27T18:00	4498	582	-6.3	-6.5	199	18
2023-08-27T18:00	4521	580	-6.3	-6.5	199	18
2023-08-27T18:00	4543	579	-6.4	-6.6	200	18
2023-08-27T18:00	4569	577	-6.5	-6.6	201	19
2023-08-27T18:00	4590	575	-6.7	-6.7	201	19
2023-08-27T18:00	4616	573	-6.7	-6.8	202	19
2023-08-27T18:00	4637	572	-6.9	-7.0	203	19
2023-08-27T18:00	4660	570	-7.0	-7.1	205	19
2023-08-27T18:00	4686	568	-7.2	-7.3	206	19
2023-08-27T18:00	4709	567	-7.4	-7.6	208	19
2023-08-27T18:00	4732	565	-7.5	-7.6	209	19
2023-08-27T18:00	4754	563	-7.7	-8.0	211	18
2023-08-27T18:00	4778	562	-7.9	-8.2	212	18
2023-08-27T18:00	4800	560	-8.1	-8.5	212	18
2023-08-27T18:00	4824	558	-8.3	-8.8	212	18
2023-08-27T18:00	4849	556	-8.4	-9.0	211	18
2023-08-27T18:00	4872	555	-8.5	-9.0	211	18
2023-08-27T18:00	4896	553	-8.7	-9.1	210	17
2023-08-27T18:00	4919	551	-8.8	-9.1	210	17
2023-08-27T18:00	4941	550	-8.9	-9.2	210	17
2023-08-27T18:00	4963	548	-9.0	-9.3	210	17
2023-08-27T18:00	4985	547	-9.2	-9.6	209	17
2023-08-27T18:00	5008	545	-9.4	-10.3	208	17
2023-08-27T18:00	5033	543	-9.5	-10.3	207	17
2023-08-27T18:00	5057	542	-9.6	-10.5	207	18
2023-08-27T18:00	5079	540	-9.7	-10.5	207	18
2023-08-27T18:00	5104	539	-9.8	-10.6	208	19
2023-08-27T18:00	5125	537	-9.8	-10.7	209	19
2023-08-27T18:00	5148	535	-9.9	-10.9	210	20
2023-08-27T18:00	5172	534	-10.0	-10.9	211	20
2023-08-27T18:00	5194	532	-10.1	-11.0	212	21
2023-08-27T18:00	5216	531	-10.2	-11.1	212	21
2023-08-27T18:00	5238	529	-10.3	-11.1	213	22
2023-08-27T18:00	5260	528	-10.4	-11.2	213	22
2023-08-27T18:00	5285	526	-10.5	-11.3	214	23
2023-08-27T18:00	5308	524	-10.5	-11.3	214	23
2023-08-27T18:00	5331	523	-10.7	-11.5	215	23
2023-08-27T18:00	5355	521	-10.8	-11.6	215	23
2023-08-27T18:00	5377	520	-10.9	-11.6	216	24
2023-08-27T18:00	5402	518	-11.1	-11.9	217	24
2023-08-27T18:00	5428	516	-11.3	-12.1	218	24
2023-08-27T18:00	5452	515	-11.5	-12.3	219	24
2023-08-27T18:00	5476	513	-11.7	-12.6	220	25
2023-08-27T18:00	5500	511	-12.0	-13.4	220	25
2023-08-27T18:00	5523	510	-12.2	-13.7	219	25
2023-08-27T18:00	5546	508	-12.2	-13.3	219	25
2023-08-27T18:00	5570	507	-12.4	-13.7	218	25
2023-08-27T18:00	5592	505	-12.6	-13.7	216	25
2023-08-27T18:00	5618	504	-12.7	-13.7	215	25
2023-08-27T18:00	5643	502	-12.8	-13.6	215	26
2023-08-27T18:00	5667	500	-12.8	-13.2	214	26
2023-08-27T18:00	5692	499	-12.9	-13.1	213	26
2023-08-27T18:00	5715	497	-12.9	-13.2	212	26
2023-08-27T18:00	5737	496	-12.9	-13.1	212	26
2023-08-27T18:00	5762	494	-13.0	-13.2	211	26
2023-08-27T18:00	5786	493	-13.1	-13.4	210	26
2023-08-27T18:00	5810	491	-13.2	-13.6	209	26
2023-08-27T18:00	5833	490	-13.4	-13.7	209	26
2023-08-27T18:00	5855	488	-13.3	-13.6	208	26
2023-08-27T18:00	5878	487	-13.4	-13.6	208	26
2023-08-27T18:00	5901	485	-13.4	-13.7	207	26
2023-08-27T18:00	5923	484	-13.6	-13.9	207	26
2023-08-27T18:00	5947	482	-13.7	-14.0	207	26
2023-08-27T18:00	5971	481	-13.9	-14.3	206	26
2023-08-27T18:00	5994	479	-14.0	-14.4	206	26
2023-08-27T18:00	6020	478	-14.2	-14.6	206	26
2023-08-27T18:00	6044	476	-14.4	-15.0	206	26
2023-08-27T18:00	6068	475	-14.5	-15.0	206	26
2023-08-27T18:00	6092	473	-14.7	-15.3	206	27
2023-08-27T18:00	6119	472	-14.9	-15.8	206	27
2023-08-27T18:00	6140	470	-15.1	-16.1	206	27
2023-08-27T18:00	6167	469	-15.2	-16.1	206	28
2023-08-27T18:00	6191	467	-15.2	-16.0	206	28
2023-08-27T18:00	6215	466	-15.4	-16.1	206	28
2023-08-27T18:00	6241	464	-15.5	-16.1	205	28
2023-08-27T18:00	6265	463	-15.7	-16.2	205	28
2023-08-27T18:00	6288	461	-15.8	-16.2	205	28
2023-08-27T18:00	6313	460	-15.9	-16.4	205	28
2023-08-27T18:00	6335	458	-16.1	-16.6	205	28
2023-08-27T18:00	6358	457	-16.2	-16.8	205	28
2023-08-27T18:00	6379	456	-16.4	-16.9	205	29
2023-08-27T18:00	6404	454	-16.5	-17.0	205	29
2023-08-27T18:00	6427	453	-16.6	-17.2	205	29
2023-08-27T18:00	6452	451	-16.7	-17.3	206	30
2023-08-27T18:00	6473	450	-16.7	-17.2	206	30
2023-08-27T18:00	6497	448	-16.9	-17.4	207	30
2023-08-27T18:00	6522	447	-17.0	-17.5	207	30
2023-08-27T18:00	6544	446	-17.2	-17.7	208	30
2023-08-27T18:00	6569	444	-17.3	-17.8	208	30
2023-08-27T18:00	6595	443	-17.5	-18.0	208	30
2023-08-27T18:00	6617	441	-17.6	-18.1	208	30
2023-08-27T18:00	6643	440	-17.8	-18.3	208	30
2023-08-27T18:00	6669	438	-18.0	-18.5	208	30
2023-08-27T18:00	6694	437	-18.2	-18.7	208	31
2023-08-27T18:00	6719	435	-18.3	-18.8	207	31
2023-08-27T18:00	6744	434	-18.5	-19.1	207	32
2023-08-27T18:00	6767	433	-18.6	-19.1	207	32
2023-08-27T18:00	6790	431	-18.7	-19.2	206	33
2023-08-27T18:00	6815	430	-18.7	-19.3	206	33
2023-08-27T18:00	6839	428	-18.8	-19.3	206	33
2023-08-27T18:00	6865	427	-18.8	-19.3	206	34
2023-08-27T18:00	6891	425	-19.0	-19.5	205	34
2023-08-27T18:00	6916	424	-19.1	-19.7	205	34
2023-08-27T18:00	6936	423	-19.3	-20.0	206	34
2023-08-27T18:00	6963	421	-19.5	-20.1	206	34
2023-08-27T18:00	6986	420	-19.7	-20.3	206	34
2023-08-27T18:00	7012	419	-19.9	-20.4	206	34
2023-08-27T18:00	7037	417	-20.1	-20.6	206	34
2023-08-27T18:00	7065	416	-20.2	-20.7	206	34
2023-08-27T18:00	7090	414	-20.4	-20.9	207	34
2023-08-27T18:00	7116	413	-20.6	-21.1	207	35
2023-08-27T18:00	7135	412	-20.8	-21.3	208	35
2023-08-27T18:00	7159	410	-21.1	-21.8	209	36
2023-08-27T18:00	7185	409	-21.2	-22.2	209	36
2023-08-27T18:00	7205	408	-21.3	-22.4	210	37
2023-08-27T18:00	7229	406	-21.4	-22.6	211	37
2023-08-27T18:00	7258	405	-21.4	-23.1	211	38
2023-08-27T18:00	7283	404	-21.5	-23.1	212	38
2023-08-27T18:00	7309	402	-21.7	-23.4	212	38
2023-08-27T18:00	7328	401	-21.8	-23.4	212	38
2023-08-27T18:00	7351	400	-22.0	-23.6	211	38
2023-08-27T18:00	7377	398	-22.2	-23.8	211	38
2023-08-27T18:00	7401	397	-22.4	-23.9	211	38
2023-08-27T18:00	7422	396	-22.5	-23.9	210	38
2023-08-27T18:00	7447	395	-22.7	-24.1	211	38
2023-08-27T18:00	7467	393	-22.9	-24.2	211	38
2023-08-27T18:00	7492	392	-23.1	-24.4	211	38
2023-08-27T18:00	7515	391	-23.3	-24.8	212	38
2023-08-27T18:00	7541	390	-23.5	-24.7	212	38
2023-08-27T18:00	7562	388	-23.7	-24.9	213	38
2023-08-27T18:00	7586	387	-23.9	-25.0	213	38
2023-08-27T18:00	7609	386	-24.1	-25.1	213	38
2023-08-27T18:00	7632	385	-24.2	-25.2	213	38
2023-08-27T18:00	7655	384	-24.5	-25.3	213	38
2023-08-27T18:00	7679	382	-24.7	-25.5	213	38
2023-08-27T18:00	7702	381	-24.8	-25.5	213	38
2023-08-27T18:00	7729	380	-25.0	-25.6	213	38
2023-08-27T18:00	7755	378	-25.2	-25.9	213	38
2023-08-27T18:00	7774	377	-25.4	-26.0	213	38
2023-08-27T18:00	7802	376	-25.6	-26.1	213	39
2023-08-27T18:00	7829	374	-25.8	-26.4	213	39
2023-08-27T18:00	7857	373	-26.0	-26.5	213	40
2023-08-27T18:00	7879	372	-26.0	-26.5	213	40
2023-08-27T18:00	7902	371	-26.0	-26.6	214	41
2023-08-27T18:00	7924	370	-25.9	-27.7	214	41
2023-08-27T18:00	7950	368	-26.1	-28.2	214	41
2023-08-27T18:00	7980	367	-26.4	-28.4	214	41
2023-08-27T18:00	8007	365	-26.6	-28.7	214	41
2023-08-27T18:00	8038	364	-26.9	-29.1	214	41
2023-08-27T18:00	8061	363	-27.1	-29.2	214	41
2023-08-27T18:00	8088	361	-27.3	-29.2	214	41
2023-08-27T18:00	8111	360	-27.4	-29.5	213	41
2023-08-27T18:00	8136	359	-27.6	-29.6	213	41
2023-08-27T18:00	8163	358	-27.9	-30.0	213	40
2023-08-27T18:00	8193	356	-28.1	-30.0	214	40
2023-08-27T18:00	8222	355	-28.4	-30.3	214	40
2023-08-27T18:00	8249	353	-28.6	-30.5	214	40
2023-08-27T18:00	8278	352	-28.8	-30.7	214	40
2023-08-27T18:00	8304	351	-29.0	-30.9	214	40
2023-08-27T18:00	8327	350	-29.2	-31.2	214	40
2023-08-27T18:00	8346	348	-29.4	-31.3	214	40
2023-08-27T18:00	8366	347	-29.6	-31.5	214	40
2023-08-27T18:00	8393	346	-29.8	-31.6	214	40
2023-08-27T18:00	8419	345	-30.0	-31.8	214	40
2023-08-27T18:00	8440	344	-30.2	-31.9	214	40
2023-08-27T18:00	8464	343	-30.4	-32.7	214	40
2023-08-27T18:00	8491	342	-30.6	-33.0	215	40
2023-08-27T18:00	8517	340	-30.9	-33.4	215	40
2023-08-27T18:00	8542	339	-31.1	-33.4	216	40
2023-08-27T18:00	8567	338	-31.3	-33.5	216	40
2023-08-27T18:00	8597	336	-31.5	-33.8	216	40
2023-08-27T18:00	8621	335	-31.7	-33.8	217	41
2023-08-27T18:00	8642	334	-31.9	-34.0	217	41
2023-08-27T18:00	8670	333	-32.2	-34.3	217	41
2023-08-27T18:00	8699	332	-32.4	-34.5	218	41
2023-08-27T18:00	8729	330	-32.7	-35.0	218	41
2023-08-27T18:00	8755	329	-32.9	-35.2	218	40
2023-08-27T18:00	8778	328	-33.1	-35.4	218	40
2023-08-27T18:00	8798	327	-33.3	-35.9	218	40
2023-08-27T18:00	8824	326	-33.5	-36.0	217	40
2023-08-27T18:00	8848	325	-33.8	-36.5	217	41
2023-08-27T18:00	8873	323	-34.0	-36.5	217	40
2023-08-27T18:00	8900	322	-34.2	-37.0	218	40
2023-08-27T18:00	8926	321	-34.5	-37.2	218	40
2023-08-27T18:00	8945	320	-34.6	-37.3	219	39
2023-08-27T18:00	8969	319	-34.8	-37.7	219	39
2023-08-27T18:00	8991	318	-35.0	-38.0	220	39
2023-08-27T18:00	9013	317	-35.2	-38.2	221	39
2023-08-27T18:00	9040	316	-35.4	-38.5	222	39
2023-08-27T18:00	9066	315	-35.7	-38.6	222	40
2023-08-27T18:00	9094	313	-35.9	-39.0	223	40
2023-08-27T18:00	9121	312	-36.1	-39.5	224	41
2023-08-27T18:00	9144	311	-36.3	-39.7	224	41
2023-08-27T18:00	9165	310	-36.5	-39.8	224	42
2023-08-27T18:00	9184	309	-36.6	-40.3	224	42
2023-08-27T18:00	9212	308	-36.9	-40.7	224	43
2023-08-27T18:00	9235	307	-37.1	-40.9	225	44
2023-08-27T18:00	9263	306	-37.2	-41.5	225	44
2023-08-27T18:00	9285	305	-37.4	-41.7	226	45
2023-08-27T18:00	9306	304	-37.5	-41.6	226	45
2023-08-27T18:00	9327	303	-37.6	-42.5	227	45
2023-08-27T18:00	9353	302	-37.7	-42.6	228	45
2023-08-27T18:00	9383	301	-38.0	-42.6	228	46
2023-08-27T18:00	9403	300	-38.1	-42.7	228	47
2023-08-27T18:00	9423	299	-38.2	-42.7	228	48
2023-08-27T18:00	9446	298	-38.4	-42.7	228	48
2023-08-27T18:00	9462	297	-38.5	-42.7	228	49
2023-08-27T18:00	9486	296	-38.7	-42.9	228	49
2023-08-27T18:00	9505	295	-38.8		228	49
2023-08-27T18:00	9527	294	-39.0	-43.1	228	49
2023-08-27T18:00	9549	293	-38.9	-43.8	228	48
2023-08-27T18:00	9576	292	-39.0	-44.2	228	48
2023-08-27T18:00	9597	291	-39.1	-44.1	228	47
2023-08-27T18:00	9622	290	-39.2	-44.2	228	47
2023-08-27T18:00	9651	289	-39.4	-44.8	228	47
2023-08-27T18:00	9675	288	-39.6	-45.1	228	46
2023-08-27T18:00	9702	287	-39.7	-45.2	227	46
2023-08-27T18:00	9727	286	-40.0	-45.3	227	46
2023-08-27T18:00	9753	285	-40.1	-45.6	227	46
2023-08-27T18:00	9784	284	-40.4	-45.7	227	46
2023-08-27T18:00	9807	282	-40.6	-45.9	226	46
2023-08-27T18:00	9836	281	-40.8	-46.8	227	45
2023-08-27T18:00	9856	281	-40.9	-46.7	227	45
2023-08-27T18:00	9879	280	-41.2	-46.8	227	45
2023-08-27T18:00	9904	279	-41.3	-46.8	227	45
2023-08-27T18:00	9932	277	-41.6	-47.1	227	45
2023-08-27T18:00	9954	276	-41.8	-47.5	226	45
2023-08-27T18:00	9981	275	-42.0	-47.6	226	45
2023-08-27T18:00	10006	274	-42.2	-47.8	226	45
2023-08-27T18:00	10033	273	-42.5	-48.1	226	44
2023-08-27T18:00	10055	272	-42.7	-48.6	225	44
2023-08-27T18:00	10083	271	-43.0	-48.9	225	44
2023-08-27T18:00	10108	270	-43.2	-49.0	226	44
2023-08-27T18:00	10133	269	-43.4	-49.0	226	44
2023-08-27T18:00	10157	268	-43.6	-49.3	226	44
2023-08-27T18:00	10183	267	-43.9	-49.5	226	44
2023-08-27T18:00	10206	266	-44.1	-49.5	225	44
2023-08-27T18:00	10238	265	-44.3	-49.3	225	43
2023-08-27T18:00	10267	264	-44.6	-49.3	225	43
2023-08-27T18:00	10297	263	-44.8	-49.2	225	43
2023-08-27T18:00	10324	262	-45.0	-49.1	224	42
2023-08-27T18:00	10350	261	-45.3	-49.0	224	42
2023-08-27T18:00	10381	259	-45.6	-49.2	223	42
2023-08-27T18:00	10411	258	-45.8	-49.4	223	42
2023-08-27T18:00	10433	257	-46.1	-49.6	223	43
2023-08-27T18:00	10461	256	-46.2	-49.6	223	44
2023-08-27T18:00	10487	255	-46.5	-49.9	224	45
2023-08-27T18:00	10516	254	-46.7	-50.3	224	45
2023-08-27T18:00	10542	253	-47.0	-50.7	225	46
2023-08-27T18:00	10566	252	-47.2	-50.7	225	46
2023-08-27T18:00	10588	251	-47.4	-51.2	225	45
2023-08-27T18:00	10617	250	-47.7	-52.0	225	45
2023-08-27T18:00	10641	250	-47.9	-52.7	225	44
2023-08-27T18:00	10666	249	-48.2	-53.0	226	44
2023-08-27T18:00	10686	248	-48.4	-53.2	226	44
2023-08-27T18:00	10715	247	-48.6	-53.1	226	44
2023-08-27T18:00	10741	246	-48.9	-53.2	226	44
2023-08-27T18:00	10769	245	-49.2	-53.5	226	44
2023-08-27T18:00	10793	244	-49.4	-53.8	226	44
2023-08-27T18:00	10825	243	-49.7		225	44
2023-08-27T18:00	10847	242	-49.9	-53.8	225	44
2023-08-27T18:00	10879	241	-50.2	-54.2	225	45
2023-08-27T18:00	10903	240	-50.4	-54.6	225	45
2023-08-27T18:00	10929	239	-50.7	-54.7	225	45
2023-08-27T18:00	10949	238	-50.9	-54.7	226	45
2023-08-27T18:00	10971	237	-51.1	-55.2	227	45
2023-08-27T18:00	10993	236	-51.3	-56.0	228	45
2023-08-27T18:00	11016	236	-51.5	-56.5	228	46
2023-08-27T18:00	11038	235	-51.7	-56.3	228	46
2023-08-27T18:00	11061	234	-51.9	-56.1	228	46
2023-08-27T18:00	11077	233	-52.1	-56.4	228	45
2023-08-27T18:00	11102	232	-52.3	-56.8	228	45
2023-08-27T18:00	11124	232	-52.5	-57.2	228	45
2023-08-27T18:00	11151	231	-52.8	-57.5	228	46
2023-08-27T18:00	11175	230	-53.0	-57.7	229	46
2023-08-27T18:00	11196	229	-53.2	-57.8	229	46
2023-08-27T18:00	11224	228	-53.5	-57.9	229	45
2023-08-27T18:00	11250	227	-53.7	-58.0	230	45
2023-08-27T18:00	11280	226	-54.0	-58.2	230	44
2023-08-27T18:00	11305	225	-54.2	-58.2	229	44
2023-08-27T18:00	11331	224	-54.4	-58.3	229	44
2023-08-27T18:00	11352	224	-54.6	-58.6	229	44
2023-08-27T18:00	11371	223	-54.8	-58.6	230	45
2023-08-27T18:00	11397	222	-55.1	-58.7	232	45
2023-08-27T18:00	11416	221	-55.3	-58.8	234	46
2023-08-27T18:00	11441	221	-55.5	-59.1	236	46
2023-08-27T18:00	11463	220	-55.7	-59.5	236	46
2023-08-27T18:00	11485	219	-55.8	-59.8	236	46
2023-08-27T18:00	11508	218	-56.0	-60.0	236	46
2023-08-27T18:00	11534	217	-56.2	-60.1	236	46
2023-08-27T18:00	11555	217	-56.4	-60.2	235	46
2023-08-27T18:00	11584	216	-56.7	-60.4	235	46
2023-08-27T18:00	11605	215	-56.9	-60.6	235	46
2023-08-27T18:00	11632	214	-57.1	-60.7	236	47
2023-08-27T18:00	11653	213	-57.3	-60.9	236	47
2023-08-27T18:00	11677	212	-57.5	-61.1	236	47
2023-08-27T18:00	11701	212	-57.7	-61.2	237	46
2023-08-27T18:00	11728	211	-57.9	-61.4	237	46
2023-08-27T18:00	11754	210	-58.1	-61.5	237	45
2023-08-27T18:00	11776	209	-58.2	-61.6	237	45
2023-08-27T18:00	11802	208	-58.2	-61.6	237	44
2023-08-27T18:00	11825	208	-58.3	-61.8	236	44
2023-08-27T18:00	11850	207	-58.4	-62.0	235	44
2023-08-27T18:00	11876	206	-58.5	-62.3	235	44
2023-08-27T18:00	11900	205	-58.7	-62.6	234	44
2023-08-27T18:00	11924	204	-58.7	-62.5	233	44
2023-08-27T18:00	11951	203	-58.6	-62.2	232	43
2023-08-27T18:00	11973	203	-58.8	-62.4	231	43
2023-08-27T18:00	11998	202	-58.9	-62.4	230	43
2023-08-27T18:00	12024	201	-59.1	-62.6	228	42
2023-08-27T18:00	12044	200	-59.3	-62.8	227	42
2023-08-27T18:00	12072	200	-59.5	-63.1	226	41
2023-08-27T18:00	12103	199	-59.7	-63.3	226	41
2023-08-27T18:00	12135	198	-60.0	-63.5	225	40
2023-08-27T18:00	12170	196	-60.3	-63.4	224	40
2023-08-27T18:00	12202	195	-60.4	-63.0	223	40
2023-08-27T18:00	12229	195	-60.7	-63.0	222	41
2023-08-27T18:00	12262	194	-60.9	-63.4	221	41
2023-08-27T18:00	12294	193	-60.5	-63.9	220	41
2023-08-27T18:00	12323	192	-60.2	-65.8	220	40
2023-08-27T18:00	12356	191	-59.3	-69.1	220	40
2023-08-27T18:00	12385	190	-56.1	-72.7	220	39
2023-08-27T18:00	12416	189	-54.8	-80.1	221	38
2023-08-27T18:00	12449	188	-54.6	-83.0	221	38
2023-08-27T18:00	12476	187	-54.3	-79.5	222	37
2023-08-27T18:00	12504	186	-54.1	-77.0	222	37
2023-08-27T18:00	12532	185	-54.1	-75.6	223	37
2023-08-27T18:00	12560	185	-54.2	-75.1	224	37
2023-08-27T18:00	12590	184	-54.1	-74.9	225	37
2023-08-27T18:00	12623	183	-53.7	-74.7	226	37
2023-08-27T18:00	12651	182	-53.4		225	37
2023-08-27T18:00	12678	181	-53.4		225	37
2023-08-27T18:00	12701	181	-53.3	-74.2	224	38
2023-08-27T18:00	12727	180	-53.3	-74.1	223	38
2023-08-27T18:00	12756	179	-53.5	-74.0	223	38
2023-08-27T18:00	12785	178	-53.7	-74.1	222	38
2023-08-27T18:00	12811	178	-54.0	-74.2	222	38
2023-08-27T18:00	12842	177	-54.3	-74.1	222	38
2023-08-27T18:00	12873	176	-54.5	-74.1	222	38
2023-08-27T18:00	12905	175	-54.3	-73.9	223	38
2023-08-27T18:00	12937	174	-54.1	-74.2	223	38
2023-08-27T18:00	12965	173	-54.1	-75.0	224	38
2023-08-27T18:00	12991	173	-54.1	-75.4	224	38
2023-08-27T18:00	13015	172	-53.8	-75.0	224	38
2023-08-27T18:00	13044	171	-54.0	-74.9	224	38
2023-08-27T18:00	13076	170	-54.2	-75.3	224	38
2023-08-27T18:00	13107	170	-53.9	-75.3	223	38
2023-08-27T18:00	13141	169	-54.1	-75.6	223	38
2023-08-27T18:00	13172	168	-54.3	-75.7	222	39
2023-08-27T18:00	13205	167	-54.4	-75.6	222	38
2023-08-27T18:00	13231	166	-54.4	-75.6	222	38
2023-08-27T18:00	13265	165	-54.4	-75.5	222	38
2023-08-27T18:00	13297	165	-54.5	-75.7	223	38
2023-08-27T18:00	13325	164	-54.6	-75.9	224	38
2023-08-27T18:00	13349	163	-54.7	-76.0	225	38
2023-08-27T18:00	13375	163	-54.7	-75.9	225	38
2023-08-27T18:00	13396	162	-54.9	-76.0	226	38
2023-08-27T18:00	13420	161	-54.9	-76.2	226	38
2023-08-27T18:00	13440	161	-54.9	-76.2	226	37
2023-08-27T18:00	13468	160	-54.9	-76.2	226	37
2023-08-27T18:00	13492	160	-55.0	-76.4	227	36
2023-08-27T18:00	13520	159	-55.0	-76.5	227	36
2023-08-27T18:00	13549	158	-54.9	-76.9	227	35
2023-08-27T18:00	13573	158	-55.0	-77.1	227	35
2023-08-27T18:00	13600	157	-55.2	-77.4	227	35
2023-08-27T18:00	13628	156	-55.2	-77.2	228	34
2023-08-27T18:00	13656	156	-55.2	-77.2	228	34
2023-08-27T18:00	13684	155	-55.4	-77.6	228	33
2023-08-27T18:00	13711	154	-55.4	-77.9	229	33
2023-08-27T18:00	13735	154	-55.3	-78.1	229	32
2023-08-27T18:00	13758	153	-54.9	-78.0	229	31
2023-08-27T18:00	13781	153	-54.8	-77.9	229	31
2023-08-27T18:00	13802	152	-54.7	-77.6	228	31
2023-08-27T18:00	13821	152	-54.8	-77.7	228	31
2023-08-27T18:00	13842	151	-54.7	-77.8	228	31
2023-08-27T18:00	13861	151	-54.5	-77.6	228	31
2023-08-27T18:00	13879	150	-54.2	-77.6	228	31
2023-08-27T18:00	13898	150	-54.0	-77.6	229	31
2023-08-27T18:00	13921	149	-53.9	-77.7	230	30
2023-08-27T18:00	13945	149	-53.5	-77.6	231	30
2023-08-27T18:00	13974	148	-52.7	-77.1	232	29
2023-08-27T18:00	14001	147	-52.7	-77.6	232	29
2023-08-27T18:00	14029	147	-52.7	-77.8	233	28
2023-08-27T18:00	14059	146	-52.4	-77.8	233	28
2023-08-27T18:00	14085	146	-52.1	-77.3	234	28
2023-08-27T18:00	14112	145	-52.1	-77.1	234	29
2023-08-27T18:00	14138	144	-52.2	-77.2	235	29
2023-08-27T18:00	14160	144	-52.5	-77.4	236	29
2023-08-27T18:00	14183	143	-52.6	-77.7	236	29
2023-08-27T18:00	14206	143	-52.6	-77.7	237	29
2023-08-27T18:00	14228	142	-52.6	-77.7	238	28
2023-08-27T18:00	14255	142	-52.7	-78.0	238	27
2023-08-27T18:00	14283	141	-52.4	-78.2	238	26
2023-08-27T18:00	14308	141	-51.9	-78.1	238	25
2023-08-27T18:00	14331	140	-51.1	-77.8	237	23
2023-08-27T18:00	14356	140	-51.1	-77.8	237	22
2023-08-27T18:00	14388	139	-51.0	-77.7	236	21
2023-08-27T18:00	14417	138	-51.1	-77.8	235	20
2023-08-27T18:00	14450	138	-51.2	-77.8	233	20
2023-08-27T18:00	14475	137	-51.3	-77.9	231	19
2023-08-27T18:00	14504	136	-51.5	-78.3	229	19
2023-08-27T18:00	14531	136	-51.4	-78.0	228	19
2023-08-27T18:00	14555	135	-51.1	-77.8	227	20
2023-08-27T18:00	14584	135	-51.0	-77.4	227	20
2023-08-27T18:00	14608	134	-51.2	-77.6	228	20
2023-08-27T18:00	14635	134	-51.2	-77.8	229	20
2023-08-27T18:00	14668	133	-51.1	-77.8	230	20
2023-08-27T18:00	14683	133	-51.2	-78.1	231	20
2023-08-27T18:00	14705	132	-51.2	-78.1	232	20
2023-08-27T18:00	14729	132	-51.3	-78.5	232	20
2023-08-27T18:00	14751	131	-51.0	-78.2	232	19
2023-08-27T18:00	14770	131	-50.9	-77.9	231	19
2023-08-27T18:00	14790	131	-51.0		231	19
2023-08-27T18:00	14814	130	-51.2	-78.1	232	19
2023-08-27T18:00	14834	130	-51.2	-78.4	232	18
2023-08-27T18:00	14857	129	-50.9	-78.2	233	18
2023-08-27T18:00	14884	129	-50.6	-78.2	234	18
2023-08-27T18:00	14906	128	-50.6	-78.5	234	18
2023-08-27T18:00	14930	128	-50.6	-78.5	234	18
2023-08-27T18:00	14957	127	-50.4	-78.4	234	18
2023-08-27T18:00	14979	127	-50.1	-78.5	232	18
2023-08-27T18:00	15004	126	-50.3	-78.7	230	18
2023-08-27T18:00	15024	126	-50.5	-78.8	228	18
2023-08-27T18:00	15050	125	-50.7	-78.6	226	18
2023-08-27T18:00	15068	125	-50.9	-78.8	226	18
2023-08-27T18:00	15097	125	-51.1	-78.6	226	17
2023-08-27T18:00	15128	124	-51.0		227	17
2023-08-27T18:00	15157	123	-51.1	-78.6	228	17
2023-08-27T18:00	15180	123	-50.9	-78.8	230	16
2023-08-27T18:00	15206	122	-50.9	-78.8	232	16
2023-08-27T18:00	15228	122	-51.1	-78.9	233	15
2023-08-27T18:00	15250	122	-51.3	-79.1	234	15
2023-08-27T18:00	15276	121	-51.5	-79.2	236	14
2023-08-27T18:00	15300	121	-51.7	-79.4	237	14
2023-08-27T18:00	15328	120	-51.9	-79.5	239	14
2023-08-27T18:00	15355	120	-51.8	-79.8	239	14
2023-08-27T18:00	15378	119	-51.6	-79.6	239	14
2023-08-27T18:00	15403	119	-51.5	-79.6	238	15
2023-08-27T18:00	15431	118	-51.3	-79.4	236	15
2023-08-27T18:00	15459	118	-51.5	-79.6	233	15
2023-08-27T18:00	15488	117	-51.3	-79.4	229	15
2023-08-27T18:00	15509	117	-51.4	-79.2	226	15
2023-08-27T18:00	15534	116	-51.5	-79.2	223	15
2023-08-27T18:00	15565	116	-51.8	-79.5	220	15
2023-08-27T18:00	15596	115	-52.1	-79.7	218	15
2023-08-27T18:00	15618	115	-52.2	-80.1	217	16
2023-08-27T18:00	15645	115	-52.4	-80.3	216	16
2023-08-27T18:00	15664	114	-52.6	-80.4	218	17
2023-08-27T18:00	15685	114	-52.7	-80.5	220	17
2023-08-27T18:00	15706	113	-52.7	-80.5	222	17
2023-08-27T18:00	15726	113	-52.7	-80.5	225	18
2023-08-27T18:00	15750	113	-52.9	-80.6	227	18
2023-08-27T18:00	15769	112	-52.9	-80.6	228	19
2023-08-27T18:00	15791	112	-53.0	-80.7	229	19
2023-08-27T18:00	15811	112	-53.1	-80.8	229	19
2023-08-27T18:00	15834	111	-53.0	-80.7	229	18
2023-08-27T18:00	15859	111	-52.6	-80.4	229	18
2023-08-27T18:00	15882	110	-52.6	-80.8	228	17
2023-08-27T18:00	15908	110	-52.6	-80.8	227	17
2023-08-27T18:00	15934	109	-52.5	-80.7	227	17
2023-08-27T18:00	15960	109	-52.6	-81.1	227	17
2023-08-27T18:00	15981	109	-52.7	-81.2	226	17
2023-08-27T18:00	15999	108	-52.5	-81.0	225	17
2023-08-27T18:00	16021	108	-52.6	-81.1	224	16
2023-08-27T18:00	16044	108	-52.4	-81.0	222	16
2023-08-27T18:00	16064	107	-52.3	-80.9	220	16
2023-08-27T18:00	16085	107	-52.4	-81.0	218	16
2023-08-27T18:00	16111	106	-52.5	-81.0	217	16
2023-08-27T18:00	16134	106	-52.5	-81.0	216	16
2023-08-27T18:00	16162	106	-52.6	-80.8	216	16
2023-08-27T18:00	16189	105	-52.9	-81.0	216	16
2023-08-27T18:00	16215	105	-53.1	-81.1	215	16
2023-08-27T18:00	16239	104	-53.3	-81.3	215	17
2023-08-27T18:00	16264	104	-53.6	-81.5	215	17
2023-08-27T18:00	16285	104	-53.7	-81.6	216	18
2023-08-27T18:00	16306	103	-53.9	-81.7	216	18
2023-08-27T18:00	16325	103	-54.0	-81.8	217	19
2023-08-27T18:00	16351	103	-54.0	-81.8	218	19
2023-08-27T18:00	16372	102	-54.0	-81.8	219	18
2023-08-27T18:00	16396	102	-54.1	-81.9	221	18
2023-08-27T18:00	16419	102	-53.9	-81.7	222	17
2023-08-27T18:00	16444	101	-53.9	-82.1	224	16
2023-08-27T18:00	16471	101	-54.2	-82.3	226	16
2023-08-27T18:00	16495	100	-54.3	-82.4	227	15
2023-08-27T18:00	16516	100	-54.2	-82.3	228	15
2023-08-27T18:00	16538	100	-54.0	-82.2	228	15
2023-08-27T18:00	16559	99	-53.9	-82.1	227	15
2023-08-27T18:00	16582	99	-54.0	-82.2	227	16
2023-08-27T18:00	16598	99	-54.1	-82.3	227	16
2023-08-27T18:00	16622	98	-54.1	-82.3	227	16
2023-08-27T18:00	16641	98	-54.3	-82.4	227	16
2023-08-27T18:00	16667	98	-54.3	-82.4	227	16
2023-08-27T18:00	16687	97	-54.4	-82.5	227	16
2023-08-27T18:00	16706	97	-54.5	-82.6	227	15
2023-08-27T18:00	16725	97	-54.6	-82.3	227	15
2023-08-27T18:00	16748	96	-54.8	-82.4	227	15
2023-08-27T18:00	16766	96	-54.8	-82.4	227	15
2023-08-27T18:00	16788	96	-54.7	-82.4	229	16
2023-08-27T18:00	16810	95	-54.3	-82.4	230	16
2023-08-27T18:00	16833	95	-54.4	-82.5	231	16
2023-08-27T18:00	16856	95	-54.6	-82.3	232	17
2023-08-27T18:00	16880	94	-54.8	-82.4	233	17
2023-08-27T18:00	16906	94	-55.0	-82.6	233	18
2023-08-27T18:00	16936	94	-55.2	-82.7	233	19
2023-08-27T18:00	16962	93	-55.3	-82.8	233	20
2023-08-27T18:00	16985	93	-55.5	-83.0	234	20
2023-08-27T18:00	17009	93	-55.6	-83.1	235	21
2023-08-27T18:00	17032	92	-55.7	-83.1	237	20
2023-08-27T18:00	17053	92	-55.6	-83.1	239	20
2023-08-27T18:00	17073	92	-55.5	-83.0	240	20
2023-08-27T18:00	17096	91	-55.5	-83.0	242	19
2023-08-27T18:00	17117	91	-55.5	-83.0	244	19
2023-08-27T18:00	17136	91	-55.6	-83.1	247	18
2023-08-27T18:00	17158	90	-55.6	-83.4	250	17
2023-08-27T18:00	17180	90	-55.6	-83.4	252	17
2023-08-27T18:00	17203	90	-55.3	-83.2	255	16
2023-08-27T18:00	17224	90	-54.9	-83.3	257	15
2023-08-27T18:00	17244	89	-54.8	-83.2	258	14
2023-08-27T18:00	17266	89	-54.7	-83.1	258	14
2023-08-27T18:00	17290	89	-54.7	-83.1	258	13
2023-08-27T18:00	17311	88	-54.7	-83.1	257	13
2023-08-27T18:00	17330	88	-54.7	-83.1	256	12
2023-08-27T18:00	17353	88	-54.8	-83.2	254	11
2023-08-27T18:00	17380	87	-54.9	-83.3	252	10
2023-08-27T18:00	17398	87	-55.0		249	10
2023-08-27T18:00	17425	87	-55.2	-83.5	246	10
2023-08-27T18:00	17447	86	-55.4	-83.6	243	10
2023-08-27T18:00	17467	86	-55.4	-83.3	240	10
2023-08-27T18:00	17487	86	-55.5		238	10
2023-08-27T18:00	17514	86	-55.6	-83.1	237	10
2023-08-27T18:00	17532	85	-55.8	-83.2	236	11
2023-08-27T18:00	17554	85	-55.8	-83.2	237	11
2023-08-27T18:00	17578	85	-55.8	-83.2	239	11
2023-08-27T18:00	17595	84	-56.0	-83.7	241	12
2023-08-27T18:00	17618	84	-56.1	-83.8	244	11
2023-08-27T18:00	17639	84	-56.0	-84.1	246	11
2023-08-27T18:00	17660	84	-55.6	-83.8	248	11
2023-08-27T18:00	17678	83	-55.6	-83.8	250	10
2023-08-27T18:00	17700	83	-55.7	-83.9	252	10
2023-08-27T18:00	17720	83	-55.8	-83.9	253	9
2023-08-27T18:00	17744	83	-55.9	-84.0	254	9
2023-08-27T18:00	17763	82	-55.9	-84.0	254	9
2023-08-27T18:00	17784	82	-56.0	-84.1	254	10
2023-08-27T18:00	17806	82	-55.9	-84.0	254	10
2023-08-27T18:00	17825	81	-55.8	-83.9	254	10
2023-08-27T18:00	17844	81	-55.8	-83.9	254	11
2023-08-27T18:00	17863	81	-55.8	-83.9	255	10
2023-08-27T18:00	17885	81	-55.8	-84.3	255	10
2023-08-27T18:00	17907	80	-55.8	-84.3	256	9
2023-08-27T18:00	17925	80	-55.6	-84.2	256	9
2023-08-27T18:00	17946	80	-55.2	-83.9	257	8
2023-08-27T18:00	17973	80	-55.1	-83.4	256	7
2023-08-27T18:00	17992	79	-55.2	-83.5	256	6
2023-08-27T18:00	18014	79	-55.4	-83.3	255	5
2023-08-27T18:00	18037	79	-55.5	-83.0	253	5
2023-08-27T18:00	18056	79	-55.5	-82.6	248	4
2023-08-27T18:00	18073	78	-55.3	-82.5	241	4
2023-08-27T18:00	18094	78	-54.8	-82.4	233	4
2023-08-27T18:00	18115	78	-54.8	-82.8	225	4
2023-08-27T18:00	18130	78	-54.9	-83.3	219	4
2023-08-27T18:00	18153	77	-54.9	-83.7	214	4
2023-08-27T18:00	18170	77	-54.9	-83.7	212	4
2023-08-27T18:00	18192	77	-54.8	-84.0	211	4
2023-08-27T18:00	18207	77	-54.5	-83.8	211	4
2023-08-27T18:00	18227	76	-54.2	-83.6	212	4
2023-08-27T18:00	18247	76	-54.1	-83.5	213	4
2023-08-27T18:00	18268	76	-54.3	-83.6	212	4
2023-08-27T18:00	18288	76	-54.4	-83.7	211	5
2023-08-27T18:00	18307	76	-54.3	-83.6	210	5
2023-08-27T18:00	18329	75	-54.3	-83.6	211	5
2023-08-27T18:00	18348	75	-54.4	-83.7	214	5
2023-08-27T18:00	18370	75	-54.5	-83.8	218	6
2023-08-27T18:00	18393	75	-54.6	-83.9	221	6
2023-08-27T18:00	18413	74	-54.6	-83.9	222	6
2023-08-27T18:00	18437	74	-54.5	-83.8	220	6
2023-08-27T18:00	18454	74	-54.2	-83.6	216	7
2023-08-27T18:00	18478	74	-53.9	-83.8	212	7
2023-08-27T18:00	18504	73	-53.9	-83.8	208	8
2023-08-27T18:00	18526	73	-54.0	-83.4	205	8
2023-08-27T18:00	18550	73	-54.2	-83.6	203	9
2023-08-27T18:00	18574	72	-54.4	-83.7	202	9
2023-08-27T18:00	18599	72	-54.5	-83.8	202	10
2023-08-27T18:00	18615	72	-54.8	-84.0	203	10
2023-08-27T18:00	18642	72	-54.9	-84.1	205	11
2023-08-27T18:00	18666	71	-55.0	-84.2	208	11
2023-08-27T18:00	18687	71	-54.6	-83.9	211	11
2023-08-27T18:00	18704	71	-54.4	-83.7	215	10
2023-08-27T18:00	18730	71	-54.3	-83.6	219	10
2023-08-27T18:00	18757	70	-54.3	-84.1	223	9
2023-08-27T18:00	18776	70	-54.4	-84.2	228	9
2023-08-27T18:00	18798	70	-54.4	-84.2	232	8
2023-08-27T18:00	18820	70	-54.1	-84.0	236	8
2023-08-27T18:00	18844	69	-54.0	-83.9	239	7
2023-08-27T18:00	18867	69	-54.2	-83.6	243	6
2023-08-27T18:00	18886	69	-54.3	-83.6	247	6
2023-08-27T18:00	18911	69	-54.4	-83.7	252	6
2023-08-27T18:00	18932	69	-54.6	-83.9	258	5
2023-08-27T18:00	18956	68	-54.8	-84.0	264	5
2023-08-27T18:00	18978	68	-55.0	-83.7	272	5
2023-08-27T18:00	18996	68	-55.1	-83.8	279	5
2023-08-27T18:00	19021	68	-55.2	-83.9	286	5
2023-08-27T18:00	19038	67	-55.3	-84.0	292	5
2023-08-27T18:00	19066	67	-55.4	-84.0	298	5
2023-08-27T18:00	19089	67	-55.4	-84.0	303	5
2023-08-27T18:00	19112	67	-55.5	-84.1	307	5
2023-08-27T18:00	19131	66	-55.7	-84.3	312	5
2023-08-27T18:00	19152	66	-55.7	-84.3	316	5
2023-08-27T18:00	19171	66	-55.8	-84.3	320	4
2023-08-27T18:00	19193	66	-56.0	-84.5	323	4
2023-08-27T18:00	19216	66	-56.2	-84.6	327	3
2023-08-27T18:00	19238	65	-56.3	-84.7	329	3
2023-08-27T18:00	19257	65	-56.4	-84.8	327	2
2023-08-27T18:00	19277	65	-56.4	-84.8	318	1
2023-08-27T18:00	19296	65	-56.4	-84.8	294	1
2023-08-27T18:00	19319	64	-56.5	-84.9	260	1
2023-08-27T18:00	19340	64	-56.4	-84.8	242	1
2023-08-27T18:00	19358	64	-56.2	-85.1	236	1
2023-08-27T18:00	19380	64	-56.0	-84.9	234	2
2023-08-27T18:00	19400	64	-55.7	-84.7	233	2
2023-08-27T18:00	19423	63	-55.7	-84.7	233	3
2023-08-27T18:00	19442	63	-55.4	-84.5	232	3
2023-08-27T18:00	19462	63	-55.4	-84.5	232	4
2023-08-27T18:00	19484	63	-55.5	-84.5	231	5
2023-08-27T18:00	19508	63	-55.6	-84.6	229	5
2023-08-27T18:00	19526	62	-55.7	-84.3	228	6
2023-08-27T18:00	19549	62	-55.9	-83.6	227	6
2023-08-27T18:00	19570	62	-55.9	-83.3	227	6
2023-08-27T18:00	19584	62	-56.0	-82.7	229	6
2023-08-27T18:00	19607	62	-55.8	-82.5	232	5
2023-08-27T18:00	19627	61	-55.5	-82.3	236	4
2023-08-27T18:00	19648	61	-55.4	-82.6	242	3
2023-08-27T18:00	19671	61	-55.4	-82.9	248	2
2023-08-27T18:00	19694	61	-55.1	-83.4	253	1
2023-08-27T18:00	19713	61	-55.1	-83.8	259	0
2023-08-27T18:00	19733	60	-55.2	-83.9	94	0
2023-08-27T18:00	19755	60	-55.3	-84.4	101	1
2023-08-27T18:00	19779	60	-55.3	-84.4	112	1
2023-08-27T18:00	19799	60	-55.1	-84.2	126	2
2023-08-27T18:00	19821	60	-55.0	-84.2	139	2
2023-08-27T18:00	19847	59	-55.0	-84.6	151	3
2023-08-27T18:00	19864	59	-54.9	-84.6	162	3
2023-08-27T18:00	19890	59	-54.9	-84.6	173	3
2023-08-27T18:00	19907	59	-54.9	-84.6	182	4
2023-08-27T18:00	19929	59	-54.9	-84.6	190	4
2023-08-27T18:00	19948	58	-54.8	-84.5	199	4
2023-08-27T18:00	19971	58	-54.5	-84.3	207	4
2023-08-27T18:00	19995	58	-54.3	-84.1	215	4
2023-08-27T18:00	20014	58	-54.3	-84.1	222	4
2023-08-27T18:00	20037	58	-54.3	-84.1	227	4
2023-08-27T18:00	20056	57	-54.3	-84.1	230	4
2023-08-27T18:00	20080	57	-54.2	-84.0	229	3
2023-08-27T18:00	20097	57	-54.0	-83.9	225	2
2023-08-27T18:00	20123	57	-53.7	-83.7	213	2
2023-08-27T18:00	20142	57	-53.7	-83.7	189	1
2023-08-27T18:00	20168	56	-53.9	-83.8	159	1
2023-08-27T18:00	20191	56	-53.9	-83.8	144	1
2023-08-27T18:00	20207	56	-53.9	-83.8	150	1
2023-08-27T18:00	20231	56	-53.7	-83.7	183	1
2023-08-27T18:00	20253	56	-53.3		214	1
2023-08-27T18:00	20267	56	-53.1	-83.7	230	2
2023-08-27T18:00	20291	55	-53.1	-83.7	241	3
2023-08-27T18:00	20311	55	-53.1	-83.7	252	3
2023-08-27T18:00	20331	55	-52.9	-83.6	264	3
2023-08-27T18:00	20356	55	-52.7	-83.4	275	4
2023-08-27T18:00	20373	55	-52.5	-83.3	284	4
2023-08-27T18:00	20391	55	-52.5	-83.3	291	5
2023-08-27T18:00	20416	54	-52.6	-83.3	297	5
2023-08-27T18:00	20440	54	-52.7	-83.4	303	4
2023-08-27T18:00	20457	54	-52.7	-83.4	310	4
2023-08-27T18:00	20482	54	-52.5	-83.3	317	4
2023-08-27T18:00	20502	54	-52.4	-83.2	324	4
2023-08-27T18:00	20522	53	-52.5	-83.3	331	3
2023-08-27T18:00	20547	53	-52.5	-83.3	339	3
2023-08-27T18:00	20568	53	-52.6	-83.3	350	2
2023-08-27T18:00	20588	53	-52.7	-83.4	9	2
2023-08-27T18:00	20615	53	-52.8	-83.0	34	2
2023-08-27T18:00	20634	53	-53.0	-83.1	57	2
2023-08-27T18:00	20659	52	-53.2	-83.3	71	3
2023-08-27T18:00	20680	52	-53.2	-83.3	80	4
2023-08-27T18:00	20705	52	-53.0	-83.1	86	4
2023-08-27T18:00	20731	52	-53.1	-83.2	92	5
2023-08-27T18:00	20750	52	-53.2	-83.3	97	5
2023-08-27T18:00	20774	51	-53.4	-83.4	102	6
2023-08-27T18:00	20796	51	-53.6	-83.6	108	6
2023-08-27T18:00	20820	51	-53.7	-83.7	113	6
2023-08-27T18:00	20843	51	-53.8	-83.7	119	7
2023-08-27T18:00	20867	51	-53.6	-83.6	124	7
2023-08-27T18:00	20890	50	-53.7	-83.7	129	7
2023-08-27T18:00	20911	50	-53.7	-83.7	135	7
2023-08-27T18:00	20936	50	-53.9	-83.8	141	6
2023-08-27T18:00	20960	50	-53.9	-83.8	147	6
2023-08-27T18:00	20984	50	-53.7	-83.7	154	5
2023-08-27T18:00	21010	50	-53.7	-83.7	161	5
2023-08-27T18:00	21037	49	-53.7	-83.7	168	5
2023-08-27T18:00	21057	49	-53.8	-83.7	176	5
2023-08-27T18:00	21084	49	-53.9	-83.8	184	5
2023-08-27T18:00	21105	49	-53.9	-83.8	191	5
2023-08-27T18:00	21130	49	-53.9	-83.8	198	5
2023-08-27T18:00	21157	48	-54.0	-83.9	206	5
2023-08-27T18:00	21185	48	-54.0	-83.9	215	4
2023-08-27T18:00	21201	48	-54.1	-84.0	224	4
2023-08-27T18:00	21229	48	-54.2	-84.0	234	4
2023-08-27T18:00	21254	48	-54.3	-84.1	245	4
2023-08-27T18:00	21276	48	-54.4	-84.2	256	5
2023-08-27T18:00	21301	47	-54.4	-84.2	266	5
2023-08-27T18:00	21326	47	-54.5	-84.3	275	5
2023-08-27T18:00	21347	47	-54.5	-84.3	282	5
2023-08-27T18:00	21374	47	-54.5	-84.3	288	5
2023-08-27T18:00	21392	47	-54.4	-84.2	294	5
2023-08-27T18:00	21419	47	-54.3	-84.1	301	5
2023-08-27T18:00	21444	46	-54.4	-84.2	307	4
2023-08-27T18:00	21469	46	-54.4	-84.2	314	4
2023-08-27T18:00	21489	46	-54.4	-84.2	320	3
2023-08-27T18:00	21511	46	-54.3	-84.1	326	3
2023-08-27T18:00	21530	46	-54.2	-84.0	335	2
2023-08-27T18:00	21556	46	-54.3	-84.1	355	1
2023-08-27T18:00	21577	45	-54.3	-84.1	53	1
2023-08-27T18:00	21597	45	-54.3	-84.1	100	1
2023-08-27T18:00	21619	45	-54.4	-84.2	117	2
2023-08-27T18:00	21636	45	-54.5	-84.3	125	2
2023-08-27T18:00	21660	45	-54.5	-84.3	131	3
2023-08-27T18:00	21684	45	-54.6	-84.3	136	3
2023-08-27T18:00	21707	44	-54.7	-84.4	144	4
2023-08-27T18:00	21726	44	-54.9	-84.6	153	4
2023-08-27T18:00	21751	44	-55.0	-84.6	166	4
2023-08-27T18:00	21769	44	-54.8	-84.5	180	4
2023-08-27T18:00	21792	44	-54.7	-84.4	192	4
2023-08-27T18:00	21815	44	-54.6	-84.3	202	5
2023-08-27T18:00	21835	44	-54.6	-84.3	209	5
2023-08-27T18:00	21859	43	-54.6	-84.3	215	5
2023-08-27T18:00	21878	43	-54.6	-84.3	220	5
2023-08-27T18:00	21898	43	-54.6	-84.3	225	4
2023-08-27T18:00	21922	43	-54.5	-84.3	231	4
2023-08-27T18:00	21945	43	-54.4	-84.2	238	3
2023-08-27T18:00	21967	43	-54.4	-84.2	246	3
2023-08-27T18:00	21987	43	-54.4	-84.2	255	3
2023-08-27T18:00	22012	42	-54.4	-84.2	266	2
2023-08-27T18:00	22037	42	-54.2	-84.0	278	2
2023-08-27T18:00	22055	42	-54.2	-84.0	290	2
2023-08-27T18:00	22074	42	-54.3	-84.1	300	2
2023-08-27T18:00	22101	42	-54.4	-84.2	305	2
2023-08-27T18:00	22126	42	-54.4	-84.2	305	1
2023-08-27T18:00	22151	41	-54.4	-84.2	298	1
2023-08-27T18:00	22171	41	-54.4	-84.2	277	1
2023-08-27T18:00	22196	41	-54.3	-84.1	241	1
2023-08-27T18:00	22220	41	-54.2	-84.0	206	0
2023-08-27T18:00	22246	41	-54.1	-84.0	180	0
2023-08-27T18:00	22261	41	-54.0	-84.4	154	0
2023-08-27T18:00	22288	41	-54.0	-84.4	135	0
2023-08-27T18:00	22316	40	-54.0	-84.4	128	1
2023-08-27T18:00	22339	40	-54.0	-84.4	130	1
2023-08-27T18:00	22363	40	-54.1	-84.5	135	1
2023-08-27T18:00	22391	40	-54.1	-84.5	141	1
2023-08-27T18:00	22409	40	-54.1	-84.5	148	1
2023-08-27T18:00	22439	40	-54.1	-84.5	156	2
2023-08-27T18:00	22462	40	-54.0	-84.4	162	2
2023-08-27T18:00	22484	39	-53.9	-84.3	166	2
2023-08-27T18:00	22513	39	-53.9	-84.3	166	2
2023-08-27T18:00	22538	39	-53.8	-84.2	160	2
2023-08-27T18:00	22557	39	-53.8	-84.2	149	1
2023-08-27T18:00	22584	39	-53.7	-84.2	136	1
2023-08-27T18:00	22609	39	-53.8	-84.2	127	2
2023-08-27T18:00	22642	38	-53.7	-84.2	125	2
2023-08-27T18:00	22657	38	-53.7	-84.2	130	2
2023-08-27T18:00	22683	38	-53.7	-84.2	139	2
2023-08-27T18:00	22707	38	-53.5	-84.0	147	2
2023-08-27T18:00	22730	38	-53.3	-84.4	152	2
2023-08-27T18:00	22753	38	-53.2	-84.4	153	2
2023-08-27T18:00	22771	38	-53.3	-84.4	153	3
2023-08-27T18:00	22798	38	-53.2	-84.4	151	3
2023-08-27T18:00	22815	37	-53.2	-84.4	151	3
2023-08-27T18:00	22844	37	-53.0	-84.2	152	3
2023-08-27T18:00	22865	37	-53.0	-84.2	155	3
2023-08-27T18:00	22887	37	-53.0	-84.2	159	3
2023-08-27T18:00	22911	37	-52.8	-84.1	164	3
2023-08-27T18:00	22929	37	-52.7	-84.0	168	3
2023-08-27T18:00	22951	37	-52.8	-84.1	172	3
2023-08-27T18:00	22971	36	-52.8	-84.1	174	3
2023-08-27T18:00	22991	36	-52.6	-83.9	173	3
2023-08-27T18:00	23018	36	-52.4	-83.8	172	3
2023-08-27T18:00	23036	36	-52.3	-83.7	172	3
2023-08-27T18:00	23064	36	-52.2	-83.6	175	3
2023-08-27T18:00	23083	36	-52.0	-84.1	181	3
2023-08-27T18:00	23105	36	-52.0	-84.1	191	3
2023-08-27T18:00	23125	36	-51.9	-84.0	201	3
2023-08-27T18:00	23142	36	-51.9	-84.0	211	3
2023-08-27T18:00	23166	35	-51.9	-84.0	219	3
2023-08-27T18:00	23189	35	-51.9	-83.4	225	3
2023-08-27T18:00	23214	35	-52.0	-83.5	231	3
2023-08-27T18:00	23241	35	-51.9	-83.4	236	3
2023-08-27T18:00	23256	35	-51.7	-83.2	240	3
2023-08-27T18:00	23278	35	-51.6	-83.8	242	3
2023-08-27T18:00	23297	35	-51.6	-83.8	242	3
2023-08-27T18:00	23318	35	-51.5	-83.7	242	2
2023-08-27T18:00	23345	34	-51.7	-83.2	239	2
2023-08-27T18:00	23369	34	-51.8	-83.3	235	2
2023-08-27T18:00	23389	34	-51.9	-83.4	226	1
2023-08-27T18:00	23411	34	-52.0	-83.5	214	1
2023-08-27T18:00	23424	34	-52.1	-83.5	206	2
2023-08-27T18:00	23451	34	-52.3	-83.7	204	2
2023-08-27T18:00	23472	34	-52.4	-83.8	208	3
2023-08-27T18:00	23495	34	-52.4	-83.8	214	3
2023-08-27T18:00	23520	34	-52.3	-83.7	221	4
2023-08-27T18:00	23537	33	-52.2	-83.6	226	4
2023-08-27T18:00	23563	33	-52.1	-84.2	231	5
2023-08-27T18:00	23587	33	-52.1	-84.2	234	5
2023-08-27T18:00	23609	33	-51.9	-84.0	238	5
2023-08-27T18:00	23636	33	-51.7	-83.9	241	4
2023-08-27T18:00	23660	33	-51.7	-83.9	244	4
2023-08-27T18:00	23683	33	-51.6	-83.8	247	4
2023-08-27T18:00	23710	33	-51.5	-83.7	249	4
2023-08-27T18:00	23732	32	-51.5	-83.7	251	4
2023-08-27T18:00	23756	32	-51.7	-83.9	253	4
2023-08-27T18:00	23781	32	-51.8	-83.9	256	4
2023-08-27T18:00	23805	32	-51.8	-83.9	258	4
2023-08-27T18:00	23830	32	-51.8	-83.9	260	4
2023-08-27T18:00	23855	32	-52.1	-84.2	259	4
2023-08-27T18:00	23875	32	-52.1	-83.5	256	4
2023-08-27T18:00	23902	32	-52.2	-83.6	252	3
2023-08-27T18:00	23922	32	-52.2	-83.6	246	3
2023-08-27T18:00	23953	31	-52.2	-83.6	241	3
2023-08-27T18:00	23980	31	-52.4	-83.8	237	3
2023-08-27T18:00	23999	31	-52.5	-83.8	235	3
2023-08-27T18:00	24025	31	-52.7	-84.0	236	3
2023-08-27T18:00	24048	31	-52.8	-84.1	240	3
2023-08-27T18:00	24072	31	-52.7	-84.0	245	3
2023-08-27T18:00	24099	31	-52.6	-84.5	252	3
2023-08-27T18:00	24120	31	-52.3	-84.3	260	3
2023-08-27T18:00	24144	30	-52.1	-84.2	269	3
2023-08-27T18:00	24167	30	-52.2	-84.2	276	3
2023-08-27T18:00	24190	30	-52.2	-84.2	282	3
2023-08-27T18:00	24215	30	-52.2	-84.2	286	3
2023-08-27T18:00	24244	30	-52.1	-84.2	288	2
2023-08-27T18:00	24260	30	-52.0	-84.1	291	2
2023-08-27T18:00	24286	30	-51.9	-84.0	294	1
2023-08-27T18:00	24314	30	-51.9	-84.0	298	1
2023-08-27T18:00	24333	30	-51.8	-83.9	298	1
2023-08-27T18:00	24359	29	-51.9	-84.0	289	1
2023-08-27T18:00	24371	29	-51.8	-83.9	276	1
2023-08-27T18:00	24403	29	-51.7	-83.9	268	1
2023-08-27T18:00	24429	29	-51.7	-83.9	263	2
2023-08-27T18:00	24450	29	-51.6	-83.8	260	2
2023-08-27T18:00	24469	29	-51.4	-84.3	258	2
2023-08-27T18:00	24503	29	-51.3	-84.3	254	2
2023-08-27T18:00	24517	29	-51.3	-84.3	249	2
2023-08-27T18:00	24546	29	-51.1	-84.1	246	2
2023-08-27T18:00	24567	29	-51.0	-84.0	244	2
2023-08-27T18:00	24594	28	-50.9	-84.0	243	3
2023-08-27T18:00	24617	28	-50.8	-83.9	242	3
2023-08-27T18:00	24644	28	-50.9	-84.0	241	4
2023-08-27T18:00	24674	28	-50.9	-84.0	242	4
2023-08-27T18:00	24694	28	-50.9	-84.0	243	4
2023-08-27T18:00	24719	28	-50.9	-84.0	245	5
2023-08-27T18:00	24741	28	-50.8	-83.9	248	5
2023-08-27T18:00	24777	28	-50.8	-83.9	251	5
2023-08-27T18:00	24794	28	-50.9	-84.0	253	6
2023-08-27T18:00	24823	27	-51.0	-83.3	255	6
2023-08-27T18:00	24848	27	-51.2	-83.5	256	6
2023-08-27T18:00	24873	27	-51.4	-83.6	258	6
2023-08-27T18:00	24899	27	-51.3	-83.6	261	6
2023-08-27T18:00	24932	27	-51.2	-83.5	264	6
2023-08-27T18:00	24948	27	-51.2	-84.2	269	6
2023-08-27T18:00	24976	27	-51.3	-84.3	274	6
2023-08-27T18:00	25009	27	-51.2	-84.2	281	6
2023-08-27T18:00	25033	27	-51.1	-84.1	287	6
2023-08-27T18:00	25056	26	-51.1	-84.1	292	6
2023-08-27T18:00	25083	26	-51.1	-84.1	295	6
2023-08-27T18:00	25111	26	-51.0	-84.0	295	5
2023-08-27T18:00	25133	26	-50.7	-83.8	291	5
2023-08-27T18:00	25165	26	-50.5	-83.7	286	5
2023-08-27T18:00	25184	26	-50.3	-83.5	281	5
2023-08-27T18:00	25221	26	-50.2	-83.5	281	4
2023-08-27T18:00	25230	26	-50.1	-83.4	284	4
2023-08-27T18:00	25264	26	-49.8	-83.2	290	4
2023-08-27T18:00	25291	26	-49.7	-83.9	296	4
2023-08-27T18:00	25312	25	-49.7	-83.9	301	4
2023-08-27T18:00	25340	25	-49.8	-84.0	305	4
2023-08-27T18:00	25357	25	-49.3	-83.6	308	4
2023-08-27T18:00	25397	25	-49.1	-83.4	312	3
2023-08-27T18:00	25424	25	-48.7	-83.2	318	3
2023-08-27T18:00	25450	25	-48.5	-83.0	328	2
2023-08-27T18:00	25469	25	-48.4	-82.9	339	2
2023-08-27T18:00	25495	25	-48.4	-82.9	347	2
2023-08-27T18:00	25529	25	-48.4	-82.9	350	2
2023-08-27T18:00	25552	25	-48.5	-83.0	347	2
2023-08-27T18:00	25586	24	-48.7	-83.2	339	2
2023-08-27T18:00	25601	24	-48.8	-83.2	328	2
2023-08-27T18:00	25632	24	-48.9	-83.3	316	2
2023-08-27T18:00	25657	24	-48.8	-83.2	306	3
2023-08-27T18:00	25678	24	-48.8	-83.2	302	3
2023-08-27T18:00	25703	24	-48.8	-83.2	303	3
2023-08-27T18:00	25723	24	-48.8	-83.2	306	4
2023-08-27T18:00	25767	24	-48.9	-83.3	311	4
2023-08-27T18:00	25782	24	-48.8	-83.2	315	5
2023-08-27T18:00	25810	24	-48.8	-83.2	319	5
2023-08-27T18:00	25832	24	-48.7	-83.2	323	5
2023-08-27T18:00	25859	23	-48.5	-83.0	326	5
2023-08-27T18:00	25872	23	-48.4	-82.9	330	5
2023-08-27T18:00	25904	23	-48.2	-82.8	333	5
2023-08-27T18:00	25926	23	-48.3	-82.9	336	4
2023-08-27T18:00	25946	23	-48.5	-83.0	337	4
2023-08-27T18:00	25977	23	-48.6	-83.1	337	3
2023-08-27T18:00	25993	23	-48.6	-83.1	333	2
2023-08-27T18:00	26022	23	-48.4	-82.9	323	1
2023-08-27T18:00	26044	23	-48.1	-82.7	288	1
2023-08-27T18:00	26061	23	-48.0	-82.7	226	1
2023-08-27T18:00	26086	23	-47.9	-82.6	195	1
2023-08-27T18:00	26116	23	-47.8	-82.5	178	1
2023-08-27T18:00	26137	22	-47.7	-82.4	166	1
2023-08-27T18:00	26151	22	-47.6	-82.4	158	1
2023-08-27T18:00	26181	22	-47.7	-82.4	157	1
2023-08-27T18:00	26211	22	-47.8	-82.5	165	1
2023-08-27T18:00	26226	22	-47.7	-82.4	181	1
2023-08-27T18:00	26252	22	-47.9	-82.6	202	1
2023-08-27T18:00	26270	22	-48.0	-82.7	224	1
2023-08-27T18:00	26297	22	-48.0	-82.7	242	2
2023-08-27T18:00	26313	22	-47.9	-82.6	254	2
2023-08-27T18:00	26339	22	-48.0	-82.7	262	3
2023-08-27T18:00	26363	22	-48.1	-82.7	268	3
2023-08-27T18:00	26393	22	-48.2	-82.8	273	3
2023-08-27T18:00	26418	22	-48.0	-82.7	276	3
2023-08-27T18:00	26442	21	-47.9	-82.6	278	4
2023-08-27T18:00	26460	21	-47.8	-82.5	278	4
2023-08-27T18:00	26491	21	-47.7	-83.4	278	4
2023-08-27T18:00	26511	21	-47.7	-83.4	279	5
2023-08-27T18:00	26539	21	-47.8	-82.5	279	5
2023-08-27T18:00	26567	21	-47.8	-82.5	279	5
2023-08-27T18:00	26594	21	-48.0	-82.7	280	6
2023-08-27T18:00	26617	21	-47.9	-82.6	281	6
2023-08-27T18:00	26648	21	-47.9	-82.6	284	5
2023-08-27T18:00	26669	21	-48.0	-82.7	287	5
2023-08-27T18:00	26697	21	-48.2	-82.8	292	5
2023-08-27T18:00	26720	21	-48.2	-82.8	296	4
2023-08-27T18:00	26746	20	-48.3	-82.9	298	4
2023-08-27T18:00	26780	20	-48.5	-83.0	299	3
2023-08-27T18:00	26800	20	-48.6	-83.1	299	3
2023-08-27T18:00	26837	20	-48.7	-83.2	298	3
2023-08-27T18:00	26854	20	-48.8	-83.2	298	2
2023-08-27T18:00	26881	20	-48.8	-83.2	301	2
2023-08-27T18:00	26924	20	-48.8	-83.2	310	1
2023-08-27T18:00	26944	20	-48.8	-83.2	323	1
2023-08-27T18:00	26974	20	-48.7	-83.2	343	1
2023-08-27T18:00	26996	20	-48.6	-83.1	5	1
2023-08-27T18:00	27029	20	-48.8	-83.2	24	1
2023-08-27T18:00	27054	20	-48.8	-83.2	34	1
2023-08-27T18:00	27073	19	-48.8	-83.2	26	0
2023-08-27T18:00	27103	19	-48.7	-83.2	341	0
2023-08-27T18:00	27134	19	-48.6	-83.1	315	1
2023-08-27T18:00	27151	19	-48.6		312	1
2023-08-27T18:00	27186	19	-48.4	-83.8	312	2
2023-08-27T18:00	27201	19	-48.1	-83.6	312	2
2023-08-27T18:00	27246	19	-48.0	-83.6	308	2
2023-08-27T18:00	27263	19	-47.8	-83.4	296	2
2023-08-27T18:00	27295	19	-47.5	-83.2	273	1
2023-08-27T18:00	27306	19	-47.4	-83.1	245	2
2023-08-27T18:00	27345	19	-47.5	-83.2	229	2
2023-08-27T18:00	27359	19	-47.5	-83.2	225	2
2023-08-27T18:00	27387	19	-47.3	-83.1	229	2
2023-08-27T18:00	27415	19	-46.8	-82.7	236	2
2023-08-27T18:00	27441	18	-46.6	-82.6	247	2
2023-08-27T18:00	27469	18	-46.5	-82.5	258	2
2023-08-27T18:00	27491	18	-46.6	-82.6	269	2
2023-08-27T18:00	27507	18	-46.4	-82.4	277	3
2023-08-27T18:00	27535	18	-46.3	-82.4	281	3
2023-08-27T18:00	27570	18	-46.1	-82.2	283	3
2023-08-27T18:00	27582	18	-45.9	-82.1	283	4
2023-08-27T18:00	27609	18	-45.9	-82.1	282	5
2023-08-27T18:00	27631	18	-45.8	-82.0	281	5
2023-08-27T18:00	27655	18	-46.0	-82.1	281	5
2023-08-27T18:00	27678	18	-46.0	-82.1	280	5
2023-08-27T18:00	27694	18	-45.9	-82.1	280	5
2023-08-27T18:00	27717	18	-46.0	-82.1	279	5
2023-08-27T18:00	27742	18	-46.1	-82.2	280	5
2023-08-27T18:00	27762	18	-46.0	-82.1	283	5
2023-08-27T18:00	27790	18	-45.8	-82.0	287	5
2023-08-27T18:00	27806	17	-45.7	-81.9	294	5
2023-08-27T18:00	27842	17	-45.5	-81.8	299	5
2023-08-27T18:00	27857	17	-45.2	-82.7	303	5
2023-08-27T18:00	27880	17	-44.9	-82.5	305	5
2023-08-27T18:00	27903	17	-44.7	-82.3	305	6
2023-08-27T18:00	27931	17	-44.5	-82.2	304	6
2023-08-27T18:00	27950	17	-44.4	-82.1	304	6
2023-08-27T18:00	27981	17	-44.5	-82.2	304	6
2023-08-27T18:00	28009	17	-44.3	-82.0	304	6
2023-08-27T18:00	28020	17	-44.4	-82.1	305	6
2023-08-27T18:00	28042	17	-44.2	-82.0	308	6
2023-08-27T18:00	28064	17	-43.9	-81.8	312	6
2023-08-27T18:00	28099	17	-43.8	-81.7	317	6
2023-08-27T18:00	28117	17	-43.8	-81.7	324	6
2023-08-27T18:00	28148	17	-43.5	-81.5	330	7
2023-08-27T18:00	28177	17	-43.3	-81.3	335	7
2023-08-27T18:00	28194	16	-43.3	-81.3	339	7
2023-08-27T18:00	28213	16	-43.2	-81.3	342	7
2023-08-27T18:00	28254	16	-43.0	-81.1	344	7
2023-08-27T18:00	28268	16	-42.9	-81.1	346	6
2023-08-27T18:00	28302	16	-43.0	-81.1	347	6
2023-08-27T18:00	28326	16	-43.0	-81.1	348	6
2023-08-27T18:00	28367	16	-42.9	-81.1	348	6
2023-08-27T18:00	28382	16	-42.8	-81.0	348	6
2023-08-27T18:00	28408	16	-42.7	-80.9	348	6
2023-08-27T18:00	28443	16	-42.5	-80.8	346	6
2023-08-27T18:00	28467	16	-42.5	-80.8	344	6
2023-08-27T18:00	28493	16	-42.6	-80.8	342	6
2023-08-27T18:00	28515	16	-42.3	-80.6	341	6
2023-08-27T18:00	28554	16	-42.2	-80.6	341	7
2023-08-27T18:00	28579	16	-42.1	-80.5	342	7
2023-08-27T18:00	28589	16	-42.1	-80.5	343	8
2023-08-27T18:00	28641	15	-42.0	-80.4	344	8
2023-08-27T18:00	28661	15	-42.0	-80.4	346	8
2023-08-27T18:00	28686	15	-41.9	-80.4	347	7
2023-08-27T18:00	28713	15	-42.0	-80.4	349	7
2023-08-27T18:00	28742	15	-41.8	-80.3	353	6
2023-08-27T18:00	28771	15	-41.6	-80.1	358	6
2023-08-27T18:00	28780	15	-41.7	-80.2	5	5
2023-08-27T18:00	28828	15	-41.8	-80.3	13	5
2023-08-27T18:00	28854	15	-41.7	-80.2	22	5
2023-08-27T18:00	28888	15	-41.8	-80.3	29	5
2023-08-27T18:00	28908	15	-41.9	-80.4	34	6
2023-08-27T18:00	28927	15	-42.1	-80.5	39	6
2023-08-27T18:00	28969	15	-42.2	-80.6	42	5
2023-08-27T18:00	28995	15	-42.0	-80.4	47	5
2023-08-27T18:00	29024	15	-42.1	-80.5	53	5
2023-08-27T18:00	29042	15	-42.1	-80.5	61	5
2023-08-27T18:00	29062	14	-42.0	-80.4	69	4
2023-08-27T18:00	29088	14	-41.9	-80.4	77	4
2023-08-27T18:00	29132	14	-41.9	-80.4	83	4
2023-08-27T18:00	29146	14	-41.6	-80.1	89	4
2023-08-27T18:00	29163	14	-41.6	-80.1	95	4
2023-08-27T18:00	29209	14	-41.4	-80.0	102	4
2023-08-27T18:00	29220	14	-41.3	-79.9	109	4
2023-08-27T18:00	29252	14	-41.3	-79.9	116	4
2023-08-27T18:00	29274	14	-41.2	-79.9	123	4
2023-08-27T18:00	29320	14	-40.8	-79.6	128	4
2023-08-27T18:00	29348	14	-40.2	-79.2	130	3
2023-08-27T18:00	29385	14	-40.2	-79.2	128	3
2023-08-27T18:00	29406	14	-40.2	-79.2	124	2
2023-08-27T18:00	29420	14	-40.2	-79.2	117	2
2023-08-27T18:00	29443	14	-40.1	-79.1	106	1
2023-08-27T18:00	29462	14	-39.9	-79.0	86	1
2023-08-27T18:00	29482	14	-39.8	-78.9	53	1
2023-08-27T18:00	29529	14	-39.8	-78.9	4	1
2023-08-27T18:00	29554	13	-39.8	-78.9	328	1
2023-08-27T18:00	29564	13	-39.9	-79.0	308	1
2023-08-27T18:00	29600	13	-40.0	-79.0	295	2
2023-08-27T18:00	29624	13	-40.1	-79.1	289	2
2023-08-27T18:00	29655	13	-40.2	-79.2	286	3
2023-08-27T18:00	29678	13	-40.3	-79.2	285	4
2023-08-27T18:00	29706	13	-40.5	-79.4	288	4
2023-08-27T18:00	29725	13	-40.6	-79.5	291	5
2023-08-27T18:00	29755	13	-40.7	-79.5	294	5
2023-08-27T18:00	29783	13	-40.6	-79.5	299	6
2023-08-27T18:00	29789	13	-40.5	-79.4	303	6
2023-08-27T18:00	29840	13	-40.3	-79.2	308	6
2023-08-27T18:00	29852	13	-40.4	-79.3	314	7
2023-08-27T18:00	29878	13	-40.4	-79.3	320	7
2023-08-27T18:00	29909	13	-40.4	-79.3	325	7
2023-08-27T18:00	29934	13	-40.4	-79.3	331	7
2023-08-27T18:00	29952	13	-40.4	-79.3	336	7
2023-08-27T18:00	29978	13	-40.3	-79.2	341	7
2023-08-27T18:00	30023	13	-40.3	-79.2	346	7
2023-08-27T18:00	30048	13	-40.3	-79.2	351	7
2023-08-27T18:00	30058	13	-40.2	-79.2	356	7
2023-08-27T18:00	30101	12	-40.3	-79.2	2	7
2023-08-27T18:00	30137	12	-40.2	-79.2	17	7
2023-08-27T18:00	30153	12	-39.9	-79.0	24	7
2023-08-27T18:00	30167	12	-39.8	-78.9	30	7
2023-08-27T18:00	30224	12	-39.7	-78.8	35	6
2023-08-27T18:00	30237	12	-39.7	-78.8	39	6
2023-08-27T18:00	30261	12	-39.7	-78.8	44	5
2023-08-27T18:00	30295	12	-39.7	-78.8	50	4
2023-08-27T18:00	30319	12	-39.6	-78.8	57	4
2023-08-27T18:00	30325	12	-39.4	-78.6	62	3
2023-08-27T18:00	30375	12	-39.2	-78.5	64	3
2023-08-27T18:00	30396	12	-39.2	-78.5	62	3
2023-08-27T18:00	30416	12	-38.9	-78.3	57	3
2023-08-27T18:00	30443	12	-38.7	-78.1	55	3
2023-08-27T18:00	30481	12	-38.7	-78.1	56	3
2023-08-27T18:00	30499	12	-38.6	-78.1	60	4
2023-08-27T18:00	30530	12	-38.5	-78.0	65	4
2023-08-27T18:00	30550	12	-38.6	-78.1	70	5
2023-08-27T18:00	30580	12	-38.5	-78.0	74	5
2023-08-27T18:00	30609	12	-38.5	-78.0	78	6
2023-08-27T18:00	30634	12	-38.4	-77.9	83	6
2023-08-27T18:00	30646	11	-38.3	-77.9	88	6
2023-08-27T18:00	30679	11	-38.3	-77.9	93	6
2023-08-27T18:00	30702	11	-38.4	-77.9	99	5
2023-08-27T18:00	30720	11	-38.7	-78.1	103	5
2023-08-27T18:00	30765	11	-38.8	-78.2	107	5
2023-08-27T18:00	30782	11	-38.8	-78.2	109	5
2023-08-27T18:00	30798	11	-38.6	-78.1	112	4
2023-08-27T18:00	30840	11	-38.5	-78.0	114	4
2023-08-27T18:00	30849	11	-38.6	-78.1	116	4
2023-08-27T18:00	30868	11	-38.7	-78.1	118	3
2023-08-27T18:00	30897	11	-38.7	-78.1	120	3
2023-08-27T18:00	30940	11	-38.8	-78.2	123	2
2023-08-27T18:00	30955	11	-39.0	-78.3	125	2
2023-08-27T18:00	30979	11	-39.1	-78.4	126	3
2023-08-27T18:00	31033	11	-39.0	-78.3	125	4
2023-08-27T18:00	31048	11	-39.0	-78.3	124	4
2023-08-27T18:00	31073	11	-39.1	-78.4	123	5
2023-08-27T18:00	31100	11	-39.1	-78.4	122	5
2023-08-27T18:00	31121	11	-39.1	-78.4	121	5
2023-08-27T18:00	31138	11	-39.1	-78.4	120	5
2023-08-27T18:00	31159	11	-39.0	-78.3	118	5
2023-08-27T18:00	31189	11	-38.8	-78.2	115	5
2023-08-27T18:00	31211	11	-38.6	-78.1	110	4
2023-08-27T18:00	31242	11	-38.3	-77.9	103	4
2023-08-27T18:00	31271	11	-38.1	-77.7	96	3
2023-08-27T18:00	31299	10	-37.9	-77.6	90	3
2023-08-27T18:00	31327	10	-37.7	-77.4	87	3
2023-08-27T18:00	31336	10	-37.7	-77.4	88	3
2023-08-27T18:00	31370	10	-37.7	-77.4	92	3
2023-08-27T18:00	31383	10	-37.6	-77.4	97	3
2023-08-28T00:00	116	996	15.6	15.4	229	2
2023-08-28T00:00	141	993	15.6	15.0	223	2
2023-08-28T00:00	169	990	15.6	14.6	223	4
2023-08-28T00:00	193	987	15.7	14.1	225	5
2023-08-28T00:00	219	984	15.7	13.7	229	6
2023-08-28T00:00	242	981	15.8	13.5	232	7
2023-08-28T00:00	266	979	15.8	13.0	237	8
2023-08-28T00:00	291	976	15.8	12.9	243	8
2023-08-28T00:00	319	973	15.7	12.6	250	8
2023-08-28T00:00	345	970	15.8	12.5	257	9
2023-08-28T00:00	369	967	15.7	12.5	264	9
2023-08-28T00:00	393	964	15.7	12.1	268	10
2023-08-28T00:00	418	961	15.7	11.1	271	10
2023-08-28T00:00	443	958	15.9	9.4	272	10
2023-08-28T00:00	468	956	15.9	9.8	271	10
2023-08-28T00:00	495	953	15.7	9.9	270	10
2023-08-28T00:00	519	950	15.6	9.5	267	10
2023-08-28T00:00	548	947	15.4	8.9	266	10
2023-08-28T00:00	570	944	15.3	8.6	266	10
2023-08-28T00:00	596	941	15.1	8.6	268	10
2023-08-28T00:00	620	939	14.9	8.9	272	11
2023-08-28T00:00	638	937	14.7	9.0	275	11
2023-08-28T00:00	657	935	14.6	9.1	277	11
2023-08-28T00:00	679	932	14.3	9.0	278	10
2023-08-28T00:00	708	929	14.1	9.1	277	10
2023-08-28T00:00	730	927	14.0	9.2	275	10
2023-08-28T00:00	752	924	14.0	8.9	273	10
2023-08-28T00:00	771	922	13.8	8.9	271	10
2023-08-28T00:00	789	920	13.7	8.6	270	10
2023-08-28T00:00	807	918	13.5	8.4	269	10
2023-08-28T00:00	830	916	13.4	7.5	268	10
2023-08-28T00:00	854	913	13.3	7.1	267	10
2023-08-28T00:00	882	910	13.1	6.4	264	10
2023-08-28T00:00	904	908	13.1	6.2	262	9
2023-08-28T00:00	924	905	13.0	7.0	261	9
2023-08-28T00:00	943	903	12.8	7.8	261	9
2023-08-28T00:00	966	901	12.8	6.3	262	9
2023-08-28T00:00	988	899	12.8	5.5	263	9
2023-08-28T00:00	1012	896	12.7	5.5	263	9
2023-08-28T00:00	1037	893	12.5	5.4	262	10
2023-08-28T00:00	1062	891	12.3	5.5	261	11
2023-08-28T00:00	1082	889	12.1	5.4	260	11
2023-08-28T00:00	1103	886	11.9	5.5	259	11
2023-08-28T00:00	1127	884	11.7	5.5	259	11
2023-08-28T00:00	1150	881	11.4	5.3	259	12
2023-08-28T00:00	1174	879	11.2	5.3	259	12
2023-08-28T00:00	1201	876	11.0	5.4	259	11
2023-08-28T00:00	1227	873	10.7	5.3	258	11
2023-08-28T00:00	1254	871	10.4	5.2	257	11
2023-08-28T00:00	1285	867	10.2	5.2	257	11
2023-08-28T00:00	1310	865	9.9	5.2	256	11
2023-08-28T00:00	1331	862	9.7	5.1	255	11
2023-08-28T00:00	1354	860	9.5	5.1	254	10
2023-08-28T00:00	1375	858	9.3	5.1	254	10
2023-08-28T00:00	1398	856	9.1	5.0	254	10
2023-08-28T00:00	1418	853	8.9	4.9	256	10
2023-08-28T00:00	1439	851	8.7	4.7	257	11
2023-08-28T00:00	1457	849	8.6	4.5	257	11
2023-08-28T00:00	1479	847	8.4	4.3	255	12
2023-08-28T00:00	1503	844	8.2	4.1	253	12
2023-08-28T00:00	1535	842	8.0	4.0	250	12
2023-08-28T00:00	1559	839	7.8	3.7	248	12
2023-08-28T00:00	1584	836	7.7	3.5	247	12
2023-08-28T00:00	1612	834	7.5	3.3	246	11
2023-08-28T00:00	1639	831	7.4	2.8	246	11
2023-08-28T00:00	1660	829	7.3	2.8	245	10
2023-08-28T00:00	1684	826	7.1	2.7	244	10
2023-08-28T00:00	1712	824	6.9	2.7	243	10
2023-08-28T00:00	1732	822	6.7	2.5	242	10
2023-08-28T00:00	1756	819	6.6	2.5	240	9
2023-08-28T00:00	1781	817	6.4	2.5	238	9
2023-08-28T00:00	1807	814	6.2	2.4	235	9
2023-08-28T00:00	1833	812	6.0	2.2	232	9
2023-08-28T00:00	1854	809	5.8	2.3	229	9
2023-08-28T00:00	1882	807	5.6	2.2	228	9
2023-08-28T00:00	1909	804	5.4	2.1	228	9
2023-08-28T00:00	1943	801	5.1	1.8	227	9
2023-08-28T00:00	1965	799	4.9		226	9
2023-08-28T00:00	1991	796	4.7	2.0	224	9
2023-08-28T00:00	2011	794	4.5	2.0	225	9
2023-08-28T00:00	2037	792	4.3	2.3	227	10
2023-08-28T00:00	2064	789	4.1	2.7	230	10
2023-08-28T00:00	2092	786	3.8	2.7	234	11
2023-08-28T00:00	2117	784	3.6	2.5	236	11
2023-08-28T00:00	2143	781	3.6	2.3	237	11
2023-08-28T00:00	2165	779	3.5	1.7	236	11
2023-08-28T00:00	2191	777	3.4	0.9	234	11
2023-08-28T00:00	2215	774	3.4	0.9	233	12
2023-08-28T00:00	2238	772	3.2	1.2	232	12
2023-08-28T00:00	2263	770	3.0	1.0	233	12
2023-08-28T00:00	2287	767	2.9	1.0	234	12
2023-08-28T00:00	2320	765	2.7	1.1	235	12
2023-08-28T00:00	2348	762	2.4	1.0	236	12
2023-08-28T00:00	2371	760	2.2	0.9	237	12
2023-08-28T00:00	2392	758	2.0	0.8	238	12
2023-08-28T00:00	2412	756	1.9	0.8	239	12
2023-08-28T00:00	2436	754	1.7	0.8	239	12
2023-08-28T00:00	2459	752	1.5	0.7	238	13
2023-08-28T00:00	2477	750	1.5	0.9	237	13
2023-08-28T00:00	2501	748	1.4	0.9	236	13
2023-08-28T00:00	2524	745	1.2	1.0	235	13
2023-08-28T00:00	2548	743	1.1	1.0	234	13
2023-08-28T00:00	2573	741	0.9	0.9	233	13
2023-08-28T00:00	2596	739	0.8	0.8	234	13
2023-08-28T00:00	2620	736	0.7	0.7	234	13
2023-08-28T00:00	2650	734	0.5	0.5	235	14
2023-08-28T00:00	2678	731	0.4	0.4	235	14
2023-08-28T00:00	2708	729	0.2	0.2	235	14
2023-08-28T00:00	2736	726	0.0	0.0	234	14
2023-08-28T00:00	2768	723	-0.2	-0.2	233	14
2023-08-28T00:00	2793	721	-0.3	-0.3	231	14
2023-08-28T00:00	2812	719	-0.5	-0.5	230	14
2023-08-28T00:00	2836	717	-0.6	-0.6	230	14
2023-08-28T00:00	2857	715	-0.8	-0.8	230	14
2023-08-28T00:00	2879	713	-0.9	-0.9	230	13
2023-08-28T00:00	2899	711	-1.1	-1.1	229	13
2023-08-28T00:00	2920	709	-1.3	-1.3	229	13
2023-08-28T00:00	2943	707	-1.5	-1.5	229	14
2023-08-28T00:00	2963	706	-1.6	-1.6	229	14
2023-08-28T00:00	2991	703	-1.8	-1.8	229	15
2023-08-28T00:00	3016	701	-1.9	-1.9	229	16
2023-08-28T00:00	3036	699	-1.9	-3.5	228	17
2023-08-28T00:00	3059	697	-2.1	-3.5	228	17
2023-08-28T00:00	3082	695	-2.0	-4.8	229	18
2023-08-28T00:00	3104	693	-2.0	-7.1	231	18
2023-08-28T00:00	3131	691	-1.9	-7.6	234	18
2023-08-28T00:00	3158	688	-1.8	-7.9	237	19
2023-08-28T00:00	3193	685	-1.6	-8.4	239	19
2023-08-28T00:00	3232	682	-1.3	-8.7	239	20
2023-08-28T00:00	3265	679	-1.4	-8.8	238	20
2023-08-28T00:00	3301	677	-1.3	-8.9	236	20
2023-08-28T00:00	3323	674	-1.4	-9.2	234	19
2023-08-28T00:00	3350	672	-1.5	-9.3	233	19
2023-08-28T00:00	3381	670	-1.7	-9.3	233	19
2023-08-28T00:00	3409	667	-1.9	-9.4	233	19
2023-08-28T00:00	3435	665	-2.3	-9.5	235	19
2023-08-28T00:00	3466	662	-2.4	-9.5	236	20
2023-08-28T00:00	3501	660	-2.7	-9.7	238	21
2023-08-28T00:00	3537	657	-2.9	-10.0	240	22
2023-08-28T00:00	3567	654	-3.3	-9.8	241	23
2023-08-28T00:00	3601	651	-3.6	-10.1	241	23
2023-08-28T00:00	3629	649	-3.7	-10.2	241	23
2023-08-28T00:00	3659	647	-4.0	-10.1	240	23
2023-08-28T00:00	3690	644	-4.4	-10.4	240	23
2023-08-28T00:00	3715	642	-4.6	-10.2	239	23
2023-08-28T00:00	3739	640	-4.8	-10.2	240	24
2023-08-28T00:00	3767	638	-5.0	-10.1	240	25
2023-08-28T00:00	3795	635	-5.3	-10.2	241	26
2023-08-28T00:00	3826	633	-5.6	-10.2	241	27
2023-08-28T00:00	3849	631	-5.8	-10.1	242	28
2023-08-28T00:00	3873	629	-5.7	-9.4	242	29
2023-08-28T00:00	3899	627	-5.9	-9.4	242	29
2023-08-28T00:00	3931	625	-6.0	-9.3	242	29
2023-08-28T00:00	3953	623	-6.0	-9.2	240	29
2023-08-28T00:00	3973	621	-6.1	-9.1	239	29
2023-08-28T00:00	3997	619	-5.8	-8.3	236	29
2023-08-28T00:00	4027	617	-5.9	-8.3	234	29
2023-08-28T00:00	4052	615	-5.5	-7.8	232	29
2023-08-28T00:00	4077	613	-5.1	-7.5	230	29
2023-08-28T00:00	4104	611	-5.4	-7.7	230	29
2023-08-28T00:00	4126	609	-5.5	-7.9	229	29
2023-08-28T00:00	4154	607	-5.8	-7.9	229	29
2023-08-28T00:00	4180	605	-5.9	-8.0	228	28
2023-08-28T00:00	4206	603	-6.1	-8.1	228	28
2023-08-28T00:00	4234	601	-6.3	-8.2	227	27
2023-08-28T00:00	4256	599	-6.6	-8.4	226	26
2023-08-28T00:00	4281	597	-6.6	-8.7	225	26
2023-08-28T00:00	4306	595	-6.8	-8.7	225	25
2023-08-28T00:00	4333	593	-7.0	-9.0	225	25
2023-08-28T00:00	4355	592	-7.1	-9.0	225	25
2023-08-28T00:00	4378	590	-7.4	-9.1	225	25
2023-08-28T00:00	4405	588	-7.6	-9.1	225	25
2023-08-28T00:00	4432	586	-7.8	-9.4	224	25
2023-08-28T00:00	4456	584	-7.9	-9.5	224	24
2023-08-28T00:00	4483	582	-8.1	-9.6	222	24
2023-08-28T00:00	4505	580	-8.4	-9.7	221	24
2023-08-28T00:00	4532	578	-8.6	-9.8	220	23
2023-08-28T00:00	4554	577	-8.7	-9.9	219	23
2023-08-28T00:00	4580	575	-9.0	-10.0	219	23
2023-08-28T00:00	4609	573	-9.1	-10.1	219	23
2023-08-28T00:00	4634	571	-9.4	-10.2	218	23
2023-08-28T00:00	4658	569	-9.5	-10.3	217	23
2023-08-28T00:00	4681	567	-9.8	-10.4	216	23
2023-08-28T00:00	4710	565	-10.0	-10.5	213	23
2023-08-28T00:00	4737	563	-10.1	-10.5	211	23
2023-08-28T00:00	4766	561	-10.3	-10.5	209	23
2023-08-28T00:00	4793	559	-10.3	-10.6	207	24
2023-08-28T00:00	4825	557	-10.4	-10.4	206	24
2023-08-28T00:00	4855	555	-10.5	-10.5	206	24
2023-08-28T00:00	4885	552	-10.5	-10.5	205	25
2023-08-28T00:00	4913	550	-10.7	-10.7	205	25
2023-08-28T00:00	4941	548	-10.8	-10.9	205	25
2023-08-28T00:00	4968	547	-11.0	-11.0	206	25
2023-08-28T00:00	4995	545	-11.1	-11.1	207	25
2023-08-28T00:00	5022	543	-11.3	-11.3	208	24
2023-08-28T00:00	5052	541	-11.5	-11.6	209	25
2023-08-28T00:00	5078	539	-11.6	-11.7	211	25
2023-08-28T00:00	5100	537	-11.8	-12.0	211	26
2023-08-28T00:00	5127	535	-12.0	-12.2	211	26
2023-08-28T00:00	5152	534	-12.1	-12.3	211	27
2023-08-28T00:00	5175	532	-12.2	-12.4	211	28
2023-08-28T00:00	5197	530	-12.3	-12.5	212	28
2023-08-28T00:00	5232	528	-12.4		214	28
2023-08-28T00:00	5259	526	-12.5	-13.1	216	28
2023-08-28T00:00	5284	524	-12.7	-13.5	218	28
2023-08-28T00:00	5308	523	-12.9	-13.8	219	29
2023-08-28T00:00	5336	521	-13.0	-14.0	221	30
2023-08-28T00:00	5373	519	-13.2	-14.3	221	30
2023-08-28T00:00	5403	516	-13.4		222	31
2023-08-28T00:00	5426	515	-13.6	-14.9	222	32
2023-08-28T00:00	5454	513	-13.7	-15.0	223	32
2023-08-28T00:00	5480	511	-13.9	-15.3	223	32
2023-08-28T00:00	5508	509	-14.1	-15.7	223	31
2023-08-28T00:00	5532	508	-14.2	-15.8	224	31
2023-08-28T00:00	5558	506	-14.4	-16.0	224	31
2023-08-28T00:00	5584	504	-14.6	-16.3	225	31
2023-08-28T00:00	5608	502	-14.7	-16.4	226	31
2023-08-28T00:00	5645	500	-15.0	-16.7	226	31
2023-08-28T00:00	5669	499	-15.1	-16.8	226	31
2023-08-28T00:00	5698	497	-15.4	-17.2	226	31
2023-08-28T00:00	5721	495	-15.5	-17.2	226	31
2023-08-28T00:00	5753	493	-15.7	-17.4	226	31
2023-08-28T00:00	5788	491	-16.0	-17.9	226	32
2023-08-28T00:00	5813	489	-16.1	-18.1	226	33
2023-08-28T00:00	5836	488	-16.3	-18.3	226	33
2023-08-28T00:00	5855	486	-16.3	-18.5	226	34
2023-08-28T00:00	5878	485	-16.5	-18.6	226	35
2023-08-28T00:00	5906	483	-16.7	-18.8	227	35
2023-08-28T00:00	5926	482	-16.8	-18.8	227	36
2023-08-28T00:00	5957	480	-17.0	-19.1	227	37
2023-08-28T00:00	5982	478	-17.1	-19.3	227	37
2023-08-28T00:00	6011	476	-17.1	-19.3	226	38
2023-08-28T00:00	6039	475	-17.0	-19.2	225	38
2023-08-28T00:00	6065	473	-16.9	-19.1	224	39
2023-08-28T00:00	6084	472	-16.7	-18.7	223	39
2023-08-28T00:00	6101	471	-16.7	-18.6	223	39
2023-08-28T00:00	6125	469	-16.6	-18.4	222	39
2023-08-28T00:00	6153	467	-16.6	-18.4	222	39
2023-08-28T00:00	6184	466	-16.6	-18.4	220	39
2023-08-28T00:00	6211	464	-16.5	-18.5	219	39
2023-08-28T00:00	6234	462	-16.5	-18.3	218	39
2023-08-28T00:00	6262	461	-16.8	-18.4	216	39
2023-08-28T00:00	6287	459	-17.0	-18.7	216	39
2023-08-28T00:00	6316	458	-17.2	-18.7	215	39
2023-08-28T00:00	6346	456	-17.5	-18.9	214	39
2023-08-28T00:00	6375	454	-17.7	-19.1	214	39
2023-08-28T00:00	6405	452	-18.0	-19.1	214	39
2023-08-28T00:00	6431	450	-18.2	-19.3	214	39
2023-08-28T00:00	6461	449	-18.5	-19.6	214	39
2023-08-28T00:00	6486	447	-18.7	-19.6	215	39
2023-08-28T00:00	6507	446	-18.9	-19.8	215	38
2023-08-28T00:00	6536	444	-19.1	-20.0	214	38
2023-08-28T00:00	6564	443	-19.3	-20.3	213	37
2023-08-28T00:00	6587	441	-19.5	-20.5	213	37
2023-08-28T00:00	6612	440	-19.7	-20.7	212	37
2023-08-28T00:00	6639	438	-19.9	-20.9	211	37
2023-08-28T00:00	6666	437	-20.1	-20.9	210	37
2023-08-28T00:00	6689	435	-20.3	-21.1	209	37
2023-08-28T00:00	6716	434	-20.5	-21.4	208	37
2023-08-28T00:00	6750	432	-20.8	-21.5	208	38
2023-08-28T00:00	6772	430	-20.9	-21.5	208	38
2023-08-28T00:00	6797	429	-21.0	-21.7	208	39
2023-08-28T00:00	6827	427	-20.8	-21.7	209	41
2023-08-28T00:00	6850	426	-20.8	-21.7	210	42
2023-08-28T00:00	6882	424	-20.8	-21.8	211	43
2023-08-28T00:00	6904	423	-20.9	-22.0	212	43
2023-08-28T00:00	6931	421	-21.0	-22.1	214	44
2023-08-28T00:00	6960	420	-21.1	-22.1	214	44
2023-08-28T00:00	6990	418	-21.3	-22.4	215	44
2023-08-28T00:00	7018	416	-21.3	-22.5	216	45
2023-08-28T00:00	7048	415	-21.4	-22.7	216	45
2023-08-28T00:00	7079	413	-21.6	-22.9	217	45
2023-08-28T00:00	7107	411	-21.7	-23.1	217	46
2023-08-28T00:00	7135	410	-21.9	-23.3	218	46
2023-08-28T00:00	7164	408	-22.1	-23.6	218	46
2023-08-28T00:00	7191	407	-22.3	-23.9	219	46
2023-08-28T00:00	7217	405	-22.4	-24.0	220	46
2023-08-28T00:00	7252	403	-22.7	-24.3	221	46
2023-08-28T00:00	7272	402	-22.8	-24.6	221	47
2023-08-28T00:00	7293	401	-23.0	-24.7	221	47
2023-08-28T00:00	7321	399	-23.3	-25.2	221	47
2023-08-28T00:00	7346	398	-23.5	-25.4	221	48
2023-08-28T00:00	7374	396	-23.7	-25.6	220	48
2023-08-28T00:00	7408	395	-23.9	-25.7	220	49
2023-08-28T00:00	7441	393	-24.2	-26.0	221	49
2023-08-28T00:00	7463	392	-24.4	-26.1	221	49
2023-08-28T00:00	7489	390	-24.6	-26.3	222	50
2023-08-28T00:00	7524	388	-24.8	-26.9	223	50
2023-08-28T00:00	7556	387	-25.0	-27.2	224	50
2023-08-28T00:00	7576	386	-25.1	-27.2	224	49
2023-08-28T00:00	7597	385	-25.3	-27.2	224	49
2023-08-28T00:00	7622	383	-25.5	-27.6	224	49
2023-08-28T00:00	7649	382	-25.7	-28.1	225	49
2023-08-28T00:00	7681	380	-25.8	-28.4	225	49
2023-08-28T00:00	7709	379	-26.0	-28.6	225	49
2023-08-28T00:00	7731	378	-26.2	-28.8	225	49
2023-08-28T00:00	7753	376	-26.4	-28.9	225	49
2023-08-28T00:00	7777	375	-26.6	-29.2	225	50
2023-08-28T00:00	7804	374	-26.8	-29.5	224	50
2023-08-28T00:00	7835	372	-27.0	-29.8	224	51
2023-08-28T00:00	7863	371	-27.2	-29.8	224	51
2023-08-28T00:00	7894	369	-27.3	-29.9	223	51
2023-08-28T00:00	7910	368	-27.4	-30.0	223	51
2023-08-28T00:00	7930	367	-27.6	-30.2	223	51
2023-08-28T00:00	7951	366	-27.7	-30.1	222	50
2023-08-28T00:00	7973	365	-27.8	-30.2	222	50
2023-08-28T00:00	7997	364	-27.9	-30.3	222	50
2023-08-28T00:00	8022	363	-28.1	-30.5	222	50
2023-08-28T00:00	8045	361	-28.2	-30.8	222	50
2023-08-28T00:00	8065	360	-28.4	-31.0	221	50
2023-08-28T00:00	8089	359	-28.5	-30.9	221	50
2023-08-28T00:00	8113	358	-28.7	-31.1	221	50
2023-08-28T00:00	8141	357	-28.9	-31.2	220	50
2023-08-28T00:00	8167	355	-29.1	-31.4	220	50
2023-08-28T00:00	8192	354	-29.3	-31.7	219	50
2023-08-28T00:00	8211	353	-29.4	-32.0	219	50
2023-08-28T00:00	8235	352	-29.6	-32.1	219	50
2023-08-28T00:00	8257	351	-29.8	-32.3	219	50
2023-08-28T00:00	8280	350	-29.9	-32.4	219	50
2023-08-28T00:00	8302	349	-30.1	-32.4	219	51
2023-08-28T00:00	8320	348	-30.3	-32.6	219	51
2023-08-28T00:00	8343	347	-30.5	-32.6	219	50
2023-08-28T00:00	8366	346	-30.7	-32.9	219	50
2023-08-28T00:00	8391	344	-30.9	-33.3	219	50
2023-08-28T00:00	8416	343	-31.0	-33.6	219	50
2023-08-28T00:00	8442	342	-31.3	-34.3	219	51
2023-08-28T00:00	8468	341	-31.5	-34.2	219	51
2023-08-28T00:00	8498	339	-31.6	-34.3	219	51
2023-08-28T00:00	8524	338	-31.8	-34.4	219	50
2023-08-28T00:00	8552	337	-32.0	-34.4	219	50
2023-08-28T00:00	8580	335	-32.2	-34.7	219	50
2023-08-28T00:00	8598	334	-32.4	-34.7	219	50
2023-08-28T00:00	8619	333	-32.5	-34.6	218	50
2023-08-28T00:00	8640	332	-32.7	-34.7	218	50
2023-08-28T00:00	8661	331	-32.8	-34.9	217	50
2023-08-28T00:00	8682	330	-33.0	-35.0	217	51
2023-08-28T00:00	8704	329	-33.2	-34.9	217	51
2023-08-28T00:00	8721	329	-33.3	-35.1	217	51
2023-08-28T00:00	8742	328	-33.5	-35.1	218	51
2023-08-28T00:00	8760	327	-33.6	-35.2	218	51
2023-08-28T00:00	8779	326	-33.8	-35.8	218	51
2023-08-28T00:00	8800	325	-33.9	-36.1	218	51
2023-08-28T00:00	8820	324	-34.1	-36.5	218	51
2023-08-28T00:00	8844	323	-34.3	-37.2	218	50
2023-08-28T00:00	8867	322	-34.4	-36.7	219	50
2023-08-28T00:00	8889	321	-34.6	-37.1	219	50
2023-08-28T00:00	8910	320	-34.8	-38.0	219	50
2023-08-28T00:00	8930	319	-34.9	-38.0	219	50
2023-08-28T00:00	8948	318	-35.1	-38.5	219	50
2023-08-28T00:00	8969	317	-35.3	-38.6	219	50
2023-08-28T00:00	8989	316	-35.4	-38.7	219	50
2023-08-28T00:00	9008	315	-35.6	-39.3	219	50
2023-08-28T00:00	9026	315	-35.8	-39.4	219	50
2023-08-28T00:00	9044	314	-36.0	-39.3	219	50
2023-08-28T00:00	9060	313	-36.1	-39.3	218	50
2023-08-28T00:00	9076	312	-36.3	-39.3	218	50
2023-08-28T00:00	9094	311	-36.4	-39.3	219	50
2023-08-28T00:00	9113	311	-36.6	-39.7	219	50
2023-08-28T00:00	9139	309	-36.8	-39.8	220	50
2023-08-28T00:00	9167	308	-37.0	-40.4	221	50
2023-08-28T00:00	9195	307	-36.9	-40.8	223	50
2023-08-28T00:00	9222	306	-37.2	-40.7	224	50
2023-08-28T00:00	9254	304	-37.4	-40.8	224	50
2023-08-28T00:00	9285	303	-37.6	-41.2	225	50
2023-08-28T00:00	9310	302	-37.9	-41.3	225	50
2023-08-28T00:00	9334	301	-38.1	-41.7	225	50
2023-08-28T00:00	9359	300	-38.3	-42.3	224	51
2023-08-28T00:00	9381	299	-38.3	-42.4	224	51
2023-08-28T00:00	9402	298	-38.5	-42.2	223	51
2023-08-28T00:00	9423	297	-38.6	-42.2	223	51
2023-08-28T00:00	9445	296	-38.8	-42.2	223	51
2023-08-28T00:00	9466	295	-39.0	-42.2	223	51
2023-08-28T00:00	9487	294	-39.2	-42.2	223	51
2023-08-28T00:00	9505	293	-39.4	-42.1	223	51
2023-08-28T00:00	9526	293	-39.6	-42.0	223	51
2023-08-28T00:00	9547	292	-39.7	-42.1	223	51
2023-08-28T00:00	9566	291	-39.9	-42.2	223	51
2023-08-28T00:00	9588	290	-40.0	-42.4	224	52
2023-08-28T00:00	9607	289	-40.0	-43.7	224	52
2023-08-28T00:00	9627	288	-40.1	-45.0	224	52
2023-08-28T00:00	9646	287	-40.3	-44.7	224	52
2023-08-28T00:00	9667	287	-40.4	-45.0	224	52
2023-08-28T00:00	9686	286	-40.6	-45.6	224	52
2023-08-28T00:00	9706	285	-40.8	-46.3	224	52
2023-08-28T00:00	9725	284	-40.9		224	52
2023-08-28T00:00	9745	283	-41.0	-46.2	224	52
2023-08-28T00:00	9766	282	-41.2	-46.2	224	52
2023-08-28T00:00	9784	282	-41.3	-46.7	224	52
2023-08-28T00:00	9803	281	-41.5	-46.9	224	52
2023-08-28T00:00	9823	280	-41.7	-46.9	224	52
2023-08-28T00:00	9842	279	-41.8	-47.0	224	52
2023-08-28T00:00	9862	278	-42.0	-47.2	225	52
2023-08-28T00:00	9886	278	-42.2	-47.6	225	52
2023-08-28T00:00	9907	277	-42.4	-48.6	226	52
2023-08-28T00:00	9929	276	-42.4	-51.5	226	52
2023-08-28T00:00	9950	275	-42.3	-52.0	227	52
2023-08-28T00:00	9970	274	-42.4	-51.2	227	52
2023-08-28T00:00	9989	273	-42.5	-50.8	227	52
2023-08-28T00:00	10007	273	-42.7	-50.6	227	52
2023-08-28T00:00	10028	272	-42.8	-50.2	228	52
2023-08-28T00:00	10048	271	-42.9	-49.9	227	52
2023-08-28T00:00	10067	270	-43.1	-49.9	227	52
2023-08-28T00:00	10088	269	-43.2	-49.8	227	52
2023-08-28T00:00	10108	268	-43.4	-50.0	227	52
2023-08-28T00:00	10130	268	-43.6	-50.2	227	51
2023-08-28T00:00	10150	267	-43.8	-50.4	227	51
2023-08-28T00:00	10170	266	-43.9	-50.5	226	51
2023-08-28T00:00	10190	265	-44.1	-50.6	226	51
2023-08-28T00:00	10213	264	-44.3	-50.5	226	51
2023-08-28T00:00	10234	263	-44.5	-50.6	226	51
2023-08-28T00:00	10257	263	-44.7	-50.7	226	51
2023-08-28T00:00	10277	262	-44.9	-50.7	226	51
2023-08-28T00:00	10300	261	-45.1		226	51
2023-08-28T00:00	10321	260	-45.3	-50.8	226	50
2023-08-28T00:00	10343	259	-45.5	-50.9	226	50
2023-08-28T00:00	10362	258	-45.7	-51.0	226	50
2023-08-28T00:00	10382	258	-45.9	-51.0	226	50
2023-08-28T00:00	10404	257	-46.1	-51.2	225	50
2023-08-28T00:00	10425	256	-46.3	-51.3	225	50
2023-08-28T00:00	10445	255	-46.5	-51.5	225	50
2023-08-28T00:00	10467	254	-46.7	-51.5	225	50
2023-08-28T00:00	10486	254	-46.8	-51.4	225	50
2023-08-28T00:00	10505	253	-47.0	-51.5	225	49
2023-08-28T00:00	10524	252	-47.2	-51.8	224	49
2023-08-28T00:00	10544	251	-47.3	-52.0	224	49
2023-08-28T00:00	10562	251	-47.5	-52.1	224	49
2023-08-28T00:00	10582	250	-47.6	-52.3	224	49
2023-08-28T00:00	10604	249	-47.8	-52.7	224	49
2023-08-28T00:00	10622	249	-48.0	-52.8	224	48
2023-08-28T00:00	10643	248	-48.1	-52.7	224	48
2023-08-28T00:00	10664	247	-48.3	-52.9	224	48
2023-08-28T00:00	10681	246	-48.4	-52.9	224	48
2023-08-28T00:00	10700	246	-48.6	-52.9	224	47
2023-08-28T00:00	10719	245	-48.7	-53.0	224	47
2023-08-28T00:00	10739	244	-48.9	-53.2	224	46
2023-08-28T00:00	10759	243	-49.0	-53.4	224	45
2023-08-28T00:00	10779	243	-49.0	-54.2	224	44
2023-08-28T00:00	10798	242	-48.9	-55.9	224	43
2023-08-28T00:00	10818	241	-48.7	-58.4	224	43
2023-08-28T00:00	10833	241	-48.5	-61.1	224	42
2023-08-28T00:00	10854	240	-48.2	-63.0	223	42
2023-08-28T00:00	10875	239	-48.1	-63.3	223	42
2023-08-28T00:00	10895	238	-48.2	-62.6	223	42
2023-08-28T00:00	10913	238	-48.4	-62.0	223	41
2023-08-28T00:00	10934	237	-48.5	-61.6	222	42
2023-08-28T00:00	10953	236	-48.7	-61.6	222	42
2023-08-28T00:00	10972	236	-48.9	-61.7	222	41
2023-08-28T00:00	10992	235	-49.0	-61.8	222	41
2023-08-28T00:00	11012	234	-49.2	-62.1	221	41
2023-08-28T00:00	11032	234	-49.4	-62.4	221	41
2023-08-28T00:00	11050	233	-49.5	-62.4	221	41
2023-08-28T00:00	11068	232	-49.6	-62.4	221	41
2023-08-28T00:00	11087	232	-49.8	-62.5	220	41
2023-08-28T00:00	11109	231	-49.9	-62.4	220	41
2023-08-28T00:00	11126	230	-50.1	-62.5	219	42
2023-08-28T00:00	11147	229	-50.2	-62.7	219	42
2023-08-28T00:00	11169	229	-50.4	-63.1	218	42
2023-08-28T00:00	11191	228	-50.5	-63.7	218	42
2023-08-28T00:00	11215	227	-50.4	-64.3	217	43
2023-08-28T00:00	11245	226	-50.4	-64.5	216	43
2023-08-28T00:00	11264	225	-50.5	-64.5	215	43
2023-08-28T00:00	11290	224	-50.6	-64.4	214	43
2023-08-28T00:00	11319	224	-50.9	-64.2	213	43
2023-08-28T00:00	11343	223	-50.9	-63.7	213	44
2023-08-28T00:00	11368	222	-51.1	-63.5	212	44
2023-08-28T00:00	11397	221	-51.4	-63.4	212	45
2023-08-28T00:00	11429	220	-51.6	-63.1	212	46
2023-08-28T00:00	11448	219	-51.9	-62.7	213	46
2023-08-28T00:00	11476	218	-52.1	-62.2	213	47
2023-08-28T00:00	11508	217	-52.3	-61.8	213	48
2023-08-28T00:00	11532	216	-52.5	-61.6	213	48
2023-08-28T00:00	11554	216	-52.8	-61.5	213	49
2023-08-28T00:00	11578	215	-53.0	-61.0	213	49
2023-08-28T00:00	11613	214	-53.2	-60.2	213	49
2023-08-28T00:00	11638	213	-53.5	-60.0	213	48
2023-08-28T00:00	11663	212	-53.6	-60.0	213	48
2023-08-28T00:00	11680	211	-53.6	-60.3	213	48
2023-08-28T00:00	11697	211	-53.7	-60.7	213	48
2023-08-28T00:00	11716	210	-53.8	-60.8	214	48
2023-08-28T00:00	11733	210	-54.0	-60.9	214	48
2023-08-28T00:00	11755	209	-53.9		215	48
2023-08-28T00:00	11773	208	-53.6	-61.3	216	49
2023-08-28T00:00	11790	208	-53.5	-61.8	216	49
2023-08-28T00:00	11808	207	-53.6	-62.0	216	49
2023-08-28T00:00	11827	207	-53.7	-62.0	216	49
2023-08-28T00:00	11846	206	-53.8	-62.0	217	49
2023-08-28T00:00	11863	205	-53.8	-62.0	217	49
2023-08-28T00:00	11881	205	-53.9	-62.1	217	50
2023-08-28T00:00	11898	204	-53.9	-62.1	217	50
2023-08-28T00:00	11915	204	-54.0	-62.2	218	50
2023-08-28T00:00	11933	203	-54.0	-62.2	218	50
2023-08-28T00:00	11952	203	-54.1	-62.3	218	50
2023-08-28T00:00	11969	202	-54.1	-62.3	219	51
2023-08-28T00:00	11986	202	-54.2	-62.4	219	51
2023-08-28T00:00	12003	201	-54.3	-62.4	220	51
2023-08-28T00:00	12021	200	-54.5	-62.6	220	51
2023-08-28T00:00	12039	200	-54.5	-62.6	220	51
2023-08-28T00:00	12058	199	-54.6	-62.7	221	51
2023-08-28T00:00	12073	199	-54.7	-62.8	221	51
2023-08-28T00:00	12091	198	-54.8	-62.9	221	51
2023-08-28T00:00	12110	198	-54.9	-63.0	221	51
2023-08-28T00:00	12130	197	-55.0	-63.1	222	51
2023-08-28T00:00	12151	196	-55.1	-63.2	222	51
2023-08-28T00:00	12171	196	-55.1	-63.3	223	51
2023-08-28T00:00	12189	195	-55.2	-63.4	223	52
2023-08-28T00:00	12207	195	-55.3	-63.6	224	52
2023-08-28T00:00	12227	194	-55.2	-63.8	225	52
2023-08-28T00:00	12246	193	-55.2	-64.2	226	52
2023-08-28T00:00	12264	193	-55.2	-64.7	226	51
2023-08-28T00:00	12286	192	-55.1	-65.2	227	51
2023-08-28T00:00	12305	192	-55.1	-66.1	228	51
2023-08-28T00:00	12322	191	-55.1	-67.0	228	51
2023-08-28T00:00	12341	191	-55.0	-67.8	229	51
2023-08-28T00:00	12359	190	-55.1	-68.3	229	51
2023-08-28T00:00	12381	189	-55.0	-68.7	230	50
2023-08-28T00:00	12401	189	-55.0	-69.6	230	50
2023-08-28T00:00	12421	188	-54.9	-70.9	231	49
2023-08-28T00:00	12442	188	-54.8	-72.4	231	48
2023-08-28T00:00	12460	187	-54.4	-73.5	232	47
2023-08-28T00:00	12481	187	-54.5	-75.2	232	47
2023-08-28T00:00	12500	186	-54.2	-76.7	232	46
2023-08-28T00:00	12521	185	-54.1	-78.5	232	45
2023-08-28T00:00	12540	185	-53.8	-79.1	232	45
2023-08-28T00:00	12562	184	-53.7	-79.0	232	44
2023-08-28T00:00	12585	184	-53.7	-78.6	232	43
2023-08-28T00:00	12605	183	-53.7	-78.3	232	43
2023-08-28T00:00	12624	182	-53.8	-78.4	232	42
2023-08-28T00:00	12647	182	-54.0	-78.6	233	41
2023-08-28T00:00	12669	181	-54.0	-78.8	233	40
2023-08-28T00:00	12690	181	-53.5	-78.4	233	39
2023-08-28T00:00	12709	180	-53.0	-78.0	234	38
2023-08-28T00:00	12731	179	-53.1	-78.1	234	37
2023-08-28T00:00	12751	179	-53.1	-78.1	235	37
2023-08-28T00:00	12770	178	-53.1	-78.3	235	36
2023-08-28T00:00	12788	178	-53.1	-78.3	236	36
2023-08-28T00:00	12811	177	-53.0	-78.2	236	36
2023-08-28T00:00	12832	177	-52.9	-78.4	235	35
2023-08-28T00:00	12851	176	-52.8	-78.3	235	35
2023-08-28T00:00	12870	176	-52.5	-78.1	235	34
2023-08-28T00:00	12892	175	-52.4	-78.0	235	34
2023-08-28T00:00	12911	174	-52.4	-78.0	235	33
2023-08-28T00:00	12931	174	-52.5	-78.1	236	33
2023-08-28T00:00	12949	173	-52.4	-78.0	237	33
2023-08-28T00:00	12970	173	-52.3	-78.2	239	33
2023-08-28T00:00	12991	172	-52.1	-78.3	240	33
2023-08-28T00:00	13010	172	-52.0	-78.5	240	32
2023-08-28T00:00	13029	171	-51.8	-78.6	241	31
2023-08-28T00:00	13051	171	-51.5	-78.6	240	30
2023-08-28T00:00	13075	170	-51.2	-78.7	240	30
2023-08-28T00:00	13094	170	-51.0		239	29
2023-08-28T00:00	13115	169	-51.1	-78.9	238	28
2023-08-28T00:00	13135	169	-51.1	-78.9	237	28
2023-08-28T00:00	13154	168	-51.2	-79.0	236	27
2023-08-28T00:00	13176	167	-51.3	-78.8	235	27
2023-08-28T00:00	13195	167	-51.2	-78.7	234	27
2023-08-28T00:00	13215	166	-51.2	-78.4	233	27
2023-08-28T00:00	13237	166	-51.3	-78.5	232	27
2023-08-28T00:00	13255	165	-51.5	-78.6	232	26
2023-08-28T00:00	13273	165	-51.5	-78.6	232	26
2023-08-28T00:00	13295	164	-51.7	-79.1	232	26
2023-08-28T00:00	13317	164	-51.7	-79.1	232	26
2023-08-28T00:00	13335	163	-51.8	-79.5	232	26
2023-08-28T00:00	13357	163	-51.9	-79.5	231	25
2023-08-28T00:00	13377	162	-51.7	-79.1	231	25
2023-08-28T00:00	13398	162	-51.7	-79.1	230	26
2023-08-28T00:00	13417	161	-51.9	-79.2	230	26
2023-08-28T00:00	13438	161	-52.0	-79.3	230	26
2023-08-28T00:00	13457	160	-52.1	-79.4	230	26
2023-08-28T00:00	13479	160	-52.2	-79.5	230	27
2023-08-28T00:00	13499	159	-52.4	-79.9	230	27
2023-08-28T00:00	13522	159	-52.6	-79.8	230	28
2023-08-28T00:00	13544	158	-52.7	-79.8	229	28
2023-08-28T00:00	13563	158	-52.9	-80.0	229	28
2023-08-28T00:00	13585	157	-53.1	-80.2	229	28
2023-08-28T00:00	13607	157	-53.1	-80.2	229	28
2023-08-28T00:00	13625	156	-52.9	-80.0	229	28
2023-08-28T00:00	13648	156	-52.7	-80.2	229	28
2023-08-28T00:00	13667	155	-52.6	-80.1	229	28
2023-08-28T00:00	13687	155	-52.4	-79.9	230	28
2023-08-28T00:00	13709	154	-52.3	-79.9	230	28
2023-08-28T00:00	13729	154	-52.2	-79.8	231	28
2023-08-28T00:00	13750	153	-52.3	-79.9	232	28
2023-08-28T00:00	13771	153	-52.4	-79.9	232	28
2023-08-28T00:00	13792	152	-52.5	-80.0	232	28
2023-08-28T00:00	13812	152	-52.5	-80.0	233	27
2023-08-28T00:00	13830	151	-52.5	-80.0	233	27
2023-08-28T00:00	13852	151	-52.5	-80.0	233	26
2023-08-28T00:00	13873	150	-52.3	-80.2	233	26
2023-08-28T00:00	13892	150	-52.3	-80.2	234	25
2023-08-28T00:00	13915	149	-51.9	-80.2	234	25
2023-08-28T00:00	13935	149	-51.9	-80.2	234	24
2023-08-28T00:00	13958	148	-51.7	-80.1	233	24
2023-08-28T00:00	13977	148	-51.5	-80.3	233	24
2023-08-28T00:00	13995	148	-51.3	-80.1	232	23
2023-08-28T00:00	14019	147	-51.3	-80.1	231	23
2023-08-28T00:00	14037	147	-51.4	-80.2	230	23
2023-08-28T00:00	14057	146	-51.4	-80.2	229	23
2023-08-28T00:00	14079	146	-51.3	-79.8	229	23
2023-08-28T00:00	14099	145	-51.3	-79.8	229	23
2023-08-28T00:00	14119	145	-51.1	-80.0	231	23
2023-08-28T00:00	14136	144	-51.1	-80.0	232	23
2023-08-28T00:00	14157	144	-51.2	-80.1	233	23
2023-08-28T00:00	14178	143	-51.3	-80.1	233	23
2023-08-28T00:00	14200	143	-51.3	-80.1	232	23
2023-08-28T00:00	14222	142	-51.2	-80.1	230	23
2023-08-28T00:00	14256	142	-51.2	-80.1	228	22
2023-08-28T00:00	14280	141	-51.3	-80.1	226	22
2023-08-28T00:00	14306	141	-51.5	-80.3	224	21
2023-08-28T00:00	14331	140	-51.7	-80.4	223	21
2023-08-28T00:00	14353	140	-51.8	-80.5	223	21
2023-08-28T00:00	14373	139	-51.8	-80.5	223	21
2023-08-28T00:00	14391	139	-51.9	-80.6	222	21
2023-08-28T00:00	14411	138	-51.9	-80.6	222	21
2023-08-28T00:00	14433	138	-52.0	-80.7	222	21
2023-08-28T00:00	14455	137	-52.2	-80.8	221	21
2023-08-28T00:00	14472	137	-52.3	-80.9	221	21
2023-08-28T00:00	14493	137	-52.2	-80.8	221	21
2023-08-28T00:00	14512	136	-52.2	-80.8	222	21
2023-08-28T00:00	14530	136	-52.3	-80.9	223	21
2023-08-28T00:00	14550	135	-52.3	-80.9	225	21
2023-08-28T00:00	14571	135	-52.2	-81.2	227	20
2023-08-28T00:00	14589	135	-52.0	-81.1	228	20
2023-08-28T00:00	14606	134	-51.5	-81.1	228	20
2023-08-28T00:00	14623	134	-51.1	-80.8	228	20
2023-08-28T00:00	14644	134	-51.0	-80.7	228	20
2023-08-28T00:00	14664	133	-51.0	-80.7	227	20
2023-08-28T00:00	14684	133	-51.1	-80.8	227	20
2023-08-28T00:00	14704	132	-51.0	-80.7	227	20
2023-08-28T00:00	14722	132	-51.1	-80.8	226	20
2023-08-28T00:00	14743	131	-51.1	-80.8	225	20
2023-08-28T00:00	14762	131	-51.0	-80.7	223	20
2023-08-28T00:00	14783	131	-50.9	-80.6	222	20
2023-08-28T00:00	14800	130	-51.0	-80.7	220	20
2023-08-28T00:00	14821	130	-50.9	-80.6	219	20
2023-08-28T00:00	14844	129	-50.9	-80.6	218	21
2023-08-28T00:00	14866	129	-51.0	-80.7	219	21
2023-08-28T00:00	14885	129	-51.1	-80.8	219	21
2023-08-28T00:00	14905	128	-50.9	-80.6	220	22
2023-08-28T00:00	14925	128	-50.9	-80.6	221	22
2023-08-28T00:00	14944	127	-51.0	-80.7	222	22
2023-08-28T00:00	14967	127	-51.2	-80.9	222	22
2023-08-28T00:00	14986	127	-51.3	-80.9	223	22
2023-08-28T00:00	15010	126	-51.4	-81.0	224	21
2023-08-28T00:00	15030	126	-51.3	-80.9	225	21
2023-08-28T00:00	15048	125	-51.3	-80.9	225	20
2023-08-28T00:00	15071	125	-51.4	-81.0	225	20
2023-08-28T00:00	15090	125	-51.4	-81.0	225	20
2023-08-28T00:00	15111	124	-51.5	-81.1	225	21
2023-08-28T00:00	15129	124	-51.6	-81.2	225	21
2023-08-28T00:00	15147	124	-51.8	-81.3	225	21
2023-08-28T00:00	15168	123	-51.9	-81.4	226	21
2023-08-28T00:00	15189	123	-52.0	-81.1	227	20
2023-08-28T00:00	15208	122	-51.9	-81.4	227	20
2023-08-28T00:00	15230	122	-52.1	-81.5	228	19
2023-08-28T00:00	15252	122	-51.9	-81.4	229	18
2023-08-28T00:00	15272	121	-51.5	-81.1	229	17
2023-08-28T00:00	15297	121	-51.5	-81.1	229	17
2023-08-28T00:00	15319	120	-51.6	-81.2	229	16
2023-08-28T00:00	15341	120	-51.7	-81.2	228	16
2023-08-28T00:00	15360	120	-51.8	-81.3	228	16
2023-08-28T00:00	15383	119	-52.0	-81.5	226	16
2023-08-28T00:00	15405	119	-52.1	-81.5	224	16
2023-08-28T00:00	15428	118	-52.1	-81.5	222	17
2023-08-28T00:00	15449	118	-52.2	-81.6	220	17
2023-08-28T00:00	15474	118	-52.3	-81.3	219	17
2023-08-28T00:00	15496	117	-52.3	-81.3	218	17
2023-08-28T00:00	15518	117	-52.5	-81.4	217	17
2023-08-28T00:00	15540	116	-52.6	-81.5	217	17
2023-08-28T00:00	15563	116	-52.7	-81.6	217	16
2023-08-28T00:00	15585	115	-52.8	-81.7	218	16
2023-08-28T00:00	15608	115	-53.0	-81.8	219	16
2023-08-28T00:00	15632	115	-53.2	-82.0	220	15
2023-08-28T00:00	15653	114	-53.4	-81.7	220	15
2023-08-28T00:00	15676	114	-53.7	-82.0	221	15
2023-08-28T00:00	15696	113	-53.9	-82.1	221	14
2023-08-28T00:00	15720	113	-54.1	-82.3	221	14
2023-08-28T00:00	15744	113	-54.2	-82.3	220	14
2023-08-28T00:00	15761	112	-54.2	-82.3	220	14
2023-08-28T00:00	15783	112	-54.3	-82.4	220	14
2023-08-28T00:00	15805	112	-54.3	-82.4	220	14
2023-08-28T00:00	15825	111	-54.2	-82.3	221	15
2023-08-28T00:00	15846	111	-54.0	-82.6	222	15
2023-08-28T00:00	15867	111	-53.7	-82.3	223	15
2023-08-28T00:00	15888	110	-53.8	-82.4	224	16
2023-08-28T00:00	15911	110	-53.9	-82.5	225	16
2023-08-28T00:00	15930	109	-54.1	-82.3	226	16
2023-08-28T00:00	15953	109	-54.2	-82.3	226	17
2023-08-28T00:00	15968	109	-54.3	-82.4	226	18
2023-08-28T00:00	15993	108	-54.5	-82.6	226	18
2023-08-28T00:00	16015	108	-54.6	-82.6	226	19
2023-08-28T00:00	16034	108	-54.6	-82.6	226	20
2023-08-28T00:00	16058	107	-54.6	-82.6	226	21
2023-08-28T00:00	16079	107	-54.7	-82.7	227	22
2023-08-28T00:00	16102	107	-54.7	-82.7	228	22
2023-08-28T00:00	16123	106	-54.8	-82.8	229	23
2023-08-28T00:00	16144	106	-54.8	-83.2	231	22
2023-08-28T00:00	16166	105	-54.6	-83.0	234	22
2023-08-28T00:00	16185	105	-54.2	-82.7	236	21
2023-08-28T00:00	16209	105	-54.1	-83.1	238	21
2023-08-28T00:00	16228	104	-53.8	-82.8	240	20
2023-08-28T00:00	16249	104	-53.4	-82.5	241	19
2023-08-28T00:00	16271	104	-53.2	-82.4	241	18
2023-08-28T00:00	16291	103	-53.3	-82.5	242	18
2023-08-28T00:00	16311	103	-53.3	-82.5	243	18
2023-08-28T00:00	16332	103	-53.4	-83.0	244	18
2023-08-28T00:00	16352	102	-53.2	-82.8	246	18
2023-08-28T00:00	16375	102	-53.0	-82.7	246	18
2023-08-28T00:00	16394	102	-52.7	-82.4	247	18
2023-08-28T00:00	16416	101	-52.4	-82.2	247	18
2023-08-28T00:00	16440	101	-52.1	-82.5	247	18
2023-08-28T00:00	16462	101	-52.1	-82.5	247	18
2023-08-28T00:00	16482	100	-52.1	-82.5	248	19
2023-08-28T00:00	16501	100	-52.1	-82.5	248	19
2023-08-28T00:00	16529	100	-52.1	-82.5	249	19
2023-08-28T00:00	16548	99	-52.1	-82.5	250	19
2023-08-28T00:00	16571	99	-52.3	-82.6	250	19
2023-08-28T00:00	16591	99	-52.3	-82.6	251	20
2023-08-28T00:00	16609	98	-52.1	-82.5	251	19
2023-08-28T00:00	16633	98	-51.9	-82.3	251	19
2023-08-28T00:00	16653	98	-51.6	-82.1	252	19
2023-08-28T00:00	16673	98	-51.7	-82.2	252	18
2023-08-28T00:00	16696	97	-51.7	-82.2	253	17
2023-08-28T00:00	16714	97	-51.8	-82.2	254	17
2023-08-28T00:00	16738	97	-52.0	-82.4	255	16
2023-08-28T00:00	16758	96	-52.0	-82.4	255	16
2023-08-28T00:00	16779	96	-52.0	-82.4	254	16
2023-08-28T00:00	16801	96	-52.0	-82.4	253	16
2023-08-28T00:00	16820	95	-51.9	-82.3	252	15
2023-08-28T00:00	16842	95	-51.9	-82.3	250	15
2023-08-28T00:00	16860	95	-51.9	-82.3	248	15
2023-08-28T00:00	16883	94	-51.7	-82.2	246	14
2023-08-28T00:00	16903	94	-51.4	-82.5	244	14
2023-08-28T00:00	16923	94	-51.3	-82.4	241	13
2023-08-28T00:00	16943	94	-51.1	-82.2	239	12
2023-08-28T00:00	16965	93	-50.7		237	12
2023-08-28T00:00	16984	93	-50.5	-81.8	235	12
2023-08-28T00:00	17008	93	-50.4	-81.7	233	11
2023-08-28T00:00	17026	92	-50.5	-81.8	231	11
2023-08-28T00:00	17050	92	-50.5	-81.8	229	11
2023-08-28T00:00	17071	92	-50.5	-81.8	228	11
2023-08-28T00:00	17091	91	-50.6	-81.9	227	11
2023-08-28T00:00	17115	91	-50.8	-82.0	227	11
2023-08-28T00:00	17137	91	-51.0	-81.6	226	11
2023-08-28T00:00	17158	90	-51.1	-81.7	225	11
2023-08-28T00:00	17182	90	-51.3	-81.9	225	11
2023-08-28T00:00	17205	90	-51.5	-82.0	224	10
2023-08-28T00:00	17227	90	-51.7	-82.2	224	10
2023-08-28T00:00	17251	89	-51.9	-81.8	223	10
2023-08-28T00:00	17276	89	-52.1	-82.0	223	10
2023-08-28T00:00	17300	89	-52.4	-82.2	222	10
2023-08-28T00:00	17321	88	-52.6	-82.4	221	10
2023-08-28T00:00	17346	88	-52.8	-82.5	220	9
2023-08-28T00:00	17372	88	-53.1	-82.7	220	9
2023-08-28T00:00	17394	87	-53.3	-82.9	219	9
2023-08-28T00:00	17419	87	-53.5	-82.6	219	9
2023-08-28T00:00	17441	87	-53.7	-82.8	218	9
2023-08-28T00:00	17462	86	-53.9	-82.9	219	9
2023-08-28T00:00	17482	86	-54.1	-83.1	219	9
2023-08-28T00:00	17503	86	-54.3	-83.2	221	8
2023-08-28T00:00	17523	86	-54.5	-83.4	223	8
2023-08-28T00:00	17544	85	-54.7	-83.5	225	8
2023-08-28T00:00	17567	85	-54.8	-83.6	227	8
2023-08-28T00:00	17591	85	-55.1	-83.8	228	7
2023-08-28T00:00	17614	84	-55.1	-83.4	229	7
2023-08-28T00:00	17633	84	-55.2	-83.5	229	8
2023-08-28T00:00	17655	84	-55.4	-83.6	229	8
2023-08-28T00:00	17680	83	-55.5	-83.7	228	8
2023-08-28T00:00	17701	83	-55.7	-83.9	227	8
2023-08-28T00:00	17723	83	-55.9	-84.0	226	8
2023-08-28T00:00	17746	83	-56.0	-84.1	224	8
2023-08-28T00:00	17769	82	-56.2	-84.2	223	8
2023-08-28T00:00	17793	82	-56.3	-84.3	222	8
2023-08-28T00:00	17815	82	-56.5	-84.1	221	8
2023-08-28T00:00	17839	81	-56.7	-84.2	220	8
2023-08-28T00:00	17855	81	-56.9	-84.4	220	8
2023-08-28T00:00	17881	81	-57.1	-84.6	220	9
2023-08-28T00:00	17900	81	-57.2	-84.6	220	9
2023-08-28T00:00	17923	80	-57.3	-84.7	221	9
2023-08-28T00:00	17947	80	-57.2	-84.6	222	10
2023-08-28T00:00	17965	80	-56.9	-84.8	223	11
2023-08-28T00:00	17988	80	-56.8	-84.7	224	11
2023-08-28T00:00	18010	79	-56.8	-84.7	226	12
2023-08-28T00:00	18031	79	-56.9	-84.8	227	13
2023-08-28T00:00	18053	79	-57.0	-84.8	230	13
2023-08-28T00:00	18074	78	-57.0	-84.8	232	14
2023-08-28T00:00	18092	78	-56.7	-85.0	235	14
2023-08-28T00:00	18121	78	-56.4	-84.8	239	14
2023-08-28T00:00	18140	78	-55.9	-84.4	243	14
2023-08-28T00:00	18162	77	-56.0	-84.9	247	13
2023-08-28T00:00	18182	77	-55.7	-84.7	250	13
2023-08-28T00:00	18204	77	-55.5	-84.5	254	12
2023-08-28T00:00	18226	77	-55.5	-84.5	257	12
2023-08-28T00:00	18245	76	-55.5	-84.5	260	12
2023-08-28T00:00	18268	76	-55.5	-84.1	263	11
2023-08-28T00:00	18290	76	-55.7	-84.3	265	11
2023-08-28T00:00	18311	76	-55.7	-84.3	266	10
2023-08-28T00:00	18332	75	-55.6	-84.2	267	10
2023-08-28T00:00	18356	75	-55.4	-84.0	267	9
2023-08-28T00:00	18376	75	-55.4	-84.5	268	9
2023-08-28T00:00	18398	75	-55.5	-84.5	268	8
2023-08-28T00:00	18423	74	-55.3	-84.4	269	7
2023-08-28T00:00	18445	74	-55.3	-84.4	269	7
2023-08-28T00:00	18467	74	-55.4	-84.5	269	6
2023-08-28T00:00	18490	73	-55.5	-84.5	267	7
2023-08-28T00:00	18513	73	-55.6	-84.6	266	7
2023-08-28T00:00	18534	73	-55.1	-84.2	264	7
2023-08-28T00:00	18556	73	-54.9	-84.6	263	8
2023-08-28T00:00	18576	72	-54.7	-84.4	261	8
2023-08-28T00:00	18597	72	-54.7	-84.4	260	8
2023-08-28T00:00	18618	72	-54.5	-84.3	259	8
2023-08-28T00:00	18640	72	-54.2	-84.0	258	7
2023-08-28T00:00	18667	71	-54.3	-84.1	257	7
2023-08-28T00:00	18684	71	-54.4	-84.2	258	6
2023-08-28T00:00	18706	71	-54.4	-84.2	258	6
2023-08-28T00:00	18729	71	-54.5	-84.3	258	6
2023-08-28T00:00	18753	71	-54.5	-83.8	256	6
2023-08-28T00:00	18775	70	-54.5	-83.8	252	6
2023-08-28T00:00	18795	70	-54.6	-83.9	246	6
2023-08-28T00:00	18818	70	-54.6	-83.9	239	6
2023-08-28T00:00	18841	70	-54.4	-84.2	233	6
2023-08-28T00:00	18865	69	-54.3	-84.1	228	6
2023-08-28T00:00	18886	69	-54.4	-84.2	223	7
2023-08-28T00:00	18910	69	-54.5	-83.8	219	7
2023-08-28T00:00	18932	69	-54.6	-83.9	216	7
2023-08-28T00:00	18954	68	-54.7	-83.9	212	7
2023-08-28T00:00	18976	68	-54.8	-84.0	209	7
2023-08-28T00:00	18997	68	-54.9	-84.1	206	7
2023-08-28T00:00	19021	68	-55.1	-84.2	202	8
2023-08-28T00:00	19042	67	-55.3	-84.4	198	8
2023-08-28T00:00	19065	67	-55.4	-84.5	196	9
2023-08-28T00:00	19088	67	-55.2	-84.3	195	9
2023-08-28T00:00	19110	67	-55.1	-84.2	196	9
2023-08-28T00:00	19130	66	-55.2	-84.3	199	9
2023-08-28T00:00	19151	66	-55.3	-84.4	203	9
2023-08-28T00:00	19175	66	-55.4	-84.5	209	9
2023-08-28T00:00	19199	66	-55.2	-84.3	216	9
2023-08-28T00:00	19223	66	-55.0	-84.2	223	9
2023-08-28T00:00	19248	65	-55.1	-84.2	230	9
2023-08-28T00:00	19266	65	-55.2	-84.3	237	9
2023-08-28T00:00	19285	65	-55.1	-84.2	242	9
2023-08-28T00:00	19309	65	-55.1	-84.2	248	9
2023-08-28T00:00	19328	64	-55.0	-84.6	254	9
2023-08-28T00:00	19352	64	-54.9	-84.6	259	9
2023-08-28T00:00	19374	64	-54.8	-84.5	265	8
2023-08-28T00:00	19394	64	-54.5	-84.3	270	7
2023-08-28T00:00	19416	64	-54.3	-84.1	274	7
2023-08-28T00:00	19439	63	-54.4	-84.2	278	6
2023-08-28T00:00	19461	63	-54.4	-84.2	280	6
2023-08-28T00:00	19483	63	-54.3	-84.1	281	5
2023-08-28T00:00	19500	63	-54.2	-84.5	279	5
2023-08-28T00:00	19524	63	-53.7	-84.2	274	4
2023-08-28T00:00	19546	62	-53.6	-84.1	266	4
2023-08-28T00:00	19568	62	-53.6	-84.1	257	4
2023-08-28T00:00	19593	62	-53.5	-84.0	248	4
2023-08-28T00:00	19611	62	-53.4	-83.4	241	4
2023-08-28T00:00	19632	61	-53.5	-83.5	235	5
2023-08-28T00:00	19654	61	-53.6	-83.6	230	5
2023-08-28T00:00	19671	61	-53.7	-83.7	226	5
2023-08-28T00:00	19694	61	-53.9	-83.8	225	6
2023-08-28T00:00	19713	61	-54.0	-83.9	225	6
2023-08-28T00:00	19743	60	-54.1	-84.0	228	6
2023-08-28T00:00	19761	60	-53.9	-83.8	232	6
2023-08-28T00:00	19785	60	-53.6	-83.6	237	5
2023-08-28T00:00	19805	60	-53.7	-83.7	243	5
2023-08-28T00:00	19831	60	-53.9	-83.8	249	5
2023-08-28T00:00	19854	59	-54.0	-83.4	256	5
2023-08-28T00:00	19875	59	-54.2	-83.6	263	5
2023-08-28T00:00	19902	59	-54.4	-83.7	271	5
2023-08-28T00:00	19921	59	-54.5	-83.8	280	5
2023-08-28T00:00	19943	59	-54.6	-83.9	289	4
2023-08-28T00:00	19966	58	-54.4	-83.7	298	4
2023-08-28T00:00	19988	58	-54.1	-83.5	307	4
2023-08-28T00:00	20013	58	-54.1	-83.5	316	3
2023-08-28T00:00	20031	58	-54.2	-83.6	326	3
2023-08-28T00:00	20051	58	-54.4	-83.7	335	3
2023-08-28T00:00	20076	57	-54.5	-83.8	343	2
2023-08-28T00:00	20098	57	-54.6	-83.9	346	2
2023-08-28T00:00	20123	57	-54.7	-83.9	342	2
2023-08-28T00:00	20143	57	-54.8	-84.0	326	1
2023-08-28T00:00	20168	57	-54.5	-83.8	301	2
2023-08-28T00:00	20189	56	-54.2	-83.6	281	2
2023-08-28T00:00	20217	56	-54.2	-84.0	271	2
2023-08-28T00:00	20234	56	-54.2	-84.0	266	3
2023-08-28T00:00	20262	56	-54.2	-84.0	263	4
2023-08-28T00:00	20280	56	-54.3	-83.6	261	4
2023-08-28T00:00	20304	55	-54.4	-83.7	260	5
2023-08-28T00:00	20328	55	-54.6	-83.9	260	5
2023-08-28T00:00	20352	55	-54.7	-83.9	260	5
2023-08-28T00:00	20379	55	-54.8	-84.0	262	5
2023-08-28T00:00	20403	54	-54.9	-84.1	264	5
2023-08-28T00:00	20424	54	-55.0	-84.2	267	5
2023-08-28T00:00	20446	54	-54.8	-84.0	272	5
2023-08-28T00:00	20473	54	-54.6	-83.9	277	4
2023-08-28T00:00	20493	54	-54.7	-83.9	284	4
2023-08-28T00:00	20518	54	-54.8	-84.0	291	3
2023-08-28T00:00	20543	53	-54.9	-84.1	298	3
2023-08-28T00:00	20563	53	-55.1	-83.8	305	3
2023-08-28T00:00	20588	53	-55.2	-83.9	314	2
2023-08-28T00:00	20609	53	-55.3	-84.0	326	2
2023-08-28T00:00	20634	53	-55.5	-84.1	348	1
2023-08-28T00:00	20657	52	-55.6	-84.2	34	1
2023-08-28T00:00	20683	52	-55.8	-84.3	99	1
2023-08-28T00:00	20703	52	-55.9	-84.4	144	1
2023-08-28T00:00	20732	52	-56.1	-84.6	177	1
2023-08-28T00:00	20754	52	-56.0	-84.9	201	2
2023-08-28T00:00	20777	51	-55.6	-84.6	218	3
2023-08-28T00:00	20799	51	-55.1	-84.2	229	3
2023-08-28T00:00	20821	51	-54.9	-84.1	237	4
2023-08-28T00:00	20845	51	-54.9	-84.1	243	5
2023-08-28T00:00	20870	51	-55.0	-84.2	247	5
2023-08-28T00:00	20890	50	-55.1	-84.2	250	6
2023-08-28T00:00	20919	50	-55.0	-84.2	252	6
2023-08-28T00:00	20937	50	-54.6	-84.3	255	7
2023-08-28T00:00	20966	50	-54.5	-84.3	259	7
2023-08-28T00:00	20982	50	-54.4	-84.2	263	7
2023-08-28T00:00	21010	50	-54.5	-84.3	269	6
2023-08-28T00:00	21036	49	-54.4	-84.2	277	6
2023-08-28T00:00	21055	49	-54.1	-84.0	286	6
2023-08-28T00:00	21081	49	-53.9	-83.8	296	5
2023-08-28T00:00	21101	49	-53.9	-83.8	306	5
2023-08-28T00:00	21125	49	-54.0	-83.9	316	5
2023-08-28T00:00	21149	49	-54.1	-84.0	325	5
2023-08-28T00:00	21169	48	-54.2	-84.0	334	5
2023-08-28T00:00	21193	48	-54.3	-83.6	342	5
2023-08-28T00:00	21211	48	-54.3	-83.6	349	5
2023-08-28T00:00	21238	48	-54.4	-83.7	355	6
2023-08-28T00:00	21262	48	-54.5	-83.8	1	6
2023-08-28T00:00	21280	48	-54.6	-83.9	7	6
2023-08-28T00:00	21306	47	-54.7	-83.9	14	6
2023-08-28T00:00	21328	47	-54.9	-84.1	21	6
2023-08-28T00:00	21352	47	-55.1	-83.8	28	6
2023-08-28T00:00	21372	47	-55.2	-83.9	35	5
2023-08-28T00:00	21403	47	-55.3	-84.0	41	5
2023-08-28T00:00	21424	46	-55.4	-84.0	48	5
2023-08-28T00:00	21444	46	-55.4	-84.0	56	5
2023-08-28T00:00	21474	46	-55.5	-84.5	65	4
2023-08-28T00:00	21492	46	-55.5	-84.5	75	4
2023-08-28T00:00	21520	46	-55.5	-84.5	86	3
2023-08-28T00:00	21541	46	-55.4	-84.5	98	3
2023-08-28T00:00	21566	45	-55.3	-84.4	110	3
2023-08-28T00:00	21586	45	-54.9	-84.1	126	2
2023-08-28T00:00	21608	45	-54.9	-84.1	148	2
2023-08-28T00:00	21632	45	-55.0	-84.2	174	2
2023-08-28T00:00	21662	45	-55.0	-84.2	199	2
2023-08-28T00:00	21680	45	-55.1	-84.2	218	2
2023-08-28T00:00	21707	44	-55.1	-84.2	233	2
2023-08-28T00:00	21732	44	-55.3	-84.4	247	2
2023-08-28T00:00	21752	44	-55.3	-84.4	268	1
2023-08-28T00:00	21773	44	-55.1	-84.2	310	1
2023-08-28T00:00	21796	44	-54.8	-84.5	1	1
2023-08-28T00:00	21822	44	-54.6	-84.3	25	2
2023-08-28T00:00	21843	43	-54.6	-84.3	37	2
2023-08-28T00:00	21870	43	-54.7	-84.4	45	3
2023-08-28T00:00	21886	43	-54.7	-83.9	52	3
2023-08-28T00:00	21916	43	-54.9	-84.1	60	3
2023-08-28T00:00	21936	43	-54.9	-84.1	70	4
2023-08-28T00:00	21961	43	-54.9	-84.1	81	4
2023-08-28T00:00	21983	43	-54.8	-84.0	91	4
2023-08-28T00:00	22011	42	-54.8	-84.0	99	5
2023-08-28T00:00	22028	42	-54.9	-84.1	106	5
2023-08-28T00:00	22050	42	-54.9	-84.1	112	6
2023-08-28T00:00	22075	42	-54.9	-84.1	116	6
2023-08-28T00:00	22093	42	-55.0	-84.2	121	6
2023-08-28T00:00	22118	42	-55.2	-84.3	126	6
2023-08-28T00:00	22146	42	-55.3	-84.4	130	6
2023-08-28T00:00	22162	41	-55.1	-84.2	133	6
2023-08-28T00:00	22183	41	-55.0	-84.6	137	5
2023-08-28T00:00	22208	41	-54.7	-84.4	140	4
2023-08-28T00:00	22234	41	-54.7	-84.4	143	4
2023-08-28T00:00	22257	41	-54.7	-84.4	148	3
2023-08-28T00:00	22279	41	-54.7	-84.4	155	3
2023-08-28T00:00	22304	40	-54.6	-84.3	162	2
2023-08-28T00:00	22324	40	-54.5	-84.3	167	2
2023-08-28T00:00	22350	40	-54.5	-84.3	167	2
2023-08-28T00:00	22372	40	-54.3	-84.1	161	1
2023-08-28T00:00	22399	40	-53.9	-83.8	145	1
2023-08-28T00:00	22418	40	-53.8	-84.2	124	1
2023-08-28T00:00	22447	40	-53.8	-84.2	109	1
2023-08-28T00:00	22467	39	-53.7	-84.2	103	2
2023-08-28T00:00	22490	39	-53.7	-84.2	105	2
2023-08-28T00:00	22516	39	-53.8	-84.2	114	2
2023-08-28T00:00	22540	39	-53.7	-84.2	129	2
2023-08-28T00:00	22565	39	-53.7	-83.7	147	2
2023-08-28T00:00	22587	39	-53.7	-83.7	161	2
2023-08-28T00:00	22608	39	-53.8	-83.7	171	2
2023-08-28T00:00	22637	38	-53.9	-83.8	178	2
2023-08-28T00:00	22660	38	-54.1	-84.0	185	2
2023-08-28T00:00	22680	38	-54.1	-84.0	194	2
2023-08-28T00:00	22712	38	-53.9	-83.8	210	1
2023-08-28T00:00	22735	38	-53.8	-83.7	236	1
2023-08-28T00:00	22757	38	-53.8	-83.7	266	1
2023-08-28T00:00	22784	38	-53.9	-83.8	287	1
2023-08-28T00:00	22806	37	-53.9	-83.8	304	1
2023-08-28T00:00	22837	37	-53.9	-83.8	334	0
2023-08-28T00:00	22859	37	-53.8	-83.7	12	0
2023-08-28T00:00	22879	37	-53.8	-83.7	13	1
2023-08-28T00:00	22908	37	-53.8	-83.7	359	1
2023-08-28T00:00	22932	37	-53.7	-83.7	349	1
2023-08-28T00:00	22959	37	-53.6	-83.6	344	2
2023-08-28T00:00	22982	36	-53.6	-83.6	344	2
2023-08-28T00:00	23005	36	-53.7	-83.7	348	2
2023-08-28T00:00	23032	36	-53.9	-83.8	357	2
2023-08-28T00:00	23053	36	-53.9	-83.8	9	2
2023-08-28T00:00	23083	36	-53.7	-83.7	25	2
2023-08-28T00:00	23105	36	-53.8	-83.7	42	2
2023-08-28T00:00	23128	36	-53.9	-83.8	55	2
2023-08-28T00:00	23152	35	-54.1	-84.0	62	1
2023-08-28T00:00	23179	35	-54.2	-84.0	60	1
2023-08-28T00:00	23206	35	-54.3	-84.1	45	1
2023-08-28T00:00	23230	35	-54.3	-84.1	16	1
2023-08-28T00:00	23258	35	-54.3	-84.1	0	1
2023-08-28T00:00	23285	35	-54.1	-84.0	6	1
2023-08-28T00:00	23311	35	-54.1	-84.5	26	1
2023-08-28T00:00	23336	34	-54.0	-84.4	46	1
2023-08-28T00:00	23360	34	-53.9	-84.3	62	2
2023-08-28T00:00	23390	34	-53.8	-84.2	73	2
2023-08-28T00:00	23412	34	-53.7	-84.2	82	2
2023-08-28T00:00	23437	34	-53.8	-84.2	90	2
2023-08-28T00:00	23464	34	-53.8	-84.2	97	2
2023-08-28T00:00	23489	34	-53.7	-84.2	102	2
2023-08-28T00:00	23512	34	-53.8	-83.7	103	1
2023-08-28T00:00	23538	33	-53.8	-83.7	99	1
2023-08-28T00:00	23561	33	-53.8	-83.7	80	1
2023-08-28T00:00	23587	33	-53.9	-83.8	47	1
2023-08-28T00:00	23618	33	-53.9	-83.8	31	1
2023-08-28T00:00	23639	33	-53.9	-83.8	29	1
2023-08-28T00:00	23668	33	-53.7	-83.7	31	1
2023-08-28T00:00	23690	33	-53.7	-83.7	33	2
2023-08-28T00:00	23716	32	-53.8	-83.7	36	2
2023-08-28T00:00	23742	32	-53.8	-84.2	40	2
2023-08-28T00:00	23764	32	-53.8	-84.2	44	1
2023-08-28T00:00	23787	32	-53.7	-84.2	47	1
2023-08-28T00:00	23821	32	-53.7	-84.2	44	1
2023-08-28T00:00	23841	32	-53.6	-84.1	24	1
2023-08-28T00:00	23866	32	-53.4	-83.9	342	1
2023-08-28T00:00	23890	32	-53.3	-83.9	320	1
2023-08-28T00:00	23915	32	-53.2	-83.8	316	1
2023-08-28T00:00	23941	31	-53.1	-83.7	321	1
2023-08-28T00:00	23960	31	-53.0	-83.6	330	1
2023-08-28T00:00	23982	31	-52.9	-83.6	340	2
2023-08-28T00:00	24014	31	-52.9	-83.6	348	2
2023-08-28T00:00	24039	31	-52.8	-83.5	351	2
2023-08-28T00:00	24054	31	-52.7	-83.4	350	2
2023-08-28T00:00	24085	31	-52.6	-83.3	344	2
2023-08-28T00:00	24101	31	-52.6	-83.3	334	2
2023-08-28T00:00	24127	30	-52.6	-83.3	317	1
2023-08-28T00:00	24161	30	-52.6	-83.3	300	1
2023-08-28T00:00	24178	30	-52.6	-83.3	289	1
2023-08-28T00:00	24197	30	-52.7	-83.4	287	1
2023-08-28T00:00	24221	30	-52.5	-83.3	290	1
2023-08-28T00:00	24252	30	-52.4	-83.8	288	1
2023-08-28T00:00	24274	30	-52.2	-83.6	278	1
2023-08-28T00:00	24301	30	-52.2	-83.6	266	2
2023-08-28T00:00	24316	30	-52.2	-83.6	257	2
2023-08-28T00:00	24343	29	-52.3	-83.7	252	2
2023-08-28T00:00	24365	29	-52.1	-83.5	252	2
2023-08-28T00:00	24390	29	-52.2	-83.6	256	2
2023-08-28T00:00	24411	29	-52.1	-83.0	263	1
2023-08-28T00:00	24434	29	-52.2	-83.1	274	1
2023-08-28T00:00	24455	29	-52.3	-83.1	291	1
2023-08-28T00:00	24488	29	-52.4	-83.2	313	1
2023-08-28T00:00	24509	29	-52.4	-83.2	327	1
2023-08-28T00:00	24523	29	-52.6	-83.3	325	1
2023-08-28T00:00	24553	29	-52.6	-83.3	319	1
2023-08-28T00:00	24581	28	-52.3	-83.1	318	1
2023-08-28T00:00	24603	28	-52.2	-83.6	321	1
2023-08-28T00:00	24636	28	-52.4	-83.8	330	1
2023-08-28T00:00	24653	28	-52.3	-83.7	344	1
2023-08-28T00:00	24679	28	-52.4	-83.8	2	1
2023-08-28T00:00	24702	28	-52.3	-83.7	14	2
2023-08-28T00:00	24725	28	-52.0	-83.5	21	2
2023-08-28T00:00	24755	28	-51.9	-83.4	24	3
2023-08-28T00:00	24780	28	-51.7	-83.2	25	3
2023-08-28T00:00	24812	27	-51.7	-83.2	27	4
2023-08-28T00:00	24831	27	-51.5	-83.1	30	4
2023-08-28T00:00	24857	27	-51.6	-83.2	35	5
2023-08-28T00:00	24883	27	-51.7	-83.2	41	5
2023-08-28T00:00	24914	27	-51.7	-83.2	48	6
2023-08-28T00:00	24933	27	-51.7	-83.2	53	6
2023-08-28T00:00	24960	27	-51.7	-83.2	59	6
2023-08-28T00:00	24989	27	-51.5	-83.1	64	6
2023-08-28T00:00	25019	27	-51.5	-83.1	69	6
2023-08-28T00:00	25038	26	-51.4	-83.0	74	6
2023-08-28T00:00	25072	26	-51.3	-82.9	78	6
2023-08-28T00:00	25093	26	-51.0	-82.7	81	5
2023-08-28T00:00	25119	26	-50.9	-83.3	85	5
2023-08-28T00:00	25146	26	-50.8	-83.2	88	5
2023-08-28T00:00	25172	26	-50.7	-83.1	92	5
2023-08-28T00:00	25201	26	-50.5	-83.0	96	4
2023-08-28T00:00	25239	26	-50.4	-82.9	102	4
2023-08-28T00:00	25248	26	-50.4	-82.9	107	4
2023-08-28T00:00	25281	26	-50.2	-82.8	112	5
2023-08-28T00:00	25303	25	-50.2	-82.8	117	5
2023-08-28T00:00	25326	25	-50.3	-82.8	121	5
2023-08-28T00:00	25362	25	-50.2	-82.8	123	5
2023-08-28T00:00	25379	25	-50.1	-82.7	124	5
2023-08-28T00:00	25406	25	-50.2	-82.8	123	4
2023-08-28T00:00	25428	25	-50.0	-82.6	120	3
2023-08-28T00:00	25455	25	-49.5	-82.3	114	3
2023-08-28T00:00	25477	25	-49.5	-82.3	104	2
2023-08-28T00:00	25513	25	-49.5	-82.3	89	1
2023-08-28T00:00	25535	25	-49.4	-82.2	75	1
2023-08-28T00:00	25564	24	-49.2	-82.7	69	2
2023-08-28T00:00	25585	24	-49.0	-82.6	70	2
2023-08-28T00:00	25603	24	-48.8	-82.4	72	2
2023-08-28T00:00	25635	24	-48.8	-81.7	73	3
2023-08-28T00:00	25661	24	-48.7	-81.7	75	3
2023-08-28T00:00	25684	24	-48.7	-81.7	76	4
2023-08-28T00:00	25708	24	-48.8	-81.7	79	4
2023-08-28T00:00	25730	24	-48.9	-81.8	82	4
2023-08-28T00:00	25765	24	-48.9	-81.8	86	5
2023-08-28T00:00	25780	24	-48.9	-81.8	90	5
2023-08-28T00:00	25807	24	-48.8	-81.7	93	5
2023-08-28T00:00	25828	23	-48.8	-81.7	95	5
2023-08-28T00:00	25864	23	-48.8	-81.7	96	5
2023-08-28T00:00	25896	23	-48.8	-81.7	94	5
2023-08-28T00:00	25915	23	-48.6	-82.3	91	5
2023-08-28T00:00	25937	23	-48.6	-82.3	86	5
2023-08-28T00:00	25957	23	-48.4	-82.2	80	5
2023-08-28T00:00	25988	23	-48.3	-82.1	74	4
2023-08-28T00:00	26022	23	-48.3	-82.1	69	4
2023-08-28T00:00	26041	23	-48.4	-81.4	65	4
2023-08-28T00:00	26077	23	-48.5	-81.5	62	3
2023-08-28T00:00	26096	23	-48.7	-81.7	60	3
2023-08-28T00:00	26132	22	-48.6	-81.6	60	3
2023-08-28T00:00	26154	22	-48.6	-81.6	60	2
2023-08-28T00:00	26177	22	-48.3	-82.1	60	2
2023-08-28T00:00	26201	22	-48.2	-82.0	60	3
2023-08-28T00:00	26237	22	-48.0	-81.9	61	3
2023-08-28T00:00	26262	22	-47.9	-81.8	61	4
2023-08-28T00:00	26301	22	-47.7	-81.6	63	4
2023-08-28T00:00	26322	22	-47.7	-81.6	67	4
2023-08-28T00:00	26340	22	-47.7	-81.6	73	5
2023-08-28T00:00	26370	22	-47.7	-81.6	81	5
2023-08-28T00:00	26408	22	-47.7	-81.6	89	5
2023-08-28T00:00	26426	21	-47.5	-81.5	98	4
2023-08-28T00:00	26458	21	-47.5	-81.5	103	4
2023-08-28T00:00	26483	21	-47.4	-81.4	106	4
2023-08-28T00:00	26508	21	-47.2	-81.3	107	4
2023-08-28T00:00	26534	21	-47.0	-81.1	105	3
2023-08-28T00:00	26577	21	-46.6	-81.7	104	3
2023-08-28T00:00	26590	21	-46.2	-81.4	105	3
2023-08-28T00:00	26628	21	-46.0	-81.2	108	3
2023-08-28T00:00	26647	21	-45.8	-81.1	112	3
2023-08-28T00:00	26679	21	-45.6	-80.9	116	3
2023-08-28T00:00	26697	21	-45.8	-81.1	120	3
2023-08-28T00:00	26729	20	-45.8	-81.1	123	3
2023-08-28T00:00	26754	20	-45.9	-80.3	124	3
2023-08-28T00:00	26785	20	-46.0	-80.4	124	3
2023-08-28T00:00	26806	20	-46.2	-80.6	124	4
2023-08-28T00:00	26833	20	-46.3	-80.6	125	4
2023-08-28T00:00	26853	20	-46.3	-80.6	128	4
2023-08-28T00:00	26882	20	-46.3	-80.6	131	5
2023-08-28T00:00	26908	20	-46.0	-81.2	136	5
2023-08-28T00:00	26931	20	-45.9	-81.2	142	5
2023-08-28T00:00	26948	20	-45.7	-81.0	147	5
2023-08-28T00:00	26977	20	-45.3	-80.7	152	4
2023-08-28T00:00	27008	20	-45.1	-80.6	155	4
2023-08-28T00:00	27025	20	-44.8	-80.4	156	3
2023-08-28T00:00	27054	20	-44.9	-80.4	155	3
2023-08-28T00:00	27065	19	-44.5	-80.1	151	2
2023-08-28T00:00	27099	19	-44.5	-80.1	141	1
2023-08-28T00:00	27115	19	-44.4	-80.1	121	1
2023-08-28T00:00	27137	19	-44.4	-80.1	105	1
2023-08-28T00:00	27171	19	-44.5	-80.1	111	1
2023-08-28T00:00	27176	19	-44.3	-80.0	128	1
2023-08-28T00:00	27207	19	-44.2	-79.9	143	1
2023-08-28T00:00	27236	19	-44.1	-79.9	149	1
2023-08-28T00:00	27249	19	-44.0	-79.8	148	1
2023-08-28T00:00	27273	19	-43.9	-79.7	137	1
2023-08-28T00:00	27311	19	-43.9	-79.7	119	1
2023-08-28T00:00	27330	19	-44.0	-79.8	108	1
2023-08-28T00:00	27356	19	-44.1	-79.9	107	1
2023-08-28T00:00	27382	19	-44.2	-79.9	111	2
2023-08-28T00:00	27414	19	-44.2	-79.9	117	2
2023-08-28T00:00	27417	18	-44.3	-80.0	122	3
2023-08-28T00:00	27464	18	-44.2	-79.9	125	4
2023-08-28T00:00	27481	18	-43.9	-79.7	128	4
2023-08-28T00:00	27523	18	-44.0	-79.8	129	5
2023-08-28T00:00	27540	18	-44.0	-79.8	131	6
2023-08-28T00:00	27567	18	-44.1	-79.9	131	6
2023-08-28T00:00	27580	18	-44.0	-79.8	132	6
2023-08-28T00:00	27624	18	-44.1	-79.9	133	5
2023-08-28T00:00	27638	18	-43.9	-79.7	134	5
2023-08-28T00:00	27677	18	-44.0	-79.8	135	5
2023-08-28T00:00	27700	18	-43.9	-79.7	136	5
2023-08-28T00:00	27726	18	-43.9	-79.7	138	5
2023-08-28T00:00	27765	18	-43.9	-79.7	138	5
2023-08-28T00:00	27797	17	-44.0	-79.8	138	5
2023-08-28T00:00	27820	17	-43.9	-79.7	137	5
2023-08-28T00:00	27854	17	-43.9	-79.7	137	6
2023-08-28T00:00	27889	17	-43.8	-79.6	138	6
2023-08-28T00:00	27910	17	-43.8	-79.6	139	7
2023-08-28T00:00	27944	17	-43.7	-79.6	141	7
2023-08-28T00:00	27975	17	-43.7	-79.6	143	7
2023-08-28T00:00	28003	17	-43.9	-79.7	145	7
2023-08-28T00:00	28030	17	-44.0	-79.8	147	7
2023-08-28T00:00	28063	17	-43.9	-79.7	149	6
2023-08-28T00:00	28094	17	-43.9	-79.7	152	6
2023-08-28T00:00	28107	17	-44.1	-79.9	157	5
2023-08-28T00:00	28148	17	-44.1	-79.9	164	5
2023-08-28T00:00	28169	17	-43.8	-79.6	173	4
2023-08-28T00:00	28201	16	-43.8	-79.6	182	5
2023-08-28T00:00	28215	16	-43.6	-80.4	190	5
2023-08-28T00:00	28260	16	-43.6	-80.4	197	5
2023-08-28T00:00	28270	16	-43.6	-80.4	201	5
2023-08-28T00:00	28301	16	-43.6	-80.4	205	5
2023-08-28T00:00	28335	16	-43.1	-80.1	207	5
2023-08-28T00:00	28358	16	-42.8	-79.9	209	5
2023-08-28T00:00	28385	16	-42.7	-79.8	211	4
2023-08-28T00:00	28409	16	-42.7	-79.8	212	4
2023-08-28T00:00	28440	16	-42.8	-79.9	211	4
2023-08-28T00:00	28458	16	-42.6	-79.7	209	4
2023-08-28T00:00	28490	16	-42.5	-79.7	206	4
2023-08-28T00:00	28500	16	-42.4	-79.6	203	4
2023-08-28T00:00	28531	16	-42.5	-79.7	200	4
2023-08-28T00:00	28558	16	-42.6	-79.7	198	4
2023-08-28T00:00	28589	16	-42.4	-79.6	197	4
2023-08-28T00:00	28614	15	-42.4	-79.6	197	4
2023-08-28T00:00	28636	15	-42.4	-79.6	199	4
2023-08-28T00:00	28653	15	-42.6	-79.7	201	4
2023-08-28T00:00	28688	15	-42.6	-79.7	204	5
2023-08-28T00:00	28730	15	-42.4	-79.6	208	5
2023-08-28T00:00	28733	15	-42.3	-79.5	213	5
2023-08-28T00:00	28764	15	-42.3	-79.5	219	5
2023-08-28T00:00	28803	15	-42.2	-79.5	227	5
2023-08-28T00:00	28805	15	-42.3	-79.5	237	5
2023-08-28T00:00	28839	15	-42.0	-79.3	246	5
2023-08-28T00:00	28866	15	-41.9	-79.2	254	6
2023-08-28T00:00	28891	15	-42.0	-79.3	259	7
2023-08-28T00:00	28920	15	-41.8	-79.2	262	7
2023-08-28T00:00	28946	15	-41.5	-79.0	264	8
2023-08-28T00:00	28963	15	-41.3	-79.9	266	9
2023-08-28T00:00	28991	15	-40.9	-79.7	267	9
2023-08-28T00:00	29014	15	-40.6	-79.5	269	9
2023-08-28T00:00	29034	15	-40.5	-79.4	270	9
2023-08-28T00:00	29059	14	-40.2	-79.2	273	9
2023-08-28T00:00	29092	14	-40.0	-79.0	277	9
2023-08-28T00:00	29120	14	-39.8	-78.9	283	9
2023-08-28T00:00	29128	14	-39.3	-78.5	289	9
2023-08-28T00:00	29158	14	-39.0	-78.3	294	9
2023-08-28T00:00	29188	14	-38.8	-78.2	297	9
2023-08-28T00:00	29204	14	-38.8	-78.2	299	9
2023-08-28T00:00	29224	14	-38.7	-78.1	299	9
2023-08-28T00:00	29256	14	-38.7	-78.1	299	9
2023-08-28T00:00	29286	14	-38.6	-78.1	298	9
2023-08-28T00:00	29326	14	-38.7	-78.1	298	9
2023-08-28T00:00	29330	14	-38.8	-78.2	298	8
2023-08-28T00:00	29354	14	-38.9	-78.3	299	8
2023-08-28T00:00	29389	14	-38.9	-78.3	301	8
2023-08-28T00:00	29414	14	-39.0	-78.3	304	7
2023-08-28T00:00	29455	14	-39.1	-78.4	308	7
2023-08-28T00:00	29478	14	-39.1	-78.4	313	6
2023-08-28T00:00	29501	14	-39.2	-78.5	318	6
2023-08-28T00:00	29534	14	-39.1	-78.4	324	5
2023-08-28T00:00	29553	13	-39.1	-78.4	330	4
2023-08-28T00:00	29593	13	-39.1	-78.4	337	4
2023-08-28T00:00	29613	13	-39.2	-78.5	346	3
2023-08-28T00:00	29642	13	-39.1	-78.4	1	2
2023-08-28T00:00	29667	13	-39.1	-78.4	27	2
2023-08-28T00:00	29726	13	-39.0	-78.3	65	1
2023-08-28T00:00	29728	13	-39.1	-78.4	100	2
2023-08-28T00:00	29757	13	-39.0	-78.3	123	2
2023-08-28T00:00	29786	13	-39.2	-78.5	140	2
2023-08-28T00:00	29808	13	-39.2	-78.5	157	3
2023-08-28T00:00	29843	13	-39.0	-78.3	171	3
2023-08-28T00:00	29862	13	-38.8	-78.2	182	3
2023-08-28T00:00	29886	13	-38.7	-78.1	189	4
2023-08-28T00:00	29905	13	-38.6	-78.1	194	4
2023-08-28T00:00	29937	13	-38.8	-78.2	196	5
2023-08-28T00:00	29963	13	-38.9	-78.3	197	6
2023-08-28T00:00	29978	13	-39.0	-78.3	198	6
2023-08-28T00:00	30016	13	-39.2	-78.5	199	7
2023-08-28T00:00	30020	13	-39.4	-78.6	200	8
2023-08-28T00:00	30059	13	-39.5	-78.7	202	8
2023-08-28T00:00	30102	12	-39.6	-78.8	204	9
2023-08-28T00:00	30104	12	-39.7	-78.8	206	9
2023-08-28T00:00	30135	12	-39.7	-78.8	208	9
2023-08-28T00:00	30169	12	-39.4	-78.6	210	9
2023-08-28T00:00	30180	12	-39.6	-78.8	213	8
2023-08-28T00:00	30243	12	-39.7	-78.8	215	8
2023-08-28T00:00	30265	12	-39.9	-79.0	219	7
2023-08-28T00:00	30269	12	-40.1	-79.1	224	7
2023-08-28T00:00	30299	12	-40.1	-79.1	231	6
2023-08-28T00:00	30332	12	-40.2	-79.2	239	6
2023-08-28T00:00	30366	12	-40.3	-79.2	248	6
2023-08-28T00:00	30392	12	-40.3	-79.2	257	5
2023-08-28T00:00	30427	12	-40.2	-79.2	265	5
2023-08-28T00:00	30445	12	-40.2	-79.2	272	5
2023-08-28T00:00	30476	12	-40.3	-79.2	277	5
2023-08-28T00:00	30497	12	-40.5	-79.4	281	5
2023-08-28T00:00	30530	12	-40.2	-79.2	284	5
2023-08-28T00:00	30547	12	-40.1	-79.1	286	4
2023-08-28T00:00	30603	12	-40.2	-79.2	288	4
2023-08-28T00:00	30617	12	-40.5	-79.4	289	3
2023-08-28T00:00	30653	12	-40.6	-79.5	288	3
2023-08-28T00:00	30694	11	-40.8	-79.6	284	3
2023-08-28T00:00	30722	11	-41.1	-79.8	271	3
2023-08-28T00:00	30751	11	-41.1	-79.8	268	4
2023-08-28T00:00	30780	11	-41.3	-78.8	266	4
2023-08-28T00:00	30819	11	-41.5	-79.0	266	5
2023-08-28T00:00	30875	11	-41.7	-79.1	267	5
2023-08-28T00:00	30903	11	-42.0	-79.3	268	6
2023-08-28T00:00	30930	11	-41.9	-79.2	269	7
2023-08-28T00:00	30979	11	-41.9	-79.2	270	7
2023-08-28T00:00	31012	11	-42.0	-79.3	272	7
2023-08-28T00:00	31045	11	-42.0	-79.3	273	7
2023-08-28T00:00	31065	11	-42.1	-79.4	275	7
2023-08-28T00:00	31088	11	-42.2	-79.5	278	6
2023-08-28T00:00	31113	11	-42.2	-80.6	283	6
2023-08-28T00:00	31132	11	-42.2	-80.6	288	5
2023-08-28T00:00	31168	11	-42.2	-80.6	294	5
2023-08-28T00:00	31195	11	-42.0	-80.4	298	4
2023-08-28T00:00	31224	11	-41.8	-80.3	299	4
2023-08-28T00:00	31251	11	-41.7	-80.2	296	4
2023-08-28T00:00	31286	10	-41.6	-80.1	290	4
2023-08-28T00:00	31301	10	-41.6	-80.1	284	4
2023-08-28T00:00	31337	10	-41.5	-80.1	280	4
2023-08-28T00:00	31354	10	-41.4	-80.0	277	5
2023-08-28T00:00	31395	10	-41.3	-79.9	275	5
2023-08-28T00:00	31403	10	-41.0	-79.7	273	5
2023-08-28T00:00	31434	10	-40.8	-79.6	271	5
2023-08-28T00:00	31467	10	-40.6	-79.5	269	5
2023-08-28T00:00	31497	10	-40.5	-79.4	266	5
2023-08-28T06:00	113	998	11.4	11.1	262	2
2023-08-28T06:00	139	995	12.0		269	3
2023-08-28T06:00	166	992	12.6	10.2	266	4
2023-08-28T06:00	187	989	12.8	9.9	267	5
2023-08-28T06:00	207	987	12.8	10.1	269	6
2023-08-28T06:00	230	984	12.7	10.0	272	7
2023-08-28T06:00	256	981	12.5	9.8	276	8
2023-08-28T06:00	281	978	12.5	9.7	280	8
2023-08-28T06:00	306	975	12.4	9.7	283	8
2023-08-28T06:00	332	972	12.2	9.5	286	8
2023-08-28T06:00	359	969	12.0	9.5	288	8
2023-08-28T06:00	385	966	11.8	9.5	289	8
2023-08-28T06:00	411	963	11.6	9.3	288	8
2023-08-28T06:00	439	960	11.4	9.2	287	8
2023-08-28T06:00	462	957	11.7	9.0	285	8
2023-08-28T06:00	487	955	11.8	8.2	283	8
2023-08-28T06:00	507	952	11.7	7.7	282	8
2023-08-28T06:00	529	950	11.5	7.8	281	8
2023-08-28T06:00	554	947	11.3	8.0	280	8
2023-08-28T06:00	580	944	11.1	8.1	278	8
2023-08-28T06:00	604	941	10.9	8.2	277	8
2023-08-28T06:00	626	939	10.7	8.2	276	8
2023-08-28T06:00	653	936	10.6	7.9	275	7
2023-08-28T06:00	674	933	10.5	7.5	275	7
2023-08-28T06:00	699	931	10.3	7.0	274	7
2023-08-28T06:00	724	928	10.2	6.2	273	7
2023-08-28T06:00	751	925	10.1	5.2	272	7
2023-08-28T06:00	780	922	9.9	5.6	271	8
2023-08-28T06:00	803	919	10.0	5.0	270	8
2023-08-28T06:00	828	916	9.9	4.9	269	9
2023-08-28T06:00	856	913	9.9	4.3	268	9
2023-08-28T06:00	880	911	9.8	3.5	267	10
2023-08-28T06:00	907	908	9.9	3.6	266	10
2023-08-28T06:00	932	905	9.9	3.2	265	10
2023-08-28T06:00	959	902	9.7	3.0	265	9
2023-08-28T06:00	983	899	9.6	2.9	264	9
2023-08-28T06:00	1013	896	9.5	2.4	264	9
2023-08-28T06:00	1042	893	9.4	2.2	264	9
2023-08-28T06:00	1069	890	9.3	2.1	265	9
2023-08-28T06:00	1096	887	9.1	1.9	266	10
2023-08-28T06:00	1122	885	9.0	1.8	266	10
2023-08-28T06:00	1147	882	8.8	1.7	265	10
2023-08-28T06:00	1174	879	8.7	1.2	264	10
2023-08-28T06:00	1200	876	8.6	1.0	263	10
2023-08-28T06:00	1230	873	8.4	1.0	262	10
2023-08-28T06:00	1258	870	8.4	-0.2	261	10
2023-08-28T06:00	1283	867	8.3	-0.2	260	10
2023-08-28T06:00	1312	864	8.0	-0.1	260	10
2023-08-28T06:00	1340	861	7.9	0.2	259	10
2023-08-28T06:00	1369	858	7.6	0.4	258	10
2023-08-28T06:00	1399	855	7.4	0.6	258	10
2023-08-28T06:00	1430	852	7.3	-0.1	256	11
2023-08-28T06:00	1454	849	7.2	-0.2	255	10
2023-08-28T06:00	1481	847	7.1	0.1	253	10
2023-08-28T06:00	1508	844	7.1	-0.3	251	10
2023-08-28T06:00	1538	841	7.1	-1.4	250	10
2023-08-28T06:00	1567	838	6.9	-1.0	250	10
2023-08-28T06:00	1599	835	6.7	-0.9	249	10
2023-08-28T06:00	1625	832	6.5	-0.8	249	10
2023-08-28T06:00	1653	829	6.3	-0.8	249	10
2023-08-28T06:00	1682	826	6.0	-0.8	249	10
2023-08-28T06:00	1710	823	5.7	-0.9	249	10
2023-08-28T06:00	1740	820	5.5	-1.0	249	10
2023-08-28T06:00	1769	818	5.2	-1.1	249	10
2023-08-28T06:00	1795	815	5.0	-1.2	250	11
2023-08-28T06:00	1822	812	4.8	-1.0	250	11
2023-08-28T06:00	1849	810	4.7	-1.0	251	11
2023-08-28T06:00	1880	807	4.4	-0.5	252	11
2023-08-28T06:00	1909	804	4.3	-1.3	252	11
2023-08-28T06:00	1940	801	4.1	-1.2	251	11
2023-08-28T06:00	1975	797	3.8	-1.2	250	11
2023-08-28T06:00	2001	794	3.6	-1.3	249	11
2023-08-28T06:00	2031	792	3.4	-1.2	248	11
2023-08-28T06:00	2058	789	3.1	-1.5	248	11
2023-08-28T06:00	2088	786	2.9	-1.5	248	11
2023-08-28T06:00	2114	784	2.6	-1.8	248	11
2023-08-28T06:00	2141	781	2.4	-1.9	248	11
2023-08-28T06:00	2167	778	2.2	-1.8	248	11
2023-08-28T06:00	2196	776	2.0	-2.2	248	11
2023-08-28T06:00	2224	773	2.0	-3.6	249	10
2023-08-28T06:00	2255	770	2.0	-3.4	250	10
2023-08-28T06:00	2287	767	1.8	-4.3	251	10
2023-08-28T06:00	2316	764	1.7	-6.0	252	11
2023-08-28T06:00	2343	762	1.8	-7.7	253	11
2023-08-28T06:00	2368	759	2.0	-9.1	253	12
2023-08-28T06:00	2396	757	1.9	-9.7	253	12
2023-08-28T06:00	2422	754	1.9	-11.4	253	12
2023-08-28T06:00	2452	752	2.2	-12.7	253	12
2023-08-28T06:00	2477	749	2.0	-12.4	252	12
2023-08-28T06:00	2505	747	1.9	-12.7	252	12
2023-08-28T06:00	2531	744	1.8	-13.2	251	12
2023-08-28T06:00	2556	742	1.7	-14.1	250	11
2023-08-28T06:00	2582	739	1.6	-13.6	250	11
2023-08-28T06:00	2609	737	1.5	-14.0	250	11
2023-08-28T06:00	2638	734	1.2	-12.2	250	11
2023-08-28T06:00	2665	732	1.1	-13.0	250	11
2023-08-28T06:00	2692	729	0.9	-11.2	251	11
2023-08-28T06:00	2718	727	0.9	-12.9	252	11
2023-08-28T06:00	2747	724	1.2	-17.5	253	10
2023-08-28T06:00	2777	722	1.1	-17.6	254	10
2023-08-28T06:00	2803	719	1.1	-17.8	253	10
2023-08-28T06:00	2831	717	1.1	-18.4	252	10
2023-08-28T06:00	2859	714	0.9	-18.7	251	10
2023-08-28T06:00	2887	712	0.7	-20.0	249	11
2023-08-28T06:00	2916	709	0.6	-20.4	248	11
2023-08-28T06:00	2946	707	0.3	-20.4	248	11
2023-08-28T06:00	2975	704	0.1	-20.6	248	11
2023-08-28T06:00	3005	702	0.0	-21.8	249	12
2023-08-28T06:00	3034	699	-0.2	-22.8	250	12
2023-08-28T06:00	3062	697	-0.3	-22.7	250	12
2023-08-28T06:00	3091	694	-0.5	-23.0	250	12
2023-08-28T06:00	3120	691	-0.5	-23.4	250	13
2023-08-28T06:00	3153	689	-0.7	-23.8	250	13
2023-08-28T06:00	3181	686	-0.9	-23.5	250	12
2023-08-28T06:00	3212	684	-1.0	-23.9	250	12
2023-08-28T06:00	3240	681	-1.2	-23.3	251	12
2023-08-28T06:00	3268	679	-1.2	-21.7	251	12
2023-08-28T06:00	3297	676	-1.4	-18.1	251	12
2023-08-28T06:00	3327	674	-1.5	-21.1	250	12
2023-08-28T06:00	3354	671	-1.6	-19.5	249	13
2023-08-28T06:00	3382	669	-1.8	-17.8	249	13
2023-08-28T06:00	3409	667	-2.1	-17.6	248	13
2023-08-28T06:00	3438	664	-2.2	-17.9	248	13
2023-08-28T06:00	3466	662	-2.5	-18.4	248	13
2023-08-28T06:00	3493	660	-2.7	-18.6	248	13
2023-08-28T06:00	3524	657	-3.0	-18.9	248	13
2023-08-28T06:00	3551	655	-3.2	-19.8	248	13
2023-08-28T06:00	3581	653	-3.1	-21.9	248	13
2023-08-28T06:00	3612	650	-2.9	-25.3	248	13
2023-08-28T06:00	3640	648	-2.6	-35.9	247	13
2023-08-28T06:00	3672	645	-2.7	-33.1	247	13
2023-08-28T06:00	3703	643	-2.8	-32.4	246	14
2023-08-28T06:00	3729	640	-2.9	-34.7	246	14
2023-08-28T06:00	3754	638	-3.1	-35.9	245	14
2023-08-28T06:00	3784	636	-3.3	-36.3	244	14
2023-08-28T06:00	3814	634	-3.5	-36.9	243	14
2023-08-28T06:00	3842	631	-3.5	-35.0	242	14
2023-08-28T06:00	3870	629	-3.7	-35.9	241	15
2023-08-28T06:00	3899	627	-3.8	-36.0	240	15
2023-08-28T06:00	3928	625	-3.8	-36.6	239	15
2023-08-28T06:00	3956	622	-4.0	-36.6	239	15
2023-08-28T06:00	3984	620	-4.1	-36.7	239	16
2023-08-28T06:00	4014	618	-4.3	-36.4	239	16
2023-08-28T06:00	4042	616	-4.6	-35.9	239	16
2023-08-28T06:00	4070	613	-4.7	-35.9	239	16
2023-08-28T06:00	4097	611	-4.9	-35.9	239	15
2023-08-28T06:00	4124	609	-4.9	-35.4	239	15
2023-08-28T06:00	4154	607	-5.1	-35.7	239	15
2023-08-28T06:00	4181	605	-5.3	-36.2	240	16
2023-08-28T06:00	4209	603	-5.5	-36.4	240	16
2023-08-28T06:00	4237	600	-5.7	-36.5	239	16
2023-08-28T06:00	4270	598	-5.7	-37.9	239	16
2023-08-28T06:00	4295	596	-6.0	-38.1	238	16
2023-08-28T06:00	4323	594	-6.3	-38.4	237	16
2023-08-28T06:00	4352	592	-6.6	-38.4	237	16
2023-08-28T06:00	4377	590	-6.8	-37.9	237	17
2023-08-28T06:00	4408	587	-7.0	-38.1	237	17
2023-08-28T06:00	4436	585	-7.3	-38.5	238	17
2023-08-28T06:00	4462	583	-7.5	-38.7	238	17
2023-08-28T06:00	4491	581	-7.8	-38.7	239	17
2023-08-28T06:00	4518	579	-8.0	-38.3	239	17
2023-08-28T06:00	4547	577	-8.1	-38.6	240	17
2023-08-28T06:00	4572	575	-8.1	-39.8	240	17
2023-08-28T06:00	4602	573	-8.0	-39.5	241	16
2023-08-28T06:00	4627	571	-8.1	-39.3	242	16
2023-08-28T06:00	4655	569	-8.1	-39.5	243	17
2023-08-28T06:00	4682	567	-8.2	-39.4	243	17
2023-08-28T06:00	4708	565	-8.3	-38.9	244	17
2023-08-28T06:00	4738	563	-8.2	-40.0	243	18
2023-08-28T06:00	4766	561	-8.2	-40.3	243	18
2023-08-28T06:00	4792	559	-8.4	-40.6	243	19
2023-08-28T06:00	4820	557	-8.5	-40.7	243	19
2023-08-28T06:00	4851	555	-8.5	-40.5	242	19
2023-08-28T06:00	4877	553	-8.6	-40.3	241	19
2023-08-28T06:00	4905	551	-8.7	-38.7	240	19
2023-08-28T06:00	4934	549	-8.9	-38.5	239	20
2023-08-28T06:00	4963	547	-8.9	-41.0	238	20
2023-08-28T06:00	4995	545	-8.9	-44.1	237	21
2023-08-28T06:00	5022	543	-8.8	-44.6	237	21
2023-08-28T06:00	5052	541	-9.1	-44.9	236	21
2023-08-28T06:00	5081	539	-9.1	-45.5	236	22
2023-08-28T06:00	5109	537	-9.2	-45.3	235	22
2023-08-28T06:00	5138	535	-9.3	-45.4	234	22
2023-08-28T06:00	5164	533	-9.5	-45.5	234	22
2023-08-28T06:00	5193	531	-9.6	-45.6	233	22
2023-08-28T06:00	5221	529	-9.7	-45.3	233	22
2023-08-28T06:00	5250	527	-9.9	-45.5	234	22
2023-08-28T06:00	5282	525	-10.1	-45.3	235	22
2023-08-28T06:00	5310	523	-10.3	-45.1	236	22
2023-08-28T06:00	5338	521	-10.4	-45.2	236	22
2023-08-28T06:00	5360	519	-10.6	-45.1	236	22
2023-08-28T06:00	5382	518	-10.6	-44.2	236	22
2023-08-28T06:00	5412	516	-10.7	-44.3	236	22
2023-08-28T06:00	5435	514	-10.8	-44.4	235	22
2023-08-28T06:00	5456	513	-10.9	-44.5	235	23
2023-08-28T06:00	5481	511	-11.1	-44.6	235	23
2023-08-28T06:00	5504	510	-11.3	-44.5	234	24
2023-08-28T06:00	5537	508	-11.6	-44.7	234	25
2023-08-28T06:00	5564	506	-11.7	-43.8	234	25
2023-08-28T06:00	5595	504	-11.9	-40.1	234	25
2023-08-28T06:00	5626	502	-12.2	-40.0	234	25
2023-08-28T06:00	5656	500	-12.4	-39.8	235	26
2023-08-28T06:00	5686	498	-12.7	-39.6	235	26
2023-08-28T06:00	5715	496	-13.0	-39.2	235	26
2023-08-28T06:00	5736	495	-13.0	-39.2	235	26
2023-08-28T06:00	5758	493	-13.0	-39.3	235	26
2023-08-28T06:00	5782	491	-13.0	-39.4	235	26
2023-08-28T06:00	5813	490	-13.2	-39.9	235	26
2023-08-28T06:00	5843	488	-13.4	-40.3	235	26
2023-08-28T06:00	5873	486	-13.5		236	26
2023-08-28T06:00	5899	484	-13.7	-40.7	237	26
2023-08-28T06:00	5927	482	-14.0	-40.9	238	26
2023-08-28T06:00	5955	481	-14.1	-41.3	239	27
2023-08-28T06:00	5983	479	-14.3	-41.6	239	27
2023-08-28T06:00	6010	477	-14.2	-41.9	240	27
2023-08-28T06:00	6038	475	-14.2	-40.0	240	28
2023-08-28T06:00	6065	474	-14.3	-37.7	241	28
2023-08-28T06:00	6096	472	-14.3	-30.1	241	29
2023-08-28T06:00	6125	470	-14.5	-29.6	240	29
2023-08-28T06:00	6155	468	-14.7	-30.5	240	30
2023-08-28T06:00	6184	466	-14.9	-27.2	239	31
2023-08-28T06:00	6213	464	-15.2	-24.8	238	32
2023-08-28T06:00	6236	463	-15.3	-22.5	237	32
2023-08-28T06:00	6262	462	-15.4	-22.1	237	32
2023-08-28T06:00	6283	460	-15.5	-21.6	236	33
2023-08-28T06:00	6305	459	-15.6	-21.6	235	33
2023-08-28T06:00	6330	457	-15.5	-22.0	234	33
2023-08-28T06:00	6355	456	-15.5	-22.4	234	33
2023-08-28T06:00	6386	454	-15.6	-22.4	233	33
2023-08-28T06:00	6416	452	-15.8	-22.7	233	33
2023-08-28T06:00	6448	450	-16.0	-22.8	233	34
2023-08-28T06:00	6471	449	-16.1	-22.3	233	34
2023-08-28T06:00	6502	447	-16.3	-22.1	234	34
2023-08-28T06:00	6529	445	-16.5	-22.2	234	34
2023-08-28T06:00	6558	444	-16.6	-22.3	234	34
2023-08-28T06:00	6589	442	-16.9	-22.2	234	34
2023-08-28T06:00	6619	440	-17.1	-21.8	233	34
2023-08-28T06:00	6650	438	-17.4	-21.5	232	35
2023-08-28T06:00	6679	436	-17.6	-21.3	232	35
2023-08-28T06:00	6712	435	-17.9	-21.4	231	35
2023-08-28T06:00	6745	433	-18.3	-21.5	230	35
2023-08-28T06:00	6771	431	-18.5	-21.4	229	35
2023-08-28T06:00	6802	429	-18.7	-21.4	229	36
2023-08-28T06:00	6831	428	-18.9	-21.5	228	36
2023-08-28T06:00	6858	426	-19.0	-21.3	228	37
2023-08-28T06:00	6885	425	-19.1	-21.4	227	37
2023-08-28T06:00	6916	423	-19.3	-21.5	227	37
2023-08-28T06:00	6947	421	-19.5	-21.7	227	38
2023-08-28T06:00	6981	419	-19.8	-22.1	227	38
2023-08-28T06:00	7002	418	-19.9	-22.1	227	38
2023-08-28T06:00	7024	417	-20.1	-22.3	227	38
2023-08-28T06:00	7050	415	-20.3	-22.3	228	38
2023-08-28T06:00	7087	413	-20.6	-22.7	228	38
2023-08-28T06:00	7111	412	-20.8	-23.0	228	39
2023-08-28T06:00	7138	410	-21.0	-22.9	228	39
2023-08-28T06:00	7175	408	-21.4	-23.2	228	39
2023-08-28T06:00	7211	406	-21.7	-23.4	228	39
2023-08-28T06:00	7246	405	-21.9	-23.6	229	39
2023-08-28T06:00	7275	403	-22.1	-23.8	229	39
2023-08-28T06:00	7306	401	-22.4	-24.1	229	39
2023-08-28T06:00	7333	400	-22.6	-24.2	229	39
2023-08-28T06:00	7362	398	-22.9	-24.5	229	39
2023-08-28T06:00	7388	397	-23.1	-24.7	229	39
2023-08-28T06:00	7416	395	-23.3	-24.7	229	39
2023-08-28T06:00	7451	393	-23.6	-25.1	229	39
2023-08-28T06:00	7481	392	-23.7		228	39
2023-08-28T06:00	7504	390	-23.9	-26.0	228	39
2023-08-28T06:00	7531	389	-24.1	-26.5	228	39
2023-08-28T06:00	7561	387	-24.3	-26.7	228	39
2023-08-28T06:00	7589	386	-24.5	-26.9	228	40
2023-08-28T06:00	7614	385	-24.6	-27.1	228	40
2023-08-28T06:00	7636	383	-24.8	-27.3	228	40
2023-08-28T06:00	7660	382	-25.0	-27.5	228	40
2023-08-28T06:00	7688	381	-25.2	-27.8	228	40
2023-08-28T06:00	7721	379	-25.4	-28.2	227	40
2023-08-28T06:00	7754	377	-25.6	-28.4	227	40
2023-08-28T06:00	7780	376	-25.8	-28.4	227	40
2023-08-28T06:00	7806	375	-26.1	-28.7	226	40
2023-08-28T06:00	7830	373	-26.3	-29.1	226	40
2023-08-28T06:00	7853	372	-26.4	-29.1	226	41
2023-08-28T06:00	7876	371	-26.6	-29.6	226	41
2023-08-28T06:00	7898	370	-26.7	-30.1	227	41
2023-08-28T06:00	7923	369	-26.9	-30.2	227	41
2023-08-28T06:00	7944	367	-27.1	-30.3	227	41
2023-08-28T06:00	7968	366	-27.3	-30.7	227	41
2023-08-28T06:00	7992	365	-27.5	-31.0	226	41
2023-08-28T06:00	8017	364	-27.7	-31.1	226	41
2023-08-28T06:00	8038	363	-27.8	-31.2	227	41
2023-08-28T06:00	8068	361	-28.1	-31.4	227	41
2023-08-28T06:00	8099	360	-28.4	-31.8	227	41
2023-08-28T06:00	8129	358	-28.6	-32.1	228	41
2023-08-28T06:00	8151	357	-28.8	-32.0	228	41
2023-08-28T06:00	8172	356	-28.9	-32.0	228	40
2023-08-28T06:00	8198	355	-29.2	-32.0	228	40
2023-08-28T06:00	8231	353	-29.4	-32.7	228	40
2023-08-28T06:00	8257	352	-29.6	-32.8	228	41
2023-08-28T06:00	8286	350	-29.8	-32.9	227	41
2023-08-28T06:00	8319	349	-30.1	-33.0	226	41
2023-08-28T06:00	8344	348	-30.4	-33.2	226	42
2023-08-28T06:00	8369	346	-30.5	-32.6	225	42
2023-08-28T06:00	8391	345	-30.6	-32.9	224	42
2023-08-28T06:00	8412	344	-30.8	-32.8	224	42
2023-08-28T06:00	8438	343	-30.9	-33.0	223	42
2023-08-28T06:00	8462	342	-31.0	-33.4	223	42
2023-08-28T06:00	8485	341	-31.2		224	42
2023-08-28T06:00	8509	340	-31.3	-34.8	224	43
2023-08-28T06:00	8538	338	-31.6	-35.5	225	43
2023-08-28T06:00	8568	337	-31.8	-36.2	225	43
2023-08-28T06:00	8598	335	-31.9	-36.8	225	43
2023-08-28T06:00	8631	334	-32.2	-36.6	226	43
2023-08-28T06:00	8661	332	-32.5	-36.8	226	43
2023-08-28T06:00	8691	331	-32.8	-36.9	226	42
2023-08-28T06:00	8721	330	-33.1	-37.3	226	42
2023-08-28T06:00	8751	328	-33.4	-37.6	226	42
2023-08-28T06:00	8783	327	-33.7	-38.5	226	42
2023-08-28T06:00	8806	326	-33.8	-39.1	226	42
2023-08-28T06:00	8829	324	-34.0	-38.9	226	42
2023-08-28T06:00	8852	323	-34.3	-39.1	227	42
2023-08-28T06:00	8879	322	-34.5	-39.1	227	42
2023-08-28T06:00	8899	321	-34.7	-39.2	227	42
2023-08-28T06:00	8926	320	-35.0	-39.5	227	43
2023-08-28T06:00	8950	319	-35.1	-39.9	228	43
2023-08-28T06:00	8974	318	-35.4	-40.0	228	43
2023-08-28T06:00	9003	317	-35.6	-39.9	228	43
2023-08-28T06:00	9026	315	-35.8	-40.1	229	43
2023-08-28T06:00	9047	314	-36.0	-40.0	229	43
2023-08-28T06:00	9069	313	-36.2	-40.1	229	43
2023-08-28T06:00	9092	312	-36.4	-40.4	229	43
2023-08-28T06:00	9116	311	-36.6	-40.7	230	43
2023-08-28T06:00	9142	310	-36.9	-41.1	230	44
2023-08-28T06:00	9175	309	-37.1	-41.9	230	44
2023-08-28T06:00	9200	308	-37.4	-42.2	231	44
2023-08-28T06:00	9224	307	-37.6	-42.6	231	45
2023-08-28T06:00	9250	305	-37.8	-42.7	231	45
2023-08-28T06:00	9277	304	-38.1	-43.2	231	45
2023-08-28T06:00	9302	303	-38.3	-44.1	231	45
2023-08-28T06:00	9331	302	-38.4	-44.6	231	45
2023-08-28T06:00	9352	301	-38.6	-44.4	231	45
2023-08-28T06:00	9377	300	-38.8	-44.3	232	45
2023-08-28T06:00	9401	299	-39.0	-44.6	232	46
2023-08-28T06:00	9422	298	-39.1	-45.2	233	46
2023-08-28T06:00	9447	297	-39.2	-45.5	233	47
2023-08-28T06:00	9470	296	-39.3	-45.7	233	47
2023-08-28T06:00	9493	295	-39.3	-46.6	232	47
2023-08-28T06:00	9518	294	-39.3	-46.9	232	47
2023-08-28T06:00	9542	293	-39.5	-46.8	232	47
2023-08-28T06:00	9565	292	-39.6	-46.6	232	47
2023-08-28T06:00	9586	291	-39.8	-46.3	232	47
2023-08-28T06:00	9609	290	-40.0	-46.2	232	47
2023-08-28T06:00	9632	289	-40.2	-46.2	232	47
2023-08-28T06:00	9654	288	-40.4	-46.2	232	47
2023-08-28T06:00	9678	287	-40.6	-46.2	231	47
2023-08-28T06:00	9702	286	-40.9	-46.5	231	47
2023-08-28T06:00	9725	285	-41.1	-46.5	231	47
2023-08-28T06:00	9748	284	-41.3	-46.5	231	47
2023-08-28T06:00	9771	283	-41.5	-46.5	231	47
2023-08-28T06:00	9796	282	-41.7	-46.5	231	47
2023-08-28T06:00	9822	281	-42.0	-46.6	230	47
2023-08-28T06:00	9845	280	-42.2	-46.8	230	47
2023-08-28T06:00	9871	279	-42.4	-47.2	230	46
2023-08-28T06:00	9896	278	-42.6	-47.7	229	46
2023-08-28T06:00	9924	277	-42.9	-48.0	228	46
2023-08-28T06:00	9954	275	-43.1	-48.2	228	46
2023-08-28T06:00	9982	274	-43.4	-48.5	227	46
2023-08-28T06:00	10003	273	-43.6	-48.9	227	46
2023-08-28T06:00	10028	272	-43.8	-49.1	227	46
2023-08-28T06:00	10049	272	-44.0	-49.3	226	46
2023-08-28T06:00	10070	271	-44.1	-49.6	226	46
2023-08-28T06:00	10091	270	-44.2	-49.9	226	46
2023-08-28T06:00	10110	269	-44.3	-50.3	226	45
2023-08-28T06:00	10130	268	-44.4	-50.4	226	45
2023-08-28T06:00	10154	267	-44.7	-50.4	227	45
2023-08-28T06:00	10178	266	-44.9	-50.6	227	45
2023-08-28T06:00	10199	265	-45.1	-50.7	228	46
2023-08-28T06:00	10230	264	-45.4	-50.8	229	46
2023-08-28T06:00	10247	264	-45.6	-51.0	229	46
2023-08-28T06:00	10269	263	-45.7	-51.0	229	46
2023-08-28T06:00	10287	262	-45.9		230	46
2023-08-28T06:00	10306	261	-46.1	-50.9	230	46
2023-08-28T06:00	10328	260	-46.3	-50.9	230	46
2023-08-28T06:00	10351	259	-46.5	-51.0	229	46
2023-08-28T06:00	10378	259	-46.7	-51.3	228	46
2023-08-28T06:00	10405	258	-46.8	-51.5	228	47
2023-08-28T06:00	10427	257	-47.0	-51.8	227	47
2023-08-28T06:00	10451	256	-47.2	-51.9	227	47
2023-08-28T06:00	10470	255	-47.3	-51.9	226	47
2023-08-28T06:00	10494	254	-47.5	-51.9	226	46
2023-08-28T06:00	10514	253	-47.7	-52.1	227	46
2023-08-28T06:00	10537	252	-47.9	-52.5	227	46
2023-08-28T06:00	10575	251	-48.0	-52.8	228	46
2023-08-28T06:00	10611	250	-48.2	-53.2	230	46
2023-08-28T06:00	10640	248	-48.3	-52.9	231	47
2023-08-28T06:00	10671	247	-48.6	-52.9	232	47
2023-08-28T06:00	10704	246	-48.9	-53.0	233	47
2023-08-28T06:00	10735	245	-49.2	-53.1	234	47
2023-08-28T06:00	10772	244	-49.4	-53.0	234	47
2023-08-28T06:00	10797	243	-49.6	-53.1	235	47
2023-08-28T06:00	10824	242	-49.9	-53.5	235	47
2023-08-28T06:00	10850	241	-50.0	-53.7	235	48
2023-08-28T06:00	10874	240	-50.1	-54.2	235	48
2023-08-28T06:00	10897	239	-50.1	-54.6	236	48
2023-08-28T06:00	10916	238	-50.2	-54.7	236	48
2023-08-28T06:00	10939	237	-50.4	-54.7	236	49
2023-08-28T06:00	10961	237	-50.6	-55.0	237	49
2023-08-28T06:00	10986	236	-50.6	-55.8	237	50
2023-08-28T06:00	11012	235	-50.7	-56.7	237	51
2023-08-28T06:00	11035	234	-50.7	-57.2	237	51
2023-08-28T06:00	11061	233	-50.8	-58.1	237	52
2023-08-28T06:00	11083	232	-50.6	-58.9	237	52
2023-08-28T06:00	11105	231	-50.7	-59.5	237	53
2023-08-28T06:00	11130	230	-50.9	-59.7	236	53
2023-08-28T06:00	11155	230	-51.1	-59.8	236	54
2023-08-28T06:00	11182	229	-51.2	-60.2	237	54
2023-08-28T06:00	11207	228	-51.3	-60.9	237	53
2023-08-28T06:00	11237	227	-51.4	-62.2	238	53
2023-08-28T06:00	11270	226	-50.8	-62.6	239	52
2023-08-28T06:00	11295	225	-50.7	-62.6	239	51
2023-08-28T06:00	11320	224	-50.8	-62.3	240	50
2023-08-28T06:00	11351	223	-50.9	-62.0	240	50
2023-08-28T06:00	11377	222	-50.9	-61.8	241	49
2023-08-28T06:00	11399	221	-51.1	-61.8	241	49
2023-08-28T06:00	11434	220	-51.3	-61.6	241	49
2023-08-28T06:00	11471	219	-51.6	-61.6	242	48
2023-08-28T06:00	11496	218	-51.7	-61.6	242	48
2023-08-28T06:00	11521	217	-51.8	-61.5	243	47
2023-08-28T06:00	11548	216	-52.0	-61.3	243	47
2023-08-28T06:00	11579	215	-52.3	-61.3	244	47
2023-08-28T06:00	11604	214	-52.5	-61.2	244	46
2023-08-28T06:00	11627	213	-52.7	-61.1	244	46
2023-08-28T06:00	11652	213	-52.9	-61.1	244	46
2023-08-28T06:00	11677	212	-53.0	-61.3	244	45
2023-08-28T06:00	11703	211	-53.3	-61.9	244	45
2023-08-28T06:00	11727	210	-53.4	-62.2	244	44
2023-08-28T06:00	11751	209	-53.6	-62.4	244	43
2023-08-28T06:00	11776	209	-53.7	-63.0	244	42
2023-08-28T06:00	11800	208	-53.2	-64.0	245	41
2023-08-28T06:00	11822	207	-52.6	-65.3	246	41
2023-08-28T06:00	11844	206	-52.5	-66.0	246	40
2023-08-28T06:00	11870	206	-52.5	-65.9	246	40
2023-08-28T06:00	11894	205	-52.7	-65.6	246	39
2023-08-28T06:00	11917	204	-52.7	-65.5	246	39
2023-08-28T06:00	11942	203	-52.8	-65.8	246	39
2023-08-28T06:00	11965	203	-52.9	-65.9	246	39
2023-08-28T06:00	11989	202	-52.9	-65.9	247	38
2023-08-28T06:00	12013	201	-53.1	-65.9	247	38
2023-08-28T06:00	12038	200	-53.2	-66.0	247	38
2023-08-28T06:00	12059	200	-53.4	-66.0	247	37
2023-08-28T06:00	12082	199	-53.5	-66.0	247	37
2023-08-28T06:00	12105	198	-53.7	-66.0	248	36
2023-08-28T06:00	12126	198	-53.7	-66.0	248	36
2023-08-28T06:00	12147	197	-53.7	-66.0	248	35
2023-08-28T06:00	12170	196	-53.9	-66.1	248	34
2023-08-28T06:00	12199	195	-54.1	-66.1	248	34
2023-08-28T06:00	12227	195	-54.2	-66.1	248	33
2023-08-28T06:00	12252	194	-54.3	-66.1	247	33
2023-08-28T06:00	12275	193	-54.6	-66.3	247	33
2023-08-28T06:00	12301	192	-54.8	-66.3	246	32
2023-08-28T06:00	12323	192	-54.8	-66.4	245	32
2023-08-28T06:00	12345	191	-54.9	-66.7	244	32
2023-08-28T06:00	12367	190	-55.0	-67.0	243	31
2023-08-28T06:00	12387	190	-55.1	-67.3	242	31
2023-08-28T06:00	12409	189	-55.1	-67.5	241	30
2023-08-28T06:00	12432	188	-55.2	-67.9	240	30
2023-08-28T06:00	12452	188	-55.3	-68.3	239	29
2023-08-28T06:00	12473	187	-55.2	-68.7	239	29
2023-08-28T06:00	12491	187	-55.2	-69.2	238	29
2023-08-28T06:00	12513	186	-55.3	-69.6	238	29
2023-08-28T06:00	12532	185	-55.3		237	29
2023-08-28T06:00	12554	185	-55.3	-70.2	237	29
2023-08-28T06:00	12575	184	-55.4	-70.6	236	29
2023-08-28T06:00	12599	184	-55.4	-71.2	236	29
2023-08-28T06:00	12616	183	-55.4	-72.0	235	28
2023-08-28T06:00	12638	182	-55.3	-72.7	234	28
2023-08-28T06:00	12656	182	-55.4	-73.5	234	28
2023-08-28T06:00	12680	181	-55.4	-74.6	234	27
2023-08-28T06:00	12701	181	-55.1	-76.1	234	27
2023-08-28T06:00	12722	180	-54.5	-77.6	234	26
2023-08-28T06:00	12743	179	-54.7	-79.1	234	26
2023-08-28T06:00	12762	179	-54.8	-79.2	234	25
2023-08-28T06:00	12787	178	-55.0	-79.0	234	25
2023-08-28T06:00	12811	178	-55.2	-78.7	234	25
2023-08-28T06:00	12834	177	-55.3	-78.8	234	25
2023-08-28T06:00	12854	176	-55.3	-78.8	233	25
2023-08-28T06:00	12874	176	-55.4	-79.3	233	25
2023-08-28T06:00	12898	175	-55.5	-79.4	232	24
2023-08-28T06:00	12918	175	-55.7	-79.3	231	24
2023-08-28T06:00	12938	174	-55.8	-79.4	230	25
2023-08-28T06:00	12957	173	-55.9	-79.5	229	25
2023-08-28T06:00	12981	173	-55.8	-79.6	228	25
2023-08-28T06:00	13003	172	-55.8	-79.8	227	25
2023-08-28T06:00	13021	172	-55.8	-80.0	226	25
2023-08-28T06:00	13044	171	-55.8	-80.2	226	25
2023-08-28T06:00	13066	171	-55.7	-80.1	225	25
2023-08-28T06:00	13086	170	-55.7	-80.4	225	26
2023-08-28T06:00	13108	169	-55.7	-80.4	225	26
2023-08-28T06:00	13127	169	-55.8	-80.4	226	25
2023-08-28T06:00	13149	168	-55.8	-80.7	226	25
2023-08-28T06:00	13172	168	-55.7	-80.6	226	25
2023-08-28T06:00	13192	167	-55.6	-80.5	227	24
2023-08-28T06:00	13213	167	-55.4	-80.6	227	24
2023-08-28T06:00	13236	166	-55.2	-80.7	226	24
2023-08-28T06:00	13257	166	-55.3	-81.0	226	24
2023-08-28T06:00	13279	165	-55.0	-81.1	226	24
2023-08-28T06:00	13300	164	-55.1	-81.1	226	24
2023-08-28T06:00	13322	164	-54.8	-80.9	226	24
2023-08-28T06:00	13343	163	-54.7	-81.1	227	24
2023-08-28T06:00	13364	163	-54.4	-80.9	228	24
2023-08-28T06:00	13384	162	-54.1	-80.9	228	24
2023-08-28T06:00	13408	162	-53.9	-80.8	229	23
2023-08-28T06:00	13427	161	-53.9	-80.8	229	23
2023-08-28T06:00	13450	161	-54.1	-80.9	230	22
2023-08-28T06:00	13473	160	-54.0	-80.9	231	22
2023-08-28T06:00	13495	159	-53.9	-81.1	231	22
2023-08-28T06:00	13515	159	-53.9	-80.8	232	21
2023-08-28T06:00	13538	158	-54.0	-80.9	232	21
2023-08-28T06:00	13560	158	-54.0	-80.9	232	21
2023-08-28T06:00	13581	157	-54.0	-81.2	232	21
2023-08-28T06:00	13603	157	-54.0	-81.2	231	22
2023-08-28T06:00	13623	156	-54.0	-81.2	231	22
2023-08-28T06:00	13645	156	-54.1	-81.2	230	22
2023-08-28T06:00	13667	155	-54.1	-81.2	230	21
2023-08-28T06:00	13690	155	-53.8	-81.0	230	21
2023-08-28T06:00	13711	154	-53.7	-80.9	229	21
2023-08-28T06:00	13734	154	-53.8	-81.0	228	20
2023-08-28T06:00	13754	153	-53.7	-80.9	228	20
2023-08-28T06:00	13776	153	-53.4	-81.0	228	20
2023-08-28T06:00	13799	152	-53.4	-81.0	228	20
2023-08-28T06:00	13820	152	-53.5	-81.1	229	20
2023-08-28T06:00	13840	151	-53.6	-81.2	230	20
2023-08-28T06:00	13862	151	-53.7	-81.3	231	20
2023-08-28T06:00	13884	150	-53.8	-81.3	233	20
2023-08-28T06:00	13906	150	-53.9	-81.4	235	20
2023-08-28T06:00	13929	149	-53.9	-81.4	236	19
2023-08-28T06:00	13950	149	-53.7	-81.3	238	19
2023-08-28T06:00	13972	148	-53.6	-81.2	238	19
2023-08-28T06:00	13993	148	-53.5	-81.1	239	19
2023-08-28T06:00	14015	147	-53.6	-81.5	238	19
2023-08-28T06:00	14037	147	-53.5	-81.1	238	19
2023-08-28T06:00	14059	146	-53.6	-81.5	237	19
2023-08-28T06:00	14079	146	-53.7	-81.6	237	20
2023-08-28T06:00	14102	145	-53.7	-81.6	238	20
2023-08-28T06:00	14125	145	-53.7	-81.6	238	20
2023-08-28T06:00	14148	144	-53.8	-82.0	238	20
2023-08-28T06:00	14171	144	-53.8	-82.0	238	20
2023-08-28T06:00	14193	143	-53.7	-82.0	238	20
2023-08-28T06:00	14214	143	-53.7	-82.0	238	19
2023-08-28T06:00	14237	142	-53.7	-82.3	239	19
2023-08-28T06:00	14256	142	-53.7	-82.3	239	18
2023-08-28T06:00	14279	141	-53.6	-82.3	240	18
2023-08-28T06:00	14301	141	-53.5	-82.2	240	17
2023-08-28T06:00	14324	140	-53.6	-82.7	240	16
2023-08-28T06:00	14348	140	-53.5	-82.6	239	16
2023-08-28T06:00	14370	139	-53.4	-82.5	239	15
2023-08-28T06:00	14394	139	-53.4	-82.5	238	14
2023-08-28T06:00	14417	138	-53.3	-82.5	238	14
2023-08-28T06:00	14437	138	-53.2	-82.4	238	14
2023-08-28T06:00	14462	137	-53.1	-82.3	238	14
2023-08-28T06:00	14484	137	-53.1	-82.3	238	14
2023-08-28T06:00	14509	136	-53.2	-82.8	238	14
2023-08-28T06:00	14532	136	-53.1	-82.7	236	13
2023-08-28T06:00	14556	135	-53.0	-82.7	234	13
2023-08-28T06:00	14581	135	-53.0	-82.7	231	13
2023-08-28T06:00	14604	134	-52.7	-82.4	229	13
2023-08-28T06:00	14626	134	-52.5	-82.8	228	13
2023-08-28T06:00	14650	133	-52.6	-82.8	227	13
2023-08-28T06:00	14676	133	-52.4	-82.7	228	13
2023-08-28T06:00	14698	132	-52.3	-82.6	230	12
2023-08-28T06:00	14723	132	-52.5	-82.3	232	12
2023-08-28T06:00	14746	131	-52.7	-82.4	234	12
2023-08-28T06:00	14770	131	-52.8	-82.5	236	12
2023-08-28T06:00	14792	130	-53.0	-82.7	238	11
2023-08-28T06:00	14812	130	-53.2	-82.8	239	11
2023-08-28T06:00	14838	129	-53.4	-83.0	238	11
2023-08-28T06:00	14861	129	-53.4	-83.0	237	11
2023-08-28T06:00	14885	129	-53.4	-83.0	234	11
2023-08-28T06:00	14905	128	-53.4	-83.0	232	11
2023-08-28T06:00	14930	128	-53.5	-83.0	229	11
2023-08-28T06:00	14951	127	-53.6	-83.1	226	12
2023-08-28T06:00	14977	127	-53.7	-83.2	224	12
2023-08-28T06:00	14997	126	-53.7	-83.2	223	13
2023-08-28T06:00	15020	126	-53.7	-83.2	223	13
2023-08-28T06:00	15044	125	-53.7	-83.2	223	14
2023-08-28T06:00	15066	125	-53.9	-83.3	224	14
2023-08-28T06:00	15085	125	-54.0	-83.4	225	15
2023-08-28T06:00	15107	124	-54.1	-83.5	224	15
2023-08-28T06:00	15131	124	-53.9	-83.3	224	15
2023-08-28T06:00	15151	123	-53.6	-83.1	223	15
2023-08-28T06:00	15172	123	-53.6	-83.1	222	15
2023-08-28T06:00	15195	122	-53.5	-83.0	221	15
2023-08-28T06:00	15216	122	-53.5	-83.0	220	16
2023-08-28T06:00	15238	122	-53.6	-83.1	220	16
2023-08-28T06:00	15259	121	-53.7	-83.2	220	16
2023-08-28T06:00	15283	121	-53.8	-83.3	221	15
2023-08-28T06:00	15304	120	-54.0	-83.4	221	15
2023-08-28T06:00	15325	120	-54.1	-83.5	222	15
2023-08-28T06:00	15350	120	-54.2	-83.6	222	15
2023-08-28T06:00	15369	119	-54.3	-83.6	223	15
2023-08-28T06:00	15392	119	-54.3	-83.6	225	15
2023-08-28T06:00	15410	118	-54.1	-83.5	226	15
2023-08-28T06:00	15432	118	-54.1	-83.5	226	15
2023-08-28T06:00	15454	118	-53.8	-83.3	226	15
2023-08-28T06:00	15478	117	-53.7	-83.7	226	16
2023-08-28T06:00	15499	117	-53.8	-83.3	225	16
2023-08-28T06:00	15519	116	-54.0	-83.4	226	16
2023-08-28T06:00	15544	116	-54.2	-83.6	227	16
2023-08-28T06:00	15565	116	-54.2	-83.6	229	17
2023-08-28T06:00	15587	115	-54.3	-83.6	231	17
2023-08-28T06:00	15610	115	-54.3	-83.6	233	17
2023-08-28T06:00	15631	114	-54.3	-83.6	234	16
2023-08-28T06:00	15651	114	-54.1	-83.5	235	16
2023-08-28T06:00	15673	114	-53.7	-83.2	236	16
2023-08-28T06:00	15697	113	-53.6	-83.6	236	15
2023-08-28T06:00	15722	113	-53.7	-83.7	236	15
2023-08-28T06:00	15745	112	-53.8	-83.7	235	14
2023-08-28T06:00	15768	112	-53.9	-83.8	234	13
2023-08-28T06:00	15792	112	-53.8	-83.7	233	13
2023-08-28T06:00	15813	111	-53.7	-84.2	232	13
2023-08-28T06:00	15836	111	-53.6	-84.1	230	13
2023-08-28T06:00	15859	110	-53.6	-84.1	229	13
2023-08-28T06:00	15884	110	-53.5	-84.0	227	13
2023-08-28T06:00	15908	110	-53.5	-83.5	226	14
2023-08-28T06:00	15928	109	-53.6	-83.6	226	14
2023-08-28T06:00	15955	109	-53.8	-83.7	226	14
2023-08-28T06:00	15973	108	-54.0	-83.9	226	14
2023-08-28T06:00	15997	108	-54.2	-84.0	227	14
2023-08-28T06:00	16022	108	-54.2	-84.0	229	14
2023-08-28T06:00	16045	107	-54.3	-84.1	231	14
2023-08-28T06:00	16070	107	-54.2	-84.0	233	14
2023-08-28T06:00	16093	106	-54.1	-84.0	235	13
2023-08-28T06:00	16117	106	-54.2	-84.0	237	13
2023-08-28T06:00	16140	106	-54.3	-84.1	240	13
2023-08-28T06:00	16162	105	-54.3	-84.1	242	13
2023-08-28T06:00	16189	105	-54.4	-84.2	244	13
2023-08-28T06:00	16209	105	-54.5	-84.3	244	12
2023-08-28T06:00	16234	104	-54.6	-84.3	243	12
2023-08-28T06:00	16257	104	-54.7	-84.4	241	12
2023-08-28T06:00	16279	103	-54.7	-84.4	239	12
2023-08-28T06:00	16301	103	-54.5	-84.3	237	12
2023-08-28T06:00	16324	103	-54.4	-84.2	235	11
2023-08-28T06:00	16349	102	-54.4	-84.7	234	11
2023-08-28T06:00	16372	102	-54.3	-84.6	233	11
2023-08-28T06:00	16397	102	-54.1	-84.5	232	11
2023-08-28T06:00	16420	101	-53.9	-84.3	230	11
2023-08-28T06:00	16444	101	-54.0	-84.4	228	11
2023-08-28T06:00	16465	100	-53.9	-84.3	227	12
2023-08-28T06:00	16489	100	-53.9	-84.3	226	12
2023-08-28T06:00	16510	100	-53.9	-84.3	225	13
2023-08-28T06:00	16533	99	-53.8	-84.2	226	13
2023-08-28T06:00	16558	99	-53.8	-84.2	227	13
2023-08-28T06:00	16581	99	-53.9	-84.3	229	14
2023-08-28T06:00	16603	98	-53.8	-84.2	231	14
2023-08-28T06:00	16626	98	-53.6	-84.6	234	14
2023-08-28T06:00	16647	98	-53.4	-84.5	237	13
2023-08-28T06:00	16673	97	-53.2	-84.4	240	13
2023-08-28T06:00	16696	97	-53.1	-84.3	243	12
2023-08-28T06:00	16722	97	-53.0	-84.2	246	12
2023-08-28T06:00	16746	96	-53.0	-84.2	250	11
2023-08-28T06:00	16772	96	-53.0	-84.2	252	11
2023-08-28T06:00	16799	95	-53.1	-84.3	253	10
2023-08-28T06:00	16820	95	-53.2	-84.4	253	10
2023-08-28T06:00	16841	95	-53.3	-84.4	251	10
2023-08-28T06:00	16864	94	-53.1	-84.3	248	10
2023-08-28T06:00	16886	94	-53.2	-84.4	245	10
2023-08-28T06:00	16912	94	-53.4	-84.5	242	10
2023-08-28T06:00	16937	93	-53.5	-84.6	240	11
2023-08-28T06:00	16961	93	-53.6	-84.1	238	11
2023-08-28T06:00	16986	93	-53.7	-84.2	237	11
2023-08-28T06:00	17009	92	-53.9	-84.3	237	11
2023-08-28T06:00	17029	92	-54.0	-84.4	236	11
2023-08-28T06:00	17051	92	-54.2	-84.5	235	11
2023-08-28T06:00	17073	91	-54.3	-84.6	235	11
2023-08-28T06:00	17097	91	-54.3	-84.6	235	10
2023-08-28T06:00	17119	91	-54.1	-85.0	236	10
2023-08-28T06:00	17142	90	-54.0	-84.9	238	10
2023-08-28T06:00	17166	90	-53.8	-84.8	242	9
2023-08-28T06:00	17187	90	-53.7	-84.7	245	9
2023-08-28T06:00	17215	89	-53.8	-84.8	248	8
2023-08-28T06:00	17238	89	-53.8	-84.8	249	7
2023-08-28T06:00	17258	89	-53.5	-84.6	250	6
2023-08-28T06:00	17283	88	-53.1	-84.3	249	6
2023-08-28T06:00	17305	88	-53.1	-84.3	248	5
2023-08-28T06:00	17328	88	-53.1	-84.3	246	4
2023-08-28T06:00	17353	88	-53.3	-84.4	244	4
2023-08-28T06:00	17376	87	-53.4	-84.5	240	4
2023-08-28T06:00	17399	87	-53.6	-84.6	236	3
2023-08-28T06:00	17422	87	-53.7	-84.7	230	3
2023-08-28T06:00	17445	86	-53.9	-84.3	223	3
2023-08-28T06:00	17469	86	-54.0	-84.4	215	3
2023-08-28T06:00	17493	86	-54.3	-84.6	209	3
2023-08-28T06:00	17517	85	-54.4	-84.7	204	4
2023-08-28T06:00	17541	85	-54.6	-84.8	200	4
2023-08-28T06:00	17562	85	-54.8	-85.0	198	4
2023-08-28T06:00	17587	84	-54.9	-85.1	197	5
2023-08-28T06:00	17611	84	-55.1	-85.2	195	5
2023-08-28T06:00	17635	84	-55.2	-84.8	194	6
2023-08-28T06:00	17654	83	-55.4	-84.9	193	6
2023-08-28T06:00	17684	83	-55.6	-85.1	193	7
2023-08-28T06:00	17707	83	-55.7	-85.2	194	7
2023-08-28T06:00	17729	82	-55.9	-85.3	196	8
2023-08-28T06:00	17753	82	-56.0		198	8
2023-08-28T06:00	17775	82	-56.1	-85.5	201	9
2023-08-28T06:00	17800	82	-56.1	-85.5	204	9
2023-08-28T06:00	17821	81	-56.1	-85.5	207	10
2023-08-28T06:00	17846	81	-56.2	-85.5	210	11
2023-08-28T06:00	17869	81	-56.3	-85.6	213	11
2023-08-28T06:00	17892	80	-56.3	-85.6	216	11
2023-08-28T06:00	17915	80	-56.4	-85.7	219	12
2023-08-28T06:00	17940	80	-56.5	-85.8	222	11
2023-08-28T06:00	17961	80	-56.2	-86.0	225	11
2023-08-28T06:00	17986	79	-55.8	-85.7	228	11
2023-08-28T06:00	18009	79	-55.7	-85.7	232	10
2023-08-28T06:00	18032	79	-55.6	-85.6	236	10
2023-08-28T06:00	18056	78	-55.6	-85.6	240	9
2023-08-28T06:00	18079	78	-55.6	-85.6	244	9
2023-08-28T06:00	18101	78	-55.6	-85.6	247	9
2023-08-28T06:00	18126	78	-55.5	-85.5	250	8
2023-08-28T06:00	18150	77	-55.5	-85.5	252	8
2023-08-28T06:00	18172	77	-55.6	-85.6	252	7
2023-08-28T06:00	18197	77	-55.6	-85.6	251	7
2023-08-28T06:00	18217	76	-55.5	-85.5	246	6
2023-08-28T06:00	18242	76	-55.2	-85.3	240	6
2023-08-28T06:00	18267	76	-55.1	-85.2	232	5
2023-08-28T06:00	18291	76	-55.2	-85.3	223	5
2023-08-28T06:00	18314	75	-55.3	-85.4	214	5
2023-08-28T06:00	18340	75	-55.5	-85.5	207	6
2023-08-28T06:00	18363	75	-55.6	-85.6	202	6
2023-08-28T06:00	18387	74	-55.6	-85.6	199	7
2023-08-28T06:00	18410	74	-55.6	-85.6	199	8
2023-08-28T06:00	18434	74	-55.8	-85.7	201	8
2023-08-28T06:00	18460	74	-55.9	-85.8	205	8
2023-08-28T06:00	18482	73	-55.9	-85.8	210	9
2023-08-28T06:00	18508	73	-55.6	-86.1	216	9
2023-08-28T06:00	18530	73	-55.3	-85.9	222	9
2023-08-28T06:00	18555	72	-55.4	-86.0	227	9
2023-08-28T06:00	18578	72	-55.3	-85.9	230	9
2023-08-28T06:00	18599	72	-55.4	-86.0	231	9
2023-08-28T06:00	18623	72	-55.2	-85.8	231	9
2023-08-28T06:00	18649	71	-54.8	-85.5	229	8
2023-08-28T06:00	18673	71	-54.8	-85.5	227	8
2023-08-28T06:00	18697	71	-54.9	-86.2	225	8
2023-08-28T06:00	18720	71	-54.8	-86.1	224	7
2023-08-28T06:00	18748	70	-54.5	-85.9	225	7
2023-08-28T06:00	18769	70	-54.3	-85.8	226	7
2023-08-28T06:00	18794	70	-54.2	-85.7	227	7
2023-08-28T06:00	18814	70	-54.0	-85.5	228	7
2023-08-28T06:00	18839	69	-53.9	-85.5	229	7
2023-08-28T06:00	18854	69	-53.8	-85.4	230	7
2023-08-28T06:00	18884	69	-53.8	-85.4	233	7
2023-08-28T06:00	18906	69	-53.9	-85.5	236	7
2023-08-28T06:00	18928	68	-54.0	-85.5	240	6
2023-08-28T06:00	18952	68	-54.0	-85.5	245	6
2023-08-28T06:00	18978	68	-54.1	-85.6	251	6
2023-08-28T06:00	19003	68	-54.1	-85.6	258	5
2023-08-28T06:00	19027	67	-54.1	-85.0	268	5
2023-08-28T06:00	19055	67	-54.2	-85.1	278	5
2023-08-28T06:00	19077	67	-54.2	-85.1	288	4
2023-08-28T06:00	19103	67	-54.3	-85.2	296	4
2023-08-28T06:00	19124	66	-54.4	-85.2	303	4
2023-08-28T06:00	19149	66	-54.5	-85.3	309	4
2023-08-28T06:00	19175	66	-54.7	-85.5	312	3
2023-08-28T06:00	19198	66	-54.8	-85.5	315	3
2023-08-28T06:00	19225	65	-55.0	-85.7	317	2
2023-08-28T06:00	19251	65	-55.1	-85.8	320	2
2023-08-28T06:00	19271	65	-55.3	-85.9	326	1
2023-08-28T06:00	19296	65	-55.4	-85.4	341	1
2023-08-28T06:00	19321	64	-55.5	-85.5	19	1
2023-08-28T06:00	19344	64	-55.6	-85.6	68	1
2023-08-28T06:00	19369	64	-55.7	-85.7	102	1
2023-08-28T06:00	19393	64	-55.9	-85.8	127	1
2023-08-28T06:00	19423	63	-55.9	-86.3	147	2
2023-08-28T06:00	19446	63	-55.7	-86.2	159	2
2023-08-28T06:00	19470	63	-55.4	-86.0	166	3
2023-08-28T06:00	19493	63	-55.5	-86.1	170	3
2023-08-28T06:00	19517	62	-55.5	-86.1	175	4
2023-08-28T06:00	19540	62	-55.5	-86.1	180	4
2023-08-28T06:00	19565	62	-55.2	-85.8	186	5
2023-08-28T06:00	19594	62	-55.0	-85.7	192	5
2023-08-28T06:00	19610	61	-55.0	-85.7	197	6
2023-08-28T06:00	19639	61	-55.1	-85.8	199	6
2023-08-28T06:00	19661	61	-55.2	-85.8	200	7
2023-08-28T06:00	19690	61	-55.4	-86.0	201	7
2023-08-28T06:00	19717	60	-55.6	-86.1	202	7
2023-08-28T06:00	19740	60	-55.7	-85.7	204	7
2023-08-28T06:00	19765	60	-55.8	-85.7	207	7
2023-08-28T06:00	19791	60	-55.9	-85.8	211	7
2023-08-28T06:00	19815	60	-55.9	-85.8	215	6
2023-08-28T06:00	19840	59	-55.9	-85.8	218	6
2023-08-28T06:00	19863	59	-55.8	-85.7	220	5
2023-08-28T06:00	19891	59	-55.9	-85.8	221	5
2023-08-28T06:00	19917	59	-56.1	-86.0	221	4
2023-08-28T06:00	19942	58	-56.1	-86.0	219	4
2023-08-28T06:00	19968	58	-56.2	-86.6	216	4
2023-08-28T06:00	19993	58	-56.1	-86.5	211	4
2023-08-28T06:00	20020	58	-55.9	-86.3	206	4
2023-08-28T06:00	20047	57	-55.9	-86.3	202	4
2023-08-28T06:00	20074	57	-55.9	-86.3	199	4
2023-08-28T06:00	20097	57	-55.7	-86.2	198	4
2023-08-28T06:00	20122	57	-55.7	-86.2	198	4
2023-08-28T06:00	20151	56	-55.6	-86.1	198	4
2023-08-28T06:00	20182	56	-55.7	-86.2	197	3
2023-08-28T06:00	20203	56	-55.6	-86.1	193	3
2023-08-28T06:00	20230	56	-55.3	-86.5	182	2
2023-08-28T06:00	20256	56	-55.0	-86.3	167	2
2023-08-28T06:00	20283	55	-54.9	-86.2	158	2
2023-08-28T06:00	20311	55	-54.9	-86.2	159	2
2023-08-28T06:00	20336	55	-54.8	-86.1	168	3
2023-08-28T06:00	20363	55	-54.5	-85.9	178	3
2023-08-28T06:00	20390	54	-54.2	-85.7	187	3
2023-08-28T06:00	20419	54	-54.1	-85.6	193	4
2023-08-28T06:00	20449	54	-54.2	-85.7	197	5
2023-08-28T06:00	20473	54	-54.4	-85.8	200	5
2023-08-28T06:00	20500	53	-54.7	-85.5	203	6
2023-08-28T06:00	20526	53	-54.7	-85.5	207	6
2023-08-28T06:00	20550	53	-54.8	-85.5	212	6
2023-08-28T06:00	20580	53	-55.0	-85.7	218	6
2023-08-28T06:00	20605	53	-55.0	-86.3	225	6
2023-08-28T06:00	20634	52	-54.6	-86.0	232	6
2023-08-28T06:00	20658	52	-54.4	-85.8	239	5
2023-08-28T06:00	20683	52	-54.2	-85.7	246	4
2023-08-28T06:00	20712	52	-54.3	-85.8	254	4
2023-08-28T06:00	20736	51	-54.4	-85.8	265	3
2023-08-28T06:00	20765	51	-54.5	-85.9	280	3
2023-08-28T06:00	20791	51	-54.6	-86.0	299	2
2023-08-28T06:00	20818	51	-54.6	-86.0	319	2
2023-08-28T06:00	20842	51	-54.6	-86.0	336	2
2023-08-28T06:00	20865	50	-54.7	-86.1	351	3
2023-08-28T06:00	20892	50	-54.7	-86.1	2	3
2023-08-28T06:00	20917	50	-54.7	-86.1	11	3
2023-08-28T06:00	20942	50	-54.7	-86.1	19	3
2023-08-28T06:00	20970	50	-54.7	-86.1	27	3
2023-08-28T06:00	20993	49	-54.7	-86.1	36	3
2023-08-28T06:00	21020	49	-54.7	-86.1	47	2
2023-08-28T06:00	21045	49	-54.7	-86.1	62	2
2023-08-28T06:00	21070	49	-54.7	-86.1	87	1
2023-08-28T06:00	21094	49	-54.7	-86.1	115	2
2023-08-28T06:00	21124	49	-54.8	-85.5	134	2
2023-08-28T06:00	21147	48	-54.9	-85.6	145	3
2023-08-28T06:00	21172	48	-55.1	-85.8	152	3
2023-08-28T06:00	21195	48	-55.3	-85.9	157	4
2023-08-28T06:00	21222	48	-55.5	-86.1	162	4
2023-08-28T06:00	21249	48	-55.6	-86.1	168	4
2023-08-28T06:00	21276	47	-55.6	-86.1	176	4
2023-08-28T06:00	21301	47	-55.6	-86.1	188	4
2023-08-28T06:00	21327	47	-55.6	-86.1	204	4
2023-08-28T06:00	21354	47	-55.6	-86.1	222	4
2023-08-28T06:00	21378	47	-55.6	-86.1	238	4
2023-08-28T06:00	21407	46	-55.6	-86.1	249	4
2023-08-28T06:00	21428	46	-55.6	-86.1	257	4
2023-08-28T06:00	21454	46	-55.4	-86.6	263	4
2023-08-28T06:00	21482	46	-55.1	-86.4	268	4
2023-08-28T06:00	21508	46	-55.0	-86.3	273	4
2023-08-28T06:00	21530	45	-54.8	-86.1	279	4
2023-08-28T06:00	21557	45	-54.7	-86.1	286	3
2023-08-28T06:00	21586	45	-54.7	-86.1	295	3
2023-08-28T06:00	21609	45	-54.7	-86.1	308	2
2023-08-28T06:00	21636	45	-54.8	-86.1	325	2
2023-08-28T06:00	21661	45	-54.9	-85.6	347	2
2023-08-28T06:00	21684	44	-55.0	-85.7	9	2
2023-08-28T06:00	21709	44	-55.1	-85.8	28	2
2023-08-28T06:00	21739	44	-55.3	-85.9	43	2
2023-08-28T06:00	21763	44	-55.4	-86.0	57	2
2023-08-28T06:00	21785	44	-55.5	-86.1	73	1
2023-08-28T06:00	21811	44	-55.5	-86.1	101	1
2023-08-28T06:00	21842	43	-55.5	-86.1	152	1
2023-08-28T06:00	21863	43	-55.4	-86.0	189	1
2023-08-28T06:00	21892	43	-55.5	-86.1	206	2
2023-08-28T06:00	21915	43	-55.5	-86.1	215	3
2023-08-28T06:00	21942	43	-55.5	-86.1	224	3
2023-08-28T06:00	21966	42	-55.4	-86.6	234	3
2023-08-28T06:00	21989	42	-55.2	-86.4	246	3
2023-08-28T06:00	22021	42	-55.1	-86.4	259	3
2023-08-28T06:00	22038	42	-55.1	-86.4	271	4
2023-08-28T06:00	22065	42	-55.1	-86.4	281	4
2023-08-28T06:00	22096	42	-55.1	-86.4	289	4
2023-08-28T06:00	22117	41	-55.0	-86.3	298	4
2023-08-28T06:00	22146	41	-55.0	-86.3	308	3
2023-08-28T06:00	22173	41	-55.0	-86.3	320	3
2023-08-28T06:00	22197	41	-55.0	-86.3	332	3
2023-08-28T06:00	22222	41	-55.0	-86.3	342	3
2023-08-28T06:00	22255	41	-55.1	-86.4	351	3
2023-08-28T06:00	22284	40	-55.0	-86.3	357	3
2023-08-28T06:00	22303	40	-54.9	-86.2	4	3
2023-08-28T06:00	22327	40	-54.9	-86.2	11	4
2023-08-28T06:00	22358	40	-54.8	-86.1	17	4
2023-08-28T06:00	22383	40	-54.7	-86.1	23	4
2023-08-28T06:00	22408	40	-54.8	-86.1	28	4
2023-08-28T06:00	22434	39	-54.9	-86.2	31	3
2023-08-28T06:00	22463	39	-54.9	-86.2	34	3
2023-08-28T06:00	22489	39	-55.0	-86.3	38	3
2023-08-28T06:00	22514	39	-55.1	-86.4	44	3
2023-08-28T06:00	22540	39	-55.2	-85.8	52	3
2023-08-28T06:00	22565	39	-55.3	-85.9	60	3
2023-08-28T06:00	22587	39	-55.4	-86.0	68	3
2023-08-28T06:00	22618	38	-55.4	-86.0	73	3
2023-08-28T06:00	22636	38	-55.4	-86.6	75	3
2023-08-28T06:00	22670	38	-55.3	-86.5	75	3
2023-08-28T06:00	22690	38	-55.2	-86.4	76	3
2023-08-28T06:00	22713	38	-55.1	-86.4	77	4
2023-08-28T06:00	22736	38	-55.1	-86.4	80	4
2023-08-28T06:00	22759	38	-55.0	-86.3	84	4
2023-08-28T06:00	22789	37	-55.0	-86.3	88	4
2023-08-28T06:00	22817	37	-55.0	-86.3	92	4
2023-08-28T06:00	22845	37	-55.0	-86.3	95	4
2023-08-28T06:00	22871	37	-55.0	-86.3	96	4
2023-08-28T06:00	22901	37	-55.0	-86.3	97	4
2023-08-28T06:00	22920	37	-55.0	-86.3	98	4
2023-08-28T06:00	22939	36	-55.0	-86.3	99	5
2023-08-28T06:00	22966	36	-55.0	-86.3	102	5
2023-08-28T06:00	22996	36	-55.0	-86.3	106	5
2023-08-28T06:00	23021	36	-55.0	-86.3	111	5
2023-08-28T06:00	23049	36	-55.0	-86.3	116	4
2023-08-28T06:00	23073	36	-54.9	-86.2	119	4
2023-08-28T06:00	23098	36	-54.8	-86.1	121	4
2023-08-28T06:00	23127	35	-54.6	-86.7	122	3
2023-08-28T06:00	23151	35	-54.5	-86.6	122	3
2023-08-28T06:00	23180	35	-54.4	-86.5	123	3
2023-08-28T06:00	23208	35	-54.2	-86.4	124	3
2023-08-28T06:00	23232	35	-54.2	-86.4	125	3
2023-08-28T06:00	23264	35	-54.2	-86.4	127	3
2023-08-28T06:00	23281	35	-54.2	-86.4	130	3
2023-08-28T06:00	23309	34	-54.2	-86.4	133	3
2023-08-28T06:00	23337	34	-54.2	-86.4	139	3
2023-08-28T06:00	23361	34	-54.2	-86.4	145	3
2023-08-28T06:00	23394	34	-54.1	-86.3	150	3
2023-08-28T06:00	23416	34	-53.9	-86.2	152	3
2023-08-28T06:00	23443	34	-53.8	-86.1	149	2
2023-08-28T06:00	23463	34	-54.0	-86.2	139	2
2023-08-28T06:00	23496	33	-54.1	-85.6	123	2
2023-08-28T06:00	23521	33	-54.2	-86.4	111	2
2023-08-28T06:00	23549	33	-54.1	-86.3	105	3
2023-08-28T06:00	23574	33	-54.0	-86.2	103	3
2023-08-28T06:00	23603	33	-54.0	-86.2	105	3
2023-08-28T06:00	23631	33	-53.9	-86.2	107	3
2023-08-28T06:00	23654	33	-53.9	-86.2	109	3
2023-08-28T06:00	23683	33	-53.7	-86.0	109	2
2023-08-28T06:00	23710	32	-53.7	-86.0	104	2
2023-08-28T06:00	23736	32	-53.7	-86.0	93	1
2023-08-28T06:00	23764	32	-53.5	-85.9	78	1
2023-08-28T06:00	23785	32	-53.6		68	2
2023-08-28T06:00	23818	32	-53.6		63	2
2023-08-28T06:00	23842	32	-53.6		59	2
2023-08-28T06:00	23873	32	-53.5	-85.9	56	3
2023-08-28T06:00	23894	31	-53.5	-85.9	53	3
2023-08-28T06:00	23925	31	-53.6		50	4
2023-08-28T06:00	23953	31	-53.7	-86.0	48	4
2023-08-28T06:00	23980	31	-53.7	-86.0	47	4
2023-08-28T06:00	24007	31	-53.8	-86.1	47	4
2023-08-28T06:00	24033	31	-53.8	-86.1	47	5
2023-08-28T06:00	24056	31	-53.9	-85.5	47	5
2023-08-28T06:00	24092	31	-54.0	-85.5	45	5
2023-08-28T06:00	24115	30	-54.1	-86.3	42	5
2023-08-28T06:00	24143	30	-54.0	-86.2	39	5
2023-08-28T06:00	24166	30	-53.9	-86.2	35	5
2023-08-28T06:00	24199	30	-53.8	-86.1	34	6
2023-08-28T06:00	24224	30	-53.8	-86.1	33	6
2023-08-28T06:00	24249	30	-53.7	-86.0	34	6
2023-08-28T06:00	24273	30	-53.6		35	6
2023-08-28T06:00	24301	30	-53.5	-85.9	38	5
2023-08-28T06:00	24331	29	-53.4	-85.8	40	5
2023-08-28T06:00	24358	29	-53.3	-86.5	41	5
2023-08-28T06:00	24388	29	-53.1	-86.3	42	5
2023-08-28T06:00	24410	29	-53.0	-86.3	42	5
2023-08-28T06:00	24442	29	-52.7	-86.0	40	5
2023-08-28T06:00	24469	29	-52.3	-85.8	39	5
2023-08-28T06:00	24492	29	-52.2	-85.7	39	5
2023-08-28T06:00	24520	29	-52.2	-85.7	40	6
2023-08-28T06:00	24546	28	-52.0	-85.5	41	6
2023-08-28T06:00	24582	28	-51.9	-85.5	43	6
2023-08-28T06:00	24605	28	-51.8	-85.4	44	5
2023-08-28T06:00	24629	28	-51.7	-85.3	45	5
2023-08-28T06:00	24663	28	-51.4	-85.1	46	4
2023-08-28T06:00	24688	28	-51.4	-85.1	46	4
2023-08-28T06:00	24715	28	-51.6	-85.2	45	3
2023-08-28T06:00	24744	28	-51.7	-85.3	41	2
2023-08-28T06:00	24768	27	-51.5	-85.2	25	1
2023-08-28T06:00	24794	27	-51.3	-85.0	354	1
2023-08-28T06:00	24829	27	-51.1	-84.9	333	1
2023-08-28T06:00	24848	27	-50.9	-84.7	329	2
2023-08-28T06:00	24873	27	-50.6	-85.4	330	3
2023-08-28T06:00	24907	27	-50.5	-85.3	333	3
2023-08-28T06:00	24939	27	-50.6	-84.5	336	4
2023-08-28T06:00	24964	27	-50.7	-84.6	340	4
2023-08-28T06:00	24994	27	-50.8	-84.7	346	4
2023-08-28T06:00	25017	26	-50.8	-84.7	355	3
2023-08-28T06:00	25045	26	-50.6	-84.5	7	3
2023-08-28T06:00	25076	26	-50.6	-84.5	20	3
2023-08-28T06:00	25095	26	-50.6	-84.5	30	3
2023-08-28T06:00	25130	26	-50.6	-84.5	34	3
2023-08-28T06:00	25150	26	-50.5	-84.5	31	3
2023-08-28T06:00	25175	26	-50.4	-84.4	26	3
2023-08-28T06:00	25203	26	-50.4	-85.3	22	3
2023-08-28T06:00	25242	26	-50.3	-85.2	24	4
2023-08-28T06:00	25262	25	-50.3	-85.2	28	4
2023-08-28T06:00	25289	25	-50.0	-85.0	35	5
2023-08-28T06:00	25313	25	-49.6	-84.7	43	5
2023-08-28T06:00	25344	25	-49.4	-84.6	53	5
2023-08-28T06:00	25372	25	-49.5	-84.6	65	5
2023-08-28T06:00	25400	25	-49.5	-84.6	77	6
2023-08-28T06:00	25431	25	-49.5	-84.6	86	6
2023-08-28T06:00	25457	25	-49.3	-84.5	93	6
2023-08-28T06:00	25486	25	-49.4	-84.6	96	6
2023-08-28T06:00	25507	25	-49.3	-84.5	98	6
2023-08-28T06:00	25535	24	-49.1	-84.3	100	5
2023-08-28T06:00	25561	24	-49.2	-84.4	100	5
2023-08-28T06:00	25589	24	-49.3	-84.5	101	4
2023-08-28T06:00	25617	24	-49.4	-84.6	102	4
2023-08-28T06:00	25655	24	-49.4	-84.6	102	3
2023-08-28T06:00	25672	24	-49.4	-84.6	100	3
2023-08-28T06:00	25696	24	-49.5	-84.6	99	2
2023-08-28T06:00	25724	24	-49.5	-84.6	99	2
2023-08-28T06:00	25747	24	-49.5	-84.6	103	2
2023-08-28T06:00	25785	24	-49.4	-84.6	107	2
2023-08-28T06:00	25808	23	-49.1	-84.3	109	2
2023-08-28T06:00	25835	23	-49.0	-84.3	110	2
2023-08-28T06:00	25862	23	-48.8	-84.1	110	3
2023-08-28T06:00	25897	23	-48.6		110	3
2023-08-28T06:00	25936	23	-48.6		111	3
2023-08-28T06:00	25957	23	-48.6		111	3
2023-08-28T06:00	25992	23	-48.7	-84.1	112	2
2023-08-28T06:00	26010	23	-48.7	-84.1	111	2
2023-08-28T06:00	26040	23	-48.6		109	2
2023-08-28T06:00	26071	23	-48.4	-83.8	108	1
2023-08-28T06:00	26105	22	-48.2	-84.8	115	1
2023-08-28T06:00	26125	22	-48.0	-84.6	147	1
2023-08-28T06:00	26157	22	-48.0	-84.6	189	1
2023-08-28T06:00	26188	22	-48.0	-84.6	209	1
2023-08-28T06:00	26220	22	-48.1	-83.6	218	2
2023-08-28T06:00	26242	22	-48.1	-83.6	222	2
2023-08-28T06:00	26278	22	-47.9	-83.5	223	3
2023-08-28T06:00	26299	22	-47.8	-83.4	222	3
2023-08-28T06:00	26329	22	-47.7	-84.4	222	4
2023-08-28T06:00	26350	22	-47.7	-84.4	224	4
2023-08-28T06:00	26384	21	-47.7	-84.4	227	4
2023-08-28T06:00	26407	21	-47.6	-84.3	233	4
2023-08-28T06:00	26443	21	-47.5	-84.3	239	3
2023-08-28T06:00	26473	21	-47.3	-84.1	244	3
2023-08-28T06:00	26497	21	-47.3	-84.1	248	2
2023-08-28T06:00	26522	21	-47.2	-84.1	248	2
2023-08-28T06:00	26548	21	-47.2	-84.1	244	1
2023-08-28T06:00	26580	21	-47.2	-84.1	235	0
2023-08-28T06:00	26591	21	-47.0	-83.9	57	0
2023-08-28T06:00	26635	21	-47.0	-83.9	43	1
2023-08-28T06:00	26655	21	-47.0	-83.9	32	1
2023-08-28T06:00	26687	21	-47.0	-83.9	22	1
2023-08-28T06:00	26717	20	-47.0	-83.9	11	1
2023-08-28T06:00	26746	20	-47.0	-83.9	357	1
2023-08-28T06:00	26772	20	-47.0	-83.9	335	1
2023-08-28T06:00	26796	20	-46.9	-83.9	311	1
2023-08-28T06:00	26835	20	-46.7	-83.7	294	1
2023-08-28T06:00	26857	20	-46.6	-83.6	286	1
2023-08-28T06:00	26892	20	-46.4	-83.5	282	1
2023-08-28T06:00	26922	20	-46.3	-83.4	280	1
2023-08-28T06:00	26960	20	-46.0	-83.2	279	1
2023-08-28T06:00	26978	20	-45.7	-83.0	261	0
2023-08-28T06:00	27006	20	-45.4	-82.8	162	0
2023-08-28T06:00	27039	19	-45.1	-82.6	150	1
2023-08-28T06:00	27073	19	-45.0	-82.5	150	1
2023-08-28T06:00	27099	19	-45.0	-82.5	150	1
2023-08-28T06:00	27130	19	-44.9	-82.5	147	1
2023-08-28T06:00	27161	19	-44.9	-82.5	144	1
2023-08-28T06:00	27192	19	-44.7	-82.3	143	1
2023-08-28T06:00	27223	19	-44.6	-82.2	149	1
2023-08-28T06:00	27254	19	-44.6	-82.2	166	1
2023-08-28T06:00	27280	19	-44.6	-82.2	188	1
2023-08-28T06:00	27301	19	-44.8	-82.4	201	1
2023-08-28T06:00	27344	19	-44.9	-82.5	204	2
2023-08-28T06:00	27373	19	-44.9	-82.5	203	2
2023-08-28T06:00	27394	18	-45.0	-82.5	202	2
2023-08-28T06:00	27427	18	-45.0	-82.5	200	3
2023-08-28T06:00	27457	18	-45.0	-82.5	198	3
2023-08-28T06:00	27490	18	-45.1	-82.6	198	3
2023-08-28T06:00	27515	18	-45.1	-82.6	199	2
2023-08-28T06:00	27552	18	-45.0	-82.5	203	2
2023-08-28T06:00	27583	18	-44.9	-82.5	212	2
2023-08-28T06:00	27606	18	-44.8	-82.4	226	1
2023-08-28T06:00	27625	18	-44.8	-82.4	242	1
2023-08-28T06:00	27656	18	-44.8	-82.4	255	1
2023-08-28T06:00	27684	18	-44.6	-82.2	261	2
2023-08-28T06:00	27715	18	-44.6	-82.2	262	2
2023-08-28T06:00	27729	18	-44.5	-82.2	263	2
2023-08-28T06:00	27770	17	-44.4	-82.1	265	2
2023-08-28T06:00	27798	17	-44.4	-82.1	269	2
2023-08-28T06:00	27821	17	-44.4	-82.1	277	2
2023-08-28T06:00	27854	17	-44.2	-82.0	287	2
2023-08-28T06:00	27881	17	-43.9	-81.8	295	3
2023-08-28T06:00	27902	17	-43.7	-81.6	300	3
2023-08-28T06:00	27930	17	-43.5	-81.5	302	4
2023-08-28T06:00	27972	17	-43.4	-81.4	303	4
2023-08-28T06:00	27994	17	-43.4	-81.4	303	5
2023-08-28T06:00	28011	17	-43.5	-81.5	305	5
2023-08-28T06:00	28053	17	-43.5	-81.5	308	5
2023-08-28T06:00	28082	17	-43.5	-81.5	314	5
2023-08-28T06:00	28113	17	-43.6	-81.5	321	5
2023-08-28T06:00	28126	17	-43.7	-81.6	329	5
2023-08-28T06:00	28158	16	-43.7	-81.6	336	5
2023-08-28T06:00	28187	16	-43.7	-81.6	343	5
2023-08-28T06:00	28216	16	-43.8	-81.7	347	5
2023-08-28T06:00	28243	16	-43.9	-81.8	350	5
2023-08-28T06:00	28275	16	-43.9	-81.8	351	5
2023-08-28T06:00	28296	16	-43.8	-81.7	350	5
2023-08-28T06:00	28325	16	-43.7	-81.6	348	4
2023-08-28T06:00	28357	16	-43.7	-81.6	345	4
2023-08-28T06:00	28393	16	-43.7	-81.6	341	4
2023-08-28T06:00	28410	16	-43.8	-81.7	335	4
2023-08-28T06:00	28462	16	-43.8	-81.7	330	4
2023-08-28T06:00	28487	16	-43.8	-81.7	325	4
2023-08-28T06:00	28517	16	-43.7	-81.6	320	4
2023-08-28T06:00	28531	16	-43.6	-81.5	316	4
2023-08-28T06:00	28569	15	-43.7	-81.6	313	4
2023-08-28T06:00	28608	15	-43.8	-81.7	310	4
2023-08-28T06:00	28632	15	-43.9	-81.8	308	5
2023-08-28T06:00	28665	15	-44.0	-81.8	307	5
2023-08-28T06:00	28691	15	-43.9	-81.8	309	5
2023-08-28T06:00	28721	15	-43.9	-81.8	314	5
2023-08-28T06:00	28759	15	-43.8	-81.7	321	5
2023-08-28T06:00	28781	15	-43.5	-81.5	331	5
2023-08-28T06:00	28815	15	-43.3	-81.3	343	5
2023-08-28T06:00	28835	15	-43.2	-81.3	355	4
2023-08-28T06:00	28878	15	-43.3	-81.3	6	4
2023-08-28T06:00	28899	15	-43.3	-81.3	18	5
2023-08-28T06:00	28927	15	-43.4	-81.4	28	5
2023-08-28T06:00	28955	15	-43.5	-81.5	38	5
2023-08-28T06:00	29004	15	-43.4	-81.4	47	5
2023-08-28T06:00	29030	14	-43.2	-81.3	55	5
2023-08-28T06:00	29057	14	-43.1	-81.2	64	5
2023-08-28T06:00	29093	14	-43.1	-81.2	72	5
2023-08-28T06:00	29128	14	-43.1	-81.2	80	4
2023-08-28T06:00	29161	14	-43.0	-81.1	84	4
2023-08-28T06:00	29179	14	-42.9	-81.1	86	4
2023-08-28T06:00	29204	14	-42.8	-81.0	85	3
2023-08-28T06:00	29241	14	-42.8	-81.0	85	3
2023-08-28T06:00	29259	14	-42.8	-81.0	86	3
2023-08-28T06:00	29319	14	-42.6	-80.8	89	3
2023-08-28T06:00	29326	14	-42.4	-80.7	94	3
2023-08-28T06:00	29355	14	-42.4	-80.7	98	3
2023-08-28T06:00	29384	14	-42.4	-80.7	101	3
2023-08-28T06:00	29403	14	-42.3	-80.6	102	3
2023-08-28T06:00	29454	14	-42.2	-80.6	103	2
2023-08-28T06:00	29475	14	-42.2	-80.6	105	2
2023-08-28T06:00	29500	14	-42.2	-80.6	113	2
2023-08-28T06:00	29538	13	-42.2	-80.6	128	2
2023-08-28T06:00	29567	13	-42.3	-80.6	146	2
2023-08-28T06:00	29578	13	-42.2	-80.6	160	3
2023-08-28T06:00	29624	13	-42.1	-80.5	171	3
2023-08-28T06:00	29646	13	-42.1	-80.5	180	4
2023-08-28T06:00	29677	13	-42.2	-80.6	190	4
2023-08-28T06:00	29687	13	-42.3	-80.6	203	4
2023-08-28T06:00	29720	13	-42.2	-80.6	220	4
2023-08-28T06:00	29750	13	-41.6	-80.1	239	4
2023-08-28T06:00	29783	13	-41.0	-79.7	258	4
2023-08-28T06:00	29796	13	-40.7	-79.5	274	4
2023-08-28T06:00	29837	13	-40.6	-79.5	287	5
2023-08-28T06:00	29871	13	-40.3	-79.2	298	5
2023-08-28T06:00	29888	13	-40.0	-79.0	308	5
2023-08-28T06:00	29922	13	-39.8	-78.9	317	6
2023-08-28T06:00	29958	13	-39.6	-78.8	326	6
2023-08-28T06:00	29987	13	-39.4	-78.6	335	6
2023-08-28T06:00	30006	13	-39.2	-78.5	344	6
2023-08-28T06:00	30032	12	-39.1	-78.4	354	5
2023-08-28T06:00	30070	12	-39.2	-78.5	4	5
2023-08-28T06:00	30081	12	-39.3	-78.5	15	4
2023-08-28T06:00	30122	12	-39.3	-78.5	27	4
2023-08-28T06:00	30147	12	-39.2	-78.5	41	3
2023-08-28T06:00	30180	12	-39.2	-78.5	56	3
2023-08-28T06:00	30212	12	-39.2	-78.5	68	3
2023-08-28T06:00	30237	12	-39.2	-78.5	73	2
2023-08-28T06:00	30264	12	-39.2	-78.5	68	2
2023-08-28T06:00	30304	12	-39.1	-78.4	57	3
2023-08-28T06:00	30339	12	-39.0	-78.3	47	3
2023-08-28T06:00	30349	12	-38.8	-78.2	43	4
2023-08-28T06:00	30400	12	-38.5	-78.0	43	5
2023-08-28T06:00	30428	12	-38.3	-77.9	46	5
2023-08-28T06:00	30463	12	-38.3	-77.9	49	6
2023-08-28T06:00	30501	12	-38.5	-78.0	51	7
2023-08-28T06:00	30529	12	-38.6	-78.1	54	7
2023-08-28T06:00	30565	12	-38.7	-78.1	56	7
2023-08-28T06:00	30594	12	-38.7	-78.1	58	7
2023-08-28T06:00	30627	11	-38.8	-78.2	61	7
2023-08-28T06:00	30649	11	-39.1	-78.4	66	6
2023-08-28T06:00	30694	11	-39.3	-78.5	72	6
2023-08-28T06:00	30723	11	-39.5	-78.7	80	5
2023-08-28T06:00	30745	11	-39.6	-78.8	88	5
2023-08-28T06:00	30795	11	-39.7	-78.8	97	5
2023-08-28T06:00	30837	11	-39.9	-79.0	104	5
2023-08-28T06:00	30865	11	-40.0	-79.0	109	4
2023-08-28T06:00	30872	11	-40.1	-79.1	110	4
2023-08-28T06:00	30912	11	-40.2	-79.2	106	4
2023-08-28T06:00	30931	11	-40.3	-79.2	98	4
2023-08-28T06:00	30976	11	-40.4	-79.3	90	5
2023-08-28T06:00	31007	11	-40.5	-79.4	85	5
2023-08-28T06:00	31059	11	-40.5	-79.4	83	6
2023-08-28T06:00	31073	11	-40.6	-79.5	84	6
2023-08-28T06:00	31100	11	-40.7	-79.5	85	7
2023-08-28T06:00	31139	11	-40.6	-79.5	87	7
2023-08-28T06:00	31162	11	-40.4	-79.3	89	6
2023-08-28T06:00	31196	11	-40.2	-79.2	91	6
2023-08-28T06:00	31213	10	-40.1	-79.1	95	5
2023-08-28T06:00	31239	10	-39.9	-79.0	100	4
2023-08-28T06:00	31292	10	-39.7	-78.8	106	4
2023-08-28T06:00	31335	10	-39.4	-78.6	111	4
2023-08-28T06:00	31347	10	-39.2	-78.5	114	4
2023-08-28T06:00	31380	10	-39.2	-78.5	116	4
2023-08-28T06:00	31403	10	-39.2	-78.5	119	4
2023-08-28T06:00	31431	10	-39.1	-78.4	125	4
2023-08-28T06:00	31472	10	-39.0	-78.3	133	4
2023-08-28T06:00	31497	10	-38.9	-78.3	143	4
2023-08-28T06:00	31517	10	-38.9	-78.3	154	5
2023-08-28T06:00	31554	10	-39.0	-78.3	164	5
2023-08-28T06:00	31598	10	-39.1	-78.4	172	5
2023-08-28T06:00	31604	10	-39.2	-78.5	178	6
2023-08-28T06:00	31638	10	-39.2	-78.5	182	6
2023-08-28T06:00	31684	10	-39.0	-78.3	184	6
2023-08-28T06:00	31705	10	-38.9	-78.3	185	6
2023-08-28T06:00	31741	10	-38.6	-78.1	185	6
2023-08-28T06:00	31757	10	-38.3	-77.9	184	6
2023-08-28T06:00	31799	10	-38.0	-77.6	181	6
2023-08-28T12:00	114	998	15.8	11.4	277	3
2023-08-28T12:00	137	995	15.5	10.9	287	3
2023-08-28T12:00	158	993	15.1	10.7	283	3
2023-08-28T12:00	180	990	15.0	10.4	279	3
2023-08-28T12:00	201	988	14.8	10.8	274	3
2023-08-28T12:00	226	985	14.5	10.7	269	3
2023-08-28T12:00	245	983	14.4	10.5	267	3
2023-08-28T12:00	261	981	14.2	10.4	269	3
2023-08-28T12:00	288	978	14.0	10.9	274	3
2023-08-28T12:00	305	976	13.9	10.9	280	4
2023-08-28T12:00	323	974	13.7	10.8	287	4
2023-08-28T12:00	346	971	13.5	10.8	292	4
2023-08-28T12:00	364	969	13.3	10.5	297	4
2023-08-28T12:00	387	966	13.1	10.6	302	4
2023-08-28T12:00	410	964	12.9	10.5	305	4
2023-08-28T12:00	434	961	12.7	10.7	308	4
2023-08-28T12:00	459	958	12.5	10.7	309	4
2023-08-28T12:00	481	955	12.2	10.4	307	4
2023-08-28T12:00	505	953	12.0	9.9	304	4
2023-08-28T12:00	529	950	11.8	9.6	300	4
2023-08-28T12:00	554	947	11.6	9.1	298	5
2023-08-28T12:00	578	945	11.4	9.2	297	5
2023-08-28T12:00	604	942	11.2	9.0	297	5
2023-08-28T12:00	619	940	11.1	8.6	296	6
2023-08-28T12:00	647	937	11.0	8.1	295	6
2023-08-28T12:00	670	934	10.8	8.2	292	6
2023-08-28T12:00	697	931	10.5	8.7	290	6
2023-08-28T12:00	728	928	10.3	7.4	289	6
2023-08-28T12:00	754	925	11.0	4.4	289	6
2023-08-28T12:00	782	922	10.8	4.1	291	6
2023-08-28T12:00	810	919	10.8	4.1	292	7
2023-08-28T12:00	841	915	10.6	4.5	292	8
2023-08-28T12:00	868	912	10.4	3.9	291	8
2023-08-28T12:00	898	909	10.3	2.8	290	8
2023-08-28T12:00	927	906	10.2	3.5	288	8
2023-08-28T12:00	953	903	10.0	3.2	285	7
2023-08-28T12:00	979	900	9.8	3.2	283	7
2023-08-28T12:00	1009	897	9.7	2.6	280	7
2023-08-28T12:00	1035	894	9.6	2.3	277	6
2023-08-28T12:00	1061	891	9.4	2.6	275	6
2023-08-28T12:00	1090	888	9.1	2.5	274	6
2023-08-28T12:00	1118	885	9.0	2.6	275	6
2023-08-28T12:00	1141	883	8.8	2.5	277	6
2023-08-28T12:00	1162	881	8.6	2.2	279	6
2023-08-28T12:00	1181	878	8.5	2.3	279	6
2023-08-28T12:00	1203	876	8.4	1.8	275	5
2023-08-28T12:00	1225	874	8.3	2.3	266	5
2023-08-28T12:00	1245	872	8.1	2.0	257	5
2023-08-28T12:00	1266	870	8.1	1.2	253	5
2023-08-28T12:00	1286	867	8.1	1.2	255	5
2023-08-28T12:00	1309	865	7.9	1.2	261	4
2023-08-28T12:00	1327	863	7.7	1.1	268	4
2023-08-28T12:00	1346	861	7.6	1.2	270	4
2023-08-28T12:00	1368	859	7.4	1.2	266	3
2023-08-28T12:00	1385	857	7.3	1.2	258	4
2023-08-28T12:00	1407	855	7.2	1.1	254	4
2023-08-28T12:00	1426	853	7.1	0.9	254	5
2023-08-28T12:00	1447	851	6.9	0.8	257	5
2023-08-28T12:00	1471	848	6.8	0.7	263	5
2023-08-28T12:00	1494	846	6.6	0.5	271	6
2023-08-28T12:00	1514	844	6.6	0.2	278	6
2023-08-28T12:00	1535	842	6.5	0.0	284	6
2023-08-28T12:00	1554	840	6.5	-0.3	288	6
2023-08-28T12:00	1580	837	6.3	-0.4	290	6
2023-08-28T12:00	1602	835	6.2	-0.6	289	6
2023-08-28T12:00	1622	833	6.2	-0.7	287	6
2023-08-28T12:00	1650	830	6.0	-0.9	284	6
2023-08-28T12:00	1674	828	6.1	-0.9	281	5
2023-08-28T12:00	1695	825	6.0	-1.3	277	5
2023-08-28T12:00	1713	823	6.3	-2.6	274	5
2023-08-28T12:00	1734	821	6.3	-2.0	270	5
2023-08-28T12:00	1755	819	6.5	-2.5	268	5
2023-08-28T12:00	1777	817	6.5	-2.8	265	4
2023-08-28T12:00	1800	815	6.4	-3.1	262	4
2023-08-28T12:00	1823	813	6.3	-3.2	259	4
2023-08-28T12:00	1846	810	6.2	-3.2	256	4
2023-08-28T12:00	1872	808	6.1	-3.3	253	4
2023-08-28T12:00	1897	805	6.0	-3.6	253	4
2023-08-28T12:00	1924	803	5.9	-3.8	255	4
2023-08-28T12:00	1947	800	5.7	-4.0	260	4
2023-08-28T12:00	1968	798	5.7	-4.4	268	4
2023-08-28T12:00	1989	796	5.6	-4.5	274	3
2023-08-28T12:00	2007	795	5.4		273	3
2023-08-28T12:00	2029	792	5.2	-4.5	263	3
2023-08-28T12:00	2051	790	5.0	-4.6	246	3
2023-08-28T12:00	2077	788	4.9	-5.0	229	4
2023-08-28T12:00	2104	785	4.9	-5.2	217	5
2023-08-28T12:00	2131	783	4.7	-5.4	210	5
2023-08-28T12:00	2153	781	4.6	-5.7	208	5
2023-08-28T12:00	2172	779	4.5	-6.1	209	5
2023-08-28T12:00	2197	776	4.4	-6.5	213	5
2023-08-28T12:00	2219	774	4.2	-6.7	219	5
2023-08-28T12:00	2244	772	3.9	-7.1	225	5
2023-08-28T12:00	2264	770	3.8	-7.8	231	5
2023-08-28T12:00	2287	768	3.6	-8.5	235	5
2023-08-28T12:00	2311	765	3.5	-8.6	238	5
2023-08-28T12:00	2335	763	3.3	-8.8	241	4
2023-08-28T12:00	2359	761	3.2	-9.0	242	4
2023-08-28T12:00	2380	759	3.1	-10.3	241	4
2023-08-28T12:00	2409	756	3.0	-10.8	238	4
2023-08-28T12:00	2436	754	3.0	-11.2	237	4
2023-08-28T12:00	2457	752	3.0	-11.5	239	4
2023-08-28T12:00	2485	749	2.8	-12.2	243	5
2023-08-28T12:00	2506	747	2.8	-12.2	246	5
2023-08-28T12:00	2528	745	2.7	-12.9	250	5
2023-08-28T12:00	2552	743	2.7	-14.6	252	6
2023-08-28T12:00	2575	741	2.6	-14.5	253	6
2023-08-28T12:00	2603	738	2.5	-15.0	253	6
2023-08-28T12:00	2632	736	2.5	-10.8	251	6
2023-08-28T12:00	2652	734	2.6	-14.3	248	6
2023-08-28T12:00	2681	731	2.8	-15.6	243	6
2023-08-28T12:00	2706	729	2.8	-15.4	236	5
2023-08-28T12:00	2724	727	2.8	-15.8	229	5
2023-08-28T12:00	2745	725	2.8	-16.6	224	6
2023-08-28T12:00	2764	724	2.7	-16.5	222	6
2023-08-28T12:00	2788	722	2.6	-17.8	223	6
2023-08-28T12:00	2813	720	2.5	-15.2	225	6
2023-08-28T12:00	2830	718	2.4	-15.0	228	6
2023-08-28T12:00	2858	715	2.2	-13.3	231	6
2023-08-28T12:00	2883	713	2.0	-13.1	233	5
2023-08-28T12:00	2905	711	1.9	-14.2	234	5
2023-08-28T12:00	2925	709	1.8	-14.5	233	5
2023-08-28T12:00	2952	707	1.6	-14.6	233	4
2023-08-28T12:00	2967	706	1.5	-14.8	233	4
2023-08-28T12:00	2985	704	1.4	-15.2	234	5
2023-08-28T12:00	3003	702	1.3	-15.4	236	5
2023-08-28T12:00	3030	700	1.1	-15.8	238	5
2023-08-28T12:00	3059	698	0.9	-15.9	239	5
2023-08-28T12:00	3086	695	0.7	-16.2	238	5
2023-08-28T12:00	3117	693	0.4	-15.8	237	5
2023-08-28T12:00	3140	691	0.4	-24.0	236	5
2023-08-28T12:00	3163	689	0.2	-17.1	233	5
2023-08-28T12:00	3194	686	-0.1	-18.1	231	5
2023-08-28T12:00	3217	684	-0.1	-24.3	230	6
2023-08-28T12:00	3240	682	-0.3	-24.2	230	6
2023-08-28T12:00	3262	680	-0.4	-24.5	230	6
2023-08-28T12:00	3281	679	-0.4	-24.6	231	6
2023-08-28T12:00	3299	677	-0.5	-19.9	231	6
2023-08-28T12:00	3316	676	-0.5	-23.0	233	6
2023-08-28T12:00	3334	674	-0.5	-19.8	235	6
2023-08-28T12:00	3358	672	-0.6	-20.4	237	6
2023-08-28T12:00	3382	670	-0.7	-20.9	238	5
2023-08-28T12:00	3407	668	-0.9	-21.1	237	5
2023-08-28T12:00	3435	666	-1.1		232	5
2023-08-28T12:00	3463	663	-1.2	-25.6	227	5
2023-08-28T12:00	3487	661	-1.3	-25.7	223	6
2023-08-28T12:00	3510	659	-1.5	-29.1	221	6
2023-08-28T12:00	3534	657	-1.6	-32.3	221	6
2023-08-28T12:00	3557	656	-1.7	-34.0	222	6
2023-08-28T12:00	3580	654	-1.8	-35.1	223	6
2023-08-28T12:00	3605	652	-1.7	-34.2	224	6
2023-08-28T12:00	3633	649	-1.8	-33.9	225	6
2023-08-28T12:00	3660	647	-2.0	-33.8	226	7
2023-08-28T12:00	3684	645	-2.0	-31.9	226	7
2023-08-28T12:00	3703	644	-2.1	-29.8	226	8
2023-08-28T12:00	3727	642	-2.1	-36.7	227	8
2023-08-28T12:00	3755	639	-2.0	-32.6	228	8
2023-08-28T12:00	3778	638	-2.0	-29.8	229	8
2023-08-28T12:00	3797	636	-2.1	-29.3	231	8
2023-08-28T12:00	3819	634	-2.2	-28.9	232	8
2023-08-28T12:00	3845	632	-2.3	-25.3	232	8
2023-08-28T12:00	3876	630	-2.4	-22.1	231	8
2023-08-28T12:00	3902	628	-2.6	-21.0	230	8
2023-08-28T12:00	3924	626	-2.8	-17.1	228	7
2023-08-28T12:00	3951	624	-3.0	-15.8	228	7
2023-08-28T12:00	3970	622	-3.1	-13.9	228	7
2023-08-28T12:00	3991	621	-3.3	-12.8	229	7
2023-08-28T12:00	4008	619	-3.4	-12.7	231	7
2023-08-28T12:00	4029	618	-3.5	-12.0	234	8
2023-08-28T12:00	4056	616	-3.7	-11.7	237	8
2023-08-28T12:00	4084	613	-4.0	-11.7	240	8
2023-08-28T12:00	4110	611	-4.3	-11.9	242	9
2023-08-28T12:00	4132	610	-4.6	-11.7	242	9
2023-08-28T12:00	4153	608	-4.8	-11.8	242	9
2023-08-28T12:00	4170	607	-5.0	-11.9	244	8
2023-08-28T12:00	4190	605	-5.3	-11.7	247	8
2023-08-28T12:00	4212	603	-5.5	-11.8	251	8
2023-08-28T12:00	4240	601	-5.8	-11.6	254	8
2023-08-28T12:00	4267	599	-6.1	-11.5	254	8
2023-08-28T12:00	4284	598	-6.2	-11.2	251	9
2023-08-28T12:00	4308	596	-6.4	-10.7	248	9
2023-08-28T12:00	4330	594	-6.4	-10.0	245	10
2023-08-28T12:00	4360	592	-6.1	-9.0	243	10
2023-08-28T12:00	4386	590	-6.1	-8.7	239	10
2023-08-28T12:00	4409	588	-6.4	-8.8	234	11
2023-08-28T12:00	4436	586	-6.3	-8.1	228	11
2023-08-28T12:00	4464	584	-6.2	-7.9	222	12
2023-08-28T12:00	4496	582	-6.4	-7.8	217	12
2023-08-28T12:00	4522	580	-6.4	-7.6	213	13
2023-08-28T12:00	4544	579	-6.6	-7.7	211	13
2023-08-28T12:00	4564	577	-6.7	-7.7	211	14
2023-08-28T12:00	4593	575	-6.6	-7.4	212	15
2023-08-28T12:00	4615	573	-6.7	-7.4	213	17
2023-08-28T12:00	4638	572	-6.8	-7.4	214	18
2023-08-28T12:00	4662	570	-6.9	-7.4	215	19
2023-08-28T12:00	4683	568	-6.9	-7.4	215	19
2023-08-28T12:00	4704	567	-6.8	-7.4	216	20
2023-08-28T12:00	4728	565	-7.1	-7.5	216	20
2023-08-28T12:00	4753	563	-7.1	-7.5	215	21
2023-08-28T12:00	4774	562	-7.3	-7.6	215	21
2023-08-28T12:00	4800	560	-7.5	-7.6	215	22
2023-08-28T12:00	4828	558	-7.6	-7.8	215	22
2023-08-28T12:00	4855	556	-7.7	-8.0	214	22
2023-08-28T12:00	4880	554	-7.8	-8.2	214	22
2023-08-28T12:00	4906	552	-7.8	-8.1	214	21
2023-08-28T12:00	4933	550	-7.9	-8.2	213	21
2023-08-28T12:00	4960	548	-8.1	-8.5	213	21
2023-08-28T12:00	4987	547	-8.2	-8.6	212	21
2023-08-28T12:00	5012	545	-8.4	-8.7	212	21
2023-08-28T12:00	5039	543	-8.5	-8.8	212	21
2023-08-28T12:00	5073	540	-8.6	-9.0	212	21
2023-08-28T12:00	5102	538	-8.7	-9.1	211	21
2023-08-28T12:00	5130	536	-8.8	-9.2	211	22
2023-08-28T12:00	5157	535	-8.9	-9.3	211	22
2023-08-28T12:00	5188	533	-9.0	-9.2	211	23
2023-08-28T12:00	5210	531	-9.1	-9.3	211	24
2023-08-28T12:00	5235	529	-9.2	-9.4	211	24
2023-08-28T12:00	5258	528	-9.3	-9.6	211	24
2023-08-28T12:00	5281	526	-9.5	-9.9	211	24
2023-08-28T12:00	5304	525	-9.6	-10.0	211	24
2023-08-28T12:00	5331	523	-9.8	-10.3	210	24
2023-08-28T12:00	5355	521	-9.9	-10.2	210	24
2023-08-28T12:00	5383	519	-10.1	-10.5	211	24
2023-08-28T12:00	5411	517	-10.3	-10.6	211	24
2023-08-28T12:00	5438	516	-10.5	-10.7	212	24
2023-08-28T12:00	5465	514	-10.6		212	24
2023-08-28T12:00	5489	512	-10.6	-10.9	211	24
2023-08-28T12:00	5517	510	-10.7	-11.1	211	25
2023-08-28T12:00	5544	509	-10.8	-11.2	211	25
2023-08-28T12:00	5566	507	-10.9	-11.2	211	25
2023-08-28T12:00	5592	505	-11.1	-11.4	211	25
2023-08-28T12:00	5618	504	-11.3	-11.5	212	26
2023-08-28T12:00	5642	502	-11.4	-11.7	213	26
2023-08-28T12:00	5670	500	-11.6	-12.0	214	26
2023-08-28T12:00	5701	498	-11.8	-12.2	215	26
2023-08-28T12:00	5724	497	-11.9	-12.3	216	26
2023-08-28T12:00	5751	495	-12.0	-12.5	217	25
2023-08-28T12:00	5781	493	-12.1	-12.7	217	25
2023-08-28T12:00	5805	491	-12.3	-12.9	217	25
2023-08-28T12:00	5836	490	-12.4	-13.1	217	24
2023-08-28T12:00	5862	488	-12.6	-13.3	216	24
2023-08-28T12:00	5890	486	-12.7	-13.4	216	23
2023-08-28T12:00	5914	485	-12.9	-13.6	216	23
2023-08-28T12:00	5938	483	-13.0	-13.7	216	23
2023-08-28T12:00	5962	482	-13.2	-13.9	217	23
2023-08-28T12:00	5983	480	-13.3	-14.1	218	23
2023-08-28T12:00	6015	478	-13.4	-14.2	218	23
2023-08-28T12:00	6044	476	-13.6	-14.4	218	23
2023-08-28T12:00	6072	475	-13.7	-14.6	219	23
2023-08-28T12:00	6100	473	-13.9	-14.8	219	23
2023-08-28T12:00	6131	471	-14.0	-15.0	219	23
2023-08-28T12:00	6159	469	-14.2	-15.3	220	23
2023-08-28T12:00	6188	467	-14.4	-15.5	220	23
2023-08-28T12:00	6213	466	-14.5	-15.6	221	23
2023-08-28T12:00	6239	464	-14.7	-15.8	222	23
2023-08-28T12:00	6265	463	-14.8	-16.0	223	23
2023-08-28T12:00	6290	461	-15.0	-16.2	224	24
2023-08-28T12:00	6321	459	-15.1	-16.4	226	24
2023-08-28T12:00	6348	458	-15.2	-16.6	228	24
2023-08-28T12:00	6372	456	-15.3	-16.7	231	25
2023-08-28T12:00	6403	454	-15.5	-17.0	233	25
2023-08-28T12:00	6435	452	-15.5	-17.3	235	25
2023-08-28T12:00	6459	451	-15.6	-17.3	236	26
2023-08-28T12:00	6487	449	-15.8	-17.6	237	26
2023-08-28T12:00	6514	448	-15.9	-17.7	237	26
2023-08-28T12:00	6535	446	-16.0	-18.0	235	26
2023-08-28T12:00	6562	445	-16.2	-18.2	233	25
2023-08-28T12:00	6590	443	-16.2	-18.2	232	24
2023-08-28T12:00	6611	442	-16.3	-18.2	230	23
2023-08-28T12:00	6644	440	-16.4	-18.4	230	23
2023-08-28T12:00	6668	439	-16.6	-18.5	230	23
2023-08-28T12:00	6688	437	-16.7	-18.7	230	23
2023-08-28T12:00	6721	436	-16.9	-19.1	231	23
2023-08-28T12:00	6745	434	-17.0	-19.1	231	24
2023-08-28T12:00	6775	432	-17.1	-19.4	230	24
2023-08-28T12:00	6803	431	-17.3	-19.8	229	25
2023-08-28T12:00	6835	429	-17.5	-20.1	229	25
2023-08-28T12:00	6860	428	-17.6	-20.1	228	25
2023-08-28T12:00	6891	426	-17.9	-20.3	228	25
2023-08-28T12:00	6918	424	-18.1	-20.5	228	25
2023-08-28T12:00	6948	423	-18.3	-20.5	228	26
2023-08-28T12:00	6977	421	-18.4	-20.6	228	26
2023-08-28T12:00	6999	420	-18.6	-20.6	227	26
2023-08-28T12:00	7033	418	-18.8	-20.7	226	26
2023-08-28T12:00	7061	416	-18.9	-20.9	225	26
2023-08-28T12:00	7086	415	-19.1	-20.9	225	26
2023-08-28T12:00	7112	413	-19.3	-20.9	225	25
2023-08-28T12:00	7142	412	-19.5	-21.2	226	25
2023-08-28T12:00	7174	410	-19.8	-21.3	226	25
2023-08-28T12:00	7203	408	-20.0	-21.6	226	26
2023-08-28T12:00	7229	407	-20.1	-21.6	225	26
2023-08-28T12:00	7255	405	-20.3	-21.7	224	26
2023-08-28T12:00	7291	404	-20.6	-22.1	223	27
2023-08-28T12:00	7319	402	-20.7	-22.5	223	27
2023-08-28T12:00	7353	400	-20.9	-22.6	222	27
2023-08-28T12:00	7376	399	-21.1	-22.7	222	28
2023-08-28T12:00	7400	398	-21.3	-22.9	222	28
2023-08-28T12:00	7428	396	-21.5	-23.1	222	28
2023-08-28T12:00	7457	395	-21.7	-23.4	223	29
2023-08-28T12:00	7485	393	-21.9	-23.7	224	29
2023-08-28T12:00	7509	392	-22.1	-23.8	224	30
2023-08-28T12:00	7535	390	-22.3	-24.1	223	30
2023-08-28T12:00	7560	389	-22.4	-24.4	222	30
2023-08-28T12:00	7586	388	-22.6	-24.4	220	30
2023-08-28T12:00	7609	386	-22.8	-24.6	218	30
2023-08-28T12:00	7630	385	-23.0	-24.9	217	30
2023-08-28T12:00	7659	384	-23.2	-25.1	216	30
2023-08-28T12:00	7688	382	-23.4	-25.4	215	31
2023-08-28T12:00	7708	381	-23.6	-25.4	214	31
2023-08-28T12:00	7738	380	-23.8	-25.7	213	32
2023-08-28T12:00	7763	378	-24.0	-26.0	213	33
2023-08-28T12:00	7792	377	-24.3	-26.1	212	33
2023-08-28T12:00	7814	376	-24.4	-26.4	212	33
2023-08-28T12:00	7833	375	-24.5	-26.6	211	33
2023-08-28T12:00	7861	373	-24.7	-26.7	210	33
2023-08-28T12:00	7886	372	-24.9	-27.0	209	33
2023-08-28T12:00	7914	371	-25.2	-27.4	208	33
2023-08-28T12:00	7938	369	-25.4	-27.3	207	33
2023-08-28T12:00	7965	368	-25.6	-27.5	207	33
2023-08-28T12:00	7986	367	-25.7	-27.7	206	33
2023-08-28T12:00	8013	366	-25.9	-28.0	206	34
2023-08-28T12:00	8033	365	-26.1	-28.2	205	34
2023-08-28T12:00	8059	363	-26.3	-28.3	205	34
2023-08-28T12:00	8091	362	-26.4	-28.3	205	34
2023-08-28T12:00	8120	360	-26.6	-28.8	205	34
2023-08-28T12:00	8150	359	-26.9	-29.0	205	35
2023-08-28T12:00	8183	357	-27.1	-29.2	206	35
2023-08-28T12:00	8210	356	-27.3	-29.5	207	36
2023-08-28T12:00	8246	354	-27.5	-29.7	208	37
2023-08-28T12:00	8274	353	-27.6	-29.7	210	38
2023-08-28T12:00	8306	351	-27.8	-30.1	211	38
2023-08-28T12:00	8332	350	-27.9	-30.3	211	38
2023-08-28T12:00	8350	349	-28.1	-30.6	211	38
2023-08-28T12:00	8380	348	-28.3	-30.6	211	38
2023-08-28T12:00	8404	346	-28.5	-30.7	211	38
2023-08-28T12:00	8427	345	-28.7	-30.9	211	38
2023-08-28T12:00	8454	344	-29.0	-31.1	211	38
2023-08-28T12:00	8476	343	-29.2	-31.1	212	38
2023-08-28T12:00	8500	342	-29.4	-31.4	212	37
2023-08-28T12:00	8536	340	-29.6	-32.0	212	37
2023-08-28T12:00	8563	339	-29.8	-32.2	213	37
2023-08-28T12:00	8595	337	-30.0	-32.7	213	37
2023-08-28T12:00	8630	336	-30.2	-32.9	212	37
2023-08-28T12:00	8662	334	-30.5		212	37
2023-08-28T12:00	8693	333	-30.7	-33.4	212	37
2023-08-28T12:00	8723	331	-31.0	-33.8	212	37
2023-08-28T12:00	8761	329	-31.2	-33.9	212	37
2023-08-28T12:00	8798	328	-31.5	-34.5	211	37
2023-08-28T12:00	8825	326	-31.7	-34.8	211	37
2023-08-28T12:00	8857	325	-32.0	-35.0	212	37
2023-08-28T12:00	8888	324	-32.2	-35.2	212	37
2023-08-28T12:00	8916	322	-32.5	-35.4	212	37
2023-08-28T12:00	8945	321	-32.7	-35.5	212	36
2023-08-28T12:00	8979	319	-33.0	-35.7	212	36
2023-08-28T12:00	9009	318	-33.3	-36.1	212	36
2023-08-28T12:00	9042	317	-33.6	-36.4	211	36
2023-08-28T12:00	9071	315	-33.8	-36.3	211	35
2023-08-28T12:00	9102	314	-34.2	-36.3	211	35
2023-08-28T12:00	9134	312	-34.4	-36.3	212	35
2023-08-28T12:00	9166	311	-34.7	-37.2	212	34
2023-08-28T12:00	9193	310	-34.9	-37.7	213	34
2023-08-28T12:00	9219	309	-35.1	-37.6	213	35
2023-08-28T12:00	9244	307	-35.4	-37.8	214	35
2023-08-28T12:00	9281	306	-35.7	-38.3	214	35
2023-08-28T12:00	9306	305	-35.9	-38.6	215	36
2023-08-28T12:00	9335	303	-36.2	-38.7	215	36
2023-08-28T12:00	9368	302	-36.5	-39.0	215	36
2023-08-28T12:00	9393	301	-36.7	-39.1	214	36
2023-08-28T12:00	9419	300	-37.0	-39.2	214	36
2023-08-28T12:00	9447	299	-37.2	-39.5	214	36
2023-08-28T12:00	9471	298	-37.4	-39.8	214	36
2023-08-28T12:00	9498	296	-37.6	-39.9	214	35
2023-08-28T12:00	9527	295	-37.9	-40.0	214	35
2023-08-28T12:00	9560	294	-38.2	-40.1	215	35
2023-08-28T12:00	9585	293	-38.4	-40.6	216	35
2023-08-28T12:00	9619	291	-38.7		217	35
2023-08-28T12:00	9641	290	-38.9	-42.3	218	35
2023-08-28T12:00	9667	289	-39.1	-42.2	219	35
2023-08-28T12:00	9685	288	-39.3	-42.5	219	36
2023-08-28T12:00	9708	287	-39.5	-42.5	219	36
2023-08-28T12:00	9731	287	-39.7	-42.7	218	36
2023-08-28T12:00	9754	286	-39.9	-42.6	217	36
2023-08-28T12:00	9774	285	-40.1	-42.7	217	36
2023-08-28T12:00	9789	284	-40.3	-42.6	217	37
2023-08-28T12:00	9810	283	-40.5	-42.5	216	37
2023-08-28T12:00	9832	282	-40.7	-42.6	216	37
2023-08-28T12:00	9851	282	-40.9	-42.8	215	38
2023-08-28T12:00	9869	281	-41.0	-43.0	215	38
2023-08-28T12:00	9887	280	-41.2	-44.1	216	38
2023-08-28T12:00	9907	279	-41.4	-44.3	216	38
2023-08-28T12:00	9928	278	-41.6	-44.2	216	37
2023-08-28T12:00	9954	277	-41.8	-44.4	216	37
2023-08-28T12:00	9983	276	-42.1	-44.9	216	37
2023-08-28T12:00	10009	275	-42.3	-45.1	216	37
2023-08-28T12:00	10037	274	-42.6	-45.0	216	37
2023-08-28T12:00	10063	273	-42.8	-45.0	216	38
2023-08-28T12:00	10099	271	-43.1	-45.9	216	38
2023-08-28T12:00	10126	270	-43.3	-46.5	216	38
2023-08-28T12:00	10149	269	-43.6	-46.6	216	38
2023-08-28T12:00	10177	268	-43.8	-47.0	216	37
2023-08-28T12:00	10202	267	-44.0	-47.5	216	37
2023-08-28T12:00	10231	266	-44.3	-48.0	216	38
2023-08-28T12:00	10257	265	-44.5	-48.1	216	38
2023-08-28T12:00	10292	264	-44.8	-48.3	215	38
2023-08-28T12:00	10320	263	-45.1	-48.6	214	38
2023-08-28T12:00	10357	261	-45.4	-48.9	214	38
2023-08-28T12:00	10383	260	-45.7	-49.1	213	38
2023-08-28T12:00	10413	259	-46.0	-49.2	213	38
2023-08-28T12:00	10441	258	-46.2	-49.3	213	37
2023-08-28T12:00	10467	257	-46.5	-49.6	213	37
2023-08-28T12:00	10491	256	-46.7	-49.8	214	37
2023-08-28T12:00	10517	255	-46.9	-49.8	214	37
2023-08-28T12:00	10540	254	-47.2	-50.1	214	37
2023-08-28T12:00	10563	253	-47.4	-50.3	213	37
2023-08-28T12:00	10585	252	-47.5	-50.4	213	37
2023-08-28T12:00	10608	252	-47.7	-50.5	213	37
2023-08-28T12:00	10630	251	-48.0	-50.6	212	37
2023-08-28T12:00	10651	250	-48.2	-50.7	212	37
2023-08-28T12:00	10673	249	-48.4	-50.9	212	37
2023-08-28T12:00	10698	248	-48.6	-51.1	212	37
2023-08-28T12:00	10720	247	-48.8	-51.5	212	37
2023-08-28T12:00	10743	246	-49.0	-51.9	212	37
2023-08-28T12:00	10763	246	-49.2	-52.3	212	37
2023-08-28T12:00	10788	245	-49.4	-52.7	212	37
2023-08-28T12:00	10811	244	-49.6	-53.0	212	38
2023-08-28T12:00	10831	243	-49.9	-53.2	212	38
2023-08-28T12:00	10856	242	-50.1	-53.3	211	38
2023-08-28T12:00	10879	241	-50.3	-53.5	211	38
2023-08-28T12:00	10900	241	-50.5	-53.8	211	38
2023-08-28T12:00	10922	240	-50.7	-54.2	211	38
2023-08-28T12:00	10944	239	-50.9	-54.3	211	38
2023-08-28T12:00	10969	238	-51.1	-54.5	211	38
2023-08-28T12:00	10996	237	-51.4	-54.7	211	39
2023-08-28T12:00	11021	236	-51.6	-55.1	210	39
2023-08-28T12:00	11044	235	-51.8	-55.5	210	39
2023-08-28T12:00	11065	234	-51.9	-55.6	210	39
2023-08-28T12:00	11087	234	-52.1	-55.9	209	39
2023-08-28T12:00	11110	233	-52.0	-56.0	209	40
2023-08-28T12:00	11133	232	-51.9	-56.1	209	41
2023-08-28T12:00	11160	231	-51.9	-56.3	209	41
2023-08-28T12:00	11183	230	-52.0	-56.6	209	42
2023-08-28T12:00	11206	229	-52.0	-56.8	209	43
2023-08-28T12:00	11233	229	-52.1	-56.9	208	43
2023-08-28T12:00	11257	228	-52.3	-57.0	208	43
2023-08-28T12:00	11292	226	-52.6	-57.3	208	44
2023-08-28T12:00	11322	225	-52.8	-57.6	208	44
2023-08-28T12:00	11347	224	-52.9	-57.8	208	45
2023-08-28T12:00	11370	224	-53.1	-58.0	209	45
2023-08-28T12:00	11394	223	-53.3	-58.1	209	45
2023-08-28T12:00	11416	222	-53.5	-58.3	209	45
2023-08-28T12:00	11434	221	-53.7	-58.5	209	45
2023-08-28T12:00	11457	221	-53.8	-58.7	209	45
2023-08-28T12:00	11475	220	-54.0	-59.0	209	45
2023-08-28T12:00	11494	219	-54.1	-59.1	209	45
2023-08-28T12:00	11517	219	-54.2	-59.2	209	45
2023-08-28T12:00	11545	218	-54.5	-59.7	210	44
2023-08-28T12:00	11574	217	-54.5	-60.4	210	44
2023-08-28T12:00	11602	216	-54.0	-61.1	212	43
2023-08-28T12:00	11629	215	-53.6	-61.6	213	42
2023-08-28T12:00	11659	214	-53.7	-62.1	216	41
2023-08-28T12:00	11692	213	-53.5	-62.1	218	39
2023-08-28T12:00	11721	212	-53.5	-62.3	220	37
2023-08-28T12:00	11752	211	-53.5	-62.4	221	36
2023-08-28T12:00	11775	210	-53.6	-62.6	221	35
2023-08-28T12:00	11798	209	-53.7	-62.7	221	34
2023-08-28T12:00	11820	209	-53.8	-62.7	220	34
2023-08-28T12:00	11849	208	-54.0	-62.9	220	34
2023-08-28T12:00	11874	207	-54.1	-63.0	221	34
2023-08-28T12:00	11899	206	-54.3	-63.2	222	34
2023-08-28T12:00	11913	205	-54.4	-63.3	223	34
2023-08-28T12:00	11942	205	-54.5	-63.3	224	34
2023-08-28T12:00	11962	204	-54.7	-63.3	225	34
2023-08-28T12:00	11984	203	-54.9	-63.4	225	34
2023-08-28T12:00	12010	203	-55.1	-63.5	225	33
2023-08-28T12:00	12028	202	-55.3		225	33
2023-08-28T12:00	12049	201	-55.4	-63.6	226	33
2023-08-28T12:00	12070	201	-55.6	-63.7	226	33
2023-08-28T12:00	12093	200	-55.8	-63.8	228	32
2023-08-28T12:00	12114	199	-56.0	-63.9	230	31
2023-08-28T12:00	12147	198	-56.2	-64.3	232	29
2023-08-28T12:00	12179	197	-55.9	-64.7	234	27
2023-08-28T12:00	12206	196	-55.5	-65.2	235	26
2023-08-28T12:00	12233	195	-55.1	-65.6	236	24
2023-08-28T12:00	12259	195	-55.1	-66.1	236	23
2023-08-28T12:00	12285	194	-55.0	-66.2	237	23
2023-08-28T12:00	12312	193	-55.0	-66.5	237	22
2023-08-28T12:00	12331	192	-54.9	-66.7	238	22
2023-08-28T12:00	12354	192	-55.0	-67.1	239	22
2023-08-28T12:00	12374	191	-54.9	-67.1	240	22
2023-08-28T12:00	12395	191	-55.0	-67.2	240	22
2023-08-28T12:00	12415	190	-55.1	-67.2	240	22
2023-08-28T12:00	12434	189	-55.3	-67.2	240	22
2023-08-28T12:00	12456	189	-55.5	-67.3	239	22
2023-08-28T12:00	12479	188	-55.6	-67.2	238	22
2023-08-28T12:00	12499	188	-55.8	-67.2	238	22
2023-08-28T12:00	12520	187	-56.0	-67.3	237	21
2023-08-28T12:00	12538	186	-56.2	-67.3	236	21
2023-08-28T12:00	12564	186	-56.4	-67.4	235	21
2023-08-28T12:00	12591	185	-56.7	-67.5	234	20
2023-08-28T12:00	12619	184	-56.9	-67.6	233	20
2023-08-28T12:00	12638	183	-57.0	-67.7	233	20
2023-08-28T12:00	12659	183	-57.1	-67.9	232	20
2023-08-28T12:00	12680	182	-57.2	-67.9	232	19
2023-08-28T12:00	12702	182	-57.4	-68.0	231	19
2023-08-28T12:00	12724	181	-57.6	-68.2	229	19
2023-08-28T12:00	12748	180	-57.7	-68.4	227	19
2023-08-28T12:00	12769	180	-57.8	-68.7	226	19
2023-08-28T12:00	12788	179	-57.8	-69.0	224	19
2023-08-28T12:00	12812	179	-57.8	-69.4	223	19
2023-08-28T12:00	12831	178	-57.7	-69.7	221	19
2023-08-28T12:00	12851	177	-57.8	-70.1	220	20
2023-08-28T12:00	12873	177	-57.8	-70.5	218	20
2023-08-28T12:00	12892	176	-57.9	-71.0	217	20
2023-08-28T12:00	12912	176	-58.1	-71.7	215	20
2023-08-28T12:00	12934	175	-58.0	-72.1	214	20
2023-08-28T12:00	12954	174	-58.0	-72.6	212	20
2023-08-28T12:00	12977	174	-58.0	-73.0	210	20
2023-08-28T12:00	12997	173	-58.0	-73.2	209	20
2023-08-28T12:00	13018	173	-58.1	-73.4	208	20
2023-08-28T12:00	13038	172	-58.1	-73.5	207	21
2023-08-28T12:00	13057	172	-57.8	-73.6	207	21
2023-08-28T12:00	13077	171	-57.2	-73.8	208	21
2023-08-28T12:00	13099	171	-56.6	-74.1	208	21
2023-08-28T12:00	13120	170	-56.1	-74.4	208	21
2023-08-28T12:00	13138	169	-56.1	-74.7	207	22
2023-08-28T12:00	13161	169	-56.3	-74.9	207	22
2023-08-28T12:00	13181	168	-56.4	-74.8	206	22
2023-08-28T12:00	13201	168	-56.5	-74.9	206	22
2023-08-28T12:00	13218	167	-56.5	-75.1	206	23
2023-08-28T12:00	13238	167	-56.4	-75.5	206	23
2023-08-28T12:00	13259	166	-56.4	-76.3	207	23
2023-08-28T12:00	13277	166	-56.3	-76.8	208	23
2023-08-28T12:00	13297	165	-56.1	-77.0	208	24
2023-08-28T12:00	13317	165	-56.1	-77.1	209	24
2023-08-28T12:00	13338	164	-56.0	-77.3	211	24
2023-08-28T12:00	13357	164	-56.0	-77.7	212	25
2023-08-28T12:00	13376	163	-55.5	-77.9	214	25
2023-08-28T12:00	13396	163	-55.0	-78.0	216	25
2023-08-28T12:00	13417	162	-54.8	-78.4	218	25
2023-08-28T12:00	13442	162	-54.6	-78.9	219	25
2023-08-28T12:00	13467	161	-54.5	-79.2	221	24
2023-08-28T12:00	13487	160	-54.2	-79.2	222	24
2023-08-28T12:00	13510	160	-54.4	-79.3	223	23
2023-08-28T12:00	13529	159	-54.5	-79.4	223	23
2023-08-28T12:00	13550	159	-54.7	-79.6	224	22
2023-08-28T12:00	13572	158	-54.8	-79.9	223	22
2023-08-28T12:00	13590	158	-54.9	-80.0	222	21
2023-08-28T12:00	13612	157	-54.9	-80.0	221	21
2023-08-28T12:00	13632	157	-54.7	-80.0	221	21
2023-08-28T12:00	13651	156	-54.7	-80.0	222	20
2023-08-28T12:00	13671	156	-54.6	-80.2	223	20
2023-08-28T12:00	13693	155	-54.5	-80.4	226	20
2023-08-28T12:00	13718	155	-54.2	-80.2	228	20
2023-08-28T12:00	13739	154	-54.3	-80.2	229	20
2023-08-28T12:00	13758	154	-54.3	-80.2	229	20
2023-08-28T12:00	13780	153	-54.2	-80.2	229	19
2023-08-28T12:00	13800	153	-54.2	-80.2	229	19
2023-08-28T12:00	13822	152	-54.3	-80.2	228	19
2023-08-28T12:00	13842	152	-54.3	-80.2	227	19
2023-08-28T12:00	13864	151	-54.4	-80.3	227	19
2023-08-28T12:00	13887	151	-54.6	-80.5	227	19
2023-08-28T12:00	13908	150	-54.7	-80.6	227	19
2023-08-28T12:00	13928	150	-54.7	-80.8	227	19
2023-08-28T12:00	13954	149	-54.7	-80.8	228	19
2023-08-28T12:00	13977	149	-54.8	-80.9	229	19
2023-08-28T12:00	14001	148	-54.7	-80.8	231	18
2023-08-28T12:00	14023	148	-54.8	-80.9	232	18
2023-08-28T12:00	14046	147	-55.0	-81.1	232	18
2023-08-28T12:00	14066	147	-55.2	-80.9	232	18
2023-08-28T12:00	14087	146	-55.4	-81.1	232	18
2023-08-28T12:00	14107	146	-55.6	-81.3	232	18
2023-08-28T12:00	14131	145	-55.6	-81.3	231	18
2023-08-28T12:00	14154	145	-55.5	-81.2	231	18
2023-08-28T12:00	14177	144	-55.5	-81.2	231	18
2023-08-28T12:00	14197	144	-55.7	-81.3	230	18
2023-08-28T12:00	14217	143	-55.9	-81.5	229	17
2023-08-28T12:00	14239	143	-56.0	-81.6	228	17
2023-08-28T12:00	14257	142	-55.9	-81.5	227	17
2023-08-28T12:00	14278	142	-55.9	-81.5	225	17
2023-08-28T12:00	14296	141	-56.0	-81.6	223	16
2023-08-28T12:00	14316	141	-56.2	-81.7	222	16
2023-08-28T12:00	14335	140	-56.2	-82.0	220	16
2023-08-28T12:00	14355	140	-56.1	-81.9	219	16
2023-08-28T12:00	14374	140	-56.0	-81.8	219	17
2023-08-28T12:00	14394	139	-55.9	-81.8	218	17
2023-08-28T12:00	14415	139	-55.8	-82.0	217	17
2023-08-28T12:00	14436	138	-55.7	-81.9	216	17
2023-08-28T12:00	14456	138	-55.5	-82.0	214	17
2023-08-28T12:00	14476	137	-55.4	-81.9	212	18
2023-08-28T12:00	14496	137	-55.5	-82.0	210	18
2023-08-28T12:00	14513	137	-55.6	-82.1	210	18
2023-08-28T12:00	14533	136	-55.5	-82.0	209	18
2023-08-28T12:00	14553	136	-55.2	-81.8	210	18
2023-08-28T12:00	14569	135	-54.9	-81.9	210	18
2023-08-28T12:00	14590	135	-54.8	-81.8	211	18
2023-08-28T12:00	14610	135	-54.6	-81.9	211	18
2023-08-28T12:00	14628	134	-54.5	-81.9	212	18
2023-08-28T12:00	14647	134	-54.3	-81.7	213	18
2023-08-28T12:00	14669	133	-54.2	-82.0	214	18
2023-08-28T12:00	14686	133	-54.2	-82.0	215	18
2023-08-28T12:00	14708	133	-54.0	-81.8	217	18
2023-08-28T12:00	14727	132	-53.9	-81.7	218	17
2023-08-28T12:00	14744	132	-53.9	-81.7	219	17
2023-08-28T12:00	14764	131	-54.1	-81.9	220	17
2023-08-28T12:00	14784	131	-54.2	-82.0	221	17
2023-08-28T12:00	14806	131	-54.2	-82.0	221	17
2023-08-28T12:00	14822	130	-54.3	-82.1	221	17
2023-08-28T12:00	14843	130	-54.3	-82.1	221	17
2023-08-28T12:00	14861	129	-54.2	-82.0	221	17
2023-08-28T12:00	14881	129	-54.3	-82.1	221	17
2023-08-28T12:00	14902	129	-54.4	-82.1	221	17
2023-08-28T12:00	14923	128	-54.4	-81.8	222	17
2023-08-28T12:00	14942	128	-54.6	-81.9	223	17
2023-08-28T12:00	14963	127	-54.7	-82.0	223	17
2023-08-28T12:00	14984	127	-54.8	-82.1	223	17
2023-08-28T12:00	15007	126	-55.0	-82.3	224	17
2023-08-28T12:00	15026	126	-55.1	-82.3	224	17
2023-08-28T12:00	15045	126	-55.1	-82.3	223	17
2023-08-28T12:00	15068	125	-55.1	-82.3	223	17
2023-08-28T12:00	15088	125	-55.1	-82.3	222	17
2023-08-28T12:00	15110	124	-54.9	-82.2	220	17
2023-08-28T12:00	15128	124	-54.9	-82.5	219	17
2023-08-28T12:00	15153	124	-54.8	-82.4	217	18
2023-08-28T12:00	15174	123	-54.4	-82.1	216	18
2023-08-28T12:00	15197	123	-54.2	-82.0	215	18
2023-08-28T12:00	15216	122	-54.3	-82.1	214	19
2023-08-28T12:00	15238	122	-54.4	-82.1	214	19
2023-08-28T12:00	15258	122	-54.1	-82.3	215	19
2023-08-28T12:00	15281	121	-53.9	-82.1	216	18
2023-08-28T12:00	15301	121	-53.8	-82.0	217	18
2023-08-28T12:00	15321	120	-53.8	-82.0	219	18
2023-08-28T12:00	15343	120	-53.9	-82.1	220	18
2023-08-28T12:00	15362	120	-53.9	-82.1	221	17
2023-08-28T12:00	15381	119	-54.0	-82.2	223	17
2023-08-28T12:00	15404	119	-54.0	-82.2	225	17
2023-08-28T12:00	15425	118	-54.1	-82.3	227	17
2023-08-28T12:00	15445	118	-54.2	-82.3	228	17
2023-08-28T12:00	15468	118	-54.3	-82.4	230	17
2023-08-28T12:00	15489	117	-53.9	-82.1	231	17
2023-08-28T12:00	15510	117	-53.3	-82.0	231	17
2023-08-28T12:00	15531	117	-53.3	-82.0	230	16
2023-08-28T12:00	15549	116	-53.4	-82.1	229	16
2023-08-28T12:00	15574	116	-53.6	-82.3	227	16
2023-08-28T12:00	15595	115	-53.7	-82.3	226	16
2023-08-28T12:00	15615	115	-53.6	-82.3	226	16
2023-08-28T12:00	15636	115	-53.3	-82.0	225	15
2023-08-28T12:00	15660	114	-53.2	-82.0	225	15
2023-08-28T12:00	15678	114	-53.2	-82.4	225	15
2023-08-28T12:00	15701	114	-53.1	-82.3	224	15
2023-08-28T12:00	15722	113	-53.2	-82.4	223	15
2023-08-28T12:00	15744	113	-53.3	-82.5	223	15
2023-08-28T12:00	15763	112	-53.4	-82.5	222	16
2023-08-28T12:00	15785	112	-53.4	-82.5	222	16
2023-08-28T12:00	15808	112	-53.2	-82.4	222	16
2023-08-28T12:00	15829	111	-53.0	-82.2	222	17
2023-08-28T12:00	15851	111	-52.9	-82.1	222	17
2023-08-28T12:00	15870	111	-52.7	-82.4	222	17
2023-08-28T12:00	15890	110	-52.7	-82.4	223	16
2023-08-28T12:00	15914	110	-52.5	-82.3	224	16
2023-08-28T12:00	15936	109	-52.5	-82.3	225	16
2023-08-28T12:00	15957	109	-52.5	-82.3	226	15
2023-08-28T12:00	15979	109	-52.5	-82.3	227	15
2023-08-28T12:00	16002	108	-52.5	-82.3	229	14
2023-08-28T12:00	16023	108	-52.5	-82.3	231	13
2023-08-28T12:00	16043	108	-52.4	-82.2	233	13
2023-08-28T12:00	16067	107	-52.5	-82.3	234	12
2023-08-28T12:00	16087	107	-52.6	-82.4	234	12
2023-08-28T12:00	16106	107	-52.7	-82.4	233	12
2023-08-28T12:00	16132	106	-52.7	-82.4	232	11
2023-08-28T12:00	16151	106	-52.8	-82.5	230	11
2023-08-28T12:00	16170	106	-52.8	-82.5	227	11
2023-08-28T12:00	16193	105	-52.9	-82.6	225	11
2023-08-28T12:00	16215	105	-52.9	-82.6	222	12
2023-08-28T12:00	16237	104	-52.9	-82.6	220	12
2023-08-28T12:00	16257	104	-53.0	-82.7	219	12
2023-08-28T12:00	16277	104	-53.1	-82.7	218	13
2023-08-28T12:00	16299	103	-53.2	-82.4	218	13
2023-08-28T12:00	16321	103	-53.3	-82.5	218	13
2023-08-28T12:00	16346	103	-53.5	-82.6	218	14
2023-08-28T12:00	16367	102	-53.7	-82.8	219	14
2023-08-28T12:00	16387	102	-53.9	-82.9	219	14
2023-08-28T12:00	16410	102	-54.1	-83.1	219	15
2023-08-28T12:00	16431	101	-54.3	-82.8	220	15
2023-08-28T12:00	16454	101	-54.5	-82.9	221	15
2023-08-28T12:00	16477	101	-54.7	-83.1	222	15
2023-08-28T12:00	16497	100	-54.9	-83.3	224	14
2023-08-28T12:00	16521	100	-54.9	-83.3	227	14
2023-08-28T12:00	16545	100	-54.8	-83.2	229	13
2023-08-28T12:00	16566	99	-54.6	-83.4	231	12
2023-08-28T12:00	16589	99	-54.6	-83.4	233	11
2023-08-28T12:00	16609	99	-54.5	-83.4	234	11
2023-08-28T12:00	16630	98	-54.5	-83.4	235	11
2023-08-28T12:00	16653	98	-54.5	-83.4	235	11
2023-08-28T12:00	16677	98	-54.4	-83.3	235	11
2023-08-28T12:00	16696	97	-54.3	-83.2	234	12
2023-08-28T12:00	16719	97	-54.0	-83.4	234	12
2023-08-28T12:00	16740	97	-53.9	-83.3	233	12
2023-08-28T12:00	16763	96	-54.0	-83.4	232	12
2023-08-28T12:00	16786	96	-54.0	-83.4	232	12
2023-08-28T12:00	16806	96	-54.0	-83.4	233	11
2023-08-28T12:00	16828	95	-53.9	-83.3	233	11
2023-08-28T12:00	16849	95	-54.0	-83.4	234	10
2023-08-28T12:00	16874	95	-54.1	-83.1	233	10
2023-08-28T12:00	16896	94	-54.3	-83.2	233	9
2023-08-28T12:00	16916	94	-54.5	-83.4	231	9
2023-08-28T12:00	16936	94	-54.6	-83.4	230	9
2023-08-28T12:00	16960	93	-54.7	-83.5	229	8
2023-08-28T12:00	16984	93	-54.8	-83.6	229	8
2023-08-28T12:00	17005	93	-54.8	-83.6	230	8
2023-08-28T12:00	17025	92	-54.8	-83.6	232	8
2023-08-28T12:00	17049	92	-54.6	-83.9	235	8
2023-08-28T12:00	17067	92	-54.4	-83.7	238	8
2023-08-28T12:00	17087	91	-54.3	-83.6	241	8
2023-08-28T12:00	17111	91	-54.1	-84.0	245	8
2023-08-28T12:00	17128	91	-53.7	-83.7	248	8
2023-08-28T12:00	17152	91	-53.6	-83.6	251	8
2023-08-28T12:00	17177	90	-53.7	-83.2	254	7
2023-08-28T12:00	17197	90	-53.9	-83.3	257	7
2023-08-28T12:00	17218	90	-54.0	-83.4	258	7
2023-08-28T12:00	17242	89	-54.2	-83.6	259	6
2023-08-28T12:00	17264	89	-54.3	-83.6	257	6
2023-08-28T12:00	17289	89	-54.5	-83.8	253	5
2023-08-28T12:00	17310	88	-54.6	-83.9	246	4
2023-08-28T12:00	17334	88	-54.6	-83.9	235	4
2023-08-28T12:00	17357	88	-54.7	-83.9	222	4
2023-08-28T12:00	17381	87	-54.7	-83.9	210	4
2023-08-28T12:00	17409	87	-54.7	-83.9	200	5
2023-08-28T12:00	17430	87	-54.6	-83.9	194	6
2023-08-28T12:00	17456	86	-54.7	-83.9	190	7
2023-08-28T12:00	17478	86	-54.6	-83.9	186	8
2023-08-28T12:00	17499	86	-54.7	-83.9	184	8
2023-08-28T12:00	17522	86	-54.7	-83.9	182	9
2023-08-28T12:00	17544	85	-54.7	-83.9	182	10
2023-08-28T12:00	17563	85	-54.8	-84.0	182	10
2023-08-28T12:00	17584	85	-54.9	-83.7	182	11
2023-08-28T12:00	17607	84	-55.0	-83.7	184	11
2023-08-28T12:00	17632	84	-55.2	-83.9	186	11
2023-08-28T12:00	17649	84	-55.4	-84.0	189	12
2023-08-28T12:00	17671	83	-55.6	-84.2	191	12
2023-08-28T12:00	17694	83	-55.7	-84.3	194	12
2023-08-28T12:00	17715	83	-55.9	-84.4	196	12
2023-08-28T12:00	17737	83	-56.0	-84.1	199	12
2023-08-28T12:00	17759	82	-56.1	-84.2	201	12
2023-08-28T12:00	17780	82	-56.2	-84.2	203	12
2023-08-28T12:00	17803	82	-56.3	-84.3	205	12
2023-08-28T12:00	17823	82	-56.3	-84.7	208	12
2023-08-28T12:00	17850	81	-56.4	-84.8	211	12
2023-08-28T12:00	17870	81	-56.5	-84.5	215	13
2023-08-28T12:00	17890	81	-56.7	-84.6	218	13
2023-08-28T12:00	17912	80	-56.8	-84.7	222	14
2023-08-28T12:00	17929	80	-56.8	-84.7	225	14
2023-08-28T12:00	17955	80	-56.7	-85.0	229	14
2023-08-28T12:00	17977	80	-56.6	-84.9	233	14
2023-08-28T12:00	17997	79	-56.5	-84.9	236	14
2023-08-28T12:00	18021	79	-56.3	-84.7	239	13
2023-08-28T12:00	18043	79	-56.0	-84.9	241	12
2023-08-28T12:00	18068	78	-55.7	-84.7	243	11
2023-08-28T12:00	18092	78	-55.7	-84.7	245	10
2023-08-28T12:00	18114	78	-55.8	-84.8	247	9
2023-08-28T12:00	18139	78	-55.8	-84.8	249	8
2023-08-28T12:00	18163	77	-55.9	-84.8	250	7
2023-08-28T12:00	18188	77	-56.0	-84.5	251	7
2023-08-28T12:00	18207	77	-56.0	-84.5	250	6
2023-08-28T12:00	18230	76	-56.0	-84.5	246	6
2023-08-28T12:00	18254	76	-56.1	-84.6	242	5
2023-08-28T12:00	18272	76	-56.3	-84.7	236	5
2023-08-28T12:00	18295	76	-56.3	-84.7	230	5
2023-08-28T12:00	18318	75	-56.4	-84.8	224	5
2023-08-28T12:00	18338	75	-56.6	-84.9	220	5
2023-08-28T12:00	18360	75	-56.8	-85.1	219	5
2023-08-28T12:00	18382	75	-56.9	-85.2	219	6
2023-08-28T12:00	18404	74	-56.7	-85.0	220	7
2023-08-28T12:00	18425	74	-56.3	-85.1	222	7
2023-08-28T12:00	18448	74	-56.4	-85.2	225	7
2023-08-28T12:00	18471	74	-56.2	-85.1	227	7
2023-08-28T12:00	18496	73	-56.0	-84.9	230	6
2023-08-28T12:00	18517	73	-56.0	-84.9	234	6
2023-08-28T12:00	18542	73	-56.0	-84.9	238	5
2023-08-28T12:00	18565	73	-56.2	-85.1	243	5
2023-08-28T12:00	18587	72	-56.2	-85.1	248	4
2023-08-28T12:00	18614	72	-56.2	-85.1	251	4
2023-08-28T12:00	18634	72	-56.1	-85.0	251	4
2023-08-28T12:00	18658	72	-56.0	-84.9	248	4
2023-08-28T12:00	18683	71	-55.9	-84.8	242	3
2023-08-28T12:00	18702	71	-56.0	-84.9	235	4
2023-08-28T12:00	18723	71	-55.9	-84.8	228	4
2023-08-28T12:00	18749	70	-55.7	-84.7	221	4
2023-08-28T12:00	18775	70	-55.8	-84.8	213	4
2023-08-28T12:00	18797	70	-55.8	-84.8	205	4
2023-08-28T12:00	18817	70	-55.7	-84.7	198	4
2023-08-28T12:00	18844	69	-55.8	-84.8	194	4
2023-08-28T12:00	18867	69	-56.0	-84.9	193	4
2023-08-28T12:00	18890	69	-56.1	-85.0	195	4
2023-08-28T12:00	18915	69	-56.2	-85.1	199	5
2023-08-28T12:00	18934	68	-56.2	-85.1	204	5
2023-08-28T12:00	18957	68	-56.2	-85.1	209	5
2023-08-28T12:00	18980	68	-56.0	-84.9	214	6
2023-08-28T12:00	19002	68	-55.7	-84.7	219	6
2023-08-28T12:00	19024	68	-55.7	-85.2	222	6
2023-08-28T12:00	19044	67	-55.8	-85.2	224	6
2023-08-28T12:00	19069	67	-55.9	-84.8	224	7
2023-08-28T12:00	19093	67	-55.9	-84.8	222	7
2023-08-28T12:00	19114	67	-55.8	-85.2	218	7
2023-08-28T12:00	19134	66	-55.7	-85.2	214	7
2023-08-28T12:00	19157	66	-55.7	-85.2	210	7
2023-08-28T12:00	19183	66	-55.6	-85.1	205	7
2023-08-28T12:00	19203	66	-55.5	-85.0	201	8
2023-08-28T12:00	19226	65	-55.3	-84.9	198	8
2023-08-28T12:00	19251	65	-55.3	-84.9	194	8
2023-08-28T12:00	19274	65	-55.5	-84.5	192	8
2023-08-28T12:00	19294	65	-55.6	-84.6	190	9
2023-08-28T12:00	19318	64	-55.7	-84.7	190	9
2023-08-28T12:00	19340	64	-55.8	-84.8	192	9
2023-08-28T12:00	19363	64	-55.8	-85.2	195	9
2023-08-28T12:00	19388	64	-55.7	-85.2	199	9
2023-08-28T12:00	19410	64	-55.2	-84.8	203	8
2023-08-28T12:00	19434	63	-55.0	-84.6	207	8
2023-08-28T12:00	19454	63	-55.0	-84.6	212	8
2023-08-28T12:00	19477	63	-55.1	-84.7	217	8
2023-08-28T12:00	19505	63	-55.2	-84.8	222	8
2023-08-28T12:00	19526	62	-55.2	-84.8	228	7
2023-08-28T12:00	19551	62	-55.3	-84.9	233	7
2023-08-28T12:00	19574	62	-55.3	-84.9	238	7
2023-08-28T12:00	19600	62	-55.4	-84.9	243	7
2023-08-28T12:00	19624	61	-55.5	-85.0	248	7
2023-08-28T12:00	19645	61	-55.7	-85.2	252	6
2023-08-28T12:00	19674	61	-55.6	-85.1	255	6
2023-08-28T12:00	19691	61	-55.5	-85.0	257	5
2023-08-28T12:00	19718	61	-55.3	-84.9	257	4
2023-08-28T12:00	19745	60	-55.0	-84.6	257	4
2023-08-28T12:00	19767	60	-54.8	-85.0	255	3
2023-08-28T12:00	19790	60	-54.9	-85.1	252	3
2023-08-28T12:00	19817	60	-54.9	-85.1	248	3
2023-08-28T12:00	19843	59	-54.7	-84.4	245	3
2023-08-28T12:00	19864	59	-54.7	-84.4	243	3
2023-08-28T12:00	19883	59	-54.9	-84.6	243	3
2023-08-28T12:00	19910	59	-54.8	-84.5	244	3
2023-08-28T12:00	19936	59	-54.8	-84.5	246	4
2023-08-28T12:00	19959	58	-54.8	-84.5	248	4
2023-08-28T12:00	19984	58	-54.7	-84.4	250	4
2023-08-28T12:00	20011	58	-54.8	-84.5	252	4
2023-08-28T12:00	20033	58	-54.8	-84.5	253	4
2023-08-28T12:00	20057	57	-54.8	-84.5	254	3
2023-08-28T12:00	20081	57	-54.8	-84.5	256	3
2023-08-28T12:00	20107	57	-54.7	-84.4	259	2
2023-08-28T12:00	20134	57	-54.6	-84.3	264	2
2023-08-28T12:00	20153	57	-54.5	-84.8	276	1
2023-08-28T12:00	20178	56	-54.3	-84.6	297	1
2023-08-28T12:00	20205	56	-54.2	-84.5	316	1
2023-08-28T12:00	20231	56	-54.2	-84.5	314	1
2023-08-28T12:00	20255	56	-54.3	-84.1	289	1
2023-08-28T12:00	20275	55	-54.5	-84.3	267	1
2023-08-28T12:00	20305	55	-54.6	-84.3	258	2
2023-08-28T12:00	20328	55	-54.8	-84.5	254	2
2023-08-28T12:00	20346	55	-55.0	-84.2	252	3
2023-08-28T12:00	20371	55	-55.1	-84.2	251	3
2023-08-28T12:00	20395	54	-55.3	-84.4	250	4
2023-08-28T12:00	20419	54	-55.5	-84.5	250	4
2023-08-28T12:00	20443	54	-55.6	-84.6	250	4
2023-08-28T12:00	20465	54	-55.7	-84.7	252	4
2023-08-28T12:00	20491	54	-55.7	-84.7	254	4
2023-08-28T12:00	20512	53	-55.7	-84.7	258	4
2023-08-28T12:00	20536	53	-55.6	-84.6	262	4
2023-08-28T12:00	20561	53	-55.7	-84.7	266	3
2023-08-28T12:00	20585	53	-55.8	-84.8	272	3
2023-08-28T12:00	20603	53	-55.9	-84.8	279	3
2023-08-28T12:00	20625	53	-56.0	-84.9	288	2
2023-08-28T12:00	20651	52	-56.2	-85.1	297	2
2023-08-28T12:00	20670	52	-56.3	-85.1	308	2
2023-08-28T12:00	20697	52	-56.4	-85.2	323	1
2023-08-28T12:00	20717	52	-56.5	-85.3	358	1
2023-08-28T12:00	20738	52	-56.5	-85.3	69	1
2023-08-28T12:00	20760	51	-56.4	-85.2	100	2
2023-08-28T12:00	20783	51	-56.2	-85.1	112	3
2023-08-28T12:00	20808	51	-55.9	-85.3	120	4
2023-08-28T12:00	20827	51	-55.8	-85.2	126	5
2023-08-28T12:00	20850	51	-55.6	-85.1	132	5
2023-08-28T12:00	20872	51	-55.5	-85.0	137	5
2023-08-28T12:00	20893	50	-55.5	-85.0	144	5
2023-08-28T12:00	20920	50	-55.6	-85.1	151	6
2023-08-28T12:00	20935	50	-55.6	-85.1	157	6
2023-08-28T12:00	20962	50	-55.7	-85.2	163	6
2023-08-28T12:00	20986	50	-55.7	-85.2	170	6
2023-08-28T12:00	21005	49	-55.5	-85.0	176	6
2023-08-28T12:00	21029	49	-55.2	-84.8	184	5
2023-08-28T12:00	21052	49	-54.8	-85.0	192	5
2023-08-28T12:00	21075	49	-54.6	-84.8	199	5
2023-08-28T12:00	21097	49	-54.4	-84.7	205	5
2023-08-28T12:00	21116	49	-54.3	-84.6	208	5
2023-08-28T12:00	21137	48	-54.1	-84.5	209	4
2023-08-28T12:00	21163	48	-53.9	-84.3	207	4
2023-08-28T12:00	21188	48	-53.8	-84.2	206	4
2023-08-28T12:00	21211	48	-53.6	-84.1	203	3
2023-08-28T12:00	21236	48	-53.6	-84.1	199	3
2023-08-28T12:00	21256	48	-53.6	-84.1	191	2
2023-08-28T12:00	21277	47	-53.6	-84.1	174	2
2023-08-28T12:00	21302	47	-53.8	-84.2	158	2
2023-08-28T12:00	21325	47	-53.8	-84.2	150	3
2023-08-28T12:00	21345	47	-53.6	-84.1	148	4
2023-08-28T12:00	21366	47	-53.6	-84.1	150	5
2023-08-28T12:00	21390	47	-53.5	-84.0	152	6
2023-08-28T12:00	21413	46	-53.5	-84.0	155	7
2023-08-28T12:00	21439	46	-53.4	-83.9	158	7
2023-08-28T12:00	21461	46	-53.2	-83.8	161	8
2023-08-28T12:00	21487	46	-53.1	-83.7	164	8
2023-08-28T12:00	21513	46	-53.2	-83.8	166	8
2023-08-28T12:00	21541	46	-53.3	-83.9	167	8
2023-08-28T12:00	21563	45	-53.3	-83.9	169	7
2023-08-28T12:00	21591	45	-53.4	-83.9	172	7
2023-08-28T12:00	21617	45	-53.5	-84.0	174	6
2023-08-28T12:00	21646	45	-53.6	-84.1	178	5
2023-08-28T12:00	21672	45	-53.6	-84.1	184	4
2023-08-28T12:00	21696	44	-53.4	-83.9	192	3
2023-08-28T12:00	21726	44	-53.3	-83.9	201	2
2023-08-28T12:00	21755	44	-53.2	-83.8	211	2
2023-08-28T12:00	21778	44	-53.1	-83.7	217	1
2023-08-28T12:00	21805	44	-53.1	-83.7	209	0
2023-08-28T12:00	21834	44	-53.1	-83.7	116	0
2023-08-28T12:00	21854	43	-53.1	-83.7	94	1
2023-08-28T12:00	21888	43	-53.3	-83.9	99	1
2023-08-28T12:00	21908	43	-53.4	-83.9	107	2
2023-08-28T12:00	21934	43	-53.6	-84.1	117	2
2023-08-28T12:00	21966	43	-53.7	-84.2	126	3
2023-08-28T12:00	21989	42	-53.7	-84.2	134	3
2023-08-28T12:00	22014	42	-53.8	-84.2	141	3
2023-08-28T12:00	22040	42	-53.9	-84.3	147	3
2023-08-28T12:00	22071	42	-53.8	-84.2	153	4
2023-08-28T12:00	22094	42	-53.7	-84.2	159	4
2023-08-28T12:00	22118	42	-53.7	-84.2	164	4
2023-08-28T12:00	22144	41	-53.7	-84.2	168	4
2023-08-28T12:00	22179	41	-53.7	-84.2	171	5
2023-08-28T12:00	22199	41	-53.8	-84.2	173	5
2023-08-28T12:00	22224	41	-53.8	-84.2	176	5
2023-08-28T12:00	22255	41	-53.8	-84.2	180	5
2023-08-28T12:00	22281	41	-53.7	-84.2	186	4
2023-08-28T12:00	22302	40	-53.7	-84.2	193	4
2023-08-28T12:00	22332	40	-53.6	-84.1	201	4
2023-08-28T12:00	22354	40	-53.6	-84.1	211	3
2023-08-28T12:00	22379	40	-53.6	-84.1	221	3
2023-08-28T12:00	22401	40	-53.5	-84.0	228	3
2023-08-28T12:00	22430	40	-53.4	-83.9	234	4
2023-08-28T12:00	22457	40	-53.3	-84.4	237	4
2023-08-28T12:00	22477	39	-53.4	-84.5	240	4
2023-08-28T12:00	22501	39	-53.4	-84.5	241	4
2023-08-28T12:00	22527	39	-53.2	-84.4	242	4
2023-08-28T12:00	22554	39	-53.2	-84.4	243	3
2023-08-28T12:00	22581	39	-53.2	-83.8	244	3
2023-08-28T12:00	22602	39	-53.3	-83.9	246	3
2023-08-28T12:00	22631	38	-53.4	-83.9	252	3
2023-08-28T12:00	22653	38	-53.5	-84.0	261	2
2023-08-28T12:00	22675	38	-53.5	-84.0	278	2
2023-08-28T12:00	22706	38	-53.5	-84.0	297	2
2023-08-28T12:00	22727	38	-53.5	-84.0	313	2
2023-08-28T12:00	22752	38	-53.4	-83.9	320	3
2023-08-28T12:00	22778	38	-53.5	-84.0	319	3
2023-08-28T12:00	22799	37	-53.5	-84.0	311	3
2023-08-28T12:00	22825	37	-53.5	-84.0	300	3
2023-08-28T12:00	22845	37	-53.5	-84.0	290	3
2023-08-28T12:00	22874	37	-53.5	-84.0	284	4
2023-08-28T12:00	22898	37	-53.6	-84.1	284	4
2023-08-28T12:00	22922	37	-53.8	-84.2	290	4
2023-08-28T12:00	22949	37	-53.7	-84.2	299	4
2023-08-28T12:00	22972	36	-53.6	-84.1	311	4
2023-08-28T12:00	22998	36	-53.3	-84.4	322	5
2023-08-28T12:00	23022	36	-53.2	-84.4	332	5
2023-08-28T12:00	23049	36	-53.2	-84.4	340	5
2023-08-28T12:00	23076	36	-53.2	-84.4	346	5
2023-08-28T12:00	23096	36	-53.3	-84.4	351	5
2023-08-28T12:00	23124	36	-53.5	-84.0	354	4
2023-08-28T12:00	23145	35	-53.5	-84.0	356	4
2023-08-28T12:00	23171	35	-53.5	-84.0	357	3
2023-08-28T12:00	23197	35	-53.5	-84.0	359	3
2023-08-28T12:00	23224	35	-53.6	-84.1	3	3
2023-08-28T12:00	23251	35	-53.6	-84.1	7	3
2023-08-28T12:00	23276	35	-53.6	-84.6	12	3
2023-08-28T12:00	23300	35	-53.4	-84.5	17	3
2023-08-28T12:00	23325	35	-53.3	-84.4	23	3
2023-08-28T12:00	23351	34	-53.2	-84.4	28	3
2023-08-28T12:00	23376	34	-53.2	-84.4	32	4
2023-08-28T12:00	23399	34	-53.3	-84.4	36	4
2023-08-28T12:00	23423	34	-53.5	-84.0	39	4
2023-08-28T12:00	23448	34	-53.7	-84.2	42	4
2023-08-28T12:00	23477	34	-53.7	-84.2	44	3
2023-08-28T12:00	23502	34	-53.7	-84.2	46	3
2023-08-28T12:00	23525	33	-53.8	-84.2	47	3
2023-08-28T12:00	23551	33	-53.8	-84.2	46	2
2023-08-28T12:00	23582	33	-53.8	-84.2	42	2
2023-08-28T12:00	23606	33	-53.7	-84.2	35	1
2023-08-28T12:00	23635	33	-53.7	-84.2	25	1
2023-08-28T12:00	23660	33	-53.7	-84.2	13	1
2023-08-28T12:00	23682	33	-53.7	-84.2	3	1
2023-08-28T12:00	23710	32	-53.8	-84.2	358	1
2023-08-28T12:00	23739	32	-53.9	-84.3	4	1
2023-08-28T12:00	23766	32	-53.9	-84.3	22	1
2023-08-28T12:00	23798	32	-54.0	-84.4	47	1
2023-08-28T12:00	23821	32	-54.1	-84.5	71	1
2023-08-28T12:00	23844	32	-54.2	-84.5	97	1
2023-08-28T12:00	23873	32	-54.2	-84.5	134	1
2023-08-28T12:00	23900	32	-54.0	-84.9	166	1
2023-08-28T12:00	23926	31	-53.9	-84.9	182	2
2023-08-28T12:00	23954	31	-53.8	-84.8	188	2
2023-08-28T12:00	23980	31	-53.6	-84.6	189	3
2023-08-28T12:00	24009	31	-53.2	-85.0	186	3
2023-08-28T12:00	24034	31	-52.9	-84.7	182	3
2023-08-28T12:00	24051	31	-52.8	-84.7	177	3
2023-08-28T12:00	24078	31	-52.6	-84.5	173	3
2023-08-28T12:00	24103	31	-52.5	-84.4	171	4
2023-08-28T12:00	24139	30	-52.3	-84.3	171	4
2023-08-28T12:00	24166	30	-52.1	-84.2	175	4
2023-08-28T12:00	24186	30	-52.1	-84.2	179	4
2023-08-28T12:00	24215	30	-52.1	-84.2	184	4
2023-08-28T12:00	24242	30	-52.1	-84.2	187	5
2023-08-28T12:00	24271	30	-52.1	-84.2	190	5
2023-08-28T12:00	24295	30	-52.2	-84.2	193	5
2023-08-28T12:00	24315	30	-52.1	-84.2	197	5
2023-08-28T12:00	24343	29	-51.9	-84.0	203	4
2023-08-28T12:00	24370	29	-51.8	-83.9	211	4
2023-08-28T12:00	24394	29	-51.8	-83.9	218	3
2023-08-28T12:00	24422	29	-51.9	-84.0	223	3
2023-08-28T12:00	24445	29	-51.9	-84.0	225	3
2023-08-28T12:00	24472	29	-51.9	-84.0	224	2
2023-08-28T12:00	24502	29	-51.8	-83.9	224	2
2023-08-28T12:00	24528	29	-51.7	-83.9	225	2
2023-08-28T12:00	24553	29	-51.6	-83.8	226	2
2023-08-28T12:00	24573	28	-51.8	-83.9	226	1
2023-08-28T12:00	24598	28	-51.9	-84.0	220	1
2023-08-28T12:00	24631	28	-52.0	-83.5	208	1
2023-08-28T12:00	24658	28	-52.1	-83.5	191	1
2023-08-28T12:00	24679	28	-52.2	-83.6	178	1
2023-08-28T12:00	24702	28	-52.3	-83.7	170	1
2023-08-28T12:00	24734	28	-52.4	-83.8	167	1
2023-08-28T12:00	24756	28	-52.6	-83.9	161	0
2023-08-28T12:00	24782	28	-52.7	-84.0	5	0
2023-08-28T12:00	24812	27	-52.6	-83.9	1	1
2023-08-28T12:00	24830	27	-52.4	-84.4	4	2
2023-08-28T12:00	24855	27	-52.3	-84.3	7	3
2023-08-28T12:00	24885	27	-52.2	-84.2	11	3
2023-08-28T12:00	24904	27	-52.0	-84.1	16	4
2023-08-28T12:00	24931	27	-51.8	-83.9	21	5
2023-08-28T12:00	24953	27	-51.5	-83.7	26	5
2023-08-28T12:00	24975	27	-51.5	-83.7	31	5
2023-08-28T12:00	25000	27	-51.5	-83.7	35	5
2023-08-28T12:00	25019	27	-51.4	-83.6	37	6
2023-08-28T12:00	25052	26	-51.4	-83.6	39	6
2023-08-28T12:00	25078	26	-51.3	-83.6	40	5
2023-08-28T12:00	25093	26	-51.2	-84.2	40	5
2023-08-28T12:00	25127	26	-51.2	-84.2	40	5
2023-08-28T12:00	25160	26	-51.0	-84.0	39	4
2023-08-28T12:00	25170	26	-51.0	-84.0	38	3
2023-08-28T12:00	25197	26	-50.8	-83.9	37	3
2023-08-28T12:00	25220	26	-50.7	-83.8	37	3
2023-08-28T12:00	25255	26	-50.5	-83.7	39	3
2023-08-28T12:00	25277	26	-50.4	-83.6	42	3
2023-08-28T12:00	25307	25	-50.4	-83.6	45	3
2023-08-28T12:00	25333	25	-50.5	-83.7	47	3
2023-08-28T12:00	25355	25	-50.6	-83.7	48	3
2023-08-28T12:00	25379	25	-50.7	-83.8	51	3
2023-08-28T12:00	25405	25	-50.7	-83.1	56	3
2023-08-28T12:00	25432	25	-50.8	-83.2	63	2
2023-08-28T12:00	25455	25	-50.7	-83.8	72	1
2023-08-28T12:00	25490	25	-50.6	-83.7	75	1
2023-08-28T12:00	25512	25	-50.7	-83.8	348	0
2023-08-28T12:00	25535	25	-50.8	-83.9	321	1
2023-08-28T12:00	25565	24	-50.7	-83.8	325	1
2023-08-28T12:00	25593	24	-50.6	-83.7	333	2
2023-08-28T12:00	25623	24	-50.5	-83.7	343	2
2023-08-28T12:00	25646	24	-50.3	-83.5	355	2
2023-08-28T12:00	25679	24	-50.1	-83.4	7	3
2023-08-28T12:00	25695	24	-49.8	-83.2	19	3
2023-08-28T12:00	25722	24	-49.5	-83.7	28	4
2023-08-28T12:00	25756	24	-49.3	-83.6	36	5
2023-08-28T12:00	25775	24	-49.1	-83.4	43	6
2023-08-28T12:00	25801	24	-49.0	-83.4	49	6
2023-08-28T12:00	25827	23	-48.9	-83.3	54	7
2023-08-28T12:00	25863	23	-48.8	-83.2	57	7
2023-08-28T12:00	25879	23	-48.8	-83.2	59	7
2023-08-28T12:00	25912	23	-48.8	-82.4	60	7
2023-08-28T12:00	25931	23	-48.8	-82.4	59	6
2023-08-28T12:00	25971	23	-48.9	-82.5	56	6
2023-08-28T12:00	25985	23	-49.0	-82.6	51	5
2023-08-28T12:00	26019	23	-49.0	-82.6	44	4
2023-08-28T12:00	26039	23	-49.0	-82.6	37	4
2023-08-28T12:00	26071	23	-48.9	-82.5	33	4
2023-08-28T12:00	26091	23	-48.8	-83.2	33	4
2023-08-28T12:00	26121	22	-48.8	-82.4	37	4
2023-08-28T12:00	26143	22	-48.7	-82.4	44	4
2023-08-28T12:00	26165	22	-48.8	-82.4	51	4
2023-08-28T12:00	26196	22	-48.9	-82.5	59	4
2023-08-28T12:00	26220	22	-49.0	-82.6	64	4
2023-08-28T12:00	26253	22	-49.0	-82.6	66	3
2023-08-28T12:00	26269	22	-48.9	-82.5	66	3
2023-08-28T12:00	26305	22	-48.8	-83.2	63	3
2023-08-28T12:00	26326	22	-48.6	-83.1	61	3
2023-08-28T12:00	26352	22	-48.5	-83.0	62	3
2023-08-28T12:00	26381	22	-48.4	-82.9	66	3
2023-08-28T12:00	26410	21	-48.1	-82.7	74	3
2023-08-28T12:00	26433	21	-47.8	-83.4	86	2
2023-08-28T12:00	26456	21	-47.4	-83.1	99	2
2023-08-28T12:00	26491	21	-47.0	-82.9	112	2
2023-08-28T12:00	26508	21	-46.7	-82.6	123	2
2023-08-28T12:00	26531	21	-46.4	-82.4	130	2
2023-08-28T12:00	26564	21	-46.0	-82.1	133	3
2023-08-28T12:00	26585	21	-45.7	-81.9	133	3
2023-08-28T12:00	26622	21	-45.6	-81.9	130	3
2023-08-28T12:00	26645	21	-45.4	-81.7	128	3
2023-08-28T12:00	26671	21	-45.2	-81.6	126	3
2023-08-28T12:00	26697	21	-45.0	-81.4	126	4
2023-08-28T12:00	26723	20	-44.9	-81.4	126	4
2023-08-28T12:00	26747	20	-44.7	-81.2	126	4
2023-08-28T12:00	26777	20	-44.6	-81.2	127	5
2023-08-28T12:00	26807	20	-44.7	-81.2	127	5
2023-08-28T12:00	26833	20	-45.0	-81.4	129	6
2023-08-28T12:00	26861	20	-45.2	-81.6	132	6
2023-08-28T12:00	26881	20	-45.3	-81.6	136	6
2023-08-28T12:00	26910	20	-45.3	-81.6	140	6
2023-08-28T12:00	26951	20	-45.3	-81.6	144	6
2023-08-28T12:00	26976	20	-45.3	-81.6	147	6
2023-08-28T12:00	27007	20	-45.3	-81.6	150	6
2023-08-28T12:00	27039	20	-45.2	-81.6	153	6
2023-08-28T12:00	27056	19	-45.2	-81.6	156	6
2023-08-28T12:00	27089	19	-45.1	-81.5	160	5
2023-08-28T12:00	27120	19	-45.2	-81.6	163	5
2023-08-28T12:00	27146	19	-45.2	-81.6	166	5
2023-08-28T12:00	27157	19	-45.1	-81.5	169	5
2023-08-28T12:00	27199	19	-44.9	-81.4	171	5
2023-08-28T12:00	27221	19	-44.8	-81.3	173	5
2023-08-28T12:00	27262	19	-44.7	-81.2	174	5
2023-08-28T12:00	27283	19	-44.6	-81.2	175	5
2023-08-28T12:00	27312	19	-44.4	-81.0	175	5
2023-08-28T12:00	27343	19	-44.1	-80.8	176	4
2023-08-28T12:00	27366	19	-44.0	-80.7	178	4
2023-08-28T12:00	27403	19	-44.0	-80.7	180	4
2023-08-28T12:00	27424	18	-43.9	-81.8	182	4
2023-08-28T12:00	27450	18	-43.8	-81.7	181	4
2023-08-28T12:00	27482	18	-43.6	-81.5	178	4
2023-08-28T12:00	27517	18	-43.5	-81.5	173	4
2023-08-28T12:00	27530	18	-43.4	-81.4	168	4
2023-08-28T12:00	27563	18	-43.4	-81.4	164	5
2023-08-28T12:00	27609	18	-43.4	-81.4	162	5
2023-08-28T12:00	27620	18	-43.4	-81.4	162	5
2023-08-28T12:00	27646	18	-43.2	-81.3	162	5
2023-08-28T12:00	27691	18	-43.1	-81.2	163	4
2023-08-28T12:00	27709	18	-42.9	-81.1	165	4
2023-08-28T12:00	27736	18	-42.8	-81.0	166	3
2023-08-28T12:00	27763	18	-42.8	-81.0	167	3
2023-08-28T12:00	27789	17	-42.8	-81.0	168	3
2023-08-28T12:00	27819	17	-42.9	-81.1	169	3
2023-08-28T12:00	27849	17	-42.9	-81.1	169	3
2023-08-28T12:00	27876	17	-42.8	-81.0	170	3
2023-08-28T12:00	27892	17	-42.6	-80.8	170	4
2023-08-28T12:00	27934	17	-42.5	-80.8	170	4
2023-08-28T12:00	27939	17	-42.5	-80.8	170	5
2023-08-28T12:00	27979	17	-42.5	-80.8	171	5
2023-08-28T12:00	27992	17	-42.4	-80.7	172	6
2023-08-28T12:00	28022	17	-42.4	-80.7	174	6
2023-08-28T12:00	28051	17	-42.4	-80.7	177	7
2023-08-28T12:00	28071	17	-42.2	-80.6	178	7
2023-08-28T12:00	28109	17	-42.0	-80.4	179	7
2023-08-28T12:00	28136	17	-41.9	-80.4	179	7
2023-08-28T12:00	28155	17	-41.8	-80.3	178	6
2023-08-28T12:00	28181	16	-41.7	-80.2	177	6
2023-08-28T12:00	28204	16	-41.4	-80.0	176	5
2023-08-28T12:00	28220	16	-41.2	-79.9	173	4
2023-08-28T12:00	28252	16	-41.1	-79.8	168	3
2023-08-28T12:00	28281	16	-40.9	-79.7	157	3
2023-08-28T12:00	28295	16	-40.7	-79.5	133	2
2023-08-28T12:00	28332	16	-40.4	-79.3	104	2
2023-08-28T12:00	28354	16	-40.2	-79.2	84	3
2023-08-28T12:00	28366	16	-40.2	-79.2	75	3
2023-08-28T12:00	28413	16	-40.1	-79.1	73	4
2023-08-28T12:00	28428	16	-40.2	-79.2	73	4
2023-08-28T12:00	28450	16	-40.2	-79.2	74	5
2023-08-28T12:00	28476	16	-40.3	-79.2	76	5
2023-08-28T12:00	28504	16	-40.3	-79.2	77	5
2023-08-28T12:00	28532	16	-40.3	-79.2	80	5
2023-08-28T12:00	28559	16	-40.3	-79.2	86	4
2023-08-28T12:00	28590	16	-40.4	-79.3	96	4
2023-08-28T12:00	28619	15	-40.7	-79.5	110	4
2023-08-28T12:00	28647	15	-40.8	-79.6	125	4
2023-08-28T12:00	28676	15	-40.9	-79.7	139	4
2023-08-28T12:00	28699	15	-41.0	-79.7	150	4
2023-08-28T12:00	28719	15	-41.1	-79.8	160	4
2023-08-28T12:00	28743	15	-41.1	-79.8	169	5
2023-08-28T12:00	28785	15	-41.0	-79.7	177	5
2023-08-28T12:00	28805	15	-40.9	-79.7	184	5
2023-08-28T12:00	28818	15	-40.7	-79.5	190	5
2023-08-28T12:00	28846	15	-40.6	-79.5	196	5
2023-08-28T12:00	28869	15	-40.4	-79.3	202	6
2023-08-28T12:00	28901	15	-40.4	-79.3	206	6
2023-08-28T12:00	28923	15	-40.6	-79.5	208	6
2023-08-28T12:00	28943	15	-40.6	-79.5	208	6
2023-08-28T12:00	28981	15	-40.6	-79.5	205	6
2023-08-28T12:00	28998	15	-40.6	-79.5	200	6
2023-08-28T12:00	29033	15	-40.6	-79.5	195	6
2023-08-28T12:00	29064	15	-40.4	-79.3	192	6
2023-08-28T12:00	29074	14	-40.3	-79.2	191	6
2023-08-28T12:00	29116	14	-40.0	-79.0	194	6
2023-08-28T12:00	29129	14	-39.8	-78.9	199	6
2023-08-28T12:00	29163	14	-39.6	-78.8	205	6
2023-08-28T12:00	29185	14	-39.7	-78.8	211	6
2023-08-28T12:00	29218	14	-39.7	-78.8	216	7
2023-08-28T12:00	29244	14	-39.5	-78.7	220	7
2023-08-28T12:00	29271	14	-39.4	-78.6	223	7
2023-08-28T12:00	29311	14	-39.5	-78.7	225	7
2023-08-28T12:00	29322	14	-39.5	-78.7	227	6
2023-08-28T12:00	29348	14	-39.5	-78.7	229	6
2023-08-28T12:00	29382	14	-39.6	-78.8	232	6
2023-08-28T12:00	29408	14	-39.7	-78.8	235	5
2023-08-28T12:00	29431	14	-39.7	-78.8	240	5
2023-08-28T12:00	29460	14	-39.8	-78.9	244	5
2023-08-28T12:00	29477	14	-39.8	-78.9	249	5
2023-08-28T12:00	29514	14	-39.9	-79.0	254	5
2023-08-28T12:00	29540	14	-39.9	-79.0	260	5
2023-08-28T12:00	29565	13	-40.1	-79.1	267	5
2023-08-28T12:00	29591	13	-40.1	-79.1	273	4
2023-08-28T12:00	29609	13	-40.1	-79.1	280	4
2023-08-28T12:00	29633	13	-40.1	-79.1	286	4
2023-08-28T12:00	29682	13	-40.1	-79.1	291	4
2023-08-28T12:00	29705	13	-39.9	-79.0	303	4
2023-08-28T12:00	29754	13	-39.9	-79.0	310	3
2023-08-28T12:00	29770	13	-40.1	-79.1	319	2
2023-08-28T12:00	29799	13	-40.3	-79.2	335	2
2023-08-28T12:00	29810	13	-40.4	-79.3	11	1
2023-08-28T12:00	29850	13	-40.4	-79.3	54	2
2023-08-28T12:00	29876	13	-40.5	-79.4	75	2
2023-08-28T12:00	29907	13	-40.6	-79.5	84	3
2023-08-28T12:00	29940	13	-40.6	-79.5	91	4
2023-08-28T12:00	29964	13	-40.5	-79.4	96	5
2023-08-28T12:00	29982	13	-40.2	-79.2	103	5
2023-08-28T12:00	30000	13	-39.9	-79.0	109	6
2023-08-28T12:00	30038	13	-40.0	-79.0	116	6
2023-08-28T12:00	30066	13	-40.1	-79.1	123	6
2023-08-28T12:00	30101	12	-40.2	-79.2	129	7
2023-08-28T12:00	30115	12	-40.2	-79.2	135	7
2023-08-28T12:00	30152	12	-40.1	-79.1	140	7
2023-08-28T12:00	30179	12	-40.0	-79.0	145	7
2023-08-28T12:00	30216	12	-40.0	-79.0	150	7
2023-08-28T12:00	30227	12	-39.9	-79.0	156	7
2023-08-28T12:00	30278	12	-39.9	-79.0	164	6
2023-08-28T12:00	30305	12	-40.0	-79.0	173	6
2023-08-28T12:00	30330	12	-40.1	-79.1	183	5
2023-08-28T12:00	30352	12	-40.1	-79.1	193	5
2023-08-28T12:00	30375	12	-40.2	-79.2	204	5
2023-08-28T12:00	30416	12	-40.3	-79.2	214	5
2023-08-28T12:00	30445	12	-40.3	-79.2	221	5
2023-08-28T12:00	30474	12	-40.4	-79.3	226	5
2023-08-28T12:00	30506	12	-40.3	-79.2	227	5
2023-08-28T12:00	30522	12	-40.2	-79.2	226	5
2023-08-28T12:00	30564	12	-40.2	-79.2	222	5
2023-08-28T12:00	30589	12	-40.2	-79.2	217	5
2023-08-28T12:00	30619	12	-40.2	-79.2	210	5
2023-08-28T12:00	30646	12	-40.2	-79.2	204	5
2023-08-28T12:00	30662	11	-40.2	-79.2	201	5
2023-08-28T12:00	30702	11	-40.3	-79.2	201	5
2023-08-28T12:00	30741	11	-40.2	-79.2	204	5
2023-08-28T12:00	30779	11	-40.1	-79.1	211	5
2023-08-28T12:00	30813	11	-40.0	-79.0	220	5
2023-08-28T12:00	30823	11	-40.0	-79.0	230	5
2023-08-28T12:00	30848	11	-40.1	-79.1	240	5
2023-08-28T12:00	30888	11	-40.1	-79.1	248	5
2023-08-28T12:00	30918	11	-40.1	-79.1	253	5
2023-08-28T12:00	30965	11	-40.1	-79.1	255	5
2023-08-28T12:00	30978	11	-40.0	-79.0	254	5
2023-08-28T12:00	31015	11	-39.9	-79.0	251	5
2023-08-28T12:00	31030	11	-39.8	-78.9	246	5
2023-08-28T12:00	31070	11	-39.8	-78.9	240	4
2023-08-28T12:00	31106	11	-39.8	-78.9	235	5
2023-08-28T12:00	31120	11	-39.6	-78.8	230	5
2023-08-28T12:00	31164	11	-39.2	-78.5	226	5
2023-08-28T12:00	31168	11	-38.7	-78.1	222	5
2023-08-28T12:00	31209	11	-38.5	-78.0	219	6
2023-08-28T12:00	31237	11	-38.6	-78.1	217	6
2023-08-28T12:00	31260	11	-38.7	-78.1	218	5
2023-08-28T12:00	31280	10	-38.7	-78.1	220	5
2023-08-28T12:00	31314	10	-38.6	-78.1	225	5
2023-08-28T12:00	31333	10	-38.4	-77.9	231	5
2023-08-28T12:00	31360	10	-38.3	-77.9	237	4
2023-08-28T12:00	31396	10	-38.4	-77.9	242	4
2023-08-28T12:00	31413	10	-38.5	-78.0	247	4
2023-08-28T12:00	31439	10	-38.7	-78.1	249	3
2023-08-28T12:00	31472	10	-39.0	-78.3	250	3
2023-08-28T12:00	31482	10	-39.1	-78.4	250	3
2023-08-28T12:00	31524	10	-39.0	-78.3	253	2
2023-08-28T12:00	31539	10	-38.8	-78.2	260	2
2023-08-28T12:00	31564	10	-38.5	-78.0	271	2
2023-08-28T12:00	31601	10	-38.4	-77.9	286	3
2023-08-28T12:00	31650	10	-38.2	-77.8	313	3
2023-08-28T12:00	31676	10	-38.1	-77.7	324	3
2023-08-28T12:00	31702	10	-38.0	-77.6	335	3
2023-08-28T12:00	31714	10	-37.9	-77.6	344	3
2023-08-28T12:00	31733	10	-37.8	-77.5	350	3
2023-08-28T12:00	31781	10	-37.6	-77.4	354	3
2023-08-28T12:00	31803	10	-37.4	-77.2	360	2
2023-08-28T12:00	31818	10	-37.2	-77.1	9	1
2023-08-28T12:00	31831	10	-37.1	-77.0	48	1
2023-08-28T12:00	31877	10	-37.0	-77.0	118	1
2023-08-28T12:00	31910	10	-36.9	-76.9	139	2
2023-08-28T12:00	31935	10	-37.0	-77.0	146	3
2023-08-28T12:00	31945	10	-37.1	-77.0	150	3
2023-08-28T12:00	31980	9	-37.1	-77.0	151	4
2023-08-28T12:00	32009	9	-37.2	-77.1	152	4
2023-08-28T12:00	32031	9	-37.4	-77.2	152	4
2023-08-28T12:00	32056	9	-37.4	-77.2	153	4
2023-08-28T12:00	32084	9	-37.4	-77.2	154	4
2023-08-28T12:00	32114	9	-37.4	-77.2	157	3
2023-08-28T12:00	32139	9	-37.3	-77.2	165	3
2023-08-28T12:00	32180	9	-37.2	-77.1	186	2
2023-08-28T12:00	32193	9	-37.1	-77.0	234	1
2023-08-28T12:00	32228	9	-37.1	-77.0	271	2
2023-08-28T12:00	32263	9	-37.3	-77.2	288	3
2023-08-28T12:00	32287	9	-37.3	-77.2	298	3
2023-08-28T12:00	32300	9	-37.3	-77.2	306	4
2023-08-28T12:00	32338	9	-37.4	-77.2	314	4
2023-08-28T12:00	32365	9	-37.3	-77.2	322	4
2023-08-28T12:00	32399	9	-37.2	-77.1	331	4
2023-08-28T12:00	32410	9	-37.2	-77.1	339	4
2023-08-28T12:00	32458	9	-37.2	-77.1	348	4
2023-08-28T12:00	32485	9	-37.2	-77.1	357	4
2023-08-28T12:00	32523	9	-37.3	-77.2	5	4
2023-08-28T12:00	32541	9	-37.4	-77.2	12	4
2023-08-28T12:00	32550	9	-37.5	-77.3	20	4
2023-08-28T12:00	32587	9	-37.5	-77.3	28	4
2023-08-28T12:00	32601	9	-37.5	-77.3	36	4
2023-08-28T12:00	32644	9	-37.4	-77.2	44	4
2023-08-28T12:00	32681	9	-37.3	-77.2	52	3
2023-08-28T12:00	32703	9	-37.2	-77.1	58	3
2023-08-28T12:00	32727	9	-37.2	-77.1	67	2
2023-08-28T12:00	32773	8	-37.3	-77.2	83	2
2023-08-28T12:00	32815	8	-37.6	-77.4	129	2
2023-08-28T12:00	32821	8	-37.7	-77.4	142	2
2023-08-28T12:00	32853	8	-37.9	-77.6	149	3
2023-08-28T12:00	32884	8	-38.0	-77.6	154	3
2023-08-28T12:00	32914	8	-38.1	-77.7	158	3
2023-08-28T12:00	32946	8	-38.2	-77.8	163	3
2023-08-28T12:00	32955	8	-38.3	-77.9	169	3
2023-08-28T12:00	32973	8	-38.3	-77.9	178	2
2023-08-28T12:00	33010	8	-38.3	-77.9	188	2
2023-08-28T12:00	33058	8	-38.1	-77.7	196	1
2023-08-28T12:00	33069	8	-37.8	-77.5	192	1
2023-08-28T12:00	33074	8	-37.5	-77.3	173	1
2023-08-28T12:00	33124	8	-37.2	-77.1	155	2
2023-08-28T12:00	33150	8	-37.1	-77.0	146	2
2023-08-28T12:00	33174	8	-36.9	-76.9	140	3
2023-08-28T12:00	33194	8	-36.7	-76.7	137	3
2023-08-28T12:00	33208	8	-36.6	-76.7	136	4
2023-08-28T12:00	33250	8	-36.5	-76.6	137	5
2023-08-28T12:00	33263	8	-36.4	-76.5	140	5
2023-08-28T12:00	33297	8	-36.2	-76.4	145	6
2023-08-28T12:00	33315	8	-36.2	-76.4	150	6
2023-08-28T12:00	33376	8	-36.3	-76.5	155	7
2023-08-28T12:00	33381	8	-36.3	-76.5	160	7
2023-08-28T12:00	33394	8	-36.4	-76.5	165	7
2023-08-28T18:00	112	998	16.0	12.9	200	1
2023-08-28T18:00	138	995	16.0	12.4	228	2
2023-08-28T18:00	157	993	15.8	12.1	219	2
2023-08-28T18:00	177	990	15.7	12.0	214	3
2023-08-28T18:00	201	988	15.4	12.1	210	3
2023-08-28T18:00	225	985	15.2	12.0	207	3
2023-08-28T18:00	245	982	15.0	12.1	206	3
2023-08-28T18:00	269	980	14.7	11.9	207	2
2023-08-28T18:00	293	977	14.5	11.7	213	2
2023-08-28T18:00	314	974	14.3	11.7	222	2
2023-08-28T18:00	341	971	14.1	11.6	233	2
2023-08-28T18:00	364	969	14.0	11.0	246	2
2023-08-28T18:00	385	966	13.9	10.7	263	2
2023-08-28T18:00	413	963	13.8	10.5	280	1
2023-08-28T18:00	435	961	13.7		295	1
2023-08-28T18:00	460	958	13.5	10.3	306	1
2023-08-28T18:00	484	955	13.3	10.1	314	2
2023-08-28T18:00	504	953	13.2	10.2	320	2
2023-08-28T18:00	526	950	13.0	10.2	325	2
2023-08-28T18:00	550	948	12.8	10.3	330	2
2023-08-28T18:00	575	945	12.6	10.2	334	2
2023-08-28T18:00	597	942	12.4	10.1	338	3
2023-08-28T18:00	618	940	12.2	9.9	343	3
2023-08-28T18:00	643	937	12.0	9.6	349	3
2023-08-28T18:00	670	934	11.8	9.4	356	3
2023-08-28T18:00	692	932	11.7	9.3	3	3
2023-08-28T18:00	718	929	11.4	9.1	9	4
2023-08-28T18:00	747	926	11.2	9.1	12	4
2023-08-28T18:00	768	923	11.0	9.0	12	4
2023-08-28T18:00	791	921	10.8	8.9	10	5
2023-08-28T18:00	817	918	10.6	8.8	8	5
2023-08-28T18:00	846	915	10.4	8.7	5	5
2023-08-28T18:00	874	912	10.3	7.8	3	6
2023-08-28T18:00	899	909	10.2	7.6	3	6
2023-08-28T18:00	926	906	10.1	7.1	3	6
2023-08-28T18:00	950	903	9.9	7.2	3	6
2023-08-28T18:00	974	901	9.8	7.0	2	6
2023-08-28T18:00	997	898	9.8	6.8	0	6
2023-08-28T18:00	1021	896	9.6	6.6	358	6
2023-08-28T18:00	1049	893	9.4	6.6	356	6
2023-08-28T18:00	1075	890	9.1	6.4	356	6
2023-08-28T18:00	1100	887	9.0	6.3	357	6
2023-08-28T18:00	1128	884	8.8	6.0	359	6
2023-08-28T18:00	1151	882	8.6	5.7	3	6
2023-08-28T18:00	1175	879	8.4	5.8	7	5
2023-08-28T18:00	1197	877	8.2	6.0	10	5
2023-08-28T18:00	1220	874	8.0	5.9	11	5
2023-08-28T18:00	1242	872	7.8	5.8	11	5
2023-08-28T18:00	1262	870	7.6	5.8	9	5
2023-08-28T18:00	1284	868	7.4	5.7	8	5
2023-08-28T18:00	1307	865	7.2	5.5	8	5
2023-08-28T18:00	1332	863	7.1	5.4	9	5
2023-08-28T18:00	1354	860	6.9	5.3	11	5
2023-08-28T18:00	1376	858	6.8	5.1	12	5
2023-08-28T18:00	1403	855	6.6	4.9	13	5
2023-08-28T18:00	1429	853	6.4	4.8	14	5
2023-08-28T18:00	1451	850	6.2	4.7	15	5
2023-08-28T18:00	1471	848	6.1	4.5	16	5
2023-08-28T18:00	1491	846	5.9		18	5
2023-08-28T18:00	1513	844	5.9	4.3	20	5
2023-08-28T18:00	1531	842	5.9	3.7	22	5
2023-08-28T18:00	1552	840	6.2	1.7	25	5
2023-08-28T18:00	1581	837	6.7	0.5	29	5
2023-08-28T18:00	1607	834	6.7	0.6	33	5
2023-08-28T18:00	1628	832	6.6	0.8	36	5
2023-08-28T18:00	1650	830	6.5	0.6	36	5
2023-08-28T18:00	1674	828	6.4	0.4	34	5
2023-08-28T18:00	1695	825	6.5	0.0	30	5
2023-08-28T18:00	1717	823	6.4	-0.1	24	4
2023-08-28T18:00	1741	821	6.3	-0.3	18	4
2023-08-28T18:00	1768	818	6.1	-0.6	14	4
2023-08-28T18:00	1790	816	6.0	-0.5	11	3
2023-08-28T18:00	1814	813	5.8	-0.5	10	3
2023-08-28T18:00	1842	811	5.7	-0.7	13	3
2023-08-28T18:00	1866	808	5.5	-0.8	16	2
2023-08-28T18:00	1888	806	5.2	-0.8	17	2
2023-08-28T18:00	1917	803	5.1	-1.2	15	1
2023-08-28T18:00	1943	801	5.1	-2.3	6	1
2023-08-28T18:00	1968	798	5.0	-2.8	343	1
2023-08-28T18:00	1991	796	4.9	-3.1	301	0
2023-08-28T18:00	2012	794	4.8	-3.7	297	0
2023-08-28T18:00	2035	792	4.9	-4.2	327	1
2023-08-28T18:00	2059	789	4.8	-4.5	339	1
2023-08-28T18:00	2082	787	4.6		341	2
2023-08-28T18:00	2111	785	4.4	-5.6	343	2
2023-08-28T18:00	2135	782	4.3	-5.4	345	2
2023-08-28T18:00	2168	779	4.1	-6.1	350	2
2023-08-28T18:00	2189	777	3.9	-6.3	355	2
2023-08-28T18:00	2213	775	3.8	-6.5	357	2
2023-08-28T18:00	2239	772	3.8	-7.1	353	1
2023-08-28T18:00	2263	770	3.7	-8.2	330	1
2023-08-28T18:00	2284	768	3.8	-9.9	279	1
2023-08-28T18:00	2311	765	3.9	-11.5	258	1
2023-08-28T18:00	2332	763	3.8	-11.2	258	1
2023-08-28T18:00	2358	761	3.5	-11.1	262	1
2023-08-28T18:00	2382	759	3.3	-10.5	261	1
2023-08-28T18:00	2406	756	3.1	-9.9	237	0
2023-08-28T18:00	2434	754	3.1	-10.6	180	0
2023-08-28T18:00	2458	752	3.2	-11.9	153	1
2023-08-28T18:00	2484	749	3.0	-12.2	143	1
2023-08-28T18:00	2509	747	2.8	-11.5	141	1
2023-08-28T18:00	2532	745	2.6	-10.3	143	1
2023-08-28T18:00	2557	743	2.4	-8.9	149	1
2023-08-28T18:00	2581	740	2.3	-8.2	154	1
2023-08-28T18:00	2607	738	2.1	-5.9	154	1
2023-08-28T18:00	2631	736	2.0	-5.8	150	2
2023-08-28T18:00	2653	734	1.9	-5.6	144	2
2023-08-28T18:00	2676	732	1.7	-5.7	139	2
2023-08-28T18:00	2700	729	1.7	-6.3	131	2
2023-08-28T18:00	2727	727	1.6	-6.7	121	2
2023-08-28T18:00	2750	725	1.6	-7.6	99	1
2023-08-28T18:00	2772	723	1.5	-7.0	67	1
2023-08-28T18:00	2803	720	1.5	-6.8	45	1
2023-08-28T18:00	2828	718	1.4	-7.3	36	1
2023-08-28T18:00	2856	716	1.3	-7.7	39	1
2023-08-28T18:00	2877	713	1.2	-7.4	48	1
2023-08-28T18:00	2903	711	1.2	-7.5	65	1
2023-08-28T18:00	2931	709	1.2	-7.8	100	0
2023-08-28T18:00	2956	707	1.2	-9.7	171	0
2023-08-28T18:00	2982	704	1.3	-12.9	205	1
2023-08-28T18:00	3010	702	1.3	-11.0	213	1
2023-08-28T18:00	3044	699	1.3	-8.4	215	2
2023-08-28T18:00	3065	697	1.5	-5.9	216	2
2023-08-28T18:00	3086	695	1.5	-4.6	216	3
2023-08-28T18:00	3113	693	1.3	-4.3	217	4
2023-08-28T18:00	3141	690	1.0	-4.1	218	5
2023-08-28T18:00	3170	688	0.8	-3.6	218	6
2023-08-28T18:00	3198	686	0.7	-1.8	218	6
2023-08-28T18:00	3226	683	0.5	-1.3	218	6
2023-08-28T18:00	3254	681	0.2	-1.3	218	6
2023-08-28T18:00	3280	679	0.0	-1.4	219	7
2023-08-28T18:00	3303	677	-0.2	-1.3	221	7
2023-08-28T18:00	3328	675	-0.4	-1.4	223	7
2023-08-28T18:00	3351	673	-0.6	-1.4	225	7
2023-08-28T18:00	3376	671	-0.9	-1.5	225	8
2023-08-28T18:00	3401	669	-1.1	-1.5	224	9
2023-08-28T18:00	3422	667	-1.3	-1.5	221	10
2023-08-28T18:00	3449	665	-1.4	-1.5	220	11
2023-08-28T18:00	3473	662	-1.4	-1.4	218	12
2023-08-28T18:00	3496	661	-1.4	-1.4	217	12
2023-08-28T18:00	3516	659	-1.2	-1.2	217	13
2023-08-28T18:00	3539	657	-1.4	-1.4	216	13
2023-08-28T18:00	3564	655	-1.4	-1.4	216	13
2023-08-28T18:00	3586	653	-1.5	-1.5	215	13
2023-08-28T18:00	3605	652	-1.6	-1.6	214	12
2023-08-28T18:00	3631	650	-1.7	-1.7	214	12
2023-08-28T18:00	3648	648	-1.7	-1.7	215	12
2023-08-28T18:00	3671	646	-1.6	-1.7	216	12
2023-08-28T18:00	3694	644	-1.8	-1.8	218	12
2023-08-28T18:00	3715	643	-1.8	-1.9	220	12
2023-08-28T18:00	3739	641	-1.7	-1.9	221	13
2023-08-28T18:00	3763	639	-1.8	-2.2	222	13
2023-08-28T18:00	3785	637	-1.8	-2.3	221	13
2023-08-28T18:00	3804	635	-1.9	-2.6	220	13
2023-08-28T18:00	3830	634	-1.7	-3.2	219	14
2023-08-28T18:00	3852	632	-1.5	-3.5	218	14
2023-08-28T18:00	3872	630	-1.5	-3.9	218	14
2023-08-28T18:00	3893	628	-1.5	-3.8	217	15
2023-08-28T18:00	3921	626	-1.4	-3.8	217	15
2023-08-28T18:00	3946	624	-1.4	-3.9	216	15
2023-08-28T18:00	3972	622	-1.4	-3.9	214	15
2023-08-28T18:00	3996	620	-1.5	-4.0	212	15
2023-08-28T18:00	4020	619	-1.7	-4.0	211	15
2023-08-28T18:00	4049	616	-1.8	-4.4	210	15
2023-08-28T18:00	4075	614	-1.9	-5.1	210	14
2023-08-28T18:00	4099	612	-2.0	-5.5	211	14
2023-08-28T18:00	4126	610	-2.1	-6.3	212	14
2023-08-28T18:00	4156	608	-2.3	-6.4	214	14
2023-08-28T18:00	4181	606	-2.5	-6.7	215	14
2023-08-28T18:00	4207	604	-2.6	-7.0	216	14
2023-08-28T18:00	4234	602	-2.8	-7.2	217	14
2023-08-28T18:00	4263	600	-3.0	-7.3	219	13
2023-08-28T18:00	4292	598	-3.2	-7.6	220	13
2023-08-28T18:00	4316	596	-3.4	-7.7	222	13
2023-08-28T18:00	4344	594	-3.6	-8.0	225	14
2023-08-28T18:00	4368	592	-3.7	-8.4	228	14
2023-08-28T18:00	4398	590	-3.9	-8.5	231	14
2023-08-28T18:00	4422	588	-4.1	-8.8	233	14
2023-08-28T18:00	4448	586	-4.2	-9.0	235	14
2023-08-28T18:00	4471	584	-4.4	-9.1	236	14
2023-08-28T18:00	4499	582	-4.6	-9.3	236	14
2023-08-28T18:00	4523	580	-4.8	-9.4	236	13
2023-08-28T18:00	4550	579	-4.9	-9.9	237	13
2023-08-28T18:00	4582	576	-5.2	-10.2	238	13
2023-08-28T18:00	4613	574	-5.5	-10.3	239	13
2023-08-28T18:00	4640	572	-5.7	-10.5	241	13
2023-08-28T18:00	4663	570	-5.9	-10.6	242	13
2023-08-28T18:00	4686	569	-6.2	-10.7	244	12
2023-08-28T18:00	4710	567	-6.5	-10.7	245	12
2023-08-28T18:00	4735	565	-6.7	-10.5	246	12
2023-08-28T18:00	4759	563	-6.9	-10.4	247	12
2023-08-28T18:00	4782	562	-6.9	-10.2	246	13
2023-08-28T18:00	4805	560	-6.9	-9.9	245	13
2023-08-28T18:00	4830	558	-6.8	-9.8	244	14
2023-08-28T18:00	4855	556	-7.0	-9.8	242	14
2023-08-28T18:00	4884	555	-7.0	-9.5	240	15
2023-08-28T18:00	4908	553	-7.1	-9.4	239	15
2023-08-28T18:00	4937	551	-7.2	-9.4	237	15
2023-08-28T18:00	4964	549	-7.4	-9.5	235	15
2023-08-28T18:00	4990	547	-7.6	-9.5	234	14
2023-08-28T18:00	5011	545	-7.8	-9.6	232	14
2023-08-28T18:00	5035	544	-7.9	-9.7	230	14
2023-08-28T18:00	5058	542	-8.0	-9.7	229	14
2023-08-28T18:00	5079	541	-8.2	-9.8	227	14
2023-08-28T18:00	5103	539	-8.4	-9.9	225	14
2023-08-28T18:00	5127	537	-8.5	-9.9	224	14
2023-08-28T18:00	5154	536	-8.7	-10.0	222	14
2023-08-28T18:00	5178	534	-8.8	-10.1	221	14
2023-08-28T18:00	5201	532	-9.0	-10.2	220	15
2023-08-28T18:00	5226	531	-9.1	-10.2	220	15
2023-08-28T18:00	5249	529	-9.2	-10.4	221	16
2023-08-28T18:00	5272	527	-9.4	-10.5	222	16
2023-08-28T18:00	5292	526	-9.4	-10.5	222	16
2023-08-28T18:00	5315	524	-9.6	-10.8	223	16
2023-08-28T18:00	5336	523	-9.6	-10.9	222	16
2023-08-28T18:00	5357	522	-9.8	-11.1	220	16
2023-08-28T18:00	5381	520	-9.8	-11.1	217	16
2023-08-28T18:00	5404	518	-10.0	-11.3	214	16
2023-08-28T18:00	5430	517	-10.0	-11.4	210	17
2023-08-28T18:00	5456	515	-9.9	-11.5	208	17
2023-08-28T18:00	5481	513	-9.6	-11.3	206	18
2023-08-28T18:00	5508	512	-9.7	-11.3	204	19
2023-08-28T18:00	5533	510	-10.0	-11.4	203	20
2023-08-28T18:00	5556	508	-9.9		202	20
2023-08-28T18:00	5585	506	-10.2	-11.4	201	21
2023-08-28T18:00	5613	505	-10.3	-11.5	200	21
2023-08-28T18:00	5640	503	-10.5	-11.6	199	22
2023-08-28T18:00	5668	501	-10.7	-11.9	197	22
2023-08-28T18:00	5700	499	-10.9	-12.0	197	22
2023-08-28T18:00	5728	497	-11.1	-12.2	196	22
2023-08-28T18:00	5752	496	-11.3	-12.4	195	23
2023-08-28T18:00	5782	494	-11.5	-12.6	194	23
2023-08-28T18:00	5812	492	-11.6	-12.7	194	23
2023-08-28T18:00	5845	489	-11.9	-13.0	194	22
2023-08-28T18:00	5884	487	-12.1	-13.3	194	22
2023-08-28T18:00	5913	485	-12.3	-13.5	194	22
2023-08-28T18:00	5940	484	-12.5	-13.6	195	22
2023-08-28T18:00	5968	482	-12.7	-13.8	195	22
2023-08-28T18:00	6001	480	-13.0	-13.9	194	22
2023-08-28T18:00	6031	478	-13.1	-14.2	194	22
2023-08-28T18:00	6067	476	-13.4	-14.5	193	21
2023-08-28T18:00	6097	474	-13.6	-14.5	193	21
2023-08-28T18:00	6133	472	-13.9	-14.8	193	20
2023-08-28T18:00	6159	470	-14.1	-15.0	194	20
2023-08-28T18:00	6189	468	-14.3	-15.3	194	19
2023-08-28T18:00	6223	466	-14.6	-15.5	195	19
2023-08-28T18:00	6248	464	-14.8	-15.7	195	20
2023-08-28T18:00	6273	463	-15.0	-15.8	195	20
2023-08-28T18:00	6297	461	-15.2	-15.9	195	20
2023-08-28T18:00	6330	459	-15.4	-15.9	195	21
2023-08-28T18:00	6359	458	-15.7	-16.2	195	21
2023-08-28T18:00	6388	456	-15.9	-16.4	196	21
2023-08-28T18:00	6412	454	-16.0	-16.4	197	21
2023-08-28T18:00	6438	453	-16.2	-16.3	198	21
2023-08-28T18:00	6465	451	-16.4	-16.8	198	20
2023-08-28T18:00	6487	450	-16.5	-17.0	199	20
2023-08-28T18:00	6520	448	-16.7	-17.3	199	20
2023-08-28T18:00	6551	446	-17.0	-17.4	199	20
2023-08-28T18:00	6582	444	-17.2	-17.4	198	20
2023-08-28T18:00	6609	443	-17.4	-17.7	198	20
2023-08-28T18:00	6638	441	-17.5	-17.9	198	20
2023-08-28T18:00	6665	439	-17.7	-18.1	198	21
2023-08-28T18:00	6692	438	-17.8	-18.1	198	21
2023-08-28T18:00	6722	436	-18.1	-18.3	199	21
2023-08-28T18:00	6749	434	-18.3	-18.6	199	21
2023-08-28T18:00	6778	433	-18.5	-18.7	200	21
2023-08-28T18:00	6801	431	-18.7	-18.9	201	21
2023-08-28T18:00	6819	430	-18.8	-19.0	202	21
2023-08-28T18:00	6838	429	-19.0	-19.5	202	21
2023-08-28T18:00	6856	428	-18.7	-19.7	203	21
2023-08-28T18:00	6876	427	-18.7	-19.9	203	21
2023-08-28T18:00	6902	426	-18.8	-20.1	203	21
2023-08-28T18:00	6925	424	-18.9	-21.0	203	21
2023-08-28T18:00	6949	423	-19.1	-21.1	202	20
2023-08-28T18:00	6967	422	-19.3	-21.3	203	20
2023-08-28T18:00	6992	420	-19.4	-21.7	203	20
2023-08-28T18:00	7023	419	-19.5	-22.0	204	20
2023-08-28T18:00	7053	417	-19.7	-22.1	205	20
2023-08-28T18:00	7085	415	-20.0	-22.3	205	20
2023-08-28T18:00	7113	414	-20.2	-22.8	206	20
2023-08-28T18:00	7142	412	-20.3	-23.0	206	21
2023-08-28T18:00	7167	411	-20.5	-23.2	206	21
2023-08-28T18:00	7190	409	-20.7	-23.4	207	21
2023-08-28T18:00	7215	408	-20.9	-23.5	207	21
2023-08-28T18:00	7239	407	-21.1	-23.7	208	22
2023-08-28T18:00	7261	406	-21.3	-24.1	208	22
2023-08-28T18:00	7281	404	-21.5	-24.2	208	22
2023-08-28T18:00	7306	403	-21.6	-24.4	208	22
2023-08-28T18:00	7331	402	-21.8	-24.8	207	22
2023-08-28T18:00	7357	400	-22.0	-25.3	206	22
2023-08-28T18:00	7382	399	-22.1	-25.5	205	22
2023-08-28T18:00	7410	397	-22.3	-25.7	205	22
2023-08-28T18:00	7438	396	-22.5	-25.9	204	22
2023-08-28T18:00	7461	395	-22.7	-26.1	204	22
2023-08-28T18:00	7483	393	-22.9	-26.3	205	22
2023-08-28T18:00	7510	392	-23.0	-26.3	206	22
2023-08-28T18:00	7537	391	-23.2	-26.4	206	22
2023-08-28T18:00	7562	389	-23.4		207	22
2023-08-28T18:00	7590	388	-23.6	-27.1	208	22
2023-08-28T18:00	7618	386	-23.8	-27.2	208	22
2023-08-28T18:00	7646	385	-24.0	-27.2	208	22
2023-08-28T18:00	7679	383	-24.3	-27.2	207	22
2023-08-28T18:00	7707	382	-24.5	-27.6	207	23
2023-08-28T18:00	7734	380	-24.6	-27.6	206	23
2023-08-28T18:00	7763	379	-24.9	-27.7	206	23
2023-08-28T18:00	7796	377	-25.1	-28.2	205	24
2023-08-28T18:00	7824	376	-25.4	-28.7	205	24
2023-08-28T18:00	7850	374	-25.6	-28.8	206	24
2023-08-28T18:00	7878	373	-25.8	-28.8	205	24
2023-08-28T18:00	7907	371	-26.1	-28.9	205	24
2023-08-28T18:00	7933	370	-26.3	-28.9	204	25
2023-08-28T18:00	7960	369	-26.5	-29.1	203	25
2023-08-28T18:00	7982	367	-26.7	-29.2	202	25
2023-08-28T18:00	8007	366	-26.9	-29.5	202	25
2023-08-28T18:00	8036	365	-27.1	-30.0	201	25
2023-08-28T18:00	8065	363	-27.3	-30.1	200	26
2023-08-28T18:00	8096	362	-27.5	-30.2	200	26
2023-08-28T18:00	8124	360	-27.6	-30.4	200	26
2023-08-28T18:00	8150	359	-27.8	-30.3	200	27
2023-08-28T18:00	8183	357	-28.0	-30.2	200	27
2023-08-28T18:00	8215	356	-28.2	-30.4	200	27
2023-08-28T18:00	8247	354	-28.5	-30.7	200	28
2023-08-28T18:00	8277	353	-28.7	-30.8	200	28
2023-08-28T18:00	8307	351	-28.9	-31.0	200	28
2023-08-28T18:00	8335	350	-29.1	-31.0	200	28
2023-08-28T18:00	8370	348	-29.4	-31.1	200	28
2023-08-28T18:00	8399	347	-29.7	-31.3	200	28
2023-08-28T18:00	8427	345	-29.9	-31.3	200	27
2023-08-28T18:00	8454	344	-30.1	-31.5	199	27
2023-08-28T18:00	8478	343	-30.4	-31.6	199	27
2023-08-28T18:00	8506	341	-30.6	-31.7	199	27
2023-08-28T18:00	8533	340	-30.8	-31.7	198	27
2023-08-28T18:00	8562	339	-31.1	-32.0	198	27
2023-08-28T18:00	8593	337	-31.3	-32.2	197	27
2023-08-28T18:00	8621	336	-31.4	-32.8	197	27
2023-08-28T18:00	8650	335	-31.6	-33.0	196	27
2023-08-28T18:00	8672	334	-31.8	-33.4	195	26
2023-08-28T18:00	8698	332	-31.9	-33.4	195	26
2023-08-28T18:00	8722	331	-32.1	-33.5	195	26
2023-08-28T18:00	8742	330	-32.3	-33.6	195	26
2023-08-28T18:00	8768	329	-32.5	-33.7	195	26
2023-08-28T18:00	8794	328	-32.7	-33.9	195	26
2023-08-28T18:00	8825	326	-33.0	-34.2	196	26
2023-08-28T18:00	8849	325	-33.2	-34.3	196	26
2023-08-28T18:00	8873	324	-33.4	-34.5	196	25
2023-08-28T18:00	8903	323	-33.7	-34.8	196	25
2023-08-28T18:00	8927	322	-33.8	-35.0	197	24
2023-08-28T18:00	8953	320	-34.1	-36.0	197	24
2023-08-28T18:00	8982	319	-34.3	-36.6	197	24
2023-08-28T18:00	9006	318	-34.5	-36.5	198	24
2023-08-28T18:00	9035	317	-34.8	-36.4	198	23
2023-08-28T18:00	9057	316	-35.0	-36.3	199	23
2023-08-28T18:00	9076	315	-35.1	-36.3	199	22
2023-08-28T18:00	9099	314	-35.2	-37.2	199	22
2023-08-28T18:00	9118	313	-35.4	-37.6	199	22
2023-08-28T18:00	9141	312	-35.6	-37.6	199	22
2023-08-28T18:00	9162	311	-35.7	-38.1	199	22
2023-08-28T18:00	9186	310	-35.9	-38.4	200	22
2023-08-28T18:00	9218	309	-36.1	-38.6	200	22
2023-08-28T18:00	9239	308	-36.3	-38.8	200	23
2023-08-28T18:00	9260	307	-36.5	-38.7	201	23
2023-08-28T18:00	9281	306	-36.7	-38.7	201	23
2023-08-28T18:00	9309	305	-36.9	-38.7	202	23
2023-08-28T18:00	9337	303	-37.2	-38.9	202	23
2023-08-28T18:00	9367	302	-37.4	-39.0	201	23
2023-08-28T18:00	9395	301	-37.6	-39.2	201	24
2023-08-28T18:00	9418	300	-37.8	-39.7	200	24
2023-08-28T18:00	9443	299	-38.0	-40.0	199	24
2023-08-28T18:00	9465	298	-38.2	-40.0	199	25
2023-08-28T18:00	9489	297	-38.4	-40.3	199	25
2023-08-28T18:00	9516	296	-38.7	-40.4	199	25
2023-08-28T18:00	9537	295	-38.8	-40.4	200	26
2023-08-28T18:00	9562	294	-39.1	-40.6	200	26
2023-08-28T18:00	9585	293	-39.3	-40.8	200	27
2023-08-28T18:00	9606	292	-39.4	-41.1	201	27
2023-08-28T18:00	9627	291	-39.5	-41.4	201	27
2023-08-28T18:00	9652	290	-39.6	-41.4	202	27
2023-08-28T18:00	9675	289	-39.8	-41.5	202	27
2023-08-28T18:00	9697	288	-40.0	-41.9	202	27
2023-08-28T18:00	9720	287	-40.2	-42.3	202	27
2023-08-28T18:00	9742	286	-40.4	-42.3	202	27
2023-08-28T18:00	9765	285	-40.6	-42.6	202	28
2023-08-28T18:00	9789	284	-40.8	-42.9	203	28
2023-08-28T18:00	9812	283	-41.0	-43.0	203	28
2023-08-28T18:00	9835	282	-41.2	-43.0	203	28
2023-08-28T18:00	9856	281	-41.4	-43.0	203	28
2023-08-28T18:00	9878	280	-41.6	-43.0	203	28
2023-08-28T18:00	9904	279	-41.8		203	28
2023-08-28T18:00	9926	278	-42.0	-43.2	203	29
2023-08-28T18:00	9947	277	-42.2	-43.3	203	29
2023-08-28T18:00	9970	276	-42.4	-43.6	203	29
2023-08-28T18:00	9992	276	-42.6	-43.7	204	30
2023-08-28T18:00	10016	275	-42.8	-44.0	204	30
2023-08-28T18:00	10038	274	-43.0	-44.5	204	30
2023-08-28T18:00	10065	273	-43.2	-44.8	204	30
2023-08-28T18:00	10088	272	-43.5	-44.8	204	30
2023-08-28T18:00	10113	271	-43.6		204	30
2023-08-28T18:00	10132	270	-43.8	-45.6	204	30
2023-08-28T18:00	10154	269	-44.0	-45.9	203	30
2023-08-28T18:00	10173	268	-44.2	-46.0	203	30
2023-08-28T18:00	10194	267	-44.3	-46.4	204	30
2023-08-28T18:00	10215	267	-44.5	-47.0	204	31
2023-08-28T18:00	10240	266	-44.7	-47.4	204	31
2023-08-28T18:00	10261	265	-44.9	-47.5	204	31
2023-08-28T18:00	10281	264	-45.0	-47.5	204	31
2023-08-28T18:00	10301	263	-45.2	-47.8	204	31
2023-08-28T18:00	10321	262	-45.4	-48.2	204	30
2023-08-28T18:00	10341	262	-45.6	-48.3	204	30
2023-08-28T18:00	10362	261	-45.7	-48.3	204	30
2023-08-28T18:00	10386	260	-46.0	-48.4	203	30
2023-08-28T18:00	10411	259	-46.2	-48.4	203	30
2023-08-28T18:00	10433	258	-46.4	-48.3	202	30
2023-08-28T18:00	10455	257	-46.5	-48.2	202	29
2023-08-28T18:00	10475	256	-46.7	-48.4	201	29
2023-08-28T18:00	10495	256	-46.8	-48.7	201	29
2023-08-28T18:00	10517	255	-47.0	-49.2	201	29
2023-08-28T18:00	10542	254	-47.2	-50.0	201	29
2023-08-28T18:00	10564	253	-47.3	-50.9	201	29
2023-08-28T18:00	10587	252	-47.5	-51.1	200	29
2023-08-28T18:00	10611	251	-47.7	-50.9	200	30
2023-08-28T18:00	10633	250	-47.9	-50.9	200	30
2023-08-28T18:00	10653	250	-48.1	-51.4	200	30
2023-08-28T18:00	10670	249	-48.2	-53.1	200	30
2023-08-28T18:00	10691	248	-48.1	-55.2	200	31
2023-08-28T18:00	10712	247	-48.2	-55.7	199	31
2023-08-28T18:00	10732	247	-48.4	-55.3	199	31
2023-08-28T18:00	10751	246	-48.5	-54.9	199	31
2023-08-28T18:00	10768	245	-48.6	-54.8	198	31
2023-08-28T18:00	10789	244	-48.7	-55.0	198	31
2023-08-28T18:00	10808	244	-48.8	-55.2	198	31
2023-08-28T18:00	10829	243	-48.9	-54.9	197	31
2023-08-28T18:00	10848	242	-49.1	-54.6	197	31
2023-08-28T18:00	10867	242	-49.2	-54.2	197	31
2023-08-28T18:00	10887	241	-49.4	-54.0	197	31
2023-08-28T18:00	10904	240	-49.6	-53.9	197	31
2023-08-28T18:00	10925	239	-49.7	-53.7	198	32
2023-08-28T18:00	10947	239	-49.9	-53.8	198	31
2023-08-28T18:00	10969	238	-50.1	-54.1	199	31
2023-08-28T18:00	10989	237	-50.2	-54.5	199	31
2023-08-28T18:00	11011	236	-50.4	-55.1	199	31
2023-08-28T18:00	11030	236	-50.6	-55.4	199	31
2023-08-28T18:00	11049	235	-50.7	-55.4	199	31
2023-08-28T18:00	11069	234	-50.9	-55.5	199	32
2023-08-28T18:00	11092	233	-51.1	-55.6	199	32
2023-08-28T18:00	11113	233	-51.3	-55.7	199	32
2023-08-28T18:00	11135	232	-51.5	-55.8	200	32
2023-08-28T18:00	11158	231	-51.8	-56.0	200	32
2023-08-28T18:00	11184	230	-52.0	-56.3	200	32
2023-08-28T18:00	11209	229	-52.2	-56.5	200	32
2023-08-28T18:00	11235	228	-52.5	-56.7	200	32
2023-08-28T18:00	11260	227	-52.7	-56.8	200	31
2023-08-28T18:00	11284	227	-52.9	-57.0	200	31
2023-08-28T18:00	11310	226	-53.2	-57.4	200	31
2023-08-28T18:00	11335	225	-53.4	-57.6	200	31
2023-08-28T18:00	11357	224	-53.6	-57.9	201	32
2023-08-28T18:00	11381	223	-53.8	-58.2	201	32
2023-08-28T18:00	11404	222	-54.0	-58.6	201	32
2023-08-28T18:00	11432	221	-54.2	-58.7	202	33
2023-08-28T18:00	11455	221	-54.4	-58.9	202	33
2023-08-28T18:00	11481	220	-54.6	-59.1	203	34
2023-08-28T18:00	11503	219	-54.8	-59.3	203	34
2023-08-28T18:00	11529	218	-55.0	-59.4	203	34
2023-08-28T18:00	11556	217	-55.3	-59.5	204	34
2023-08-28T18:00	11582	216	-55.6	-59.7	203	35
2023-08-28T18:00	11606	215	-55.7	-59.9	203	35
2023-08-28T18:00	11629	215	-55.9	-60.2	203	35
2023-08-28T18:00	11653	214	-56.1	-60.5	203	35
2023-08-28T18:00	11676	213	-56.3	-60.6	203	35
2023-08-28T18:00	11698	212	-56.6	-60.8	202	35
2023-08-28T18:00	11721	212	-56.7	-60.9	202	35
2023-08-28T18:00	11746	211	-56.9	-61.0	202	35
2023-08-28T18:00	11767	210	-57.1	-61.2	203	36
2023-08-28T18:00	11790	209	-57.4	-61.5	203	36
2023-08-28T18:00	11816	208	-57.6	-61.8	204	36
2023-08-28T18:00	11848	207	-57.8	-62.0	204	37
2023-08-28T18:00	11877	206	-57.9	-62.0	205	36
2023-08-28T18:00	11902	206	-58.1	-61.9	205	36
2023-08-28T18:00	11930	205	-58.1	-61.7	205	35
2023-08-28T18:00	11957	204	-57.0	-60.7	205	34
2023-08-28T18:00	11981	203	-56.2	-60.2	204	33
2023-08-28T18:00	12002	202	-56.1	-60.4	204	33
2023-08-28T18:00	12026	202	-56.1	-60.6	203	32
2023-08-28T18:00	12053	201	-56.3	-60.9	202	32
2023-08-28T18:00	12079	200	-56.3	-61.0	202	31
2023-08-28T18:00	12104	199	-56.3	-61.2	202	31
2023-08-28T18:00	12129	198	-56.5	-61.5	201	30
2023-08-28T18:00	12149	198	-56.5	-61.7	201	30
2023-08-28T18:00	12170	197	-56.5	-62.7	202	29
2023-08-28T18:00	12191	196	-55.4	-63.7	202	29
2023-08-28T18:00	12213	196	-54.7	-65.8	202	29
2023-08-28T18:00	12233	195	-54.3	-67.6	203	29
2023-08-28T18:00	12254	195	-54.2	-68.1	203	29
2023-08-28T18:00	12272	194	-54.3	-67.9	204	30
2023-08-28T18:00	12292	193	-54.5	-67.9	204	30
2023-08-28T18:00	12313	193	-54.5	-68.3	206	30
2023-08-28T18:00	12335	192	-54.6	-69.1	207	30
2023-08-28T18:00	12356	191	-54.4	-70.0	209	30
2023-08-28T18:00	12379	191	-53.8	-70.6	210	29
2023-08-28T18:00	12401	190	-53.6	-71.3	212	28
2023-08-28T18:00	12420	190	-53.5	-71.6	213	27
2023-08-28T18:00	12440	189	-53.4	-71.6	214	26
2023-08-28T18:00	12459	188	-53.3	-71.6	215	25
2023-08-28T18:00	12482	188	-53.2	-71.8	215	24
2023-08-28T18:00	12504	187	-53.1	-72.0	215	24
2023-08-28T18:00	12525	187	-53.2	-72.1	214	23
2023-08-28T18:00	12543	186	-53.1	-72.1	214	22
2023-08-28T18:00	12564	185	-53.3	-72.3	213	22
2023-08-28T18:00	12587	185	-53.3	-72.5	212	21
2023-08-28T18:00	12606	184	-53.4	-72.7	211	21
2023-08-28T18:00	12627	184	-53.5	-72.7	211	20
2023-08-28T18:00	12648	183	-53.6	-72.8	210	20
2023-08-28T18:00	12671	182	-53.7	-72.9	208	20
2023-08-28T18:00	12696	182	-53.9	-73.2	207	19
2023-08-28T18:00	12720	181	-53.9	-73.4	205	19
2023-08-28T18:00	12741	180	-54.1	-73.8	204	18
2023-08-28T18:00	12765	180	-54.1	-73.9	203	18
2023-08-28T18:00	12791	179	-54.3	-74.1	202	18
2023-08-28T18:00	12818	178	-54.5	-74.4	200	18
2023-08-28T18:00	12841	178	-54.6	-74.6	199	18
2023-08-28T18:00	12864	177	-54.9	-75.0	197	17
2023-08-28T18:00	12888	176	-55.0	-74.9	196	17
2023-08-28T18:00	12909	176	-55.2	-75.0	195	18
2023-08-28T18:00	12930	175	-55.3	-75.0	194	18
2023-08-28T18:00	12951	174	-55.5	-75.2	193	18
2023-08-28T18:00	12975	174	-55.6	-75.4	191	18
2023-08-28T18:00	12993	173	-55.7	-75.6	190	19
2023-08-28T18:00	13014	173	-55.8	-75.8	189	19
2023-08-28T18:00	13035	172	-55.8	-75.9	188	19
2023-08-28T18:00	13055	172	-55.9	-76.2	187	20
2023-08-28T18:00	13078	171	-56.0	-76.6	187	20
2023-08-28T18:00	13098	171	-56.0	-76.8	187	21
2023-08-28T18:00	13117	170	-55.9	-77.0	188	21
2023-08-28T18:00	13137	169	-56.0	-77.3	188	22
2023-08-28T18:00	13156	169	-55.9	-77.4	189	22
2023-08-28T18:00	13177	168	-56.0	-77.5	190	23
2023-08-28T18:00	13200	168	-56.1	-77.7	191	24
2023-08-28T18:00	13221	167	-56.2	-77.8	192	24
2023-08-28T18:00	13240	167	-56.3	-77.8	193	25
2023-08-28T18:00	13260	166	-56.4	-77.9	195	25
2023-08-28T18:00	13281	166	-56.3	-78.0	197	26
2023-08-28T18:00	13301	165	-55.9	-78.1	199	26
2023-08-28T18:00	13322	165	-55.7	-78.4	202	26
2023-08-28T18:00	13347	164	-55.5	-78.8	204	26
2023-08-28T18:00	13371	163	-55.2	-79.1	207	26
2023-08-28T18:00	13397	163	-54.7	-79.1	210	26
2023-08-28T18:00	13420	162	-54.3	-79.3	213	26
2023-08-28T18:00	13443	162	-54.3	-79.3	215	25
2023-08-28T18:00	13469	161	-54.3	-79.5	217	25
2023-08-28T18:00	13490	160	-54.3	-79.7	219	24
2023-08-28T18:00	13512	160	-54.1	-79.8	220	23
2023-08-28T18:00	13537	159	-53.3	-79.5	221	23
2023-08-28T18:00	13559	159	-53.1	-79.6	222	22
2023-08-28T18:00	13581	158	-53.1	-79.9	222	22
2023-08-28T18:00	13605	158	-53.4	-79.8	222	22
2023-08-28T18:00	13630	157	-53.6	-80.0	222	22
2023-08-28T18:00	13658	156	-53.9	-80.2	222	21
2023-08-28T18:00	13690	155	-54.1	-80.4	222	21
2023-08-28T18:00	13713	155	-54.3	-80.5	223	20
2023-08-28T18:00	13738	154	-54.5	-80.7	224	20
2023-08-28T18:00	13768	154	-54.8	-80.6	225	19
2023-08-28T18:00	13789	153	-54.9	-80.7	225	19
2023-08-28T18:00	13814	152	-55.1	-81.1	224	19
2023-08-28T18:00	13835	152	-55.2	-81.2	224	18
2023-08-28T18:00	13857	151	-55.3	-81.3	222	19
2023-08-28T18:00	13882	151	-55.1	-81.4	221	19
2023-08-28T18:00	13908	150	-55.1	-81.4	220	20
2023-08-28T18:00	13933	150	-55.2	-81.5	218	20
2023-08-28T18:00	13959	149	-55.4	-81.6	217	21
2023-08-28T18:00	13983	148	-55.5	-81.4	217	22
2023-08-28T18:00	14009	148	-55.7	-81.6	216	22
2023-08-28T18:00	14030	147	-55.8	-81.7	216	23
2023-08-28T18:00	14052	147	-56.0	-81.6	216	23
2023-08-28T18:00	14076	146	-56.1	-81.6	216	23
2023-08-28T18:00	14096	146	-56.1	-81.6	217	23
2023-08-28T18:00	14121	145	-56.3	-81.8	218	23
2023-08-28T18:00	14144	145	-56.2	-82.0	219	22
2023-08-28T18:00	14167	144	-55.9	-81.8	221	22
2023-08-28T18:00	14187	144	-55.8	-82.0	222	21
2023-08-28T18:00	14209	143	-55.6	-81.8	223	21
2023-08-28T18:00	14229	143	-55.7	-81.9	224	20
2023-08-28T18:00	14250	142	-55.8	-82.0	224	20
2023-08-28T18:00	14274	142	-55.8	-82.0	225	19
2023-08-28T18:00	14294	141	-55.7	-82.2	226	19
2023-08-28T18:00	14316	141	-55.8	-82.2	227	19
2023-08-28T18:00	14338	140	-55.9	-82.3	228	19
2023-08-28T18:00	14361	140	-56.1	-82.5	229	19
2023-08-28T18:00	14385	139	-56.2	-82.3	230	19
2023-08-28T18:00	14405	139	-56.3	-82.3	231	20
2023-08-28T18:00	14427	138	-56.5	-82.5	231	19
2023-08-28T18:00	14449	138	-56.7	-82.4	231	19
2023-08-28T18:00	14469	137	-56.8	-82.5	231	19
2023-08-28T18:00	14495	137	-56.7	-82.7	230	19
2023-08-28T18:00	14517	137	-56.7	-82.7	228	19
2023-08-28T18:00	14540	136	-56.7	-82.9	226	19
2023-08-28T18:00	14559	136	-56.8	-83.3	223	19
2023-08-28T18:00	14580	135	-56.8	-83.3	221	19
2023-08-28T18:00	14604	135	-56.7	-83.6	219	19
2023-08-28T18:00	14626	134	-56.4	-83.7	218	19
2023-08-28T18:00	14647	134	-56.2	-83.5	217	20
2023-08-28T18:00	14668	133	-56.0	-83.7	216	20
2023-08-28T18:00	14690	133	-55.9	-83.6	216	19
2023-08-28T18:00	14713	132	-55.9	-83.6	216	19
2023-08-28T18:00	14736	132	-55.5	-83.7	217	19
2023-08-28T18:00	14757	131	-55.3	-83.6	217	19
2023-08-28T18:00	14781	131	-55.0	-83.7	218	19
2023-08-28T18:00	14802	131	-54.8	-83.6	218	18
2023-08-28T18:00	14822	130	-54.8	-83.6	219	18
2023-08-28T18:00	14845	130	-54.5	-83.8	221	17
2023-08-28T18:00	14867	129	-54.5	-83.8	222	16
2023-08-28T18:00	14890	129	-54.3	-83.6	223	16
2023-08-28T18:00	14910	128	-54.2	-83.6	224	15
2023-08-28T18:00	14933	128	-54.2	-83.6	225	15
2023-08-28T18:00	14957	127	-54.2	-83.6	226	14
2023-08-28T18:00	14980	127	-54.3	-83.2	226	14
2023-08-28T18:00	15002	127	-54.3	-83.2	227	13
2023-08-28T18:00	15024	126	-54.4	-83.3	227	13
2023-08-28T18:00	15044	126	-54.4	-83.3	227	13
2023-08-28T18:00	15066	125	-54.4	-83.3	228	13
2023-08-28T18:00	15090	125	-54.4	-83.3	229	13
2023-08-28T18:00	15109	124	-54.5	-83.4	230	13
2023-08-28T18:00	15131	124	-54.5	-83.4	232	14
2023-08-28T18:00	15152	124	-54.5	-83.8	233	14
2023-08-28T18:00	15174	123	-54.5	-83.8	234	13
2023-08-28T18:00	15196	123	-54.3	-83.6	235	13
2023-08-28T18:00	15216	122	-54.0	-83.4	236	13
2023-08-28T18:00	15236	122	-53.9	-83.8	237	12
2023-08-28T18:00	15258	122	-54.0	-83.4	237	12
2023-08-28T18:00	15278	121	-54.0	-83.4	238	12
2023-08-28T18:00	15297	121	-54.0	-83.4	239	12
2023-08-28T18:00	15317	120	-53.9	-83.3	239	12
2023-08-28T18:00	15335	120	-54.1	-83.5	239	11
2023-08-28T18:00	15359	120	-54.2	-83.6	238	11
2023-08-28T18:00	15377	119	-54.3	-83.6	236	11
2023-08-28T18:00	15399	119	-54.3	-83.6	234	10
2023-08-28T18:00	15418	119	-54.2	-83.6	231	10
2023-08-28T18:00	15437	118	-53.9	-83.3	228	10
2023-08-28T18:00	15459	118	-53.9	-83.3	225	10
2023-08-28T18:00	15478	117	-54.0	-83.4	223	10
2023-08-28T18:00	15500	117	-54.1	-83.5	221	10
2023-08-28T18:00	15519	117	-54.0	-83.9	219	10
2023-08-28T18:00	15541	116	-53.3		218	11
2023-08-28T18:00	15564	116	-53.1	-83.2	217	11
2023-08-28T18:00	15582	116	-53.0	-83.6	217	11
2023-08-28T18:00	15603	115	-52.9	-83.6	217	11
2023-08-28T18:00	15628	115	-52.9	-83.6	217	11
2023-08-28T18:00	15649	114	-52.9	-83.6	217	11
2023-08-28T18:00	15671	114	-53.0	-83.6	216	11
2023-08-28T18:00	15692	114	-53.0	-83.6	216	11
2023-08-28T18:00	15713	113	-53.0	-83.6	216	11
2023-08-28T18:00	15736	113	-53.1	-83.7	216	11
2023-08-28T18:00	15760	112	-53.3	-83.9	216	11
2023-08-28T18:00	15782	112	-53.4	-83.9	216	11
2023-08-28T18:00	15802	112	-53.2	-83.8	216	12
2023-08-28T18:00	15823	111	-53.0	-83.6	217	12
2023-08-28T18:00	15846	111	-53.0	-83.6	218	12
2023-08-28T18:00	15868	111	-53.0	-83.6	219	12
2023-08-28T18:00	15891	110	-52.9	-83.6	220	12
2023-08-28T18:00	15912	110	-53.0	-83.6	222	12
2023-08-28T18:00	15934	109	-53.1	-83.7	224	11
2023-08-28T18:00	15955	109	-53.1	-83.7	225	11
2023-08-28T18:00	15977	109	-53.1	-83.7	225	11
2023-08-28T18:00	15999	108	-53.2	-83.8	225	11
2023-08-28T18:00	16020	108	-53.3	-83.9	224	11
2023-08-28T18:00	16042	108	-53.3	-83.9	222	10
2023-08-28T18:00	16062	107	-53.4	-83.9	220	10
2023-08-28T18:00	16085	107	-53.5	-84.0	218	10
2023-08-28T18:00	16106	107	-53.6	-84.1	216	10
2023-08-28T18:00	16128	106	-53.5	-84.0	215	9
2023-08-28T18:00	16150	106	-53.6	-84.1	213	9
2023-08-28T18:00	16171	105	-53.8	-84.2	212	9
2023-08-28T18:00	16192	105	-53.9	-84.3	212	9
2023-08-28T18:00	16211	105	-53.9	-84.3	212	10
2023-08-28T18:00	16235	104	-54.0	-84.4	212	10
2023-08-28T18:00	16255	104	-54.1	-84.5	213	10
2023-08-28T18:00	16276	104	-54.1	-84.5	215	10
2023-08-28T18:00	16297	103	-54.2	-84.5	216	10
2023-08-28T18:00	16321	103	-54.2	-84.5	218	10
2023-08-28T18:00	16340	103	-54.1	-84.5	219	9
2023-08-28T18:00	16362	102	-53.9	-84.9	220	9
2023-08-28T18:00	16383	102	-53.5	-84.6	220	8
2023-08-28T18:00	16404	102	-53.1	-84.3	220	8
2023-08-28T18:00	16425	101	-53.1	-84.3	220	7
2023-08-28T18:00	16446	101	-53.1	-84.3	219	7
2023-08-28T18:00	16467	101	-53.1	-84.3	216	7
2023-08-28T18:00	16489	100	-53.2	-84.4	213	7
2023-08-28T18:00	16513	100	-53.3	-84.4	209	8
2023-08-28T18:00	16532	100	-53.4	-84.5	206	8
2023-08-28T18:00	16552	99	-53.4	-84.5	203	8
2023-08-28T18:00	16574	99	-53.6	-84.6	202	8
2023-08-28T18:00	16597	99	-53.6	-84.6	201	8
2023-08-28T18:00	16620	98	-53.6	-84.6	200	8
2023-08-28T18:00	16642	98	-53.6	-84.6	200	8
2023-08-28T18:00	16664	98	-53.6	-84.1	198	8
2023-08-28T18:00	16687	97	-53.8	-84.2	196	8
2023-08-28T18:00	16708	97	-54.0	-84.4	194	8
2023-08-28T18:00	16733	97	-54.2	-84.5	192	9
2023-08-28T18:00	16756	96	-54.4	-84.7	190	9
2023-08-28T18:00	16776	96	-54.5	-84.8	187	9
2023-08-28T18:00	16797	96	-54.5	-84.8	185	9
2023-08-28T18:00	16819	95	-54.6	-84.8	184	9
2023-08-28T18:00	16842	95	-54.6	-84.8	183	10
2023-08-28T18:00	16864	95	-54.7	-84.9	184	10
2023-08-28T18:00	16888	94	-54.8	-85.0	186	10
2023-08-28T18:00	16909	94	-54.7	-84.9	188	10
2023-08-28T18:00	16930	94	-54.4	-84.7	191	10
2023-08-28T18:00	16954	93	-54.3	-85.2	194	10
2023-08-28T18:00	16976	93	-54.3	-85.2	196	10
2023-08-28T18:00	16998	93	-54.4	-85.2	199	9
2023-08-28T18:00	17020	92	-54.4	-84.7	201	10
2023-08-28T18:00	17043	92	-54.6	-84.8	203	10
2023-08-28T18:00	17068	92	-54.7	-84.9	206	10
2023-08-28T18:00	17089	91	-54.6	-84.8	208	10
2023-08-28T18:00	17114	91	-54.4	-84.7	210	11
2023-08-28T18:00	17136	91	-54.5	-85.3	211	11
2023-08-28T18:00	17158	90	-54.7	-85.5	212	11
2023-08-28T18:00	17183	90	-54.6	-85.4	213	11
2023-08-28T18:00	17203	90	-54.5	-85.3	214	11
2023-08-28T18:00	17229	89	-54.6	-84.8	215	11
2023-08-28T18:00	17254	89	-54.6	-84.8	215	11
2023-08-28T18:00	17274	89	-54.7	-84.9	215	11
2023-08-28T18:00	17297	88	-54.8	-85.0	214	10
2023-08-28T18:00	17321	88	-54.9	-85.1	213	10
2023-08-28T18:00	17341	88	-54.9	-85.1	213	10
2023-08-28T18:00	17366	88	-55.0	-85.7	213	9
2023-08-28T18:00	17389	87	-55.0	-85.7	215	9
2023-08-28T18:00	17415	87	-54.6	-85.4	217	9
2023-08-28T18:00	17439	87	-54.5	-85.3	221	9
2023-08-28T18:00	17464	86	-54.2	-85.1	225	9
2023-08-28T18:00	17488	86	-54.2	-85.1	229	9
2023-08-28T18:00	17511	86	-54.2	-85.1	232	9
2023-08-28T18:00	17538	85	-54.4	-85.2	234	9
2023-08-28T18:00	17559	85	-54.2	-85.1	236	8
2023-08-28T18:00	17582	85	-54.1	-85.0	238	8
2023-08-28T18:00	17608	84	-54.2	-85.1	240	8
2023-08-28T18:00	17631	84	-54.4	-85.2	241	8
2023-08-28T18:00	17654	84	-54.7	-85.5	243	8
2023-08-28T18:00	17677	83	-54.8	-85.0	244	8
2023-08-28T18:00	17700	83	-55.1	-85.2	246	7
2023-08-28T18:00	17726	83	-55.2	-85.3	249	7
2023-08-28T18:00	17748	82	-55.4	-85.4	252	7
2023-08-28T18:00	17769	82	-55.5	-85.5	256	7
2023-08-28T18:00	17795	82	-55.7	-85.7	261	7
2023-08-28T18:00	17821	82	-55.9	-85.8	267	7
2023-08-28T18:00	17844	81	-55.8	-85.7	272	6
2023-08-28T18:00	17868	81	-55.6	-85.6	277	6
2023-08-28T18:00	17891	81	-55.7	-85.7	282	5
2023-08-28T18:00	17913	80	-55.6	-86.1	284	4
2023-08-28T18:00	17936	80	-55.4	-86.0	285	4
2023-08-28T18:00	17959	80	-55.4	-86.0	283	3
2023-08-28T18:00	17981	80	-55.4	-86.0	276	2
2023-08-28T18:00	18009	79	-55.5	-86.1	263	2
2023-08-28T18:00	18035	79	-55.6	-85.6	235	1
2023-08-28T18:00	18055	79	-55.7	-85.7	202	2
2023-08-28T18:00	18078	78	-55.8	-85.7	182	2
2023-08-28T18:00	18099	78	-55.9	-85.8	175	3
2023-08-28T18:00	18122	78	-55.9	-85.8	173	4
2023-08-28T18:00	18148	77	-56.0	-85.9	174	4
2023-08-28T18:00	18164	77	-56.1	-86.0	177	5
2023-08-28T18:00	18187	77	-56.1	-86.0	180	6
2023-08-28T18:00	18206	77	-56.0	-85.9	184	6
2023-08-28T18:00	18230	76	-56.1	-86.0	187	6
2023-08-28T18:00	18250	76	-56.2	-86.0	192	7
2023-08-28T18:00	18272	76	-56.3	-86.1	196	7
2023-08-28T18:00	18297	76	-56.4	-86.2	200	8
2023-08-28T18:00	18317	75	-56.3	-86.1	204	8
2023-08-28T18:00	18339	75	-56.2	-86.0	208	9
2023-08-28T18:00	18364	75	-56.3	-86.1	212	9
2023-08-28T18:00	18387	75	-56.4	-86.2	216	10
2023-08-28T18:00	18410	74	-56.5	-86.3	221	10
2023-08-28T18:00	18429	74	-56.5	-86.3	225	10
2023-08-28T18:00	18453	74	-56.4	-86.2	230	10
2023-08-28T18:00	18476	74	-56.2	-86.6	235	9
2023-08-28T18:00	18495	73	-56.1	-86.5	240	9
2023-08-28T18:00	18518	73	-56.1	-86.5	243	8
2023-08-28T18:00	18542	73	-56.0	-86.4	246	7
2023-08-28T18:00	18562	73	-56.0	-86.4	248	6
2023-08-28T18:00	18585	72	-55.9	-86.3	249	6
2023-08-28T18:00	18605	72	-56.0	-86.4	251	5
2023-08-28T18:00	18629	72	-55.8	-86.3	253	4
2023-08-28T18:00	18654	72	-55.4	-86.0	256	4
2023-08-28T18:00	18672	71	-55.4	-86.0	261	3
2023-08-28T18:00	18693	71	-55.5	-86.1	267	3
2023-08-28T18:00	18716	71	-55.6	-86.1	273	3
2023-08-28T18:00	18739	71	-55.8	-86.3	279	4
2023-08-28T18:00	18759	70	-55.8	-86.3	283	4
2023-08-28T18:00	18779	70	-56.0	-86.4	287	4
2023-08-28T18:00	18803	70	-56.1	-86.5	291	4
2023-08-28T18:00	18826	70	-56.3	-86.6	294	4
2023-08-28T18:00	18851	69	-56.0	-86.4	297	4
2023-08-28T18:00	18871	69	-55.6	-86.1	299	3
2023-08-28T18:00	18894	69	-55.6	-86.1	299	3
2023-08-28T18:00	18916	69	-55.6	-86.1	297	3
2023-08-28T18:00	18940	68	-55.7	-86.2	292	2
2023-08-28T18:00	18966	68	-55.8	-86.3	284	2
2023-08-28T18:00	18986	68	-55.9	-86.3	274	2
2023-08-28T18:00	19012	68	-56.0	-86.4	264	2
2023-08-28T18:00	19033	67	-56.2	-86.6	255	2
2023-08-28T18:00	19056	67	-56.3	-86.6	248	2
2023-08-28T18:00	19081	67	-56.5	-86.8	241	2
2023-08-28T18:00	19108	67	-56.6	-86.9	236	2
2023-08-28T18:00	19130	66	-56.4		234	2
2023-08-28T18:00	19154	66	-55.6	-86.7	236	2
2023-08-28T18:00	19174	66	-55.3	-86.5	243	2
2023-08-28T18:00	19201	66	-55.2	-86.4	254	2
2023-08-28T18:00	19227	65	-55.1	-86.4	269	2
2023-08-28T18:00	19251	65	-55.2	-86.4	283	2
2023-08-28T18:00	19277	65	-55.1	-86.4	294	2
2023-08-28T18:00	19299	65	-55.0	-86.3	303	2
2023-08-28T18:00	19325	64	-55.0	-86.3	312	2
2023-08-28T18:00	19348	64	-55.1	-86.4	322	2
2023-08-28T18:00	19373	64	-55.1	-86.4	335	2
2023-08-28T18:00	19399	64	-55.1	-86.4	351	2
2023-08-28T18:00	19423	63	-55.1	-86.4	8	2
2023-08-28T18:00	19449	63	-54.9	-86.2	26	2
2023-08-28T18:00	19473	63	-54.8	-86.1	43	3
2023-08-28T18:00	19497	63	-54.9	-86.2	59	3
2023-08-28T18:00	19520	62	-55.0	-86.3	71	3
2023-08-28T18:00	19544	62	-55.0	-86.3	81	3
2023-08-28T18:00	19570	62	-55.1	-86.4	89	3
2023-08-28T18:00	19589	62	-55.2	-86.4	96	4
2023-08-28T18:00	19619	62	-55.2	-86.4	103	3
2023-08-28T18:00	19643	61	-55.2	-86.4	112	3
2023-08-28T18:00	19664	61	-55.2	-86.4	122	3
2023-08-28T18:00	19686	61	-54.5	-86.6	132	3
2023-08-28T18:00	19709	61	-54.0	-86.2	140	2
2023-08-28T18:00	19736	60	-54.0	-86.2	143	2
2023-08-28T18:00	19756	60	-54.0	-86.2	140	2
2023-08-28T18:00	19775	60	-53.7	-86.0	128	2
2023-08-28T18:00	19803	60	-53.5	-85.9	110	2
2023-08-28T18:00	19826	60	-53.6		92	2
2023-08-28T18:00	19852	59	-53.4	-85.8	80	2
2023-08-28T18:00	19873	59	-53.2	-85.6	74	2
2023-08-28T18:00	19897	59	-53.3	-85.7	74	2
2023-08-28T18:00	19921	59	-53.4	-85.8	81	1
2023-08-28T18:00	19943	58	-53.1	-85.6	96	1
2023-08-28T18:00	19968	58	-53.3	-85.7	116	1
2023-08-28T18:00	19990	58	-53.4	-85.8	133	1
2023-08-28T18:00	20017	58	-53.6	-85.3	145	2
2023-08-28T18:00	20042	58	-53.8	-85.4	152	2
2023-08-28T18:00	20069	57	-54.0	-85.5	157	2
2023-08-28T18:00	20090	57	-53.9	-85.5	160	2
2023-08-28T18:00	20112	57	-54.0	-85.5	162	2
2023-08-28T18:00	20136	57	-54.2	-85.7	164	2
2023-08-28T18:00	20162	57	-54.3	-85.8	165	1
2023-08-28T18:00	20180	56	-54.2	-85.7	162	1
2023-08-28T18:00	20210	56	-54.2	-85.7	130	0
2023-08-28T18:00	20229	56	-54.1	-85.6	41	1
2023-08-28T18:00	20256	56	-54.1	-86.3	27	1
2023-08-28T18:00	20279	55	-54.2	-86.4	23	2
2023-08-28T18:00	20304	55	-54.1	-86.3	23	2
2023-08-28T18:00	20323	55	-53.8	-86.1	24	2
2023-08-28T18:00	20353	55	-53.6		30	2
2023-08-28T18:00	20380	55	-53.5	-85.9	47	1
2023-08-28T18:00	20400	54	-53.5	-85.9	94	1
2023-08-28T18:00	20427	54	-53.6		139	1
2023-08-28T18:00	20450	54	-53.8	-86.1	157	2
2023-08-28T18:00	20477	54	-54.0	-86.2	165	3
2023-08-28T18:00	20501	54	-53.9	-86.2	171	3
2023-08-28T18:00	20522	53	-53.8	-86.1	176	4
2023-08-28T18:00	20550	53	-53.7	-86.0	180	4
2023-08-28T18:00	20573	53	-53.2	-85.6	185	4
2023-08-28T18:00	20599	53	-53.2	-85.6	190	4
2023-08-28T18:00	20618	53	-53.2	-85.6	195	4
2023-08-28T18:00	20642	52	-53.2	-85.6	199	4
2023-08-28T18:00	20671	52	-53.2	-85.6	203	4
2023-08-28T18:00	20692	52	-53.4	-85.8	207	4
2023-08-28T18:00	20720	52	-53.6		212	4
2023-08-28T18:00	20747	52	-53.8	-85.4	218	3
2023-08-28T18:00	20773	51	-53.8	-85.4	224	3
2023-08-28T18:00	20798	51	-53.9	-85.5	230	3
2023-08-28T18:00	20818	51	-54.0	-85.5	235	2
2023-08-28T18:00	20843	51	-54.1	-85.6	238	2
2023-08-28T18:00	20870	51	-54.2	-85.7	237	2
2023-08-28T18:00	20895	50	-54.0	-85.5	234	2
2023-08-28T18:00	20922	50	-54.0	-86.2	228	2
2023-08-28T18:00	20945	50	-54.1	-86.3	220	1
2023-08-28T18:00	20970	50	-54.2	-86.4	193	1
2023-08-28T18:00	20995	50	-53.9	-86.2	97	1
2023-08-28T18:00	21018	49	-53.8	-86.1	73	1
2023-08-28T18:00	21045	49	-53.8	-86.1	70	2
2023-08-28T18:00	21068	49	-54.0	-86.2	73	2
2023-08-28T18:00	21096	49	-54.2	-85.7	78	3
2023-08-28T18:00	21118	49	-54.2	-85.7	84	3
2023-08-28T18:00	21143	48	-54.0	-86.2	89	4
2023-08-28T18:00	21168	48	-54.0	-86.2	93	4
2023-08-28T18:00	21193	48	-54.2	-86.4	98	4
2023-08-28T18:00	21220	48	-53.8	-86.1	103	4
2023-08-28T18:00	21245	48	-53.8	-86.1	108	4
2023-08-28T18:00	21267	48	-53.9	-86.2	114	4
2023-08-28T18:00	21296	47	-54.0	-86.2	119	4
2023-08-28T18:00	21321	47	-54.1	-85.6	125	4
2023-08-28T18:00	21344	47	-54.2	-85.7	131	4
2023-08-28T18:00	21369	47	-54.4	-85.8	139	3
2023-08-28T18:00	21396	47	-54.4	-85.8	151	3
2023-08-28T18:00	21424	46	-54.3	-85.8	167	2
2023-08-28T18:00	21449	46	-54.3	-86.4	187	2
2023-08-28T18:00	21471	46	-54.2	-86.4	206	2
2023-08-28T18:00	21500	46	-54.2	-86.4	221	3
2023-08-28T18:00	21524	46	-54.3	-86.4	233	3
2023-08-28T18:00	21546	46	-54.2	-86.4	244	3
2023-08-28T18:00	21579	45	-54.1	-86.3	254	3
2023-08-28T18:00	21604	45	-53.7	-86.0	263	3
2023-08-28T18:00	21629	45	-53.7	-86.0	271	3
2023-08-28T18:00	21652	45	-53.7	-86.0	279	2
2023-08-28T18:00	21679	45	-53.8	-86.1	287	2
2023-08-28T18:00	21704	44	-53.9	-86.2	300	2
2023-08-28T18:00	21732	44	-53.9	-86.2	322	1
2023-08-28T18:00	21757	44	-54.0	-85.5	354	1
2023-08-28T18:00	21778	44	-54.2	-85.7	27	1
2023-08-28T18:00	21809	44	-54.4	-85.8	53	1
2023-08-28T18:00	21840	44	-54.6	-86.0	73	2
2023-08-28T18:00	21859	43	-54.7	-86.1	90	2
2023-08-28T18:00	21884	43	-54.8	-86.1	103	3
2023-08-28T18:00	21906	43	-54.8	-86.1	113	3
2023-08-28T18:00	21932	43	-54.8	-86.1	122	3
2023-08-28T18:00	21953	43	-54.8	-86.1	130	4
2023-08-28T18:00	21980	43	-54.9	-86.2	137	4
2023-08-28T18:00	22009	42	-54.9	-86.2	147	4
2023-08-28T18:00	22031	42	-54.9	-86.2	157	4
2023-08-28T18:00	22050	42	-54.8	-86.1	169	3
2023-08-28T18:00	22084	42	-54.8	-86.8	182	3
2023-08-28T18:00	22103	42	-54.8	-86.8	196	3
2023-08-28T18:00	22131	42	-54.7	-86.7	214	2
2023-08-28T18:00	22152	41	-54.6	-86.7	235	2
2023-08-28T18:00	22177	41	-54.5	-86.6	257	2
2023-08-28T18:00	22201	41	-54.4	-86.5	273	2
2023-08-28T18:00	22223	41	-54.3	-86.4	281	2
2023-08-28T18:00	22249	41	-54.3	-86.4	283	2
2023-08-28T18:00	22273	41	-54.5	-86.6	280	2
2023-08-28T18:00	22294	41	-54.5	-86.6	273	1
2023-08-28T18:00	22321	40	-54.5	-86.6	258	1
2023-08-28T18:00	22345	40	-54.5	-86.6	231	1
2023-08-28T18:00	22368	40	-54.2	-86.4	195	1
2023-08-28T18:00	22395	40	-54.0	-86.2	167	1
2023-08-28T18:00	22417	40	-54.0	-86.2	148	1
2023-08-28T18:00	22447	40	-54.0	-86.2	134	1
2023-08-28T18:00	22463	39	-53.8	-86.1	120	1
2023-08-28T18:00	22489	39	-53.8	-86.1	108	1
2023-08-28T18:00	22509	39	-53.9	-86.2	101	1
2023-08-28T18:00	22531	39	-54.0	-86.2	100	1
2023-08-28T18:00	22559	39	-54.1	-86.3	107	1
2023-08-28T18:00	22584	39	-54.2	-86.4	119	1
2023-08-28T18:00	22611	39	-54.2	-86.4	132	1
2023-08-28T18:00	22629	38	-54.3	-86.4	142	1
2023-08-28T18:00	22659	38	-54.2	-86.4	150	1
2023-08-28T18:00	22674	38	-54.1	-86.3	155	1
2023-08-28T18:00	22699	38	-54.0	-86.2	159	2
2023-08-28T18:00	22726	38	-54.0	-86.2	161	2
2023-08-28T18:00	22753	38	-53.9	-86.2	163	2
2023-08-28T18:00	22781	38	-53.9	-86.2	165	2
2023-08-28T18:00	22805	37	-54.0	-86.2	168	3
2023-08-28T18:00	22828	37	-54.1	-86.3	170	3
2023-08-28T18:00	22853	37	-54.2	-86.4	172	3
2023-08-28T18:00	22879	37	-54.3	-86.4	173	3
2023-08-28T18:00	22906	37	-54.1	-86.3	170	3
2023-08-28T18:00	22933	37	-53.9	-86.2	165	2
2023-08-28T18:00	22956	37	-53.9	-86.2	160	3
2023-08-28T18:00	22982	36	-54.0	-86.2	159	3
2023-08-28T18:00	23003	36	-54.1	-86.3	161	3
2023-08-28T18:00	23032	36	-54.0	-86.2	167	4
2023-08-28T18:00	23062	36	-53.9	-86.2	174	4
2023-08-28T18:00	23085	36	-53.9	-86.2	182	4
2023-08-28T18:00	23117	36	-53.8	-86.1	189	4
2023-08-28T18:00	23137	36	-53.5	-86.6	195	4
2023-08-28T18:00	23165	35	-53.2	-86.4	200	4
2023-08-28T18:00	23187	35	-53.1	-86.3	202	3
2023-08-28T18:00	23220	35	-53.0	-86.3	202	3
2023-08-28T18:00	23251	35	-52.9	-86.2	200	3
2023-08-28T18:00	23271	35	-52.8	-86.1	198	3
2023-08-28T18:00	23302	35	-52.8	-86.1	198	3
2023-08-28T18:00	23322	35	-52.8	-86.1	199	4
2023-08-28T18:00	23349	34	-52.9	-86.2	203	4
2023-08-28T18:00	23379	34	-52.9	-86.2	209	4
2023-08-28T18:00	23399	34	-53.0	-86.3	216	4
2023-08-28T18:00	23440	34	-52.9	-86.2	223	4
2023-08-28T18:00	23466	34	-52.7	-86.0	230	3
2023-08-28T18:00	23494	34	-52.4	-85.8	237	3
2023-08-28T18:00	23514	34	-52.5	-85.9	244	2
2023-08-28T18:00	23542	33	-52.5	-85.9	249	2
2023-08-28T18:00	23569	33	-52.5	-85.9	250	2
2023-08-28T18:00	23599	33	-52.5	-85.9	250	2
2023-08-28T18:00	23631	33	-52.4	-85.8	250	2
2023-08-28T18:00	23653	33	-52.3	-85.8	252	2
2023-08-28T18:00	23675	33	-52.3	-85.8	256	2
2023-08-28T18:00	23707	33	-52.4	-85.8	262	2
2023-08-28T18:00	23739	32	-52.3	-85.8	270	2
2023-08-28T18:00	23759	32	-52.3	-85.8	279	2
2023-08-28T18:00	23788	32	-52.3	-85.8	288	2
2023-08-28T18:00	23805	32	-52.3	-85.8	294	2
2023-08-28T18:00	23836	32	-52.5	-85.9	300	2
2023-08-28T18:00	23861	32	-52.5	-85.9	308	2
2023-08-28T18:00	23891	32	-52.7	-85.3	318	2
2023-08-28T18:00	23916	31	-52.8	-85.3	330	2
2023-08-28T18:00	23947	31	-52.9	-85.4	341	2
2023-08-28T18:00	23968	31	-53.0	-85.5	348	2
2023-08-28T18:00	23994	31	-53.1	-85.6	352	2
2023-08-28T18:00	24024	31	-52.9	-85.4	353	2
2023-08-28T18:00	24046	31	-52.9	-85.4	355	2
2023-08-28T18:00	24071	31	-53.0	-85.5	359	3
2023-08-28T18:00	24093	31	-53.1	-85.6	4	3
2023-08-28T18:00	24126	31	-53.3	-85.7	10	3
2023-08-28T18:00	24148	30	-53.5	-85.9	15	3
2023-08-28T18:00	24171	30	-53.6		19	3
2023-08-28T18:00	24203	30	-53.5	-85.9	23	3
2023-08-28T18:00	24226	30	-53.5	-85.9	28	3
2023-08-28T18:00	24248	30	-53.2	-86.4	34	3
2023-08-28T18:00	24277	30	-52.7	-86.0	40	3
2023-08-28T18:00	24309	30	-52.6		47	4
2023-08-28T18:00	24328	30	-52.6		54	4
2023-08-28T18:00	24357	29	-52.3	-85.8	61	4
2023-08-28T18:00	24382	29	-52.3	-85.8	69	4
2023-08-28T18:00	24409	29	-52.3	-85.8	77	4
2023-08-28T18:00	24433	29	-52.2	-85.7	83	4
2023-08-28T18:00	24455	29	-52.2	-85.7	86	4
2023-08-28T18:00	24487	29	-51.9	-85.5	86	3
2023-08-28T18:00	24510	29	-51.8	-85.4	84	3
2023-08-28T18:00	24538	29	-51.6	-86.1	83	3
2023-08-28T18:00	24565	28	-51.5	-86.1	85	3
2023-08-28T18:00	24593	28	-51.1	-85.8	88	3
2023-08-28T18:00	24619	28	-51.0	-85.7	92	3
2023-08-28T18:00	24646	28	-50.9	-85.6	95	4
2023-08-28T18:00	24670	28	-50.9	-85.6	97	4
2023-08-28T18:00	24702	28	-50.6	-85.4	99	5
2023-08-28T18:00	24731	28	-50.7	-85.5	102	5
2023-08-28T18:00	24756	28	-50.8	-85.6	107	6
2023-08-28T18:00	24790	28	-50.9	-84.7	112	6
2023-08-28T18:00	24815	27	-51.0	-84.8	116	7
2023-08-28T18:00	24849	27	-51.1	-84.9	121	7
2023-08-28T18:00	24873	27	-51.1	-84.9	125	7
2023-08-28T18:00	24911	27	-51.1	-84.9	130	7
2023-08-28T18:00	24934	27	-51.2	-85.0	135	6
2023-08-28T18:00	24966	27	-51.0	-84.8	142	6
2023-08-28T18:00	24999	27	-51.2	-85.0	149	5
2023-08-28T18:00	25025	27	-51.3	-85.0	158	4
2023-08-28T18:00	25057	26	-51.3	-85.0	167	4
2023-08-28T18:00	25084	26	-51.5	-85.2	176	4
2023-08-28T18:00	25112	26	-51.6	-85.2	184	3
2023-08-28T18:00	25141	26	-51.7	-85.3	192	2
2023-08-28T18:00	25168	26	-51.7	-85.3	200	2
2023-08-28T18:00	25204	26	-51.7	-85.3	203	1
2023-08-28T18:00	25233	26	-51.8	-85.4	191	1
2023-08-28T18:00	25268	26	-51.9	-85.5	157	1
2023-08-28T18:00	25291	25	-51.9	-85.5	140	1
2023-08-28T18:00	25324	25	-51.6	-85.2	137	2
2023-08-28T18:00	25359	25	-51.6	-85.2	139	2
2023-08-28T18:00	25385	25	-51.7	-85.3	141	2
2023-08-28T18:00	25413	25	-51.7	-85.3	144	2
2023-08-28T18:00	25441	25	-51.7	-85.3	145	1
2023-08-28T18:00	25478	25	-51.6	-85.2	124	0
2023-08-28T18:00	25494	25	-51.5	-86.1	17	1
2023-08-28T18:00	25525	25	-51.4	-86.0	10	1
2023-08-28T18:00	25560	24	-51.4	-86.0	15	2
2023-08-28T18:00	25579	24	-51.1	-85.8	21	2
2023-08-28T18:00	25614	24	-50.9	-85.6	28	2
2023-08-28T18:00	25639	24	-51.0	-85.7	36	2
2023-08-28T18:00	25667	24	-51.0	-85.7	43	2
2023-08-28T18:00	25690	24	-51.1	-85.8	53	2
2023-08-28T18:00	25717	24	-51.1	-85.8	67	2
2023-08-28T18:00	25742	24	-51.2	-85.8	90	1
2023-08-28T18:00	25766	24	-51.2	-85.8	119	1
2023-08-28T18:00	25795	24	-51.2	-85.8	140	2
2023-08-28T18:00	25826	23	-51.1	-85.8	151	2
2023-08-28T18:00	25846	23	-50.9	-85.6	156	3
2023-08-28T18:00	25877	23	-50.9	-85.6	160	4
2023-08-28T18:00	25894	23	-50.9	-85.6	163	4
2023-08-28T18:00	25925	23	-50.8	-85.6	165	4
2023-08-28T18:00	25953	23	-50.7	-85.5	169	4
2023-08-28T18:00	25971	23	-50.9	-85.6	174	4
2023-08-28T18:00	25996	23	-51.0	-85.7	180	3
2023-08-28T18:00	26025	23	-50.7	-85.5	187	3
2023-08-28T18:00	26052	23	-50.1	-85.1	195	3
2023-08-28T18:00	26076	23	-49.8	-84.8	205	2
2023-08-28T18:00	26107	23	-49.9	-84.9	220	2
2023-08-28T18:00	26123	22	-49.8	-85.9	239	2
2023-08-28T18:00	26154	22	-49.6	-85.8	257	2
2023-08-28T18:00	26179	22	-49.6	-85.8	269	2
2023-08-28T18:00	26207	22	-49.2	-85.5	275	3
2023-08-28T18:00	26236	22	-48.8	-85.2	279	3
2023-08-28T18:00	26255	22	-48.1	-84.7	281	3
2023-08-28T18:00	26284	22	-47.6	-84.3	283	3
2023-08-28T18:00	26313	22	-47.4	-84.2	283	4
2023-08-28T18:00	26336	22	-47.3	-84.1	281	4
2023-08-28T18:00	26365	22	-47.3	-84.1	280	4
2023-08-28T18:00	26392	22	-47.1	-84.0	280	4
2023-08-28T18:00	26410	21	-47.0	-83.9	281	4
2023-08-28T18:00	26447	21	-47.1	-84.0	285	3
2023-08-28T18:00	26474	21	-47.1	-84.0	291	3
2023-08-28T18:00	26494	21	-47.0	-83.9	301	3
2023-08-28T18:00	26518	21	-47.1	-84.0	314	3
2023-08-28T18:00	26545	21	-47.0	-83.9	327	3
2023-08-28T18:00	26576	21	-46.9	-83.9	339	3
2023-08-28T18:00	26602	21	-47.0	-83.9	349	3
2023-08-28T18:00	26627	21	-47.0	-83.9	355	3
2023-08-28T18:00	26668	21	-47.0	-83.9	358	3
2023-08-28T18:00	26687	21	-47.1	-84.0	358	2
2023-08-28T18:00	26722	21	-47.0	-83.9	357	3
2023-08-28T18:00	26754	20	-46.9	-83.9	356	2
2023-08-28T18:00	26785	20	-46.9	-83.9	356	2
2023-08-28T18:00	26788	20	-46.9	-83.9	356	2
2023-08-28T18:00	26833	20	-46.9	-83.9	355	2
2023-08-28T18:00	26865	20	-46.9	-83.9	353	2
2023-08-28T18:00	26903	20	-46.8	-83.8	347	1
2023-08-28T18:00	26929	20	-46.7	-83.7	340	1
2023-08-28T18:00	26952	20	-46.7	-83.7	335	1
2023-08-28T18:00	26985	20	-46.7	-83.7	335	1
2023-08-28T18:00	27009	20	-46.6	-83.6	338	2
2023-08-28T18:00	27034	20	-46.5	-83.6	342	2
2023-08-28T18:00	27065	19	-46.4	-83.5	346	2
2023-08-28T18:00	27102	19	-46.2	-83.4	349	2
2023-08-28T18:00	27129	19	-45.9	-83.2	354	2
2023-08-28T18:00	27162	19	-45.7	-83.0	1	3
2023-08-28T18:00	27192	19	-45.6	-82.9	10	3
2023-08-28T18:00	27222	19	-45.6	-82.9	19	3
2023-08-28T18:00	27248	19	-45.6	-82.9	27	3
2023-08-28T18:00	27272	19	-45.6	-82.9	33	4
2023-08-28T18:00	27310	19	-45.7	-83.0	37	4
2023-08-28T18:00	27331	19	-45.7	-83.0	40	5
2023-08-28T18:00	27366	19	-45.6	-82.9	42	5
2023-08-28T18:00	27389	19	-45.3	-82.7	44	5
2023-08-28T18:00	27414	18	-45.3	-82.7	45	5
2023-08-28T18:00	27447	18	-45.3	-82.7	45	5
2023-08-28T18:00	27468	18	-45.3	-82.7	46	5
2023-08-28T18:00	27499	18	-45.2	-82.7	47	5
2023-08-28T18:00	27531	18	-45.1	-82.6	49	5
2023-08-28T18:00	27553	18	-45.0	-82.5	52	5
2023-08-28T18:00	27579	18	-45.1	-82.6	55	4
2023-08-28T18:00	27609	18	-45.2	-82.7	59	4
2023-08-28T18:00	27625	18	-45.2	-82.7	61	4
2023-08-28T18:00	27674	18	-45.3	-82.7	64	4
2023-08-28T18:00	27688	18	-45.3	-82.7	66	3
2023-08-28T18:00	27733	18	-45.1	-82.6	70	3
2023-08-28T18:00	27750	18	-45.1	-82.6	76	2
2023-08-28T18:00	27779	17	-45.1	-82.6	86	2
2023-08-28T18:00	27808	17	-44.9	-82.5	99	2
2023-08-28T18:00	27841	17	-44.7	-82.3	112	2
2023-08-28T18:00	27852	17	-44.7	-82.3	122	2
2023-08-28T18:00	27892	17	-44.7	-82.3	129	3
2023-08-28T18:00	27917	17	-44.6	-82.2	133	3
2023-08-28T18:00	27948	17	-44.4	-82.1	136	2
2023-08-28T18:00	27971	17	-44.6	-82.2	139	2
2023-08-28T18:00	27996	17	-44.4	-82.1	143	2
2023-08-28T18:00	28023	17	-44.3	-82.0	152	1
2023-08-28T18:00	28056	17	-44.2	-82.0	164	1
2023-08-28T18:00	28082	17	-44.0	-81.8	176	2
2023-08-28T18:00	28116	17	-43.8	-81.7	187	2
2023-08-28T18:00	28146	17	-43.7	-81.6	196	2
2023-08-28T18:00	28167	17	-43.8	-81.7	205	2
2023-08-28T18:00	28198	16	-43.7	-81.6	214	3
2023-08-28T18:00	28216	16	-43.7	-81.6	222	3
2023-08-28T18:00	28252	16	-43.4	-81.4	228	3
2023-08-28T18:00	28284	16	-43.4	-81.4	232	3
2023-08-28T18:00	28295	16	-43.5	-81.5	235	3
2023-08-28T18:00	28343	16	-43.6	-81.5	237	3
2023-08-28T18:00	28362	16	-43.5	-81.5	239	3
2023-08-28T18:00	28391	16	-43.5	-81.5	241	3
2023-08-28T18:00	28424	16	-43.3	-81.3	240	3
2023-08-28T18:00	28453	16	-43.3	-81.3	238	3
2023-08-28T18:00	28481	16	-43.2	-81.3	233	3
2023-08-28T18:00	28503	16	-43.0	-81.1	228	4
2023-08-28T18:00	28539	16	-42.7	-80.9	222	4
2023-08-28T18:00	28568	16	-42.5	-80.8	219	5
2023-08-28T18:00	28592	16	-42.4	-80.7	217	5
2023-08-28T18:00	28627	15	-42.4	-80.7	217	6
2023-08-28T18:00	28650	15	-42.5	-80.8	217	6
2023-08-28T18:00	28685	15	-42.7	-80.9	219	7
2023-08-28T18:00	28702	15	-42.7	-80.9	222	7
2023-08-28T18:00	28747	15	-42.8	-81.0	225	7
2023-08-28T18:00	28767	15	-42.9	-81.1	230	6
2023-08-28T18:00	28796	15	-42.4	-80.7	236	6
2023-08-28T18:00	28818	15	-42.3	-80.6	244	5
2023-08-28T18:00	28854	15	-42.1	-80.5	254	5
2023-08-28T18:00	28880	15	-42.1	-80.5	263	5
2023-08-28T18:00	28925	15	-42.1	-80.5	270	4
2023-08-28T18:00	28940	15	-42.1	-80.5	276	4
2023-08-28T18:00	28973	15	-41.9	-80.4	280	4
2023-08-28T18:00	29001	15	-41.8	-80.3	283	3
2023-08-28T18:00	29047	15	-41.7	-80.2	286	3
2023-08-28T18:00	29067	14	-41.8	-80.3	289	3
2023-08-28T18:00	29102	14	-41.8	-80.3	292	3
2023-08-28T18:00	29133	14	-41.5	-80.1	294	3
2023-08-28T18:00	29166	14	-41.5	-80.1	295	3
2023-08-28T18:00	29188	14	-41.6	-80.1	296	3
2023-08-28T18:00	29217	14	-41.6	-80.1	296	3
2023-08-28T18:00	29251	14	-41.7	-80.2	297	4
2023-08-28T18:00	29275	14	-42.0	-80.4	299	4
2023-08-28T18:00	29315	14	-42.2	-80.6	301	4
2023-08-28T18:00	29344	14	-42.1	-80.5	303	4
2023-08-28T18:00	29367	14	-42.1	-80.5	306	4
2023-08-28T18:00	29396	14	-42.0	-80.4	309	4
2023-08-28T18:00	29439	14	-41.8	-80.3	313	3
2023-08-28T18:00	29447	14	-41.7	-80.2	318	3
2023-08-28T18:00	29490	14	-41.7	-80.2	326	3
2023-08-28T18:00	29513	14	-41.6	-80.1	337	2
2023-08-28T18:00	29531	13	-41.5	-80.1	348	2
2023-08-28T18:00	29569	13	-41.6	-80.1	356	2
2023-08-28T18:00	29607	13	-41.7	-80.2	1	2
2023-08-28T18:00	29629	13	-41.4	-80.0	5	2
2023-08-28T18:00	29663	13	-41.3	-79.9	11	2
2023-08-28T18:00	29687	13	-41.3	-79.9	25	1
2023-08-28T18:00	29714	13	-41.1	-79.8	56	1
2023-08-28T18:00	29743	13	-40.9	-79.7	110	1
2023-08-28T18:00	29778	13	-40.9	-79.7	146	2
2023-08-28T18:00	29802	13	-40.8	-79.6	164	2
2023-08-28T18:00	29829	13	-40.9	-79.7	175	3
2023-08-28T18:00	29850	13	-40.9	-79.7	181	4
2023-08-28T18:00	29895	13	-41.0	-79.7	186	5
2023-08-28T18:00	29919	13	-41.1	-79.8	190	6
2023-08-28T18:00	29973	13	-41.2	-79.9	195	6
2023-08-28T18:00	29987	13	-41.2	-79.9	200	7
2023-08-28T18:00	30020	13	-41.1	-79.8	207	7
2023-08-28T18:00	30049	13	-41.1	-79.8	215	7
2023-08-28T18:00	30076	12	-41.0	-79.7	223	6
2023-08-28T18:00	30117	12	-40.8	-79.6	232	6
2023-08-28T18:00	30125	12	-40.4	-79.3	240	6
2023-08-28T18:00	30176	12	-40.1	-79.1	248	5
2023-08-28T18:00	30209	12	-40.0	-79.0	256	4
2023-08-28T18:00	30245	12	-39.8	-78.9	265	4
2023-08-28T18:00	30278	12	-39.8	-78.9	277	3
2023-08-28T18:00	30289	12	-39.8	-78.9	294	2
2023-08-28T18:00	30337	12	-39.9	-79.0	316	2
2023-08-28T18:00	30352	12	-40.0	-79.0	337	2
2023-08-28T18:00	30401	12	-40.2	-79.2	350	2
2023-08-28T18:00	30417	12	-40.3	-79.2	355	3
2023-08-28T18:00	30465	12	-40.1	-79.1	354	3
2023-08-28T18:00	30490	12	-39.7	-78.8	351	3
2023-08-28T18:00	30522	12	-39.5	-78.7	346	3
2023-08-28T18:00	30553	12	-39.4	-78.6	344	3
2023-08-28T18:00	30590	12	-39.5	-78.7	345	3
2023-08-28T18:00	30627	11	-39.4	-78.6	349	3
2023-08-28T18:00	30661	11	-39.3	-78.5	357	3
2023-08-28T18:00	30688	11	-39.3	-78.5	4	4
2023-08-28T18:00	30718	11	-39.0	-78.3	12	4
2023-08-28T18:00	30757	11	-39.0	-78.3	17	5
2023-08-28T18:00	30773	11	-39.0	-78.3	21	5
2023-08-28T18:00	30804	11	-39.0	-78.3	22	5
2023-08-28T18:00	30841	11	-38.9	-78.3	20	5
2023-08-28T18:00	30875	11	-38.6	-78.1	14	4
2023-08-28T18:00	30924	11	-38.3	-77.9	6	4
2023-08-28T18:00	30925	11	-38.4	-77.9	358	4
2023-08-28T18:00	30972	11	-38.5	-78.0	351	4
2023-08-28T18:00	30990	11	-38.6	-78.1	347	4
2023-08-28T18:00	30994	11	-38.6	-78.1	347	5
2023-08-28T18:00	31064	11	-38.6	-78.1	348	5
2023-08-28T18:00	31077	11	-38.6	-78.1	351	5
2023-08-28T18:00	31120	11	-38.6	-78.1	354	5
2023-08-28T18:00	31147	11	-38.5	-78.0	356	4
2023-08-28T18:00	31166	11	-38.6	-78.1	357	4
2023-08-28T18:00	31202	11	-38.3	-77.9	357	4
2023-08-28T18:00	31207	11	-38.0	-77.6	356	3
2023-08-28T18:00	31260	11	-37.9	-77.6	354	3
2023-08-28T18:00	31269	10	-37.8	-77.5	352	3
2023-08-28T18:00	31303	10	-37.7	-77.4	352	4
2023-08-28T18:00	31342	10	-37.7	-77.4	354	4
2023-08-28T18:00	31357	10	-37.8	-77.5	359	4
2023-08-28T18:00	31387	10	-37.7	-77.4	8	4
2023-08-28T18:00	31413	10	-37.6	-77.4	20	4
2023-08-28T18:00	31433	10	-37.6	-77.4	34	4
2023-08-28T18:00	31462	10	-37.6	-77.4	46	5
2023-08-28T18:00	31492	10	-37.5	-77.3	57	5
2023-08-28T18:00	31514	10	-37.5	-77.3	65	6
2023-08-28T18:00	31551	10	-37.6	-77.4	73	6
2023-08-28T18:00	31579	10	-37.4	-77.2	79	7
2023-08-28T18:00	31615	10	-37.2	-77.1	84	7
2023-08-28T18:00	31635	10	-37.1	-77.0	87	7
2023-08-28T18:00	31678	10	-37.2	-77.1	88	7
2023-08-28T18:00	31717	10	-37.4	-77.2	85	7
2023-08-28T18:00	31732	10	-37.3	-77.2	79	6
2023-08-28T18:00	31751	10	-37.0	-77.0	69	5
2023-08-28T18:00	31796	10	-36.9	-76.9	58	4
2023-08-28T18:00	31824	10	-36.9	-76.9	47	4
2023-08-28T18:00	31860	10	-36.9	-76.9	39	3
2023-08-28T18:00	31914	10	-36.8	-76.8	32	3
2023-08-28T18:00	31942	10	-36.6	-76.7	27	2
2023-08-28T18:00	31947	9	-36.7	-76.7	20	2
2023-08-28T18:00	31975	9	-36.9	-76.9	12	1
2023-08-28T18:00	32029	9	-37.0	-77.0	10	1
2023-08-28T18:00	32055	9	-37.2	-77.1	21	1
2023-08-28T18:00	32081	9	-37.2	-77.1	36	2
2023-08-28T18:00	32133	9	-37.2	-77.1	49	3
2023-08-28T18:00	32141	9	-37.4	-77.2	59	4
2023-08-28T18:00	32201	9	-37.5	-77.3	69	4
2023-08-28T18:00	32214	9	-37.4	-77.2	77	5
2023-08-28T18:00	32250	9	-37.3	-77.2	84	6
2023-08-28T18:00	32259	9	-37.3	-77.2	91	6
2023-08-28T18:00	32305	9	-37.2	-77.1	98	7
2023-08-28T18:00	32335	9	-37.1	-77.0	104	7
2023-08-28T18:00	32362	9	-37.2	-77.1	110	6
2023-08-28T18:00	32397	9	-37.3	-77.2	116	6
2023-08-28T18:00	32450	9	-37.3	-77.2	122	5
2023-08-28T18:00	32474	9	-37.3	-77.2	126	5
2023-08-28T18:00	32509	9	-37.4	-77.2	129	4
2023-08-28T18:00	32567	9	-37.2	-77.1	130	3
2023-08-28T18:00	32585	9	-37.1	-77.0	129	2
2023-08-28T18:00	32597	9	-37.0	-77.0	122	2
2023-08-28T18:00	32635	9	-36.9	-76.9	110	2
2023-08-28T18:00	32660	9	-36.7	-76.7	96	2
2023-08-28T18:00	32727	9	-36.6	-76.7	88	2
2023-08-28T18:00	32736	8	-36.5	-76.6	86	3
2023-08-28T18:00	32780	8	-36.3	-76.5	86	3
2023-08-28T18:00	32820	8	-35.7	-76.1	87	4
2023-08-28T18:00	32851	8	-35.6	-76.0	88	4
2023-08-28T18:00	32863	8	-35.5	-75.9	90	5
2023-08-28T18:00	32908	8	-35.6	-76.0	91	4
2023-08-28T18:00	32939	8	-35.6	-76.0	93	4
2023-08-28T18:00	32966	8	-35.8	-76.1	97	4
2023-08-28T18:00	32996	8	-35.8	-76.1	102	3
2023-08-28T18:00	33008	8	-35.9	-76.2	109	3
2023-08-28T18:00	33067	8	-36.0	-76.3	119	2
2023-08-28T18:00	33102	8	-36.3	-76.5	130	2
2023-08-28T18:00	33107	8	-36.5	-76.6	140	2
2023-08-28T18:00	33142	8	-36.6	-76.7	150	2
2023-08-28T18:00	33171	8	-36.8	-76.8	160	2
2023-08-28T18:00	33206	8	-36.9	-76.9	171	1
2023-08-28T18:00	33234	8	-36.9	-76.9	197	0
2023-08-28T18:00	33269	8	-36.7	-76.7	318	1
2023-08-28T18:00	33294	8	-36.3	-76.5	338	1
2023-08-28T18:00	33307	8	-36.2	-76.4	344	2
2023-08-28T18:00	33349	8	-36.1	-76.3	347	3
2023-08-28T18:00	33389	8	-36.1	-76.3	348	4
2023-08-28T18:00	33404	8	-36.2	-76.4	349	5
2023-08-28T18:00	33440	8	-36.2	-76.4	351	5
2023-08-28T18:00	33448	8	-36.2	-76.4	354	5
2023-08-28T18:00	33517	8	-36.0	-76.3	358	5
2023-08-28T18:00	33523	8	-35.9	-76.2	4	5
2023-08-28T18:00	33585	8	-36.0	-76.3	11	6
2023-08-28T18:00	33611	7	-35.7	-76.1	20	6
2023-08-28T18:00	33627	7	-35.7	-76.1	22	6
2023-08-28T18:00	33675	7	-35.8	-76.1	24	6
2023-08-28T18:00	33709	7	-35.6	-76.0	27	6
2023-08-28T18:00	33721	7	-35.6	-76.0	30	7
2023-08-28T18:00	33751	7	-35.5	-75.9	33	7
2023-08-28T18:00	33771	7	-35.2	-75.7	37	7
2023-08-28T18:00	33824	7	-35.2	-75.7	40	7
2023-08-28T18:00	33849	7	-35.2	-75.7	45	7
2023-08-28T18:00	33883	7	-35.3	-75.8	49	7
2023-08-28T18:00	33913	7	-35.2	-75.7	55	7
2023-08-28T18:00	33943	7	-35.1	-75.6	61	6
2023-08-28T18:00	33964	7	-34.6	-75.3	70	5
2023-08-28T18:00	33991	7	-34.6	-75.3	81	5
2023-08-28T18:00	34049	7	-35.0	-75.6	109	5
2023-08-28T18:00	34067	7	-35.1	-75.6	122	5
2023-08-28T18:00	34102	7	-35.2	-75.7	132	5
2023-08-28T18:00	34148	7	-35.3	-75.8	138	5
2023-08-28T18:00	34165	7	-35.3	-75.8	138	5
2023-08-28T18:00	34183	7	-35.3	-75.8	135	4
2023-08-28T18:00	34214	7	-35.3	-75.8	125	4
2023-08-28T18:00	34253	7	-35.1	-75.6	110	3
2023-08-28T18:00	34277	7	-35.1	-75.6	94	3
2023-08-28T18:00	34323	7	-34.9	-75.5	83	3
2023-08-29T00:00	112	998	14.6	13.5	140	2
2023-08-29T00:00	137	995	13.8	13.6	253	1
2023-08-29T00:00	163	992	13.9	13.1	241	1
2023-08-29T00:00	194	988	14.2	12.5	244	1
2023-08-29T00:00	224	985	14.3	12.0	307	0
2023-08-29T00:00	248	982	14.2	11.6	7	1
2023-08-29T00:00	276	979	14.5	11.3	16	1
2023-08-29T00:00	296	976	14.5	11.0	19	2
2023-08-29T00:00	319	973	14.7	10.7	22	2
2023-08-29T00:00	343	971	14.6	10.5	25	3
2023-08-29T00:00	372	968	14.4	10.4	29	3
2023-08-29T00:00	395	965	14.3	10.5	32	3
2023-08-29T00:00	420	962	14.1	10.2	34	3
2023-08-29T00:00	447	959	13.9	10.2	34	3
2023-08-29T00:00	470	957	13.7	9.9	32	3
2023-08-29T00:00	487	954	13.5	9.9	29	3
2023-08-29T00:00	511	952	13.4	9.9	28	3
2023-08-29T00:00	541	948	13.1	9.7	29	4
2023-08-29T00:00	565	946	12.9	9.8	31	4
2023-08-29T00:00	588	943	12.7	9.6	33	5
2023-08-29T00:00	614	940	12.6	9.5	35	5
2023-08-29T00:00	635	938	12.4	9.4	36	6
2023-08-29T00:00	663	935	12.3	9.2	36	6
2023-08-29T00:00	690	932	12.1	8.9	36	7
2023-08-29T00:00	715	929	12.0	9.0	35	7
2023-08-29T00:00	742	926	11.8	9.0	34	7
2023-08-29T00:00	768	923	11.5	8.8	33	7
2023-08-29T00:00	793	920	11.3	8.7	32	7
2023-08-29T00:00	816	918	11.1	8.8	30	7
2023-08-29T00:00	844	915	10.9	8.7	29	7
2023-08-29T00:00	869	912	10.7	8.5	29	7
2023-08-29T00:00	892	909	10.5	8.5	30	7
2023-08-29T00:00	918	907	10.3	8.3	31	7
2023-08-29T00:00	946	904	10.1	8.3	33	7
2023-08-29T00:00	972	901	9.9	8.2	35	7
2023-08-29T00:00	1000	898	9.6	8.1	36	7
2023-08-29T00:00	1021	895	9.5	8.1	37	8
2023-08-29T00:00	1041	893	9.4	7.8	38	8
2023-08-29T00:00	1062	891	9.2	7.6	38	8
2023-08-29T00:00	1085	888	9.0	7.4	39	8
2023-08-29T00:00	1110	886	8.8	7.2	40	8
2023-08-29T00:00	1131	884	8.7	6.8	41	8
2023-08-29T00:00	1153	881	8.5	6.8	42	8
2023-08-29T00:00	1172	879	8.3	6.7	42	8
2023-08-29T00:00	1192	877	8.2	6.6	41	8
2023-08-29T00:00	1216	875	7.9	6.4	40	8
2023-08-29T00:00	1240	872	7.7	6.4	39	8
2023-08-29T00:00	1266	869	7.5	6.4	38	7
2023-08-29T00:00	1288	867	7.3	5.8	37	8
2023-08-29T00:00	1311	865	7.3	5.5	36	8
2023-08-29T00:00	1332	862	7.1	5.2	35	8
2023-08-29T00:00	1351	860	7.0	4.9	35	8
2023-08-29T00:00	1375	858	6.9	4.9	37	9
2023-08-29T00:00	1399	856	6.8	4.1	39	8
2023-08-29T00:00	1419	853	6.7	4.2	42	8
2023-08-29T00:00	1443	851	6.5	4.1	44	8
2023-08-29T00:00	1470	848	6.3	4.5	45	8
2023-08-29T00:00	1494	846	6.2	4.1	45	8
2023-08-29T00:00	1517	843	6.1	4.4	44	8
2023-08-29T00:00	1544	841	6.0	3.7	43	8
2023-08-29T00:00	1565	838	6.0	3.8	43	9
2023-08-29T00:00	1585	836	6.0	3.5	42	9
2023-08-29T00:00	1610	834	5.9	3.5	41	9
2023-08-29T00:00	1638	831	5.7	3.5	41	9
2023-08-29T00:00	1662	828	5.6	3.3	42	9
2023-08-29T00:00	1688	826	5.3	2.9	43	9
2023-08-29T00:00	1709	824	5.2	3.0	46	9
2023-08-29T00:00	1733	821	5.0	2.8	48	9
2023-08-29T00:00	1754	819	4.8	2.6	49	9
2023-08-29T00:00	1772	817	4.7	2.4	49	8
2023-08-29T00:00	1800	814	4.5	2.1	47	8
2023-08-29T00:00	1833	811	4.5	1.1	44	7
2023-08-29T00:00	1851	809	4.6	0.3	40	7
2023-08-29T00:00	1876	807	4.7	-1.1	34	6
2023-08-29T00:00	1907	804	4.9	-2.0	29	6
2023-08-29T00:00	1935	801	4.7	-2.3	26	6
2023-08-29T00:00	1956	799	4.6	-2.1	26	5
2023-08-29T00:00	1982	797	4.4	-1.9	29	5
2023-08-29T00:00	2004	794	4.2	-1.9	34	5
2023-08-29T00:00	2023	793	4.0	-2.0	38	4
2023-08-29T00:00	2047	790	3.8	-2.0	38	4
2023-08-29T00:00	2071	788	3.7	-1.7	35	4
2023-08-29T00:00	2096	785	3.7	-1.9	30	5
2023-08-29T00:00	2120	783	3.8	-2.4	27	5
2023-08-29T00:00	2149	781	4.0	-3.3	26	6
2023-08-29T00:00	2173	778	4.1	-4.5	28	6
2023-08-29T00:00	2198	776	4.2	-5.3	31	6
2023-08-29T00:00	2222	773	4.2	-5.3	35	5
2023-08-29T00:00	2248	771	3.9	-5.4	40	5
2023-08-29T00:00	2273	769	3.7	-5.3	43	5
2023-08-29T00:00	2295	767	3.5	-5.3	44	5
2023-08-29T00:00	2315	765	3.4	-5.4	40	4
2023-08-29T00:00	2333	763	3.2	-5.4	34	4
2023-08-29T00:00	2360	760	3.0	-5.5	28	5
2023-08-29T00:00	2383	758	3.0	-6.3	25	5
2023-08-29T00:00	2405	756	3.0	-6.9	26	5
2023-08-29T00:00	2431	754	3.0	-7.8	32	5
2023-08-29T00:00	2466	751	2.8	-6.5	39	5
2023-08-29T00:00	2489	748	2.8	-4.7	44	5
2023-08-29T00:00	2508	747	2.6	-4.4	47	5
2023-08-29T00:00	2528	745	2.5	-3.9	49	5
2023-08-29T00:00	2544	743	2.4	-2.7	52	4
2023-08-29T00:00	2564	741	2.2	-1.9	61	3
2023-08-29T00:00	2587	739	2.0	-1.7	74	3
2023-08-29T00:00	2609	737	1.9	-0.9	84	3
2023-08-29T00:00	2629	736	1.7	-0.2	88	2
2023-08-29T00:00	2650	734	1.5	0.3	89	2
2023-08-29T00:00	2671	732	1.3	0.5	101	2
2023-08-29T00:00	2688	730	1.2	0.6	135	2
2023-08-29T00:00	2710	728	1.0	0.9	157	2
2023-08-29T00:00	2734	726	1.2	1.2	162	4
2023-08-29T00:00	2752	724	1.5	1.5	161	5
2023-08-29T00:00	2771	723	1.4	1.4	160	5
2023-08-29T00:00	2795	721	1.7	1.7	159	6
2023-08-29T00:00	2819	718	1.9	1.9	158	5
2023-08-29T00:00	2840	717	1.9	1.9	157	5
2023-08-29T00:00	2860	715	1.7	1.7	156	5
2023-08-29T00:00	2880	713	1.7	1.7	153	5
2023-08-29T00:00	2908	711	1.6	1.6	150	5
2023-08-29T00:00	2933	708	1.5	1.5	149	5
2023-08-29T00:00	2952	707	1.5	1.5	151	5
2023-08-29T00:00	2974	705	1.5	1.5	155	4
2023-08-29T00:00	2997	703	1.4	1.4	161	4
2023-08-29T00:00	3019	701	1.3	1.3	167	4
2023-08-29T00:00	3040	699	1.2	1.2	173	4
2023-08-29T00:00	3058	697	1.1	1.1	176	4
2023-08-29T00:00	3081	695	1.0	1.0	177	4
2023-08-29T00:00	3102	694	0.9	0.9	174	4
2023-08-29T00:00	3124	692	0.7	0.7	170	4
2023-08-29T00:00	3157	689	0.5	0.5	166	4
2023-08-29T00:00	3181	687	0.4	0.4	166	4
2023-08-29T00:00	3213	684	0.2	0.2	169	4
2023-08-29T00:00	3231	682	0.1	0.1	175	4
2023-08-29T00:00	3258	680	-0.1	-0.1	179	3
2023-08-29T00:00	3278	679	-0.2	-0.2	179	3
2023-08-29T00:00	3299	677	-0.3	-0.3	172	3
2023-08-29T00:00	3322	675	-0.4	-0.4	157	2
2023-08-29T00:00	3344	673	-0.5	-0.5	138	2
2023-08-29T00:00	3360	672	-0.5	-0.5	123	2
2023-08-29T00:00	3378	670	-0.5	-0.5	117	2
2023-08-29T00:00	3395	669	-0.6	-0.6	118	3
2023-08-29T00:00	3419	667	-0.6	-0.6	119	3
2023-08-29T00:00	3442	665	-0.6	-0.8	116	3
2023-08-29T00:00	3461	663	-0.6	-1.0	108	3
2023-08-29T00:00	3486	661	-0.7	-1.2	99	4
2023-08-29T00:00	3506	660	-0.8	-1.4	91	4
2023-08-29T00:00	3522	658	-0.7	-1.6	87	4
2023-08-29T00:00	3544	656	-0.7	-1.6	87	3
2023-08-29T00:00	3575	654	-0.8	-1.8	93	3
2023-08-29T00:00	3603	652	-0.8	-1.7	109	2
2023-08-29T00:00	3625	650	-0.9	-1.9	138	2
2023-08-29T00:00	3643	648	-0.9	-1.9	169	2
2023-08-29T00:00	3662	647	-1.0	-2.1	191	3
2023-08-29T00:00	3682	645	-1.1	-2.3	205	3
2023-08-29T00:00	3701	644	-1.1	-2.4	215	4
2023-08-29T00:00	3722	642	-1.1	-2.7	222	4
2023-08-29T00:00	3741	640	-1.1	-3.0	225	4
2023-08-29T00:00	3761	639	-1.0	-3.1	224	4
2023-08-29T00:00	3778	637	-0.8	-3.1	220	4
2023-08-29T00:00	3803	636	-0.7	-4.0	215	4
2023-08-29T00:00	3823	634	-0.4	-4.2	212	4
2023-08-29T00:00	3838	633	0.0	-2.8	211	4
2023-08-29T00:00	3857	631	-0.1	-2.8	211	4
2023-08-29T00:00	3875	630	-0.3	-2.8	212	4
2023-08-29T00:00	3898	628	-0.4	-2.8	214	4
2023-08-29T00:00	3924	626	-0.7	-3.0	217	4
2023-08-29T00:00	3943	624	-0.8	-2.9	221	4
2023-08-29T00:00	3965	623	-0.9	-3.1	225	4
2023-08-29T00:00	3987	621	-1.1	-3.2	227	5
2023-08-29T00:00	4019	619	-1.3	-3.5	227	5
2023-08-29T00:00	4040	617	-1.5	-3.5	226	6
2023-08-29T00:00	4061	615	-1.6	-3.7	224	6
2023-08-29T00:00	4082	614	-1.8	-3.7	222	6
2023-08-29T00:00	4102	612	-1.9	-3.9	219	6
2023-08-29T00:00	4127	610	-2.0	-4.0	217	6
2023-08-29T00:00	4153	608	-2.1	-4.0	214	6
2023-08-29T00:00	4182	606	-2.4	-4.2	212	6
2023-08-29T00:00	4204	604	-2.5	-4.2	210	6
2023-08-29T00:00	4222	603	-2.7	-4.3	209	6
2023-08-29T00:00	4246	601	-2.9	-4.4	210	6
2023-08-29T00:00	4268	599	-3.1	-4.5	212	6
2023-08-29T00:00	4298	597	-3.3	-4.5	214	6
2023-08-29T00:00	4326	595	-3.6	-4.7	215	7
2023-08-29T00:00	4348	593	-3.7	-4.6	218	7
2023-08-29T00:00	4366	592	-3.9	-4.8	221	7
2023-08-29T00:00	4389	590	-4.1	-4.9	226	6
2023-08-29T00:00	4410	589	-4.2	-4.9	231	6
2023-08-29T00:00	4429	587	-4.4	-5.0	233	6
2023-08-29T00:00	4451	586	-4.6	-5.1	232	7
2023-08-29T00:00	4478	584	-4.8	-5.2	227	7
2023-08-29T00:00	4504	582	-4.9	-5.4	221	8
2023-08-29T00:00	4526	580	-5.1	-5.4	216	8
2023-08-29T00:00	4550	578	-5.2	-5.5	211	8
2023-08-29T00:00	4574	577	-5.4	-5.6	206	8
2023-08-29T00:00	4598	575	-5.5	-5.7	203	8
2023-08-29T00:00	4626	573	-5.7	-5.8	201	8
2023-08-29T00:00	4648	571	-5.9	-5.9	199	8
2023-08-29T00:00	4667	570	-5.9	-5.9	197	9
2023-08-29T00:00	4692	568	-6.0	-6.0	195	9
2023-08-29T00:00	4715	566	-6.1	-6.2	193	10
2023-08-29T00:00	4736	565	-6.2	-6.2	192	11
2023-08-29T00:00	4762	563	-6.4	-6.4	193	11
2023-08-29T00:00	4794	561	-6.5	-6.6	195	11
2023-08-29T00:00	4824	559	-6.7	-6.7	199	11
2023-08-29T00:00	4847	557	-6.8	-6.8	203	11
2023-08-29T00:00	4871	555	-6.9	-6.9	206	11
2023-08-29T00:00	4898	553	-7.0	-7.1	208	11
2023-08-29T00:00	4923	552	-7.1	-7.2	209	10
2023-08-29T00:00	4947	550	-7.3	-7.4	209	10
2023-08-29T00:00	4975	548	-7.1	-7.3	207	10
2023-08-29T00:00	5002	546	-7.2	-7.4	203	9
2023-08-29T00:00	5030	544	-7.3	-7.6	199	9
2023-08-29T00:00	5059	542	-7.5	-7.9	195	10
2023-08-29T00:00	5084	540	-7.6	-7.9	192	10
2023-08-29T00:00	5106	539	-7.6	-8.0	190	10
2023-08-29T00:00	5126	537	-7.8	-8.2	190	11
2023-08-29T00:00	5147	536	-7.9	-8.3	191	11
2023-08-29T00:00	5175	534	-7.9	-8.4	191	12
2023-08-29T00:00	5196	533	-8.0	-8.6	192	12
2023-08-29T00:00	5215	531	-8.1	-8.8	193	13
2023-08-29T00:00	5240	530	-8.2	-8.8	193	14
2023-08-29T00:00	5263	528	-8.3	-9.0	193	14
2023-08-29T00:00	5292	526	-8.5	-9.3	193	15
2023-08-29T00:00	5316	524	-8.7	-9.4	192	15
2023-08-29T00:00	5342	523	-8.8	-9.4	192	15
2023-08-29T00:00	5363	521	-8.9	-9.5	191	15
2023-08-29T00:00	5390	519	-9.1	-9.7	191	15
2023-08-29T00:00	5417	518	-9.2	-9.7	190	15
2023-08-29T00:00	5441	516	-9.4	-9.9	189	15
2023-08-29T00:00	5467	514	-9.6	-10.2	188	15
2023-08-29T00:00	5491	513	-9.7	-10.4	188	16
2023-08-29T00:00	5515	511	-9.8	-10.5	187	17
2023-08-29T00:00	5542	509	-9.9	-10.5	187	17
2023-08-29T00:00	5567	508	-9.9	-10.6	187	18
2023-08-29T00:00	5593	506	-10.0	-10.7	187	19
2023-08-29T00:00	5619	504	-10.2	-10.7	186	20
2023-08-29T00:00	5645	503	-10.3	-10.8	186	20
2023-08-29T00:00	5671	501	-10.4	-10.9	186	21
2023-08-29T00:00	5696	499	-10.5	-10.9	186	21
2023-08-29T00:00	5721	498	-10.7	-11.1	185	21
2023-08-29T00:00	5745	496	-10.8	-11.3	185	21
2023-08-29T00:00	5771	494	-11.0	-11.5	185	21
2023-08-29T00:00	5799	493	-11.2	-12.0	185	20
2023-08-29T00:00	5825	491	-11.3	-12.0	185	20
2023-08-29T00:00	5851	489	-11.5	-12.2	186	19
2023-08-29T00:00	5878	487	-11.7	-12.9	188	20
2023-08-29T00:00	5907	486	-12.0	-13.4	188	20
2023-08-29T00:00	5933	484	-12.1	-13.4	189	20
2023-08-29T00:00	5957	483	-12.3	-13.7	189	20
2023-08-29T00:00	5985	481	-12.4	-13.8	189	20
2023-08-29T00:00	6015	479	-12.6	-14.0	190	20
2023-08-29T00:00	6042	477	-12.8		190	20
2023-08-29T00:00	6065	476	-12.9	-14.2	190	21
2023-08-29T00:00	6091	474	-13.1	-14.4	189	21
2023-08-29T00:00	6111	473	-13.2	-14.3	189	22
2023-08-29T00:00	6134	472	-13.3	-14.6	189	22
2023-08-29T00:00	6156	470	-13.5	-14.8	190	22
2023-08-29T00:00	6179	469	-13.6	-14.9	190	22
2023-08-29T00:00	6206	467	-13.6	-15.1	190	22
2023-08-29T00:00	6230	466	-13.8	-15.3	190	22
2023-08-29T00:00	6256	464	-14.0	-15.5	189	22
2023-08-29T00:00	6282	462	-14.2	-15.6	189	22
2023-08-29T00:00	6310	461	-14.4	-15.7	189	22
2023-08-29T00:00	6333	459	-14.6	-15.8	189	22
2023-08-29T00:00	6357	458	-14.7	-15.9	189	22
2023-08-29T00:00	6381	456	-14.9	-16.0	190	22
2023-08-29T00:00	6405	455	-15.1	-16.3	190	22
2023-08-29T00:00	6431	453	-15.2	-16.3	191	22
2023-08-29T00:00	6455	452	-15.4	-16.5	192	22
2023-08-29T00:00	6480	450	-15.6	-16.7	193	22
2023-08-29T00:00	6506	449	-15.7	-16.9	193	21
2023-08-29T00:00	6536	447	-15.8	-17.3	193	21
2023-08-29T00:00	6560	446	-16.0	-17.4	193	22
2023-08-29T00:00	6584	444	-16.1	-17.6	193	22
2023-08-29T00:00	6609	443	-16.3	-17.7	192	22
2023-08-29T00:00	6640	441	-16.5	-17.9	192	23
2023-08-29T00:00	6672	439	-16.8	-18.2	192	23
2023-08-29T00:00	6697	438	-16.9	-18.2	192	23
2023-08-29T00:00	6724	436	-17.1	-18.4	192	23
2023-08-29T00:00	6750	435	-17.3	-18.7	192	23
2023-08-29T00:00	6771	433	-17.4	-18.5	192	23
2023-08-29T00:00	6800	432	-17.5	-18.6	191	23
2023-08-29T00:00	6829	430	-17.7		191	24
2023-08-29T00:00	6857	428	-17.9	-19.0	191	24
2023-08-29T00:00	6888	427	-18.1	-19.2	191	24
2023-08-29T00:00	6919	425	-18.3	-19.3	191	24
2023-08-29T00:00	6946	423	-18.5	-19.6	190	24
2023-08-29T00:00	6974	422	-18.7	-19.7	190	24
2023-08-29T00:00	7001	420	-18.9	-19.9	190	25
2023-08-29T00:00	7027	419	-19.1	-20.2	190	25
2023-08-29T00:00	7054	417	-19.3	-20.4	189	24
2023-08-29T00:00	7081	416	-19.5	-20.6	189	24
2023-08-29T00:00	7108	414	-19.7	-20.9	189	24
2023-08-29T00:00	7136	413	-19.9	-21.1	188	24
2023-08-29T00:00	7169	411	-20.2	-21.5	188	24
2023-08-29T00:00	7194	410	-20.4	-21.8	188	24
2023-08-29T00:00	7216	408	-20.6	-22.0	188	25
2023-08-29T00:00	7243	407	-20.7	-22.2	189	25
2023-08-29T00:00	7269	405	-20.9	-22.3	190	25
2023-08-29T00:00	7295	404	-21.0	-22.3	190	25
2023-08-29T00:00	7321	403	-21.2	-22.5	191	25
2023-08-29T00:00	7343	401	-21.4	-22.6	191	25
2023-08-29T00:00	7370	400	-21.6	-22.7	192	25
2023-08-29T00:00	7396	398	-21.8	-23.0	192	25
2023-08-29T00:00	7422	397	-22.0	-23.1	192	25
2023-08-29T00:00	7447	396	-22.2	-23.2	191	25
2023-08-29T00:00	7475	394	-22.4	-23.6	191	25
2023-08-29T00:00	7505	393	-22.6	-23.7	190	25
2023-08-29T00:00	7536	391	-22.8	-24.0	190	25
2023-08-29T00:00	7564	389	-23.0	-24.2	190	24
2023-08-29T00:00	7597	388	-23.3	-24.5	190	24
2023-08-29T00:00	7630	386	-23.5	-24.8	190	24
2023-08-29T00:00	7658	384	-23.7	-25.0	190	25
2023-08-29T00:00	7690	383	-23.9	-25.1	191	25
2023-08-29T00:00	7717	381	-24.2	-25.5	191	25
2023-08-29T00:00	7739	380	-24.3	-25.6	192	25
2023-08-29T00:00	7772	378	-24.6	-26.0	191	25
2023-08-29T00:00	7810	377	-24.9	-26.3	191	25
2023-08-29T00:00	7841	375	-25.1	-26.4	190	25
2023-08-29T00:00	7863	374	-25.2	-26.5	190	24
2023-08-29T00:00	7888	372	-25.4	-26.7	189	24
2023-08-29T00:00	7917	371	-25.6	-26.9	188	25
2023-08-29T00:00	7951	369	-25.9	-27.3	187	25
2023-08-29T00:00	7985	368	-26.1	-27.5	187	25
2023-08-29T00:00	8009	366	-26.3	-27.6	188	25
2023-08-29T00:00	8034	365	-26.5	-27.9	189	24
2023-08-29T00:00	8075	363	-26.8	-28.1	191	24
2023-08-29T00:00	8107	361	-27.1	-28.7	193	24
2023-08-29T00:00	8135	360	-27.3	-28.8	193	24
2023-08-29T00:00	8157	359	-27.5	-28.9	193	24
2023-08-29T00:00	8179	358	-27.7	-29.1	192	24
2023-08-29T00:00	8208	356	-27.9	-29.4	191	25
2023-08-29T00:00	8244	355	-28.2	-29.9	190	25
2023-08-29T00:00	8266	353	-28.4	-30.0	190	25
2023-08-29T00:00	8293	352	-28.6	-30.2	189	24
2023-08-29T00:00	8330	350	-28.8	-30.3	189	24
2023-08-29T00:00	8361	349	-29.1	-30.7	189	24
2023-08-29T00:00	8387	348	-29.3	-31.0	189	24
2023-08-29T00:00	8411	346	-29.5	-31.1	189	25
2023-08-29T00:00	8439	345	-29.7	-31.4	188	25
2023-08-29T00:00	8464	344	-29.9	-31.8	188	25
2023-08-29T00:00	8491	343	-30.1	-32.1	188	26
2023-08-29T00:00	8521	341	-30.3	-32.4	188	26
2023-08-29T00:00	8552	340	-30.5	-32.7	189	26
2023-08-29T00:00	8583	338	-30.7	-32.8	189	27
2023-08-29T00:00	8609	337	-30.9	-32.9	189	27
2023-08-29T00:00	8638	336	-31.2	-33.1	189	27
2023-08-29T00:00	8668	334	-31.4	-33.1	189	27
2023-08-29T00:00	8697	333	-31.6	-33.3	189	27
2023-08-29T00:00	8726	331	-31.9	-33.5	188	27
2023-08-29T00:00	8752	330	-32.1	-33.6	187	27
2023-08-29T00:00	8777	329	-32.3	-33.9	187	27
2023-08-29T00:00	8807	328	-32.5	-34.3	186	26
2023-08-29T00:00	8841	326	-32.8	-34.8	186	26
2023-08-29T00:00	8871	325	-33.0	-34.9	186	27
2023-08-29T00:00	8902	323	-33.3	-35.3	187	27
2023-08-29T00:00	8926	322	-33.5	-35.5	188	27
2023-08-29T00:00	8954	321	-33.7	-35.9	188	27
2023-08-29T00:00	8982	320	-33.9	-36.2	189	27
2023-08-29T00:00	9011	318	-34.2	-36.5	189	28
2023-08-29T00:00	9042	317	-34.4	-36.5	189	28
2023-08-29T00:00	9071	316	-34.7	-36.9	189	28
2023-08-29T00:00	9094	314	-34.9	-36.9	189	28
2023-08-29T00:00	9119	313	-35.1	-37.2	189	28
2023-08-29T00:00	9139	312	-35.3	-37.3	189	28
2023-08-29T00:00	9165	311	-35.5	-37.6	189	29
2023-08-29T00:00	9194	310	-35.7	-38.3	190	29
2023-08-29T00:00	9222	309	-35.9	-38.7	190	29
2023-08-29T00:00	9245	308	-36.1	-38.7	190	30
2023-08-29T00:00	9269	307	-36.2	-38.8	190	30
2023-08-29T00:00	9292	306	-36.3	-39.8	190	30
2023-08-29T00:00	9318	304	-36.6	-39.8	190	30
2023-08-29T00:00	9348	303	-36.8	-40.0	190	30
2023-08-29T00:00	9372	302	-37.1	-40.3	190	30
2023-08-29T00:00	9400	301	-37.3	-40.3	190	30
2023-08-29T00:00	9430	300	-37.6	-41.0	189	31
2023-08-29T00:00	9446	299	-37.7	-40.8	189	31
2023-08-29T00:00	9463	298	-37.9	-40.8	189	31
2023-08-29T00:00	9485	297	-38.0	-40.6	188	32
2023-08-29T00:00	9503	296	-38.1	-40.3	188	32
2023-08-29T00:00	9521	296	-38.2	-40.2	188	32
2023-08-29T00:00	9540	295	-38.4	-40.3	188	32
2023-08-29T00:00	9559	294	-38.5	-40.1	188	32
2023-08-29T00:00	9576	293	-38.7	-40.5	188	31
2023-08-29T00:00	9596	292	-38.9	-41.0	188	31
2023-08-29T00:00	9616	292	-39.0	-41.3	188	31
2023-08-29T00:00	9634	291	-39.2	-41.9	188	31
2023-08-29T00:00	9651	290	-39.4	-42.3	188	31
2023-08-29T00:00	9670	289	-39.6	-42.6	188	31
2023-08-29T00:00	9691	288	-39.7	-42.4	188	31
2023-08-29T00:00	9711	288	-39.9	-42.2	188	31
2023-08-29T00:00	9731	287	-39.9	-41.9	189	31
2023-08-29T00:00	9751	286	-40.0	-42.2	189	32
2023-08-29T00:00	9772	285	-40.2	-42.8	189	32
2023-08-29T00:00	9791	284	-40.4	-43.0	189	32
2023-08-29T00:00	9810	283	-40.5	-43.3	189	32
2023-08-29T00:00	9829	283	-40.7	-43.9	189	32
2023-08-29T00:00	9849	282	-40.8	-44.0	189	32
2023-08-29T00:00	9870	281	-41.0	-44.2	189	32
2023-08-29T00:00	9891	280	-41.2	-44.5	190	32
2023-08-29T00:00	9911	279	-41.4	-44.9	190	33
2023-08-29T00:00	9932	278	-41.5	-45.1	190	33
2023-08-29T00:00	9951	278	-41.7	-45.5	190	33
2023-08-29T00:00	9972	277	-41.9	-45.6	190	33
2023-08-29T00:00	9995	276	-42.1		191	34
2023-08-29T00:00	10018	275	-42.3	-46.4	191	34
2023-08-29T00:00	10036	274	-42.4	-47.1	192	34
2023-08-29T00:00	10058	273	-42.6	-47.5	192	34
2023-08-29T00:00	10078	272	-42.8	-47.9	192	34
2023-08-29T00:00	10099	272	-42.9	-47.9	193	34
2023-08-29T00:00	10117	271	-43.1	-48.1	193	34
2023-08-29T00:00	10141	270	-43.3	-48.3	193	35
2023-08-29T00:00	10161	269	-43.5	-48.3	193	35
2023-08-29T00:00	10182	268	-43.6	-48.7	193	35
2023-08-29T00:00	10204	267	-43.8	-49.2	193	35
2023-08-29T00:00	10224	267	-44.0	-49.3	193	35
2023-08-29T00:00	10244	266	-44.2	-49.5	193	35
2023-08-29T00:00	10264	265	-44.3	-49.8	193	35
2023-08-29T00:00	10283	264	-44.5	-49.9	194	35
2023-08-29T00:00	10303	263	-44.7	-49.9	194	35
2023-08-29T00:00	10325	263	-44.8	-49.9	194	35
2023-08-29T00:00	10345	262	-45.0	-50.2	194	35
2023-08-29T00:00	10366	261	-45.2	-50.4	194	35
2023-08-29T00:00	10387	260	-45.4	-50.5	194	35
2023-08-29T00:00	10409	259	-45.6	-50.8	194	35
2023-08-29T00:00	10429	259	-45.8	-51.4	194	35
2023-08-29T00:00	10447	258	-45.9	-51.9	194	34
2023-08-29T00:00	10467	257	-46.1	-52.3	194	34
2023-08-29T00:00	10489	256	-46.2	-52.3	194	34
2023-08-29T00:00	10508	255	-46.4	-52.5	194	34
2023-08-29T00:00	10528	255	-46.6	-52.7	194	34
2023-08-29T00:00	10549	254	-46.8	-52.7	195	34
2023-08-29T00:00	10568	253	-47.0	-52.9	195	34
2023-08-29T00:00	10592	252	-47.2	-53.3	196	34
2023-08-29T00:00	10612	251	-47.3	-53.4	196	34
2023-08-29T00:00	10642	250	-47.6	-53.7	196	34
2023-08-29T00:00	10665	250	-47.8	-53.9	197	34
2023-08-29T00:00	10685	249	-48.0	-54.1	197	34
2023-08-29T00:00	10707	248	-48.2	-54.2	196	34
2023-08-29T00:00	10726	247	-48.4	-54.2	196	34
2023-08-29T00:00	10748	246	-48.5	-54.3	196	34
2023-08-29T00:00	10768	246	-48.7	-54.8	195	34
2023-08-29T00:00	10789	245	-48.9	-54.9	195	34
2023-08-29T00:00	10810	244	-49.0	-55.0	195	34
2023-08-29T00:00	10831	243	-49.0	-55.2	195	34
2023-08-29T00:00	10852	243	-49.2	-55.3	196	35
2023-08-29T00:00	10872	242	-49.3	-55.1	196	35
2023-08-29T00:00	10892	241	-49.5	-55.1	196	35
2023-08-29T00:00	10912	240	-49.7	-55.0	196	35
2023-08-29T00:00	10932	240	-49.9	-54.9	196	34
2023-08-29T00:00	10951	239	-50.0	-54.8	196	34
2023-08-29T00:00	10971	238	-50.2	-55.0	196	34
2023-08-29T00:00	10989	237	-50.4	-55.1	196	35
2023-08-29T00:00	11013	237	-50.6	-55.1	196	35
2023-08-29T00:00	11031	236	-50.8	-55.1	196	35
2023-08-29T00:00	11055	235	-50.9	-55.1	196	35
2023-08-29T00:00	11076	234	-51.1	-55.2	196	35
2023-08-29T00:00	11095	234	-51.3	-55.4	196	36
2023-08-29T00:00	11114	233	-51.5	-55.9	196	36
2023-08-29T00:00	11134	232	-51.5	-56.3	197	36
2023-08-29T00:00	11154	232	-51.7	-56.5	197	36
2023-08-29T00:00	11173	231	-51.9	-56.6	197	37
2023-08-29T00:00	11193	230	-52.0	-56.7	196	37
2023-08-29T00:00	11215	229	-52.2	-57.0	196	37
2023-08-29T00:00	11233	229	-52.2	-57.1	196	37
2023-08-29T00:00	11251	228	-52.4	-57.4	195	36
2023-08-29T00:00	11280	227	-52.5	-57.9	195	36
2023-08-29T00:00	11315	226	-52.3	-58.3	194	36
2023-08-29T00:00	11338	225	-52.4	-58.6	193	36
2023-08-29T00:00	11373	224	-52.7	-58.6	192	36
2023-08-29T00:00	11408	223	-53.0	-58.6	191	36
2023-08-29T00:00	11428	222	-53.1	-58.6	191	36
2023-08-29T00:00	11447	221	-53.2	-58.5	190	37
2023-08-29T00:00	11468	221	-53.4	-58.5	189	37
2023-08-29T00:00	11487	220	-53.5	-58.6	189	37
2023-08-29T00:00	11508	219	-53.7	-58.8	189	37
2023-08-29T00:00	11527	219	-53.9	-58.9	189	37
2023-08-29T00:00	11548	218	-54.1	-59.1	189	37
2023-08-29T00:00	11567	217	-54.3	-59.3	189	37
2023-08-29T00:00	11584	217	-54.4	-59.5	190	37
2023-08-29T00:00	11605	216	-54.6	-59.6	190	37
2023-08-29T00:00	11622	215	-54.8	-59.6	190	37
2023-08-29T00:00	11643	215	-55.0	-59.6	191	37
2023-08-29T00:00	11660	214	-55.1	-59.4	191	37
2023-08-29T00:00	11679	213	-55.3	-59.3	191	37
2023-08-29T00:00	11697	213	-55.5	-59.3	192	37
2023-08-29T00:00	11717	212	-55.6	-59.4	192	37
2023-08-29T00:00	11735	212	-55.8	-59.7	192	37
2023-08-29T00:00	11755	211	-55.9	-59.9	192	37
2023-08-29T00:00	11771	210	-56.1	-60.2	192	37
2023-08-29T00:00	11792	210	-56.3	-60.5	192	37
2023-08-29T00:00	11813	209	-56.5	-60.8	192	37
2023-08-29T00:00	11829	208	-56.6	-61.1	192	37
2023-08-29T00:00	11849	208	-56.8	-61.5	191	37
2023-08-29T00:00	11867	207	-56.8	-61.8	191	38
2023-08-29T00:00	11887	207	-56.9	-62.0	191	38
2023-08-29T00:00	11905	206	-57.0	-62.1	191	38
2023-08-29T00:00	11923	205	-57.2	-62.2	190	39
2023-08-29T00:00	11944	205	-57.3	-62.2	190	39
2023-08-29T00:00	11963	204	-57.5	-62.3	190	39
2023-08-29T00:00	11984	203	-57.6	-62.3	190	39
2023-08-29T00:00	12005	203	-57.8	-62.5	190	39
2023-08-29T00:00	12026	202	-57.9	-62.5	190	40
2023-08-29T00:00	12052	201	-58.1	-62.7	190	41
2023-08-29T00:00	12074	200	-58.3	-63.2	190	42
2023-08-29T00:00	12094	200	-58.4	-64.0	190	43
2023-08-29T00:00	12114	199	-57.9	-64.9	190	43
2023-08-29T00:00	12134	199	-57.7		190	44
2023-08-29T00:00	12157	198	-57.6	-67.4	190	44
2023-08-29T00:00	12179	197	-57.4	-67.7	191	45
2023-08-29T00:00	12203	196	-57.3	-67.8	191	45
2023-08-29T00:00	12228	196	-57.4	-67.8	191	45
2023-08-29T00:00	12249	195	-57.5	-67.3	192	46
2023-08-29T00:00	12271	194	-57.7	-66.7	192	46
2023-08-29T00:00	12294	194	-57.9	-66.2	193	46
2023-08-29T00:00	12313	193	-58.0	-65.8	193	46
2023-08-29T00:00	12333	192	-58.2	-65.8	194	46
2023-08-29T00:00	12354	192	-58.3	-65.8	194	46
2023-08-29T00:00	12373	191	-58.5	-66.0	194	46
2023-08-29T00:00	12392	191	-58.6	-66.2	195	46
2023-08-29T00:00	12414	190	-58.7	-66.5	195	46
2023-08-29T00:00	12432	189	-58.9	-66.9	195	45
2023-08-29T00:00	12450	189	-59.0	-67.3	196	45
2023-08-29T00:00	12469	188	-59.2	-67.6	197	44
2023-08-29T00:00	12489	188	-59.0	-67.7	197	44
2023-08-29T00:00	12511	187	-58.8	-68.3	198	43
2023-08-29T00:00	12526	187	-58.4	-69.0	198	42
2023-08-29T00:00	12546	186	-58.0	-69.9	199	41
2023-08-29T00:00	12565	185	-57.9	-70.6	199	40
2023-08-29T00:00	12584	185	-57.9	-71.0	200	39
2023-08-29T00:00	12608	184	-57.9	-71.6	201	38
2023-08-29T00:00	12640	183	-57.6	-72.4	202	37
2023-08-29T00:00	12662	183	-56.5	-72.5	204	36
2023-08-29T00:00	12682	182	-55.5	-72.7	205	34
2023-08-29T00:00	12715	181	-54.7	-72.7	206	33
2023-08-29T00:00	12744	180	-54.5	-72.9	207	32
2023-08-29T00:00	12774	179	-54.5	-72.6	207	31
2023-08-29T00:00	12805	179	-54.5	-72.3	206	31
2023-08-29T00:00	12840	178	-54.7		206	30
2023-08-29T00:00	12880	177	-55.0	-72.4	207	30
2023-08-29T00:00	12903	176	-55.0	-71.8	207	30
2023-08-29T00:00	12925	175	-55.2	-71.3	208	29
2023-08-29T00:00	12955	174	-55.5	-71.2	209	28
2023-08-29T00:00	12993	173	-55.9	-71.6	210	27
2023-08-29T00:00	13031	172	-56.3	-72.0	210	25
2023-08-29T00:00	13059	172	-56.4	-72.2	211	23
2023-08-29T00:00	13074	171	-56.5	-72.2	211	22
2023-08-29T00:00	13108	170	-56.5	-72.3	211	20
2023-08-29T00:00	13127	170	-56.4	-72.5	211	20
2023-08-29T00:00	13142	169	-56.3	-72.8	211	19
2023-08-29T00:00	13158	169	-56.2	-72.9	211	19
2023-08-29T00:00	13171	169	-56.1	-72.5	211	19
2023-08-29T00:00	13186	168	-55.8	-71.3	211	19
2023-08-29T00:00	13201	168	-55.8	-70.0	211	19
2023-08-29T00:00	13213	167	-55.8	-69.0	212	19
2023-08-29T00:00	13228	167	-55.8	-69.2	212	19
2023-08-29T00:00	13242	167	-55.8	-70.8	212	19
2023-08-29T00:00	13258	166	-55.8	-72.9	213	19
2023-08-29T00:00	13274	166	-55.9	-74.3	213	18
2023-08-29T00:00	13290	166	-56.0	-74.1	214	19
2023-08-29T00:00	13304	165	-56.1	-73.2	214	19
2023-08-29T00:00	13319	165	-56.0	-72.3	215	19
2023-08-29T00:00	13338	164	-56.1	-72.0	215	19
2023-08-29T00:00	13355	164	-56.2	-72.0	216	20
2023-08-29T00:00	13371	163	-56.4	-71.9	216	20
2023-08-29T00:00	13391	163	-56.3	-71.6	216	21
2023-08-29T00:00	13411	162	-56.4	-71.5	217	22
2023-08-29T00:00	13428	162	-56.5	-71.9	217	22
2023-08-29T00:00	13449	161	-56.5	-72.5	217	23
2023-08-29T00:00	13471	161	-56.5	-73.3	218	23
2023-08-29T00:00	13491	160	-56.5	-73.9	218	24
2023-08-29T00:00	13512	160	-56.7	-74.5	219	24
2023-08-29T00:00	13532	159	-56.7	-74.8	220	23
2023-08-29T00:00	13553	159	-56.4	-74.7	220	23
2023-08-29T00:00	13576	158	-56.5	-75.0	221	23
2023-08-29T00:00	13596	158	-56.5	-75.1	221	22
2023-08-29T00:00	13617	157	-56.6	-75.4	222	22
2023-08-29T00:00	13638	157	-56.4	-75.7	222	21
2023-08-29T00:00	13662	156	-56.2	-76.1	223	21
2023-08-29T00:00	13686	155	-56.4	-76.8	224	20
2023-08-29T00:00	13708	155	-56.5	-77.2	226	20
2023-08-29T00:00	13730	154	-56.6	-77.3	227	19
2023-08-29T00:00	13753	154	-56.7	-77.3	228	19
2023-08-29T00:00	13777	153	-56.8	-77.2	228	18
2023-08-29T00:00	13800	153	-56.9	-77.3	229	17
2023-08-29T00:00	13822	152	-57.0	-77.5	229	17
2023-08-29T00:00	13847	152	-57.0	-77.5	229	16
2023-08-29T00:00	13869	151	-57.0	-77.6	229	15
2023-08-29T00:00	13891	151	-57.1	-77.8	228	14
2023-08-29T00:00	13911	150	-57.2	-78.2	227	13
2023-08-29T00:00	13933	150	-57.3	-78.4	225	12
2023-08-29T00:00	13951	149	-57.2	-78.6	223	12
2023-08-29T00:00	13974	149	-57.0	-78.6	221	12
2023-08-29T00:00	13993	148	-56.5	-78.3	219	12
2023-08-29T00:00	14012	148	-56.7	-78.6	217	12
2023-08-29T00:00	14030	147	-56.6	-78.7	214	12
2023-08-29T00:00	14052	147	-56.5	-78.6	212	12
2023-08-29T00:00	14071	146	-56.5	-78.6	210	12
2023-08-29T00:00	14089	146	-56.5	-78.6	209	12
2023-08-29T00:00	14109	145	-56.6	-78.8	208	12
2023-08-29T00:00	14129	145	-56.4	-78.8	208	12
2023-08-29T00:00	14146	145	-56.3	-78.9	209	12
2023-08-29T00:00	14169	144	-56.3	-79.3	211	12
2023-08-29T00:00	14188	144	-56.1	-79.5	212	12
2023-08-29T00:00	14208	143	-55.8	-79.4	212	12
2023-08-29T00:00	14228	143	-55.1	-79.0	211	12
2023-08-29T00:00	14245	142	-55.0	-79.4	209	12
2023-08-29T00:00	14264	142	-54.7	-79.4	207	12
2023-08-29T00:00	14284	141	-54.4	-79.3	204	12
2023-08-29T00:00	14302	141	-54.0	-79.3	202	12
2023-08-29T00:00	14321	141	-54.0	-79.3	200	12
2023-08-29T00:00	14342	140	-54.0	-79.3	198	12
2023-08-29T00:00	14359	140	-54.2	-79.4	197	12
2023-08-29T00:00	14379	139	-54.3	-79.7	196	12
2023-08-29T00:00	14398	139	-54.4	-79.8	195	13
2023-08-29T00:00	14416	139	-54.6	-80.0	194	13
2023-08-29T00:00	14435	138	-54.6	-80.0	194	13
2023-08-29T00:00	14453	138	-54.7	-80.0	195	14
2023-08-29T00:00	14471	137	-54.7	-80.0	195	14
2023-08-29T00:00	14490	137	-54.7	-80.0	196	14
2023-08-29T00:00	14509	137	-54.8	-80.1	196	15
2023-08-29T00:00	14532	136	-54.9	-80.2	197	15
2023-08-29T00:00	14551	136	-54.9	-80.2	198	15
2023-08-29T00:00	14569	135	-54.9	-80.2	198	16
2023-08-29T00:00	14590	135	-55.0	-80.5	199	16
2023-08-29T00:00	14610	134	-55.0	-80.5	200	16
2023-08-29T00:00	14630	134	-55.0	-80.8	200	16
2023-08-29T00:00	14652	134	-54.9	-80.7	201	17
2023-08-29T00:00	14671	133	-54.5	-80.4	201	17
2023-08-29T00:00	14693	133	-54.5	-80.7	201	17
2023-08-29T00:00	14713	132	-54.6	-81.0	202	18
2023-08-29T00:00	14736	132	-54.5	-80.9	204	18
2023-08-29T00:00	14755	131	-54.5	-81.2	205	18
2023-08-29T00:00	14776	131	-54.2	-81.3	207	17
2023-08-29T00:00	14800	131	-53.8	-81.3	209	17
2023-08-29T00:00	14820	130	-53.5	-81.1	210	17
2023-08-29T00:00	14844	130	-53.0	-81.1	212	17
2023-08-29T00:00	14866	129	-53.1	-81.1	213	17
2023-08-29T00:00	14888	129	-53.3	-80.9	215	17
2023-08-29T00:00	14910	128	-53.5	-81.1	217	16
2023-08-29T00:00	14931	128	-53.7	-81.3	219	16
2023-08-29T00:00	14953	127	-53.7	-81.3	221	16
2023-08-29T00:00	14973	127	-53.8	-81.3	223	16
2023-08-29T00:00	14996	127	-53.9	-81.1	225	16
2023-08-29T00:00	15017	126	-54.1	-81.2	226	17
2023-08-29T00:00	15038	126	-54.2	-81.3	227	17
2023-08-29T00:00	15058	125	-54.3	-81.4	228	17
2023-08-29T00:00	15080	125	-54.3	-81.4	229	17
2023-08-29T00:00	15103	125	-54.4	-81.5	230	17
2023-08-29T00:00	15127	124	-54.5	-81.5	231	17
2023-08-29T00:00	15149	124	-54.7	-81.7	232	17
2023-08-29T00:00	15167	123	-54.9	-81.9	232	17
2023-08-29T00:00	15191	123	-55.1	-81.7	233	17
2023-08-29T00:00	15210	122	-55.3	-81.9	233	17
2023-08-29T00:00	15231	122	-55.3	-81.9	234	17
2023-08-29T00:00	15252	122	-55.3	-81.9	234	17
2023-08-29T00:00	15275	121	-55.4	-81.9	235	17
2023-08-29T00:00	15296	121	-55.5	-82.0	235	17
2023-08-29T00:00	15318	120	-55.6	-82.1	236	17
2023-08-29T00:00	15337	120	-55.7	-82.2	237	17
2023-08-29T00:00	15357	120	-55.9	-82.3	238	16
2023-08-29T00:00	15376	119	-56.0	-82.7	238	16
2023-08-29T00:00	15400	119	-55.7	-82.5	239	15
2023-08-29T00:00	15421	119	-55.6	-82.7	239	14
2023-08-29T00:00	15438	118	-55.7	-82.8	239	13
2023-08-29T00:00	15457	118	-55.4	-82.6	239	13
2023-08-29T00:00	15476	117	-55.1	-82.7	239	12
2023-08-29T00:00	15495	117	-55.2	-82.7	238	11
2023-08-29T00:00	15513	117	-55.3	-82.8	237	11
2023-08-29T00:00	15533	116	-55.2	-82.4	235	10
2023-08-29T00:00	15554	116	-55.3	-82.5	233	10
2023-08-29T00:00	15576	116	-55.4	-82.6	231	9
2023-08-29T00:00	15594	115	-55.4	-82.6	228	9
2023-08-29T00:00	15615	115	-55.6	-82.7	224	9
2023-08-29T00:00	15633	115	-55.6	-82.7	220	8
2023-08-29T00:00	15653	114	-55.7	-82.8	215	8
2023-08-29T00:00	15675	114	-55.7	-82.8	211	8
2023-08-29T00:00	15693	114	-55.8	-83.2	208	9
2023-08-29T00:00	15711	113	-55.7	-83.1	207	9
2023-08-29T00:00	15730	113	-55.4	-82.9	207	9
2023-08-29T00:00	15749	113	-55.3	-82.8	208	9
2023-08-29T00:00	15769	112	-55.3	-82.8	209	9
2023-08-29T00:00	15790	112	-55.4	-82.9	209	9
2023-08-29T00:00	15808	111	-55.5	-83.0	209	9
2023-08-29T00:00	15827	111	-55.6	-83.1	207	8
2023-08-29T00:00	15847	111	-55.5		204	8
2023-08-29T00:00	15866	110	-55.3	-83.2	202	8
2023-08-29T00:00	15886	110	-55.0	-82.9	201	8
2023-08-29T00:00	15905	110	-55.0	-82.9	200	8
2023-08-29T00:00	15923	109	-55.1	-83.0	199	8
2023-08-29T00:00	15944	109	-55.0	-82.9	197	8
2023-08-29T00:00	15968	109	-54.9	-82.9	193	8
2023-08-29T00:00	15994	108	-54.8	-82.8	189	8
2023-08-29T00:00	16022	108	-54.7	-82.7	185	9
2023-08-29T00:00	16050	107	-54.9	-82.9	183	9
2023-08-29T00:00	16072	107	-55.0	-82.9	182	10
2023-08-29T00:00	16093	107	-55.0	-82.9	182	10
2023-08-29T00:00	16116	106	-55.0	-82.9	183	10
2023-08-29T00:00	16138	106	-55.0	-82.9	185	10
2023-08-29T00:00	16163	106	-55.2	-82.7	186	11
2023-08-29T00:00	16183	105	-55.3	-82.8	188	11
2023-08-29T00:00	16202	105	-55.4	-82.9	189	11
2023-08-29T00:00	16222	104	-55.3	-82.8	190	12
2023-08-29T00:00	16244	104	-55.4	-82.9	191	12
2023-08-29T00:00	16263	104	-55.4	-82.9	191	12
2023-08-29T00:00	16283	103	-55.4	-82.9	191	13
2023-08-29T00:00	16307	103	-55.3	-82.8	191	13
2023-08-29T00:00	16328	103	-55.4	-82.9	191	13
2023-08-29T00:00	16348	102	-55.6	-83.1	192	13
2023-08-29T00:00	16370	102	-55.7	-83.1	193	13
2023-08-29T00:00	16390	102	-55.8	-83.6	196	13
2023-08-29T00:00	16410	101	-55.5		198	13
2023-08-29T00:00	16432	101	-55.2	-83.5	201	13
2023-08-29T00:00	16455	101	-54.8	-83.6	204	13
2023-08-29T00:00	16470	100	-54.3	-83.2	206	13
2023-08-29T00:00	16493	100	-54.3	-83.2	207	14
2023-08-29T00:00	16514	100	-54.3	-83.2	208	14
2023-08-29T00:00	16533	100	-54.3	-83.2	209	14
2023-08-29T00:00	16555	99	-54.4	-83.3	209	14
2023-08-29T00:00	16575	99	-54.5	-83.4	210	14
2023-08-29T00:00	16596	99	-54.5	-83.4	211	14
2023-08-29T00:00	16619	98	-54.1	-83.1	213	13
2023-08-29T00:00	16643	98	-54.1	-83.1	216	13
2023-08-29T00:00	16663	98	-54.1	-83.1	218	12
2023-08-29T00:00	16684	97	-54.2	-83.1	220	12
2023-08-29T00:00	16704	97	-54.4	-83.3	220	12
2023-08-29T00:00	16727	97	-54.4	-83.3	220	11
2023-08-29T00:00	16748	96	-54.3	-83.2	218	11
2023-08-29T00:00	16770	96	-54.3	-83.2	217	11
2023-08-29T00:00	16791	96	-54.4	-83.3	216	11
2023-08-29T00:00	16812	95	-54.5	-82.9	215	11
2023-08-29T00:00	16833	95	-54.6	-83.4	215	11
2023-08-29T00:00	16855	95	-54.6	-83.4	215	12
2023-08-29T00:00	16877	94	-54.6	-83.4	215	12
2023-08-29T00:00	16898	94	-54.6	-83.0	215	12
2023-08-29T00:00	16922	94	-54.7	-83.1	216	12
2023-08-29T00:00	16941	93	-54.6	-83.0	216	12
2023-08-29T00:00	16963	93	-54.6	-83.4	217	12
2023-08-29T00:00	16981	93	-54.7	-83.5	219	11
2023-08-29T00:00	17009	92	-54.6	-83.4	221	11
2023-08-29T00:00	17031	92	-54.3	-83.2	224	10
2023-08-29T00:00	17051	92	-54.1	-83.5	225	9
2023-08-29T00:00	17073	91	-54.2	-83.1	225	9
2023-08-29T00:00	17096	91	-54.3	-83.2	224	8
2023-08-29T00:00	17119	91	-54.5	-83.4	222	7
2023-08-29T00:00	17141	91	-54.6	-83.4	220	7
2023-08-29T00:00	17160	90	-54.8	-83.6	219	6
2023-08-29T00:00	17182	90	-54.8	-83.6	220	6
2023-08-29T00:00	17203	90	-54.9	-83.7	221	6
2023-08-29T00:00	17220	89	-54.7	-83.5	222	7
2023-08-29T00:00	17243	89	-54.7	-83.5	222	7
2023-08-29T00:00	17264	89	-54.6	-83.4	222	7
2023-08-29T00:00	17287	88	-54.6	-83.4	222	8
2023-08-29T00:00	17309	88	-54.7	-83.5	223	8
2023-08-29T00:00	17332	88	-54.8	-83.6	226	8
2023-08-29T00:00	17353	88	-54.9	-83.7	230	8
2023-08-29T00:00	17372	87	-54.8	-83.6	234	8
2023-08-29T00:00	17393	87	-54.8	-83.6	239	8
2023-08-29T00:00	17413	87	-55.0	-83.7	243	8
2023-08-29T00:00	17436	86	-54.9	-84.1	246	7
2023-08-29T00:00	17457	86	-54.5	-83.8	249	7
2023-08-29T00:00	17476	86	-54.3	-83.6	252	7
2023-08-29T00:00	17502	86	-54.4	-83.7	255	7
2023-08-29T00:00	17524	85	-54.5	-83.8	258	6
2023-08-29T00:00	17542	85	-54.5	-83.8	259	6
2023-08-29T00:00	17564	85	-54.6	-83.9	258	5
2023-08-29T00:00	17582	84	-54.6	-83.4	255	5
2023-08-29T00:00	17607	84	-54.8	-83.6	250	5
2023-08-29T00:00	17629	84	-54.9	-83.7	243	4
2023-08-29T00:00	17650	84	-54.9	-83.7	237	4
2023-08-29T00:00	17669	83	-54.9	-83.7	229	4
2023-08-29T00:00	17688	83	-55.0	-83.7	221	3
2023-08-29T00:00	17712	83	-55.0	-83.7	213	3
2023-08-29T00:00	17729	83	-55.2	-83.9	205	4
2023-08-29T00:00	17752	82	-55.3	-84.0	198	4
2023-08-29T00:00	17775	82	-55.4	-84.0	193	4
2023-08-29T00:00	17793	82	-55.5	-83.7	188	5
2023-08-29T00:00	17815	81	-55.6	-83.8	185	5
2023-08-29T00:00	17836	81	-55.8	-83.9	182	5
2023-08-29T00:00	17856	81	-55.9	-84.0	179	6
2023-08-29T00:00	17878	81	-56.1	-84.2	178	6
2023-08-29T00:00	17899	80	-56.2	-84.2	179	6
2023-08-29T00:00	17917	80	-56.2	-84.2	181	7
2023-08-29T00:00	17936	80	-56.2	-84.2	185	7
2023-08-29T00:00	17961	80	-56.3	-84.3	192	7
2023-08-29T00:00	17985	79	-56.4	-84.4	200	7
2023-08-29T00:00	18001	79	-56.3	-84.3	209	7
2023-08-29T00:00	18026	79	-55.9	-84.0	218	8
2023-08-29T00:00	18047	79	-55.8	-83.9	226	8
2023-08-29T00:00	18066	78	-55.5	-83.7	232	8
2023-08-29T00:00	18088	78	-55.5	-83.7	237	8
2023-08-29T00:00	18107	78	-55.5	-84.1	241	9
2023-08-29T00:00	18125	78	-55.6	-84.2	244	9
2023-08-29T00:00	18146	77	-55.6	-84.2	247	9
2023-08-29T00:00	18164	77	-55.7	-84.3	250	8
2023-08-29T00:00	18186	77	-55.5	-84.1	254	8
2023-08-29T00:00	18207	77	-55.2	-84.3	257	7
2023-08-29T00:00	18227	76	-55.3	-84.4	261	7
2023-08-29T00:00	18247	76	-55.4	-84.5	264	6
2023-08-29T00:00	18269	76	-55.2	-84.3	266	5
2023-08-29T00:00	18290	76	-55.2	-84.3	267	5
2023-08-29T00:00	18310	75	-55.2	-84.3	264	4
2023-08-29T00:00	18332	75	-55.2	-84.3	258	3
2023-08-29T00:00	18357	75	-55.2	-84.3	248	3
2023-08-29T00:00	18377	75	-55.1	-84.2	234	3
2023-08-29T00:00	18402	74	-55.1	-84.2	219	3
2023-08-29T00:00	18418	74	-55.2	-84.3	207	3
2023-08-29T00:00	18444	74	-55.2	-84.3	202	4
2023-08-29T00:00	18471	74	-55.0	-84.2	200	4
2023-08-29T00:00	18494	73	-54.8	-84.0	200	5
2023-08-29T00:00	18518	73	-54.7	-83.9	201	5
2023-08-29T00:00	18539	73	-54.9	-84.1	201	5
2023-08-29T00:00	18562	72	-55.0	-84.2	201	6
2023-08-29T00:00	18583	72	-55.1	-84.2	201	6
2023-08-29T00:00	18607	72	-55.2	-84.3	202	6
2023-08-29T00:00	18631	72	-55.0	-84.2	204	6
2023-08-29T00:00	18655	71	-55.0	-84.2	207	6
2023-08-29T00:00	18676	71	-54.9	-84.1	211	6
2023-08-29T00:00	18699	71	-54.6	-83.9	216	6
2023-08-29T00:00	18724	71	-54.6	-83.9	220	6
2023-08-29T00:00	18749	70	-54.5	-83.8	223	6
2023-08-29T00:00	18771	70	-54.5	-83.8	225	7
2023-08-29T00:00	18796	70	-54.6	-83.9	227	7
2023-08-29T00:00	18820	70	-54.7	-83.9	228	7
2023-08-29T00:00	18843	69	-54.8	-84.0	228	7
2023-08-29T00:00	18866	69	-54.8	-84.0	227	7
2023-08-29T00:00	18888	69	-54.7	-83.9	227	8
2023-08-29T00:00	18913	69	-54.8	-84.5	227	8
2023-08-29T00:00	18933	68	-54.7	-84.4	227	8
2023-08-29T00:00	18958	68	-54.6	-84.3	228	8
2023-08-29T00:00	18983	68	-54.4	-84.2	230	8
2023-08-29T00:00	19005	68	-54.3	-84.1	233	8
2023-08-29T00:00	19032	67	-54.2	-84.0	235	8
2023-08-29T00:00	19052	67	-54.3	-84.1	238	7
2023-08-29T00:00	19074	67	-54.3	-84.1	241	7
2023-08-29T00:00	19102	67	-54.3	-84.1	243	7
2023-08-29T00:00	19120	66	-54.5	-83.8	246	7
2023-08-29T00:00	19145	66	-54.6	-83.9	248	7
2023-08-29T00:00	19169	66	-54.8	-84.0	251	7
2023-08-29T00:00	19191	66	-55.1	-84.2	253	6
2023-08-29T00:00	19212	65	-55.2	-84.3	254	6
2023-08-29T00:00	19236	65	-55.4	-84.5	253	5
2023-08-29T00:00	19259	65	-55.3	-84.4	250	5
2023-08-29T00:00	19284	65	-55.2	-84.3	246	4
2023-08-29T00:00	19308	65	-55.3	-84.4	241	4
2023-08-29T00:00	19328	64	-55.4	-84.5	235	3
2023-08-29T00:00	19349	64	-55.5	-84.5	229	3
2023-08-29T00:00	19366	64	-55.6	-84.6	223	3
2023-08-29T00:00	19388	64	-55.7	-84.7	218	3
2023-08-29T00:00	19412	63	-55.7	-84.7	214	3
2023-08-29T00:00	19436	63	-55.8	-84.8	211	3
2023-08-29T00:00	19456	63	-55.9	-84.8	211	3
2023-08-29T00:00	19477	63	-55.8	-84.8	211	4
2023-08-29T00:00	19498	63	-55.8	-84.8	212	4
2023-08-29T00:00	19520	62	-55.9	-84.8	214	4
2023-08-29T00:00	19541	62	-55.9	-84.8	215	4
2023-08-29T00:00	19566	62	-55.8	-84.8	216	4
2023-08-29T00:00	19584	62	-55.3	-84.9	218	5
2023-08-29T00:00	19607	62	-55.2	-84.8	220	5
2023-08-29T00:00	19627	61	-55.1	-84.7	222	5
2023-08-29T00:00	19652	61	-55.0	-84.6	224	5
2023-08-29T00:00	19674	61	-55.1	-84.7	226	4
2023-08-29T00:00	19693	61	-55.2	-84.8	228	4
2023-08-29T00:00	19717	60	-55.3	-84.9	230	3
2023-08-29T00:00	19748	60	-55.3	-84.9	230	3
2023-08-29T00:00	19762	60	-55.1	-84.7	228	2
2023-08-29T00:00	19782	60	-55.1	-84.7	221	2
2023-08-29T00:00	19809	60	-55.1	-84.7	210	2
2023-08-29T00:00	19830	59	-55.0	-84.6	198	2
2023-08-29T00:00	19854	59	-54.7	-84.4	187	2
2023-08-29T00:00	19876	59	-54.7	-84.4	181	2
2023-08-29T00:00	19896	59	-54.7	-84.4	177	2
2023-08-29T00:00	19922	59	-54.8	-84.5	177	2
2023-08-29T00:00	19945	58	-54.8	-84.5	178	2
2023-08-29T00:00	19965	58	-54.8	-84.5	179	2
2023-08-29T00:00	19985	58	-54.8	-84.5	176	2
2023-08-29T00:00	20006	58	-54.9	-84.6	172	2
2023-08-29T00:00	20031	58	-54.9	-84.6	168	3
2023-08-29T00:00	20053	57	-54.8	-84.5	165	3
2023-08-29T00:00	20076	57	-54.7	-84.4	164	3
2023-08-29T00:00	20102	57	-54.7	-84.4	165	3
2023-08-29T00:00	20121	57	-54.5	-84.3	168	2
2023-08-29T00:00	20142	57	-54.5	-84.3	170	2
2023-08-29T00:00	20165	56	-54.4	-84.2	170	3
2023-08-29T00:00	20190	56	-54.3	-84.1	168	3
2023-08-29T00:00	20210	56	-54.4	-84.2	165	3
2023-08-29T00:00	20231	56	-54.3	-84.1	162	4
2023-08-29T00:00	20255	56	-54.4	-84.2	160	4
2023-08-29T00:00	20274	55	-54.5	-84.3	159	4
2023-08-29T00:00	20293	55	-54.6	-84.3	159	5
2023-08-29T00:00	20318	55	-54.7	-84.4	161	5
2023-08-29T00:00	20339	55	-54.6	-84.3	164	5
2023-08-29T00:00	20362	55	-54.7	-84.4	168	4
2023-08-29T00:00	20385	54	-54.5	-84.3	174	4
2023-08-29T00:00	20404	54	-54.3	-84.1	180	3
2023-08-29T00:00	20425	54	-54.5	-84.3	187	3
2023-08-29T00:00	20447	54	-54.6	-84.3	193	3
2023-08-29T00:00	20468	54	-54.7	-84.4	200	2
2023-08-29T00:00	20485	54	-54.8	-84.0	210	2
2023-08-29T00:00	20511	53	-55.0	-84.2	223	2
2023-08-29T00:00	20530	53	-55.1	-84.2	237	2
2023-08-29T00:00	20556	53	-55.2	-84.3	251	2
2023-08-29T00:00	20576	53	-55.3	-84.4	262	2
2023-08-29T00:00	20596	53	-55.4	-84.5	273	3
2023-08-29T00:00	20619	53	-55.5	-84.5	284	3
2023-08-29T00:00	20636	52	-55.6	-84.6	295	3
2023-08-29T00:00	20660	52	-55.6	-84.6	306	3
2023-08-29T00:00	20679	52	-55.7	-84.7	314	4
2023-08-29T00:00	20702	52	-55.8	-84.8	319	4
2023-08-29T00:00	20723	52	-55.7	-84.7	323	4
2023-08-29T00:00	20744	51	-55.5	-84.5	326	4
2023-08-29T00:00	20763	51	-55.6	-84.6	328	4
2023-08-29T00:00	20786	51	-55.7	-84.7	331	4
2023-08-29T00:00	20809	51	-55.8	-84.8	335	3
2023-08-29T00:00	20832	51	-56.0	-84.9	342	3
2023-08-29T00:00	20851	51	-56.1	-85.0	351	3
2023-08-29T00:00	20872	50	-56.2	-85.1	3	2
2023-08-29T00:00	20896	50	-56.3	-85.1	15	2
2023-08-29T00:00	20918	50	-56.3	-85.1	29	2
2023-08-29T00:00	20943	50	-56.0	-84.9	41	2
2023-08-29T00:00	20961	50	-55.8	-85.2	53	2
2023-08-29T00:00	20979	50	-55.7	-85.2	61	2
2023-08-29T00:00	21004	49	-55.7	-84.7	65	2
2023-08-29T00:00	21026	49	-55.8	-84.8	67	2
2023-08-29T00:00	21051	49	-55.8	-84.8	67	2
2023-08-29T00:00	21069	49	-55.9	-84.8	69	2
2023-08-29T00:00	21089	49	-55.9	-84.8	73	1
2023-08-29T00:00	21113	49	-55.9	-84.8	85	1
2023-08-29T00:00	21136	48	-55.9	-84.8	110	1
2023-08-29T00:00	21155	48	-55.9	-84.8	139	1
2023-08-29T00:00	21181	48	-55.9	-84.8	158	1
2023-08-29T00:00	21204	48	-56.0	-84.9	168	2
2023-08-29T00:00	21224	48	-56.0	-84.9	173	2
2023-08-29T00:00	21248	48	-55.8	-84.8	175	3
2023-08-29T00:00	21267	47	-55.8	-84.8	175	3
2023-08-29T00:00	21294	47	-55.7	-85.2	174	4
2023-08-29T00:00	21315	47	-55.8	-84.8	174	4
2023-08-29T00:00	21334	47	-55.9	-84.8	173	4
2023-08-29T00:00	21358	47	-55.5	-84.5	174	4
2023-08-29T00:00	21384	47	-55.4	-84.5	175	4
2023-08-29T00:00	21407	46	-55.4	-84.5	175	4
2023-08-29T00:00	21428	46	-55.3	-84.4	173	3
2023-08-29T00:00	21448	46	-55.5	-84.5	167	3
2023-08-29T00:00	21473	46	-55.4	-84.0	153	2
2023-08-29T00:00	21497	46	-55.4	-84.0	127	2
2023-08-29T00:00	21518	46	-55.3	-84.0	102	2
2023-08-29T00:00	21540	45	-55.3	-84.0	90	3
2023-08-29T00:00	21562	45	-55.3	-84.4	87	3
2023-08-29T00:00	21580	45	-55.3	-84.4	89	4
2023-08-29T00:00	21602	45	-55.1	-84.7	93	4
2023-08-29T00:00	21629	45	-54.8	-84.5	98	4
2023-08-29T00:00	21645	45	-54.7	-84.4	105	4
2023-08-29T00:00	21675	45	-54.7	-84.9	113	4
2023-08-29T00:00	21697	44	-54.8	-85.0	123	4
2023-08-29T00:00	21720	44	-54.8	-85.0	137	4
2023-08-29T00:00	21746	44	-54.8	-85.0	153	3
2023-08-29T00:00	21765	44	-54.5	-84.8	169	3
2023-08-29T00:00	21787	44	-54.3	-84.6	182	3
2023-08-29T00:00	21808	44	-54.2	-84.5	193	3
2023-08-29T00:00	21834	43	-54.1	-84.5	202	2
2023-08-29T00:00	21860	43	-54.1	-84.5	215	2
2023-08-29T00:00	21883	43	-54.0	-84.4	243	1
2023-08-29T00:00	21904	43	-53.8	-84.2	305	1
2023-08-29T00:00	21927	43	-53.8	-84.2	346	1
2023-08-29T00:00	21952	43	-53.8	-84.2	4	2
2023-08-29T00:00	21974	42	-53.7	-84.2	16	2
2023-08-29T00:00	22001	42	-53.7	-84.2	25	3
2023-08-29T00:00	22025	42	-53.8	-84.2	32	3
2023-08-29T00:00	22046	42	-53.8	-84.2	37	3
2023-08-29T00:00	22073	42	-53.8	-84.2	41	3
2023-08-29T00:00	22096	42	-53.8	-84.2	46	3
2023-08-29T00:00	22121	42	-53.9	-84.3	51	3
2023-08-29T00:00	22146	41	-53.9	-84.3	57	3
2023-08-29T00:00	22172	41	-54.0	-84.4	60	3
2023-08-29T00:00	22192	41	-54.0	-84.4	61	3
2023-08-29T00:00	22214	41	-54.0	-84.4	60	3
2023-08-29T00:00	22242	41	-53.9	-84.3	58	3
2023-08-29T00:00	22264	41	-53.8	-84.2	55	2
2023-08-29T00:00	22292	40	-53.8	-84.2	51	2
2023-08-29T00:00	22313	40	-53.8	-84.2	48	2
2023-08-29T00:00	22335	40	-53.8	-84.2	44	2
2023-08-29T00:00	22359	40	-53.8	-84.2	40	2
2023-08-29T00:00	22382	40	-53.9	-84.3	38	1
2023-08-29T00:00	22411	40	-53.9	-84.3	37	1
2023-08-29T00:00	22432	40	-54.0	-84.4	41	1
2023-08-29T00:00	22453	39	-53.9	-84.3	50	1
2023-08-29T00:00	22479	39	-54.0	-84.4	60	1
2023-08-29T00:00	22502	39	-54.0	-84.4	65	1
2023-08-29T00:00	22522	39	-53.9	-84.3	61	1
2023-08-29T00:00	22546	39	-53.8	-84.2	55	1
2023-08-29T00:00	22576	39	-53.7	-84.2	51	1
2023-08-29T00:00	22594	39	-53.6	-84.1	48	2
2023-08-29T00:00	22616	38	-53.6	-84.1	45	2
2023-08-29T00:00	22640	38	-53.4	-84.5	42	2
2023-08-29T00:00	22666	38	-53.4	-84.5	38	2
2023-08-29T00:00	22685	38	-53.3	-83.9	35	2
2023-08-29T00:00	22706	38	-53.3	-83.9	34	2
2023-08-29T00:00	22729	38	-53.4	-83.9	36	2
2023-08-29T00:00	22754	38	-53.4	-83.9	40	2
2023-08-29T00:00	22773	38	-53.5	-84.0	44	2
2023-08-29T00:00	22798	37	-53.5	-84.0	49	2
2023-08-29T00:00	22818	37	-53.6	-84.1	54	2
2023-08-29T00:00	22836	37	-53.6	-84.1	59	2
2023-08-29T00:00	22856	37	-53.6	-84.1	63	2
2023-08-29T00:00	22875	37	-53.6	-84.1	65	1
2023-08-29T00:00	22902	37	-53.5	-84.0	59	1
2023-08-29T00:00	22916	37	-53.6	-84.1	34	1
2023-08-29T00:00	22945	37	-53.6	-84.1	9	1
2023-08-29T00:00	22962	36	-53.5	-84.0	6	1
2023-08-29T00:00	22985	36	-53.4	-83.9	12	2
2023-08-29T00:00	23007	36	-53.3	-83.9	22	2
2023-08-29T00:00	23027	36	-53.2	-83.8	33	3
2023-08-29T00:00	23053	36	-53.1	-84.3	45	3
2023-08-29T00:00	23073	36	-53.2	-84.4	57	4
2023-08-29T00:00	23094	36	-53.2	-83.8	67	4
2023-08-29T00:00	23114	36	-53.3	-83.9	75	4
2023-08-29T00:00	23141	35	-53.4	-83.9	80	5
2023-08-29T00:00	23162	35	-53.5	-84.0	84	5
2023-08-29T00:00	23181	35	-53.3	-83.9	87	4
2023-08-29T00:00	23205	35	-53.2	-84.4	88	4
2023-08-29T00:00	23231	35	-53.2	-84.4	88	3
2023-08-29T00:00	23255	35	-53.1	-84.3	87	3
2023-08-29T00:00	23277	35	-52.9	-84.1	86	3
2023-08-29T00:00	23295	35	-52.9	-84.1	85	3
2023-08-29T00:00	23322	34	-52.9	-84.1	86	3
2023-08-29T00:00	23344	34	-52.8	-84.1	90	3
2023-08-29T00:00	23366	34	-52.9	-84.1	94	4
2023-08-29T00:00	23390	34	-53.0	-84.2	99	4
2023-08-29T00:00	23418	34	-53.1	-84.3	105	5
2023-08-29T00:00	23444	34	-53.1	-83.7	110	5
2023-08-29T00:00	23462	34	-53.2	-83.8	115	5
2023-08-29T00:00	23492	34	-53.3	-83.9	120	5
2023-08-29T00:00	23516	33	-53.2	-84.4	125	4
2023-08-29T00:00	23540	33	-52.9	-84.1	129	4
2023-08-29T00:00	23562	33	-52.8	-84.1	130	4
2023-08-29T00:00	23582	33	-52.7	-84.0	130	4
2023-08-29T00:00	23613	33	-52.8	-84.1	127	3
2023-08-29T00:00	23634	33	-52.7	-84.0	125	3
2023-08-29T00:00	23663	33	-52.8	-84.1	124	3
2023-08-29T00:00	23694	33	-52.8	-84.1	126	3
2023-08-29T00:00	23708	32	-52.6	-83.9	131	3
2023-08-29T00:00	23737	32	-52.4	-83.8	138	3
2023-08-29T00:00	23766	32	-52.3	-83.7	144	3
2023-08-29T00:00	23790	32	-52.1	-83.5	149	4
2023-08-29T00:00	23812	32	-51.9	-84.0	150	4
2023-08-29T00:00	23835	32	-51.9	-84.0	149	4
2023-08-29T00:00	23864	32	-52.0	-84.1	147	5
2023-08-29T00:00	23890	32	-51.8	-83.9	145	5
2023-08-29T00:00	23917	31	-51.6	-83.8	145	5
2023-08-29T00:00	23941	31	-51.6	-83.2	146	5
2023-08-29T00:00	23962	31	-51.7	-83.2	147	5
2023-08-29T00:00	23993	31	-51.7	-83.2	150	5
2023-08-29T00:00	24017	31	-51.7	-83.9	152	5
2023-08-29T00:00	24047	31	-51.5	-83.7	154	5
2023-08-29T00:00	24067	31	-51.4	-83.6	157	5
2023-08-29T00:00	24090	31	-51.2	-83.5	160	5
2023-08-29T00:00	24115	30	-51.1	-83.4	164	4
2023-08-29T00:00	24144	30	-50.9	-83.3	169	4
2023-08-29T00:00	24171	30	-50.7	-83.1	175	4
2023-08-29T00:00	24192	30	-50.6	-83.1	181	4
2023-08-29T00:00	24213	30	-50.7	-83.1	187	4
2023-08-29T00:00	24237	30	-50.7	-83.1	192	4
2023-08-29T00:00	24265	30	-50.8	-83.2	197	4
2023-08-29T00:00	24285	30	-50.7	-83.1	200	3
2023-08-29T00:00	24315	30	-50.7	-83.1	201	2
2023-08-29T00:00	24340	29	-50.7	-83.1	198	2
2023-08-29T00:00	24368	29	-50.9	-83.3	188	1
2023-08-29T00:00	24381	29	-51.0	-83.3	168	1
2023-08-29T00:00	24410	29	-50.9	-83.3	150	1
2023-08-29T00:00	24437	29	-50.9	-83.3	143	2
2023-08-29T00:00	24456	29	-51.0	-83.3	145	2
2023-08-29T00:00	24485	29	-51.0	-83.3	151	2
2023-08-29T00:00	24509	29	-51.0	-83.3	159	2
2023-08-29T00:00	24535	29	-51.1	-82.8	169	2
2023-08-29T00:00	24560	28	-51.1	-82.8	179	2
2023-08-29T00:00	24582	28	-51.1	-82.8	187	2
2023-08-29T00:00	24612	28	-51.1	-82.8	194	2
2023-08-29T00:00	24635	28	-51.1	-82.8	199	2
2023-08-29T00:00	24659	28	-51.1	-82.8	204	2
2023-08-29T00:00	24693	28	-51.1	-82.8	208	2
2023-08-29T00:00	24716	28	-51.2	-82.9	213	2
2023-08-29T00:00	24737	28	-51.3	-82.9	218	2
2023-08-29T00:00	24763	28	-51.4	-83.0	224	2
2023-08-29T00:00	24793	27	-51.4	-83.0	231	2
2023-08-29T00:00	24819	27	-51.4	-83.0	240	2
2023-08-29T00:00	24843	27	-51.4	-83.0	251	2
2023-08-29T00:00	24857	27	-51.4	-83.0	271	1
2023-08-29T00:00	24889	27	-51.5	-83.1	306	1
2023-08-29T00:00	24913	27	-51.4	-83.6	349	1
2023-08-29T00:00	24941	27	-51.4	-83.6	20	2
2023-08-29T00:00	24960	27	-51.3	-83.6	42	2
2023-08-29T00:00	24988	27	-51.1	-83.4	61	2
2023-08-29T00:00	25015	27	-50.5	-83.0	79	2
2023-08-29T00:00	25048	26	-50.3	-83.5	97	2
2023-08-29T00:00	25062	26	-50.1	-83.4	111	2
2023-08-29T00:00	25089	26	-49.7	-83.1	121	2
2023-08-29T00:00	25122	26	-49.6	-83.0	127	2
2023-08-29T00:00	25149	26	-49.5	-82.9	127	2
2023-08-29T00:00	25172	26	-49.4	-82.9	124	2
2023-08-29T00:00	25198	26	-49.3	-82.8	121	3
2023-08-29T00:00	25226	26	-49.3	-82.8	120	3
2023-08-29T00:00	25255	26	-49.2	-82.7	123	3
2023-08-29T00:00	25277	26	-49.2	-82.7	128	4
2023-08-29T00:00	25303	25	-49.2	-82.7	136	4
2023-08-29T00:00	25325	25	-49.3	-82.1	144	4
2023-08-29T00:00	25356	25	-49.4	-82.2	152	4
2023-08-29T00:00	25378	25	-49.3	-82.1	158	4
2023-08-29T00:00	25403	25	-49.3	-82.1	162	4
2023-08-29T00:00	25428	25	-49.2	-82.0	164	4
2023-08-29T00:00	25462	25	-49.3	-82.1	166	3
2023-08-29T00:00	25490	25	-49.4	-82.2	167	3
2023-08-29T00:00	25510	25	-49.5	-82.3	171	3
2023-08-29T00:00	25541	25	-49.4	-82.9	178	2
2023-08-29T00:00	25560	24	-49.4	-82.9	191	2
2023-08-29T00:00	25589	24	-49.3	-82.8	209	1
2023-08-29T00:00	25617	24	-49.1	-82.7	235	1
2023-08-29T00:00	25637	24	-49.0	-82.6	269	1
2023-08-29T00:00	25675	24	-49.1	-82.7	297	1
2023-08-29T00:00	25693	24	-49.2	-82.7	313	2
2023-08-29T00:00	25721	24	-49.0	-82.6	319	2
2023-08-29T00:00	25751	24	-48.8	-82.4	320	3
2023-08-29T00:00	25781	24	-48.9	-82.5	318	3
2023-08-29T00:00	25803	24	-49.0	-81.9	315	3
2023-08-29T00:00	25828	23	-49.1	-82.0	313	3
2023-08-29T00:00	25856	23	-49.2	-82.0	313	3
2023-08-29T00:00	25880	23	-49.2	-82.0	314	3
2023-08-29T00:00	25907	23	-49.4	-82.2	317	3
2023-08-29T00:00	25934	23	-49.6	-82.3	322	3
2023-08-29T00:00	25958	23	-49.8	-82.5	330	3
2023-08-29T00:00	25985	23	-49.8	-82.5	339	3
2023-08-29T00:00	26009	23	-50.0	-82.6	349	2
2023-08-29T00:00	26034	23	-50.1	-82.7	0	2
2023-08-29T00:00	26059	23	-50.1	-82.7	13	2
2023-08-29T00:00	26100	23	-50.3	-82.8	29	2
2023-08-29T00:00	26112	22	-50.2	-82.8	46	2
2023-08-29T00:00	26149	22	-50.1	-82.7	61	2
2023-08-29T00:00	26161	22	-50.0	-82.6	73	2
2023-08-29T00:00	26195	22	-49.8	-82.5	82	2
2023-08-29T00:00	26228	22	-49.8	-82.5	92	1
2023-08-29T00:00	26250	22	-49.8	-82.5	102	1
2023-08-29T00:00	26268	22	-49.9	-82.5	111	1
2023-08-29T00:00	26298	22	-49.9	-82.5	114	1
2023-08-29T00:00	26323	22	-50.0	-82.6	109	1
2023-08-29T00:00	26343	22	-50.3	-82.8	98	1
2023-08-29T00:00	26381	22	-50.3	-82.8	81	1
2023-08-29T00:00	26401	21	-50.2	-82.8	62	1
2023-08-29T00:00	26438	21	-50.2	-82.8	39	1
2023-08-29T00:00	26449	21	-50.3	-82.8	17	1
2023-08-29T00:00	26489	21	-50.2	-82.8	3	2
2023-08-29T00:00	26505	21	-49.9	-83.2	356	2
2023-08-29T00:00	26534	21	-49.6	-83.0	356	3
2023-08-29T00:00	26562	21	-49.4	-82.9	358	3
2023-08-29T00:00	26589	21	-49.2	-82.7	1	3
2023-08-29T00:00	26614	21	-49.2	-82.7	3	3
2023-08-29T00:00	26637	21	-49.0	-82.6	3	3
2023-08-29T00:00	26668	21	-48.9	-82.5	359	2
2023-08-29T00:00	26697	21	-48.9	-82.5	352	2
2023-08-29T00:00	26718	20	-48.8	-82.4	346	2
2023-08-29T00:00	26753	20	-48.6	-82.3	346	2
2023-08-29T00:00	26779	20	-48.5	-82.2	353	2
2023-08-29T00:00	26809	20	-48.3	-82.1	3	2
2023-08-29T00:00	26828	20	-48.3	-82.1	11	3
2023-08-29T00:00	26851	20	-48.3	-82.1	17	3
2023-08-29T00:00	26882	20	-48.3	-82.1	21	3
2023-08-29T00:00	26901	20	-48.3	-82.1	26	3
2023-08-29T00:00	26938	20	-48.1	-81.9	31	3
2023-08-29T00:00	26952	20	-48.1	-81.9	37	3
2023-08-29T00:00	26981	20	-48.0	-81.9	43	4
2023-08-29T00:00	27010	20	-48.1	-81.9	49	4
2023-08-29T00:00	27038	20	-48.2	-82.0	55	4
2023-08-29T00:00	27062	19	-48.2	-82.0	63	4
2023-08-29T00:00	27086	19	-48.1	-81.9	70	4
2023-08-29T00:00	27120	19	-47.9	-81.8	78	4
2023-08-29T00:00	27139	19	-47.8	-82.5	87	4
2023-08-29T00:00	27172	19	-47.7	-82.4	94	4
2023-08-29T00:00	27192	19	-47.5	-82.3	102	4
2023-08-29T00:00	27214	19	-47.5	-82.3	110	3
2023-08-29T00:00	27246	19	-47.5	-82.3	118	3
2023-08-29T00:00	27265	19	-47.5	-82.3	127	3
2023-08-29T00:00	27283	19	-47.6	-82.4	138	3
2023-08-29T00:00	27315	19	-47.5	-82.3	150	3
2023-08-29T00:00	27344	19	-47.3	-82.2	161	3
2023-08-29T00:00	27371	19	-47.0	-81.9	171	3
2023-08-29T00:00	27390	19	-46.9	-81.9	178	4
2023-08-29T00:00	27414	18	-46.7	-81.7	184	4
2023-08-29T00:00	27439	18	-46.5	-81.6	188	4
2023-08-29T00:00	27445	18	-46.1	-81.3	192	3
2023-08-29T00:00	27490	18	-46.0	-81.2	196	3
2023-08-29T00:00	27506	18	-45.8	-82.0	200	3
2023-08-29T00:00	27537	18	-45.5	-81.8	205	2
2023-08-29T00:00	27554	18	-45.2	-81.6	211	2
2023-08-29T00:00	27582	18	-44.7	-81.2	218	1
2023-08-29T00:00	27603	18	-44.5	-81.1	228	1
2023-08-29T00:00	27625	18	-44.5	-81.1	241	1
2023-08-29T00:00	27648	18	-44.4	-81.0	250	1
2023-08-29T00:00	27674	18	-44.3	-80.9	257	1
2023-08-29T00:00	27698	18	-44.2	-80.9	265	1
2023-08-29T00:00	27720	18	-44.2	-80.9	272	1
2023-08-29T00:00	27740	18	-44.0	-80.7	280	1
2023-08-29T00:00	27766	17	-43.8	-80.6	289	1
2023-08-29T00:00	27793	17	-43.6	-80.4	299	1
2023-08-29T00:00	27815	17	-43.5	-80.4	314	1
2023-08-29T00:00	27840	17	-43.4	-80.3	333	1
2023-08-29T00:00	27863	17	-43.3	-80.2	356	1
2023-08-29T00:00	27890	17	-43.1	-80.1	15	2
2023-08-29T00:00	27901	17	-43.0	-80.0	29	2
2023-08-29T00:00	27939	17	-42.9	-80.0	39	2
2023-08-29T00:00	27965	17	-43.0	-80.0	44	2
2023-08-29T00:00	27978	17	-43.1	-80.1	46	3
2023-08-29T00:00	28013	17	-43.1	-80.1	46	3
2023-08-29T00:00	28040	17	-43.2	-80.2	45	3
2023-08-29T00:00	28069	17	-43.3	-80.2	45	3
2023-08-29T00:00	28098	17	-43.3	-80.2	46	3
2023-08-29T00:00	28128	17	-43.3	-80.2	50	3
2023-08-29T00:00	28143	17	-43.4	-80.3	57	3
2023-08-29T00:00	28173	16	-43.4	-80.3	65	4
2023-08-29T00:00	28199	16	-43.6	-80.4	72	4
2023-08-29T00:00	28218	16	-43.7	-80.5	78	4
2023-08-29T00:00	28252	16	-43.9	-80.7	82	4
2023-08-29T00:00	28271	16	-44.0	-80.7	83	4
2023-08-29T00:00	28312	16	-44.1	-80.8	81	4
2023-08-29T00:00	28326	16	-44.1	-80.8	78	4
2023-08-29T00:00	28362	16	-43.9	-80.7	73	3
2023-08-29T00:00	28400	16	-43.9	-80.7	68	3
2023-08-29T00:00	28419	16	-43.8	-80.6	63	3
2023-08-29T00:00	28442	16	-43.8	-80.6	59	3
2023-08-29T00:00	28484	16	-43.7	-80.5	55	3
2023-08-29T00:00	28501	16	-43.7	-80.5	49	3
2023-08-29T00:00	28522	16	-43.5	-80.4	42	3
2023-08-29T00:00	28563	16	-43.2	-80.2	36	3
2023-08-29T00:00	28575	15	-43.3	-80.2	32	4
2023-08-29T00:00	28614	15	-43.4	-80.3	32	4
2023-08-29T00:00	28654	15	-43.4	-80.3	33	5
2023-08-29T00:00	28667	15	-43.1	-80.1	36	5
2023-08-29T00:00	28690	15	-42.9	-80.0	42	5
2023-08-29T00:00	28722	15	-43.1	-80.1	49	6
2023-08-29T00:00	28749	15	-42.7	-79.8	57	6
2023-08-29T00:00	28791	15	-42.6	-79.7	65	7
2023-08-29T00:00	28816	15	-42.7	-79.8	72	7
2023-08-29T00:00	28839	15	-42.7	-79.8	78	7
2023-08-29T00:00	28864	15	-42.7	-79.8	83	8
2023-08-29T00:00	28892	15	-42.8	-79.9	88	8
2023-08-29T00:00	28912	15	-43.0	-80.0	91	8
2023-08-29T00:00	28941	15	-43.1	-80.1	94	8
2023-08-29T00:00	28976	15	-43.2	-80.2	97	8
2023-08-29T00:00	28994	15	-43.2	-80.2	101	7
2023-08-29T00:00	29021	15	-43.3	-80.2	105	7
2023-08-29T00:00	29051	14	-43.4	-80.3	111	7
2023-08-29T00:00	29067	14	-43.4	-80.3	118	6
2023-08-29T00:00	29090	14	-43.5	-80.4	124	6
2023-08-29T00:00	29126	14	-43.5	-80.4	131	6
2023-08-29T00:00	29135	14	-43.3	-80.2	135	7
2023-08-29T00:00	29167	14	-43.1	-80.1	138	7
2023-08-29T00:00	29192	14	-43.0	-80.0	140	7
2023-08-29T00:00	29212	14	-42.9	-80.0	142	7
2023-08-29T00:00	29220	14	-42.6	-80.8	144	8
2023-08-29T00:00	29262	14	-42.2	-80.6	147	8
2023-08-29T00:00	29303	14	-42.0	-80.4	149	9
2023-08-29T00:00	29319	14	-41.9	-80.4	151	9
2023-08-29T00:00	29333	14	-41.9	-80.4	152	10
2023-08-29T00:00	29369	14	-41.7	-80.2	152	10
2023-08-29T00:00	29387	14	-41.7	-80.2	151	10
2023-08-29T00:00	29414	14	-41.6	-80.1	149	10
2023-08-29T00:00	29430	14	-41.6	-80.1	148	10
2023-08-29T00:00	29470	14	-41.7	-80.2	148	9
2023-08-29T00:00	29479	14	-41.6	-80.1	148	9
2023-08-29T00:00	29501	14	-41.7	-80.2	149	9
2023-08-29T00:00	29534	13	-41.8	-79.2	150	9
2023-08-29T00:00	29561	13	-42.0	-79.3	152	9
2023-08-29T00:00	29572	13	-42.2	-79.5	154	9
2023-08-29T00:00	29586	13	-42.2	-79.5	155	8
2023-08-29T00:00	29642	13	-42.3	-79.5	157	8
2023-08-29T00:00	29656	13	-42.0	-79.3	158	8
2023-08-29T00:00	29683	13	-42.0	-80.4	158	7
2023-08-29T00:00	29702	13	-41.9	-80.4	159	7
2023-08-29T00:00	29731	13	-41.9	-80.4	160	6
2023-08-29T00:00	29742	13	-41.9	-80.4	162	6
2023-08-29T00:00	29790	13	-41.8	-80.3	164	5
2023-08-29T00:00	29810	13	-41.7	-80.2	166	5
2023-08-29T00:00	29823	13	-41.8	-80.3	169	4
2023-08-29T00:00	29858	13	-41.9	-80.4	172	3
2023-08-29T00:00	29879	13	-42.1	-80.5	177	2
2023-08-29T00:00	29911	13	-42.2	-80.6	184	2
2023-08-29T00:00	29957	13	-42.2	-80.6	193	1
2023-08-29T00:00	29968	13	-42.1	-80.5	202	1
2023-08-29T00:00	29998	13	-41.9	-80.4	157	0
2023-08-29T00:00	30031	13	-41.7	-80.2	83	1
2023-08-29T00:00	30066	12	-41.6	-80.1	87	1
2023-08-29T00:00	30089	12	-41.5	-80.1	94	2
2023-08-29T00:00	30120	12	-41.5	-80.1	100	3
2023-08-29T00:00	30154	12	-41.4	-80.0	106	4
2023-08-29T00:00	30176	12	-41.2	-79.9	110	5
2023-08-29T00:00	30207	12	-41.2	-79.9	114	5
2023-08-29T00:00	30234	12	-41.2	-79.9	118	6
2023-08-29T00:00	30267	12	-41.3	-79.9	122	7
2023-08-29T00:00	30294	12	-41.5	-80.1	126	7
2023-08-29T00:00	30331	12	-41.5	-80.1	130	8
2023-08-29T00:00	30362	12	-41.6	-80.1	134	8
2023-08-29T00:00	30392	12	-41.6	-80.1	138	9
2023-08-29T00:00	30424	12	-41.6	-80.1	142	9
2023-08-29T00:00	30432	12	-41.7	-80.2	146	9
2023-08-29T00:00	30468	12	-41.7	-80.2	151	9
2023-08-29T00:00	30509	12	-41.8	-80.3	155	9
2023-08-29T00:00	30540	12	-41.9	-80.4	158	9
2023-08-29T00:00	30558	12	-41.9	-80.4	160	9
2023-08-29T00:00	30592	12	-41.8	-80.3	160	8
2023-08-29T00:00	30623	11	-41.8	-80.3	159	7
2023-08-29T00:00	30647	11	-41.8	-80.3	156	6
2023-08-29T00:00	30670	11	-41.8	-80.3	153	6
2023-08-29T00:00	30700	11	-41.7	-80.2	151	5
2023-08-29T00:00	30724	11	-41.7	-80.2	152	5
2023-08-29T00:00	30762	11	-41.8	-80.3	155	5
2023-08-29T00:00	30791	11	-41.8	-80.3	159	5
2023-08-29T00:00	30817	11	-41.8	-80.3	164	6
2023-08-29T00:00	30840	11	-41.8	-80.3	171	6
2023-08-29T00:00	30869	11	-41.8	-80.3	178	6
2023-08-29T00:00	30898	11	-41.8	-80.3	184	7
2023-08-29T00:00	30916	11	-41.7	-80.2	190	7
2023-08-29T00:00	30958	11	-41.7	-80.2	193	8
2023-08-29T00:00	30988	11	-41.8	-80.3	196	8
2023-08-29T00:00	31003	11	-42.0	-80.4	196	9
2023-08-29T00:00	31030	11	-42.1	-80.5	196	9
2023-08-29T00:00	31047	11	-42.1	-80.5	196	8
2023-08-29T00:00	31080	11	-42.0	-80.4	195	8
2023-08-29T00:00	31089	11	-41.8	-80.3	193	7
2023-08-29T00:00	31132	11	-41.9	-80.4	190	7
2023-08-29T00:00	31145	11	-41.8	-80.3	186	6
2023-08-29T00:00	31175	11	-41.9	-80.4	181	5
2023-08-29T00:00	31204	11	-41.8	-80.3	175	5
2023-08-29T00:00	31231	11	-41.7	-80.2	170	4
2023-08-29T00:00	31243	10	-41.5	-80.1	168	4
2023-08-29T00:00	31276	10	-41.5	-80.1	167	3
2023-08-29T00:00	31293	10	-41.5	-80.1	168	3
2023-08-29T00:00	31305	10	-41.3	-79.9	170	3
2023-08-29T00:00	31337	10	-40.9	-79.7	173	2
2023-08-29T00:00	31352	10	-40.6	-79.5	176	2
2023-08-29T00:00	31383	10	-40.3	-79.2	179	2
2023-08-29T00:00	31392	10	-40.3	-79.2	182	2
2023-08-29T00:00	31425	10	-40.3	-79.2	184	2
2023-08-29T00:00	31457	10	-40.2	-79.2	186	1
2023-08-29T00:00	31462	10	-40.0	-79.0	189	1
2023-08-29T00:00	31498	10	-40.0	-79.0	197	1
2023-08-29T00:00	31520	10	-40.1	-79.1	211	1
2023-08-29T00:00	31549	10	-40.2	-79.2	230	1
2023-08-29T00:00	31585	10	-40.1	-79.1	246	1
2023-08-29T00:00	31590	10	-40.1	-79.1	259	2
2023-08-29T00:00	31621	10	-40.2	-79.2	266	2
2023-08-29T00:00	31637	10	-40.2	-79.2	271	3
2023-08-29T00:00	31671	10	-40.1	-79.1	273	4
2023-08-29T00:00	31684	10	-39.9	-79.0	272	4
2023-08-29T00:00	31717	10	-39.9	-79.0	270	5
2023-08-29T00:00	31740	10	-39.8	-78.9	266	5
2023-08-29T00:00	31753	10	-39.7	-78.8	262	5
2023-08-29T00:00	31787	10	-39.8	-78.9	261	6
2023-08-29T00:00	31806	10	-39.8	-78.9	261	7
2023-08-29T00:00	31837	10	-39.8	-78.9	263	7
2023-08-29T00:00	31850	10	-39.8	-78.9	266	8
2023-08-29T00:00	31893	10	-39.8	-78.9	270	8
2023-08-29T00:00	31910	9	-39.9	-79.0	275	8
2023-08-29T00:00	31926	9	-39.8	-78.9	279	8
2023-08-29T00:00	31973	9	-39.8	-78.9	284	8
2023-08-29T00:00	31993	9	-39.8	-78.9	289	7
2023-08-29T00:00	32009	9	-39.8	-78.9	294	7
2023-08-29T00:00	32035	9	-39.7	-78.8	299	6
2023-08-29T00:00	32084	9	-39.7	-78.8	305	6
2023-08-29T00:00	32093	9	-39.8	-78.9	312	5
2023-08-29T00:00	32103	9	-39.9	-79.0	320	5
2023-08-29T00:00	32146	9	-40.0	-79.0	329	5
2023-08-29T00:00	32161	9	-40.0	-79.0	337	4
2023-08-29T00:00	32174	9	-40.0	-79.0	345	4
2023-08-29T00:00	32220	9	-39.9	-79.0	351	4
2023-08-29T00:00	32227	9	-39.9	-79.0	355	4
2023-08-29T00:00	32242	9	-39.8	-78.9	357	4
2023-08-29T00:00	32258	9	-39.9	-79.0	356	3
2023-08-29T00:00	32291	9	-40.0	-79.0	351	3
2023-08-29T00:00	32337	9	-40.1	-79.1	344	2
2023-08-29T00:00	32360	9	-40.1	-79.1	320	2
2023-08-29T00:00	32382	9	-40.1	-79.1	305	2
2023-08-29T00:00	32406	9	-40.2	-79.2	289	2
2023-08-29T00:00	32452	9	-40.2	-79.2	277	3
2023-08-29T00:00	32454	9	-40.3	-79.2	270	3
2023-08-29T00:00	32478	9	-40.2	-79.2	267	4
2023-08-29T00:00	32504	9	-40.2	-79.2	269	4
2023-08-29T00:00	32528	9	-40.1	-79.1	273	4
2023-08-29T00:00	32534	9	-39.9	-79.0	280	4
2023-08-29T00:00	32561	9	-39.7	-78.8	288	4
2023-08-29T00:00	32583	9	-39.5	-78.7	298	4
2023-08-29T00:00	32622	9	-39.6	-78.8	310	3
2023-08-29T00:00	32658	9	-39.4	-78.6	321	3
2023-08-29T00:00	32677	8	-39.2	-78.5	350	2
2023-08-29T00:00	32682	8	-39.1	-78.4	10	2
2023-08-29T00:00	32706	8	-39.0	-78.3	33	2
2023-08-29T00:00	32738	8	-38.9	-78.3	58	2
2023-08-29T00:00	32762	8	-38.9	-78.3	78	2
2023-08-29T00:00	32796	8	-38.9	-78.3	93	3
2023-08-29T00:00	32826	8	-39.0	-78.3	102	3
2023-08-29T00:00	32843	8	-38.9	-78.3	107	3
2023-08-29T00:00	32851	8	-38.7	-78.1	109	2
2023-08-29T00:00	32905	8	-38.6	-78.1	110	2
2023-08-29T00:00	32946	8	-38.7	-78.1	118	1
2023-08-29T00:00	32963	8	-38.9	-78.3	136	1
2023-08-29T00:00	33028	8	-39.2	-78.5	203	0
2023-08-29T00:00	33038	8	-39.3	-78.5	223	0
2023-08-29T00:00	33063	8	-39.3	-78.5	229	0
2023-08-29T00:00	33088	8	-39.2	-78.5	86	0
2023-08-29T00:00	33142	8	-38.9	-78.3	78	1
2023-08-29T00:00	33164	8	-38.6	-78.1	80	2
2023-08-29T00:00	33196	8	-38.6	-78.1	84	3
2023-08-29T00:00	33220	8	-38.5	-78.0	88	3
2023-08-29T00:00	33235	8	-38.4	-77.9	92	4
2023-08-29T00:00	33264	8	-38.2	-77.8	98	4
2023-08-29T00:00	33306	8	-38.0	-77.6	103	5
2023-08-29T00:00	33324	8	-37.9	-77.6	109	5
2023-08-29T00:00	33352	8	-37.9	-77.6	114	6
2023-08-29T00:00	33373	8	-37.9	-77.6	119	6
2023-08-29T00:00	33395	8	-37.8	-77.5	123	7
2023-08-29T00:00	33405	8	-37.8	-77.5	129	7
2023-08-29T00:00	33442	8	-38.0	-77.6	134	8
2023-08-29T00:00	33475	8	-38.2	-77.8	138	8
2023-08-29T00:00	33487	8	-38.4	-77.9	142	9
2023-08-29T00:00	33509	8	-38.5	-78.0	146	9
2023-08-29T00:00	33543	7	-38.7	-78.1	148	9
2023-08-29T00:00	33575	7	-38.9	-78.3	150	9
2023-08-29T00:00	33592	7	-39.1	-78.4	151	8
2023-08-29T00:00	33653	7	-38.9	-78.3	153	8
2023-08-29T00:00	33660	7	-38.3	-77.9	155	7
2023-08-29T00:00	33663	7	-38.2	-77.8	157	7
2023-08-29T00:00	33706	7	-38.1	-77.7	159	7
2023-08-29T00:00	33740	7	-38.0	-77.6	160	7
2023-08-29T00:00	33751	7	-37.9	-77.6	161	7
2023-08-29T00:00	33772	7	-37.9	-77.6	162	7
2023-08-29T00:00	33816	7	-37.9	-77.6	164	8
2023-08-29T00:00	33834	7	-38.1	-77.7	165	8
2023-08-29T00:00	33841	7	-37.9	-77.6	167	7
2023-08-29T00:00	33877	7	-37.7	-77.4	169	7
2023-08-29T00:00	33879	7	-37.5	-77.3	171	6
2023-08-29T00:00	33912	7	-37.4	-77.2	173	6
2023-08-29T00:00	33952	7	-37.4	-77.2	176	5
2023-08-29T00:00	33960	7	-37.4	-77.2	180	4
2023-08-29T00:00	34009	7	-37.3	-77.2	186	3
2023-08-29T00:00	34034	7	-37.3	-77.2	194	3
2023-08-29T00:00	34072	7	-37.2	-77.1	222	1
2023-08-29T00:00	34133	7	-37.0	-77.0	293	1
2023-08-29T00:00	34168	7	-36.9	-76.9	333	1
2023-08-29T00:00	34176	7	-36.8	-76.8	343	1
2023-08-29T00:00	34201	7	-36.7	-76.7	351	0
2023-08-29T00:00	34254	7	-36.4	-76.5	135	0
2023-08-29T00:00	34290	7	-36.5	-76.6	154	1
2023-08-29T00:00	34300	7	-36.6	-76.7	159	2
2023-08-29T00:00	34315	7	-36.5	-76.6	161	3
2023-08-29T00:00	34333	7	-36.4	-76.5	161	4
2023-08-29T00:00	34339	7	-36.5	-76.6	161	4
2023-08-29T00:00	34353	7	-36.6	-76.7	160	5
2023-08-29T00:00	34364	7	-36.7	-76.7	161	5
2023-08-29T00:00	34407	7	-36.6	-76.7	164	5
2023-08-29T00:00	34437	7	-36.6	-76.7	169	4
2023-08-29T00:00	34473	7	-36.2	-76.4	192	3
2023-08-29T00:00	34505	7	-36.0	-76.3	209	3
2023-08-29T00:00	34507	7	-35.8	-76.1	226	3
2023-08-29T00:00	34531	6	-35.6	-76.0	241	3
2023-08-29T00:00	34546	6	-35.5	-75.9	253	3
2023-08-29T00:00	34585	6	-35.5	-75.9	262	3
2023-08-29T00:00	34617	6	-35.5	-75.9	273	4
2023-08-29T00:00	34646	6	-35.5	-75.9	284	4
2023-08-29T00:00	34671	6	-35.4	-75.8	295	4
2023-08-29T00:00	34680	6	-35.4	-75.8	306	4
2023-08-29T00:00	34711	6	-35.4	-75.8	314	5
2023-08-29T00:00	34748	6	-35.4	-75.8	320	5
2023-08-29T00:00	34797	6	-35.4	-75.8	323	5
2023-08-29T00:00	34834	6	-35.0	-75.6	326	4
2023-08-29T00:00	34882	6	-34.8	-75.4	328	3
2023-08-29T00:00	34957	6	-34.6	-75.3	339	2
2023-08-29T00:00	34987	6	-34.7	-75.4	333	1
2023-08-29T00:00	35011	6	-33.9	-74.8	288	1
2023-08-29T00:00	35030	6	-33.8	-74.7	268	2
2023-08-29T00:00	35061	6	-34.0	-74.9	258	2
2023-08-29T00:00	35115	6	-34.1	-75.0	257	2
2023-08-29T00:00	35126	6	-34.2	-75.0	263	3
2023-08-29T00:00	35178	6	-34.1	-75.0	272	3
2023-08-29T00:00	35194	6	-33.8	-74.7	289	4
2023-08-29T00:00	35219	6	-33.8	-74.7	295	4
2023-08-29T00:00	35239	6	-33.9	-74.8	301	5
2023-08-29T00:00	35286	6	-34.0	-74.9	309	5
2023-08-29T00:00	35300	6	-34.0	-74.9	316	6
2023-08-29T00:00	35337	6	-33.7	-74.7	323	6
2023-08-29T00:00	35349	6	-33.5	-74.5	328	6
2023-08-29T00:00	35386	6	-33.1	-74.3	333	7
2023-08-29T00:00	35404	6	-33.0	-74.2	334	7
2023-08-29T00:00	35458	6	-33.0	-74.2	335	8
2023-08-29T00:00	35474	6	-32.9	-74.1	334	9
2023-08-29T00:00	35510	6	-32.9	-74.1	335	9
2023-08-29T00:00	35519	6	-32.7	-74.0	337	9
2023-08-29T00:00	35556	6	-32.6	-73.9	340	9
2023-08-29T00:00	35566	6	-32.6	-73.9	344	9
2023-08-29T00:00	35578	6	-32.4	-73.8	353	9
2023-08-29T00:00	35647	6	-32.3	-73.7	357	8
2023-08-29T00:00	35661	6	-31.0	-72.8	14	8
2023-08-29T00:00	35701	6	-30.3	-72.3	21	9
2023-08-29T00:00	35703	5	-30.2	-72.3	24	10
2023-08-29T00:00	35727	5	-30.2	-72.3	25	11
2023-08-29T00:00	35736	5	-30.1	-72.2	26	11
2023-08-29T00:00	35748	5	-30.2	-72.3	27	10
2023-08-29T00:00	35780	5	-30.3	-72.3	28	10
2023-08-29T00:00	35816	5	-30.3	-72.3	29	9
2023-08-29T00:00	35817	5	-30.2	-72.3	29	9
2023-08-29T00:00	35837	5	-30.3	-72.3	29	8
2023-08-29T00:00	35843	5	-30.4	-72.4	28	7
2023-08-29T00:00	35864	5	-30.5	-72.5	29	7
2023-08-29T00:00	35878	5	-30.6	-72.5	30	7
2023-08-29T00:00	35906	5	-30.7	-72.6	33	6
2023-08-29T00:00	35944	5	-30.6	-72.5	37	7
2023-08-29T00:00	35979	5	-30.3	-72.3	45	7
2023-08-29T00:00	35998	5	-30.2	-72.3	48	8
2023-08-29T00:00	36028	5	-30.1	-72.2	50	8
2023-08-29T00:00	36029	5	-30.1	-72.2	53	8
2023-08-29T00:00	36087	5	-30.0	-72.1	57	9
2023-08-29T00:00	36102	5	-29.9	-72.1	59	9
2023-08-29T00:00	36114	5	-30.0	-72.1	61	9
2023-08-29T00:00	36132	5	-30.2	-72.3	60	9
2023-08-29T00:00	36160	5	-30.1	-72.2	59	9
2023-08-29T00:00	36223	5	-29.8	-72.0	58	9
2023-08-29T00:00	36225	5	-30.0	-72.1	57	9
2023-08-29T00:00	36237	5	-30.1	-72.2	57	8
2023-08-29T00:00	36270	5	-30.3	-72.3	56	8
2023-08-29T00:00	36286	5	-30.1	-72.2	55	8
2023-08-29T00:00	36308	5	-30.0	-72.1	54	8
2023-08-29T00:00	36320	5	-30.0	-72.1	51	8
2023-08-29T00:00	36358	5	-30.1	-72.2	49	8
2023-08-29T00:00	36370	5	-30.4	-72.4	44	7
2023-08-29T00:00	36381	5	-30.5	-72.5	43	7
2023-08-29T00:00	36396	5	-30.6	-72.5	41	7
2023-08-29T00:00	36399	5	-30.7	-72.6	41	6
2023-08-29T00:00	36436	5	-30.7	-72.6	42	6
2023-08-29T00:00	36439	5	-30.6	-72.5	44	6
2023-08-29T06:00	112	995	13.6	13.3	40	1
2023-08-29T06:00	132	993	13.5	13.4	32	2
2023-08-29T06:00	156	990	13.2	12.9	38	3
2023-08-29T06:00	176	988	13.0	12.8	40	4
2023-08-29T06:00	195	985	13.1	12.1	42	5
2023-08-29T06:00	221	982	12.9	12.2	43	5
2023-08-29T06:00	247	979	12.7	11.9	45	6
2023-08-29T06:00	277	976	12.6	11.3	47	7
2023-08-29T06:00	296	974	12.5	11.3	48	7
2023-08-29T06:00	319	971	12.4	11.1	49	7
2023-08-29T06:00	340	968	12.3	11.1	48	8
2023-08-29T06:00	365	966	12.2	10.8	47	8
2023-08-29T06:00	385	963	12.1	10.7	46	8
2023-08-29T06:00	404	961	12.0	10.7	45	8
2023-08-29T06:00	426	959	11.9	10.6	43	8
2023-08-29T06:00	447	956	11.7	10.4	42	8
2023-08-29T06:00	467	954	11.6	10.3	42	8
2023-08-29T06:00	488	951	11.6	10.4	41	8
2023-08-29T06:00	514	949	11.4	10.3	42	8
2023-08-29T06:00	537	946	11.3	10.1	42	9
2023-08-29T06:00	560	944	11.1	9.8	43	9
2023-08-29T06:00	580	941	11.0	9.8	43	10
2023-08-29T06:00	603	939	11.0	9.8	42	10
2023-08-29T06:00	624	936	10.9	9.6	40	11
2023-08-29T06:00	649	933	10.8	9.3	37	12
2023-08-29T06:00	672	931	10.8	9.4	34	12
2023-08-29T06:00	692	929	10.6	9.2	31	13
2023-08-29T06:00	710	927	10.5	9.0	29	13
2023-08-29T06:00	729	924	10.5	9.2	28	12
2023-08-29T06:00	750	922	10.4	9.1	28	12
2023-08-29T06:00	771	920	10.2	8.8	29	11
2023-08-29T06:00	793	917	10.1	9.1	31	10
2023-08-29T06:00	817	915	10.0	8.9	33	10
2023-08-29T06:00	846	912	9.9	8.7	36	10
2023-08-29T06:00	868	909	9.7	8.6	37	10
2023-08-29T06:00	886	907	9.7	8.3	36	10
2023-08-29T06:00	904	905	9.6	8.0	33	10
2023-08-29T06:00	924	903	9.5	7.9	30	10
2023-08-29T06:00	949	900	9.3	7.7	26	11
2023-08-29T06:00	968	898	9.2	7.7	23	11
2023-08-29T06:00	986	896	9.0	7.5	21	10
2023-08-29T06:00	1005	894	8.9	7.5	20	10
2023-08-29T06:00	1026	892	8.7	7.5	19	9
2023-08-29T06:00	1045	890	8.7	7.1	19	9
2023-08-29T06:00	1073	887	8.5	6.8	18	9
2023-08-29T06:00	1091	885	8.5	6.0	16	9
2023-08-29T06:00	1115	883	8.4	5.8	16	9
2023-08-29T06:00	1137	880	8.2	5.9	15	9
2023-08-29T06:00	1159	878	8.1	5.6	14	9
2023-08-29T06:00	1184	875	8.0	5.6	13	8
2023-08-29T06:00	1204	873	7.9	5.4	12	8
2023-08-29T06:00	1226	871	7.6	5.2	11	8
2023-08-29T06:00	1250	868	7.5	4.8	10	8
2023-08-29T06:00	1273	866	7.3	4.4	8	8
2023-08-29T06:00	1300	863	7.0	3.1	6	9
2023-08-29T06:00	1325	860	6.8	3.0	4	9
2023-08-29T06:00	1347	858	6.6	2.8	2	9
2023-08-29T06:00	1368	856	6.4	3.1	0	10
2023-08-29T06:00	1391	853	6.2	2.7	359	10
2023-08-29T06:00	1416	851	6.0	2.5	359	10
2023-08-29T06:00	1441	848	5.8	2.6	359	10
2023-08-29T06:00	1465	846	5.6	2.9	359	10
2023-08-29T06:00	1490	843	5.4	2.9	360	10
2023-08-29T06:00	1514	841	5.2	2.8	1	10
2023-08-29T06:00	1539	838	5.0	2.8	2	10
2023-08-29T06:00	1564	836	4.8	2.9	4	10
2023-08-29T06:00	1589	833	4.6	2.9	7	10
2023-08-29T06:00	1615	830	4.4	2.8	11	9
2023-08-29T06:00	1644	827	4.2	2.8	18	8
2023-08-29T06:00	1674	824	4.8	3.9	25	8
2023-08-29T06:00	1704	822	5.4	4.8	31	7
2023-08-29T06:00	1732	819	5.2	4.9	36	7
2023-08-29T06:00	1760	816	5.5	5.4	40	6
2023-08-29T06:00	1789	813	5.4	5.4	43	6
2023-08-29T06:00	1819	810	5.8	5.7	46	5
2023-08-29T06:00	1846	807	5.9	5.8	48	5
2023-08-29T06:00	1870	805	6.0	6.0	50	5
2023-08-29T06:00	1891	803	6.0	6.0	52	5
2023-08-29T06:00	1920	800	5.8	5.7	55	5
2023-08-29T06:00	1943	798	5.7	5.7	58	5
2023-08-29T06:00	1971	795	5.6	5.6	63	5
2023-08-29T06:00	1995	793	5.4	5.4	67	5
2023-08-29T06:00	2022	790	5.3	5.3	73	4
2023-08-29T06:00	2044	788	5.1	5.1	78	4
2023-08-29T06:00	2067	786	5.0	5.0	84	4
2023-08-29T06:00	2094	783	4.9	4.9	91	4
2023-08-29T06:00	2117	781	4.8	4.8	95	3
2023-08-29T06:00	2140	779	4.9	4.9	97	3
2023-08-29T06:00	2161	777	4.9	4.9	97	3
2023-08-29T06:00	2183	775	4.8	4.8	94	3
2023-08-29T06:00	2204	773	4.7	4.7	91	3
2023-08-29T06:00	2229	770	4.7	4.7	90	2
2023-08-29T06:00	2254	768	4.6	4.6	93	2
2023-08-29T06:00	2277	766	4.5	4.5	98	2
2023-08-29T06:00	2298	764	4.4	4.4	104	2
2023-08-29T06:00	2321	762	4.3	4.3	108	3
2023-08-29T06:00	2340	760	4.2	4.2	111	3
2023-08-29T06:00	2363	758	4.0	4.0	113	3
2023-08-29T06:00	2382	756	4.0	4.0	114	3
2023-08-29T06:00	2402	754	3.8	3.8	116	3
2023-08-29T06:00	2422	752	3.7	3.7	116	4
2023-08-29T06:00	2447	750	3.6	3.6	115	4
2023-08-29T06:00	2474	748	3.5	3.5	113	4
2023-08-29T06:00	2493	746	3.4	3.4	110	4
2023-08-29T06:00	2511	744	3.4	3.4	107	5
2023-08-29T06:00	2533	742	3.3	3.3	106	5
2023-08-29T06:00	2553	740	3.3	3.3	106	5
2023-08-29T06:00	2573	739	3.2	3.2	106	5
2023-08-29T06:00	2593	737	3.1	3.1	107	5
2023-08-29T06:00	2613	735	3.1	3.1	108	5
2023-08-29T06:00	2633	733	3.0	3.0	109	5
2023-08-29T06:00	2652	731	2.9	2.9	111	5
2023-08-29T06:00	2673	729	2.8	2.8	113	5
2023-08-29T06:00	2697	727	2.7	2.7	115	5
2023-08-29T06:00	2716	726	2.6	2.6	117	5
2023-08-29T06:00	2736	724	2.5	2.5	119	5
2023-08-29T06:00	2755	722	2.4	2.4	120	5
2023-08-29T06:00	2775	720	2.3	2.3	120	5
2023-08-29T06:00	2795	719	2.2	2.2	119	5
2023-08-29T06:00	2816	717	2.2	2.2	118	5
2023-08-29T06:00	2834	715	2.1	2.1	117	6
2023-08-29T06:00	2853	713	2.0	2.0	117	6
2023-08-29T06:00	2871	712	1.9	1.9	120	7
2023-08-29T06:00	2892	710	1.8	1.8	125	7
2023-08-29T06:00	2918	708	1.8	1.8	131	8
2023-08-29T06:00	2939	706	1.8	1.8	137	8
2023-08-29T06:00	2961	704	1.7	1.7	142	8
2023-08-29T06:00	2987	702	1.5	1.5	145	8
2023-08-29T06:00	3008	700	1.4	1.4	145	8
2023-08-29T06:00	3029	698	1.3	1.3	144	8
2023-08-29T06:00	3049	696	1.2	1.2	142	7
2023-08-29T06:00	3070	695	1.1	1.1	141	7
2023-08-29T06:00	3090	693	0.9	0.9	141	8
2023-08-29T06:00	3114	691	0.8	0.8	144	8
2023-08-29T06:00	3139	689	0.7	0.7	148	8
2023-08-29T06:00	3161	687	0.6	0.6	152	9
2023-08-29T06:00	3184	685	0.5	0.5	157	9
2023-08-29T06:00	3203	683	0.4	0.4	161	9
2023-08-29T06:00	3227	681	0.3	0.3	164	9
2023-08-29T06:00	3255	679	0.2	0.2	166	9
2023-08-29T06:00	3280	677	0.2	0.2	166	10
2023-08-29T06:00	3303	675	0.2	0.2	165	10
2023-08-29T06:00	3324	673	0.2	0.2	163	10
2023-08-29T06:00	3345	671	0.1	0.1	162	9
2023-08-29T06:00	3365	669	0.0	0.0	160	9
2023-08-29T06:00	3387	668	0.0	0.0	159	9
2023-08-29T06:00	3409	666	-0.1	-0.1	159	9
2023-08-29T06:00	3436	664	-0.3	-0.3	159	9
2023-08-29T06:00	3458	662	-0.4	-0.4	159	9
2023-08-29T06:00	3481	660	-0.5	-0.5	159	9
2023-08-29T06:00	3501	658	-0.6	-0.6	159	10
2023-08-29T06:00	3525	656	-0.7	-0.7	160	10
2023-08-29T06:00	3549	654	-0.9	-0.9	160	10
2023-08-29T06:00	3575	652	-1.0	-1.0	161	10
2023-08-29T06:00	3608	650	-1.1	-1.1	162	10
2023-08-29T06:00	3637	647	-1.3	-1.3	163	10
2023-08-29T06:00	3669	645	-1.4	-1.4	163	10
2023-08-29T06:00	3692	643	-1.5	-1.5	163	10
2023-08-29T06:00	3717	641	-1.7	-1.7	161	10
2023-08-29T06:00	3744	639	-1.8	-1.8	160	10
2023-08-29T06:00	3766	637	-1.9	-1.9	160	10
2023-08-29T06:00	3788	635	-2.0	-2.0	160	11
2023-08-29T06:00	3812	633	-2.1	-2.1	161	11
2023-08-29T06:00	3838	631	-2.2	-2.2	163	11
2023-08-29T06:00	3859	629	-2.3	-2.3	166	11
2023-08-29T06:00	3888	627	-2.2	-2.2	168	11
2023-08-29T06:00	3909	625	-2.2	-2.2	170	12
2023-08-29T06:00	3935	623	-2.3	-2.3	171	12
2023-08-29T06:00	3959	621	-2.4	-2.4	171	12
2023-08-29T06:00	3986	619	-2.5	-2.5	171	12
2023-08-29T06:00	4013	617	-2.6	-2.6	170	12
2023-08-29T06:00	4039	615	-2.7	-2.7	169	12
2023-08-29T06:00	4062	613	-2.8	-2.8	169	12
2023-08-29T06:00	4086	612	-2.9	-2.9	168	12
2023-08-29T06:00	4111	610	-3.1	-3.1	168	12
2023-08-29T06:00	4137	608	-3.2	-3.2	168	12
2023-08-29T06:00	4162	606	-3.4	-3.4	168	12
2023-08-29T06:00	4190	604	-3.6	-3.6	168	12
2023-08-29T06:00	4213	602	-3.8	-3.8	168	12
2023-08-29T06:00	4239	600	-3.9	-3.9	169	12
2023-08-29T06:00	4259	598	-4.1	-4.1	169	13
2023-08-29T06:00	4285	596	-4.3	-4.3	169	13
2023-08-29T06:00	4309	595	-4.4	-4.4	169	13
2023-08-29T06:00	4337	593	-4.5	-4.5	168	13
2023-08-29T06:00	4361	591	-4.5	-4.5	167	14
2023-08-29T06:00	4378	589	-4.4	-4.4	166	14
2023-08-29T06:00	4396	588	-4.4	-4.4	165	14
2023-08-29T06:00	4415	587	-4.2	-4.2	165	14
2023-08-29T06:00	4435	585	-4.1	-4.3	165	15
2023-08-29T06:00	4454	584	-4.1	-4.4	165	15
2023-08-29T06:00	4474	582	-4.1	-4.5	165	15
2023-08-29T06:00	4497	580	-4.2	-4.5	166	16
2023-08-29T06:00	4529	579	-4.4	-4.8	165	16
2023-08-29T06:00	4545	577	-4.5	-4.6	165	16
2023-08-29T06:00	4561	576	-4.7	-4.7	165	16
2023-08-29T06:00	4581	575	-4.8	-4.8	164	16
2023-08-29T06:00	4599	573	-4.9	-4.9	164	15
2023-08-29T06:00	4615	572	-5.0	-5.0	164	15
2023-08-29T06:00	4634	571	-5.2	-5.2	164	15
2023-08-29T06:00	4652	569	-5.3	-5.3	164	15
2023-08-29T06:00	4669	568	-5.3	-5.3	164	14
2023-08-29T06:00	4685	567	-5.4	-5.5	164	14
2023-08-29T06:00	4700	566	-5.5	-5.6	164	14
2023-08-29T06:00	4719	565	-5.6	-5.7	164	14
2023-08-29T06:00	4735	563	-5.6	-5.8	164	13
2023-08-29T06:00	4760	561	-5.7	-6.0	165	13
2023-08-29T06:00	4789	559	-5.8	-6.3	166	13
2023-08-29T06:00	4814	558	-5.8	-6.4	167	13
2023-08-29T06:00	4834	556	-6.0	-6.4	169	13
2023-08-29T06:00	4858	555	-6.2	-6.5	171	13
2023-08-29T06:00	4879	553	-6.4	-6.6	172	13
2023-08-29T06:00	4899	552	-6.6	-6.6	173	13
2023-08-29T06:00	4916	550	-6.7	-6.7	174	13
2023-08-29T06:00	4936	549	-6.7	-6.8	174	13
2023-08-29T06:00	4954	548	-6.7	-7.2	174	13
2023-08-29T06:00	4972	547	-6.8	-7.4	174	13
2023-08-29T06:00	4990	545	-6.7	-7.6	174	13
2023-08-29T06:00	5005	544	-6.8	-7.7	175	13
2023-08-29T06:00	5022	543	-6.9	-7.8	175	12
2023-08-29T06:00	5038	542	-6.8	-8.2	176	12
2023-08-29T06:00	5054	541	-6.8	-8.2	176	12
2023-08-29T06:00	5069	540	-6.8	-8.3	176	12
2023-08-29T06:00	5083	539	-6.9	-8.4	176	11
2023-08-29T06:00	5099	538	-7.0	-8.5	176	11
2023-08-29T06:00	5114	537	-7.1		176	11
2023-08-29T06:00	5131	536	-7.2	-8.6	176	11
2023-08-29T06:00	5148	534	-7.3	-8.8	176	10
2023-08-29T06:00	5163	533	-7.3	-8.9	176	10
2023-08-29T06:00	5180	532	-7.3	-9.0	176	11
2023-08-29T06:00	5197	531	-7.3	-9.2	176	11
2023-08-29T06:00	5214	530	-7.4	-9.4	174	11
2023-08-29T06:00	5231	529	-7.5	-9.6	173	11
2023-08-29T06:00	5248	528	-7.5	-9.8	172	11
2023-08-29T06:00	5262	527	-7.5	-10.1	170	11
2023-08-29T06:00	5280	525	-7.6	-10.3	169	11
2023-08-29T06:00	5299	524	-7.5	-11.1	167	11
2023-08-29T06:00	5318	523	-7.4		167	11
2023-08-29T06:00	5335	522	-7.4	-11.6	166	10
2023-08-29T06:00	5353	521	-7.4	-11.3	167	10
2023-08-29T06:00	5369	519	-7.5	-11.3	167	10
2023-08-29T06:00	5384	518	-7.6	-11.4	168	10
2023-08-29T06:00	5400	517	-7.8	-11.6	169	10
2023-08-29T06:00	5417	516	-7.9	-11.5	169	10
2023-08-29T06:00	5434	515	-8.0		169	10
2023-08-29T06:00	5451	514	-8.2	-11.6	168	11
2023-08-29T06:00	5469	513	-8.3	-11.8	168	11
2023-08-29T06:00	5489	511	-8.4	-11.8	166	11
2023-08-29T06:00	5516	510	-8.7	-12.0	165	11
2023-08-29T06:00	5535	509	-8.9	-12.1	164	11
2023-08-29T06:00	5551	507	-9.0	-12.2	162	10
2023-08-29T06:00	5568	506	-9.1	-12.3	162	10
2023-08-29T06:00	5584	505	-9.2	-12.4	161	10
2023-08-29T06:00	5600	504	-9.3	-12.5	161	10
2023-08-29T06:00	5617	503	-9.4	-12.7	161	10
2023-08-29T06:00	5634	502	-9.4	-12.9	161	10
2023-08-29T06:00	5650	501	-9.6	-13.0	161	10
2023-08-29T06:00	5666	500	-9.7	-13.0	162	10
2023-08-29T06:00	5682	499	-9.9	-13.1	162	10
2023-08-29T06:00	5700	498	-10.0	-13.2	163	10
2023-08-29T06:00	5717	497	-10.1	-13.3	164	10
2023-08-29T06:00	5734	496	-10.2	-13.5	164	10
2023-08-29T06:00	5751	494	-10.4	-13.7	164	10
2023-08-29T06:00	5768	493	-10.5	-13.7	164	10
2023-08-29T06:00	5783	492	-10.7	-13.8	164	10
2023-08-29T06:00	5802	491	-10.8	-13.9	164	10
2023-08-29T06:00	5820	490	-11.0	-14.0	164	10
2023-08-29T06:00	5836	489	-11.1	-14.0	165	10
2023-08-29T06:00	5854	488	-11.3	-14.1	165	10
2023-08-29T06:00	5872	487	-11.4	-14.2	166	10
2023-08-29T06:00	5895	485	-11.6	-14.3	166	10
2023-08-29T06:00	5920	484	-11.8	-14.4	167	10
2023-08-29T06:00	5943	482	-12.0	-14.4	167	10
2023-08-29T06:00	5966	481	-12.2	-14.5	166	10
2023-08-29T06:00	5984	480	-12.3	-14.5	164	10
2023-08-29T06:00	6002	479	-12.5	-14.6	163	10
2023-08-29T06:00	6020	477	-12.7	-14.7	162	11
2023-08-29T06:00	6040	476	-12.9	-14.8	162	11
2023-08-29T06:00	6068	474	-13.1	-14.9	163	12
2023-08-29T06:00	6096	473	-13.3	-14.8	165	12
2023-08-29T06:00	6120	471	-13.6	-14.7	166	13
2023-08-29T06:00	6136	470	-13.7	-14.7	167	13
2023-08-29T06:00	6155	469	-13.9	-14.8	168	13
2023-08-29T06:00	6178	468	-14.2	-14.9	169	13
2023-08-29T06:00	6201	466	-14.4	-15.0	171	13
2023-08-29T06:00	6221	465	-14.6	-15.1	172	13
2023-08-29T06:00	6236	464	-14.7	-15.1	173	13
2023-08-29T06:00	6252	463	-14.9	-15.2	174	13
2023-08-29T06:00	6270	462	-15.0	-15.3	173	13
2023-08-29T06:00	6288	461	-15.1	-15.4	172	13
2023-08-29T06:00	6304	460	-15.2	-15.7	171	13
2023-08-29T06:00	6322	459	-15.3	-15.7	170	13
2023-08-29T06:00	6340	458	-15.4	-15.8	169	13
2023-08-29T06:00	6364	456	-15.6	-15.9	169	13
2023-08-29T06:00	6387	455	-15.8	-15.9	169	13
2023-08-29T06:00	6407	454	-15.9	-15.9	170	14
2023-08-29T06:00	6435	452	-16.0	-16.5	169	15
2023-08-29T06:00	6461	450	-16.0	-17.0	169	15
2023-08-29T06:00	6488	449	-16.2	-17.1	169	16
2023-08-29T06:00	6505	448	-16.3	-17.0	168	16
2023-08-29T06:00	6521	447	-16.5	-17.2	168	16
2023-08-29T06:00	6539	446	-16.6	-17.2	168	16
2023-08-29T06:00	6560	445	-16.8	-17.3	168	16
2023-08-29T06:00	6579	443	-17.0	-17.6	168	16
2023-08-29T06:00	6597	442	-17.2	-17.4	168	16
2023-08-29T06:00	6615	441	-17.3	-17.5	168	16
2023-08-29T06:00	6632	440	-17.4	-17.6	168	16
2023-08-29T06:00	6655	439	-17.5	-17.7	168	17
2023-08-29T06:00	6676	438	-17.7	-17.9	168	17
2023-08-29T06:00	6694	437	-17.9	-18.1	168	17
2023-08-29T06:00	6719	435	-18.1	-18.8	169	18
2023-08-29T06:00	6743	434	-18.2	-19.2	169	18
2023-08-29T06:00	6765	433	-18.4	-19.8	170	19
2023-08-29T06:00	6788	431	-18.5	-19.7	171	19
2023-08-29T06:00	6807	430	-18.5	-20.3	171	19
2023-08-29T06:00	6830	429	-18.7	-20.3	171	19
2023-08-29T06:00	6860	427	-19.0	-20.4	172	19
2023-08-29T06:00	6881	426	-19.1	-20.5	172	19
2023-08-29T06:00	6899	425	-19.3	-20.4	173	19
2023-08-29T06:00	6919	424	-19.4	-20.6	175	19
2023-08-29T06:00	6937	423	-19.5	-21.1	176	19
2023-08-29T06:00	6954	422	-19.7	-21.3	177	19
2023-08-29T06:00	6971	421	-19.8	-21.7	178	19
2023-08-29T06:00	6989	420	-19.8	-22.2	178	19
2023-08-29T06:00	7006	419	-19.8	-22.3	178	19
2023-08-29T06:00	7026	418	-19.9	-22.3	179	19
2023-08-29T06:00	7051	416	-20.1	-22.4	180	19
2023-08-29T06:00	7077	415	-20.4	-22.6	181	19
2023-08-29T06:00	7103	413	-20.6	-22.7	182	19
2023-08-29T06:00	7123	412	-20.8	-22.8	183	19
2023-08-29T06:00	7142	411	-20.9	-23.0	183	19
2023-08-29T06:00	7157	410	-21.1	-23.1	183	20
2023-08-29T06:00	7175	409	-21.2	-23.2	182	20
2023-08-29T06:00	7192	408	-21.3	-23.3	182	20
2023-08-29T06:00	7209	407	-21.4	-23.4	181	19
2023-08-29T06:00	7225	407	-21.6	-23.8	181	19
2023-08-29T06:00	7243	406	-21.7	-23.8	181	20
2023-08-29T06:00	7263	404	-21.8	-24.0	181	20
2023-08-29T06:00	7287	403	-22.0	-24.0	182	20
2023-08-29T06:00	7312	402	-22.2	-24.3	182	21
2023-08-29T06:00	7339	400	-22.4	-24.7	182	21
2023-08-29T06:00	7363	399	-22.6	-24.6	182	21
2023-08-29T06:00	7388	398	-22.8	-24.6	181	21
2023-08-29T06:00	7414	396	-23.1	-24.8	181	21
2023-08-29T06:00	7441	395	-23.3	-24.9	180	21
2023-08-29T06:00	7466	393	-23.6	-25.0	180	21
2023-08-29T06:00	7489	392	-23.7	-25.0	180	20
2023-08-29T06:00	7516	391	-24.0	-25.1	179	20
2023-08-29T06:00	7541	389	-24.2	-25.2	179	20
2023-08-29T06:00	7564	388	-24.4	-25.2	179	20
2023-08-29T06:00	7590	387	-24.6	-25.7	179	20
2023-08-29T06:00	7615	385	-24.8	-25.8	179	20
2023-08-29T06:00	7643	384	-25.0	-26.0	180	19
2023-08-29T06:00	7666	383	-25.2	-26.2	181	19
2023-08-29T06:00	7684	382	-25.3	-26.1	182	19
2023-08-29T06:00	7703	381	-25.5	-26.2	183	19
2023-08-29T06:00	7722	380	-25.6	-26.6	183	19
2023-08-29T06:00	7740	379	-25.8	-26.5	183	18
2023-08-29T06:00	7759	378	-25.9	-26.6	183	18
2023-08-29T06:00	7777	377	-26.1	-26.8	182	18
2023-08-29T06:00	7791	376	-26.2	-26.9	182	18
2023-08-29T06:00	7809	375	-26.3	-27.1	181	18
2023-08-29T06:00	7827	374	-26.5	-27.3	181	18
2023-08-29T06:00	7843	374	-26.6	-27.5	181	18
2023-08-29T06:00	7862	373	-26.7	-27.6	181	18
2023-08-29T06:00	7880	372	-26.9	-28.2	182	18
2023-08-29T06:00	7899	371	-27.0	-28.7	183	18
2023-08-29T06:00	7914	370	-27.1	-28.7	183	18
2023-08-29T06:00	7932	369	-27.2	-28.8	183	18
2023-08-29T06:00	7950	368	-27.4	-29.0	183	18
2023-08-29T06:00	7968	367	-27.5	-29.0	183	18
2023-08-29T06:00	7990	366	-27.6	-29.6	182	18
2023-08-29T06:00	8013	365	-27.7	-30.0	181	19
2023-08-29T06:00	8040	364	-27.9	-30.1	180	19
2023-08-29T06:00	8060	362	-28.0	-30.1	179	19
2023-08-29T06:00	8080	361	-28.2	-30.3	179	19
2023-08-29T06:00	8100	360	-28.3	-30.5	178	20
2023-08-29T06:00	8122	359	-28.4	-30.9	178	20
2023-08-29T06:00	8146	358	-28.6	-31.1	177	21
2023-08-29T06:00	8164	357	-28.6	-31.5	177	21
2023-08-29T06:00	8188	356	-28.8	-31.7	176	22
2023-08-29T06:00	8212	355	-29.0	-32.4	176	22
2023-08-29T06:00	8236	354	-29.1	-32.8	176	23
2023-08-29T06:00	8263	352	-29.3	-32.9	175	23
2023-08-29T06:00	8287	351	-29.5	-32.8	175	23
2023-08-29T06:00	8311	350	-29.7	-32.9	174	23
2023-08-29T06:00	8340	349	-30.0	-33.1	174	22
2023-08-29T06:00	8364	347	-30.2	-33.1	173	22
2023-08-29T06:00	8388	346	-30.5	-33.1	173	22
2023-08-29T06:00	8412	345	-30.7	-33.4	173	22
2023-08-29T06:00	8438	344	-30.9	-33.6	173	22
2023-08-29T06:00	8464	343	-31.1	-33.5	173	22
2023-08-29T06:00	8490	341	-31.3	-33.5	173	23
2023-08-29T06:00	8515	340	-31.6	-33.7	173	23
2023-08-29T06:00	8537	339	-31.8	-33.8	173	23
2023-08-29T06:00	8557	338	-31.9	-33.6	173	24
2023-08-29T06:00	8577	337	-32.0	-34.1	173	24
2023-08-29T06:00	8598	336	-32.1	-34.6	173	24
2023-08-29T06:00	8617	335	-32.3	-34.5	173	24
2023-08-29T06:00	8635	334	-32.5	-34.4	173	25
2023-08-29T06:00	8654	333	-32.6	-34.4	173	25
2023-08-29T06:00	8672	333	-32.8	-33.9	173	25
2023-08-29T06:00	8688	332	-32.9	-33.9	173	25
2023-08-29T06:00	8706	331	-33.0	-34.2	173	25
2023-08-29T06:00	8721	330	-33.1	-34.3	173	25
2023-08-29T06:00	8739	329	-33.3	-34.5	173	25
2023-08-29T06:00	8756	329	-33.4	-34.5	173	25
2023-08-29T06:00	8772	328	-33.5	-34.7	172	25
2023-08-29T06:00	8790	327	-33.6	-35.0	172	25
2023-08-29T06:00	8809	326	-33.7	-35.1	172	25
2023-08-29T06:00	8828	325	-33.9	-35.3	172	25
2023-08-29T06:00	8844	324	-34.0	-35.5	172	25
2023-08-29T06:00	8864	324	-34.2	-36.1	172	25
2023-08-29T06:00	8886	323	-34.4	-36.3	173	25
2023-08-29T06:00	8911	321	-34.6	-36.4	173	25
2023-08-29T06:00	8931	320	-34.7	-36.2	174	25
2023-08-29T06:00	8955	319	-34.9	-36.2	175	24
2023-08-29T06:00	8977	318	-35.1	-36.4	175	24
2023-08-29T06:00	8997	317	-35.2	-36.4	176	23
2023-08-29T06:00	9018	317	-35.4	-36.1	175	23
2023-08-29T06:00	9038	316	-35.6	-36.5	175	23
2023-08-29T06:00	9056	315	-35.6	-38.4	174	22
2023-08-29T06:00	9074	314	-35.6	-38.1	173	22
2023-08-29T06:00	9089	313	-35.7	-37.5	172	23
2023-08-29T06:00	9107	313	-35.8	-38.2	171	23
2023-08-29T06:00	9125	312	-35.8	-38.6	171	23
2023-08-29T06:00	9142	311	-35.9	-38.0	171	23
2023-08-29T06:00	9160	310	-36.1	-38.1	172	23
2023-08-29T06:00	9179	309	-36.2	-38.2	172	23
2023-08-29T06:00	9196	308	-36.4	-38.2	172	23
2023-08-29T06:00	9217	308	-36.5	-38.3	171	23
2023-08-29T06:00	9235	307	-36.6	-38.5	171	24
2023-08-29T06:00	9250	306	-36.8	-38.4	171	24
2023-08-29T06:00	9268	305	-36.8	-38.4	170	24
2023-08-29T06:00	9286	305	-36.9	-39.0	169	25
2023-08-29T06:00	9305	304	-37.0	-39.3	168	25
2023-08-29T06:00	9324	303	-37.1	-39.6	167	25
2023-08-29T06:00	9347	302	-37.3	-39.9	166	25
2023-08-29T06:00	9368	301	-37.3	-40.1	166	25
2023-08-29T06:00	9387	300	-37.3	-40.5	165	25
2023-08-29T06:00	9409	299	-37.4	-41.0	164	25
2023-08-29T06:00	9430	298	-37.6	-41.2	163	25
2023-08-29T06:00	9451	297	-37.7	-41.6	162	25
2023-08-29T06:00	9472	296	-37.8	-41.7	162	25
2023-08-29T06:00	9494	296	-38.1	-41.8	162	25
2023-08-29T06:00	9514	295	-38.2	-41.8	162	25
2023-08-29T06:00	9537	294	-38.4	-42.0	162	24
2023-08-29T06:00	9555	293	-38.6	-42.0	162	24
2023-08-29T06:00	9575	292	-38.8	-42.0	162	24
2023-08-29T06:00	9595	291	-39.0	-42.0	162	24
2023-08-29T06:00	9613	290	-39.2	-42.1	161	24
2023-08-29T06:00	9631	290	-39.3	-41.9	161	24
2023-08-29T06:00	9644	289	-39.4	-41.9	160	24
2023-08-29T06:00	9663	288	-39.6	-42.0	160	25
2023-08-29T06:00	9679	288	-39.8	-42.2	160	25
2023-08-29T06:00	9698	287	-39.9	-42.2	161	24
2023-08-29T06:00	9715	286	-40.1	-42.2	161	24
2023-08-29T06:00	9730	285	-40.2	-42.3	161	24
2023-08-29T06:00	9747	285	-40.3	-42.4	160	24
2023-08-29T06:00	9760	284	-40.4	-42.4	160	24
2023-08-29T06:00	9776	284	-40.5	-42.4	160	25
2023-08-29T06:00	9794	283	-40.7	-42.5	160	25
2023-08-29T06:00	9810	282	-40.8	-42.5	160	25
2023-08-29T06:00	9825	282	-41.0	-42.8	161	25
2023-08-29T06:00	9841	281	-41.1	-43.4	161	25
2023-08-29T06:00	9856	280	-41.3	-44.2	161	25
2023-08-29T06:00	9870	280	-41.4	-44.4	161	25
2023-08-29T06:00	9886	279	-41.5	-44.9	161	25
2023-08-29T06:00	9902	278	-41.6	-44.9	161	25
2023-08-29T06:00	9920	278	-41.8	-44.9	161	25
2023-08-29T06:00	9942	277	-42.0	-45.0	161	25
2023-08-29T06:00	9958	276	-42.1	-45.1	161	25
2023-08-29T06:00	9973	275	-42.2	-45.0	161	25
2023-08-29T06:00	9992	275	-42.4	-45.1	161	25
2023-08-29T06:00	10010	274	-42.5	-45.1	161	26
2023-08-29T06:00	10026	273	-42.6	-45.4	161	26
2023-08-29T06:00	10042	273	-42.8	-45.8	161	26
2023-08-29T06:00	10057	272	-42.9	-45.8	161	26
2023-08-29T06:00	10073	271	-43.0	-46.0	161	27
2023-08-29T06:00	10089	271	-43.2	-46.3	161	27
2023-08-29T06:00	10106	270	-43.3	-46.4	161	27
2023-08-29T06:00	10123	269	-43.4	-46.3	161	27
2023-08-29T06:00	10139	269	-43.5	-46.4	161	27
2023-08-29T06:00	10156	268	-43.4	-47.3	162	28
2023-08-29T06:00	10172	267	-43.4	-48.1	162	28
2023-08-29T06:00	10191	267	-43.5	-48.3	162	28
2023-08-29T06:00	10208	266	-43.6	-48.4	162	28
2023-08-29T06:00	10226	265	-43.7	-48.4	162	28
2023-08-29T06:00	10248	264	-43.9	-48.7	162	28
2023-08-29T06:00	10272	264	-44.1	-49.0	162	28
2023-08-29T06:00	10294	263	-44.2	-49.1	163	28
2023-08-29T06:00	10317	262	-44.5	-49.1	165	28
2023-08-29T06:00	10338	261	-44.7	-49.3	166	29
2023-08-29T06:00	10363	260	-44.9	-49.6	167	29
2023-08-29T06:00	10382	259	-45.1	-49.5	167	29
2023-08-29T06:00	10406	258	-45.2	-49.6	167	29
2023-08-29T06:00	10424	258	-45.4	-50.2	167	29
2023-08-29T06:00	10442	257	-45.5	-50.7	167	29
2023-08-29T06:00	10464	256	-45.7	-51.2	167	29
2023-08-29T06:00	10483	255	-45.8	-51.3	167	29
2023-08-29T06:00	10501	255	-46.0	-51.3	167	29
2023-08-29T06:00	10518	254	-46.1	-51.3	167	30
2023-08-29T06:00	10536	253	-46.2	-51.3	167	30
2023-08-29T06:00	10560	252	-46.5	-51.3	167	30
2023-08-29T06:00	10581	252	-46.6	-51.4	167	31
2023-08-29T06:00	10606	251	-46.8	-51.7	166	31
2023-08-29T06:00	10626	250	-47.1	-52.0	165	31
2023-08-29T06:00	10648	249	-47.2	-52.0	165	30
2023-08-29T06:00	10676	248	-47.5	-52.2	165	30
2023-08-29T06:00	10701	247	-47.7	-52.5	165	30
2023-08-29T06:00	10722	246	-47.9	-52.9	165	30
2023-08-29T06:00	10746	245	-48.1	-52.9	165	30
2023-08-29T06:00	10769	245	-48.4	-53.0	165	31
2023-08-29T06:00	10789	244	-48.5	-53.0	165	31
2023-08-29T06:00	10810	243	-48.7	-53.0	165	31
2023-08-29T06:00	10832	242	-49.0	-53.2	165	31
2023-08-29T06:00	10849	242	-49.1	-53.4	165	31
2023-08-29T06:00	10868	241	-49.3	-53.7	165	31
2023-08-29T06:00	10885	240	-49.5		165	31
2023-08-29T06:00	10904	240	-49.6	-53.9	165	31
2023-08-29T06:00	10922	239	-49.7	-54.1	166	31
2023-08-29T06:00	10939	238	-49.9		166	31
2023-08-29T06:00	10960	238	-50.0	-54.9	167	31
2023-08-29T06:00	10978	237	-50.2	-55.2	167	31
2023-08-29T06:00	10996	236	-50.3	-55.4	167	31
2023-08-29T06:00	11016	235	-50.4	-55.4	168	31
2023-08-29T06:00	11033	235	-50.6	-55.7	168	31
2023-08-29T06:00	11053	234	-50.7	-56.1	168	32
2023-08-29T06:00	11073	233	-50.9	-56.4	169	32
2023-08-29T06:00	11092	233	-51.0	-56.6	169	32
2023-08-29T06:00	11113	232	-51.2	-56.7	169	32
2023-08-29T06:00	11133	231	-51.3	-56.8	169	32
2023-08-29T06:00	11149	231	-51.4	-56.8	169	33
2023-08-29T06:00	11168	230	-51.6	-57.2	169	33
2023-08-29T06:00	11188	229	-51.7	-57.4	170	33
2023-08-29T06:00	11206	229	-51.8	-57.4	170	33
2023-08-29T06:00	11226	228	-52.0		170	32
2023-08-29T06:00	11246	227	-52.2	-57.4	170	32
2023-08-29T06:00	11270	226	-52.4	-57.5	170	32
2023-08-29T06:00	11296	226	-52.7	-57.6	171	32
2023-08-29T06:00	11320	225	-52.9	-57.6	171	33
2023-08-29T06:00	11340	224	-53.1	-57.5	171	33
2023-08-29T06:00	11363	223	-53.2	-57.4	172	33
2023-08-29T06:00	11382	223	-53.4	-57.6	172	33
2023-08-29T06:00	11404	222	-53.5	-57.6	172	34
2023-08-29T06:00	11422	221	-53.7	-57.7	172	34
2023-08-29T06:00	11442	220	-53.9	-57.7	173	34
2023-08-29T06:00	11461	220	-54.0	-57.8	173	34
2023-08-29T06:00	11479	219	-54.2	-58.1	173	34
2023-08-29T06:00	11500	218	-54.4	-58.3	174	34
2023-08-29T06:00	11516	218	-54.5	-58.4	174	34
2023-08-29T06:00	11540	217	-54.7	-58.6	174	35
2023-08-29T06:00	11563	216	-54.9	-58.8	175	35
2023-08-29T06:00	11586	216	-55.0	-58.9	175	35
2023-08-29T06:00	11608	215	-55.2	-59.0	175	35
2023-08-29T06:00	11631	214	-55.4	-59.1	174	35
2023-08-29T06:00	11653	213	-55.6	-59.2	174	35
2023-08-29T06:00	11672	213	-55.7	-59.1	174	35
2023-08-29T06:00	11693	212	-55.9	-59.1	175	36
2023-08-29T06:00	11714	211	-56.1	-59.1	175	36
2023-08-29T06:00	11741	210	-56.3	-59.2	176	36
2023-08-29T06:00	11764	210	-56.5	-59.2	176	36
2023-08-29T06:00	11790	209	-56.5	-59.1	177	37
2023-08-29T06:00	11816	208	-56.7	-59.2	177	37
2023-08-29T06:00	11843	207	-56.9	-59.3	178	37
2023-08-29T06:00	11870	206	-57.2	-59.5	178	37
2023-08-29T06:00	11899	205	-57.4	-59.7	178	37
2023-08-29T06:00	11925	204	-57.7	-60.0	178	37
2023-08-29T06:00	11953	203	-57.9	-60.1	178	37
2023-08-29T06:00	11977	203	-58.2	-60.3	178	38
2023-08-29T06:00	11999	202	-58.3	-60.3	178	38
2023-08-29T06:00	12019	201	-58.5	-60.5	179	38
2023-08-29T06:00	12038	201	-58.7	-60.6	179	38
2023-08-29T06:00	12060	200	-58.9	-60.8	180	38
2023-08-29T06:00	12079	199	-59.0	-60.9	180	38
2023-08-29T06:00	12099	199	-59.2	-61.1	181	38
2023-08-29T06:00	12122	198	-59.3	-61.2	181	38
2023-08-29T06:00	12142	197	-59.4	-61.3	181	37
2023-08-29T06:00	12165	197	-59.6	-61.4	182	37
2023-08-29T06:00	12194	196	-59.8	-61.7	183	37
2023-08-29T06:00	12221	195	-59.9	-62.0	184	36
2023-08-29T06:00	12245	194	-60.0	-62.3	186	36
2023-08-29T06:00	12270	193	-60.1	-62.7	188	36
2023-08-29T06:00	12292	193	-60.2	-62.9	190	36
2023-08-29T06:00	12313	192	-60.1	-62.8	192	35
2023-08-29T06:00	12336	191	-60.0	-62.7	193	35
2023-08-29T06:00	12356	191	-59.9	-62.6	193	35
2023-08-29T06:00	12375	190	-59.7	-62.4	193	34
2023-08-29T06:00	12392	190	-59.5	-62.1	193	34
2023-08-29T06:00	12412	189	-59.4	-61.9	193	34
2023-08-29T06:00	12432	188	-59.6	-62.1	192	33
2023-08-29T06:00	12451	188	-59.7	-62.2	191	33
2023-08-29T06:00	12470	187	-59.9	-62.4	191	33
2023-08-29T06:00	12490	187	-60.0	-62.5	190	33
2023-08-29T06:00	12510	186	-60.1	-62.5	189	33
2023-08-29T06:00	12531	185	-60.1	-62.2	189	32
2023-08-29T06:00	12550	185	-60.1	-62.3	189	31
2023-08-29T06:00	12573	184	-60.2	-63.2	189	30
2023-08-29T06:00	12592	184	-59.6	-64.5	190	28
2023-08-29T06:00	12619	183	-58.2	-66.1	191	27
2023-08-29T06:00	12639	182	-57.7	-69.0	192	26
2023-08-29T06:00	12663	182	-57.1	-71.7	193	24
2023-08-29T06:00	12690	181	-56.7	-73.7	194	23
2023-08-29T06:00	12715	180	-56.7	-75.3	194	22
2023-08-29T06:00	12741	179	-56.4	-76.5	194	20
2023-08-29T06:00	12764	179	-56.1	-77.3	193	19
2023-08-29T06:00	12784	178	-56.1	-77.3	193	19
2023-08-29T06:00	12807	178	-56.0	-76.7	192	18
2023-08-29T06:00	12830	177	-56.1	-76.2	191	18
2023-08-29T06:00	12857	176	-56.1	-75.4	190	17
2023-08-29T06:00	12879	176	-56.2	-75.0	190	16
2023-08-29T06:00	12899	175	-56.3	-74.9	189	16
2023-08-29T06:00	12925	174	-56.4	-75.2	188	15
2023-08-29T06:00	12950	174	-56.4	-75.5	187	15
2023-08-29T06:00	12967	173	-56.4	-75.7	186	14
2023-08-29T06:00	12985	173	-56.3	-75.9	186	14
2023-08-29T06:00	13004	172	-55.9	-76.1	186	14
2023-08-29T06:00	13021	172	-55.6	-76.5	186	14
2023-08-29T06:00	13037	171	-55.5	-76.8	186	14
2023-08-29T06:00	13054	171	-55.5	-77.1	185	14
2023-08-29T06:00	13072	170	-55.5	-77.1	185	13
2023-08-29T06:00	13092	170	-55.2	-77.0	184	13
2023-08-29T06:00	13111	169	-54.8	-76.8	183	13
2023-08-29T06:00	13130	169	-54.8	-76.9	181	13
2023-08-29T06:00	13151	168	-54.9	-77.2	179	14
2023-08-29T06:00	13173	168	-54.7	-77.1	177	14
2023-08-29T06:00	13193	167	-54.1	-76.8	175	14
2023-08-29T06:00	13218	166	-54.1	-76.8	173	14
2023-08-29T06:00	13240	166	-54.2	-76.7	171	14
2023-08-29T06:00	13258	165	-54.3	-76.5	171	14
2023-08-29T06:00	13278	165	-54.4	-76.3	171	14
2023-08-29T06:00	13300	164	-54.5	-76.1	171	14
2023-08-29T06:00	13320	164	-54.4	-76.2	171	15
2023-08-29T06:00	13336	163	-54.5	-76.4	171	15
2023-08-29T06:00	13359	163	-54.6	-76.6	171	15
2023-08-29T06:00	13379	162	-54.7	-76.7	170	16
2023-08-29T06:00	13399	162	-54.9	-76.6	170	16
2023-08-29T06:00	13419	161	-55.0	-76.6	169	16
2023-08-29T06:00	13438	161	-55.1		168	17
2023-08-29T06:00	13458	160	-55.1	-76.9	167	17
2023-08-29T06:00	13481	160	-55.0	-77.1	166	18
2023-08-29T06:00	13501	159	-55.1	-77.3	165	18
2023-08-29T06:00	13522	159	-55.1	-77.2	164	19
2023-08-29T06:00	13540	158	-55.1	-77.0	164	19
2023-08-29T06:00	13558	158	-55.2	-77.0	164	20
2023-08-29T06:00	13579	157	-55.3	-77.2	163	20
2023-08-29T06:00	13597	157	-55.3	-77.3	163	20
2023-08-29T06:00	13615	156	-55.3	-77.6	162	21
2023-08-29T06:00	13635	156	-55.4	-77.9	161	21
2023-08-29T06:00	13655	155	-55.2	-78.0	160	21
2023-08-29T06:00	13676	155	-55.0	-78.0	160	21
2023-08-29T06:00	13697	154	-55.1	-78.5	160	21
2023-08-29T06:00	13714	154	-54.8	-78.4	161	22
2023-08-29T06:00	13732	154	-54.2	-77.9	161	22
2023-08-29T06:00	13752	153	-54.3	-78.2	162	22
2023-08-29T06:00	13771	153	-54.4	-78.3	163	22
2023-08-29T06:00	13790	152	-54.3	-78.4	164	22
2023-08-29T06:00	13807	152	-54.0	-78.2	165	22
2023-08-29T06:00	13828	151	-53.8	-77.8	165	22
2023-08-29T06:00	13848	151	-53.6	-77.5	166	22
2023-08-29T06:00	13867	150	-53.6	-77.5	167	23
2023-08-29T06:00	13886	150	-53.6	-77.5	167	22
2023-08-29T06:00	13906	149	-53.7	-77.7	168	22
2023-08-29T06:00	13928	149	-53.9	-78.3	168	22
2023-08-29T06:00	13948	149	-53.9	-78.5	168	21
2023-08-29T06:00	13966	148	-53.7	-78.1	168	21
2023-08-29T06:00	13983	148	-53.9	-78.3	168	21
2023-08-29T06:00	14004	147	-54.0	-78.2	168	21
2023-08-29T06:00	14025	147	-54.0	-77.8	168	21
2023-08-29T06:00	14041	146	-54.0	-77.6	169	21
2023-08-29T06:00	14063	146	-54.0	-77.6	170	21
2023-08-29T06:00	14083	145	-53.9	-77.9	171	21
2023-08-29T06:00	14103	145	-53.5	-78.0	173	21
2023-08-29T06:00	14122	145	-52.9	-78.2	174	20
2023-08-29T06:00	14142	144	-52.7	-78.2	176	20
2023-08-29T06:00	14162	144	-52.5	-78.3	179	20
2023-08-29T06:00	14184	143	-52.2	-78.3	181	20
2023-08-29T06:00	14207	143	-51.8	-78.3	184	20
2023-08-29T06:00	14227	142	-51.5	-78.3	187	20
2023-08-29T06:00	14247	142	-51.4	-78.3	190	20
2023-08-29T06:00	14267	141	-51.3	-78.2	192	20
2023-08-29T06:00	14288	141	-51.2	-78.4	195	20
2023-08-29T06:00	14307	140	-51.1	-78.0	197	21
2023-08-29T06:00	14331	140	-51.0		199	21
2023-08-29T06:00	14348	140	-51.0	-77.4	200	21
2023-08-29T06:00	14369	139	-50.9	-76.8	202	21
2023-08-29T06:00	14389	139	-50.9	-76.6	204	21
2023-08-29T06:00	14409	138	-50.9	-76.6	205	21
2023-08-29T06:00	14429	138	-51.0	-77.2	206	21
2023-08-29T06:00	14448	137	-51.1	-77.5	207	21
2023-08-29T06:00	14468	137	-51.1	-77.8	208	21
2023-08-29T06:00	14486	137	-51.3	-77.6	208	21
2023-08-29T06:00	14506	136	-51.4	-77.5	209	21
2023-08-29T06:00	14527	136	-51.6	-77.4	209	20
2023-08-29T06:00	14544	135	-51.8	-77.3	209	20
2023-08-29T06:00	14563	135	-52.0	-77.7	209	20
2023-08-29T06:00	14584	135	-52.2	-77.8	210	20
2023-08-29T06:00	14604	134	-52.3	-78.2	211	20
2023-08-29T06:00	14623	134	-52.5	-78.3	212	20
2023-08-29T06:00	14644	133	-52.6	-78.2	213	20
2023-08-29T06:00	14665	133	-52.7	-78.2	213	21
2023-08-29T06:00	14687	133	-52.8	-78.3	214	21
2023-08-29T06:00	14707	132	-53.0	-78.2	215	21
2023-08-29T06:00	14728	132	-53.2	-78.4	216	20
2023-08-29T06:00	14748	131	-53.3	-78.3	217	20
2023-08-29T06:00	14769	131	-53.5	-78.2	218	20
2023-08-29T06:00	14790	130	-53.7	-78.3	218	20
2023-08-29T06:00	14813	130	-53.8	-78.6	219	20
2023-08-29T06:00	14836	129	-54.0	-78.8	219	21
2023-08-29T06:00	14857	129	-54.2	-79.0	220	21
2023-08-29T06:00	14879	129	-54.4	-79.1	220	21
2023-08-29T06:00	14903	128	-54.6	-79.3	221	21
2023-08-29T06:00	14921	128	-54.8	-79.4	221	21
2023-08-29T06:00	14942	127	-55.0	-79.6	220	21
2023-08-29T06:00	14963	127	-55.2	-79.5	220	21
2023-08-29T06:00	14984	127	-55.4	-79.9	219	20
2023-08-29T06:00	15004	126	-55.5	-80.0	218	20
2023-08-29T06:00	15025	126	-55.6	-79.8	217	19
2023-08-29T06:00	15047	125	-55.5	-79.8	215	18
2023-08-29T06:00	15072	125	-55.5	-79.8	214	17
2023-08-29T06:00	15100	124	-55.6	-79.8	212	17
2023-08-29T06:00	15123	124	-55.6	-79.8	211	16
2023-08-29T06:00	15152	123	-55.8	-80.0	210	15
2023-08-29T06:00	15177	123	-55.9	-80.3	209	15
2023-08-29T06:00	15204	122	-56.1	-80.7	208	14
2023-08-29T06:00	15224	122	-56.2	-80.8	207	14
2023-08-29T06:00	15252	121	-56.4	-80.9	205	14
2023-08-29T06:00	15271	121	-56.6	-81.1	203	14
2023-08-29T06:00	15294	120	-56.7	-80.9	201	14
2023-08-29T06:00	15318	120	-56.8	-81.2	199	14
2023-08-29T06:00	15342	120	-56.9	-81.5	198	14
2023-08-29T06:00	15364	119	-56.9	-81.8	199	14
2023-08-29T06:00	15385	119	-56.3	-81.5	200	13
2023-08-29T06:00	15405	118	-55.8	-81.7	202	13
2023-08-29T06:00	15427	118	-55.6	-81.8	204	13
2023-08-29T06:00	15449	118	-55.5	-82.0	206	13
2023-08-29T06:00	15466	117	-55.5	-82.0	207	13
2023-08-29T06:00	15486	117	-55.4	-81.9	208	13
2023-08-29T06:00	15504	117	-55.5	-81.7	208	12
2023-08-29T06:00	15522	116	-55.5	-81.4	207	12
2023-08-29T06:00	15541	116	-55.6	-81.0	206	12
2023-08-29T06:00	15563	115	-55.6	-80.8	204	12
2023-08-29T06:00	15584	115	-55.7	-81.1	202	12
2023-08-29T06:00	15605	115	-55.6	-81.0	200	12
2023-08-29T06:00	15632	114	-55.6	-81.3	198	12
2023-08-29T06:00	15651	114	-55.6	-81.5	196	13
2023-08-29T06:00	15673	114	-55.5	-81.7	195	13
2023-08-29T06:00	15694	113	-55.4	-81.6	194	13
2023-08-29T06:00	15716	113	-55.4	-81.6	194	13
2023-08-29T06:00	15739	112	-55.4	-81.6	195	13
2023-08-29T06:00	15759	112	-55.6	-81.5	196	13
2023-08-29T06:00	15780	112	-55.3	-81.3	198	12
2023-08-29T06:00	15804	111	-55.0	-81.1	200	11
2023-08-29T06:00	15824	111	-55.0	-81.1	202	10
2023-08-29T06:00	15848	110	-55.0	-81.3	204	10
2023-08-29T06:00	15872	110	-55.1	-81.4	206	10
2023-08-29T06:00	15902	110	-54.9	-81.5	207	10
2023-08-29T06:00	15925	109	-54.6	-81.3	207	10
2023-08-29T06:00	15949	109	-54.6	-81.3	206	11
2023-08-29T06:00	15971	108	-54.8	-81.5	205	11
2023-08-29T06:00	15995	108	-54.9	-81.5	203	12
2023-08-29T06:00	16015	108	-54.9	-81.5	203	12
2023-08-29T06:00	16034	107	-55.0	-81.3	204	12
2023-08-29T06:00	16056	107	-55.1	-81.1	206	12
2023-08-29T06:00	16079	107	-55.2	-80.9	207	13
2023-08-29T06:00	16099	106	-55.0	-80.8	208	13
2023-08-29T06:00	16122	106	-54.9	-80.7	209	13
2023-08-29T06:00	16146	105	-54.8	-81.2	208	14
2023-08-29T06:00	16166	105	-54.7	-81.4	208	14
2023-08-29T06:00	16184	105	-54.7	-81.7	207	14
2023-08-29T06:00	16202	104	-54.7	-82.0	207	15
2023-08-29T06:00	16225	104	-54.7	-82.0	207	15
2023-08-29T06:00	16244	104	-54.9	-81.9	206	15
2023-08-29T06:00	16264	103	-55.1	-81.7	206	15
2023-08-29T06:00	16288	103	-55.2	-81.8	207	16
2023-08-29T06:00	16306	103	-55.3	-81.9	208	16
2023-08-29T06:00	16329	102	-55.3	-81.9	209	16
2023-08-29T06:00	16348	102	-55.1	-81.7	211	16
2023-08-29T06:00	16370	102	-55.1	-82.0	213	16
2023-08-29T06:00	16392	101	-55.1	-82.0	215	16
2023-08-29T06:00	16414	101	-54.9	-81.9	217	16
2023-08-29T06:00	16433	101	-54.7	-81.7	217	15
2023-08-29T06:00	16454	100	-54.6	-81.6	217	14
2023-08-29T06:00	16475	100	-54.7	-81.7	217	14
2023-08-29T06:00	16496	100	-54.9	-81.5	216	13
2023-08-29T06:00	16515	99	-55.0	-81.6	215	13
2023-08-29T06:00	16537	99	-55.1	-81.7	215	12
2023-08-29T06:00	16557	99	-55.3	-81.9	216	12
2023-08-29T06:00	16574	99	-55.5	-82.3	217	12
2023-08-29T06:00	16592	98	-55.3	-82.2	220	12
2023-08-29T06:00	16615	98	-54.9	-82.2	222	12
2023-08-29T06:00	16637	98	-54.9	-82.2	224	11
2023-08-29T06:00	16658	97	-54.8	-82.1	225	11
2023-08-29T06:00	16680	97	-54.6	-82.3	226	11
2023-08-29T06:00	16700	97	-54.5	-82.2	227	11
2023-08-29T06:00	16725	96	-54.5	-82.2	228	11
2023-08-29T06:00	16744	96	-54.4	-82.1	230	11
2023-08-29T06:00	16761	96	-54.3	-82.1	232	10
2023-08-29T06:00	16785	95	-54.4	-82.1	234	10
2023-08-29T06:00	16806	95	-54.5	-82.2	236	9
2023-08-29T06:00	16826	95	-54.0	-82.2	238	9
2023-08-29T06:00	16845	94	-53.1	-81.5	240	8
2023-08-29T06:00	16871	94	-52.8	-81.7	242	8
2023-08-29T06:00	16895	94	-52.5	-81.4	242	7
2023-08-29T06:00	16919	93	-52.5	-81.4	241	7
2023-08-29T06:00	16937	93	-52.6	-81.5	238	6
2023-08-29T06:00	16960	93	-52.8	-81.7	235	6
2023-08-29T06:00	16984	92	-53.0	-81.4	232	6
2023-08-29T06:00	17004	92	-53.2	-81.2	229	6
2023-08-29T06:00	17029	92	-53.3	-80.9	227	5
2023-08-29T06:00	17051	92	-53.6	-81.2	225	5
2023-08-29T06:00	17074	91	-53.8	-81.7	224	5
2023-08-29T06:00	17095	91	-53.8	-81.7	224	5
2023-08-29T06:00	17115	91	-53.7	-81.6	224	5
2023-08-29T06:00	17138	90	-53.7	-81.6	223	5
2023-08-29T06:00	17155	90	-53.8	-81.3	220	5
2023-08-29T06:00	17181	90	-53.8	-81.0	216	4
2023-08-29T06:00	17203	89	-53.7	-80.6	211	4
2023-08-29T06:00	17225	89	-53.7	-80.6	207	4
2023-08-29T06:00	17249	89	-53.9	-80.8	203	4
2023-08-29T06:00	17275	88	-54.0	-81.2	201	4
2023-08-29T06:00	17293	88	-53.9	-81.4	197	4
2023-08-29T06:00	17315	88	-54.0	-81.8	192	3
2023-08-29T06:00	17339	88	-54.1	-81.9	185	3
2023-08-29T06:00	17361	87	-54.2	-82.0	176	4
2023-08-29T06:00	17389	87	-54.4	-82.1	166	4
2023-08-29T06:00	17407	87	-54.4	-82.1	158	4
2023-08-29T06:00	17433	86	-54.5	-82.2	152	4
2023-08-29T06:00	17457	86	-54.6	-82.3	147	5
2023-08-29T06:00	17479	86	-54.7	-82.4	146	5
2023-08-29T06:00	17500	85	-54.9	-82.5	146	5
2023-08-29T06:00	17522	85	-55.0	-82.3	148	6
2023-08-29T06:00	17544	85	-55.1	-82.3	152	6
2023-08-29T06:00	17566	84	-55.3	-82.2	157	6
2023-08-29T06:00	17590	84	-55.3	-82.5	162	6
2023-08-29T06:00	17612	84	-55.4	-82.6	166	7
2023-08-29T06:00	17632	84	-55.5	-82.6	170	7
2023-08-29T06:00	17655	83	-55.6	-82.7	173	7
2023-08-29T06:00	17679	83	-55.7	-82.8	176	8
2023-08-29T06:00	17699	83	-55.7	-82.8	179	8
2023-08-29T06:00	17725	82	-55.8	-82.9	181	8
2023-08-29T06:00	17745	82	-55.9	-82.9	183	8
2023-08-29T06:00	17765	82	-56.0	-83.0	185	8
2023-08-29T06:00	17787	82	-56.2	-83.2	186	9
2023-08-29T06:00	17809	81	-56.3	-83.3	187	9
2023-08-29T06:00	17831	81	-56.5	-83.4	188	9
2023-08-29T06:00	17854	81	-56.6	-83.5	190	9
2023-08-29T06:00	17875	80	-56.8	-83.3	191	9
2023-08-29T06:00	17897	80	-57.0	-83.5	193	9
2023-08-29T06:00	17917	80	-57.2	-83.6	195	9
2023-08-29T06:00	17940	80	-57.4	-83.5	197	9
2023-08-29T06:00	17964	79	-57.6	-83.6	200	9
2023-08-29T06:00	17985	79	-57.6	-83.6	202	9
2023-08-29T06:00	18007	79	-57.5	-83.9	205	9
2023-08-29T06:00	18028	79	-57.6	-83.9	209	8
2023-08-29T06:00	18050	78	-57.7	-84.0	212	8
2023-08-29T06:00	18071	78	-57.7	-83.7	216	8
2023-08-29T06:00	18092	78	-57.9	-83.9	220	9
2023-08-29T06:00	18112	77	-58.0	-83.7	224	9
2023-08-29T06:00	18136	77	-58.1	-83.5	228	9
2023-08-29T06:00	18159	77	-58.1	-83.2	231	9
2023-08-29T06:00	18182	77	-58.1	-83.2	234	9
2023-08-29T06:00	18205	76	-58.0	-83.4	236	8
2023-08-29T06:00	18229	76	-57.9	-83.6	237	8
2023-08-29T06:00	18251	76	-57.7	-83.2	236	7
2023-08-29T06:00	18279	75	-57.5	-82.2	233	5
2023-08-29T06:00	18311	75	-57.4	-81.5	226	4
2023-08-29T06:00	18335	75	-57.3	-81.0	214	3
2023-08-29T06:00	18353	75	-57.0	-80.8	201	3
2023-08-29T06:00	18374	74	-56.9	-81.3	191	3
2023-08-29T06:00	18394	74	-56.6	-82.0	187	4
2023-08-29T06:00	18419	74	-56.2	-82.6	187	4
2023-08-29T06:00	18441	74	-56.2	-83.5	188	5
2023-08-29T06:00	18459	73	-56.3	-83.9	189	5
2023-08-29T06:00	18480	73	-56.5	-84.1	191	5
2023-08-29T06:00	18502	73	-56.6	-84.2	195	5
2023-08-29T06:00	18520	73	-56.6	-83.8	199	5
2023-08-29T06:00	18548	72	-56.3	-83.9	205	5
2023-08-29T06:00	18570	72	-56.2	-83.9	209	4
2023-08-29T06:00	18589	72	-56.1	-83.8	213	4
2023-08-29T06:00	18615	72	-56.2	-83.9	213	3
2023-08-29T06:00	18634	71	-56.2	-83.5	212	3
2023-08-29T06:00	18658	71	-55.8	-82.9	210	3
2023-08-29T06:00	18678	71	-55.5	-82.6	209	2
2023-08-29T06:00	18701	71	-55.4	-82.6	211	2
2023-08-29T06:00	18725	70	-55.1	-82.3	215	1
2023-08-29T06:00	18745	70	-55.0	-82.6	220	1
2023-08-29T06:00	18765	70	-54.9	-82.9	216	0
2023-08-29T06:00	18789	70	-55.0	-82.9	70	0
2023-08-29T06:00	18811	69	-55.0	-82.9	69	1
2023-08-29T06:00	18830	69	-55.0	-82.9	75	2
2023-08-29T06:00	18852	69	-54.8	-82.4	83	2
2023-08-29T06:00	18877	69	-54.4	-82.1	91	3
2023-08-29T06:00	18898	68	-54.3	-81.7	100	3
2023-08-29T06:00	18920	68	-54.5	-80.9	107	4
2023-08-29T06:00	18943	68	-54.7	-80.0	113	4
2023-08-29T06:00	18966	68	-54.7	-78.9	118	4
2023-08-29T06:00	18987	68	-54.9	-78.5	124	4
2023-08-29T06:00	19008	67	-55.0	-78.4	131	4
2023-08-29T06:00	19025	67	-55.0	-78.8	140	4
2023-08-29T06:00	19046	67	-55.0	-79.4	148	4
2023-08-29T06:00	19072	67	-54.9	-80.2	155	4
2023-08-29T06:00	19095	66	-54.9	-81.0	160	5
2023-08-29T06:00	19116	66	-55.0	-81.6	164	5
2023-08-29T06:00	19136	66	-54.7	-82.0	167	5
2023-08-29T06:00	19156	66	-54.8	-82.4	169	5
2023-08-29T06:00	19181	66	-54.9	-82.9	171	5
2023-08-29T06:00	19205	65	-54.9	-83.3	175	4
2023-08-29T06:00	19226	65	-54.5	-82.9	180	4
2023-08-29T06:00	19248	65	-54.3	-83.2	187	3
2023-08-29T06:00	19273	65	-54.2	-83.1	196	3
2023-08-29T06:00	19293	64	-54.0	-83.4	204	2
2023-08-29T06:00	19313	64	-54.1	-83.5	212	2
2023-08-29T06:00	19338	64	-54.2	-83.6	219	2
2023-08-29T06:00	19358	64	-54.1	-83.5	225	2
2023-08-29T06:00	19378	64	-54.1	-83.5	231	2
2023-08-29T06:00	19400	63	-54.1	-83.5	237	2
2023-08-29T06:00	19416	63	-53.9	-82.9	244	1
2023-08-29T06:00	19439	63	-53.9	-82.9	250	1
2023-08-29T06:00	19459	63	-54.1	-83.1	255	1
2023-08-29T06:00	19481	63	-54.2	-82.7	256	1
2023-08-29T06:00	19503	62	-54.2	-82.7	252	1
2023-08-29T06:00	19523	62	-54.3	-83.2	246	1
2023-08-29T06:00	19544	62	-54.3	-83.2	238	1
2023-08-29T06:00	19566	62	-54.2	-83.1	232	1
2023-08-29T06:00	19587	61	-54.3	-83.2	229	1
2023-08-29T06:00	19608	61	-54.5	-83.4	226	1
2023-08-29T06:00	19624	61	-54.6	-83.0	225	2
2023-08-29T06:00	19649	61	-54.7	-83.1	224	2
2023-08-29T06:00	19669	61	-54.8	-83.2	224	2
2023-08-29T06:00	19691	61	-54.9	-83.3	225	2
2023-08-29T06:00	19710	60	-55.0	-82.9	224	2
2023-08-29T06:00	19734	60	-55.2	-82.7	223	3
2023-08-29T06:00	19754	60	-55.3	-81.9	222	3
2023-08-29T06:00	19773	60	-55.2	-80.9	221	3
2023-08-29T06:00	19797	60	-55.2	-80.2	220	3
2023-08-29T06:00	19815	59	-55.2	-79.7	218	3
2023-08-29T06:00	19836	59	-55.1		216	3
2023-08-29T06:00	19857	59	-55.0	-80.5	214	3
2023-08-29T06:00	19875	59	-55.0	-81.9	214	3
2023-08-29T06:00	19895	59	-54.8	-82.8	216	3
2023-08-29T06:00	19918	58	-54.7	-83.5	220	3
2023-08-29T06:00	19938	58	-54.7	-83.5	224	3
2023-08-29T06:00	19960	58	-54.6	-83.9	230	3
2023-08-29T06:00	19980	58	-54.5	-83.8	234	3
2023-08-29T06:00	20001	58	-54.5	-83.8	237	3
2023-08-29T06:00	20025	57	-54.5	-83.8	238	3
2023-08-29T06:00	20046	57	-54.4	-83.7	239	3
2023-08-29T06:00	20067	57	-54.3	-83.2	240	4
2023-08-29T06:00	20087	57	-54.5	-83.4	243	4
2023-08-29T06:00	20111	57	-54.5	-83.4	247	4
2023-08-29T06:00	20129	56	-54.4	-82.9	253	3
2023-08-29T06:00	20150	56	-54.3	-82.8	260	3
2023-08-29T06:00	20170	56	-54.3	-82.8	265	3
2023-08-29T06:00	20189	56	-54.4	-82.9	269	3
2023-08-29T06:00	20212	56	-54.3	-82.8	270	3
2023-08-29T06:00	20235	56	-54.4	-83.3	271	3
2023-08-29T06:00	20258	55	-54.5	-83.4	272	2
2023-08-29T06:00	20278	55	-54.5	-83.4	275	2
2023-08-29T06:00	20296	55	-54.6	-83.0	283	2
2023-08-29T06:00	20319	55	-54.7	-83.1	305	1
2023-08-29T06:00	20339	55	-54.5	-82.6	21	1
2023-08-29T06:00	20359	54	-54.5	-82.2	67	1
2023-08-29T06:00	20382	54	-54.4	-81.8	81	2
2023-08-29T06:00	20402	54	-54.3	-81.7	89	3
2023-08-29T06:00	20423	54	-54.2	-82.0	96	3
2023-08-29T06:00	20444	54	-54.0	-82.6	103	4
2023-08-29T06:00	20468	54	-53.9	-82.9	109	4
2023-08-29T06:00	20486	53	-53.9	-83.3	115	4
2023-08-29T06:00	20507	53	-53.8	-83.3	121	4
2023-08-29T06:00	20532	53	-53.7	-83.7	127	4
2023-08-29T06:00	20549	53	-53.9	-83.3	132	4
2023-08-29T06:00	20571	53	-54.0	-83.4	137	4
2023-08-29T06:00	20594	53	-53.9	-83.3	140	5
2023-08-29T06:00	20613	52	-54.0	-83.4	143	5
2023-08-29T06:00	20633	52	-53.9	-83.3	146	5
2023-08-29T06:00	20656	52	-53.8	-83.3	148	6
2023-08-29T06:00	20673	52	-53.8	-83.3	150	6
2023-08-29T06:00	20697	52	-53.9	-83.3	152	6
2023-08-29T06:00	20719	52	-53.9	-83.3	154	6
2023-08-29T06:00	20733	51	-54.1	-83.5	155	6
2023-08-29T06:00	20757	51	-54.2	-83.6	156	6
2023-08-29T06:00	20771	51	-54.2	-83.6	155	6
2023-08-29T06:00	20796	51	-54.2	-83.6	153	6
2023-08-29T06:00	20819	51	-54.1	-83.5	150	6
2023-08-29T06:00	20840	51	-54.0	-83.4	148	6
2023-08-29T06:00	20859	50	-54.1	-83.5	148	5
2023-08-29T06:00	20883	50	-54.1	-83.1	148	5
2023-08-29T06:00	20900	50	-54.2	-83.1	150	5
2023-08-29T06:00	20924	50	-54.1	-83.1	154	4
2023-08-29T06:00	20948	50	-54.1	-83.5	158	4
2023-08-29T06:00	20964	50	-54.1	-83.5	164	3
2023-08-29T06:00	20987	49	-54.1	-83.5	174	3
2023-08-29T06:00	21004	49	-54.2	-83.6	189	2
2023-08-29T06:00	21031	49	-54.1	-83.5	206	2
2023-08-29T06:00	21048	49	-54.0	-83.4	223	2
2023-08-29T06:00	21070	49	-53.8	-83.3	234	2
2023-08-29T06:00	21093	49	-53.9	-83.3	243	3
2023-08-29T06:00	21118	48	-54.0	-83.4	252	3
2023-08-29T06:00	21136	48	-54.0	-83.4	261	3
2023-08-29T06:00	21157	48	-54.2	-83.6	273	2
2023-08-29T06:00	21175	48	-54.2	-83.6	287	2
2023-08-29T06:00	21197	48	-54.2	-83.6	304	2
2023-08-29T06:00	21218	48	-54.1	-83.1	324	1
2023-08-29T06:00	21239	48	-54.2	-83.1	346	1
2023-08-29T06:00	21261	47	-54.3	-83.2	9	1
2023-08-29T06:00	21281	47	-54.4	-83.3	40	1
2023-08-29T06:00	21302	47	-54.3	-83.2	79	1
2023-08-29T06:00	21324	47	-54.2	-83.1	110	1
2023-08-29T06:00	21343	47	-54.3	-83.2	128	2
2023-08-29T06:00	21361	47	-54.4	-83.3	139	2
2023-08-29T06:00	21386	46	-54.4	-83.3	147	3
2023-08-29T06:00	21406	46	-54.4	-83.3	153	3
2023-08-29T06:00	21425	46	-54.4	-82.9	158	3
2023-08-29T06:00	21450	46	-54.5	-82.2	162	3
2023-08-29T06:00	21469	46	-54.6	-81.9	166	3
2023-08-29T06:00	21489	46	-54.7	-81.7	170	3
2023-08-29T06:00	21510	46	-54.7	-81.7	175	3
2023-08-29T06:00	21532	45	-54.7	-82.0	180	3
2023-08-29T06:00	21552	45	-54.6	-82.3	186	3
2023-08-29T06:00	21578	45	-54.7	-82.7	193	3
2023-08-29T06:00	21597	45	-54.8	-82.8	201	3
2023-08-29T06:00	21621	45	-54.9	-82.9	209	3
2023-08-29T06:00	21642	45	-54.9	-82.9	218	3
2023-08-29T06:00	21659	44	-55.0	-82.9	227	3
2023-08-29T06:00	21683	44	-55.0	-82.9	237	3
2023-08-29T06:00	21702	44	-54.8	-82.8	248	3
2023-08-29T06:00	21730	44	-54.7	-83.1	261	2
2023-08-29T06:00	21751	44	-54.7	-83.1	277	2
2023-08-29T06:00	21771	44	-54.8	-83.6	295	2
2023-08-29T06:00	21796	44	-54.9	-83.7	314	2
2023-08-29T06:00	21814	43	-55.0		330	2
2023-08-29T06:00	21839	43	-55.2	-83.5	345	2
2023-08-29T06:00	21857	43	-55.3	-83.6	358	3
2023-08-29T06:00	21880	43	-55.3	-83.6	9	3
2023-08-29T06:00	21901	43	-55.4	-83.6	18	3
2023-08-29T06:00	21919	43	-55.5	-83.7	26	3
2023-08-29T06:00	21942	43	-55.4	-83.6	35	3
2023-08-29T06:00	21969	42	-55.4	-84.0	44	3
2023-08-29T06:00	21988	42	-55.5	-84.1	57	3
2023-08-29T06:00	22015	42	-55.5	-84.1	72	2
2023-08-29T06:00	22033	42	-55.6	-84.2	88	2
2023-08-29T06:00	22055	42	-55.5	-84.1	101	2
2023-08-29T06:00	22077	42	-55.5	-84.1	111	2
2023-08-29T06:00	22094	42	-55.6	-84.2	124	2
2023-08-29T06:00	22118	41	-55.5	-84.1	141	2
2023-08-29T06:00	22139	41	-55.4	-84.0	164	2
2023-08-29T06:00	22163	41	-55.3	-84.0	186	2
2023-08-29T06:00	22186	41	-55.3	-83.6	202	2
2023-08-29T06:00	22203	41	-55.4	-83.3	215	2
2023-08-29T06:00	22226	41	-55.3	-83.2	229	2
2023-08-29T06:00	22249	41	-55.2	-83.1	250	1
2023-08-29T06:00	22270	40	-55.0		277	1
2023-08-29T06:00	22292	40	-55.0	-83.7	303	1
2023-08-29T06:00	22312	40	-54.9	-83.7	322	1
2023-08-29T06:00	22334	40	-54.8	-84.0	333	1
2023-08-29T06:00	22356	40	-54.7	-84.4	339	1
2023-08-29T06:00	22380	40	-54.6	-84.3	341	1
2023-08-29T06:00	22402	40	-54.5	-84.3	341	2
2023-08-29T06:00	22424	39	-54.3	-84.1	340	2
2023-08-29T06:00	22448	39	-54.2	-84.0	341	2
2023-08-29T06:00	22465	39	-54.1	-84.0	343	2
2023-08-29T06:00	22491	39	-54.0	-83.4	346	2
2023-08-29T06:00	22507	39	-54.0	-83.4	350	2
2023-08-29T06:00	22538	39	-54.0	-83.0	352	2
2023-08-29T06:00	22559	39	-54.1	-83.1	353	2
2023-08-29T06:00	22580	39	-54.0	-83.0	352	2
2023-08-29T06:00	22601	38	-54.0	-83.4	351	2
2023-08-29T06:00	22624	38	-54.0	-83.4	352	2
2023-08-29T06:00	22642	38	-54.1	-83.1	356	2
2023-08-29T06:00	22667	38	-54.2	-82.7	3	2
2023-08-29T06:00	22693	38	-54.2	-82.3	11	2
2023-08-29T06:00	22717	38	-54.0	-82.2	18	2
2023-08-29T06:00	22738	38	-53.8	-82.0	23	2
2023-08-29T06:00	22759	37	-53.8	-82.0	24	1
2023-08-29T06:00	22781	37	-53.8	-82.4	19	1
2023-08-29T06:00	22806	37	-53.8	-82.4	5	1
2023-08-29T06:00	22822	37	-53.8	-82.8	349	1
2023-08-29T06:00	22849	37	-53.8	-82.8	342	1
2023-08-29T06:00	22876	37	-54.0	-83.0	347	1
2023-08-29T06:00	22899	37	-54.1	-83.5	0	2
2023-08-29T06:00	22918	37	-54.3	-83.6	20	2
2023-08-29T06:00	22938	36	-54.2	-83.6	42	2
2023-08-29T06:00	22965	36	-54.1	-83.5	59	2
2023-08-29T06:00	22986	36	-54.0	-83.4	73	3
2023-08-29T06:00	23013	36	-54.1	-83.1	85	3
2023-08-29T06:00	23034	36	-54.0	-83.0	97	2
2023-08-29T06:00	23058	36	-53.8	-82.8	108	2
2023-08-29T06:00	23076	36	-53.7	-82.8	122	2
2023-08-29T06:00	23097	36	-53.8	-83.3	139	1
2023-08-29T06:00	23122	35	-53.8	-83.3	158	1
2023-08-29T06:00	23145	35	-53.7	-83.7	179	1
2023-08-29T06:00	23171	35	-53.8	-83.7	203	1
2023-08-29T06:00	23186	35	-53.7	-83.7	231	0
2023-08-29T06:00	23214	35	-53.6	-83.6	268	0
2023-08-29T06:00	23231	35	-53.7	-83.7	6	0
2023-08-29T06:00	23256	35	-53.7	-83.7	54	1
2023-08-29T06:00	23272	35	-53.7	-83.2	69	1
2023-08-29T06:00	23298	34	-53.7	-83.2	76	2
2023-08-29T06:00	23319	34	-53.7	-83.2	81	2
2023-08-29T06:00	23346	34	-53.8	-82.8	86	2
2023-08-29T06:00	23366	34	-53.8	-82.8	90	3
2023-08-29T06:00	23385	34	-54.0	-83.0	95	3
2023-08-29T06:00	23413	34	-54.2	-83.1	100	2
2023-08-29T06:00	23437	34	-54.2	-83.1	108	2
2023-08-29T06:00	23455	34	-54.2	-82.7	118	1
2023-08-29T06:00	23483	33	-54.1	-82.6	133	1
2023-08-29T06:00	23500	33	-54.1	-83.1	149	1
2023-08-29T06:00	23525	33	-54.0	-83.0	159	0
2023-08-29T06:00	23546	33	-53.9	-83.3	77	0
2023-08-29T06:00	23576	33	-53.8	-83.3	40	0
2023-08-29T06:00	23595	33	-53.8	-83.3	53	1
2023-08-29T06:00	23622	33	-53.8	-83.3	73	1
2023-08-29T06:00	23647	33	-53.8	-82.8	93	1
2023-08-29T06:00	23667	33	-53.8	-82.8	108	2
2023-08-29T06:00	23688	32	-53.9	-82.9	119	2
2023-08-29T06:00	23712	32	-53.9	-83.3	127	2
2023-08-29T06:00	23737	32	-53.9	-83.3	133	3
2023-08-29T06:00	23764	32	-53.8	-83.7	138	3
2023-08-29T06:00	23785	32	-53.8	-83.7	142	3
2023-08-29T06:00	23802	32	-53.7	-83.7	143	2
2023-08-29T06:00	23834	32	-53.8	-83.7	143	2
2023-08-29T06:00	23859	32	-53.8	-83.3	141	2
2023-08-29T06:00	23879	31	-53.8	-83.3	139	2
2023-08-29T06:00	23902	31	-53.8	-82.8	137	2
2023-08-29T06:00	23929	31	-53.8	-82.8	137	2
2023-08-29T06:00	23951	31	-53.7	-82.8	137	1
2023-08-29T06:00	23975	31	-53.6	-82.7	137	1
2023-08-29T06:00	23999	31	-53.6	-82.7	136	1
2023-08-29T06:00	24021	31	-53.5	-83.0	134	1
2023-08-29T06:00	24043	31	-53.3	-82.9	131	1
2023-08-29T06:00	24065	31	-53.3		128	1
2023-08-29T06:00	24096	30	-53.2	-83.3	125	1
2023-08-29T06:00	24117	30	-53.2	-83.3	121	2
2023-08-29T06:00	24143	30	-53.3	-83.9	117	2
2023-08-29T06:00	24171	30	-53.2	-83.8	111	2
2023-08-29T06:00	24187	30	-53.1	-83.7	105	2
2023-08-29T06:00	24214	30	-53.2	-83.8	97	2
2023-08-29T06:00	24235	30	-53.3	-83.9	90	2
2023-08-29T06:00	24265	30	-53.3	-83.9	84	2
2023-08-29T06:00	24275	30	-53.3	-83.9	78	2
2023-08-29T06:00	24306	29	-53.2	-83.8	75	3
2023-08-29T06:00	24326	29	-53.0	-83.6	74	3
2023-08-29T06:00	24355	29	-52.9	-83.6	76	3
2023-08-29T06:00	24375	29	-52.8	-83.5	82	3
2023-08-29T06:00	24394	29	-52.6	-83.3	90	3
2023-08-29T06:00	24421	29	-52.6	-83.3	97	3
2023-08-29T06:00	24444	29	-52.4	-83.2	101	2
2023-08-29T06:00	24468	29	-52.1	-83.0	97	2
2023-08-29T06:00	24491	29	-51.8	-82.2	87	2
2023-08-29T06:00	24515	29	-51.4	-81.9	76	3
2023-08-29T06:00	24538	28	-50.8	-82.0	69	3
2023-08-29T06:00	24548	28	-50.5	-81.8	66	3
2023-08-29T06:00	24587	28	-50.4	-81.7	67	4
2023-08-29T06:00	24614	28	-50.1	-82.1	71	4
2023-08-29T06:00	24623	28	-50.0	-82.0	77	4
2023-08-29T06:00	24647	28	-50.0	-82.0	84	4
2023-08-29T06:00	24675	28	-50.1	-82.1	91	5
2023-08-29T06:00	24690	28	-50.1	-82.1	99	5
2023-08-29T06:00	24714	28	-50.1	-82.1	106	5
2023-08-29T06:00	24736	28	-50.2	-82.1	113	6
2023-08-29T06:00	24771	27	-50.2		120	6
2023-08-29T06:00	24785	27	-50.3	-81.6	126	6
2023-08-29T06:00	24810	27	-50.3	-82.2	132	6
2023-08-29T06:00	24838	27	-50.3	-82.2	137	6
2023-08-29T06:00	24861	27	-50.2	-82.1	143	6
2023-08-29T06:00	24886	27	-50.1	-82.1	148	5
2023-08-29T06:00	24906	27	-49.8	-81.8	153	5
2023-08-29T06:00	24933	27	-49.8	-81.8	156	5
2023-08-29T06:00	24959	27	-50.1	-82.1	158	4
2023-08-29T06:00	24983	27	-50.3	-82.2	156	4
2023-08-29T06:00	25002	26	-50.3	-82.2	152	4
2023-08-29T06:00	25030	26	-50.3	-82.2	144	3
2023-08-29T06:00	25051	26	-50.2	-82.1	137	3
2023-08-29T06:00	25079	26	-50.2	-82.1	132	4
2023-08-29T06:00	25103	26	-50.3	-82.2	130	4
2023-08-29T06:00	25131	26	-50.2	-82.1	131	4
2023-08-29T06:00	25150	26	-49.9	-81.9	132	4
2023-08-29T06:00	25177	26	-49.7	-81.8	130	4
2023-08-29T06:00	25194	26	-49.6	-82.3	125	4
2023-08-29T06:00	25230	26	-49.6	-82.3	116	3
2023-08-29T06:00	25243	26	-49.4	-82.2	108	4
2023-08-29T06:00	25270	25	-49.1	-82.0	102	4
2023-08-29T06:00	25294	25	-48.8	-81.7	98	4
2023-08-29T06:00	25318	25	-48.5	-81.5	98	4
2023-08-29T06:00	25345	25	-48.4	-81.4	98	4
2023-08-29T06:00	25364	25	-48.2	-81.3	100	5
2023-08-29T06:00	25398	25	-48.2	-81.3	102	5
2023-08-29T06:00	25417	25	-48.1	-81.2	105	5
2023-08-29T06:00	25445	25	-48.2	-81.3	108	5
2023-08-29T06:00	25463	25	-48.2	-81.3	113	6
2023-08-29T06:00	25495	25	-48.1	-81.2	117	6
2023-08-29T06:00	25516	24	-48.0	-81.2	122	6
2023-08-29T06:00	25538	24	-48.0	-81.2	126	7
2023-08-29T06:00	25566	24	-48.2	-81.3	130	7
2023-08-29T06:00	25593	24	-48.2	-82.0	134	7
2023-08-29T06:00	25610	24	-47.9	-81.8	138	7
2023-08-29T06:00	25644	24	-47.3	-81.4	143	7
2023-08-29T06:00	25668	24	-46.8	-81.0	147	6
2023-08-29T06:00	25694	24	-46.5	-80.8	150	6
2023-08-29T06:00	25711	24	-46.5	-80.8	151	5
2023-08-29T06:00	25735	24	-46.5	-80.8	152	5
2023-08-29T06:00	25761	24	-46.6	-80.9	152	5
2023-08-29T06:00	25786	24	-46.5	-80.8	153	4
2023-08-29T06:00	25813	23	-46.3	-80.6	156	4
2023-08-29T06:00	25836	23	-46.3	-80.6	161	4
2023-08-29T06:00	25868	23	-46.3	-80.6	167	4
2023-08-29T06:00	25887	23	-46.2	-80.6	172	4
2023-08-29T06:00	25907	23	-46.1	-80.5	173	4
2023-08-29T06:00	25942	23	-46.1	-80.5	171	4
2023-08-29T06:00	25968	23	-46.0	-80.4	165	4
2023-08-29T06:00	25986	23	-45.7	-80.2	158	4
2023-08-29T06:00	26008	23	-45.7	-80.2	151	4
2023-08-29T06:00	26036	23	-45.7	-80.2	146	4
2023-08-29T06:00	26061	23	-45.8	-80.3	142	5
2023-08-29T06:00	26086	22	-45.9	-80.3	138	5
2023-08-29T06:00	26114	22	-45.8	-80.3	134	5
2023-08-29T06:00	26143	22	-45.9	-80.3	130	5
2023-08-29T06:00	26158	22	-46.0	-80.4	127	5
2023-08-29T06:00	26187	22	-46.2	-80.6	124	6
2023-08-29T06:00	26216	22	-46.3	-80.6	123	6
2023-08-29T06:00	26238	22	-46.3	-80.6	123	6
2023-08-29T06:00	26262	22	-46.3	-80.6	124	6
2023-08-29T06:00	26288	22	-46.5	-80.8	127	6
2023-08-29T06:00	26317	22	-46.5	-80.8	130	5
2023-08-29T06:00	26346	22	-46.6	-80.9	133	5
2023-08-29T06:00	26365	22	-46.7	-80.9	134	5
2023-08-29T06:00	26396	21	-46.8	-81.0	133	4
2023-08-29T06:00	26415	21	-46.8	-81.0	130	4
2023-08-29T06:00	26443	21	-46.8	-81.0	125	3
2023-08-29T06:00	26471	21	-47.0	-81.1	119	3
2023-08-29T06:00	26493	21	-47.1	-81.2	114	3
2023-08-29T06:00	26524	21	-47.1	-81.2	111	3
2023-08-29T06:00	26547	21	-47.2	-81.3	111	3
2023-08-29T06:00	26576	21	-47.3	-81.4	112	3
2023-08-29T06:00	26610	21	-47.4	-81.4	114	3
2023-08-29T06:00	26634	21	-47.6	-81.6	118	3
2023-08-29T06:00	26655	21	-47.6	-81.6	123	3
2023-08-29T06:00	26678	21	-47.7	-81.6	130	2
2023-08-29T06:00	26713	20	-47.7	-81.6	137	2
2023-08-29T06:00	26737	20	-47.6	-81.6	143	2
2023-08-29T06:00	26757	20	-47.5	-81.5	147	2
2023-08-29T06:00	26790	20	-47.4	-81.4	150	2
2023-08-29T06:00	26813	20	-47.4	-81.4	153	2
2023-08-29T06:00	26835	20	-47.3	-81.4	157	2
2023-08-29T06:00	26863	20	-47.3	-81.4	163	2
2023-08-29T06:00	26891	20	-47.3	-81.4	171	2
2023-08-29T06:00	26917	20	-47.3	-81.4	178	2
2023-08-29T06:00	26943	20	-47.4	-81.4	185	2
2023-08-29T06:00	26972	20	-47.4	-81.4	191	2
2023-08-29T06:00	26991	20	-47.3	-81.4	200	2
2023-08-29T06:00	27021	20	-47.1	-81.2	212	2
2023-08-29T06:00	27049	19	-47.1	-80.5	223	2
2023-08-29T06:00	27066	19	-47.0	-80.4	232	2
2023-08-29T06:00	27091	19	-46.9	-80.4	237	2
2023-08-29T06:00	27121	19	-46.8	-80.3	241	2
2023-08-29T06:00	27142	19	-46.8	-80.3	247	2
2023-08-29T06:00	27169	19	-46.9	-80.4	257	2
2023-08-29T06:00	27195	19	-47.0	-81.1	273	2
2023-08-29T06:00	27224	19	-47.0	-81.1	293	2
2023-08-29T06:00	27241	19	-46.8	-81.0	312	2
2023-08-29T06:00	27271	19	-46.8	-81.0	329	2
2023-08-29T06:00	27289	19	-46.7	-80.9	344	3
2023-08-29T06:00	27314	19	-46.8	-81.8	357	3
2023-08-29T06:00	27332	19	-46.7	-81.7	8	3
2023-08-29T06:00	27359	19	-46.6	-81.7	15	4
2023-08-29T06:00	27381	18	-46.6	-81.7	20	4
2023-08-29T06:00	27403	18	-46.6	-81.7	25	4
2023-08-29T06:00	27435	18	-46.7	-81.7	29	4
2023-08-29T06:00	27457	18	-46.7	-81.7	34	3
2023-08-29T06:00	27472	18	-46.5	-81.6	38	3
2023-08-29T06:00	27504	18	-46.4	-81.5	40	2
2023-08-29T06:00	27519	18	-46.4	-81.5	38	2
2023-08-29T06:00	27544	18	-46.4	-81.5	31	2
2023-08-29T06:00	27575	18	-46.5	-81.6	24	2
2023-08-29T06:00	27596	18	-46.5	-80.8	23	1
2023-08-29T06:00	27613	18	-46.5	-80.8	32	1
2023-08-29T06:00	27648	18	-46.5	-80.8	65	1
2023-08-29T06:00	27668	18	-46.6	-80.9	113	1
2023-08-29T06:00	27684	18	-46.6	-80.9	139	2
2023-08-29T06:00	27717	18	-46.4	-80.7	151	2
2023-08-29T06:00	27742	18	-46.3	-80.6	157	3
2023-08-29T06:00	27767	17	-46.4	-80.7	161	3
2023-08-29T06:00	27793	17	-46.5	-81.6	163	4
2023-08-29T06:00	27817	17	-46.5	-81.6	163	4
2023-08-29T06:00	27840	17	-46.4	-81.5	163	4
2023-08-29T06:00	27865	17	-46.3	-81.4	163	4
2023-08-29T06:00	27890	17	-46.2	-81.4	163	4
2023-08-29T06:00	27916	17	-46.2	-81.4	164	4
2023-08-29T06:00	27929	17	-46.2	-81.4	165	4
2023-08-29T06:00	27949	17	-46.0	-81.2	167	4
2023-08-29T06:00	27990	17	-45.8	-81.1	170	4
2023-08-29T06:00	28003	17	-45.7	-81.0	173	5
2023-08-29T06:00	28030	17	-45.5	-80.9	176	5
2023-08-29T06:00	28057	17	-45.4	-80.8	179	6
2023-08-29T06:00	28088	17	-45.4	-80.8	180	6
2023-08-29T06:00	28109	17	-45.3	-80.7	182	7
2023-08-29T06:00	28128	17	-45.1	-80.6	184	7
2023-08-29T06:00	28152	16	-45.0	-81.4	187	7
2023-08-29T06:00	28176	16	-44.8	-81.3	191	7
2023-08-29T06:00	28211	16	-44.6	-81.2	195	7
2023-08-29T06:00	28231	16	-44.2	-80.9	199	7
2023-08-29T06:00	28252	16	-43.7	-80.5	203	7
2023-08-29T06:00	28285	16	-43.3	-80.2	205	6
2023-08-29T06:00	28299	16	-43.0	-80.0	207	6
2023-08-29T06:00	28327	16	-42.9	-80.0	207	6
2023-08-29T06:00	28358	16	-42.8	-79.9	206	6
2023-08-29T06:00	28381	16	-42.7	-79.8	204	6
2023-08-29T06:00	28405	16	-42.7	-79.8	201	5
2023-08-29T06:00	28433	16	-42.6	-79.7	197	5
2023-08-29T06:00	28451	16	-42.5	-79.7	192	5
2023-08-29T06:00	28487	16	-42.5	-79.7	188	6
2023-08-29T06:00	28507	16	-42.8	-78.9	185	6
2023-08-29T06:00	28535	16	-43.0	-79.1	182	6
2023-08-29T06:00	28560	16	-43.1		179	7
2023-08-29T06:00	28591	15	-43.2	-79.2	178	7
2023-08-29T06:00	28618	15	-43.4	-79.4	177	8
2023-08-29T06:00	28649	15	-43.5	-79.4	178	8
2023-08-29T06:00	28667	15	-43.6	-79.5	181	8
2023-08-29T06:00	28700	15	-43.5	-79.4	185	7
2023-08-29T06:00	28715	15	-43.3	-79.3	191	7
2023-08-29T06:00	28749	15	-43.3	-80.2	198	7
2023-08-29T06:00	28775	15	-43.3	-80.2	205	6
2023-08-29T06:00	28815	15	-43.2	-80.2	211	6
2023-08-29T06:00	28826	15	-43.2	-80.2	216	6
2023-08-29T06:00	28847	15	-43.3	-80.2	221	6
2023-08-29T06:00	28879	15	-43.4	-80.3	227	6
2023-08-29T06:00	28898	15	-43.5	-80.4	234	6
2023-08-29T06:00	28930	15	-43.5	-80.4	240	5
2023-08-29T06:00	28961	15	-43.6	-80.4	247	5
2023-08-29T06:00	28971	15	-43.6	-80.4	252	5
2023-08-29T06:00	29003	15	-43.6	-80.4	257	5
2023-08-29T06:00	29027	14	-43.5	-80.4	259	5
2023-08-29T06:00	29058	14	-43.4	-80.3	261	4
2023-08-29T06:00	29076	14	-43.5	-80.4	262	4
2023-08-29T06:00	29114	14	-43.6	-80.4	263	4
2023-08-29T06:00	29125	14	-43.6	-80.4	266	3
2023-08-29T06:00	29150	14	-43.6	-80.4	270	3
2023-08-29T06:00	29187	14	-43.6	-80.4	274	3
2023-08-29T06:00	29212	14	-43.5	-80.4	275	3
2023-08-29T06:00	29229	14	-43.3	-80.2	274	3
2023-08-29T06:00	29256	14	-43.2	-80.2	271	4
2023-08-29T06:00	29287	14	-43.2	-80.2	269	4
2023-08-29T06:00	29305	14	-43.3	-80.2	269	5
2023-08-29T06:00	29325	14	-43.4	-80.3	270	5
2023-08-29T06:00	29342	14	-43.4	-80.3	273	5
2023-08-29T06:00	29374	14	-43.4	-80.3	276	5
2023-08-29T06:00	29394	14	-43.1	-80.1	281	4
2023-08-29T06:00	29422	14	-43.0	-80.0	288	4
2023-08-29T06:00	29449	14	-42.9	-80.0	298	3
2023-08-29T06:00	29467	14	-42.9	-80.0	312	3
2023-08-29T06:00	29488	14	-42.8	-79.9	332	3
2023-08-29T06:00	29515	13	-42.6	-80.8	353	2
2023-08-29T06:00	29534	13	-42.3	-80.6	11	3
2023-08-29T06:00	29548	13	-41.9	-80.4	26	3
2023-08-29T06:00	29583	13	-41.7	-80.2	38	4
2023-08-29T06:00	29608	13	-41.5	-80.1	47	4
2023-08-29T06:00	29622	13	-41.4	-80.0	54	5
2023-08-29T06:00	29650	13	-41.3	-79.9	60	5
2023-08-29T06:00	29677	13	-41.2	-79.9	65	6
2023-08-29T06:00	29693	13	-41.1	-79.8	70	6
2023-08-29T06:00	29716	13	-41.0	-79.7	76	7
2023-08-29T06:00	29744	13	-40.9	-79.7	82	7
2023-08-29T06:00	29776	13	-40.8	-79.6	89	7
2023-08-29T06:00	29791	13	-40.8	-79.6	95	7
2023-08-29T06:00	29817	13	-40.8	-79.6	100	7
2023-08-29T06:00	29851	13	-40.7	-79.5	106	7
2023-08-29T06:00	29872	13	-40.7	-79.5	112	7
2023-08-29T06:00	29905	13	-40.7	-79.5	117	7
2023-08-29T06:00	29923	13	-40.7	-79.5	123	7
2023-08-29T06:00	29956	13	-40.7	-79.5	128	7
2023-08-29T06:00	29967	13	-40.8	-79.6	134	7
2023-08-29T06:00	30008	13	-40.9	-79.7	140	7
2023-08-29T06:00	30036	12	-41.0	-79.7	146	7
2023-08-29T06:00	30058	12	-41.1	-79.8	152	7
2023-08-29T06:00	30075	12	-41.1	-79.8	158	7
2023-08-29T06:00	30096	12	-41.2	-79.9	163	6
2023-08-29T06:00	30126	12	-41.3	-79.9	168	6
2023-08-29T06:00	30161	12	-41.3	-79.9	172	6
2023-08-29T06:00	30201	12	-41.4	-80.0	175	5
2023-08-29T06:00	30227	12	-41.3	-79.9	176	5
2023-08-29T06:00	30261	12	-41.2	-78.8	176	4
2023-08-29T06:00	30280	12	-41.3	-78.8	177	4
2023-08-29T06:00	30334	12	-41.4	-78.9	178	3
2023-08-29T06:00	30359	12	-41.4	-78.9	180	3
2023-08-29T06:00	30383	12	-41.4	-80.0	183	2
2023-08-29T06:00	30421	12	-41.4	-80.0	185	2
2023-08-29T06:00	30451	12	-41.4	-80.0	181	1
2023-08-29T06:00	30491	12	-41.5	-80.1	169	1
2023-08-29T06:00	30526	12	-41.5	-80.1	153	1
2023-08-29T06:00	30558	12	-41.5	-80.1	139	2
2023-08-29T06:00	30595	11	-41.5	-80.1	132	2
2023-08-29T06:00	30624	11	-41.5	-80.1	127	2
2023-08-29T06:00	30645	11	-41.7	-79.1	124	3
2023-08-29T06:00	30683	11	-41.9	-80.4	120	3
2023-08-29T06:00	30718	11	-41.8	-80.3	114	3
2023-08-29T06:00	30755	11	-41.6	-80.1	105	3
2023-08-29T06:00	30784	11	-41.5	-80.1	96	3
2023-08-29T06:00	30820	11	-41.5	-80.1	90	3
2023-08-29T06:00	30839	11	-41.5	-80.1	90	3
2023-08-29T06:00	30868	11	-41.4	-80.0	95	3
2023-08-29T06:00	30907	11	-41.1	-79.8	104	3
2023-08-29T06:00	30942	11	-40.7	-79.5	114	3
2023-08-29T06:00	30981	11	-40.5	-79.4	123	3
2023-08-29T06:00	31020	11	-40.4	-79.3	130	4
2023-08-29T06:00	31032	11	-40.3	-79.2	133	4
2023-08-29T06:00	31053	11	-40.2	-79.2	135	4
2023-08-29T06:00	31086	11	-40.1	-79.1	134	4
2023-08-29T06:00	31143	11	-40.2	-79.2	134	4
2023-08-29T06:00	31152	11	-40.4	-79.3	133	4
2023-08-29T06:00	31181	11	-40.5	-79.4	133	4
2023-08-29T06:00	31217	10	-40.7	-79.5	134	5
2023-08-29T06:00	31240	10	-40.7	-79.5	135	5
2023-08-29T06:00	31252	10	-40.6	-79.5	136	5
2023-08-29T06:00	31291	10	-40.5	-79.4	137	5
2023-08-29T06:00	31319	10	-40.4	-79.3	138	5
2023-08-29T06:00	31330	10	-40.4	-79.3	138	5
2023-08-29T06:00	31363	10	-40.3	-79.2	137	5
2023-08-29T06:00	31382	10	-40.3	-79.2	136	5
2023-08-29T06:00	31416	10	-40.3	-79.2	134	5
2023-08-29T06:00	31434	10	-40.4	-79.3	132	6
2023-08-29T06:00	31459	10	-40.3	-79.2	128	6
2023-08-29T06:00	31469	10	-40.1	-79.1	122	6
2023-08-29T06:00	31497	10	-40.0	-79.0	116	6
2023-08-29T06:00	31521	10	-39.9	-79.0	110	6
2023-08-29T06:00	31548	10	-39.7	-78.8	106	7
2023-08-29T06:00	31566	10	-39.5	-78.7	103	7
2023-08-29T06:00	31589	10	-39.3	-78.5	101	8
2023-08-29T06:00	31615	10	-39.2	-78.5	101	8
2023-08-29T06:00	31634	10	-38.9	-78.3	102	8
2023-08-29T06:00	31646	10	-38.8	-78.2	104	8
2023-08-29T06:00	31652	10	-38.7	-78.1	107	8
2023-08-29T06:00	31702	10	-38.5	-78.0	112	8
2023-08-29T06:00	31716	10	-38.3	-77.9	118	9
2023-08-29T06:00	31773	10	-38.2	-77.8	124	9
2023-08-29T06:00	31774	10	-38.2	-77.8	129	10
2023-08-29T06:00	31801	10	-38.1	-77.7	134	10
2023-08-29T06:00	31825	10	-38.1	-77.7	138	11
2023-08-29T06:00	31841	10	-38.1	-77.7	142	11
2023-08-29T06:00	31856	10	-38.1	-77.7	145	11
2023-08-29T06:00	31908	9	-38.2	-77.8	148	11
2023-08-29T06:00	31950	9	-38.3	-77.9	150	11
2023-08-29T06:00	31958	9	-38.3	-77.9	152	10
2023-08-29T06:00	31998	9	-38.3	-77.9	152	10
2023-08-29T06:00	32004	9	-38.2	-77.8	152	9
2023-08-29T06:00	32036	9	-38.1	-77.7	152	8
2023-08-29T06:00	32098	9	-38.1	-77.7	150	8
2023-08-29T06:00	32119	9	-38.2	-77.8	149	7
2023-08-29T06:00	32147	9	-38.3	-77.9	148	7
2023-08-29T06:00	32162	9	-38.4	-77.9	146	6
2023-08-29T06:00	32170	9	-38.5	-78.0	144	6
2023-08-29T06:00	32212	9	-38.7	-78.1	140	5
2023-08-29T06:00	32246	9	-38.9	-78.3	134	5
2023-08-29T06:00	32300	9	-39.1	-78.4	127	5
2023-08-29T06:00	32319	9	-39.2	-78.5	120	6
2023-08-29T06:00	32347	9	-39.3	-78.5	114	6
2023-08-29T06:00	32377	9	-39.4	-78.6	110	7
2023-08-29T06:00	32421	9	-39.4	-78.6	108	7
2023-08-29T06:00	32457	9	-39.5	-78.7	107	8
2023-08-29T06:00	32468	9	-39.6	-78.8	108	8
2023-08-29T06:00	32517	9	-39.8	-78.9	110	8
2023-08-29T06:00	32533	9	-39.9	-79.0	113	7
2023-08-29T06:00	32583	9	-40.0	-79.0	118	7
2023-08-29T06:00	32603	9	-40.3	-79.2	124	7
2023-08-29T06:00	32620	9	-40.5	-79.4	131	7
2023-08-29T06:00	32669	9	-40.5	-79.4	135	8
2023-08-29T12:00	112	995	15.0	14.0	360	4
2023-08-29T12:00	142	992	14.2	13.1	18	3
2023-08-29T12:00	167	989	14.0	12.7	16	4
2023-08-29T12:00	199	985	13.7		14	5
2023-08-29T12:00	230	982	13.4	12.4	13	6
2023-08-29T12:00	258	978	13.1	12.4	12	6
2023-08-29T12:00	284	975	12.9	12.0	13	7
2023-08-29T12:00	318	971	12.6	12.0	15	7
2023-08-29T12:00	351	968	12.3	11.9	16	8
2023-08-29T12:00	374	965	12.0	11.7	16	8
2023-08-29T12:00	396	962	11.9	11.4	16	8
2023-08-29T12:00	421	960	11.6	11.5	15	9
2023-08-29T12:00	448	956	11.5	11.5	13	9
2023-08-29T12:00	484	953	11.2	11.2	11	9
2023-08-29T12:00	509	950	11.0	11.0	9	9
2023-08-29T12:00	531	947	10.8	10.8	8	9
2023-08-29T12:00	553	945	10.6	10.6	8	9
2023-08-29T12:00	572	942	10.5	10.5	10	10
2023-08-29T12:00	599	939	10.3	10.1	13	10
2023-08-29T12:00	624	937	10.2	9.5	16	11
2023-08-29T12:00	647	934	10.0	9.4	18	11
2023-08-29T12:00	674	931	9.8	9.3	19	11
2023-08-29T12:00	697	928	9.6	9.1	19	12
2023-08-29T12:00	720	926	9.5	9.1	19	12
2023-08-29T12:00	751	922	9.3	8.9	17	12
2023-08-29T12:00	771	920	9.1	8.5	16	11
2023-08-29T12:00	793	918	8.9	8.5	14	11
2023-08-29T12:00	816	915	8.8	8.4	13	10
2023-08-29T12:00	835	913	8.7	8.2	13	10
2023-08-29T12:00	854	911	8.7	7.8	13	9
2023-08-29T12:00	872	909	8.9	7.7	13	9
2023-08-29T12:00	890	907	8.8	7.6	13	9
2023-08-29T12:00	913	904	8.6	7.6	13	9
2023-08-29T12:00	935	902	8.4	7.4	13	9
2023-08-29T12:00	959	900	8.3	7.6	13	9
2023-08-29T12:00	982	897	8.1	7.5	14	9
2023-08-29T12:00	1002	895	7.8	7.5	16	8
2023-08-29T12:00	1025	892	7.9	7.5	19	8
2023-08-29T12:00	1046	890	7.8	7.7	23	7
2023-08-29T12:00	1064	888	7.8	7.7	26	7
2023-08-29T12:00	1087	885	7.7	7.7	28	8
2023-08-29T12:00	1114	883	7.5	7.5	29	8
2023-08-29T12:00	1138	880	7.4	7.4	29	9
2023-08-29T12:00	1158	878	7.3	7.3	30	10
2023-08-29T12:00	1180	876	7.3	7.3	31	10
2023-08-29T12:00	1203	873	7.2	7.2	33	10
2023-08-29T12:00	1223	871	7.1	7.1	35	10
2023-08-29T12:00	1246	869	7.0	7.0	37	9
2023-08-29T12:00	1270	866	7.0	7.0	39	8
2023-08-29T12:00	1291	864	6.9	6.9	41	7
2023-08-29T12:00	1315	861	6.8	6.8	44	6
2023-08-29T12:00	1337	859	6.7	6.7	47	5
2023-08-29T12:00	1356	857	6.7	6.7	50	5
2023-08-29T12:00	1380	855	6.7	6.7	49	4
2023-08-29T12:00	1402	852	6.7	6.7	45	4
2023-08-29T12:00	1424	850	6.7	6.7	42	4
2023-08-29T12:00	1444	848	6.6	6.6	44	4
2023-08-29T12:00	1467	846	6.4	6.4	51	4
2023-08-29T12:00	1494	843	6.3	6.3	63	3
2023-08-29T12:00	1516	841	6.2	6.2	73	3
2023-08-29T12:00	1537	839	6.1	6.1	74	3
2023-08-29T12:00	1560	836	6.1	6.1	63	3
2023-08-29T12:00	1581	834	6.0	6.0	47	3
2023-08-29T12:00	1603	832	6.0	6.0	38	3
2023-08-29T12:00	1626	830	5.9	5.9	37	4
2023-08-29T12:00	1649	827	5.8	5.8	43	4
2023-08-29T12:00	1676	825	6.2	6.2	55	3
2023-08-29T12:00	1699	822	6.4	6.4	72	3
2023-08-29T12:00	1724	820	6.4	6.4	88	4
2023-08-29T12:00	1749	817	6.3	6.3	101	4
2023-08-29T12:00	1769	815	6.2	6.2	108	4
2023-08-29T12:00	1791	813	6.2	6.2	111	4
2023-08-29T12:00	1814	811	6.0	6.0	111	4
2023-08-29T12:00	1838	808	6.0	6.0	108	4
2023-08-29T12:00	1862	806	5.9	5.9	106	4
2023-08-29T12:00	1882	804	5.8	5.8	107	5
2023-08-29T12:00	1910	801	5.7	5.7	110	6
2023-08-29T12:00	1934	799	5.5	5.5	114	7
2023-08-29T12:00	1957	797	5.5	5.5	118	8
2023-08-29T12:00	1982	794	5.3	5.3	122	9
2023-08-29T12:00	2004	792	5.3	5.3	126	9
2023-08-29T12:00	2029	790	5.2	5.2	130	9
2023-08-29T12:00	2052	788	5.1	5.1	134	9
2023-08-29T12:00	2072	785	5.0	5.0	138	8
2023-08-29T12:00	2097	783	4.9	4.9	141	8
2023-08-29T12:00	2119	781	4.9	4.9	142	7
2023-08-29T12:00	2141	779	4.8	4.8	141	6
2023-08-29T12:00	2164	777	4.7	4.7	138	5
2023-08-29T12:00	2187	775	4.6	4.6	134	5
2023-08-29T12:00	2209	773	4.5	4.5	131	5
2023-08-29T12:00	2232	770	4.5	4.5	130	6
2023-08-29T12:00	2257	768	4.5	4.5	132	6
2023-08-29T12:00	2284	766	4.5	4.5	135	7
2023-08-29T12:00	2309	763	4.4	4.4	139	8
2023-08-29T12:00	2331	761	4.3	4.3	143	8
2023-08-29T12:00	2353	759	4.2	4.2	145	8
2023-08-29T12:00	2375	757	4.1	4.1	145	8
2023-08-29T12:00	2399	755	4.0	4.0	142	8
2023-08-29T12:00	2423	753	3.9	3.9	136	7
2023-08-29T12:00	2444	750	3.8	3.8	129	8
2023-08-29T12:00	2468	748	3.7	3.7	124	8
2023-08-29T12:00	2491	746	3.6	3.6	121	9
2023-08-29T12:00	2513	744	3.5	3.5	121	9
2023-08-29T12:00	2532	742	3.4	3.4	120	10
2023-08-29T12:00	2555	740	3.4	3.4	119	9
2023-08-29T12:00	2579	738	3.3	3.3	116	8
2023-08-29T12:00	2600	736	3.3	3.3	114	7
2023-08-29T12:00	2621	734	3.3	3.3	115	6
2023-08-29T12:00	2644	732	3.2	3.2	120	6
2023-08-29T12:00	2667	730	3.1	3.1	129	5
2023-08-29T12:00	2694	728	3.0	3.0	140	5
2023-08-29T12:00	2727	725	2.9	2.9	147	6
2023-08-29T12:00	2754	723	2.9	2.9	149	6
2023-08-29T12:00	2775	720	2.8	2.8	150	7
2023-08-29T12:00	2801	718	2.7	2.7	150	8
2023-08-29T12:00	2822	716	2.6	2.6	153	9
2023-08-29T12:00	2843	715	2.5	2.5	157	9
2023-08-29T12:00	2867	713	2.4	2.4	163	9
2023-08-29T12:00	2890	711	2.4	2.4	169	8
2023-08-29T12:00	2912	709	2.4	2.4	174	8
2023-08-29T12:00	2935	707	2.4	2.4	175	7
2023-08-29T12:00	2959	704	2.4	2.4	171	7
2023-08-29T12:00	2984	702	2.2	2.2	165	7
2023-08-29T12:00	3008	700	2.1	2.0	160	7
2023-08-29T12:00	3033	698	2.0	1.9	158	8
2023-08-29T12:00	3056	696	1.9		159	8
2023-08-29T12:00	3083	694	1.9	1.0	161	8
2023-08-29T12:00	3108	692	1.7	1.0	162	7
2023-08-29T12:00	3131	690	1.5	0.9	162	7
2023-08-29T12:00	3155	688	1.3	0.8	161	6
2023-08-29T12:00	3175	686	1.1	0.8	159	6
2023-08-29T12:00	3195	684	0.9	0.8	158	7
2023-08-29T12:00	3216	682	0.7	0.6	158	7
2023-08-29T12:00	3242	680	0.5	0.5	160	9
2023-08-29T12:00	3264	678	0.4	0.4	161	10
2023-08-29T12:00	3286	677	0.2	0.2	162	11
2023-08-29T12:00	3308	675	0.2	0.0	162	12
2023-08-29T12:00	3330	673	0.6	-0.6	162	13
2023-08-29T12:00	3355	671	0.9	-0.9	162	13
2023-08-29T12:00	3377	669	0.8	-1.0	162	13
2023-08-29T12:00	3398	667	0.6	-1.1	164	14
2023-08-29T12:00	3420	665	0.5	-1.2	167	14
2023-08-29T12:00	3443	663	0.3	-1.4	171	13
2023-08-29T12:00	3464	662	0.1	-1.5	175	12
2023-08-29T12:00	3486	660	0.0	-1.6	178	11
2023-08-29T12:00	3508	658	-0.2	-1.7	179	10
2023-08-29T12:00	3529	656	-0.4	-2.0	178	9
2023-08-29T12:00	3552	654	-0.5	-2.4	176	8
2023-08-29T12:00	3573	653	-0.6	-2.5	174	8
2023-08-29T12:00	3594	651	-0.6	-2.8	171	8
2023-08-29T12:00	3615	649	-0.6	-3.4	170	9
2023-08-29T12:00	3637	647	-0.6	-4.3	171	10
2023-08-29T12:00	3660	646	-0.8	-4.3	173	11
2023-08-29T12:00	3681	644	-0.9	-4.7	176	12
2023-08-29T12:00	3702	642	-1.1	-4.9	179	12
2023-08-29T12:00	3724	641	-1.2	-5.3	183	12
2023-08-29T12:00	3746	639	-1.4	-5.4	186	11
2023-08-29T12:00	3767	637	-1.6	-5.5	187	11
2023-08-29T12:00	3786	636	-1.8	-5.2	184	10
2023-08-29T12:00	3807	634	-1.9	-5.2	179	9
2023-08-29T12:00	3829	632	-2.1	-5.3	173	10
2023-08-29T12:00	3852	630	-2.3	-5.5	169	11
2023-08-29T12:00	3876	628	-2.5	-5.8	169	11
2023-08-29T12:00	3895	627	-2.6	-6.0	170	12
2023-08-29T12:00	3917	625	-2.7	-5.8	172	11
2023-08-29T12:00	3940	623	-2.9	-6.4	174	11
2023-08-29T12:00	3960	622	-3.0	-7.1	174	10
2023-08-29T12:00	3979	620	-3.2	-7.9	174	9
2023-08-29T12:00	4000	619	-3.2	-10.5	172	9
2023-08-29T12:00	4022	617	-3.3	-12.8	170	9
2023-08-29T12:00	4042	615	-3.4	-14.8	170	10
2023-08-29T12:00	4064	614	-3.5	-18.7	172	11
2023-08-29T12:00	4087	612	-3.6	-20.4	175	13
2023-08-29T12:00	4108	610	-3.8	-16.2	178	14
2023-08-29T12:00	4128	609	-3.6	-12.1	182	14
2023-08-29T12:00	4150	607	-3.5	-11.7	185	15
2023-08-29T12:00	4169	606	-3.6	-11.8	188	15
2023-08-29T12:00	4188	604	-3.7	-11.6	190	15
2023-08-29T12:00	4210	602	-3.8	-10.5	191	14
2023-08-29T12:00	4230	601	-3.8	-7.5	192	14
2023-08-29T12:00	4251	599	-3.7	-8.8	192	14
2023-08-29T12:00	4273	598	-3.9	-9.0	192	13
2023-08-29T12:00	4292	596	-4.1	-9.3	190	14
2023-08-29T12:00	4312	595	-4.2	-9.5	188	14
2023-08-29T12:00	4335	593	-4.4	-9.7	184	15
2023-08-29T12:00	4359	591	-4.6	-10.0	180	16
2023-08-29T12:00	4379	590	-4.7	-10.5	178	17
2023-08-29T12:00	4400	588	-4.8	-10.9	176	18
2023-08-29T12:00	4421	586	-4.7	-21.9	177	18
2023-08-29T12:00	4442	585	-4.6	-20.9	179	18
2023-08-29T12:00	4464	583	-4.7	-20.8	182	18
2023-08-29T12:00	4485	582	-4.8	-21.5	184	18
2023-08-29T12:00	4503	580	-4.9	-21.7	185	18
2023-08-29T12:00	4524	579	-5.0	-21.8	186	18
2023-08-29T12:00	4545	577	-5.1	-21.7	186	18
2023-08-29T12:00	4565	576	-5.3	-22.0	185	18
2023-08-29T12:00	4589	574	-5.3	-22.4	185	17
2023-08-29T12:00	4612	572	-5.4	-23.1	184	16
2023-08-29T12:00	4636	571	-5.6	-23.3	183	15
2023-08-29T12:00	4661	569	-5.7	-23.2	182	13
2023-08-29T12:00	4681	567	-5.8	-23.2	180	12
2023-08-29T12:00	4704	566	-6.0	-23.3	178	12
2023-08-29T12:00	4726	564	-6.1	-22.9	176	12
2023-08-29T12:00	4749	562	-6.3	-22.3	173	12
2023-08-29T12:00	4774	561	-6.5	-16.4	170	12
2023-08-29T12:00	4795	559	-6.7	-14.7	167	13
2023-08-29T12:00	4819	558	-6.9	-14.9	166	14
2023-08-29T12:00	4839	556	-7.1	-15.0	165	14
2023-08-29T12:00	4862	554	-7.3	-15.0	165	15
2023-08-29T12:00	4885	553	-7.5	-15.0	167	15
2023-08-29T12:00	4908	551	-7.7	-15.4	169	15
2023-08-29T12:00	4934	549	-7.9	-15.6	172	16
2023-08-29T12:00	4956	548	-8.0	-15.6	175	16
2023-08-29T12:00	4979	546	-8.2	-15.4	179	16
2023-08-29T12:00	5003	544	-8.4	-15.7	181	15
2023-08-29T12:00	5024	543	-8.6	-15.7	182	15
2023-08-29T12:00	5048	541	-8.8	-15.8	181	14
2023-08-29T12:00	5072	540	-9.0	-15.9	177	13
2023-08-29T12:00	5097	538	-9.1	-16.4	173	14
2023-08-29T12:00	5120	536	-9.3	-17.1	169	14
2023-08-29T12:00	5143	534	-9.4		168	15
2023-08-29T12:00	5179	532	-9.6	-16.9	169	15
2023-08-29T12:00	5211	530	-9.9	-17.2	170	16
2023-08-29T12:00	5236	528	-10.1	-17.8	171	17
2023-08-29T12:00	5261	527	-10.2	-20.2	171	18
2023-08-29T12:00	5284	525	-10.4	-20.5	172	19
2023-08-29T12:00	5307	523	-10.6	-22.3	173	19
2023-08-29T12:00	5330	522	-10.5	-28.0	174	19
2023-08-29T12:00	5353	520	-10.5	-29.9	175	19
2023-08-29T12:00	5378	519	-10.5	-30.1	177	19
2023-08-29T12:00	5401	517	-10.5	-30.0	178	19
2023-08-29T12:00	5424	516	-10.5	-29.2	179	19
2023-08-29T12:00	5448	514	-10.7	-28.8	179	19
2023-08-29T12:00	5472	512	-10.9	-28.8	179	18
2023-08-29T12:00	5496	511	-11.1	-28.9	178	18
2023-08-29T12:00	5527	509	-11.4	-28.9	178	18
2023-08-29T12:00	5562	506	-11.7	-28.9	177	17
2023-08-29T12:00	5590	504	-12.0	-28.6	177	16
2023-08-29T12:00	5622	503	-12.2	-28.3	176	16
2023-08-29T12:00	5643	501	-12.4	-27.4	176	16
2023-08-29T12:00	5664	500	-12.6	-26.4	176	16
2023-08-29T12:00	5690	498	-12.8	-24.8	176	17
2023-08-29T12:00	5727	496	-13.1	-21.2	177	18
2023-08-29T12:00	5752	494	-13.1	-17.8	179	19
2023-08-29T12:00	5777	492	-13.2	-18.0	181	19
2023-08-29T12:00	5799	491	-13.2	-20.2	182	20
2023-08-29T12:00	5823	489	-13.2	-22.7	184	20
2023-08-29T12:00	5843	488	-13.3	-22.5	184	19
2023-08-29T12:00	5870	486	-13.5	-22.5	184	19
2023-08-29T12:00	5893	485	-13.7	-23.0	183	19
2023-08-29T12:00	5918	483	-13.9	-23.6	181	20
2023-08-29T12:00	5950	481	-14.1	-25.2	178	21
2023-08-29T12:00	5978	479	-14.3	-26.3	176	22
2023-08-29T12:00	6004	478	-14.6	-26.9	174	22
2023-08-29T12:00	6028	476	-14.8	-28.5	174	23
2023-08-29T12:00	6050	475	-14.9	-29.4	173	22
2023-08-29T12:00	6079	473	-15.1	-30.6	173	21
2023-08-29T12:00	6112	471	-15.3	-31.1	172	20
2023-08-29T12:00	6138	469	-15.4	-31.1	171	19
2023-08-29T12:00	6162	468	-15.6	-31.3	171	18
2023-08-29T12:00	6185	466	-15.7	-31.3	172	18
2023-08-29T12:00	6210	465	-15.9	-32.1	174	18
2023-08-29T12:00	6237	463	-15.8	-33.6	177	18
2023-08-29T12:00	6261	462	-15.8	-34.0	178	19
2023-08-29T12:00	6287	460	-15.8	-33.3	179	20
2023-08-29T12:00	6310	459	-15.9	-33.2	179	21
2023-08-29T12:00	6338	457	-16.1	-33.1	178	22
2023-08-29T12:00	6361	456	-16.3	-33.0	178	23
2023-08-29T12:00	6389	454	-16.5	-33.6	178	24
2023-08-29T12:00	6416	452	-16.7	-33.7	178	24
2023-08-29T12:00	6438	451	-16.9	-34.0	177	24
2023-08-29T12:00	6461	450	-17.0	-34.3	177	24
2023-08-29T12:00	6488	448	-17.3	-34.5	176	23
2023-08-29T12:00	6523	446	-17.5	-35.0	175	22
2023-08-29T12:00	6551	444	-17.7	-36.0	173	21
2023-08-29T12:00	6579	443	-17.9	-36.0	172	21
2023-08-29T12:00	6599	441	-18.1	-36.1	172	21
2023-08-29T12:00	6627	440	-18.3	-36.6	173	22
2023-08-29T12:00	6650	438	-18.5	-36.9	174	22
2023-08-29T12:00	6685	437	-18.6	-38.4	174	23
2023-08-29T12:00	6708	435	-18.7	-37.7	174	23
2023-08-29T12:00	6733	434	-18.8	-34.5	173	24
2023-08-29T12:00	6761	432	-18.8	-35.7	172	25
2023-08-29T12:00	6783	431	-19.0	-35.2	170	25
2023-08-29T12:00	6809	429	-19.2	-33.2	169	26
2023-08-29T12:00	6835	428	-19.4	-31.6	168	25
2023-08-29T12:00	6856	426	-19.6	-31.2	167	25
2023-08-29T12:00	6882	425	-19.8	-31.0	167	25
2023-08-29T12:00	6905	424	-20.0	-30.7	167	25
2023-08-29T12:00	6931	422	-20.3	-27.6	168	24
2023-08-29T12:00	6957	421	-20.6	-27.1	169	24
2023-08-29T12:00	6976	420	-20.7	-26.0	170	24
2023-08-29T12:00	7000	418	-20.9	-25.5	172	24
2023-08-29T12:00	7033	417	-21.2	-24.0	173	25
2023-08-29T12:00	7058	415	-21.4	-24.4	173	25
2023-08-29T12:00	7083	414	-21.5	-24.6	172	26
2023-08-29T12:00	7105	412	-21.5	-27.9	171	26
2023-08-29T12:00	7134	411	-21.6	-35.1	169	26
2023-08-29T12:00	7156	409	-21.8	-29.9	167	25
2023-08-29T12:00	7184	408	-21.9	-31.7	166	25
2023-08-29T12:00	7203	407	-22.1	-33.8	167	24
2023-08-29T12:00	7228	406	-22.2	-33.8	167	23
2023-08-29T12:00	7252	404	-22.4	-32.4	168	23
2023-08-29T12:00	7282	403	-22.6	-33.4	167	22
2023-08-29T12:00	7304	401	-22.7	-33.4	166	23
2023-08-29T12:00	7329	400	-22.8	-35.3	165	23
2023-08-29T12:00	7355	399	-22.9	-36.1	165	24
2023-08-29T12:00	7383	397	-23.3	-37.7	165	25
2023-08-29T12:00	7420	395	-23.6	-36.5	165	26
2023-08-29T12:00	7441	394	-23.7	-33.4	166	27
2023-08-29T12:00	7465	393	-23.8	-32.1	166	27
2023-08-29T12:00	7489	391	-24.0	-30.8	166	27
2023-08-29T12:00	7514	390	-24.1	-29.3	165	28
2023-08-29T12:00	7538	389	-24.3	-29.0	165	29
2023-08-29T12:00	7566	387	-24.6	-29.0	165	29
2023-08-29T12:00	7587	386	-24.7	-29.9	166	30
2023-08-29T12:00	7608	385	-24.8	-30.8	168	30
2023-08-29T12:00	7638	383	-25.0	-31.7	169	30
2023-08-29T12:00	7665	382	-25.2	-32.4	171	30
2023-08-29T12:00	7690	381	-25.4	-32.7	172	31
2023-08-29T12:00	7716	379	-25.5	-32.5	173	31
2023-08-29T12:00	7740	378	-25.8	-32.3	173	31
2023-08-29T12:00	7776	376	-26.0	-31.6	173	32
2023-08-29T12:00	7806	375	-26.2	-31.3	173	32
2023-08-29T12:00	7829	373	-26.3	-31.0	173	33
2023-08-29T12:00	7859	372	-26.5	-31.5	173	34
2023-08-29T12:00	7882	371	-26.7	-31.5	172	34
2023-08-29T12:00	7908	369	-26.9	-31.4	172	34
2023-08-29T12:00	7931	368	-27.1	-31.5	172	33
2023-08-29T12:00	7963	367	-27.3	-31.2	172	33
2023-08-29T12:00	7986	365	-27.5	-31.4	172	32
2023-08-29T12:00	8012	364	-27.8	-31.5	172	32
2023-08-29T12:00	8041	363	-28.0	-31.4	172	32
2023-08-29T12:00	8070	361	-28.3	-31.6	172	32
2023-08-29T12:00	8097	360	-28.6	-31.6	171	32
2023-08-29T12:00	8126	358	-28.8	-31.9	171	31
2023-08-29T12:00	8151	357	-28.9	-32.1	171	31
2023-08-29T12:00	8186	355	-29.3	-32.5	171	31
2023-08-29T12:00	8219	354	-29.5	-33.0	170	30
2023-08-29T12:00	8243	352	-29.5	-34.2	170	30
2023-08-29T12:00	8273	351	-29.7	-34.4	169	30
2023-08-29T12:00	8298	350	-29.9	-34.2	168	29
2023-08-29T12:00	8322	349	-30.1	-34.5	168	29
2023-08-29T12:00	8346	347	-30.4	-34.5	169	29
2023-08-29T12:00	8371	346	-30.6	-34.4	170	29
2023-08-29T12:00	8398	345	-30.9	-34.5	171	29
2023-08-29T12:00	8422	344	-31.1	-34.7	173	31
2023-08-29T12:00	8462	342	-31.4	-34.6	174	32
2023-08-29T12:00	8492	340	-31.7	-34.7	174	34
2023-08-29T12:00	8518	339	-32.0	-34.7	175	35
2023-08-29T12:00	8542	338	-32.3	-34.8	176	36
2023-08-29T12:00	8569	337	-32.5	-34.7	176	37
2023-08-29T12:00	8595	335	-32.7	-34.9	176	36
2023-08-29T12:00	8618	334	-32.9	-35.3	175	36
2023-08-29T12:00	8646	333	-32.9	-35.4	175	36
2023-08-29T12:00	8672	332	-33.1	-35.4	174	35
2023-08-29T12:00	8697	331	-33.4	-35.4	175	35
2023-08-29T12:00	8724	329	-33.6	-35.3	176	35
2023-08-29T12:00	8751	328	-33.9	-35.2	177	35
2023-08-29T12:00	8778	327	-34.1	-35.2	178	35
2023-08-29T12:00	8801	326	-34.4	-35.7	179	35
2023-08-29T12:00	8830	324	-34.6	-35.9	179	35
2023-08-29T12:00	8852	323	-34.8	-35.9	179	35
2023-08-29T12:00	8883	322	-35.1	-36.5	179	35
2023-08-29T12:00	8931	320	-35.4	-38.0	179	35
2023-08-29T12:00	8967	318	-35.7	-38.6	178	35
2023-08-29T12:00	8991	317	-35.9	-39.6	178	35
2023-08-29T12:00	9012	316	-36.0	-40.0	178	36
2023-08-29T12:00	9035	315	-36.0	-40.4	178	36
2023-08-29T12:00	9061	314	-35.8	-40.3	178	36
2023-08-29T12:00	9084	313	-35.9	-40.9	178	36
2023-08-29T12:00	9111	312	-36.0	-41.2	178	36
2023-08-29T12:00	9138	310	-36.2	-42.4	178	36
2023-08-29T12:00	9169	309	-36.4	-42.9	179	36
2023-08-29T12:00	9193	308	-36.7	-43.8	179	36
2023-08-29T12:00	9226	306	-37.0	-45.0	179	37
2023-08-29T12:00	9253	305	-37.2	-45.5	179	37
2023-08-29T12:00	9283	304	-37.5	-45.8	179	38
2023-08-29T12:00	9317	302	-37.8	-45.3	178	39
2023-08-29T12:00	9353	301	-38.1		178	40
2023-08-29T12:00	9374	300	-38.3	-45.3	177	41
2023-08-29T12:00	9396	299	-38.5	-45.2	177	41
2023-08-29T12:00	9425	298	-38.7	-44.7	176	41
2023-08-29T12:00	9455	296	-39.0	-44.8	175	41
2023-08-29T12:00	9490	295	-39.3	-45.0	174	40
2023-08-29T12:00	9520	294	-39.6	-44.5	174	40
2023-08-29T12:00	9541	293	-39.8	-43.6	174	39
2023-08-29T12:00	9571	291	-40.1	-43.8	175	39
2023-08-29T12:00	9604	290	-40.4	-43.8	176	39
2023-08-29T12:00	9628	289	-40.6	-44.1	176	39
2023-08-29T12:00	9648	288	-40.8	-44.0	176	39
2023-08-29T12:00	9673	287	-41.1	-43.9	176	38
2023-08-29T12:00	9698	286	-41.3	-44.2	176	38
2023-08-29T12:00	9722	285	-41.5	-44.4	176	38
2023-08-29T12:00	9746	284	-41.7	-44.4	176	38
2023-08-29T12:00	9770	283	-41.9	-44.6	176	38
2023-08-29T12:00	9792	282	-42.2	-45.6	176	38
2023-08-29T12:00	9820	281	-42.4	-45.6	176	38
2023-08-29T12:00	9843	280	-42.6	-45.4	176	38
2023-08-29T12:00	9875	279	-42.9	-45.8	176	37
2023-08-29T12:00	9898	278	-43.1	-46.3	176	37
2023-08-29T12:00	9922	277	-43.3	-46.3	176	37
2023-08-29T12:00	9943	276	-43.5	-46.8	176	37
2023-08-29T12:00	9969	275	-43.7	-47.9	176	38
2023-08-29T12:00	9994	274	-43.9	-48.3	177	38
2023-08-29T12:00	10026	272	-44.2	-48.2	177	38
2023-08-29T12:00	10061	271	-44.4	-49.4	177	39
2023-08-29T12:00	10083	270	-44.5	-50.6	177	39
2023-08-29T12:00	10108	269	-44.6	-50.2	176	39
2023-08-29T12:00	10136	268	-44.8	-49.5	175	40
2023-08-29T12:00	10161	267	-44.9	-49.2	174	40
2023-08-29T12:00	10185	266	-45.1	-49.8	173	40
2023-08-29T12:00	10211	265	-45.2	-50.1	173	41
2023-08-29T12:00	10238	264	-45.5	-49.7	173	41
2023-08-29T12:00	10260	263	-45.6	-49.6	173	42
2023-08-29T12:00	10282	262	-45.7	-49.4	174	43
2023-08-29T12:00	10310	261	-45.9	-48.6	174	43
2023-08-29T12:00	10339	260	-46.3	-48.6	175	43
2023-08-29T12:00	10364	259	-46.5	-48.9	175	43
2023-08-29T12:00	10390	258	-46.6	-49.4	174	43
2023-08-29T12:00	10414	257	-46.9	-49.8	174	42
2023-08-29T12:00	10441	256	-47.1	-49.6	174	42
2023-08-29T12:00	10472	255	-47.4	-49.8	174	42
2023-08-29T12:00	10500	254	-47.7	-50.1	174	42
2023-08-29T12:00	10530	253	-47.9	-50.5	173	42
2023-08-29T12:00	10558	251	-48.1	-50.8	173	42
2023-08-29T12:00	10588	250	-48.3	-50.7	172	41
2023-08-29T12:00	10613	249	-48.5	-51.0	171	41
2023-08-29T12:00	10645	248	-48.7	-51.5	171	41
2023-08-29T12:00	10676	247	-49.0	-52.0	171	40
2023-08-29T12:00	10703	246	-49.1	-52.5	171	40
2023-08-29T12:00	10729	245	-49.2	-53.0	172	40
2023-08-29T12:00	10755	244	-49.4	-53.3	172	40
2023-08-29T12:00	10780	243	-49.6	-53.6	173	40
2023-08-29T12:00	10808	242	-49.8	-53.9	172	39
2023-08-29T12:00	10832	241	-50.0	-54.2	172	39
2023-08-29T12:00	10860	240	-50.0	-54.2	172	38
2023-08-29T12:00	10886	239	-50.2	-54.1	172	38
2023-08-29T12:00	10913	238	-50.2	-54.3	172	37
2023-08-29T12:00	10938	237	-50.3	-54.6	172	37
2023-08-29T12:00	10967	236	-50.4	-54.5	172	37
2023-08-29T12:00	10993	235	-50.5	-54.4	172	37
2023-08-29T12:00	11019	234	-50.6	-54.4	172	37
2023-08-29T12:00	11045	233	-50.7	-54.6	172	37
2023-08-29T12:00	11070	233	-50.9	-54.8	172	37
2023-08-29T12:00	11103	231	-51.2	-55.1	172	37
2023-08-29T12:00	11128	231	-51.4	-55.3	171	37
2023-08-29T12:00	11152	230	-51.5	-55.6	171	37
2023-08-29T12:00	11177	229	-51.7	-55.7	171	37
2023-08-29T12:00	11202	228	-52.0	-55.7	171	37
2023-08-29T12:00	11234	227	-52.3	-55.9	171	37
2023-08-29T12:00	11261	226	-52.5	-56.3	170	37
2023-08-29T12:00	11292	225	-52.8	-56.8	169	37
2023-08-29T12:00	11322	224	-53.0	-56.9	168	37
2023-08-29T12:00	11344	223	-53.2	-57.0	167	37
2023-08-29T12:00	11370	222	-53.4	-57.2	166	37
2023-08-29T12:00	11394	221	-53.6	-57.3	166	37
2023-08-29T12:00	11422	220	-53.9	-57.4	166	37
2023-08-29T12:00	11448	219	-54.1	-57.5	166	37
2023-08-29T12:00	11472	219	-54.3	-57.8	165	37
2023-08-29T12:00	11500	218	-54.5	-57.9	164	37
2023-08-29T12:00	11531	217	-54.7	-58.1	163	37
2023-08-29T12:00	11563	216	-54.9	-58.2	162	37
2023-08-29T12:00	11586	215	-54.9	-58.3	162	37
2023-08-29T12:00	11610	214	-55.0	-58.4	162	37
2023-08-29T12:00	11640	213	-55.3	-58.6	161	37
2023-08-29T12:00	11675	212	-55.5	-58.8	161	38
2023-08-29T12:00	11698	211	-55.7		161	38
2023-08-29T12:00	11721	210	-55.9	-59.3	160	38
2023-08-29T12:00	11749	209	-56.1	-59.6	160	38
2023-08-29T12:00	11775	208	-56.3	-59.9	160	38
2023-08-29T12:00	11799	208	-56.5	-60.1	160	38
2023-08-29T12:00	11823	207	-56.6	-60.4	160	38
2023-08-29T12:00	11843	206	-56.7	-60.6	161	38
2023-08-29T12:00	11868	205	-56.7	-60.7	161	38
2023-08-29T12:00	11891	205	-56.8	-60.8	162	38
2023-08-29T12:00	11915	204	-56.9	-61.0	162	38
2023-08-29T12:00	11943	203	-57.1	-61.3	162	38
2023-08-29T12:00	11971	202	-57.3	-61.4	162	37
2023-08-29T12:00	11998	201	-57.5	-61.4	162	37
2023-08-29T12:00	12022	200	-57.7	-61.6	163	37
2023-08-29T12:00	12047	200	-57.9	-61.9	162	36
2023-08-29T12:00	12072	199	-58.0	-62.1	162	36
2023-08-29T12:00	12099	198	-58.3	-62.4	162	36
2023-08-29T12:00	12126	197	-58.5	-62.6	162	37
2023-08-29T12:00	12149	196	-58.6	-62.7	162	37
2023-08-29T12:00	12172	196	-58.8	-63.0	161	37
2023-08-29T12:00	12193	195	-58.9	-63.4	161	37
2023-08-29T12:00	12217	194	-58.7	-63.4	160	38
2023-08-29T12:00	12239	194	-58.8	-63.6	160	38
2023-08-29T12:00	12266	193	-59.0	-63.7	161	38
2023-08-29T12:00	12287	192	-59.2	-63.9	162	39
2023-08-29T12:00	12312	191	-59.3	-63.9	164	40
2023-08-29T12:00	12346	190	-59.1	-63.7	166	40
2023-08-29T12:00	12376	189	-58.8	-63.8	168	40
2023-08-29T12:00	12408	189	-58.5	-64.5	170	39
2023-08-29T12:00	12431	188	-58.1	-66.1	172	37
2023-08-29T12:00	12459	187	-57.4	-68.5	173	36
2023-08-29T12:00	12478	186	-57.0	-72.2	173	34
2023-08-29T12:00	12499	186	-56.5	-76.6	172	33
2023-08-29T12:00	12523	185	-56.0	-80.6	172	33
2023-08-29T12:00	12543	184	-55.8	-82.5	171	33
2023-08-29T12:00	12565	184	-55.5	-81.4	170	32
2023-08-29T12:00	12589	183	-54.9	-79.3	170	32
2023-08-29T12:00	12613	183	-54.8	-78.2	170	32
2023-08-29T12:00	12633	182	-54.8	-77.7	171	31
2023-08-29T12:00	12655	181	-54.4	-77.4	172	30
2023-08-29T12:00	12680	181	-53.6	-77.1	173	30
2023-08-29T12:00	12704	180	-53.2	-77.3	174	29
2023-08-29T12:00	12731	179	-53.2	-77.7	176	28
2023-08-29T12:00	12754	178	-52.9	-77.7	178	28
2023-08-29T12:00	12787	178	-52.9	-77.9	181	28
2023-08-29T12:00	12813	177	-52.6	-77.9	184	28
2023-08-29T12:00	12840	176	-52.0	-77.9	187	27
2023-08-29T12:00	12867	175	-51.7	-78.0	189	27
2023-08-29T12:00	12892	175	-51.3	-78.2	190	26
2023-08-29T12:00	12915	174	-50.3	-77.7	191	24
2023-08-29T12:00	12935	174	-49.9	-78.0	190	23
2023-08-29T12:00	12960	173	-49.8	-77.9	189	22
2023-08-29T12:00	12981	172	-49.6	-78.1	187	22
2023-08-29T12:00	13005	172	-49.5	-78.0	186	21
2023-08-29T12:00	13024	171	-49.3	-77.9	185	21
2023-08-29T12:00	13044	171	-49.1	-77.7	184	21
2023-08-29T12:00	13068	170	-49.1	-77.7	184	21
2023-08-29T12:00	13088	170	-48.9	-77.6	184	21
2023-08-29T12:00	13109	169	-49.0	-77.7	185	21
2023-08-29T12:00	13130	169	-49.1	-77.7	185	21
2023-08-29T12:00	13151	168	-49.3	-77.9	186	21
2023-08-29T12:00	13172	167	-49.4	-78.0	187	21
2023-08-29T12:00	13192	167	-49.6	-77.8	187	21
2023-08-29T12:00	13215	166	-49.8	-77.9	188	21
2023-08-29T12:00	13237	166	-49.9	-78.0	189	21
2023-08-29T12:00	13259	165	-50.0	-78.1	189	22
2023-08-29T12:00	13283	165	-50.3	-78.3	189	22
2023-08-29T12:00	13304	164	-50.5	-78.2	189	22
2023-08-29T12:00	13326	164	-50.6	-78.2	188	21
2023-08-29T12:00	13348	163	-50.8	-78.4	187	21
2023-08-29T12:00	13370	162	-51.0		186	21
2023-08-29T12:00	13395	162	-51.1	-78.6	185	21
2023-08-29T12:00	13423	161	-51.2	-78.7	184	20
2023-08-29T12:00	13456	160	-51.3	-78.8	183	20
2023-08-29T12:00	13486	160	-51.6	-79.0	182	20
2023-08-29T12:00	13521	159	-51.9	-78.9	181	20
2023-08-29T12:00	13544	158	-52.0	-79.0	180	20
2023-08-29T12:00	13568	158	-52.3	-79.0	180	21
2023-08-29T12:00	13592	157	-52.5	-79.1	181	22
2023-08-29T12:00	13614	156	-52.5	-79.1	182	22
2023-08-29T12:00	13639	156	-52.7	-79.3	183	23
2023-08-29T12:00	13667	155	-52.9	-79.1	185	23
2023-08-29T12:00	13692	155	-52.9	-79.1	186	23
2023-08-29T12:00	13719	154	-52.9	-79.1	188	24
2023-08-29T12:00	13744	153	-52.9	-79.4	189	23
2023-08-29T12:00	13769	153	-52.9	-79.4	190	23
2023-08-29T12:00	13795	152	-53.0	-79.5	191	22
2023-08-29T12:00	13817	152	-53.2	-79.7	191	21
2023-08-29T12:00	13843	151	-53.2	-79.9	191	21
2023-08-29T12:00	13868	150	-53.1	-79.9	192	21
2023-08-29T12:00	13892	150	-53.1	-79.9	192	21
2023-08-29T12:00	13917	149	-53.2	-79.7	192	20
2023-08-29T12:00	13942	149	-53.2	-79.9	192	20
2023-08-29T12:00	13966	148	-53.2	-79.9	192	20
2023-08-29T12:00	13989	148	-53.1	-79.9	192	20
2023-08-29T12:00	14012	147	-53.0	-80.1	193	20
2023-08-29T12:00	14036	147	-53.1	-80.2	194	19
2023-08-29T12:00	14066	146	-53.1	-80.2	195	18
2023-08-29T12:00	14089	145	-53.0	-80.4	196	17
2023-08-29T12:00	14114	145	-53.0	-80.4	197	17
2023-08-29T12:00	14137	144	-52.7	-80.2	198	16
2023-08-29T12:00	14160	144	-52.6	-80.4	198	15
2023-08-29T12:00	14184	143	-52.2	-80.5	199	14
2023-08-29T12:00	14211	143	-51.7	-80.4	199	13
2023-08-29T12:00	14236	142	-51.0	-80.3	199	13
2023-08-29T12:00	14258	142	-50.5	-79.9	198	12
2023-08-29T12:00	14283	141	-50.5	-79.9	197	12
2023-08-29T12:00	14309	141	-50.6	-80.0	196	12
2023-08-29T12:00	14332	140	-50.5	-79.5	195	12
2023-08-29T12:00	14358	139	-50.6	-79.6	193	13
2023-08-29T12:00	14383	139	-50.8	-79.8	192	13
2023-08-29T12:00	14407	138	-50.9	-79.8	191	13
2023-08-29T12:00	14431	138	-51.1	-79.6	190	13
2023-08-29T12:00	14455	137	-51.4	-79.8	188	13
2023-08-29T12:00	14478	137	-51.6	-79.6	186	14
2023-08-29T12:00	14503	136	-51.8	-79.8	185	14
2023-08-29T12:00	14526	136	-51.9	-79.9	183	14
2023-08-29T12:00	14548	135	-52.1	-79.7	182	15
2023-08-29T12:00	14574	135	-52.1	-79.7	182	15
2023-08-29T12:00	14596	134	-52.3	-79.9	182	15
2023-08-29T12:00	14619	134	-52.5	-80.3	184	15
2023-08-29T12:00	14645	133	-52.2	-80.1	186	14
2023-08-29T12:00	14670	133	-51.8	-80.1	190	14
2023-08-29T12:00	14695	132	-51.6	-80.0	194	13
2023-08-29T12:00	14718	132	-51.3	-80.1	197	13
2023-08-29T12:00	14746	131	-51.4	-80.2	201	12
2023-08-29T12:00	14774	131	-51.6	-80.0	202	12
2023-08-29T12:00	14802	130	-51.7	-80.1	203	11
2023-08-29T12:00	14825	130	-52.0	-80.3	203	11
2023-08-29T12:00	14847	129	-52.2	-80.1	201	11
2023-08-29T12:00	14871	129	-52.4	-80.3	200	11
2023-08-29T12:00	14893	128	-52.4	-80.3	199	11
2023-08-29T12:00	14919	128	-52.6	-80.1	197	11
2023-08-29T12:00	14944	127	-52.9	-80.3	197	11
2023-08-29T12:00	14970	127	-53.1	-80.5	196	11
2023-08-29T12:00	14995	126	-53.3	-80.6	196	11
2023-08-29T12:00	15017	126	-53.6	-80.5	196	11
2023-08-29T12:00	15043	125	-53.7	-80.6	195	11
2023-08-29T12:00	15068	125	-54.0	-80.6	193	11
2023-08-29T12:00	15095	124	-54.2	-80.7	191	11
2023-08-29T12:00	15123	124	-54.5	-80.7	188	11
2023-08-29T12:00	15146	123	-54.7	-80.8	186	11
2023-08-29T12:00	15171	123	-54.8	-80.9	184	11
2023-08-29T12:00	15195	123	-54.9	-81.0	183	11
2023-08-29T12:00	15219	122	-54.9	-81.0	182	12
2023-08-29T12:00	15242	122	-55.1	-81.1	182	12
2023-08-29T12:00	15266	121	-55.3	-81.3	182	12
2023-08-29T12:00	15291	121	-55.5	-81.4	182	13
2023-08-29T12:00	15317	120	-55.6	-81.5	181	13
2023-08-29T12:00	15342	120	-55.6	-81.5	180	14
2023-08-29T12:00	15364	119	-55.7	-81.6	180	14
2023-08-29T12:00	15389	119	-55.9	-81.8	179	15
2023-08-29T12:00	15411	118	-55.8	-82.0	178	16
2023-08-29T12:00	15434	118	-55.8	-82.2	179	16
2023-08-29T12:00	15455	118	-55.7	-82.5	180	16
2023-08-29T12:00	15478	117	-55.5	-82.6	181	17
2023-08-29T12:00	15499	117	-55.5	-82.6	184	17
2023-08-29T12:00	15522	116	-55.3	-82.8	188	17
2023-08-29T12:00	15546	116	-55.0	-82.9	192	17
2023-08-29T12:00	15574	115	-54.4	-83.3	196	16
2023-08-29T12:00	15602	115	-53.5	-83.0	200	16
2023-08-29T12:00	15625	115	-52.6	-82.4	205	16
2023-08-29T12:00	15649	114	-52.5	-82.8	209	16
2023-08-29T12:00	15673	114	-52.6	-82.8	212	15
2023-08-29T12:00	15695	113	-52.4	-82.7	216	15
2023-08-29T12:00	15719	113	-52.4	-82.2	219	14
2023-08-29T12:00	15746	112	-52.4	-82.2	221	14
2023-08-29T12:00	15770	112	-52.2	-82.1	224	13
2023-08-29T12:00	15793	112	-52.3	-82.1	226	13
2023-08-29T12:00	15818	111	-52.4	-82.2	229	13
2023-08-29T12:00	15842	111	-52.6	-81.9	231	13
2023-08-29T12:00	15866	110	-52.8	-82.1	233	12
2023-08-29T12:00	15891	110	-52.9	-82.1	235	12
2023-08-29T12:00	15914	110	-53.2	-82.0	237	12
2023-08-29T12:00	15938	109	-53.3	-82.0	238	12
2023-08-29T12:00	15964	109	-53.4	-82.1	238	12
2023-08-29T12:00	15988	108	-53.6	-82.3	238	12
2023-08-29T12:00	16010	108	-53.8	-82.4	238	12
2023-08-29T12:00	16035	107	-54.0	-82.2	237	11
2023-08-29T12:00	16057	107	-54.3	-82.4	236	11
2023-08-29T12:00	16085	107	-54.4	-82.5	234	11
2023-08-29T12:00	16112	106	-54.5	-82.2	233	10
2023-08-29T12:00	16135	106	-54.6	-82.3	231	10
2023-08-29T12:00	16160	105	-54.9	-82.9	229	9
2023-08-29T12:00	16183	105	-55.0	-82.9	228	9
2023-08-29T12:00	16210	105	-55.0	-82.9	228	9
2023-08-29T12:00	16234	104	-54.9	-82.9	228	9
2023-08-29T12:00	16258	104	-55.0	-82.9	228	9
2023-08-29T12:00	16282	103	-55.0	-82.9	229	9
2023-08-29T12:00	16307	103	-55.1	-83.0	229	8
2023-08-29T12:00	16331	103	-55.2	-83.1	228	8
2023-08-29T12:00	16360	102	-55.2	-83.5	226	8
2023-08-29T12:00	16380	102	-54.8	-83.2	223	8
2023-08-29T12:00	16404	101	-54.6	-83.4	221	8
2023-08-29T12:00	16427	101	-54.5	-83.4	217	9
2023-08-29T12:00	16452	101	-54.4	-83.3	214	9
2023-08-29T12:00	16475	100	-54.1	-83.1	210	9
2023-08-29T12:00	16500	100	-53.9	-82.9	205	9
2023-08-29T12:00	16522	100	-53.9	-82.9	201	10
2023-08-29T12:00	16549	99	-54.2	-83.1	197	10
2023-08-29T12:00	16571	99	-54.2	-83.1	194	10
2023-08-29T12:00	16595	98	-54.2	-83.1	192	11
2023-08-29T12:00	16616	98	-54.4	-83.3	191	11
2023-08-29T12:00	16639	98	-54.5	-82.9	190	11
2023-08-29T12:00	16663	97	-54.5	-82.9	190	12
2023-08-29T12:00	16685	97	-54.7	-83.1	191	12
2023-08-29T12:00	16712	97	-54.8	-83.2	192	12
2023-08-29T12:00	16735	96	-54.9	-83.3	193	12
2023-08-29T12:00	16758	96	-54.8	-83.2	195	11
2023-08-29T12:00	16783	96	-54.6	-83.0	197	11
2023-08-29T12:00	16808	95	-54.6	-83.0	199	11
2023-08-29T12:00	16831	95	-54.5	-83.4	199	11
2023-08-29T12:00	16856	95	-54.3	-83.2	199	11
2023-08-29T12:00	16879	94	-54.1	-83.1	198	11
2023-08-29T12:00	16906	94	-54.1	-83.1	197	10
2023-08-29T12:00	16928	93	-54.3	-83.2	197	10
2023-08-29T12:00	16953	93	-54.4	-83.3	197	10
2023-08-29T12:00	16981	93	-54.6	-83.4	198	10
2023-08-29T12:00	17006	92	-54.8	-83.2	199	9
2023-08-29T12:00	17032	92	-54.9	-83.3	200	9
2023-08-29T12:00	17056	92	-54.7	-83.1	202	9
2023-08-29T12:00	17084	91	-54.5	-82.9	203	9
2023-08-29T12:00	17109	91	-54.4	-83.3	204	8
2023-08-29T12:00	17133	91	-54.6	-83.4	204	8
2023-08-29T12:00	17158	90	-54.7	-83.5	203	8
2023-08-29T12:00	17185	90	-54.9	-83.7	200	8
2023-08-29T12:00	17215	89	-55.0		198	8
2023-08-29T12:00	17241	89	-55.2	-83.5	195	8
2023-08-29T12:00	17268	89	-55.3	-83.6	193	8
2023-08-29T12:00	17290	88	-55.5	-83.7	193	8
2023-08-29T12:00	17316	88	-55.8	-83.6	193	9
2023-08-29T12:00	17343	88	-56.0	-83.7	193	9
2023-08-29T12:00	17369	87	-56.1	-83.8	194	9
2023-08-29T12:00	17392	87	-56.3	-83.9	196	9
2023-08-29T12:00	17416	87	-56.5	-84.1	199	9
2023-08-29T12:00	17443	86	-56.7	-83.9	201	9
2023-08-29T12:00	17465	86	-56.9	-84.0	204	9
2023-08-29T12:00	17490	86	-56.9	-84.0	205	9
2023-08-29T12:00	17518	85	-57.0	-84.1	206	9
2023-08-29T12:00	17542	85	-57.2	-84.3	206	9
2023-08-29T12:00	17567	85	-57.1	-84.6	205	9
2023-08-29T12:00	17592	84	-57.1	-84.6	205	9
2023-08-29T12:00	17613	84	-56.8	-84.7	206	9
2023-08-29T12:00	17636	84	-56.0	-84.5	210	9
2023-08-29T12:00	17661	83	-55.3	-84.4	215	8
2023-08-29T12:00	17684	83	-55.0	-84.6	220	8
2023-08-29T12:00	17710	83	-54.6	-84.3	225	8
2023-08-29T12:00	17736	82	-54.1	-84.0	228	7
2023-08-29T12:00	17759	82	-53.9	-84.3	228	6
2023-08-29T12:00	17787	82	-54.0	-84.4	224	5
2023-08-29T12:00	17813	81	-53.7	-84.2	215	4
2023-08-29T12:00	17841	81	-53.4	-83.9	201	4
2023-08-29T12:00	17867	81	-53.3	-83.9	186	3
2023-08-29T12:00	17889	80	-53.0	-83.6	175	4
2023-08-29T12:00	17917	80	-52.8	-83.5	170	4
2023-08-29T12:00	17945	80	-53.0	-83.1	169	5
2023-08-29T12:00	17977	79	-53.3		169	5
2023-08-29T12:00	18005	79	-53.5	-83.5	169	6
2023-08-29T12:00	18032	79	-53.8	-83.3	169	6
2023-08-29T12:00	18063	78	-54.1	-83.5	167	7
2023-08-29T12:00	18086	78	-54.2	-83.1	167	7
2023-08-29T12:00	18109	78	-54.5	-83.4	167	8
2023-08-29T12:00	18136	77	-54.7	-83.5	169	8
2023-08-29T12:00	18161	77	-54.9	-83.3	172	8
2023-08-29T12:00	18185	77	-55.1	-83.4	175	8
2023-08-29T12:00	18210	76	-55.2	-83.5	180	8
2023-08-29T12:00	18232	76	-55.3	-83.6	184	8
2023-08-29T12:00	18258	76	-55.4	-83.6	188	8
2023-08-29T12:00	18284	76	-55.5	-83.7	193	8
2023-08-29T12:00	18308	75	-55.7	-83.9	197	8
2023-08-29T12:00	18336	75	-55.8	-83.9	201	8
2023-08-29T12:00	18360	75	-56.0	-84.1	204	8
2023-08-29T12:00	18387	74	-56.1	-84.2	207	8
2023-08-29T12:00	18413	74	-56.3	-84.3	210	8
2023-08-29T12:00	18439	74	-56.4	-84.4	212	8
2023-08-29T12:00	18467	73	-56.6	-84.5	214	8
2023-08-29T12:00	18490	73	-56.9	-84.4	216	8
2023-08-29T12:00	18516	73	-57.0	-84.5	219	8
2023-08-29T12:00	18543	73	-57.0	-84.8	221	7
2023-08-29T12:00	18567	72	-56.9	-84.8	224	7
2023-08-29T12:00	18593	72	-56.5	-84.5	228	6
2023-08-29T12:00	18618	72	-56.1	-84.6	233	6
2023-08-29T12:00	18644	71	-56.0	-84.5	237	5
2023-08-29T12:00	18670	71	-56.0	-84.5	242	5
2023-08-29T12:00	18696	71	-56.1	-84.6	245	5
2023-08-29T12:00	18718	71	-56.3	-84.7	248	5
2023-08-29T12:00	18746	70	-56.6	-84.9	249	4
2023-08-29T12:00	18775	70	-56.7	-84.6	247	4
2023-08-29T12:00	18797	70	-56.8	-84.7	239	3
2023-08-29T12:00	18826	69	-57.0	-84.8	223	3
2023-08-29T12:00	18854	69	-57.3	-85.1	202	3
2023-08-29T12:00	18882	69	-57.3	-85.1	188	3
2023-08-29T12:00	18904	69	-56.7	-84.6	183	4
2023-08-29T12:00	18928	68	-56.3	-84.7	185	4
2023-08-29T12:00	18955	68	-56.3	-84.7	188	5
2023-08-29T12:00	18980	68	-55.9	-84.8	192	6
2023-08-29T12:00	19006	67	-55.7	-84.7	194	6
2023-08-29T12:00	19029	67	-55.6	-84.6	195	7
2023-08-29T12:00	19056	67	-55.5	-85.0	195	7
2023-08-29T12:00	19083	67	-55.2	-84.8	195	8
2023-08-29T12:00	19106	66	-54.9	-84.6	195	8
2023-08-29T12:00	19134	66	-54.7	-84.4	196	8
2023-08-29T12:00	19158	66	-54.8	-84.5	196	8
2023-08-29T12:00	19186	66	-54.8	-84.5	196	7
2023-08-29T12:00	19212	65	-54.8	-84.5	195	7
2023-08-29T12:00	19238	65	-54.9	-84.6	195	6
2023-08-29T12:00	19266	65	-55.0	-84.2	194	5
2023-08-29T12:00	19290	65	-55.1	-84.7	192	4
2023-08-29T12:00	19316	64	-55.1	-84.7	187	3
2023-08-29T12:00	19347	64	-55.0	-84.2	178	3
2023-08-29T12:00	19376	64	-54.8	-84.0	164	2
2023-08-29T12:00	19405	63	-54.8	-84.0	148	2
2023-08-29T12:00	19429	63	-55.1	-84.2	136	3
2023-08-29T12:00	19452	63	-55.3	-84.4	131	3
2023-08-29T12:00	19477	63	-55.4	-84.5	129	4
2023-08-29T12:00	19506	62	-55.2	-84.3	128	5
2023-08-29T12:00	19530	62	-55.1	-84.2	128	6
2023-08-29T12:00	19555	62	-55.1	-84.2	128	7
2023-08-29T12:00	19582	62	-55.1	-84.2	127	7
2023-08-29T12:00	19607	61	-55.1	-84.7	127	8
2023-08-29T12:00	19632	61	-55.0	-84.6	127	8
2023-08-29T12:00	19659	61	-55.0	-84.6	127	8
2023-08-29T12:00	19685	61	-55.0	-84.6	129	8
2023-08-29T12:00	19712	60	-54.9	-84.6	131	7
2023-08-29T12:00	19736	60	-54.8	-84.5	134	7
2023-08-29T12:00	19765	60	-54.8	-84.5	138	7
2023-08-29T12:00	19785	60	-54.6	-84.3	142	7
2023-08-29T12:00	19809	59	-54.3	-84.1	145	7
2023-08-29T12:00	19834	59	-54.5	-84.3	147	7
2023-08-29T12:00	19865	59	-54.6	-84.3	147	7
2023-08-29T12:00	19884	59	-54.5	-84.3	146	7
2023-08-29T12:00	19914	59	-54.3	-84.1	144	7
2023-08-29T12:00	19939	58	-54.3	-84.1	142	7
2023-08-29T12:00	19962	58	-54.2	-84.0	139	6
2023-08-29T12:00	19988	58	-54.3	-84.1	137	6
2023-08-29T12:00	20017	58	-54.4	-84.2	135	6
2023-08-29T12:00	20043	57	-54.3	-84.1	132	5
2023-08-29T12:00	20066	57	-54.2	-84.0	129	5
2023-08-29T12:00	20089	57	-54.2	-84.0	128	5
2023-08-29T12:00	20119	57	-54.2	-84.0	128	6
2023-08-29T12:00	20145	56	-54.2	-84.0	130	6
2023-08-29T12:00	20172	56	-54.1	-84.0	134	7
2023-08-29T12:00	20197	56	-54.1	-84.0	138	7
2023-08-29T12:00	20224	56	-54.1	-84.0	143	7
2023-08-29T12:00	20251	56	-54.1	-84.0	147	8
2023-08-29T12:00	20277	55	-54.1	-84.0	150	8
2023-08-29T12:00	20305	55	-54.0	-83.9	153	8
2023-08-29T12:00	20332	55	-53.9	-83.8	155	9
2023-08-29T12:00	20361	55	-54.1	-84.0	157	9
2023-08-29T12:00	20386	54	-54.2	-84.0	159	9
2023-08-29T12:00	20414	54	-54.5	-83.8	162	9
2023-08-29T12:00	20443	54	-54.5	-83.8	165	9
2023-08-29T12:00	20472	54	-54.6	-83.9	169	8
2023-08-29T12:00	20500	53	-54.6	-83.9	173	7
2023-08-29T12:00	20530	53	-54.5	-83.8	178	6
2023-08-29T12:00	20560	53	-54.5	-84.3	183	5
2023-08-29T12:00	20585	53	-54.4	-84.2	187	5
2023-08-29T12:00	20614	52	-54.2	-84.0	189	4
2023-08-29T12:00	20643	52	-54.1	-84.0	188	3
2023-08-29T12:00	20669	52	-54.1	-84.0	186	2
2023-08-29T12:00	20697	52	-54.0	-83.9	186	2
2023-08-29T12:00	20725	52	-54.0	-83.9	196	2
2023-08-29T12:00	20755	51	-53.9	-83.8	212	2
2023-08-29T12:00	20778	51	-53.9	-83.8	225	2
2023-08-29T12:00	20807	51	-53.9	-83.8	232	3
2023-08-29T12:00	20837	51	-53.8	-83.7	234	3
2023-08-29T12:00	20860	51	-53.7	-83.7	233	4
2023-08-29T12:00	20886	50	-53.6	-83.6	229	3
2023-08-29T12:00	20913	50	-53.5	-83.5	220	3
2023-08-29T12:00	20942	50	-53.3	-83.9	209	3
2023-08-29T12:00	20965	50	-53.2	-83.8	196	3
2023-08-29T12:00	20996	49	-53.3		182	3
2023-08-29T12:00	21023	49	-53.5	-83.5	167	3
2023-08-29T12:00	21050	49	-53.6	-83.6	154	3
2023-08-29T12:00	21071	49	-53.7	-83.7	145	4
2023-08-29T12:00	21103	49	-53.7	-83.7	140	4
2023-08-29T12:00	21127	48	-53.8	-83.7	139	5
2023-08-29T12:00	21148	48	-54.0	-83.9	142	5
2023-08-29T12:00	21176	48	-54.0	-83.9	147	5
2023-08-29T12:00	21201	48	-53.9	-83.8	153	5
2023-08-29T12:00	21229	48	-53.7	-84.2	160	5
2023-08-29T12:00	21257	48	-53.6	-84.1	167	4
2023-08-29T12:00	21279	47	-53.4	-83.9	173	4
2023-08-29T12:00	21306	47	-53.2	-83.8	178	3
2023-08-29T12:00	21334	47	-53.1	-83.7	181	3
2023-08-29T12:00	21362	47	-53.0	-83.6	182	3
2023-08-29T12:00	21388	47	-53.0	-83.6	183	2
2023-08-29T12:00	21408	46	-53.0	-83.6	183	2
2023-08-29T12:00	21436	46	-53.0	-83.6	185	2
2023-08-29T12:00	21462	46	-53.0	-83.6	188	1
2023-08-29T12:00	21492	46	-53.0	-83.6	188	1
2023-08-29T12:00	21516	46	-53.0	-83.6	178	1
2023-08-29T12:00	21546	45	-53.1	-83.7	163	1
2023-08-29T12:00	21570	45	-53.1	-83.7	152	2
2023-08-29T12:00	21602	45	-53.0	-83.6	148	3
2023-08-29T12:00	21625	45	-53.0	-83.6	148	3
2023-08-29T12:00	21658	45	-53.0	-83.1	152	4
2023-08-29T12:00	21682	44	-53.1	-83.2	157	4
2023-08-29T12:00	21705	44	-53.4	-83.4	164	4
2023-08-29T12:00	21734	44	-53.4	-83.9	171	5
2023-08-29T12:00	21759	44	-53.2	-83.8	178	5
2023-08-29T12:00	21788	44	-52.8	-83.5	183	4
2023-08-29T12:00	21817	44	-52.7	-83.4	189	4
2023-08-29T12:00	21839	43	-52.7	-83.4	195	4
2023-08-29T12:00	21870	43	-52.7	-83.4	203	3
2023-08-29T12:00	21896	43	-52.7	-83.4	215	3
2023-08-29T12:00	21924	43	-52.7	-83.4	232	2
2023-08-29T12:00	21949	43	-52.7	-83.4	252	2
2023-08-29T12:00	21973	43	-52.6	-83.3	269	2
2023-08-29T12:00	22001	42	-52.5	-83.3	281	2
2023-08-29T12:00	22028	42	-52.5	-83.3	288	1
2023-08-29T12:00	22049	42	-52.6	-83.3	285	1
2023-08-29T12:00	22078	42	-52.6	-83.3	226	0
2023-08-29T12:00	22105	42	-52.8	-83.5	158	1
2023-08-29T12:00	22131	41	-52.8	-83.5	148	1
2023-08-29T12:00	22159	41	-53.0	-83.6	145	2
2023-08-29T12:00	22185	41	-53.1	-83.7	143	3
2023-08-29T12:00	22210	41	-53.2	-83.3	141	3
2023-08-29T12:00	22237	41	-53.2	-83.3	140	4
2023-08-29T12:00	22263	41	-53.2	-83.3	139	4
2023-08-29T12:00	22288	40	-53.1	-83.7	140	4
2023-08-29T12:00	22318	40	-53.2	-83.8	141	4
2023-08-29T12:00	22341	40	-53.2	-83.8	144	5
2023-08-29T12:00	22371	40	-53.2	-83.8	146	5
2023-08-29T12:00	22401	40	-53.2	-83.8	150	5
2023-08-29T12:00	22426	40	-53.2	-83.8	153	4
2023-08-29T12:00	22451	39	-53.3	-83.9	158	4
2023-08-29T12:00	22477	39	-53.3	-83.9	163	4
2023-08-29T12:00	22504	39	-53.2	-83.8	168	4
2023-08-29T12:00	22536	39	-53.2	-83.8	172	3
2023-08-29T12:00	22558	39	-53.3	-83.9	172	3
2023-08-29T12:00	22583	39	-53.4	-83.9	170	3
2023-08-29T12:00	22608	38	-53.4	-83.9	164	3
2023-08-29T12:00	22638	38	-53.4	-83.9	159	3
2023-08-29T12:00	22663	38	-53.3		154	3
2023-08-29T12:00	22694	38	-53.3		152	3
2023-08-29T12:00	22719	38	-53.3		150	3
2023-08-29T12:00	22743	38	-53.5	-83.5	148	3
2023-08-29T12:00	22775	38	-53.5	-84.0	146	3
2023-08-29T12:00	22799	37	-53.4	-83.9	145	4
2023-08-29T12:00	22827	37	-53.4	-83.9	147	4
2023-08-29T12:00	22856	37	-53.4	-83.9	150	4
2023-08-29T12:00	22883	37	-53.3	-83.9	154	4
2023-08-29T12:00	22909	37	-53.4	-83.9	159	4
2023-08-29T12:00	22937	37	-53.5	-84.0	165	4
2023-08-29T12:00	22963	36	-53.5	-84.0	173	3
2023-08-29T12:00	22991	36	-53.3	-83.9	181	3
2023-08-29T12:00	23017	36	-53.1	-83.7	189	3
2023-08-29T12:00	23045	36	-53.1	-83.7	194	2
2023-08-29T12:00	23078	36	-53.1	-84.3	189	2
2023-08-29T12:00	23103	36	-53.1	-84.3	169	1
2023-08-29T12:00	23131	36	-53.1	-84.3	143	2
2023-08-29T12:00	23160	35	-53.1	-84.3	129	2
2023-08-29T12:00	23186	35	-53.1	-83.7	128	3
2023-08-29T12:00	23216	35	-53.1	-83.7	132	3
2023-08-29T12:00	23242	35	-53.1	-83.7	139	3
2023-08-29T12:00	23275	35	-53.1	-83.7	146	3
2023-08-29T12:00	23301	35	-53.1	-83.7	153	3
2023-08-29T12:00	23327	34	-53.1	-83.7	158	3
2023-08-29T12:00	23358	34	-53.1	-84.3	161	3
2023-08-29T12:00	23388	34	-53.2	-84.4	161	3
2023-08-29T12:00	23412	34	-53.0	-84.2	157	2
2023-08-29T12:00	23446	34	-52.9	-84.1	150	2
2023-08-29T12:00	23472	34	-53.0	-84.2	142	2
2023-08-29T12:00	23504	34	-53.0	-84.2	138	3
2023-08-29T12:00	23531	33	-53.1	-83.7	137	3
2023-08-29T12:00	23555	33	-53.2	-83.8	140	3
2023-08-29T12:00	23586	33	-53.2	-83.8	146	3
2023-08-29T12:00	23608	33	-53.1	-83.7	153	3
2023-08-29T12:00	23638	33	-53.1	-83.7	161	3
2023-08-29T12:00	23664	33	-53.1	-83.7	169	2
2023-08-29T12:00	23694	33	-53.0	-83.6	176	2
2023-08-29T12:00	23725	32	-53.0	-83.6	177	1
2023-08-29T12:00	23754	32	-53.1	-83.7	162	1
2023-08-29T12:00	23777	32	-52.9	-84.1	96	0
2023-08-29T12:00	23807	32	-52.8	-84.1	64	1
2023-08-29T12:00	23837	32	-52.8	-84.1	60	1
2023-08-29T12:00	23863	32	-52.7	-84.0	62	2
2023-08-29T12:00	23887	32	-52.7	-84.0	68	2
2023-08-29T12:00	23912	31	-52.6	-83.9	74	2
2023-08-29T12:00	23942	31	-52.6	-83.9	80	3
2023-08-29T12:00	23966	31	-52.6	-83.3	85	3
2023-08-29T12:00	23998	31	-52.6	-83.3	89	3
2023-08-29T12:00	24026	31	-52.6	-83.3	93	3
2023-08-29T12:00	24051	31	-52.5	-83.8	97	3
2023-08-29T12:00	24076	31	-52.4	-83.8	101	3
2023-08-29T12:00	24104	31	-52.3	-83.7	107	3
2023-08-29T12:00	24134	30	-52.4	-83.8	113	2
2023-08-29T12:00	24162	30	-52.3	-83.7	118	3
2023-08-29T12:00	24184	30	-52.1	-83.5	122	3
2023-08-29T12:00	24220	30	-51.9	-84.0	126	3
2023-08-29T12:00	24240	30	-51.8	-83.9	128	4
2023-08-29T12:00	24269	30	-51.6	-83.8	129	4
2023-08-29T12:00	24301	30	-51.4	-83.6	130	4
2023-08-29T12:00	24327	30	-51.3	-83.6	130	3
2023-08-29T12:00	24354	29	-51.2	-83.5	130	3
2023-08-29T12:00	24388	29	-51.2	-83.5	131	2
2023-08-29T12:00	24407	29	-51.2	-83.5	129	2
2023-08-29T12:00	24431	29	-51.2	-83.5	127	2
2023-08-29T12:00	24471	29	-51.2	-83.5	121	1
2023-08-29T12:00	24488	29	-51.2	-83.5	116	1
2023-08-29T12:00	24520	29	-51.2	-82.9	114	2
2023-08-29T12:00	24545	29	-51.1	-82.8	114	2
2023-08-29T12:00	24577	28	-51.2	-82.9	117	2
2023-08-29T12:00	24609	28	-51.3	-82.9	121	3
2023-08-29T12:00	24634	28	-51.4	-83.0	125	3
2023-08-29T12:00	24662	28	-51.5	-83.1	129	3
2023-08-29T12:00	24688	28	-51.6	-83.2	133	4
2023-08-29T12:00	24719	28	-51.8	-83.3	136	5
2023-08-29T12:00	24752	28	-51.8	-83.3	140	5
2023-08-29T12:00	24776	28	-51.8	-83.3	144	5
2023-08-29T12:00	24805	27	-51.7	-83.2	150	5
2023-08-29T12:00	24839	27	-51.6	-83.2	156	5
2023-08-29T12:00	24869	27	-51.5	-83.1	163	4
2023-08-29T12:00	24890	27	-51.5	-83.1	168	4
2023-08-29T12:00	24928	27	-51.6	-83.2	172	3
2023-08-29T12:00	24961	27	-51.6	-83.2	173	2
2023-08-29T12:00	24985	27	-51.3	-82.9	168	2
2023-08-29T12:00	25010	27	-51.2	-82.9	158	1
2023-08-29T12:00	25045	26	-51.1	-83.4	145	1
2023-08-29T12:00	25070	26	-51.0	-83.3	141	1
2023-08-29T12:00	25093	26	-50.7	-83.1	143	2
2023-08-29T12:00	25126	26	-50.4	-82.9	147	2
2023-08-29T12:00	25158	26	-50.1	-83.4	150	2
2023-08-29T12:00	25177	26	-49.7	-83.1	149	2
2023-08-29T12:00	25207	26	-49.4	-82.9	146	1
2023-08-29T12:00	25240	26	-49.2	-82.7	141	1
2023-08-29T12:00	25264	26	-49.2	-82.7	136	1
2023-08-29T12:00	25301	25	-49.3	-82.1	133	1
2023-08-29T12:00	25323	25	-49.4	-82.2	132	1
2023-08-29T12:00	25352	25	-49.4	-82.2	132	2
2023-08-29T12:00	25382	25	-49.4	-82.2	131	2
2023-08-29T12:00	25417	25	-49.4	-82.2	130	2
2023-08-29T12:00	25444	25	-49.2	-82.0	133	2
2023-08-29T12:00	25465	25	-49.1	-82.0	140	2
2023-08-29T12:00	25502	25	-49.2	-82.0	152	2
2023-08-29T12:00	25526	25	-49.4	-82.2	165	2
2023-08-29T12:00	25554	24	-49.5	-82.3	176	3
2023-08-29T12:00	25585	24	-49.5	-82.3	185	4
2023-08-29T12:00	25614	24	-49.4	-82.2	193	4
2023-08-29T12:00	25647	24	-49.1	-82.7	200	5
2023-08-29T12:00	25676	24	-48.9	-82.5	206	5
2023-08-29T12:00	25702	24	-48.8	-82.4	210	5
2023-08-29T12:00	25729	24	-48.8	-82.4	213	5
2023-08-29T12:00	25769	24	-48.9	-82.5	215	5
2023-08-29T12:00	25794	24	-48.9	-82.5	218	5
2023-08-29T12:00	25813	24	-48.9	-82.5	221	4
2023-08-29T12:00	25840	23	-48.8	-82.4	223	3
2023-08-29T12:00	25868	23	-48.5	-82.2	224	2
2023-08-29T12:00	25904	23	-48.3	-82.1	219	2
2023-08-29T12:00	25933	23	-48.2	-82.0	210	2
2023-08-29T12:00	25960	23	-48.2	-82.0	202	2
2023-08-29T12:00	25984	23	-48.1	-81.9	196	2
2023-08-29T12:00	26011	23	-48.1	-81.9	192	2
2023-08-29T12:00	26048	23	-48.2	-82.0	187	2
2023-08-29T12:00	26068	23	-48.3	-82.1	179	2
2023-08-29T12:00	26099	23	-48.3	-82.1	168	2
2023-08-29T12:00	26123	22	-48.4	-81.4	154	2
2023-08-29T12:00	26154	22	-48.5	-81.5	141	2
2023-08-29T12:00	26174	22	-48.6	-81.6	132	2
2023-08-29T12:00	26208	22	-48.7	-81.7	127	3
2023-08-29T12:00	26239	22	-48.6	-81.6	126	3
2023-08-29T12:00	26268	22	-48.5	-82.2	129	3
2023-08-29T12:00	26297	22	-48.3	-82.1	135	3
2023-08-29T12:00	26323	22	-48.3	-82.1	144	3
2023-08-29T12:00	26347	22	-48.4	-82.2	154	3
2023-08-29T12:00	26383	22	-48.2	-82.0	164	3
2023-08-29T12:00	26405	21	-48.0	-81.9	172	3
2023-08-29T12:00	26434	21	-47.9	-81.8	177	3
2023-08-29T12:00	26462	21	-47.8	-81.7	179	3
2023-08-29T12:00	26489	21	-47.6	-81.6	178	3
2023-08-29T12:00	26514	21	-47.4	-82.2	174	3
2023-08-29T12:00	26545	21	-47.1	-82.0	169	3
2023-08-29T12:00	26572	21	-46.9	-81.9	164	3
2023-08-29T12:00	26607	21	-46.5	-81.6	158	2
2023-08-29T12:00	26630	21	-46.2	-81.4	153	2
2023-08-29T12:00	26660	21	-46.0	-81.2	149	2
2023-08-29T12:00	26691	21	-45.7	-81.0	147	2
2023-08-29T12:00	26715	21	-45.5	-80.9	147	2
2023-08-29T12:00	26741	20	-45.3	-80.7	150	2
2023-08-29T12:00	26774	20	-45.0	-80.5	154	2
2023-08-29T12:00	26800	20	-45.0	-80.5	158	2
2023-08-29T12:00	26837	20	-44.9	-80.4	159	2
2023-08-29T12:00	26863	20	-44.9	-80.4	157	2
2023-08-29T12:00	26886	20	-44.8	-80.4	153	2
2023-08-29T12:00	26920	20	-44.6	-80.2	148	3
2023-08-29T12:00	26949	20	-44.5	-80.1	144	3
2023-08-29T12:00	26965	20	-44.5	-80.1	142	4
2023-08-29T12:00	27005	20	-44.5	-80.1	142	5
2023-08-29T12:00	27037	20	-44.6	-80.2	143	6
2023-08-29T12:00	27064	19	-44.6	-80.2	145	7
2023-08-29T12:00	27087	19	-44.5	-80.1	148	8
2023-08-29T12:00	27119	19	-44.4	-80.1	151	8
2023-08-29T12:00	27152	19	-44.5	-80.1	153	8
2023-08-29T12:00	27181	19	-44.6	-80.2	156	8
2023-08-29T12:00	27207	19	-44.2	-79.9	159	8
2023-08-29T12:00	27248	19	-44.1	-79.9	161	8
2023-08-29T12:00	27275	19	-44.2	-79.9	163	8
2023-08-29T12:00	27309	19	-44.3	-80.0	164	7
2023-08-29T12:00	27333	19	-44.3	-80.0	167	7
2023-08-29T12:00	27357	19	-44.3	-80.0	171	6
2023-08-29T12:00	27393	19	-44.2	-79.9	177	6
2023-08-29T12:00	27416	18	-44.1	-79.9	185	5
2023-08-29T12:00	27444	18	-43.9	-79.7	194	5
2023-08-29T12:00	27473	18	-43.8	-79.6	201	5
2023-08-29T12:00	27509	18	-43.7	-79.6	206	5
2023-08-29T12:00	27533	18	-43.6	-80.4	209	5
2023-08-29T12:00	27566	18	-43.6	-80.4	210	5
2023-08-29T12:00	27582	18	-43.5	-80.4	211	5
2023-08-29T12:00	27628	18	-43.4	-80.3	211	5
2023-08-29T12:00	27649	18	-43.3	-80.2	212	5
2023-08-29T12:00	27677	18	-43.2	-80.2	214	5
2023-08-29T12:00	27707	18	-43.2	-80.2	218	5
2023-08-29T12:00	27728	18	-43.0	-80.0	224	5
2023-08-29T12:00	27758	18	-42.8	-79.9	231	5
2023-08-29T12:00	27785	17	-42.7	-79.8	239	4
2023-08-29T12:00	27816	17	-42.6	-79.7	245	5
2023-08-29T12:00	27844	17	-42.6	-79.7	248	5
2023-08-29T12:00	27871	17	-42.6	-79.7	248	5
2023-08-29T12:00	27906	17	-42.7	-79.8	248	5
2023-08-29T12:00	27928	17	-42.6	-79.7	246	5
2023-08-29T12:00	27954	17	-42.5	-79.7	246	5
2023-08-29T12:00	27988	17	-42.4	-79.6	248	5
2023-08-29T12:00	28021	17	-42.3	-79.5	250	5
2023-08-29T12:00	28035	17	-42.3	-79.5	253	4
2023-08-29T12:00	28063	17	-42.3	-79.5	258	4
2023-08-29T12:00	28093	17	-42.3	-79.5	265	3
2023-08-29T12:00	28121	17	-42.3	-79.5	274	3
2023-08-29T12:00	28148	17	-42.5	-79.7	286	2
2023-08-29T12:00	28179	17	-42.5	-79.7	300	2
2023-08-29T12:00	28204	16	-42.5	-79.7	313	2
2023-08-29T12:00	28233	16	-42.6	-79.7	327	1
2023-08-29T12:00	28259	16	-42.7	-79.8	351	1
2023-08-29T12:00	28285	16	-42.8	-79.9	27	1
2023-08-29T12:00	28313	16	-42.9	-80.0	53	1
2023-08-29T12:00	28347	16	-43.0	-80.0	66	2
2023-08-29T12:00	28367	16	-43.1	-80.1	74	2
2023-08-29T12:00	28403	16	-43.2	-80.2	81	2
2023-08-29T12:00	28420	16	-43.3	-80.2	89	2
2023-08-29T12:00	28449	16	-43.2	-80.2	98	2
2023-08-29T12:00	28479	16	-43.1	-80.1	109	2
2023-08-29T12:00	28515	16	-43.0	-80.0	127	1
2023-08-29T12:00	28548	16	-42.8	-79.9	157	1
2023-08-29T12:00	28561	16	-42.8	-79.9	187	1
2023-08-29T12:00	28604	16	-42.7	-79.8	199	2
2023-08-29T12:00	28616	15	-42.6	-79.7	200	2
2023-08-29T12:00	28650	15	-42.5	-80.8	191	2
2023-08-29T12:00	28688	15	-42.2	-80.6	176	2
2023-08-29T12:00	28715	15	-41.9	-80.4	158	2
2023-08-29T12:00	28747	15	-41.8	-80.3	144	3
2023-08-29T12:00	28774	15	-41.5	-80.1	138	3
2023-08-29T12:00	28807	15	-41.2	-79.9	137	4
2023-08-29T12:00	28828	15	-41.0	-79.7	138	4
2023-08-29T12:00	28871	15	-41.0	-79.7	141	5
2023-08-29T12:00	28883	15	-41.1	-79.8	144	5
2023-08-29T12:00	28919	15	-41.0	-79.7	147	5
2023-08-29T12:00	28953	15	-40.8	-79.6	151	5
2023-08-29T12:00	28978	15	-40.9	-79.7	154	5
2023-08-29T12:00	29013	15	-41.1	-79.8	155	5
2023-08-29T12:00	29044	15	-41.2	-79.9	153	5
2023-08-29T12:00	29075	14	-41.2	-79.9	150	5
2023-08-29T12:00	29101	14	-41.1	-79.8	145	5
2023-08-29T12:00	29130	14	-41.1	-79.8	139	5
2023-08-29T12:00	29157	14	-41.0	-79.7	133	5
2023-08-29T12:00	29190	14	-40.9	-79.7	128	5
2023-08-29T12:00	29228	14	-41.0	-79.7	126	5
2023-08-29T12:00	29259	14	-41.2	-79.9	125	6
2023-08-29T12:00	29298	14	-41.4	-80.0	125	6
2023-08-29T12:00	29322	14	-41.4	-80.0	126	7
2023-08-29T12:00	29359	14	-41.3	-79.9	126	8
2023-08-29T12:00	29392	14	-41.3	-79.9	128	8
2023-08-29T12:00	29413	14	-41.3	-78.8	129	9
2023-08-29T12:00	29453	14	-41.5	-79.0	131	9
2023-08-29T12:00	29478	14	-41.6	-79.0	133	10
2023-08-29T12:00	29515	14	-41.7	-79.1	136	10
2023-08-29T12:00	29554	13	-41.9	-79.2	139	10
2023-08-29T12:00	29580	13	-42.0	-79.3	142	9
2023-08-29T12:00	29600	13	-42.3	-79.5	146	9
2023-08-29T12:00	29645	13	-42.4	-79.6	149	9
2023-08-29T12:00	29675	13	-42.6	-79.7	154	9
2023-08-29T12:00	29703	13	-42.8	-79.9	158	8
2023-08-29T12:00	29737	13	-43.0	-80.0	163	9
2023-08-29T12:00	29769	13	-43.3	-80.2	169	9
2023-08-29T12:00	29816	13	-43.6	-80.4	176	9
2023-08-29T12:00	29835	13	-43.7	-80.5	182	10
2023-08-29T12:00	29870	13	-43.6	-80.4	188	10
2023-08-29T12:00	29892	13	-43.3	-80.2	194	10
2023-08-29T12:00	29929	13	-43.0	-80.0	199	10
2023-08-29T12:00	29970	13	-42.8	-79.9	203	10
2023-08-29T12:00	30004	13	-42.6	-79.7	208	9
2023-08-29T12:00	30022	13	-42.5	-79.7	212	9
2023-08-29T12:00	30056	13	-42.5	-80.8	215	8
2023-08-29T12:00	30091	12	-42.5	-80.8	220	7
2023-08-29T12:00	30122	12	-42.4	-80.7	225	7
2023-08-29T12:00	30145	12	-42.2	-80.6	231	6
2023-08-29T12:00	30188	12	-41.9	-80.4	236	5
2023-08-29T12:00	30214	12	-41.7	-80.2	240	4
2023-08-29T12:00	30242	12	-41.5	-80.1	240	3
2023-08-29T12:00	30272	12	-41.3	-79.9	234	3
2023-08-29T12:00	30294	12	-41.1	-79.8	222	3
2023-08-29T12:00	30332	12	-41.0	-79.7	207	3
2023-08-29T12:00	30366	12	-41.0	-79.7	194	3
2023-08-29T12:00	30399	12	-40.9	-79.7	184	4
2023-08-29T12:00	30432	12	-40.8	-79.6	178	4
2023-08-29T12:00	30457	12	-40.7	-79.5	174	5
2023-08-29T12:00	30480	12	-40.7	-79.5	174	5
2023-08-29T12:00	30509	12	-40.8	-79.6	176	5
2023-08-29T12:00	30537	12	-40.8	-79.6	180	5
2023-08-29T12:00	30570	12	-40.8	-79.6	185	5
2023-08-29T12:00	30619	12	-40.8	-79.6	191	4
2023-08-29T12:00	30635	11	-40.9	-79.7	194	4
2023-08-29T12:00	30669	11	-40.9	-79.7	195	4
2023-08-29T12:00	30699	11	-40.7	-79.5	193	5
2023-08-29T12:00	30723	11	-40.7	-79.5	191	5
2023-08-29T12:00	30750	11	-40.6	-79.5	188	6
2023-08-29T12:00	30774	11	-40.7	-79.5	186	7
2023-08-29T12:00	30812	11	-40.9	-79.7	184	8
2023-08-29T12:00	30831	11	-41.1	-79.8	182	8
2023-08-29T12:00	30871	11	-41.1	-79.8	180	9
2023-08-29T12:00	30914	11	-41.1	-79.8	179	9
2023-08-29T12:00	30935	11	-41.1	-79.8	179	9
2023-08-29T12:00	30954	11	-41.0	-79.7	179	9
2023-08-29T12:00	30992	11	-40.9	-79.7	181	8
2023-08-29T12:00	31018	11	-40.9	-79.7	184	7
2023-08-29T12:00	31050	11	-40.8	-79.6	189	6
2023-08-29T12:00	31083	11	-40.9	-79.7	195	6
2023-08-29T12:00	31109	11	-41.1	-79.8	203	5
2023-08-29T12:00	31145	11	-41.1	-79.8	210	5
2023-08-29T12:00	31167	11	-41.1	-79.8	217	5
2023-08-29T12:00	31207	11	-41.2	-79.9	222	5
2023-08-29T12:00	31227	11	-41.2	-79.9	225	5
2023-08-29T12:00	31273	10	-41.2	-79.9	228	5
2023-08-29T12:00	31284	10	-41.2	-79.9	230	4
2023-08-29T12:00	31318	10	-41.3	-79.9	232	4
2023-08-29T12:00	31367	10	-41.4	-80.0	235	3
2023-08-29T12:00	31389	10	-41.6	-80.1	239	2
2023-08-29T12:00	31429	10	-41.8	-80.3	242	2
2023-08-29T12:00	31444	10	-41.8	-80.3	245	1
2023-08-29T12:00	31478	10	-41.7	-80.2	241	1
2023-08-29T12:00	31511	10	-41.4	-80.0	228	1
2023-08-29T12:00	31532	10	-41.3	-79.9	218	1
2023-08-29T12:00	31549	10	-41.1	-79.8	218	1
2023-08-29T12:00	31597	10	-41.1	-79.8	220	1
2023-08-29T12:00	31624	10	-41.0	-79.7	222	2
2023-08-29T12:00	31649	10	-41.0	-79.7	221	2
2023-08-29T12:00	31683	10	-40.9	-79.7	218	3
2023-08-29T12:00	31722	10	-40.7	-79.5	214	3
2023-08-29T12:00	31741	10	-40.5	-79.4	210	3
2023-08-29T12:00	31774	10	-40.2	-79.2	207	4
2023-08-29T12:00	31800	10	-40.0	-79.0	206	4
2023-08-29T12:00	31844	10	-40.0	-79.0	207	4
2023-08-29T12:00	31866	10	-40.1	-79.1	210	5
2023-08-29T12:00	31896	10	-40.2	-79.2	215	5
2023-08-29T12:00	31925	10	-40.2	-79.2	222	5
2023-08-29T12:00	31969	9	-40.1	-79.1	229	6
2023-08-29T12:00	31988	9	-40.1	-79.1	236	6
2023-08-29T12:00	32028	9	-40.2	-79.2	244	6
2023-08-29T12:00	32039	9	-40.2	-79.2	253	6
2023-08-29T12:00	32091	9	-40.1	-79.1	264	6
2023-08-29T12:00	32097	9	-40.0	-79.0	275	6
2023-08-29T12:00	32139	9	-39.9	-79.0	285	6
2023-08-29T12:00	32169	9	-39.7	-78.8	295	5
2023-08-29T12:00	32203	9	-39.5	-78.7	303	5
2023-08-29T12:00	32213	9	-39.4	-78.6	310	4
2023-08-29T12:00	32275	9	-39.3	-78.5	319	3
2023-08-29T12:00	32296	9	-39.2	-78.5	331	2
2023-08-29T12:00	32317	9	-39.1	-78.4	350	2
2023-08-29T12:00	32342	9	-39.1	-78.4	22	1
2023-08-29T12:00	32391	9	-39.1	-78.4	53	1
2023-08-29T12:00	32416	9	-38.9	-78.3	78	1
2023-08-29T12:00	32443	9	-38.7	-78.1	102	1
2023-08-29T12:00	32482	9	-38.5	-78.0	128	0
2023-08-29T12:00	32505	9	-38.4	-77.9	139	0
2023-08-29T12:00	32534	9	-38.2	-77.8	138	1
2023-08-29T12:00	32596	9	-38.2	-77.8	131	0
2023-08-29T12:00	32610	9	-38.3	-77.9	133	0
2023-08-29T12:00	32624	9	-38.2	-77.8	168	0
2023-08-29T12:00	32670	9	-38.0	-77.6	229	0
2023-08-29T12:00	32717	9	-37.9	-77.6	253	1
2023-08-29T12:00	32759	8	-37.9	-77.6	286	1
2023-08-29T12:00	32779	8	-37.9	-77.6	311	1
2023-08-29T12:00	32833	8	-37.8	-77.5	342	1
2023-08-29T12:00	32853	8	-37.7	-77.4	13	1
2023-08-29T12:00	32882	8	-37.6	-77.4	49	1
2023-08-29T12:00	32907	8	-37.3	-77.2	80	1
2023-08-29T12:00	32931	8	-37.0	-77.0	99	2
2023-08-29T12:00	32964	8	-36.6	-76.7	108	3
2023-08-29T12:00	32996	8	-36.3	-76.5	112	3
2023-08-29T12:00	33030	8	-36.1	-76.3	112	4
2023-08-29T12:00	33048	8	-35.9	-76.2	111	4
2023-08-29T12:00	33090	8	-35.7	-76.1	110	5
2023-08-29T12:00	33101	8	-35.7	-76.1	107	5
2023-08-29T12:00	33151	8	-35.8	-76.1	105	6
2023-08-29T12:00	33178	8	-35.8	-76.1	103	6
2023-08-29T12:00	33202	8	-35.7	-76.1	101	6
2023-08-29T12:00	33240	8	-35.6	-76.0	102	7
2023-08-29T12:00	33260	8	-35.6	-76.0	104	7
2023-08-29T12:00	33288	8	-35.5	-75.9	108	8
2023-08-29T12:00	33298	8	-35.3	-75.8	113	8
2023-08-29T12:00	33330	8	-35.3	-75.8	118	8
2023-08-29T12:00	33386	8	-35.5	-75.9	122	9
2023-08-29T12:00	33408	8	-35.7	-76.1	127	9
2023-08-29T12:00	33421	8	-35.7	-76.1	131	9
2023-08-29T12:00	33446	8	-35.7	-76.1	135	9
2023-08-29T12:00	33481	8	-35.8	-76.1	138	10
2023-08-29T12:00	33531	8	-36.0	-76.3	141	10
2023-08-29T12:00	33547	8	-36.2	-76.4	143	10
2023-08-29T12:00	33585	7	-36.2	-76.4	143	10
2023-08-29T12:00	33633	7	-36.2	-76.4	144	10
2023-08-29T12:00	33654	7	-36.1	-76.3	144	10
2023-08-29T12:00	33659	7	-35.9	-76.2	145	9
2023-08-29T12:00	33711	7	-35.9	-76.2	146	9
2023-08-29T12:00	33740	7	-35.9	-76.2	149	8
2023-08-29T12:00	33759	7	-36.1	-76.3	152	8
2023-08-29T12:00	33797	7	-36.3	-76.5	156	8
2023-08-29T12:00	33826	7	-36.4	-76.5	160	8
2023-08-29T12:00	33852	7	-36.4	-76.5	165	8
2023-08-29T12:00	33902	7	-36.4	-76.5	170	8
2023-08-29T12:00	33936	7	-36.5	-76.6	175	8
2023-08-29T12:00	33961	7	-36.7	-76.7	180	8
2023-08-29T12:00	33974	7	-36.8	-76.8	184	8
2023-08-29T12:00	34012	7	-36.8	-76.8	189	8
2023-08-29T12:00	34056	7	-36.6	-76.7	193	7
2023-08-29T12:00	34070	7	-36.5	-76.6	198	6
2023-08-29T12:00	34109	7	-36.2	-76.4	201	6
2023-08-29T12:00	34136	7	-35.9	-76.2	203	5
2023-08-29T12:00	34163	7	-35.7	-76.1	202	5
2023-08-29T12:00	34206	7	-35.6	-76.0	199	5
2023-08-29T12:00	34222	7	-35.5	-75.9	194	4
2023-08-29T12:00	34269	7	-35.5	-75.9	189	5
2023-08-29T12:00	34296	7	-35.4	-75.8	185	5
2023-08-29T12:00	34333	7	-35.4	-75.8	184	5
2023-08-29T12:00	34349	7	-35.3	-75.8	184	6
2023-08-29T12:00	34385	7	-35.3	-75.8	185	6
2023-08-29T12:00	34406	7	-35.4	-75.8	187	7
2023-08-29T12:00	34457	7	-35.5	-75.9	189	7
2023-08-29T12:00	34508	7	-35.6	-76.0	192	8
2023-08-29T12:00	34554	7	-36.0	-76.3	199	9
2023-08-29T12:00	34566	7	-36.0	-76.3	205	9
2023-08-29T12:00	34609	6	-36.0	-76.3	212	9
2023-08-29T12:00	34643	6	-35.7	-76.1	219	9
2023-08-29T12:00	34663	6	-35.4	-75.8	226	9
2023-08-29T12:00	34691	6	-35.1	-75.6	233	8
2023-08-29T12:00	34719	6	-34.9	-75.5	239	8
2023-08-29T12:00	34768	6	-34.8	-75.4	244	7
2023-08-29T12:00	34804	6	-34.7	-75.4	250	6
2023-08-29T12:00	34813	6	-34.5	-75.2	258	5
2023-08-29T12:00	34825	6	-34.4	-75.2	268	4
2023-08-29T12:00	34883	6	-34.3	-75.1	281	3
2023-08-29T12:00	34892	6	-34.2	-75.0	298	3
2023-08-29T12:00	34945	6	-34.2	-75.0	323	2
2023-08-29T12:00	34955	6	-34.0	-74.9	360	2
2023-08-29T12:00	34999	6	-33.7	-74.7	32	2
2023-08-29T12:00	35007	6	-33.5	-74.5	50	3
2023-08-29T12:00	35035	6	-33.2	-74.3	60	3
2023-08-29T12:00	35074	6	-33.0	-74.2	66	4
2023-08-29T12:00	35099	6	-32.9	-74.1	70	4
2023-08-29T12:00	35143	6	-32.7	-74.0	73	3
2023-08-29T12:00	35173	6	-32.7	-74.0	74	2
2023-08-29T12:00	35194	6	-32.7	-74.0	73	2
2023-08-29T12:00	35221	6	-32.7	-74.0	71	1
2023-08-29T12:00	35270	6	-32.8	-74.1	60	0
2023-08-29T12:00	35283	6	-32.9	-74.1	275	0
2023-08-29T12:00	35300	6	-32.9	-74.1	266	1
2023-08-29T12:00	35314	6	-32.8	-74.1	266	2
2023-08-29T12:00	35344	6	-32.7	-74.0	270	2
2023-08-29T12:00	35373	6	-32.5	-73.8	278	2
2023-08-29T12:00	35398	6	-32.3	-73.7	289	2
2023-08-29T12:00	35427	6	-32.1	-73.6	306	2
2023-08-29T12:00	35435	6	-32.0	-73.5	331	1
2023-08-29T12:00	35452	6	-31.8	-73.4	359	1
2023-08-29T12:00	35504	6	-31.7	-73.3	24	2
2023-08-29T12:00	35517	6	-31.6	-73.2	39	2
2023-08-29T12:00	35553	6	-31.4	-73.1	46	3
2023-08-29T12:00	35579	6	-31.0	-72.8	48	3
2023-08-29T12:00	35588	6	-30.6	-72.5	47	3
2023-08-29T18:00	116	995	14.1	14.1	338	3
2023-08-29T18:00	142	991	13.8	13.8	342	3
2023-08-29T18:00	171	988	13.5	13.5	342	4
2023-08-29T18:00	199	985	13.3	13.3	341	5
2023-08-29T18:00	225	982	13.1	13.1	340	6
2023-08-29T18:00	248	979	13.1	12.7	340	7
2023-08-29T18:00	269	976	12.9	12.8	340	7
2023-08-29T18:00	296	974	12.7	12.7	340	7
2023-08-29T18:00	318	971	12.5	12.5	341	8
2023-08-29T18:00	339	968	12.4	12.4	342	7
2023-08-29T18:00	361	966	12.3	12.3	343	7
2023-08-29T18:00	382	964	12.2	12.2	345	7
2023-08-29T18:00	398	962	12.2	12.2	349	7
2023-08-29T18:00	418	959	12.1	12.1	352	7
2023-08-29T18:00	440	957	12.0	11.9	354	7
2023-08-29T18:00	462	954	11.9	11.8	356	7
2023-08-29T18:00	483	952	11.7	11.7	356	7
2023-08-29T18:00	504	950	11.6	11.6	356	7
2023-08-29T18:00	525	947	11.5	11.5	356	7
2023-08-29T18:00	546	945	11.3	11.3	356	7
2023-08-29T18:00	570	942	11.2	11.2	357	7
2023-08-29T18:00	593	940	11.1	11.1	358	7
2023-08-29T18:00	619	937	11.0	11.0	359	7
2023-08-29T18:00	642	934	10.9	10.9	0	7
2023-08-29T18:00	670	931	10.7	10.7	1	7
2023-08-29T18:00	695	928	10.6	10.6	2	7
2023-08-29T18:00	727	925	10.5	10.5	4	7
2023-08-29T18:00	755	922	10.3	10.3	6	7
2023-08-29T18:00	781	919	10.2	10.2	8	7
2023-08-29T18:00	805	916	10.1	10.1	8	7
2023-08-29T18:00	835	913	9.9	9.9	7	8
2023-08-29T18:00	866	910	9.7	9.7	6	8
2023-08-29T18:00	890	907	9.6	9.6	4	8
2023-08-29T18:00	912	904	9.5	9.5	3	8
2023-08-29T18:00	936	902	9.4	9.4	4	8
2023-08-29T18:00	970	898	9.2	9.2	5	8
2023-08-29T18:00	1000	895	9.1	9.1	8	8
2023-08-29T18:00	1027	892	9.0	9.0	10	8
2023-08-29T18:00	1052	889	8.8	8.8	13	8
2023-08-29T18:00	1078	887	8.8	8.7	15	8
2023-08-29T18:00	1102	884	8.8	8.7	17	8
2023-08-29T18:00	1129	881	8.7	8.5	18	8
2023-08-29T18:00	1152	879	8.6	8.5	19	8
2023-08-29T18:00	1177	876	8.4	8.3	20	7
2023-08-29T18:00	1204	873	8.3	8.1	20	7
2023-08-29T18:00	1226	871	8.1	8.1	21	7
2023-08-29T18:00	1252	868	8.0	8.0	21	6
2023-08-29T18:00	1276	866	7.8	7.8	22	6
2023-08-29T18:00	1303	863	7.7	7.7	22	6
2023-08-29T18:00	1328	860	7.5	7.5	23	6
2023-08-29T18:00	1351	858	7.4	7.4	22	6
2023-08-29T18:00	1378	855	7.3	7.3	21	6
2023-08-29T18:00	1401	852	7.1	7.1	20	5
2023-08-29T18:00	1427	850	7.0	7.0	20	5
2023-08-29T18:00	1455	847	6.9	6.9	20	5
2023-08-29T18:00	1483	844	6.7	6.7	21	5
2023-08-29T18:00	1508	841	6.6	6.6	22	5
2023-08-29T18:00	1534	839	6.5	6.5	21	5
2023-08-29T18:00	1559	836	6.4	6.4	20	5
2023-08-29T18:00	1584	834	6.3	6.3	18	5
2023-08-29T18:00	1605	832	6.2	6.2	16	5
2023-08-29T18:00	1633	829	6.1	6.1	13	5
2023-08-29T18:00	1657	826	6.1	6.1	11	5
2023-08-29T18:00	1682	824	5.9	5.9	9	5
2023-08-29T18:00	1709	821	5.8	5.8	6	5
2023-08-29T18:00	1732	819	5.7	5.7	5	5
2023-08-29T18:00	1757	816	5.6	5.6	3	5
2023-08-29T18:00	1782	814	5.5	5.5	2	6
2023-08-29T18:00	1805	812	5.3	5.3	2	6
2023-08-29T18:00	1827	809	5.2	5.2	3	6
2023-08-29T18:00	1856	807	5.1	5.1	5	6
2023-08-29T18:00	1880	804	5.0	5.0	7	6
2023-08-29T18:00	1904	802	4.9	4.9	10	6
2023-08-29T18:00	1928	799	4.8	4.8	13	6
2023-08-29T18:00	1956	797	4.7	4.7	16	6
2023-08-29T18:00	1979	795	4.6	4.6	19	6
2023-08-29T18:00	2003	792	4.5	4.5	22	6
2023-08-29T18:00	2034	789	4.5	4.5	24	5
2023-08-29T18:00	2061	787	4.5	4.5	26	5
2023-08-29T18:00	2084	784	4.4	4.4	26	4
2023-08-29T18:00	2117	781	4.3	4.3	24	4
2023-08-29T18:00	2145	778	4.1	4.1	21	3
2023-08-29T18:00	2174	776	4.0	4.0	15	3
2023-08-29T18:00	2201	773	3.9	3.9	9	3
2023-08-29T18:00	2226	771	3.7	3.7	2	3
2023-08-29T18:00	2252	768	3.8	3.8	356	3
2023-08-29T18:00	2279	766	3.7	3.7	349	3
2023-08-29T18:00	2305	763	3.5	3.5	342	2
2023-08-29T18:00	2326	761	3.4	3.4	327	1
2023-08-29T18:00	2356	759	3.3	3.3	254	1
2023-08-29T18:00	2380	756	3.6	3.6	196	2
2023-08-29T18:00	2407	754	3.9	3.9	186	3
2023-08-29T18:00	2435	751	3.8	3.8	182	3
2023-08-29T18:00	2463	749	3.7	3.7	180	4
2023-08-29T18:00	2489	746	3.8	3.7	177	4
2023-08-29T18:00	2512	744	3.7	3.7	174	4
2023-08-29T18:00	2534	742	3.7	3.6	170	3
2023-08-29T18:00	2556	740	3.6	3.6	168	3
2023-08-29T18:00	2582	738	3.4	3.4	168	3
2023-08-29T18:00	2611	735	3.2	3.2	170	4
2023-08-29T18:00	2638	733	3.1	3.1	172	4
2023-08-29T18:00	2664	730	2.9	2.9	175	4
2023-08-29T18:00	2691	728	2.8	2.8	178	4
2023-08-29T18:00	2721	725	2.6	2.6	181	4
2023-08-29T18:00	2747	723	2.5	2.5	185	4
2023-08-29T18:00	2777	720	2.3	2.3	188	5
2023-08-29T18:00	2812	717	2.1	2.1	190	5
2023-08-29T18:00	2853	714	1.9	1.9	192	5
2023-08-29T18:00	2878	711	1.8	1.8	194	5
2023-08-29T18:00	2906	709	1.6	1.6	196	5
2023-08-29T18:00	2930	707	1.5	1.5	197	5
2023-08-29T18:00	2962	704	1.4	1.4	199	5
2023-08-29T18:00	2988	702	1.2	1.2	198	5
2023-08-29T18:00	3021	699	1.0	1.0	196	5
2023-08-29T18:00	3047	697	0.8	0.8	192	5
2023-08-29T18:00	3073	694	0.7	0.7	186	6
2023-08-29T18:00	3104	692	0.6	0.6	180	6
2023-08-29T18:00	3137	689	0.7	0.2	175	6
2023-08-29T18:00	3161	687	0.8	-0.2	172	6
2023-08-29T18:00	3187	684	0.7	-0.4	171	6
2023-08-29T18:00	3219	682	0.5	-1.1	172	6
2023-08-29T18:00	3245	680	0.3	-1.4	173	6
2023-08-29T18:00	3270	678	0.2	-1.4	175	6
2023-08-29T18:00	3298	675	0.0	-1.5	175	6
2023-08-29T18:00	3328	673	-0.2		174	6
2023-08-29T18:00	3354	670	-0.3	-1.4	173	6
2023-08-29T18:00	3385	668	-0.5	-1.4	172	5
2023-08-29T18:00	3415	666	-0.7	-1.5	172	5
2023-08-29T18:00	3440	663	-0.9	-1.5	172	6
2023-08-29T18:00	3464	661	-1.0	-1.7	173	6
2023-08-29T18:00	3485	659	-1.1	-2.0	174	6
2023-08-29T18:00	3512	657	-1.3	-2.7	174	7
2023-08-29T18:00	3537	655	-1.5		174	7
2023-08-29T18:00	3563	653	-1.7	-3.3	173	7
2023-08-29T18:00	3589	651	-1.9	-3.7	171	7
2023-08-29T18:00	3617	649	-2.1	-4.0	170	7
2023-08-29T18:00	3642	647	-2.3	-4.0	170	6
2023-08-29T18:00	3673	644	-2.6	-4.2	170	6
2023-08-29T18:00	3701	642	-2.8	-4.2	171	6
2023-08-29T18:00	3728	640	-3.0	-4.2	173	6
2023-08-29T18:00	3753	638	-3.2	-4.1	174	6
2023-08-29T18:00	3780	636	-3.4	-4.2	176	6
2023-08-29T18:00	3809	633	-3.7	-4.2	176	6
2023-08-29T18:00	3835	631	-3.9	-4.3	177	6
2023-08-29T18:00	3859	629	-4.1	-4.9	178	6
2023-08-29T18:00	3887	627	-4.3	-5.0	179	6
2023-08-29T18:00	3916	625	-4.5	-5.1	179	6
2023-08-29T18:00	3944	623	-4.7	-5.2	178	5
2023-08-29T18:00	3968	621	-5.0	-5.6	175	5
2023-08-29T18:00	3994	619	-5.2	-5.6	172	5
2023-08-29T18:00	4022	616	-5.4	-5.8	169	6
2023-08-29T18:00	4051	614	-5.7	-5.9	168	6
2023-08-29T18:00	4079	612	-5.9	-6.0	168	6
2023-08-29T18:00	4104	610	-6.1	-6.1	169	6
2023-08-29T18:00	4128	608	-6.3	-6.3	169	7
2023-08-29T18:00	4153	606	-6.5	-6.5	168	7
2023-08-29T18:00	4179	604	-6.7	-6.7	169	7
2023-08-29T18:00	4212	602	-7.0	-7.0	171	8
2023-08-29T18:00	4241	599	-7.1	-7.8	174	8
2023-08-29T18:00	4267	597	-7.1	-8.5	177	8
2023-08-29T18:00	4293	595	-7.0	-9.1	180	8
2023-08-29T18:00	4315	594	-6.5	-11.1	181	8
2023-08-29T18:00	4343	592	-6.3	-12.6	183	7
2023-08-29T18:00	4364	590	-6.3	-13.4	184	7
2023-08-29T18:00	4390	588	-6.2	-13.1	187	6
2023-08-29T18:00	4420	586	-6.3	-13.7	192	6
2023-08-29T18:00	4445	584	-6.3	-14.9	196	6
2023-08-29T18:00	4472	582	-6.4	-16.6	199	7
2023-08-29T18:00	4495	580	-6.2	-19.7	201	7
2023-08-29T18:00	4520	578	-6.4	-19.4	201	7
2023-08-29T18:00	4550	576	-6.5	-19.9	200	7
2023-08-29T18:00	4577	574	-6.4	-23.2	198	7
2023-08-29T18:00	4603	572	-6.4	-22.3	196	6
2023-08-29T18:00	4631	570	-6.6	-21.8	194	6
2023-08-29T18:00	4650	569	-6.8	-21.8	192	6
2023-08-29T18:00	4675	567	-7.0	-22.7	190	5
2023-08-29T18:00	4700	565	-7.1	-23.4	187	5
2023-08-29T18:00	4726	563	-7.2	-23.5	183	5
2023-08-29T18:00	4753	561	-7.4	-24.1	178	5
2023-08-29T18:00	4780	559	-7.5	-22.5	175	6
2023-08-29T18:00	4809	557	-7.7	-22.7	174	7
2023-08-29T18:00	4837	555	-7.8	-20.7	176	7
2023-08-29T18:00	4865	553	-8.0	-19.9	180	8
2023-08-29T18:00	4893	551	-7.9	-19.5	184	8
2023-08-29T18:00	4919	550	-8.0	-19.5	189	8
2023-08-29T18:00	4945	548	-8.1	-19.2	193	8
2023-08-29T18:00	4971	546	-8.2	-19.5	195	9
2023-08-29T18:00	4999	544	-8.4	-19.5	196	9
2023-08-29T18:00	5030	542	-8.6	-19.3	196	9
2023-08-29T18:00	5057	540	-8.7	-20.0	195	9
2023-08-29T18:00	5089	538	-9.0	-20.4	193	9
2023-08-29T18:00	5120	536	-9.1	-19.2	191	9
2023-08-29T18:00	5143	534	-9.3	-18.2	189	8
2023-08-29T18:00	5170	532	-9.4	-19.7	188	9
2023-08-29T18:00	5201	530	-9.6	-20.3	187	9
2023-08-29T18:00	5233	528	-9.8	-21.7	186	9
2023-08-29T18:00	5252	526	-9.9	-21.8	185	10
2023-08-29T18:00	5277	525	-10.1	-22.1	183	10
2023-08-29T18:00	5299	523	-10.2	-21.1	182	10
2023-08-29T18:00	5331	521	-10.3	-17.9	180	9
2023-08-29T18:00	5362	519	-10.5	-16.2	179	9
2023-08-29T18:00	5388	517	-10.8	-15.2	178	9
2023-08-29T18:00	5411	516	-10.9	-14.8	177	9
2023-08-29T18:00	5439	514	-11.1	-13.7	177	10
2023-08-29T18:00	5465	512	-11.3	-14.5	177	10
2023-08-29T18:00	5499	510	-11.5	-15.1	177	11
2023-08-29T18:00	5528	508	-11.7	-14.8	177	12
2023-08-29T18:00	5555	506	-11.9	-14.2	178	12
2023-08-29T18:00	5580	504	-12.1		180	12
2023-08-29T18:00	5607	503	-12.3	-14.6	182	12
2023-08-29T18:00	5633	501	-12.5	-14.8	185	12
2023-08-29T18:00	5662	499	-12.7	-14.9	187	12
2023-08-29T18:00	5687	497	-12.8	-15.7	188	13
2023-08-29T18:00	5710	496	-12.9	-16.5	188	13
2023-08-29T18:00	5736	494	-13.0	-16.8	188	14
2023-08-29T18:00	5767	492	-13.1	-17.2	187	14
2023-08-29T18:00	5803	490	-13.2		186	13
2023-08-29T18:00	5829	488	-13.3	-17.7	186	13
2023-08-29T18:00	5854	487	-13.4	-17.6	186	13
2023-08-29T18:00	5880	485	-13.5	-17.9	187	12
2023-08-29T18:00	5907	483	-13.8	-18.2	187	12
2023-08-29T18:00	5931	482	-14.0	-18.3	188	12
2023-08-29T18:00	5957	480	-14.1	-18.2	189	12
2023-08-29T18:00	5984	478	-14.3	-18.7	189	12
2023-08-29T18:00	6009	477	-14.4	-19.4	190	12
2023-08-29T18:00	6035	475	-14.7	-19.3	190	13
2023-08-29T18:00	6057	474	-14.8	-19.6	191	13
2023-08-29T18:00	6083	472	-15.0	-20.0	192	12
2023-08-29T18:00	6110	470	-15.3	-20.3	193	12
2023-08-29T18:00	6137	469	-15.5	-20.5	193	11
2023-08-29T18:00	6162	467	-15.7	-21.5	193	11
2023-08-29T18:00	6186	466	-15.8	-23.3	191	11
2023-08-29T18:00	6213	464	-15.9	-23.8	188	12
2023-08-29T18:00	6242	462	-16.1		185	13
2023-08-29T18:00	6272	460	-16.4	-23.8	183	13
2023-08-29T18:00	6312	458	-16.7	-26.3	181	14
2023-08-29T18:00	6342	456	-17.0	-28.9	181	14
2023-08-29T18:00	6369	455	-17.2	-33.5	181	15
2023-08-29T18:00	6398	453	-17.3	-39.7	182	15
2023-08-29T18:00	6426	451	-17.4	-44.0	182	16
2023-08-29T18:00	6446	450	-17.4	-44.3	182	16
2023-08-29T18:00	6472	448	-17.6	-45.9	181	17
2023-08-29T18:00	6499	447	-17.8	-46.6	179	17
2023-08-29T18:00	6524	445	-18.0	-46.7	177	17
2023-08-29T18:00	6554	443	-18.3	-47.0	176	17
2023-08-29T18:00	6581	442	-18.5	-47.5	174	17
2023-08-29T18:00	6601	441	-18.6	-31.3	173	17
2023-08-29T18:00	6625	439	-18.7	-28.9	174	17
2023-08-29T18:00	6654	437	-19.0	-28.4	175	17
2023-08-29T18:00	6680	436	-19.2	-28.6	178	17
2023-08-29T18:00	6710	434	-19.5	-28.6	181	16
2023-08-29T18:00	6730	433	-19.7	-28.7	183	16
2023-08-29T18:00	6752	432	-19.9	-28.5	185	15
2023-08-29T18:00	6773	431	-20.2	-27.5	185	15
2023-08-29T18:00	6793	429	-20.3	-28.9	184	15
2023-08-29T18:00	6813	428	-20.6	-28.5	183	15
2023-08-29T18:00	6839	427	-20.8	-28.3	182	15
2023-08-29T18:00	6862	425	-21.1	-28.4	182	15
2023-08-29T18:00	6887	424	-21.4	-28.0	181	15
2023-08-29T18:00	6906	423	-21.5	-28.3	181	14
2023-08-29T18:00	6920	422	-21.6	-28.3	180	14
2023-08-29T18:00	6938	421	-21.8	-28.0	180	15
2023-08-29T18:00	6960	420	-22.0	-28.1	179	15
2023-08-29T18:00	6979	419	-22.2	-28.2	179	15
2023-08-29T18:00	7000	417	-22.4	-28.4	178	15
2023-08-29T18:00	7023	416	-22.6	-28.3	177	16
2023-08-29T18:00	7043	415	-22.8	-28.7	177	16
2023-08-29T18:00	7060	414	-22.9	-28.6	177	16
2023-08-29T18:00	7080	413	-23.1	-29.6	178	16
2023-08-29T18:00	7098	412	-23.3	-29.6	179	16
2023-08-29T18:00	7120	411	-23.5	-29.1	180	16
2023-08-29T18:00	7138	410	-23.7	-28.6	181	16
2023-08-29T18:00	7164	408	-24.0	-29.1	182	16
2023-08-29T18:00	7188	407	-24.2	-28.8	183	16
2023-08-29T18:00	7215	405	-24.4	-28.5	183	16
2023-08-29T18:00	7241	404	-24.6	-28.3	181	16
2023-08-29T18:00	7267	402	-24.7	-28.0	177	17
2023-08-29T18:00	7296	401	-24.8	-27.6	174	17
2023-08-29T18:00	7325	399	-24.7	-27.3	172	17
2023-08-29T18:00	7351	398	-24.4		171	17
2023-08-29T18:00	7377	396	-24.0	-26.0	171	18
2023-08-29T18:00	7405	395	-24.2	-26.4	172	18
2023-08-29T18:00	7433	393	-24.3	-26.6	172	18
2023-08-29T18:00	7463	392	-24.6	-27.5	172	19
2023-08-29T18:00	7487	391	-24.7	-27.5	172	19
2023-08-29T18:00	7514	389	-24.9	-27.7	172	20
2023-08-29T18:00	7537	388	-25.0	-28.0	172	21
2023-08-29T18:00	7561	387	-25.2	-28.2	172	21
2023-08-29T18:00	7584	385	-25.4	-28.2	172	21
2023-08-29T18:00	7612	384	-25.6	-28.7	172	21
2023-08-29T18:00	7636	383	-25.8	-28.7	172	21
2023-08-29T18:00	7660	381	-26.0	-28.8	171	21
2023-08-29T18:00	7684	380	-26.2	-29.0	170	21
2023-08-29T18:00	7712	379	-26.4	-29.0	168	21
2023-08-29T18:00	7734	377	-26.6	-29.2	166	21
2023-08-29T18:00	7759	376	-26.7	-29.3	165	21
2023-08-29T18:00	7784	375	-27.0	-29.6	164	22
2023-08-29T18:00	7811	373	-27.2	-29.8	163	23
2023-08-29T18:00	7836	372	-27.3	-29.8	163	23
2023-08-29T18:00	7865	371	-27.6	-30.2	163	23
2023-08-29T18:00	7891	369	-27.8	-30.2	162	23
2023-08-29T18:00	7918	368	-28.0	-30.3	162	23
2023-08-29T18:00	7944	367	-28.2	-30.5	160	23
2023-08-29T18:00	7967	365	-28.4	-30.6	160	23
2023-08-29T18:00	7991	364	-28.6	-30.9	159	23
2023-08-29T18:00	8014	363	-28.8	-31.0	159	23
2023-08-29T18:00	8041	362	-28.9	-31.1	159	23
2023-08-29T18:00	8065	360	-29.1	-31.5	159	23
2023-08-29T18:00	8088	359	-29.2	-31.6	159	23
2023-08-29T18:00	8110	358	-29.4	-31.7	159	23
2023-08-29T18:00	8134	357	-29.6	-31.8	159	23
2023-08-29T18:00	8156	356	-29.7	-31.8	160	24
2023-08-29T18:00	8181	355	-29.9	-32.1	161	24
2023-08-29T18:00	8206	353	-30.1	-32.4	163	25
2023-08-29T18:00	8230	352	-30.3	-32.7	164	25
2023-08-29T18:00	8251	351	-30.4	-32.9	164	25
2023-08-29T18:00	8272	350	-30.7	-32.8	164	25
2023-08-29T18:00	8297	349	-30.9	-33.0	164	25
2023-08-29T18:00	8320	348	-31.1	-33.2	164	25
2023-08-29T18:00	8342	347	-31.3	-33.5	164	25
2023-08-29T18:00	8368	346	-31.5	-33.8	164	25
2023-08-29T18:00	8391	344	-31.7	-34.2	164	25
2023-08-29T18:00	8413	343	-31.9	-34.3	164	25
2023-08-29T18:00	8441	342	-32.1	-34.5	163	25
2023-08-29T18:00	8466	341	-32.4	-34.7	163	25
2023-08-29T18:00	8489	340	-32.6	-35.0	163	25
2023-08-29T18:00	8512	338	-32.8	-35.1	163	25
2023-08-29T18:00	8535	337	-33.0	-35.3	162	25
2023-08-29T18:00	8558	336	-33.1	-35.3	162	25
2023-08-29T18:00	8585	335	-33.3	-35.5	162	25
2023-08-29T18:00	8610	334	-33.5	-35.8	163	25
2023-08-29T18:00	8635	333	-33.7	-36.2	163	25
2023-08-29T18:00	8657	332	-33.9	-36.4	163	25
2023-08-29T18:00	8680	331	-34.1	-36.6	163	25
2023-08-29T18:00	8702	329	-34.3	-36.8	163	24
2023-08-29T18:00	8726	328	-34.5	-37.0	163	24
2023-08-29T18:00	8752	327	-34.7	-37.2	164	24
2023-08-29T18:00	8779	326	-34.9	-37.5	164	24
2023-08-29T18:00	8801	325	-35.1	-37.8	164	24
2023-08-29T18:00	8824	324	-35.3	-37.9	164	24
2023-08-29T18:00	8848	323	-35.5	-38.2	164	24
2023-08-29T18:00	8873	321	-35.7	-38.8	163	24
2023-08-29T18:00	8899	320	-35.9	-39.0	162	24
2023-08-29T18:00	8922	319	-36.0	-39.0	162	24
2023-08-29T18:00	8948	318	-36.2	-39.2	162	24
2023-08-29T18:00	8973	317	-36.4	-39.4	162	24
2023-08-29T18:00	8998	316	-36.6	-39.7	162	24
2023-08-29T18:00	9023	315	-36.8	-39.9	163	24
2023-08-29T18:00	9048	313	-37.0	-40.0	163	25
2023-08-29T18:00	9071	312	-37.2	-40.3	163	25
2023-08-29T18:00	9096	311	-37.4	-40.6	163	25
2023-08-29T18:00	9123	310	-37.7	-40.8	163	25
2023-08-29T18:00	9149	309	-37.9	-41.0	163	25
2023-08-29T18:00	9175	308	-38.1	-41.2	162	24
2023-08-29T18:00	9196	307	-38.3	-41.6	162	24
2023-08-29T18:00	9218	306	-38.5	-41.6	161	24
2023-08-29T18:00	9245	305	-38.7	-41.6	161	24
2023-08-29T18:00	9269	304	-38.9	-41.8	160	24
2023-08-29T18:00	9292	303	-39.1	-42.2	160	24
2023-08-29T18:00	9316	301	-39.4	-42.3	159	24
2023-08-29T18:00	9344	300	-39.6	-42.4	159	24
2023-08-29T18:00	9371	299	-39.8	-42.6	159	25
2023-08-29T18:00	9398	298	-40.0	-42.8	160	26
2023-08-29T18:00	9422	297	-40.2	-43.2	161	27
2023-08-29T18:00	9444	296	-40.3	-43.6	162	27
2023-08-29T18:00	9468	295	-40.5	-43.5	163	27
2023-08-29T18:00	9496	294	-40.8	-43.5	163	27
2023-08-29T18:00	9519	293	-40.9	-43.8	164	27
2023-08-29T18:00	9544	292	-41.1	-44.2	163	27
2023-08-29T18:00	9564	291	-41.3	-44.2	163	27
2023-08-29T18:00	9589	290	-41.6	-44.4	163	27
2023-08-29T18:00	9615	289	-41.8	-44.8	163	27
2023-08-29T18:00	9639	288	-42.0	-45.0	163	27
2023-08-29T18:00	9665	286	-42.3	-45.2	163	28
2023-08-29T18:00	9691	285	-42.5	-45.5	163	28
2023-08-29T18:00	9713	284	-42.7	-45.9	164	28
2023-08-29T18:00	9734	283	-42.9	-46.2	164	28
2023-08-29T18:00	9759	282	-43.1	-46.5	164	28
2023-08-29T18:00	9784	281	-43.3	-46.7	165	28
2023-08-29T18:00	9812	280	-43.6	-46.9	165	28
2023-08-29T18:00	9838	279	-43.8	-47.0	165	29
2023-08-29T18:00	9861	278	-44.1	-47.2	165	29
2023-08-29T18:00	9884	277	-44.3	-47.5	165	29
2023-08-29T18:00	9908	276	-44.4	-48.0	165	30
2023-08-29T18:00	9931	275	-44.5	-48.0	165	30
2023-08-29T18:00	9954	274	-44.7	-48.1	165	30
2023-08-29T18:00	9980	273	-44.9	-48.2	165	31
2023-08-29T18:00	10003	272	-45.0	-48.5	165	31
2023-08-29T18:00	10026	271	-45.1	-49.0	165	31
2023-08-29T18:00	10053	270	-45.3	-49.1	165	31
2023-08-29T18:00	10079	269	-45.5	-49.2	165	32
2023-08-29T18:00	10104	268	-45.7	-49.5	166	33
2023-08-29T18:00	10127	267	-45.9	-50.0	166	33
2023-08-29T18:00	10153	266	-46.1	-50.1	167	34
2023-08-29T18:00	10176	265	-46.3		167	34
2023-08-29T18:00	10199	264	-46.5	-50.4	166	34
2023-08-29T18:00	10227	263	-46.7	-50.5	166	35
2023-08-29T18:00	10250	262	-46.9	-50.7	165	35
2023-08-29T18:00	10271	262	-47.0	-51.0	165	36
2023-08-29T18:00	10297	261	-47.1	-51.0	164	36
2023-08-29T18:00	10319	260	-47.3	-51.0	164	36
2023-08-29T18:00	10342	259	-47.5	-51.2	164	37
2023-08-29T18:00	10366	258	-47.6	-51.3	164	37
2023-08-29T18:00	10390	257	-47.8	-51.6	163	37
2023-08-29T18:00	10413	256	-47.9	-51.8	163	37
2023-08-29T18:00	10438	255	-48.0	-51.9	162	38
2023-08-29T18:00	10463	254	-48.2	-52.1	162	38
2023-08-29T18:00	10489	253	-48.4	-52.3	161	39
2023-08-29T18:00	10510	252	-48.5	-52.4	160	39
2023-08-29T18:00	10533	251	-48.7	-52.6	160	39
2023-08-29T18:00	10553	251	-48.8	-52.6	159	40
2023-08-29T18:00	10579	250	-49.0	-52.7	159	40
2023-08-29T18:00	10605	249	-49.3	-53.0	159	40
2023-08-29T18:00	10631	248	-49.5	-53.1	159	40
2023-08-29T18:00	10657	247	-49.7	-53.2	159	40
2023-08-29T18:00	10681	246	-49.9	-53.4	159	40
2023-08-29T18:00	10703	245	-50.1	-53.7	158	41
2023-08-29T18:00	10725	244	-50.3	-53.9	158	41
2023-08-29T18:00	10748	243	-50.5	-54.2	158	41
2023-08-29T18:00	10770	242	-50.7	-54.5	158	41
2023-08-29T18:00	10791	242	-50.9	-54.8	158	41
2023-08-29T18:00	10814	241	-51.1	-55.0	158	40
2023-08-29T18:00	10837	240	-51.3	-55.2	158	40
2023-08-29T18:00	10859	239	-51.5	-55.3	159	40
2023-08-29T18:00	10880	238	-51.7	-55.3	159	40
2023-08-29T18:00	10904	238	-51.9	-55.5	159	40
2023-08-29T18:00	10927	237	-52.1	-55.7	159	41
2023-08-29T18:00	10948	236	-52.3	-55.9	159	41
2023-08-29T18:00	10971	235	-52.5	-56.1	159	41
2023-08-29T18:00	10996	234	-52.7	-56.4	159	41
2023-08-29T18:00	11018	233	-52.9	-56.6	159	41
2023-08-29T18:00	11040	233	-53.1	-56.9	160	41
2023-08-29T18:00	11065	232	-53.3	-57.1	160	41
2023-08-29T18:00	11087	231	-53.5	-57.4	160	41
2023-08-29T18:00	11110	230	-53.6	-57.5	160	41
2023-08-29T18:00	11132	229	-53.8	-57.8	160	41
2023-08-29T18:00	11157	228	-54.0	-58.1	160	40
2023-08-29T18:00	11180	228	-54.2	-58.3	160	40
2023-08-29T18:00	11202	227	-54.4	-58.5	160	40
2023-08-29T18:00	11224	226	-54.6	-58.7	161	40
2023-08-29T18:00	11245	225	-54.8	-58.9	161	40
2023-08-29T18:00	11268	224	-54.9	-58.9	161	40
2023-08-29T18:00	11290	224	-55.1	-59.1	162	39
2023-08-29T18:00	11313	223	-55.2		162	39
2023-08-29T18:00	11336	222	-55.3	-59.2	162	39
2023-08-29T18:00	11358	221	-55.5	-59.5	162	38
2023-08-29T18:00	11381	220	-55.6	-59.8	162	38
2023-08-29T18:00	11404	220	-55.7	-59.9	162	37
2023-08-29T18:00	11427	219	-55.7	-59.7	161	37
2023-08-29T18:00	11449	218	-55.8	-59.8	161	37
2023-08-29T18:00	11471	217	-55.8	-59.8	161	36
2023-08-29T18:00	11496	217	-55.9	-59.8	161	36
2023-08-29T18:00	11524	216	-55.9	-59.7	161	36
2023-08-29T18:00	11550	215	-55.9	-59.6	160	36
2023-08-29T18:00	11575	214	-56.1	-59.8	160	36
2023-08-29T18:00	11598	213	-56.3	-60.0	160	36
2023-08-29T18:00	11622	212	-56.3	-59.9	160	36
2023-08-29T18:00	11644	212	-56.2	-59.7	159	36
2023-08-29T18:00	11669	211	-56.4	-59.9	159	36
2023-08-29T18:00	11693	210	-55.5	-59.3	159	37
2023-08-29T18:00	11715	209	-55.2	-58.7	159	37
2023-08-29T18:00	11739	208	-55.4	-58.3	159	37
2023-08-29T18:00	11765	208	-55.4	-58.3	160	37
2023-08-29T18:00	11788	207	-55.6	-59.2	160	36
2023-08-29T18:00	11811	206	-55.8	-60.3	160	36
2023-08-29T18:00	11835	205	-55.9	-61.2	160	36
2023-08-29T18:00	11857	205	-56.0	-62.2	160	35
2023-08-29T18:00	11880	204	-56.0	-63.0	160	35
2023-08-29T18:00	11905	203	-56.1	-63.9	160	35
2023-08-29T18:00	11934	202	-56.2	-64.7	160	34
2023-08-29T18:00	11959	201	-56.1	-65.8	161	33
2023-08-29T18:00	11990	200	-55.5	-67.7	162	31
2023-08-29T18:00	12018	200	-54.8	-71.1	163	29
2023-08-29T18:00	12040	199	-54.1	-74.9	164	28
2023-08-29T18:00	12072	198	-53.9	-77.9	165	26
2023-08-29T18:00	12099	197	-53.7	-78.8	165	25
2023-08-29T18:00	12122	196	-53.6	-78.3	165	24
2023-08-29T18:00	12152	195	-53.3	-77.6	165	23
2023-08-29T18:00	12181	195	-53.2	-77.1	164	22
2023-08-29T18:00	12203	194	-53.4	-76.6	164	22
2023-08-29T18:00	12234	193	-53.6	-76.4	164	22
2023-08-29T18:00	12260	192	-53.3	-76.2	164	22
2023-08-29T18:00	12284	191	-52.5	-75.5	164	22
2023-08-29T18:00	12309	191	-52.2	-75.5	164	22
2023-08-29T18:00	12335	190	-52.3	-75.4	164	23
2023-08-29T18:00	12359	189	-52.3	-75.4	164	23
2023-08-29T18:00	12388	188	-51.8	-75.1	164	24
2023-08-29T18:00	12413	188	-51.8	-75.1	164	25
2023-08-29T18:00	12438	187	-51.8	-75.0	166	25
2023-08-29T18:00	12462	186	-51.6	-74.6	168	25
2023-08-29T18:00	12491	185	-51.0	-75.2	171	25
2023-08-29T18:00	12515	185	-50.2	-76.5	174	24
2023-08-29T18:00	12543	184	-49.6	-77.5	178	23
2023-08-29T18:00	12570	183	-49.3	-77.6	182	22
2023-08-29T18:00	12600	182	-49.4	-77.6	185	21
2023-08-29T18:00	12630	182	-49.1	-77.4	189	21
2023-08-29T18:00	12655	181	-49.0	-77.7	192	20
2023-08-29T18:00	12682	180	-48.7	-77.4	194	20
2023-08-29T18:00	12713	179	-48.8	-77.5	196	20
2023-08-29T18:00	12743	178	-49.0	-77.7	197	20
2023-08-29T18:00	12771	178	-49.0	-77.7	198	20
2023-08-29T18:00	12798	177	-49.1	-77.7	199	20
2023-08-29T18:00	12833	176	-49.3	-77.9	200	19
2023-08-29T18:00	12865	175	-49.4	-78.0	201	19
2023-08-29T18:00	12894	174	-49.7	-78.2	203	18
2023-08-29T18:00	12924	174	-49.8	-78.3	204	17
2023-08-29T18:00	12955	173	-50.0	-78.4	205	16
2023-08-29T18:00	12986	172	-50.3	-78.3	205	16
2023-08-29T18:00	13016	171	-50.5	-78.5	205	15
2023-08-29T18:00	13048	170	-50.8	-78.7	204	15
2023-08-29T18:00	13075	170	-50.9	-78.5	202	14
2023-08-29T18:00	13102	169	-51.2	-78.7	201	14
2023-08-29T18:00	13131	168	-51.4	-78.8	200	13
2023-08-29T18:00	13161	167	-51.6	-79.0	198	12
2023-08-29T18:00	13192	167	-51.9	-79.2	196	11
2023-08-29T18:00	13223	166	-52.1	-79.4	193	10
2023-08-29T18:00	13251	165	-52.1	-79.4	189	9
2023-08-29T18:00	13280	164	-51.8	-79.5	184	9
2023-08-29T18:00	13312	163	-51.4	-79.2	181	9
2023-08-29T18:00	13344	163	-51.3	-79.1	180	10
2023-08-29T18:00	13372	162	-51.4	-79.2	180	10
2023-08-29T18:00	13402	161	-51.4	-79.2	181	11
2023-08-29T18:00	13432	160	-51.4	-79.2	181	12
2023-08-29T18:00	13463	160	-51.5	-79.2	181	13
2023-08-29T18:00	13490	159	-51.7	-79.4	180	14
2023-08-29T18:00	13518	158	-51.8	-79.5	179	15
2023-08-29T18:00	13545	158	-51.8	-79.5	177	16
2023-08-29T18:00	13571	157	-51.5	-79.6	174	17
2023-08-29T18:00	13605	156	-51.5	-79.6	172	17
2023-08-29T18:00	13632	156	-51.4	-79.8	168	17
2023-08-29T18:00	13663	155	-51.1	-79.6	165	17
2023-08-29T18:00	13692	154	-51.1	-79.6	163	17
2023-08-29T18:00	13725	153	-50.9	-79.5	161	17
2023-08-29T18:00	13757	153	-51.1	-79.6	160	17
2023-08-29T18:00	13790	152	-51.3	-79.4	160	17
2023-08-29T18:00	13819	151	-51.6	-79.6	160	18
2023-08-29T18:00	13851	150	-51.9	-79.9	160	18
2023-08-29T18:00	13881	150	-52.1	-80.0	160	19
2023-08-29T18:00	13912	149	-52.3	-80.2	161	19
2023-08-29T18:00	13943	148	-52.3	-80.5	162	19
2023-08-29T18:00	13975	148	-51.6	-80.4	164	18
2023-08-29T18:00	14010	147	-50.4	-80.3	166	17
2023-08-29T18:00	14039	146	-50.3	-80.2	169	16
2023-08-29T18:00	14071	145	-50.0	-80.4	172	15
2023-08-29T18:00	14103	145	-50.2	-80.6	174	14
2023-08-29T18:00	14133	144	-50.3	-80.2	177	14
2023-08-29T18:00	14163	143	-50.4	-80.3	179	13
2023-08-29T18:00	14195	143	-50.6	-80.4	180	13
2023-08-29T18:00	14225	142	-50.8	-80.6	182	13
2023-08-29T18:00	14256	141	-50.4	-80.3	182	13
2023-08-29T18:00	14290	141	-50.4	-80.3	183	14
2023-08-29T18:00	14324	140	-50.6	-80.4	183	14
2023-08-29T18:00	14354	139	-50.7	-80.5	183	14
2023-08-29T18:00	14383	139	-50.9	-80.2	183	14
2023-08-29T18:00	14416	138	-51.0	-80.3	184	14
2023-08-29T18:00	14448	137	-51.1	-80.4	184	14
2023-08-29T18:00	14478	137	-51.0	-80.3	185	14
2023-08-29T18:00	14509	136	-51.1	-80.4	185	14
2023-08-29T18:00	14539	135	-51.2	-80.5	185	14
2023-08-29T18:00	14573	135	-51.5	-80.7	185	14
2023-08-29T18:00	14605	134	-51.8	-80.9	185	14
2023-08-29T18:00	14637	133	-52.0	-81.1	185	14
2023-08-29T18:00	14668	133	-52.1	-80.7	185	14
2023-08-29T18:00	14699	132	-52.3	-80.9	187	14
2023-08-29T18:00	14732	131	-52.6	-81.1	188	13
2023-08-29T18:00	14765	131	-52.8	-81.3	190	13
2023-08-29T18:00	14798	130	-52.9	-81.4	191	13
2023-08-29T18:00	14831	129	-53.1	-81.5	191	13
2023-08-29T18:00	14864	129	-52.7	-81.2	190	13
2023-08-29T18:00	14891	128	-52.7	-81.2	187	13
2023-08-29T18:00	14922	128	-52.7	-81.6	184	14
2023-08-29T18:00	14956	127	-52.5	-81.4	181	14
2023-08-29T18:00	14985	126	-52.4	-81.8	178	14
2023-08-29T18:00	15018	126	-52.5	-81.8	176	14
2023-08-29T18:00	15048	125	-52.3	-81.7	175	15
2023-08-29T18:00	15083	124	-52.4	-81.8	174	15
2023-08-29T18:00	15110	124	-52.5	-81.8	174	15
2023-08-29T18:00	15144	123	-52.6	-81.5	174	15
2023-08-29T18:00	15175	123	-52.8	-81.7	173	15
2023-08-29T18:00	15205	122	-53.0	-81.8	173	16
2023-08-29T18:00	15238	121	-53.4	-81.7	173	16
2023-08-29T18:00	15269	121	-53.6	-81.9	173	17
2023-08-29T18:00	15299	120	-53.8	-81.7	174	17
2023-08-29T18:00	15330	120	-53.9	-81.7	175	18
2023-08-29T18:00	15356	119	-53.9	-81.7	176	18
2023-08-29T18:00	15389	119	-54.1	-81.6	177	18
2023-08-29T18:00	15420	118	-54.2	-81.6	178	18
2023-08-29T18:00	15451	118	-53.9	-81.7	180	17
2023-08-29T18:00	15481	117	-54.0	-81.8	183	17
2023-08-29T18:00	15513	116	-54.3	-82.4	187	16
2023-08-29T18:00	15545	116	-54.3	-82.8	191	15
2023-08-29T18:00	15574	115	-53.5	-82.6	195	14
2023-08-29T18:00	15611	115	-53.0	-82.7	199	14
2023-08-29T18:00	15641	114	-52.5	-82.8	201	13
2023-08-29T18:00	15673	114	-52.2	-82.5	202	13
2023-08-29T18:00	15705	113	-51.5	-82.5	201	12
2023-08-29T18:00	15731	112	-51.4	-81.9	199	12
2023-08-29T18:00	15766	112	-51.5	-82.0	197	12
2023-08-29T18:00	15796	111	-51.7	-82.2	195	12
2023-08-29T18:00	15827	111	-51.9	-81.8	193	12
2023-08-29T18:00	15858	110	-52.2	-82.1	191	12
2023-08-29T18:00	15891	110	-52.4	-81.8	188	12
2023-08-29T18:00	15923	109	-52.7	-82.0	184	12
2023-08-29T18:00	15956	109	-53.0	-82.2	180	11
2023-08-29T18:00	15989	108	-53.2	-82.4	176	11
2023-08-29T18:00	16019	108	-53.3	-82.5	173	11
2023-08-29T18:00	16051	107	-53.2	-82.4	169	10
2023-08-29T18:00	16081	107	-53.3	-82.5	166	10
2023-08-29T18:00	16114	106	-53.4	-82.5	164	10
2023-08-29T18:00	16148	106	-53.5	-82.6	164	9
2023-08-29T18:00	16180	105	-53.5	-82.6	166	9
2023-08-29T18:00	16209	104	-53.4	-82.5	169	10
2023-08-29T18:00	16246	104	-53.2	-82.4	173	10
2023-08-29T18:00	16279	103	-53.2	-82.8	177	10
2023-08-29T18:00	16310	103	-53.1	-82.7	178	10
2023-08-29T18:00	16343	102	-53.2	-82.8	179	10
2023-08-29T18:00	16375	102	-53.3	-82.5	179	10
2023-08-29T18:00	16410	101	-53.5	-82.6	179	10
2023-08-29T18:00	16440	101	-53.7	-82.8	180	10
2023-08-29T18:00	16468	100	-53.9	-82.9	182	10
2023-08-29T18:00	16500	100	-54.1	-82.6	184	10
2023-08-29T18:00	16531	99	-54.3	-82.8	185	10
2023-08-29T18:00	16564	99	-54.5	-82.9	185	10
2023-08-29T18:00	16598	98	-54.8	-83.6	184	10
2023-08-29T18:00	16630	98	-54.5	-83.4	184	10
2023-08-29T18:00	16657	97	-53.6	-82.7	184	10
2023-08-29T18:00	16692	97	-53.8	-82.8	185	11
2023-08-29T18:00	16728	96	-54.1	-83.1	187	12
2023-08-29T18:00	16759	96	-54.4	-83.3	189	12
2023-08-29T18:00	16793	95	-54.4	-83.3	190	13
2023-08-29T18:00	16824	95	-54.3	-83.2	190	13
2023-08-29T18:00	16856	94	-54.2	-83.1	189	13
2023-08-29T18:00	16885	94	-54.2	-83.1	188	13
2023-08-29T18:00	16916	94	-54.4	-83.3	187	12
2023-08-29T18:00	16951	93	-54.5	-83.4	187	11
2023-08-29T18:00	16982	93	-54.6	-83.4	186	11
2023-08-29T18:00	17016	92	-54.7	-83.5	187	10
2023-08-29T18:00	17053	92	-54.6	-83.4	187	9
2023-08-29T18:00	17083	91	-54.7	-83.5	188	9
2023-08-29T18:00	17113	91	-54.9	-83.7	188	9
2023-08-29T18:00	17148	90	-55.0	-83.7	188	9
2023-08-29T18:00	17179	90	-55.0	-83.7	188	9
2023-08-29T18:00	17215	89	-55.1	-83.8	188	9
2023-08-29T18:00	17251	89	-55.0	-83.7	188	9
2023-08-29T18:00	17278	88	-55.2	-83.9	190	9
2023-08-29T18:00	17311	88	-55.3	-84.0	192	8
2023-08-29T18:00	17343	88	-55.3	-84.0	196	7
2023-08-29T18:00	17372	87	-55.2	-83.9	200	7
2023-08-29T18:00	17402	87	-55.3	-84.0	203	7
2023-08-29T18:00	17439	86	-55.5	-84.1	204	7
2023-08-29T18:00	17468	86	-55.5	-84.1	202	8
2023-08-29T18:00	17495	85	-55.2	-83.9	199	8
2023-08-29T18:00	17526	85	-55.4	-84.0	196	9
2023-08-29T18:00	17556	85	-55.5	-84.1	194	9
2023-08-29T18:00	17582	84	-55.5	-84.1	193	9
2023-08-29T18:00	17622	84	-55.6	-84.2	193	9
2023-08-29T18:00	17654	83	-55.5	-84.1	196	9
2023-08-29T18:00	17680	83	-55.4	-84.5	199	9
2023-08-29T18:00	17708	83	-55.2	-84.3	204	9
2023-08-29T18:00	17734	82	-55.2	-84.3	208	9
2023-08-29T18:00	17764	82	-54.9	-84.1	212	9
2023-08-29T18:00	17799	82	-54.8	-84.0	216	8
2023-08-29T18:00	17826	81	-54.9	-84.1	220	8
2023-08-29T18:00	17861	81	-54.9	-84.1	223	8
2023-08-29T18:00	17899	80	-55.1	-84.2	226	8
2023-08-29T18:00	17934	80	-55.2	-84.3	228	8
2023-08-29T18:00	17970	79	-55.5	-84.1	228	8
2023-08-29T18:00	17996	79	-55.7	-84.3	227	7
2023-08-29T18:00	18029	79	-55.8	-84.3	224	7
2023-08-29T18:00	18054	78	-55.9	-84.4	222	7
2023-08-29T18:00	18072	78	-55.6	-84.2	220	6
2023-08-30T00:00	-999					
2023-08-30T00:00	139	992	12.8	12.8	346	3
2023-08-30T00:00	156	990	12.7	12.7	342	4
2023-08-30T00:00	180	987	12.6	12.6	336	4
2023-08-30T00:00	201	984	12.5	12.5	330	5
2023-08-30T00:00	223	982	12.4	12.4	324	5
2023-08-30T00:00	241	980	12.3	12.3	321	5
2023-08-30T00:00	261	978	12.2	12.2	320	5
2023-08-30T00:00	278	975	12.1	12.1	322	6
2023-08-30T00:00	304	973	12.0	12.0	325	6
2023-08-30T00:00	322	970	11.9	11.9	327	5
2023-08-30T00:00	342	968	11.8	11.8	326	5
2023-08-30T00:00	366	965	11.7	11.7	323	5
2023-08-30T00:00	394	962	11.6	11.6	319	5
2023-08-30T00:00	418	959	11.4	11.4	317	5
2023-08-30T00:00	446	956	11.3	11.3	319	5
2023-08-30T00:00	471	953	11.2	11.2	324	5
2023-08-30T00:00	495	951	11.0	11.0	329	5
2023-08-30T00:00	519	948	10.9	10.9	334	6
2023-08-30T00:00	542	945	10.8	10.8	336	6
2023-08-30T00:00	567	942	10.7	10.7	336	6
2023-08-30T00:00	590	939	10.5	10.5	335	6
2023-08-30T00:00	618	937	10.4	10.4	334	7
2023-08-30T00:00	642	934	10.3	10.3	332	7
2023-08-30T00:00	670	931	10.1	10.1	331	7
2023-08-30T00:00	693	928	10.0	10.0	330	7
2023-08-30T00:00	717	926	9.9	9.9	331	8
2023-08-30T00:00	737	923	9.8	9.8	331	8
2023-08-30T00:00	762	921	9.7	9.7	331	8
2023-08-30T00:00	787	918	9.6	9.6	332	8
2023-08-30T00:00	811	915	9.5	9.5	332	8
2023-08-30T00:00	831	913	9.3	9.3	332	8
2023-08-30T00:00	859	910	9.2	9.2	333	8
2023-08-30T00:00	880	907	9.1	9.1	335	8
2023-08-30T00:00	902	905	9.0	9.0	336	8
2023-08-30T00:00	923	903	9.0	9.0	338	8
2023-08-30T00:00	945	901	8.8	8.8	339	9
2023-08-30T00:00	968	898	8.8	8.8	341	9
2023-08-30T00:00	987	896	8.7	8.7	342	9
2023-08-30T00:00	1006	894	8.6	8.6	344	10
2023-08-30T00:00	1027	892	8.5	8.5	346	10
2023-08-30T00:00	1050	889	8.5	8.5	348	9
2023-08-30T00:00	1080	886	8.3	8.3	350	9
2023-08-30T00:00	1106	883	8.2	8.2	352	9
2023-08-30T00:00	1131	881	8.2	8.2	354	8
2023-08-30T00:00	1153	878	8.2	8.2	356	7
2023-08-30T00:00	1174	876	8.1	8.1	359	7
2023-08-30T00:00	1201	873	8.0	8.0	2	6
2023-08-30T00:00	1228	870	7.9	7.9	6	6
2023-08-30T00:00	1249	868	7.8	7.8	11	6
2023-08-30T00:00	1273	866	7.7	7.7	14	6
2023-08-30T00:00	1296	863	7.6	7.6	16	6
2023-08-30T00:00	1316	861	7.5	7.5	16	6
2023-08-30T00:00	1334	859	7.4	7.4	14	6
2023-08-30T00:00	1354	857	7.3	7.3	8	6
2023-08-30T00:00	1376	855	7.2	7.2	2	5
2023-08-30T00:00	1395	853	7.1	7.1	355	5
2023-08-30T00:00	1416	851	7.0	7.0	350	5
2023-08-30T00:00	1439	848	6.9	6.9	350	5
2023-08-30T00:00	1459	846	6.8	6.8	352	5
2023-08-30T00:00	1478	844	6.7	6.7	355	5
2023-08-30T00:00	1502	842	6.5	6.5	357	5
2023-08-30T00:00	1526	839	6.4	6.4	358	5
2023-08-30T00:00	1548	837	6.3	6.3	357	5
2023-08-30T00:00	1573	835	6.2	6.2	354	5
2023-08-30T00:00	1594	832	6.1	6.1	352	5
2023-08-30T00:00	1613	830	6.0	6.0	349	5
2023-08-30T00:00	1635	828	5.9	5.9	347	5
2023-08-30T00:00	1658	826	5.8	5.8	345	5
2023-08-30T00:00	1680	824	5.7	5.7	345	5
2023-08-30T00:00	1698	822	5.6	5.6	344	5
2023-08-30T00:00	1723	820	5.5	5.5	345	5
2023-08-30T00:00	1744	817	5.4	5.4	345	5
2023-08-30T00:00	1764	815	5.4	5.4	345	5
2023-08-30T00:00	1784	813	5.3	5.3	344	5
2023-08-30T00:00	1805	811	5.2	5.2	344	5
2023-08-30T00:00	1826	809	5.1	5.1	345	5
2023-08-30T00:00	1846	807	5.0	5.0	346	5
2023-08-30T00:00	1866	805	4.9	4.9	347	5
2023-08-30T00:00	1889	803	4.7	4.7	347	5
2023-08-30T00:00	1912	801	4.6	4.6	346	5
2023-08-30T00:00	1934	799	4.5	4.5	344	5
2023-08-30T00:00	1955	796	4.4	4.4	341	4
2023-08-30T00:00	1979	794	4.3	4.3	338	4
2023-08-30T00:00	1998	792	4.2	4.2	335	4
2023-08-30T00:00	2020	790	4.1	4.1	334	4
2023-08-30T00:00	2041	788	4.0	4.0	333	4
2023-08-30T00:00	2060	786	3.9	3.9	333	4
2023-08-30T00:00	2080	784	3.8	3.8	333	4
2023-08-30T00:00	2101	782	3.7	3.7	333	4
2023-08-30T00:00	2121	781	3.6	3.6	332	4
2023-08-30T00:00	2141	778	3.5	3.5	331	4
2023-08-30T00:00	2163	776	3.4	3.4	330	3
2023-08-30T00:00	2185	774	3.2	3.2	329	3
2023-08-30T00:00	2207	772	3.1	3.1	327	3
2023-08-30T00:00	2228	770	3.0	3.0	324	4
2023-08-30T00:00	2249	768	2.9	2.9	322	4
2023-08-30T00:00	2272	766	2.7	2.7	321	4
2023-08-30T00:00	2295	764	2.6	2.6	323	4
2023-08-30T00:00	2317	762	2.5	2.5	326	4
2023-08-30T00:00	2343	759	2.5	2.5	330	4
2023-08-30T00:00	2363	757	2.4	2.4	332	4
2023-08-30T00:00	2398	754	2.2	2.2	332	3
2023-08-30T00:00	2422	752	2.1	2.1	331	3
2023-08-30T00:00	2450	750	2.0	2.0	330	3
2023-08-30T00:00	2476	747	1.9	1.9	329	2
2023-08-30T00:00	2497	745	1.8	1.8	330	2
2023-08-30T00:00	2516	743	1.8	1.8	329	2
2023-08-30T00:00	2537	741	1.7	1.7	325	2
2023-08-30T00:00	2557	740	1.7	1.7	313	1
2023-08-30T00:00	2576	738	1.7	1.7	292	1
2023-08-30T00:00	2598	736	1.7	1.7	277	2
2023-08-30T00:00	2626	733	1.6	1.6	274	2
2023-08-30T00:00	2656	731	1.5	1.5	276	3
2023-08-30T00:00	2680	728	1.3	1.3	278	3
2023-08-30T00:00	2701	726	1.3	1.3	279	3
2023-08-30T00:00	2731	724	1.2	1.2	276	3
2023-08-30T00:00	2752	722	1.1	1.1	267	2
2023-08-30T00:00	2777	720	1.1	1.1	252	2
2023-08-30T00:00	2808	717	1.1	1.1	237	2
2023-08-30T00:00	2836	714	0.9	0.9	230	2
2023-08-30T00:00	2864	712	0.8	0.8	231	2
2023-08-30T00:00	2887	710	0.7	0.7	237	2
2023-08-30T00:00	2914	707	0.6	0.6	241	2
2023-08-30T00:00	2942	705	0.4	0.4	240	2
2023-08-30T00:00	2969	703	0.3	0.3	233	1
2023-08-30T00:00	2988	701	0.2	0.2	227	1
2023-08-30T00:00	3012	699	0.0	0.0	231	1
2023-08-30T00:00	3033	697	-0.1	-0.1	251	1
2023-08-30T00:00	3053	695	-0.2	-0.2	268	1
2023-08-30T00:00	3069	694	-0.3	-0.3	273	2
2023-08-30T00:00	3089	692	-0.4	-0.4	269	2
2023-08-30T00:00	3114	690	-0.6	-0.6	255	2
2023-08-30T00:00	3132	689	-0.8	-0.8	236	2
2023-08-30T00:00	3149	687	-0.9	-0.9	220	3
2023-08-30T00:00	3172	685	-1.0	-1.0	213	4
2023-08-30T00:00	3196	683	-0.4	-0.7	210	4
2023-08-30T00:00	3217	681	-0.3	-0.7	208	5
2023-08-30T00:00	3249	679	-0.5	-0.8	206	5
2023-08-30T00:00	3263	677	-0.6	-0.8	203	5
2023-08-30T00:00	3283	676	-0.7	-0.9	200	5
2023-08-30T00:00	3304	674	-0.5	-1.1	198	5
2023-08-30T00:00	3325	672	-0.5	-1.3	197	5
2023-08-30T00:00	3345	670	-0.6	-1.4	197	6
2023-08-30T00:00	3379	668	-0.8	-1.6	198	6
2023-08-30T00:00	3402	666	-1.0	-1.7	199	6
2023-08-30T00:00	3424	664	-1.1	-1.8	200	7
2023-08-30T00:00	3441	662	-1.2	-1.9	202	7
2023-08-30T00:00	3464	660	-1.2	-1.9	203	7
2023-08-30T00:00	3493	658	-1.4	-2.2	205	7
2023-08-30T00:00	3511	657	-1.5	-2.2	206	7
2023-08-30T00:00	3530	655	-1.6	-2.5	206	7
2023-08-30T00:00	3554	653	-1.7	-2.8	206	7
2023-08-30T00:00	3569	652	-1.8	-2.9	205	7
2023-08-30T00:00	3585	650	-1.9	-2.9	205	7
2023-08-30T00:00	3607	649	-2.0	-3.5	204	7
2023-08-30T00:00	3635	647	-2.1	-4.2	205	7
2023-08-30T00:00	3661	644	-2.2	-4.2	206	6
2023-08-30T00:00	3690	642	-2.5	-4.5	208	6
2023-08-30T00:00	3711	640	-2.6	-4.5	209	6
2023-08-30T00:00	3731	639	-2.8	-4.6	211	5
2023-08-30T00:00	3748	637	-2.9	-4.6	211	5
2023-08-30T00:00	3768	636	-3.1	-4.8	212	5
2023-08-30T00:00	3788	634	-3.2	-4.8	212	4
2023-08-30T00:00	3815	632	-3.4	-5.0	210	4
2023-08-30T00:00	3836	630	-3.6	-5.1	207	4
2023-08-30T00:00	3855	629	-3.7	-5.2	203	3
2023-08-30T00:00	3881	627	-3.9	-5.3	201	4
2023-08-30T00:00	3902	625	-4.1	-5.3	204	4
2023-08-30T00:00	3925	623	-4.3	-5.5	210	4
2023-08-30T00:00	3945	622	-4.4	-5.6	218	5
2023-08-30T00:00	3975	620	-4.5	-5.5	225	5
2023-08-30T00:00	3996	618	-4.7	-5.5	230	5
2023-08-30T00:00	4024	616	-4.8	-5.7	232	6
2023-08-30T00:00	4047	614	-5.0	-5.8	231	6
2023-08-30T00:00	4069	612	-5.1	-5.7	230	7
2023-08-30T00:00	4093	610	-5.2	-6.0	230	8
2023-08-30T00:00	4113	608	-5.1	-6.1	230	8
2023-08-30T00:00	4141	607	-5.0	-6.2	231	9
2023-08-30T00:00	4158	605	-4.7	-6.4	231	9
2023-08-30T00:00	4175	604	-4.7	-6.6	230	9
2023-08-30T00:00	4200	602	-4.5	-6.9	228	8
2023-08-30T00:00	4225	600	-4.4	-7.7	226	8
2023-08-30T00:00	4246	598	-4.5	-7.7	224	8
2023-08-30T00:00	4268	597	-4.7	-7.9	224	8
2023-08-30T00:00	4303	594	-4.9	-7.9	225	8
2023-08-30T00:00	4334	592	-5.2	-8.0	227	8
2023-08-30T00:00	4349	591	-5.3	-7.9	228	8
2023-08-30T00:00	4368	589	-5.4	-8.0	229	8
2023-08-30T00:00	4387	588	-5.6	-8.4	229	7
2023-08-30T00:00	4411	586	-5.8	-8.7	228	7
2023-08-30T00:00	4439	584	-5.9	-8.8	227	6
2023-08-30T00:00	4468	582	-6.1	-9.2	226	6
2023-08-30T00:00	4485	581	-6.2	-9.1	225	6
2023-08-30T00:00	4499	579	-6.3	-9.0	224	6
2023-08-30T00:00	4515	578	-6.5	-9.1	225	7
2023-08-30T00:00	4532	577	-6.6	-9.1	225	7
2023-08-30T00:00	4550	576	-6.8	-9.2	224	7
2023-08-30T00:00	4566	574	-6.9	-9.2	223	7
2023-08-30T00:00	4583	573	-7.1	-9.4	223	7
2023-08-30T00:00	4602	572	-7.2	-9.6	223	7
2023-08-30T00:00	4623	570	-7.3	-9.6	224	7
2023-08-30T00:00	4646	569	-7.5	-9.7	225	7
2023-08-30T00:00	4673	567	-7.7	-9.8	226	7
2023-08-30T00:00	4699	565	-7.9	-9.8	227	7
2023-08-30T00:00	4724	563	-8.1	-9.9	228	7
2023-08-30T00:00	4751	561	-8.3	-10.3	229	8
2023-08-30T00:00	4768	560	-8.4	-10.3	230	8
2023-08-30T00:00	4792	558	-8.6	-10.7	230	9
2023-08-30T00:00	4822	556	-8.7	-11.0	228	9
2023-08-30T00:00	4846	554	-8.8	-11.4	226	9
2023-08-30T00:00	4865	553	-8.7	-12.0	223	9
2023-08-30T00:00	4884	551	-8.7	-12.5	218	9
2023-08-30T00:00	4903	550	-8.3	-14.2	214	9
2023-08-30T00:00	4926	549	-8.3	-14.2	209	8
2023-08-30T00:00	4944	547	-8.5	-14.7	205	8
2023-08-30T00:00	4965	546	-8.6	-15.1	202	8
2023-08-30T00:00	4977	545	-8.6	-15.0	201	8
2023-08-30T00:00	5003	543	-8.8	-15.2	201	8
2023-08-30T00:00	5028	541	-8.9	-15.4	203	8
2023-08-30T00:00	5056	539	-9.1	-15.5	206	7
2023-08-30T00:00	5075	538	-9.2	-15.7	209	7
2023-08-30T00:00	5089	537	-9.3	-15.8	210	7
2023-08-30T00:00	5104	536	-9.4	-15.8	210	7
2023-08-30T00:00	5119	535	-9.5	-15.8	209	7
2023-08-30T00:00	5135	534	-9.6	-15.9	208	7
2023-08-30T00:00	5150	533	-9.7	-16.0	207	7
2023-08-30T00:00	5170	532	-9.9	-16.2	205	7
2023-08-30T00:00	5185	530	-10.0	-16.2	203	7
2023-08-30T00:00	5205	529	-10.2	-16.4	200	7
2023-08-30T00:00	5224	528	-10.3	-16.8	197	7
2023-08-30T00:00	5251	526	-10.5	-17.0	193	7
2023-08-30T00:00	5275	524	-10.7	-17.2	191	7
2023-08-30T00:00	5290	523	-10.8	-17.2	190	7
2023-08-30T00:00	5310	522	-11.0	-17.3	191	7
2023-08-30T00:00	5338	520	-11.3	-17.5	191	7
2023-08-30T00:00	5369	518	-11.5	-17.6	191	7
2023-08-30T00:00	5389	517	-11.6	-17.7	190	8
2023-08-30T00:00	5411	515	-11.8	-17.6	188	8
2023-08-30T00:00	5438	513	-12.1	-17.7	184	8
2023-08-30T00:00	5463	512	-12.4	-17.9	181	7
2023-08-30T00:00	5484	510	-12.6	-17.9	179	7
2023-08-30T00:00	5498	509	-12.7	-18.0	179	7
2023-08-30T00:00	5516	508	-12.8	-18.1	181	7
2023-08-30T00:00	5531	507	-13.0	-18.1	183	7
2023-08-30T00:00	5554	505	-13.2	-18.3	185	7
2023-08-30T00:00	5581	504	-13.4	-19.1	185	8
2023-08-30T00:00	5608	502	-13.6	-19.3	183	8
2023-08-30T00:00	5632	500	-13.8	-19.6	181	8
2023-08-30T00:00	5652	499	-14.0	-20.0	180	9
2023-08-30T00:00	5674	498	-14.2	-20.1	180	8
2023-08-30T00:00	5698	496	-14.4	-20.3	180	8
2023-08-30T00:00	5721	494	-14.6		180	8
2023-08-30T00:00	5751	493	-14.9	-21.2	180	8
2023-08-30T00:00	5771	491	-15.1	-21.4	180	8
2023-08-30T00:00	5793	490	-15.3	-21.4	180	8
2023-08-30T00:00	5817	488	-15.5	-21.6	180	9
2023-08-30T00:00	5846	486	-15.8	-21.8	181	9
2023-08-30T00:00	5868	485	-16.0	-22.4	181	10
2023-08-30T00:00	5883	484	-16.0	-23.2	181	10
2023-08-30T00:00	5899	483	-16.0	-25.1	180	10
2023-08-30T00:00	5917	482	-16.0	-25.4	178	10
2023-08-30T00:00	5935	481	-16.1	-25.9	176	10
2023-08-30T00:00	5950	480	-16.1	-26.4	174	10
2023-08-30T00:00	5965	479	-16.2	-27.3	174	10
2023-08-30T00:00	5980	478	-16.2	-28.0	174	10
2023-08-30T00:00	5998	477	-16.2	-28.9	176	10
2023-08-30T00:00	6015	476	-16.2	-29.4	178	10
2023-08-30T00:00	6030	475	-16.3	-30.1	180	10
2023-08-30T00:00	6051	473	-16.5	-31.0	181	10
2023-08-30T00:00	6068	472	-16.6	-31.5	181	11
2023-08-30T00:00	6084	471	-16.8	-32.5	180	11
2023-08-30T00:00	6108	470	-17.0	-33.5	180	11
2023-08-30T00:00	6133	468	-17.2	-33.8	180	11
2023-08-30T00:00	6157	467	-17.3	-34.9	180	12
2023-08-30T00:00	6186	465	-17.5	-35.8	181	12
2023-08-30T00:00	6203	464	-17.6	-37.3	183	12
2023-08-30T00:00	6221	463	-17.5	-39.4	184	12
2023-08-30T00:00	6237	462	-17.6	-40.9	185	12
2023-08-30T00:00	6255	461	-17.7	-40.6	186	13
2023-08-30T00:00	6272	460	-17.8	-41.1	186	13
2023-08-30T00:00	6289	459	-17.9	-41.4	186	13
2023-08-30T00:00	6308	457	-18.1	-41.7	187	13
2023-08-30T00:00	6324	456	-18.2	-41.6	187	13
2023-08-30T00:00	6347	455	-18.4	-40.8	187	12
2023-08-30T00:00	6367	454	-18.6	-38.3	187	12
2023-08-30T00:00	6392	452	-18.8	-36.8	187	12
2023-08-30T00:00	6418	451	-19.0	-35.7	187	12
2023-08-30T00:00	6434	450	-19.1	-35.2	186	12
2023-08-30T00:00	6454	448	-19.3	-36.7	185	12
2023-08-30T00:00	6478	447	-19.4	-39.0	183	12
2023-08-30T00:00	6500	446	-19.5	-38.1	183	12
2023-08-30T00:00	6520	445	-19.7	-38.1	183	12
2023-08-30T00:00	6540	443	-19.9	-38.1	184	12
2023-08-30T00:00	6565	442	-20.1	-38.2	186	12
2023-08-30T00:00	6584	441	-20.3	-38.1	188	13
2023-08-30T00:00	6601	440	-20.4	-38.0	188	13
2023-08-30T00:00	6621	438	-20.6	-38.7	188	13
2023-08-30T00:00	6644	437	-20.7	-39.3	187	13
2023-08-30T00:00	6663	436	-20.8	-39.9	186	13
2023-08-30T00:00	6681	435	-20.9	-40.4	186	13
2023-08-30T00:00	6698	434	-21.0	-41.0	186	13
2023-08-30T00:00	6716	433	-21.2	-41.4	186	13
2023-08-30T00:00	6732	432	-21.3	-41.2	186	13
2023-08-30T00:00	6750	431	-21.5	-41.1	185	13
2023-08-30T00:00	6767	430	-21.7	-41.5	184	14
2023-08-30T00:00	6792	428	-21.9	-41.6	183	14
2023-08-30T00:00	6818	427	-22.1	-42.0	183	14
2023-08-30T00:00	6841	426	-22.3	-42.1	184	14
2023-08-30T00:00	6865	424	-22.5	-42.0	185	14
2023-08-30T00:00	6885	423	-22.7	-42.3	187	14
2023-08-30T00:00	6905	422	-22.9	-42.4	189	14
2023-08-30T00:00	6921	421	-23.1	-42.5	191	14
2023-08-30T00:00	6940	420	-23.2	-42.5	193	14
2023-08-30T00:00	6960	419	-23.4	-42.5	194	14
2023-08-30T00:00	6980	418	-23.5	-42.5	195	14
2023-08-30T00:00	7002	416	-23.7	-42.8	195	14
2023-08-30T00:00	7022	415	-23.7	-43.0	194	14
2023-08-30T00:00	7043	414	-23.8	-43.5	192	15
2023-08-30T00:00	7064	413	-23.9	-43.6	190	15
2023-08-30T00:00	7089	412	-24.2	-43.9	187	16
2023-08-30T00:00	7108	410	-24.3	-44.3	186	17
2023-08-30T00:00	7125	409	-24.4	-44.3	185	17
2023-08-30T00:00	7143	408	-24.6	-44.4	184	17
2023-08-30T00:00	7166	407	-24.8	-44.0	184	17
2023-08-30T00:00	7188	406	-25.0	-44.2	183	17
2023-08-30T00:00	7210	405	-25.2	-44.4	183	16
2023-08-30T00:00	7231	403	-25.3	-45.7	182	16
2023-08-30T00:00	7258	402	-25.5	-45.6	182	17
2023-08-30T00:00	7276	401	-25.7	-45.7	183	16
2023-08-30T00:00	7293	400	-25.8	-43.9	183	16
2023-08-30T00:00	7310	399	-26.0	-42.8	184	16
2023-08-30T00:00	7329	398	-26.2	-44.3	185	16
2023-08-30T00:00	7346	397	-26.3	-45.7	185	16
2023-08-30T00:00	7363	396	-26.5	-45.6	185	16
2023-08-30T00:00	7381	395	-26.6	-46.1	185	16
2023-08-30T00:00	7399	394	-26.8	-46.9	186	16
2023-08-30T00:00	7416	393	-26.9	-47.4	186	16
2023-08-30T00:00	7433	392	-27.1	-47.3	186	15
2023-08-30T00:00	7452	391	-27.2	-47.1	186	15
2023-08-30T00:00	7469	390	-27.4	-47.1	186	15
2023-08-30T00:00	7487	389	-27.6	-44.0	186	15
2023-08-30T00:00	7504	388	-27.7	-41.6	186	15
2023-08-30T00:00	7521	388	-27.8	-41.2	186	15
2023-08-30T00:00	7543	386	-28.0		186	15
2023-08-30T00:00	7563	385	-28.2	-41.3	186	15
2023-08-30T00:00	7587	384	-28.4	-41.0	187	15
2023-08-30T00:00	7609	383	-28.6	-42.2	188	15
2023-08-30T00:00	7635	382	-28.8	-41.7	188	15
2023-08-30T00:00	7657	380	-29.0	-41.4	188	15
2023-08-30T00:00	7685	379	-29.2	-40.3	188	15
2023-08-30T00:00	7706	378	-29.4	-38.2	188	15
2023-08-30T00:00	7736	376	-29.5	-36.5	187	15
2023-08-30T00:00	7757	375	-29.7	-36.6	187	15
2023-08-30T00:00	7778	374	-29.8	-36.5	187	15
2023-08-30T00:00	7800	373	-29.9	-36.9	187	16
2023-08-30T00:00	7826	371	-29.9	-37.4	187	17
2023-08-30T00:00	7845	370	-30.0	-37.4	187	18
2023-08-30T00:00	7867	369	-30.2	-37.3	187	19
2023-08-30T00:00	7886	368	-30.3	-37.2	187	20
2023-08-30T00:00	7908	367	-30.5	-37.5	186	20
2023-08-30T00:00	7927	366	-30.7	-37.3	185	21
2023-08-30T00:00	7953	365	-30.9	-37.2	184	22
2023-08-30T00:00	7974	364	-31.1	-37.5	183	22
2023-08-30T00:00	7997	363	-31.3	-37.8	181	23
2023-08-30T00:00	8018	361	-31.0	-39.3	181	23
2023-08-30T00:00	8040	360	-30.8	-40.6	180	23
2023-08-30T00:00	8067	359	-30.9	-41.7	179	23
2023-08-30T00:00	8090	358	-30.9	-43.0	179	23
2023-08-30T00:00	8110	357	-31.0	-43.6	178	23
2023-08-30T00:00	8127	356	-31.1	-43.8	178	22
2023-08-30T00:00	8147	355	-31.3	-43.9	177	22
2023-08-30T00:00	8166	354	-31.4	-44.4	177	22
2023-08-30T00:00	8186	353	-31.6	-44.6	177	22
2023-08-30T00:00	8209	352	-31.8	-44.9	178	22
2023-08-30T00:00	8228	351	-32.0	-45.7	179	22
2023-08-30T00:00	8250	350	-32.1	-46.0	180	22
2023-08-30T00:00	8265	349	-32.2	-46.1	180	23
2023-08-30T00:00	8284	348	-32.4	-46.4	180	24
2023-08-30T00:00	8303	347	-32.4	-46.8	179	24
2023-08-30T00:00	8328	346	-32.6	-46.4	178	25
2023-08-30T00:00	8352	345	-32.6	-45.7	177	25
2023-08-30T00:00	8372	344	-32.8	-45.7	177	25
2023-08-30T00:00	8396	343	-33.0	-45.7	177	25
2023-08-30T00:00	8417	342	-33.2	-45.6	177	24
2023-08-30T00:00	8435	341	-33.4	-45.5	178	24
2023-08-30T00:00	8459	340	-33.6	-45.4	179	24
2023-08-30T00:00	8479	339	-33.8	-45.4	179	24
2023-08-30T00:00	8500	338	-34.0	-45.5	179	23
2023-08-30T00:00	8525	336	-34.3	-45.6	178	23
2023-08-30T00:00	8543	336	-34.5	-45.7	178	23
2023-08-30T00:00	8565	335	-34.7	-45.6	177	23
2023-08-30T00:00	8587	333	-34.9	-45.6	177	23
2023-08-30T00:00	8611	332	-35.1	-45.7	177	23
2023-08-30T00:00	8638	331	-35.3	-45.7	177	24
2023-08-30T00:00	8660	330	-35.5	-45.8	176	25
2023-08-30T00:00	8683	329	-35.6	-46.0	176	25
2023-08-30T00:00	8702	328	-35.8	-46.1	175	26
2023-08-30T00:00	8724	327	-35.9	-46.1	174	26
2023-08-30T00:00	8747	326	-36.1	-46.8	173	27
2023-08-30T00:00	8778	325	-36.2	-47.1	172	27
2023-08-30T00:00	8803	323	-36.4	-47.4	171	28
2023-08-30T00:00	8830	322	-36.6	-47.5	171	28
2023-08-30T00:00	8854	321	-36.8	-47.5	170	28
2023-08-30T00:00	8875	320	-36.9	-47.0	169	28
2023-08-30T00:00	8897	319	-37.1	-46.9	168	28
2023-08-30T00:00	8921	318	-37.2	-46.5	168	28
2023-08-30T00:00	8944	317	-37.5	-46.8	169	28
2023-08-30T00:00	8968	316	-37.7	-46.5	170	28
2023-08-30T00:00	8990	315	-37.9	-46.5	171	28
2023-08-30T00:00	9009	314	-38.1	-46.2	172	29
2023-08-30T00:00	9030	313	-38.2	-46.0	173	30
2023-08-30T00:00	9051	312	-38.4	-46.0	173	31
2023-08-30T00:00	9075	311	-38.6	-46.2	173	32
2023-08-30T00:00	9099	310	-38.8	-46.1	172	32
2023-08-30T00:00	9122	309	-39.0	-46.1	172	32
2023-08-30T00:00	9145	308	-39.3		172	32
2023-08-30T00:00	9164	307	-39.4	-46.1	173	32
2023-08-30T00:00	9187	306	-39.7	-46.1	173	32
2023-08-30T00:00	9211	305	-39.9	-46.0	174	32
2023-08-30T00:00	9230	304	-40.0	-45.9	175	32
2023-08-30T00:00	9253	303	-40.2	-45.9	175	32
2023-08-30T00:00	9273	302	-40.4	-45.9	175	32
2023-08-30T00:00	9293	301	-40.6	-45.6	175	33
2023-08-30T00:00	9318	300	-40.8	-45.4	175	33
2023-08-30T00:00	9337	299	-41.0	-45.5	174	34
2023-08-30T00:00	9355	298	-41.1	-45.4	174	35
2023-08-30T00:00	9375	297	-41.3	-45.5	173	35
2023-08-30T00:00	9396	296	-41.5	-45.7	172	34
2023-08-30T00:00	9417	296	-41.7	-45.8	171	33
2023-08-30T00:00	9434	295	-41.9	-46.2	171	32
2023-08-30T00:00	9453	294	-42.1	-46.8	171	31
2023-08-30T00:00	9471	293	-42.2	-46.9	172	31
2023-08-30T00:00	9492	292	-42.4	-47.0	172	31
2023-08-30T00:00	9517	291	-42.6	-47.1	173	31
2023-08-30T00:00	9541	290	-42.9	-47.4	174	32
2023-08-30T00:00	9566	289	-43.1	-47.6	174	32
2023-08-30T00:00	9592	288	-43.3	-47.7	175	32
2023-08-30T00:00	9615	287	-43.6	-47.8	174	32
2023-08-30T00:00	9637	286	-43.8	-48.0	174	32
2023-08-30T00:00	9658	285	-44.0	-48.1	173	32
2023-08-30T00:00	9680	284	-44.2	-48.2	172	33
2023-08-30T00:00	9704	283	-44.4	-48.5	172	33
2023-08-30T00:00	9724	282	-44.6	-48.9	173	34
2023-08-30T00:00	9749	281	-44.8	-49.1	174	34
2023-08-30T00:00	9773	280	-45.0	-49.3	175	34
2023-08-30T00:00	9798	279	-45.2	-49.3	176	35
2023-08-30T00:00	9822	278	-45.4	-49.4	177	35
2023-08-30T00:00	9844	277	-45.7	-49.7	178	35
2023-08-30T00:00	9870	276	-45.9	-50.0	178	36
2023-08-30T00:00	9895	275	-46.1	-50.3	179	36
2023-08-30T00:00	9920	274	-46.3	-50.4	179	37
2023-08-30T00:00	9940	273	-46.5	-50.5	179	37
2023-08-30T00:00	9958	273	-46.7	-50.7	179	38
2023-08-30T00:00	9980	272	-46.8	-50.8	178	38
2023-08-30T00:00	10004	271	-47.1	-51.2	178	38
2023-08-30T00:00	10023	270	-47.2	-51.6	178	38
2023-08-30T00:00	10041	269	-47.4	-51.7	178	38
2023-08-30T00:00	10066	268	-47.6	-51.8	178	37
2023-08-30T00:00	10091	267	-47.8	-52.3	178	37
2023-08-30T00:00	10120	266	-48.1	-52.8	178	37
2023-08-30T00:00	10141	265	-48.3	-53.0	178	36
2023-08-30T00:00	10167	264	-48.5	-52.9	178	36
2023-08-30T00:00	10190	263	-48.8	-52.9	179	36
2023-08-30T00:00	10214	262	-49.0	-53.1	179	36
2023-08-30T00:00	10236	261	-49.2	-53.3	179	37
2023-08-30T00:00	10262	260	-49.4	-53.5	179	37
2023-08-30T00:00	10288	259	-49.6	-53.6	179	37
2023-08-30T00:00	10311	258	-49.8	-53.7	180	38
2023-08-30T00:00	10334	258	-49.9	-53.8	180	38
2023-08-30T00:00	10357	257	-50.1	-54.0	181	38
2023-08-30T00:00	10379	256	-50.3	-54.3	183	38
2023-08-30T00:00	10399	255	-50.3	-54.5	184	39
2023-08-30T00:00	10416	254	-50.1	-54.5	186	39
2023-08-30T00:00	10437	253	-50.2	-54.6	187	39
2023-08-30T00:00	10456	253	-50.3	-54.8	187	39
2023-08-30T00:00	10473	252	-50.1	-55.5	187	38
2023-08-30T00:00	10494	251	-49.7	-56.2	187	37
2023-08-30T00:00	10518	250	-49.9	-56.8	188	36
2023-08-30T00:00	10539	250	-49.8	-57.0	189	35
2023-08-30T00:00	10559	249	-50.0	-57.2	189	35
2023-08-30T00:00	10584	248	-50.2	-57.1	190	35
2023-08-30T00:00	10609	247	-50.4	-57.0	190	35
2023-08-30T00:00	10635	246	-50.6	-57.2	190	34
2023-08-30T00:00	10657	245	-50.7	-57.4	190	34
2023-08-30T00:00	10685	244	-50.9	-57.6	190	33
2023-08-30T00:00	10705	243	-51.0	-57.6	190	33
2023-08-30T00:00	10727	242	-51.2	-57.9	190	32
2023-08-30T00:00	10745	242	-51.3	-58.4	190	32
2023-08-30T00:00	10770	241	-51.2	-59.0	189	32
2023-08-30T00:00	10795	240	-51.2	-59.5	189	32
2023-08-30T00:00	10813	239	-51.4	-59.8	188	32
2023-08-30T00:00	10841	238	-51.5	-59.8	187	32
2023-08-30T00:00	10866	237	-51.7	-59.9	186	32
2023-08-30T00:00	10889	236	-51.9	-60.0	186	32
2023-08-30T00:00	10910	236	-52.0	-60.0	185	32
2023-08-30T00:00	10934	235	-52.2	-60.0	185	32
2023-08-30T00:00	10960	234	-52.3	-60.0	184	31
2023-08-30T00:00	10988	233	-52.5	-60.3	183	31
2023-08-30T00:00	11012	232	-52.6	-60.7	181	30
2023-08-30T00:00	11038	231	-52.7	-61.0	179	30
2023-08-30T00:00	11063	230	-52.9	-61.1	177	30
2023-08-30T00:00	11083	229	-53.0	-61.2	175	29
2023-08-30T00:00	11108	229	-53.2	-61.6	173	29
2023-08-30T00:00	11132	228	-53.1	-62.1	171	29
2023-08-30T00:00	11157	227	-53.2		170	29
2023-08-30T00:00	11174	226	-53.1	-63.7	168	29
2023-08-30T00:00	11197	225	-52.4	-64.5	166	29
2023-08-30T00:00	11218	225	-52.4	-65.2	164	29
2023-08-30T00:00	11245	224	-52.4	-65.1	163	30
2023-08-30T00:00	11268	223	-52.6	-65.0	162	30
2023-08-30T00:00	11288	222	-52.7		162	31
2023-08-30T00:00	11313	221	-52.9	-64.9	162	31
2023-08-30T00:00	11340	221	-53.0	-64.7	162	31
2023-08-30T00:00	11368	220	-53.0	-64.3	161	32
2023-08-30T00:00	11390	219	-53.0	-64.3	161	32
2023-08-30T00:00	11415	218	-52.7	-63.8	160	33
2023-08-30T00:00	11440	217	-52.6	-63.5	159	33
2023-08-30T00:00	11460	216	-52.3	-64.0	159	33
2023-08-30T00:00	11476	216	-52.0	-65.8	159	34
2023-08-30T00:00	11500	215	-51.7	-67.4	159	34
2023-08-30T00:00	11526	214	-51.3	-67.9	160	34
2023-08-30T00:00	11549	214	-51.3	-68.0	161	33
2023-08-30T00:00	11570	213	-51.3	-67.8	162	33
2023-08-30T00:00	11588	212	-51.4	-67.6	163	33
2023-08-30T00:00	11609	212	-51.5	-67.5	165	32
2023-08-30T00:00	11628	211	-51.7	-68.0	166	32
2023-08-30T00:00	11649	210	-51.6	-68.9	167	31
2023-08-30T00:00	11674	209	-51.7	-70.4	168	31
2023-08-30T00:00	11700	209	-51.5	-70.7	170	31
2023-08-30T00:00	11732	208	-51.6	-70.4	171	30
2023-08-30T00:00	11758	207	-51.8	-70.0	173	30
2023-08-30T00:00	11778	206	-52.0	-69.9	175	31
2023-08-30T00:00	11801	205	-52.2	-70.6	177	31
2023-08-30T00:00	11819	205	-52.0	-71.4	178	31
2023-08-30T00:00	11843	204	-52.2	-72.2	178	31
2023-08-30T00:00	11865	203	-52.5	-72.5	178	30
2023-08-30T00:00	11888	203	-52.6	-72.9	178	30
2023-08-30T00:00	11905	202	-52.8	-73.6	177	29
2023-08-30T00:00	11924	201	-52.9	-74.3	177	29
2023-08-30T00:00	11950	201	-52.6	-74.8	177	28
2023-08-30T00:00	11970	200	-52.6	-75.0	177	27
2023-08-30T00:00	11993	199	-52.7	-74.9	176	26
2023-08-30T00:00	12022	199	-52.9	-74.8	176	26
2023-08-30T00:00	12047	198	-53.2	-74.9	175	26
2023-08-30T00:00	12075	197	-53.4	-74.9	175	26
2023-08-30T00:00	12104	196	-53.7	-75.2	175	27
2023-08-30T00:00	12134	195	-54.0	-75.4	176	28
2023-08-30T00:00	12156	194	-54.1	-75.6	176	29
2023-08-30T00:00	12176	194	-54.0	-75.6	176	30
2023-08-30T00:00	12202	193	-53.7	-75.3	177	30
2023-08-30T00:00	12227	192	-53.5	-75.7	177	30
2023-08-30T00:00	12250	192	-53.4	-76.6	178	30
2023-08-30T00:00	12274	191	-53.6	-77.5	179	29
2023-08-30T00:00	12292	190	-53.0	-77.4	180	28
2023-08-30T00:00	12310	190	-52.7	-77.6	181	27
2023-08-30T00:00	12332	189	-52.5	-77.6	182	26
2023-08-30T00:00	12351	189	-52.4	-77.8	182	25
2023-08-30T00:00	12377	188	-51.9	-77.6	183	24
2023-08-30T00:00	12405	187	-51.8	-77.5	184	24
2023-08-30T00:00	12432	186	-51.9	-77.6	185	24
2023-08-30T00:00	12457	186	-52.1	-77.8	185	24
2023-08-30T00:00	12478	185	-52.3	-77.7	186	24
2023-08-30T00:00	12498	184	-52.4	-78.0	187	24
2023-08-30T00:00	12521	184	-52.0	-77.7	188	23
2023-08-30T00:00	12544	183	-52.2	-78.1	188	22
2023-08-30T00:00	12570	182	-51.8	-78.0	188	22
2023-08-30T00:00	12593	182	-51.6	-77.9	188	21
2023-08-30T00:00	12616	181	-51.6	-77.9	187	20
2023-08-30T00:00	12644	180	-51.7	-78.0	186	20
2023-08-30T00:00	12669	180	-51.7	-78.0	185	20
2023-08-30T00:00	12692	179	-51.4	-78.0	184	19
2023-08-30T00:00	12720	178	-51.5	-78.3	184	19
2023-08-30T00:00	12746	177	-51.0	-78.2	185	19
2023-08-30T00:00	12771	177	-50.6	-78.2	186	19
2023-08-30T00:00	12794	176	-50.4	-78.4	188	20
2023-08-30T00:00	12819	175	-50.1	-78.2	189	20
2023-08-30T00:00	12838	175	-50.0	-78.1	190	20
2023-08-30T00:00	12863	174	-50.1	-78.2	189	20
2023-08-30T00:00	12889	174	-50.1	-78.2	188	20
2023-08-30T00:00	12913	173	-50.0	-78.1	187	20
2023-08-30T00:00	12936	172	-49.9	-78.0	186	20
2023-08-30T00:00	12965	172	-49.6	-77.8	185	21
2023-08-30T00:00	12987	171	-49.1	-77.7	184	21
2023-08-30T00:00	13011	170	-48.7	-77.8	184	21
2023-08-30T00:00	13032	170	-48.7	-77.8	184	21
2023-08-30T00:00	13051	169	-48.4	-77.6	185	21
2023-08-30T00:00	13074	169	-48.3	-77.5	185	21
2023-08-30T00:00	13103	168	-48.4	-77.6	184	20
2023-08-30T00:00	13127	167	-48.5	-77.6	184	20
2023-08-30T00:00	13155	167	-48.1	-77.3	185	20
2023-08-30T00:00	13179	166	-48.2	-77.4	186	20
2023-08-30T00:00	13207	165	-48.4	-77.6	187	20
2023-08-30T00:00	13232	165	-48.5	-77.6	188	19
2023-08-30T00:00	13262	164	-48.7	-77.8	189	19
2023-08-30T00:00	13288	163	-48.9	-77.6	189	19
2023-08-30T00:00	13308	163	-49.0	-77.7	189	18
2023-08-30T00:00	13331	162	-49.0	-77.7	188	18
2023-08-30T00:00	13352	162	-49.1	-77.7	187	18
2023-08-30T00:00	13374	161	-49.1	-77.7	187	18
2023-08-30T00:00	13399	161	-49.0	-78.0	186	18
2023-08-30T00:00	13421	160	-49.0	-78.0	186	18
2023-08-30T00:00	13450	159	-49.2	-78.2	186	18
2023-08-30T00:00	13475	159	-49.4	-78.3	186	18
2023-08-30T00:00	13505	158	-49.6	-78.1	185	18
2023-08-30T00:00	13531	157	-49.8	-78.3	185	19
2023-08-30T00:00	13561	157	-50.0	-78.4	185	18
2023-08-30T00:00	13588	156	-50.1	-78.5	184	18
2023-08-30T00:00	13616	155	-50.4	-78.7	184	18
2023-08-30T00:00	13642	155	-50.5	-78.8	184	19
2023-08-30T00:00	13672	154	-50.6	-78.9	185	19
2023-08-30T00:00	13699	153	-50.7	-79.0	186	20
2023-08-30T00:00	13729	153	-50.8	-79.0	187	20
2023-08-30T00:00	13751	152	-51.0	-79.2	188	21
2023-08-30T00:00	13779	152	-51.1	-79.3	188	21
2023-08-30T00:00	13805	151	-51.2	-79.3	188	20
2023-08-30T00:00	13832	150	-51.3	-79.4	187	20
2023-08-30T00:00	13863	150	-51.4	-79.5	186	19
2023-08-30T00:00	13890	149	-51.4	-79.5	186	19
2023-08-30T00:00	13919	148	-51.4	-79.5	185	19
2023-08-30T00:00	13946	148	-51.5	-79.6	184	18
2023-08-30T00:00	13975	147	-51.7	-79.7	184	18
2023-08-30T00:00	14000	146	-51.8	-79.8	183	18
2023-08-30T00:00	14030	146	-51.9	-79.9	183	19
2023-08-30T00:00	14062	145	-52.0	-80.0	184	19
2023-08-30T00:00	14088	144	-52.2	-80.1	185	19
2023-08-30T00:00	14115	144	-52.1	-80.0	186	19
2023-08-30T00:00	14143	143	-52.2	-79.8	186	19
2023-08-30T00:00	14172	143	-52.1	-79.7	185	19
2023-08-30T00:00	14205	142	-51.9	-79.5	183	19
2023-08-30T00:00	14232	141	-52.1	-79.7	180	19
2023-08-30T00:00	14259	141	-52.2	-79.8	178	20
2023-08-30T00:00	14287	140	-52.4	-79.9	175	20
2023-08-30T00:00	14318	139	-52.5	-80.0	174	20
2023-08-30T00:00	14346	139	-52.7	-79.8	173	21
2023-08-30T00:00	14374	138	-52.8	-79.9	173	21
2023-08-30T00:00	14400	138	-53.0	-80.1	174	21
2023-08-30T00:00	14429	137	-52.9	-80.3	175	21
2023-08-30T00:00	14458	136	-52.8	-80.2	178	21
2023-08-30T00:00	14485	136	-52.9	-80.6	180	20
2023-08-30T00:00	14512	135	-52.8	-80.9	183	20
2023-08-30T00:00	14540	135	-52.9	-81.0	185	20
2023-08-30T00:00	14568	134	-52.6	-81.1	188	20
2023-08-30T00:00	14594	134	-52.5	-81.0	190	20
2023-08-30T00:00	14618	133	-52.4	-81.4	192	19
2023-08-30T00:00	14648	132	-52.3	-81.3	194	19
2023-08-30T00:00	14672	132	-52.0	-81.1	195	19
2023-08-30T00:00	14700	131	-52.0	-81.1	196	19
2023-08-30T00:00	14729	131	-52.0	-81.1	197	19
2023-08-30T00:00	14756	130	-52.0	-81.1	197	19
2023-08-30T00:00	14783	130	-52.1	-81.1	197	18
2023-08-30T00:00	14808	129	-52.1	-81.1	197	18
2023-08-30T00:00	14833	129	-52.1	-81.1	198	17
2023-08-30T00:00	14857	128	-52.0	-81.1	198	17
2023-08-30T00:00	14885	128	-51.8	-80.9	199	16
2023-08-30T00:00	14902	127	-51.7	-80.8	200	16
2023-08-30T00:00	14922	127	-51.7	-80.8	201	16
2023-08-30T00:00	14948	126	-51.7	-81.2	202	16
2023-08-30T00:00	14974	126	-51.7	-81.2	202	16
2023-08-30T00:00	14998	125	-51.9	-81.4	201	15
2023-08-30T00:00	15029	125	-51.9	-81.4	200	15
2023-08-30T00:00	15052	124	-51.7	-81.2	198	15
2023-08-30T00:00	15078	124	-51.5	-81.1	196	16
2023-08-30T00:00	15106	123	-51.6	-81.2	195	16
2023-08-30T00:00	15128	123	-51.7	-81.2	194	16
2023-08-30T00:00	15154	123	-51.6	-81.2	195	16
2023-08-30T00:00	15181	122	-51.3	-80.9	196	16
2023-08-30T00:00	15207	122	-51.0	-81.2	197	16
2023-08-30T00:00	15234	121	-51.0	-81.2	198	16
2023-08-30T00:00	15259	121	-51.0	-81.2	198	16
2023-08-30T00:00	15287	120	-50.9	-81.1	198	16
2023-08-30T00:00	15312	120	-50.6	-80.9	199	17
2023-08-30T00:00	15343	119	-50.5	-80.8	200	17
2023-08-30T00:00	15373	118	-50.7	-80.9	202	16
2023-08-30T00:00	15399	118	-50.8	-81.0	204	16
2023-08-30T00:00	15428	117	-51.0	-81.2	206	16
2023-08-30T00:00	15452	117	-51.1	-81.2	208	16
2023-08-30T00:00	15482	117	-51.2	-81.3	208	16
2023-08-30T00:00	15507	116	-51.1	-81.2	207	16
2023-08-30T00:00	15534	116	-51.2	-81.3	206	16
2023-08-30T00:00	15565	115	-51.4	-81.5	205	16
2023-08-30T00:00	15592	115	-51.6	-81.2	205	16
2023-08-30T00:00	15615	114	-51.8	-81.3	205	16
2023-08-30T00:00	15642	114	-52.0	-81.5	206	16
2023-08-30T00:00	15671	113	-52.2	-81.6	206	15
2023-08-30T00:00	15701	113	-51.9	-81.4	205	14
2023-08-30T00:00	15731	112	-52.1	-81.5	204	14
2023-08-30T00:00	15754	112	-52.3	-81.7	202	13
2023-08-30T00:00	15780	111	-52.1	-82.0	199	13
2023-08-30T00:00	15802	111	-51.8	-81.8	197	13
2023-08-30T00:00	15824	111	-51.7	-81.7	196	13
2023-08-30T00:00	15850	110	-51.6	-81.6	194	13
2023-08-30T00:00	15871	110	-51.5	-81.5	193	13
2023-08-30T00:00	15904	109	-51.3	-81.4	193	13
2023-08-30T00:00	15927	109	-51.3	-81.4	193	13
2023-08-30T00:00	15956	108	-51.2	-81.3	194	13
2023-08-30T00:00	15979	108	-51.1	-81.2	195	13
2023-08-30T00:00	16004	108	-51.2	-81.3	196	13
2023-08-30T00:00	16029	107	-51.3	-81.4	196	13
2023-08-30T00:00	16051	107	-51.2	-81.3	196	14
2023-08-30T00:00	16081	106	-51.3	-81.4	196	14
2023-08-30T00:00	16101	106	-51.4	-81.5	197	14
2023-08-30T00:00	16131	105	-51.3	-81.4	198	14
2023-08-30T00:00	16159	105	-51.3	-81.4	200	14
2023-08-30T00:00	16184	105	-51.4	-81.5	201	14
2023-08-30T00:00	16213	104	-51.6	-81.6	202	14
2023-08-30T00:00	16242	104	-51.6	-81.6	204	14
2023-08-30T00:00	16272	103	-51.7	-81.7	207	14
2023-08-30T00:00	16297	103	-51.8	-81.8	209	14
2023-08-30T00:00	16322	102	-51.9	-81.8	211	14
2023-08-30T00:00	16354	102	-52.2	-81.6	212	14
2023-08-30T00:00	16375	102	-52.3	-81.7	212	14
2023-08-30T00:00	16403	101	-52.5	-81.8	213	13
2023-08-30T00:00	16435	101	-52.8	-82.1	213	13
2023-08-30T00:00	16460	100	-52.8	-82.1	214	12
2023-08-30T00:00	16481	100	-52.6	-81.9	214	12
2023-08-30T00:00	16513	99	-52.8	-82.1	214	12
2023-08-30T00:00	16539	99	-53.0	-82.2	213	12
2023-08-30T00:00	16561	99	-53.1	-82.3	210	12
2023-08-30T00:00	16585	98	-53.1	-82.3	208	12
2023-08-30T00:00	16614	98	-53.1	-82.3	205	12
2023-08-30T00:00	16649	97	-52.9	-82.1	203	13
2023-08-30T00:00	16675	97	-53.1	-82.3	201	13
2023-08-30T00:00	16703	97	-53.3	-82.5	200	13
2023-08-30T00:00	16730	96	-53.4	-82.5	200	13
2023-08-30T00:00	16758	96	-53.5	-82.6	199	13
2023-08-30T00:00	16781	95	-53.6	-82.7	199	13
2023-08-30T00:00	16815	95	-53.7	-82.3	200	12
2023-08-30T00:00	16843	94	-53.7	-82.3	201	12
2023-08-30T00:00	16873	94	-53.9	-82.5	202	12
2023-08-30T00:00	16900	94	-54.1	-82.6	203	12
2023-08-30T00:00	16930	93	-54.1	-82.6	203	12
2023-08-30T00:00	16962	93	-54.3	-82.8	202	12
2023-08-30T00:00	16995	92	-54.4	-82.5	201	11
2023-08-30T00:00	17020	92	-54.4	-82.5	200	10
2023-08-30T00:00	17047	91	-54.6	-82.6	198	9
2023-08-30T00:00	17072	91	-54.9	-82.9	197	9
2023-08-30T00:00	17106	91	-55.0	-82.9	196	8
2023-08-30T00:00	17137	90	-55.3	-83.2	193	7
2023-08-30T00:00	17168	90	-55.5		190	6
2023-08-30T00:00	17202	89	-55.7	-83.1	185	6
2023-08-30T00:00	17234	89	-55.9	-83.3	181	6
2023-08-30T00:00	17266	88	-56.1	-83.4	179	6
2023-08-30T00:00	17297	88	-56.1	-83.4	179	6
2023-08-30T00:00	17327	88	-56.1	-83.8	181	6
2023-08-30T00:00	17361	87	-56.2	-83.9	183	6
2023-08-30T00:00	17394	87	-56.1	-83.8	186	6
2023-08-30T00:00	17423	86	-56.1	-83.8	190	6
2023-08-30T00:00	17455	86	-55.9	-83.6	193	6
2023-08-30T00:00	17482	85	-56.0	-83.7	197	6
2023-08-30T00:00	17509	85	-56.1	-84.2	198	6
2023-08-30T00:00	17538	85	-55.8	-83.9	199	6
2023-08-30T00:00	17567	84	-55.7	-83.9	199	5
2023-08-30T00:00	17590	84	-55.8	-83.9	199	5
2023-08-30T00:00	17616	84	-55.9	-83.6	200	5
2023-08-30T00:00	17642	83	-56.0	-83.7	202	4
2023-08-30T00:00	17662	83	-56.2	-83.9	203	5
2023-08-30T00:00	17691	83	-56.3	-83.9	202	5
2023-08-30T00:00	17717	82	-56.2	-83.9	201	5
2023-08-30T00:00	17749	82	-56.5	-84.1	201	5
2023-08-30T00:00	17774	82	-56.6	-84.2	202	5
2023-08-30T00:00	17799	81	-56.7	-84.2	204	5
2023-08-30T00:00	17817	81	-56.6	-84.2	204	5
2023-08-30T00:00	17842	81	-56.7	-84.2	201	5
2023-08-30T00:00	17863	80	-56.6	-84.2	196	5
2023-08-30T00:00	17890	80	-56.5	-84.1	191	6
2023-08-30T00:00	17917	80	-56.5	-84.5	185	6
2023-08-30T00:00	17946	79	-56.3	-84.3	179	6
2023-08-30T00:00	17972	79	-56.4	-84.4	175	6
2023-08-30T00:00	18000	79	-56.5	-84.1	172	6
2023-08-30T00:00	18025	78	-56.7	-84.2	170	7
2023-08-30T00:00	18045	78	-56.7	-84.2	170	7
2023-08-30T00:00	18068	78	-56.7	-84.2	172	7
2023-08-30T00:00	18088	78	-56.6	-84.2	175	7
2023-08-30T00:00	18112	77	-56.4	-84.4	179	6
2023-08-30T00:00	18130	77	-56.5	-84.5	182	6
2023-08-30T00:00	18150	77	-56.5	-84.5	183	6
2023-08-30T00:00	18170	77	-56.5	-84.5	182	6
2023-08-30T00:00	18193	76	-56.3	-84.3	181	6
2023-08-30T00:00	18214	76	-55.9	-84.4	178	7
2023-08-30T00:00	18234	76	-55.8	-84.3	176	6
2023-08-30T00:00	18259	76	-55.8	-84.3	174	6
2023-08-30T00:00	18279	75	-55.8	-84.3	172	6
2023-08-30T00:00	18302	75	-55.9	-84.4	171	6
2023-08-30T00:00	18323	75	-56.0	-84.5	171	6
2023-08-30T00:00	18345	75	-55.9	-84.4	173	7
2023-08-30T00:00	18366	74	-55.8	-84.3	175	7
2023-08-30T00:00	18389	74	-55.5	-84.1	178	7
2023-08-30T00:00	18412	74	-55.4	-84.0	180	7
2023-08-30T00:00	18442	73	-55.1	-84.2	182	7
2023-08-30T00:00	18474	73	-54.7	-83.9	184	7
2023-08-30T00:00	18502	73	-55.0	-84.2	185	7
2023-08-30T00:00	18522	73	-55.0	-84.2	185	7
2023-08-30T00:00	18545	72	-54.8	-83.6	186	7
2023-08-30T00:00	18569	72	-54.9	-83.7	187	7
2023-08-30T00:00	18593	72	-55.2	-83.9	188	8
2023-08-30T00:00	18621	71	-55.4	-84.0	190	8
2023-08-30T00:00	18648	71	-55.4	-84.0	193	8
2023-08-30T00:00	18673	71	-55.3	-84.4	197	8
2023-08-30T00:00	18701	71	-54.8	-84.0	201	7
2023-08-30T00:00	18725	70	-54.6	-83.9	205	7
2023-08-30T00:00	18749	70	-54.3	-84.1	208	6
2023-08-30T00:00	18773	70	-54.0	-83.9	210	6
2023-08-30T00:00	18794	69	-54.1	-83.5	211	5
2023-08-30T00:00	18820	69	-54.3	-83.6	212	5
2023-08-30T00:00	18841	69	-54.4	-83.7	212	4
2023-08-30T00:00	18861	69	-54.6	-83.9	212	4
2023-08-30T00:00	18887	69	-54.6	-83.4	212	4
2023-08-30T00:00	18911	68	-54.7	-83.5	213	3
2023-08-30T00:00	18939	68	-54.9	-83.7	213	3
2023-08-30T00:00	18960	68	-55.0	-83.7	211	3
2023-08-30T00:00	18988	67	-55.2	-83.9	208	2
2023-08-30T00:00	19008	67	-55.3	-84.0	202	2
2023-08-30T00:00	19030	67	-55.5	-84.1	195	2
2023-08-30T00:00	19052	67	-55.6	-84.2	188	2
2023-08-30T00:00	19074	67	-55.7	-84.3	182	2
2023-08-30T00:00	19093	66	-55.7	-84.3	178	3
2023-08-30T00:00	19120	66	-55.4	-84.0	174	3
2023-08-30T00:00	19144	66	-55.3	-84.0	169	4
2023-08-30T00:00	19165	66	-55.2	-84.3	165	4
2023-08-30T00:00	19186	65	-55.2	-84.3	162	5
2023-08-30T00:00	19208	65	-55.2	-83.9	159	6
2023-08-30T00:00	19228	65	-55.3	-84.0	158	7
2023-08-30T00:00	19253	65	-55.5	-84.1	157	8
2023-08-30T00:00	19272	65	-55.5	-84.1	158	8
2023-08-30T00:00	19290	64	-55.4	-84.5	159	9
2023-08-30T00:00	19312	64	-55.2	-84.3	161	9
2023-08-30T00:00	19337	64	-55.1	-84.2	165	9
2023-08-30T00:00	19357	64	-55.1	-84.2	169	9
2023-08-30T00:00	19375	63	-54.5	-84.3	174	8
2023-08-30T00:00	19394	63	-54.4	-84.2	179	8
2023-08-30T00:00	19419	63	-54.5	-84.3	186	8
2023-08-30T00:00	19440	63	-54.3	-84.1	193	7
2023-08-30T00:00	19461	63	-54.4	-84.2	199	7
2023-08-30T00:00	19477	62	-54.3	-84.1	205	7
2023-08-30T00:00	19498	62	-54.1	-84.0	209	6
2023-08-30T00:00	19520	62	-54.0	-83.9	211	6
2023-08-30T00:00	19541	62	-54.0	-83.9	211	5
2023-08-30T00:00	19561	62	-53.9	-83.8	211	4
2023-08-30T00:00	19582	61	-53.9	-83.8	209	4
2023-08-30T00:00	19601	61	-53.9	-83.8	206	3
2023-08-30T00:00	19620	61	-54.0	-83.4	201	3
2023-08-30T00:00	19642	61	-54.0	-83.4	194	3
2023-08-30T00:00	19665	61	-54.0	-83.4	187	3
2023-08-30T00:00	19688	60	-54.1	-83.5	181	3
2023-08-30T00:00	19712	60	-54.0	-83.9	178	4
2023-08-30T00:00	19731	60	-53.9	-83.8	177	4
2023-08-30T00:00	19755	60	-53.7	-83.7	177	4
2023-08-30T00:00	19778	60	-53.8	-83.7	178	5
2023-08-30T00:00	19794	59	-53.5	-83.5	181	5
2023-08-30T00:00	19820	59	-53.4	-83.4	183	5
2023-08-30T00:00	19841	59	-53.4	-83.4	186	5
2023-08-30T00:00	19863	59	-53.4	-83.4	188	5
2023-08-30T00:00	19886	59	-53.3		191	5
2023-08-30T00:00	19908	58	-53.4	-83.4	195	5
2023-08-30T00:00	19934	58	-53.6	-83.6	200	5
2023-08-30T00:00	19953	58	-53.8	-83.7	205	5
2023-08-30T00:00	19980	58	-53.8	-83.7	210	4
2023-08-30T00:00	20004	58	-53.6	-83.6	212	4
2023-08-30T00:00	20030	57	-53.5	-83.5	211	4
2023-08-30T00:00	20049	57	-53.5	-83.5	208	3
2023-08-30T00:00	20075	57	-53.3		205	3
2023-08-30T00:00	20099	57	-53.1	-83.2	202	3
2023-08-30T00:00	20122	57	-53.1	-83.2	200	3
2023-08-30T00:00	20147	56	-52.8	-83.0	196	3
2023-08-30T00:00	20168	56	-52.9	-83.1	191	3
2023-08-30T00:00	20193	56	-53.0	-83.1	183	3
2023-08-30T00:00	20220	56	-53.0	-83.1	176	3
2023-08-30T00:00	20245	55	-53.1	-83.2	170	3
2023-08-30T00:00	20270	55	-53.2	-83.3	168	3
2023-08-30T00:00	20292	55	-53.4	-83.4	169	3
2023-08-30T00:00	20320	55	-53.3		171	3
2023-08-30T00:00	20341	55	-53.3		175	3
2023-08-30T00:00	20367	54	-53.4	-83.4	178	3
2023-08-30T00:00	20386	54	-53.2	-83.3	180	4
2023-08-30T00:00	20405	54	-53.0	-83.1	181	4
2023-08-30T00:00	20435	54	-53.1	-83.2	181	5
2023-08-30T00:00	20454	54	-53.2	-83.3	182	5
2023-08-30T00:00	20473	53	-53.4	-83.4	183	5
2023-08-30T00:00	20499	53	-53.5	-83.5	185	6
2023-08-30T00:00	20522	53	-53.7	-83.2	187	6
2023-08-30T00:00	20544	53	-53.8	-83.3	190	6
2023-08-30T00:00	20567	53	-53.8	-83.3	192	7
2023-08-30T00:00	20583	53	-53.8	-83.3	194	7
2023-08-30T00:00	20605	52	-54.0	-83.4	195	7
2023-08-30T00:00	20628	52	-54.0	-83.4	196	7
2023-08-30T00:00	20650	52	-54.0	-83.4	197	7
2023-08-30T00:00	20669	52	-53.9	-83.3	198	6
2023-08-30T00:00	20690	52	-53.9	-83.3	199	6
2023-08-30T00:00	20712	52	-54.0	-83.4	201	5
2023-08-30T00:00	20732	51	-54.2	-83.6	204	5
2023-08-30T00:00	20754	51	-54.2	-83.6	208	5
2023-08-30T00:00	20770	51	-54.2	-83.6	212	4
2023-08-30T00:00	20792	51	-54.3	-83.6	217	4
2023-08-30T00:00	20819	51	-54.3	-83.6	222	4
2023-08-30T00:00	20834	51	-54.4	-83.7	228	4
2023-08-30T00:00	20857	50	-54.4	-83.7	234	3
2023-08-30T00:00	20878	50	-54.6	-83.9	239	3
2023-08-30T00:00	20899	50	-54.7	-83.9	243	3
2023-08-30T00:00	20915	50	-54.6	-83.9	244	3
2023-08-30T00:00	20938	50	-54.7	-83.9	241	3
2023-08-30T00:00	20960	50	-54.8	-84.0	235	3
2023-08-30T00:00	20980	49	-54.8	-84.0	228	3
2023-08-30T00:00	21001	49	-54.9	-84.1	222	3
2023-08-30T00:00	21020	49	-54.8	-84.0	217	3
2023-08-30T00:00	21040	49	-54.9	-84.1	213	3
2023-08-30T00:00	21059	49	-54.9	-84.1	211	3
2023-08-30T00:00	21082	49	-55.0	-84.2	211	2
2023-08-30T00:00	21100	49	-55.0	-84.2	214	2
2023-08-30T00:00	21117	48	-54.9	-84.1	224	1
2023-08-30T00:00	21145	48	-54.9	-84.1	269	0
2023-08-30T00:00	21163	48	-54.8	-84.0	348	1
2023-08-30T00:00	21187	48	-54.9	-84.1	12	1
2023-08-30T00:00	21214	48	-55.0	-84.2	25	2
2023-08-30T00:00	21233	48	-55.0	-84.2	36	2
2023-08-30T00:00	21258	47	-54.9	-84.1	45	2
2023-08-30T00:00	21280	47	-54.8	-84.0	54	3
2023-08-30T00:00	21304	47	-54.7	-83.9	64	3
2023-08-30T00:00	21331	47	-54.8	-84.0	73	4
2023-08-30T00:00	21349	47	-54.6	-83.9	80	4
2023-08-30T00:00	21380	46	-54.6	-83.9	85	4
2023-08-30T00:00	21397	46	-54.7	-83.9	86	4
2023-08-30T00:00	21425	46	-54.8	-84.0	86	4
2023-08-30T00:00	21452	46	-54.8	-84.0	84	4
2023-08-30T00:00	21475	46	-54.7	-83.9	83	4
2023-08-30T00:00	21494	46	-54.7	-83.9	85	4
2023-08-30T00:00	21527	45	-54.7	-83.9	89	4
2023-08-30T00:00	21546	45	-54.7	-83.9	96	3
2023-08-30T00:00	21574	45	-54.7	-83.9	102	3
2023-08-30T00:00	21596	45	-54.7	-83.9	104	3
2023-08-30T00:00	21622	45	-54.5	-83.8	103	3
2023-08-30T00:00	21657	45	-54.6	-83.9	96	3
2023-08-30T00:00	21672	44	-54.6	-84.3	87	3
2023-08-30T00:00	21696	44	-54.4	-84.2	77	3
2023-08-30T00:00	21720	44	-54.4	-84.2	69	3
2023-08-30T00:00	21741	44	-54.4	-84.2	65	4
2023-08-30T00:00	21767	44	-54.2	-84.0	64	4
2023-08-30T00:00	21796	44	-54.2	-84.0	66	5
2023-08-30T00:00	21817	43	-54.2	-84.0	70	5
2023-08-30T00:00	21839	43	-54.3	-84.1	75	5
2023-08-30T00:00	21862	43	-54.4	-83.7	81	5
2023-08-30T00:00	21885	43	-54.4	-83.7	88	6
2023-08-30T00:00	21909	43	-54.6	-83.9	94	6
2023-08-30T00:00	21928	43	-54.7	-83.9	99	6
2023-08-30T00:00	21959	42	-54.7	-83.9	105	6
2023-08-30T00:00	21973	42	-54.7	-83.9	111	6
2023-08-30T00:00	21999	42	-54.7	-83.9	118	6
2023-08-30T00:00	22020	42	-54.9	-84.1	126	6
2023-08-30T00:00	22043	42	-54.7	-84.4	134	6
2023-08-30T00:00	22065	42	-54.6	-84.3	141	6
2023-08-30T00:00	22084	42	-54.5	-84.3	145	6
2023-08-30T00:00	22103	41	-54.3	-84.1	148	7
2023-08-30T00:00	22131	41	-54.3	-84.1	149	7
2023-08-30T00:00	22152	41	-54.4	-84.2	149	7
2023-08-30T00:00	22171	41	-54.4	-84.2	147	6
2023-08-30T00:00	22195	41	-54.3	-84.1	143	6
2023-08-30T00:00	22215	41	-54.1	-84.0	138	6
2023-08-30T00:00	22239	41	-54.2	-84.0	131	6
2023-08-30T00:00	22261	40	-54.3	-84.1	126	5
2023-08-30T00:00	22280	40	-54.3	-84.1	123	5
2023-08-30T00:00	22300	40	-54.3	-84.1	125	5
2023-08-30T00:00	22324	40	-54.2	-84.0	130	5
2023-08-30T00:00	22345	40	-53.8	-83.7	137	6
2023-08-30T00:00	22370	40	-53.9	-84.3	145	6
2023-08-30T00:00	22392	40	-53.6	-84.1	152	6
2023-08-30T00:00	22412	40	-53.5	-84.0	157	7
2023-08-30T00:00	22433	39	-53.6	-84.1	161	7
2023-08-30T00:00	22459	39	-53.4	-83.9	163	6
2023-08-30T00:00	22476	39	-53.3	-83.9	163	6
2023-08-30T00:00	22504	39	-53.2	-83.8	163	6
2023-08-30T00:00	22528	39	-52.9	-83.6	161	5
2023-08-30T00:00	22555	39	-53.0	-83.6	157	5
2023-08-30T00:00	22573	39	-52.8	-83.5	154	5
2023-08-30T00:00	22597	38	-52.7	-83.4	152	4
2023-08-30T00:00	22615	38	-52.8	-83.5	150	4
2023-08-30T00:00	22646	38	-52.6	-83.3	148	4
2023-08-30T00:00	22669	38	-52.5	-83.3	146	4
2023-08-30T00:00	22691	38	-52.6	-83.3	144	4
2023-08-30T00:00	22719	38	-52.4	-83.2	142	4
2023-08-30T00:00	22738	38	-52.2	-83.1	143	4
2023-08-30T00:00	22763	37	-52.2	-83.1	147	4
2023-08-30T00:00	22790	37	-52.2	-83.1	154	4
2023-08-30T00:00	22819	37	-52.0	-82.9	162	4
2023-08-30T00:00	22840	37	-52.0	-82.9	170	4
2023-08-30T00:00	22861	37	-52.0	-82.9	176	4
2023-08-30T00:00	22888	37	-52.0	-82.9	179	3
2023-08-30T00:00	22918	37	-51.9	-83.4	175	3
2023-08-30T00:00	22933	36	-51.9	-83.4	164	2
2023-08-30T00:00	22967	36	-51.6	-83.2	146	2
2023-08-30T00:00	22985	36	-51.5	-83.1	131	3
2023-08-30T00:00	23013	36	-51.4	-83.0	126	3
2023-08-30T00:00	23039	36	-51.4	-83.0	129	3
2023-08-30T00:00	23064	36	-51.3	-82.9	136	3
2023-08-30T00:00	23091	36	-51.1	-82.8	147	3
2023-08-30T00:00	23118	35	-50.9	-82.7	158	3
2023-08-30T00:00	23145	35	-50.9	-82.7	168	3
2023-08-30T00:00	23169	35	-50.9	-82.7	177	3
2023-08-30T00:00	23193	35	-50.8	-82.6	187	2
2023-08-30T00:00	23221	35	-50.7	-82.5	199	2
2023-08-30T00:00	23241	35	-50.5		215	2
2023-08-30T00:00	23269	35	-50.6	-82.4	233	1
2023-08-30T00:00	23297	35	-50.7	-82.5	246	1
2023-08-30T00:00	23313	34	-50.8	-82.6	248	1
2023-08-30T00:00	23337	34	-50.9	-82.7	240	1
2023-08-30T00:00	23364	34	-51.1	-82.8	227	1
2023-08-30T00:00	23390	34	-51.1	-82.2	216	1
2023-08-30T00:00	23411	34	-51.2	-82.3	212	1
2023-08-30T00:00	23438	34	-51.4	-82.5	219	1
2023-08-30T00:00	23459	34	-51.4	-82.5	237	1
2023-08-30T00:00	23488	34	-51.5	-82.5	257	1
2023-08-30T00:00	23511	33	-51.6	-82.6	266	1
2023-08-30T00:00	23529	33	-51.7	-82.7	270	1
2023-08-30T00:00	23557	33	-51.8	-82.8	278	1
2023-08-30T00:00	23581	33	-51.9	-82.8	293	1
2023-08-30T00:00	23607	33	-52.0	-82.9	307	1
2023-08-30T00:00	23631	33	-52.0	-82.9	317	2
2023-08-30T00:00	23654	33	-52.1	-83.0	322	2
2023-08-30T00:00	23676	33	-52.1	-83.0	325	2
2023-08-30T00:00	23704	32	-52.1	-83.0	327	2
2023-08-30T00:00	23729	32	-52.2	-83.1	331	2
2023-08-30T00:00	23754	32	-52.3	-83.1	337	2
2023-08-30T00:00	23782	32	-52.4	-83.2	347	2
2023-08-30T00:00	23810	32	-52.3	-83.1	1	2
2023-08-30T00:00	23828	32	-52.4	-83.2	14	2
2023-08-30T00:00	23856	32	-52.4	-83.2	24	3
2023-08-30T00:00	23877	32	-52.4	-83.2	30	3
2023-08-30T00:00	23906	31	-52.4	-83.2	33	4
2023-08-30T00:00	23929	31	-52.5	-83.3	35	4
2023-08-30T00:00	23959	31	-52.6	-83.3	38	4
2023-08-30T00:00	23980	31	-52.8	-83.5	41	4
2023-08-30T00:00	24002	31	-52.8	-83.5	45	5
2023-08-30T00:00	24030	31	-52.8	-83.5	50	5
2023-08-30T00:00	24056	31	-53.0	-83.6	55	4
2023-08-30T00:00	24085	31	-53.2	-83.8	60	4
2023-08-30T00:00	24104	30	-53.3	-83.9	66	4
2023-08-30T00:00	24130	30	-53.3	-83.9	72	3
2023-08-30T00:00	24155	30	-53.3	-83.9	78	3
2023-08-30T00:00	24176	30	-53.1	-83.7	82	3
2023-08-30T00:00	24200	30	-53.1	-83.7	85	4
2023-08-30T00:00	24221	30	-53.0	-83.6	87	4
2023-08-30T00:00	24247	30	-52.8	-83.5	90	4
2023-08-30T00:00	24277	30	-52.8	-83.5	94	4
2023-08-30T00:00	24296	30	-52.6	-83.3	99	4
2023-08-30T00:00	24326	29	-52.5	-83.3	104	4
2023-08-30T00:00	24342	29	-52.6	-83.9	109	4
2023-08-30T00:00	24374	29	-52.5	-83.8	114	4
2023-08-30T00:00	24398	29	-52.4	-83.8	119	4
2023-08-30T00:00	24417	29	-52.1	-83.5	123	3
2023-08-30T00:00	24444	29	-52.1	-83.5	129	3
2023-08-30T00:00	24467	29	-52.0	-83.5	137	2
2023-08-30T00:00	24495	29	-51.9	-83.4	147	2
2023-08-30T00:00	24517	29	-51.8	-83.3	160	1
2023-08-30T00:00	24537	28	-51.7	-83.2	170	1
2023-08-30T00:00	24558	28	-51.7	-83.2	174	1
2023-08-30T00:00	24576	28	-51.7	-83.2	170	1
2023-08-30T00:00	24602	28	-51.6	-83.2	155	1
2023-08-30T00:00	24621	28	-51.6	-83.2	135	1
2023-08-30T00:00	24641	28	-51.6	-83.2	123	1
2023-08-30T00:00	24666	28	-51.6	-83.2	120	2
2023-08-30T00:00	24694	28	-51.5	-83.1	121	3
2023-08-30T00:00	24715	28	-51.5	-83.1	122	3
2023-08-30T00:00	24735	28	-51.5	-83.1	124	4
2023-08-30T00:00	24756	28	-51.4	-83.0	126	4
2023-08-30T00:00	24791	27	-51.3	-82.9	129	4
2023-08-30T00:00	24800	27	-51.3	-82.9	133	4
2023-08-30T00:00	24821	27	-51.1	-83.4	139	3
2023-08-30T00:00	24842	27	-50.8	-83.2	146	3
2023-08-30T00:00	24867	27	-50.3	-82.8	153	3
2023-08-30T00:00	24884	27	-50.2	-82.8	157	4
2023-08-30T00:00	24911	27	-50.1	-82.7	158	4
2023-08-30T00:00	24929	27	-50.1	-82.7	158	4
2023-08-30T00:00	24951	27	-50.0	-82.6	158	4
2023-08-30T00:00	24970	27	-49.8	-82.5	159	5
2023-08-30T00:00	24997	27	-49.6	-82.3	160	5
2023-08-30T00:00	25016	26	-49.4	-82.2	162	5
2023-08-30T00:00	25048	26	-49.3	-82.1	164	5
2023-08-30T00:00	25062	26	-49.4	-82.2	165	5
2023-08-30T00:00	25089	26	-49.3	-82.1	167	5
2023-08-30T00:00	25105	26	-49.2	-82.0	168	5
2023-08-30T00:00	25137	26	-49.0	-81.9	169	5
2023-08-30T00:00	25159	26	-48.9	-81.8	169	5
2023-08-30T00:00	25182	26	-48.9	-81.8	167	5
2023-08-30T00:00	25204	26	-48.8	-81.7	164	5
2023-08-30T00:00	25239	26	-48.4	-82.2	160	5
2023-08-30T00:00	25258	26	-48.3	-82.1	154	5
2023-08-30T00:00	25272	25	-48.3	-82.1	150	5
2023-08-30T00:00	25300	25	-48.2	-82.0	147	5
2023-08-30T00:00	25322	25	-48.0	-81.9	147	5
2023-08-30T00:00	25349	25	-47.9	-81.8	149	6
2023-08-30T00:00	25375	25	-47.8	-81.7	152	6
2023-08-30T00:00	25400	25	-47.8	-81.7	154	7
2023-08-30T00:00	25426	25	-47.7	-81.6	156	7
2023-08-30T00:00	25445	25	-47.8	-81.7	157	7
2023-08-30T00:00	25470	25	-47.6	-81.6	158	8
2023-08-30T00:00	25491	25	-47.5	-81.5	159	8
2023-08-30T00:00	25515	25	-47.4	-81.4	160	8
2023-08-30T00:00	25549	24	-47.3	-81.4	162	7
2023-08-30T00:00	25563	24	-47.2	-81.3	165	7
2023-08-30T00:00	25590	24	-47.2	-81.3	169	7
2023-08-30T00:00	25616	24	-47.2	-81.3	172	6
2023-08-30T00:00	25640	24	-47.2	-81.3	175	6
2023-08-30T00:00	25665	24	-47.2	-81.3	179	6
2023-08-30T00:00	25691	24	-47.0	-81.1	183	6
2023-08-30T00:00	25712	24	-46.9	-81.1	188	6
2023-08-30T00:00	25737	24	-46.8	-81.0	193	6
2023-08-30T00:00	25763	24	-46.7	-80.9	199	6
2023-08-30T00:00	25784	24	-46.6	-80.9	204	5
2023-08-30T00:00	25803	23	-46.7	-80.9	207	5
2023-08-30T00:00	25824	23	-46.8	-81.0	207	4
2023-08-30T00:00	25853	23	-46.8	-81.0	205	4
2023-08-30T00:00	25883	23	-46.7	-80.9	200	3
2023-08-30T00:00	25908	23	-46.7	-80.9	188	2
2023-08-30T00:00	25925	23	-46.8	-81.0	169	2
2023-08-30T00:00	25948	23	-46.8	-81.0	148	2
2023-08-30T00:00	25966	23	-46.7	-80.9	135	2
2023-08-30T00:00	25995	23	-46.7	-80.9	130	2
2023-08-30T00:00	26018	23	-46.8	-81.0	130	2
2023-08-30T00:00	26032	23	-46.8	-81.0	130	2
2023-08-30T00:00	26061	23	-46.9	-81.1	128	2
2023-08-30T00:00	26090	23	-46.6	-80.9	125	2
2023-08-30T00:00	26104	22	-46.5	-80.8	122	3
2023-08-30T00:00	26134	22	-46.6	-80.9	121	3
2023-08-30T00:00	26161	22	-46.6	-80.9	122	3
2023-08-30T00:00	26175	22	-46.6	-80.9	125	3
2023-08-30T00:00	26211	22	-46.6	-80.9	129	3
2023-08-30T00:00	26220	22	-46.6	-80.9	134	3
2023-08-30T00:00	26261	22	-46.7	-80.9	140	3
2023-08-30T00:00	26273	22	-46.8	-81.0	144	3
2023-08-30T00:00	26301	22	-46.9	-81.1	148	4
2023-08-30T00:00	26322	22	-46.9	-81.1	150	4
2023-08-30T00:00	26349	22	-46.8	-81.0	150	4
2023-08-30T00:00	26373	22	-46.7	-80.9	150	4
2023-08-30T00:00	26403	21	-46.6	-80.9	148	5
2023-08-30T00:00	26424	21	-46.7	-80.9	145	5
2023-08-30T00:00	26451	21	-46.6	-80.9	142	5
2023-08-30T00:00	26477	21	-46.6	-80.9	139	5
2023-08-30T00:00	26496	21	-46.6	-80.9	137	5
2023-08-30T00:00	26521	21	-46.5	-80.8	136	5
2023-08-30T00:00	26545	21	-46.4	-80.7	138	5
2023-08-30T00:00	26574	21	-46.4	-80.7	140	5
2023-08-30T00:00	26614	21	-46.4	-80.7	144	5
2023-08-30T00:00	26630	21	-46.5	-80.8	147	6
2023-08-30T00:00	26659	21	-46.4	-80.7	150	6
2023-08-30T00:00	26692	21	-46.3	-80.6	152	7
2023-08-30T00:00	26710	20	-46.2	-80.6	154	7
2023-08-30T00:00	26740	20	-46.3	-80.6	157	8
2023-08-30T00:00	26774	20	-46.1	-81.3	160	8
2023-08-30T00:00	26790	20	-46.1	-81.3	165	7
2023-08-30T00:00	26822	20	-45.9	-81.2	169	7
2023-08-30T00:00	26855	20	-45.7	-81.0	174	7
2023-08-30T00:00	26875	20	-45.7	-81.0	178	6
2023-08-30T00:00	26902	20	-45.5	-80.9	181	6
2023-08-30T00:00	26919	20	-45.5	-80.9	183	6
2023-08-30T00:00	26947	20	-45.5	-80.9	184	6
2023-08-30T00:00	26974	20	-45.3	-80.7	184	6
2023-08-30T00:00	26992	20	-45.3	-80.7	184	7
2023-08-30T00:00	27026	20	-45.2	-80.7	183	7
2023-08-30T00:00	27047	19	-45.1	-80.6	181	7
2023-08-30T00:00	27077	19	-45.0	-80.5	178	7
2023-08-30T00:00	27101	19	-44.9	-80.4	174	7
2023-08-30T00:00	27131	19	-44.7	-80.3	170	7
2023-08-30T00:00	27150	19	-44.7	-80.3	166	7
2023-08-30T00:00	27176	19	-44.8	-80.4	162	7
2023-08-30T00:00	27191	19	-44.8	-80.4	159	7
2023-08-30T00:00	27209	19	-44.7	-80.3	158	7
2023-08-30T00:00	27236	19	-44.6	-80.2	157	7
2023-08-30T00:00	27254	19	-44.4	-80.1	158	7
2023-08-30T00:00	27279	19	-44.4	-80.1	160	7
2023-08-30T00:00	27303	19	-44.3	-80.0	163	7
2023-08-30T00:00	27327	19	-44.3	-80.0	166	7
2023-08-30T00:00	27351	19	-44.4	-80.1	170	7
2023-08-30T00:00	27369	19	-44.4	-80.1	173	7
2023-08-30T00:00	27389	18	-44.3	-80.0	176	7
2023-08-30T00:00	27430	18	-44.0	-79.8	177	8
2023-08-30T00:00	27445	18	-44.0	-79.8	177	8
2023-08-30T00:00	27475	18	-43.9	-79.7	175	8
2023-08-30T00:00	27500	18	-43.8	-79.6	174	9
2023-08-30T00:00	27513	18	-43.7	-79.6	172	9
2023-08-30T00:00	27542	18	-43.8	-79.6	170	9
2023-08-30T00:00	27574	18	-43.7	-79.6	167	8
2023-08-30T00:00	27600	18	-43.7	-79.6	165	8
2023-08-30T00:00	27617	18	-43.8	-79.6	163	8
2023-08-30T00:00	27632	18	-43.7	-79.6	161	7
2023-08-30T00:00	27651	18	-43.8	-79.6	162	7
2023-08-30T00:00	27683	18	-43.8	-80.6	165	7
2023-08-30T00:00	27703	18	-43.8	-80.6	170	7
2023-08-30T00:00	27747	18	-43.2	-80.2	176	7
2023-08-30T00:00	27748	18	-43.2	-80.2	181	6
2023-08-30T00:00	27778	17	-43.0	-80.0	186	6
2023-08-30T00:00	27803	17	-43.0	-80.0	190	5
2023-08-30T00:00	27825	17	-43.1	-80.1	195	4
2023-08-30T00:00	27855	17	-43.1	-80.1	200	4
2023-08-30T00:00	27872	17	-43.0	-80.0	208	3
2023-08-30T00:00	27890	17	-42.9	-80.0	217	3
2023-08-30T00:00	27909	17	-42.6	-79.7	225	3
2023-08-30T00:00	27939	17	-42.3	-79.5	229	3
2023-08-30T00:00	27973	17	-42.3	-79.5	232	4
2023-08-30T00:00	27978	17	-42.4	-79.6	233	4
2023-08-30T00:00	28014	17	-42.6	-79.7	233	5
2023-08-30T00:00	28035	17	-42.8	-79.9	233	6
2023-08-30T00:00	28056	17	-43.0	-80.0	233	6
2023-08-30T00:00	28086	17	-43.1		234	7
2023-08-30T00:00	28113	17	-43.3	-79.3	236	8
2023-08-30T00:00	28123	17	-43.5	-79.4	239	8
2023-08-30T00:00	28171	17	-43.6	-79.5	244	9
2023-08-30T00:00	28187	16	-43.8	-80.6	249	10
2023-08-30T00:00	28205	16	-43.8	-80.6	254	10
2023-08-30T00:00	28226	16	-43.2	-80.2	259	10
2023-08-30T00:00	28262	16	-43.0	-80.0	263	10
2023-08-30T00:00	28296	16	-42.9	-80.0	266	10
2023-08-30T00:00	28318	16	-42.7	-79.8	269	9
2023-08-30T00:00	28349	16	-42.8	-79.9	271	9
2023-08-30T00:00	28399	16	-43.0	-80.0	273	9
2023-08-30T00:00	28409	16	-43.0	-79.1	274	8
2023-08-30T00:00	28430	16	-43.2	-79.2	274	8
2023-08-30T00:00	28463	16	-43.2	-79.2	274	8
2023-08-30T00:00	28477	16	-43.3	-79.3	274	8
2023-08-30T00:00	28514	16	-43.4	-79.4	275	8
2023-08-30T00:00	28543	16	-43.4	-79.4	276	8
2023-08-30T00:00	28567	16	-43.3	-79.3	278	8
2023-08-30T00:00	28588	15	-43.4	-79.4	280	8
2023-08-30T00:00	28625	15	-43.4	-79.4	282	8
2023-08-30T00:00	28662	15	-43.5	-79.4	283	8
2023-08-30T00:00	28679	15	-43.4	-79.4	285	8
2023-08-30T00:00	28711	15	-43.4	-79.4	287	8
2023-08-30T00:00	28738	15	-43.5	-79.4	290	8
2023-08-30T00:00	28759	15	-43.7	-79.6	293	7
2023-08-30T00:00	28788	15	-43.7	-79.6	297	7
2023-08-30T00:00	28826	15	-43.8	-79.6	302	7
2023-08-30T00:00	28850	15	-43.9	-79.7	307	7
2023-08-30T00:00	28876	15	-44.0	-79.8	312	7
2023-08-30T00:00	28914	15	-43.8	-79.6	316	7
2023-08-30T00:00	28921	15	-43.8	-79.6	320	6
2023-08-30T00:00	28956	15	-43.7	-79.6	324	6
2023-08-30T00:00	28980	15	-43.7	-80.5	327	5
2023-08-30T00:00	28995	15	-43.6	-80.4	329	5
2023-08-30T00:00	29027	15	-43.6	-80.4	331	4
2023-08-30T00:00	29054	14	-43.7	-80.5	333	4
2023-08-30T00:00	29086	14	-43.5	-80.4	335	4
2023-08-30T00:00	29128	14	-43.4	-80.3	337	4
2023-08-30T00:00	29135	14	-43.2	-80.2	340	4
2023-08-30T00:00	29174	14	-43.1	-80.1	343	4
2023-08-30T00:00	29200	14	-43.0	-80.0	347	4
2023-08-30T00:00	29218	14	-42.8	-79.9	352	4
2023-08-30T00:00	29263	14	-42.8	-79.9	358	4
2023-08-30T00:00	29276	14	-42.4	-80.7	3	4
2023-08-30T00:00	29306	14	-42.0	-80.4	9	4
2023-08-30T00:00	29323	14	-41.9	-80.4	13	4
2023-08-30T00:00	29348	14	-41.7	-80.2	17	3
2023-08-30T00:00	29368	14	-41.8	-80.3	22	3
2023-08-30T00:00	29393	14	-41.9	-79.2	31	3
2023-08-30T00:00	29413	14	-41.9	-79.2	44	2
2023-08-30T00:00	29453	14	-42.0	-79.3	61	2
2023-08-30T00:00	29466	14	-42.0	-79.3	76	3
2023-08-30T00:00	29493	14	-42.1	-79.4	88	3
2023-08-30T00:00	29535	13	-42.3	-79.5	97	3
2023-08-30T00:00	29547	13	-42.4	-79.6	103	4
2023-08-30T00:00	29565	13	-42.6	-79.7	107	4
2023-08-30T00:00	29587	13	-42.8	-79.9	110	5
2023-08-30T00:00	29632	13	-43.0	-80.0	114	6
2023-08-30T00:00	29649	13	-43.1	-80.1	119	6
2023-08-30T00:00	29675	13	-43.2	-80.2	124	6
2023-08-30T00:00	29690	13	-43.0	-80.0	131	7
2023-08-30T00:00	29721	13	-42.8	-79.9	138	7
2023-08-30T00:00	29749	13	-42.8	-79.9	144	7
2023-08-30T00:00	29768	13	-42.8	-79.9	151	6
2023-08-30T00:00	29806	13	-42.8	-79.9	157	6
2023-08-30T00:00	29821	13	-42.8	-79.9	164	5
2023-08-30T00:00	29846	13	-42.8	-79.9	172	5
2023-08-30T00:00	29858	13	-42.7	-79.8	180	4
2023-08-30T00:00	29882	13	-42.4	-79.6	190	4
2023-08-30T00:00	29917	13	-42.3	-80.6	200	4
2023-08-30T00:00	29938	13	-42.3	-80.6	209	3
2023-08-30T00:00	29948	13	-42.2	-80.6	218	3
2023-08-30T00:00	29979	13	-42.0	-80.4	225	3
2023-08-30T00:00	29990	13	-41.9	-80.4	234	3
2023-08-30T00:00	30026	13	-41.8	-80.3	244	3
2023-08-30T00:00	30044	12	-41.7	-80.2	256	3
2023-08-30T00:00	30071	12	-41.4	-80.0	267	3
2023-08-30T00:00	30099	12	-41.3	-79.9	275	3
2023-08-30T00:00	30116	12	-41.3	-79.9	279	3
2023-08-30T00:00	30149	12	-41.3	-79.9	280	2
2023-08-30T00:00	30173	12	-41.2	-79.9	276	2
2023-08-30T00:00	30183	12	-41.1	-79.8	270	2
2023-08-30T00:00	30228	12	-40.8	-79.6	262	1
2023-08-30T00:00	30235	12	-40.7	-79.5	252	1
2023-08-30T00:00	30273	12	-40.7	-79.5	241	1
2023-08-30T00:00	30286	12	-40.7	-79.5	230	1
2023-08-30T00:00	30318	12	-40.7	-79.5	224	1
2023-08-30T00:00	30336	12	-40.6	-79.5	220	1
2023-08-30T00:00	30367	12	-40.5	-79.4	218	1
2023-08-30T00:00	30380	12	-40.4	-79.3	214	2
2023-08-30T00:00	30407	12	-40.3	-79.2	208	2
2023-08-30T00:00	30423	12	-40.2	-79.2	202	2
2023-08-30T00:00	30453	12	-40.2	-78.0	192	2
2023-08-30T00:00	30474	12	-40.5	-78.3	178	1
2023-08-30T00:00	30503	12	-40.2	-78.0	156	1
2023-08-30T00:00	30522	12	-40.1	-79.1	132	1
2023-08-30T00:00	30556	12	-39.8	-78.9	120	2
2023-08-30T00:00	30579	12	-39.7	-78.8	118	2
2023-08-30T00:00	30605	12	-39.6	-78.8	122	2
2023-08-30T00:00	30640	11	-39.5	-78.7	129	3
2023-08-30T00:00	30662	11	-39.4	-78.6	137	3
2023-08-30T00:00	30690	11	-39.3	-78.5	144	4
2023-08-30T00:00	30716	11	-39.2	-78.5	151	4
2023-08-30T00:00	30752	11	-39.4	-78.6	156	5
2023-08-30T00:00	30766	11	-39.5	-78.7	160	6
2023-08-30T00:00	30819	11	-39.7	-78.8	164	6
2023-08-30T00:00	30827	11	-39.8	-78.9	167	7
2023-08-30T00:00	30851	11	-40.0	-79.0	170	7
2023-08-30T00:00	30886	11	-40.1	-78.0	173	8
2023-08-30T00:00	30920	11	-40.2	-78.0	176	8
2023-08-30T00:00	30932	11	-40.4	-78.2	178	7
2023-08-30T00:00	30952	11	-40.3	-78.1	181	7
2023-08-30T00:00	30976	11	-40.2	-78.0	183	6
2023-08-30T00:00	31016	11	-40.3	-79.2	186	5
2023-08-30T00:00	31019	11	-40.3	-79.2	191	5
2023-08-30T00:00	31059	11	-40.4	-79.3	197	4
2023-08-30T00:00	31076	11	-40.5	-79.4	205	4
2023-08-30T00:00	31088	11	-40.6	-79.5	214	3
2023-08-30T00:00	31126	11	-40.5	-79.4	220	3
2023-08-30T00:00	31136	11	-40.6	-79.5	223	3
2023-08-30T00:00	31174	11	-40.5	-79.4	220	3
2023-08-30T00:00	31203	11	-40.3	-79.2	212	3
2023-08-30T00:00	31221	11	-40.3	-79.2	200	2
2023-08-30T00:00	31249	10	-40.3	-79.2	187	2
2023-08-30T00:00	31277	10	-40.2	-79.2	179	2
2023-08-30T00:00	31296	10	-40.1	-79.1	176	3
2023-08-30T00:00	31332	10	-40.0	-79.0	177	3
2023-08-30T00:00	31359	10	-40.0	-79.0	177	3
2023-08-30T00:00	31363	10	-39.9	-79.0	175	4
2023-08-30T00:00	31384	10	-39.8	-78.9	171	4
2023-08-30T00:00	31410	10	-39.7	-78.8	165	4
2023-08-30T00:00	31436	10	-39.7	-78.8	159	5
2023-08-30T00:00	31450	10	-39.6	-78.8	154	5
2023-08-30T00:00	31498	10	-39.6	-78.8	150	6
2023-08-30T00:00	31507	10	-39.7	-78.8	148	6
2023-08-30T00:00	31537	10	-39.7	-78.8	147	7
2023-08-30T00:00	31555	10	-39.8	-78.9	145	7
2023-08-30T00:00	31576	10	-39.8	-78.9	145	8
2023-08-30T00:00	31588	10	-39.9	-79.0	145	8
2023-08-30T00:00	31644	10	-39.8	-78.9	146	8
2023-08-30T00:00	31665	10	-39.5	-78.7	149	9
2023-08-30T00:00	31695	10	-39.4	-78.6	153	9
2023-08-30T00:00	31719	10	-39.0	-78.3	164	9
2023-08-30T00:00	31755	10	-39.0	-78.3	169	9
2023-08-30T00:00	31780	10	-39.0	-78.3	174	10
2023-08-30T00:00	31796	10	-39.1	-78.4	177	10
2023-08-30T00:00	31837	10	-39.2	-78.5	180	10
2023-08-30T00:00	31856	10	-39.2	-78.5	182	9
2023-08-30T00:00	31880	10	-39.4	-78.6	184	9
2023-08-30T00:00	31926	10	-39.3	-78.5	184	8
2023-08-30T00:00	31950	9	-39.0	-78.3	184	7
2023-08-30T00:00	31987	9	-38.8	-78.2	180	6
2023-08-30T00:00	32023	9	-38.6	-78.1	176	5
2023-08-30T00:00	32057	9	-38.7	-78.1	157	4
2023-08-30T00:00	32085	9	-38.7	-78.1	145	4
2023-08-30T00:00	32113	9	-38.7	-78.1	135	4
2023-08-30T00:00	32155	9	-38.7	-78.1	128	5
2023-08-30T00:00	32164	9	-38.7	-78.1	125	5
2023-08-30T00:00	32189	9	-38.8	-78.2	124	6
2023-08-30T00:00	32243	9	-38.7	-78.1	125	7
2023-08-30T00:00	32253	9	-38.7	-78.1	127	7
2023-08-30T00:00	32282	9	-38.8	-78.2	129	7
2023-08-30T00:00	32302	9	-38.7	-78.1	131	7
2023-08-30T06:00	115	994	13.5	13.5	287	3
2023-08-30T06:00	144	991	13.2	13.2	284	4
2023-08-30T06:00	165	988	13.0	12.8	284	4
2023-08-30T06:00	192	985	12.8	12.7	285	5
2023-08-30T06:00	212	983	12.7	12.4	286	5
2023-08-30T06:00	240	980	12.5	12.3	288	6
2023-08-30T06:00	259	977	12.5	12.2	291	6
2023-08-30T06:00	283	975	12.4	12.0	294	6
2023-08-30T06:00	307	972	12.3	11.5	297	6
2023-08-30T06:00	329	969	12.5	11.0	300	6
2023-08-30T06:00	354	966	12.4	10.6	303	6
2023-08-30T06:00	375	964	12.5	9.9	306	6
2023-08-30T06:00	398	961	12.4	9.9	307	7
2023-08-30T06:00	419	959	12.3	9.6	308	7
2023-08-30T06:00	438	957	12.2	9.9	308	7
2023-08-30T06:00	461	954	12.0	9.7	309	7
2023-08-30T06:00	483	952	11.9	10.2	311	7
2023-08-30T06:00	507	949	11.8	10.4	313	7
2023-08-30T06:00	529	946	11.6	10.6	316	7
2023-08-30T06:00	551	944	11.4	10.7	317	8
2023-08-30T06:00	574	941	11.2	10.8	319	8
2023-08-30T06:00	596	939	11.1	10.5	320	9
2023-08-30T06:00	613	937	11.0	10.3	321	9
2023-08-30T06:00	636	934	10.9	10.1	322	9
2023-08-30T06:00	660	932	10.6	9.8	324	9
2023-08-30T06:00	686	929	10.5	9.7	325	8
2023-08-30T06:00	707	927	10.4	9.5	325	8
2023-08-30T06:00	726	924	10.3	8.3	325	8
2023-08-30T06:00	745	922	10.3	8.2	324	7
2023-08-30T06:00	763	920	10.1	8.0	323	7
2023-08-30T06:00	783	918	10.0	8.1	323	7
2023-08-30T06:00	804	916	9.8	8.0	324	7
2023-08-30T06:00	823	913	9.6	8.2	326	7
2023-08-30T06:00	853	911	9.4	8.3	329	8
2023-08-30T06:00	877	908	9.2	8.3	331	7
2023-08-30T06:00	898	906	9.1	8.3	333	7
2023-08-30T06:00	918	903	8.9	7.9	335	7
2023-08-30T06:00	939	901	8.8	7.7	336	7
2023-08-30T06:00	967	898	8.5	7.3	338	7
2023-08-30T06:00	990	896	8.3	7.2	339	7
2023-08-30T06:00	1011	893	8.1	7.2	341	7
2023-08-30T06:00	1031	891	8.0	7.2	343	6
2023-08-30T06:00	1055	889	7.8	7.0	345	6
2023-08-30T06:00	1077	886	7.7	7.2	346	6
2023-08-30T06:00	1107	883	7.5	7.4	346	6
2023-08-30T06:00	1133	880	7.2	7.0	346	6
2023-08-30T06:00	1157	877	7.2	7.1	346	6
2023-08-30T06:00	1186	875	7.0	6.8	346	6
2023-08-30T06:00	1213	872	6.9	6.6	348	6
2023-08-30T06:00	1240	869	6.7	6.4	350	6
2023-08-30T06:00	1264	866	6.5	6.4	352	7
2023-08-30T06:00	1286	864	6.3	6.2	353	7
2023-08-30T06:00	1309	861	6.1	6.1	353	7
2023-08-30T06:00	1332	859	6.0	5.9	352	6
2023-08-30T06:00	1356	857	5.9	5.8	351	6
2023-08-30T06:00	1380	854	5.8	5.5	351	6
2023-08-30T06:00	1405	851	5.7	5.5	351	6
2023-08-30T06:00	1433	849	5.4	5.3	352	6
2023-08-30T06:00	1459	846	5.2	5.2	353	6
2023-08-30T06:00	1480	844	5.1	5.1	355	6
2023-08-30T06:00	1506	841	4.9	4.8	357	6
2023-08-30T06:00	1530	838	4.7	4.7	359	7
2023-08-30T06:00	1556	836	4.5	4.5	0	7
2023-08-30T06:00	1576	834	4.4	4.3	1	7
2023-08-30T06:00	1600	831	4.2	3.8	2	7
2023-08-30T06:00	1626	829	4.2	3.7	2	7
2023-08-30T06:00	1651	826	4.0	4.0	2	7
2023-08-30T06:00	1675	824	3.9	3.8	2	7
2023-08-30T06:00	1703	821	4.0	3.2	1	7
2023-08-30T06:00	1736	818	4.2	2.7	0	6
2023-08-30T06:00	1759	815	4.3	2.8	358	6
2023-08-30T06:00	1782	813	4.1	3.2	355	6
2023-08-30T06:00	1807	811	4.1	3.2	351	6
2023-08-30T06:00	1828	808	3.9	3.2	346	6
2023-08-30T06:00	1850	806	3.8	3.5	340	7
2023-08-30T06:00	1875	804	3.6	3.6	335	7
2023-08-30T06:00	1897	802	3.8	3.8	331	7
2023-08-30T06:00	1923	799	3.7	3.7	329	7
2023-08-30T06:00	1949	797	3.7	3.7	330	6
2023-08-30T06:00	1976	794	3.5	3.5	332	6
2023-08-30T06:00	2000	791	3.4	3.4	335	5
2023-08-30T06:00	2030	789	3.3	3.3	339	5
2023-08-30T06:00	2062	786	3.1	3.1	342	5
2023-08-30T06:00	2085	783	3.0	3.0	343	5
2023-08-30T06:00	2106	781	2.9	2.9	343	5
2023-08-30T06:00	2132	779	2.7	2.7	342	5
2023-08-30T06:00	2155	776	2.6	2.6	339	5
2023-08-30T06:00	2181	774	2.5	2.5	336	5
2023-08-30T06:00	2206	772	2.4	2.4	334	5
2023-08-30T06:00	2225	770	2.3	2.3	333	5
2023-08-30T06:00	2249	768	2.2	2.1	333	5
2023-08-30T06:00	2274	765	2.1	1.9	335	5
2023-08-30T06:00	2299	763	2.0	2.0	338	4
2023-08-30T06:00	2324	760	1.9	1.9	342	4
2023-08-30T06:00	2349	758	1.8	1.8	346	4
2023-08-30T06:00	2373	756	1.8	1.8	350	3
2023-08-30T06:00	2395	754	1.7	1.4	351	4
2023-08-30T06:00	2419	752	1.6	1.0	350	4
2023-08-30T06:00	2441	749	1.5	0.9	347	4
2023-08-30T06:00	2466	747	1.3	0.7	342	4
2023-08-30T06:00	2493	745	1.1	0.5	338	4
2023-08-30T06:00	2512	743	1.0	0.4	336	4
2023-08-30T06:00	2536	741	1.0	0.1	336	4
2023-08-30T06:00	2559	739	0.9	-0.1	338	4
2023-08-30T06:00	2585	736	0.8	-0.1	340	3
2023-08-30T06:00	2607	734	0.7	-0.3	341	3
2023-08-30T06:00	2629	732	0.7	-0.4	340	2
2023-08-30T06:00	2652	730	0.7	-0.2	336	2
2023-08-30T06:00	2677	728	0.6	-0.1	329	2
2023-08-30T06:00	2701	726	0.4	-0.4	324	2
2023-08-30T06:00	2724	724	0.2	-0.4	322	1
2023-08-30T06:00	2744	722	0.1	-0.4	323	1
2023-08-30T06:00	2770	720	-0.1	-0.6	325	1
2023-08-30T06:00	2793	717	-0.3	-0.7	326	1
2023-08-30T06:00	2814	715	-0.4	-0.8	325	1
2023-08-30T06:00	2841	713	-0.6	-0.8	324	1
2023-08-30T06:00	2868	711	-0.9	-1.0	325	1
2023-08-30T06:00	2897	708	-1.1	-1.1	329	1
2023-08-30T06:00	2921	706	-1.2	-1.2	337	2
2023-08-30T06:00	2942	704	-1.4	-1.4	346	2
2023-08-30T06:00	2971	702	-1.5	-1.5	356	2
2023-08-30T06:00	2996	699	-1.7	-1.7	4	2
2023-08-30T06:00	3016	698	-1.9	-1.9	10	2
2023-08-30T06:00	3041	696	-1.9	-1.9	16	2
2023-08-30T06:00	3063	694	-2.1	-2.1	24	2
2023-08-30T06:00	3089	691	-2.2	-2.2	35	1
2023-08-30T06:00	3114	689	-2.4	-2.4	51	1
2023-08-30T06:00	3136	687	-2.4	-2.4	69	1
2023-08-30T06:00	3160	685	-2.5	-2.5	86	1
2023-08-30T06:00	3183	683	-2.7	-2.7	101	2
2023-08-30T06:00	3209	681	-2.8	-2.8	120	2
2023-08-30T06:00	3235	679	-2.9	-2.9	140	2
2023-08-30T06:00	3263	677	-2.5	-2.5	156	2
2023-08-30T06:00	3284	675	-2.1	-2.1	167	3
2023-08-30T06:00	3304	673	-1.9	-1.9	173	3
2023-08-30T06:00	3326	671	-2.0	-2.2	179	3
2023-08-30T06:00	3352	669	-1.9	-2.4	185	3
2023-08-30T06:00	3369	667	-1.8	-2.9	193	3
2023-08-30T06:00	3394	665	-1.8	-3.0	205	3
2023-08-30T06:00	3417	663	-1.9	-3.2	217	3
2023-08-30T06:00	3435	662	-2.0	-3.3	226	3
2023-08-30T06:00	3462	660	-2.1	-3.5	230	3
2023-08-30T06:00	3485	658	-2.2	-3.9	231	4
2023-08-30T06:00	3502	656	-2.3	-4.0	231	4
2023-08-30T06:00	3526	654	-2.3	-3.9	230	3
2023-08-30T06:00	3549	653	-2.3	-4.0	228	3
2023-08-30T06:00	3571	651	-2.4	-4.5	223	3
2023-08-30T06:00	3592	649	-2.5	-4.5	216	2
2023-08-30T06:00	3617	647	-2.6	-4.5	207	2
2023-08-30T06:00	3640	645	-2.8	-4.8	201	2
2023-08-30T06:00	3659	643	-2.9	-4.9	198	3
2023-08-30T06:00	3680	642	-3.0	-5.0	196	3
2023-08-30T06:00	3707	640	-3.0	-5.1	194	4
2023-08-30T06:00	3736	637	-3.1	-5.1	191	4
2023-08-30T06:00	3755	636	-3.2	-5.2	188	4
2023-08-30T06:00	3779	634	-3.2	-5.2	184	4
2023-08-30T06:00	3801	632	-3.4	-5.3	182	4
2023-08-30T06:00	3826	630	-3.6	-5.6	182	5
2023-08-30T06:00	3846	628	-3.8	-5.7	186	4
2023-08-30T06:00	3871	627	-4.0	-5.7	193	4
2023-08-30T06:00	3896	624	-4.2	-5.9	205	4
2023-08-30T06:00	3920	623	-4.3	-5.9	217	5
2023-08-30T06:00	3945	621	-4.6	-6.0	226	5
2023-08-30T06:00	3969	619	-4.7	-6.0	232	5
2023-08-30T06:00	3993	617	-4.8	-6.2	234	6
2023-08-30T06:00	4014	615	-5.0	-6.5	234	6
2023-08-30T06:00	4041	613	-5.1	-6.8	233	6
2023-08-30T06:00	4068	611	-5.3	-7.0	233	6
2023-08-30T06:00	4092	609	-5.4	-7.2	233	6
2023-08-30T06:00	4116	607	-5.6	-7.3	234	6
2023-08-30T06:00	4138	606	-5.7	-7.4	232	5
2023-08-30T06:00	4162	604	-5.9	-7.5	230	5
2023-08-30T06:00	4187	602	-6.1	-7.6	226	5
2023-08-30T06:00	4213	600	-6.2	-7.8	221	5
2023-08-30T06:00	4237	598	-6.2	-8.3	217	5
2023-08-30T06:00	4260	596	-6.1	-9.1	213	4
2023-08-30T06:00	4283	594	-6.2	-9.1	210	4
2023-08-30T06:00	4314	592	-6.5	-9.4	207	4
2023-08-30T06:00	4338	590	-6.7	-9.6	205	4
2023-08-30T06:00	4357	589	-6.7	-9.9	204	4
2023-08-30T06:00	4382	587	-6.9	-9.9	202	4
2023-08-30T06:00	4411	585	-7.2	-10.1	201	4
2023-08-30T06:00	4434	583	-7.4	-10.3	199	4
2023-08-30T06:00	4455	582	-7.6	-10.6	197	4
2023-08-30T06:00	4474	580	-7.8	-10.6	197	4
2023-08-30T06:00	4503	578	-8.0	-10.6	198	4
2023-08-30T06:00	4528	576	-8.3	-10.9	202	4
2023-08-30T06:00	4549	575	-8.5	-10.8	207	4
2023-08-30T06:00	4572	573	-8.7	-10.9	210	4
2023-08-30T06:00	4592	571	-8.9	-11.0	210	4
2023-08-30T06:00	4616	570	-9.1	-11.0	208	4
2023-08-30T06:00	4643	568	-9.4	-11.1	204	4
2023-08-30T06:00	4665	566	-9.6	-11.3	200	4
2023-08-30T06:00	4691	564	-9.8	-11.3	195	4
2023-08-30T06:00	4713	562	-10.0	-11.3	191	4
2023-08-30T06:00	4742	560	-10.3	-11.4	188	4
2023-08-30T06:00	4765	559	-10.5	-11.5	186	4
2023-08-30T06:00	4793	557	-10.8	-11.6	183	4
2023-08-30T06:00	4824	554	-11.1	-11.6	179	4
2023-08-30T06:00	4853	552	-11.3	-11.7	174	4
2023-08-30T06:00	4876	551	-11.6	-11.9	170	5
2023-08-30T06:00	4901	549	-11.8	-11.9	168	5
2023-08-30T06:00	4924	547	-12.1	-12.1	169	5
2023-08-30T06:00	4946	546	-12.2	-12.2	172	6
2023-08-30T06:00	4968	544	-12.2	-13.5	177	6
2023-08-30T06:00	4990	543	-11.5	-15.4	182	6
2023-08-30T06:00	5015	541	-11.3	-17.1	186	6
2023-08-30T06:00	5044	539	-11.1	-18.7	189	6
2023-08-30T06:00	5073	537	-11.1	-20.0	191	6
2023-08-30T06:00	5094	535	-11.3	-20.5	193	6
2023-08-30T06:00	5117	534	-11.5	-20.7	195	6
2023-08-30T06:00	5138	532	-11.6	-20.8	197	6
2023-08-30T06:00	5157	531	-11.7	-21.2	198	6
2023-08-30T06:00	5180	529	-11.9	-21.5	199	6
2023-08-30T06:00	5206	528	-12.1	-21.7	199	6
2023-08-30T06:00	5232	526	-12.4	-21.7	200	7
2023-08-30T06:00	5261	524	-12.6	-21.9	201	7
2023-08-30T06:00	5283	522	-12.8	-22.2	202	7
2023-08-30T06:00	5310	520	-13.1	-22.4	203	7
2023-08-30T06:00	5331	519	-13.3	-22.3	204	8
2023-08-30T06:00	5351	518	-13.4	-22.9	205	8
2023-08-30T06:00	5370	516	-13.6	-23.8	205	8
2023-08-30T06:00	5388	515	-13.6	-26.0	205	8
2023-08-30T06:00	5415	513	-13.8	-26.6	204	8
2023-08-30T06:00	5439	512	-14.0	-27.3	202	8
2023-08-30T06:00	5462	510	-14.2	-27.7	199	8
2023-08-30T06:00	5483	509	-14.4	-27.7	196	8
2023-08-30T06:00	5507	507	-14.6	-27.6	194	9
2023-08-30T06:00	5533	505	-14.9	-27.8	192	9
2023-08-30T06:00	5554	504	-15.1	-27.9	190	9
2023-08-30T06:00	5572	503	-15.3	-27.9	189	9
2023-08-30T06:00	5591	501	-15.5	-28.0	188	9
2023-08-30T06:00	5614	500	-15.7	-28.2	186	8
2023-08-30T06:00	5639	498	-15.9	-28.4	184	8
2023-08-30T06:00	5668	496	-16.0	-28.7	182	7
2023-08-30T06:00	5689	495	-16.1	-28.0	181	7
2023-08-30T06:00	5715	493	-16.3	-28.1	180	7
2023-08-30T06:00	5743	491	-16.5	-28.2	178	7
2023-08-30T06:00	5765	490	-16.7	-28.1	176	8
2023-08-30T06:00	5793	488	-17.0	-28.1	173	8
2023-08-30T06:00	5817	487	-17.2	-28.2	171	9
2023-08-30T06:00	5842	485	-17.4	-28.2	167	9
2023-08-30T06:00	5871	483	-17.6	-28.3	165	9
2023-08-30T06:00	5894	482	-17.8	-28.1	163	9
2023-08-30T06:00	5920	480	-17.9	-26.8	162	9
2023-08-30T06:00	5940	479	-18.1	-25.5	163	9
2023-08-30T06:00	5963	477	-18.3	-22.8	164	9
2023-08-30T06:00	5984	476	-18.5	-22.6	165	10
2023-08-30T06:00	6005	475	-18.6	-23.2	167	9
2023-08-30T06:00	6028	473	-18.7	-20.7	167	9
2023-08-30T06:00	6056	471	-18.9	-21.3	166	9
2023-08-30T06:00	6083	470	-19.2	-21.3	165	9
2023-08-30T06:00	6107	468	-19.4	-20.7	165	9
2023-08-30T06:00	6130	467	-19.6	-20.6	165	9
2023-08-30T06:00	6154	465	-19.8	-20.4	166	9
2023-08-30T06:00	6181	463	-20.1	-20.9	167	9
2023-08-30T06:00	6212	462	-20.3	-21.1	169	9
2023-08-30T06:00	6235	460	-20.5	-21.5	170	8
2023-08-30T06:00	6261	458	-20.8	-21.3	170	8
2023-08-30T06:00	6286	457	-20.9	-22.0	171	8
2023-08-30T06:00	6314	455	-21.1	-22.8	172	8
2023-08-30T06:00	6335	454	-21.3	-22.5	173	8
2023-08-30T06:00	6361	452	-21.6	-23.3	175	9
2023-08-30T06:00	6390	451	-21.8	-23.0	176	9
2023-08-30T06:00	6415	449	-22.1	-23.3	177	9
2023-08-30T06:00	6439	447	-22.3	-22.7	176	9
2023-08-30T06:00	6462	446	-22.4	-22.4	174	9
2023-08-30T06:00	6483	445	-22.2	-22.2	172	9
2023-08-30T06:00	6507	443	-21.7	-21.8	171	9
2023-08-30T06:00	6533	442	-21.7	-22.0	170	10
2023-08-30T06:00	6559	440	-21.9	-22.3	170	10
2023-08-30T06:00	6587	439	-22.0	-22.4	171	10
2023-08-30T06:00	6612	437	-22.1	-22.5	171	11
2023-08-30T06:00	6631	436	-22.1	-22.7	172	11
2023-08-30T06:00	6651	435	-22.2	-23.0	172	11
2023-08-30T06:00	6671	434	-22.2	-23.8	172	11
2023-08-30T06:00	6692	432	-22.2	-24.2	172	11
2023-08-30T06:00	6709	431	-22.2	-24.4	172	11
2023-08-30T06:00	6731	430	-22.4	-24.3	172	11
2023-08-30T06:00	6756	429	-22.6	-24.6	171	11
2023-08-30T06:00	6786	427	-22.8	-24.8	171	11
2023-08-30T06:00	6812	425	-23.0	-24.8	171	11
2023-08-30T06:00	6843	424	-23.3	-25.4	172	11
2023-08-30T06:00	6867	422	-23.5	-25.2	173	12
2023-08-30T06:00	6896	421	-23.6	-25.2	173	12
2023-08-30T06:00	6924	419	-23.7	-26.2	174	12
2023-08-30T06:00	6955	417	-24.0	-27.1	173	13
2023-08-30T06:00	6977	416	-24.1	-27.8	173	13
2023-08-30T06:00	6997	415	-24.2	-28.1	173	14
2023-08-30T06:00	7017	414	-24.3	-28.0	173	14
2023-08-30T06:00	7037	412	-24.4	-27.9	173	14
2023-08-30T06:00	7060	411	-24.5	-27.9	172	14
2023-08-30T06:00	7084	410	-24.7	-28.1	171	14
2023-08-30T06:00	7107	408	-24.7	-28.1	169	14
2023-08-30T06:00	7132	407	-24.8	-27.8	167	14
2023-08-30T06:00	7168	405	-24.9	-28.1	165	14
2023-08-30T06:00	7190	404	-25.0	-28.7	164	14
2023-08-30T06:00	7212	403	-25.1	-28.6	164	14
2023-08-30T06:00	7240	401	-25.3	-28.7	165	14
2023-08-30T06:00	7265	400	-25.5	-29.0	166	14
2023-08-30T06:00	7294	398	-25.8	-29.2	166	14
2023-08-30T06:00	7324	397	-26.0	-29.2	167	14
2023-08-30T06:00	7342	395	-26.1	-29.4	167	15
2023-08-30T06:00	7362	394	-26.3	-29.4	167	15
2023-08-30T06:00	7381	393	-26.4	-29.5	167	15
2023-08-30T06:00	7402	392	-26.5	-30.3	168	15
2023-08-30T06:00	7422	391	-26.6	-30.6	168	15
2023-08-30T06:00	7439	390	-26.7	-30.8	169	15
2023-08-30T06:00	7460	389	-26.9	-31.2	169	15
2023-08-30T06:00	7480	388	-27.0	-31.2	170	15
2023-08-30T06:00	7499	387	-27.2	-31.4	170	15
2023-08-30T06:00	7522	386	-27.4	-31.6	171	15
2023-08-30T06:00	7542	385	-27.6	-31.6	171	15
2023-08-30T06:00	7562	384	-27.8	-31.7	171	15
2023-08-30T06:00	7584	382	-28.0	-31.8	171	16
2023-08-30T06:00	7605	381	-28.2	-32.1	171	16
2023-08-30T06:00	7629	380	-28.4	-32.4	171	16
2023-08-30T06:00	7650	379	-28.5	-32.7	171	16
2023-08-30T06:00	7673	378	-28.7	-33.3	172	16
2023-08-30T06:00	7697	376	-28.9	-33.2	173	17
2023-08-30T06:00	7721	375	-29.2	-33.3	173	17
2023-08-30T06:00	7748	374	-29.4	-33.4	174	17
2023-08-30T06:00	7773	372	-29.7	-33.5	174	17
2023-08-30T06:00	7800	371	-29.9	-33.8	173	17
2023-08-30T06:00	7824	370	-30.2	-33.8	172	17
2023-08-30T06:00	7854	368	-30.4	-33.7	172	17
2023-08-30T06:00	7881	367	-30.7	-34.2	171	17
2023-08-30T06:00	7905	366	-30.9	-34.3	172	17
2023-08-30T06:00	7927	365	-31.1	-34.2	172	17
2023-08-30T06:00	7948	363	-31.3	-34.5	172	17
2023-08-30T06:00	7974	362	-31.5	-35.1	173	16
2023-08-30T06:00	8001	361	-31.8	-35.4	172	16
2023-08-30T06:00	8025	359	-32.0	-35.5	172	16
2023-08-30T06:00	8051	358	-32.2	-35.5	171	16
2023-08-30T06:00	8078	357	-32.4	-35.9	170	16
2023-08-30T06:00	8107	355	-32.7	-36.3	170	16
2023-08-30T06:00	8134	354	-32.8	-37.4	170	15
2023-08-30T06:00	8166	352	-33.0	-37.8	170	15
2023-08-30T06:00	8192	351	-33.3	-37.8	171	15
2023-08-30T06:00	8217	350	-33.5	-38.0	173	15
2023-08-30T06:00	8244	348	-33.7	-38.1	174	15
2023-08-30T06:00	8272	347	-34.0	-38.5	174	16
2023-08-30T06:00	8299	346	-34.2	-38.7	174	16
2023-08-30T06:00	8327	344	-34.4	-38.9	174	16
2023-08-30T06:00	8355	343	-34.6	-39.4	173	17
2023-08-30T06:00	8381	342	-34.9	-39.4	172	17
2023-08-30T06:00	8404	341	-35.1	-39.4	172	17
2023-08-30T06:00	8428	339	-35.3	-39.5	172	17
2023-08-30T06:00	8452	338	-35.6	-39.5	171	17
2023-08-30T06:00	8482	337	-35.9	-39.9	172	17
2023-08-30T06:00	8507	336	-36.1	-40.2	172	17
2023-08-30T06:00	8534	334	-36.3	-40.4	173	17
2023-08-30T06:00	8560	333	-36.5	-40.5	173	17
2023-08-30T06:00	8596	331	-36.9	-40.5	174	17
2023-08-30T06:00	8619	330	-37.1	-41.2	175	17
2023-08-30T06:00	8645	329	-37.3	-41.2	175	17
2023-08-30T06:00	8676	328	-37.6	-41.1	176	17
2023-08-30T06:00	8707	326	-37.9	-41.4	178	18
2023-08-30T06:00	8734	325	-38.2	-41.4	179	18
2023-08-30T06:00	8754	324	-38.4	-41.6	180	18
2023-08-30T06:00	8776	323	-38.6	-41.5	181	19
2023-08-30T06:00	8800	322	-38.8	-41.3	181	19
2023-08-30T06:00	8825	320	-39.1	-41.7	182	19
2023-08-30T06:00	8850	319	-39.3	-42.6	182	19
2023-08-30T06:00	8872	318	-39.4	-44.8	182	19
2023-08-30T06:00	8892	317	-39.6	-44.3	183	19
2023-08-30T06:00	8914	316	-39.8	-44.6	183	19
2023-08-30T06:00	8937	315	-40.0	-44.6	182	19
2023-08-30T06:00	8964	314	-40.3	-44.9	182	20
2023-08-30T06:00	8989	313	-40.5	-45.5	181	20
2023-08-30T06:00	9013	312	-40.7	-45.4	181	20
2023-08-30T06:00	9036	311	-40.9	-45.2	181	20
2023-08-30T06:00	9057	310	-41.1	-45.6	182	20
2023-08-30T06:00	9080	309	-41.4	-45.9	182	19
2023-08-30T06:00	9101	308	-41.5	-46.5	183	19
2023-08-30T06:00	9122	307	-41.7	-46.7	183	19
2023-08-30T06:00	9146	306	-41.9	-46.8	183	19
2023-08-30T06:00	9172	305	-42.2	-47.2	183	19
2023-08-30T06:00	9199	303	-42.4	-47.5	183	19
2023-08-30T06:00	9224	302	-42.7	-47.4	182	19
2023-08-30T06:00	9250	301	-42.9	-47.4	182	18
2023-08-30T06:00	9278	300	-43.2	-47.5	181	18
2023-08-30T06:00	9306	299	-43.5	-48.2	181	18
2023-08-30T06:00	9336	297	-43.7	-48.7	182	18
2023-08-30T06:00	9364	296	-44.0	-48.9	182	19
2023-08-30T06:00	9387	295	-44.2	-49.4	183	19
2023-08-30T06:00	9410	294	-44.4	-49.5	183	19
2023-08-30T06:00	9433	293	-44.6	-49.5	182	19
2023-08-30T06:00	9458	292	-44.8	-49.9	182	19
2023-08-30T06:00	9478	291	-45.0	-50.6	182	19
2023-08-30T06:00	9501	290	-45.2	-50.9	182	19
2023-08-30T06:00	9525	289	-45.4	-51.1	182	18
2023-08-30T06:00	9548	288	-45.7	-50.9	182	18
2023-08-30T06:00	9574	287	-45.9	-51.0	181	18
2023-08-30T06:00	9594	286	-46.1	-51.2	181	18
2023-08-30T06:00	9624	285	-46.4	-51.4	181	18
2023-08-30T06:00	9649	284	-46.6	-51.4	180	18
2023-08-30T06:00	9673	283	-46.9	-50.9	180	18
2023-08-30T06:00	9697	282	-47.1	-50.9	180	18
2023-08-30T06:00	9723	281	-47.3	-51.5	179	18
2023-08-30T06:00	9746	280	-47.5	-52.9	179	18
2023-08-30T06:00	9767	279	-47.7	-53.0	179	18
2023-08-30T06:00	9788	278	-47.9	-52.8	178	18
2023-08-30T06:00	9809	277	-48.0	-52.5	178	18
2023-08-30T06:00	9827	276	-48.2	-52.2	178	18
2023-08-30T06:00	9847	275	-48.4	-52.3	178	18
2023-08-30T06:00	9871	274	-48.6	-53.0	179	18
2023-08-30T06:00	9891	273	-48.6	-54.4	180	17
2023-08-30T06:00	9909	273	-48.7	-55.2	180	17
2023-08-30T06:00	9929	272	-48.7	-55.7	181	17
2023-08-30T06:00	9948	271	-48.6	-56.1	181	16
2023-08-30T06:00	9966	270	-48.7	-56.0	181	16
2023-08-30T06:00	9985	270	-48.8	-55.5	180	16
2023-08-30T06:00	10001	269	-48.8	-55.2	178	16
2023-08-30T06:00	10019	268	-48.9	-55.0	177	16
2023-08-30T06:00	10040	267	-49.0	-54.6	175	16
2023-08-30T06:00	10057	267	-48.9	-54.5	174	16
2023-08-30T06:00	10076	266	-48.7	-55.4	172	16
2023-08-30T06:00	10096	265	-48.5	-56.9	172	15
2023-08-30T06:00	10115	264	-48.6	-57.3	171	15
2023-08-30T06:00	10135	263	-48.7	-57.0	170	15
2023-08-30T06:00	10155	263	-48.9	-57.0	169	16
2023-08-30T06:00	10180	262	-49.1	-57.3	168	16
2023-08-30T06:00	10204	261	-49.1	-57.7	167	16
2023-08-30T06:00	10226	260	-49.1	-58.1	166	16
2023-08-30T06:00	10249	259	-49.3	-58.2	164	16
2023-08-30T06:00	10270	258	-49.4	-58.2	164	17
2023-08-30T06:00	10292	257	-49.6	-58.2	163	17
2023-08-30T06:00	10312	256	-49.8	-58.3	164	17
2023-08-30T06:00	10333	256	-50.0	-58.5	165	17
2023-08-30T06:00	10357	255	-50.2	-58.5	165	18
2023-08-30T06:00	10383	254	-50.5	-58.8	166	18
2023-08-30T06:00	10410	253	-50.7	-59.2	166	19
2023-08-30T06:00	10437	252	-50.8	-59.6	166	19
2023-08-30T06:00	10460	251	-51.1	-59.8	165	19
2023-08-30T06:00	10488	250	-51.4	-59.8	165	19
2023-08-30T06:00	10511	249	-51.6	-59.8	164	20
2023-08-30T06:00	10531	248	-51.7	-60.1	164	20
2023-08-30T06:00	10557	247	-51.9	-60.5	164	20
2023-08-30T06:00	10579	246	-52.0	-60.9	163	21
2023-08-30T06:00	10607	245	-52.0	-61.4	163	21
2023-08-30T06:00	10634	244	-52.1	-62.0	163	22
2023-08-30T06:00	10655	243	-52.1	-62.1	163	22
2023-08-30T06:00	10681	242	-52.4	-62.2	164	23
2023-08-30T06:00	10703	241	-52.5	-62.1	164	23
2023-08-30T06:00	10724	241	-52.7	-62.2	164	23
2023-08-30T06:00	10746	240	-52.8	-62.3	164	23
2023-08-30T06:00	10765	239	-52.9	-62.6	164	23
2023-08-30T06:00	10790	238	-52.8	-63.0	163	23
2023-08-30T06:00	10809	237	-52.7	-63.7	163	23
2023-08-30T06:00	10831	237	-52.5	-64.1	163	23
2023-08-30T06:00	10854	236	-52.5	-64.6	164	23
2023-08-30T06:00	10874	235	-52.2	-65.0	165	23
2023-08-30T06:00	10895	234	-51.9	-65.4	166	23
2023-08-30T06:00	10916	234	-51.9	-65.7	167	23
2023-08-30T06:00	10937	233	-52.0	-65.6	167	23
2023-08-30T06:00	10957	232	-52.2	-65.6	166	23
2023-08-30T06:00	10979	231	-52.4	-65.6	166	23
2023-08-30T06:00	10998	231	-52.4	-65.9	165	23
2023-08-30T06:00	11018	230	-52.3	-66.2	164	23
2023-08-30T06:00	11038	229	-52.4	-66.5	164	23
2023-08-30T06:00	11060	228	-52.5	-66.8	164	22
2023-08-30T06:00	11082	228	-52.5	-67.3	163	22
2023-08-30T06:00	11100	227	-52.4	-67.9	164	22
2023-08-30T06:00	11122	226	-52.4	-68.6	164	22
2023-08-30T06:00	11140	226	-52.3	-69.1	165	22
2023-08-30T06:00	11161	225	-52.0	-69.5	167	23
2023-08-30T06:00	11182	224	-51.8	-69.6	168	23
2023-08-30T06:00	11203	223	-51.5	-70.1	170	24
2023-08-30T06:00	11225	223	-50.8	-70.8	171	24
2023-08-30T06:00	11242	222	-50.8	-71.5	172	24
2023-08-30T06:00	11264	221	-50.7	-71.6	173	24
2023-08-30T06:00	11285	221	-50.5	-71.7	173	24
2023-08-30T06:00	11305	220	-50.5	-71.9	173	24
2023-08-30T06:00	11322	219	-50.5	-72.2	172	24
2023-08-30T06:00	11341	219	-50.4	-72.4	172	25
2023-08-30T06:00	11361	218	-50.4	-72.6	171	25
2023-08-30T06:00	11381	217	-50.0	-72.7	170	25
2023-08-30T06:00	11401	217	-49.9	-73.0	170	25
2023-08-30T06:00	11422	216	-50.0	-73.2	169	25
2023-08-30T06:00	11444	215	-50.0	-73.2	168	25
2023-08-30T06:00	11464	215	-50.1	-73.4	167	25
2023-08-30T06:00	11485	214	-50.1	-73.6	166	25
2023-08-30T06:00	11506	213	-50.0	-73.9	165	25
2023-08-30T06:00	11526	213	-49.7	-74.2	165	25
2023-08-30T06:00	11547	212	-49.7	-74.4	165	25
2023-08-30T06:00	11566	211	-49.5	-74.4	165	25
2023-08-30T06:00	11587	211	-49.6	-74.7	165	25
2023-08-30T06:00	11608	210	-49.4	-74.7	164	26
2023-08-30T06:00	11628	209	-49.4	-75.2	164	26
2023-08-30T06:00	11647	209	-49.1	-75.2	164	26
2023-08-30T06:00	11668	208	-49.1	-75.7	165	26
2023-08-30T06:00	11688	207	-49.1	-75.9	166	26
2023-08-30T06:00	11713	207	-48.8	-76.0	168	26
2023-08-30T06:00	11742	206	-48.1	-76.3	170	26
2023-08-30T06:00	11772	205	-48.0	-76.6	173	26
2023-08-30T06:00	11796	204	-48.1	-76.3	175	26
2023-08-30T06:00	11817	203	-48.3	-76.5	176	25
2023-08-30T06:00	11839	203	-48.4	-76.5	177	25
2023-08-30T06:00	11859	202	-48.5	-76.6	178	25
2023-08-30T06:00	11881	201	-48.6	-76.7	178	24
2023-08-30T06:00	11901	201	-48.5	-76.9	178	24
2023-08-30T06:00	11923	200	-48.2	-77.1	178	24
2023-08-30T06:00	11943	200	-48.1	-77.0	178	24
2023-08-30T06:00	11964	199	-48.4	-77.2	177	24
2023-08-30T06:00	11989	198	-48.5	-77.3	176	23
2023-08-30T06:00	12012	198	-48.6	-77.4	176	23
2023-08-30T06:00	12034	197	-48.6	-77.7	175	23
2023-08-30T06:00	12056	196	-48.8	-77.9	176	23
2023-08-30T06:00	12079	196	-48.6	-77.7	176	23
2023-08-30T06:00	12099	195	-48.5	-77.6	178	22
2023-08-30T06:00	12120	194	-48.6	-77.7	179	22
2023-08-30T06:00	12140	194	-48.8	-77.9	180	22
2023-08-30T06:00	12158	193	-48.8	-77.9	182	22
2023-08-30T06:00	12177	193	-48.5	-78.0	183	22
2023-08-30T06:00	12198	192	-47.9	-77.6	185	21
2023-08-30T06:00	12217	191	-48.0	-77.6	187	21
2023-08-30T06:00	12238	191	-47.6	-77.7	189	21
2023-08-30T06:00	12256	190	-47.2	-77.9	191	21
2023-08-30T06:00	12278	190	-46.8	-77.6	192	21
2023-08-30T06:00	12298	189	-46.6	-77.4	193	21
2023-08-30T06:00	12318	189	-46.7	-77.5	194	21
2023-08-30T06:00	12344	188	-46.8	-77.6	196	20
2023-08-30T06:00	12368	187	-46.8	-77.6	197	20
2023-08-30T06:00	12391	186	-46.4	-77.3	199	20
2023-08-30T06:00	12414	186	-46.6	-77.4	200	20
2023-08-30T06:00	12436	185	-46.7	-77.5	201	19
2023-08-30T06:00	12456	185	-46.9	-77.2	202	19
2023-08-30T06:00	12478	184	-47.0	-77.7	203	19
2023-08-30T06:00	12499	183	-47.0	-77.7	203	19
2023-08-30T06:00	12520	183	-47.2	-77.4	204	18
2023-08-30T06:00	12541	182	-47.3	-77.5	204	18
2023-08-30T06:00	12562	182	-47.4	-77.6	203	18
2023-08-30T06:00	12583	181	-47.6	-77.7	203	18
2023-08-30T06:00	12605	181	-47.8	-77.9	203	17
2023-08-30T06:00	12628	180	-48.0	-78.0	202	17
2023-08-30T06:00	12652	179	-48.2	-78.2	202	17
2023-08-30T06:00	12671	179	-48.4	-78.3	201	17
2023-08-30T06:00	12692	178	-48.5	-78.0	199	17
2023-08-30T06:00	12713	178	-48.7	-78.2	198	16
2023-08-30T06:00	12734	177	-48.8	-78.2	197	16
2023-08-30T06:00	12755	176	-48.9	-78.3	196	16
2023-08-30T06:00	12775	176	-49.1	-78.5	195	16
2023-08-30T06:00	12795	175	-49.3	-78.6	194	16
2023-08-30T06:00	12814	175	-49.4	-78.7	193	16
2023-08-30T06:00	12833	174	-49.6	-78.8	192	16
2023-08-30T06:00	12855	174	-49.7	-78.9	190	15
2023-08-30T06:00	12878	173	-49.9	-78.7	188	15
2023-08-30T06:00	12899	173	-50.0	-78.8	185	15
2023-08-30T06:00	12920	172	-50.1	-79.2	182	15
2023-08-30T06:00	12941	172	-50.2	-79.3	179	15
2023-08-30T06:00	12965	171	-50.0		176	15
2023-08-30T06:00	12990	170	-49.7	-78.9	174	15
2023-08-30T06:00	13011	170	-49.9	-79.1	171	15
2023-08-30T06:00	13032	169	-50.0		169	15
2023-08-30T06:00	13053	169	-50.2	-79.3	167	16
2023-08-30T06:00	13076	168	-50.3	-79.4	166	17
2023-08-30T06:00	13098	167	-50.2	-79.3	167	17
2023-08-30T06:00	13119	167	-50.0	-79.5	168	18
2023-08-30T06:00	13140	166	-49.9	-79.5	170	18
2023-08-30T06:00	13161	166	-49.7	-79.3	172	18
2023-08-30T06:00	13181	165	-49.7	-79.3	173	18
2023-08-30T06:00	13202	165	-49.8	-79.4	175	18
2023-08-30T06:00	13225	164	-49.5	-79.2	175	18
2023-08-30T06:00	13246	164	-49.2	-79.4	176	18
2023-08-30T06:00	13266	163	-49.0	-79.2	177	18
2023-08-30T06:00	13286	163	-49.0	-79.2	178	18
2023-08-30T06:00	13308	162	-49.0	-79.2	179	17
2023-08-30T06:00	13332	162	-49.1	-78.9	180	17
2023-08-30T06:00	13354	161	-49.2	-78.9	180	17
2023-08-30T06:00	13375	161	-49.4	-78.7	182	16
2023-08-30T06:00	13397	160	-49.6	-78.8	183	16
2023-08-30T06:00	13418	159	-49.7	-78.9	184	16
2023-08-30T06:00	13442	159	-49.9	-78.7	186	16
2023-08-30T06:00	13462	158	-50.0	-78.8	187	16
2023-08-30T06:00	13482	158	-50.1	-78.9	188	16
2023-08-30T06:00	13502	157	-50.2	-78.9	189	16
2023-08-30T06:00	13524	157	-50.2	-79.3	189	16
2023-08-30T06:00	13543	156	-50.2	-79.3	188	16
2023-08-30T06:00	13565	156	-50.0		187	16
2023-08-30T06:00	13585	155	-50.2	-79.3	186	17
2023-08-30T06:00	13607	155	-50.4	-79.5	185	17
2023-08-30T06:00	13629	154	-50.5	-79.2	184	17
2023-08-30T06:00	13651	154	-50.6	-79.2	183	17
2023-08-30T06:00	13671	153	-50.7	-79.3	182	17
2023-08-30T06:00	13691	153	-50.7	-79.3	182	18
2023-08-30T06:00	13714	152	-50.7	-79.7	182	18
2023-08-30T06:00	13737	152	-50.7	-79.7	182	19
2023-08-30T06:00	13758	151	-50.9	-79.5	182	19
2023-08-30T06:00	13779	151	-50.9	-79.5	183	20
2023-08-30T06:00	13801	150	-50.9	-79.5	183	20
2023-08-30T06:00	13821	150	-50.9	-79.5	184	20
2023-08-30T06:00	13842	149	-50.8	-79.8	184	21
2023-08-30T06:00	13861	149	-50.8	-79.8	185	21
2023-08-30T06:00	13884	148	-50.9	-79.8	185	21
2023-08-30T06:00	13905	148	-50.9	-79.5	186	21
2023-08-30T06:00	13925	148	-51.0	-79.5	186	21
2023-08-30T06:00	13947	147	-51.1	-79.6	186	21
2023-08-30T06:00	13967	147	-51.2	-79.7	186	21
2023-08-30T06:00	13991	146	-51.1	-79.6	186	21
2023-08-30T06:00	14011	146	-50.9	-79.8	186	21
2023-08-30T06:00	14033	145	-50.6	-79.6	187	21
2023-08-30T06:00	14052	145	-50.6	-79.6	188	20
2023-08-30T06:00	14073	144	-50.8	-79.8	189	20
2023-08-30T06:00	14094	144	-50.9	-79.8	191	20
2023-08-30T06:00	14113	143	-51.0	-80.3	192	20
2023-08-30T06:00	14134	143	-50.9	-80.2	194	20
2023-08-30T06:00	14157	142	-50.5	-80.3	195	19
2023-08-30T06:00	14179	142	-50.0	-80.0	196	19
2023-08-30T06:00	14198	141	-50.0	-80.0	196	19
2023-08-30T06:00	14222	141	-50.1	-80.0	195	18
2023-08-30T06:00	14243	141	-50.1	-80.0	194	18
2023-08-30T06:00	14264	140	-50.1	-80.0	193	18
2023-08-30T06:00	14286	140	-50.2	-80.1	192	18
2023-08-30T06:00	14309	139	-50.2	-80.1	191	17
2023-08-30T06:00	14332	139	-50.3	-80.2	192	17
2023-08-30T06:00	14350	138	-50.3	-80.2	193	17
2023-08-30T06:00	14374	138	-50.2	-80.1	194	16
2023-08-30T06:00	14396	137	-50.2	-80.1	195	16
2023-08-30T06:00	14417	137	-50.3	-80.2	196	16
2023-08-30T06:00	14438	136	-50.4	-80.3	196	16
2023-08-30T06:00	14459	136	-50.6	-80.4	195	15
2023-08-30T06:00	14481	135	-50.7	-80.5	194	15
2023-08-30T06:00	14502	135	-50.8	-80.6	193	15
2023-08-30T06:00	14527	135	-50.8	-80.6	192	15
2023-08-30T06:00	14548	134	-50.8	-80.6	192	15
2023-08-30T06:00	14569	134	-50.9	-80.2	192	15
2023-08-30T06:00	14591	133	-51.0	-80.3	193	15
2023-08-30T06:00	14612	133	-51.1	-80.8	194	14
2023-08-30T06:00	14634	132	-51.2	-80.9	195	14
2023-08-30T06:00	14653	132	-51.2	-80.9	196	14
2023-08-30T06:00	14677	131	-51.1	-80.8	196	14
2023-08-30T06:00	14697	131	-51.1	-80.8	196	13
2023-08-30T06:00	14719	131	-51.3	-80.9	195	13
2023-08-30T06:00	14741	130	-51.4	-81.0	194	13
2023-08-30T06:00	14762	130	-51.6	-81.2	193	13
2023-08-30T06:00	14782	129	-51.8	-80.9	193	13
2023-08-30T06:00	14805	129	-51.9	-81.0	192	13
2023-08-30T06:00	14830	128	-52.0	-81.1	192	13
2023-08-30T06:00	14851	128	-52.0	-81.1	193	13
2023-08-30T06:00	14874	128	-52.1	-81.1	193	14
2023-08-30T06:00	14893	127	-52.1	-81.5	193	14
2023-08-30T06:00	14915	127	-52.1	-81.1	192	14
2023-08-30T06:00	14938	126	-52.3	-81.3	192	14
2023-08-30T06:00	14959	126	-52.3	-81.3	191	14
2023-08-30T06:00	14979	125	-52.3	-81.3	189	14
2023-08-30T06:00	15002	125	-52.4	-81.4	188	15
2023-08-30T06:00	15023	125	-52.4	-81.8	188	15
2023-08-30T06:00	15043	124	-52.5	-81.8	187	15
2023-08-30T06:00	15067	124	-52.5	-81.8	187	16
2023-08-30T06:00	15087	123	-52.4	-81.8	187	16
2023-08-30T06:00	15108	123	-52.2	-81.6	187	17
2023-08-30T06:00	15126	123	-52.2	-81.6	186	17
2023-08-30T06:00	15149	122	-52.2	-81.6	186	17
2023-08-30T06:00	15168	122	-52.0	-81.9	186	17
2023-08-30T06:00	15188	121	-52.0	-81.9	186	17
2023-08-30T06:00	15210	121	-51.9	-81.8	186	17
2023-08-30T06:00	15231	121	-52.0	-81.9	187	17
2023-08-30T06:00	15251	120	-51.9	-81.8	187	18
2023-08-30T06:00	15273	120	-52.0	-81.9	188	18
2023-08-30T06:00	15293	120	-52.0	-81.9	190	18
2023-08-30T06:00	15313	119	-52.0	-81.9	192	18
2023-08-30T06:00	15336	119	-51.9	-82.3	194	18
2023-08-30T06:00	15361	118	-51.8	-82.2	195	18
2023-08-30T06:00	15380	118	-51.8	-82.2	197	18
2023-08-30T06:00	15401	118	-51.8	-82.2	198	18
2023-08-30T06:00	15422	117	-51.8	-82.2	198	18
2023-08-30T06:00	15446	117	-51.7	-82.2	198	17
2023-08-30T06:00	15466	116	-51.5	-82.0	197	17
2023-08-30T06:00	15489	116	-51.5	-82.0	197	17
2023-08-30T06:00	15511	116	-51.4	-81.9	197	17
2023-08-30T06:00	15532	115	-51.3	-82.4	197	17
2023-08-30T06:00	15557	115	-51.3	-82.4	198	16
2023-08-30T06:00	15578	114	-51.3	-82.4	198	16
2023-08-30T06:00	15600	114	-51.3	-81.9	199	16
2023-08-30T06:00	15624	114	-51.4	-81.9	199	17
2023-08-30T06:00	15647	113	-51.4	-81.9	201	17
2023-08-30T06:00	15668	113	-51.4	-81.9	202	17
2023-08-30T06:00	15691	112	-51.4	-82.5	204	17
2023-08-30T06:00	15714	112	-51.5	-82.5	205	17
2023-08-30T06:00	15735	112	-51.6	-82.6	205	17
2023-08-30T06:00	15761	111	-51.8	-82.2	206	17
2023-08-30T06:00	15783	111	-51.9	-82.3	206	17
2023-08-30T06:00	15804	110	-52.1	-82.5	206	17
2023-08-30T06:00	15827	110	-52.2	-82.5	206	17
2023-08-30T06:00	15849	110	-52.2	-82.5	206	16
2023-08-30T06:00	15874	109	-52.2	-82.5	206	16
2023-08-30T06:00	15896	109	-52.2	-82.5	206	16
2023-08-30T06:00	15920	109	-52.3	-83.1	207	15
2023-08-30T06:00	15944	108	-52.4	-83.2	208	15
2023-08-30T06:00	15965	108	-52.2	-83.1	210	14
2023-08-30T06:00	15990	107	-52.1	-83.0	212	14
2023-08-30T06:00	16012	107	-52.0	-82.9	214	14
2023-08-30T06:00	16036	107	-52.1	-83.0	215	13
2023-08-30T06:00	16058	106	-52.1	-83.0	216	13
2023-08-30T06:00	16083	106	-52.2	-82.5	216	12
2023-08-30T06:00	16105	105	-52.4	-82.7	217	12
2023-08-30T06:00	16130	105	-52.6	-82.8	217	11
2023-08-30T06:00	16150	105	-52.8	-83.0	217	11
2023-08-30T06:00	16174	104	-53.1	-83.2	218	10
2023-08-30T06:00	16199	104	-53.1	-83.2	218	10
2023-08-30T06:00	16220	104	-53.1	-82.7	217	10
2023-08-30T06:00	16244	103	-53.0	-82.7	216	10
2023-08-30T06:00	16267	103	-52.8	-83.0	215	9
2023-08-30T06:00	16290	102	-52.9	-83.1	214	9
2023-08-30T06:00	16310	102	-53.0	-83.1	213	9
2023-08-30T06:00	16333	102	-53.0	-83.1	213	9
2023-08-30T06:00	16356	101	-52.9	-83.1	214	9
2023-08-30T06:00	16377	101	-52.9	-83.1	214	9
2023-08-30T06:00	16399	101	-52.9	-83.1	214	9
2023-08-30T06:00	16424	100	-53.0	-83.1	213	9
2023-08-30T06:00	16446	100	-53.0	-83.1	211	9
2023-08-30T06:00	16470	100	-52.9	-83.1	208	8
2023-08-30T06:00	16489	99	-53.1	-83.2	205	8
2023-08-30T06:00	16513	99	-53.2	-83.3	201	8
2023-08-30T06:00	16537	99	-53.1	-83.2	196	8
2023-08-30T06:00	16559	98	-53.1	-83.2	192	8
2023-08-30T06:00	16584	98	-53.3		187	8
2023-08-30T06:00	16605	98	-53.5	-83.5	183	8
2023-08-30T06:00	16624	97	-53.6	-83.6	179	9
2023-08-30T06:00	16651	97	-53.6	-83.6	176	9
2023-08-30T06:00	16674	97	-53.6	-83.1	174	9
2023-08-30T06:00	16694	96	-53.7	-83.2	172	10
2023-08-30T06:00	16716	96	-53.8	-83.3	170	10
2023-08-30T06:00	16738	96	-54.0	-83.4	168	10
2023-08-30T06:00	16759	95	-54.2	-83.6	167	11
2023-08-30T06:00	16784	95	-54.2	-83.6	166	11
2023-08-30T06:00	16805	95	-54.3	-83.6	166	11
2023-08-30T06:00	16829	94	-54.4	-83.7	167	11
2023-08-30T06:00	16850	94	-54.6	-83.9	168	12
2023-08-30T06:00	16872	94	-54.7	-83.9	170	12
2023-08-30T06:00	16896	93	-54.7	-84.4	172	11
2023-08-30T06:00	16919	93	-54.4	-84.2	175	11
2023-08-30T06:00	16942	93	-54.5	-83.8	178	10
2023-08-30T06:00	16963	92	-54.5	-83.8	181	10
2023-08-30T06:00	16987	92	-54.5	-83.8	184	9
2023-08-30T06:00	17008	92	-54.5	-84.3	187	9
2023-08-30T06:00	17029	91	-54.3	-84.1	188	8
2023-08-30T06:00	17054	91	-54.4	-84.2	188	8
2023-08-30T06:00	17071	91	-54.4	-84.2	187	7
2023-08-30T06:00	17095	90	-54.5	-84.3	184	7
2023-08-30T06:00	17117	90	-54.7	-83.9	180	7
2023-08-30T06:00	17140	90	-54.7	-83.9	176	7
2023-08-30T06:00	17163	89	-54.9	-84.1	174	7
2023-08-30T06:00	17184	89	-55.0	-84.2	173	8
2023-08-30T06:00	17206	89	-55.0	-84.2	173	8
2023-08-30T06:00	17230	89	-54.7	-84.4	174	9
2023-08-30T06:00	17251	88	-54.8	-84.0	176	9
2023-08-30T06:00	17274	88	-55.0	-84.2	178	10
2023-08-30T06:00	17297	88	-55.2	-84.3	181	10
2023-08-30T06:00	17319	87	-55.3	-84.4	184	10
2023-08-30T06:00	17337	87	-55.4	-84.5	187	10
2023-08-30T06:00	17361	87	-55.5	-84.5	189	10
2023-08-30T06:00	17385	86	-55.5	-84.5	190	10
2023-08-30T06:00	17403	86	-55.3	-84.4	189	10
2023-08-30T06:00	17429	86	-55.1	-84.7	186	10
2023-08-30T06:00	17450	86	-54.8	-84.5	183	10
2023-08-30T06:00	17473	85	-54.7	-84.4	180	10
2023-08-30T06:00	17496	85	-54.9	-84.6	178	10
2023-08-30T06:00	17519	85	-55.1	-84.7	177	10
2023-08-30T06:00	17542	84	-55.2	-84.3	177	11
2023-08-30T06:00	17563	84	-55.4	-84.5	177	11
2023-08-30T06:00	17582	84	-55.5	-84.5	177	12
2023-08-30T06:00	17607	83	-55.7	-84.7	176	12
2023-08-30T06:00	17631	83	-55.9	-84.8	175	12
2023-08-30T06:00	17653	83	-55.9	-84.8	175	13
2023-08-30T06:00	17676	83	-55.8	-84.8	176	13
2023-08-30T06:00	17699	82	-55.6	-84.6	177	14
2023-08-30T06:00	17720	82	-55.5	-84.5	179	14
2023-08-30T06:00	17743	82	-55.6	-85.1	182	15
2023-08-30T06:00	17766	81	-55.7	-85.2	184	16
2023-08-30T06:00	17789	81	-55.7	-85.2	187	16
2023-08-30T06:00	17810	81	-55.6	-85.1	190	16
2023-08-30T06:00	17834	81	-55.5	-85.0	193	16
2023-08-30T06:00	17858	80	-55.6	-85.1	195	16
2023-08-30T06:00	17878	80	-55.6	-85.1	198	15
2023-08-30T06:00	17903	80	-55.4	-84.9	200	15
2023-08-30T06:00	17926	79	-55.2	-84.8	202	14
2023-08-30T06:00	17950	79	-55.2	-84.8	204	13
2023-08-30T06:00	17971	79	-55.3	-84.9	206	12
2023-08-30T06:00	17996	79	-55.2	-84.8	208	11
2023-08-30T06:00	18021	78	-55.3	-84.9	210	10
2023-08-30T06:00	18047	78	-55.2	-84.8	212	9
2023-08-30T06:00	18065	78	-55.2	-84.8	214	8
2023-08-30T06:00	18090	77	-55.2	-84.8	214	7
2023-08-30T06:00	18115	77	-55.1	-85.2	213	6
2023-08-30T06:00	18137	77	-55.0	-85.1	210	6
2023-08-30T06:00	18157	77	-54.6	-84.8	206	6
2023-08-30T06:00	18184	76	-54.4	-84.7	202	5
2023-08-30T06:00	18207	76	-54.5	-84.8	197	5
2023-08-30T06:00	18230	76	-54.6	-84.8	191	5
2023-08-30T06:00	18254	75	-54.7	-84.9	187	5
2023-08-30T06:00	18277	75	-54.8	-85.0	185	5
2023-08-30T06:00	18299	75	-54.5	-84.8	187	5
2023-08-30T06:00	18322	75	-54.4	-85.2	192	5
2023-08-30T06:00	18343	74	-54.3	-85.2	198	5
2023-08-30T06:00	18369	74	-54.0	-84.9	204	6
2023-08-30T06:00	18390	74	-53.7	-84.7	208	6
2023-08-30T06:00	18416	74	-53.7	-84.7	210	7
2023-08-30T06:00	18437	73	-53.8	-84.8	210	7
2023-08-30T06:00	18462	73	-54.0	-84.9	210	7
2023-08-30T06:00	18487	73	-54.1	-85.0	209	7
2023-08-30T06:00	18511	72	-54.0	-84.9	208	7
2023-08-30T06:00	18535	72	-53.8	-84.8	206	7
2023-08-30T06:00	18559	72	-53.9	-84.3	203	6
2023-08-30T06:00	18583	72	-54.0	-84.4	199	6
2023-08-30T06:00	18606	71	-54.1	-84.5	194	6
2023-08-30T06:00	18631	71	-54.2	-84.5	189	6
2023-08-30T06:00	18656	71	-54.3	-84.6	182	6
2023-08-30T06:00	18681	71	-54.3	-84.6	175	6
2023-08-30T06:00	18702	70	-54.4	-85.2	168	6
2023-08-30T06:00	18728	70	-54.4	-85.2	161	6
2023-08-30T06:00	18749	70	-54.3	-85.2	154	7
2023-08-30T06:00	18775	70	-54.1	-85.0	148	7
2023-08-30T06:00	18796	69	-54.0	-84.9	142	8
2023-08-30T06:00	18821	69	-54.0	-84.9	138	8
2023-08-30T06:00	18845	69	-53.9	-84.9	136	9
2023-08-30T06:00	18869	69	-53.8	-84.8	136	10
2023-08-30T06:00	18894	68	-53.7	-84.7	137	10
2023-08-30T06:00	18916	68	-53.6	-84.6	139	10
2023-08-30T06:00	18942	68	-53.7	-84.7	142	10
2023-08-30T06:00	18963	68	-53.7	-84.7	146	10
2023-08-30T06:00	18988	67	-53.8	-84.8	150	10
2023-08-30T06:00	19011	67	-53.9	-84.9	154	10
2023-08-30T06:00	19036	67	-54.1	-85.0	159	10
2023-08-30T06:00	19062	66	-54.3	-84.6	164	9
2023-08-30T06:00	19084	66	-54.3	-84.6	171	9
2023-08-30T06:00	19111	66	-54.4	-84.7	178	9
2023-08-30T06:00	19139	66	-54.5	-85.3	186	8
2023-08-30T06:00	19165	65	-54.4	-85.2	194	8
2023-08-30T06:00	19190	65	-54.4	-85.2	201	8
2023-08-30T06:00	19214	65	-54.3	-85.2	207	8
2023-08-30T06:00	19242	65	-54.4	-85.2	212	8
2023-08-30T06:00	19265	64	-54.5	-85.3	216	8
2023-08-30T06:00	19290	64	-54.6	-84.8	220	8
2023-08-30T06:00	19315	64	-54.8	-85.0	224	8
2023-08-30T06:00	19339	64	-55.0	-85.1	228	8
2023-08-30T06:00	19367	63	-55.1	-85.2	232	8
2023-08-30T06:00	19391	63	-55.3	-85.4	236	7
2023-08-30T06:00	19416	63	-55.4	-85.4	240	7
2023-08-30T06:00	19441	63	-55.5	-85.5	244	6
2023-08-30T06:00	19471	62	-55.3	-85.4	247	5
2023-08-30T06:00	19495	62	-55.1	-85.2	250	5
2023-08-30T06:00	19518	62	-55.1	-85.2	252	4
2023-08-30T06:00	19544	62	-55.1	-85.2	252	3
2023-08-30T06:00	19568	61	-55.1	-85.2	249	2
2023-08-30T06:00	19594	61	-55.1	-85.2	241	2
2023-08-30T06:00	19619	61	-55.1	-85.2	226	2
2023-08-30T06:00	19642	61	-55.3	-85.4	203	1
2023-08-30T06:00	19667	60	-55.5	-85.5	182	2
2023-08-30T06:00	19691	60	-55.6	-85.6	170	2
2023-08-30T06:00	19712	60	-55.7	-85.7	165	2
2023-08-30T06:00	19737	60	-55.7	-85.7	162	3
2023-08-30T06:00	19762	60	-55.5	-85.5	161	3
2023-08-30T06:00	19787	59	-55.5	-85.5	160	4
2023-08-30T06:00	19811	59	-55.5	-85.5	159	5
2023-08-30T06:00	19834	59	-55.4	-85.4	159	5
2023-08-30T06:00	19857	59	-55.3	-85.4	159	6
2023-08-30T06:00	19881	58	-55.3	-85.9	161	6
2023-08-30T06:00	19904	58	-55.3	-85.9	164	6
2023-08-30T06:00	19931	58	-55.2	-85.8	168	6
2023-08-30T06:00	19955	58	-54.9	-85.6	172	6
2023-08-30T06:00	19981	58	-54.3	-85.2	177	6
2023-08-30T06:00	20003	57	-54.0	-85.5	180	5
2023-08-30T06:00	20026	57	-53.9	-85.5	183	5
2023-08-30T06:00	20053	57	-53.9	-85.5	186	5
2023-08-30T06:00	20076	57	-53.7	-85.3	187	4
2023-08-30T06:00	20101	57	-53.5	-85.2	186	4
2023-08-30T06:00	20122	56	-53.5	-85.2	184	4
2023-08-30T06:00	20143	56	-53.5	-84.6	180	4
2023-08-30T06:00	20170	56	-53.7	-84.7	176	4
2023-08-30T06:00	20196	56	-53.8	-84.8	173	5
2023-08-30T06:00	20221	55	-53.7	-84.7	173	6
2023-08-30T06:00	20244	55	-53.8	-84.8	174	6
2023-08-30T06:00	20267	55	-53.8	-84.8	176	7
2023-08-30T06:00	20289	55	-53.7	-84.7	179	7
2023-08-30T06:00	20314	55	-53.6	-84.6	182	6
2023-08-30T06:00	20339	54	-53.4	-85.1	185	6
2023-08-30T06:00	20366	54	-53.2	-85.0	188	6
2023-08-30T06:00	20386	54	-52.9	-84.7	192	5
2023-08-30T06:00	20416	54	-52.8	-84.7	197	5
2023-08-30T06:00	20439	54	-52.6	-84.5	204	4
2023-08-30T06:00	20464	53	-52.5	-84.4	211	4
2023-08-30T06:00	20489	53	-52.6	-84.5	220	4
2023-08-30T06:00	20514	53	-52.8	-84.7	230	3
2023-08-30T06:00	20539	53	-52.8	-84.7	242	3
2023-08-30T06:00	20563	53	-52.6	-84.5	254	3
2023-08-30T06:00	20590	52	-52.4	-84.4	265	2
2023-08-30T06:00	20608	52	-52.4	-84.4	273	2
2023-08-30T06:00	20638	52	-52.5	-84.4	275	2
2023-08-30T06:00	20666	52	-52.4	-84.4	266	1
2023-08-30T06:00	20685	52	-52.3	-84.3	238	1
2023-08-30T06:00	20712	51	-52.4	-84.4	208	1
2023-08-30T06:00	20733	51	-52.6	-84.5	190	2
2023-08-30T06:00	20759	51	-52.8	-84.7	181	2
2023-08-30T06:00	20785	51	-52.8	-84.7	175	2
2023-08-30T06:00	20809	51	-52.6	-84.5	172	3
2023-08-30T06:00	20833	50	-52.6	-84.5	170	3
2023-08-30T06:00	20859	50	-52.4	-84.4	169	3
2023-08-30T06:00	20882	50	-52.2	-84.2	167	3
2023-08-30T06:00	20909	50	-52.3	-84.3	165	3
2023-08-30T06:00	20933	50	-52.2	-84.2	163	4
2023-08-30T06:00	20958	49	-52.2	-84.2	161	5
2023-08-30T06:00	20979	49	-52.2	-84.2	159	5
2023-08-30T06:00	21004	49	-52.1	-84.2	157	6
2023-08-30T06:00	21026	49	-51.9	-84.0	157	6
2023-08-30T06:00	21051	49	-51.8	-83.9	157	6
2023-08-30T06:00	21077	49	-51.9	-84.0	158	6
2023-08-30T06:00	21105	48	-52.1	-84.2	161	6
2023-08-30T06:00	21129	48	-52.0	-84.1	165	5
2023-08-30T06:00	21155	48	-51.8	-83.9	171	5
2023-08-30T06:00	21180	48	-51.8	-83.9	179	4
2023-08-30T06:00	21206	48	-51.9	-84.0	191	3
2023-08-30T06:00	21233	47	-52.0	-84.1	206	3
2023-08-30T06:00	21257	47	-52.1	-84.2	221	2
2023-08-30T06:00	21283	47	-52.1	-84.2	232	2
2023-08-30T06:00	21310	47	-52.0	-84.1	233	3
2023-08-30T06:00	21337	47	-51.8	-83.9	228	3
2023-08-30T06:00	21364	46	-51.8	-83.9	219	3
2023-08-30T06:00	21386	46	-52.0	-84.1	210	4
2023-08-30T06:00	21413	46	-52.1	-84.2	202	4
2023-08-30T06:00	21442	46	-52.3	-84.3	195	5
2023-08-30T06:00	21469	46	-52.5	-84.4	190	5
2023-08-30T06:00	21496	46	-52.6	-84.5	187	6
2023-08-30T06:00	21522	45	-52.7	-84.6	185	7
2023-08-30T06:00	21550	45	-52.7	-84.6	185	7
2023-08-30T06:00	21578	45	-52.7	-84.6	185	8
2023-08-30T06:00	21602	45	-52.7	-84.6	187	8
2023-08-30T06:00	21633	45	-52.6	-84.5	189	8
2023-08-30T06:00	21660	44	-52.5	-84.4	192	8
2023-08-30T06:00	21688	44	-52.4	-84.4	195	8
2023-08-30T06:00	21715	44	-52.5	-84.4	199	7
2023-08-30T06:00	21741	44	-52.6	-84.5	203	7
2023-08-30T06:00	21768	44	-52.8	-84.7	208	6
2023-08-30T06:00	21798	43	-52.9	-84.1	213	6
2023-08-30T06:00	21826	43	-53.0	-84.2	218	5
2023-08-30T06:00	21854	43	-53.1	-84.3	223	5
2023-08-30T06:00	21882	43	-53.2	-84.4	228	5
2023-08-30T06:00	21908	43	-53.4	-84.5	232	4
2023-08-30T06:00	21938	43	-53.5	-84.6	236	4
2023-08-30T06:00	21965	42	-53.7	-84.7	240	3
2023-08-30T06:00	21993	42	-53.9	-84.9	242	3
2023-08-30T06:00	22019	42	-53.9	-84.9	244	3
2023-08-30T06:00	22045	42	-54.0	-84.9	245	2
2023-08-30T06:00	22074	42	-54.2	-85.1	247	1
2023-08-30T06:00	22100	41	-54.2	-85.1	248	0
2023-08-30T06:00	22126	41	-54.2	-85.1	74	1
2023-08-30T06:00	22155	41	-54.1	-85.0	78	2
2023-08-30T06:00	22182	41	-54.0	-84.9	84	2
2023-08-30T06:00	22207	41	-53.8	-84.8	91	3
2023-08-30T06:00	22235	41	-53.7	-85.3	101	3
2023-08-30T06:00	22261	40	-53.6	-85.3	112	3
2023-08-30T06:00	22285	40	-53.4	-85.1	123	2
2023-08-30T06:00	22317	40	-53.5	-85.2	133	2
2023-08-30T06:00	22337	40	-53.5	-85.2	136	1
2023-08-30T06:00	22365	40	-53.4	-85.1	109	1
2023-08-30T06:00	22393	40	-53.3	-85.0	46	1
2023-08-30T06:00	22413	39	-53.3	-85.0	36	2
2023-08-30T06:00	22443	39	-53.4	-85.1	40	2
2023-08-30T06:00	22465	39	-53.3	-85.0	48	3
2023-08-30T06:00	22488	39	-53.2	-85.0	60	3
2023-08-30T06:00	22515	39	-52.8	-84.7	72	3
2023-08-30T06:00	22542	39	-52.7	-84.6	84	3
2023-08-30T06:00	22563	39	-52.7	-84.6	94	3
2023-08-30T06:00	22588	38	-52.7	-84.6	100	3
2023-08-30T06:00	22610	38	-52.8	-84.7	102	3
2023-08-30T06:00	22639	38	-52.7	-84.6	101	3
2023-08-30T06:00	22656	38	-52.4	-84.4	99	2
2023-08-30T06:00	22688	38	-52.5	-84.4	96	2
2023-08-30T06:00	22708	38	-52.6	-84.5	94	2
2023-08-30T06:00	22731	38	-52.7	-84.6	94	3
2023-08-30T06:00	22760	37	-52.8	-84.7	96	3
2023-08-30T06:00	22781	37	-52.8	-84.7	98	3
2023-08-30T06:00	22813	37	-52.8	-84.7	101	3
2023-08-30T06:00	22835	37	-52.9	-84.7	104	4
2023-08-30T06:00	22858	37	-52.9	-84.7	106	4
2023-08-30T06:00	22883	37	-52.9	-84.7	108	4
2023-08-30T06:00	22911	37	-52.9	-84.7	108	4
2023-08-30T06:00	22934	36	-52.8	-84.7	108	4
2023-08-30T06:00	22967	36	-52.7	-84.6	108	5
2023-08-30T06:00	22990	36	-52.6	-84.5	109	5
2023-08-30T06:00	23013	36	-52.6	-84.5	111	5
2023-08-30T06:00	23039	36	-52.5	-84.4	115	5
2023-08-30T06:00	23072	36	-52.6	-84.5	120	6
2023-08-30T06:00	23096	36	-52.5	-84.4	125	6
2023-08-30T06:00	23122	35	-52.5	-84.4	130	6
2023-08-30T06:00	23146	35	-52.7	-84.6	135	6
2023-08-30T06:00	23179	35	-52.8	-84.7	141	6
2023-08-30T06:00	23203	35	-53.0	-84.8	147	6
2023-08-30T06:00	23230	35	-53.0	-84.8	155	5
2023-08-30T06:00	23261	35	-53.1	-84.9	161	5
2023-08-30T06:00	23288	34	-53.1	-84.9	166	4
2023-08-30T06:00	23316	34	-53.1	-84.9	166	4
2023-08-30T06:00	23342	34	-53.1	-84.9	161	4
2023-08-30T06:00	23374	34	-53.0	-84.8	151	4
2023-08-30T06:00	23398	34	-53.1	-84.9	140	4
2023-08-30T06:00	23428	34	-53.2	-85.0	130	4
2023-08-30T06:00	23454	34	-53.2	-85.0	123	4
2023-08-30T06:00	23484	33	-53.2	-85.0	120	5
2023-08-30T06:00	23512	33	-53.3	-85.0	120	5
2023-08-30T06:00	23543	33	-53.4	-85.1	122	5
2023-08-30T06:00	23572	33	-53.5	-85.2	125	5
2023-08-30T06:00	23599	33	-53.5	-85.2	128	5
2023-08-30T06:00	23627	33	-53.3	-85.0	132	5
2023-08-30T06:00	23656	33	-53.2	-85.0	135	5
2023-08-30T06:00	23683	32	-53.2	-85.0	139	5
2023-08-30T06:00	23707	32	-53.2	-85.0	142	5
2023-08-30T06:00	23739	32	-53.1	-84.9	145	5
2023-08-30T06:00	23766	32	-53.2	-85.0	147	6
2023-08-30T06:00	23799	32	-53.2	-85.0	148	6
2023-08-30T06:00	23827	32	-53.2	-85.0	149	6
2023-08-30T06:00	23850	32	-53.2	-85.0	149	7
2023-08-30T06:00	23881	31	-53.3	-85.0	149	7
2023-08-30T06:00	23912	31	-53.3	-85.0	150	7
2023-08-30T06:00	23937	31	-53.4	-85.1	151	7
2023-08-30T06:00	23970	31	-53.6	-85.3	153	7
2023-08-30T06:00	23996	31	-53.6	-85.3	157	7
2023-08-30T06:00	24027	31	-53.5	-85.2	162	7
2023-08-30T06:00	24058	31	-53.2	-85.6	167	7
2023-08-30T06:00	24083	30	-52.8	-85.3	173	7
2023-08-30T06:00	24114	30	-52.2	-84.9	179	7
2023-08-30T06:00	24143	30	-51.9	-85.5	185	6
2023-08-30T06:00	24174	30	-51.7	-85.3	191	6
2023-08-30T06:00	24200	30	-51.6	-85.2	196	6
2023-08-30T06:00	24228	30	-51.4	-85.1	200	5
2023-08-30T06:00	24257	30	-51.2	-85.0	203	5
2023-08-30T06:00	24288	30	-51.2	-85.0	206	5
2023-08-30T06:00	24309	29	-51.1	-84.9	207	5
2023-08-30T06:00	24340	29	-51.0	-84.8	207	4
2023-08-30T06:00	24367	29	-50.9	-84.0	206	4
2023-08-30T06:00	24396	29	-50.9	-84.0	205	4
2023-08-30T06:00	24425	29	-50.9	-84.0	204	4
2023-08-30T06:00	24450	29	-50.9	-84.0	203	3
2023-08-30T06:00	24474	29	-50.9	-84.0	199	3
2023-08-30T06:00	24506	29	-51.0	-84.0	193	3
2023-08-30T06:00	24535	28	-50.9	-84.0	186	3
2023-08-30T06:00	24557	28	-50.8	-83.9	178	3
2023-08-30T06:00	24586	28	-50.8	-83.9	172	3
2023-08-30T06:00	24616	28	-50.8	-83.9	168	4
2023-08-30T06:00	24642	28	-51.0	-84.0	167	4
2023-08-30T06:00	24671	28	-51.1	-84.1	168	4
2023-08-30T06:00	24698	28	-51.2	-84.2	172	4
2023-08-30T06:00	24725	28	-51.3	-84.3	178	4
2023-08-30T06:00	24753	28	-51.3	-84.3	186	4
2023-08-30T06:00	24776	27	-51.1	-84.1	196	4
2023-08-30T06:00	24804	27	-50.8	-83.9	205	4
2023-08-30T06:00	24837	27	-50.6	-84.5	214	4
2023-08-30T06:00	24862	27	-50.5	-84.5	220	4
2023-08-30T06:00	24888	27	-50.5	-84.5	224	4
2023-08-30T06:00	24918	27	-50.6	-83.7	226	4
2023-08-30T06:00	24949	27	-50.8	-83.9	228	4
2023-08-30T06:00	24975	27	-51.0	-84.0	230	4
2023-08-30T06:00	25005	26	-51.0	-84.0	231	4
2023-08-30T06:00	25029	26	-50.9	-84.0	230	3
2023-08-30T06:00	25060	26	-51.0	-84.0	226	3
2023-08-30T06:00	25088	26	-51.0	-84.0	219	3
2023-08-30T06:00	25119	26	-50.8	-84.7	213	3
2023-08-30T06:00	25145	26	-50.6	-84.5	210	3
2023-08-30T06:00	25172	26	-50.4	-84.4	212	3
2023-08-30T06:00	25204	26	-50.4	-84.4	218	3
2023-08-30T06:00	25234	26	-50.4	-84.4	224	3
2023-08-30T06:00	25259	25	-50.4	-84.4	230	3
2023-08-30T06:00	25287	25	-50.3	-84.3	235	3
2023-08-30T06:00	25313	25	-50.3	-84.3	239	3
2023-08-30T06:00	25341	25	-50.4	-84.4	245	3
2023-08-30T06:00	25370	25	-50.3	-84.3	252	2
2023-08-30T06:00	25405	25	-50.2	-84.2	259	2
2023-08-30T06:00	25427	25	-50.2	-84.2	266	2
2023-08-30T06:00	25458	25	-50.1	-84.2	272	3
2023-08-30T06:00	25480	25	-50.0	-84.1	277	3
2023-08-30T06:00	25513	25	-50.1	-84.2	282	3
2023-08-30T06:00	25538	24	-50.2	-84.2	286	3
2023-08-30T06:00	25563	24	-50.3	-84.3	289	3
2023-08-30T06:00	25589	24	-50.4	-83.6	290	3
2023-08-30T06:00	25624	24	-50.5	-84.5	290	3
2023-08-30T06:00	25644	24	-50.5	-84.5	287	3
2023-08-30T06:00	25670	24	-50.4	-84.4	283	2
2023-08-30T06:00	25695	24	-50.3	-84.3	279	2
2023-08-30T06:00	25726	24	-50.1	-84.2	277	2
2023-08-30T06:00	25751	24	-49.9	-84.0	280	2
2023-08-30T06:00	25778	24	-49.7	-83.9	284	3
2023-08-30T06:00	25803	23	-49.4	-83.7	290	3
2023-08-30T06:00	25833	23	-49.1	-84.3	295	4
2023-08-30T06:00	25857	23	-49.1	-84.3	301	4
2023-08-30T06:00	25883	23	-49.1	-84.3	307	4
2023-08-30T06:00	25912	23	-49.1	-84.3	314	4
2023-08-30T06:00	25937	23	-49.0	-84.3	321	3
2023-08-30T06:00	25967	23	-48.7	-84.1	329	3
2023-08-30T06:00	25995	23	-48.5	-83.9	337	2
2023-08-30T06:00	26018	23	-48.5	-83.9	343	2
2023-08-30T06:00	26054	23	-48.6		345	2
2023-08-30T06:00	26081	22	-48.5	-83.9	340	1
2023-08-30T06:00	26109	22	-48.3	-83.8	328	1
2023-08-30T06:00	26130	22	-48.3	-83.8	310	1
2023-08-30T06:00	26156	22	-48.3	-83.8	293	1
2023-08-30T06:00	26192	22	-48.3	-83.8	280	1
2023-08-30T06:00	26219	22	-48.3	-83.8	273	2
2023-08-30T06:00	26247	22	-48.1	-83.6	272	2
2023-08-30T06:00	26270	22	-47.9	-83.5	273	2
2023-08-30T06:00	26299	22	-47.8	-83.4	272	2
2023-08-30T06:00	26323	22	-47.6	-83.3	268	2
2023-08-30T06:00	26353	22	-47.4	-83.1	261	2
2023-08-30T06:00	26384	21	-47.1	-82.9	254	2
2023-08-30T06:00	26406	21	-46.9	-82.8	247	2
2023-08-30T06:00	26433	21	-46.7	-83.7	244	2
2023-08-30T06:00	26463	21	-46.5	-83.6	244	2
2023-08-30T06:00	26492	21	-46.2	-83.4	247	2
2023-08-30T06:00	26527	21	-46.0	-83.2	253	3
2023-08-30T06:00	26554	21	-45.8	-83.1	262	3
2023-08-30T06:00	26589	21	-45.6	-82.9	272	3
2023-08-30T06:00	26612	21	-45.4	-82.8	284	3
2023-08-30T06:00	26640	21	-45.2	-82.7	298	3
2023-08-30T06:00	26671	21	-45.0	-82.5	315	2
2023-08-30T06:00	26700	20	-44.8	-82.4	333	2
2023-08-30T06:00	26730	20	-44.8	-82.4	352	2
2023-08-30T06:00	26759	20	-44.9	-82.5	7	2
2023-08-30T06:00	26789	20	-44.8	-82.4	14	2
2023-08-30T06:00	26819	20	-44.8	-82.4	14	2
2023-08-30T06:00	26849	20	-44.7	-82.3	9	2
2023-08-30T06:00	26877	20	-44.8	-82.4	1	2
2023-08-30T06:00	26910	20	-44.9	-82.5	352	2
2023-08-30T06:00	26937	20	-45.1	-81.5	346	2
2023-08-30T06:00	26966	20	-45.3	-81.6	342	2
2023-08-30T06:00	26998	20	-45.3	-81.6	340	2
2023-08-30T06:00	27029	19	-45.4	-81.7	341	2
2023-08-30T06:00	27054	19	-45.4	-81.7	342	2
2023-08-30T06:00	27087	19	-45.5	-81.8	343	2
2023-08-30T06:00	27114	19	-45.6	-81.9	342	1
2023-08-30T06:00	27147	19	-45.5	-82.9	327	1
2023-08-30T06:00	27174	19	-45.4	-82.8	215	0
2023-08-30T06:00	27208	19	-45.3	-82.7	187	1
2023-08-30T06:00	27230	19	-45.2	-82.7	180	2
2023-08-30T06:00	27262	19	-45.2	-82.7	176	3
2023-08-30T06:00	27295	19	-45.2	-82.7	172	3
2023-08-30T06:00	27324	19	-45.2	-82.7	169	4
2023-08-30T06:00	27343	19	-45.2	-82.7	165	4
2023-08-30T06:00	27378	18	-45.3	-82.7	163	4
2023-08-30T06:00	27408	18	-45.4	-82.8	161	3
2023-08-30T06:00	27440	18	-45.5	-82.9	160	3
2023-08-30T06:00	27461	18	-45.5	-82.9	161	3
2023-08-30T06:00	27495	18	-45.6	-82.9	163	3
2023-08-30T06:00	27522	18	-45.6	-82.9	170	3
2023-08-30T06:00	27540	18	-45.7	-83.0	181	3
2023-08-30T06:00	27581	18	-45.7	-83.0	195	2
2023-08-30T06:00	27604	18	-45.6	-82.9	210	2
2023-08-30T06:00	27638	18	-45.5	-82.9	223	2
2023-08-30T06:00	27664	18	-45.4	-82.8	232	2
2023-08-30T06:00	27683	18	-45.3	-82.7	237	2
2023-08-30T06:00	27725	18	-45.3	-82.7	237	2
2023-08-30T06:00	27744	17	-45.1	-82.6	231	2
2023-08-30T06:00	27781	17	-44.8	-82.4	221	2
2023-08-30T06:00	27802	17	-44.7	-82.3	212	2
2023-08-30T06:00	27825	17	-44.7	-82.3	204	2
2023-08-30T06:00	27870	17	-44.7	-82.3	196	2
2023-08-30T06:00	27892	17	-44.8	-82.4	185	2
2023-08-30T06:00	27919	17	-44.8	-82.4	172	2
2023-08-30T06:00	27957	17	-44.8	-82.4	163	3
2023-08-30T06:00	27990	17	-44.8	-82.4	157	3
2023-08-30T06:00	28021	17	-44.7	-82.3	155	4
2023-08-30T06:00	28046	17	-44.8	-82.4	153	4
2023-08-30T06:00	28084	17	-44.6	-82.2	151	4
2023-08-30T06:00	28113	17	-44.5	-82.2	148	3
2023-08-30T06:00	28134	16	-44.5	-82.2	143	2
2023-08-30T06:00	28175	16	-44.5	-82.2	133	2
2023-08-30T06:00	28207	16	-44.4	-82.1	118	2
2023-08-30T06:00	28239	16	-44.3	-82.0	105	2
2023-08-30T06:00	28260	16	-44.3	-82.0	101	2
2023-08-30T06:00	28296	16	-44.4	-82.1	103	2
2023-08-30T06:00	28337	16	-44.6	-82.2	107	3
2023-08-30T06:00	28368	16	-44.5	-82.2	112	3
2023-08-30T06:00	28387	16	-44.4	-82.1	118	4
2023-08-30T06:00	28426	16	-44.4	-82.1	125	4
2023-08-30T06:00	28464	16	-44.4	-82.1	134	4
2023-08-30T06:00	28484	16	-44.6	-82.2	142	4
2023-08-30T06:00	28522	16	-44.6	-82.2	148	5
2023-08-30T06:00	28552	16	-44.6	-82.2	152	5
2023-08-30T06:00	28585	15	-44.5	-82.2	155	5
2023-08-30T06:00	28619	15	-44.2	-82.0	157	6
2023-08-30T06:00	28651	15	-44.0	-81.8	160	6
2023-08-30T06:00	28679	15	-43.7	-81.6	163	6
2023-08-30T06:00	28712	15	-43.5	-81.5	167	7
2023-08-30T06:00	28745	15	-43.5	-81.5	170	7
2023-08-30T06:00	28785	15	-43.6	-81.5	174	8
2023-08-30T06:00	28826	15	-43.8	-81.7	176	9
2023-08-30T06:00	28854	15	-43.9	-81.8	179	9
2023-08-30T06:00	28888	15	-44.0	-81.8	182	10
2023-08-30T06:00	28913	15	-44.2	-82.0	186	10
2023-08-30T06:00	28957	15	-44.4	-82.1	189	10
2023-08-30T06:00	28982	15	-44.6	-82.2	193	10
2023-08-30T06:00	29013	14	-44.6	-82.2	196	9
2023-08-30T06:00	29038	14	-44.3	-82.0	199	9
2023-08-30T06:00	29070	14	-44.1	-81.9	199	8
2023-08-30T06:00	29101	14	-44.0	-81.8	198	7
2023-08-30T06:00	29132	14	-43.8	-81.7	195	6
2023-08-30T06:00	29157	14	-43.6	-81.5	189	5
2023-08-30T06:00	29197	14	-43.5	-81.5	182	4
2023-08-30T06:00	29226	14	-43.5	-81.5	175	4
2023-08-30T06:00	29243	14	-43.4	-81.4	172	4
2023-08-30T06:00	29280	14	-43.3	-81.3	172	4
2023-08-30T06:00	29317	14	-43.2	-81.3	175	4
2023-08-30T06:00	29341	14	-43.1	-81.2	180	4
2023-08-30T06:00	29369	14	-43.1	-81.2	187	4
2023-08-30T06:00	29400	14	-43.0	-81.1	196	4
2023-08-30T06:00	29422	14	-42.9	-81.1	205	4
2023-08-30T06:00	29444	14	-42.8	-81.0	213	5
2023-08-30T06:00	29491	14	-42.7	-80.9	220	5
2023-08-30T06:00	29508	13	-42.6	-80.8	227	6
2023-08-30T06:00	29545	13	-42.5	-80.8	232	6
2023-08-30T06:00	29562	13	-42.5	-80.8	237	7
2023-08-30T06:00	29598	13	-42.5	-80.8	241	7
2023-08-30T06:00	29625	13	-42.5	-80.8	245	7
2023-08-30T06:00	29665	13	-42.5	-80.8	248	7
2023-08-30T06:00	29686	13	-42.4	-80.7	251	7
2023-08-30T06:00	29722	13	-42.3	-80.6	254	7
2023-08-30T06:00	29742	13	-42.3	-80.6	258	6
2023-08-30T06:00	29778	13	-42.2	-80.6	265	5
2023-08-30T06:00	29810	13	-41.9	-80.4	274	5
2023-08-30T06:00	29838	13	-41.7	-80.2	284	4
2023-08-30T06:00	29886	13	-41.4	-80.0	292	5
2023-08-30T06:00	29911	13	-41.2	-79.9	298	5
2023-08-30T06:00	29944	13	-41.2	-79.9	302	5
2023-08-30T06:00	29968	13	-41.3	-79.9	306	5
2023-08-30T06:00	30009	13	-41.4	-80.0	311	5
2023-08-30T06:00	30047	12	-41.4	-80.0	317	4
2023-08-30T06:00	30076	12	-41.5	-80.1	326	4
2023-08-30T06:00	30122	12	-41.5	-80.1	335	3
2023-08-30T06:00	30138	12	-41.5	-80.1	344	3
2023-08-30T06:00	30171	12	-41.5	-80.1	350	3
2023-08-30T06:00	30222	12	-41.3	-79.9	353	3
2023-08-30T06:00	30251	12	-41.3	-79.9	356	3
2023-08-30T06:00	30282	12	-41.3	-79.9	0	3
2023-08-30T06:00	30325	12	-41.2	-79.9	7	3
2023-08-30T06:00	30339	12	-41.2	-79.9	16	3
2023-08-30T06:00	30380	12	-41.4	-80.0	27	3
2023-08-30T06:00	30417	12	-41.5	-80.1	38	3
2023-08-30T06:00	30446	12	-41.5	-80.1	50	3
2023-08-30T06:00	30476	12	-41.7	-80.2	63	3
2023-08-30T06:00	30525	12	-41.9	-80.4	77	3
2023-08-30T06:00	30563	12	-41.9	-80.4	92	2
2023-08-30T06:00	30589	11	-42.0	-80.4	109	2
2023-08-30T06:00	30618	11	-42.0	-80.4	130	2
2023-08-30T06:00	30643	11	-41.9	-80.4	154	1
2023-08-30T06:00	30685	11	-41.5	-80.1	183	1
2023-08-30T06:00	30714	11	-41.3	-79.9	216	1
2023-08-30T06:00	30726	11	-41.3	-79.9	248	1
2023-08-30T06:00	30776	11	-41.3	-79.9	273	2
2023-08-30T06:00	30808	11	-41.3	-79.9	290	2
2023-08-30T06:00	30822	11	-41.3	-79.9	302	3
2023-08-30T06:00	30858	11	-41.3	-79.9	311	3
2023-08-30T06:00	30903	11	-41.4	-80.0	318	4
2023-08-30T06:00	30937	11	-41.5	-80.1	326	3
2023-08-30T06:00	30965	11	-41.3	-79.9	336	3
2023-08-30T06:00	31001	11	-41.0	-79.7	353	2
2023-08-30T06:00	31038	11	-40.7	-79.5	24	2
2023-08-30T06:00	31061	11	-40.7	-79.5	69	2
2023-08-30T06:00	31083	11	-40.7	-79.5	99	3
2023-08-30T06:00	31125	11	-40.7	-79.5	114	3
2023-08-30T06:00	31140	11	-40.6	-79.5	124	4
2023-08-30T06:00	31152	11	-40.4	-79.3	132	5
2023-08-30T06:00	31210	10	-40.3	-79.2	138	5
2023-08-30T06:00	31227	10	-40.2	-79.2	143	5
2023-08-30T06:00	31264	10	-40.1	-79.1	147	5
2023-08-30T06:00	31288	10	-39.9	-79.0	151	4
2023-08-30T06:00	31330	10	-39.8	-78.9	155	4
2023-08-30T06:00	31343	10	-39.7	-78.8	160	3
2023-08-30T06:00	31385	10	-39.7	-78.8	166	3
2023-08-30T06:00	31407	10	-39.7	-78.8	173	3
2023-08-30T06:00	31438	10	-39.6	-78.8	181	2
2023-08-30T06:00	31466	10	-39.4	-78.6	189	2
2023-08-30T06:00	31490	10	-39.3	-78.5	197	2
2023-08-30T06:00	31530	10	-39.1	-78.4	204	1
2023-08-30T06:00	31560	10	-38.9	-78.3	212	1
2023-08-30T06:00	31581	10	-38.7	-78.1	32	0
2023-08-30T06:00	31618	10	-38.6	-78.1	39	1
2023-08-30T06:00	31644	10	-38.5	-78.0	43	3
2023-08-30T06:00	31675	10	-38.3	-77.9	47	4
2023-08-30T06:00	31707	10	-37.8	-77.5	50	5
2023-08-30T06:00	31753	10	-37.5	-77.3	54	6
2023-08-30T06:00	31761	10	-37.3	-77.2	60	6
2023-08-30T06:00	31804	10	-37.4	-77.2	67	7
2023-08-30T06:00	31822	10	-37.5	-77.3	75	7
2023-08-30T06:00	31874	10	-37.5	-77.3	83	7
2023-08-30T06:00	31900	9	-37.6	-77.4	90	7
2023-08-30T06:00	31930	9	-37.7	-77.4	97	7
2023-08-30T06:00	31961	9	-37.8	-77.5	103	8
2023-08-30T06:00	31988	9	-38.0	-77.6	110	8
2023-08-30T06:00	32027	9	-38.2	-77.8	117	8
2023-08-30T06:00	32048	9	-38.4	-77.9	124	8
2023-08-30T06:00	32098	9	-38.5	-78.0	130	8
2023-08-30T06:00	32121	9	-38.7	-78.1	135	8
2023-08-30T06:00	32150	9	-38.8	-78.2	140	8
2023-08-30T06:00	32190	9	-38.8	-78.2	144	8
2023-08-30T06:00	32205	9	-38.9	-78.3	147	7
2023-08-30T06:00	32226	9	-39.1	-78.4	148	7
2023-08-30T06:00	32286	9	-39.3	-78.5	149	7
2023-08-30T06:00	32321	9	-39.6	-78.8	147	6
2023-08-30T06:00	32336	9	-39.8	-78.9	145	6
2023-08-30T06:00	32374	9	-39.9	-79.0	140	5
2023-08-30T06:00	32405	9	-39.9	-79.0	132	5
2023-08-30T06:00	32448	9	-39.9	-79.0	122	4
2023-08-30T06:00	32482	9	-39.8	-78.9	109	4
2023-08-30T06:00	32539	9	-39.7	-78.8	87	5
2023-08-30T06:00	32568	9	-39.7	-78.8	79	5
2023-08-30T06:00	32592	9	-39.7	-78.8	75	6
2023-08-30T06:00	32610	9	-39.6	-78.8	73	7
2023-08-30T06:00	32628	9	-39.6	-78.8	74	8
2023-08-30T06:00	32697	8	-39.7	-78.8	76	9
2023-08-30T06:00	32720	8	-39.8	-78.9	80	9
2023-08-30T06:00	32740	8	-39.7	-78.8	85	10
2023-08-30T06:00	32778	8	-39.6	-78.8	89	10
2023-08-30T06:00	32780	8	-39.4	-78.6	93	11
2023-08-30T06:00	32828	8	-39.3	-78.5	97	11
2023-08-30T06:00	32856	8	-39.3	-78.5	101	11
2023-08-30T06:00	32882	8	-39.4	-78.6	104	11
2023-08-30T06:00	32919	8	-39.4	-78.6	106	11
2023-08-30T06:00	32956	8	-39.4	-78.6	108	11
2023-08-30T06:00	32969	8	-39.4	-78.6	109	10
2023-08-30T06:00	33000	8	-39.5	-78.7	108	10
2023-08-30T06:00	33040	8	-39.6	-78.8	106	11
2023-08-30T06:00	33068	8	-39.7	-78.8	104	11
2023-08-30T06:00	33095	8	-39.8	-78.9	103	11
2023-08-30T06:00	33120	8	-39.8	-78.9	103	11
2023-08-30T06:00	33138	8	-39.9	-79.0	106	11
2023-08-30T06:00	33169	8	-39.7	-78.8	110	11
2023-08-30T06:00	33205	8	-39.3	-78.5	114	10
2023-08-30T06:00	33225	8	-39.2	-78.5	119	10
2023-08-30T06:00	33255	8	-39.2	-78.5	124	10
2023-08-30T06:00	33278	8	-39.3	-78.5	129	10
2023-08-30T06:00	33315	8	-39.4	-78.6	134	10
2023-08-30T06:00	33337	8	-39.3	-78.5	138	10
2023-08-30T06:00	33354	8	-39.3	-78.5	140	10
2023-08-30T06:00	33382	8	-39.1	-78.4	140	9
2023-08-30T06:00	33395	8	-38.8	-78.2	136	9
2023-08-30T06:00	33433	8	-38.6	-78.1	130	9
2023-08-30T06:00	33479	8	-38.4	-77.9	123	8
2023-08-30T06:00	33499	8	-38.1	-77.7	114	8
2023-08-30T06:00	33534	7	-37.9	-77.6	106	8
2023-08-30T06:00	33553	7	-37.8	-77.5	100	8
2023-08-30T06:00	33590	7	-37.7	-77.4	97	9
2023-08-30T06:00	33630	7	-37.4	-77.2	97	9
2023-08-30T06:00	33657	7	-37.2	-77.1	99	10
2023-08-30T06:00	33668	7	-37.0	-77.0	102	11
2023-08-30T06:00	33712	7	-36.7	-76.7	105	12
2023-08-30T06:00	33742	7	-36.4	-76.5	108	13
2023-08-30T06:00	33761	7	-36.1	-76.3	109	13
2023-08-30T06:00	33816	7	-36.0	-76.3	110	13
2023-08-30T06:00	33840	7	-35.9	-76.2	111	13
2023-08-30T06:00	33871	7	-35.9	-76.2	110	12
2023-08-30T06:00	33897	7	-35.8	-76.1	110	12
2023-08-30T06:00	33932	7	-35.7	-76.1	109	11
2023-08-30T06:00	33994	7	-35.7	-76.1	110	11
2023-08-30T06:00	34016	7	-35.8	-76.1	111	11
2023-08-30T06:00	34046	7	-36.0	-76.3	112	10
2023-08-30T06:00	34104	7	-36.2	-76.4	114	10
2023-08-30T06:00	34124	7	-36.4	-76.5	114	9
2023-08-30T06:00	34168	7	-36.8	-76.8	114	9
2023-08-30T06:00	34216	7	-37.0	-77.0	112	9
2023-08-30T06:00	34236	7	-36.9	-76.9	110	8
2023-08-30T06:00	34267	7	-36.9	-76.9	107	8
2023-08-30T06:00	34296	7	-36.9	-76.9	105	8
2023-08-30T06:00	34324	7	-36.9	-76.9	103	8
2023-08-30T06:00	34354	7	-36.8	-76.8	101	8
2023-08-30T06:00	34404	7	-36.6	-76.7	99	8
2023-08-30T06:00	34439	7	-36.4	-76.5	97	9
2023-08-30T06:00	34461	7	-36.2	-76.4	96	9
2023-08-30T06:00	34504	7	-35.9	-76.2	95	9
2023-08-30T06:00	34535	6	-35.8	-76.1	95	10
2023-08-30T06:00	34567	6	-35.7	-76.1	96	10
2023-08-30T06:00	34576	6	-35.4	-75.8	99	10
2023-08-30T06:00	34603	6	-35.2	-75.7	103	10
2023-08-30T06:00	34624	6	-35.0	-75.6	107	11
2023-08-30T06:00	34650	6	-34.9	-75.5	112	11
2023-08-30T06:00	34684	6	-35.0	-75.6	117	11
2023-08-30T06:00	34725	6	-35.1	-75.6	121	12
2023-08-30T06:00	34759	6	-35.2	-75.7	124	12
2023-08-30T06:00	34798	6	-35.2	-75.7	127	11
2023-08-30T06:00	34813	6	-35.2	-75.7	128	11
2023-08-30T06:00	34877	6	-35.0	-75.6	127	11
2023-08-30T06:00	34878	6	-34.6	-75.3	123	11
2023-08-30T06:00	34930	6	-34.4	-75.2	121	10
2023-08-30T06:00	34936	6	-34.2	-75.0	119	11
2023-08-30T06:00	34990	6	-34.0	-74.9	117	11
2023-08-30T06:00	35012	6	-33.9	-74.8	115	11
2023-08-30T06:00	35035	6	-33.7	-74.7	114	12
2023-08-30T06:00	35056	6	-33.5	-74.5	113	12
2023-08-30T06:00	35078	6	-33.2	-74.3	114	13
2023-08-30T06:00	35108	6	-33.0	-74.2	115	14
2023-08-30T06:00	35122	6	-32.8	-74.1	116	14
2023-08-30T06:00	35153	6	-32.8	-74.1	117	15
2023-08-30T06:00	35203	6	-32.8	-74.1	119	15
2023-08-30T06:00	35233	6	-32.9	-74.1	121	15
2023-08-30T06:00	35258	6	-33.2	-74.3	125	15
2023-08-30T06:00	35301	6	-33.2	-74.3	130	14
2023-08-30T06:00	35335	6	-33.3	-74.4	132	14
2023-08-30T06:00	35377	6	-33.4	-74.5	133	13
2023-08-30T06:00	35398	6	-33.5	-74.5	134	13
2023-08-30T06:00	35429	6	-33.6	-74.6	133	12
2023-08-30T06:00	35460	6	-33.6	-74.6	132	11
2023-08-30T06:00	35478	6	-33.6	-74.6	131	11
2023-08-30T06:00	35524	6	-33.7	-74.7	129	11
2023-08-30T06:00	35530	6	-33.7	-74.7	128	11
2023-08-30T06:00	35583	6	-33.6	-74.6	128	11
2023-08-30T12:00	112	994	17.3	12.2	330	1
2023-08-30T12:00	137	992	16.4	11.4	307	0
2023-08-30T12:00	160	989	16.0	11.2	284	0
2023-08-30T12:00	180	986	15.8	11.1	263	0
2023-08-30T12:00	205	984	15.7	11.1	255	1
2023-08-30T12:00	235	980	15.4	11.1	251	1
2023-08-30T12:00	260	977	15.1	11.0	244	1
2023-08-30T12:00	286	974	14.9	11.1	234	1
2023-08-30T12:00	315	971	14.6	11.0	225	1
2023-08-30T12:00	347	967	14.3	11.1	226	1
2023-08-30T12:00	371	965	14.0	10.9	239	1
2023-08-30T12:00	396	962	13.8	10.8	256	1
2023-08-30T12:00	417	959	13.6	10.8	269	2
2023-08-30T12:00	436	957	13.4	10.8	275	2
2023-08-30T12:00	463	954	13.2	10.8	277	2
2023-08-30T12:00	493	951	12.8	10.7	275	2
2023-08-30T12:00	515	948	12.7	10.8	269	1
2023-08-30T12:00	542	945	12.4	10.5	257	1
2023-08-30T12:00	572	942	12.3	10.1	239	1
2023-08-30T12:00	602	939	11.9	10.1	228	1
2023-08-30T12:00	627	935	11.6	10.6	234	1
2023-08-30T12:00	661	932	11.3	10.6	249	1
2023-08-30T12:00	686	929	11.1	9.6	263	2
2023-08-30T12:00	703	927	11.1	8.3	271	3
2023-08-30T12:00	715	926	11.1	8.0	276	3
2023-08-30T12:00	736	924	11.2	6.5	281	4
2023-08-30T12:00	756	921	11.4	4.1	286	4
2023-08-30T12:00	780	919	11.2	4.0	291	4
2023-08-30T12:00	795	917	11.1	3.8	298	3
2023-08-30T12:00	821	914	11.0	3.6	306	3
2023-08-30T12:00	842	912	10.8	3.6	315	3
2023-08-30T12:00	864	909	10.7	3.5	323	3
2023-08-30T12:00	886	907	10.7	2.2	329	3
2023-08-30T12:00	904	905	10.6	1.9	333	3
2023-08-30T12:00	922	903	10.5	2.1	335	3
2023-08-30T12:00	943	901	10.3	2.0	336	3
2023-08-30T12:00	967	898	10.2	2.1	334	3
2023-08-30T12:00	993	896	9.9	3.4	331	3
2023-08-30T12:00	1013	893	9.7	5.5	327	3
2023-08-30T12:00	1035	891	9.6	3.9	324	3
2023-08-30T12:00	1065	888	9.6	4.2	321	4
2023-08-30T12:00	1086	886	9.4		319	4
2023-08-30T12:00	1107	883	9.1	3.8	316	4
2023-08-30T12:00	1128	881	9.0	2.4	312	5
2023-08-30T12:00	1152	879	8.9	2.2	308	5
2023-08-30T12:00	1169	877	8.7	1.7	303	5
2023-08-30T12:00	1184	875	8.7	0.3	300	5
2023-08-30T12:00	1209	873	8.5	2.1	298	5
2023-08-30T12:00	1225	871	8.4	2.3	299	5
2023-08-30T12:00	1250	868	8.3	2.5	303	4
2023-08-30T12:00	1273	866	8.1	1.9	309	4
2023-08-30T12:00	1293	864	8.1	1.6	315	4
2023-08-30T12:00	1311	862	7.9	1.3	319	4
2023-08-30T12:00	1329	860	7.9	0.7	318	4
2023-08-30T12:00	1350	858	7.8		313	4
2023-08-30T12:00	1373	855	7.6	1.5	306	4
2023-08-30T12:00	1396	853	7.4	1.2	298	5
2023-08-30T12:00	1413	851	7.3	1.0	292	5
2023-08-30T12:00	1434	849	7.2	1.1	288	5
2023-08-30T12:00	1451	847	7.0	1.5	287	5
2023-08-30T12:00	1473	845	6.9	1.5	290	5
2023-08-30T12:00	1492	843	6.7	1.6	294	5
2023-08-30T12:00	1517	841	6.6	1.0	297	5
2023-08-30T12:00	1539	838	6.5	0.8	298	5
2023-08-30T12:00	1562	836	6.4	0.6	299	6
2023-08-30T12:00	1589	833	6.2	0.1	299	6
2023-08-30T12:00	1616	830	6.0	0.0	301	6
2023-08-30T12:00	1638	828	5.7	0.0	301	6
2023-08-30T12:00	1660	826	5.6	-0.2	300	6
2023-08-30T12:00	1679	824	5.6	-1.1	297	6
2023-08-30T12:00	1705	822	5.3	-1.4	293	6
2023-08-30T12:00	1725	819	5.2	-2.1	289	7
2023-08-30T12:00	1747	817	5.0	-2.3	287	7
2023-08-30T12:00	1771	815	4.9	-3.1	289	7
2023-08-30T12:00	1799	812	4.8	-3.6	293	7
2023-08-30T12:00	1820	810	4.6	-3.3	299	6
2023-08-30T12:00	1844	808	4.5	-3.0	305	6
2023-08-30T12:00	1868	805	4.4	-2.3	310	5
2023-08-30T12:00	1885	803	4.2	-1.9	312	5
2023-08-30T12:00	1907	801	4.1	-1.6	310	5
2023-08-30T12:00	1926	799	4.0	-1.1	304	5
2023-08-30T12:00	1951	797	4.0	-1.6	298	4
2023-08-30T12:00	1976	795	4.1	-2.3	294	4
2023-08-30T12:00	2000	792	4.0	-2.2	293	4
2023-08-30T12:00	2025	790	3.9	-2.2	295	4
2023-08-30T12:00	2050	787	3.7	-1.9	298	4
2023-08-30T12:00	2070	785	3.6	-1.9	300	4
2023-08-30T12:00	2091	783	3.6	-1.9	301	4
2023-08-30T12:00	2111	781	3.4	-1.5	301	5
2023-08-30T12:00	2130	780	3.3	-1.1	301	5
2023-08-30T12:00	2148	778	3.1	-0.8	300	5
2023-08-30T12:00	2168	776	3.0	-0.8	296	4
2023-08-30T12:00	2185	774	2.8	-0.9	289	4
2023-08-30T12:00	2205	772	2.6	-1.1	281	4
2023-08-30T12:00	2229	770	2.4	-1.3	276	4
2023-08-30T12:00	2251	768	2.2	-1.3	275	4
2023-08-30T12:00	2274	766	2.0	-0.8	276	4
2023-08-30T12:00	2294	764	1.8	-0.1	279	5
2023-08-30T12:00	2313	762	1.7	0.4	282	5
2023-08-30T12:00	2332	760	1.6	1.0	285	5
2023-08-30T12:00	2352	758	1.4	0.8	288	6
2023-08-30T12:00	2377	756	1.3	0.7	289	6
2023-08-30T12:00	2403	754	1.3	0.8	290	5
2023-08-30T12:00	2431	751	1.1	0.4	289	5
2023-08-30T12:00	2458	749	1.0	0.2	290	5
2023-08-30T12:00	2477	747	1.0	0.3	291	5
2023-08-30T12:00	2495	745	1.0		292	5
2023-08-30T12:00	2513	743	0.9	0.1	292	5
2023-08-30T12:00	2544	741	0.8	0.1	287	4
2023-08-30T12:00	2565	739	0.7	0.1	275	4
2023-08-30T12:00	2592	736	0.6	0.0	258	4
2023-08-30T12:00	2610	735	0.4	-0.2	241	4
2023-08-30T12:00	2629	733	0.3	-0.3	232	5
2023-08-30T12:00	2648	731	0.3	-0.6	230	5
2023-08-30T12:00	2669	729	0.2	-0.9	233	5
2023-08-30T12:00	2690	727	0.1	-0.8	237	5
2023-08-30T12:00	2709	726	0.0	-0.7	242	5
2023-08-30T12:00	2729	724	-0.1	-0.8	245	5
2023-08-30T12:00	2748	722	-0.3	-0.9	244	5
2023-08-30T12:00	2767	720	-0.4	-0.9	240	5
2023-08-30T12:00	2798	718	-0.5	-0.8	232	5
2023-08-30T12:00	2814	716	-0.7	-1.0	225	5
2023-08-30T12:00	2833	714	-0.8	-1.1	220	6
2023-08-30T12:00	2857	712	-1.0	-1.1	216	6
2023-08-30T12:00	2878	710	-1.2	-1.4	214	7
2023-08-30T12:00	2897	709	-1.3	-1.6	213	7
2023-08-30T12:00	2915	707	-1.4	-1.6	213	7
2023-08-30T12:00	2935	705	-1.5	-1.7	214	7
2023-08-30T12:00	2952	704	-1.6	-1.7	215	7
2023-08-30T12:00	2976	702	-1.7	-1.8	217	7
2023-08-30T12:00	3006	699	-1.8	-1.9	218	7
2023-08-30T12:00	3030	697	-1.9	-2.2	219	6
2023-08-30T12:00	3054	695	-2.0	-2.3	221	6
2023-08-30T12:00	3074	693	-2.2	-2.4	222	6
2023-08-30T12:00	3097	691	-2.4	-2.6	222	5
2023-08-30T12:00	3119	689	-2.5	-2.6	221	5
2023-08-30T12:00	3141	687	-2.7	-2.7	219	5
2023-08-30T12:00	3166	685	-2.7	-2.7	217	6
2023-08-30T12:00	3196	683	-2.8	-2.9	217	6
2023-08-30T12:00	3217	681	-3.0	-3.0	219	6
2023-08-30T12:00	3240	679	-3.1	-3.1	222	7
2023-08-30T12:00	3259	677	-3.3	-3.3	226	7
2023-08-30T12:00	3277	676	-3.4	-3.4	228	8
2023-08-30T12:00	3295	674	-3.5	-3.5	229	8
2023-08-30T12:00	3314	672	-3.6	-3.6	228	8
2023-08-30T12:00	3336	671	-3.8	-3.8	226	8
2023-08-30T12:00	3357	669	-3.9	-3.9	223	8
2023-08-30T12:00	3376	667	-4.0	-4.1	220	8
2023-08-30T12:00	3395	666	-3.7	-4.0	217	8
2023-08-30T12:00	3421	664	-3.4	-3.7	213	8
2023-08-30T12:00	3437	662	-2.8	-3.5	209	7
2023-08-30T12:00	3465	660	-2.3	-3.7	203	7
2023-08-30T12:00	3482	658	-2.4	-3.9	197	8
2023-08-30T12:00	3507	656	-2.4	-3.7	192	8
2023-08-30T12:00	3526	655	-2.5	-3.8	190	8
2023-08-30T12:00	3546	653	-2.6	-3.8	191	8
2023-08-30T12:00	3563	652	-2.7	-3.9	195	7
2023-08-30T12:00	3586	650	-2.8	-4.2	201	7
2023-08-30T12:00	3607	648	-3.0	-4.1	207	7
2023-08-30T12:00	3626	647	-3.1	-4.3	210	7
2023-08-30T12:00	3643	645	-3.2	-4.3	211	7
2023-08-30T12:00	3666	643	-3.3	-4.5	210	7
2023-08-30T12:00	3686	642	-3.4	-4.7	210	7
2023-08-30T12:00	3712	640	-3.5	-5.1	210	7
2023-08-30T12:00	3728	638	-3.6	-5.1	209	7
2023-08-30T12:00	3747	637	-3.6	-5.7	208	7
2023-08-30T12:00	3769	635	-3.8	-5.9	205	7
2023-08-30T12:00	3787	634	-4.0	-6.1	203	7
2023-08-30T12:00	3804	632	-4.1	-6.3	203	7
2023-08-30T12:00	3822	631	-4.1	-6.2	205	8
2023-08-30T12:00	3841	629	-4.4	-6.5	207	8
2023-08-30T12:00	3861	628	-4.5	-7.1	210	9
2023-08-30T12:00	3881	626	-4.6	-7.0	211	10
2023-08-30T12:00	3899	625	-4.7	-6.7	211	10
2023-08-30T12:00	3916	623	-4.7	-6.7	211	10
2023-08-30T12:00	3939	621	-4.8	-7.0	210	10
2023-08-30T12:00	3959	620	-5.0	-7.1	210	9
2023-08-30T12:00	3978	618	-5.1	-7.3	210	8
2023-08-30T12:00	4002	616	-5.2	-7.7	212	8
2023-08-30T12:00	4029	615	-5.2	-8.3	214	7
2023-08-30T12:00	4042	613	-5.3	-8.2	217	7
2023-08-30T12:00	4065	612	-5.3	-8.3	219	7
2023-08-30T12:00	4085	610	-5.6	-8.4	220	7
2023-08-30T12:00	4104	608	-5.7	-8.6	219	7
2023-08-30T12:00	4125	607	-5.7	-8.6	220	7
2023-08-30T12:00	4142	606	-5.9	-8.7	222	7
2023-08-30T12:00	4161	604	-6.1	-8.6	226	7
2023-08-30T12:00	4178	603	-6.2	-8.8	231	8
2023-08-30T12:00	4196	601	-6.4	-8.8	233	9
2023-08-30T12:00	4216	600	-6.5	-8.8	233	10
2023-08-30T12:00	4242	598	-6.6	-8.6	231	10
2023-08-30T12:00	4259	597	-6.9	-8.8	228	10
2023-08-30T12:00	4283	595	-6.9	-8.8	225	10
2023-08-30T12:00	4303	593	-7.2	-9.0	223	10
2023-08-30T12:00	4315	592	-7.2	-9.1	222	10
2023-08-30T12:00	4336	591	-7.4	-9.4	223	9
2023-08-30T12:00	4360	589	-7.5	-9.5	225	9
2023-08-30T12:00	4374	588	-7.7	-9.7	227	9
2023-08-30T12:00	4396	586	-7.8	-10.0	227	9
2023-08-30T12:00	4416	585	-8.0	-10.0	227	9
2023-08-30T12:00	4437	583	-8.1	-10.2	226	10
2023-08-30T12:00	4463	581	-8.3	-10.5	225	10
2023-08-30T12:00	4482	580	-8.5	-10.6	225	10
2023-08-30T12:00	4500	578	-8.5	-10.7	224	10
2023-08-30T12:00	4525	577	-8.8	-10.6	223	10
2023-08-30T12:00	4544	575	-8.9	-10.9	222	10
2023-08-30T12:00	4567	573	-9.2	-11.1	222	10
2023-08-30T12:00	4588	572	-9.2	-10.9	223	9
2023-08-30T12:00	4613	570	-9.5	-11.3	223	9
2023-08-30T12:00	4633	568	-9.6	-11.3	223	8
2023-08-30T12:00	4660	567	-9.8	-11.5	221	8
2023-08-30T12:00	4674	565	-10.0	-11.6	218	8
2023-08-30T12:00	4695	564	-10.2	-11.8	216	8
2023-08-30T12:00	4721	562	-10.4	-12.0	215	8
2023-08-30T12:00	4742	561	-10.5	-12.2	214	8
2023-08-30T12:00	4763	559	-10.5	-12.2	213	8
2023-08-30T12:00	4790	557	-10.7	-12.1	212	9
2023-08-30T12:00	4810	555	-10.9	-12.1	210	10
2023-08-30T12:00	4840	554	-11.2	-12.1	208	11
2023-08-30T12:00	4865	552	-11.4	-12.4	207	12
2023-08-30T12:00	4887	550	-11.5	-12.6	205	12
2023-08-30T12:00	4911	548	-11.8		202	13
2023-08-30T12:00	4934	547	-12.0	-12.9	199	13
2023-08-30T12:00	4956	545	-12.2	-13.2	197	12
2023-08-30T12:00	4976	544	-12.4	-13.2	195	12
2023-08-30T12:00	4997	542	-12.5	-13.5	194	12
2023-08-30T12:00	5029	540	-12.7	-13.5	196	12
2023-08-30T12:00	5054	538	-13.0	-13.6	198	11
2023-08-30T12:00	5075	537	-13.2	-13.7	201	11
2023-08-30T12:00	5100	535	-13.5	-13.7	202	11
2023-08-30T12:00	5114	534	-13.7	-13.8	202	10
2023-08-30T12:00	5135	533	-13.7	-13.8	200	9
2023-08-30T12:00	5156	531	-13.8	-14.0	198	9
2023-08-30T12:00	5177	530	-13.7	-14.2	196	8
2023-08-30T12:00	5198	528	-13.5	-15.2	194	8
2023-08-30T12:00	5218	527	-13.6	-15.7	192	7
2023-08-30T12:00	5249	525	-13.7	-16.0	189	7
2023-08-30T12:00	5272	523	-13.9	-16.4	187	7
2023-08-30T12:00	5298	521	-14.1	-16.4	185	7
2023-08-30T12:00	5329	519	-14.2	-16.8	184	8
2023-08-30T12:00	5348	518	-14.4	-16.9	184	8
2023-08-30T12:00	5373	516	-14.6	-17.5	184	9
2023-08-30T12:00	5393	515	-14.6	-18.1	183	10
2023-08-30T12:00	5411	513	-14.6	-18.6	182	10
2023-08-30T12:00	5432	512	-14.7	-19.0	182	10
2023-08-30T12:00	5453	511	-14.9	-19.4	185	10
2023-08-30T12:00	5477	509	-15.1	-20.1	188	10
2023-08-30T12:00	5504	507	-15.3	-20.7	192	10
2023-08-30T12:00	5528	506	-15.4	-21.1	195	10
2023-08-30T12:00	5542	505	-15.6	-21.4	195	10
2023-08-30T12:00	5562	503	-15.5	-22.3	194	10
2023-08-30T12:00	5580	502	-15.2	-25.1	192	10
2023-08-30T12:00	5601	501	-15.3	-25.5	191	10
2023-08-30T12:00	5621	499	-15.2	-27.2	190	11
2023-08-30T12:00	5643	498	-15.2	-28.7	191	11
2023-08-30T12:00	5662	497	-15.3	-29.2	193	11
2023-08-30T12:00	5686	495	-15.4	-27.6	196	11
2023-08-30T12:00	5707	494	-15.6	-26.6	199	11
2023-08-30T12:00	5728	492	-15.7	-26.8	202	11
2023-08-30T12:00	5755	491	-15.9	-28.1	204	10
2023-08-30T12:00	5774	489	-16.0	-23.2	204	10
2023-08-30T12:00	5791	488	-16.0	-23.4	203	10
2023-08-30T12:00	5817	487	-16.2	-23.0	202	10
2023-08-30T12:00	5837	485	-16.3	-23.5	200	10
2023-08-30T12:00	5859	484	-16.3	-24.4	199	10
2023-08-30T12:00	5880	483	-16.5	-23.6	198	10
2023-08-30T12:00	5901	481	-16.7	-26.0	199	10
2023-08-30T12:00	5921	480	-16.7	-26.6	199	10
2023-08-30T12:00	5945	478	-16.9	-25.4	200	10
2023-08-30T12:00	5971	477	-17.1	-25.6	201	11
2023-08-30T12:00	5990	475	-17.3	-26.1	202	11
2023-08-30T12:00	6014	474	-17.4	-27.0	202	11
2023-08-30T12:00	6037	473	-17.6	-27.4	203	11
2023-08-30T12:00	6059	471	-17.9	-28.6	202	11
2023-08-30T12:00	6086	470	-18.1	-28.3	201	11
2023-08-30T12:00	6102	468	-18.2	-29.2	199	10
2023-08-30T12:00	6128	467	-18.3	-29.7	198	11
2023-08-30T12:00	6153	465	-18.6	-30.4	196	11
2023-08-30T12:00	6172	464	-18.8		196	11
2023-08-30T12:00	6192	463	-18.9	-30.0	196	12
2023-08-30T12:00	6212	462	-19.1	-31.0	196	12
2023-08-30T12:00	6230	460	-19.3	-32.1	195	12
2023-08-30T12:00	6250	459	-19.4	-32.3	195	11
2023-08-30T12:00	6272	458	-19.6	-30.0	193	11
2023-08-30T12:00	6290	457	-19.8	-30.3	191	11
2023-08-30T12:00	6310	456	-19.9	-30.9	190	11
2023-08-30T12:00	6334	454	-20.2	-29.8	188	11
2023-08-30T12:00	6364	452	-20.5	-29.7	187	11
2023-08-30T12:00	6383	451	-20.7	-29.7	187	11
2023-08-30T12:00	6403	450	-20.7	-30.4	188	11
2023-08-30T12:00	6423	449	-20.8	-31.2	189	11
2023-08-30T12:00	6444	447	-21.1	-30.0	190	11
2023-08-30T12:00	6463	446	-21.3	-30.2	190	11
2023-08-30T12:00	6484	445	-21.4	-30.2	191	12
2023-08-30T12:00	6501	444	-21.6	-29.2	191	12
2023-08-30T12:00	6519	443	-21.7	-28.9	191	12
2023-08-30T12:00	6538	442	-21.8	-27.7	191	12
2023-08-30T12:00	6555	441	-21.8	-27.3	191	12
2023-08-30T12:00	6575	440	-21.9	-28.0	191	12
2023-08-30T12:00	6595	438	-22.1	-26.2	192	11
2023-08-30T12:00	6617	437	-22.2	-26.6	194	11
2023-08-30T12:00	6635	436	-22.2	-27.6	195	11
2023-08-30T12:00	6663	434	-22.4	-27.6	196	12
2023-08-30T12:00	6684	433	-22.6	-27.7	195	12
2023-08-30T12:00	6701	432	-22.7	-27.6	194	12
2023-08-30T12:00	6720	431	-22.8	-27.5	191	12
2023-08-30T12:00	6741	430	-23.0	-27.8	189	11
2023-08-30T12:00	6761	428	-23.2	-28.4	187	11
2023-08-30T12:00	6783	427	-23.4	-28.7	187	11
2023-08-30T12:00	6802	426	-23.6	-28.4	187	11
2023-08-30T12:00	6825	425	-23.7	-28.4	188	11
2023-08-30T12:00	6845	424	-23.9	-28.5	188	11
2023-08-30T12:00	6869	422	-24.1	-28.6	187	11
2023-08-30T12:00	6889	421	-24.2	-28.6	185	11
2023-08-30T12:00	6910	420	-24.3	-28.0	182	11
2023-08-30T12:00	6930	419	-24.5	-28.0	180	10
2023-08-30T12:00	6952	417	-24.7	-28.0	178	10
2023-08-30T12:00	6973	416	-24.9	-28.2	178	10
2023-08-30T12:00	6995	415	-25.0	-28.0	179	11
2023-08-30T12:00	7023	413	-25.2	-27.9	179	11
2023-08-30T12:00	7048	412	-25.5	-28.0	179	12
2023-08-30T12:00	7073	411	-25.8	-28.4	179	12
2023-08-30T12:00	7090	410	-25.9	-28.3	178	13
2023-08-30T12:00	7108	409	-26.0	-28.4	177	13
2023-08-30T12:00	7129	407	-26.3	-28.2	177	12
2023-08-30T12:00	7150	406	-26.4	-28.7	176	12
2023-08-30T12:00	7167	405	-26.6	-28.9	176	12
2023-08-30T12:00	7191	404	-26.7	-29.0	177	12
2023-08-30T12:00	7211	403	-26.9	-29.2	178	12
2023-08-30T12:00	7237	401	-27.0	-29.3	180	12
2023-08-30T12:00	7263	400	-27.3	-29.3	182	12
2023-08-30T12:00	7284	399	-27.6	-29.5	185	12
2023-08-30T12:00	7306	398	-27.8	-29.5	187	12
2023-08-30T12:00	7326	396	-28.0	-29.6	188	11
2023-08-30T12:00	7349	395	-28.1	-29.7	188	11
2023-08-30T12:00	7368	394	-28.3	-29.8	186	10
2023-08-30T12:00	7391	393	-28.6	-29.9	184	10
2023-08-30T12:00	7411	392	-28.7	-30.2	182	10
2023-08-30T12:00	7432	391	-28.9	-30.3	181	10
2023-08-30T12:00	7451	390	-29.0	-30.4	181	10
2023-08-30T12:00	7472	388	-29.2	-30.5	181	11
2023-08-30T12:00	7495	387	-29.3	-30.8	180	11
2023-08-30T12:00	7517	386	-29.6	-30.8	180	11
2023-08-30T12:00	7535	385	-29.7	-30.7	179	11
2023-08-30T12:00	7553	384	-29.9	-31.0	178	11
2023-08-30T12:00	7579	383	-30.0	-31.2	177	11
2023-08-30T12:00	7604	381	-30.4	-31.3	175	11
2023-08-30T12:00	7629	380	-30.6	-31.5	174	11
2023-08-30T12:00	7647	379	-30.7	-31.6	172	11
2023-08-30T12:00	7666	378	-30.8	-32.4	172	11
2023-08-30T12:00	7686	377	-30.8	-32.5	172	12
2023-08-30T12:00	7704	376	-31.1	-32.6	173	12
2023-08-30T12:00	7729	375	-31.2	-33.2	174	12
2023-08-30T12:00	7749	374	-31.3	-33.1	176	11
2023-08-30T12:00	7770	373	-31.5	-33.0	176	11
2023-08-30T12:00	7792	371	-31.7	-33.4	177	11
2023-08-30T12:00	7818	370	-31.9	-33.8	178	11
2023-08-30T12:00	7837	369	-32.1	-34.2	179	11
2023-08-30T12:00	7853	368	-32.1	-34.4	180	11
2023-08-30T12:00	7884	367	-32.4	-34.3	181	12
2023-08-30T12:00	7905	365	-32.6	-34.9	181	12
2023-08-30T12:00	7930	364	-32.6	-35.0	179	12
2023-08-30T12:00	7958	363	-32.8	-34.9	177	13
2023-08-30T12:00	7975	362	-33.0	-35.1	175	13
2023-08-30T12:00	7998	361	-33.1	-35.2	174	14
2023-08-30T12:00	8018	360	-33.3	-35.3	173	14
2023-08-30T12:00	8039	359	-33.5	-35.3	173	15
2023-08-30T12:00	8059	357	-33.7	-35.3	172	15
2023-08-30T12:00	8080	356	-33.9	-35.8	173	15
2023-08-30T12:00	8101	355	-34.0	-36.9	173	15
2023-08-30T12:00	8133	354	-34.1	-37.8	175	15
2023-08-30T12:00	8153	353	-34.3	-38.2	177	15
2023-08-30T12:00	8173	352	-34.6	-38.2	178	15
2023-08-30T12:00	8190	351	-34.6	-38.5	178	15
2023-08-30T12:00	8213	350	-34.9	-38.6	177	15
2023-08-30T12:00	8235	349	-35.0	-39.3	176	15
2023-08-30T12:00	8254	348	-35.2	-39.3	174	15
2023-08-30T12:00	8278	346	-35.3	-39.9	174	15
2023-08-30T12:00	8298	345	-35.5	-40.6	174	16
2023-08-30T12:00	8324	344	-35.7	-41.1	175	16
2023-08-30T12:00	8344	343	-35.8	-41.2	176	16
2023-08-30T12:00	8364	342	-36.0	-41.2	177	16
2023-08-30T12:00	8383	341	-36.1	-42.0	177	16
2023-08-30T12:00	8404	340	-36.2	-42.2	178	17
2023-08-30T12:00	8423	339	-36.3	-42.3	179	17
2023-08-30T12:00	8447	338	-36.5	-42.5	180	17
2023-08-30T12:00	8468	337	-36.6	-42.7	180	17
2023-08-30T12:00	8490	336	-36.8	-42.7	180	18
2023-08-30T12:00	8514	335	-37.2	-42.7	179	18
2023-08-30T12:00	8532	334	-37.4	-43.3	177	18
2023-08-30T12:00	8559	333	-37.6	-43.5	174	18
2023-08-30T12:00	8585	332	-37.7	-44.0	172	18
2023-08-30T12:00	8609	330	-37.8	-44.7	170	19
2023-08-30T12:00	8628	329	-37.9	-44.6	170	19
2023-08-30T12:00	8647	329	-38.1	-44.2	171	19
2023-08-30T12:00	8664	328	-38.3	-44.4	172	19
2023-08-30T12:00	8688	327	-38.4	-44.8	173	19
2023-08-30T12:00	8708	326	-38.6	-45.0	173	20
2023-08-30T12:00	8724	325	-38.7	-45.1	173	20
2023-08-30T12:00	8748	324	-38.8	-45.5	172	20
2023-08-30T12:00	8768	323	-39.0	-45.7	172	20
2023-08-30T12:00	8788	322	-39.1	-45.6	172	20
2023-08-30T12:00	8808	321	-39.2	-45.8	173	20
2023-08-30T12:00	8829	320	-39.4	-45.9	173	20
2023-08-30T12:00	8856	319	-39.7	-45.9	174	20
2023-08-30T12:00	8877	318	-39.8	-46.6	174	20
2023-08-30T12:00	8900	317	-40.0	-46.8	175	20
2023-08-30T12:00	8922	316	-40.0	-47.5	175	20
2023-08-30T12:00	8943	315	-40.3	-48.1	176	20
2023-08-30T12:00	8963	314	-40.5	-47.8	176	20
2023-08-30T12:00	8984	313	-40.6	-47.5	177	20
2023-08-30T12:00	9004	312	-40.7	-47.7	177	21
2023-08-30T12:00	9025	311	-40.9	-47.8	178	21
2023-08-30T12:00	9048	310	-41.2	-48.0	179	20
2023-08-30T12:00	9068	309	-41.3	-48.4	179	20
2023-08-30T12:00	9091	308	-41.4	-48.9	179	20
2023-08-30T12:00	9110	307	-41.6	-48.9	178	20
2023-08-30T12:00	9134	306	-41.8	-49.0	177	20
2023-08-30T12:00	9154	305	-41.8	-48.6	177	21
2023-08-30T12:00	9172	304	-42.1	-48.3	177	21
2023-08-30T12:00	9196	303	-42.3	-48.2	178	21
2023-08-30T12:00	9216	302	-42.5	-48.8	178	21
2023-08-30T12:00	9236	301	-42.7	-49.2	179	21
2023-08-30T12:00	9258	300	-42.8	-49.8	179	21
2023-08-30T12:00	9280	299	-42.9	-50.2	178	21
2023-08-30T12:00	9298	299	-43.2	-50.0	178	21
2023-08-30T12:00	9318	298	-43.3	-50.1	177	20
2023-08-30T12:00	9337	297	-43.5	-50.2	177	20
2023-08-30T12:00	9358	296	-43.7	-50.2	177	20
2023-08-30T12:00	9380	295	-43.9	-50.3	177	20
2023-08-30T12:00	9401	294	-43.9	-50.6	177	20
2023-08-30T12:00	9423	293	-44.2	-50.8	176	20
2023-08-30T12:00	9446	292	-44.4	-50.8	176	20
2023-08-30T12:00	9475	291	-44.7	-51.0	175	20
2023-08-30T12:00	9498	290	-44.9	-51.4	175	20
2023-08-30T12:00	9525	289	-45.1	-51.8	175	21
2023-08-30T12:00	9547	288	-45.2	-51.3	176	21
2023-08-30T12:00	9575	287	-45.4	-51.3	176	21
2023-08-30T12:00	9600	285	-45.7	-51.4	176	21
2023-08-30T12:00	9621	284	-45.9	-51.5	175	20
2023-08-30T12:00	9642	284	-46.0	-51.2	174	20
2023-08-30T12:00	9666	283	-46.3	-51.2	173	20
2023-08-30T12:00	9690	282	-46.5	-51.3	172	19
2023-08-30T12:00	9709	281	-46.8	-51.6	171	19
2023-08-30T12:00	9729	280	-46.8	-51.5	171	19
2023-08-30T12:00	9750	279	-47.0	-51.6	171	19
2023-08-30T12:00	9767	278	-47.2	-51.9	172	19
2023-08-30T12:00	9788	277	-47.3	-52.1	172	20
2023-08-30T12:00	9809	277	-47.5	-52.3	172	20
2023-08-30T12:00	9829	276	-47.7	-52.4	172	20
2023-08-30T12:00	9850	275	-47.9	-52.6	171	20
2023-08-30T12:00	9868	274	-47.9	-53.0	171	20
2023-08-30T12:00	9892	273	-48.0	-53.3	171	20
2023-08-30T12:00	9913	272	-48.2	-53.4	170	20
2023-08-30T12:00	9936	271	-48.4	-53.3	170	20
2023-08-30T12:00	9961	270	-48.7	-53.6	170	20
2023-08-30T12:00	9979	269	-48.7	-53.7	170	19
2023-08-30T12:00	9999	269	-48.9	-53.7	169	19
2023-08-30T12:00	10021	268	-49.1		169	19
2023-08-30T12:00	10039	267	-49.4	-53.7	168	19
2023-08-30T12:00	10062	266	-49.4	-54.0	167	19
2023-08-30T12:00	10082	265	-49.7	-54.3	166	19
2023-08-30T12:00	10102	264	-49.7	-54.2	166	19
2023-08-30T12:00	10122	264	-49.9	-54.3	167	20
2023-08-30T12:00	10143	263	-50.1	-54.4	168	20
2023-08-30T12:00	10170	262	-50.1	-54.5	170	20
2023-08-30T12:00	10195	261	-50.3	-54.8	172	21
2023-08-30T12:00	10218	260	-50.3	-55.1	173	21
2023-08-30T12:00	10250	259	-50.3	-55.5	174	20
2023-08-30T12:00	10272	258	-50.4	-55.6	175	20
2023-08-30T12:00	10293	257	-50.6	-55.5	175	20
2023-08-30T12:00	10312	256	-50.7	-55.6	175	20
2023-08-30T12:00	10331	255	-50.7	-55.7	175	20
2023-08-30T12:00	10354	254	-51.0	-55.9	176	21
2023-08-30T12:00	10375	254	-51.3	-55.9	176	21
2023-08-30T12:00	10396	253	-51.5	-56.0	177	21
2023-08-30T12:00	10414	252	-51.6	-56.2	178	21
2023-08-30T12:00	10437	251	-51.5	-56.4	180	22
2023-08-30T12:00	10456	250	-51.7	-56.7	181	22
2023-08-30T12:00	10477	250	-51.6	-56.6	183	22
2023-08-30T12:00	10502	249	-51.7	-56.7	185	22
2023-08-30T12:00	10524	248	-51.9	-57.0	187	22
2023-08-30T12:00	10548	247	-51.9	-57.2	189	22
2023-08-30T12:00	10569	246	-52.0	-57.3	190	22
2023-08-30T12:00	10593	245	-52.1	-57.6	190	23
2023-08-30T12:00	10612	245	-52.0	-58.1	191	23
2023-08-30T12:00	10631	244	-51.8	-59.1	190	22
2023-08-30T12:00	10657	243	-51.2	-60.5	190	22
2023-08-30T12:00	10680	242	-50.7	-62.4	190	22
2023-08-30T12:00	10705	241	-49.5	-63.3	191	21
2023-08-30T12:00	10724	240	-49.5	-63.3	192	21
2023-08-30T12:00	10748	239	-49.5	-62.6	192	21
2023-08-30T12:00	10773	239	-49.8	-62.4	193	21
2023-08-30T12:00	10799	238	-50.0	-62.4	193	21
2023-08-30T12:00	10820	237	-50.1	-62.3	193	21
2023-08-30T12:00	10848	236	-50.4	-62.2	192	21
2023-08-30T12:00	10868	235	-50.6	-62.0	192	20
2023-08-30T12:00	10890	234	-50.7	-61.9	192	20
2023-08-30T12:00	10908	234	-51.0	-62.0	192	20
2023-08-30T12:00	10927	233	-51.0	-62.1	191	19
2023-08-30T12:00	10948	232	-51.1	-62.6	191	19
2023-08-30T12:00	10971	231	-50.6	-63.2	189	19
2023-08-30T12:00	10990	231	-50.1	-64.0	188	18
2023-08-30T12:00	11012	230	-50.1	-64.8	186	18
2023-08-30T12:00	11031	229	-49.8	-65.3	183	18
2023-08-30T12:00	11051	229	-49.6	-65.8	181	18
2023-08-30T12:00	11069	228	-49.6	-66.3	179	18
2023-08-30T12:00	11089	227	-49.2	-66.4	177	18
2023-08-30T12:00	11109	227	-48.9	-66.8	175	18
2023-08-30T12:00	11133	226	-48.9	-67.2	172	19
2023-08-30T12:00	11160	225	-48.9	-67.4	170	19
2023-08-30T12:00	11182	224	-48.7	-67.7	168	19
2023-08-30T12:00	11206	223	-48.8	-67.9	166	19
2023-08-30T12:00	11224	223	-48.9	-67.9	166	20
2023-08-30T12:00	11245	222	-49.0	-68.2	167	20
2023-08-30T12:00	11264	221	-48.8	-68.5	169	19
2023-08-30T12:00	11282	221	-48.8	-69.0	172	19
2023-08-30T12:00	11304	220	-48.3	-69.4	176	19
2023-08-30T12:00	11325	219	-48.0	-70.1	179	19
2023-08-30T12:00	11346	219	-47.8	-70.7	182	19
2023-08-30T12:00	11373	218	-47.6	-70.8	185	19
2023-08-30T12:00	11392	217	-47.9	-71.0	187	19
2023-08-30T12:00	11409	216	-47.8	-71.1	189	20
2023-08-30T12:00	11428	216	-47.8	-71.3	190	20
2023-08-30T12:00	11445	215	-47.9	-71.5	190	20
2023-08-30T12:00	11462	215	-47.9	-71.7	190	20
2023-08-30T12:00	11482	214	-47.9	-72.0	189	20
2023-08-30T12:00	11502	213	-47.8	-72.5	187	20
2023-08-30T12:00	11523	213	-47.3	-72.9	185	20
2023-08-30T12:00	11546	212	-47.0	-73.3	183	20
2023-08-30T12:00	11569	211	-46.9	-73.7	180	21
2023-08-30T12:00	11592	211	-47.0	-73.8	178	21
2023-08-30T12:00	11617	210	-47.1	-73.9	177	22
2023-08-30T12:00	11636	209	-47.2	-73.9	175	22
2023-08-30T12:00	11655	209	-47.2	-74.2	175	23
2023-08-30T12:00	11672	208	-47.3	-74.3	175	23
2023-08-30T12:00	11694	207	-47.3	-74.5	175	23
2023-08-30T12:00	11712	207	-47.4	-74.9	176	23
2023-08-30T12:00	11734	206	-47.4	-75.2	176	22
2023-08-30T12:00	11755	205	-47.6	-75.3	177	22
2023-08-30T12:00	11775	205	-47.5	-75.5	178	22
2023-08-30T12:00	11796	204	-47.2	-75.3	180	21
2023-08-30T12:00	11815	204	-47.1	-75.2	181	21
2023-08-30T12:00	11837	203	-46.8	-75.3	183	21
2023-08-30T12:00	11859	202	-46.8	-75.6	184	21
2023-08-30T12:00	11878	202	-46.9	-75.7	186	21
2023-08-30T12:00	11901	201	-46.9	-75.7	187	21
2023-08-30T12:00	11920	200	-46.8	-76.0	188	21
2023-08-30T12:00	11945	200	-46.9	-76.4	188	21
2023-08-30T12:00	11965	199	-46.7	-76.3	189	21
2023-08-30T12:00	11989	198	-46.7	-76.3	189	21
2023-08-30T12:00	12013	198	-46.8	-76.3	189	21
2023-08-30T12:00	12033	197	-46.8	-76.3	189	21
2023-08-30T12:00	12055	196	-46.7	-76.7	189	21
2023-08-30T12:00	12076	196	-46.7	-76.7	188	21
2023-08-30T12:00	12097	195	-46.8		187	21
2023-08-30T12:00	12120	194	-46.9	-76.8	186	21
2023-08-30T12:00	12143	194	-46.7	-77.1	185	21
2023-08-30T12:00	12163	193	-46.6	-77.4	184	21
2023-08-30T12:00	12185	193	-46.5	-77.3	183	21
2023-08-30T12:00	12205	192	-46.6	-77.4	182	21
2023-08-30T12:00	12224	191	-46.7	-77.5	181	21
2023-08-30T12:00	12244	191	-46.8	-77.6	181	21
2023-08-30T12:00	12263	190	-46.9	-77.6	181	21
2023-08-30T12:00	12285	190	-47.1	-77.8	181	21
2023-08-30T12:00	12304	189	-47.0	-77.7	182	22
2023-08-30T12:00	12323	189	-46.7	-78.0	182	22
2023-08-30T12:00	12344	188	-46.5	-77.8	184	22
2023-08-30T12:00	12362	187	-46.3	-77.7	185	22
2023-08-30T12:00	12381	187	-46.3	-77.7	186	22
2023-08-30T12:00	12402	186	-46.2	-78.1	186	22
2023-08-30T12:00	12419	186	-45.8	-77.3	187	22
2023-08-30T12:00	12439	185	-45.7	-77.2	188	22
2023-08-30T12:00	12456	185	-45.5	-77.6	188	22
2023-08-30T12:00	12474	184	-45.5	-77.6	189	22
2023-08-30T12:00	12491	184	-45.3	-77.4	189	22
2023-08-30T12:00	12507	183	-45.3	-77.4	189	22
2023-08-30T12:00	12528	183	-45.4	-77.5	189	22
2023-08-30T12:00	12545	182	-45.5	-77.6	189	23
2023-08-30T12:00	12563	182	-45.5	-77.6	189	23
2023-08-30T12:00	12583	181	-45.6	-77.6	189	23
2023-08-30T12:00	12604	181	-45.9	-77.9	189	23
2023-08-30T12:00	12623	180	-45.9	-77.9	189	24
2023-08-30T12:00	12641	180	-46.1	-78.0	189	24
2023-08-30T12:00	12663	179	-46.1	-78.0	188	23
2023-08-30T12:00	12681	179	-46.3	-78.2	188	23
2023-08-30T12:00	12703	178	-46.2	-78.1	187	23
2023-08-30T12:00	12724	178	-46.0	-77.9	186	23
2023-08-30T12:00	12742	177	-46.2	-78.6	185	22
2023-08-30T12:00	12761	177	-46.2	-78.6	185	22
2023-08-30T12:00	12780	176	-46.2	-78.1	185	22
2023-08-30T12:00	12800	176	-46.2	-78.1	184	21
2023-08-30T12:00	12818	175	-46.2	-78.6	184	21
2023-08-30T12:00	12835	175	-46.3	-78.7	184	21
2023-08-30T12:00	12855	174	-46.5	-78.3	185	21
2023-08-30T12:00	12876	174	-46.7	-78.4	186	21
2023-08-30T12:00	12898	173	-46.7	-78.4	187	21
2023-08-30T12:00	12917	172	-46.9	-78.6	188	21
2023-08-30T12:00	12937	172	-47.2	-78.8	189	20
2023-08-30T12:00	12958	171	-47.2	-78.8	190	21
2023-08-30T12:00	12978	171	-47.3	-78.9	191	21
2023-08-30T12:00	12998	170	-47.2	-78.8	191	21
2023-08-30T12:00	13016	170	-47.3	-78.9	190	21
2023-08-30T12:00	13040	169	-47.4	-79.0	190	21
2023-08-30T12:00	13062	169	-47.4	-79.0	190	22
2023-08-30T12:00	13081	168	-47.5	-79.0	191	22
2023-08-30T12:00	13104	168	-47.6	-79.1	192	22
2023-08-30T12:00	13128	167	-47.6	-79.1	193	22
2023-08-30T12:00	13148	167	-47.7		194	22
2023-08-30T12:00	13169	166	-47.7		195	22
2023-08-30T12:00	13191	165	-47.8	-79.3	196	21
2023-08-30T12:00	13213	165	-47.8	-79.3	196	21
2023-08-30T12:00	13233	164	-47.8	-79.3	197	21
2023-08-30T12:00	13256	164	-47.8	-79.3	198	20
2023-08-30T12:00	13276	163	-47.9	-79.3	199	20
2023-08-30T12:00	13300	163	-48.1	-79.5	199	20
2023-08-30T12:00	13323	162	-48.3	-79.6	200	20
2023-08-30T12:00	13343	162	-48.3	-79.6	199	20
2023-08-30T12:00	13364	161	-48.5	-79.8	199	20
2023-08-30T12:00	13383	161	-48.5	-79.8	199	20
2023-08-30T12:00	13404	160	-48.4	-79.7	199	20
2023-08-30T12:00	13427	160	-48.5	-79.8	200	21
2023-08-30T12:00	13450	159	-48.7	-79.9	200	21
2023-08-30T12:00	13471	159	-48.8	-80.0	201	21
2023-08-30T12:00	13497	158	-48.7	-79.9	202	20
2023-08-30T12:00	13520	157	-48.6	-79.9	202	20
2023-08-30T12:00	13541	157	-48.4	-79.7	202	19
2023-08-30T12:00	13565	156	-48.5	-79.8	202	19
2023-08-30T12:00	13587	156	-48.5	-79.8	203	18
2023-08-30T12:00	13611	155	-48.6	-79.9	203	18
2023-08-30T12:00	13635	155	-48.8	-80.0	205	17
2023-08-30T12:00	13657	154	-48.8	-80.0	207	16
2023-08-30T12:00	13682	154	-48.7	-79.9	209	16
2023-08-30T12:00	13703	153	-48.5	-79.8	209	15
2023-08-30T12:00	13725	153	-48.5	-79.8	209	15
2023-08-30T12:00	13747	152	-48.6	-79.9	206	15
2023-08-30T12:00	13768	152	-48.7	-79.9	203	15
2023-08-30T12:00	13789	151	-48.7	-79.9	200	15
2023-08-30T12:00	13810	151	-48.8	-80.0	198	16
2023-08-30T12:00	13833	150	-48.9	-80.1	196	16
2023-08-30T12:00	13855	150	-48.8	-80.0	195	16
2023-08-30T12:00	13877	149	-48.8	-80.0	194	16
2023-08-30T12:00	13901	149	-49.0	-80.2	194	16
2023-08-30T12:00	13922	148	-49.1	-80.2	193	16
2023-08-30T12:00	13945	148	-49.2	-80.3	193	16
2023-08-30T12:00	13965	147	-49.2	-80.3	193	16
2023-08-30T12:00	13986	147	-49.4	-80.5	192	16
2023-08-30T12:00	14007	146	-49.6	-80.6	191	16
2023-08-30T12:00	14028	146	-49.7	-80.2	191	16
2023-08-30T12:00	14052	145	-49.8	-80.3	190	17
2023-08-30T12:00	14074	145	-50.0	-80.4	189	17
2023-08-30T12:00	14092	144	-50.2	-80.6	189	18
2023-08-30T12:00	14118	144	-50.2	-80.6	189	18
2023-08-30T12:00	14141	143	-50.3	-80.6	190	18
2023-08-30T12:00	14163	143	-50.3	-80.6	191	19
2023-08-30T12:00	14183	142	-50.4	-80.7	192	19
2023-08-30T12:00	14207	142	-50.4	-80.7	193	19
2023-08-30T12:00	14228	141	-50.5	-80.8	193	19
2023-08-30T12:00	14249	141	-50.6	-80.9	194	20
2023-08-30T12:00	14273	140	-50.4	-80.7	194	20
2023-08-30T12:00	14294	140	-50.4	-80.7	194	20
2023-08-30T12:00	14313	139	-50.4	-80.7	193	20
2023-08-30T12:00	14336	139	-50.3	-80.6	193	20
2023-08-30T12:00	14359	138	-50.4	-80.7	192	20
2023-08-30T12:00	14382	138	-50.4	-80.7	192	20
2023-08-30T12:00	14401	138	-50.3	-80.6	191	20
2023-08-30T12:00	14420	137	-50.3	-80.6	191	20
2023-08-30T12:00	14440	137	-50.3	-80.6	191	20
2023-08-30T12:00	14461	136	-50.3	-80.6	191	20
2023-08-30T12:00	14480	136	-50.1	-80.5	193	20
2023-08-30T12:00	14505	135	-50.2	-80.6	195	20
2023-08-30T12:00	14526	135	-50.3	-80.6	197	20
2023-08-30T12:00	14548	135	-50.2	-80.6	199	20
2023-08-30T12:00	14570	134	-50.2	-80.6	202	20
2023-08-30T12:00	14589	134	-50.5	-80.8	204	20
2023-08-30T12:00	14613	133	-50.4	-80.7	205	20
2023-08-30T12:00	14632	133	-50.3	-80.6	206	20
2023-08-30T12:00	14651	132	-50.4	-80.7	207	19
2023-08-30T12:00	14672	132	-50.3	-80.6	207	19
2023-08-30T12:00	14693	132	-50.3	-80.6	206	18
2023-08-30T12:00	14714	131	-50.3	-80.6	205	18
2023-08-30T12:00	14734	131	-50.2	-81.0	204	17
2023-08-30T12:00	14757	130	-50.3	-81.1	203	17
2023-08-30T12:00	14778	130	-50.5	-81.3	202	16
2023-08-30T12:00	14800	129	-50.5	-81.3	202	16
2023-08-30T12:00	14821	129	-50.5	-81.3	202	16
2023-08-30T12:00	14839	129	-50.5	-81.3	202	16
2023-08-30T12:00	14862	128	-50.5	-81.3	201	16
2023-08-30T12:00	14886	128	-50.4	-81.7	199	16
2023-08-30T12:00	14907	127	-50.3	-81.6	198	16
2023-08-30T12:00	14927	127	-50.0	-81.4	196	16
2023-08-30T12:00	14949	127	-50.0	-81.4	194	17
2023-08-30T12:00	14973	126	-50.0	-81.4	192	17
2023-08-30T12:00	14993	126	-50.2		191	17
2023-08-30T12:00	15016	125	-50.3	-81.6	190	17
2023-08-30T12:00	15038	125	-50.4	-81.7	188	17
2023-08-30T12:00	15063	124	-50.5	-81.8	187	17
2023-08-30T12:00	15084	124	-50.4	-81.7	185	18
2023-08-30T12:00	15108	123	-50.3	-81.6	184	18
2023-08-30T12:00	15125	123	-50.4	-81.7	183	18
2023-08-30T12:00	15146	123	-50.4	-81.7	183	18
2023-08-30T12:00	15169	122	-50.5	-81.8	183	18
2023-08-30T12:00	15187	122	-50.5	-81.8	184	18
2023-08-30T12:00	15210	122	-50.5	-81.8	184	19
2023-08-30T12:00	15230	121	-50.3	-81.6	185	19
2023-08-30T12:00	15253	121	-50.3	-81.6	185	19
2023-08-30T12:00	15278	120	-50.2	-82.1	185	20
2023-08-30T12:00	15299	120	-49.9	-81.9	186	20
2023-08-30T12:00	15321	119	-49.7	-81.8	186	21
2023-08-30T12:00	15345	119	-49.6	-81.7	186	21
2023-08-30T12:00	15367	119	-49.3	-81.5	186	21
2023-08-30T12:00	15388	118	-49.3	-81.5	186	21
2023-08-30T12:00	15412	118	-49.4	-81.6	186	21
2023-08-30T12:00	15436	117	-49.5	-81.6	187	20
2023-08-30T12:00	15460	117	-49.6	-81.7	187	20
2023-08-30T12:00	15479	117	-49.9	-81.9	187	20
2023-08-30T12:00	15499	116	-50.0	-81.4	187	19
2023-08-30T12:00	15521	116	-50.2		187	19
2023-08-30T12:00	15546	115	-50.3	-81.6	187	19
2023-08-30T12:00	15568	115	-50.3	-81.6	187	19
2023-08-30T12:00	15590	115	-50.0	-82.0	187	19
2023-08-30T12:00	15608	114	-49.5	-81.6	187	19
2023-08-30T12:00	15630	114	-49.3	-81.5	188	19
2023-08-30T12:00	15654	114	-49.5	-82.3	188	19
2023-08-30T12:00	15675	113	-49.5	-81.6	188	19
2023-08-30T12:00	15701	113	-49.7	-81.8	188	19
2023-08-30T12:00	15723	112	-49.9	-81.9	189	19
2023-08-30T12:00	15741	112	-50.1	-82.1	189	19
2023-08-30T12:00	15767	112	-50.1	-82.1	190	18
2023-08-30T12:00	15788	111	-50.2	-82.1	191	18
2023-08-30T12:00	15810	111	-50.4	-82.3	192	19
2023-08-30T12:00	15831	111	-50.6	-82.4	192	19
2023-08-30T12:00	15852	110	-50.7		193	19
2023-08-30T12:00	15874	110	-50.9	-82.1	193	18
2023-08-30T12:00	15896	109	-51.1	-82.2	194	18
2023-08-30T12:00	15921	109	-51.4	-82.5	194	18
2023-08-30T12:00	15942	109	-51.6	-82.6	195	18
2023-08-30T12:00	15963	108	-51.6	-82.6	196	18
2023-08-30T12:00	15988	108	-51.7	-82.7	196	18
2023-08-30T12:00	16007	108	-52.0	-82.4	197	17
2023-08-30T12:00	16033	107	-52.3	-82.6	197	17
2023-08-30T12:00	16053	107	-52.5	-82.8	197	17
2023-08-30T12:00	16078	106	-52.6	-82.8	197	17
2023-08-30T12:00	16098	106	-52.7	-82.9	198	17
2023-08-30T12:00	16124	106	-52.9	-83.1	198	16
2023-08-30T12:00	16146	105	-53.1	-83.2	199	16
2023-08-30T12:00	16170	105	-53.3		199	16
2023-08-30T12:00	16192	105	-53.3		200	16
2023-08-30T12:00	16214	104	-53.4	-83.4	200	17
2023-08-30T12:00	16239	104	-53.5	-83.5	199	17
2023-08-30T12:00	16263	103	-53.8	-83.7	198	17
2023-08-30T12:00	16284	103	-53.8	-83.7	197	17
2023-08-30T12:00	16308	103	-53.7	-83.7	196	18
2023-08-30T12:00	16331	102	-53.7	-83.7	195	18
2023-08-30T12:00	16349	102	-53.6	-83.6	194	18
2023-08-30T12:00	16373	102	-53.8	-83.7	192	18
2023-08-30T12:00	16391	101	-53.8	-83.7	191	18
2023-08-30T12:00	16416	101	-53.9	-83.8	190	17
2023-08-30T12:00	16436	101	-53.9	-83.8	190	17
2023-08-30T12:00	16457	100	-53.6	-84.1	189	17
2023-08-30T12:00	16478	100	-53.6	-83.6	189	17
2023-08-30T12:00	16500	100	-53.7	-83.7	189	17
2023-08-30T12:00	16523	99	-53.6	-83.6	190	17
2023-08-30T12:00	16548	99	-53.6	-83.6	191	17
2023-08-30T12:00	16567	99	-53.8	-83.7	191	17
2023-08-30T12:00	16590	98	-53.8	-83.7	192	18
2023-08-30T12:00	16612	98	-53.9	-83.8	193	18
2023-08-30T12:00	16635	98	-54.1	-84.0	195	18
2023-08-30T12:00	16658	97	-54.2	-84.0	197	18
2023-08-30T12:00	16680	97	-54.4	-84.2	199	18
2023-08-30T12:00	16707	97	-54.6	-84.3	201	18
2023-08-30T12:00	16722	96	-54.8	-84.5	204	18
2023-08-30T12:00	16745	96	-54.7	-84.4	207	18
2023-08-30T12:00	16764	96	-54.6	-84.3	209	18
2023-08-30T12:00	16787	95	-54.4	-84.2	211	18
2023-08-30T12:00	16811	95	-54.2	-84.5	213	18
2023-08-30T12:00	16833	95	-54.1	-84.5	215	18
2023-08-30T12:00	16853	94	-54.3	-84.6	217	18
2023-08-30T12:00	16879	94	-54.4	-84.7	218	18
2023-08-30T12:00	16904	94	-54.4	-84.2	220	17
2023-08-30T12:00	16925	93	-54.4	-84.2	221	17
2023-08-30T12:00	16949	93	-54.5	-84.3	222	17
2023-08-30T12:00	16974	93	-54.6	-84.3	223	16
2023-08-30T12:00	16995	92	-54.6	-84.3	224	16
2023-08-30T12:00	17018	92	-54.8	-84.5	225	15
2023-08-30T12:00	17037	92	-54.9	-84.6	227	15
2023-08-30T12:00	17062	91	-54.8	-84.5	228	15
2023-08-30T12:00	17084	91	-54.9	-84.6	229	14
2023-08-30T12:00	17109	91	-54.9	-84.6	230	13
2023-08-30T12:00	17132	90	-55.1	-84.7	230	13
2023-08-30T12:00	17153	90	-55.1	-84.7	228	12
2023-08-30T12:00	17175	90	-55.1	-84.7	226	11
2023-08-30T12:00	17199	89	-54.8	-85.0	224	10
2023-08-30T12:00	17221	89	-54.5	-84.8	220	9
2023-08-30T12:00	17245	89	-54.4	-84.7	217	9
2023-08-30T12:00	17268	88	-54.3	-84.6	213	9
2023-08-30T12:00	17287	88	-54.3	-84.6	211	9
2023-08-30T12:00	17310	88	-54.5	-84.8	209	10
2023-08-30T12:00	17332	88	-54.5	-84.8	208	10
2023-08-30T12:00	17355	87	-54.4	-84.7	208	10
2023-08-30T12:00	17378	87	-54.1	-84.5	209	10
2023-08-30T12:00	17403	87	-53.9	-84.9	210	10
2023-08-30T12:00	17424	86	-53.7	-84.7	211	9
2023-08-30T12:00	17449	86	-53.8	-84.8	213	9
2023-08-30T12:00	17470	86	-53.8	-84.8	214	9
2023-08-30T12:00	17494	85	-54.0	-84.9	215	9
2023-08-30T12:00	17518	85	-54.1	-84.5	215	9
2023-08-30T12:00	17540	85	-54.1	-84.5	214	10
2023-08-30T12:00	17564	84	-54.0	-84.4	212	10
2023-08-30T12:00	17584	84	-53.9	-84.3	209	10
2023-08-30T12:00	17608	84	-53.9	-84.3	207	10
2023-08-30T12:00	17630	84	-54.1	-84.5	204	11
2023-08-30T12:00	17660	83	-54.3	-84.6	202	11
2023-08-30T12:00	17683	83	-54.4	-84.7	201	11
2023-08-30T12:00	17707	83	-54.5	-84.8	200	12
2023-08-30T12:00	17731	82	-54.6	-84.8	200	12
2023-08-30T12:00	17751	82	-54.6	-84.8	201	12
2023-08-30T12:00	17772	82	-54.7	-84.9	202	12
2023-08-30T12:00	17794	81	-54.7	-84.9	204	12
2023-08-30T12:00	17818	81	-54.9	-85.1	206	12
2023-08-30T12:00	17841	81	-55.1	-85.2	210	12
2023-08-30T12:00	17866	81	-55.1	-85.2	213	12
2023-08-30T12:00	17887	80	-55.3	-85.4	216	12
2023-08-30T12:00	17912	80	-55.3	-85.4	220	12
2023-08-30T12:00	17934	80	-55.0	-85.1	224	11
2023-08-30T12:00	17955	79	-54.7	-84.9	227	11
2023-08-30T12:00	17976	79	-54.7	-85.5	230	10
2023-08-30T12:00	17997	79	-54.7	-85.5	230	9
2023-08-30T12:00	18023	79	-54.6	-85.4	228	9
2023-08-30T12:00	18046	78	-54.5	-85.3	224	8
2023-08-30T12:00	18069	78	-54.3	-85.2	218	8
2023-08-30T12:00	18094	78	-54.1	-85.0	213	7
2023-08-30T12:00	18112	77	-54.0	-84.9	209	7
2023-08-30T12:00	18135	77	-53.9	-84.9	206	7
2023-08-30T12:00	18156	77	-53.9	-84.9	202	7
2023-08-30T12:00	18177	77	-54.0	-84.9	198	7
2023-08-30T12:00	18200	76	-53.9	-84.9	194	7
2023-08-30T12:00	18224	76	-53.6	-84.6	189	7
2023-08-30T12:00	18247	76	-53.5	-84.6	186	7
2023-08-30T12:00	18270	76	-53.4	-85.1	185	7
2023-08-30T12:00	18290	75	-53.4	-85.1	185	7
2023-08-30T12:00	18311	75	-53.3	-85.0	185	7
2023-08-30T12:00	18332	75	-53.4	-85.1	186	7
2023-08-30T12:00	18354	75	-53.3	-85.0	186	7
2023-08-30T12:00	18373	74	-53.4	-85.1	187	7
2023-08-30T12:00	18395	74	-53.3	-85.0	188	7
2023-08-30T12:00	18419	74	-53.3	-84.4	189	6
2023-08-30T12:00	18439	74	-53.2	-84.4	190	6
2023-08-30T12:00	18463	73	-53.4	-84.5	190	5
2023-08-30T12:00	18487	73	-53.6	-84.6	188	5
2023-08-30T12:00	18508	73	-53.8	-84.8	182	5
2023-08-30T12:00	18540	73	-53.8	-84.8	173	4
2023-08-30T12:00	18563	72	-53.7	-84.7	161	4
2023-08-30T12:00	18586	72	-53.7	-84.7	152	4
2023-08-30T12:00	18610	72	-53.7	-84.7	150	3
2023-08-30T12:00	18631	71	-53.6	-84.6	155	3
2023-08-30T12:00	18655	71	-53.5	-84.6	168	3
2023-08-30T12:00	18678	71	-53.5	-85.2	185	3
2023-08-30T12:00	18704	71	-53.5	-85.2	199	3
2023-08-30T12:00	18721	70	-53.3	-85.0	209	4
2023-08-30T12:00	18744	70	-52.9	-84.7	215	4
2023-08-30T12:00	18767	70	-52.6	-84.5	219	4
2023-08-30T12:00	18791	70	-52.5	-84.4	223	5
2023-08-30T12:00	18813	69	-52.4	-84.4	226	5
2023-08-30T12:00	18839	69	-52.6	-84.5	230	5
2023-08-30T12:00	18859	69	-52.6	-84.5	234	5
2023-08-30T12:00	18882	69	-52.7	-84.6	239	5
2023-08-30T12:00	18902	68	-52.7	-84.6	245	5
2023-08-30T12:00	18931	68	-52.5	-84.4	252	4
2023-08-30T12:00	18955	68	-52.5	-84.4	261	4
2023-08-30T12:00	18980	68	-52.6	-84.5	270	4
2023-08-30T12:00	19000	67	-52.6	-84.5	276	4
2023-08-30T12:00	19024	67	-52.6	-84.5	280	4
2023-08-30T12:00	19048	67	-52.7	-84.6	281	4
2023-08-30T12:00	19071	67	-52.8	-84.7	280	4
2023-08-30T12:00	19094	67	-52.9	-84.7	275	3
2023-08-30T12:00	19119	66	-52.9	-84.7	265	3
2023-08-30T12:00	19144	66	-52.9	-84.7	248	2
2023-08-30T12:00	19170	66	-53.2	-84.4	225	2
2023-08-30T12:00	19199	65	-53.2	-84.4	198	2
2023-08-30T12:00	19229	65	-53.1	-84.3	173	2
2023-08-30T12:00	19256	65	-53.3	-84.4	155	3
2023-08-30T12:00	19281	65	-53.4	-84.5	144	3
2023-08-30T12:00	19308	64	-53.6	-84.6	139	4
2023-08-30T12:00	19334	64	-53.7	-84.7	138	5
2023-08-30T12:00	19359	64	-53.8	-84.8	140	6
2023-08-30T12:00	19380	64	-53.7	-85.3	144	7
2023-08-30T12:00	19404	63	-53.3	-85.0	147	8
2023-08-30T12:00	19424	63	-52.9	-84.7	151	8
2023-08-30T12:00	19444	63	-52.7	-84.6	154	8
2023-08-30T12:00	19469	63	-52.6	-85.2	158	8
2023-08-30T12:00	19493	63	-52.3	-85.0	161	8
2023-08-30T12:00	19516	62	-52.1	-84.8	165	8
2023-08-30T12:00	19541	62	-52.0	-84.8	169	8
2023-08-30T12:00	19565	62	-52.1	-84.8	174	8
2023-08-30T12:00	19590	62	-52.1	-84.2	179	8
2023-08-30T12:00	19613	61	-52.2	-84.2	183	8
2023-08-30T12:00	19637	61	-52.5	-84.4	187	8
2023-08-30T12:00	19660	61	-52.5	-84.4	191	8
2023-08-30T12:00	19688	61	-52.7	-84.6	194	8
2023-08-30T12:00	19704	60	-52.9	-84.7	196	8
2023-08-30T12:00	19727	60	-52.9	-84.7	198	8
2023-08-30T12:00	19751	60	-52.8	-84.7	201	8
2023-08-30T12:00	19777	60	-52.9	-84.7	204	8
2023-08-30T12:00	19802	60	-52.9	-84.7	208	8
2023-08-30T12:00	19826	59	-53.0	-84.8	211	8
2023-08-30T12:00	19849	59	-53.1	-84.9	215	8
2023-08-30T12:00	19871	59	-52.9	-84.7	217	7
2023-08-30T12:00	19898	59	-52.9	-84.7	218	7
2023-08-30T12:00	19919	59	-52.9	-84.7	218	6
2023-08-30T12:00	19943	58	-52.9	-84.7	218	6
2023-08-30T12:00	19967	58	-52.8	-84.7	216	5
2023-08-30T12:00	19992	58	-52.9	-84.7	214	4
2023-08-30T12:00	20016	58	-53.1	-84.9	210	3
2023-08-30T12:00	20041	57	-53.1	-84.9	205	3
2023-08-30T12:00	20061	57	-53.0	-84.8	196	2
2023-08-30T12:00	20088	57	-52.9	-84.7	185	2
2023-08-30T12:00	20116	57	-53.1	-84.9	173	2
2023-08-30T12:00	20136	57	-53.2	-84.4	162	2
2023-08-30T12:00	20162	56	-53.3	-84.4	154	2
2023-08-30T12:00	20184	56	-53.4	-84.5	150	3
2023-08-30T12:00	20209	56	-53.5	-84.6	150	3
2023-08-30T12:00	20234	56	-53.9	-84.9	152	3
2023-08-30T12:00	20255	56	-54.0	-84.9	154	3
2023-08-30T12:00	20283	55	-54.1	-85.0	156	4
2023-08-30T12:00	20307	55	-54.1	-85.0	156	4
2023-08-30T12:00	20332	55	-54.2	-85.1	155	4
2023-08-30T12:00	20354	55	-54.1	-85.0	154	3
2023-08-30T12:00	20380	54	-54.1	-85.0	152	3
2023-08-30T12:00	20404	54	-53.9	-85.5	151	3
2023-08-30T12:00	20428	54	-53.9	-85.5	150	3
2023-08-30T12:00	20454	54	-53.8	-85.4	147	4
2023-08-30T12:00	20481	54	-53.7	-85.3	141	4
2023-08-30T12:00	20507	53	-53.4	-85.1	134	4
2023-08-30T12:00	20534	53	-53.1	-84.9	128	5
2023-08-30T12:00	20557	53	-53.3	-85.0	122	5
2023-08-30T12:00	20589	53	-53.3	-85.0	119	6
2023-08-30T12:00	20608	53	-53.4	-85.1	118	6
2023-08-30T12:00	20629	52	-53.6	-84.6	118	7
2023-08-30T12:00	20658	52	-53.7	-84.7	119	7
2023-08-30T12:00	20687	52	-53.9	-84.9	121	7
2023-08-30T12:00	20710	52	-54.0	-84.9	124	8
2023-08-30T12:00	20734	52	-54.1	-85.0	126	8
2023-08-30T12:00	20755	51	-54.3	-85.2	129	9
2023-08-30T12:00	20782	51	-54.4	-85.2	132	9
2023-08-30T12:00	20803	51	-54.6	-85.4	135	9
2023-08-30T12:00	20829	51	-54.7	-85.5	139	9
2023-08-30T12:00	20852	51	-54.8	-85.5	142	9
2023-08-30T12:00	20879	50	-54.6	-85.4	146	9
2023-08-30T12:00	20905	50	-54.1	-85.6	150	9
2023-08-30T12:00	20934	50	-53.8	-85.4	155	9
2023-08-30T12:00	20956	50	-53.6	-85.3	159	9
2023-08-30T12:00	20983	50	-53.6	-85.3	163	8
2023-08-30T12:00	21009	49	-53.6	-85.3	164	8
2023-08-30T12:00	21039	49	-53.8	-85.4	165	8
2023-08-30T12:00	21058	49	-53.8	-84.8	165	8
2023-08-30T12:00	21083	49	-53.8	-84.8	165	7
2023-08-30T12:00	21112	49	-53.8	-84.8	166	7
2023-08-30T12:00	21132	48	-53.7	-85.3	168	6
2023-08-30T12:00	21160	48	-53.8	-85.4	171	6
2023-08-30T12:00	21183	48	-53.7	-85.3	175	5
2023-08-30T12:00	21207	48	-53.7	-85.3	180	4
2023-08-30T12:00	21234	48	-53.7	-85.3	185	4
2023-08-30T12:00	21261	48	-53.6	-85.3	190	4
2023-08-30T12:00	21281	47	-53.5	-85.2	193	4
2023-08-30T12:00	21304	47	-53.5	-85.2	195	4
2023-08-30T12:00	21334	47	-53.3	-85.0	195	4
2023-08-30T12:00	21360	47	-53.0	-84.8	193	4
2023-08-30T12:00	21382	47	-52.9	-84.7	190	4
2023-08-30T12:00	21408	46	-53.0	-84.8	186	4
2023-08-30T12:00	21433	46	-53.0	-84.8	182	4
2023-08-30T12:00	21456	46	-53.0	-84.8	178	3
2023-08-30T12:00	21477	46	-52.8	-84.7	175	3
2023-08-30T12:00	21503	46	-52.7	-84.6	174	2
2023-08-30T12:00	21527	46	-52.6	-85.2	177	2
2023-08-30T12:00	21556	45	-52.4	-85.1	180	2
2023-08-30T12:00	21573	45	-52.3	-85.0	177	1
2023-08-30T12:00	21599	45	-52.3	-85.0	163	1
2023-08-30T12:00	21620	45	-52.2	-84.9	147	2
2023-08-30T12:00	21645	45	-51.9	-84.7	136	2
2023-08-30T12:00	21666	45	-51.9	-84.7	131	3
2023-08-30T12:00	21696	44	-51.9	-84.7	128	4
2023-08-30T12:00	21714	44	-51.8	-84.6	126	5
2023-08-30T12:00	21741	44	-51.7	-84.5	124	6
2023-08-30T12:00	21765	44	-51.5	-84.4	123	6
2023-08-30T12:00	21792	44	-51.6	-84.5	123	7
2023-08-30T12:00	21812	44	-51.6	-84.5	123	8
2023-08-30T12:00	21838	43	-51.3	-84.3	124	8
2023-08-30T12:00	21861	43	-51.4	-84.3	125	8
2023-08-30T12:00	21884	43	-51.6	-84.5	126	9
2023-08-30T12:00	21905	43	-51.7	-84.5	127	9
2023-08-30T12:00	21934	43	-51.9	-84.0	128	10
2023-08-30T12:00	21959	43	-52.0	-84.1	130	10
2023-08-30T12:00	21985	42	-52.1	-84.2	133	10
2023-08-30T12:00	22011	42	-52.4	-84.4	137	9
2023-08-30T12:00	22036	42	-52.5	-84.4	142	8
2023-08-30T12:00	22065	42	-52.3	-85.0	148	8
2023-08-30T12:00	22083	42	-52.0	-84.8	155	7
2023-08-30T12:00	22112	42	-51.7	-84.5	161	6
2023-08-30T12:00	22141	41	-51.6	-84.5	166	6
2023-08-30T12:00	22164	41	-51.8	-84.6	170	5
2023-08-30T12:00	22186	41	-51.9	-84.7	172	4
2023-08-30T12:00	22210	41	-51.9	-84.7	172	4
2023-08-30T12:00	22236	41	-52.1	-84.2	169	4
2023-08-30T12:00	22259	41	-52.2	-84.2	164	4
2023-08-30T12:00	22282	41	-52.3	-84.3	157	5
2023-08-30T12:00	22303	40	-52.3	-84.3	152	5
2023-08-30T12:00	22339	40	-52.4	-84.4	148	6
2023-08-30T12:00	22363	40	-52.5	-84.4	144	6
2023-08-30T12:00	22383	40	-52.4	-84.4	141	6
2023-08-30T12:00	22410	40	-52.4	-84.4	139	6
2023-08-30T12:00	22443	40	-52.6	-84.5	138	6
2023-08-30T12:00	22469	39	-52.7	-84.6	138	7
2023-08-30T12:00	22491	39	-52.7	-84.6	139	7
2023-08-30T12:00	22518	39	-52.7	-84.6	140	7
2023-08-30T12:00	22542	39	-52.9	-84.7	142	7
2023-08-30T12:00	22572	39	-53.0	-84.8	145	7
2023-08-30T12:00	22600	39	-53.2	-85.0	148	7
2023-08-30T12:00	22626	38	-53.4	-84.5	152	7
2023-08-30T12:00	22655	38	-53.4	-84.5	156	7
2023-08-30T12:00	22673	38	-53.5	-84.6	160	6
2023-08-30T12:00	22708	38	-53.8	-84.8	164	6
2023-08-30T12:00	22737	38	-54.0	-84.9	167	5
2023-08-30T12:00	22759	38	-54.0	-85.5	170	4
2023-08-30T12:00	22783	38	-53.8	-85.4	171	4
2023-08-30T12:00	22808	37	-53.7	-85.3	170	3
2023-08-30T12:00	22837	37	-53.7	-85.3	166	3
2023-08-30T12:00	22857	37	-53.6	-85.3	162	3
2023-08-30T12:00	22884	37	-53.5	-85.2	158	4
2023-08-30T12:00	22909	37	-53.6	-85.3	156	4
2023-08-30T12:00	22930	37	-53.6	-85.3	155	4
2023-08-30T12:00	22958	37	-53.7	-85.3	155	5
2023-08-30T12:00	22985	36	-53.6	-85.3	157	4
2023-08-30T12:00	23008	36	-53.2	-85.0	161	4
2023-08-30T12:00	23032	36	-52.9	-84.7	166	4
2023-08-30T12:00	23061	36	-53.0	-84.8	170	4
2023-08-30T12:00	23079	36	-53.1	-84.9	173	3
2023-08-30T12:00	23107	36	-53.1	-84.9	173	3
2023-08-30T12:00	23132	36	-53.2	-85.0	171	3
2023-08-30T12:00	23155	35	-53.4	-85.1	167	2
2023-08-30T12:00	23181	35	-53.4	-85.1	161	2
2023-08-30T12:00	23202	35	-53.5	-85.2	152	2
2023-08-30T12:00	23230	35	-53.7	-85.3	136	1
2023-08-30T12:00	23247	35	-53.7	-85.3	117	2
2023-08-30T12:00	23276	35	-53.8	-85.4	103	2
2023-08-30T12:00	23302	35	-53.7	-85.3	97	3
2023-08-30T12:00	23326	35	-53.4	-85.1	96	3
2023-08-30T12:00	23349	34	-53.3	-85.0	99	4
2023-08-30T12:00	23372	34	-53.4	-85.1	104	4
2023-08-30T12:00	23400	34	-53.3	-85.7	112	4
2023-08-30T12:00	23425	34	-53.1	-85.6	121	4
2023-08-30T12:00	23445	34	-53.0	-85.5	131	5
2023-08-30T12:00	23466	34	-53.0	-85.5	140	5
2023-08-30T12:00	23488	34	-52.8	-85.3	148	5
2023-08-30T12:00	23516	34	-52.6	-85.2	154	5
2023-08-30T12:00	23539	33	-52.7	-85.3	158	5
2023-08-30T12:00	23571	33	-52.5	-85.1	159	5
2023-08-30T12:00	23594	33	-52.2	-84.9	158	5
2023-08-30T12:00	23619	33	-52.2	-84.9	154	5
2023-08-30T12:00	23644	33	-52.2	-84.9	150	4
2023-08-30T12:00	23663	33	-52.1	-84.8	146	4
2023-08-30T12:00	23685	33	-52.1	-84.8	146	4
2023-08-30T12:00	23720	32	-52.1	-84.8	149	4
2023-08-30T12:00	23738	32	-52.3	-85.0	154	5
2023-08-30T12:00	23766	32	-52.2	-84.9	158	5
2023-08-30T12:00	23796	32	-52.1	-84.8	162	5
2023-08-30T12:00	23818	32	-52.2	-84.9	165	6
2023-08-30T12:00	23840	32	-52.1	-84.8	168	6
2023-08-30T12:00	23869	32	-52.0	-84.8	170	5
2023-08-30T12:00	23894	32	-52.0	-84.8	172	5
2023-08-30T12:00	23919	31	-51.8	-84.6	174	5
2023-08-30T12:00	23942	31	-51.6	-84.5	175	4
2023-08-30T12:00	23969	31	-51.6	-84.5	176	4
2023-08-30T12:00	23998	31	-51.6	-84.5	175	4
2023-08-30T12:00	24024	31	-51.6	-84.5	170	3
2023-08-30T12:00	24051	31	-51.5	-84.4	159	2
2023-08-30T12:00	24067	31	-51.5	-84.4	139	2
2023-08-30T12:00	24099	31	-51.5	-84.4	115	2
2023-08-30T12:00	24124	31	-51.6	-84.5	98	2
2023-08-30T12:00	24154	30	-51.7	-84.5	91	3
2023-08-30T12:00	24184	30	-51.8	-84.6	92	3
2023-08-30T12:00	24209	30	-51.9	-84.7	96	4
2023-08-30T12:00	24233	30	-51.9	-84.7	102	4
2023-08-30T12:00	24260	30	-51.8	-84.6	108	4
2023-08-30T12:00	24284	30	-51.9	-84.7	113	5
2023-08-30T12:00	24310	30	-51.9	-84.7	118	5
2023-08-30T12:00	24330	30	-51.9	-84.7	121	5
2023-08-30T12:00	24363	29	-51.8	-84.6	125	5
2023-08-30T12:00	24392	29	-51.5	-85.2	128	5
2023-08-30T12:00	24406	29	-51.3	-85.0	133	5
2023-08-30T12:00	24435	29	-51.0	-84.8	138	5
2023-08-30T12:00	24463	29	-50.8	-84.7	145	5
2023-08-30T12:00	24490	29	-50.5	-85.3	152	5
2023-08-30T12:00	24513	29	-50.1	-85.1	157	5
2023-08-30T12:00	24535	29	-49.9	-84.9	160	5
2023-08-30T12:00	24559	29	-49.5	-84.6	160	5
2023-08-30T12:00	24579	28	-49.3	-84.5	156	5
2023-08-30T12:00	24612	28	-49.1	-84.3	150	5
2023-08-30T12:00	24634	28	-48.8	-84.1	141	5
2023-08-30T12:00	24663	28	-48.5	-83.9	133	5
2023-08-30T12:00	24685	28	-48.3	-83.8	127	5
2023-08-30T12:00	24711	28	-48.1	-83.6	124	5
2023-08-30T12:00	24733	28	-48.2	-83.7	124	5
2023-08-30T12:00	24760	28	-48.3	-83.8	126	6
2023-08-30T12:00	24781	28	-48.2	-83.7	129	6
2023-08-30T12:00	24812	27	-48.2	-83.7	134	7
2023-08-30T12:00	24827	27	-48.1	-83.6	139	7
2023-08-30T12:00	24854	27	-48.1	-83.6	144	7
2023-08-30T12:00	24879	27	-48.0	-83.6	148	6
2023-08-30T12:00	24905	27	-47.8	-83.4	153	6
2023-08-30T12:00	24929	27	-47.8	-83.4	156	6
2023-08-30T12:00	24948	27	-47.9	-83.5	157	5
2023-08-30T12:00	24978	27	-47.9	-83.5	156	5
2023-08-30T12:00	25008	27	-47.8	-83.4	153	6
2023-08-30T12:00	25036	27	-47.8	-83.4	151	6
2023-08-30T12:00	25057	26	-47.8	-83.4	149	6
2023-08-30T12:00	25078	26	-47.6	-83.3	149	7
2023-08-30T12:00	25109	26	-47.3	-83.1	150	7
2023-08-30T12:00	25135	26	-47.0	-83.9	150	7
2023-08-30T12:00	25160	26	-46.9	-82.8	151	8
2023-08-30T12:00	25178	26	-46.9	-82.8	151	8
2023-08-30T12:00	25205	26	-46.9	-82.8	151	8
2023-08-30T12:00	25228	26	-46.9	-82.8	150	8
2023-08-30T12:00	25262	26	-46.9	-82.8	149	8
2023-08-30T12:00	25282	26	-46.9	-82.8	147	9
2023-08-30T12:00	25313	25	-46.9	-82.8	145	9
2023-08-30T12:00	25336	25	-46.9	-82.8	142	9
2023-08-30T12:00	25357	25	-46.8	-82.7	140	9
2023-08-30T12:00	25384	25	-46.9	-82.8	139	9
2023-08-30T12:00	25411	25	-47.0	-82.9	140	9
2023-08-30T12:00	25440	25	-47.1	-82.9	141	9
2023-08-30T12:00	25466	25	-47.2	-83.0	143	9
2023-08-30T12:00	25489	25	-47.3	-83.1	146	9
2023-08-30T12:00	25521	25	-47.3	-83.1	149	9
2023-08-30T12:00	25545	25	-47.3	-83.1	153	9
2023-08-30T12:00	25580	24	-47.4	-83.1	155	10
2023-08-30T12:00	25606	24	-47.5	-83.2	156	10
2023-08-30T12:00	25628	24	-47.5	-83.2	157	10
2023-08-30T12:00	25656	24	-47.6	-83.3	156	10
2023-08-30T12:00	25689	24	-47.6	-83.3	155	10
2023-08-30T12:00	25704	24	-47.6	-83.3	153	10
2023-08-30T12:00	25747	24	-47.8	-83.4	152	10
2023-08-30T12:00	25772	24	-47.9	-83.5	151	10
2023-08-30T12:00	25805	24	-48.1	-83.6	152	10
2023-08-30T12:00	25828	24	-48.3	-83.8	153	10
2023-08-30T12:00	25852	23	-48.0	-83.6	156	10
2023-08-30T12:00	25880	23	-47.8	-83.4	160	10
2023-08-30T12:00	25917	23	-47.9	-83.5	164	9
2023-08-30T12:00	25941	23	-48.0	-83.6	168	9
2023-08-30T12:00	25971	23	-48.0	-83.6	172	9
2023-08-30T12:00	26010	23	-48.0	-83.6	177	9
2023-08-30T12:00	26023	23	-48.3	-83.8	181	10
2023-08-30T12:00	26058	23	-48.5	-83.9	186	10
2023-08-30T12:00	26077	23	-48.6	-83.1	191	11
2023-08-30T12:00	26113	23	-48.6		194	11
2023-08-30T12:00	26137	22	-48.7	-84.1	197	12
2023-08-30T12:00	26162	22	-48.8	-84.1	199	12
2023-08-30T12:00	26197	22	-48.8	-84.1	199	12
2023-08-30T12:00	26225	22	-48.8	-84.1	200	11
2023-08-30T12:00	26252	22	-48.8	-84.1	200	11
2023-08-30T12:00	26277	22	-48.6		199	10
2023-08-30T12:00	26302	22	-48.4	-83.8	199	10
2023-08-30T12:00	26343	22	-48.4	-83.8	199	9
2023-08-30T12:00	26359	22	-48.5	-83.9	199	9
2023-08-30T12:00	26382	22	-48.6		198	9
2023-08-30T12:00	26414	22	-48.6		197	9
2023-08-30T12:00	26436	21	-48.5	-83.9	197	9
2023-08-30T12:00	26461	21	-48.4	-83.8	197	9
2023-08-30T12:00	26488	21	-48.3	-83.8	198	9
2023-08-30T12:00	26510	21	-48.2	-83.7	200	10
2023-08-30T12:00	26543	21	-48.1	-83.6	202	10
2023-08-30T12:00	26567	21	-47.9	-83.5	203	10
2023-08-30T12:00	26589	21	-47.7	-84.4	205	9
2023-08-30T12:00	26616	21	-47.6	-84.3	207	9
2023-08-30T12:00	26634	21	-47.5	-84.3	209	9
2023-08-30T12:00	26666	21	-47.4	-84.2	212	9
2023-08-30T12:00	26690	21	-47.5	-83.2	215	8
2023-08-30T12:00	26717	21	-47.7	-83.4	218	8
2023-08-30T12:00	26733	21	-47.8	-83.4	220	9
2023-08-30T12:00	26764	20	-47.7	-83.4	221	9
2023-08-30T12:00	26781	20	-47.4	-84.2	221	9
2023-08-30T12:00	26816	20	-47.2	-84.1	219	9
2023-08-30T12:00	26829	20	-47.1	-84.0	216	9
2023-08-30T12:00	26856	20	-47.1	-84.0	212	9
2023-08-30T12:00	26898	20	-47.0	-83.9	209	9
2023-08-30T12:00	26902	20	-46.9	-83.9	206	10
2023-08-30T12:00	26930	20	-46.9	-83.9	205	10
2023-08-30T12:00	26956	20	-46.8	-83.8	206	10
2023-08-30T12:00	26982	20	-46.6	-83.6	207	10
2023-08-30T12:00	27000	20	-46.1	-83.3	209	10
2023-08-30T12:00	27032	20	-45.5	-82.9	212	10
2023-08-30T12:00	27055	20	-45.1	-82.6	216	10
2023-08-30T12:00	27074	19	-44.8	-82.4	220	9
2023-08-30T12:00	27109	19	-44.4	-82.1	224	9
2023-08-30T12:00	27127	19	-44.1	-81.9	229	9
2023-08-30T12:00	27146	19	-44.1	-81.9	232	9
2023-08-30T12:00	27171	19	-44.1	-81.9	234	9
2023-08-30T12:00	27206	19	-44.0	-81.8	235	8
2023-08-30T12:00	27228	19	-43.8	-81.7	233	7
2023-08-30T12:00	27253	19	-43.6	-81.5	229	6
2023-08-30T12:00	27276	19	-43.5	-81.5	222	6
2023-08-30T12:00	27315	19	-43.5	-81.5	212	5
2023-08-30T12:00	27330	19	-43.5	-81.5	201	5
2023-08-30T12:00	27369	19	-43.5	-81.5	191	5
2023-08-30T12:00	27385	19	-43.5	-81.5	185	5
2023-08-30T12:00	27414	19	-43.2	-81.3	183	6
2023-08-30T12:00	27450	18	-42.9	-81.1	186	6
2023-08-30T12:00	27481	18	-42.8	-81.0	191	7
2023-08-30T12:00	27500	18	-42.8	-81.0	197	7
2023-08-30T12:00	27532	18	-42.8	-81.0	203	8
2023-08-30T12:00	27559	18	-42.8	-81.0	208	8
2023-08-30T12:00	27591	18	-42.9	-81.1	212	8
2023-08-30T12:00	27626	18	-42.7	-80.9	216	9
2023-08-30T12:00	27647	18	-42.5	-80.8	220	9
2023-08-30T12:00	27680	18	-42.2	-80.6	224	9
2023-08-30T12:00	27706	18	-42.0	-80.4	228	9
2023-08-30T12:00	27732	18	-42.0	-80.4	232	9
2023-08-30T12:00	27754	18	-42.1	-80.5	236	8
2023-08-30T12:00	27787	18	-42.2	-80.6	238	8
2023-08-30T12:00	27810	17	-42.3	-80.6	239	7
2023-08-30T12:00	27827	17	-42.4	-80.7	240	6
2023-08-30T12:00	27869	17	-42.5	-80.8	238	5
2023-08-30T12:00	27885	17	-42.5	-80.8	234	5
2023-08-30T12:00	27920	17	-42.5	-80.8	228	4
2023-08-30T12:00	27942	17	-42.4	-80.7	221	4
2023-08-30T12:00	27966	17	-42.3	-80.6	211	4
2023-08-30T12:00	28004	17	-42.3	-80.6	200	4
2023-08-30T12:00	28027	17	-42.4	-80.7	188	5
2023-08-30T12:00	28043	17	-42.5	-80.8	179	6
2023-08-30T12:00	28083	17	-42.5	-80.8	174	6
2023-08-30T12:00	28114	17	-42.4	-80.7	172	7
2023-08-30T12:00	28135	17	-42.4	-80.7	174	7
2023-08-30T12:00	28160	17	-42.4	-80.7	179	8
2023-08-30T12:00	28186	17	-42.3	-80.6	185	8
2023-08-30T12:00	28205	17	-42.1	-80.5	191	8
2023-08-30T12:00	28231	16	-42.1	-80.5	196	9
2023-08-30T12:00	28257	16	-42.1	-80.5	201	9
2023-08-30T12:00	28282	16	-42.0	-80.4	205	9
2023-08-30T12:00	28308	16	-41.9	-80.4	209	9
2023-08-30T12:00	28332	16	-41.9	-80.4	213	9
2023-08-30T12:00	28365	16	-41.9	-80.4	217	10
2023-08-30T12:00	28388	16	-41.8	-80.3	221	10
2023-08-30T12:00	28416	16	-41.8	-80.3	226	10
2023-08-30T12:00	28447	16	-41.6	-80.1	230	10
2023-08-30T12:00	28473	16	-41.2	-79.9	233	10
2023-08-30T12:00	28494	16	-40.8	-79.6	237	10
2023-08-30T12:00	28532	16	-40.6	-79.5	241	9
2023-08-30T12:00	28548	16	-40.7	-79.5	245	9
2023-08-30T12:00	28595	16	-40.7	-79.5	249	9
2023-08-30T12:00	28607	16	-40.8	-79.6	254	9
2023-08-30T12:00	28638	15	-40.8	-79.6	258	9
2023-08-30T12:00	28664	15	-40.9	-79.7	262	9
2023-08-30T12:00	28698	15	-40.9	-79.7	265	9
2023-08-30T12:00	28720	15	-41.1	-79.8	268	9
2023-08-30T12:00	28756	15	-41.1	-79.8	271	9
2023-08-30T12:00	28757	15	-41.2	-79.9	273	9
2023-08-30T12:00	28805	15	-41.3	-79.9	274	9
2023-08-30T12:00	28833	15	-41.2	-79.9	274	8
2023-08-30T12:00	28847	15	-41.1	-79.8	273	7
2023-08-30T12:00	28866	15	-41.2	-79.9	270	6
2023-08-30T12:00	28901	15	-41.2	-79.9	265	6
2023-08-30T12:00	28942	15	-41.3	-79.9	259	5
2023-08-30T12:00	28962	15	-41.3	-79.9	250	4
2023-08-30T12:00	28974	15	-41.5	-80.1	239	4
2023-08-30T12:00	29012	15	-41.7	-80.2	229	4
2023-08-30T12:00	29024	15	-41.8	-80.3	221	5
2023-08-30T12:00	29078	15	-41.8	-80.3	215	5
2023-08-30T12:00	29091	14	-41.9	-80.4	210	6
2023-08-30T12:00	29125	14	-42.1	-80.5	207	6
2023-08-30T12:00	29151	14	-42.3	-80.6	205	6
2023-08-30T12:00	29200	14	-42.0	-80.4	207	6
2023-08-30T12:00	29216	14	-41.7	-80.2	210	6
2023-08-30T12:00	29239	14	-41.6	-80.1	216	6
2023-08-30T12:00	29261	14	-41.6	-80.1	222	6
2023-08-30T12:00	29300	14	-41.7	-80.2	228	6
2023-08-30T12:00	29329	14	-41.7	-80.2	234	6
2023-08-30T12:00	29351	14	-41.8	-80.3	239	6
2023-08-30T12:00	29361	14	-41.9	-80.4	243	6
2023-08-30T12:00	29404	14	-42.1	-80.5	248	5
2023-08-30T12:00	29428	14	-42.1	-80.5	254	5
2023-08-30T12:00	29450	14	-42.2	-80.6	261	5
2023-08-30T12:00	29483	14	-42.2	-80.6	270	5
2023-08-30T12:00	29510	14	-42.3	-80.6	278	4
2023-08-30T12:00	29549	14	-42.4	-80.7	286	4
2023-08-30T12:00	29581	13	-42.5	-80.8	295	3
2023-08-30T12:00	29603	13	-42.4	-80.7	296	3
2023-08-30T12:00	29633	13	-42.3	-80.6	296	2
2023-08-30T12:00	29657	13	-42.3	-80.6	289	1
2023-08-30T12:00	29673	13	-42.3	-80.6	255	0
2023-08-30T12:00	29693	13	-42.2	-80.6	157	1
2023-08-30T12:00	29725	13	-42.0	-80.4	136	1
2023-08-30T12:00	29762	13	-42.0	-80.4	127	1
2023-08-30T12:00	29779	13	-42.0	-80.4	120	2
2023-08-30T12:00	29817	13	-42.0	-80.4	117	2
2023-08-30T12:00	29831	13	-42.0	-80.4	116	2
2023-08-30T12:00	29849	13	-42.0	-80.4	117	3
2023-08-30T12:00	29879	13	-42.0	-80.4	120	3
2023-08-30T12:00	29894	13	-41.9	-80.4	123	4
2023-08-30T12:00	29915	13	-41.8	-80.3	127	5
2023-08-30T12:00	29948	13	-41.9	-80.4	132	6
2023-08-30T12:00	29973	13	-41.9	-80.4	136	6
2023-08-30T12:00	29978	13	-41.9	-80.4	141	7
2023-08-30T12:00	30025	13	-41.7	-80.2	144	8
2023-08-30T12:00	30065	13	-41.4	-80.0	150	10
2023-08-30T12:00	30093	13	-41.3	-79.9	153	10
2023-08-30T12:00	30123	12	-41.3	-79.9	155	11
2023-08-30T12:00	30147	12	-41.2	-79.9	158	11
2023-08-30T12:00	30164	12	-41.1	-79.8	161	11
2023-08-30T12:00	30182	12	-40.9	-79.7	164	10
2023-08-30T12:00	30209	12	-40.9	-79.7	167	10
2023-08-30T12:00	30231	12	-40.9	-79.7	169	9
2023-08-30T12:00	30280	12	-41.0	-79.7	173	9
2023-08-30T12:00	30297	12	-41.1	-79.8	176	9
2023-08-30T12:00	30299	12	-41.2	-79.9	179	9
2023-08-30T12:00	30338	12	-41.3	-79.9	181	9
2023-08-30T12:00	30359	12	-41.3	-79.9	183	9
2023-08-30T12:00	30390	12	-41.3	-79.9	185	9
2023-08-30T12:00	30394	12	-41.3	-79.9	186	9
2023-08-30T12:00	30440	12	-41.3	-79.9	187	9
2023-08-30T12:00	30454	12	-41.2	-79.9	188	9
2023-08-30T12:00	30485	12	-41.2	-79.9	189	9
2023-08-30T12:00	30525	12	-41.2	-79.9	191	9
2023-08-30T12:00	30544	12	-41.2	-79.9	192	9
2023-08-30T12:00	30571	12	-41.2	-79.9	192	9
2023-08-30T12:00	30583	12	-41.2	-79.9	192	8
2023-08-30T12:00	30600	12	-41.2	-79.9	192	8
2023-08-30T12:00	30636	12	-41.0	-79.7	192	8
2023-08-30T12:00	30659	12	-40.9	-79.7	191	7
2023-08-30T12:00	30681	11	-40.8	-79.6	189	6
2023-08-30T12:00	30713	11	-40.7	-79.5	185	6
2023-08-30T12:00	30722	11	-40.7	-79.5	179	5
2023-08-30T12:00	30769	11	-40.7	-79.5	173	5
2023-08-30T12:00	30793	11	-40.7	-79.5	166	5
2023-08-30T12:00	30818	11	-40.8	-79.6	160	5
2023-08-30T12:00	30843	11	-40.8	-79.6	157	5
2023-08-30T12:00	30883	11	-40.8	-79.6	156	6
2023-08-30T12:00	30894	11	-40.9	-79.7	155	6
2023-08-30T12:00	30909	11	-41.0	-79.7	155	6
2023-08-30T12:00	30935	11	-41.0	-79.7	156	6
2023-08-30T12:00	30966	11	-41.0	-79.7	158	7
2023-08-30T12:00	30989	11	-41.0	-79.7	160	7
2023-08-30T12:00	31019	11	-41.1	-79.8	163	7
2023-08-30T12:00	31045	11	-41.3	-79.9	166	7
2023-08-30T12:00	31075	11	-41.3	-79.9	170	7
2023-08-30T12:00	31109	11	-41.3	-79.9	175	7
2023-08-30T12:00	31137	11	-41.3	-79.9	180	6
2023-08-30T12:00	31140	11	-41.3	-79.9	185	6
2023-08-30T12:00	31176	11	-41.3	-79.9	187	6
2023-08-30T12:00	31193	11	-41.2	-79.9	187	5
2023-08-30T12:00	31213	11	-40.8	-79.6	185	5
2023-08-30T12:00	31239	11	-40.6	-79.5	181	5
2023-08-30T12:00	31279	11	-40.4	-79.3	179	5
2023-08-30T12:00	31298	10	-40.3	-79.2	178	5
2023-08-30T12:00	31332	10	-40.2	-79.2	179	6
2023-08-30T12:00	31348	10	-40.0	-79.0	180	6
2023-08-30T12:00	31377	10	-39.9	-79.0	181	6
2023-08-30T12:00	31412	10	-39.7	-78.8	181	6
2023-08-30T12:00	31437	10	-39.7	-78.8	182	6
2023-08-30T12:00	31443	10	-39.8	-78.9	183	5
2023-08-30T12:00	31472	10	-40.0	-79.0	184	5
2023-08-30T12:00	31476	10	-40.1	-79.1	185	5
2023-08-30T12:00	31524	10	-39.9	-79.0	185	5
2023-08-30T12:00	31557	10	-39.7	-78.8	187	5
2023-08-30T12:00	31592	10	-39.4	-78.6	189	5
2023-08-30T12:00	31629	10	-39.3	-78.5	192	5
2023-08-30T12:00	31652	10	-39.1	-78.4	198	5
2023-08-30T12:00	31682	10	-39.1	-78.4	204	5
2023-08-30T12:00	31726	10	-39.2	-78.5	214	6
2023-08-30T12:00	31751	10	-39.3	-78.5	217	6
2023-08-30T12:00	31758	10	-39.4	-78.6	219	7
2023-08-30T12:00	31794	10	-39.4	-78.6	220	7
2023-08-30T12:00	31806	10	-39.3	-78.5	220	7
2023-08-30T12:00	31821	10	-39.2	-78.5	221	7
2023-08-30T12:00	31859	10	-39.1	-78.4	222	7
2023-08-30T12:00	31890	10	-39.0	-78.3	223	7
2023-08-30T12:00	31926	10	-39.0	-78.3	226	7
2023-08-30T12:00	31948	10	-39.2	-78.5	230	6
2023-08-30T12:00	31967	10	-39.3	-78.5	232	5
2023-08-30T12:00	32000	9	-39.4	-78.6	233	5
2023-08-30T12:00	32039	9	-39.5	-78.7	233	4
2023-08-30T12:00	32062	9	-39.6	-78.8	233	4
2023-08-30T12:00	32070	9	-39.6	-78.8	234	3
2023-08-30T12:00	32115	9	-39.7	-78.8	237	3
2023-08-30T12:00	32146	9	-39.8	-78.9	243	3
2023-08-30T12:00	32154	9	-40.0	-79.0	252	3
2023-08-30T12:00	32163	9	-40.1	-79.1	262	3
2023-08-30T12:00	32191	9	-40.2	-79.2	271	3
2023-08-30T12:00	32220	9	-40.3	-79.2	280	4
2023-08-30T12:00	32247	9	-40.3	-79.2	288	4
2023-08-30T12:00	32260	9	-40.3	-79.2	296	4
2023-08-30T12:00	32302	9	-40.3	-79.2	304	4
2023-08-30T12:00	32328	9	-40.3	-79.2	312	4
2023-08-30T12:00	32347	9	-40.1	-79.1	318	4
2023-08-30T12:00	32369	9	-40.1	-79.1	322	4
2023-08-30T12:00	32384	9	-40.0	-79.0	323	4
2023-08-30T12:00	32419	9	-39.9	-79.0	320	3
2023-08-30T12:00	32439	9	-39.8	-78.9	314	3
2023-08-30T12:00	32482	9	-39.6	-78.8	300	2
2023-08-30T12:00	32498	9	-39.6	-78.8	265	1
2023-08-30T12:00	32538	9	-39.7	-78.8	206	1
2023-08-30T12:00	32543	9	-39.9	-79.0	181	2
2023-08-30T12:00	32581	9	-40.1	-79.1	174	3
2023-08-30T12:00	32599	9	-40.3	-79.2	174	4
2023-08-30T12:00	32626	9	-40.3	-79.2	176	5
2023-08-30T12:00	32671	9	-40.4	-79.3	178	6
2023-08-30T12:00	32674	9	-40.4	-79.3	180	6
2023-08-30T12:00	32718	9	-40.5	-79.4	181	7
2023-08-30T12:00	32769	8	-40.7	-79.5	183	7
2023-08-30T12:00	32789	8	-40.9	-79.7	184	7
2023-08-30T12:00	32801	8	-41.1	-79.8	186	7
2023-08-30T12:00	32815	8	-41.3	-79.9	186	7
2023-08-30T12:00	32851	8	-41.4	-80.0	186	7
2023-08-30T12:00	32881	8	-41.3	-79.9	186	7
2023-08-30T12:00	32919	8	-41.1	-79.8	185	7
2023-08-30T12:00	32930	8	-40.9	-79.7	183	7
2023-08-30T12:00	32963	8	-40.7	-79.5	181	7
2023-08-30T12:00	32981	8	-40.5	-79.4	179	7
2023-08-30T12:00	32986	8	-40.4	-79.3	178	7
2023-08-30T12:00	33038	8	-40.4	-79.3	177	7
2023-08-30T12:00	33059	8	-40.4	-79.3	177	7
2023-08-30T12:00	33098	8	-40.4	-79.3	179	7
2023-08-30T12:00	33133	8	-40.4	-79.3	182	7
2023-08-30T12:00	33158	8	-40.5	-79.4	184	7
2023-08-30T12:00	33184	8	-40.6	-79.5	185	7
2023-08-30T12:00	33232	8	-40.7	-79.5	187	7
2023-08-30T12:00	33257	8	-40.9	-79.7	189	6
2023-08-30T12:00	33262	8	-41.1	-79.8	192	6
2023-08-30T12:00	33302	8	-41.2	-79.9	197	6
2023-08-30T12:00	33336	8	-41.3	-79.9	204	6
2023-08-30T12:00	33353	8	-41.4	-80.0	221	6
2023-08-30T12:00	33389	8	-41.4	-80.0	229	6
2023-08-30T12:00	33414	8	-41.4	-80.0	235	6
2023-08-30T12:00	33443	8	-41.1	-79.8	245	5
2023-08-30T12:00	33482	8	-40.9	-79.7	251	4
2023-08-30T12:00	33498	8	-40.3	-79.2	268	3
2023-08-30T12:00	33525	8	-40.2	-79.2	277	3
2023-08-30T12:00	33570	8	-40.2	-79.2	281	2
2023-08-30T12:00	33617	7	-39.9	-79.0	267	2
2023-08-30T12:00	33623	7	-39.8	-78.9	252	2
2023-08-30T12:00	33634	7	-39.7	-78.8	242	2
2023-08-30T12:00	33645	7	-39.8	-78.9	238	3
2023-08-30T12:00	33657	7	-39.8	-78.9	237	3
2023-08-30T12:00	33686	7	-39.6	-78.8	238	3
2023-08-30T12:00	33733	7	-39.4	-78.6	241	4
2023-08-30T12:00	33762	7	-38.9	-78.3	246	4
2023-08-30T12:00	33781	7	-38.7	-78.1	248	5
2023-08-30T12:00	33814	7	-38.7	-78.1	250	5
2023-08-30T12:00	33848	7	-38.6	-78.1	256	6
2023-08-30T12:00	33885	7	-38.5	-78.0	257	6
2023-08-30T18:00	112	994	17.2	12.7	230	1
2023-08-30T18:00	135	991	17.1	13.1	262	1
2023-08-30T18:00	159	988	17.0	12.3	218	1
2023-08-30T18:00	183	986	16.9	11.4	203	1
2023-08-30T18:00	209	983	16.8	11.4	198	2
2023-08-30T18:00	234	980	16.6	10.3	195	2
2023-08-30T18:00	259	977	16.5	9.8	193	2
2023-08-30T18:00	284	974	16.3	9.6	190	2
2023-08-30T18:00	310	971	16.1	9.3	188	2
2023-08-30T18:00	339	968	15.9	8.4	188	2
2023-08-30T18:00	362	965	15.7	8.4	191	1
2023-08-30T18:00	385	962	15.6	8.2	199	1
2023-08-30T18:00	410	959	15.4	8.1	209	1
2023-08-30T18:00	434	957	15.2	8.0	219	2
2023-08-30T18:00	456	954	15.1	7.7	227	2
2023-08-30T18:00	481	952	15.0	7.1	233	2
2023-08-30T18:00	505	949	14.8	7.1	237	2
2023-08-30T18:00	533	946	14.6	7.0	241	2
2023-08-30T18:00	558	943	14.4	6.7	245	2
2023-08-30T18:00	583	940	14.2	6.4	249	2
2023-08-30T18:00	609	937	14.0	6.1	253	2
2023-08-30T18:00	632	935	13.9	5.8	256	3
2023-08-30T18:00	657	932	13.7		259	3
2023-08-30T18:00	683	929	13.5	5.1	261	3
2023-08-30T18:00	706	926	13.3	5.1	261	3
2023-08-30T18:00	734	923	13.1	5.1	261	3
2023-08-30T18:00	763	920	12.8	5.1	260	4
2023-08-30T18:00	789	917	12.6	5.1	259	4
2023-08-30T18:00	814	915	12.4	4.6	257	4
2023-08-30T18:00	842	912	12.2	4.7	256	5
2023-08-30T18:00	872	908	12.0	4.9	256	5
2023-08-30T18:00	902	905	11.7	5.4	257	5
2023-08-30T18:00	930	902	11.5	5.3	260	5
2023-08-30T18:00	958	899	11.2	5.3	264	5
2023-08-30T18:00	990	896	10.9	5.3	268	5
2023-08-30T18:00	1014	893	10.8	5.2	270	5
2023-08-30T18:00	1040	890	10.6	5.1	269	4
2023-08-30T18:00	1068	887	10.3	5.0	267	4
2023-08-30T18:00	1095	884	10.2	4.8	263	4
2023-08-30T18:00	1124	881	9.9	4.4	260	4
2023-08-30T18:00	1152	879	9.7	4.0	258	4
2023-08-30T18:00	1174	876	9.4	3.9	258	4
2023-08-30T18:00	1201	873	9.2	4.1	259	4
2023-08-30T18:00	1230	870	8.9	4.0	260	5
2023-08-30T18:00	1256	867	8.7	3.8	262	5
2023-08-30T18:00	1280	865	8.5	3.7	264	5
2023-08-30T18:00	1309	862	8.4	3.3	265	5
2023-08-30T18:00	1336	859	8.2	3.6	266	5
2023-08-30T18:00	1362	856	7.9		267	5
2023-08-30T18:00	1393	853	7.7	4.0	268	5
2023-08-30T18:00	1419	851	7.6	3.2	269	6
2023-08-30T18:00	1444	848	7.4	3.0	270	6
2023-08-30T18:00	1473	845	7.2	2.3	271	6
2023-08-30T18:00	1498	842	7.0	1.8	270	6
2023-08-30T18:00	1522	840	6.8	1.8	270	5
2023-08-30T18:00	1548	837	6.6	1.8	271	5
2023-08-30T18:00	1574	835	6.4	1.5	272	5
2023-08-30T18:00	1600	832	6.2	1.0	275	5
2023-08-30T18:00	1625	829	6.0	1.0	279	5
2023-08-30T18:00	1657	826	5.9	0.1	282	5
2023-08-30T18:00	1683	824	5.8	0.0	283	5
2023-08-30T18:00	1709	821	5.5	0.3	283	5
2023-08-30T18:00	1736	818	5.3	1.6	283	4
2023-08-30T18:00	1768	815	5.1	1.1	283	4
2023-08-30T18:00	1793	813	4.9	1.3	284	4
2023-08-30T18:00	1821	810	4.7	1.3	285	4
2023-08-30T18:00	1847	807	4.5	1.1	285	5
2023-08-30T18:00	1875	805	4.2	0.7	286	5
2023-08-30T18:00	1902	802	4.1	0.6	286	5
2023-08-30T18:00	1930	799	4.0	0.6	285	5
2023-08-30T18:00	1960	796	3.7	0.7	284	5
2023-08-30T18:00	1987	793	3.5	0.6	283	6
2023-08-30T18:00	2010	791	3.3	0.7	281	6
2023-08-30T18:00	2036	789	3.0	0.7	279	6
2023-08-30T18:00	2061	786	2.9	0.8	276	6
2023-08-30T18:00	2090	783	2.7	0.6	273	6
2023-08-30T18:00	2116	781	2.5	0.3	269	6
2023-08-30T18:00	2143	778	2.3	0.2	267	6
2023-08-30T18:00	2171	776	2.2	0.3	266	6
2023-08-30T18:00	2200	773	2.1	0.1	266	6
2023-08-30T18:00	2225	771	1.9	-0.1	266	6
2023-08-30T18:00	2250	768	1.8	-0.2	266	6
2023-08-30T18:00	2276	766	1.7	-0.3	264	6
2023-08-30T18:00	2302	763	1.5	-0.4	261	6
2023-08-30T18:00	2332	760	1.3	-0.6	256	6
2023-08-30T18:00	2355	758	1.3	0.1	252	6
2023-08-30T18:00	2381	756	1.1	-0.1	249	6
2023-08-30T18:00	2406	753	0.9	-0.5	246	6
2023-08-30T18:00	2435	751	0.7	-0.8	243	6
2023-08-30T18:00	2464	748	0.5	-0.8	240	6
2023-08-30T18:00	2495	745	0.5	-1.0	239	6
2023-08-30T18:00	2522	743	0.4	-1.0	237	6
2023-08-30T18:00	2545	740	0.2	-1.0	237	6
2023-08-30T18:00	2575	738	0.0	-1.0	237	6
2023-08-30T18:00	2604	735	-0.3	-1.3	236	6
2023-08-30T18:00	2635	732	-0.5	-1.4	236	6
2023-08-30T18:00	2663	730	-0.8	-1.4	235	6
2023-08-30T18:00	2687	727	-1.0	-1.5	235	6
2023-08-30T18:00	2712	725	-1.2	-1.5	236	6
2023-08-30T18:00	2736	723	-1.3	-2.3	239	6
2023-08-30T18:00	2764	720	-1.3	-2.8	241	6
2023-08-30T18:00	2790	718	-1.4	-3.2	243	6
2023-08-30T18:00	2817	716	-1.6	-3.3	244	6
2023-08-30T18:00	2847	713	-1.5	-4.7	244	6
2023-08-30T18:00	2872	711	-1.7	-4.7	244	6
2023-08-30T18:00	2903	708	-2.0	-4.8	244	6
2023-08-30T18:00	2932	705	-2.3	-4.8	242	6
2023-08-30T18:00	2963	703	-2.6	-4.7	240	5
2023-08-30T18:00	2990	700	-2.9	-4.6	236	5
2023-08-30T18:00	3018	698	-3.1	-4.3	231	4
2023-08-30T18:00	3046	695	-3.3	-4.4	227	4
2023-08-30T18:00	3076	693	-3.6	-4.3	223	4
2023-08-30T18:00	3102	690	-3.8	-4.3	221	4
2023-08-30T18:00	3133	688	-4.0	-4.3	218	4
2023-08-30T18:00	3168	685	-4.3	-4.3	216	4
2023-08-30T18:00	3201	682	-4.6	-4.6	213	4
2023-08-30T18:00	3230	679	-4.7	-4.7	211	4
2023-08-30T18:00	3260	677	-4.9	-4.9	210	4
2023-08-30T18:00	3292	674	-5.0	-5.0	208	4
2023-08-30T18:00	3322	671	-5.2	-5.2	207	4
2023-08-30T18:00	3353	669	-5.4	-5.4	206	4
2023-08-30T18:00	3382	666	-5.6	-5.6	206	5
2023-08-30T18:00	3412	664	-5.8	-5.8	206	5
2023-08-30T18:00	3440	661	-6.3	-6.3	207	6
2023-08-30T18:00	3466	659	-5.2	-7.4	209	6
2023-08-30T18:00	3496	657	-5.2	-8.1	213	7
2023-08-30T18:00	3522	654	-5.3	-8.7	217	7
2023-08-30T18:00	3551	652	-5.1	-9.6	221	8
2023-08-30T18:00	3583	650	-4.5	-9.8	225	8
2023-08-30T18:00	3611	647	-4.1	-9.7	228	9
2023-08-30T18:00	3638	645	-3.9	-9.6	230	9
2023-08-30T18:00	3666	643	-3.9	-9.9	231	9
2023-08-30T18:00	3693	641	-3.9	-9.7	232	9
2023-08-30T18:00	3720	638	-4.0	-9.2	232	9
2023-08-30T18:00	3747	636	-4.2	-8.4	233	9
2023-08-30T18:00	3777	634	-4.2	-8.1	233	10
2023-08-30T18:00	3805	631	-4.4	-8.3	232	10
2023-08-30T18:00	3834	629	-4.5	-8.1	230	10
2023-08-30T18:00	3862	627	-4.7	-8.3	229	11
2023-08-30T18:00	3891	625	-4.9	-8.6	227	11
2023-08-30T18:00	3924	622	-5.0	-9.1	224	11
2023-08-30T18:00	3949	620	-5.1	-9.4	221	11
2023-08-30T18:00	3977	618	-5.3	-9.7	218	11
2023-08-30T18:00	4006	616	-5.5	-10.0	214	11
2023-08-30T18:00	4036	613	-5.7	-9.4	211	11
2023-08-30T18:00	4065	611	-5.7	-9.1	209	11
2023-08-30T18:00	4092	609	-5.9	-8.7	207	11
2023-08-30T18:00	4121	607	-6.2	-8.3	206	11
2023-08-30T18:00	4145	605	-6.4	-8.3	206	12
2023-08-30T18:00	4175	602	-6.5	-8.3	206	12
2023-08-30T18:00	4202	600	-6.7	-8.4	207	12
2023-08-30T18:00	4230	598	-6.9	-8.4	208	12
2023-08-30T18:00	4257	596	-7.1	-8.6	208	12
2023-08-30T18:00	4287	594	-7.2	-9.0	209	12
2023-08-30T18:00	4315	592	-7.4	-9.0	209	12
2023-08-30T18:00	4343	590	-7.7	-9.0	209	12
2023-08-30T18:00	4374	587	-7.9	-8.9	208	12
2023-08-30T18:00	4403	585	-8.1	-9.4	207	13
2023-08-30T18:00	4435	583	-8.4	-9.6	206	13
2023-08-30T18:00	4465	580	-8.6	-9.6	206	13
2023-08-30T18:00	4495	578	-8.8	-10.0	206	13
2023-08-30T18:00	4525	576	-9.0	-10.2	208	12
2023-08-30T18:00	4553	574	-9.2	-10.4	210	12
2023-08-30T18:00	4584	572	-9.5	-10.4	213	12
2023-08-30T18:00	4616	569	-9.8	-10.6	215	13
2023-08-30T18:00	4644	567	-10.0	-10.8	216	13
2023-08-30T18:00	4670	565	-10.1	-11.2	217	14
2023-08-30T18:00	4698	563	-10.4	-11.0	216	14
2023-08-30T18:00	4725	561	-10.6	-11.0	216	14
2023-08-30T18:00	4750	559	-10.8	-11.3	215	14
2023-08-30T18:00	4778	557	-10.9	-11.2	215	14
2023-08-30T18:00	4808	555	-11.1	-11.4	215	14
2023-08-30T18:00	4836	553	-11.4	-12.0	215	13
2023-08-30T18:00	4866	551	-11.6	-12.5	216	13
2023-08-30T18:00	4892	549	-11.7	-13.0	217	12
2023-08-30T18:00	4919	547	-11.7	-14.8	219	12
2023-08-30T18:00	4951	545	-11.8	-15.7	221	11
2023-08-30T18:00	4981	543	-11.9	-16.3	223	11
2023-08-30T18:00	5009	541	-12.1	-17.0	223	11
2023-08-30T18:00	5036	539	-12.3	-17.1	223	12
2023-08-30T18:00	5064	537	-12.6	-15.5	221	12
2023-08-30T18:00	5090	535	-12.7	-15.4	220	13
2023-08-30T18:00	5123	533	-12.7	-16.1	220	13
2023-08-30T18:00	5149	531	-12.8	-16.8	219	14
2023-08-30T18:00	5180	529	-12.9	-18.1	219	14
2023-08-30T18:00	5213	527	-13.0	-17.5	217	14
2023-08-30T18:00	5245	524	-12.9	-18.7	216	14
2023-08-30T18:00	5273	522	-13.0	-17.4	214	14
2023-08-30T18:00	5302	520	-13.2	-17.2	212	13
2023-08-30T18:00	5331	518	-13.4	-18.8	210	13
2023-08-30T18:00	5364	516	-13.6	-19.7	209	13
2023-08-30T18:00	5392	514	-13.8	-20.2	209	14
2023-08-30T18:00	5424	512	-14.0	-20.2	209	14
2023-08-30T18:00	5457	510	-14.1	-20.0	209	14
2023-08-30T18:00	5487	508	-14.2	-20.8	209	14
2023-08-30T18:00	5514	506	-14.3	-21.2	209	14
2023-08-30T18:00	5545	504	-14.6	-21.4	208	13
2023-08-30T18:00	5576	502	-14.8	-21.6	208	13
2023-08-30T18:00	5604	500	-15.0	-22.1	208	13
2023-08-30T18:00	5634	498	-15.2	-22.1	208	13
2023-08-30T18:00	5664	496	-15.5	-22.2	208	13
2023-08-30T18:00	5690	494	-15.8	-22.2	209	13
2023-08-30T18:00	5720	492	-16.1	-22.2	210	13
2023-08-30T18:00	5755	490	-16.4	-22.6	211	13
2023-08-30T18:00	5783	488	-16.6	-22.5	211	13
2023-08-30T18:00	5815	486	-16.9	-22.7	210	13
2023-08-30T18:00	5843	485	-17.1	-22.6	210	13
2023-08-30T18:00	5875	483	-17.3	-23.0	210	13
2023-08-30T18:00	5906	481	-17.6	-23.4	210	13
2023-08-30T18:00	5928	479	-17.8	-23.6	211	13
2023-08-30T18:00	5954	477	-18.0	-23.5	212	13
2023-08-30T18:00	5990	475	-18.3	-23.6	214	13
2023-08-30T18:00	6018	473	-18.5	-23.6	215	13
2023-08-30T18:00	6048	471	-18.8	-23.7	216	13
2023-08-30T18:00	6079	469	-19.1	-23.7	216	13
2023-08-30T18:00	6113	467	-19.4	-23.5	215	13
2023-08-30T18:00	6142	465	-19.7	-23.9	213	13
2023-08-30T18:00	6172	464	-19.9	-24.2	212	13
2023-08-30T18:00	6198	462	-20.1	-24.4	211	13
2023-08-30T18:00	6226	460	-20.4	-24.4	211	14
2023-08-30T18:00	6255	459	-20.6	-24.7	211	14
2023-08-30T18:00	6286	457	-20.9	-24.7	211	14
2023-08-30T18:00	6315	455	-21.2	-24.9	211	15
2023-08-30T18:00	6347	453	-21.4	-24.7	210	15
2023-08-30T18:00	6381	451	-21.8	-25.0	209	15
2023-08-30T18:00	6412	449	-22.1	-25.2	209	15
2023-08-30T18:00	6444	447	-22.3	-25.1	209	15
2023-08-30T18:00	6472	445	-22.6	-25.3	210	15
2023-08-30T18:00	6505	443	-22.8	-25.3	211	15
2023-08-30T18:00	6534	441	-22.9	-25.3	212	14
2023-08-30T18:00	6561	440	-23.1	-25.3	212	14
2023-08-30T18:00	6594	438	-23.4	-25.5	213	14
2023-08-30T18:00	6621	436	-23.6	-25.8	213	14
2023-08-30T18:00	6648	435	-23.9	-26.0	214	14
2023-08-30T18:00	6677	433	-24.2	-26.2	215	15
2023-08-30T18:00	6704	431	-24.4	-26.3	216	15
2023-08-30T18:00	6734	430	-24.6	-26.4	217	15
2023-08-30T18:00	6768	428	-24.9	-26.6	217	16
2023-08-30T18:00	6795	426	-25.0	-27.3	216	15
2023-08-30T18:00	6821	424	-25.2	-27.3	215	15
2023-08-30T18:00	6848	423	-25.4	-27.3	215	15
2023-08-30T18:00	6877	421	-25.5	-27.6	214	15
2023-08-30T18:00	6905	420	-25.8	-27.9	212	15
2023-08-30T18:00	6934	418	-26.0	-27.9	211	14
2023-08-30T18:00	6963	416	-26.2	-27.9	210	15
2023-08-30T18:00	6984	415	-26.4	-28.2	209	15
2023-08-30T18:00	7010	413	-26.6	-28.2	207	15
2023-08-30T18:00	7042	412	-26.8	-28.5	206	15
2023-08-30T18:00	7064	410	-27.0	-28.8	204	15
2023-08-30T18:00	7091	409	-27.3	-28.8	201	15
2023-08-30T18:00	7121	407	-27.5	-29.0	199	15
2023-08-30T18:00	7154	405	-27.6	-29.4	196	15
2023-08-30T18:00	7184	404	-27.7	-30.0	194	15
2023-08-30T18:00	7218	402	-27.9	-30.3	193	15
2023-08-30T18:00	7244	400	-28.1	-30.6	192	15
2023-08-30T18:00	7273	399	-28.2	-31.2	191	15
2023-08-30T18:00	7301	397	-28.4	-31.5	190	15
2023-08-30T18:00	7325	396	-28.7	-31.4	190	15
2023-08-30T18:00	7350	394	-28.9	-31.4	189	15
2023-08-30T18:00	7373	393	-29.1	-31.3	188	15
2023-08-30T18:00	7402	392	-29.3	-31.3	188	15
2023-08-30T18:00	7431	390	-29.6	-31.8	187	15
2023-08-30T18:00	7460	388	-29.8	-31.7	187	15
2023-08-30T18:00	7489	387	-30.0	-31.9	188	16
2023-08-30T18:00	7511	386	-30.2	-32.1	188	16
2023-08-30T18:00	7534	384	-30.3	-32.7	188	16
2023-08-30T18:00	7559	383	-30.4	-33.9	188	15
2023-08-30T18:00	7591	381	-30.5	-34.9	188	15
2023-08-30T18:00	7615	380	-30.5	-36.2	187	15
2023-08-30T18:00	7638	379	-30.7	-36.2	187	15
2023-08-30T18:00	7663	377	-30.9	-36.4	187	15
2023-08-30T18:00	7692	376	-31.2	-36.5	187	15
2023-08-30T18:00	7723	374	-31.5	-36.6	186	16
2023-08-30T18:00	7759	372	-31.8	-36.8	186	16
2023-08-30T18:00	7789	371	-32.1	-37.0	187	16
2023-08-30T18:00	7817	369	-32.3	-37.2	188	17
2023-08-30T18:00	7838	368	-32.4	-37.4	189	17
2023-08-30T18:00	7857	367	-32.5	-37.8	191	18
2023-08-30T18:00	7885	366	-32.6	-37.9	193	18
2023-08-30T18:00	7916	364	-32.8	-38.3	195	18
2023-08-30T18:00	7941	363	-33.0	-38.4	195	18
2023-08-30T18:00	7960	362	-33.2	-38.5	195	18
2023-08-30T18:00	7982	361	-33.4	-38.5	194	17
2023-08-30T18:00	8005	360	-33.6	-38.9	193	17
2023-08-30T18:00	8029	358	-33.8	-38.8	192	17
2023-08-30T18:00	8049	357	-34.0	-38.6	191	17
2023-08-30T18:00	8070	356	-34.1	-38.9	190	16
2023-08-30T18:00	8090	355	-34.3	-39.3	190	16
2023-08-30T18:00	8110	354	-34.4	-39.2	189	17
2023-08-30T18:00	8131	353	-34.6	-39.3	189	17
2023-08-30T18:00	8156	352	-34.8	-39.7	188	17
2023-08-30T18:00	8184	350	-34.9	-40.7	188	18
2023-08-30T18:00	8215	349	-35.0	-41.8	188	18
2023-08-30T18:00	8237	348	-35.2	-41.8	189	19
2023-08-30T18:00	8262	346	-35.4	-41.7	190	19
2023-08-30T18:00	8294	345	-35.7	-41.7	191	19
2023-08-30T18:00	8327	343	-35.9	-41.9	192	19
2023-08-30T18:00	8347	342	-36.1	-42.0	193	19
2023-08-30T18:00	8369	341	-36.2	-41.8	194	19
2023-08-30T18:00	8394	340	-36.4	-41.9	195	19
2023-08-30T18:00	8424	338	-36.7	-42.6	196	20
2023-08-30T18:00	8455	337	-36.9	-43.2	197	20
2023-08-30T18:00	8482	336	-37.1	-43.6	197	20
2023-08-30T18:00	8507	334	-37.3	-43.4	196	20
2023-08-30T18:00	8533	333	-37.5	-43.5	196	19
2023-08-30T18:00	8561	332	-37.7	-43.6	196	19
2023-08-30T18:00	8592	331	-38.0	-44.1	195	18
2023-08-30T18:00	8616	329	-38.2	-44.5	195	18
2023-08-30T18:00	8641	328	-38.3	-45.2	194	18
2023-08-30T18:00	8666	327	-38.5	-45.8	194	18
2023-08-30T18:00	8702	325	-38.8	-46.1	194	18
2023-08-30T18:00	8727	324	-38.9	-46.4	194	18
2023-08-30T18:00	8751	323	-39.1	-46.2	195	18
2023-08-30T18:00	8779	322	-39.3	-46.0	195	18
2023-08-30T18:00	8803	320	-39.5	-46.3	195	18
2023-08-30T18:00	8834	319	-39.7	-46.9	194	18
2023-08-30T18:00	8863	318	-40.0	-47.4	193	19
2023-08-30T18:00	8897	316	-40.1	-49.3	193	19
2023-08-30T18:00	8925	315	-40.3	-50.1	192	18
2023-08-30T18:00	8957	313	-40.5	-50.1	192	18
2023-08-30T18:00	8982	312	-40.7	-50.3	192	18
2023-08-30T18:00	9008	311	-40.8	-50.7	191	18
2023-08-30T18:00	9033	310	-41.0	-50.7	191	18
2023-08-30T18:00	9057	309	-41.2	-50.9	191	18
2023-08-30T18:00	9086	307	-41.4	-50.8	191	18
2023-08-30T18:00	9117	306	-41.6	-51.0	190	18
2023-08-30T18:00	9142	305	-41.9	-51.4	190	18
2023-08-30T18:00	9168	304	-42.1		189	18
2023-08-30T18:00	9190	303	-42.3	-51.9	189	18
2023-08-30T18:00	9218	301	-42.5	-52.3	188	18
2023-08-30T18:00	9247	300	-42.7	-52.4	188	17
2023-08-30T18:00	9269	299	-42.9	-52.5	188	17
2023-08-30T18:00	9291	298	-43.1	-52.5	188	17
2023-08-30T18:00	9314	297	-43.3	-52.4	188	17
2023-08-30T18:00	9337	296	-43.5	-52.5	187	17
2023-08-30T18:00	9360	295	-43.7	-52.7	186	17
2023-08-30T18:00	9385	294	-43.9	-53.0	186	18
2023-08-30T18:00	9414	293	-44.1	-53.1	185	18
2023-08-30T18:00	9439	292	-44.4	-53.2	185	18
2023-08-30T18:00	9463	291	-44.6	-53.3	185	17
2023-08-30T18:00	9484	290	-44.7	-53.1	185	17
2023-08-30T18:00	9506	289	-45.0	-53.1	185	17
2023-08-30T18:00	9529	288	-45.2	-53.0	185	17
2023-08-30T18:00	9551	287	-45.4	-53.0	185	17
2023-08-30T18:00	9572	286	-45.6	-53.0	185	17
2023-08-30T18:00	9592	285	-45.8	-52.9	185	17
2023-08-30T18:00	9615	284	-46.0	-52.8	185	17
2023-08-30T18:00	9640	283	-46.2	-52.8	186	17
2023-08-30T18:00	9666	282	-46.4	-53.1	187	16
2023-08-30T18:00	9692	281	-46.6	-53.4	188	16
2023-08-30T18:00	9717	280	-46.8	-53.4	189	16
2023-08-30T18:00	9739	279	-47.0	-53.3	190	16
2023-08-30T18:00	9762	278	-47.2	-53.3	190	16
2023-08-30T18:00	9784	277	-47.4	-53.6	190	16
2023-08-30T18:00	9811	276	-47.6	-53.8	190	16
2023-08-30T18:00	9843	275	-47.8	-54.1	190	15
2023-08-30T18:00	9864	274	-48.0	-54.4	190	15
2023-08-30T18:00	9887	273	-48.2	-54.5	191	15
2023-08-30T18:00	9911	272	-48.4	-54.5	192	14
2023-08-30T18:00	9934	271	-48.5	-54.9	192	14
2023-08-30T18:00	9956	270	-48.7	-55.4	193	14
2023-08-30T18:00	9976	269	-48.8	-55.6	194	14
2023-08-30T18:00	9997	268	-48.9	-55.6	194	14
2023-08-30T18:00	10020	267	-49.1	-55.8	195	14
2023-08-30T18:00	10041	266	-49.1	-56.2	195	14
2023-08-30T18:00	10065	265	-49.2	-56.5	194	14
2023-08-30T18:00	10086	264	-49.3	-56.4	193	14
2023-08-30T18:00	10110	264	-49.5	-56.4	193	14
2023-08-30T18:00	10132	263	-49.6	-56.5	193	14
2023-08-30T18:00	10153	262	-49.8	-56.6	193	14
2023-08-30T18:00	10173	261	-50.0	-56.7	194	14
2023-08-30T18:00	10195	260	-50.2	-56.8	195	14
2023-08-30T18:00	10216	259	-50.3	-56.9	195	14
2023-08-30T18:00	10236	259	-50.4	-57.1	195	14
2023-08-30T18:00	10258	258	-50.4	-57.1	193	14
2023-08-30T18:00	10280	257	-50.4	-57.2	191	14
2023-08-30T18:00	10304	256	-50.5	-57.3	189	15
2023-08-30T18:00	10323	255	-50.7	-57.5	187	15
2023-08-30T18:00	10348	254	-50.8	-57.5	185	15
2023-08-30T18:00	10370	253	-50.9	-57.5	184	16
2023-08-30T18:00	10390	252	-50.9	-57.6	183	16
2023-08-30T18:00	10412	252	-51.0	-57.7	182	16
2023-08-30T18:00	10434	251	-51.2	-57.7	182	16
2023-08-30T18:00	10457	250	-51.3	-57.7	182	16
2023-08-30T18:00	10479	249	-51.4	-57.7	182	15
2023-08-30T18:00	10501	248	-51.6	-57.8	182	15
2023-08-30T18:00	10522	247	-51.8	-57.9	182	15
2023-08-30T18:00	10545	247	-51.9	-57.8	182	15
2023-08-30T18:00	10566	246	-52.1	-57.9	181	15
2023-08-30T18:00	10589	245	-52.2	-57.9	181	15
2023-08-30T18:00	10609	244	-52.4	-58.0	181	15
2023-08-30T18:00	10632	243	-52.5	-58.1	180	15
2023-08-30T18:00	10653	242	-52.3	-58.5	178	15
2023-08-30T18:00	10683	241	-52.0	-59.8	176	16
2023-08-30T18:00	10711	240	-50.4	-60.6	174	16
2023-08-30T18:00	10733	240	-50.3	-61.9	173	17
2023-08-30T18:00	10756	239	-50.3	-62.3	173	17
2023-08-30T18:00	10783	238	-50.2	-62.0	173	18
2023-08-30T18:00	10809	237	-50.4	-61.8	174	19
2023-08-30T18:00	10834	236	-50.6	-61.5	174	19
2023-08-30T18:00	10856	235	-50.7	-61.2	174	20
2023-08-30T18:00	10878	234	-50.9	-61.5	173	20
2023-08-30T18:00	10900	233	-50.5	-62.1	172	21
2023-08-30T18:00	10921	233	-50.2	-63.6	172	21
2023-08-30T18:00	10939	232	-49.4	-65.5	172	21
2023-08-30T18:00	10962	231	-48.6	-67.5	172	20
2023-08-30T18:00	10982	230	-48.0	-68.8	173	20
2023-08-30T18:00	11007	230	-47.5	-69.5	174	20
2023-08-30T18:00	11031	229	-47.2	-69.9	175	20
2023-08-30T18:00	11055	228	-46.5	-70.4	176	20
2023-08-30T18:00	11078	227	-46.2	-70.8	177	20
2023-08-30T18:00	11101	226	-46.3	-70.9	177	21
2023-08-30T18:00	11122	226	-46.5	-70.7	178	21
2023-08-30T18:00	11144	225	-46.6	-70.8	179	21
2023-08-30T18:00	11166	224	-46.7	-71.1	180	21
2023-08-30T18:00	11189	223	-46.8	-71.3	180	22
2023-08-30T18:00	11210	223	-46.9	-71.8	181	21
2023-08-30T18:00	11229	222	-46.9	-72.4	182	21
2023-08-30T18:00	11252	221	-46.9	-72.4	183	21
2023-08-30T18:00	11276	221	-47.0	-72.4	184	21
2023-08-30T18:00	11295	220	-47.2	-72.4	185	20
2023-08-30T18:00	11315	219	-47.3	-72.3	185	20
2023-08-30T18:00	11334	219	-47.4	-72.0	186	21
2023-08-30T18:00	11358	218	-47.4	-72.4	186	21
2023-08-30T18:00	11376	217	-47.0	-72.6	187	22
2023-08-30T18:00	11396	217	-46.6	-73.2	187	22
2023-08-30T18:00	11418	216	-46.5	-73.4	187	22
2023-08-30T18:00	11435	215	-46.6	-73.5	187	22
2023-08-30T18:00	11458	215	-46.5	-73.4	187	22
2023-08-30T18:00	11478	214	-46.2	-73.4	186	21
2023-08-30T18:00	11501	213	-45.9	-73.5	186	20
2023-08-30T18:00	11521	213	-45.9	-73.7	186	20
2023-08-30T18:00	11543	212	-46.0	-73.8	186	19
2023-08-30T18:00	11564	211	-46.0	-73.8	186	18
2023-08-30T18:00	11587	210	-45.9	-74.0	187	18
2023-08-30T18:00	11607	210	-45.9	-74.3	188	18
2023-08-30T18:00	11627	209	-45.7	-74.2	190	17
2023-08-30T18:00	11650	208	-45.6	-74.1	191	18
2023-08-30T18:00	11673	208	-45.6	-74.4	192	18
2023-08-30T18:00	11696	207	-45.4	-74.6	192	18
2023-08-30T18:00	11717	206	-45.4	-74.9	191	18
2023-08-30T18:00	11738	206	-45.2	-75.1	190	19
2023-08-30T18:00	11762	205	-44.9	-75.7	189	19
2023-08-30T18:00	11786	204	-44.8	-75.6	187	19
2023-08-30T18:00	11808	204	-44.8	-75.6	185	20
2023-08-30T18:00	11828	203	-44.8	-75.6	184	20
2023-08-30T18:00	11851	202	-44.7	-76.0	183	20
2023-08-30T18:00	11870	202	-44.6	-75.9	183	21
2023-08-30T18:00	11892	201	-44.6	-75.9	183	21
2023-08-30T18:00	11912	200	-44.5	-75.8	184	21
2023-08-30T18:00	11936	200	-44.4	-76.2	185	21
2023-08-30T18:00	11955	199	-44.4	-76.2	186	21
2023-08-30T18:00	11977	198	-44.4	-76.2	188	21
2023-08-30T18:00	12001	198	-44.4	-76.2	189	21
2023-08-30T18:00	12023	197	-44.5	-76.3	189	20
2023-08-30T18:00	12044	197	-44.5	-76.3	189	20
2023-08-30T18:00	12065	196	-44.4	-76.7	189	20
2023-08-30T18:00	12088	195	-44.4	-76.7	188	20
2023-08-30T18:00	12110	195	-44.4	-76.7	189	20
2023-08-30T18:00	12133	194	-44.2	-76.6	190	20
2023-08-30T18:00	12154	193	-44.3	-76.7	190	20
2023-08-30T18:00	12176	193	-44.3	-76.7	191	20
2023-08-30T18:00	12198	192	-44.4	-76.7	192	20
2023-08-30T18:00	12220	191	-44.6	-76.9	192	20
2023-08-30T18:00	12242	191	-44.7	-77.0	191	20
2023-08-30T18:00	12264	190	-44.9	-77.1	191	20
2023-08-30T18:00	12286	190	-44.8	-77.0	190	20
2023-08-30T18:00	12308	189	-44.9	-77.1	189	20
2023-08-30T18:00	12330	188	-44.9	-77.1	188	20
2023-08-30T18:00	12354	188	-44.8	-77.0	188	20
2023-08-30T18:00	12376	187	-44.7	-77.0	188	20
2023-08-30T18:00	12396	186	-44.7	-77.5	188	20
2023-08-30T18:00	12419	186	-44.7	-77.5	188	20
2023-08-30T18:00	12441	185	-44.8	-77.6	188	20
2023-08-30T18:00	12466	185	-44.8	-77.6	188	20
2023-08-30T18:00	12486	184	-44.8	-77.0	188	21
2023-08-30T18:00	12509	183	-44.9	-77.1	187	21
2023-08-30T18:00	12532	183	-45.1	-77.3	186	21
2023-08-30T18:00	12556	182	-45.2	-77.3	185	21
2023-08-30T18:00	12576	181	-45.3	-77.4	183	21
2023-08-30T18:00	12600	181	-45.4	-77.5	182	20
2023-08-30T18:00	12623	180	-45.6	-77.6	182	20
2023-08-30T18:00	12645	180	-45.6	-77.6	182	20
2023-08-30T18:00	12669	179	-45.5	-77.6	183	20
2023-08-30T18:00	12694	178	-45.5	-77.6	184	20
2023-08-30T18:00	12716	178	-45.8	-77.8	186	20
2023-08-30T18:00	12741	177	-45.9	-77.9	187	20
2023-08-30T18:00	12765	176	-46.0	-77.4	188	20
2023-08-30T18:00	12789	176	-46.2	-77.6	189	20
2023-08-30T18:00	12810	175	-46.3	-77.7	189	20
2023-08-30T18:00	12831	175	-46.4	-77.7	190	20
2023-08-30T18:00	12856	174	-46.6	-77.9	191	19
2023-08-30T18:00	12884	173	-46.7	-78.0	192	19
2023-08-30T18:00	12907	173	-46.8	-78.0	194	19
2023-08-30T18:00	12930	172	-46.9	-78.1	195	20
2023-08-30T18:00	12952	172	-47.0	-78.2	197	20
2023-08-30T18:00	12975	171	-47.2	-77.9	198	20
2023-08-30T18:00	12996	170	-47.4	-78.0	199	20
2023-08-30T18:00	13019	170	-47.5	-78.1	199	20
2023-08-30T18:00	13041	169	-47.8	-78.3	200	20
2023-08-30T18:00	13063	169	-47.9	-78.4	200	19
2023-08-30T18:00	13083	168	-48.0	-78.5	200	19
2023-08-30T18:00	13103	168	-48.0	-78.5	200	19
2023-08-30T18:00	13125	167	-48.0	-78.5	199	18
2023-08-30T18:00	13147	166	-48.0	-78.5	197	18
2023-08-30T18:00	13170	166	-48.1		195	18
2023-08-30T18:00	13191	165	-47.8	-78.3	193	17
2023-08-30T18:00	13213	165	-47.7	-78.2	191	17
2023-08-30T18:00	13236	164	-47.5	-78.1	189	17
2023-08-30T18:00	13255	164	-47.4	-78.0	187	17
2023-08-30T18:00	13278	163	-47.5	-78.1	186	17
2023-08-30T18:00	13303	163	-47.4	-78.0	184	18
2023-08-30T18:00	13324	162	-47.4	-78.0	182	18
2023-08-30T18:00	13346	162	-47.5	-78.1	181	18
2023-08-30T18:00	13367	161	-47.6	-78.2	180	19
2023-08-30T18:00	13389	161	-47.6	-78.2	179	19
2023-08-30T18:00	13410	160	-47.8	-78.3	178	20
2023-08-30T18:00	13431	159	-47.8	-78.3	178	20
2023-08-30T18:00	13453	159	-47.9	-78.0	179	21
2023-08-30T18:00	13476	158	-47.9	-78.0	179	21
2023-08-30T18:00	13498	158	-47.9	-78.0	180	21
2023-08-30T18:00	13517	157	-48.0	-78.0	180	21
2023-08-30T18:00	13538	157	-48.0	-78.0	181	21
2023-08-30T18:00	13561	156	-47.9	-78.0	181	21
2023-08-30T18:00	13584	156	-48.0	-78.0	181	21
2023-08-30T18:00	13604	155	-48.1	-78.1	182	21
2023-08-30T18:00	13629	155	-48.2	-78.2	182	21
2023-08-30T18:00	13651	154	-48.2	-78.2	182	22
2023-08-30T18:00	13672	154	-48.2	-78.2	183	22
2023-08-30T18:00	13695	153	-48.3	-78.3	184	22
2023-08-30T18:00	13716	153	-48.5	-78.4	184	22
2023-08-30T18:00	13738	152	-48.6	-78.5	185	22
2023-08-30T18:00	13760	152	-48.7	-78.6	186	23
2023-08-30T18:00	13782	151	-48.9	-78.7	186	23
2023-08-30T18:00	13804	151	-49.1	-78.5	186	23
2023-08-30T18:00	13826	150	-49.2	-78.5	186	23
2023-08-30T18:00	13847	150	-49.3	-78.6	187	24
2023-08-30T18:00	13871	149	-49.5	-78.8	187	23
2023-08-30T18:00	13892	149	-49.6	-78.8	188	23
2023-08-30T18:00	13911	148	-49.6	-78.8	189	23
2023-08-30T18:00	13936	148	-49.6	-78.8	190	22
2023-08-30T18:00	13957	147	-49.7	-79.3	190	21
2023-08-30T18:00	13979	147	-49.6	-79.2	190	20
2023-08-30T18:00	14002	146	-49.5	-79.2	190	20
2023-08-30T18:00	14019	146	-49.4	-79.1	190	19
2023-08-30T18:00	14043	145	-49.5	-79.2	189	18
2023-08-30T18:00	14065	145	-49.7	-79.3	189	18
2023-08-30T18:00	14085	144	-49.7	-79.3	188	17
2023-08-30T18:00	14105	144	-49.8	-79.4	187	17
2023-08-30T18:00	14129	143	-49.8	-79.4	186	16
2023-08-30T18:00	14147	143	-49.6	-79.2	185	16
2023-08-30T18:00	14169	143	-49.6	-79.7	183	16
2023-08-30T18:00	14189	142	-49.5	-79.6	182	17
2023-08-30T18:00	14210	142	-49.3	-79.9	181	17
2023-08-30T18:00	14229	141	-49.2	-79.8	180	17
2023-08-30T18:00	14253	141	-49.3	-79.9	179	17
2023-08-30T18:00	14272	140	-49.4	-80.0	179	18
2023-08-30T18:00	14294	140	-49.4	-80.0	178	18
2023-08-30T18:00	14316	139	-49.6	-80.1	178	18
2023-08-30T18:00	14339	139	-49.7	-79.7	179	18
2023-08-30T18:00	14357	138	-49.8	-79.8	179	19
2023-08-30T18:00	14384	138	-49.9	-79.9	180	19
2023-08-30T18:00	14405	138	-49.9	-79.9	181	20
2023-08-30T18:00	14426	137	-50.0	-80.4	182	20
2023-08-30T18:00	14447	137	-50.0	-80.4	183	21
2023-08-30T18:00	14468	136	-50.1	-80.0	183	22
2023-08-30T18:00	14489	136	-50.2	-80.1	184	22
2023-08-30T18:00	14512	135	-50.3	-80.2	184	22
2023-08-30T18:00	14529	135	-50.5	-80.3	185	22
2023-08-30T18:00	14554	134	-50.6	-80.4	186	22
2023-08-30T18:00	14577	134	-50.7	-80.5	187	22
2023-08-30T18:00	14595	134	-50.8	-80.6	187	22
2023-08-30T18:00	14616	133	-50.8	-80.6	188	22
2023-08-30T18:00	14640	133	-51.0	-80.7	188	21
2023-08-30T18:00	14662	132	-50.9	-80.6	189	21
2023-08-30T18:00	14684	132	-50.7	-80.5	190	20
2023-08-30T18:00	14705	131	-50.5	-80.3	192	20
2023-08-30T18:00	14729	131	-50.5	-80.8	193	19
2023-08-30T18:00	14753	130	-50.4	-80.7	195	18
2023-08-30T18:00	14772	130	-50.4	-80.7	196	18
2023-08-30T18:00	14797	129	-50.1	-80.5	196	17
2023-08-30T18:00	14818	129	-50.1	-80.5	196	17
2023-08-30T18:00	14839	129	-50.1	-80.5	197	17
2023-08-30T18:00	14866	128	-50.2	-80.6	197	16
2023-08-30T18:00	14885	128	-50.2	-80.6	198	16
2023-08-30T18:00	14907	127	-50.1	-81.0	199	17
2023-08-30T18:00	14931	127	-49.9	-80.8	199	17
2023-08-30T18:00	14954	126	-49.9	-80.8	199	17
2023-08-30T18:00	14975	126	-50.0	-80.9	200	17
2023-08-30T18:00	15000	126	-50.1	-81.0	200	17
2023-08-30T18:00	15022	125	-50.0	-80.9	201	17
2023-08-30T18:00	15044	125	-50.1	-81.0	202	17
2023-08-30T18:00	15068	124	-50.2	-81.0	203	17
2023-08-30T18:00	15090	124	-50.3	-81.1	205	16
2023-08-30T18:00	15112	123	-50.4	-81.2	206	16
2023-08-30T18:00	15137	123	-50.4	-81.2	208	15
2023-08-30T18:00	15159	122	-50.4	-81.7	210	15
2023-08-30T18:00	15182	122	-50.3	-81.6	212	15
2023-08-30T18:00	15204	122	-50.3	-81.6	214	14
2023-08-30T18:00	15225	121	-50.4	-81.7	215	14
2023-08-30T18:00	15249	121	-50.6	-81.9	216	14
2023-08-30T18:00	15272	120	-50.8	-81.5	217	13
2023-08-30T18:00	15290	120	-50.9	-81.6	217	13
2023-08-30T18:00	15314	120	-51.0	-81.6	217	13
2023-08-30T18:00	15336	119	-51.0	-81.6	217	13
2023-08-30T18:00	15357	119	-51.2	-81.8	217	12
2023-08-30T18:00	15381	118	-51.4	-81.9	216	12
2023-08-30T18:00	15402	118	-51.5	-82.0	215	12
2023-08-30T18:00	15425	118	-51.7	-82.2	214	12
2023-08-30T18:00	15448	117	-51.8	-82.2	212	11
2023-08-30T18:00	15469	117	-51.8	-82.2	210	11
2023-08-30T18:00	15492	116	-51.9	-82.3	209	11
2023-08-30T18:00	15514	116	-52.0	-82.4	207	11
2023-08-30T18:00	15538	116	-52.2	-82.5	206	11
2023-08-30T18:00	15561	115	-52.1	-82.5	205	11
2023-08-30T18:00	15585	115	-52.1	-82.5	205	11
2023-08-30T18:00	15608	114	-52.3	-82.6	204	11
2023-08-30T18:00	15630	114	-52.4	-82.7	204	11
2023-08-30T18:00	15657	113	-52.4	-82.7	203	11
2023-08-30T18:00	15678	113	-52.4	-82.7	201	11
2023-08-30T18:00	15704	113	-52.4	-82.7	199	11
2023-08-30T18:00	15724	112	-52.3	-82.6	197	11
2023-08-30T18:00	15749	112	-52.2	-82.5	195	11
2023-08-30T18:00	15775	111	-52.2	-82.5	193	11
2023-08-30T18:00	15800	111	-52.1	-82.5	191	11
2023-08-30T18:00	15823	111	-52.2	-82.5	189	11
2023-08-30T18:00	15846	110	-52.3	-82.6	188	12
2023-08-30T18:00	15868	110	-52.5	-82.8	187	12
2023-08-30T18:00	15894	109	-52.7	-82.9	187	12
2023-08-30T18:00	15920	109	-52.9	-82.6	186	12
2023-08-30T18:00	15943	109	-53.1	-82.7	186	12
2023-08-30T18:00	15968	108	-53.3	-82.9	185	12
2023-08-30T18:00	15988	108	-53.5	-83.0	185	11
2023-08-30T18:00	16014	107	-53.7	-83.2	184	11
2023-08-30T18:00	16040	107	-53.8	-83.3	184	11
2023-08-30T18:00	16061	107	-53.9	-83.3	184	11
2023-08-30T18:00	16082	106	-53.9	-83.3	185	11
2023-08-30T18:00	16106	106	-54.0	-83.4	186	11
2023-08-30T18:00	16128	105	-54.1	-83.5	186	11
2023-08-30T18:00	16151	105	-54.2	-83.6	186	11
2023-08-30T18:00	16173	105	-54.1	-83.5	186	12
2023-08-30T18:00	16197	104	-54.0	-83.9	185	12
2023-08-30T18:00	16218	104	-54.0	-83.9	185	12
2023-08-30T18:00	16240	104	-53.7	-83.7	185	12
2023-08-30T18:00	16256	103	-53.9	-83.8	186	12
2023-08-30T18:00	16280	103	-53.8	-83.7	188	12
2023-08-30T18:00	16303	103	-53.7	-84.2	190	12
2023-08-30T18:00	16326	102	-53.3	-83.9	193	12
2023-08-30T18:00	16347	102	-52.6	-83.9	197	12
2023-08-30T18:00	16370	102	-51.6	-83.8	201	11
2023-08-30T18:00	16392	101	-50.9	-83.3	204	11
2023-08-30T18:00	16412	101	-50.8	-83.2	207	11
2023-08-30T18:00	16432	101	-50.8	-83.2	208	10
2023-08-30T18:00	16454	100	-50.6	-83.1	206	10
2023-08-30T18:00	16469	100	-50.7	-83.1	202	9
2023-08-30T18:00	16502	100	-50.8	-83.2	195	9
2023-08-30T18:00	16528	99	-50.5	-83.0	186	9
2023-08-30T18:00	16551	99	-50.5	-83.0	177	9
2023-08-30T18:00	16580	98	-50.3	-82.8	169	9
2023-08-30T18:00	16606	98	-50.1	-82.7	163	9
2023-08-30T18:00	16631	98	-50.0	-82.6	159	10
2023-08-30T18:00	16656	97	-49.9	-82.5	157	10
2023-08-30T18:00	16679	97	-49.8	-82.5	157	11
2023-08-30T18:00	16705	96	-49.8	-82.5	158	11
2023-08-30T18:00	16729	96	-50.0	-82.6	159	12
2023-08-30T18:00	16756	96	-50.1	-82.7	160	12
2023-08-30T18:00	16782	95	-50.4	-82.3	160	12
2023-08-30T18:00	16806	95	-50.7	-82.5	161	12
2023-08-30T18:00	16832	95	-50.9	-82.7	162	12
2023-08-30T18:00	16865	94	-51.2	-82.9	163	13
2023-08-30T18:00	16887	94	-51.4	-83.0	164	13
2023-08-30T18:00	16911	93	-51.6	-82.6	165	13
2023-08-30T18:00	16938	93	-51.8	-82.8	167	14
2023-08-30T18:00	16964	93	-52.1	-83.0	169	14
2023-08-30T18:00	16991	92	-52.3	-83.1	171	14
2023-08-30T18:00	17012	92	-52.4	-83.2	172	14
2023-08-30T18:00	17041	92	-52.4	-83.2	174	14
2023-08-30T18:00	17065	91	-52.4	-83.2	176	14
2023-08-30T18:00	17093	91	-52.4	-83.2	177	14
2023-08-30T18:00	17117	91	-52.6	-83.3	179	13
2023-08-30T18:00	17143	90	-52.8	-83.5	180	13
2023-08-30T18:00	17168	90	-52.9	-83.6	182	13
2023-08-30T18:00	17195	89	-53.1	-83.7	184	13
2023-08-30T18:00	17219	89	-53.3	-83.9	186	13
2023-08-30T18:00	17247	89	-53.4	-83.9	188	13
2023-08-30T18:00	17272	88	-53.6	-84.1	190	12
2023-08-30T18:00	17302	88	-53.3	-83.9	191	12
2023-08-30T18:00	17327	88	-53.2	-83.8	192	12
2023-08-30T18:00	17354	87	-53.0	-84.2	193	12
2023-08-30T18:00	17376	87	-53.1	-84.3	194	13
2023-08-30T18:00	17403	87	-53.2	-84.4	196	13
2023-08-30T18:00	17433	86	-53.2	-84.4	198	12
2023-08-30T18:00	17464	86	-52.8	-84.1	200	12
2023-08-30T18:00	17497	85	-52.9	-84.1	203	11
2023-08-30T18:00	17523	85	-53.0	-84.2	206	10
2023-08-30T18:00	17548	85	-53.1	-83.7	210	9
2023-08-30T18:00	17578	84	-53.2	-83.8	213	9
2023-08-30T18:00	17605	84	-53.5	-84.0	217	8
2023-08-30T18:00	17628	84	-53.5	-84.0	218	7
2023-08-30T18:00	17656	83	-53.6	-84.1	218	7
2023-08-30T18:00	17684	83	-53.7	-84.2	217	7
2023-08-30T18:00	17709	83	-53.5	-84.0	215	6
2023-08-30T18:00	17733	82	-53.6	-84.1	213	6
2023-08-30T18:00	17759	82	-53.8	-84.2	211	6
2023-08-30T18:00	17783	82	-53.9	-84.3	208	5
2023-08-30T18:00	17806	81	-53.9	-84.3	203	5
2023-08-30T18:00	17826	81	-53.9	-84.3	197	5
2023-08-30T18:00	17849	81	-54.0	-84.4	188	4
2023-08-30T18:00	17874	80	-54.0	-84.4	179	5
2023-08-30T18:00	17898	80	-54.0	-84.4	169	5
2023-08-30T18:00	17924	80	-54.1	-84.5	161	5
2023-08-30T18:00	17951	80	-54.2	-84.5	154	5
2023-08-30T18:00	17972	79	-54.0	-84.4	148	6
2023-08-30T18:00	17997	79	-54.1	-84.5	146	6
2023-08-30T18:00	18026	79	-54.2	-84.5	147	7
2023-08-30T18:00	18050	78	-54.3	-84.6	149	7
2023-08-30T18:00	18074	78	-54.3	-84.6	154	7
2023-08-30T18:00	18102	78	-54.2	-84.5	159	7
2023-08-30T18:00	18124	77	-54.3	-84.6	165	7
2023-08-30T18:00	18144	77	-54.4	-84.7	171	7
2023-08-30T18:00	18171	77	-54.6	-84.8	176	7
2023-08-30T18:00	18198	77	-54.7	-84.9	181	7
2023-08-30T18:00	18220	76	-54.8	-84.5	186	7
2023-08-30T18:00	18241	76	-54.9	-84.6	189	8
2023-08-30T18:00	18265	76	-55.0	-84.6	192	8
2023-08-30T18:00	18291	75	-55.1	-84.7	193	9
2023-08-30T18:00	18314	75	-55.1	-84.7	194	9
2023-08-30T18:00	18337	75	-55.2	-84.8	194	9
2023-08-30T18:00	18360	75	-55.3	-85.4	194	8
2023-08-30T18:00	18383	74	-55.2	-85.3	194	8
2023-08-30T18:00	18409	74	-55.0	-85.1	193	8
2023-08-30T18:00	18432	74	-54.9	-85.1	191	7
2023-08-30T18:00	18456	74	-54.8	-85.0	188	7
2023-08-30T18:00	18481	73	-54.5	-84.8	184	7
2023-08-30T18:00	18504	73	-54.5	-84.8	179	7
2023-08-30T18:00	18531	73	-54.5	-84.8	174	7
2023-08-30T18:00	18553	72	-54.7	-84.9	170	7
2023-08-30T18:00	18579	72	-54.9	-85.1	168	7
2023-08-30T18:00	18600	72	-55.0	-85.1	169	7
2023-08-30T18:00	18626	72	-54.9	-85.1	172	7
2023-08-30T18:00	18650	71	-54.6	-84.8	177	7
2023-08-30T18:00	18676	71	-54.5	-84.8	184	6
2023-08-30T18:00	18698	71	-54.6	-84.8	190	6
2023-08-30T18:00	18723	71	-54.6	-84.8	196	6
2023-08-30T18:00	18747	70	-54.6	-85.4	201	6
2023-08-30T18:00	18770	70	-54.5	-85.3	203	6
2023-08-30T18:00	18798	70	-54.3	-85.2	204	6
2023-08-30T18:00	18819	69	-53.7	-84.7	201	6
2023-08-30T18:00	18845	69	-53.2	-85.0	195	5
2023-08-30T18:00	18873	69	-53.3	-85.0	188	5
2023-08-30T18:00	18892	69	-53.3	-85.0	178	5
2023-08-30T18:00	18919	68	-53.3	-84.4	168	5
2023-08-30T18:00	18943	68	-53.3	-84.4	159	5
2023-08-30T18:00	18972	68	-53.5	-84.6	151	6
2023-08-30T18:00	18998	68	-53.7	-84.7	146	6
2023-08-30T18:00	19022	67	-53.9	-84.9	143	7
2023-08-30T18:00	19047	67	-53.7	-84.7	143	7
2023-08-30T18:00	19073	67	-53.2	-84.4	145	7
2023-08-30T18:00	19101	67	-53.2	-84.4	148	7
2023-08-30T18:00	19121	66	-53.0	-84.2	153	7
2023-08-30T18:00	19149	66	-52.9	-84.1	159	7
2023-08-30T18:00	19168	66	-53.0	-84.2	164	7
2023-08-30T18:00	19195	66	-53.1	-84.3	170	7
2023-08-30T18:00	19223	65	-53.2	-84.4	174	8
2023-08-30T18:00	19247	65	-53.3	-84.4	177	8
2023-08-30T18:00	19271	65	-53.4	-84.5	179	8
2023-08-30T18:00	19292	65	-53.0	-84.2	181	8
2023-08-30T18:00	19318	64	-52.9	-84.1	182	8
2023-08-30T18:00	19342	64	-52.9	-84.7	183	7
2023-08-30T18:00	19368	64	-52.9	-84.7	183	7
2023-08-30T18:00	19393	64	-52.9	-84.7	184	6
2023-08-30T18:00	19420	63	-52.6	-84.5	186	6
2023-08-30T18:00	19441	63	-52.4	-84.4	188	5
2023-08-30T18:00	19465	63	-52.5	-84.4	192	5
2023-08-30T18:00	19495	63	-52.5	-84.4	197	5
2023-08-30T18:00	19514	62	-52.6	-84.5	203	4
2023-08-30T18:00	19545	62	-52.7	-84.6	209	4
2023-08-30T18:00	19573	62	-52.8	-84.7	214	4
2023-08-30T18:00	19593	62	-52.8	-84.7	218	3
2023-08-30T18:00	19618	61	-52.8	-84.7	217	3
2023-08-30T18:00	19645	61	-52.9	-84.7	213	3
2023-08-30T18:00	19670	61	-52.7	-84.6	205	3
2023-08-30T18:00	19696	61	-52.5	-84.4	197	2
2023-08-30T18:00	19718	60	-52.4	-84.4	191	2
2023-08-30T18:00	19744	60	-52.5	-84.4	184	2
2023-08-30T18:00	19770	60	-52.6	-84.5	176	2
2023-08-30T18:00	19792	60	-52.7	-84.6	164	2
2023-08-30T18:00	19820	59	-52.6	-84.5	150	2
2023-08-30T18:00	19845	59	-52.7	-84.6	136	2
2023-08-30T18:00	19868	59	-52.5	-84.4	128	3
2023-08-30T18:00	19895	59	-52.7	-84.6	123	4
2023-08-30T18:00	19925	59	-52.8	-84.7	122	4
2023-08-30T18:00	19947	58	-53.0	-84.2	123	5
2023-08-30T18:00	19974	58	-53.0	-84.2	126	5
2023-08-30T18:00	20001	58	-53.0	-84.2	130	6
2023-08-30T18:00	20032	58	-53.1	-84.3	134	6
2023-08-30T18:00	20056	57	-53.3	-84.4	138	6
2023-08-30T18:00	20080	57	-53.5	-84.6	140	7
2023-08-30T18:00	20109	57	-53.4	-84.5	143	7
2023-08-30T18:00	20133	57	-53.3	-84.4	145	7
2023-08-30T18:00	20158	56	-53.2	-84.4	146	7
2023-08-30T18:00	20184	56	-53.2	-84.4	148	7
2023-08-30T18:00	20211	56	-53.4	-84.5	149	8
2023-08-30T18:00	20237	56	-53.4	-85.1	150	8
2023-08-30T18:00	20265	56	-53.1	-84.9	150	7
2023-08-30T18:00	20291	55	-53.0	-84.8	148	7
2023-08-30T18:00	20315	55	-53.2	-85.0	145	7
2023-08-30T18:00	20346	55	-53.0	-84.8	142	7
2023-08-30T18:00	20369	55	-53.0	-84.8	140	7
2023-08-30T18:00	20395	54	-53.1	-84.9	140	6
2023-08-30T18:00	20425	54	-53.1	-84.9	142	6
2023-08-30T18:00	20449	54	-53.1	-84.9	145	6
2023-08-30T18:00	20478	54	-53.1	-84.9	149	7
2023-08-30T18:00	20503	53	-53.1	-84.9	152	7
2023-08-30T18:00	20534	53	-53.0	-84.2	154	8
2023-08-30T18:00	20560	53	-52.9	-84.1	156	8
2023-08-30T18:00	20581	53	-53.1	-84.3	158	8
2023-08-30T18:00	20609	53	-53.2	-84.4	162	7
2023-08-30T18:00	20637	52	-53.4	-84.5	167	7
2023-08-30T18:00	20659	52	-53.4	-84.5	172	7
2023-08-30T18:00	20694	52	-53.5	-84.6	177	7
2023-08-30T18:00	20722	52	-53.6	-84.6	183	6
2023-08-30T18:00	20750	52	-53.7	-84.7	187	6
2023-08-30T18:00	20777	51	-53.7	-84.7	190	6
2023-08-30T18:00	20802	51	-53.5	-84.6	193	6
2023-08-30T18:00	20828	51	-53.5	-84.6	195	5
2023-08-30T18:00	20852	51	-53.4	-84.5	195	5
2023-08-30T18:00	20879	50	-53.4	-84.5	195	4
2023-08-30T18:00	20904	50	-53.3	-84.4	193	4
2023-08-30T18:00	20931	50	-53.2	-84.4	188	3
2023-08-30T18:00	20954	50	-53.3	-84.4	182	2
2023-08-30T18:00	20979	50	-53.4	-84.5	174	2
2023-08-30T18:00	21007	49	-53.5	-84.6	168	2
2023-08-30T18:00	21030	49	-53.6	-84.6	166	2
2023-08-30T18:00	21051	49	-53.5	-84.6	165	2
2023-08-30T18:00	21072	49	-53.5	-84.6	164	3
2023-08-30T18:00	21101	49	-53.5	-84.6	162	3
2023-08-30T18:00	21122	49	-53.6	-84.6	160	4
2023-08-30T18:00	21155	48	-53.5	-84.6	158	4
2023-08-30T18:00	21182	48	-53.5	-84.6	157	5
2023-08-30T18:00	21201	48	-53.5	-84.6	154	5
2023-08-30T18:00	21227	48	-53.7	-84.7	151	5
2023-08-30T18:00	21249	48	-53.7	-84.7	147	5
2023-08-30T18:00	21279	47	-53.8	-84.8	144	5
2023-08-30T18:00	21304	47	-53.8	-84.8	141	5
2023-08-30T18:00	21323	47	-53.8	-84.8	140	6
2023-08-30T18:00	21356	47	-53.9	-84.9	141	6
2023-08-30T18:00	21375	47	-54.0	-84.9	144	6
2023-08-30T18:00	21406	47	-53.9	-84.9	149	6
2023-08-30T18:00	21428	46	-53.8	-84.8	154	6
2023-08-30T18:00	21452	46	-53.8	-84.8	159	7
2023-08-30T18:00	21477	46	-53.8	-84.8	163	7
2023-08-30T18:00	21503	46	-53.8	-85.4	167	7
2023-08-30T18:00	21529	46	-53.6	-85.3	168	8
2023-08-30T18:00	21556	45	-53.4	-85.1	169	8
2023-08-30T18:00	21579	45	-53.2	-85.0	169	8
2023-08-30T18:00	21604	45	-53.1	-84.9	168	8
2023-08-30T18:00	21632	45	-53.1	-84.9	168	8
2023-08-30T18:00	21654	45	-53.2	-85.0	169	7
2023-08-30T18:00	21683	45	-53.1	-84.9	171	7
2023-08-30T18:00	21708	44	-53.0	-84.8	174	7
2023-08-30T18:00	21733	44	-52.6	-84.5	177	7
2023-08-30T18:00	21762	44	-52.3	-84.3	180	8
2023-08-30T18:00	21782	44	-52.2	-84.9	183	8
2023-08-30T18:00	21803	44	-52.1	-84.2	184	8
2023-08-30T18:00	21830	44	-51.9	-84.0	186	8
2023-08-30T18:00	21863	43	-52.1	-84.2	187	8
2023-08-30T18:00	21886	43	-52.0	-84.1	189	8
2023-08-30T18:00	21919	43	-52.1	-84.2	190	8
2023-08-30T18:00	21937	43	-52.4	-84.4	192	8
2023-08-30T18:00	21966	43	-52.6	-84.5	193	8
2023-08-30T18:00	21993	42	-52.8	-84.7	194	8
2023-08-30T18:00	22020	42	-52.6	-84.5	195	8
2023-08-30T18:00	22048	42	-52.7	-84.6	198	8
2023-08-30T18:00	22073	42	-52.8	-84.7	201	8
2023-08-30T18:00	22102	42	-52.8	-84.7	205	8
2023-08-30T18:00	22130	42	-52.8	-84.7	209	8
2023-08-30T18:00	22158	41	-52.8	-84.7	212	8
2023-08-30T18:00	22184	41	-52.9	-84.7	215	8
2023-08-30T18:00	22207	41	-52.9	-84.7	217	9
2023-08-30T18:00	22234	41	-53.0	-84.8	219	9
2023-08-30T18:00	22260	41	-53.0	-84.8	221	9
2023-08-30T18:00	22290	41	-53.1	-84.9	222	9
2023-08-30T18:00	22319	40	-53.0	-84.8	223	8
2023-08-30T18:00	22345	40	-52.9	-84.7	224	8
2023-08-30T18:00	22370	40	-53.1	-84.9	225	8
2023-08-30T18:00	22400	40	-53.0	-84.8	226	8
2023-08-30T18:00	22428	40	-52.9	-84.7	227	8
2023-08-30T18:00	22453	40	-53.1	-84.9	227	8
2023-08-30T18:00	22482	39	-53.1	-84.9	228	8
2023-08-30T18:00	22508	39	-53.2	-85.0	228	7
2023-08-30T18:00	22537	39	-53.3	-85.0	227	7
2023-08-30T18:00	22564	39	-53.3	-85.0	225	6
2023-08-30T18:00	22597	39	-53.3	-85.0	220	6
2023-08-30T18:00	22621	39	-53.1	-84.9	212	5
2023-08-30T18:00	22653	38	-52.9	-84.7	203	5
2023-08-30T18:00	22680	38	-53.1	-84.9	195	5
2023-08-30T18:00	22708	38	-53.3	-85.0	190	5
2023-08-30T18:00	22740	38	-53.3	-85.0	189	5
2023-08-30T18:00	22767	38	-53.3	-85.0	190	6
2023-08-30T18:00	22802	37	-53.3	-85.0	194	6
2023-08-30T18:00	22820	37	-53.1	-84.9	199	6
2023-08-30T18:00	22849	37	-53.1	-84.9	205	6
2023-08-30T18:00	22876	37	-53.2	-85.0	211	6
2023-08-30T18:00	22903	37	-53.3	-85.0	217	6
2023-08-30T18:00	22936	37	-53.5	-84.6	221	6
2023-08-30T18:00	22963	37	-53.6	-84.6	221	6
2023-08-30T18:00	22988	36	-53.7	-84.7	218	6
2023-08-30T18:00	23016	36	-53.7	-84.7	211	5
2023-08-30T18:00	23051	36	-53.6	-85.3	201	5
2023-08-30T18:00	23068	36	-53.5	-85.2	192	5
2023-08-30T18:00	23097	36	-53.5	-85.2	186	5
2023-08-30T18:00	23125	36	-53.4	-85.1	186	4
2023-08-30T18:00	23151	35	-53.4	-85.1	191	4
2023-08-30T18:00	23181	35	-53.3	-85.0	198	4
2023-08-30T18:00	23213	35	-53.3	-85.0	204	4
2023-08-30T18:00	23238	35	-53.3	-85.0	206	4
2023-08-30T18:00	23262	35	-53.3	-85.0	205	4
2023-08-30T18:00	23285	35	-53.4	-85.1	202	5
2023-08-30T18:00	23315	35	-53.3	-85.0	201	5
2023-08-30T18:00	23337	34	-53.4	-85.1	201	5
2023-08-30T18:00	23372	34	-53.3	-85.0	205	5
2023-08-30T18:00	23392	34	-53.1	-84.9	211	5
2023-08-30T18:00	23418	34	-53.1	-84.9	218	5
2023-08-30T18:00	23449	34	-53.2	-85.0	223	5
2023-08-30T18:00	23472	34	-53.0	-84.8	228	5
2023-08-30T18:00	23499	34	-52.9	-84.7	233	5
2023-08-30T18:00	23522	33	-53.0	-84.8	239	5
2023-08-30T18:00	23554	33	-53.0	-84.8	247	5
2023-08-30T18:00	23577	33	-52.6	-84.5	255	5
2023-08-30T18:00	23609	33	-52.6	-85.2	263	5
2023-08-30T18:00	23639	33	-52.7	-85.3	271	4
2023-08-30T18:00	23669	33	-52.4	-85.1	279	4
2023-08-30T18:00	23692	33	-52.1	-84.8	285	4
2023-08-30T18:00	23716	32	-52.0	-84.8	289	3
2023-08-30T18:00	23747	32	-52.1	-84.8	289	3
2023-08-30T18:00	23775	32	-52.1	-84.8	288	3
2023-08-30T18:00	23807	32	-52.2	-84.9	286	3
2023-08-30T18:00	23830	32	-52.2	-84.9	288	3
2023-08-30T18:00	23853	32	-52.0	-84.8	294	2
2023-08-30T18:00	23889	32	-51.6	-84.5	307	2
2023-08-30T18:00	23908	32	-51.4	-84.3	322	2
2023-08-30T18:00	23948	31	-51.4	-84.3	335	2
2023-08-30T18:00	23975	31	-51.3	-84.3	343	2
2023-08-30T18:00	24002	31	-51.5	-84.4	345	2
2023-08-30T18:00	24033	31	-51.6	-84.5	342	2
2023-08-30T18:00	24056	31	-51.7	-84.5	332	1
2023-08-30T18:00	24091	31	-51.7	-84.5	300	1
2023-08-30T18:00	24127	31	-51.8	-84.6	228	1
2023-08-30T18:00	24154	30	-51.6	-84.5	201	1
2023-08-30T18:00	24181	30	-51.5	-84.4	194	2
2023-08-30T18:00	24207	30	-51.2	-84.2	195	3
2023-08-30T18:00	24236	30	-51.0	-84.0	201	3
2023-08-30T18:00	24267	30	-50.8	-84.7	208	4
2023-08-30T18:00	24292	30	-50.6	-84.5	216	4
2023-08-30T18:00	24326	30	-50.5	-84.5	221	5
2023-08-30T18:00	24356	29	-50.5	-84.5	225	6
2023-08-30T18:00	24389	29	-50.6	-84.5	229	6
2023-08-30T18:00	24409	29	-50.4	-84.4	232	5
2023-08-30T18:00	24438	29	-50.1	-84.2	235	5
2023-08-30T18:00	24483	29	-49.9	-84.0	240	5
2023-08-30T18:00	24501	29	-49.6	-83.8	245	4
2023-08-30T18:00	24527	29	-49.5	-83.7	248	4
2023-08-30T18:00	24557	29	-49.6	-83.8	250	5
2023-08-30T18:00	24595	28	-49.7	-83.9	251	5
2023-08-30T18:00	24620	28	-49.6	-83.8	251	5
2023-08-30T18:00	24648	28	-49.6	-83.8	251	6
2023-08-30T18:00	24683	28	-49.6	-83.8	250	7
2023-08-30T18:00	24708	28	-49.5	-83.7	250	7
2023-08-30T18:00	24737	28	-49.3	-83.6	251	8
2023-08-30T18:00	24767	28	-49.2	-83.5	252	8
2023-08-30T18:00	24798	28	-49.2	-83.5	254	8
2023-08-30T18:00	24832	27	-49.4	-83.7	256	8
2023-08-30T18:00	24850	27	-49.4	-83.7	259	7
2023-08-30T18:00	24888	27	-49.4	-83.7	262	7
2023-08-30T18:00	24914	27	-49.6	-83.8	266	6
2023-08-30T18:00	24942	27	-49.7	-83.9	271	6
2023-08-30T18:00	24976	27	-49.8	-84.0	274	6
2023-08-30T18:00	25006	27	-49.9	-84.0	276	6
2023-08-30T18:00	25037	27	-49.9	-84.0	277	5
2023-08-30T18:00	25067	26	-49.9	-84.0	275	5
2023-08-30T18:00	25095	26	-49.8	-84.0	272	5
2023-08-30T18:00	25111	26	-49.7	-83.9	267	5
2023-08-30T18:00	25146	26	-49.6	-83.8	264	5
2023-08-30T18:00	25176	26	-49.3	-83.6	262	6
2023-08-30T18:00	25217	26	-49.1	-83.4	262	6
2023-08-30T18:00	25233	26	-49.1	-83.4	262	7
2023-08-30T18:00	25269	26	-49.1	-83.4	262	7
2023-08-30T18:00	25291	26	-49.0	-83.4	262	7
2023-08-30T18:00	25325	25	-48.8	-83.2	261	8
2023-08-30T18:00	25346	25	-48.6	-83.1	261	8
2023-08-30T18:00	25386	25	-48.6	-83.1	261	8
2023-08-30T18:00	25400	25	-48.5	-83.0	263	8
2023-08-30T18:00	25436	25	-48.6	-83.1	266	8
2023-08-30T18:00	25456	25	-48.5	-83.0	270	8
2023-08-30T18:00	25489	25	-48.5	-83.0	275	8
2023-08-30T18:00	25517	25	-48.4	-82.9	281	7
2023-08-30T18:00	25547	25	-48.5	-83.0	286	7
2023-08-30T18:00	25580	24	-48.4	-82.9	289	7
2023-08-30T18:00	25604	24	-48.3	-83.8	288	7
2023-08-30T18:00	25631	24	-48.1	-83.6	285	7
2023-08-30T18:00	25659	24	-48.0	-83.6	279	7
2023-08-30T18:00	25693	24	-48.2	-83.7	273	7
2023-08-30T18:00	25716	24	-48.2	-83.7	268	8
2023-08-30T18:00	25741	24	-48.3	-83.8	265	8
2023-08-30T18:00	25773	24	-48.3	-83.8	263	8
2023-08-30T18:00	25806	24	-48.2	-83.7	263	7
2023-08-30T18:00	25834	24	-48.1	-83.6	264	7
2023-08-30T18:00	25860	23	-47.9	-83.5	267	7
2023-08-30T18:00	25887	23	-47.5	-83.2	271	7
2023-08-30T18:00	25913	23	-47.3	-83.1	275	7
2023-08-30T18:00	25941	23	-47.3	-83.1	279	7
2023-08-30T18:00	25973	23	-47.3	-83.1	285	7
2023-08-30T18:00	25998	23	-47.3	-83.1	291	7
2023-08-30T18:00	26024	23	-47.2	-83.0	298	7
2023-08-30T18:00	26049	23	-47.1	-82.9	307	7
2023-08-30T18:00	26077	23	-47.2	-83.0	315	6
2023-08-30T18:00	26117	23	-47.1	-82.9	321	6
2023-08-30T18:00	26139	22	-47.1	-82.9	324	6
2023-08-30T18:00	26166	22	-46.8	-82.7	324	5
2023-08-30T18:00	26189	22	-46.2	-83.4	320	5
2023-08-30T18:00	26228	22	-45.9	-83.2	317	4
2023-08-30T18:00	26255	22	-45.8	-83.1	318	4
2023-08-30T18:00	26285	22	-45.5	-82.9	327	4
2023-08-30T18:00	26309	22	-45.5	-82.9	340	4
2023-08-30T18:00	26334	22	-45.4	-82.8	353	4
2023-08-30T18:00	26357	22	-45.3	-82.7	3	5
2023-08-30T18:00	26401	22	-44.9	-82.5	10	6
2023-08-30T18:00	26427	22	-44.8	-82.4	16	7
2023-08-30T18:00	26447	21	-44.9	-82.5	20	7
2023-08-30T18:00	26470	21	-44.9	-82.5	24	7
2023-08-30T18:00	26499	21	-45.0	-82.5	25	7
2023-08-30T18:00	26529	21	-45.1	-82.6	24	7
2023-08-30T18:00	26559	21	-44.8	-82.4	21	6
2023-08-30T18:00	26583	21	-44.6	-82.2	14	5
2023-08-30T18:00	26619	21	-44.6	-82.2	3	4
2023-08-30T18:00	26645	21	-44.7	-82.3	346	3
2023-08-30T18:00	26667	21	-44.9	-82.5	323	3
2023-08-30T18:00	26702	21	-44.9	-82.5	305	4
2023-08-30T18:00	26736	21	-44.7	-82.3	296	4
2023-08-30T18:00	26755	20	-44.6	-82.2	295	4
2023-08-30T18:00	26779	20	-44.4	-82.1	299	4
2023-08-30T18:00	26820	20	-43.9	-81.8	308	4
2023-08-30T18:00	26847	20	-43.2	-81.3	320	4
2023-08-30T18:00	26869	20	-43.0	-81.1	333	4
2023-08-30T18:00	26896	20	-42.7	-80.9	346	4
2023-08-30T18:00	26926	20	-42.5	-80.8	360	4
2023-08-30T18:00	26951	20	-42.5	-80.8	12	4
2023-08-30T18:00	26986	20	-42.5	-80.8	24	5
2023-08-30T18:00	27021	20	-42.6	-80.8	34	5
2023-08-30T18:00	27046	20	-42.7	-80.9	43	6
2023-08-30T18:00	27085	20	-42.7	-80.9	51	6
2023-08-30T18:00	27105	19	-42.8	-81.0	58	6
2023-08-30T18:00	27127	19	-42.9	-81.1	62	6
2023-08-30T18:00	27157	19	-42.9	-81.1	65	6
2023-08-30T18:00	27177	19	-42.7	-80.9	67	5
2023-08-30T18:00	27216	19	-42.3	-80.6	66	5
2023-08-30T18:00	27246	19	-42.2	-80.6	63	4
2023-08-30T18:00	27284	19	-42.2	-80.6	58	3
2023-08-30T18:00	27312	19	-41.9	-80.4	49	3
2023-08-30T18:00	27344	19	-42.1	-80.5	36	2
2023-08-30T18:00	27369	19	-42.3	-80.6	17	2
2023-08-30T18:00	27395	19	-42.5	-80.8	353	2
2023-08-30T18:00	27436	19	-42.8	-81.0	330	2
2023-08-30T18:00	27466	18	-43.0	-81.1	316	3
2023-08-30T18:00	27487	18	-43.2	-81.3	310	3
2023-08-30T18:00	27512	18	-43.4	-81.4	310	3
2023-08-30T18:00	27551	18	-43.4	-81.4	315	4
2023-08-30T18:00	27595	18	-43.2	-81.3	325	4
2023-08-30T18:00	27619	18	-43.0	-81.1	338	4
2023-08-30T18:00	27643	18	-42.9	-81.1	352	4
2023-08-30T18:00	27688	18	-42.8	-81.0	5	4
2023-08-30T18:00	27706	18	-42.7	-80.9	15	4
2023-08-30T18:00	27741	18	-42.7	-80.9	25	4
2023-08-30T18:00	27774	18	-42.7	-80.9	34	5
2023-08-30T18:00	27818	18	-42.9	-81.1	45	5
2023-08-30T18:00	27836	17	-42.8	-81.0	57	5
2023-08-30T18:00	27864	17	-42.8	-81.0	68	5
2023-08-30T18:00	27893	17	-42.7	-80.9	79	5
2023-08-30T18:00	27934	17	-42.5	-80.8	87	4
2023-08-30T18:00	27962	17	-42.3	-80.6	95	4
2023-08-30T18:00	27981	17	-42.2	-80.6	102	4
2023-08-30T18:00	28014	17	-42.1	-80.5	110	3
2023-08-30T18:00	28047	17	-42.2	-80.6	120	3
2023-08-30T18:00	28076	17	-42.4	-80.7	132	2
2023-08-30T18:00	28100	17	-42.5	-80.8	147	2
2023-08-30T18:00	28128	17	-42.5	-80.8	166	2
2023-08-30T18:00	28167	17	-42.6	-80.8	188	1
2023-08-30T18:00	28197	17	-42.5	-80.8	213	1
2023-08-30T18:00	28207	17	-42.5	-80.8	237	1
2023-08-30T18:00	28244	16	-42.5	-80.8	260	1
2023-08-30T18:00	28278	16	-42.4	-80.7	287	1
2023-08-30T18:00	28308	16	-42.3	-80.6	320	1
2023-08-30T18:00	28328	16	-42.1	-80.5	353	1
2023-08-30T18:00	28380	16	-41.9	-80.4	20	2
2023-08-30T18:00	28383	16	-41.8	-80.3	39	3
2023-08-30T18:00	28425	16	-41.5	-80.1	52	3
2023-08-30T18:00	28448	16	-41.4	-80.0	62	4
2023-08-30T18:00	28477	16	-41.5	-80.1	69	4
2023-08-30T18:00	28506	16	-41.6	-80.1	74	5
2023-08-30T18:00	28526	16	-41.6	-80.1	78	5
2023-08-30T18:00	28561	16	-41.4	-80.0	81	5
2023-08-30T18:00	28579	16	-41.3	-79.9	82	6
2023-08-30T18:00	28628	16	-41.1	-79.8	84	6
2023-08-30T18:00	28637	15	-41.1	-79.8	85	6
2023-08-30T18:00	28688	15	-40.9	-79.7	88	6
2023-08-30T18:00	28716	15	-40.9	-79.7	91	6
2023-08-30T18:00	28743	15	-40.9	-79.7	95	7
2023-08-30T18:00	28775	15	-41.1	-79.8	100	7
2023-08-30T18:00	28809	15	-41.2	-79.9	105	7
2023-08-30T18:00	28820	15	-41.5	-80.1	110	7
2023-08-30T18:00	28863	15	-41.8	-80.3	115	8
2023-08-30T18:00	28895	15	-42.0	-80.4	118	8
2023-08-30T18:00	28934	15	-42.2	-80.6	121	7
2023-08-30T18:00	28951	15	-42.3	-80.6	122	7
2023-08-30T18:00	28986	15	-42.3	-80.6	122	6
2023-08-30T18:00	29037	15	-42.4	-80.7	121	6
2023-08-30T18:00	29069	15	-42.3	-80.6	120	5
2023-08-30T18:00	29092	15	-42.4	-80.7	121	4
2023-08-30T18:00	29133	14	-42.4	-80.7	122	4
2023-08-30T18:00	29170	14	-42.2	-80.6	123	4
2023-08-30T18:00	29194	14	-42.1	-80.5	123	4
2023-08-30T18:00	29232	14	-42.1	-80.5	121	4
2023-08-30T18:00	29267	14	-41.9	-80.4	121	5
2023-08-30T18:00	29305	14	-41.8	-80.3	122	6
2023-08-30T18:00	29331	14	-41.5	-80.1	124	7
2023-08-30T18:00	29356	14	-41.2	-79.9	126	8
2023-08-30T18:00	29404	14	-40.9	-79.7	130	9
2023-08-30T18:00	29424	14	-40.9	-79.7	133	9
2023-08-30T18:00	29462	14	-40.8	-79.6	137	10
2023-08-30T18:00	29486	14	-40.6	-79.5	141	10
2023-08-30T18:00	29547	14	-40.3	-79.2	145	11
2023-08-30T18:00	29563	14	-39.9	-79.0	149	11
2023-08-30T18:00	29573	13	-39.8	-78.9	153	11
2023-08-30T18:00	29608	13	-39.8	-78.9	157	11
2023-08-30T18:00	29656	13	-39.9	-79.0	161	10
2023-08-30T18:00	29671	13	-40.0	-79.0	165	10
2023-08-30T18:00	29704	13	-40.0	-79.0	170	10
2023-08-30T18:00	29743	13	-40.2	-79.2	175	11
2023-08-30T18:00	29761	13	-40.3	-79.2	180	11
2023-08-30T18:00	29780	13	-40.5	-79.4	185	11
2023-08-30T18:00	29834	13	-40.6	-79.5	189	12
2023-08-30T18:00	29856	13	-40.6	-79.5	193	12
2023-08-30T18:00	29876	13	-40.7	-79.5	195	13
2023-08-30T18:00	29914	13	-40.6	-79.5	197	13
2023-08-30T18:00	29941	13	-40.6	-79.5	198	12
2023-08-30T18:00	29961	13	-40.8	-79.6	199	12
2023-08-30T18:00	30003	13	-40.8	-79.6	200	11
2023-08-30T18:00	30031	13	-40.6	-79.5	201	9
2023-08-30T18:00	30063	13	-40.3	-79.2	200	8
2023-08-30T18:00	30091	13	-40.1	-79.1	197	6
2023-08-30T18:00	30103	12	-39.9	-79.0	191	5
2023-08-30T18:00	30166	12	-39.7	-78.8	180	4
2023-08-30T18:00	30173	12	-39.4	-78.6	166	4
2023-08-30T18:00	30199	12	-38.9	-78.3	152	3
2023-08-30T18:00	30249	12	-38.7	-78.1	140	3
2023-08-30T18:00	30255	12	-38.4	-77.9	129	4
2023-08-30T18:00	30307	12	-38.4	-77.9	121	4
2023-08-30T18:00	30371	12	-37.8	-77.5	114	5
2023-08-30T18:00	30420	12	-37.8	-77.5	118	6
2023-08-30T18:00	30452	12	-37.9	-77.6	124	7
2023-08-30T18:00	30466	12	-37.9	-77.6	129	7
2023-08-30T18:00	30492	12	-37.9	-77.6	135	8
2023-08-30T18:00	30554	12	-38.0	-77.6	139	8
2023-08-30T18:00	30581	12	-38.1	-77.7	142	8
2023-08-30T18:00	30604	12	-38.0	-77.6	145	8
2023-08-30T18:00	30643	12	-37.8	-77.5	148	8
2023-08-30T18:00	30670	12	-37.8	-77.5	152	8
2023-08-30T18:00	30703	11	-37.8	-77.5	156	8
2023-08-30T18:00	30726	11	-37.8	-77.5	160	8
2023-08-30T18:00	30778	11	-37.9	-77.6	165	8
2023-08-30T18:00	30792	11	-37.9	-77.6	169	8
2023-08-30T18:00	30828	11	-37.9	-77.6	172	8
2023-08-30T18:00	30861	11	-38.0	-77.6	174	8
2023-08-30T18:00	30883	11	-38.0	-77.6	173	8
2023-08-30T18:00	30923	11	-38.0	-77.6	172	8
2023-08-30T18:00	30973	11	-38.2	-77.8	171	7
2023-08-30T18:00	30997	11	-38.4	-77.9	171	7
2023-08-30T18:00	31014	11	-38.5	-78.0	172	7
2023-08-30T18:00	31088	11	-38.5	-78.0	174	6
2023-08-30T18:00	31114	11	-38.6	-78.1	176	6
2023-08-30T18:00	31184	11	-38.7	-78.1	176	5
2023-08-30T18:00	31202	11	-38.7	-78.1	177	5
2023-08-30T18:00	31227	11	-38.8	-78.2	180	5
2023-08-30T18:00	31280	11	-38.9	-78.3	185	5
2023-08-30T18:00	31311	10	-39.2	-78.5	197	5
2023-08-30T18:00	31365	10	-39.4	-78.6	203	5
2023-08-30T18:00	31401	10	-39.7	-78.8	209	5
2023-08-30T18:00	31439	10	-39.8	-78.9	213	5
2023-08-30T18:00	31468	10	-40.0	-79.0	214	5
2023-08-30T18:00	31500	10	-40.1	-79.1	211	5
2023-08-30T18:00	31553	10	-40.3	-79.2	204	4
2023-08-30T18:00	31578	10	-40.4	-79.3	194	4
2023-08-30T18:00	31602	10	-40.5	-79.4	185	5
2023-08-30T18:00	31644	10	-40.5	-79.4	179	5
2023-08-30T18:00	31680	10	-40.5	-79.4	175	6
2023-08-30T18:00	31701	10	-40.6	-79.5	173	6
2023-08-30T18:00	31753	10	-40.7	-79.5	172	6
2023-08-30T18:00	31764	10	-40.7	-79.5	171	6
2023-08-30T18:00	31800	10	-40.6	-79.5	169	5
2023-08-30T18:00	31840	10	-40.6	-79.5	168	5
2023-08-30T18:00	31883	10	-40.6	-79.5	165	4
2023-08-30T18:00	31901	10	-40.7	-79.5	163	4
2023-08-30T18:00	31915	10	-40.7	-79.5	161	4
2023-08-30T18:00	31962	10	-40.7	-79.5	159	3
2023-08-30T18:00	31981	10	-40.7	-79.5	157	3
2023-08-30T18:00	32042	9	-40.7	-79.5	154	3
2023-08-30T18:00	32047	9	-40.5	-79.4	150	3
2023-08-30T18:00	32094	9	-40.3	-79.2	148	4
2023-08-30T18:00	32131	9	-40.1	-79.1	149	4
2023-08-30T18:00	32191	9	-40.2	-79.2	156	6
2023-08-30T18:00	32198	9	-40.0	-79.0	160	7
2023-08-30T18:00	32211	9	-40.0	-79.0	164	7
2023-08-30T18:00	32283	9	-40.0	-79.0	167	7
2023-08-30T18:00	32297	9	-40.2	-79.2	171	7
2023-08-30T18:00	32325	9	-40.2	-79.2	174	7
2023-08-30T18:00	32361	9	-40.1	-79.1	178	6
2023-08-30T18:00	32405	9	-39.8	-78.9	184	5
2023-08-30T18:00	32411	9	-39.5	-78.7	193	4
2023-08-30T18:00	32435	9	-39.2	-78.5	204	4
2023-08-30T18:00	32486	9	-38.8	-78.2	214	4
2023-08-30T18:00	32498	9	-38.2	-77.8	220	4
2023-08-31T00:00	112	993	13.4	12.0	140	3
2023-08-31T00:00	136	990	13.9	12.0	178	3
2023-08-31T00:00	161	987	14.6	11.8	180	4
2023-08-31T00:00	189	984	15.2	11.2	184	6
2023-08-31T00:00	212	982	16.4	10.9	188	6
2023-08-31T00:00	232	979	16.6	11.1	192	7
2023-08-31T00:00	256	976	16.5	10.8	196	7
2023-08-31T00:00	280	974	16.5	10.4	200	7
2023-08-31T00:00	305	971	16.3	10.4	204	7
2023-08-31T00:00	330	968	16.1	10.2	209	7
2023-08-31T00:00	355	965	16.4	9.5	214	7
2023-08-31T00:00	381	962	16.6	8.7	219	7
2023-08-31T00:00	407	959	16.6	8.6	223	7
2023-08-31T00:00	433	957	16.4	8.6	225	8
2023-08-31T00:00	457	954	16.1	8.5	226	8
2023-08-31T00:00	477	951	15.9	8.5	226	8
2023-08-31T00:00	501	949	15.7	8.5	226	9
2023-08-31T00:00	525	946	15.5	8.5	226	9
2023-08-31T00:00	545	944	15.3	8.5	226	9
2023-08-31T00:00	567	941	15.1	8.5	225	8
2023-08-31T00:00	591	939	14.8	8.5	223	8
2023-08-31T00:00	615	936	14.6	8.6	222	8
2023-08-31T00:00	640	933	14.5	8.5	220	8
2023-08-31T00:00	663	931	14.3	8.5	221	8
2023-08-31T00:00	687	928	14.1	8.4	222	8
2023-08-31T00:00	709	926	14.0	8.4	223	8
2023-08-31T00:00	732	923	13.8	8.2	224	8
2023-08-31T00:00	756	921	13.6	8.2	224	8
2023-08-31T00:00	781	918	13.4	8.1	223	8
2023-08-31T00:00	805	915	13.2	8.0	222	8
2023-08-31T00:00	832	912	12.9	7.7	222	8
2023-08-31T00:00	855	910	12.7	7.4	222	7
2023-08-31T00:00	878	907	12.6	7.2	223	8
2023-08-31T00:00	900	905	12.4	7.1	223	8
2023-08-31T00:00	924	902	12.1	6.9	224	8
2023-08-31T00:00	950	900	11.9	6.8	224	8
2023-08-31T00:00	971	897	11.7	6.5	224	8
2023-08-31T00:00	996	895	11.5	6.4	225	8
2023-08-31T00:00	1019	892	11.3	6.3	225	8
2023-08-31T00:00	1041	890	11.1	6.1	225	8
2023-08-31T00:00	1066	887	10.9	6.0	225	9
2023-08-31T00:00	1090	884	10.7	5.9	224	9
2023-08-31T00:00	1119	882	10.5	6.2	223	9
2023-08-31T00:00	1143	879	10.2	6.1	221	9
2023-08-31T00:00	1170	876	10.0	6.1	221	9
2023-08-31T00:00	1190	874	9.8	5.9	221	8
2023-08-31T00:00	1211	872	9.6	5.8	223	8
2023-08-31T00:00	1240	869	9.4	6.0	226	8
2023-08-31T00:00	1266	866	9.1	6.0	229	8
2023-08-31T00:00	1291	864	9.0	5.8	232	8
2023-08-31T00:00	1316	861	8.8	5.7	233	8
2023-08-31T00:00	1339	859	8.7	5.5	234	8
2023-08-31T00:00	1363	856	8.5	5.2	235	8
2023-08-31T00:00	1388	854	8.3	4.9	235	8
2023-08-31T00:00	1408	851	8.1	4.9	236	8
2023-08-31T00:00	1431	849	8.0	5.0	237	7
2023-08-31T00:00	1454	847	7.8	4.9	238	7
2023-08-31T00:00	1485	844	7.5	4.4	239	7
2023-08-31T00:00	1509	841	7.3	4.4	240	7
2023-08-31T00:00	1533	839	7.1	3.9	241	7
2023-08-31T00:00	1559	836	6.8	3.7	242	7
2023-08-31T00:00	1591	833	6.6	3.7	243	7
2023-08-31T00:00	1624	830	6.3	3.8	244	7
2023-08-31T00:00	1647	827	6.0	3.8	245	7
2023-08-31T00:00	1676	824	5.8	3.7	245	7
2023-08-31T00:00	1701	822	5.6	3.5	244	7
2023-08-31T00:00	1726	819	5.4	3.4	244	7
2023-08-31T00:00	1750	817	5.2	3.1	246	7
2023-08-31T00:00	1773	814	5.0	3.0	248	6
2023-08-31T00:00	1794	812	4.8	3.0	250	6
2023-08-31T00:00	1816	810	4.7	2.8	250	6
2023-08-31T00:00	1837	808	4.6	2.3	249	6
2023-08-31T00:00	1862	805	4.4	2.2	247	6
2023-08-31T00:00	1890	803	4.2	1.8	245	6
2023-08-31T00:00	1914	800	4.0	1.7	243	5
2023-08-31T00:00	1940	798	3.8	1.8	243	5
2023-08-31T00:00	1961	796	3.6	1.8	242	6
2023-08-31T00:00	1984	794	3.4	1.7	243	6
2023-08-31T00:00	2006	792	3.3	1.6	244	6
2023-08-31T00:00	2029	789	3.1	1.3	246	5
2023-08-31T00:00	2054	787	2.9	1.1	248	5
2023-08-31T00:00	2077	785	2.7	1.0	250	6
2023-08-31T00:00	2096	783	2.6	0.8	251	6
2023-08-31T00:00	2116	781	2.6	0.0	249	6
2023-08-31T00:00	2139	779	2.5	-0.3	247	6
2023-08-31T00:00	2162	776	2.4	-0.5	245	6
2023-08-31T00:00	2189	774	2.3	-1.1	245	6
2023-08-31T00:00	2212	772	2.2	-1.3	247	7
2023-08-31T00:00	2234	770	2.1	-1.6	251	7
2023-08-31T00:00	2255	768	2.1	-1.9	256	7
2023-08-31T00:00	2275	766	2.0	-2.1	261	8
2023-08-31T00:00	2293	764	1.8	-2.1	263	8
2023-08-31T00:00	2313	762	1.7	-2.3	263	8
2023-08-31T00:00	2333	760	1.6	-2.3	260	7
2023-08-31T00:00	2353	758	1.4	-2.4	256	7
2023-08-31T00:00	2372	756	1.3	-2.4	251	7
2023-08-31T00:00	2395	754	1.1	-2.5	249	8
2023-08-31T00:00	2420	752	1.0	-2.7	249	8
2023-08-31T00:00	2444	750	1.1	-3.3	249	9
2023-08-31T00:00	2461	748	1.0	-3.4	249	9
2023-08-31T00:00	2494	745	0.7	-3.0	246	8
2023-08-31T00:00	2514	743	0.5	-2.6	242	8
2023-08-31T00:00	2537	741	0.3	-2.5	236	7
2023-08-31T00:00	2556	739	0.2	-2.8	231	7
2023-08-31T00:00	2575	738	0.1	-3.1	229	7
2023-08-31T00:00	2594	736	-0.1	-3.2	231	7
2023-08-31T00:00	2618	734	-0.3	-3.4	236	8
2023-08-31T00:00	2641	731	-0.5	-3.4	243	8
2023-08-31T00:00	2666	729	-0.8	-3.2	250	8
2023-08-31T00:00	2692	727	-1.0	-3.3	254	9
2023-08-31T00:00	2711	725	-1.2	-3.4	256	9
2023-08-31T00:00	2731	723	-1.3	-3.3	255	9
2023-08-31T00:00	2749	722	-1.5	-3.0	252	9
2023-08-31T00:00	2775	719	-1.7	-2.9	248	9
2023-08-31T00:00	2798	717	-1.8	-4.1	244	9
2023-08-31T00:00	2821	715	-1.9	-4.6	240	9
2023-08-31T00:00	2841	713	-2.0	-4.5	237	9
2023-08-31T00:00	2872	711	-2.3	-4.7	234	9
2023-08-31T00:00	2904	708	-2.6	-4.8	231	8
2023-08-31T00:00	2927	706	-2.8	-4.9	230	8
2023-08-31T00:00	2946	704	-2.9	-4.9	231	8
2023-08-31T00:00	2964	702	-3.1	-4.9	233	8
2023-08-31T00:00	2994	700	-3.4	-4.8	237	8
2023-08-31T00:00	3022	697	-3.4	-4.6	240	8
2023-08-31T00:00	3056	694	-3.5	-4.8	243	8
2023-08-31T00:00	3084	692	-3.7	-5.5	244	8
2023-08-31T00:00	3105	690	-3.8	-5.8	243	7
2023-08-31T00:00	3132	688	-3.9	-5.7	242	7
2023-08-31T00:00	3159	685	-4.3	-5.6	241	7
2023-08-31T00:00	3190	683	-4.6	-5.8	240	7
2023-08-31T00:00	3220	680	-4.8	-6.1	239	6
2023-08-31T00:00	3239	678	-4.9	-6.2	238	6
2023-08-31T00:00	3264	676	-5.1	-6.3	237	6
2023-08-31T00:00	3291	674	-5.3	-6.3	236	6
2023-08-31T00:00	3319	672	-5.6	-6.6	234	6
2023-08-31T00:00	3341	670	-5.8	-6.6	233	6
2023-08-31T00:00	3358	668	-6.0	-6.7	232	6
2023-08-31T00:00	3381	666	-6.2	-6.7	234	7
2023-08-31T00:00	3404	664	-6.4	-6.7	237	7
2023-08-31T00:00	3432	662	-6.6		242	7
2023-08-31T00:00	3456	660	-6.7	-7.2	246	8
2023-08-31T00:00	3476	658	-6.7	-7.9	249	8
2023-08-31T00:00	3506	656	-6.2	-9.2	250	9
2023-08-31T00:00	3534	653	-6.4	-9.2	249	9
2023-08-31T00:00	3566	651	-6.6	-9.9	249	10
2023-08-31T00:00	3586	649	-6.7	-10.3	248	10
2023-08-31T00:00	3602	648	-6.6	-11.5	249	10
2023-08-31T00:00	3620	646	-6.3	-12.9	249	9
2023-08-31T00:00	3645	644	-6.3	-15.0	250	8
2023-08-31T00:00	3668	642	-6.4	-15.8	250	8
2023-08-31T00:00	3691	640	-6.5	-16.2	250	8
2023-08-31T00:00	3715	638	-6.7	-18.5	248	8
2023-08-31T00:00	3744	636	-6.7	-19.8	246	8
2023-08-31T00:00	3766	634	-6.7	-19.5	243	8
2023-08-31T00:00	3792	632	-6.8	-19.5	240	7
2023-08-31T00:00	3823	630	-7.0	-17.9	236	7
2023-08-31T00:00	3851	627	-7.1	-18.5	231	8
2023-08-31T00:00	3881	625	-7.2	-17.9	228	8
2023-08-31T00:00	3903	623	-7.2	-18.1	226	8
2023-08-31T00:00	3927	621	-7.1	-18.3	225	9
2023-08-31T00:00	3952	619	-7.3	-17.3	224	9
2023-08-31T00:00	3974	617	-7.4	-17.2	224	10
2023-08-31T00:00	3993	616	-7.3	-17.1	224	10
2023-08-31T00:00	4012	614	-6.9	-17.3	224	10
2023-08-31T00:00	4035	613	-6.9	-17.3	224	11
2023-08-31T00:00	4061	611	-6.9	-17.6	225	11
2023-08-31T00:00	4083	609	-7.0	-17.8	226	10
2023-08-31T00:00	4112	607	-7.2	-17.7	225	10
2023-08-31T00:00	4133	605	-7.4	-17.8	223	10
2023-08-31T00:00	4166	603	-7.6	-18.9	220	9
2023-08-31T00:00	4197	600	-7.8	-19.7	217	9
2023-08-31T00:00	4214	599	-7.8	-19.8	215	9
2023-08-31T00:00	4234	597	-8.0	-21.1	214	8
2023-08-31T00:00	4267	595	-8.2	-22.9	212	8
2023-08-31T00:00	4295	593	-8.4	-24.4	211	8
2023-08-31T00:00	4318	591	-8.6	-25.0	208	8
2023-08-31T00:00	4342	589	-8.9	-25.6	205	8
2023-08-31T00:00	4365	587	-9.1	-26.8	203	8
2023-08-31T00:00	4386	586	-9.3	-29.0	202	8
2023-08-31T00:00	4406	584	-9.4	-30.4	203	8
2023-08-31T00:00	4426	582	-9.6	-33.4	206	8
2023-08-31T00:00	4454	581	-9.6	-33.8	210	7
2023-08-31T00:00	4477	579	-9.6	-33.1	212	7
2023-08-31T00:00	4503	577	-9.6	-33.5	212	7
2023-08-31T00:00	4528	575	-9.7	-30.3	211	8
2023-08-31T00:00	4549	574	-9.7	-33.1	211	8
2023-08-31T00:00	4569	572	-9.7	-36.9	213	8
2023-08-31T00:00	4597	570	-9.9	-37.1	216	7
2023-08-31T00:00	4633	567	-10.2	-37.0	221	7
2023-08-31T00:00	4658	565	-10.4	-36.8	223	7
2023-08-31T00:00	4677	564	-10.6	-31.2	223	7
2023-08-31T00:00	4694	563	-10.8	-31.5	220	8
2023-08-31T00:00	4721	561	-11.0	-30.5	217	8
2023-08-31T00:00	4745	559	-11.3	-28.1	214	9
2023-08-31T00:00	4769	557	-11.6	-22.7	214	10
2023-08-31T00:00	4785	556	-11.7	-22.0	214	10
2023-08-31T00:00	4809	554	-12.0	-21.7	216	10
2023-08-31T00:00	4835	552	-12.2	-21.5	217	10
2023-08-31T00:00	4861	551	-12.4	-21.4	217	10
2023-08-31T00:00	4894	549	-12.7	-20.6	217	10
2023-08-31T00:00	4910	547	-12.9	-21.0	217	9
2023-08-31T00:00	4930	546	-13.0	-22.2	217	9
2023-08-31T00:00	4955	544	-13.1	-22.6	217	9
2023-08-31T00:00	4976	542	-13.3	-23.2	218	9
2023-08-31T00:00	5000	541	-13.4	-26.2	220	9
2023-08-31T00:00	5022	539	-13.5	-29.7	223	10
2023-08-31T00:00	5047	537	-13.6	-30.6	224	10
2023-08-31T00:00	5067	536	-13.7	-26.5	224	11
2023-08-31T00:00	5091	534	-13.8	-27.3	222	11
2023-08-31T00:00	5119	532	-14.1	-26.0	220	11
2023-08-31T00:00	5144	531	-14.3	-24.4	217	11
2023-08-31T00:00	5160	529	-14.4	-24.6	215	11
2023-08-31T00:00	5177	528	-14.5	-26.4	215	10
2023-08-31T00:00	5193	527	-14.2	-30.4	217	10
2023-08-31T00:00	5213	526	-14.3	-31.0	219	10
2023-08-31T00:00	5236	524	-14.5	-28.5	222	10
2023-08-31T00:00	5263	522	-14.7	-27.3	223	10
2023-08-31T00:00	5281	521	-14.9	-29.0	225	10
2023-08-31T00:00	5308	519	-15.1	-29.7	225	9
2023-08-31T00:00	5332	517	-15.2	-28.2	226	9
2023-08-31T00:00	5361	516	-15.5	-27.9	225	9
2023-08-31T00:00	5382	514	-15.7	-27.8	223	9
2023-08-31T00:00	5407	512	-15.9	-27.3	222	9
2023-08-31T00:00	5438	510	-16.0	-27.5	220	9
2023-08-31T00:00	5467	508	-16.3	-27.3	218	8
2023-08-31T00:00	5489	507	-16.5	-27.0	216	8
2023-08-31T00:00	5505	506	-16.6	-27.0	213	8
2023-08-31T00:00	5523	504	-16.8	-27.1	208	8
2023-08-31T00:00	5546	503	-17.0	-27.0	203	9
2023-08-31T00:00	5577	501	-17.2	-27.5	198	9
2023-08-31T00:00	5603	499	-17.1	-32.7	196	10
2023-08-31T00:00	5621	498	-17.2	-33.0	196	10
2023-08-31T00:00	5640	497	-17.2	-36.2	198	10
2023-08-31T00:00	5661	495	-17.3	-37.7	202	10
2023-08-31T00:00	5685	494	-17.4	-38.7	206	10
2023-08-31T00:00	5718	492	-17.7	-39.4	209	10
2023-08-31T00:00	5742	490	-17.9	-37.6	210	10
2023-08-31T00:00	5761	489	-18.1	-34.5	210	10
2023-08-31T00:00	5787	487	-18.4	-34.1	209	10
2023-08-31T00:00	5814	485	-18.6	-34.2	208	11
2023-08-31T00:00	5837	484	-18.8	-34.1	208	11
2023-08-31T00:00	5864	482	-19.1	-34.0	209	11
2023-08-31T00:00	5886	481	-19.3	-33.7	210	11
2023-08-31T00:00	5903	479	-19.4	-31.4	210	12
2023-08-31T00:00	5933	478	-19.7	-30.9	210	12
2023-08-31T00:00	5953	476	-19.9	-30.3	210	12
2023-08-31T00:00	5972	475	-20.0	-31.3	210	12
2023-08-31T00:00	5996	473	-20.2	-33.9	210	12
2023-08-31T00:00	6028	471	-20.4	-35.5	210	12
2023-08-31T00:00	6067	469	-20.7	-32.3	209	12
2023-08-31T00:00	6101	467	-21.0	-30.3	207	12
2023-08-31T00:00	6128	465	-21.1	-24.8	205	11
2023-08-31T00:00	6150	464	-21.4	-23.5	203	11
2023-08-31T00:00	6171	462	-21.6	-24.1	200	11
2023-08-31T00:00	6193	461	-21.8	-23.7	197	11
2023-08-31T00:00	6222	459	-22.1	-23.8	195	11
2023-08-31T00:00	6243	458	-22.2	-23.7	194	11
2023-08-31T00:00	6273	456	-22.6	-23.9	196	12
2023-08-31T00:00	6301	454	-22.8	-23.8	198	12
2023-08-31T00:00	6324	453	-23.0	-23.9	199	13
2023-08-31T00:00	6346	451	-23.0	-23.6	200	13
2023-08-31T00:00	6379	450	-23.3	-23.7	199	13
2023-08-31T00:00	6403	448	-23.5	-23.8	199	13
2023-08-31T00:00	6430	446	-23.8	-23.9	198	13
2023-08-31T00:00	6472	444	-24.2	-24.3	199	13
2023-08-31T00:00	6503	442	-24.4	-24.4	200	13
2023-08-31T00:00	6535	440	-24.6	-24.6	200	14
2023-08-31T00:00	6559	439	-24.7	-24.7	199	14
2023-08-31T00:00	6583	437	-25.0	-25.0	197	13
2023-08-31T00:00	6610	436	-25.4	-25.6	194	13
2023-08-31T00:00	6628	434	-25.5	-25.8	192	13
2023-08-31T00:00	6646	433	-25.5	-29.7	191	12
2023-08-31T00:00	6663	432	-25.4	-29.8	191	12
2023-08-31T00:00	6682	431	-25.5	-39.3	192	12
2023-08-31T00:00	6699	430	-25.3	-38.8	192	12
2023-08-31T00:00	6718	429	-25.1	-39.9	193	13
2023-08-31T00:00	6739	428	-25.1	-40.5	193	13
2023-08-31T00:00	6760	427	-25.2	-40.6	193	13
2023-08-31T00:00	6779	426	-25.3	-40.7	193	13
2023-08-31T00:00	6797	424	-25.4	-40.8	193	13
2023-08-31T00:00	6814	423	-25.6	-40.6	193	12
2023-08-31T00:00	6835	422	-25.7	-40.4	193	12
2023-08-31T00:00	6853	421	-25.9	-40.2	193	12
2023-08-31T00:00	6873	420	-26.1	-40.3	193	12
2023-08-31T00:00	6891	419	-26.2	-40.2	193	13
2023-08-31T00:00	6912	418	-26.4	-40.3	193	13
2023-08-31T00:00	6932	417	-26.6	-40.2	193	13
2023-08-31T00:00	6950	416	-26.7	-40.0	194	13
2023-08-31T00:00	6968	415	-26.9	-39.4	195	13
2023-08-31T00:00	6987	413	-27.0	-39.1	195	13
2023-08-31T00:00	7005	412	-27.2	-38.6	195	13
2023-08-31T00:00	7023	411	-27.4	-38.2	195	13
2023-08-31T00:00	7043	410	-27.5	-37.6	194	13
2023-08-31T00:00	7065	409	-27.8	-37.8	194	13
2023-08-31T00:00	7089	408	-28.0	-37.6	193	12
2023-08-31T00:00	7123	406	-28.3	-37.4	193	12
2023-08-31T00:00	7145	404	-28.5	-37.5	193	12
2023-08-31T00:00	7163	403	-28.7	-37.3	193	13
2023-08-31T00:00	7186	402	-28.9	-37.2	194	13
2023-08-31T00:00	7211	401	-29.1	-37.0	194	13
2023-08-31T00:00	7240	399	-29.4	-37.5	194	13
2023-08-31T00:00	7269	397	-29.6	-38.6	194	13
2023-08-31T00:00	7298	396	-29.7	-39.6	192	13
2023-08-31T00:00	7326	394	-29.9	-39.6	190	13
2023-08-31T00:00	7346	393	-30.1	-39.9	189	13
2023-08-31T00:00	7373	392	-30.3	-40.1	188	13
2023-08-31T00:00	7405	390	-30.6	-40.2	189	14
2023-08-31T00:00	7432	389	-30.9	-40.6	190	14
2023-08-31T00:00	7450	388	-31.0	-40.4	190	14
2023-08-31T00:00	7466	387	-31.1	-40.5	190	14
2023-08-31T00:00	7484	386	-31.3	-40.9	189	14
2023-08-31T00:00	7505	385	-31.4	-41.4	188	14
2023-08-31T00:00	7520	384	-31.5	-40.2	187	14
2023-08-31T00:00	7539	383	-31.7	-39.2	187	14
2023-08-31T00:00	7557	382	-31.8	-38.9	187	14
2023-08-31T00:00	7576	381	-32.0	-39.7	187	14
2023-08-31T00:00	7593	380	-32.1	-39.1	187	14
2023-08-31T00:00	7608	379	-32.2	-37.9	188	15
2023-08-31T00:00	7635	378	-32.4	-37.7	188	15
2023-08-31T00:00	7652	377	-32.5	-38.6	188	15
2023-08-31T00:00	7669	376	-32.6	-38.2	187	16
2023-08-31T00:00	7689	375	-32.7	-36.6	186	16
2023-08-31T00:00	7711	373	-32.9	-36.2	185	16
2023-08-31T00:00	7737	372	-33.1	-35.5	184	16
2023-08-31T00:00	7762	371	-33.3	-35.7	184	17
2023-08-31T00:00	7791	369	-33.5	-35.7	184	17
2023-08-31T00:00	7813	368	-33.7	-35.7	184	17
2023-08-31T00:00	7837	367	-33.9	-36.2	185	17
2023-08-31T00:00	7866	365	-34.1	-36.0	186	18
2023-08-31T00:00	7898	364	-34.4	-35.5	187	18
2023-08-31T00:00	7923	362	-34.6	-35.8	188	18
2023-08-31T00:00	7946	361	-34.8	-36.4	188	17
2023-08-31T00:00	7971	360	-35.0	-36.9	189	17
2023-08-31T00:00	7998	358	-35.2	-37.1	188	17
2023-08-31T00:00	8025	357	-35.4	-37.6	188	16
2023-08-31T00:00	8052	356	-35.6	-37.9	188	16
2023-08-31T00:00	8078	354	-35.8	-39.5	187	16
2023-08-31T00:00	8104	353	-36.0	-39.2	187	16
2023-08-31T00:00	8130	352	-36.1	-39.9	186	16
2023-08-31T00:00	8156	350	-36.2	-40.2	184	17
2023-08-31T00:00	8189	349	-36.4	-40.1	183	17
2023-08-31T00:00	8219	347	-36.7	-40.6	182	18
2023-08-31T00:00	8240	346	-36.9	-40.4	181	19
2023-08-31T00:00	8269	345	-37.1	-40.5	181	19
2023-08-31T00:00	8305	343	-37.4	-40.2	181	20
2023-08-31T00:00	8327	342	-37.3	-40.3	181	20
2023-08-31T00:00	8346	341	-37.5	-40.4	180	20
2023-08-31T00:00	8366	340	-37.6	-40.4	179	20
2023-08-31T00:00	8383	339	-37.7	-40.5	178	20
2023-08-31T00:00	8403	338	-37.8	-40.4	177	20
2023-08-31T00:00	8422	337	-38.0	-40.5	177	21
2023-08-31T00:00	8442	336	-38.1		177	21
2023-08-31T00:00	8460	335	-38.2	-41.3	178	21
2023-08-31T00:00	8480	334	-38.3	-41.4	178	21
2023-08-31T00:00	8500	333	-38.5	-41.7	179	21
2023-08-31T00:00	8520	332	-38.6	-42.1	179	22
2023-08-31T00:00	8541	331	-38.8	-42.3	180	22
2023-08-31T00:00	8560	330	-38.9	-42.1	180	22
2023-08-31T00:00	8579	330	-39.0	-42.6	181	22
2023-08-31T00:00	8598	329	-39.1	-42.9	181	22
2023-08-31T00:00	8616	328	-39.2	-43.2	181	22
2023-08-31T00:00	8637	327	-39.4	-43.4	182	22
2023-08-31T00:00	8653	326	-39.5	-43.3	182	22
2023-08-31T00:00	8672	325	-39.7	-43.3	183	22
2023-08-31T00:00	8692	324	-39.8	-43.4	184	22
2023-08-31T00:00	8712	323	-40.0	-43.9	185	22
2023-08-31T00:00	8734	322	-40.1	-44.1	186	22
2023-08-31T00:00	8756	321	-40.3	-44.3	186	22
2023-08-31T00:00	8776	320	-40.5	-44.4	186	21
2023-08-31T00:00	8792	319	-40.6	-44.6	186	21
2023-08-31T00:00	8813	318	-40.7	-45.1	186	21
2023-08-31T00:00	8833	318	-40.8	-45.9	186	22
2023-08-31T00:00	8852	317	-40.9	-45.8	186	22
2023-08-31T00:00	8874	316	-41.1	-46.0	186	22
2023-08-31T00:00	8902	314	-41.3	-45.8	186	22
2023-08-31T00:00	8930	313	-41.6	-45.8	187	22
2023-08-31T00:00	8954	312	-41.8	-45.8	187	22
2023-08-31T00:00	8978	311	-42.0	-45.7	187	22
2023-08-31T00:00	9003	310	-42.3	-45.9	187	22
2023-08-31T00:00	9025	309	-42.5	-46.0	186	22
2023-08-31T00:00	9049	308	-42.7	-46.2	186	22
2023-08-31T00:00	9070	307	-42.9	-46.5	186	22
2023-08-31T00:00	9092	306	-43.1	-46.5	186	22
2023-08-31T00:00	9113	305	-43.3	-46.6	186	23
2023-08-31T00:00	9134	304	-43.5	-46.7	186	23
2023-08-31T00:00	9157	303	-43.7	-46.8	186	23
2023-08-31T00:00	9180	302	-43.9	-46.8	186	23
2023-08-31T00:00	9203	301	-44.1	-47.3	186	23
2023-08-31T00:00	9223	300	-44.1	-48.0	186	23
2023-08-31T00:00	9245	299	-44.2	-48.1	186	23
2023-08-31T00:00	9267	298	-44.4	-48.4	185	23
2023-08-31T00:00	9287	297	-44.5	-48.4	185	23
2023-08-31T00:00	9308	296	-44.7	-48.5	184	23
2023-08-31T00:00	9328	295	-44.9	-48.6	184	23
2023-08-31T00:00	9348	294	-45.0	-48.9	183	23
2023-08-31T00:00	9367	293	-45.2	-49.4	183	23
2023-08-31T00:00	9387	292	-45.3	-49.7	183	23
2023-08-31T00:00	9405	292	-45.4	-49.8	183	23
2023-08-31T00:00	9426	291	-45.6	-50.0	183	23
2023-08-31T00:00	9442	290	-45.7	-50.2	184	23
2023-08-31T00:00	9459	289	-45.8	-50.4	184	22
2023-08-31T00:00	9477	289	-46.0	-50.9	184	22
2023-08-31T00:00	9494	288	-46.1	-50.8	184	22
2023-08-31T00:00	9509	287	-46.2	-50.7	184	22
2023-08-31T00:00	9529	286	-46.4	-50.8	183	22
2023-08-31T00:00	9548	285	-46.4	-50.9	183	22
2023-08-31T00:00	9566	285	-46.5	-51.3	182	21
2023-08-31T00:00	9584	284	-46.6	-51.5	182	21
2023-08-31T00:00	9601	283	-46.8	-52.0	182	21
2023-08-31T00:00	9621	282	-46.9	-52.5	182	21
2023-08-31T00:00	9639	282	-47.0	-53.1	182	21
2023-08-31T00:00	9656	281	-47.1	-53.3	182	21
2023-08-31T00:00	9674	280	-47.1	-53.7	181	21
2023-08-31T00:00	9693	279	-47.2	-54.9	181	21
2023-08-31T00:00	9713	278	-47.1	-55.1	180	21
2023-08-31T00:00	9735	278	-47.3	-54.4	179	22
2023-08-31T00:00	9751	277	-47.2	-53.7	179	22
2023-08-31T00:00	9773	276	-47.3	-53.6	178	22
2023-08-31T00:00	9791	275	-47.5	-53.8	178	22
2023-08-31T00:00	9809	274	-47.7	-53.8	178	21
2023-08-31T00:00	9828	274	-47.8	-54.0	178	21
2023-08-31T00:00	9848	273	-47.8	-54.5	178	21
2023-08-31T00:00	9866	272	-47.9	-55.4	179	21
2023-08-31T00:00	9886	271	-47.9	-54.6	180	21
2023-08-31T00:00	9902	271	-47.9	-52.8	181	21
2023-08-31T00:00	9923	270	-48.0	-53.3	181	21
2023-08-31T00:00	9941	269	-48.0	-55.1	182	21
2023-08-31T00:00	9963	268	-48.1	-55.9	182	21
2023-08-31T00:00	9981	267	-48.2	-55.5	182	21
2023-08-31T00:00	10000	267	-48.3	-55.7	182	21
2023-08-31T00:00	10020	266	-48.5	-55.9	183	21
2023-08-31T00:00	10041	265	-48.6	-56.0	183	21
2023-08-31T00:00	10059	264	-48.8	-56.4	183	21
2023-08-31T00:00	10078	263	-48.9	-56.4	183	21
2023-08-31T00:00	10096	263	-48.7	-54.6	183	21
2023-08-31T00:00	10116	262	-48.8	-53.7	183	21
2023-08-31T00:00	10135	261	-48.9	-54.8	183	21
2023-08-31T00:00	10154	260	-48.9	-57.6	183	21
2023-08-31T00:00	10174	260	-49.0	-59.1	182	21
2023-08-31T00:00	10193	259	-49.1	-59.1	183	21
2023-08-31T00:00	10211	258	-48.9	-58.7	183	21
2023-08-31T00:00	10228	257	-48.8	-58.5	183	21
2023-08-31T00:00	10247	257	-48.9	-57.8	184	21
2023-08-31T00:00	10265	256	-48.9	-56.8	184	21
2023-08-31T00:00	10284	255	-49.0	-56.4	184	21
2023-08-31T00:00	10303	255	-49.1	-56.6	184	21
2023-08-31T00:00	10325	254	-49.0	-56.7	183	20
2023-08-31T00:00	10349	253	-49.2	-57.3	182	20
2023-08-31T00:00	10369	252	-49.3	-58.0	182	20
2023-08-31T00:00	10390	251	-49.5	-58.2	181	20
2023-08-31T00:00	10412	250	-49.7	-58.3	181	20
2023-08-31T00:00	10432	250	-49.9	-58.3	181	20
2023-08-31T00:00	10451	249	-50.0	-58.2	181	20
2023-08-31T00:00	10468	248	-50.1	-58.1	181	20
2023-08-31T00:00	10486	248	-50.2	-58.0	182	20
2023-08-31T00:00	10505	247	-50.3	-57.9	182	20
2023-08-31T00:00	10523	246	-50.4	-57.9	182	20
2023-08-31T00:00	10541	245	-50.6	-57.9	182	20
2023-08-31T00:00	10559	245	-50.7	-58.0	181	20
2023-08-31T00:00	10579	244	-50.8	-58.4	181	20
2023-08-31T00:00	10595	243	-50.6	-58.9	181	20
2023-08-31T00:00	10614	243	-50.7	-59.2	181	20
2023-08-31T00:00	10632	242	-50.8	-59.4	182	20
2023-08-31T00:00	10649	241	-50.8	-60.5	183	20
2023-08-31T00:00	10667	241	-50.3	-62.3	184	20
2023-08-31T00:00	10683	240	-49.8	-63.0	185	20
2023-08-31T00:00	10702	239	-49.5	-62.1	186	20
2023-08-31T00:00	10721	239	-49.4	-62.3	187	20
2023-08-31T00:00	10741	238	-49.3	-64.7	188	21
2023-08-31T00:00	10759	237	-48.8	-65.7	189	21
2023-08-31T00:00	10777	237	-48.4	-65.7	189	21
2023-08-31T00:00	10796	236	-47.7	-67.5	190	22
2023-08-31T00:00	10815	235	-47.6	-68.9	190	22
2023-08-31T00:00	10836	235	-47.4	-69.0	190	22
2023-08-31T00:00	10855	234	-47.2	-69.0	190	22
2023-08-31T00:00	10874	233	-47.2	-69.1	189	22
2023-08-31T00:00	10894	233	-47.0	-69.7	189	22
2023-08-31T00:00	10914	232	-46.7	-70.1	188	22
2023-08-31T00:00	10934	231	-46.7	-70.4	188	21
2023-08-31T00:00	10954	231	-46.5	-70.7	188	21
2023-08-31T00:00	10973	230	-46.3	-71.3	188	21
2023-08-31T00:00	10993	229	-45.6	-72.0	188	21
2023-08-31T00:00	11013	228	-45.2	-72.6	187	20
2023-08-31T00:00	11033	228	-45.1	-73.1	186	20
2023-08-31T00:00	11053	227	-45.2	-73.2	185	20
2023-08-31T00:00	11075	226	-45.2	-73.5	184	20
2023-08-31T00:00	11096	226	-45.1	-73.7	183	20
2023-08-31T00:00	11114	225	-45.0	-73.9	182	20
2023-08-31T00:00	11134	224	-44.9	-74.2	182	19
2023-08-31T00:00	11154	224	-44.8	-74.5	182	19
2023-08-31T00:00	11173	223	-44.6	-74.7	182	19
2023-08-31T00:00	11195	222	-44.3	-74.5	182	20
2023-08-31T00:00	11215	222	-44.4	-74.9	182	20
2023-08-31T00:00	11233	221	-44.4	-74.9	182	20
2023-08-31T00:00	11255	220	-44.4	-74.9	182	21
2023-08-31T00:00	11275	220	-44.4	-74.9	182	21
2023-08-31T00:00	11295	219	-44.5	-75.0	182	21
2023-08-31T00:00	11313	218	-44.5	-75.0	182	21
2023-08-31T00:00	11332	218	-44.7	-75.1	182	21
2023-08-31T00:00	11352	217	-44.8	-75.2	183	21
2023-08-31T00:00	11371	217	-44.9	-75.3	184	21
2023-08-31T00:00	11390	216	-44.9	-75.7	185	21
2023-08-31T00:00	11409	215	-44.9	-75.7	185	21
2023-08-31T00:00	11425	215	-45.0	-75.8	186	22
2023-08-31T00:00	11444	214	-45.1	-75.4	186	22
2023-08-31T00:00	11464	214	-45.3	-75.6	187	22
2023-08-31T00:00	11482	213	-45.3	-76.0	188	22
2023-08-31T00:00	11503	212	-44.7	-75.6	188	22
2023-08-31T00:00	11520	212	-44.6	-75.9	188	22
2023-08-31T00:00	11537	211	-44.6	-75.9	189	22
2023-08-31T00:00	11556	211	-44.7	-76.0	189	22
2023-08-31T00:00	11574	210	-44.6	-76.4	189	22
2023-08-31T00:00	11593	209	-44.4	-76.7	190	22
2023-08-31T00:00	11610	209	-43.9	-76.4	190	21
2023-08-31T00:00	11629	208	-43.9	-76.4	190	21
2023-08-31T00:00	11647	208	-43.8	-76.3	190	21
2023-08-31T00:00	11665	207	-43.8	-76.9	189	20
2023-08-31T00:00	11685	207	-43.7	-76.8	189	20
2023-08-31T00:00	11703	206	-43.7	-76.8	189	20
2023-08-31T00:00	11722	206	-43.7	-76.2	189	20
2023-08-31T00:00	11739	205	-43.4	-76.0	190	20
2023-08-31T00:00	11757	204	-43.1	-75.8	191	20
2023-08-31T00:00	11777	204	-43.1	-75.8	191	21
2023-08-31T00:00	11796	203	-43.2	-75.4	192	21
2023-08-31T00:00	11815	203	-43.2	-75.4	192	21
2023-08-31T00:00	11835	202	-43.3	-75.4	192	20
2023-08-31T00:00	11852	202	-43.2	-75.4	193	20
2023-08-31T00:00	11872	201	-43.2	-75.4	193	20
2023-08-31T00:00	11893	200	-43.2	-75.4	194	20
2023-08-31T00:00	11911	200	-43.2	-75.4	196	19
2023-08-31T00:00	11931	199	-43.1	-75.8	197	19
2023-08-31T00:00	11952	199	-42.8	-75.6	199	19
2023-08-31T00:00	11971	198	-43.0	-75.7	200	19
2023-08-31T00:00	11992	197	-43.1	-75.8	201	19
2023-08-31T00:00	12011	197	-43.1	-75.8	202	19
2023-08-31T00:00	12031	196	-43.0	-75.7	202	19
2023-08-31T00:00	12052	196	-42.6	-75.4	201	19
2023-08-31T00:00	12072	195	-42.6	-76.0	199	19
2023-08-31T00:00	12094	194	-42.7	-76.0	198	19
2023-08-31T00:00	12115	194	-42.7	-76.0	196	19
2023-08-31T00:00	12133	193	-42.8	-76.1	194	19
2023-08-31T00:00	12152	193	-42.9	-76.2	192	19
2023-08-31T00:00	12174	192	-43.0	-75.7	189	19
2023-08-31T00:00	12204	191	-43.1	-75.8	186	19
2023-08-31T00:00	12234	190	-43.2	-75.9	183	19
2023-08-31T00:00	12274	189	-43.5	-76.1	181	19
2023-08-31T00:00	12295	189	-43.7	-76.2	179	20
2023-08-31T00:00	12319	188	-43.9	-76.4	178	20
2023-08-31T00:00	12340	187	-44.1	-76.5	177	20
2023-08-31T00:00	12366	187	-44.2	-76.6	177	20
2023-08-31T00:00	12387	186	-44.4	-76.7	177	20
2023-08-31T00:00	12405	186	-44.5	-76.8	178	21
2023-08-31T00:00	12426	185	-44.4	-76.7	179	21
2023-08-31T00:00	12454	184	-44.6	-76.9	181	21
2023-08-31T00:00	12481	184	-44.5	-77.4	183	22
2023-08-31T00:00	12511	183	-44.5	-77.4	185	22
2023-08-31T00:00	12536	182	-44.7	-77.5	186	21
2023-08-31T00:00	12559	181	-44.9	-77.7	187	21
2023-08-31T00:00	12580	181	-44.9	-77.7	187	20
2023-08-31T00:00	12600	180	-44.8	-77.6	187	20
2023-08-31T00:00	12622	180	-44.7	-77.5	188	19
2023-08-31T00:00	12639	179	-44.7	-77.5	189	19
2023-08-31T00:00	12661	179	-44.8	-77.6	189	18
2023-08-31T00:00	12679	178	-44.8	-77.6	190	18
2023-08-31T00:00	12699	178	-44.8	-77.6	190	17
2023-08-31T00:00	12719	177	-44.8	-77.6	190	17
2023-08-31T00:00	12739	177	-44.8	-77.6	189	17
2023-08-31T00:00	12759	176	-45.0	-77.7	189	17
2023-08-31T00:00	12776	176	-45.1	-77.8	189	16
2023-08-31T00:00	12796	175	-45.2	-77.9	189	16
2023-08-31T00:00	12817	175	-45.3	-78.0	191	16
2023-08-31T00:00	12838	174	-45.3	-78.0	193	15
2023-08-31T00:00	12860	173	-45.4	-78.0	195	15
2023-08-31T00:00	12882	173	-45.6	-78.2	197	15
2023-08-31T00:00	12904	172	-45.8	-78.3	198	15
2023-08-31T00:00	12924	172	-45.9	-78.4	198	15
2023-08-31T00:00	12943	171	-46.1	-78.5	198	15
2023-08-31T00:00	12960	171	-46.2	-78.6	196	15
2023-08-31T00:00	12982	170	-46.3	-78.7	194	14
2023-08-31T00:00	13010	170	-46.4	-78.8	190	14
2023-08-31T00:00	13031	169	-46.1	-78.5	187	14
2023-08-31T00:00	13053	168	-45.9	-78.4	184	15
2023-08-31T00:00	13080	168	-45.9	-78.4	183	15
2023-08-31T00:00	13100	167	-46.1	-78.5	182	16
2023-08-31T00:00	13122	167	-46.1	-78.5	182	17
2023-08-31T00:00	13144	166	-46.3	-78.7	182	17
2023-08-31T00:00	13165	166	-46.4	-78.8	182	17
2023-08-31T00:00	13184	165	-46.5	-78.8	183	18
2023-08-31T00:00	13204	165	-46.6	-78.4	183	18
2023-08-31T00:00	13223	164	-46.7	-78.4	183	18
2023-08-31T00:00	13243	164	-46.8	-78.5	183	18
2023-08-31T00:00	13263	163	-46.9	-78.6	184	17
2023-08-31T00:00	13283	163	-46.3	-78.2	184	17
2023-08-31T00:00	13306	162	-46.3	-78.2	184	17
2023-08-31T00:00	13329	162	-46.4	-78.2	184	17
2023-08-31T00:00	13347	161	-46.4	-78.2	184	17
2023-08-31T00:00	13367	161	-46.5	-78.3	184	18
2023-08-31T00:00	13386	160	-46.5	-78.3	183	18
2023-08-31T00:00	13405	160	-46.4	-78.2	182	17
2023-08-31T00:00	13426	159	-46.4	-78.2	180	17
2023-08-31T00:00	13446	159	-46.0	-77.9	179	17
2023-08-31T00:00	13467	158	-45.5	-78.1	177	16
2023-08-31T00:00	13488	158	-45.5	-78.1	175	16
2023-08-31T00:00	13508	157	-45.5	-78.1	174	16
2023-08-31T00:00	13527	157	-45.6	-78.2	173	16
2023-08-31T00:00	13547	156	-45.7	-78.2	172	15
2023-08-31T00:00	13566	156	-45.8	-78.3	170	15
2023-08-31T00:00	13587	156	-46.0	-78.5	169	15
2023-08-31T00:00	13605	155	-46.1	-78.5	169	15
2023-08-31T00:00	13625	155	-46.2	-78.1	168	15
2023-08-31T00:00	13645	154	-46.3	-78.7	169	16
2023-08-31T00:00	13666	154	-46.3	-78.7	170	16
2023-08-31T00:00	13687	153	-46.1	-78.5	171	16
2023-08-31T00:00	13707	153	-46.2	-78.6	172	16
2023-08-31T00:00	13726	152	-46.4	-78.8	173	16
2023-08-31T00:00	13747	152	-46.5	-78.8	173	17
2023-08-31T00:00	13767	151	-46.6	-78.9	173	17
2023-08-31T00:00	13787	151	-46.7	-79.0	173	17
2023-08-31T00:00	13807	150	-46.7	-79.0	174	17
2023-08-31T00:00	13827	150	-46.6	-78.9	174	17
2023-08-31T00:00	13845	150	-46.6	-79.5	174	18
2023-08-31T00:00	13867	149	-46.6	-79.5	175	18
2023-08-31T00:00	13888	149	-46.7	-79.6	175	19
2023-08-31T00:00	13908	148	-46.7	-79.6	176	19
2023-08-31T00:00	13926	148	-46.9	-79.1	176	20
2023-08-31T00:00	13948	147	-47.0	-79.2	177	20
2023-08-31T00:00	13970	147	-47.2	-79.4	178	20
2023-08-31T00:00	13989	146	-47.3	-79.4	179	21
2023-08-31T00:00	14009	146	-47.4	-79.5	180	21
2023-08-31T00:00	14031	145	-47.5	-79.6	182	21
2023-08-31T00:00	14050	145	-47.7	-79.7	183	21
2023-08-31T00:00	14070	145	-47.8	-79.8	185	21
2023-08-31T00:00	14090	144	-47.7	-79.7	187	20
2023-08-31T00:00	14111	144	-47.6	-79.6	189	20
2023-08-31T00:00	14131	143	-47.7	-79.7	190	20
2023-08-31T00:00	14150	143	-47.6	-79.6	192	20
2023-08-31T00:00	14171	142	-47.6	-79.6	193	20
2023-08-31T00:00	14195	142	-47.7	-79.7	195	20
2023-08-31T00:00	14220	141	-47.9	-79.9	197	20
2023-08-31T00:00	14239	141	-47.9	-79.9	198	20
2023-08-31T00:00	14260	140	-48.1	-80.0	199	20
2023-08-31T00:00	14282	140	-48.3	-80.2	200	20
2023-08-31T00:00	14304	140	-48.4	-80.2	201	20
2023-08-31T00:00	14325	139	-48.6	-79.9	203	20
2023-08-31T00:00	14349	139	-48.8	-80.0	204	20
2023-08-31T00:00	14369	138	-48.9	-80.1	205	20
2023-08-31T00:00	14390	138	-49.0	-80.2	206	19
2023-08-31T00:00	14410	137	-49.1	-80.2	207	19
2023-08-31T00:00	14430	137	-49.3	-80.4	208	19
2023-08-31T00:00	14452	136	-49.5	-80.5	208	19
2023-08-31T00:00	14474	136	-49.6	-80.6	209	18
2023-08-31T00:00	14495	136	-49.7	-80.7	209	18
2023-08-31T00:00	14517	135	-49.9	-80.3	209	17
2023-08-31T00:00	14536	135	-50.0	-80.4	208	17
2023-08-31T00:00	14557	134	-50.1	-80.5	207	16
2023-08-31T00:00	14582	134	-50.1	-80.5	206	15
2023-08-31T00:00	14602	133	-50.3	-80.6	204	14
2023-08-31T00:00	14627	133	-50.2	-80.6	202	13
2023-08-31T00:00	14647	132	-50.3	-80.6	200	13
2023-08-31T00:00	14668	132	-50.2	-80.6	198	12
2023-08-31T00:00	14689	132	-50.0	-80.9	196	12
2023-08-31T00:00	14712	131	-50.0	-80.9	194	11
2023-08-31T00:00	14732	131	-50.1	-81.0	192	11
2023-08-31T00:00	14753	130	-50.3	-80.6	190	12
2023-08-31T00:00	14773	130	-50.4	-80.7	188	12
2023-08-31T00:00	14795	129	-50.5	-80.8	186	12
2023-08-31T00:00	14815	129	-50.7	-80.9	183	12
2023-08-31T00:00	14838	129	-50.7	-80.9	181	13
2023-08-31T00:00	14859	128	-50.9	-81.1	178	13
2023-08-31T00:00	14880	128	-51.0	-81.2	176	13
2023-08-31T00:00	14898	127	-51.1	-81.2	175	14
2023-08-31T00:00	14916	127	-51.3	-81.4	174	14
2023-08-31T00:00	14936	127	-51.3	-81.4	175	14
2023-08-31T00:00	14956	126	-51.1	-81.7	176	14
2023-08-31T00:00	14975	126	-51.0	-81.6	177	14
2023-08-31T00:00	14998	125	-50.9	-81.6	177	14
2023-08-31T00:00	15018	125	-50.7		178	14
2023-08-31T00:00	15039	125	-50.4	-81.7	178	14
2023-08-31T00:00	15062	124	-50.5	-81.8	177	15
2023-08-31T00:00	15082	124	-50.6	-81.9	177	15
2023-08-31T00:00	15105	123	-50.7		176	16
2023-08-31T00:00	15124	123	-50.9	-82.1	175	16
2023-08-31T00:00	15144	123	-51.0	-82.2	175	16
2023-08-31T00:00	15164	122	-51.1	-82.2	174	16
2023-08-31T00:00	15186	122	-51.1	-82.2	174	16
2023-08-31T00:00	15207	121	-51.0	-82.2	174	15
2023-08-31T00:00	15230	121	-50.9	-82.1	174	15
2023-08-31T00:00	15250	121	-51.0	-82.2	173	15
2023-08-31T00:00	15271	120	-51.2	-82.3	172	14
2023-08-31T00:00	15290	120	-51.3	-82.4	171	14
2023-08-31T00:00	15313	120	-51.5	-82.5	170	14
2023-08-31T00:00	15333	119	-51.6	-82.6	168	14
2023-08-31T00:00	15354	119	-51.6	-82.6	167	14
2023-08-31T00:00	15376	118	-51.7	-82.7	165	14
2023-08-31T00:00	15397	118	-51.8	-82.8	164	14
2023-08-31T00:00	15421	118	-51.7	-82.7	162	14
2023-08-31T00:00	15443	117	-51.8	-82.8	161	14
2023-08-31T00:00	15465	117	-51.8	-82.8	161	14
2023-08-31T00:00	15484	116	-51.8	-82.8	162	15
2023-08-31T00:00	15502	116	-51.9	-82.8	163	15
2023-08-31T00:00	15525	116	-52.1	-83.0	165	15
2023-08-31T00:00	15542	115	-52.0	-82.9	167	15
2023-08-31T00:00	15565	115	-52.0	-82.9	169	15
2023-08-31T00:00	15586	115	-52.1	-83.0	171	15
2023-08-31T00:00	15606	114	-52.1	-83.0	173	15
2023-08-31T00:00	15627	114	-52.2	-83.1	175	15
2023-08-31T00:00	15649	114	-52.3	-83.1	177	15
2023-08-31T00:00	15666	113	-52.4	-83.2	179	15
2023-08-31T00:00	15683	113	-52.4	-83.2	181	15
2023-08-31T00:00	15704	113	-52.5	-83.3	183	15
2023-08-31T00:00	15722	112	-52.2	-83.6	185	15
2023-08-31T00:00	15743	112	-51.7	-83.2	187	15
2023-08-31T00:00	15761	112	-51.7	-83.2	189	15
2023-08-31T00:00	15780	111	-51.6	-83.2	191	15
2023-08-31T00:00	15799	111	-51.6	-83.2	193	15
2023-08-31T00:00	15816	111	-51.6	-83.2	194	15
2023-08-31T00:00	15838	110	-51.6	-83.2	195	14
2023-08-31T00:00	15859	110	-51.3	-83.6	194	14
2023-08-31T00:00	15879	110	-51.0	-83.3	193	14
2023-08-31T00:00	15898	109	-50.7	-83.1	192	14
2023-08-31T00:00	15919	109	-50.7	-83.1	191	14
2023-08-31T00:00	15938	109	-50.8	-83.2	191	14
2023-08-31T00:00	15956	108	-50.9	-83.3	192	14
2023-08-31T00:00	15978	108	-50.7	-83.1	193	14
2023-08-31T00:00	15996	108	-50.7	-83.1	194	13
2023-08-31T00:00	16017	107	-50.7	-83.1	194	13
2023-08-31T00:00	16033	107	-50.7	-83.1	194	12
2023-08-31T00:00	16054	107	-50.8	-83.2	194	12
2023-08-31T00:00	16074	106	-50.8	-83.2	195	12
2023-08-31T00:00	16092	106	-50.8	-83.2	195	12
2023-08-31T00:00	16112	106	-50.9	-83.3	196	12
2023-08-31T00:00	16131	105	-50.8	-83.2	196	12
2023-08-31T00:00	16150	105	-50.8	-83.2	196	12
2023-08-31T00:00	16171	105	-50.7	-83.1	196	11
2023-08-31T00:00	16192	104	-50.7	-83.1	196	11
2023-08-31T00:00	16212	104	-50.9	-83.3	196	11
2023-08-31T00:00	16232	104	-50.9	-83.3	197	10
2023-08-31T00:00	16251	103	-51.0	-83.3	197	10
2023-08-31T00:00	16271	103	-51.1	-83.4	197	10
2023-08-31T00:00	16292	103	-51.2	-83.5	196	9
2023-08-31T00:00	16312	102	-51.4	-83.6	196	9
2023-08-31T00:00	16333	102	-51.5	-83.1	195	9
2023-08-31T00:00	16355	102	-51.7	-83.2	195	9
2023-08-31T00:00	16371	102	-51.9	-83.4	195	8
2023-08-31T00:00	16394	101	-52.0	-83.5	194	8
2023-08-31T00:00	16414	101	-52.2	-83.6	192	8
2023-08-31T00:00	16434	101	-52.4	-83.8	191	8
2023-08-31T00:00	16452	100	-52.5	-83.8	190	8
2023-08-31T00:00	16475	100	-52.5	-83.8	189	9
2023-08-31T00:00	16493	100	-52.6	-83.9	189	9
2023-08-31T00:00	16516	99	-52.5	-83.8	189	10
2023-08-31T00:00	16536	99	-52.5	-83.8	189	10
2023-08-31T00:00	16556	99	-52.4	-83.8	188	11
2023-08-31T00:00	16578	98	-52.5	-83.8	188	11
2023-08-31T00:00	16596	98	-52.6	-83.9	188	11
2023-08-31T00:00	16616	98	-52.7	-84.0	187	11
2023-08-31T00:00	16636	97	-52.7	-84.0	186	11
2023-08-31T00:00	16657	97	-52.6	-83.9	185	11
2023-08-31T00:00	16678	97	-52.5	-83.8	183	11
2023-08-31T00:00	16697	97	-52.5	-83.8	182	11
2023-08-31T00:00	16719	96	-52.6	-83.9	181	11
2023-08-31T00:00	16739	96	-52.8	-84.1	181	11
2023-08-31T00:00	16762	96	-52.6	-83.9	180	12
2023-08-31T00:00	16781	95	-52.6	-83.9	179	12
2023-08-31T00:00	16801	95	-52.6	-83.9	179	12
2023-08-31T00:00	16822	95	-52.6	-83.9	179	12
2023-08-31T00:00	16841	94	-52.4	-84.4	178	12
2023-08-31T00:00	16863	94	-52.4	-84.4	179	12
2023-08-31T00:00	16884	94	-52.2	-84.2	179	12
2023-08-31T00:00	16903	94	-52.2	-84.2	179	12
2023-08-31T00:00	16924	93	-52.3	-84.3	180	12
2023-08-31T00:00	16947	93	-52.4	-83.8	181	12
2023-08-31T00:00	16968	93	-52.5	-83.8	182	12
2023-08-31T00:00	16987	92	-52.6	-83.9	184	13
2023-08-31T00:00	17007	92	-52.7	-84.0	185	12
2023-08-31T00:00	17028	92	-52.8	-84.1	185	12
2023-08-31T00:00	17049	91	-52.9	-84.1	185	12
2023-08-31T00:00	17069	91	-53.1	-84.3	184	13
2023-08-31T00:00	17093	91	-53.0	-84.2	183	13
2023-08-31T00:00	17111	91	-52.8	-84.1	183	13
2023-08-31T00:00	17133	90	-52.7	-84.0	182	13
2023-08-31T00:00	17154	90	-52.7	-84.0	182	13
2023-08-31T00:00	17175	90	-52.9	-84.1	182	13
2023-08-31T00:00	17194	89	-53.0	-84.2	181	13
2023-08-31T00:00	17215	89	-53.1	-84.9	180	12
2023-08-31T00:00	17234	89	-52.8	-84.7	179	11
2023-08-31T00:00	17255	89	-52.5	-84.4	178	11
2023-08-31T00:00	17277	88	-52.1	-84.2	178	10
2023-08-31T00:00	17300	88	-52.2	-84.2	177	9
2023-08-31T00:00	17322	88	-52.3	-84.3	176	9
2023-08-31T00:00	17339	87	-52.4	-84.4	174	8
2023-08-31T00:00	17359	87	-52.5	-84.4	170	8
2023-08-31T00:00	17387	87	-52.6	-84.5	166	8
2023-08-31T00:00	17409	86	-52.5	-84.4	161	8
2023-08-31T00:00	17430	86	-52.4	-84.4	157	8
2023-08-31T00:00	17455	86	-52.4	-84.4	154	8
2023-08-31T00:00	17479	86	-52.6	-84.5	151	8
2023-08-31T00:00	17501	85	-52.6	-83.9	150	8
2023-08-31T00:00	17523	85	-52.7	-84.0	151	8
2023-08-31T00:00	17543	85	-52.9	-84.1	151	8
2023-08-31T00:00	17565	84	-53.1	-84.3	152	8
2023-08-31T00:00	17584	84	-53.2	-84.4	154	9
2023-08-31T00:00	17608	84	-53.4	-84.5	155	9
2023-08-31T00:00	17630	84	-53.6	-84.6	156	9
2023-08-31T00:00	17654	83	-53.7	-84.7	157	9
2023-08-31T00:00	17673	83	-53.9	-84.3	159	9
2023-08-31T00:00	17700	83	-54.1	-84.5	161	9
2023-08-31T00:00	17720	82	-54.2	-84.5	162	9
2023-08-31T00:00	17745	82	-54.4	-84.7	164	10
2023-08-31T00:00	17769	82	-54.4	-85.2	166	10
2023-08-31T00:00	17794	81	-54.4	-85.2	169	10
2023-08-31T00:00	17815	81	-54.3	-85.2	172	10
2023-08-31T00:00	17839	81	-54.1	-85.0	177	10
2023-08-31T00:00	17860	81	-54.0	-84.9	182	10
2023-08-31T00:00	17884	80	-53.9	-85.5	188	9
2023-08-31T00:00	17904	80	-53.6	-85.3	194	9
2023-08-31T00:00	17928	80	-53.4	-85.1	201	9
2023-08-31T00:00	17948	80	-53.3	-85.0	206	9
2023-08-31T00:00	17972	79	-53.0	-84.8	212	9
2023-08-31T00:00	17999	79	-53.1	-84.9	216	9
2023-08-31T00:00	18018	79	-52.9	-84.7	220	9
2023-08-31T00:00	18039	78	-52.8	-84.7	224	8
2023-08-31T00:00	18060	78	-52.8	-84.7	228	8
2023-08-31T00:00	18082	78	-52.8	-84.7	231	8
2023-08-31T00:00	18106	78	-52.8	-84.7	234	9
2023-08-31T00:00	18128	77	-52.9	-84.7	236	9
2023-08-31T00:00	18149	77	-53.0	-84.8	237	9
2023-08-31T00:00	18172	77	-52.9	-84.7	239	9
2023-08-31T00:00	18192	77	-53.0	-84.8	239	9
2023-08-31T00:00	18214	76	-52.9	-84.7	240	9
2023-08-31T00:00	18239	76	-52.9	-84.7	240	9
2023-08-31T00:00	18259	76	-52.9	-84.7	238	8
2023-08-31T00:00	18281	76	-53.0	-84.8	236	8
2023-08-31T00:00	18307	75	-53.1	-84.9	232	7
2023-08-31T00:00	18331	75	-53.3	-85.0	226	7
2023-08-31T00:00	18354	75	-53.4	-85.1	219	6
2023-08-31T00:00	18378	74	-53.5	-85.2	212	6
2023-08-31T00:00	18401	74	-53.5	-85.2	206	6
2023-08-31T00:00	18424	74	-53.5	-85.2	203	6
2023-08-31T00:00	18444	74	-53.4	-85.1	201	6
2023-08-31T00:00	18468	73	-53.3	-85.0	200	6
2023-08-31T00:00	18488	73	-53.4	-85.1	199	6
2023-08-31T00:00	18510	73	-53.4	-85.1	198	5
2023-08-31T00:00	18532	73	-53.1	-84.9	198	5
2023-08-31T00:00	18555	72	-53.1	-84.9	199	5
2023-08-31T00:00	18576	72	-53.0	-84.8	200	5
2023-08-31T00:00	18599	72	-53.1	-84.9	201	5
2023-08-31T00:00	18625	72	-53.1	-84.9	202	6
2023-08-31T00:00	18645	71	-53.1	-84.9	202	6
2023-08-31T00:00	18667	71	-53.2	-85.0	201	6
2023-08-31T00:00	18688	71	-53.4	-85.1	200	6
2023-08-31T00:00	18712	71	-53.6	-85.3	200	6
2023-08-31T00:00	18737	70	-53.6	-84.6	200	6
2023-08-31T00:00	18758	70	-53.8	-84.8	201	6
2023-08-31T00:00	18782	70	-54.0	-84.9	203	6
2023-08-31T00:00	18804	70	-54.2	-85.1	206	6
2023-08-31T00:00	18829	69	-54.2	-85.1	210	6
2023-08-31T00:00	18852	69	-54.1	-85.0	215	5
2023-08-31T00:00	18872	69	-54.2	-85.1	221	5
2023-08-31T00:00	18894	69	-54.1	-85.0	227	5
2023-08-31T00:00	18917	68	-54.1	-85.0	233	5
2023-08-31T00:00	18941	68	-54.3	-85.2	237	5
2023-08-31T00:00	18961	68	-54.4	-85.2	238	5
2023-08-31T00:00	18986	68	-54.3	-85.2	236	5
2023-08-31T00:00	19008	67	-54.2	-85.1	233	5
2023-08-31T00:00	19028	67	-54.2	-85.1	229	6
2023-08-31T00:00	19052	67	-54.2	-85.1	226	6
2023-08-31T00:00	19074	67	-54.3	-85.2	224	7
2023-08-31T00:00	19091	67	-54.4	-85.8	222	8
2023-08-31T00:00	19120	66	-54.3	-85.8	222	8
2023-08-31T00:00	19141	66	-53.8	-85.4	221	9
2023-08-31T00:00	19163	66	-53.7	-85.3	222	9
2023-08-31T00:00	19183	66	-53.6	-85.3	222	9
2023-08-31T00:00	19206	65	-53.6	-85.3	222	9
2023-08-31T00:00	19229	65	-53.6	-85.3	223	8
2023-08-31T00:00	19250	65	-53.4	-85.1	224	7
2023-08-31T00:00	19275	65	-53.4	-85.1	226	7
2023-08-31T00:00	19296	65	-53.4	-85.1	230	6
2023-08-31T00:00	19319	64	-53.2	-85.0	234	5
2023-08-31T00:00	19338	64	-53.3	-85.0	239	4
2023-08-31T00:00	19363	64	-53.5	-85.2	245	4
2023-08-31T00:00	19387	64	-53.6	-85.3	250	3
2023-08-31T00:00	19410	63	-53.6	-85.3	254	3
2023-08-31T00:00	19432	63	-53.6	-85.3	254	3
2023-08-31T00:00	19453	63	-53.4	-85.1	252	3
2023-08-31T00:00	19476	63	-52.9	-85.4	248	3
2023-08-31T00:00	19499	63	-52.9	-85.4	244	3
2023-08-31T00:00	19519	62	-52.9	-85.4	241	3
2023-08-31T00:00	19541	62	-53.0	-85.5	237	3
2023-08-31T00:00	19563	62	-53.0	-84.8	232	3
2023-08-31T00:00	19584	62	-53.1	-84.9	225	2
2023-08-31T00:00	19606	61	-53.1	-84.9	214	2
2023-08-31T00:00	19629	61	-53.1	-84.9	198	2
2023-08-31T00:00	19647	61	-52.9	-84.7	182	2
2023-08-31T00:00	19669	61	-53.1	-84.9	171	3
2023-08-31T00:00	19691	61	-53.2	-85.6	167	4
2023-08-31T00:00	19711	60	-53.1	-85.6	165	4
2023-08-31T00:00	19731	60	-52.5	-85.1	165	5
2023-08-31T00:00	19752	60	-52.1	-84.8	165	6
2023-08-31T00:00	19772	60	-52.2	-84.9	165	6
2023-08-31T00:00	19793	60	-52.3	-85.0	165	7
2023-08-31T00:00	19813	60	-52.5	-85.1	166	7
2023-08-31T00:00	19834	59	-52.7	-85.3	167	7
2023-08-31T00:00	19853	59	-52.8	-84.7	169	7
2023-08-31T00:00	19875	59	-53.0	-84.8	172	7
2023-08-31T00:00	19893	59	-52.8	-85.3	175	7
2023-08-31T00:00	19916	59	-52.5	-85.1	180	6
2023-08-31T00:00	19936	58	-52.5	-85.1	186	6
2023-08-31T00:00	19955	58	-52.5	-85.1	193	6
2023-08-31T00:00	19973	58	-52.6	-85.2	201	5
2023-08-31T00:00	19995	58	-52.6	-85.2	207	5
2023-08-31T00:00	20018	58	-52.5	-85.1	213	6
2023-08-31T00:00	20038	58	-52.5	-85.1	216	6
2023-08-31T00:00	20057	57	-52.4	-85.1	219	6
2023-08-31T00:00	20077	57	-52.5	-85.1	220	6
2023-08-31T00:00	20098	57	-52.6	-85.2	222	5
2023-08-31T00:00	20119	57	-52.5	-85.1	224	5
2023-08-31T00:00	20142	57	-52.4	-85.1	226	4
2023-08-31T00:00	20163	56	-52.3	-85.0	228	4
2023-08-31T00:00	20186	56	-52.4	-85.1	227	3
2023-08-31T00:00	20207	56	-52.3	-85.0	221	2
2023-08-31T00:00	20236	56	-52.4	-85.1	208	2
2023-08-31T00:00	20255	56	-52.4	-85.1	190	2
2023-08-31T00:00	20279	55	-52.4	-85.1	180	2
2023-08-31T00:00	20299	55	-52.4	-85.1	179	3
2023-08-31T00:00	20322	55	-52.5	-85.1	183	3
2023-08-31T00:00	20349	55	-52.5	-85.1	189	3
2023-08-31T00:00	20368	55	-52.4	-85.1	193	3
2023-08-31T00:00	20392	54	-52.5	-85.1	194	3
2023-08-31T00:00	20419	54	-52.4	-85.1	190	3
2023-08-31T00:00	20443	54	-52.1	-84.8	182	2
2023-08-31T00:00	20467	54	-52.0	-84.8	172	2
2023-08-31T00:00	20491	54	-52.0	-84.8	165	2
2023-08-31T00:00	20514	53	-51.9	-84.7	160	2
2023-08-31T00:00	20538	53	-52.0	-84.8	156	2
2023-08-31T00:00	20563	53	-51.9	-84.7	150	2
2023-08-31T00:00	20587	53	-52.1	-84.8	139	2
2023-08-31T00:00	20613	53	-52.3	-85.0	128	2
2023-08-31T00:00	20633	52	-52.4	-85.1	120	2
2023-08-31T00:00	20659	52	-52.5	-84.4	116	3
2023-08-31T00:00	20687	52	-52.6	-84.5	115	4
2023-08-31T00:00	20709	52	-52.7	-84.6	116	4
2023-08-31T00:00	20735	52	-52.8	-84.7	120	5
2023-08-31T00:00	20759	51	-53.0	-85.5	124	5
2023-08-31T00:00	20788	51	-52.7	-85.3	128	6
2023-08-31T00:00	20805	51	-52.6	-85.2	131	6
2023-08-31T00:00	20832	51	-52.2	-84.9	133	6
2023-08-31T00:00	20859	51	-52.1	-84.8	134	6
2023-08-31T00:00	20882	50	-52.0	-84.8	134	6
2023-08-31T00:00	20904	50	-52.0	-84.8	134	6
2023-08-31T00:00	20927	50	-52.0	-84.8	134	5
2023-08-31T00:00	20950	50	-52.0	-84.8	136	5
2023-08-31T00:00	20975	50	-52.1	-84.8	141	4
2023-08-31T00:00	20997	50	-52.1	-84.8	149	4
2023-08-31T00:00	21021	49	-52.0	-84.8	157	4
2023-08-31T00:00	21045	49	-51.7	-84.5	164	4
2023-08-31T00:00	21068	49	-51.5	-85.2	168	5
2023-08-31T00:00	21090	49	-51.5	-85.2	169	5
2023-08-31T00:00	21109	49	-51.4	-85.1	168	5
2023-08-31T00:00	21136	49	-51.3	-85.0	166	5
2023-08-31T00:00	21161	48	-50.8	-84.7	163	4
2023-08-31T00:00	21184	48	-50.9	-84.7	161	4
2023-08-31T00:00	21207	48	-50.9	-84.7	160	4
2023-08-31T00:00	21232	48	-51.0	-84.8	161	4
2023-08-31T00:00	21253	48	-51.1	-84.9	163	4
2023-08-31T00:00	21277	47	-51.1	-84.1	166	4
2023-08-31T00:00	21301	47	-51.2	-84.2	168	4
2023-08-31T00:00	21323	47	-51.2	-84.2	169	4
2023-08-31T00:00	21341	47	-51.2	-84.2	167	5
2023-08-31T00:00	21367	47	-51.2	-84.2	165	4
2023-08-31T00:00	21389	47	-51.2	-84.2	163	4
2023-08-31T00:00	21409	47	-51.0	-84.0	161	4
2023-08-31T00:00	21435	46	-51.0	-84.8	161	4
2023-08-31T00:00	21454	46	-51.0	-84.8	162	4
2023-08-31T00:00	21476	46	-50.9	-84.7	164	5
2023-08-31T00:00	21501	46	-51.0	-84.0	166	5
2023-08-31T00:00	21525	46	-51.2	-84.2	167	5
2023-08-31T00:00	21547	46	-51.4	-84.3	165	5
2023-08-31T00:00	21567	45	-51.5	-84.4	162	4
2023-08-31T00:00	21593	45	-51.4	-84.3	156	4
2023-08-31T00:00	21616	45	-51.4	-84.3	147	4
2023-08-31T00:00	21639	45	-51.4	-84.3	137	4
2023-08-31T00:00	21667	45	-51.5	-84.4	128	4
2023-08-31T00:00	21683	45	-51.6	-84.5	123	4
2023-08-31T00:00	21705	44	-51.5	-84.4	122	3
2023-08-31T00:00	21733	44	-51.5	-84.4	124	3
2023-08-31T00:00	21754	44	-51.4	-85.1	128	3
2023-08-31T00:00	21776	44	-51.3	-85.0	133	3
2023-08-31T00:00	21801	44	-51.3	-85.0	135	3
2023-08-31T00:00	21823	44	-51.2	-85.0	135	3
2023-08-31T00:00	21849	43	-51.1	-84.9	133	4
2023-08-31T00:00	21873	43	-51.0	-84.8	128	4
2023-08-31T00:00	21897	43	-51.0	-84.8	121	4
2023-08-31T00:00	21924	43	-51.0	-84.8	114	4
2023-08-31T00:00	21949	43	-51.0	-84.8	105	4
2023-08-31T00:00	21975	43	-51.0	-84.8	99	4
2023-08-31T00:00	21998	42	-51.0	-84.0	94	4
2023-08-31T00:00	22022	42	-51.1	-84.1	94	4
2023-08-31T00:00	22049	42	-51.3	-84.3	96	4
2023-08-31T00:00	22075	42	-51.4	-84.3	100	4
2023-08-31T00:00	22101	42	-51.3	-84.3	102	5
2023-08-31T00:00	22124	42	-51.3	-84.3	103	5
2023-08-31T00:00	22149	42	-51.4	-84.3	101	5
2023-08-31T00:00	22176	41	-51.4	-84.3	98	5
2023-08-31T00:00	22194	41	-51.5	-84.4	94	5
2023-08-31T00:00	22225	41	-51.6	-84.5	92	5
2023-08-31T00:00	22248	41	-51.7	-84.5	92	5
2023-08-31T00:00	22273	41	-51.8	-84.6	94	6
2023-08-31T00:00	22299	41	-51.6	-84.5	96	6
2023-08-31T00:00	22324	40	-51.6	-84.5	99	6
2023-08-31T00:00	22346	40	-51.4	-84.3	101	6
2023-08-31T00:00	22376	40	-51.6	-84.5	103	6
2023-08-31T00:00	22403	40	-51.7	-84.5	106	6
2023-08-31T00:00	22422	40	-51.8	-84.6	109	6
2023-08-31T00:00	22444	40	-51.9	-84.7	113	6
2023-08-31T00:00	22473	40	-52.0	-84.8	118	6
2023-08-31T00:00	22497	39	-52.1	-84.8	124	5
2023-08-31T00:00	22523	39	-52.2	-84.9	131	5
2023-08-31T00:00	22545	39	-52.3	-85.0	139	5
2023-08-31T00:00	22572	39	-52.4	-85.1	145	5
2023-08-31T00:00	22593	39	-52.6	-85.2	149	5
2023-08-31T00:00	22619	39	-52.7	-85.3	150	5
2023-08-31T00:00	22642	38	-52.7	-85.3	147	5
2023-08-31T00:00	22667	38	-52.7	-85.3	141	5
2023-08-31T00:00	22686	38	-52.3	-85.0	132	5
2023-08-31T00:00	22711	38	-52.2	-84.9	124	5
2023-08-31T00:00	22734	38	-52.2	-84.9	117	6
2023-08-31T00:00	22755	38	-52.3	-85.0	114	6
2023-08-31T00:00	22776	38	-52.2	-84.9	112	6
2023-08-31T00:00	22797	38	-52.2	-84.9	113	6
2023-08-31T00:00	22823	37	-52.1	-85.6	116	5
2023-08-31T00:00	22847	37	-51.7	-85.3	121	5
2023-08-31T00:00	22865	37	-51.8	-85.4	129	5
2023-08-31T00:00	22891	37	-52.0	-84.8	137	4
2023-08-31T00:00	22913	37	-52.1	-84.8	146	4
2023-08-31T00:00	22934	37	-52.2	-84.9	153	4
2023-08-31T00:00	22960	37	-52.3	-85.0	156	4
2023-08-31T00:00	22980	37	-52.3	-85.0	155	4
2023-08-31T00:00	23005	36	-52.2	-84.9	152	5
2023-08-31T00:00	23030	36	-52.0	-84.8	148	5
2023-08-31T00:00	23050	36	-52.2	-84.9	144	5
2023-08-31T00:00	23071	36	-52.2	-84.9	143	5
2023-08-31T00:00	23092	36	-52.3	-85.0	144	5
2023-08-31T00:00	23112	36	-52.0	-85.5	147	5
2023-08-31T00:00	23140	36	-51.9	-85.5	151	5
2023-08-31T00:00	23159	36	-52.0	-85.5	153	5
2023-08-31T00:00	23184	35	-52.0	-85.5	153	5
2023-08-31T00:00	23208	35	-51.9	-85.5	149	6
2023-08-31T00:00	23231	35	-51.9	-85.5	144	6
2023-08-31T00:00	23259	35	-51.8	-85.4	139	7
2023-08-31T00:00	23276	35	-51.8	-85.4	135	7
2023-08-31T00:00	23302	35	-51.9	-85.5	133	7
2023-08-31T00:00	23331	35	-51.9	-85.5	131	8
2023-08-31T00:00	23347	35	-51.8	-85.4	131	8
2023-08-31T00:00	23372	34	-51.8	-85.4	130	9
2023-08-31T00:00	23398	34	-51.8	-85.4	131	9
2023-08-31T00:00	23423	34	-51.7	-85.3	132	10
2023-08-31T00:00	23446	34	-51.8	-85.4	133	10
2023-08-31T00:00	23471	34	-51.9	-85.5	136	10
2023-08-31T00:00	23502	34	-51.6	-85.2	139	10
2023-08-31T00:00	23524	34	-51.7	-85.3	144	10
2023-08-31T00:00	23550	33	-51.3	-85.0	148	10
2023-08-31T00:00	23577	33	-51.1	-84.9	153	9
2023-08-31T00:00	23602	33	-50.9	-84.7	156	9
2023-08-31T00:00	23626	33	-50.9	-84.7	160	8
2023-08-31T00:00	23648	33	-51.0	-84.8	163	8
2023-08-31T00:00	23679	33	-50.8	-84.7	166	8
2023-08-31T00:00	23702	33	-50.8	-84.7	170	8
2023-08-31T00:00	23734	33	-50.9	-84.7	174	8
2023-08-31T00:00	23764	32	-50.9	-84.7	177	8
2023-08-31T00:00	23790	32	-50.9	-84.7	181	8
2023-08-31T00:00	23824	32	-50.7	-84.6	185	8
2023-08-31T00:00	23845	32	-50.6	-84.5	188	8
2023-08-31T00:00	23875	32	-50.5	-84.5	190	8
2023-08-31T00:00	23903	32	-50.5	-84.5	191	8
2023-08-31T00:00	23924	32	-50.6	-84.5	192	8
2023-08-31T00:00	23955	31	-50.7	-84.6	193	8
2023-08-31T00:00	23984	31	-50.9	-84.7	193	7
2023-08-31T00:00	24013	31	-50.9	-84.7	195	7
2023-08-31T00:00	24036	31	-50.8	-84.7	198	7
2023-08-31T00:00	24066	31	-50.6	-84.5	201	6
2023-08-31T00:00	24093	31	-50.7	-84.6	206	6
2023-08-31T00:00	24117	31	-50.8	-84.7	211	7
2023-08-31T00:00	24146	31	-51.0	-84.8	217	7
2023-08-31T00:00	24174	30	-51.1	-84.9	223	7
2023-08-31T00:00	24196	30	-51.1	-84.9	228	7
2023-08-31T00:00	24220	30	-51.2	-85.0	233	6
2023-08-31T00:00	24248	30	-51.1	-84.9	236	6
2023-08-31T00:00	24276	30	-51.2	-85.0	240	5
2023-08-31T00:00	24304	30	-51.3	-85.0	244	5
2023-08-31T00:00	24324	30	-51.3	-85.0	249	4
2023-08-31T00:00	24350	30	-51.5	-85.2	255	4
2023-08-31T00:00	24373	29	-51.5	-85.2	260	4
2023-08-31T00:00	24400	29	-51.4	-85.1	262	4
2023-08-31T00:00	24427	29	-51.5	-85.2	260	4
2023-08-31T00:00	24454	29	-51.5	-85.2	256	4
2023-08-31T00:00	24471	29	-51.4	-85.1	251	4
2023-08-31T00:00	24495	29	-51.5	-85.2	248	4
2023-08-31T00:00	24524	29	-51.5	-85.2	244	4
2023-08-31T00:00	24547	29	-51.5	-85.2	240	3
2023-08-31T00:00	24574	29	-51.5	-85.2	232	3
2023-08-31T00:00	24596	28	-51.6	-85.2	219	3
2023-08-31T00:00	24614	28	-51.7	-85.3	205	3
2023-08-31T00:00	24633	28	-51.8	-85.4	193	3
2023-08-31T00:00	24661	28	-51.9	-85.5	187	3
2023-08-31T00:00	24681	28	-51.9	-85.5	184	4
2023-08-31T00:00	24708	28	-51.7	-85.3	183	4
2023-08-31T00:00	24726	28	-51.6	-85.2	183	4
2023-08-31T00:00	24752	28	-51.6	-85.2	184	4
2023-08-31T00:00	24769	28	-51.5	-85.2	183	4
2023-08-31T00:00	24790	28	-51.5	-85.2	182	4
2023-08-31T00:00	24821	28	-51.4	-85.1	179	4
2023-08-31T00:00	24845	27	-51.5	-85.2	177	4
2023-08-31T00:00	24868	27	-51.4	-85.1	175	4
2023-08-31T00:00	24890	27	-51.4	-85.1	173	4
2023-08-31T00:00	24913	27	-51.3	-85.0	171	4
2023-08-31T00:00	24935	27	-51.1	-84.9	170	4
2023-08-31T00:00	24952	27	-50.9	-84.7	170	5
2023-08-31T00:00	24979	27	-51.0	-84.8	170	5
2023-08-31T00:00	25000	27	-50.9	-84.7	171	6
2023-08-31T00:00	25020	27	-50.9	-85.6	174	6
2023-08-31T00:00	25055	27	-50.7	-85.5	177	7
2023-08-31T00:00	25072	26	-50.5	-85.3	180	7
2023-08-31T00:00	25099	26	-50.3	-85.2	183	7
2023-08-31T00:00	25128	26	-50.2	-85.1	186	6
2023-08-31T00:00	25144	26	-50.1	-85.1	188	6
2023-08-31T00:00	25171	26	-50.1	-85.1	189	6
2023-08-31T00:00	25198	26	-50.0	-85.0	189	5
2023-08-31T00:00	25219	26	-49.8	-84.8	189	5
2023-08-31T00:00	25238	26	-49.8	-84.8	189	4
2023-08-31T00:00	25268	26	-49.9	-84.9	188	4
2023-08-31T00:00	25300	26	-49.8	-84.8	186	3
2023-08-31T00:00	25322	25	-49.8	-84.8	182	3
2023-08-31T00:00	25351	25	-49.6	-84.7	175	2
2023-08-31T00:00	25377	25	-49.6	-84.7	167	2
2023-08-31T00:00	25396	25	-49.4	-84.6	161	2
2023-08-31T00:00	25425	25	-49.3	-84.5	160	2
2023-08-31T00:00	25446	25	-49.3	-84.5	163	3
2023-08-31T00:00	25473	25	-49.2	-84.4	167	3
2023-08-31T00:00	25507	25	-49.2	-84.4	172	3
2023-08-31T00:00	25531	25	-49.2	-84.4	176	4
2023-08-31T00:00	25561	25	-49.3	-84.5	178	4
2023-08-31T00:00	25585	24	-49.4	-84.6	180	4
2023-08-31T00:00	25614	24	-49.2	-84.4	180	5
2023-08-31T00:00	25634	24	-49.2	-84.4	178	5
2023-08-31T00:00	25664	24	-49.3	-84.5	176	5
2023-08-31T00:00	25687	24	-49.2	-84.4	173	4
2023-08-31T00:00	25716	24	-49.2	-84.4	169	4
2023-08-31T00:00	25752	24	-49.3	-84.5	165	4
2023-08-31T00:00	25778	24	-49.3	-84.5	161	3
2023-08-31T00:00	25798	24	-49.3	-84.5	156	3
2023-08-31T00:00	25824	24	-49.1	-84.3	150	2
2023-08-31T00:00	25848	24	-49.2	-84.4	143	2
2023-08-31T00:00	25874	23	-49.2	-84.4	135	2
2023-08-31T00:00	25900	23	-49.2	-84.4	129	2
2023-08-31T00:00	25925	23	-49.0	-84.3	128	2
2023-08-31T00:00	25946	23	-49.0	-84.3	130	2
2023-08-31T00:00	25978	23	-49.1	-84.3	133	2
2023-08-31T00:00	25999	23	-49.2	-84.4	135	3
2023-08-31T00:00	26023	23	-49.1	-84.3	138	3
2023-08-31T00:00	26041	23	-49.1	-84.3	142	4
2023-08-31T00:00	26065	23	-49.2	-84.4	147	4
2023-08-31T00:00	26089	23	-49.0	-84.3	153	5
2023-08-31T00:00	26113	23	-48.8	-84.1	159	5
2023-08-31T00:00	26135	23	-48.6		165	6
2023-08-31T00:00	26161	22	-48.7	-84.1	169	8
2023-08-31T00:00	26187	22	-48.6	-85.0	172	9
2023-08-31T00:00	26205	22	-48.6	-85.0	175	10
2023-08-31T00:00	26232	22	-48.6		178	10
2023-08-31T00:00	26254	22	-48.6		180	10
2023-08-31T00:00	26277	22	-48.6		184	10
2023-08-31T00:00	26299	22	-48.5	-85.0	187	10
2023-08-31T00:00	26326	22	-48.1	-84.7	192	9
2023-08-31T00:00	26340	22	-48.1	-84.7	196	9
2023-08-31T00:00	26355	22	-48.1	-84.7	201	9
2023-08-31T00:00	26380	22	-48.1	-84.7	205	8
2023-08-31T00:00	26402	22	-48.0	-84.6	208	8
2023-08-31T00:00	26427	22	-47.9	-84.6	210	8
2023-08-31T00:00	26449	21	-47.9	-84.6	211	8
2023-08-31T00:00	26469	21	-47.8	-84.5	210	8
2023-08-31T00:00	26493	21	-47.7	-84.4	208	8
2023-08-31T00:00	26520	21	-47.6	-84.3	206	9
2023-08-31T00:00	26533	21	-47.4	-84.2	206	9
2023-08-31T00:00	26555	21	-47.1	-84.0	206	10
2023-08-31T00:00	26580	21	-47.0	-83.9	207	10
2023-08-31T00:00	26605	21	-46.8	-83.8	209	11
2023-08-31T00:00	26623	21	-46.8	-83.8	210	11
2023-08-31T00:00	26641	21	-46.7	-83.7	210	11
2023-08-31T00:00	26673	21	-46.4	-83.5	210	10
2023-08-31T00:00	26695	21	-46.2	-83.4	210	9
2023-08-31T00:00	26708	21	-46.1	-83.3	210	8
2023-08-31T00:00	26734	21	-46.0	-83.2	211	7
2023-08-31T00:00	26756	21	-46.0	-83.2	213	6
2023-08-31T00:00	26783	20	-45.9	-83.2	218	6
2023-08-31T00:00	26803	20	-46.0	-83.2	223	5
2023-08-31T00:00	26823	20	-46.1	-83.3	228	5
2023-08-31T00:00	26851	20	-46.1	-83.3	230	4
2023-08-31T00:00	26883	20	-46.2	-83.4	228	4
2023-08-31T00:00	26906	20	-46.2	-83.4	219	3
2023-08-31T00:00	26926	20	-46.1	-83.3	206	3
2023-08-31T00:00	26954	20	-45.8	-83.1	194	4
2023-08-31T00:00	26974	20	-45.9	-83.2	188	4
2023-08-31T00:00	27004	20	-46.0	-83.2	188	5
2023-08-31T00:00	27029	20	-46.2	-83.4	190	6
2023-08-31T00:00	27060	20	-46.2	-83.4	194	7
2023-08-31T00:00	27089	20	-46.1	-83.3	199	7
2023-08-31T00:00	27114	19	-45.9	-83.2	203	8
2023-08-31T00:00	27132	19	-45.8	-83.1	206	9
2023-08-31T00:00	27155	19	-45.9	-83.2	210	10
2023-08-31T00:00	27186	19	-45.9	-83.2	213	10
2023-08-31T00:00	27217	19	-46.0	-83.2	216	10
2023-08-31T00:00	27238	19	-46.1	-83.3	220	10
2023-08-31T00:00	27269	19	-45.8	-83.1	224	9
2023-08-31T00:00	27291	19	-45.2	-82.7	229	9
2023-08-31T00:00	27330	19	-44.7	-82.3	233	8
2023-08-31T00:00	27348	19	-44.4	-82.1	237	7
2023-08-31T00:00	27383	19	-44.1	-81.9	238	7
2023-08-31T00:00	27408	19	-43.9	-81.8	238	7
2023-08-31T00:00	27433	19	-43.7	-81.6	236	7
2023-08-31T00:00	27464	18	-43.7	-81.6	233	7
2023-08-31T00:00	27489	18	-43.8	-81.7	231	7
2023-08-31T00:00	27514	18	-43.9	-81.8	229	7
2023-08-31T00:00	27549	18	-44.0	-81.8	228	7
2023-08-31T00:00	27581	18	-44.1	-81.9	227	7
2023-08-31T00:00	27599	18	-44.2	-82.0	225	7
2023-08-31T00:00	27630	18	-44.1	-81.9	224	8
2023-08-31T00:00	27669	18	-44.0	-81.8	222	8
2023-08-31T00:00	27686	18	-44.0	-81.8	222	8
2023-08-31T00:00	27717	18	-44.2	-82.0	222	9
2023-08-31T00:00	27749	18	-44.4	-82.1	224	9
2023-08-31T00:00	27770	18	-44.6	-82.2	227	9
2023-08-31T00:00	27804	18	-44.5	-82.2	232	9
2023-08-31T00:00	27826	17	-44.5	-82.2	236	9
2023-08-31T00:00	27856	17	-44.5	-82.2	241	9
2023-08-31T00:00	27885	17	-44.6	-82.2	244	9
2023-08-31T00:00	27909	17	-44.7	-82.3	247	9
2023-08-31T00:00	27930	17	-44.8	-82.4	250	8
2023-08-31T00:00	27954	17	-44.4	-82.1	253	7
2023-08-31T00:00	27981	17	-44.0	-81.8	257	6
2023-08-31T00:00	28000	17	-43.8	-81.7	261	5
2023-08-31T00:00	28030	17	-43.6	-81.5	266	4
2023-08-31T00:00	28063	17	-43.5	-81.5	273	3
2023-08-31T00:00	28086	17	-43.2	-81.3	285	2
2023-08-31T00:00	28116	17	-42.9	-81.1	307	2
2023-08-31T00:00	28140	17	-43.0	-81.1	337	1
2023-08-31T00:00	28152	17	-42.9	-81.1	360	2
2023-08-31T00:00	28195	17	-42.9	-81.1	14	2
2023-08-31T00:00	28200	17	-42.8	-81.0	25	1
2023-08-31T00:00	28230	16	-42.8	-81.0	39	1
2023-08-31T00:00	28258	16	-42.9	-81.1	65	1
2023-08-31T00:00	28280	16	-43.0	-81.1	102	1
2023-08-31T00:00	28299	16	-43.0	-81.1	129	1
2023-08-31T00:00	28341	16	-43.1	-81.2	146	2
2023-08-31T00:00	28353	16	-43.1	-81.2	156	2
2023-08-31T00:00	28380	16	-43.0	-81.1	162	3
2023-08-31T00:00	28411	16	-42.9	-81.1	165	3
2023-08-31T00:00	28438	16	-42.9	-81.1	167	4
2023-08-31T00:00	28464	16	-42.6	-80.8	169	5
2023-08-31T00:00	28488	16	-42.6	-80.8	171	5
2023-08-31T00:00	28514	16	-42.8	-81.0	175	6
2023-08-31T00:00	28525	16	-42.8	-81.0	179	6
2023-08-31T00:00	28556	16	-42.8	-81.0	183	6
2023-08-31T00:00	28585	16	-43.0	-81.1	186	7
2023-08-31T00:00	28611	16	-43.1	-81.2	190	6
2023-08-31T00:00	28635	16	-43.1	-81.2	194	6
2023-08-31T00:00	28655	15	-43.1	-81.2	197	6
2023-08-31T00:00	28682	15	-43.0	-81.1	200	6
2023-08-31T00:00	28700	15	-43.1	-81.2	202	7
2023-08-31T00:00	28732	15	-43.0	-81.1	202	7
2023-08-31T00:00	28758	15	-42.6	-80.8	202	7
2023-08-31T00:00	28775	15	-42.5	-80.8	203	7
2023-08-31T00:00	28814	15	-42.4	-80.7	203	8
2023-08-31T00:00	28829	15	-42.4	-80.7	203	8
2023-08-31T00:00	28852	15	-42.3	-80.6	204	8
2023-08-31T00:00	28880	15	-42.3	-80.6	204	8
2023-08-31T00:00	28899	15	-42.3	-80.6	205	8
2023-08-31T00:00	28927	15	-42.4	-80.7	207	8
2023-08-31T00:00	28959	15	-42.6	-80.8	210	8
2023-08-31T00:00	28979	15	-42.3	-80.6	214	7
2023-08-31T00:00	29010	15	-42.1	-80.5	219	7
2023-08-31T00:00	29032	15	-42.1	-80.5	226	7
2023-08-31T00:00	29068	15	-41.9	-80.4	233	6
2023-08-31T00:00	29077	15	-41.8	-80.3	239	6
2023-08-31T00:00	29118	14	-41.9	-80.4	245	6
2023-08-31T00:00	29125	14	-42.0	-80.4	249	6
2023-08-31T00:00	29149	14	-42.0	-80.4	252	6
2023-08-31T00:00	29187	14	-41.8	-80.3	255	6
2023-08-31T00:00	29209	14	-41.6	-80.1	256	6
2023-08-31T00:00	29230	14	-41.3	-79.9	256	6
2023-08-31T00:00	29255	14	-41.4	-80.0	256	6
2023-08-31T00:00	29284	14	-41.5	-80.1	256	6
2023-08-31T00:00	29309	14	-41.5	-80.1	254	6
2023-08-31T00:00	29319	14	-41.6	-80.1	253	6
2023-08-31T00:00	29346	14	-41.8	-80.3	251	6
2023-08-31T00:00	29369	14	-42.0	-80.4	251	6
2023-08-31T00:00	29392	14	-41.9	-80.4	251	7
2023-08-31T00:00	29434	14	-41.8	-80.3	253	7
2023-08-31T00:00	29445	14	-41.8	-80.3	257	7
2023-08-31T00:00	29481	14	-41.7	-80.2	261	7
2023-08-31T00:00	29483	14	-41.3	-79.9	266	6
2023-08-31T00:00	29533	14	-41.2	-79.9	272	6
2023-08-31T00:00	29555	14	-41.2	-79.9	278	5
2023-08-31T00:00	29569	13	-41.2	-79.9	287	5
2023-08-31T00:00	29602	13	-41.2	-79.9	298	4
2023-08-31T00:00	29622	13	-41.1	-79.8	312	4
2023-08-31T00:00	29655	13	-41.1	-79.8	326	4
2023-08-31T00:00	29683	13	-41.1	-79.8	340	4
2023-08-31T00:00	29706	13	-40.8	-79.6	352	5
2023-08-31T00:00	29727	13	-40.6	-79.5	1	5
2023-08-31T00:00	29770	13	-40.6	-79.5	9	5
2023-08-31T00:00	29788	13	-40.7	-79.5	16	6
2023-08-31T00:00	29815	13	-40.7	-79.5	21	6
2023-08-31T00:00	29843	13	-40.8	-79.6	26	7
2023-08-31T00:00	29860	13	-40.9	-79.7	31	8
2023-08-31T00:00	29897	13	-41.0	-79.7	35	8
2023-08-31T00:00	29920	13	-41.0	-79.7	38	8
2023-08-31T00:00	29958	13	-40.7	-79.5	42	8
2023-08-31T00:00	29983	13	-40.6	-79.5	46	8
2023-08-31T00:00	30006	13	-40.7	-79.5	52	7
2023-08-31T00:00	30029	13	-40.8	-79.6	60	7
2023-08-31T00:00	30062	13	-41.0	-79.7	68	7
2023-08-31T00:00	30088	13	-41.0	-79.7	76	7
2023-08-31T00:00	30113	12	-41.1	-79.8	83	7
2023-08-31T00:00	30137	12	-41.1	-79.8	89	7
2023-08-31T00:00	30164	12	-41.1	-79.8	94	7
2023-08-31T00:00	30175	12	-41.2	-79.9	99	7
2023-08-31T00:00	30218	12	-41.4	-80.0	104	7
2023-08-31T00:00	30247	12	-41.5	-80.1	108	7
2023-08-31T00:00	30270	12	-41.6	-80.1	113	6
2023-08-31T00:00	30290	12	-41.8	-80.3	118	6
2023-08-31T00:00	30312	12	-41.9	-80.4	122	6
2023-08-31T00:00	30351	12	-42.0	-80.4	127	6
2023-08-31T00:00	30369	12	-42.0	-80.4	131	6
2023-08-31T00:00	30388	12	-42.1	-80.5	134	5
2023-08-31T00:00	30412	12	-42.2	-80.6	135	6
2023-08-31T00:00	30446	12	-42.3	-80.6	136	6
2023-08-31T00:00	30457	12	-42.4	-80.7	137	5
2023-08-31T00:00	30491	12	-42.4	-80.7	140	5
2023-08-31T00:00	30515	12	-42.4	-80.7	144	5
2023-08-31T00:00	30533	12	-42.4	-80.7	149	5
2023-08-31T00:00	30551	12	-42.4	-80.7	154	4
2023-08-31T00:00	30580	12	-42.4	-80.7	159	3
2023-08-31T00:00	30590	12	-42.4	-80.7	166	3
2023-08-31T00:00	30628	12	-42.4	-80.7	174	3
2023-08-31T00:00	30649	12	-42.4	-80.7	181	2
2023-08-31T00:00	30663	11	-42.3	-80.6	184	2
2023-08-31T00:00	30694	11	-42.1	-80.5	181	2
2023-08-31T00:00	30711	11	-41.8	-80.3	173	1
2023-08-31T00:00	30744	11	-41.5	-80.1	159	1
2023-08-31T00:00	30759	11	-41.3	-79.9	137	1
2023-08-31T00:00	30790	11	-41.2	-79.9	109	1
2023-08-31T00:00	30811	11	-41.0	-79.7	85	1
2023-08-31T00:00	30836	11	-41.0	-79.7	72	2
2023-08-31T00:00	30857	11	-41.0	-79.7	67	2
2023-08-31T00:00	30884	11	-40.8	-79.6	66	3
2023-08-31T00:00	30910	11	-40.5	-79.4	66	3
2023-08-31T00:00	30945	11	-40.4	-79.3	67	4
2023-08-31T00:00	30960	11	-40.3	-79.2	69	4
2023-08-31T00:00	30963	11	-40.3	-79.2	70	3
2023-08-31T00:00	30995	11	-40.3	-79.2	72	3
2023-08-31T00:00	31029	11	-40.4	-79.3	73	3
2023-08-31T00:00	31050	11	-40.4	-79.3	74	3
2023-08-31T00:00	31086	11	-40.4	-79.3	76	3
2023-08-31T00:00	31101	11	-40.5	-79.4	78	3
2023-08-31T00:00	31138	11	-40.4	-79.3	80	3
2023-08-31T00:00	31159	11	-40.5	-79.4	82	3
2023-08-31T00:00	31192	11	-40.5	-79.4	83	3
2023-08-31T00:00	31207	11	-40.6	-79.5	82	4
2023-08-31T00:00	31239	11	-40.6	-79.5	81	4
2023-08-31T00:00	31242	11	-40.7	-79.5	81	4
2023-08-31T00:00	31290	11	-40.6	-79.5	82	4
2023-08-31T00:00	31310	10	-40.6	-79.5	85	4
2023-08-31T00:00	31337	10	-40.3	-79.2	89	4
2023-08-31T00:00	31364	10	-40.3	-79.2	93	4
2023-08-31T00:00	31365	10	-40.1	-79.1	98	3
2023-08-31T00:00	31418	10	-40.1	-79.1	101	3
2023-08-31T00:00	31427	10	-40.1	-79.1	104	2
2023-08-31T00:00	31453	10	-40.1	-79.1	108	2
2023-08-31T00:00	31482	10	-40.2	-79.2	113	2
2023-08-31T00:00	31507	10	-40.2	-79.2	118	2
2023-08-31T00:00	31556	10	-40.3	-79.2	120	2
2023-08-31T00:00	31567	10	-40.2	-79.2	120	3
2023-08-31T00:00	31597	10	-40.2	-79.2	120	3
2023-08-31T00:00	31630	10	-40.2	-79.2	119	3
2023-08-31T00:00	31655	10	-40.3	-79.2	120	4
2023-08-31T00:00	31676	10	-40.3	-79.2	122	4
2023-08-31T00:00	31686	10	-40.4	-79.3	123	4
2023-08-31T00:00	31731	10	-40.5	-79.4	124	3
2023-08-31T00:00	31753	10	-40.6	-79.5	125	3
2023-08-31T00:00	31782	10	-40.9	-79.7	126	3
2023-08-31T00:00	31787	10	-40.9	-79.7	125	2
2023-08-31T00:00	31831	10	-40.9	-79.7	121	2
2023-08-31T00:00	31865	10	-40.9	-79.7	116	2
2023-08-31T00:00	31882	10	-40.8	-79.6	107	1
2023-08-31T00:00	31907	10	-40.8	-79.6	96	1
2023-08-31T00:00	31931	10	-40.8	-79.6	83	1
2023-08-31T00:00	31970	10	-40.8	-79.6	67	1
2023-08-31T00:00	31988	9	-40.8	-79.6	52	1
2023-08-31T00:00	32010	9	-40.7	-79.5	41	1
2023-08-31T00:00	32027	9	-40.7	-79.5	35	2
2023-08-31T00:00	32064	9	-40.9	-79.7	33	2
2023-08-31T00:00	32070	9	-41.0	-79.7	34	2
2023-08-31T00:00	32119	9	-40.9	-79.7	38	3
2023-08-31T00:00	32146	9	-40.6	-79.5	43	3
2023-08-31T00:00	32171	9	-40.4	-79.3	50	4
2023-08-31T00:00	32175	9	-40.3	-79.2	58	4
2023-08-31T00:00	32210	9	-40.2	-79.2	66	5
2023-08-31T00:00	32226	9	-40.1	-79.1	74	5
2023-08-31T00:00	32272	9	-40.1	-79.1	80	6
2023-08-31T00:00	32294	9	-40.0	-79.0	85	6
2023-08-31T00:00	32314	9	-40.1	-79.1	90	7
2023-08-31T00:00	32345	9	-40.2	-79.2	93	7
2023-08-31T00:00	32357	9	-40.2	-79.2	95	8
2023-08-31T00:00	32389	9	-40.4	-79.3	98	8
2023-08-31T00:00	32412	9	-40.5	-79.4	100	8
2023-08-31T00:00	32444	9	-40.4	-79.3	103	9
2023-08-31T00:00	32464	9	-40.5	-79.4	105	9
2023-08-31T00:00	32481	9	-40.6	-79.5	107	9
2023-08-31T00:00	32504	9	-40.7	-79.5	109	9
2023-08-31T00:00	32544	9	-40.8	-79.6	110	9
2023-08-31T00:00	32558	9	-41.0	-79.7	111	9
2023-08-31T00:00	32576	9	-41.1	-79.8	112	9
2023-08-31T00:00	32597	9	-41.2	-79.9	112	8
2023-08-31T00:00	32626	9	-41.3	-79.9	112	8
2023-08-31T00:00	32641	9	-41.3	-79.9	112	9
2023-08-31T00:00	32671	9	-41.2	-79.9	112	9
2023-08-31T00:00	32694	9	-41.0	-79.7	112	9
2023-08-31T00:00	32712	9	-41.0	-79.7	114	10
2023-08-31T00:00	32734	8	-40.8	-79.6	116	10
2023-08-31T00:00	32759	8	-40.7	-79.5	119	10
2023-08-31T00:00	32789	8	-40.8	-79.6	123	10
2023-08-31T00:00	32799	8	-40.7	-79.5	127	9
2023-08-31T00:00	32828	8	-40.5	-79.4	132	9
2023-08-31T00:00	32851	8	-40.3	-79.2	136	9
2023-08-31T00:00	32866	8	-40.3	-79.2	139	9
2023-08-31T00:00	32896	8	-40.6	-79.5	142	9
2023-08-31T00:00	32913	8	-40.6	-79.5	146	9
2023-08-31T00:00	32937	8	-40.8	-79.6	149	9
2023-08-31T00:00	32972	8	-41.0	-79.7	153	9
2023-08-31T00:00	32983	8	-41.1	-79.8	158	9
2023-08-31T00:00	33008	8	-41.3	-79.9	163	9
2023-08-31T00:00	33051	8	-41.5	-80.1	168	10
2023-08-31T00:00	33069	8	-41.6	-80.1	173	10
2023-08-31T00:00	33100	8	-41.7	-80.2	177	10
2023-08-31T00:00	33125	8	-41.8	-80.3	182	10
2023-08-31T00:00	33136	8	-41.7	-80.2	186	9
2023-08-31T00:00	33168	8	-41.5	-80.1	189	9
2023-08-31T00:00	33205	8	-41.6	-80.1	192	8
2023-08-31T00:00	33233	8	-40.9	-79.7	194	7
2023-08-31T00:00	33264	8	-40.3	-79.2	198	6
2023-08-31T00:00	33290	8	-40.0	-79.0	198	6
2023-08-31T00:00	33333	8	-39.8	-78.9	198	5
2023-08-31T00:00	33345	8	-39.7	-78.8	198	5
2023-08-31T00:00	33367	8	-39.6	-78.8	198	5
2023-08-31T00:00	33409	8	-39.5	-78.7	199	5
2023-08-31T00:00	33425	8	-39.5	-78.7	200	5
2023-08-31T00:00	33444	8	-39.5	-78.7	201	5
2023-08-31T00:00	33462	8	-39.5	-78.7	202	5
2023-08-31T00:00	33495	8	-39.4	-78.6	203	5
2023-08-31T00:00	33513	8	-39.2	-78.5	205	5
2023-08-31T00:00	33540	8	-39.2	-78.5	207	4
2023-08-31T00:00	33554	8	-39.1	-78.4	212	4
2023-08-31T00:00	33577	8	-39.1	-78.4	219	3
2023-08-31T00:00	33606	7	-39.0	-78.3	227	3
2023-08-31T00:00	33626	7	-38.9	-78.3	233	4
2023-08-31T00:00	33638	7	-38.7	-78.1	238	4
2023-08-31T00:00	33654	7	-38.6	-78.1	243	4
2023-08-31T00:00	33690	7	-38.6	-78.1	248	4
2023-08-31T00:00	33721	7	-38.5	-78.0	255	4
2023-08-31T00:00	33742	7	-38.6	-78.1	264	3
2023-08-31T00:00	33763	7	-38.3	-77.9	293	3
2023-08-31T00:00	33797	7	-38.2	-77.8	309	3
2023-08-31T00:00	33822	7	-38.2	-77.8	324	4
2023-08-31T00:00	33832	7	-37.9	-77.6	335	4
2023-08-31T00:00	33843	7	-37.8	-77.5	344	5
2023-08-31T00:00	33875	7	-37.6	-77.4	350	6
2023-08-31T00:00	33888	7	-37.5	-77.3	355	6
2023-08-31T00:00	33910	7	-37.4	-77.2	358	7
2023-08-31T00:00	33932	7	-37.0	-77.0	2	7
2023-08-31T00:00	33963	7	-36.7	-76.7	5	7
2023-08-31T00:00	33978	7	-36.7	-76.7	9	7
2023-08-31T00:00	33981	7	-36.5	-76.6	13	7
2023-08-31T00:00	34006	7	-35.8	-76.1	18	6
2023-08-31T00:00	34024	7	-35.2	-75.7	25	6
2023-08-31T00:00	34062	7	-35.3	-75.8	33	6
2023-08-31T00:00	34081	7	-35.4	-75.8	40	5
2023-08-31T00:00	34105	7	-35.4	-75.8	47	5
2023-08-31T00:00	34107	7	-35.3	-75.8	51	5
2023-08-31T00:00	34112	7	-35.2	-75.7	54	5
2023-08-31T00:00	34140	7	-34.9	-75.5	55	5
2023-08-31T00:00	34187	7	-34.9	-75.5	55	5
2023-08-31T00:00	34188	7	-34.7	-75.4	53	5
2023-08-31T00:00	34217	7	-34.7	-75.4	50	5
2023-08-31T00:00	34244	7	-34.7	-75.4	45	5
2023-08-31T00:00	34253	7	-34.6	-75.3	41	5
2023-08-31T00:00	34275	7	-34.2	-75.0	38	5
2023-08-31T00:00	34286	7	-34.0	-74.9	36	5
2023-08-31T00:00	34315	7	-34.5	-75.2	36	5
2023-08-31T00:00	34353	7	-33.7	-74.7	36	5
2023-08-31T00:00	34362	7	-33.4	-74.5	35	5
2023-08-31T00:00	34364	7	-33.3	-74.4	32	5
2023-08-31T06:00	112	994	12.4	11.8	260	3
2023-08-31T06:00	138	991	12.4	11.6	266	3
2023-08-31T06:00	163	988	12.3	11.5	261	4
2023-08-31T06:00	188	985	12.0	11.4	258	5
2023-08-31T06:00	214	982	11.9	11.4	258	6
2023-08-31T06:00	245	979	11.9	11.2	259	7
2023-08-31T06:00	273	975	11.6	11.3	261	7
2023-08-31T06:00	306	972	11.4	11.1	265	8
2023-08-31T06:00	335	968	11.4	10.7	269	9
2023-08-31T06:00	360	965	11.3	10.4	273	9
2023-08-31T06:00	388	962	11.2	9.9	276	10
2023-08-31T06:00	415	959	11.0	9.8	279	10
2023-08-31T06:00	443	956	11.0	9.4	281	10
2023-08-31T06:00	468	953	10.8	9.2	282	11
2023-08-31T06:00	492	950	10.7	9.6	283	11
2023-08-31T06:00	518	947	10.5	9.7	284	11
2023-08-31T06:00	541	944	10.3	9.8	284	10
2023-08-31T06:00	567	942	10.2	9.6	284	10
2023-08-31T06:00	591	939	10.1	9.4	285	10
2023-08-31T06:00	618	936	10.0	9.1	285	10
2023-08-31T06:00	645	933	9.9	8.1	285	9
2023-08-31T06:00	668	930	9.9	7.1	285	9
2023-08-31T06:00	699	927	9.8	6.3	285	9
2023-08-31T06:00	726	924	9.8	6.3	284	9
2023-08-31T06:00	746	921	9.8	6.5	282	9
2023-08-31T06:00	770	919	9.6	6.3	280	9
2023-08-31T06:00	797	916	9.6	5.8	278	9
2023-08-31T06:00	823	913	9.6	5.0	276	9
2023-08-31T06:00	847	910	9.5	5.0	273	10
2023-08-31T06:00	872	908	9.3	5.4	271	10
2023-08-31T06:00	894	905	9.1	5.4	268	10
2023-08-31T06:00	923	902	8.9	5.2	264	10
2023-08-31T06:00	948	899	8.8	5.0	261	10
2023-08-31T06:00	973	896	8.7	5.1	259	10
2023-08-31T06:00	1002	893	8.4	5.3	257	11
2023-08-31T06:00	1032	890	8.2	5.6	255	11
2023-08-31T06:00	1060	887	8.3	5.7	253	11
2023-08-31T06:00	1086	885	8.1	5.5	252	11
2023-08-31T06:00	1112	882	7.9	5.0	251	10
2023-08-31T06:00	1137	879	7.9	4.1	250	10
2023-08-31T06:00	1166	876	7.7	3.8	249	10
2023-08-31T06:00	1192	873	7.5	3.9	249	10
2023-08-31T06:00	1219	870	7.3	4.1	248	10
2023-08-31T06:00	1247	867	7.1	4.2	247	9
2023-08-31T06:00	1275	865	6.8	4.2	245	9
2023-08-31T06:00	1302	862	6.8	3.3	242	9
2023-08-31T06:00	1330	859	6.6	3.5	240	10
2023-08-31T06:00	1359	856	6.4	3.6	239	10
2023-08-31T06:00	1386	853	6.2	4.5	237	10
2023-08-31T06:00	1413	850	6.0	4.4	236	11
2023-08-31T06:00	1444	847	5.7	4.3	234	11
2023-08-31T06:00	1474	844	5.5	4.0	232	11
2023-08-31T06:00	1503	841	5.5	3.6	231	11
2023-08-31T06:00	1533	838	5.6	2.9	229	11
2023-08-31T06:00	1560	835	5.6	2.6	228	11
2023-08-31T06:00	1587	832	5.4	2.6	228	11
2023-08-31T06:00	1617	829	5.1	2.5	227	10
2023-08-31T06:00	1645	826	4.8	2.4	227	10
2023-08-31T06:00	1673	823	4.6	2.3	227	10
2023-08-31T06:00	1701	821	4.3	2.2	228	10
2023-08-31T06:00	1730	818	4.1	2.1	229	10
2023-08-31T06:00	1758	815	3.9	2.0	230	10
2023-08-31T06:00	1789	812	3.6	1.8	231	10
2023-08-31T06:00	1816	809	3.3	1.7	232	10
2023-08-31T06:00	1849	806	3.0	1.6	232	10
2023-08-31T06:00	1877	803	2.8	1.4	233	10
2023-08-31T06:00	1909	800	2.6	1.3	233	10
2023-08-31T06:00	1941	797	2.3	1.3	234	10
2023-08-31T06:00	1977	793	2.0	1.2	234	10
2023-08-31T06:00	2006	790	1.7	1.2	235	10
2023-08-31T06:00	2035	787	1.5	1.0	235	10
2023-08-31T06:00	2064	785	1.2	0.9	235	10
2023-08-31T06:00	2092	782	1.0	0.8	235	10
2023-08-31T06:00	2121	779	0.8	0.7	234	10
2023-08-31T06:00	2149	776	0.5	0.5	234	10
2023-08-31T06:00	2179	774	0.3	0.3	233	10
2023-08-31T06:00	2207	771	0.3	0.3	233	10
2023-08-31T06:00	2237	768	0.2	0.2	232	10
2023-08-31T06:00	2265	765	0.1	0.1	232	10
2023-08-31T06:00	2293	763	-0.1	-0.1	232	10
2023-08-31T06:00	2321	760	-0.3	-0.3	231	10
2023-08-31T06:00	2348	757	-0.5	-0.5	231	10
2023-08-31T06:00	2377	755	-0.8	-0.8	229	10
2023-08-31T06:00	2405	752	-1.0	-1.0	228	10
2023-08-31T06:00	2432	750	-1.1	-1.2	226	10
2023-08-31T06:00	2461	747	-0.6	-1.6	225	10
2023-08-31T06:00	2490	744	-0.8	-2.1	224	10
2023-08-31T06:00	2521	741	-0.9	-2.6	223	10
2023-08-31T06:00	2549	739	-1.0	-2.9	223	10
2023-08-31T06:00	2577	736	-1.3	-3.0	223	10
2023-08-31T06:00	2607	733	-1.5	-3.2	223	10
2023-08-31T06:00	2637	731	-1.7	-3.7	224	10
2023-08-31T06:00	2666	728	-1.9	-3.9	224	10
2023-08-31T06:00	2695	725	-2.1	-4.3	224	10
2023-08-31T06:00	2720	723	-2.3	-4.4	223	10
2023-08-31T06:00	2749	720	-2.6	-4.4	223	9
2023-08-31T06:00	2776	718	-2.8	-4.5	221	9
2023-08-31T06:00	2805	715	-3.0	-4.6	219	9
2023-08-31T06:00	2835	712	-3.2	-4.5	218	9
2023-08-31T06:00	2866	710	-3.6	-4.7	216	9
2023-08-31T06:00	2894	707	-3.8	-4.7	215	10
2023-08-31T06:00	2924	705	-4.0	-5.2	214	10
2023-08-31T06:00	2952	702	-4.2	-5.2	213	10
2023-08-31T06:00	2981	699	-4.5	-5.6	212	9
2023-08-31T06:00	3010	697	-4.8	-5.6	211	9
2023-08-31T06:00	3042	694	-5.1	-5.7	209	9
2023-08-31T06:00	3073	691	-5.4	-5.7	207	9
2023-08-31T06:00	3107	688	-5.7	-6.0	203	9
2023-08-31T06:00	3142	685	-5.9	-6.1	199	9
2023-08-31T06:00	3177	682	-6.0	-6.3	195	9
2023-08-31T06:00	3206	680	-6.0	-6.1	192	10
2023-08-31T06:00	3237	677	-6.0	-6.6	191	10
2023-08-31T06:00	3266	675	-6.2	-6.9	191	10
2023-08-31T06:00	3296	672	-6.4	-7.8	191	10
2023-08-31T06:00	3326	669	-6.6	-7.8	193	10
2023-08-31T06:00	3357	667	-6.9	-8.1	194	10
2023-08-31T06:00	3387	664	-7.0	-9.0	195	9
2023-08-31T06:00	3416	662	-6.8	-8.1	197	9
2023-08-31T06:00	3446	659	-7.0	-7.8	199	9
2023-08-31T06:00	3476	657	-7.2	-8.1	201	10
2023-08-31T06:00	3505	654	-7.4	-8.2	202	10
2023-08-31T06:00	3534	652	-7.5	-8.8	203	10
2023-08-31T06:00	3565	649	-7.7	-9.3	204	11
2023-08-31T06:00	3596	647	-7.9	-9.1	205	11
2023-08-31T06:00	3626	644	-7.9	-9.3	206	11
2023-08-31T06:00	3655	642	-7.9	-9.7	207	11
2023-08-31T06:00	3685	639	-8.0	-10.8	207	11
2023-08-31T06:00	3714	637	-7.8	-15.5	208	11
2023-08-31T06:00	3748	634	-7.9	-16.2	208	10
2023-08-31T06:00	3775	632	-8.1	-16.5	209	10
2023-08-31T06:00	3805	629	-8.2	-17.3	209	10
2023-08-31T06:00	3837	627	-8.5	-18.8	210	10
2023-08-31T06:00	3868	625	-8.8		210	10
2023-08-31T06:00	3895	622	-9.0	-20.3	210	10
2023-08-31T06:00	3923	620	-9.3	-20.9	210	10
2023-08-31T06:00	3952	618	-9.4	-17.9	210	10
2023-08-31T06:00	3982	615	-9.7	-14.6	210	10
2023-08-31T06:00	4010	613	-9.9	-14.3	209	10
2023-08-31T06:00	4040	611	-10.1	-14.8	209	10
2023-08-31T06:00	4070	608	-10.4	-15.1	207	10
2023-08-31T06:00	4100	606	-10.6	-15.1	206	11
2023-08-31T06:00	4129	604	-10.8	-14.8	204	11
2023-08-31T06:00	4160	601	-11.0	-14.7	202	11
2023-08-31T06:00	4189	599	-11.2	-15.2	201	12
2023-08-31T06:00	4219	597	-11.4	-16.3	200	12
2023-08-31T06:00	4245	594	-11.6	-17.3	200	12
2023-08-31T06:00	4275	592	-11.8	-18.3	200	12
2023-08-31T06:00	4306	590	-12.0	-17.0	201	13
2023-08-31T06:00	4334	588	-12.3	-16.0	202	13
2023-08-31T06:00	4366	585	-12.6	-15.9	203	13
2023-08-31T06:00	4396	583	-12.9	-15.9	204	13
2023-08-31T06:00	4428	581	-13.1	-16.3	205	14
2023-08-31T06:00	4458	578	-13.4	-16.7	205	14
2023-08-31T06:00	4489	576	-13.6	-16.8	205	14
2023-08-31T06:00	4520	573	-13.8	-16.6	205	14
2023-08-31T06:00	4550	571	-14.0	-16.3	204	14
2023-08-31T06:00	4581	569	-14.2	-16.2	204	14
2023-08-31T06:00	4613	567	-14.4	-16.0	203	14
2023-08-31T06:00	4641	564	-14.5	-17.2	203	14
2023-08-31T06:00	4670	562	-14.7	-18.1	203	14
2023-08-31T06:00	4700	560	-15.0	-18.7	203	14
2023-08-31T06:00	4731	558	-15.2	-18.8	204	13
2023-08-31T06:00	4760	556	-15.3	-18.9	205	13
2023-08-31T06:00	4790	553	-15.4	-21.5	205	13
2023-08-31T06:00	4821	551	-15.3	-24.4	206	13
2023-08-31T06:00	4853	549	-15.6	-24.8	206	13
2023-08-31T06:00	4884	547	-15.8	-26.0	206	14
2023-08-31T06:00	4914	544	-15.9	-31.8	206	14
2023-08-31T06:00	4949	542	-16.1	-32.9	206	14
2023-08-31T06:00	4980	540	-16.3	-33.9	207	14
2023-08-31T06:00	5011	537	-16.6	-35.1	207	15
2023-08-31T06:00	5046	535	-16.9	-35.3	208	15
2023-08-31T06:00	5078	533	-17.2	-35.2	209	15
2023-08-31T06:00	5107	531	-17.5	-35.4	210	16
2023-08-31T06:00	5138	528	-17.8	-35.4	210	16
2023-08-31T06:00	5168	526	-17.8	-36.4	210	16
2023-08-31T06:00	5199	524	-18.1	-36.3	209	17
2023-08-31T06:00	5228	522	-18.4	-36.2	208	17
2023-08-31T06:00	5261	520	-18.8	-36.4	208	17
2023-08-31T06:00	5293	518	-19.1	-36.6	207	17
2023-08-31T06:00	5321	516	-19.3	-36.5	207	18
2023-08-31T06:00	5349	514	-19.6	-36.2	207	18
2023-08-31T06:00	5379	512	-19.8	-36.2	207	18
2023-08-31T06:00	5406	510	-20.0	-38.1	207	19
2023-08-31T06:00	5435	508	-20.2	-37.2	207	19
2023-08-31T06:00	5462	506	-20.5	-37.1	206	18
2023-08-31T06:00	5488	504	-20.7	-35.5	206	18
2023-08-31T06:00	5512	502	-20.9	-34.7	205	18
2023-08-31T06:00	5543	500	-21.1	-25.7	205	18
2023-08-31T06:00	5572	498	-21.1	-28.4	203	18
2023-08-31T06:00	5601	496	-21.2	-31.0	202	17
2023-08-31T06:00	5629	495	-21.4	-30.4	200	17
2023-08-31T06:00	5660	493	-21.3	-29.8	198	17
2023-08-31T06:00	5688	491	-21.6	-29.8	197	17
2023-08-31T06:00	5718	489	-21.9	-29.8	195	18
2023-08-31T06:00	5750	487	-22.2	-29.4	193	18
2023-08-31T06:00	5778	485	-22.4	-29.5	192	18
2023-08-31T06:00	5808	483	-22.6	-29.1	191	18
2023-08-31T06:00	5837	481	-22.8	-28.8	190	17
2023-08-31T06:00	5870	479	-23.1	-28.5	189	17
2023-08-31T06:00	5900	477	-23.4	-28.4	188	17
2023-08-31T06:00	5926	475	-23.6	-27.9	188	18
2023-08-31T06:00	5957	473	-23.8	-27.5	187	18
2023-08-31T06:00	5986	471	-24.1	-27.7	187	18
2023-08-31T06:00	6017	469	-24.4	-27.6	187	18
2023-08-31T06:00	6045	467	-24.6	-27.4	187	19
2023-08-31T06:00	6075	465	-24.9	-27.4	186	19
2023-08-31T06:00	6107	463	-25.2	-27.4	185	19
2023-08-31T06:00	6135	462	-25.5	-27.5	184	19
2023-08-31T06:00	6165	460	-25.8	-27.5	184	19
2023-08-31T06:00	6196	458	-26.0	-27.4	183	19
2023-08-31T06:00	6231	455	-26.3	-27.4	182	19
2023-08-31T06:00	6262	453	-26.4	-27.6	182	20
2023-08-31T06:00	6296	451	-26.7	-27.7	182	20
2023-08-31T06:00	6323	450	-26.9	-27.8	182	20
2023-08-31T06:00	6356	448	-27.1	-27.8	183	20
2023-08-31T06:00	6385	446	-27.4	-28.0	184	20
2023-08-31T06:00	6418	444	-27.7	-28.2	184	21
2023-08-31T06:00	6448	442	-28.0	-28.3	185	21
2023-08-31T06:00	6480	440	-28.2	-28.3	185	21
2023-08-31T06:00	6510	438	-28.5	-28.6	185	21
2023-08-31T06:00	6541	436	-28.7	-28.7	185	21
2023-08-31T06:00	6575	434	-29.0	-29.1	185	21
2023-08-31T06:00	6605	432	-29.3	-29.5	185	21
2023-08-31T06:00	6636	430	-29.6	-30.0	185	21
2023-08-31T06:00	6667	429	-29.9	-30.5	185	21
2023-08-31T06:00	6698	427	-30.2	-30.6	184	21
2023-08-31T06:00	6725	425	-30.4	-31.5	183	21
2023-08-31T06:00	6755	423	-30.6	-30.8	182	22
2023-08-31T06:00	6784	422	-30.9	-31.1	182	22
2023-08-31T06:00	6815	420	-31.1	-31.4	181	22
2023-08-31T06:00	6845	418	-31.4	-31.7	181	22
2023-08-31T06:00	6872	416	-31.7	-31.9	181	21
2023-08-31T06:00	6899	415	-32.0	-32.2	181	20
2023-08-31T06:00	6931	413	-32.1	-33.8	180	20
2023-08-31T06:00	6960	411	-32.2	-34.3	180	20
2023-08-31T06:00	6988	410	-32.2	-35.4	179	20
2023-08-31T06:00	7016	408	-32.4	-35.7	179	20
2023-08-31T06:00	7046	406	-32.5	-36.7	179	21
2023-08-31T06:00	7075	405	-32.5	-37.8	178	21
2023-08-31T06:00	7106	403	-32.6	-38.7	178	22
2023-08-31T06:00	7131	401	-32.7	-39.3	178	23
2023-08-31T06:00	7164	400	-32.9	-39.5	177	24
2023-08-31T06:00	7195	398	-33.1	-40.0	176	24
2023-08-31T06:00	7224	396	-33.2	-41.4	175	25
2023-08-31T06:00	7253	394	-33.4	-41.7	174	25
2023-08-31T06:00	7284	393	-33.6	-41.5	173	25
2023-08-31T06:00	7317	391	-33.8	-41.3	172	25
2023-08-31T06:00	7349	389	-34.1	-41.2	172	25
2023-08-31T06:00	7378	387	-34.3	-41.4	172	25
2023-08-31T06:00	7413	386	-34.5	-41.8	172	25
2023-08-31T06:00	7444	384	-34.8	-42.2	171	25
2023-08-31T06:00	7477	382	-35.1	-42.6	171	25
2023-08-31T06:00	7510	380	-35.5	-42.5	172	26
2023-08-31T06:00	7543	378	-35.8	-42.9	172	26
2023-08-31T06:00	7576	377	-36.1		172	26
2023-08-31T06:00	7608	375	-36.4	-43.0	172	26
2023-08-31T06:00	7637	373	-36.8	-43.2	172	26
2023-08-31T06:00	7669	372	-37.1	-43.2	172	26
2023-08-31T06:00	7699	370	-37.3	-43.1	172	26
2023-08-31T06:00	7727	369	-37.5	-43.5	173	26
2023-08-31T06:00	7752	367	-37.7	-43.9	173	27
2023-08-31T06:00	7784	365	-38.0	-43.9	173	27
2023-08-31T06:00	7820	364	-38.3	-43.7	173	27
2023-08-31T06:00	7850	362	-38.6	-43.9	173	27
2023-08-31T06:00	7883	360	-38.8	-43.8	173	27
2023-08-31T06:00	7912	359	-39.0	-44.8	173	27
2023-08-31T06:00	7937	357	-39.1	-45.2	172	28
2023-08-31T06:00	7963	356	-39.2	-46.0	172	28
2023-08-31T06:00	7990	355	-39.3	-45.8	172	29
2023-08-31T06:00	8023	353	-39.5	-45.9	172	29
2023-08-31T06:00	8053	351	-39.7	-45.8	171	29
2023-08-31T06:00	8083	350	-39.8	-46.9	171	30
2023-08-31T06:00	8111	349	-39.9	-48.1	170	30
2023-08-31T06:00	8135	347	-40.0	-47.8	170	30
2023-08-31T06:00	8159	346	-40.2	-48.2	170	30
2023-08-31T06:00	8186	345	-40.3	-49.5	170	30
2023-08-31T06:00	8210	344	-40.3	-50.0	170	30
2023-08-31T06:00	8232	342	-40.4	-50.8	170	30
2023-08-31T06:00	8260	341	-40.7	-51.1	170	30
2023-08-31T06:00	8287	340	-40.9	-51.0	169	30
2023-08-31T06:00	8313	338	-41.1	-51.0	169	31
2023-08-31T06:00	8335	337	-41.3	-51.0	169	31
2023-08-31T06:00	8365	336	-41.6		168	31
2023-08-31T06:00	8394	334	-41.7	-51.7	168	32
2023-08-31T06:00	8426	333	-41.9	-52.5	168	32
2023-08-31T06:00	8453	331	-42.0	-52.8	167	31
2023-08-31T06:00	8477	330	-42.2	-52.8	167	31
2023-08-31T06:00	8514	329	-42.5	-52.9	166	30
2023-08-31T06:00	8537	327	-42.7	-53.2	165	30
2023-08-31T06:00	8563	326	-42.9	-53.2	164	30
2023-08-31T06:00	8592	325	-43.1	-53.1	164	29
2023-08-31T06:00	8620	323	-43.3	-53.4	163	29
2023-08-31T06:00	8648	322	-43.4	-53.9	164	29
2023-08-31T06:00	8672	321	-43.6	-54.1	164	30
2023-08-31T06:00	8700	319	-43.8	-54.3	165	30
2023-08-31T06:00	8729	318	-43.9	-55.0	166	30
2023-08-31T06:00	8757	317	-43.8	-56.1	166	31
2023-08-31T06:00	8790	315	-43.7	-56.5	166	31
2023-08-31T06:00	8816	314	-43.7	-57.0	166	31
2023-08-31T06:00	8851	312	-43.7	-58.0	165	31
2023-08-31T06:00	8876	311	-43.6	-58.5	165	31
2023-08-31T06:00	8900	310	-43.8	-58.2	164	31
2023-08-31T06:00	8924	309	-43.9	-58.1	165	31
2023-08-31T06:00	8949	308	-44.2	-58.2	165	31
2023-08-31T06:00	8974	307	-44.3	-58.5	165	31
2023-08-31T06:00	8998	306	-44.1	-59.3	166	31
2023-08-31T06:00	9025	304	-43.8	-60.2	166	30
2023-08-31T06:00	9050	303	-43.7	-60.8	166	30
2023-08-31T06:00	9074	302	-43.7	-61.2	166	29
2023-08-31T06:00	9095	301	-43.8	-61.5	167	29
2023-08-31T06:00	9121	300	-43.7	-61.8	167	28
2023-08-31T06:00	9144	299	-43.6	-62.0	168	28
2023-08-31T06:00	9168	298	-43.7	-62.3	168	28
2023-08-31T06:00	9193	297	-43.4	-62.3	169	27
2023-08-31T06:00	9215	296	-43.3	-62.5	170	27
2023-08-31T06:00	9239	295	-43.1	-63.0	170	27
2023-08-31T06:00	9268	294	-43.3	-63.4	170	26
2023-08-31T06:00	9292	292	-43.4	-63.7	171	26
2023-08-31T06:00	9317	291	-43.5	-64.0	171	25
2023-08-31T06:00	9340	290	-43.6	-64.2	171	25
2023-08-31T06:00	9365	289	-43.6	-64.5	171	25
2023-08-31T06:00	9387	288	-43.7	-65.2	171	24
2023-08-31T06:00	9414	287	-43.7	-65.6	172	24
2023-08-31T06:00	9439	286	-43.5	-65.5	172	23
2023-08-31T06:00	9464	285	-43.4	-65.6	172	23
2023-08-31T06:00	9488	284	-43.5	-66.6	172	23
2023-08-31T06:00	9513	283	-43.4	-67.0	172	22
2023-08-31T06:00	9538	282	-43.4	-66.4	172	23
2023-08-31T06:00	9560	281	-43.6	-66.2	172	23
2023-08-31T06:00	9584	280	-43.7	-66.0	172	23
2023-08-31T06:00	9611	279	-44.0	-66.1	172	23
2023-08-31T06:00	9637	278	-44.2	-66.2	173	22
2023-08-31T06:00	9663	277	-44.1	-65.8	175	22
2023-08-31T06:00	9689	276	-43.8	-65.8	176	22
2023-08-31T06:00	9715	275	-43.7	-66.1	178	22
2023-08-31T06:00	9739	274	-43.7	-66.5	180	22
2023-08-31T06:00	9765	273	-43.7	-66.8	181	22
2023-08-31T06:00	9788	272	-43.6	-67.0	183	22
2023-08-31T06:00	9818	270	-43.7	-67.4	184	21
2023-08-31T06:00	9850	269	-43.4	-67.7	185	21
2023-08-31T06:00	9881	268	-43.2	-68.3	186	21
2023-08-31T06:00	9914	267	-43.3	-68.5	187	21
2023-08-31T06:00	9952	265	-43.3	-68.9	187	20
2023-08-31T06:00	9978	264	-42.9	-69.4	187	20
2023-08-31T06:00	10002	263	-42.9	-69.6	186	19
2023-08-31T06:00	10028	262	-43.1	-69.6	185	19
2023-08-31T06:00	10053	261	-43.2	-69.9	183	18
2023-08-31T06:00	10078	260	-43.4	-70.0	183	18
2023-08-31T06:00	10104	259	-43.6	-70.0	184	18
2023-08-31T06:00	10132	258	-43.7	-70.0	186	18
2023-08-31T06:00	10155	257	-43.7	-70.5	189	18
2023-08-31T06:00	10178	256	-43.5	-71.3	193	17
2023-08-31T06:00	10198	256	-42.9	-72.0	196	17
2023-08-31T06:00	10219	255	-42.4	-72.3	197	17
2023-08-31T06:00	10240	254	-42.4	-72.6	198	17
2023-08-31T06:00	10261	253	-42.4	-72.6	198	17
2023-08-31T06:00	10282	252	-42.5	-72.7	198	17
2023-08-31T06:00	10306	252	-42.5	-73.1	196	17
2023-08-31T06:00	10333	251	-42.2	-73.3	194	17
2023-08-31T06:00	10360	250	-42.2	-73.7	193	17
2023-08-31T06:00	10385	249	-42.2	-73.7	191	17
2023-08-31T06:00	10405	248	-42.3	-74.2	191	17
2023-08-31T06:00	10425	247	-42.4	-74.3	191	17
2023-08-31T06:00	10447	246	-42.3	-74.2	191	17
2023-08-31T06:00	10469	246	-41.9	-73.9	192	17
2023-08-31T06:00	10494	245	-41.6	-74.2	191	16
2023-08-31T06:00	10518	244	-41.3	-73.9	190	16
2023-08-31T06:00	10544	243	-41.5	-73.6	188	16
2023-08-31T06:00	10568	242	-41.7	-73.8	186	17
2023-08-31T06:00	10591	241	-41.8	-73.4	184	17
2023-08-31T06:00	10614	240	-41.6	-73.2	183	17
2023-08-31T06:00	10639	239	-41.6	-73.2	184	18
2023-08-31T06:00	10670	238	-41.8	-73.4	185	18
2023-08-31T06:00	10697	237	-41.9	-73.5	187	19
2023-08-31T06:00	10724	237	-42.0	-73.5	189	19
2023-08-31T06:00	10749	236	-41.9	-73.9	191	19
2023-08-31T06:00	10772	235	-41.5	-74.1	192	19
2023-08-31T06:00	10799	234	-41.4	-74.0	194	19
2023-08-31T06:00	10822	233	-41.5	-74.1	195	19
2023-08-31T06:00	10849	232	-41.5	-74.1	196	18
2023-08-31T06:00	10873	231	-41.5	-74.6	197	18
2023-08-31T06:00	10898	231	-41.3	-74.5	197	18
2023-08-31T06:00	10924	230	-41.1	-74.3	198	18
2023-08-31T06:00	10950	229	-41.0	-74.8	197	18
2023-08-31T06:00	10975	228	-40.6	-74.5	197	18
2023-08-31T06:00	11002	227	-40.8	-74.7	196	18
2023-08-31T06:00	11025	226	-40.9	-74.7	196	18
2023-08-31T06:00	11047	225	-40.8	-74.7	196	18
2023-08-31T06:00	11070	225	-40.8	-74.7	196	17
2023-08-31T06:00	11095	224	-40.7	-75.2	196	17
2023-08-31T06:00	11116	223	-40.8	-75.3	197	16
2023-08-31T06:00	11140	222	-40.7	-75.2	198	16
2023-08-31T06:00	11162	222	-40.8	-75.3	200	16
2023-08-31T06:00	11183	221	-40.9	-75.3	201	16
2023-08-31T06:00	11203	220	-41.0	-75.4	202	16
2023-08-31T06:00	11227	220	-41.1	-75.5	202	16
2023-08-31T06:00	11250	219	-41.2	-75.6	202	16
2023-08-31T06:00	11271	218	-41.1	-75.5	201	16
2023-08-31T06:00	11294	217	-41.3	-75.6	201	16
2023-08-31T06:00	11318	217	-41.4	-75.7	201	16
2023-08-31T06:00	11340	216	-41.6	-75.8	202	16
2023-08-31T06:00	11363	215	-41.7	-75.9	202	16
2023-08-31T06:00	11382	215	-41.9	-75.5	203	16
2023-08-31T06:00	11404	214	-42.0	-75.5	203	16
2023-08-31T06:00	11430	213	-42.2	-75.7	202	16
2023-08-31T06:00	11455	212	-42.1	-76.2	201	16
2023-08-31T06:00	11480	212	-41.7	-75.9	200	15
2023-08-31T06:00	11503	211	-41.7	-75.9	199	15
2023-08-31T06:00	11529	210	-41.8	-76.0	198	15
2023-08-31T06:00	11551	209	-41.8	-76.0	197	16
2023-08-31T06:00	11574	209	-41.9	-76.1	196	16
2023-08-31T06:00	11595	208	-42.0	-76.1	196	16
2023-08-31T06:00	11618	207	-42.2	-76.3	195	16
2023-08-31T06:00	11643	207	-42.4	-76.4	195	16
2023-08-31T06:00	11668	206	-42.6	-76.6	195	16
2023-08-31T06:00	11691	205	-42.5	-77.2	196	16
2023-08-31T06:00	11714	204	-42.2	-76.9	197	16
2023-08-31T06:00	11739	204	-42.1	-76.9	198	16
2023-08-31T06:00	11762	203	-42.1	-76.9	199	16
2023-08-31T06:00	11784	202	-42.1	-76.9	199	16
2023-08-31T06:00	11803	202	-41.8	-76.7	199	15
2023-08-31T06:00	11826	201	-41.8	-76.7	198	15
2023-08-31T06:00	11853	200	-41.7	-77.3	196	15
2023-08-31T06:00	11874	200	-41.2	-77.0	194	15
2023-08-31T06:00	11896	199	-41.1	-76.9	191	14
2023-08-31T06:00	11923	198	-41.3	-77.0	189	14
2023-08-31T06:00	11960	197	-41.5	-77.2	187	15
2023-08-31T06:00	11986	196	-41.7	-77.3	185	15
2023-08-31T06:00	12017	196	-42.0	-76.8	184	15
2023-08-31T06:00	12043	195	-42.3	-77.0	183	16
2023-08-31T06:00	12070	194	-42.5	-77.2	182	16
2023-08-31T06:00	12093	193	-42.7	-77.3	182	17
2023-08-31T06:00	12118	193	-42.9	-77.5	182	17
2023-08-31T06:00	12142	192	-43.0	-77.5	181	17
2023-08-31T06:00	12164	191	-43.2	-77.7	181	17
2023-08-31T06:00	12187	191	-43.4	-77.8	181	18
2023-08-31T06:00	12211	190	-43.6	-77.3	181	18
2023-08-31T06:00	12232	189	-43.8	-77.4	181	19
2023-08-31T06:00	12252	189	-44.0	-77.6	182	19
2023-08-31T06:00	12277	188	-44.2	-77.7	183	20
2023-08-31T06:00	12296	188	-44.3	-77.8	184	20
2023-08-31T06:00	12317	187	-44.4	-77.9	185	20
2023-08-31T06:00	12337	186	-44.2	-78.4	187	20
2023-08-31T06:00	12359	186	-44.1	-78.3	188	20
2023-08-31T06:00	12380	185	-43.9	-78.2	189	20
2023-08-31T06:00	12402	185	-43.6	-78.0	190	20
2023-08-31T06:00	12422	184	-43.6	-78.0	191	20
2023-08-31T06:00	12443	183	-43.8	-78.1	192	20
2023-08-31T06:00	12464	183	-43.9	-78.2	192	20
2023-08-31T06:00	12483	182	-44.0	-78.2	192	20
2023-08-31T06:00	12505	182	-44.0	-78.2	192	19
2023-08-31T06:00	12525	181	-43.9	-78.2	192	19
2023-08-31T06:00	12548	181	-43.8	-78.1	193	18
2023-08-31T06:00	12568	180	-43.9	-78.2	194	17
2023-08-31T06:00	12593	179	-44.0	-78.2	194	17
2023-08-31T06:00	12615	179	-43.9	-78.2	195	16
2023-08-31T06:00	12637	178	-43.7	-78.0	196	16
2023-08-31T06:00	12660	178	-43.7	-78.0	197	15
2023-08-31T06:00	12684	177	-43.7	-78.0	198	15
2023-08-31T06:00	12705	176	-43.7	-78.0	199	14
2023-08-31T06:00	12727	176	-43.8	-78.1	199	14
2023-08-31T06:00	12750	175	-43.8	-78.1	198	14
2023-08-31T06:00	12772	175	-43.9	-78.2	197	14
2023-08-31T06:00	12795	174	-44.0	-78.2	195	14
2023-08-31T06:00	12819	173	-44.1	-78.3	193	14
2023-08-31T06:00	12845	173	-44.1	-78.3	191	14
2023-08-31T06:00	12872	172	-44.1	-78.3	190	14
2023-08-31T06:00	12897	171	-44.2	-78.4	188	14
2023-08-31T06:00	12924	171	-44.4	-78.5	187	15
2023-08-31T06:00	12947	170	-44.6	-78.7	186	15
2023-08-31T06:00	12970	170	-44.8	-78.2	186	15
2023-08-31T06:00	12992	169	-45.0	-78.3	186	16
2023-08-31T06:00	13015	168	-45.2	-78.5	186	16
2023-08-31T06:00	13038	168	-45.4	-78.6	187	16
2023-08-31T06:00	13061	167	-45.6	-78.8	187	16
2023-08-31T06:00	13081	167	-45.8	-78.9	188	17
2023-08-31T06:00	13105	166	-45.9	-79.0	189	17
2023-08-31T06:00	13127	166	-46.0	-79.1	190	17
2023-08-31T06:00	13148	165	-46.2	-79.2	191	18
2023-08-31T06:00	13171	165	-46.4	-79.3	192	18
2023-08-31T06:00	13191	164	-46.2	-79.2	194	18
2023-08-31T06:00	13215	163	-46.1	-79.1	195	18
2023-08-31T06:00	13236	163	-46.2	-79.2	195	18
2023-08-31T06:00	13259	162	-46.1	-79.1	196	17
2023-08-31T06:00	13280	162	-46.2	-79.2	195	17
2023-08-31T06:00	13302	161	-46.1	-79.1	195	16
2023-08-31T06:00	13324	161	-46.1	-79.1	195	16
2023-08-31T06:00	13344	160	-46.1	-79.1	194	16
2023-08-31T06:00	13368	160	-46.1	-79.1	194	15
2023-08-31T06:00	13392	159	-46.1	-79.1	195	15
2023-08-31T06:00	13410	159	-46.2	-79.2	195	15
2023-08-31T06:00	13434	158	-46.3	-79.3	196	15
2023-08-31T06:00	13459	158	-46.5	-79.4	196	15
2023-08-31T06:00	13484	157	-46.5	-79.4	196	15
2023-08-31T06:00	13507	156	-46.4	-79.3	195	15
2023-08-31T06:00	13530	156	-46.5	-78.8	195	15
2023-08-31T06:00	13552	155	-46.6	-78.9	195	15
2023-08-31T06:00	13575	155	-46.6	-78.9	194	16
2023-08-31T06:00	13599	154	-46.7	-79.0	194	16
2023-08-31T06:00	13621	154	-46.7	-79.0	195	16
2023-08-31T06:00	13645	153	-46.8	-79.1	195	16
2023-08-31T06:00	13668	153	-47.0	-78.7	196	16
2023-08-31T06:00	13693	152	-47.1	-78.7	197	17
2023-08-31T06:00	13714	152	-47.0	-78.7	198	17
2023-08-31T06:00	13741	151	-47.0	-78.7	198	17
2023-08-31T06:00	13763	151	-47.1	-78.7	198	17
2023-08-31T06:00	13787	150	-47.0	-78.7	197	17
2023-08-31T06:00	13810	149	-46.9	-79.1	197	17
2023-08-31T06:00	13836	149	-46.9	-79.1	196	17
2023-08-31T06:00	13860	148	-46.9	-79.1	196	17
2023-08-31T06:00	13883	148	-46.9	-79.1	196	16
2023-08-31T06:00	13906	147	-47.0	-79.2	196	16
2023-08-31T06:00	13930	147	-47.2	-79.4	196	16
2023-08-31T06:00	13955	146	-47.4	-79.5	196	15
2023-08-31T06:00	13978	146	-47.5	-79.6	196	15
2023-08-31T06:00	13997	145	-47.6	-79.1	196	15
2023-08-31T06:00	14023	145	-47.6	-79.1	196	14
2023-08-31T06:00	14045	144	-47.8	-79.8	196	14
2023-08-31T06:00	14068	144	-47.9	-79.9	195	13
2023-08-31T06:00	14090	143	-47.9	-79.9	193	13
2023-08-31T06:00	14110	143	-47.8	-79.8	191	12
2023-08-31T06:00	14133	142	-47.7	-79.7	190	12
2023-08-31T06:00	14155	142	-47.5	-79.6	189	12
2023-08-31T06:00	14177	141	-47.5	-79.6	190	13
2023-08-31T06:00	14201	141	-47.6	-79.6	191	13
2023-08-31T06:00	14220	140	-47.6	-79.6	192	13
2023-08-31T06:00	14242	140	-47.7	-79.7	192	13
2023-08-31T06:00	14262	140	-47.7	-79.7	193	14
2023-08-31T06:00	14284	139	-47.8	-79.8	194	14
2023-08-31T06:00	14306	139	-47.8	-79.3	195	14
2023-08-31T06:00	14328	138	-47.9	-79.3	196	14
2023-08-31T06:00	14350	138	-48.0	-79.9	198	14
2023-08-31T06:00	14369	137	-47.9	-79.9	199	13
2023-08-31T06:00	14393	137	-47.9	-79.9	200	13
2023-08-31T06:00	14412	136	-47.9	-79.9	201	13
2023-08-31T06:00	14432	136	-47.9	-79.9	201	12
2023-08-31T06:00	14453	136	-47.8	-79.8	200	12
2023-08-31T06:00	14476	135	-47.8	-79.8	199	12
2023-08-31T06:00	14495	135	-47.9	-79.9	198	11
2023-08-31T06:00	14518	134	-47.8	-80.4	195	11
2023-08-31T06:00	14539	134	-47.7	-80.3	193	11
2023-08-31T06:00	14563	133	-47.9	-79.9	190	11
2023-08-31T06:00	14583	133	-48.0	-79.9	188	11
2023-08-31T06:00	14606	132	-48.0	-80.5	186	12
2023-08-31T06:00	14628	132	-48.2	-80.7	185	12
2023-08-31T06:00	14654	132	-48.1	-80.6	184	13
2023-08-31T06:00	14679	131	-48.0	-80.5	184	13
2023-08-31T06:00	14698	131	-48.0	-80.5	185	13
2023-08-31T06:00	14720	130	-48.2	-80.7	185	14
2023-08-31T06:00	14744	130	-48.4	-80.8	186	14
2023-08-31T06:00	14768	129	-48.6	-80.4	187	14
2023-08-31T06:00	14790	129	-48.8	-80.5	187	14
2023-08-31T06:00	14814	128	-49.0	-80.7	188	14
2023-08-31T06:00	14839	128	-49.2	-80.8	188	15
2023-08-31T06:00	14862	127	-49.4	-81.0	190	15
2023-08-31T06:00	14882	127	-49.6	-81.1	191	16
2023-08-31T06:00	14908	127	-49.7	-81.2	193	16
2023-08-31T06:00	14933	126	-49.6	-81.1	194	17
2023-08-31T06:00	14957	126	-49.3	-80.9	196	17
2023-08-31T06:00	14978	125	-49.3	-81.5	198	17
2023-08-31T06:00	15001	125	-49.2	-81.4	200	17
2023-08-31T06:00	15027	124	-49.1	-81.3	202	17
2023-08-31T06:00	15051	124	-49.2	-81.4	204	17
2023-08-31T06:00	15072	123	-49.3	-81.5	206	17
2023-08-31T06:00	15096	123	-49.4	-81.6	209	17
2023-08-31T06:00	15117	123	-49.3	-81.5	211	17
2023-08-31T06:00	15143	122	-49.3	-81.5	212	17
2023-08-31T06:00	15165	122	-49.4	-81.6	213	17
2023-08-31T06:00	15188	121	-49.4	-81.6	214	16
2023-08-31T06:00	15214	121	-49.6	-81.7	214	16
2023-08-31T06:00	15237	120	-49.7	-81.8	215	15
2023-08-31T06:00	15260	120	-49.8	-81.8	216	14
2023-08-31T06:00	15286	119	-49.8	-81.8	216	13
2023-08-31T06:00	15312	119	-49.8	-82.5	217	12
2023-08-31T06:00	15337	119	-49.8	-82.5	217	11
2023-08-31T06:00	15362	118	-49.7	-82.4	216	10
2023-08-31T06:00	15386	118	-49.7	-82.4	214	10
2023-08-31T06:00	15414	117	-49.6	-82.3	210	9
2023-08-31T06:00	15437	117	-49.6	-82.3	205	8
2023-08-31T06:00	15461	116	-49.7	-82.4	199	8
2023-08-31T06:00	15484	116	-50.1	-82.7	193	7
2023-08-31T06:00	15509	115	-50.1	-82.7	188	7
2023-08-31T06:00	15530	115	-49.8	-82.5	183	7
2023-08-31T06:00	15554	115	-49.9	-82.5	179	8
2023-08-31T06:00	15577	114	-50.1	-82.7	176	8
2023-08-31T06:00	15599	114	-50.1	-82.7	174	8
2023-08-31T06:00	15620	114	-50.1	-82.7	171	8
2023-08-31T06:00	15641	113	-49.9	-82.5	169	8
2023-08-31T06:00	15658	113	-49.9	-82.5	167	8
2023-08-31T06:00	15681	112	-50.0	-82.6	165	9
2023-08-31T06:00	15705	112	-50.0	-82.6	165	9
2023-08-31T06:00	15724	112	-49.8	-82.5	167	9
2023-08-31T06:00	15743	111	-49.7	-82.4	169	9
2023-08-31T06:00	15767	111	-49.6	-83.0	173	10
2023-08-31T06:00	15789	111	-49.3	-82.8	176	10
2023-08-31T06:00	15810	110	-49.3	-82.8	177	10
2023-08-31T06:00	15832	110	-49.3	-82.8	177	10
2023-08-31T06:00	15858	109	-49.3	-82.8	176	10
2023-08-31T06:00	15876	109	-49.5	-82.3	174	10
2023-08-31T06:00	15897	109	-49.6	-82.3	173	10
2023-08-31T06:00	15922	108	-49.8	-82.5	172	10
2023-08-31T06:00	15942	108	-49.9	-82.5	172	11
2023-08-31T06:00	15968	108	-49.9	-82.5	174	11
2023-08-31T06:00	15987	107	-49.9	-82.5	175	11
2023-08-31T06:00	16011	107	-49.9	-82.5	176	12
2023-08-31T06:00	16033	107	-49.9	-83.2	176	12
2023-08-31T06:00	16056	106	-50.0	-83.3	176	12
2023-08-31T06:00	16078	106	-50.1	-83.4	175	12
2023-08-31T06:00	16104	105	-50.0	-83.3	174	11
2023-08-31T06:00	16127	105	-49.9	-83.2	173	11
2023-08-31T06:00	16151	105	-49.7	-83.1	173	11
2023-08-31T06:00	16173	104	-49.5	-82.9	174	11
2023-08-31T06:00	16197	104	-49.5	-82.9	175	11
2023-08-31T06:00	16220	104	-49.6	-83.0	176	11
2023-08-31T06:00	16246	103	-49.7	-83.1	177	11
2023-08-31T06:00	16268	103	-49.9	-83.2	179	11
2023-08-31T06:00	16292	102	-50.1	-83.4	181	11
2023-08-31T06:00	16313	102	-50.3	-82.8	183	12
2023-08-31T06:00	16337	102	-50.5	-83.0	185	12
2023-08-31T06:00	16360	101	-50.6	-83.1	187	12
2023-08-31T06:00	16381	101	-50.8	-83.2	188	12
2023-08-31T06:00	16406	101	-50.9	-83.3	189	12
2023-08-31T06:00	16429	100	-50.9	-83.3	190	12
2023-08-31T06:00	16454	100	-51.0	-83.3	192	12
2023-08-31T06:00	16474	100	-51.0	-83.3	193	12
2023-08-31T06:00	16496	99	-51.1	-83.4	194	12
2023-08-31T06:00	16522	99	-51.2	-83.5	194	12
2023-08-31T06:00	16537	99	-51.4	-83.6	194	12
2023-08-31T06:00	16562	98	-51.5	-83.7	194	12
2023-08-31T06:00	16589	98	-51.4	-83.6	193	11
2023-08-31T06:00	16610	98	-51.3	-83.6	192	11
2023-08-31T06:00	16631	97	-51.4	-83.6	191	11
2023-08-31T06:00	16654	97	-51.5	-83.7	190	11
2023-08-31T06:00	16678	97	-51.5	-83.7	191	11
2023-08-31T06:00	16700	96	-51.4	-83.6	192	10
2023-08-31T06:00	16721	96	-51.4	-83.6	194	10
2023-08-31T06:00	16744	96	-51.3	-83.6	197	10
2023-08-31T06:00	16767	95	-51.4	-83.6	199	9
2023-08-31T06:00	16789	95	-51.4	-83.6	201	9
2023-08-31T06:00	16812	95	-51.4	-83.6	203	9
2023-08-31T06:00	16837	94	-51.4	-83.6	205	8
2023-08-31T06:00	16860	94	-51.6	-83.8	208	9
2023-08-31T06:00	16881	93	-51.7	-83.9	212	9
2023-08-31T06:00	16911	93	-51.8	-83.9	216	9
2023-08-31T06:00	16931	93	-52.0	-84.1	219	10
2023-08-31T06:00	16956	92	-52.1	-84.2	223	10
2023-08-31T06:00	16977	92	-52.1	-84.2	226	9
2023-08-31T06:00	17001	92	-51.8	-83.9	228	9
2023-08-31T06:00	17026	91	-51.5	-83.7	230	9
2023-08-31T06:00	17050	91	-51.2	-84.2	230	8
2023-08-31T06:00	17073	91	-51.2	-84.2	229	8
2023-08-31T06:00	17098	90	-51.4	-83.6	228	7
2023-08-31T06:00	17123	90	-51.5	-83.7	227	7
2023-08-31T06:00	17146	90	-51.7	-83.9	226	7
2023-08-31T06:00	17171	89	-51.8	-83.9	225	6
2023-08-31T06:00	17194	89	-51.9	-84.0	225	6
2023-08-31T06:00	17218	89	-52.0	-84.1	224	5
2023-08-31T06:00	17242	88	-52.1	-84.2	224	5
2023-08-31T06:00	17266	88	-52.0	-84.1	222	5
2023-08-31T06:00	17290	88	-52.1	-84.2	220	5
2023-08-31T06:00	17314	87	-52.2	-84.2	217	5
2023-08-31T06:00	17338	87	-52.3	-84.3	213	5
2023-08-31T06:00	17363	87	-52.3	-84.3	208	5
2023-08-31T06:00	17386	87	-52.6	-83.9	204	5
2023-08-31T06:00	17412	86	-52.7	-84.0	200	5
2023-08-31T06:00	17436	86	-52.8	-84.1	197	5
2023-08-31T06:00	17457	86	-52.9	-84.1	196	5
2023-08-31T06:00	17481	85	-52.9	-84.1	196	5
2023-08-31T06:00	17505	85	-53.0	-84.2	196	5
2023-08-31T06:00	17528	85	-53.1	-84.3	198	5
2023-08-31T06:00	17554	84	-53.2	-84.4	199	5
2023-08-31T06:00	17575	84	-53.4	-84.5	200	5
2023-08-31T06:00	17601	84	-53.6	-84.6	202	5
2023-08-31T06:00	17625	83	-53.7	-84.7	203	6
2023-08-31T06:00	17651	83	-53.8	-84.8	205	6
2023-08-31T06:00	17673	83	-53.9	-84.9	206	6
2023-08-31T06:00	17694	82	-54.0	-84.9	208	6
2023-08-31T06:00	17721	82	-53.9	-84.9	209	6
2023-08-31T06:00	17744	82	-54.0	-84.9	211	7
2023-08-31T06:00	17769	82	-54.2	-85.1	212	6
2023-08-31T06:00	17793	81	-54.3	-84.6	213	6
2023-08-31T06:00	17815	81	-54.3	-84.6	213	6
2023-08-31T06:00	17838	81	-54.4	-85.2	214	5
2023-08-31T06:00	17864	80	-54.6	-85.4	213	5
2023-08-31T06:00	17888	80	-54.7	-85.5	212	4
2023-08-31T06:00	17912	80	-54.7	-85.5	208	4
2023-08-31T06:00	17937	79	-54.3	-85.2	202	3
2023-08-31T06:00	17956	79	-54.1	-85.0	194	3
2023-08-31T06:00	17980	79	-54.0	-84.9	183	3
2023-08-31T06:00	18000	79	-53.8	-84.8	172	2
2023-08-31T06:00	18027	78	-54.0	-84.9	159	3
2023-08-31T06:00	18050	78	-54.1	-85.0	147	3
2023-08-31T06:00	18071	78	-54.1	-85.0	139	3
2023-08-31T06:00	18097	77	-54.2	-85.1	135	4
2023-08-31T06:00	18119	77	-54.2	-85.1	132	5
2023-08-31T06:00	18144	77	-54.1	-85.0	131	5
2023-08-31T06:00	18164	77	-54.0	-84.9	129	6
2023-08-31T06:00	18189	76	-53.8	-84.8	127	6
2023-08-31T06:00	18210	76	-53.8	-84.8	126	7
2023-08-31T06:00	18235	76	-53.9	-84.9	125	7
2023-08-31T06:00	18258	76	-54.0	-84.9	125	7
2023-08-31T06:00	18278	75	-54.1	-85.0	126	7
2023-08-31T06:00	18301	75	-54.1	-85.0	127	7
2023-08-31T06:00	18326	75	-54.0	-84.9	128	6
2023-08-31T06:00	18348	74	-53.7	-85.3	130	6
2023-08-31T06:00	18369	74	-53.8	-85.4	131	6
2023-08-31T06:00	18396	74	-53.8	-84.8	133	6
2023-08-31T06:00	18416	74	-54.0	-84.9	137	6
2023-08-31T06:00	18439	73	-54.2	-85.1	142	6
2023-08-31T06:00	18465	73	-54.3	-85.2	147	6
2023-08-31T06:00	18486	73	-54.5	-85.3	152	6
2023-08-31T06:00	18509	73	-54.7	-84.9	157	6
2023-08-31T06:00	18532	72	-54.9	-85.1	161	6
2023-08-31T06:00	18558	72	-55.1	-85.2	165	6
2023-08-31T06:00	18577	72	-55.2	-85.3	168	5
2023-08-31T06:00	18601	72	-55.2	-85.8	172	5
2023-08-31T06:00	18624	71	-55.1	-85.8	177	4
2023-08-31T06:00	18649	71	-55.0	-85.7	179	4
2023-08-31T06:00	18673	71	-54.8	-85.5	179	4
2023-08-31T06:00	18695	71	-54.7	-85.5	176	5
2023-08-31T06:00	18721	70	-54.5	-85.9	172	5
2023-08-31T06:00	18745	70	-54.4	-85.8	168	6
2023-08-31T06:00	18769	70	-54.4	-85.2	166	6
2023-08-31T06:00	18792	70	-54.5	-85.3	164	6
2023-08-31T06:00	18815	69	-54.5	-85.3	163	7
2023-08-31T06:00	18840	69	-54.6	-85.4	162	7
2023-08-31T06:00	18863	69	-54.5	-85.9	162	7
2023-08-31T06:00	18885	68	-54.3	-85.8	163	7
2023-08-31T06:00	18912	68	-54.0	-85.5	163	6
2023-08-31T06:00	18937	68	-53.8	-85.4	162	6
2023-08-31T06:00	18962	68	-53.5	-85.2	162	5
2023-08-31T06:00	18983	67	-53.4	-85.1	161	5
2023-08-31T06:00	19009	67	-53.6	-85.3	161	4
2023-08-31T06:00	19036	67	-53.6	-85.3	162	4
2023-08-31T06:00	19059	67	-53.6	-85.3	161	4
2023-08-31T06:00	19083	66	-53.5	-85.2	157	4
2023-08-31T06:00	19109	66	-53.4	-85.1	152	4
2023-08-31T06:00	19134	66	-53.3	-85.7	145	4
2023-08-31T06:00	19158	66	-52.9	-85.4	141	5
2023-08-31T06:00	19183	65	-52.8	-85.3	139	6
2023-08-31T06:00	19205	65	-52.7	-85.3	139	6
2023-08-31T06:00	19226	65	-52.7	-85.3	140	7
2023-08-31T06:00	19255	65	-52.5	-85.1	142	7
2023-08-31T06:00	19282	64	-52.2	-84.9	144	7
2023-08-31T06:00	19303	64	-52.0	-85.5	147	7
2023-08-31T06:00	19331	64	-51.6	-85.2	149	8
2023-08-31T06:00	19352	64	-51.3	-85.0	151	8
2023-08-31T06:00	19377	63	-51.1	-84.9	152	9
2023-08-31T06:00	19405	63	-51.2	-85.0	154	9
2023-08-31T06:00	19428	63	-51.4	-85.1	156	9
2023-08-31T06:00	19453	63	-51.5	-84.4	159	9
2023-08-31T06:00	19476	63	-51.5	-84.4	162	9
2023-08-31T06:00	19498	62	-51.4	-84.3	165	9
2023-08-31T06:00	19523	62	-51.3	-84.3	168	9
2023-08-31T06:00	19549	62	-51.4	-84.3	171	8
2023-08-31T06:00	19574	62	-51.5	-84.4	174	8
2023-08-31T06:00	19597	61	-51.4	-84.3	177	7
2023-08-31T06:00	19623	61	-51.2	-84.2	180	6
2023-08-31T06:00	19649	61	-51.3	-85.0	183	5
2023-08-31T06:00	19670	61	-51.2	-85.0	186	5
2023-08-31T06:00	19696	60	-51.0	-84.8	188	4
2023-08-31T06:00	19723	60	-50.9	-84.7	189	4
2023-08-31T06:00	19747	60	-50.9	-84.7	187	3
2023-08-31T06:00	19774	60	-51.0	-84.8	181	3
2023-08-31T06:00	19794	60	-51.2	-84.2	169	2
2023-08-31T06:00	19824	59	-51.2	-84.2	153	2
2023-08-31T06:00	19847	59	-51.2	-84.2	135	2
2023-08-31T06:00	19872	59	-51.3	-84.3	119	2
2023-08-31T06:00	19897	59	-51.5	-84.4	106	2
2023-08-31T06:00	19921	58	-51.6	-84.5	95	3
2023-08-31T06:00	19945	58	-51.7	-84.5	88	3
2023-08-31T06:00	19970	58	-51.8	-84.6	87	3
2023-08-31T06:00	19991	58	-51.7	-84.5	91	3
2023-08-31T06:00	20019	58	-51.7	-84.5	99	3
2023-08-31T06:00	20046	57	-51.6	-84.5	110	3
2023-08-31T06:00	20067	57	-51.6	-84.5	121	3
2023-08-31T06:00	20095	57	-51.7	-84.5	130	4
2023-08-31T06:00	20118	57	-51.9	-84.7	137	4
2023-08-31T06:00	20145	56	-52.0	-84.8	143	4
2023-08-31T06:00	20169	56	-52.1	-84.8	148	4
2023-08-31T06:00	20190	56	-52.2	-84.9	152	5
2023-08-31T06:00	20221	56	-52.4	-85.1	157	5
2023-08-31T06:00	20246	56	-52.5	-85.1	161	5
2023-08-31T06:00	20269	55	-52.5	-85.1	165	4
2023-08-31T06:00	20297	55	-52.5	-85.1	169	4
2023-08-31T06:00	20321	55	-52.4	-85.1	171	4
2023-08-31T06:00	20347	55	-52.4	-85.1	173	4
2023-08-31T06:00	20372	54	-52.2	-84.9	173	3
2023-08-31T06:00	20396	54	-52.2	-84.9	173	3
2023-08-31T06:00	20422	54	-52.0	-84.8	172	3
2023-08-31T06:00	20441	54	-51.9	-84.7	170	4
2023-08-31T06:00	20470	54	-51.9	-84.7	169	4
2023-08-31T06:00	20497	53	-52.0	-84.8	167	4
2023-08-31T06:00	20521	53	-51.9	-84.7	166	5
2023-08-31T06:00	20545	53	-51.9	-84.7	166	5
2023-08-31T06:00	20575	53	-52.1	-84.8	166	6
2023-08-31T06:00	20601	53	-52.3	-85.0	167	7
2023-08-31T06:00	20627	52	-52.5	-85.1	168	8
2023-08-31T06:00	20651	52	-52.6	-84.5	170	8
2023-08-31T06:00	20675	52	-52.8	-84.7	171	9
2023-08-31T06:00	20702	52	-52.9	-84.7	172	10
2023-08-31T06:00	20734	52	-53.1	-84.9	173	10
2023-08-31T06:00	20757	51	-53.2	-85.0	175	11
2023-08-31T06:00	20782	51	-53.3	-85.0	177	11
2023-08-31T06:00	20808	51	-53.2	-85.0	180	10
2023-08-31T06:00	20836	51	-53.0	-84.8	183	10
2023-08-31T06:00	20866	50	-53.1	-85.6	187	9
2023-08-31T06:00	20885	50	-53.0	-85.5	190	9
2023-08-31T06:00	20910	50	-53.0	-85.5	192	8
2023-08-31T06:00	20937	50	-53.0	-85.5	194	8
2023-08-31T06:00	20963	50	-53.0	-85.5	194	7
2023-08-31T06:00	20989	49	-53.0	-85.5	194	7
2023-08-31T06:00	21015	49	-53.0	-85.5	194	7
2023-08-31T06:00	21040	49	-53.0	-85.5	194	6
2023-08-31T06:00	21067	49	-53.0	-84.8	193	6
2023-08-31T06:00	21092	49	-53.2	-85.0	193	5
2023-08-31T06:00	21122	48	-53.4	-85.1	194	5
2023-08-31T06:00	21145	48	-53.6	-85.3	195	5
2023-08-31T06:00	21175	48	-53.7	-85.3	197	4
2023-08-31T06:00	21197	48	-53.8	-85.4	199	4
2023-08-31T06:00	21225	48	-53.6	-85.3	202	4
2023-08-31T06:00	21253	48	-53.6	-85.3	205	4
2023-08-31T06:00	21275	47	-53.6	-85.3	207	4
2023-08-31T06:00	21302	47	-53.7	-85.3	209	4
2023-08-31T06:00	21323	47	-53.9	-85.5	211	3
2023-08-31T06:00	21355	47	-53.9	-85.5	213	3
2023-08-31T06:00	21376	47	-54.0	-85.5	216	2
2023-08-31T06:00	21405	46	-54.2	-85.7	219	2
2023-08-31T06:00	21432	46	-54.3	-85.8	221	2
2023-08-31T06:00	21457	46	-54.2	-85.7	222	2
2023-08-31T06:00	21485	46	-54.2	-85.7	221	1
2023-08-31T06:00	21512	46	-54.3	-85.8	216	1
2023-08-31T06:00	21537	45	-54.4	-85.8	205	1
2023-08-31T06:00	21561	45	-54.4	-85.8	191	1
2023-08-31T06:00	21591	45	-54.3	-85.8	180	1
2023-08-31T06:00	21610	45	-54.3	-85.8	174	1
2023-08-31T06:00	21632	45	-54.3	-85.8	171	1
2023-08-31T06:00	21667	45	-54.3	-85.8	167	2
2023-08-31T06:00	21687	44	-54.0	-86.2	162	2
2023-08-31T06:00	21715	44	-53.6		156	3
2023-08-31T06:00	21745	44	-53.1	-85.6	150	3
2023-08-31T06:00	21769	44	-52.6	-85.2	146	4
2023-08-31T06:00	21795	44	-52.4	-85.8	145	4
2023-08-31T06:00	21820	43	-52.6		147	5
2023-08-31T06:00	21846	43	-52.7	-86.0	151	5
2023-08-31T06:00	21870	43	-52.5	-85.9	160	5
2023-08-31T06:00	21899	43	-52.3	-85.8	170	5
2023-08-31T06:00	21919	43	-51.9	-85.5	179	5
2023-08-31T06:00	21954	43	-51.6	-85.2	185	6
2023-08-31T06:00	21978	42	-51.4	-85.1	188	6
2023-08-31T06:00	21999	42	-51.3	-85.0	188	7
2023-08-31T06:00	22024	42	-51.4	-85.1	186	7
2023-08-31T06:00	22052	42	-51.5	-85.2	183	7
2023-08-31T06:00	22077	42	-51.6	-85.2	179	7
2023-08-31T06:00	22105	42	-51.6	-85.2	175	6
2023-08-31T06:00	22129	41	-51.8	-85.4	172	6
2023-08-31T06:00	22151	41	-51.9	-85.5	172	6
2023-08-31T06:00	22178	41	-51.8	-85.4	175	6
2023-08-31T06:00	22210	41	-51.3	-85.0	180	6
2023-08-31T06:00	22230	41	-51.0	-84.8	186	5
2023-08-31T06:00	22255	41	-50.9	-84.7	193	5
2023-08-31T06:00	22283	40	-50.9	-84.7	199	5
2023-08-31T06:00	22308	40	-50.9	-84.7	205	5
2023-08-31T06:00	22336	40	-50.9	-84.7	210	5
2023-08-31T06:00	22360	40	-51.0	-84.8	214	4
2023-08-31T06:00	22392	40	-51.0	-84.8	215	4
2023-08-31T06:00	22410	40	-50.8	-84.7	216	4
2023-08-31T06:00	22437	40	-50.7	-84.6	215	4
2023-08-31T06:00	22458	39	-50.7	-84.6	213	3
2023-08-31T06:00	22487	39	-50.8	-84.7	207	3
2023-08-31T06:00	22509	39	-50.9	-84.7	197	3
2023-08-31T06:00	22536	39	-51.0	-84.8	181	3
2023-08-31T06:00	22563	39	-51.1	-84.9	164	3
2023-08-31T06:00	22584	39	-51.1	-84.9	153	3
2023-08-31T06:00	22609	38	-51.1	-84.9	148	3
2023-08-31T06:00	22639	38	-50.9	-84.7	149	4
2023-08-31T06:00	22664	38	-50.7	-84.6	154	4
2023-08-31T06:00	22693	38	-50.5	-84.5	162	3
2023-08-31T06:00	22716	38	-50.5	-84.5	171	3
2023-08-31T06:00	22742	38	-50.5	-84.5	180	3
2023-08-31T06:00	22769	38	-50.7	-84.6	188	2
2023-08-31T06:00	22802	37	-50.8	-84.7	193	2
2023-08-31T06:00	22826	37	-50.9	-84.7	192	1
2023-08-31T06:00	22856	37	-51.0	-84.8	181	1
2023-08-31T06:00	22880	37	-51.0	-84.8	163	1
2023-08-31T06:00	22905	37	-51.1	-84.9	157	1
2023-08-31T06:00	22933	37	-51.1	-84.9	164	1
2023-08-31T06:00	22965	36	-51.1	-84.9	177	2
2023-08-31T06:00	22987	36	-51.1	-84.9	191	2
2023-08-31T06:00	23019	36	-51.3	-85.0	202	2
2023-08-31T06:00	23047	36	-51.3	-85.0	212	2
2023-08-31T06:00	23073	36	-51.3	-85.0	222	2
2023-08-31T06:00	23099	36	-51.1	-84.9	231	2
2023-08-31T06:00	23127	36	-51.1	-84.9	239	1
2023-08-31T06:00	23153	35	-51.2	-85.0	239	1
2023-08-31T06:00	23178	35	-51.4	-85.1	233	2
2023-08-31T06:00	23205	35	-51.3	-85.0	227	3
2023-08-31T06:00	23230	35	-51.2	-85.0	223	3
2023-08-31T06:00	23259	35	-51.1	-84.9	220	4
2023-08-31T06:00	23285	35	-51.2	-85.0	219	5
2023-08-31T06:00	23313	35	-51.1	-84.9	218	5
2023-08-31T06:00	23337	34	-51.0	-84.8	220	5
2023-08-31T06:00	23363	34	-50.9	-84.7	224	5
2023-08-31T06:00	23387	34	-50.7	-84.6	228	5
2023-08-31T06:00	23415	34	-50.6	-84.5	233	5
2023-08-31T06:00	23445	34	-50.7	-84.6	237	5
2023-08-31T06:00	23470	34	-50.6	-84.5	241	6
2023-08-31T06:00	23494	34	-50.6	-84.5	245	6
2023-08-31T06:00	23521	33	-50.6	-84.5	250	6
2023-08-31T06:00	23546	33	-50.7	-84.6	257	5
2023-08-31T06:00	23578	33	-50.6	-84.5	265	5
2023-08-31T06:00	23596	33	-50.3	-84.3	274	5
2023-08-31T06:00	23634	33	-50.3	-84.3	285	4
2023-08-31T06:00	23652	33	-50.4	-84.4	297	4
2023-08-31T06:00	23685	33	-50.5	-84.5	311	3
2023-08-31T06:00	23717	33	-50.5	-84.5	323	3
2023-08-31T06:00	23744	32	-50.6	-84.5	334	3
2023-08-31T06:00	23766	32	-50.7	-84.6	340	3
2023-08-31T06:00	23789	32	-50.8	-84.7	343	3
2023-08-31T06:00	23816	32	-50.9	-84.7	344	4
2023-08-31T06:00	23836	32	-50.9	-84.7	343	4
2023-08-31T06:00	23864	32	-51.0	-84.8	343	4
2023-08-31T06:00	23902	32	-51.0	-84.8	344	4
2023-08-31T06:00	23920	31	-51.1	-84.9	347	4
2023-08-31T06:00	23951	31	-51.2	-85.0	352	4
2023-08-31T06:00	23974	31	-51.3	-85.0	358	4
2023-08-31T06:00	24002	31	-51.3	-85.0	5	4
2023-08-31T06:00	24027	31	-51.4	-85.1	13	3
2023-08-31T06:00	24061	31	-51.3	-85.0	21	3
2023-08-31T06:00	24093	31	-51.2	-85.0	31	3
2023-08-31T06:00	24116	31	-51.3	-85.0	42	3
2023-08-31T06:00	24147	30	-51.4	-85.1	55	3
2023-08-31T06:00	24169	30	-51.3	-85.0	68	3
2023-08-31T06:00	24198	30	-51.2	-85.0	80	3
2023-08-31T06:00	24226	30	-51.1	-84.9	91	4
2023-08-31T06:00	24249	30	-51.1	-84.9	100	4
2023-08-31T06:00	24288	30	-51.1	-84.9	107	4
2023-08-31T06:00	24313	30	-51.0	-85.7	112	4
2023-08-31T06:00	24337	30	-50.9	-85.6	116	4
2023-08-31T06:00	24372	29	-50.6	-85.4	119	3
2023-08-31T06:00	24395	29	-50.6	-85.4	124	3
2023-08-31T06:00	24426	29	-50.6	-84.5	134	2
2023-08-31T06:00	24451	29	-50.8	-84.7	158	1
2023-08-31T06:00	24478	29	-50.9	-84.7	199	1
2023-08-31T06:00	24510	29	-50.9	-84.7	225	1
2023-08-31T06:00	24531	29	-51.0	-84.8	234	2
2023-08-31T06:00	24564	29	-51.0	-84.8	236	2
2023-08-31T06:00	24588	28	-51.1	-84.9	233	2
2023-08-31T06:00	24619	28	-51.1	-84.9	225	2
2023-08-31T06:00	24639	28	-51.2	-85.0	210	2
2023-08-31T06:00	24671	28	-51.2	-85.0	188	2
2023-08-31T06:00	24700	28	-51.2	-85.0	168	2
2023-08-31T06:00	24733	28	-51.2	-85.0	158	2
2023-08-31T06:00	24761	28	-51.1	-84.9	155	2
2023-08-31T06:00	24790	28	-50.9	-85.6	158	2
2023-08-31T06:00	24817	27	-50.7	-85.5	168	2
2023-08-31T06:00	24843	27	-50.6	-85.4	184	2
2023-08-31T06:00	24875	27	-50.4	-85.3	199	2
2023-08-31T06:00	24904	27	-50.3	-85.2	211	2
2023-08-31T06:00	24930	27	-50.4	-85.3	219	3
2023-08-31T06:00	24964	27	-50.5	-85.3	223	3
2023-08-31T06:00	24989	27	-50.3	-85.2	226	3
2023-08-31T06:00	25020	27	-50.2	-85.1	228	3
2023-08-31T06:00	25044	27	-50.2	-85.1	231	3
2023-08-31T06:00	25073	26	-50.2	-85.1	233	2
2023-08-31T06:00	25102	26	-50.1	-85.1	234	2
2023-08-31T06:00	25127	26	-50.1	-85.1	229	2
2023-08-31T06:00	25153	26	-50.0	-85.0	217	2
2023-08-31T06:00	25178	26	-49.7	-84.8	199	2
2023-08-31T06:00	25205	26	-49.4	-84.6	182	3
2023-08-31T06:00	25244	26	-49.4	-84.6	171	4
2023-08-31T06:00	25267	26	-49.4	-84.6	165	5
2023-08-31T06:00	25298	26	-49.5	-84.6	163	6
2023-08-31T06:00	25319	25	-49.5	-84.6	163	6
2023-08-31T06:00	25343	25	-49.2	-84.4	166	7
2023-08-31T06:00	25379	25	-49.1	-84.3	169	7
2023-08-31T06:00	25396	25	-49.0	-85.3	172	7
2023-08-31T06:00	25425	25	-48.8	-85.2	174	7
2023-08-31T06:00	25453	25	-48.6	-85.0	177	7
2023-08-31T06:00	25480	25	-48.3	-84.8	178	7
2023-08-31T06:00	25516	25	-48.0	-84.6	180	7
2023-08-31T06:00	25538	25	-47.7	-84.4	182	7
2023-08-31T06:00	25574	24	-47.4	-84.2	183	8
2023-08-31T06:00	25603	24	-47.3	-84.1	185	8
2023-08-31T06:00	25625	24	-47.2	-84.1	186	9
2023-08-31T06:00	25658	24	-47.0	-83.9	187	9
2023-08-31T06:00	25679	24	-46.9	-83.9	189	9
2023-08-31T06:00	25716	24	-46.7	-83.7	191	9
2023-08-31T06:00	25736	24	-46.5	-83.6	194	9
2023-08-31T06:00	25759	24	-46.4	-83.5	198	8
2023-08-31T06:00	25795	24	-46.4	-83.5	205	7
2023-08-31T06:00	25827	24	-46.4	-83.5	213	7
2023-08-31T06:00	25850	23	-46.3	-83.4	222	6
2023-08-31T06:00	25877	23	-46.1	-83.3	231	6
2023-08-31T06:00	25901	23	-46.0	-83.2	239	6
2023-08-31T06:00	25931	23	-46.0	-83.2	246	6
2023-08-31T06:00	25961	23	-45.8	-83.1	252	5
2023-08-31T06:00	25982	23	-45.6	-82.9	256	5
2023-08-31T06:00	26007	23	-45.3	-82.7	258	4
2023-08-31T06:00	26036	23	-45.1	-82.6	258	4
2023-08-31T06:00	26072	23	-45.0	-82.5	254	3
2023-08-31T06:00	26095	23	-45.0	-82.5	247	3
2023-08-31T06:00	26121	23	-44.9	-82.5	240	3
2023-08-31T06:00	26154	22	-44.7	-82.3	237	4
2023-08-31T06:00	26176	22	-44.4	-82.1	238	4
2023-08-31T06:00	26211	22	-44.2	-82.0	241	5
2023-08-31T06:00	26236	22	-44.1	-81.9	245	6
2023-08-31T06:00	26265	22	-44.0	-81.8	249	6
2023-08-31T06:00	26296	22	-44.0	-81.8	251	6
2023-08-31T06:00	26322	22	-44.0	-81.8	252	6
2023-08-31T06:00	26344	22	-44.0	-81.8	252	6
2023-08-31T06:00	26377	22	-44.0	-81.8	249	5
2023-08-31T06:00	26406	22	-43.9	-81.8	243	5
2023-08-31T06:00	26429	22	-43.9	-81.8	234	4
2023-08-31T06:00	26470	21	-43.9	-81.8	221	4
2023-08-31T06:00	26489	21	-43.8	-81.7	209	4
2023-08-31T06:00	26527	21	-43.8	-81.7	201	4
2023-08-31T06:00	26540	21	-43.7	-81.6	198	5
2023-08-31T06:00	26579	21	-43.6	-81.5	200	5
2023-08-31T06:00	26602	21	-43.4	-81.4	206	6
2023-08-31T06:00	26627	21	-43.3	-81.3	213	6
2023-08-31T06:00	26660	21	-43.1	-81.2	221	6
2023-08-31T06:00	26693	21	-43.0	-81.1	230	6
2023-08-31T06:00	26716	21	-43.1	-81.2	238	6
2023-08-31T06:00	26755	21	-43.1	-81.2	247	5
2023-08-31T06:00	26777	20	-43.0	-81.1	258	5
2023-08-31T06:00	26812	20	-42.9	-81.1	271	5
2023-08-31T06:00	26843	20	-42.8	-81.0	284	5
2023-08-31T06:00	26870	20	-42.9	-81.1	294	5
2023-08-31T06:00	26892	20	-42.9	-81.1	302	5
2023-08-31T06:00	26935	20	-42.9	-81.1	306	4
2023-08-31T06:00	26950	20	-42.9	-81.1	309	4
2023-08-31T06:00	26983	20	-42.7	-80.9	310	3
2023-08-31T06:00	27018	20	-42.5	-80.8	311	3
2023-08-31T06:00	27033	20	-42.3	-80.6	311	2
2023-08-31T06:00	27065	20	-42.2	-80.6	313	2
2023-08-31T06:00	27094	19	-42.3	-80.6	317	1
2023-08-31T06:00	27130	19	-42.3	-80.6	339	0
2023-08-31T06:00	27155	19	-42.4	-80.7	110	1
2023-08-31T06:00	27185	19	-42.5	-80.8	125	1
2023-08-31T06:00	27214	19	-42.7	-80.9	131	2
2023-08-31T06:00	27241	19	-42.8	-81.0	136	3
2023-08-31T06:00	27279	19	-42.9	-81.1	140	4
2023-08-31T06:00	27297	19	-43.0	-81.1	144	4
2023-08-31T06:00	27328	19	-43.1	-81.2	148	4
2023-08-31T06:00	27357	19	-43.0	-81.1	152	4
2023-08-31T06:00	27397	19	-42.9	-81.1	157	3
2023-08-31T06:00	27419	19	-42.8	-81.0	162	3
2023-08-31T06:00	27456	18	-42.8	-81.0	167	2
2023-08-31T06:00	27482	18	-42.8	-81.0	169	1
2023-08-31T06:00	27509	18	-42.8	-81.0	157	1
2023-08-31T06:00	27553	18	-42.8	-81.0	94	1
2023-08-31T06:00	27567	18	-42.7	-80.9	64	1
2023-08-31T06:00	27605	18	-42.7	-80.9	61	2
2023-08-31T06:00	27637	18	-42.7	-80.9	61	2
2023-08-31T06:00	27667	18	-42.9	-81.1	60	3
2023-08-31T06:00	27697	18	-43.1	-81.2	57	3
2023-08-31T06:00	27721	18	-43.3	-81.3	54	4
2023-08-31T06:00	27749	18	-43.5	-81.5	52	5
2023-08-31T06:00	27790	18	-43.6	-81.5	51	5
2023-08-31T06:00	27826	18	-43.6	-81.5	53	6
2023-08-31T06:00	27841	17	-43.5	-81.5	57	7
2023-08-31T06:00	27882	17	-43.5	-81.5	62	7
2023-08-31T06:00	27903	17	-43.5	-81.5	67	7
2023-08-31T06:00	27934	17	-43.3	-81.3	73	7
2023-08-31T06:00	27967	17	-43.1	-81.2	78	7
2023-08-31T06:00	27996	17	-43.2	-81.3	82	6
2023-08-31T06:00	28027	17	-43.3	-81.3	86	6
2023-08-31T06:00	28053	17	-43.5	-81.5	91	6
2023-08-31T06:00	28090	17	-43.8	-81.7	97	5
2023-08-31T06:00	28112	17	-44.0	-81.8	104	5
2023-08-31T06:00	28142	17	-44.2	-82.0	112	5
2023-08-31T06:00	28168	17	-44.3	-82.0	120	5
2023-08-31T06:00	28193	17	-44.5	-82.2	129	4
2023-08-31T06:00	28228	16	-44.7	-82.3	139	4
2023-08-31T06:00	28252	16	-44.8	-82.4	149	4
2023-08-31T06:00	28281	16	-45.0	-82.5	160	4
2023-08-31T06:00	28326	16	-45.0	-82.5	169	5
2023-08-31T06:00	28328	16	-45.0	-82.5	177	5
2023-08-31T06:00	28369	16	-44.9	-82.5	183	5
2023-08-31T06:00	28407	16	-44.8	-82.4	188	5
2023-08-31T06:00	28424	16	-44.8	-82.4	194	5
2023-08-31T06:00	28451	16	-44.8	-82.4	202	4
2023-08-31T06:00	28487	16	-44.6	-82.2	211	4
2023-08-31T06:00	28513	16	-44.5	-82.2	221	4
2023-08-31T06:00	28544	16	-44.4	-82.1	231	4
2023-08-31T06:00	28577	16	-44.4	-82.1	239	4
2023-08-31T06:00	28596	16	-44.5	-82.2	249	4
2023-08-31T06:00	28625	16	-44.6	-82.2	260	4
2023-08-31T06:00	28668	15	-44.6	-82.2	272	4
2023-08-31T06:00	28685	15	-44.5	-82.2	283	5
2023-08-31T06:00	28714	15	-44.3	-82.0	292	5
2023-08-31T06:00	28742	15	-44.2	-82.0	298	5
2023-08-31T06:00	28761	15	-43.9	-81.8	303	5
2023-08-31T06:00	28793	15	-43.8	-81.7	307	5
2023-08-31T06:00	28826	15	-43.7	-81.6	310	5
2023-08-31T06:00	28863	15	-43.7	-81.6	312	5
2023-08-31T06:00	28880	15	-43.8	-81.7	314	5
2023-08-31T06:00	28906	15	-43.9	-81.8	315	5
2023-08-31T06:00	28924	15	-43.9	-81.8	316	5
2023-08-31T06:00	28972	15	-43.7	-81.6	317	5
2023-08-31T06:00	28992	15	-43.6	-81.5	319	4
2023-08-31T06:00	29012	15	-43.6	-81.5	321	4
2023-08-31T06:00	29045	15	-43.4	-81.4	325	4
2023-08-31T06:00	29092	15	-43.2	-81.3	330	4
2023-08-31T06:00	29111	14	-43.2	-81.3	336	3
2023-08-31T06:00	29129	14	-43.3	-81.3	344	3
2023-08-31T06:00	29167	14	-43.3	-81.3	353	3
2023-08-31T06:00	29201	14	-43.2	-81.3	3	3
2023-08-31T06:00	29229	14	-43.3	-81.3	16	2
2023-08-31T06:00	29248	14	-43.3	-81.3	30	2
2023-08-31T06:00	29285	14	-43.3	-81.3	45	2
2023-08-31T06:00	29315	14	-43.2	-81.3	57	2
2023-08-31T06:00	29356	14	-43.1	-81.2	66	2
2023-08-31T06:00	29380	14	-43.0	-81.1	72	2
2023-08-31T06:00	29417	14	-42.9	-81.1	77	2
2023-08-31T06:00	29445	14	-42.8	-81.0	81	2
2023-08-31T06:00	29472	14	-42.8	-81.0	84	2
2023-08-31T06:00	29501	14	-42.8	-81.0	85	3
2023-08-31T06:00	29535	14	-42.8	-81.0	86	3
2023-08-31T06:00	29576	13	-42.8	-81.0	89	3
2023-08-31T06:00	29600	13	-42.7	-80.9	95	3
2023-08-31T06:00	29633	13	-42.6	-80.8	106	3
2023-08-31T06:00	29657	13	-42.5	-80.8	120	3
2023-08-31T06:00	29698	13	-42.6	-80.8	133	4
2023-08-31T06:00	29727	13	-42.7	-80.9	144	4
2023-08-31T06:00	29770	13	-42.9	-81.1	151	5
2023-08-31T06:00	29821	13	-43.1	-81.2	159	7
2023-08-31T06:00	29853	13	-43.2	-81.3	161	8
2023-08-31T06:00	29880	13	-43.3	-81.3	162	9
2023-08-31T06:00	29916	13	-43.3	-81.3	164	10
2023-08-31T06:00	29962	13	-43.2	-81.3	165	10
2023-08-31T06:00	29976	13	-43.0	-81.1	167	11
2023-08-31T06:00	30013	13	-43.1	-81.2	170	11
2023-08-31T06:00	30052	13	-43.1	-81.2	173	10
2023-08-31T06:00	30070	13	-42.9	-81.1	176	10
2023-08-31T06:00	30107	12	-42.6	-80.8	179	9
2023-08-31T06:00	30149	12	-42.4	-80.7	181	9
2023-08-31T06:00	30168	12	-42.3	-80.6	183	8
2023-08-31T06:00	30202	12	-42.1	-80.5	183	8
2023-08-31T06:00	30232	12	-41.7	-80.2	183	8
2023-08-31T06:00	30274	12	-41.2	-79.9	183	8
2023-08-31T06:00	30304	12	-40.8	-79.6	183	8
2023-08-31T06:00	30327	12	-40.7	-79.5	183	8
2023-08-31T06:00	30358	12	-40.7	-79.5	183	8
2023-08-31T06:00	30381	12	-40.8	-79.6	183	8
2023-08-31T06:00	30398	12	-40.9	-79.7	183	8
2023-08-31T06:00	30441	12	-41.0	-79.7	183	8
2023-08-31T06:00	30486	12	-41.1	-79.8	184	8
2023-08-31T06:00	30507	12	-41.3	-79.9	185	8
2023-08-31T06:00	30542	12	-41.5	-80.1	186	8
2023-08-31T06:00	30578	12	-41.7	-80.2	187	7
2023-08-31T06:00	30609	12	-41.8	-80.3	187	7
2023-08-31T06:00	30626	12	-41.8	-80.3	187	7
2023-08-31T06:00	30647	12	-41.8	-80.3	184	6
2023-08-31T06:00	30688	11	-41.9	-80.4	179	6
2023-08-31T06:00	30723	11	-41.9	-80.4	172	6
2023-08-31T06:00	30754	11	-41.8	-80.3	164	6
2023-08-31T06:00	30771	11	-41.6	-80.1	156	6
2023-08-31T06:00	30804	11	-41.4	-80.0	150	6
2023-08-31T06:00	30831	11	-41.1	-79.8	148	7
2023-08-31T06:00	30855	11	-41.0	-79.7	147	8
2023-08-31T06:00	30875	11	-41.0	-79.7	147	9
2023-08-31T06:00	30915	11	-41.0	-79.7	150	9
2023-08-31T06:00	30937	11	-41.0	-79.7	153	10
2023-08-31T06:00	30972	11	-41.1	-79.8	156	11
2023-08-31T06:00	30996	11	-41.2	-79.9	160	11
2023-08-31T06:00	31041	11	-41.2	-79.9	163	12
2023-08-31T06:00	31061	11	-41.2	-79.9	165	12
2023-08-31T06:00	31094	11	-41.1	-79.8	167	12
2023-08-31T06:00	31123	11	-41.1	-79.8	168	12
2023-08-31T06:00	31152	11	-41.3	-79.9	169	12
2023-08-31T06:00	31176	11	-41.5	-80.1	171	11
2023-08-31T06:00	31195	11	-41.7	-80.2	173	11
2023-08-31T06:00	31239	11	-41.8	-80.3	175	10
2023-08-31T06:00	31270	11	-41.9	-80.4	177	10
2023-08-31T06:00	31288	10	-42.1	-80.5	180	10
2023-08-31T06:00	31324	10	-42.3	-80.6	182	10
2023-08-31T06:00	31348	10	-42.5	-80.8	185	10
2023-08-31T06:00	31379	10	-42.7	-80.9	189	10
2023-08-31T06:00	31416	10	-42.9	-81.1	192	10
2023-08-31T06:00	31456	10	-43.0	-81.1	196	9
2023-08-31T06:00	31472	10	-43.1	-81.2	200	9
2023-08-31T06:00	31508	10	-43.1	-81.2	204	8
2023-08-31T06:00	31539	10	-43.0	-81.1	207	7
2023-08-31T06:00	31568	10	-42.9	-81.1	210	6
2023-08-31T06:00	31581	10	-42.9	-81.1	212	5
2023-08-31T06:00	31634	10	-42.9	-81.1	212	4
2023-08-31T06:00	31663	10	-42.7	-80.9	208	4
2023-08-31T06:00	31682	10	-42.7	-80.9	201	3
2023-08-31T06:00	31720	10	-42.9	-81.1	186	2
2023-08-31T06:00	31754	10	-42.8	-81.0	164	2
2023-08-31T06:00	31789	10	-42.7	-80.9	139	2
2023-08-31T06:00	31809	10	-42.8	-81.0	123	2
2023-08-31T06:00	31849	10	-42.8	-81.0	117	2
2023-08-31T06:00	31879	10	-42.9	-81.1	117	3
2023-08-31T06:00	31899	10	-42.9	-81.1	120	3
2023-08-31T06:00	31933	10	-42.8	-81.0	124	4
2023-08-31T06:00	31970	9	-42.7	-80.9	127	4
2023-08-31T06:00	31987	9	-42.5	-80.8	129	5
2023-08-31T06:00	32030	9	-42.4	-80.7	130	5
2023-08-31T06:00	32060	9	-42.2	-80.6	129	5
2023-08-31T06:00	32081	9	-42.2	-80.6	127	5
2023-08-31T06:00	32114	9	-42.2	-80.6	125	6
2023-08-31T06:00	32138	9	-42.3	-80.6	123	6
2023-08-31T06:00	32173	9	-42.4	-80.7	123	6
2023-08-31T06:00	32215	9	-42.5	-80.8	124	7
2023-08-31T06:00	32233	9	-42.4	-80.7	126	6
2023-08-31T06:00	32268	9	-42.4	-80.7	129	6
2023-08-31T06:00	32284	9	-42.4	-80.7	133	6
2023-08-31T06:00	32316	9	-42.5	-80.8	137	5
2023-08-31T06:00	32342	9	-42.6	-80.8	142	5
2023-08-31T06:00	32378	9	-42.8	-81.0	147	4
2023-08-31T06:00	32418	9	-42.8	-81.0	153	3
2023-08-31T06:00	32448	9	-42.7	-80.9	158	3
2023-08-31T06:00	32458	9	-42.6	-80.8	164	2
2023-08-31T06:00	32497	9	-42.4	-80.7	171	2
2023-08-31T06:00	32527	9	-42.2	-80.6	178	2
2023-08-31T06:00	32544	9	-42.1	-80.5	183	2
2023-08-31T06:00	32575	9	-42.0	-80.4	187	2
2023-08-31T06:00	32619	9	-41.8	-80.3	190	2
2023-08-31T06:00	32656	9	-41.6	-80.1	192	2
2023-08-31T06:00	32664	9	-41.3	-79.9	195	2
2023-08-31T06:00	32686	9	-40.9	-79.7	200	1
2023-08-31T06:00	32720	8	-40.5	-79.4	233	0
2023-08-31T06:00	32757	8	-40.3	-79.2	346	1
2023-08-31T06:00	32784	8	-40.1	-79.1	355	2
2023-08-31T06:00	32801	8	-40.1	-79.1	355	2
2023-08-31T06:00	32824	8	-40.1	-79.1	355	3
2023-08-31T06:00	32876	8	-40.1	-79.1	356	4
2023-08-31T06:00	32904	8	-40.1	-79.1	359	5
2023-08-31T06:00	32910	8	-40.1	-79.1	3	6
2023-08-31T06:00	32921	8	-40.0	-79.0	8	6
2023-08-31T06:00	32969	8	-39.8	-78.9	14	7
2023-08-31T06:00	32991	8	-39.3	-78.5	20	7
2023-08-31T06:00	33025	8	-39.1	-78.4	27	8
2023-08-31T06:00	33030	8	-39.1	-78.4	33	8
2023-08-31T06:00	33069	8	-39.1	-78.4	38	9
2023-08-31T06:00	33101	8	-39.2	-78.5	43	10
2023-08-31T06:00	33133	8	-39.2	-78.5	47	10
2023-08-31T06:00	33144	8	-39.1	-78.4	50	11
2023-08-31T06:00	33186	8	-39.0	-78.3	54	11
2023-08-31T06:00	33246	8	-38.9	-78.3	59	11
2023-08-31T06:00	33248	8	-39.0	-78.3	63	11
2023-08-31T06:00	33300	8	-39.0	-78.3	67	11
2023-08-31T06:00	33313	8	-39.0	-78.3	70	12
2023-08-31T06:00	33355	8	-38.9	-78.3	73	12
2023-08-31T06:00	33365	8	-39.0	-78.3	74	12
2023-08-31T06:00	33411	8	-39.2	-78.5	74	12
2023-08-31T06:00	33446	8	-39.2	-78.5	73	11
2023-08-31T06:00	33482	8	-39.1	-78.4	71	11
2023-08-31T06:00	33510	8	-39.1	-78.4	70	11
2023-08-31T06:00	33534	8	-38.9	-78.3	69	11
2023-08-31T06:00	33573	8	-38.8	-78.2	70	11
2023-08-31T06:00	33618	7	-38.7	-78.1	71	11
2023-08-31T06:00	33641	7	-38.7	-78.1	73	11
2023-08-31T06:00	33659	7	-38.7	-78.1	75	11
2023-08-31T06:00	33685	7	-38.9	-78.3	77	12
2023-08-31T06:00	33741	7	-39.0	-78.3	79	12
2023-08-31T06:00	33753	7	-39.0	-78.3	82	12
2023-08-31T06:00	33819	7	-39.1	-78.4	84	12
2023-08-31T06:00	33863	7	-39.2	-78.5	88	13
2023-08-31T06:00	33869	7	-39.3	-78.5	92	13
2023-08-31T06:00	33931	7	-39.3	-78.5	96	13
2023-08-31T06:00	33950	7	-39.2	-78.5	100	13
2023-08-31T06:00	33970	7	-39.1	-78.4	103	14
2023-08-31T06:00	33984	7	-39.0	-78.3	107	14
2023-08-31T06:00	34035	7	-39.1	-78.4	110	14
2023-08-31T06:00	34050	7	-39.3	-78.5	112	14
2023-08-31T06:00	34075	7	-39.5	-78.7	115	14
2023-08-31T06:00	34115	7	-39.6	-78.8	117	14
2023-08-31T06:00	34165	7	-39.6	-78.8	119	14
2023-08-31T06:00	34173	7	-39.4	-78.6	121	13
2023-08-31T06:00	34206	7	-39.4	-78.6	122	13
2023-08-31T06:00	34235	7	-39.5	-78.7	123	13
2023-08-31T06:00	34262	7	-39.7	-78.8	125	12
2023-08-31T06:00	34291	7	-40.0	-79.0	127	12
2023-08-31T06:00	34326	7	-40.2	-79.2	128	12
2023-08-31T06:00	34378	7	-40.3	-79.2	130	11
2023-08-31T06:00	34382	7	-40.4	-79.3	131	11
2023-08-31T06:00	34419	7	-40.4	-79.3	131	10
2023-08-31T12:00	112	996	15.9	13.2	240	6
2023-08-31T12:00	140	993	14.6	11.2	249	3
2023-08-31T12:00	164	990	14.2	10.3	248	4
2023-08-31T12:00	187	988	14.1	9.5	248	5
2023-08-31T12:00	217	984	13.7	10.1	248	5
2023-08-31T12:00	244	981	13.4	10.0	247	6
2023-08-31T12:00	269	978	13.2	10.2	247	7
2023-08-31T12:00	303	974	12.9	9.8	246	8
2023-08-31T12:00	328	971	12.8	9.6	247	9
2023-08-31T12:00	352	969	12.6	9.3	248	10
2023-08-31T12:00	376	966	12.6	8.4	249	10
2023-08-31T12:00	402	963	12.5	8.2	251	10
2023-08-31T12:00	430	960	12.3	8.1	254	9
2023-08-31T12:00	453	957	12.2	7.9	257	9
2023-08-31T12:00	479	954	12.0	7.9	260	9
2023-08-31T12:00	503	951	11.8	7.6	263	8
2023-08-31T12:00	526	949	11.6	7.3	265	8
2023-08-31T12:00	554	946	11.5	7.1	266	8
2023-08-31T12:00	579	943	11.3	6.7	267	8
2023-08-31T12:00	605	940	11.1	6.7	267	9
2023-08-31T12:00	629	937	10.9	6.6	267	9
2023-08-31T12:00	652	934	10.6	6.4	267	9
2023-08-31T12:00	674	932	10.4	6.3	267	9
2023-08-31T12:00	698	929	10.2	6.3	266	10
2023-08-31T12:00	721	927	10.0	6.3	266	10
2023-08-31T12:00	744	924	9.8	5.9	266	10
2023-08-31T12:00	769	921	9.8	5.5	265	10
2023-08-31T12:00	797	918	9.5	5.0	264	11
2023-08-31T12:00	821	915	9.3	4.9	264	11
2023-08-31T12:00	853	912	9.1	4.4	264	11
2023-08-31T12:00	882	909	8.8	4.3	265	11
2023-08-31T12:00	906	906	8.6	4.3	266	11
2023-08-31T12:00	938	903	8.4	3.9	266	11
2023-08-31T12:00	962	900	8.3	3.5	267	11
2023-08-31T12:00	996	897	8.1	3.3	267	11
2023-08-31T12:00	1025	893	7.8	3.2	267	11
2023-08-31T12:00	1051	891	7.7	3.2	268	11
2023-08-31T12:00	1080	888	7.4	3.0	267	10
2023-08-31T12:00	1104	885	7.2	3.0	267	10
2023-08-31T12:00	1123	883	7.0	2.5	267	11
2023-08-31T12:00	1142	881	6.9	2.6	267	11
2023-08-31T12:00	1162	878	6.8	2.2	268	11
2023-08-31T12:00	1185	876	6.6	2.2	268	12
2023-08-31T12:00	1202	874	6.4	2.0	268	12
2023-08-31T12:00	1228	872	6.3		266	12
2023-08-31T12:00	1250	869	6.2	1.6	264	11
2023-08-31T12:00	1272	867	6.0	1.5	262	11
2023-08-31T12:00	1294	865	5.8	1.6	261	11
2023-08-31T12:00	1319	862	5.7	1.2	260	11
2023-08-31T12:00	1346	859	5.6	0.8	259	11
2023-08-31T12:00	1370	857	5.4	0.6	259	11
2023-08-31T12:00	1400	854	5.3	0.2	259	11
2023-08-31T12:00	1423	851	5.1	0.2	260	10
2023-08-31T12:00	1445	849	5.0	0.1	261	10
2023-08-31T12:00	1464	847	4.8	0.0	261	9
2023-08-31T12:00	1489	844	4.6	0.0	261	9
2023-08-31T12:00	1514	842	4.4	-0.1	259	9
2023-08-31T12:00	1548	838	4.2	-0.3	257	10
2023-08-31T12:00	1575	835	3.9	-0.3	256	10
2023-08-31T12:00	1604	833	3.7	-0.4	254	10
2023-08-31T12:00	1628	830	3.4	-0.5	254	11
2023-08-31T12:00	1655	827	3.2	-0.5	254	11
2023-08-31T12:00	1684	824	3.0	-0.7	254	12
2023-08-31T12:00	1707	822	2.9	-0.7	254	11
2023-08-31T12:00	1732	820	2.7	-0.6	255	11
2023-08-31T12:00	1750	817	2.6	-0.4	257	11
2023-08-31T12:00	1774	815	2.4	-0.3	258	11
2023-08-31T12:00	1802	812	2.2	-0.6	259	11
2023-08-31T12:00	1831	809	2.1	-0.7	259	12
2023-08-31T12:00	1862	806	1.9	-0.9	259	12
2023-08-31T12:00	1885	804	1.7	-1.0	259	12
2023-08-31T12:00	1911	801	1.5	-1.1	258	12
2023-08-31T12:00	1943	798	1.3	-1.5	256	12
2023-08-31T12:00	1971	796	1.1	-1.5	254	12
2023-08-31T12:00	1992	793	1.0	-1.6	252	12
2023-08-31T12:00	2013	791	0.8	-1.6	251	12
2023-08-31T12:00	2043	789	0.5	-1.7	251	12
2023-08-31T12:00	2068	786	0.5	-1.8	252	12
2023-08-31T12:00	2095	783	0.3	-1.9	253	12
2023-08-31T12:00	2120	781	0.1	-1.8	253	12
2023-08-31T12:00	2145	778	-0.1	-1.9	252	12
2023-08-31T12:00	2176	775	-0.4	-2.0	251	12
2023-08-31T12:00	2201	773	-0.6	-2.1	250	12
2023-08-31T12:00	2230	770	-0.8	-2.3	250	12
2023-08-31T12:00	2254	768	-1.0	-2.3	251	12
2023-08-31T12:00	2277	766	-1.2	-2.4	252	12
2023-08-31T12:00	2305	763	-1.4	-2.4	254	13
2023-08-31T12:00	2331	760	-1.7	-2.8	256	13
2023-08-31T12:00	2357	758	-1.8	-3.5	258	13
2023-08-31T12:00	2380	756	-1.7	-4.0	259	13
2023-08-31T12:00	2405	753	-1.9	-4.1	260	13
2023-08-31T12:00	2437	751	-2.1	-4.3	261	13
2023-08-31T12:00	2461	748	-2.3	-4.4	260	13
2023-08-31T12:00	2489	746	-2.5	-4.1	259	12
2023-08-31T12:00	2510	743	-2.4	-4.6	258	12
2023-08-31T12:00	2538	741	-2.5	-4.7	257	12
2023-08-31T12:00	2562	739	-2.7	-4.9	257	12
2023-08-31T12:00	2588	736	-2.8	-5.7	258	12
2023-08-31T12:00	2617	734	-2.9	-6.3	260	12
2023-08-31T12:00	2644	731	-3.0	-6.8	261	12
2023-08-31T12:00	2676	728	-3.2	-7.2	262	12
2023-08-31T12:00	2710	725	-3.5	-7.3	262	12
2023-08-31T12:00	2737	723	-3.7	-7.4	263	12
2023-08-31T12:00	2759	721	-3.9	-7.8	263	12
2023-08-31T12:00	2786	718	-3.9	-8.1	261	11
2023-08-31T12:00	2815	716	-4.1	-8.5	259	11
2023-08-31T12:00	2836	714	-4.2	-8.5	256	11
2023-08-31T12:00	2858	712	-4.4	-8.6	255	10
2023-08-31T12:00	2880	710	-4.6	-8.6	255	9
2023-08-31T12:00	2901	708	-4.8	-8.4	258	9
2023-08-31T12:00	2923	706	-5.0	-8.4	263	8
2023-08-31T12:00	2944	704	-5.2	-8.4	269	9
2023-08-31T12:00	2964	702	-5.4	-8.6	271	9
2023-08-31T12:00	2986	700	-5.6	-8.8	271	10
2023-08-31T12:00	3011	698	-5.8	-9.0	267	10
2023-08-31T12:00	3050	695	-6.0	-9.4	262	11
2023-08-31T12:00	3074	692	-6.1	-9.7	256	11
2023-08-31T12:00	3094	690	-6.2	-9.7	252	12
2023-08-31T12:00	3126	688	-6.5	-9.9	249	12
2023-08-31T12:00	3167	684	-6.8	-10.3	247	12
2023-08-31T12:00	3193	682	-7.0	-10.4	245	12
2023-08-31T12:00	3214	680	-7.2	-10.4	243	12
2023-08-31T12:00	3240	678	-7.4	-10.6	241	12
2023-08-31T12:00	3263	676	-7.6	-10.6	239	12
2023-08-31T12:00	3285	674	-7.8	-10.9	239	12
2023-08-31T12:00	3304	672	-7.9	-10.8	240	13
2023-08-31T12:00	3323	670	-8.1	-11.0	243	13
2023-08-31T12:00	3344	669	-8.2	-11.0	245	13
2023-08-31T12:00	3368	667	-8.4	-11.3	248	13
2023-08-31T12:00	3388	665	-8.5	-11.5	249	13
2023-08-31T12:00	3419	662	-8.7	-12.0	250	13
2023-08-31T12:00	3448	660	-8.9	-12.2	250	12
2023-08-31T12:00	3473	658	-9.1	-12.5	249	12
2023-08-31T12:00	3496	656	-9.2	-12.5	249	12
2023-08-31T12:00	3516	654	-9.4	-12.6	249	13
2023-08-31T12:00	3550	651	-9.6	-12.6	251	13
2023-08-31T12:00	3569	650	-9.8	-12.7	252	14
2023-08-31T12:00	3590	648	-10.0	-12.8	254	14
2023-08-31T12:00	3613	646	-10.1	-13.3	254	14
2023-08-31T12:00	3642	644	-10.3	-13.7	253	13
2023-08-31T12:00	3660	642	-10.4	-14.0	251	13
2023-08-31T12:00	3689	640	-10.6	-14.1	249	13
2023-08-31T12:00	3707	638	-10.7	-14.3	247	13
2023-08-31T12:00	3724	637	-10.8	-14.6	247	13
2023-08-31T12:00	3750	635	-10.9	-14.6	248	12
2023-08-31T12:00	3773	632	-10.9	-14.7	249	12
2023-08-31T12:00	3807	630	-11.2	-15.0	250	12
2023-08-31T12:00	3838	627	-11.3	-15.6	251	12
2023-08-31T12:00	3863	625	-11.4	-15.6	251	12
2023-08-31T12:00	3886	623	-11.6	-15.8	251	11
2023-08-31T12:00	3912	621	-11.8	-15.8	250	11
2023-08-31T12:00	3944	619	-12.0	-15.9	249	11
2023-08-31T12:00	3969	617	-12.2	-16.5	249	11
2023-08-31T12:00	3988	615	-12.4	-17.0	249	11
2023-08-31T12:00	4017	613	-12.6	-17.0	249	11
2023-08-31T12:00	4034	611	-12.7		250	11
2023-08-31T12:00	4059	609	-12.9	-17.3	251	11
2023-08-31T12:00	4087	607	-13.1	-17.7	252	11
2023-08-31T12:00	4110	605	-13.3	-17.8	252	11
2023-08-31T12:00	4141	603	-13.5	-18.7	251	12
2023-08-31T12:00	4163	601	-13.7	-18.7	251	12
2023-08-31T12:00	4187	599	-13.8	-19.5	250	13
2023-08-31T12:00	4208	598	-13.9	-19.6	250	13
2023-08-31T12:00	4230	596	-14.1	-19.6	250	13
2023-08-31T12:00	4260	594	-14.3	-19.2	249	13
2023-08-31T12:00	4283	592	-14.4	-19.2	248	13
2023-08-31T12:00	4304	590	-14.6	-19.0	247	13
2023-08-31T12:00	4322	589	-14.7	-18.8	245	13
2023-08-31T12:00	4340	587	-14.8	-19.0	244	13
2023-08-31T12:00	4359	586	-14.8	-19.2	242	13
2023-08-31T12:00	4385	584	-15.0	-19.6	242	13
2023-08-31T12:00	4416	581	-15.2	-20.0	242	12
2023-08-31T12:00	4441	579	-15.3	-20.4	243	12
2023-08-31T12:00	4473	577	-15.5	-20.9	245	12
2023-08-31T12:00	4499	575	-15.7	-21.6	247	12
2023-08-31T12:00	4523	573	-15.8	-21.8	248	12
2023-08-31T12:00	4541	572	-16.0	-22.2	248	12
2023-08-31T12:00	4567	570	-16.1	-23.4	246	12
2023-08-31T12:00	4597	568	-16.4	-24.6	243	12
2023-08-31T12:00	4625	566	-16.5	-27.1	241	13
2023-08-31T12:00	4645	564	-16.6	-27.7	240	13
2023-08-31T12:00	4668	562	-16.8	-28.7	240	14
2023-08-31T12:00	4695	560	-17.0	-28.9	241	15
2023-08-31T12:00	4721	558	-17.2	-29.5	241	15
2023-08-31T12:00	4747	556	-17.4	-27.8	241	14
2023-08-31T12:00	4766	555	-17.5	-27.9	241	14
2023-08-31T12:00	4784	554	-17.7	-28.1	241	13
2023-08-31T12:00	4805	552	-17.9	-28.0	241	13
2023-08-31T12:00	4841	550	-18.2	-28.2	241	12
2023-08-31T12:00	4865	548	-18.4	-28.3	240	12
2023-08-31T12:00	4887	546	-18.6	-29.0	240	12
2023-08-31T12:00	4916	544	-18.9	-29.1	241	12
2023-08-31T12:00	4940	542	-19.0	-29.9	242	12
2023-08-31T12:00	4961	541	-19.2	-29.5	245	11
2023-08-31T12:00	4993	538	-19.5	-28.9	249	11
2023-08-31T12:00	5025	536	-19.7	-29.0	252	12
2023-08-31T12:00	5052	534	-19.9	-29.7	254	12
2023-08-31T12:00	5073	533	-20.1	-30.5	256	13
2023-08-31T12:00	5096	531	-20.2	-31.2	258	13
2023-08-31T12:00	5123	529	-20.5	-31.3	258	12
2023-08-31T12:00	5149	527	-20.7	-31.3	258	12
2023-08-31T12:00	5182	525	-21.0	-31.2	256	12
2023-08-31T12:00	5210	523	-21.3	-31.1	252	13
2023-08-31T12:00	5239	521	-21.5		249	13
2023-08-31T12:00	5262	519	-21.6	-31.9	247	13
2023-08-31T12:00	5290	517	-21.9	-31.0	246	13
2023-08-31T12:00	5313	515	-22.1	-30.7	247	13
2023-08-31T12:00	5340	514	-22.3	-30.3	249	12
2023-08-31T12:00	5371	511	-22.6	-30.2	251	12
2023-08-31T12:00	5408	509	-22.9	-30.1	252	11
2023-08-31T12:00	5442	506	-23.1	-29.9	252	11
2023-08-31T12:00	5478	504	-23.0	-31.3	251	11
2023-08-31T12:00	5502	502	-23.2	-32.0	250	12
2023-08-31T12:00	5521	501	-23.2	-34.3	251	12
2023-08-31T12:00	5545	499	-23.4	-34.6	253	12
2023-08-31T12:00	5581	497	-23.7	-34.4	255	13
2023-08-31T12:00	5602	496	-23.9	-34.6	256	13
2023-08-31T12:00	5621	494	-24.1	-34.7	256	13
2023-08-31T12:00	5639	493	-24.2	-34.6	255	13
2023-08-31T12:00	5661	492	-24.4	-34.7	254	13
2023-08-31T12:00	5686	490	-24.6	-34.7	253	14
2023-08-31T12:00	5719	488	-24.9	-34.8	252	14
2023-08-31T12:00	5750	486	-25.2	-35.1	252	14
2023-08-31T12:00	5768	484	-25.4		253	14
2023-08-31T12:00	5789	483	-25.6	-35.2	254	14
2023-08-31T12:00	5819	481	-25.8	-35.2	255	13
2023-08-31T12:00	5846	479	-26.1	-35.4	255	13
2023-08-31T12:00	5868	478	-26.3	-35.6	254	13
2023-08-31T12:00	5901	476	-26.6	-35.5	252	13
2023-08-31T12:00	5928	474	-26.9	-35.7	249	13
2023-08-31T12:00	5944	473	-27.1	-35.7	248	13
2023-08-31T12:00	5963	472	-27.2	-35.7	249	13
2023-08-31T12:00	5980	470	-27.4	-35.6	250	13
2023-08-31T12:00	6001	469	-27.6	-35.7	251	13
2023-08-31T12:00	6019	468	-27.8	-35.8	252	13
2023-08-31T12:00	6041	466	-28.0	-35.8	251	13
2023-08-31T12:00	6069	464	-28.3	-35.8	249	13
2023-08-31T12:00	6104	462	-28.6	-35.9	247	13
2023-08-31T12:00	6129	461	-28.9	-35.9	247	13
2023-08-31T12:00	6150	459	-29.0	-35.9	247	13
2023-08-31T12:00	6169	458	-29.2	-36.1	248	13
2023-08-31T12:00	6190	457	-29.3	-36.8	250	13
2023-08-31T12:00	6222	455	-29.5	-37.1	251	13
2023-08-31T12:00	6257	453	-29.9	-37.5	252	13
2023-08-31T12:00	6285	451	-30.1	-37.4	252	14
2023-08-31T12:00	6306	449	-30.3	-37.9	251	14
2023-08-31T12:00	6327	448	-30.5	-38.2	251	14
2023-08-31T12:00	6353	446	-30.7	-38.4	251	14
2023-08-31T12:00	6381	445	-30.9	-39.2	251	14
2023-08-31T12:00	6402	443	-31.0	-39.8	251	13
2023-08-31T12:00	6432	442	-31.3	-40.0	253	13
2023-08-31T12:00	6456	440	-31.5	-40.3	255	13
2023-08-31T12:00	6481	438	-31.6	-40.6	256	13
2023-08-31T12:00	6508	437	-31.9	-39.5	256	14
2023-08-31T12:00	6546	434	-32.2	-40.1	255	14
2023-08-31T12:00	6589	432	-32.5	-38.5	253	15
2023-08-31T12:00	6611	430	-32.7	-38.5	252	15
2023-08-31T12:00	6632	429	-32.9	-38.5	252	15
2023-08-31T12:00	6654	428	-33.1	-38.6	253	15
2023-08-31T12:00	6679	426	-33.4	-38.4	254	15
2023-08-31T12:00	6702	425	-33.6	-38.8	254	15
2023-08-31T12:00	6724	424	-33.8	-38.7	253	15
2023-08-31T12:00	6747	422	-33.9	-39.0	251	15
2023-08-31T12:00	6775	420	-34.2	-39.5	248	15
2023-08-31T12:00	6802	419	-34.4	-39.6	246	14
2023-08-31T12:00	6829	417	-34.6	-39.0	244	14
2023-08-31T12:00	6865	415	-34.8	-39.0	242	13
2023-08-31T12:00	6896	413	-35.0	-39.2	240	12
2023-08-31T12:00	6922	412	-35.2	-39.2	239	11
2023-08-31T12:00	6954	410	-35.4	-39.4	239	11
2023-08-31T12:00	6988	408	-35.6	-39.7	239	11
2023-08-31T12:00	7012	406	-35.8	-40.0	238	11
2023-08-31T12:00	7040	405	-36.0	-40.1	236	11
2023-08-31T12:00	7063	403	-36.2	-40.2	233	11
2023-08-31T12:00	7090	402	-36.4	-40.4	230	11
2023-08-31T12:00	7111	401	-36.6	-40.5	227	11
2023-08-31T12:00	7141	399	-36.8	-40.6	225	11
2023-08-31T12:00	7168	397	-37.1	-41.2	225	10
2023-08-31T12:00	7190	396	-37.3	-41.1	224	10
2023-08-31T12:00	7214	395	-37.5	-41.2	223	10
2023-08-31T12:00	7242	393	-37.8	-41.1	221	10
2023-08-31T12:00	7271	392	-38.1	-41.5	218	11
2023-08-31T12:00	7294	390	-38.3	-41.4	216	11
2023-08-31T12:00	7317	389	-38.5	-42.0	215	11
2023-08-31T12:00	7342	388	-38.5	-43.5	215	11
2023-08-31T12:00	7364	386	-38.7	-43.6	215	11
2023-08-31T12:00	7386	385	-39.0	-43.4	215	10
2023-08-31T12:00	7415	383	-39.2	-43.6	214	9
2023-08-31T12:00	7442	382	-39.4	-43.8	212	8
2023-08-31T12:00	7464	381	-39.5	-43.5	209	8
2023-08-31T12:00	7486	379	-39.6	-43.2	206	9
2023-08-31T12:00	7514	378	-39.9	-43.2	206	9
2023-08-31T12:00	7541	376	-40.1	-43.2	207	10
2023-08-31T12:00	7571	375	-40.3	-43.4	210	10
2023-08-31T12:00	7599	373	-40.4	-43.7	215	10
2023-08-31T12:00	7633	371	-40.8	-43.9	222	11
2023-08-31T12:00	7660	370	-40.6	-47.0	230	11
2023-08-31T12:00	7690	368	-40.6	-48.1	236	12
2023-08-31T12:00	7714	367	-40.5	-50.3	240	13
2023-08-31T12:00	7734	366	-40.5	-52.0	241	13
2023-08-31T12:00	7748	365	-40.5	-53.9	241	14
2023-08-31T12:00	7766	364	-40.1	-58.3	239	14
2023-08-31T12:00	7782	363	-39.6	-58.8	238	14
2023-08-31T12:00	7798	362	-39.1	-59.1	237	14
2023-08-31T12:00	7817	362	-38.9	-58.8	238	14
2023-08-31T12:00	7836	360	-38.9	-58.7	239	14
2023-08-31T12:00	7863	359	-39.1	-58.4	240	14
2023-08-31T12:00	7888	358	-39.2	-58.6	241	14
2023-08-31T12:00	7913	356	-39.0	-59.1	242	13
2023-08-31T12:00	7937	355	-38.7	-59.8	243	13
2023-08-31T12:00	7962	354	-38.4	-60.0	244	13
2023-08-31T12:00	7997	352	-38.7	-60.0	246	13
2023-08-31T12:00	8032	350	-38.9	-60.0	248	13
2023-08-31T12:00	8050	349	-39.0	-60.1	249	13
2023-08-31T12:00	8067	349	-39.1	-60.2	248	13
2023-08-31T12:00	8085	348	-39.1	-60.2	247	13
2023-08-31T12:00	8104	347	-39.2	-60.4	245	14
2023-08-31T12:00	8122	346	-39.0	-60.6	244	14
2023-08-31T12:00	8139	345	-38.9	-60.9	243	14
2023-08-31T12:00	8157	344	-38.8	-61.0	244	14
2023-08-31T12:00	8175	343	-38.8	-61.3	245	14
2023-08-31T12:00	8191	342	-38.7	-61.5	247	14
2023-08-31T12:00	8214	341	-38.7	-61.4	248	15
2023-08-31T12:00	8232	340	-38.7	-61.5	251	15
2023-08-31T12:00	8255	339	-38.7	-61.5	252	15
2023-08-31T12:00	8274	338	-38.7	-61.5	254	15
2023-08-31T12:00	8297	337	-38.8	-61.4	255	15
2023-08-31T12:00	8327	336	-38.7		255	15
2023-08-31T12:00	8355	334	-39.0	-61.5	254	15
2023-08-31T12:00	8392	333	-39.0	-61.7	252	15
2023-08-31T12:00	8414	331	-39.1	-61.9	251	15
2023-08-31T12:00	8431	331	-39.3	-62.0	251	15
2023-08-31T12:00	8449	330	-39.4	-62.1	252	15
2023-08-31T12:00	8468	329	-39.5	-62.4	252	15
2023-08-31T12:00	8484	328	-39.5	-62.6	253	15
2023-08-31T12:00	8505	327	-39.6	-62.8	254	15
2023-08-31T12:00	8525	326	-39.7	-62.7	255	15
2023-08-31T12:00	8547	325	-39.6	-63.0	255	15
2023-08-31T12:00	8569	324	-39.7	-63.4	255	16
2023-08-31T12:00	8591	323	-39.6	-63.3	256	16
2023-08-31T12:00	8613	322	-39.2	-63.1	257	16
2023-08-31T12:00	8636	321	-39.2	-63.1	258	16
2023-08-31T12:00	8663	319	-39.1	-63.1	259	17
2023-08-31T12:00	8691	318	-39.0	-63.0	260	17
2023-08-31T12:00	8717	317	-39.0	-63.3	260	17
2023-08-31T12:00	8743	316	-39.1	-63.4	260	17
2023-08-31T12:00	8765	315	-38.9	-63.2	259	17
2023-08-31T12:00	8786	314	-38.8	-63.1	258	18
2023-08-31T12:00	8805	313	-38.6	-63.1	257	18
2023-08-31T12:00	8829	312	-38.4	-62.9	256	19
2023-08-31T12:00	8853	311	-38.5	-62.9	256	19
2023-08-31T12:00	8879	310	-38.5	-62.9	256	19
2023-08-31T12:00	8902	309	-38.4	-62.9	256	19
2023-08-31T12:00	8926	308	-38.5	-62.9	257	19
2023-08-31T12:00	8947	307	-38.6	-62.8	258	19
2023-08-31T12:00	8969	306	-38.6	-63.0	259	19
2023-08-31T12:00	8995	304	-38.5	-63.0	260	19
2023-08-31T12:00	9017	303	-38.6	-63.3	260	18
2023-08-31T12:00	9041	302	-38.6	-63.3	260	17
2023-08-31T12:00	9065	301	-38.5	-63.3	259	17
2023-08-31T12:00	9088	300	-38.4	-63.6	259	16
2023-08-31T12:00	9110	299	-38.4	-63.9	258	16
2023-08-31T12:00	9133	298	-38.3	-64.6	258	16
2023-08-31T12:00	9159	297	-38.3	-64.8	257	15
2023-08-31T12:00	9184	296	-38.3	-65.2	257	15
2023-08-31T12:00	9208	295	-38.3	-65.8	257	15
2023-08-31T12:00	9236	294	-38.3	-66.3	257	15
2023-08-31T12:00	9262	293	-38.3	-66.5	257	15
2023-08-31T12:00	9286	292	-38.3	-67.0	257	15
2023-08-31T12:00	9311	291	-38.3	-67.6	258	15
2023-08-31T12:00	9340	290	-38.4	-67.7	259	15
2023-08-31T12:00	9367	288	-38.5	-68.3	260	15
2023-08-31T12:00	9393	287	-38.5	-68.3	261	15
2023-08-31T12:00	9417	286	-38.6	-68.7	262	15
2023-08-31T12:00	9441	285	-38.5	-69.3	262	14
2023-08-31T12:00	9470	284	-38.4	-69.6	261	14
2023-08-31T12:00	9498	283	-38.5	-70.1	261	14
2023-08-31T12:00	9519	282	-38.6	-70.2	260	14
2023-08-31T12:00	9541	281	-38.5	-70.5	259	15
2023-08-31T12:00	9559	280	-38.5	-70.5	258	15
2023-08-31T12:00	9578	280	-38.5	-70.5	257	15
2023-08-31T12:00	9596	279	-38.6	-71.0	256	15
2023-08-31T12:00	9616	278	-38.7	-71.1	256	15
2023-08-31T12:00	9635	277	-38.6	-71.0	255	15
2023-08-31T12:00	9656	277	-38.4	-71.3	254	15
2023-08-31T12:00	9673	276	-38.5	-71.4	253	15
2023-08-31T12:00	9692	275	-38.5	-71.4	252	15
2023-08-31T12:00	9709	274	-38.5	-71.9	251	15
2023-08-31T12:00	9726	274	-38.6	-72.0	250	15
2023-08-31T12:00	9745	273	-38.7	-72.0	250	15
2023-08-31T12:00	9763	272	-38.8	-72.1	249	15
2023-08-31T12:00	9781	271	-38.8	-72.1	248	15
2023-08-31T12:00	9799	271	-38.9	-72.2	246	15
2023-08-31T12:00	9819	270	-39.0	-72.2	245	15
2023-08-31T12:00	9837	269	-39.1	-72.3	244	15
2023-08-31T12:00	9856	269	-39.2	-72.4	242	15
2023-08-31T12:00	9875	268	-39.2	-72.4	242	15
2023-08-31T12:00	9893	267	-39.1	-72.3	241	15
2023-08-31T12:00	9912	266	-39.1	-72.3	241	15
2023-08-31T12:00	9931	266	-39.2	-72.4	241	15
2023-08-31T12:00	9949	265	-39.2	-72.9	240	14
2023-08-31T12:00	9967	264	-39.2	-72.9	239	14
2023-08-31T12:00	9987	263	-39.3	-73.0	237	14
2023-08-31T12:00	10006	263	-39.4	-73.1	235	15
2023-08-31T12:00	10026	262	-39.5	-73.1	233	15
2023-08-31T12:00	10046	261	-39.4	-73.6	231	16
2023-08-31T12:00	10066	260	-39.4	-73.1	230	16
2023-08-31T12:00	10086	260	-39.5	-73.1	228	16
2023-08-31T12:00	10105	259	-39.6	-73.8	226	16
2023-08-31T12:00	10126	258	-39.5	-73.7	225	16
2023-08-31T12:00	10144	257	-39.4	-73.6	225	16
2023-08-31T12:00	10166	257	-39.1	-74.0	225	16
2023-08-31T12:00	10188	256	-39.0	-74.0	226	16
2023-08-31T12:00	10210	255	-39.0	-74.0	227	16
2023-08-31T12:00	10228	254	-39.1	-74.0	228	16
2023-08-31T12:00	10249	254	-39.2	-74.1	229	16
2023-08-31T12:00	10268	253	-39.4	-74.2	229	16
2023-08-31T12:00	10289	252	-39.5	-74.3	230	16
2023-08-31T12:00	10310	251	-39.6	-74.4	231	15
2023-08-31T12:00	10330	251	-39.7	-73.8	231	15
2023-08-31T12:00	10352	250	-39.8	-74.5	232	15
2023-08-31T12:00	10375	249	-39.8	-74.5	233	15
2023-08-31T12:00	10394	248	-39.9	-74.6	233	15
2023-08-31T12:00	10413	248	-40.0	-74.7	234	15
2023-08-31T12:00	10434	247	-40.1	-74.8	235	16
2023-08-31T12:00	10456	246	-40.0	-74.7	235	16
2023-08-31T12:00	10476	245	-39.8	-74.5	235	16
2023-08-31T12:00	10495	245	-39.7	-75.1	236	16
2023-08-31T12:00	10518	244	-39.8	-75.2	236	16
2023-08-31T12:00	10540	243	-40.0	-75.4	237	16
2023-08-31T12:00	10558	242	-40.1	-74.8	236	16
2023-08-31T12:00	10578	242	-40.1	-75.4	235	16
2023-08-31T12:00	10598	241	-40.0	-75.4	234	16
2023-08-31T12:00	10618	240	-39.8	-75.2	232	16
2023-08-31T12:00	10638	240	-39.7	-75.1	231	16
2023-08-31T12:00	10658	239	-39.7	-75.1	231	16
2023-08-31T12:00	10677	238	-39.6	-75.1	232	16
2023-08-31T12:00	10694	238	-39.6	-75.1	233	16
2023-08-31T12:00	10714	237	-39.7	-75.1	234	16
2023-08-31T12:00	10735	236	-39.8	-75.2	236	16
2023-08-31T12:00	10754	235	-39.7	-75.1	237	16
2023-08-31T12:00	10774	235	-39.6	-75.1	237	16
2023-08-31T12:00	10794	234	-39.5	-75.0	237	16
2023-08-31T12:00	10816	233	-39.3	-75.6	238	16
2023-08-31T12:00	10834	233	-39.5	-75.0	238	16
2023-08-31T12:00	10852	232	-39.6	-75.1	238	15
2023-08-31T12:00	10873	231	-39.7	-75.1	238	15
2023-08-31T12:00	10894	231	-39.8	-75.2	239	14
2023-08-31T12:00	10915	230	-39.9	-75.3	239	14
2023-08-31T12:00	10933	229	-40.0	-75.4	239	14
2023-08-31T12:00	10949	229	-40.1	-75.4	240	13
2023-08-31T12:00	10972	228	-40.2	-75.5	240	13
2023-08-31T12:00	10992	227	-40.5	-75.7	240	13
2023-08-31T12:00	11011	227	-40.6	-75.8	241	13
2023-08-31T12:00	11031	226	-40.5	-75.7	241	13
2023-08-31T12:00	11052	225	-40.3	-75.6	241	13
2023-08-31T12:00	11070	225	-40.2	-75.5	240	13
2023-08-31T12:00	11091	224	-40.2	-75.5	239	13
2023-08-31T12:00	11111	224	-40.2	-75.5	238	13
2023-08-31T12:00	11130	223	-40.1	-75.4	236	13
2023-08-31T12:00	11151	222	-40.1	-75.4	234	13
2023-08-31T12:00	11172	222	-40.1	-75.4	233	14
2023-08-31T12:00	11195	221	-40.2	-75.5	232	14
2023-08-31T12:00	11214	220	-40.3	-75.6	231	14
2023-08-31T12:00	11235	219	-40.5	-75.7	231	14
2023-08-31T12:00	11258	219	-40.6	-75.8	231	14
2023-08-31T12:00	11279	218	-40.6	-75.8	232	14
2023-08-31T12:00	11297	218	-40.7	-75.9	231	13
2023-08-31T12:00	11315	217	-40.8	-75.9	231	13
2023-08-31T12:00	11338	216	-40.8	-75.9	230	13
2023-08-31T12:00	11356	216	-40.9	-76.0	228	13
2023-08-31T12:00	11378	215	-41.0	-76.1	227	13
2023-08-31T12:00	11398	214	-41.0	-76.1	225	12
2023-08-31T12:00	11419	214	-41.0	-76.1	224	12
2023-08-31T12:00	11439	213	-41.1	-76.1	223	12
2023-08-31T12:00	11457	212	-41.2	-76.2	223	12
2023-08-31T12:00	11478	212	-41.4	-76.4	223	12
2023-08-31T12:00	11498	211	-41.4	-76.4	224	12
2023-08-31T12:00	11517	211	-41.5	-76.4	224	12
2023-08-31T12:00	11540	210	-41.6	-76.5	224	12
2023-08-31T12:00	11561	209	-41.8	-76.7	222	12
2023-08-31T12:00	11585	209	-42.0	-76.8	220	12
2023-08-31T12:00	11605	208	-42.1	-76.9	217	12
2023-08-31T12:00	11626	207	-41.9	-76.7	214	13
2023-08-31T12:00	11651	206	-41.8	-76.7	212	13
2023-08-31T12:00	11673	206	-41.7	-77.3	211	13
2023-08-31T12:00	11694	205	-41.9	-77.5	210	14
2023-08-31T12:00	11715	204	-42.0	-76.8	211	14
2023-08-31T12:00	11735	204	-42.0	-76.8	211	14
2023-08-31T12:00	11757	203	-42.1	-76.9	212	14
2023-08-31T12:00	11784	202	-42.3	-77.8	213	14
2023-08-31T12:00	11806	202	-42.5	-77.9	213	15
2023-08-31T12:00	11826	201	-42.6	-77.2	214	15
2023-08-31T12:00	11845	201	-42.5	-77.2	214	15
2023-08-31T12:00	11866	200	-42.5	-77.2	214	16
2023-08-31T12:00	11887	199	-42.6	-77.2	214	16
2023-08-31T12:00	11908	199	-42.7	-77.3	213	16
2023-08-31T12:00	11931	198	-42.9	-77.5	212	16
2023-08-31T12:00	11951	197	-42.9	-77.5	212	16
2023-08-31T12:00	11971	197	-43.0	-77.5	211	16
2023-08-31T12:00	11993	196	-43.1	-77.6	210	16
2023-08-31T12:00	12019	195	-43.1	-77.6	209	15
2023-08-31T12:00	12043	195	-42.7	-78.0	208	15
2023-08-31T12:00	12066	194	-42.7	-78.0	207	15
2023-08-31T12:00	12088	194	-42.7	-78.0	205	15
2023-08-31T12:00	12106	193	-42.9	-78.2	205	15
2023-08-31T12:00	12127	192	-42.8	-77.4	205	15
2023-08-31T12:00	12148	192	-42.9	-77.5	206	15
2023-08-31T12:00	12168	191	-43.0	-77.5	207	15
2023-08-31T12:00	12190	191	-43.2	-77.7	209	15
2023-08-31T12:00	12210	190	-43.4	-77.8	210	15
2023-08-31T12:00	12228	189	-43.5	-77.9	212	15
2023-08-31T12:00	12250	189	-43.7	-78.0	213	16
2023-08-31T12:00	12271	188	-43.8	-78.1	215	16
2023-08-31T12:00	12293	188	-43.9	-78.2	216	15
2023-08-31T12:00	12313	187	-43.9	-78.2	217	15
2023-08-31T12:00	12335	187	-43.9	-78.2	219	15
2023-08-31T12:00	12356	186	-44.1	-78.3	220	15
2023-08-31T12:00	12377	185	-44.0	-78.2	221	15
2023-08-31T12:00	12400	185	-43.9	-78.2	222	15
2023-08-31T12:00	12420	184	-43.6	-78.0	222	15
2023-08-31T12:00	12444	184	-43.7	-78.0	223	15
2023-08-31T12:00	12465	183	-43.9	-78.2	223	16
2023-08-31T12:00	12489	182	-44.1	-78.3	224	16
2023-08-31T12:00	12509	182	-44.3	-78.5	225	16
2023-08-31T12:00	12533	181	-44.3	-78.5	226	16
2023-08-31T12:00	12556	181	-44.2	-78.4	227	16
2023-08-31T12:00	12577	180	-44.1	-78.3	229	16
2023-08-31T12:00	12601	179	-44.1	-78.3	230	16
2023-08-31T12:00	12621	179	-44.2	-78.4	231	16
2023-08-31T12:00	12643	178	-44.3	-78.5	231	16
2023-08-31T12:00	12664	178	-44.5	-78.6	232	15
2023-08-31T12:00	12686	177	-44.5	-78.6	233	15
2023-08-31T12:00	12706	176	-44.4	-78.5	233	15
2023-08-31T12:00	12728	176	-44.3	-78.5	234	14
2023-08-31T12:00	12749	175	-44.3	-78.5	234	13
2023-08-31T12:00	12773	175	-44.3	-78.5	233	12
2023-08-31T12:00	12796	174	-44.3	-79.2	232	12
2023-08-31T12:00	12819	174	-44.0	-79.0	230	11
2023-08-31T12:00	12840	173	-43.9	-78.9	228	11
2023-08-31T12:00	12863	172	-43.9	-78.9	225	11
2023-08-31T12:00	12886	172	-44.1	-79.0	221	11
2023-08-31T12:00	12908	171	-44.2	-79.1	217	11
2023-08-31T12:00	12932	171	-44.4	-78.5	212	11
2023-08-31T12:00	12954	170	-44.6	-78.7	206	11
2023-08-31T12:00	12977	169	-44.7	-78.8	202	11
2023-08-31T12:00	13006	169	-44.8	-78.8	199	11
2023-08-31T12:00	13031	168	-44.8	-78.8	197	11
2023-08-31T12:00	13054	168	-44.8	-78.8	197	11
2023-08-31T12:00	13075	167	-45.0	-79.0	198	12
2023-08-31T12:00	13098	166	-45.1	-79.0	199	12
2023-08-31T12:00	13118	166	-45.0	-79.0	199	12
2023-08-31T12:00	13139	165	-45.0	-79.0	199	12
2023-08-31T12:00	13158	165	-45.0	-79.0	199	13
2023-08-31T12:00	13178	164	-45.0	-79.0	199	13
2023-08-31T12:00	13198	164	-45.0	-79.0	200	13
2023-08-31T12:00	13218	163	-45.1	-79.0	201	13
2023-08-31T12:00	13238	163	-45.2	-79.1	203	13
2023-08-31T12:00	13258	163	-45.3	-79.2	205	13
2023-08-31T12:00	13278	162	-45.3	-79.2	207	13
2023-08-31T12:00	13299	162	-45.2	-79.1	209	14
2023-08-31T12:00	13319	161	-45.1	-79.0	210	14
2023-08-31T12:00	13339	161	-45.0	-79.0	211	14
2023-08-31T12:00	13359	160	-45.1	-79.0	212	14
2023-08-31T12:00	13379	160	-45.2	-79.1	213	14
2023-08-31T12:00	13399	159	-45.2	-79.1	214	14
2023-08-31T12:00	13417	159	-45.2	-79.1	215	14
2023-08-31T12:00	13437	158	-45.3	-79.2	216	14
2023-08-31T12:00	13456	158	-45.4	-79.3	217	14
2023-08-31T12:00	13476	157	-45.4	-79.3	218	14
2023-08-31T12:00	13496	157	-45.3	-79.2	219	14
2023-08-31T12:00	13515	156	-45.1	-79.0	219	14
2023-08-31T12:00	13537	156	-45.1	-79.0	219	14
2023-08-31T12:00	13553	155	-45.2	-79.1	220	13
2023-08-31T12:00	13574	155	-45.3	-79.2	220	13
2023-08-31T12:00	13595	155	-45.4	-79.3	221	13
2023-08-31T12:00	13613	154	-45.5	-79.3	222	13
2023-08-31T12:00	13633	154	-45.6		222	14
2023-08-31T12:00	13653	153	-45.7	-79.5	222	14
2023-08-31T12:00	13672	153	-45.8	-79.6	221	13
2023-08-31T12:00	13694	152	-45.8	-79.6	219	13
2023-08-31T12:00	13712	152	-45.8	-79.6	218	13
2023-08-31T12:00	13734	151	-45.9	-79.6	215	13
2023-08-31T12:00	13755	151	-45.9	-79.6	212	12
2023-08-31T12:00	13776	150	-46.1	-79.8	209	12
2023-08-31T12:00	13801	150	-46.1	-79.8	205	12
2023-08-31T12:00	13823	149	-46.1	-79.8	202	12
2023-08-31T12:00	13843	149	-46.1	-79.8	200	12
2023-08-31T12:00	13863	148	-46.1	-79.8	199	12
2023-08-31T12:00	13886	148	-46.2	-79.8	198	12
2023-08-31T12:00	13907	147	-46.3	-79.9	198	13
2023-08-31T12:00	13927	147	-46.5	-80.1	198	13
2023-08-31T12:00	13950	147	-46.6	-80.1	198	13
2023-08-31T12:00	13968	146	-46.7	-80.2	199	14
2023-08-31T12:00	13989	146	-46.9	-80.4	199	14
2023-08-31T12:00	14010	145	-47.1	-80.5	200	14
2023-08-31T12:00	14031	145	-47.2	-80.6	201	14
2023-08-31T12:00	14049	144	-47.3	-80.6	202	14
2023-08-31T12:00	14068	144	-47.3	-80.6	202	14
2023-08-31T12:00	14091	143	-47.2	-80.6	202	14
2023-08-31T12:00	14111	143	-46.9	-80.4	203	14
2023-08-31T12:00	14128	143	-46.7	-80.2	203	14
2023-08-31T12:00	14149	142	-46.3	-79.9	203	14
2023-08-31T12:00	14168	142	-46.2	-79.8	203	14
2023-08-31T12:00	14189	141	-46.4	-80.0	203	14
2023-08-31T12:00	14208	141	-46.5	-80.1	203	14
2023-08-31T12:00	14229	140	-46.6	-80.1	202	14
2023-08-31T12:00	14250	140	-46.6	-80.1	201	14
2023-08-31T12:00	14272	140	-46.6	-80.1	200	14
2023-08-31T12:00	14294	139	-46.6	-80.1	199	14
2023-08-31T12:00	14315	139	-46.7	-80.2	198	14
2023-08-31T12:00	14334	138	-46.8	-79.6	197	14
2023-08-31T12:00	14356	138	-46.9	-79.7	196	14
2023-08-31T12:00	14380	137	-47.0	-79.8	194	14
2023-08-31T12:00	14402	137	-47.0	-79.8	193	15
2023-08-31T12:00	14423	136	-47.1	-79.9	193	15
2023-08-31T12:00	14446	136	-47.2	-79.9	192	15
2023-08-31T12:00	14468	135	-47.3	-80.0	192	15
2023-08-31T12:00	14488	135	-47.5	-80.2	191	15
2023-08-31T12:00	14513	135	-47.6	-80.2	191	15
2023-08-31T12:00	14534	134	-47.8	-80.4	191	15
2023-08-31T12:00	14556	134	-48.0	-79.9	191	15
2023-08-31T12:00	14577	133	-48.2	-80.1	191	15
2023-08-31T12:00	14599	133	-48.3	-80.2	190	15
2023-08-31T12:00	14622	132	-48.5	-80.3	190	15
2023-08-31T12:00	14646	132	-48.7	-80.5	189	15
2023-08-31T12:00	14667	131	-48.9	-80.6	189	15
2023-08-31T12:00	14690	131	-49.0	-80.7	189	15
2023-08-31T12:00	14708	131	-49.1	-80.8	189	15
2023-08-31T12:00	14731	130	-49.1	-80.8	189	15
2023-08-31T12:00	14753	130	-49.2	-80.8	189	14
2023-08-31T12:00	14773	129	-49.3	-80.9	189	14
2023-08-31T12:00	14798	129	-49.4	-81.0	188	14
2023-08-31T12:00	14820	128	-49.5	-81.1	188	14
2023-08-31T12:00	14842	128	-49.6	-81.1	187	13
2023-08-31T12:00	14864	128	-49.6	-81.1	186	13
2023-08-31T12:00	14887	127	-49.6	-81.1	186	13
2023-08-31T12:00	14909	127	-49.8	-81.3	186	13
2023-08-31T12:00	14927	126	-49.9	-81.3	187	13
2023-08-31T12:00	14948	126	-49.9	-81.3	188	13
2023-08-31T12:00	14966	126	-49.8	-81.3	190	13
2023-08-31T12:00	14986	125	-49.8	-81.8	192	13
2023-08-31T12:00	15008	125	-49.9	-81.9	194	13
2023-08-31T12:00	15027	124	-49.8	-81.8	196	13
2023-08-31T12:00	15048	124	-49.7	-81.8	198	13
2023-08-31T12:00	15068	124	-49.6	-81.7	200	13
2023-08-31T12:00	15087	123	-49.7	-81.8	200	13
2023-08-31T12:00	15107	123	-49.9	-81.9	201	13
2023-08-31T12:00	15127	123	-50.0	-82.0	201	13
2023-08-31T12:00	15147	122	-50.0	-82.0	202	13
2023-08-31T12:00	15164	122	-50.0	-82.0	202	13
2023-08-31T12:00	15185	121	-50.2	-82.1	203	13
2023-08-31T12:00	15203	121	-50.3	-82.2	203	13
2023-08-31T12:00	15224	121	-50.3	-82.2	203	13
2023-08-31T12:00	15242	120	-50.2	-82.1	202	13
2023-08-31T12:00	15261	120	-50.2	-82.1	201	13
2023-08-31T12:00	15282	120	-50.2	-82.1	199	13
2023-08-31T12:00	15303	119	-50.2	-82.1	198	13
2023-08-31T12:00	15323	119	-50.3	-82.2	196	13
2023-08-31T12:00	15344	119	-50.3	-82.2	195	13
2023-08-31T12:00	15364	118	-50.3	-82.2	194	13
2023-08-31T12:00	15381	118	-50.1	-82.1	193	13
2023-08-31T12:00	15402	117	-50.2	-82.1	192	13
2023-08-31T12:00	15423	117	-50.2	-82.1	191	13
2023-08-31T12:00	15442	117	-50.3	-82.2	189	13
2023-08-31T12:00	15463	116	-50.4	-82.3	188	13
2023-08-31T12:00	15483	116	-50.4	-82.3	188	13
2023-08-31T12:00	15503	116	-50.3	-82.8	190	13
2023-08-31T12:00	15523	115	-50.1	-82.7	192	13
2023-08-31T12:00	15544	115	-50.1	-82.7	195	13
2023-08-31T12:00	15565	115	-50.2	-82.8	199	13
2023-08-31T12:00	15588	114	-50.1	-82.7	202	13
2023-08-31T12:00	15608	114	-50.0	-82.6	206	13
2023-08-31T12:00	15630	113	-50.1	-82.7	209	13
2023-08-31T12:00	15651	113	-50.2	-82.8	212	13
2023-08-31T12:00	15674	113	-50.3	-82.8	215	13
2023-08-31T12:00	15694	112	-50.3	-82.8	218	13
2023-08-31T12:00	15718	112	-50.4	-82.9	221	13
2023-08-31T12:00	15739	112	-50.2	-82.8	223	12
2023-08-31T12:00	15763	111	-49.8	-82.5	224	12
2023-08-31T12:00	15787	111	-49.7	-82.4	224	11
2023-08-31T12:00	15807	110	-49.6	-83.0	223	11
2023-08-31T12:00	15832	110	-49.5	-82.9	221	11
2023-08-31T12:00	15854	110	-49.2	-82.7	219	11
2023-08-31T12:00	15877	109	-49.2	-82.7	217	11
2023-08-31T12:00	15894	109	-49.3	-82.8	215	11
2023-08-31T12:00	15915	109	-49.5	-82.3	214	11
2023-08-31T12:00	15938	108	-49.7	-82.4	213	12
2023-08-31T12:00	15958	108	-49.8	-82.5	213	12
2023-08-31T12:00	15983	107	-50.0	-82.6	212	12
2023-08-31T12:00	16006	107	-50.1	-82.7	212	12
2023-08-31T12:00	16027	107	-50.2	-82.8	212	12
2023-08-31T12:00	16048	106	-50.4	-82.9	212	12
2023-08-31T12:00	16069	106	-50.5	-83.0	212	12
2023-08-31T12:00	16090	106	-50.6	-83.1	212	12
2023-08-31T12:00	16114	105	-50.7	-83.1	211	12
2023-08-31T12:00	16136	105	-50.9	-83.3	211	12
2023-08-31T12:00	16159	105	-50.9	-83.3	211	12
2023-08-31T12:00	16182	104	-51.1	-83.4	211	12
2023-08-31T12:00	16203	104	-50.9	-83.3	211	12
2023-08-31T12:00	16222	104	-50.7	-83.1	210	13
2023-08-31T12:00	16243	103	-50.3	-83.5	210	13
2023-08-31T12:00	16266	103	-50.0	-83.3	209	13
2023-08-31T12:00	16290	103	-50.0	-83.3	208	13
2023-08-31T12:00	16312	102	-50.0	-83.3	207	13
2023-08-31T12:00	16331	102	-49.9	-83.2	207	12
2023-08-31T12:00	16357	102	-49.8	-83.2	206	11
2023-08-31T12:00	16376	101	-49.5	-82.9	206	11
2023-08-31T12:00	16399	101	-49.4	-82.9	206	10
2023-08-31T12:00	16420	101	-49.2	-82.7	206	10
2023-08-31T12:00	16439	100	-49.3	-82.8	206	9
2023-08-31T12:00	16462	100	-49.4	-82.9	207	9
2023-08-31T12:00	16485	100	-49.6	-83.0	208	9
2023-08-31T12:00	16507	99	-49.7	-83.1	209	8
2023-08-31T12:00	16529	99	-49.8	-83.2	210	8
2023-08-31T12:00	16550	99	-49.7	-83.1	210	8
2023-08-31T12:00	16571	98	-49.2	-82.7	209	7
2023-08-31T12:00	16594	98	-49.3	-82.8	209	7
2023-08-31T12:00	16618	98	-49.5	-82.9	208	7
2023-08-31T12:00	16638	97	-49.6	-83.0	207	6
2023-08-31T12:00	16657	97	-49.8	-83.2	206	6
2023-08-31T12:00	16682	97	-50.0	-83.3	205	6
2023-08-31T12:00	16704	96	-50.1	-83.4	204	6
2023-08-31T12:00	16726	96	-50.1	-83.4	203	5
2023-08-31T12:00	16747	96	-50.3	-82.8	202	5
2023-08-31T12:00	16768	95	-50.4	-82.9	200	5
2023-08-31T12:00	16790	95	-50.6	-83.1	199	5
2023-08-31T12:00	16810	95	-50.8	-83.2	198	5
2023-08-31T12:00	16832	94	-50.9	-83.3	197	5
2023-08-31T12:00	16854	94	-51.1	-83.4	196	5
2023-08-31T12:00	16876	94	-51.3	-83.6	195	5
2023-08-31T12:00	16896	93	-51.4	-83.6	196	5
2023-08-31T12:00	16916	93	-51.5	-83.1	196	5
2023-08-31T12:00	16940	93	-51.8	-83.3	198	5
2023-08-31T12:00	16961	93	-51.9	-83.4	199	5
2023-08-31T12:00	16983	92	-52.1	-83.5	200	4
2023-08-31T12:00	17006	92	-52.2	-83.6	200	4
2023-08-31T12:00	17028	92	-52.3	-83.7	198	3
2023-08-31T12:00	17049	91	-52.3	-83.7	193	3
2023-08-31T12:00	17070	91	-52.4	-83.8	185	3
2023-08-31T12:00	17093	91	-52.5	-83.8	173	3
2023-08-31T12:00	17116	90	-52.5	-84.4	161	3
2023-08-31T12:00	17139	90	-52.2	-84.2	151	3
2023-08-31T12:00	17159	90	-51.9	-84.0	144	4
2023-08-31T12:00	17186	89	-51.9	-84.0	141	5
2023-08-31T12:00	17207	89	-51.9	-84.0	140	5
2023-08-31T12:00	17230	89	-52.0	-84.1	141	6
2023-08-31T12:00	17255	88	-52.2	-84.2	142	7
2023-08-31T12:00	17279	88	-52.3	-84.3	143	7
2023-08-31T12:00	17303	88	-52.4	-83.8	145	8
2023-08-31T12:00	17324	87	-52.7	-84.0	147	8
2023-08-31T12:00	17350	87	-52.9	-84.1	149	9
2023-08-31T12:00	17373	87	-52.9	-84.1	151	9
2023-08-31T12:00	17398	86	-53.1	-84.3	153	9
2023-08-31T12:00	17421	86	-53.3	-84.4	156	10
2023-08-31T12:00	17442	86	-53.5	-84.6	159	10
2023-08-31T12:00	17468	86	-53.6	-84.6	163	10
2023-08-31T12:00	17490	85	-53.5	-84.6	166	10
2023-08-31T12:00	17512	85	-53.3	-84.4	169	10
2023-08-31T12:00	17534	85	-53.2	-84.4	172	10
2023-08-31T12:00	17560	84	-53.0	-84.2	175	10
2023-08-31T12:00	17582	84	-53.1	-84.3	177	10
2023-08-31T12:00	17604	84	-53.1	-84.3	179	10
2023-08-31T12:00	17627	83	-53.1	-84.3	181	10
2023-08-31T12:00	17649	83	-53.3	-84.4	183	9
2023-08-31T12:00	17669	83	-53.5	-84.6	185	9
2023-08-31T12:00	17691	83	-53.6	-84.6	186	9
2023-08-31T12:00	17715	82	-53.7	-84.7	187	9
2023-08-31T12:00	17735	82	-53.7	-84.7	188	9
2023-08-31T12:00	17759	82	-53.7	-84.7	187	9
2023-08-31T12:00	17782	81	-53.6	-84.6	187	9
2023-08-31T12:00	17806	81	-53.4	-85.1	186	9
2023-08-31T12:00	17827	81	-53.2	-85.0	185	9
2023-08-31T12:00	17848	81	-52.9	-84.7	184	10
2023-08-31T12:00	17868	80	-52.7	-84.6	184	10
2023-08-31T12:00	17892	80	-52.5	-84.4	185	11
2023-08-31T12:00	17918	80	-52.3	-85.0	188	11
2023-08-31T12:00	17939	80	-51.9	-84.7	190	11
2023-08-31T12:00	17960	79	-51.8	-84.6	191	11
2023-08-31T12:00	17983	79	-51.8	-84.6	192	11
2023-08-31T12:00	18007	79	-51.7	-84.5	191	10
2023-08-31T12:00	18031	78	-51.4	-84.3	190	10
2023-08-31T12:00	18053	78	-51.2	-84.2	188	9
2023-08-31T12:00	18073	78	-51.1	-84.1	186	9
2023-08-31T12:00	18100	78	-51.1	-84.1	184	8
2023-08-31T12:00	18122	77	-51.2	-84.2	182	8
2023-08-31T12:00	18145	77	-51.3	-84.3	181	8
2023-08-31T12:00	18169	77	-51.3	-84.3	181	7
2023-08-31T12:00	18189	77	-51.4	-84.3	180	7
2023-08-31T12:00	18212	76	-51.5	-84.4	180	7
2023-08-31T12:00	18236	76	-51.6	-83.8	178	7
2023-08-31T12:00	18258	76	-51.7	-83.9	175	6
2023-08-31T12:00	18280	75	-51.9	-84.0	172	6
2023-08-31T12:00	18303	75	-52.1	-84.2	168	6
2023-08-31T12:00	18327	75	-52.2	-84.2	166	6
2023-08-31T12:00	18350	75	-52.0	-84.1	166	6
2023-08-31T12:00	18371	74	-51.8	-84.6	167	6
2023-08-31T12:00	18394	74	-51.6	-84.5	170	7
2023-08-31T12:00	18417	74	-51.6	-84.5	173	7
2023-08-31T12:00	18436	74	-51.7	-84.5	176	7
2023-08-31T12:00	18464	73	-51.7	-84.5	178	7
2023-08-31T12:00	18487	73	-51.9	-84.0	181	8
2023-08-31T12:00	18510	73	-52.1	-84.2	184	8
2023-08-31T12:00	18533	73	-52.2	-84.2	187	8
2023-08-31T12:00	18558	72	-52.4	-84.4	191	8
2023-08-31T12:00	18581	72	-52.5	-84.4	196	8
2023-08-31T12:00	18605	72	-52.6	-84.5	201	8
2023-08-31T12:00	18627	72	-52.7	-84.6	207	8
2023-08-31T12:00	18652	71	-52.8	-84.7	213	8
2023-08-31T12:00	18677	71	-52.8	-84.7	218	8
2023-08-31T12:00	18704	71	-53.0	-84.8	224	8
2023-08-31T12:00	18724	70	-53.1	-84.9	228	8
2023-08-31T12:00	18746	70	-53.1	-84.9	232	8
2023-08-31T12:00	18769	70	-53.1	-84.9	235	8
2023-08-31T12:00	18790	70	-53.0	-84.8	237	8
2023-08-31T12:00	18814	69	-52.9	-84.7	238	8
2023-08-31T12:00	18837	69	-52.6	-85.2	239	7
2023-08-31T12:00	18860	69	-52.1	-84.8	239	7
2023-08-31T12:00	18886	69	-51.9	-84.7	238	6
2023-08-31T12:00	18906	68	-51.7	-84.5	235	5
2023-08-31T12:00	18931	68	-51.7	-84.5	232	4
2023-08-31T12:00	18956	68	-51.7	-84.5	226	4
2023-08-31T12:00	18978	68	-51.8	-84.6	218	3
2023-08-31T12:00	19001	67	-51.9	-84.7	208	3
2023-08-31T12:00	19028	67	-52.0	-84.1	195	3
2023-08-31T12:00	19050	67	-52.1	-84.2	181	3
2023-08-31T12:00	19071	67	-52.2	-84.2	170	3
2023-08-31T12:00	19095	67	-52.3	-84.3	164	3
2023-08-31T12:00	19118	66	-52.3	-84.3	162	4
2023-08-31T12:00	19140	66	-52.3	-84.3	163	5
2023-08-31T12:00	19167	66	-52.5	-84.4	165	5
2023-08-31T12:00	19186	66	-52.6	-84.5	169	6
2023-08-31T12:00	19209	65	-52.8	-84.7	173	6
2023-08-31T12:00	19233	65	-52.7	-84.6	177	6
2023-08-31T12:00	19257	65	-52.4	-85.1	181	7
2023-08-31T12:00	19277	65	-52.3	-85.0	185	7
2023-08-31T12:00	19304	64	-52.2	-84.9	188	7
2023-08-31T12:00	19327	64	-52.2	-84.9	192	7
2023-08-31T12:00	19348	64	-52.1	-84.8	196	8
2023-08-31T12:00	19372	64	-51.9	-84.7	199	8
2023-08-31T12:00	19394	64	-51.9	-84.7	202	8
2023-08-31T12:00	19420	63	-51.8	-84.6	205	9
2023-08-31T12:00	19439	63	-51.8	-84.6	208	9
2023-08-31T12:00	19460	63	-52.0	-84.8	210	9
2023-08-31T12:00	19484	63	-52.0	-84.8	213	9
2023-08-31T12:00	19509	62	-52.0	-84.8	216	8
2023-08-31T12:00	19532	62	-51.9	-84.7	219	8
2023-08-31T12:00	19559	62	-51.9	-84.7	221	7
2023-08-31T12:00	19581	62	-51.9	-84.7	222	6
2023-08-31T12:00	19604	61	-52.0	-84.8	224	5
2023-08-31T12:00	19627	61	-52.1	-84.8	226	4
2023-08-31T12:00	19653	61	-52.1	-84.2	230	3
2023-08-31T12:00	19678	61	-52.1	-84.2	237	2
2023-08-31T12:00	19700	61	-52.3	-84.3	251	1
2023-08-31T12:00	19724	60	-52.3	-84.3	294	0
2023-08-31T12:00	19746	60	-52.3	-84.3	25	0
2023-08-31T12:00	19768	60	-52.4	-84.4	75	0
2023-08-31T12:00	19791	60	-52.4	-84.4	104	1
2023-08-31T12:00	19814	60	-52.3	-85.0	116	1
2023-08-31T12:00	19837	59	-52.2	-84.9	120	2
2023-08-31T12:00	19861	59	-52.2	-84.9	121	2
2023-08-31T12:00	19886	59	-52.1	-84.8	122	3
2023-08-31T12:00	19910	59	-52.2	-84.9	123	4
2023-08-31T12:00	19931	58	-52.3	-84.3	125	4
2023-08-31T12:00	19955	58	-52.4	-84.4	127	4
2023-08-31T12:00	19982	58	-52.6	-84.5	130	4
2023-08-31T12:00	20003	58	-52.6	-84.5	133	4
2023-08-31T12:00	20032	58	-52.5	-84.4	138	4
2023-08-31T12:00	20054	57	-52.4	-84.4	142	4
2023-08-31T12:00	20078	57	-52.4	-84.4	146	4
2023-08-31T12:00	20103	57	-52.5	-85.1	146	4
2023-08-31T12:00	20124	57	-52.5	-85.1	145	4
2023-08-31T12:00	20151	57	-52.2	-84.9	142	4
2023-08-31T12:00	20171	56	-52.2	-84.9	139	4
2023-08-31T12:00	20196	56	-52.2	-84.9	136	4
2023-08-31T12:00	20218	56	-52.1	-84.8	134	4
2023-08-31T12:00	20243	56	-52.1	-84.8	132	4
2023-08-31T12:00	20264	56	-52.1	-84.8	131	4
2023-08-31T12:00	20289	55	-52.2	-84.9	130	5
2023-08-31T12:00	20314	55	-52.2	-84.9	129	5
2023-08-31T12:00	20339	55	-52.2	-84.9	127	5
2023-08-31T12:00	20359	55	-52.1	-84.8	125	5
2023-08-31T12:00	20384	55	-52.1	-84.8	124	5
2023-08-31T12:00	20406	54	-52.2	-84.9	124	5
2023-08-31T12:00	20428	54	-52.2	-84.9	125	5
2023-08-31T12:00	20455	54	-52.3	-85.0	127	5
2023-08-31T12:00	20475	54	-52.3	-85.0	128	5
2023-08-31T12:00	20497	54	-52.3	-85.0	129	5
2023-08-31T12:00	20518	53	-52.1	-84.8	129	4
2023-08-31T12:00	20543	53	-52.1	-84.8	130	3
2023-08-31T12:00	20563	53	-52.0	-84.8	134	3
2023-08-31T12:00	20589	53	-52.0	-84.8	144	2
2023-08-31T12:00	20609	53	-51.9	-84.7	169	1
2023-08-31T12:00	20629	52	-51.9	-84.7	202	1
2023-08-31T12:00	20654	52	-51.9	-84.7	221	2
2023-08-31T12:00	20674	52	-51.7	-84.5	230	2
2023-08-31T12:00	20699	52	-51.6	-84.5	235	2
2023-08-31T12:00	20721	52	-51.6	-84.5	240	2
2023-08-31T12:00	20741	52	-51.7	-84.5	249	1
2023-08-31T12:00	20766	51	-51.7	-84.5	280	0
2023-08-31T12:00	20788	51	-51.8	-84.6	44	0
2023-08-31T12:00	20812	51	-51.9	-84.7	68	1
2023-08-31T12:00	20832	51	-51.9	-84.7	80	2
2023-08-31T12:00	20855	51	-51.9	-84.7	90	2
2023-08-31T12:00	20877	51	-52.0	-84.8	100	2
2023-08-31T12:00	20900	50	-51.9	-84.7	109	3
2023-08-31T12:00	20922	50	-51.7	-84.5	118	3
2023-08-31T12:00	20946	50	-51.7	-84.5	128	3
2023-08-31T12:00	20965	50	-51.9	-84.7	136	4
2023-08-31T12:00	20989	50	-52.0	-84.8	143	4
2023-08-31T12:00	21010	49	-52.0	-84.8	147	5
2023-08-31T12:00	21036	49	-52.1	-84.8	150	5
2023-08-31T12:00	21061	49	-52.2	-84.9	152	5
2023-08-31T12:00	21085	49	-52.2	-84.9	154	5
2023-08-31T12:00	21107	49	-52.0	-84.8	156	5
2023-08-31T12:00	21128	49	-51.9	-84.7	158	5
2023-08-31T12:00	21151	48	-51.9	-84.7	159	5
2023-08-31T12:00	21174	48	-51.9	-84.7	160	5
2023-08-31T12:00	21198	48	-51.9	-84.7	160	5
2023-08-31T12:00	21223	48	-51.9	-84.7	161	6
2023-08-31T12:00	21250	48	-52.0	-84.8	161	6
2023-08-31T12:00	21274	48	-51.9	-84.7	160	7
2023-08-31T12:00	21299	47	-51.7	-84.5	160	7
2023-08-31T12:00	21324	47	-51.8	-84.6	160	8
2023-08-31T12:00	21347	47	-52.0	-84.8	160	9
2023-08-31T12:00	21371	47	-52.1	-84.8	161	9
2023-08-31T12:00	21399	47	-52.1	-84.8	162	10
2023-08-31T12:00	21419	46	-52.0	-84.8	163	10
2023-08-31T12:00	21444	46	-52.0	-84.8	164	10
2023-08-31T12:00	21470	46	-51.8	-84.6	166	10
2023-08-31T12:00	21496	46	-51.7	-84.5	167	9
2023-08-31T12:00	21525	46	-51.6	-84.5	169	9
2023-08-31T12:00	21546	46	-51.5	-84.4	172	8
2023-08-31T12:00	21567	45	-51.5	-84.4	176	8
2023-08-31T12:00	21594	45	-51.5	-84.4	179	8
2023-08-31T12:00	21614	45	-51.3	-84.3	181	8
2023-08-31T12:00	21641	45	-51.1	-84.1	183	7
2023-08-31T12:00	21667	45	-51.0	-84.0	185	7
2023-08-31T12:00	21689	45	-51.1	-84.1	186	7
2023-08-31T12:00	21714	44	-51.3	-84.3	188	7
2023-08-31T12:00	21740	44	-51.5	-84.4	189	7
2023-08-31T12:00	21766	44	-51.5	-84.4	191	7
2023-08-31T12:00	21789	44	-51.5	-84.4	193	7
2023-08-31T12:00	21815	44	-51.5	-84.4	196	7
2023-08-31T12:00	21841	44	-51.4	-84.3	198	7
2023-08-31T12:00	21869	43	-51.3	-84.3	201	6
2023-08-31T12:00	21893	43	-51.3	-84.3	205	6
2023-08-31T12:00	21914	43	-51.5	-84.4	208	6
2023-08-31T12:00	21941	43	-51.4	-84.3	211	5
2023-08-31T12:00	21967	43	-51.4	-84.3	214	5
2023-08-31T12:00	21992	43	-51.4	-84.3	216	4
2023-08-31T12:00	22016	42	-51.5	-84.4	218	3
2023-08-31T12:00	22044	42	-51.5	-84.4	220	2
2023-08-31T12:00	22066	42	-51.6	-84.5	222	2
2023-08-31T12:00	22090	42	-51.8	-84.6	227	2
2023-08-31T12:00	22112	42	-51.8	-84.6	232	2
2023-08-31T12:00	22142	42	-51.8	-84.6	235	3
2023-08-31T12:00	22164	41	-51.8	-84.6	235	3
2023-08-31T12:00	22187	41	-52.0	-84.8	234	4
2023-08-31T12:00	22215	41	-52.1	-84.8	231	4
2023-08-31T12:00	22234	41	-52.2	-84.9	228	5
2023-08-31T12:00	22263	41	-52.3	-85.0	224	5
2023-08-31T12:00	22286	41	-52.2	-84.9	221	6
2023-08-31T12:00	22311	41	-51.7	-84.5	218	6
2023-08-31T12:00	22332	40	-51.5	-84.4	216	6
2023-08-31T12:00	22360	40	-51.5	-84.4	214	5
2023-08-31T12:00	22381	40	-51.6	-84.5	213	5
2023-08-31T12:00	22409	40	-51.7	-84.5	211	5
2023-08-31T12:00	22429	40	-51.8	-84.6	208	4
2023-08-31T12:00	22453	40	-51.7	-84.5	203	3
2023-08-31T12:00	22479	39	-51.7	-84.5	197	3
2023-08-31T12:00	22498	39	-51.7	-84.5	189	2
2023-08-31T12:00	22525	39	-51.7	-84.5	181	2
2023-08-31T12:00	22550	39	-51.7	-84.5	179	2
2023-08-31T12:00	22574	39	-51.7	-84.5	186	2
2023-08-31T12:00	22597	39	-51.7	-84.5	196	3
2023-08-31T12:00	22627	39	-51.6	-84.5	205	3
2023-08-31T12:00	22649	38	-51.5	-84.4	211	4
2023-08-31T12:00	22667	38	-51.5	-84.4	214	5
2023-08-31T12:00	22699	38	-51.6	-84.5	215	5
2023-08-31T12:00	22725	38	-51.6	-84.5	216	5
2023-08-31T12:00	22750	38	-51.7	-84.5	217	6
2023-08-31T12:00	22774	38	-51.6	-84.5	218	5
2023-08-31T12:00	22801	38	-51.5	-84.4	218	5
2023-08-31T12:00	22828	37	-51.4	-84.3	217	5
2023-08-31T12:00	22854	37	-51.3	-85.0	214	4
2023-08-31T12:00	22877	37	-51.4	-84.3	211	4
2023-08-31T12:00	22902	37	-51.5	-84.4	206	4
2023-08-31T12:00	22928	37	-51.5	-84.4	201	4
2023-08-31T12:00	22956	37	-51.5	-84.4	194	4
2023-08-31T12:00	22987	37	-51.5	-84.4	187	4
2023-08-31T12:00	23014	36	-51.5	-84.4	178	4
2023-08-31T12:00	23037	36	-51.6	-84.5	170	4
2023-08-31T12:00	23065	36	-51.7	-84.5	163	4
2023-08-31T12:00	23090	36	-51.8	-84.6	159	4
2023-08-31T12:00	23117	36	-51.8	-84.6	156	4
2023-08-31T12:00	23145	36	-51.8	-84.6	155	4
2023-08-31T12:00	23170	35	-51.6	-85.2	156	4
2023-08-31T12:00	23198	35	-51.3	-85.0	158	4
2023-08-31T12:00	23227	35	-51.0	-84.8	161	4
2023-08-31T12:00	23255	35	-50.9	-84.7	165	4
2023-08-31T12:00	23280	35	-50.8	-84.7	169	4
2023-08-31T12:00	23305	35	-50.8	-84.7	172	4
2023-08-31T12:00	23328	35	-50.7	-84.6	175	4
2023-08-31T12:00	23354	34	-50.6	-84.5	176	3
2023-08-31T12:00	23379	34	-50.7	-84.6	177	3
2023-08-31T12:00	23404	34	-50.6	-84.5	177	3
2023-08-31T12:00	23435	34	-50.6	-84.5	176	3
2023-08-31T12:00	23460	34	-50.6	-84.5	172	3
2023-08-31T12:00	23481	34	-50.6	-84.5	165	3
2023-08-31T12:00	23510	34	-50.4	-84.4	157	3
2023-08-31T12:00	23533	34	-50.1	-84.2	149	4
2023-08-31T12:00	23561	33	-50.1	-84.2	143	4
2023-08-31T12:00	23589	33	-50.1	-84.2	139	5
2023-08-31T12:00	23611	33	-50.2	-84.2	137	6
2023-08-31T12:00	23637	33	-50.2	-84.2	136	6
2023-08-31T12:00	23664	33	-50.3	-84.3	136	7
2023-08-31T12:00	23690	33	-50.3	-84.3	136	8
2023-08-31T12:00	23720	33	-50.4	-84.4	137	8
2023-08-31T12:00	23746	32	-50.4	-84.4	139	8
2023-08-31T12:00	23770	32	-50.5	-84.5	142	8
2023-08-31T12:00	23800	32	-50.7	-84.6	146	9
2023-08-31T12:00	23822	32	-50.8	-84.7	151	9
2023-08-31T12:00	23851	32	-50.9	-84.7	155	9
2023-08-31T12:00	23877	32	-50.8	-84.7	158	9
2023-08-31T12:00	23904	32	-50.5	-84.5	161	8
2023-08-31T12:00	23928	32	-50.2	-84.2	162	8
2023-08-31T12:00	23954	31	-50.1	-84.2	164	8
2023-08-31T12:00	23984	31	-50.2	-84.2	165	8
2023-08-31T12:00	24007	31	-50.3	-84.3	166	8
2023-08-31T12:00	24034	31	-50.4	-84.4	167	8
2023-08-31T12:00	24060	31	-50.5	-84.5	169	8
2023-08-31T12:00	24088	31	-50.6	-84.5	171	9
2023-08-31T12:00	24113	31	-50.6	-84.5	175	9
2023-08-31T12:00	24137	31	-50.6	-84.5	180	9
2023-08-31T12:00	24171	30	-50.5	-84.5	186	9
2023-08-31T12:00	24193	30	-50.2	-84.2	191	10
2023-08-31T12:00	24220	30	-49.9	-84.9	196	10
2023-08-31T12:00	24251	30	-49.7	-84.8	201	9
2023-08-31T12:00	24272	30	-49.7	-84.8	206	9
2023-08-31T12:00	24300	30	-49.5	-84.6	210	8
2023-08-31T12:00	24327	30	-49.6	-84.7	213	8
2023-08-31T12:00	24352	30	-49.7	-84.8	216	8
2023-08-31T12:00	24385	29	-49.7	-84.8	216	7
2023-08-31T12:00	24406	29	-49.7	-83.9	215	7
2023-08-31T12:00	24437	29	-49.7	-83.9	212	7
2023-08-31T12:00	24462	29	-49.7	-83.9	208	7
2023-08-31T12:00	24491	29	-49.8	-84.0	205	7
2023-08-31T12:00	24522	29	-49.9	-84.0	204	7
2023-08-31T12:00	24548	29	-49.9	-84.0	205	7
2023-08-31T12:00	24574	29	-49.7	-84.8	208	7
2023-08-31T12:00	24607	28	-49.5	-84.6	212	7
2023-08-31T12:00	24629	28	-49.4	-84.6	217	7
2023-08-31T12:00	24660	28	-49.5	-84.6	222	7
2023-08-31T12:00	24682	28	-49.6	-84.7	225	8
2023-08-31T12:00	24707	28	-49.7	-83.9	228	7
2023-08-31T12:00	24737	28	-49.8	-84.0	230	7
2023-08-31T12:00	24764	28	-49.7	-83.9	230	7
2023-08-31T12:00	24791	28	-49.6	-84.7	227	7
2023-08-31T12:00	24815	28	-49.5	-84.6	224	7
2023-08-31T12:00	24844	27	-49.5	-84.6	219	7
2023-08-31T12:00	24873	27	-49.5	-84.6	216	7
2023-08-31T12:00	24900	27	-49.3	-84.5	215	7
2023-08-31T12:00	24916	27	-49.3	-84.5	215	7
2023-08-31T12:00	24947	27	-49.3	-84.5	216	6
2023-08-31T12:00	24970	27	-49.4	-84.6	217	6
2023-08-31T12:00	24992	27	-49.5	-84.6	218	5
2023-08-31T12:00	25018	27	-49.6	-84.7	218	5
2023-08-31T12:00	25049	27	-49.6	-84.7	217	5
2023-08-31T12:00	25069	27	-49.4	-84.6	214	5
2023-08-31T12:00	25093	26	-49.3	-84.5	211	5
2023-08-31T12:00	25120	26	-49.2	-84.4	208	5
2023-08-31T12:00	25143	26	-49.2	-84.4	208	5
2023-08-31T12:00	25168	26	-49.1	-84.3	209	6
2023-08-31T12:00	25186	26	-49.1	-84.3	213	6
2023-08-31T12:00	25219	26	-49.1	-84.3	218	6
2023-08-31T12:00	25242	26	-49.1	-84.3	223	6
2023-08-31T12:00	25264	26	-49.0	-84.3	229	6
2023-08-31T12:00	25290	26	-48.9	-84.2	233	6
2023-08-31T12:00	25311	26	-48.9	-84.2	237	6
2023-08-31T12:00	25340	25	-48.9	-84.2	241	6
2023-08-31T12:00	25364	25	-48.9	-84.2	246	7
2023-08-31T12:00	25387	25	-48.8	-84.1	251	7
2023-08-31T12:00	25411	25	-48.7	-84.1	257	7
2023-08-31T12:00	25433	25	-48.6		261	8
2023-08-31T12:00	25457	25	-48.5	-83.9	265	8
2023-08-31T12:00	25489	25	-48.3	-83.8	268	8
2023-08-31T12:00	25510	25	-48.1	-84.7	270	8
2023-08-31T12:00	25537	25	-47.9	-84.6	272	7
2023-08-31T12:00	25566	25	-47.8	-84.5	274	7
2023-08-31T12:00	25585	25	-47.7	-84.4	277	6
2023-08-31T12:00	25614	24	-47.6	-84.3	279	6
2023-08-31T12:00	25638	24	-47.4	-84.2	280	6
2023-08-31T12:00	25668	24	-47.3	-84.1	281	5
2023-08-31T12:00	25690	24	-47.2	-84.1	280	5
2023-08-31T12:00	25718	24	-47.0	-83.9	280	5
2023-08-31T12:00	25751	24	-46.8	-83.8	279	4
2023-08-31T12:00	25777	24	-46.6	-83.6	277	4
2023-08-31T12:00	25807	24	-46.3	-83.4	275	4
2023-08-31T12:00	25833	24	-45.9	-83.2	269	3
2023-08-31T12:00	25855	24	-45.5	-82.9	261	3
2023-08-31T12:00	25882	23	-45.1	-82.6	248	2
2023-08-31T12:00	25908	23	-44.9	-82.5	231	2
2023-08-31T12:00	25937	23	-44.8	-82.4	213	2
2023-08-31T12:00	25960	23	-44.8	-82.4	198	2
2023-08-31T12:00	25982	23	-44.7	-82.3	190	3
2023-08-31T12:00	26014	23	-44.8	-82.4	186	4
2023-08-31T12:00	26044	23	-44.8	-82.4	186	5
2023-08-31T12:00	26077	23	-44.8	-82.4	186	5
2023-08-31T12:00	26104	23	-44.8	-82.4	188	6
2023-08-31T12:00	26131	23	-44.7	-82.3	189	6
2023-08-31T12:00	26156	23	-44.8	-82.4	191	6
2023-08-31T12:00	26182	22	-44.8	-82.4	193	6
2023-08-31T12:00	26212	22	-44.7	-82.3	195	5
2023-08-31T12:00	26241	22	-44.6	-82.2	197	5
2023-08-31T12:00	26265	22	-44.5	-82.2	198	4
2023-08-31T12:00	26298	22	-44.6	-82.2	196	4
2023-08-31T12:00	26323	22	-44.6	-82.2	191	4
2023-08-31T12:00	26348	22	-44.6	-82.2	183	4
2023-08-31T12:00	26381	22	-44.6	-82.2	174	4
2023-08-31T12:00	26405	22	-44.6	-82.2	164	4
2023-08-31T12:00	26432	22	-44.7	-82.3	154	3
2023-08-31T12:00	26448	22	-44.8	-82.4	145	3
2023-08-31T12:00	26484	21	-44.9	-82.5	136	4
2023-08-31T12:00	26507	21	-44.9	-82.5	131	4
2023-08-31T12:00	26536	21	-45.0	-82.5	129	4
2023-08-31T12:00	26563	21	-45.2	-82.7	130	5
2023-08-31T12:00	26588	21	-45.3	-82.7	133	5
2023-08-31T12:00	26620	21	-45.3	-82.7	137	5
2023-08-31T12:00	26648	21	-45.4	-82.8	142	5
2023-08-31T12:00	26669	21	-45.5	-82.9	147	6
2023-08-31T12:00	26691	21	-45.5	-82.9	151	6
2023-08-31T12:00	26729	21	-45.6	-82.9	155	5
2023-08-31T12:00	26748	21	-45.7	-83.0	157	5
2023-08-31T12:00	26778	21	-45.6	-82.9	159	6
2023-08-31T12:00	26804	20	-45.4	-82.8	161	6
2023-08-31T12:00	26834	20	-45.1	-82.6	160	6
2023-08-31T12:00	26855	20	-44.8	-82.4	159	6
2023-08-31T12:00	26883	20	-44.7	-82.3	156	6
2023-08-31T12:00	26905	20	-44.6	-82.2	151	7
2023-08-31T12:00	26940	20	-44.6	-82.2	146	7
2023-08-31T12:00	26960	20	-44.6	-82.2	141	7
2023-08-31T12:00	26993	20	-44.5	-82.2	137	8
2023-08-31T12:00	27020	20	-44.4	-82.1	135	8
2023-08-31T12:00	27051	20	-44.2	-82.0	135	8
2023-08-31T12:00	27072	20	-44.1	-81.9	137	8
2023-08-31T12:00	27102	20	-44.1	-81.9	139	9
2023-08-31T12:00	27130	19	-44.2	-82.0	142	8
2023-08-31T12:00	27152	19	-44.3	-82.0	145	8
2023-08-31T12:00	27177	19	-44.3	-82.0	149	8
2023-08-31T12:00	27208	19	-44.3	-82.0	152	8
2023-08-31T12:00	27233	19	-44.3	-82.0	156	8
2023-08-31T12:00	27269	19	-44.4	-82.1	160	8
2023-08-31T12:00	27289	19	-44.6	-82.2	164	8
2023-08-31T12:00	27332	19	-44.7	-82.3	169	8
2023-08-31T12:00	27359	19	-44.9	-82.5	174	8
2023-08-31T12:00	27382	19	-45.0	-82.5	179	8
2023-08-31T12:00	27414	19	-45.0	-82.5	182	7
2023-08-31T12:00	27441	19	-44.9	-82.5	184	7
2023-08-31T12:00	27468	19	-44.9	-82.5	185	7
2023-08-31T12:00	27491	18	-44.9	-82.5	186	6
2023-08-31T12:00	27526	18	-44.9	-82.5	186	6
2023-08-31T12:00	27558	18	-44.8	-82.4	186	6
2023-08-31T12:00	27579	18	-44.8	-82.4	186	6
2023-08-31T12:00	27618	18	-44.8	-82.4	184	6
2023-08-31T12:00	27642	18	-44.8	-82.4	181	6
2023-08-31T12:00	27672	18	-44.8	-82.4	180	6
2023-08-31T12:00	27704	18	-44.9	-82.5	180	6
2023-08-31T12:00	27727	18	-44.9	-82.5	181	7
2023-08-31T12:00	27753	18	-44.9	-82.5	184	7
2023-08-31T12:00	27780	18	-44.8	-82.4	188	8
2023-08-31T12:00	27807	18	-45.0	-82.5	192	8
2023-08-31T12:00	27855	18	-45.1	-82.6	196	8
2023-08-31T12:00	27870	17	-45.1	-82.6	201	8
2023-08-31T12:00	27898	17	-44.8	-82.4	207	8
2023-08-31T12:00	27918	17	-44.6	-82.2	212	8
2023-08-31T12:00	27947	17	-44.6	-82.2	216	7
2023-08-31T12:00	27984	17	-44.6	-82.2	218	7
2023-08-31T12:00	28007	17	-44.6	-82.2	219	7
2023-08-31T12:00	28027	17	-44.7	-82.3	217	6
2023-08-31T12:00	28051	17	-44.6	-82.2	212	5
2023-08-31T12:00	28081	17	-44.5	-82.2	206	5
2023-08-31T12:00	28102	17	-44.4	-82.1	198	5
2023-08-31T12:00	28136	17	-44.3	-82.0	190	4
2023-08-31T12:00	28154	17	-44.2	-82.0	183	4
2023-08-31T12:00	28187	17	-44.1	-81.9	178	4
2023-08-31T12:00	28220	17	-43.9	-81.8	174	4
2023-08-31T12:00	28259	16	-43.7	-81.6	172	3
2023-08-31T12:00	28287	16	-43.5	-81.5	170	2
2023-08-31T12:00	28315	16	-43.4	-81.4	163	2
2023-08-31T12:00	28345	16	-43.3	-81.3	152	2
2023-08-31T12:00	28360	16	-43.1	-81.2	142	3
2023-08-31T12:00	28393	16	-42.8	-81.0	135	3
2023-08-31T12:00	28411	16	-42.6	-80.8	133	4
2023-08-31T12:00	28441	16	-42.5	-80.8	134	4
2023-08-31T12:00	28471	16	-42.4	-80.7	137	5
2023-08-31T12:00	28488	16	-42.4	-80.7	142	5
2023-08-31T12:00	28516	16	-42.5	-80.8	146	6
2023-08-31T12:00	28541	16	-42.7	-80.9	149	6
2023-08-31T12:00	28584	16	-42.8	-81.0	152	7
2023-08-31T12:00	28590	16	-43.0	-81.1	155	8
2023-08-31T12:00	28631	16	-43.2	-81.3	157	8
2023-08-31T12:00	28649	16	-43.3	-81.3	159	8
2023-08-31T12:00	28679	15	-43.2	-81.3	161	7
2023-08-31T12:00	28709	15	-43.0	-81.1	164	7
2023-08-31T12:00	28726	15	-42.9	-81.1	166	7
2023-08-31T12:00	28763	15	-43.0	-81.1	168	7
2023-08-31T12:00	28787	15	-43.0	-81.1	170	7
2023-08-31T12:00	28816	15	-43.1	-81.2	171	7
2023-08-31T12:00	28834	15	-43.2	-81.3	172	8
2023-08-31T12:00	28852	15	-43.4	-81.4	172	8
2023-08-31T12:00	28891	15	-43.6	-81.5	172	8
2023-08-31T12:00	28912	15	-43.7	-81.6	173	9
2023-08-31T12:00	28939	15	-43.6	-81.5	173	9
2023-08-31T12:00	28969	15	-43.6	-81.5	175	9
2023-08-31T12:00	28992	15	-43.6	-81.5	177	9
2023-08-31T12:00	29023	15	-43.4	-81.4	179	9
2023-08-31T12:00	29042	15	-43.3	-81.3	182	8
2023-08-31T12:00	29083	15	-43.4	-81.4	184	8
2023-08-31T12:00	29111	15	-43.5	-81.5	186	7
2023-08-31T12:00	29137	14	-43.6	-81.5	187	7
2023-08-31T12:00	29152	14	-43.6	-81.5	189	7
2023-08-31T12:00	29195	14	-43.6	-81.5	191	7
2023-08-31T12:00	29214	14	-43.6	-81.5	193	8
2023-08-31T12:00	29236	14	-43.6	-81.5	194	8
2023-08-31T12:00	29276	14	-43.6	-81.5	195	8
2023-08-31T12:00	29310	14	-43.6	-81.5	194	9
2023-08-31T12:00	29339	14	-43.5	-81.5	192	9
2023-08-31T12:00	29353	14	-43.4	-81.4	190	9
2023-08-31T12:00	29399	14	-43.4	-81.4	187	9
2023-08-31T12:00	29417	14	-43.4	-81.4	185	10
2023-08-31T12:00	29453	14	-43.3	-81.3	184	10
2023-08-31T12:00	29470	14	-43.1	-81.2	184	10
2023-08-31T12:00	29499	14	-42.8	-81.0	185	9
2023-08-31T12:00	29531	14	-42.6	-80.8	187	9
2023-08-31T12:00	29564	14	-42.7	-80.9	190	9
2023-08-31T12:00	29574	14	-42.8	-81.0	193	9
2023-08-31T12:00	29604	13	-42.9	-81.1	196	8
2023-08-31T12:00	29642	13	-43.0	-81.1	200	8
2023-08-31T12:00	29673	13	-43.0	-81.1	204	8
2023-08-31T12:00	29693	13	-43.1	-81.2	209	7
2023-08-31T12:00	29731	13	-43.0	-81.1	214	7
2023-08-31T12:00	29735	13	-43.0	-81.1	221	7
2023-08-31T12:00	29771	13	-43.0	-81.1	229	6
2023-08-31T12:00	29800	13	-43.0	-81.1	237	6
2023-08-31T12:00	29826	13	-42.9	-81.1	243	6
2023-08-31T12:00	29850	13	-42.9	-81.1	247	7
2023-08-31T12:00	29887	13	-42.9	-81.1	249	7
2023-08-31T12:00	29914	13	-43.0	-81.1	250	7
2023-08-31T12:00	29932	13	-42.9	-81.1	251	7
2023-08-31T12:00	29962	13	-42.8	-81.0	253	7
2023-08-31T12:00	29979	13	-42.6	-80.8	256	6
2023-08-31T12:00	30008	13	-42.4	-80.7	262	6
2023-08-31T12:00	30036	13	-42.2	-80.6	270	5
2023-08-31T12:00	30077	13	-42.0	-80.4	280	5
2023-08-31T12:00	30083	13	-41.8	-80.3	291	4
2023-08-31T12:00	30105	13	-41.4	-80.0	300	5
2023-08-31T12:00	30144	12	-41.2	-79.9	307	5
2023-08-31T12:00	30162	12	-41.1	-79.8	312	5
2023-08-31T12:00	30192	12	-41.1	-79.8	317	5
2023-08-31T12:00	30205	12	-41.1	-79.8	323	5
2023-08-31T12:00	30241	12	-41.1	-79.8	328	4
2023-08-31T12:00	30251	12	-41.1	-79.8	335	4
2023-08-31T12:00	30294	12	-41.1	-79.8	342	4
2023-08-31T12:00	30309	12	-41.2	-79.9	350	4
2023-08-31T12:00	30329	12	-41.3	-79.9	357	4
2023-08-31T12:00	30350	12	-41.4	-80.0	4	4
2023-08-31T12:00	30388	12	-41.4	-80.0	10	4
2023-08-31T12:00	30411	12	-41.5	-80.1	18	4
2023-08-31T12:00	30440	12	-41.4	-80.0	26	4
2023-08-31T12:00	30456	12	-41.4	-80.0	37	4
2023-08-31T12:00	30477	12	-41.3	-79.9	50	4
2023-08-31T12:00	30520	12	-41.1	-79.8	64	3
2023-08-31T12:00	30543	12	-40.9	-79.7	79	3
2023-08-31T12:00	30572	12	-40.6	-79.5	91	3
2023-08-31T12:00	30584	12	-40.5	-79.4	101	3
2023-08-31T12:00	30606	12	-40.5	-79.4	110	2
2023-08-31T12:00	30637	12	-40.7	-79.5	121	2
2023-08-31T12:00	30653	12	-40.8	-79.6	134	2
2023-08-31T12:00	30691	12	-40.8	-79.6	150	2
2023-08-31T12:00	30707	11	-40.7	-79.5	164	2
2023-08-31T12:00	30739	11	-40.7	-79.5	176	3
2023-08-31T12:00	30773	11	-40.6	-79.5	185	3
2023-08-31T12:00	30791	11	-40.6	-79.5	193	3
2023-08-31T12:00	30810	11	-40.6	-79.5	199	4
2023-08-31T12:00	30825	11	-40.4	-79.3	205	4
2023-08-31T12:00	30870	11	-40.2	-79.2	208	4
2023-08-31T12:00	30896	11	-40.2	-79.2	210	4
2023-08-31T12:00	30910	11	-40.2	-79.2	210	3
2023-08-31T12:00	30945	11	-40.2	-79.2	209	3
2023-08-31T12:00	30962	11	-40.1	-79.1	207	2
2023-08-31T12:00	31006	11	-40.1	-79.1	207	2
2023-08-31T12:00	31043	11	-40.2	-79.2	229	1
2023-08-31T12:00	31074	11	-40.3	-79.2	260	1
2023-08-31T12:00	31101	11	-40.3	-79.2	297	1
2023-08-31T12:00	31139	11	-40.1	-79.1	328	1
2023-08-31T12:00	31163	11	-40.0	-79.0	3	0
2023-08-31T12:00	31185	11	-40.0	-79.0	45	1
2023-08-31T12:00	31223	11	-40.0	-79.0	87	1
2023-08-31T12:00	31252	11	-40.1	-79.1	112	1
2023-08-31T12:00	31267	11	-40.2	-79.2	126	2
2023-08-31T12:00	31314	11	-40.3	-79.2	135	2
2023-08-31T12:00	31334	10	-40.3	-79.2	141	3
2023-08-31T12:00	31337	10	-40.2	-79.2	145	4
2023-08-31T12:00	31378	10	-40.2	-79.2	149	4
2023-08-31T12:00	31418	10	-40.1	-79.1	152	5
2023-08-31T12:00	31438	10	-40.2	-79.2	155	6
2023-08-31T12:00	31450	10	-40.3	-79.2	158	6
2023-08-31T12:00	31490	10	-40.4	-79.3	161	7
2023-08-31T12:00	31523	10	-40.5	-79.4	164	7
2023-08-31T12:00	31552	10	-40.7	-79.5	168	8
2023-08-31T12:00	31583	10	-40.8	-79.6	173	8
2023-08-31T12:00	31594	10	-40.9	-79.7	177	9
2023-08-31T12:00	31626	10	-40.8	-79.6	182	9
2023-08-31T12:00	31666	10	-40.6	-79.5	186	9
2023-08-31T12:00	31684	10	-40.5	-79.4	190	9
2023-08-31T12:00	31713	10	-40.5	-79.4	194	9
2023-08-31T12:00	31768	10	-40.5	-79.4	198	9
2023-08-31T12:00	31800	10	-40.8	-79.6	207	9
2023-08-31T12:00	31816	10	-40.9	-79.7	211	9
2023-08-31T12:00	31849	10	-40.9	-79.7	216	9
2023-08-31T12:00	31864	10	-40.7	-79.5	219	8
2023-08-31T12:00	31911	10	-40.3	-79.2	223	8
2023-08-31T12:00	31913	10	-40.0	-79.0	227	8
2023-08-31T12:00	31949	10	-39.8	-78.9	232	7
2023-08-31T12:00	31985	10	-39.7	-78.8	236	7
2023-08-31T12:00	31998	9	-39.5	-78.7	237	6
2023-08-31T12:00	32019	9	-39.3	-78.5	236	6
2023-08-31T12:00	32055	9	-39.3	-78.5	232	5
2023-08-31T12:00	32083	9	-39.2	-78.5	227	5
2023-08-31T12:00	32096	9	-39.1	-78.4	223	4
2023-08-31T12:00	32122	9	-39.0	-78.3	220	4
2023-08-31T12:00	32142	9	-39.0	-78.3	217	3
2023-08-31T12:00	32159	9	-38.9	-78.3	215	3
2023-08-31T12:00	32202	9	-38.9	-78.3	208	2
2023-08-31T12:00	32228	9	-38.8	-78.2	196	2
2023-08-31T12:00	32259	9	-38.6	-78.1	181	2
2023-08-31T12:00	32287	9	-38.6	-78.1	170	2
2023-08-31T12:00	32296	9	-38.5	-78.0	165	2
2023-08-31T12:00	32328	9	-38.4	-77.9	168	2
2023-08-31T12:00	32377	9	-38.4	-77.9	178	1
2023-08-31T12:00	32382	9	-38.3	-77.9	193	1
2023-08-31T12:00	32405	9	-38.3	-77.9	208	1
2023-08-31T12:00	32422	9	-38.3	-77.9	219	1
2023-08-31T12:00	32446	9	-38.4	-77.9	223	1
2023-08-31T12:00	32483	9	-38.3	-77.9	220	1
2023-08-31T12:00	32525	9	-38.1	-77.7	195	1
2023-08-31T12:00	32537	9	-38.0	-77.6	135	1
2023-08-31T12:00	32557	9	-38.1	-77.7	109	1
2023-08-31T12:00	32577	9	-38.2	-77.8	104	1
2023-08-31T12:00	32613	9	-38.2	-77.8	103	2
2023-08-31T12:00	32655	9	-38.2	-77.8	104	2
2023-08-31T12:00	32660	9	-38.2	-77.8	107	2
2023-08-31T12:00	32718	9	-38.2	-77.8	112	2
2023-08-31T12:00	32744	9	-38.4	-77.9	121	3
2023-08-31T12:00	32771	8	-38.6	-78.1	124	3
2023-08-31T12:00	32804	8	-38.7	-78.1	126	4
2023-08-31T12:00	32822	8	-38.8	-78.2	127	5
2023-08-31T12:00	32856	8	-38.9	-78.3	128	5
2023-08-31T12:00	32878	8	-39.0	-78.3	130	5
2023-08-31T12:00	32897	8	-39.0	-78.3	133	5
2023-08-31T12:00	32933	8	-39.1	-78.4	137	5
2023-08-31T12:00	32963	8	-39.1	-78.4	142	5
2023-08-31T12:00	32983	8	-39.3	-78.5	149	5
2023-08-31T12:00	33009	8	-39.4	-78.6	156	5
2023-08-31T12:00	33018	8	-39.6	-78.8	163	5
2023-08-31T12:00	33065	8	-39.9	-79.0	169	6
2023-08-31T12:00	33091	8	-40.0	-79.0	175	6
2023-08-31T12:00	33102	8	-40.2	-79.2	182	6
2023-08-31T12:00	33157	8	-40.4	-79.3	187	7
2023-08-31T12:00	33173	8	-40.4	-79.3	196	7
2023-08-31T12:00	33218	8	-40.3	-79.2	198	7
2023-08-31T12:00	33232	8	-40.1	-79.1	201	7
2023-08-31T12:00	33237	8	-39.9	-79.0	203	6
2023-08-31T12:00	33272	8	-39.8	-78.9	207	6
2023-08-31T12:00	33305	8	-39.8	-78.9	211	6
2023-08-31T12:00	33328	8	-39.8	-78.9	215	5
2023-08-31T12:00	33351	8	-39.8	-78.9	218	5
2023-08-31T12:00	33382	8	-39.7	-78.8	221	5
2023-08-31T12:00	33412	8	-39.5	-78.7	223	5
2023-08-31T12:00	33445	8	-39.4	-78.6	227	5
2023-08-31T12:00	33466	8	-39.3	-78.5	241	4
2023-08-31T12:00	33511	8	-39.3	-78.5	249	4
2023-08-31T12:00	33542	8	-39.3	-78.5	261	5
2023-08-31T12:00	33581	8	-39.3	-78.5	264	5
2023-08-31T12:00	33622	8	-39.2	-78.5	265	6
2023-08-31T12:00	33626	7	-39.2	-78.5	264	6
2023-08-31T12:00	33668	7	-39.3	-78.5	262	6
2023-08-31T12:00	33688	7	-39.4	-78.6	258	6
2023-08-31T12:00	33723	7	-39.5	-78.7	254	7
2023-08-31T12:00	33748	7	-39.4	-78.6	252	7
2023-08-31T12:00	33769	7	-39.4	-78.6	250	8
2023-08-31T12:00	33781	7	-39.2	-78.5	250	8
2023-08-31T12:00	33799	7	-39.0	-78.3	251	9
2023-08-31T12:00	33841	7	-38.7	-78.1	253	9
2023-08-31T12:00	33853	7	-38.4	-77.9	256	9
2023-08-31T12:00	33876	7	-38.2	-77.8	260	9
2023-08-31T12:00	33918	7	-38.0	-77.6	264	9
2023-08-31T12:00	33933	7	-38.0	-77.6	268	9
2023-08-31T12:00	33968	7	-38.0	-77.6	272	9
2023-08-31T12:00	33983	7	-38.0	-77.6	277	9
2023-08-31T12:00	34003	7	-37.9	-77.6	281	8
2023-08-31T12:00	34062	7	-37.8	-77.5	286	8
2023-08-31T12:00	34075	7	-37.7	-77.4	292	7
2023-08-31T12:00	34090	7	-37.6	-77.4	299	7
2023-08-31T12:00	34152	7	-37.6	-77.4	310	7
2023-08-31T12:00	34175	7	-37.5	-77.3	311	8
2023-08-31T12:00	34190	7	-37.4	-77.2	309	8
2023-08-31T18:00	-999					
2023-08-31T18:00	131	995	13.9	10.8	223	3
2023-08-31T18:00	157	992	13.7	10.6	222	4
2023-08-31T18:00	184	989	13.5	10.5	223	5
2023-08-31T18:00	212	986	13.2	10.2	224	6
2023-08-31T18:00	236	983	13.3	9.7	226	7
2023-08-31T18:00	257	981	13.3	9.4	228	7
2023-08-31T18:00	281	978	13.2	9.3	230	8
2023-08-31T18:00	298	976	12.9	9.2	234	8
2023-08-31T18:00	322	973	12.9	8.6	238	8
2023-08-31T18:00	347	970	12.8	8.6	242	9
2023-08-31T18:00	370	968	12.6	8.4	245	10
2023-08-31T18:00	396	965	12.5	7.8	247	10
2023-08-31T18:00	424	961	12.6	7.1	249	11
2023-08-31T18:00	452	958	12.4	7.1	251	12
2023-08-31T18:00	480	955	12.1	6.9	253	12
2023-08-31T18:00	509	952	11.9	6.8	256	13
2023-08-31T18:00	534	949	11.6	6.6	258	13
2023-08-31T18:00	564	946	11.5	6.5	260	13
2023-08-31T18:00	591	942	11.3	6.4	261	14
2023-08-31T18:00	624	939	11.0	6.4	262	14
2023-08-31T18:00	648	936	10.8	6.3	262	14
2023-08-31T18:00	667	934	10.6	6.3	262	15
2023-08-31T18:00	689	931	10.5	6.2	262	15
2023-08-31T18:00	713	929	10.3	6.3	261	15
2023-08-31T18:00	737	926	10.1	6.2	261	15
2023-08-31T18:00	755	924	9.9	6.2	260	15
2023-08-31T18:00	780	921	9.7	6.1	261	15
2023-08-31T18:00	807	918	9.4	6.0	262	15
2023-08-31T18:00	834	915	9.1	6.0	264	15
2023-08-31T18:00	859	913	8.9	5.9	265	14
2023-08-31T18:00	884	910	8.7	5.8	267	14
2023-08-31T18:00	911	907	8.4	5.7	268	14
2023-08-31T18:00	935	904	8.2	5.5	269	14
2023-08-31T18:00	960	902	8.0	5.5	269	14
2023-08-31T18:00	986	899	7.8	5.3	268	14
2023-08-31T18:00	1014	896	7.6	5.2	267	14
2023-08-31T18:00	1039	893	7.4	5.1	266	15
2023-08-31T18:00	1060	891	7.3	4.8	265	15
2023-08-31T18:00	1082	888	7.2	4.6	265	15
2023-08-31T18:00	1112	885	7.0	4.4	264	16
2023-08-31T18:00	1137	882	6.7	4.2	264	16
2023-08-31T18:00	1160	880	6.5	4.0	263	15
2023-08-31T18:00	1181	878	6.3	4.0	263	15
2023-08-31T18:00	1203	875	6.2	3.8	263	15
2023-08-31T18:00	1227	873	6.3	3.0	263	15
2023-08-31T18:00	1250	870	6.2	2.9	263	16
2023-08-31T18:00	1274	868	6.0	2.8	263	16
2023-08-31T18:00	1298	865	5.8	2.7	262	16
2023-08-31T18:00	1322	863	5.7	2.4	261	15
2023-08-31T18:00	1345	860	5.5	2.2	261	15
2023-08-31T18:00	1370	858	5.4	2.0	260	15
2023-08-31T18:00	1393	855	5.3	1.8	259	15
2023-08-31T18:00	1418	853	5.1	1.9	257	14
2023-08-31T18:00	1443	850	5.0	1.6	256	14
2023-08-31T18:00	1469	847	4.8	1.3	255	14
2023-08-31T18:00	1495	845	4.7	1.4	253	14
2023-08-31T18:00	1517	842	4.5	1.1	253	14
2023-08-31T18:00	1535	840	4.4	1.2	253	14
2023-08-31T18:00	1554	838	4.2	1.0	254	15
2023-08-31T18:00	1574	836	4.0	0.8	255	15
2023-08-31T18:00	1599	834	3.8	0.8	257	15
2023-08-31T18:00	1621	832	3.6	0.8	258	15
2023-08-31T18:00	1643	829	3.5	0.5	258	15
2023-08-31T18:00	1668	827	3.3	0.6	258	15
2023-08-31T18:00	1690	824	3.0	0.6	256	15
2023-08-31T18:00	1716	822	2.9	0.3	255	14
2023-08-31T18:00	1745	819	2.7	0.1	254	14
2023-08-31T18:00	1764	817	2.5	0.0	254	14
2023-08-31T18:00	1785	815	2.4	-0.3	254	14
2023-08-31T18:00	1805	813	2.2	-0.8	254	15
2023-08-31T18:00	1826	811	2.0	-1.4	255	15
2023-08-31T18:00	1854	808	1.8	-1.5	255	15
2023-08-31T18:00	1879	806	1.5	-1.5	255	15
2023-08-31T18:00	1906	803	1.3	-1.2	255	15
2023-08-31T18:00	1932	800	1.1	-1.3	254	15
2023-08-31T18:00	1954	798	0.9	-2.0	252	15
2023-08-31T18:00	1977	796	0.7	-2.1	250	15
2023-08-31T18:00	1999	793	0.5	-2.1	249	15
2023-08-31T18:00	2027	791	0.4	-1.8	248	15
2023-08-31T18:00	2051	788	0.3	-1.5	248	15
2023-08-31T18:00	2075	786	0.3	-2.1	248	16
2023-08-31T18:00	2097	784	0.2	-2.3	249	16
2023-08-31T18:00	2117	782	0.5	-3.1	249	16
2023-08-31T18:00	2141	780	0.3	-2.8	250	16
2023-08-31T18:00	2171	777	0.0	-2.6	251	16
2023-08-31T18:00	2194	774	-0.2	-2.5	252	16
2023-08-31T18:00	2224	772	-0.3	-1.7	253	16
2023-08-31T18:00	2252	769	-0.5	-2.2	254	16
2023-08-31T18:00	2276	767	-0.7	-2.5	255	16
2023-08-31T18:00	2304	764	-1.0	-2.5	255	16
2023-08-31T18:00	2337	761	-1.1	-2.8	256	16
2023-08-31T18:00	2361	758	-1.2	-3.0	256	16
2023-08-31T18:00	2387	756	-1.5		257	15
2023-08-31T18:00	2409	754	-1.5	-3.6	257	15
2023-08-31T18:00	2432	752	-1.6	-4.0	257	15
2023-08-31T18:00	2455	750	-1.8	-4.2	257	15
2023-08-31T18:00	2481	747	-2.0	-4.3	258	15
2023-08-31T18:00	2507	745	-2.1	-4.3	258	15
2023-08-31T18:00	2531	742	-2.3	-4.2	258	16
2023-08-31T18:00	2560	740	-2.6	-4.3	258	16
2023-08-31T18:00	2586	737	-2.8	-4.3	257	16
2023-08-31T18:00	2611	735	-2.9	-4.2	257	16
2023-08-31T18:00	2637	733	-3.1	-4.2	256	16
2023-08-31T18:00	2663	730	-3.2	-4.4	255	16
2023-08-31T18:00	2691	728	-3.2	-4.5	254	16
2023-08-31T18:00	2720	725	-3.4	-5.1	253	16
2023-08-31T18:00	2752	722	-3.6	-5.3	251	16
2023-08-31T18:00	2780	720	-3.7	-5.8	249	16
2023-08-31T18:00	2809	717	-3.8	-6.4	248	16
2023-08-31T18:00	2834	715	-4.0	-6.4	248	16
2023-08-31T18:00	2857	712	-4.2	-6.5	249	16
2023-08-31T18:00	2884	710	-4.4	-6.6	249	15
2023-08-31T18:00	2909	708	-4.6	-6.7	249	15
2023-08-31T18:00	2937	705	-4.8	-6.7	248	15
2023-08-31T18:00	2969	703	-5.1	-6.8	248	16
2023-08-31T18:00	2997	700	-5.2	-7.2	248	16
2023-08-31T18:00	3030	697	-5.4	-7.3	249	16
2023-08-31T18:00	3060	694	-5.6	-7.2	250	16
2023-08-31T18:00	3089	692	-5.9	-7.2	251	16
2023-08-31T18:00	3116	689	-6.1	-7.3	252	16
2023-08-31T18:00	3149	687	-6.3	-7.7	252	17
2023-08-31T18:00	3179	684	-6.3	-8.1	252	17
2023-08-31T18:00	3209	681	-6.4	-8.3	252	17
2023-08-31T18:00	3242	678	-6.5	-8.6	252	18
2023-08-31T18:00	3273	676	-6.7	-8.9	252	18
2023-08-31T18:00	3304	673	-7.0	-9.3	253	18
2023-08-31T18:00	3335	671	-7.2	-9.4	253	18
2023-08-31T18:00	3362	668	-7.4	-9.5	254	18
2023-08-31T18:00	3388	666	-7.7	-9.6	254	17
2023-08-31T18:00	3418	663	-7.9	-9.7	255	17
2023-08-31T18:00	3444	661	-8.2	-9.7	255	17
2023-08-31T18:00	3474	659	-8.5	-9.9	255	17
2023-08-31T18:00	3504	656	-8.8	-10.0	255	17
2023-08-31T18:00	3530	654	-9.0	-10.0	255	17
2023-08-31T18:00	3559	651	-9.3	-10.2	255	18
2023-08-31T18:00	3584	649	-9.5	-10.2	255	18
2023-08-31T18:00	3614	647	-9.8	-10.2	255	18
2023-08-31T18:00	3646	644	-10.1	-10.3	255	18
2023-08-31T18:00	3675	642	-10.3	-10.4	255	18
2023-08-31T18:00	3702	639	-10.6	-10.6	256	18
2023-08-31T18:00	3727	637	-10.8	-10.9	257	18
2023-08-31T18:00	3754	635	-10.8	-11.3	258	17
2023-08-31T18:00	3786	632	-11.0	-11.5	259	17
2023-08-31T18:00	3818	630	-11.1	-12.0	260	17
2023-08-31T18:00	3848	627	-11.1	-13.2	260	17
2023-08-31T18:00	3876	625	-11.3	-13.5	260	18
2023-08-31T18:00	3905	623	-11.5	-13.7	260	18
2023-08-31T18:00	3930	621	-11.7	-14.6	260	18
2023-08-31T18:00	3958	618	-11.8	-15.2	260	18
2023-08-31T18:00	3985	616	-12.0	-15.5	261	18
2023-08-31T18:00	4012	614	-12.2	-15.7	261	18
2023-08-31T18:00	4040	612	-12.4	-16.3	261	18
2023-08-31T18:00	4077	609	-12.6	-17.1	262	18
2023-08-31T18:00	4106	607	-12.9	-17.5	262	19
2023-08-31T18:00	4134	604	-13.1	-18.5	262	19
2023-08-31T18:00	4163	602	-13.3	-19.3	263	19
2023-08-31T18:00	4188	600	-13.4	-21.9	263	19
2023-08-31T18:00	4212	598	-13.5	-22.0	264	19
2023-08-31T18:00	4240	596	-13.8	-22.1	264	18
2023-08-31T18:00	4267	594	-14.0	-22.2	264	18
2023-08-31T18:00	4293	592	-14.2	-22.3	264	18
2023-08-31T18:00	4319	590	-14.4	-23.1	264	18
2023-08-31T18:00	4341	588	-14.4	-25.2	264	18
2023-08-31T18:00	4373	586	-14.5	-25.5	265	17
2023-08-31T18:00	4401	583	-14.7	-25.9	267	17
2023-08-31T18:00	4432	581	-14.8	-26.6	269	17
2023-08-31T18:00	4460	579	-14.8	-28.3	270	18
2023-08-31T18:00	4489	577	-14.7	-30.3	272	18
2023-08-31T18:00	4519	575	-14.9	-30.3	273	19
2023-08-31T18:00	4540	573	-15.1	-28.9	274	19
2023-08-31T18:00	4566	571	-15.4	-28.0	274	18
2023-08-31T18:00	4594	569	-15.6	-29.2	274	18
2023-08-31T18:00	4622	567	-15.7	-35.5	274	18
2023-08-31T18:00	4653	564	-16.0	-35.6	274	17
2023-08-31T18:00	4677	562	-16.2	-30.6	274	17
2023-08-31T18:00	4706	560	-16.5	-25.5	275	17
2023-08-31T18:00	4730	559	-16.6	-21.8	275	16
2023-08-31T18:00	4755	557	-16.8	-20.4	276	16
2023-08-31T18:00	4780	555	-17.0	-20.5	276	16
2023-08-31T18:00	4808	553	-17.3	-20.6	276	17
2023-08-31T18:00	4838	551	-17.5	-20.5	276	17
2023-08-31T18:00	4860	549	-17.7	-20.6	276	17
2023-08-31T18:00	4881	547	-17.7	-20.8	276	18
2023-08-31T18:00	4911	545	-17.7	-21.6	277	18
2023-08-31T18:00	4932	544	-17.9	-20.8	277	19
2023-08-31T18:00	4955	542	-18.1	-20.6	278	19
2023-08-31T18:00	4983	540	-18.2	-20.5	278	19
2023-08-31T18:00	5011	538	-18.3	-20.9	277	19
2023-08-31T18:00	5037	536	-18.5	-21.1	276	18
2023-08-31T18:00	5066	534	-18.7	-22.2	275	18
2023-08-31T18:00	5094	532	-18.9	-22.9	274	18
2023-08-31T18:00	5119	530	-19.0	-23.7	274	18
2023-08-31T18:00	5147	528	-19.1	-23.6	274	18
2023-08-31T18:00	5174	526	-19.4	-23.3	276	18
2023-08-31T18:00	5207	524	-19.6	-22.8	278	18
2023-08-31T18:00	5232	522	-19.7	-23.3	280	18
2023-08-31T18:00	5260	520	-20.0	-23.4	281	17
2023-08-31T18:00	5291	518	-20.2	-23.7	283	17
2023-08-31T18:00	5321	516	-20.5	-24.5	283	17
2023-08-31T18:00	5351	514	-20.7	-24.7	283	16
2023-08-31T18:00	5379	512	-20.9	-24.6	282	16
2023-08-31T18:00	5403	510	-21.2	-24.9	280	16
2023-08-31T18:00	5431	508	-21.4	-24.7	279	16
2023-08-31T18:00	5462	506	-21.6	-25.1	277	17
2023-08-31T18:00	5488	504	-21.8	-25.4	276	17
2023-08-31T18:00	5516	503	-22.0	-25.8	276	17
2023-08-31T18:00	5542	501	-22.2	-25.9	275	17
2023-08-31T18:00	5568	499	-22.4	-25.9	274	16
2023-08-31T18:00	5587	498	-22.6	-26.2	274	16
2023-08-31T18:00	5619	495	-22.9	-26.2	274	16
2023-08-31T18:00	5656	493	-23.1	-26.5	274	15
2023-08-31T18:00	5683	491	-23.2	-27.9	274	15
2023-08-31T18:00	5710	489	-23.4	-28.1	274	15
2023-08-31T18:00	5738	488	-23.6	-28.4	274	14
2023-08-31T18:00	5765	486	-23.8	-28.6	274	14
2023-08-31T18:00	5792	484	-24.1	-29.0	274	14
2023-08-31T18:00	5822	482	-24.3	-29.4	274	14
2023-08-31T18:00	5854	480	-24.6	-29.5	276	14
2023-08-31T18:00	5882	478	-24.8	-29.5	277	15
2023-08-31T18:00	5908	476	-25.1	-29.2	278	15
2023-08-31T18:00	5935	474	-25.2	-30.0	279	16
2023-08-31T18:00	5962	473	-25.3	-32.2	279	16
2023-08-31T18:00	5992	471	-25.5		279	16
2023-08-31T18:00	6016	469	-25.7	-33.2	278	16
2023-08-31T18:00	6040	468	-25.9	-33.9	278	16
2023-08-31T18:00	6060	466	-26.1	-33.8	278	16
2023-08-31T18:00	6077	465	-26.2	-34.6	278	16
2023-08-31T18:00	6105	464	-26.4	-36.5	279	16
2023-08-31T18:00	6136	462	-26.7	-38.0	279	16
2023-08-31T18:00	6161	460	-26.9	-37.8	280	15
2023-08-31T18:00	6190	458	-27.1	-38.2	281	15
2023-08-31T18:00	6215	457	-27.4	-38.4	283	15
2023-08-31T18:00	6237	455	-27.6	-38.3	284	15
2023-08-31T18:00	6265	454	-27.8	-38.5	284	15
2023-08-31T18:00	6285	452	-28.0	-37.8	284	15
2023-08-31T18:00	6313	450	-28.3	-37.3	284	15
2023-08-31T18:00	6340	449	-28.5	-37.8	285	15
2023-08-31T18:00	6367	447	-28.8	-38.1	286	15
2023-08-31T18:00	6399	445	-29.0	-38.7	286	15
2023-08-31T18:00	6429	443	-29.3	-39.5	286	15
2023-08-31T18:00	6460	441	-29.6	-39.5	285	15
2023-08-31T18:00	6481	440	-29.8	-39.4	284	15
2023-08-31T18:00	6508	438	-30.1	-39.9	283	15
2023-08-31T18:00	6530	437	-30.3	-39.9	283	14
2023-08-31T18:00	6551	436	-30.5	-39.9	284	14
2023-08-31T18:00	6572	434	-30.7	-40.0	285	14
2023-08-31T18:00	6594	433	-30.9	-40.0	285	14
2023-08-31T18:00	6617	432	-31.1	-40.1	285	14
2023-08-31T18:00	6647	430	-31.4	-40.1	284	14
2023-08-31T18:00	6674	428	-31.6	-40.3	284	14
2023-08-31T18:00	6704	426	-31.9	-40.3	283	15
2023-08-31T18:00	6729	425	-32.2	-40.3	282	15
2023-08-31T18:00	6759	423	-32.3	-40.2	282	15
2023-08-31T18:00	6787	421	-32.5	-40.7	281	15
2023-08-31T18:00	6812	420	-32.7	-40.7	280	15
2023-08-31T18:00	6842	418	-33.0	-41.0	280	15
2023-08-31T18:00	6869	416	-33.2	-41.1	280	15
2023-08-31T18:00	6897	415	-33.5	-41.2	280	15
2023-08-31T18:00	6923	413	-33.7	-41.2	281	15
2023-08-31T18:00	6951	412	-33.9	-41.2	281	15
2023-08-31T18:00	6974	410	-34.1	-41.0	280	15
2023-08-31T18:00	7003	409	-34.4	-41.1	279	15
2023-08-31T18:00	7028	407	-34.6	-40.8	277	15
2023-08-31T18:00	7058	405	-34.9	-41.3	275	15
2023-08-31T18:00	7092	403	-35.1	-41.2	274	15
2023-08-31T18:00	7123	402	-35.3	-41.0	273	15
2023-08-31T18:00	7150	400	-35.6	-40.9	273	16
2023-08-31T18:00	7177	399	-35.8	-40.4	273	16
2023-08-31T18:00	7200	397	-35.9	-39.9	275	16
2023-08-31T18:00	7226	396	-36.0	-39.7	276	17
2023-08-31T18:00	7253	394	-36.2	-39.8	276	18
2023-08-31T18:00	7281	393	-36.3	-39.9	276	19
2023-08-31T18:00	7307	391	-36.4	-40.4	275	20
2023-08-31T18:00	7337	389	-36.3	-40.9	275	21
2023-08-31T18:00	7360	388	-36.2		274	22
2023-08-31T18:00	7385	387	-36.2	-41.2	273	22
2023-08-31T18:00	7418	385	-36.3	-41.3	273	23
2023-08-31T18:00	7445	383	-36.4	-41.7	273	24
2023-08-31T18:00	7472	382	-36.5		274	24
2023-08-31T18:00	7496	380	-36.7	-42.1	274	25
2023-08-31T18:00	7529	379	-36.9	-42.0	275	25
2023-08-31T18:00	7558	377	-37.1	-42.3	275	26
2023-08-31T18:00	7591	375	-37.3	-42.4	275	27
2023-08-31T18:00	7617	374	-37.3	-42.7	274	28
2023-08-31T18:00	7645	372	-37.4	-42.7	274	29
2023-08-31T18:00	7676	371	-37.4	-42.7	274	30
2023-08-31T18:00	7707	369	-37.5	-42.6	274	31
2023-08-31T18:00	7733	368	-37.5	-43.4	274	32
2023-08-31T18:00	7763	366	-37.2	-44.6	275	33
2023-08-31T18:00	7792	365	-37.0	-45.8	275	34
2023-08-31T18:00	7818	363	-36.9	-45.4	276	35
2023-08-31T18:00	7847	362	-36.7	-44.8	276	36
2023-08-31T18:00	7868	361	-36.7	-46.0	277	36
2023-08-31T18:00	7892	359	-36.7	-47.3	277	37
2023-08-31T18:00	7917	358	-36.6	-48.4	278	38
2023-08-31T18:00	7943	357	-36.6	-50.2	278	38
2023-08-31T18:00	7971	355	-36.5	-52.8	279	39
2023-08-31T18:00	7995	354	-36.3	-55.1	279	39
2023-08-31T18:00	8019	353	-36.2	-58.1	279	40
2023-08-31T18:00	8043	352	-36.2	-57.9	278	40
2023-08-31T18:00	8068	350	-36.3	-57.8	278	41
2023-08-31T18:00	8095	349	-36.5	-57.7	278	41
2023-08-31T18:00	8121	348	-36.6	-57.9	278	41
2023-08-31T18:00	8147	346	-36.7	-58.1	277	41
2023-08-31T18:00	8175	345	-36.9	-58.2	277	41
2023-08-31T18:00	8196	344	-37.0	-58.4	277	41
2023-08-31T18:00	8220	343	-37.1	-58.4	276	41
2023-08-31T18:00	8243	342	-37.3	-58.4	276	41
2023-08-31T18:00	8272	340	-37.3	-58.3	275	41
2023-08-31T18:00	8295	339	-37.3	-58.3	275	41
2023-08-31T18:00	8317	338	-37.5	-58.5	275	41
2023-08-31T18:00	8341	337	-37.7	-58.7	275	42
2023-08-31T18:00	8366	336	-37.6	-58.6	275	42
2023-08-31T18:00	8392	334	-37.6	-58.4	275	43
2023-08-31T18:00	8421	333	-37.6	-58.3	275	43
2023-08-31T18:00	8444	332	-37.7	-58.2	275	43
2023-08-31T18:00	8471	331	-37.9	-58.1	275	44
2023-08-31T18:00	8498	329	-38.1	-58.2	276	44
2023-08-31T18:00	8519	328	-38.2	-58.3	276	44
2023-08-31T18:00	8541	327	-38.3	-58.4	276	44
2023-08-31T18:00	8564	326	-38.5	-58.8	276	45
2023-08-31T18:00	8588	325	-38.6	-58.9	276	45
2023-08-31T18:00	8611	324	-38.7	-59.0	276	45
2023-08-31T18:00	8632	323	-38.8	-58.8	276	45
2023-08-31T18:00	8656	322	-38.8	-58.2	277	45
2023-08-31T18:00	8680	321	-38.9	-58.6	277	45
2023-08-31T18:00	8705	319	-39.0	-58.5	277	45
2023-08-31T18:00	8732	318	-39.0	-57.8	277	45
2023-08-31T18:00	8754	317	-39.1	-57.5	278	45
2023-08-31T18:00	8775	316	-39.2	-56.2	278	44
2023-08-31T18:00	8798	315	-39.3	-56.4	277	44
2023-08-31T18:00	8819	314	-39.4	-56.3	277	44
2023-08-31T18:00	8841	313	-39.6	-56.1	277	44
2023-08-31T18:00	8864	312	-39.7	-57.1	276	44
2023-08-31T18:00	8885	311	-39.8	-58.3	276	44
2023-08-31T18:00	8909	310	-40.0	-58.5	276	44
2023-08-31T18:00	8932	309	-40.2	-58.7	275	43
2023-08-31T18:00	8954	308	-40.3	-59.2	275	43
2023-08-31T18:00	8976	307	-40.4	-59.3	275	43
2023-08-31T18:00	8997	306	-40.5	-58.9	275	43
2023-08-31T18:00	9018	305	-40.7	-58.7	275	43
2023-08-31T18:00	9042	304	-40.8	-59.2	274	43
2023-08-31T18:00	9062	303	-40.8	-59.7	274	43
2023-08-31T18:00	9082	302	-40.9	-60.3	274	43
2023-08-31T18:00	9103	301	-41.1	-60.4	274	43
2023-08-31T18:00	9124	300	-41.2	-60.1	274	42
2023-08-31T18:00	9143	300	-41.3	-59.3	273	42
2023-08-31T18:00	9162	299	-41.5	-59.4	273	42
2023-08-31T18:00	9184	298	-41.7	-60.2	273	42
2023-08-31T18:00	9206	297	-41.8	-60.8	273	42
2023-08-31T18:00	9225	296	-41.8	-60.8	273	42
2023-08-31T18:00	9248	295	-41.9	-60.9	272	41
2023-08-31T18:00	9272	294	-42.1	-61.1	272	41
2023-08-31T18:00	9296	293	-42.3	-61.1	272	41
2023-08-31T18:00	9315	292	-42.5	-61.4	272	41
2023-08-31T18:00	9336	291	-42.5	-61.7	271	40
2023-08-31T18:00	9360	290	-42.7	-62.2	271	40
2023-08-31T18:00	9382	289	-42.8	-62.4	271	40
2023-08-31T18:00	9402	288	-42.8	-62.1	271	40
2023-08-31T18:00	9421	288	-43.0	-62.3	271	40
2023-08-31T18:00	9439	287	-43.0	-62.7	271	40
2023-08-31T18:00	9458	286	-43.0	-62.9	271	40
2023-08-31T18:00	9479	285	-43.0	-62.5	271	40
2023-08-31T18:00	9499	284	-43.1	-62.2	271	40
2023-08-31T18:00	9517	283	-43.1	-62.3	271	40
2023-08-31T18:00	9537	283	-43.2	-62.4	271	39
2023-08-31T18:00	9556	282	-43.3	-62.2	271	39
2023-08-31T18:00	9577	281	-43.3	-61.6	272	38
2023-08-31T18:00	9595	280	-43.3	-61.9	272	38
2023-08-31T18:00	9620	279	-43.3	-63.0	272	37
2023-08-31T18:00	9641	278	-43.3	-63.6	272	37
2023-08-31T18:00	9663	277	-43.4	-64.2	272	36
2023-08-31T18:00	9685	276	-43.5	-64.7	272	35
2023-08-31T18:00	9706	276	-43.5	-65.0	272	35
2023-08-31T18:00	9727	275	-43.6	-65.4	272	34
2023-08-31T18:00	9746	274	-43.6	-65.8	272	33
2023-08-31T18:00	9769	273	-43.5	-66.1	272	33
2023-08-31T18:00	9794	272	-43.5	-66.3	271	32
2023-08-31T18:00	9819	271	-43.6	-66.6	270	32
2023-08-31T18:00	9842	270	-43.7	-66.8	269	31
2023-08-31T18:00	9864	269	-43.8	-66.9	268	31
2023-08-31T18:00	9883	268	-43.9	-66.9	267	30
2023-08-31T18:00	9908	267	-44.0	-67.0	266	30
2023-08-31T18:00	9931	267	-43.7	-67.5	264	30
2023-08-31T18:00	9955	266	-43.1	-68.0	263	30
2023-08-31T18:00	9979	265	-43.1	-68.4	262	29
2023-08-31T18:00	10003	264	-43.2	-68.5	261	29
2023-08-31T18:00	10025	263	-43.3	-68.4	260	29
2023-08-31T18:00	10050	262	-43.4	-68.4	260	29
2023-08-31T18:00	10074	261	-43.4	-68.6	259	30
2023-08-31T18:00	10098	260	-43.5	-68.5	259	30
2023-08-31T18:00	10120	259	-43.7	-68.5	259	30
2023-08-31T18:00	10141	258	-43.8	-68.6	260	30
2023-08-31T18:00	10165	257	-43.9	-69.2	260	30
2023-08-31T18:00	10187	257	-43.9	-70.0	261	30
2023-08-31T18:00	10210	256	-43.9	-70.2	262	29
2023-08-31T18:00	10231	255	-44.0	-70.1	262	29
2023-08-31T18:00	10253	254	-43.9	-70.2	263	28
2023-08-31T18:00	10275	253	-43.8	-71.0	263	28
2023-08-31T18:00	10296	252	-43.5	-71.1	263	28
2023-08-31T18:00	10318	252	-43.3	-71.2	263	28
2023-08-31T18:00	10337	251	-43.3	-71.2	263	28
2023-08-31T18:00	10358	250	-42.9	-71.1	263	27
2023-08-31T18:00	10378	249	-42.6	-70.6	263	27
2023-08-31T18:00	10400	249	-42.5	-69.3	262	26
2023-08-31T18:00	10419	248	-42.3	-69.2	261	26
2023-08-31T18:00	10439	247	-41.8	-70.0	260	25
2023-08-31T18:00	10472	246	-41.4	-69.7	260	24
2023-08-31T18:00	10500	245	-41.1	-69.7	260	24
2023-08-31T18:00	10531	244	-40.9	-69.9	261	23
2023-08-31T18:00	10562	243	-41.1	-70.3	262	22
2023-08-31T18:00	10586	242	-41.3	-70.5	263	22
2023-08-31T18:00	10610	241	-41.4	-70.9	264	21
2023-08-31T18:00	10635	240	-41.4	-71.2	264	21
2023-08-31T18:00	10659	239	-41.5	-71.3	263	21
2023-08-31T18:00	10680	239	-41.7	-71.4	262	21
2023-08-31T18:00	10702	238	-41.8	-71.2	262	21
2023-08-31T18:00	10726	237	-41.8	-71.2	261	21
2023-08-31T18:00	10748	236	-41.8	-71.2	261	21
2023-08-31T18:00	10768	235	-41.9	-71.6	261	21
2023-08-31T18:00	10789	235	-42.1	-71.7	261	20
2023-08-31T18:00	10809	234	-42.2	-71.8	261	20
2023-08-31T18:00	10834	233	-42.3	-71.9	261	20
2023-08-31T18:00	10855	232	-42.3	-72.2	261	19
2023-08-31T18:00	10877	232	-42.3	-72.2	261	19
2023-08-31T18:00	10901	231	-42.5	-72.4	261	19
2023-08-31T18:00	10922	230	-42.4	-72.6	260	19
2023-08-31T18:00	10947	229	-42.5	-72.7	260	20
2023-08-31T18:00	10973	228	-42.6	-72.8	259	20
2023-08-31T18:00	10999	228	-42.7	-73.2	259	20
2023-08-31T18:00	11023	227	-42.8	-73.3	258	20
2023-08-31T18:00	11047	226	-42.9	-73.4	258	20
2023-08-31T18:00	11071	225	-42.8	-73.3	257	20
2023-08-31T18:00	11095	224	-42.9	-73.8	256	20
2023-08-31T18:00	11116	224	-42.7	-73.6	256	19
2023-08-31T18:00	11140	223	-42.6	-74.0	255	19
2023-08-31T18:00	11163	222	-42.7	-74.1	256	19
2023-08-31T18:00	11188	221	-42.8	-74.6	256	19
2023-08-31T18:00	11211	220	-42.8	-74.6	258	18
2023-08-31T18:00	11234	220	-42.6	-74.4	259	18
2023-08-31T18:00	11257	219	-42.7	-75.0	259	17
2023-08-31T18:00	11282	218	-42.7	-75.0	259	17
2023-08-31T18:00	11304	217	-42.7	-75.0	259	17
2023-08-31T18:00	11328	217	-42.7	-75.0	258	17
2023-08-31T18:00	11351	216	-42.4	-75.3	257	18
2023-08-31T18:00	11373	215	-42.4	-75.3	257	18
2023-08-31T18:00	11398	214	-42.6	-75.4	257	19
2023-08-31T18:00	11420	214	-42.6	-75.4	258	19
2023-08-31T18:00	11445	213	-42.8	-75.6	259	19
2023-08-31T18:00	11470	212	-43.0	-75.2	260	20
2023-08-31T18:00	11493	211	-43.2	-75.4	260	20
2023-08-31T18:00	11517	211	-43.4	-75.5	259	19
2023-08-31T18:00	11553	210	-43.5	-76.1	259	19
2023-08-31T18:00	11586	209	-43.4	-76.0	258	19
2023-08-31T18:00	11608	208	-43.6	-75.6	257	19
2023-08-31T18:00	11632	207	-43.7	-75.7	258	19
2023-08-31T18:00	11654	206	-43.8	-75.8	259	19
2023-08-31T18:00	11673	206	-43.9	-75.9	260	19
2023-08-31T18:00	11695	205	-43.8	-76.3	262	19
2023-08-31T18:00	11716	205	-43.2	-76.4	264	19
2023-08-31T18:00	11736	204	-42.9	-76.2	265	19
2023-08-31T18:00	11757	203	-42.8	-76.1	267	19
2023-08-31T18:00	11781	203	-42.8	-76.1	268	18
2023-08-31T18:00	11800	202	-42.9	-76.2	269	18
2023-08-31T18:00	11822	201	-42.7	-76.0	270	17
2023-08-31T18:00	11843	201	-42.4	-75.8	270	17
2023-08-31T18:00	11863	200	-42.0	-75.5	270	17
2023-08-31T18:00	11884	200	-42.1	-75.6	270	16
2023-08-31T18:00	11905	199	-42.2	-75.7	269	16
2023-08-31T18:00	11924	198	-42.3	-75.8	268	16
2023-08-31T18:00	11949	198	-42.5	-75.9	267	16
2023-08-31T18:00	11971	197	-42.6	-76.0	265	16
2023-08-31T18:00	11995	196	-42.8	-76.1	264	16
2023-08-31T18:00	12019	196	-43.0	-75.7	262	16
2023-08-31T18:00	12041	195	-43.2	-75.9	262	16
2023-08-31T18:00	12063	194	-43.3	-75.9	262	16
2023-08-31T18:00	12085	194	-43.2	-75.9	263	16
2023-08-31T18:00	12110	193	-43.0	-75.7	264	15
2023-08-31T18:00	12135	192	-43.2	-75.9	266	15
2023-08-31T18:00	12160	192	-43.3	-75.9	268	15
2023-08-31T18:00	12182	191	-43.5	-76.1	270	15
2023-08-31T18:00	12205	190	-43.5	-76.1	272	15
2023-08-31T18:00	12228	190	-43.6	-76.2	272	14
2023-08-31T18:00	12248	189	-43.5	-76.1	273	14
2023-08-31T18:00	12269	188	-43.6	-76.2	273	14
2023-08-31T18:00	12292	188	-43.4	-76.0	272	14
2023-08-31T18:00	12316	187	-43.2	-75.9	271	13
2023-08-31T18:00	12338	187	-43.3	-75.9	268	13
2023-08-31T18:00	12360	186	-43.4	-76.0	265	12
2023-08-31T18:00	12381	185	-43.4	-76.0	262	12
2023-08-31T18:00	12403	185	-43.2	-76.4	258	11
2023-08-31T18:00	12424	184	-43.0	-76.3	255	11
2023-08-31T18:00	12446	184	-43.0	-76.3	251	10
2023-08-31T18:00	12470	183	-43.0	-76.3	247	9
2023-08-31T18:00	12502	182	-43.1	-76.3	242	9
2023-08-31T18:00	12525	181	-43.0	-76.3	237	9
2023-08-31T18:00	12550	181	-43.0	-76.3	232	9
2023-08-31T18:00	12575	180	-43.0	-76.3	228	9
2023-08-31T18:00	12599	179	-43.2	-76.4	226	10
2023-08-31T18:00	12623	179	-43.2	-76.4	224	10
2023-08-31T18:00	12644	178	-43.3	-76.5	223	10
2023-08-31T18:00	12667	178	-43.4	-76.6	222	11
2023-08-31T18:00	12690	177	-43.6	-76.7	222	11
2023-08-31T18:00	12715	176	-43.8	-76.9	222	11
2023-08-31T18:00	12738	176	-43.9	-76.4	223	11
2023-08-31T18:00	12759	175	-44.2	-76.6	223	11
2023-08-31T18:00	12784	175	-44.4	-76.7	224	12
2023-08-31T18:00	12805	174	-44.6	-76.9	225	12
2023-08-31T18:00	12828	173	-44.8	-77.0	226	12
2023-08-31T18:00	12852	173	-45.0	-77.2	227	12
2023-08-31T18:00	12874	172	-45.1	-77.3	228	12
2023-08-31T18:00	12897	172	-45.3	-77.4	229	12
2023-08-31T18:00	12920	171	-45.5	-77.6	229	13
2023-08-31T18:00	12942	170	-45.7	-77.7	230	13
2023-08-31T18:00	12965	170	-45.9	-77.9	232	13
2023-08-31T18:00	12991	169	-46.1	-78.0	234	13
2023-08-31T18:00	13013	169	-46.1	-78.0	236	13
2023-08-31T18:00	13036	168	-45.9	-77.9	238	13
2023-08-31T18:00	13059	167	-46.0	-77.9	240	12
2023-08-31T18:00	13082	167	-46.2	-78.1	242	12
2023-08-31T18:00	13103	166	-46.2	-78.1	244	12
2023-08-31T18:00	13124	166	-46.2	-78.1	246	11
2023-08-31T18:00	13147	165	-46.3	-78.2	247	11
2023-08-31T18:00	13168	165	-46.3	-78.2	248	11
2023-08-31T18:00	13191	164	-46.4	-78.2	248	11
2023-08-31T18:00	13210	164	-46.6	-78.4	248	11
2023-08-31T18:00	13231	163	-46.7	-78.4	249	11
2023-08-31T18:00	13253	163	-46.8	-78.5	249	11
2023-08-31T18:00	13275	162	-46.8	-78.5	250	11
2023-08-31T18:00	13297	162	-46.6	-78.4	250	12
2023-08-31T18:00	13317	161	-46.7	-79.0	250	12
2023-08-31T18:00	13338	161	-46.7	-79.0	250	12
2023-08-31T18:00	13361	160	-46.4	-78.8	249	12
2023-08-31T18:00	13381	160	-46.1	-79.1	248	12
2023-08-31T18:00	13404	159	-46.0	-79.1	245	11
2023-08-31T18:00	13425	159	-45.9	-79.0	243	11
2023-08-31T18:00	13446	158	-45.8	-78.9	241	11
2023-08-31T18:00	13465	158	-45.9	-79.0	239	11
2023-08-31T18:00	13488	157	-46.0	-79.1	237	11
2023-08-31T18:00	13510	157	-46.1	-79.1	234	11
2023-08-31T18:00	13534	156	-46.2	-78.6	232	11
2023-08-31T18:00	13561	155	-46.1	-79.1	229	11
2023-08-31T18:00	13588	155	-45.8	-78.9	226	10
2023-08-31T18:00	13620	154	-46.0	-78.5	223	10
2023-08-31T18:00	13648	153	-46.2	-78.6	221	10
2023-08-31T18:00	13674	153	-46.4	-78.8	218	10
2023-08-31T18:00	13697	152	-46.7	-79.0	216	10
2023-08-31T18:00	13718	152	-46.9	-79.1	215	10
2023-08-31T18:00	13740	151	-47.0	-79.2	214	10
2023-08-31T18:00	13763	151	-47.2	-79.4	214	10
2023-08-31T18:00	13785	150	-47.3	-79.4	216	10
2023-08-31T18:00	13807	150	-47.2	-79.4	218	10
2023-08-31T18:00	13827	149	-47.3	-79.4	220	10
2023-08-31T18:00	13850	149	-47.2	-79.4	222	10
2023-08-31T18:00	13873	148	-47.2	-79.4	224	10
2023-08-31T18:00	13898	148	-47.1	-79.3	224	10
2023-08-31T18:00	13920	147	-47.1	-79.9	225	9
2023-08-31T18:00	13944	147	-47.2	-79.9	226	9
2023-08-31T18:00	13966	146	-47.0	-79.8	226	9
2023-08-31T18:00	13989	146	-47.0	-79.8	225	8
2023-08-31T18:00	14011	145	-47.1	-79.9	225	8
2023-08-31T18:00	14034	145	-46.9	-79.7	224	8
2023-08-31T18:00	14056	144	-46.9	-79.7	223	8
2023-08-31T18:00	14081	144	-47.0	-79.8	223	9
2023-08-31T18:00	14103	143	-47.2	-79.9	222	9
2023-08-31T18:00	14128	143	-47.2	-79.9	221	9
2023-08-31T18:00	14150	142	-47.3	-80.0	220	9
2023-08-31T18:00	14174	142	-47.1	-79.9	218	9
2023-08-31T18:00	14201	141	-47.2	-79.9	217	9
2023-08-31T18:00	14226	140	-47.5	-80.2	216	9
2023-08-31T18:00	14249	140	-47.7	-80.3	217	9
2023-08-31T18:00	14273	139	-47.8	-80.4	217	9
2023-08-31T18:00	14294	139	-47.8	-79.8	219	10
2023-08-31T18:00	14317	139	-47.9	-79.9	220	10
2023-08-31T18:00	14339	138	-48.0	-79.9	220	10
2023-08-31T18:00	14362	138	-48.1	-80.0	221	10
2023-08-31T18:00	14387	137	-48.0	-80.5	221	10
2023-08-31T18:00	14408	137	-48.0	-80.5	222	10
2023-08-31T18:00	14433	136	-48.2	-80.1	223	10
2023-08-31T18:00	14455	136	-48.2	-80.1	223	10
2023-08-31T18:00	14478	135	-48.4	-80.2	224	10
2023-08-31T18:00	14500	135	-48.4	-80.2	225	10
2023-08-31T18:00	14523	134	-48.4	-80.2	226	10
2023-08-31T18:00	14548	134	-48.6	-80.4	227	10
2023-08-31T18:00	14572	133	-48.8	-80.5	227	10
2023-08-31T18:00	14595	133	-48.9	-80.6	228	10
2023-08-31T18:00	14618	132	-49.0	-80.7	228	10
2023-08-31T18:00	14640	132	-49.1	-80.8	228	10
2023-08-31T18:00	14663	131	-48.9	-80.6	228	11
2023-08-31T18:00	14685	131	-48.8	-80.5	229	11
2023-08-31T18:00	14707	131	-48.7	-80.5	229	11
2023-08-31T18:00	14729	130	-48.8		228	11
2023-08-31T18:00	14754	130	-48.6	-81.0	228	10
2023-08-31T18:00	14777	129	-48.0	-80.5	225	10
2023-08-31T18:00	14800	129	-47.7	-80.3	222	9
2023-08-31T18:00	14825	128	-47.4	-80.7	216	8
2023-08-31T18:00	14846	128	-47.3	-80.6	211	8
2023-08-31T18:00	14870	127	-47.0	-80.4	206	8
2023-08-31T18:00	14891	127	-47.0	-79.8	202	7
2023-08-31T18:00	14914	127	-47.2	-79.9	199	7
2023-08-31T18:00	14939	126	-47.4	-80.1	197	7
2023-08-31T18:00	14961	126	-47.4	-80.1	195	8
2023-08-31T18:00	14981	125	-47.5	-80.2	195	8
2023-08-31T18:00	15005	125	-47.6	-79.6	195	8
2023-08-31T18:00	15028	124	-47.8	-79.8	195	9
2023-08-31T18:00	15049	124	-47.9	-79.9	196	9
2023-08-31T18:00	15072	124	-47.8	-79.8	196	9
2023-08-31T18:00	15096	123	-47.9	-79.9	198	9
2023-08-31T18:00	15117	123	-48.1	-80.0	200	9
2023-08-31T18:00	15140	122	-48.3	-80.2	203	10
2023-08-31T18:00	15162	122	-48.4	-80.2	206	10
2023-08-31T18:00	15186	121	-48.5	-80.3	208	10
2023-08-31T18:00	15209	121	-48.7	-80.5	211	10
2023-08-31T18:00	15229	121	-48.9	-80.6	212	10
2023-08-31T18:00	15249	120	-49.0	-80.7	213	10
2023-08-31T18:00	15272	120	-48.8	-80.5	213	10
2023-08-31T18:00	15293	119	-48.6	-80.4	212	10
2023-08-31T18:00	15314	119	-48.7	-81.0	211	10
2023-08-31T18:00	15334	119	-48.6	-81.0	210	10
2023-08-31T18:00	15354	118	-48.6	-81.0	210	9
2023-08-31T18:00	15377	118	-48.7	-81.0	209	9
2023-08-31T18:00	15401	118	-48.8		208	9
2023-08-31T18:00	15423	117	-48.7	-81.0	207	9
2023-08-31T18:00	15447	117	-48.8		205	9
2023-08-31T18:00	15468	116	-48.8		201	9
2023-08-31T18:00	15492	116	-48.8		197	9
2023-08-31T18:00	15513	116	-48.9	-81.2	194	10
2023-08-31T18:00	15534	115	-49.0	-81.3	191	10
2023-08-31T18:00	15555	115	-49.0	-81.3	189	10
2023-08-31T18:00	15577	114	-49.0	-81.3	188	11
2023-08-31T18:00	15601	114	-49.2	-81.4	187	11
2023-08-31T18:00	15622	114	-49.4	-81.0	187	11
2023-08-31T18:00	15642	113	-49.5	-81.1	187	11
2023-08-31T18:00	15665	113	-49.6	-81.7	187	11
2023-08-31T18:00	15686	113	-49.3	-81.5	189	11
2023-08-31T18:00	15707	112	-49.3	-81.5	191	11
2023-08-31T18:00	15729	112	-49.0	-81.3	193	11
2023-08-31T18:00	15752	111	-49.0	-81.3	194	11
2023-08-31T18:00	15774	111	-48.9	-81.2	196	11
2023-08-31T18:00	15794	111	-48.9	-81.2	197	11
2023-08-31T18:00	15818	110	-48.9	-81.2	199	11
2023-08-31T18:00	15842	110	-49.0	-81.3	200	11
2023-08-31T18:00	15866	110	-49.1	-81.3	201	11
2023-08-31T18:00	15889	109	-49.2	-81.4	201	11
2023-08-31T18:00	15912	109	-49.3	-81.5	201	12
2023-08-31T18:00	15933	108	-49.5	-81.6	202	12
2023-08-31T18:00	15956	108	-49.7	-81.8	203	12
2023-08-31T18:00	15979	108	-49.9	-81.9	204	12
2023-08-31T18:00	15999	107	-50.1	-81.5	206	11
2023-08-31T18:00	16025	107	-50.1	-82.1	208	11
2023-08-31T18:00	16048	107	-50.0	-82.0	209	11
2023-08-31T18:00	16067	106	-49.8	-81.8	210	11
2023-08-31T18:00	16088	106	-49.9	-81.9	211	11
2023-08-31T18:00	16109	105	-50.0	-82.0	212	11
2023-08-31T18:00	16134	105	-50.2	-82.1	212	10
2023-08-31T18:00	16156	105	-50.3	-82.2	212	10
2023-08-31T18:00	16179	104	-50.4	-82.3	212	10
2023-08-31T18:00	16204	104	-50.3	-82.2	212	9
2023-08-31T18:00	16228	104	-49.9	-81.9	211	9
2023-08-31T18:00	16250	103	-49.9	-81.9	209	9
2023-08-31T18:00	16273	103	-49.9	-81.9	208	8
2023-08-31T18:00	16298	103	-49.6	-81.7	205	8
2023-08-31T18:00	16320	102	-49.6	-81.7	202	8
2023-08-31T18:00	16343	102	-49.5	-81.6	198	8
2023-08-31T18:00	16368	101	-49.4	-81.6	194	8
2023-08-31T18:00	16390	101	-49.5	-81.6	189	8
2023-08-31T18:00	16412	101	-49.6	-81.7	185	8
2023-08-31T18:00	16436	100	-49.6	-81.7	182	8
2023-08-31T18:00	16460	100	-49.8	-81.8	178	8
2023-08-31T18:00	16482	100	-49.8	-81.8	176	8
2023-08-31T18:00	16507	99	-49.8	-81.8	174	8
2023-08-31T18:00	16531	99	-49.7	-81.8	172	8
2023-08-31T18:00	16555	99	-49.8	-81.8	171	8
2023-08-31T18:00	16580	98	-50.0	-82.0	169	8
2023-08-31T18:00	16602	98	-50.2	-82.1	167	8
2023-08-31T18:00	16625	97	-50.4	-82.3	165	8
2023-08-31T18:00	16650	97	-50.6	-82.4	163	8
2023-08-31T18:00	16673	97	-50.7	-82.5	161	9
2023-08-31T18:00	16697	96	-50.8	-82.0	161	9
2023-08-31T18:00	16719	96	-50.9	-82.1	161	9
2023-08-31T18:00	16746	96	-51.1	-82.2	162	10
2023-08-31T18:00	16767	95	-51.3	-82.4	163	10
2023-08-31T18:00	16793	95	-51.5	-82.5	164	10
2023-08-31T18:00	16813	95	-51.7	-82.7	166	11
2023-08-31T18:00	16840	94	-51.8	-82.8	168	11
2023-08-31T18:00	16864	94	-52.0	-82.9	170	12
2023-08-31T18:00	16887	94	-52.1	-83.0	172	12
2023-08-31T18:00	16912	93	-52.0	-82.9	175	12
2023-08-31T18:00	16933	93	-52.0	-82.9	178	12
2023-08-31T18:00	16957	93	-52.1	-83.0	180	12
2023-08-31T18:00	16981	92	-52.2	-83.1	183	12
2023-08-31T18:00	17003	92	-52.3	-83.1	186	12
2023-08-31T18:00	17025	92	-52.4	-83.2	188	12
2023-08-31T18:00	17049	91	-52.3	-83.1	190	12
2023-08-31T18:00	17071	91	-52.4	-83.2	193	12
2023-08-31T18:00	17095	91	-52.4	-83.2	195	12
2023-08-31T18:00	17116	90	-52.5	-83.3	198	12
2023-08-31T18:00	17139	90	-52.6	-83.3	201	12
2023-08-31T18:00	17162	90	-52.6	-83.3	205	12
2023-08-31T18:00	17189	89	-52.6	-83.3	208	11
2023-08-31T18:00	17210	89	-52.6	-83.3	212	11
2023-08-31T18:00	17233	89	-52.5	-83.3	216	11
2023-08-31T18:00	17256	88	-52.1	-83.5	220	10
2023-08-31T18:00	17279	88	-51.9	-83.4	223	10
2023-08-31T18:00	17302	88	-51.4	-83.0	226	9
2023-08-31T18:00	17327	88	-51.0	-83.3	227	8
2023-08-31T18:00	17348	87	-50.8	-83.2	227	8
2023-08-31T18:00	17370	87	-50.5	-83.0	226	7
2023-08-31T18:00	17392	87	-50.5	-83.0	227	7
2023-08-31T18:00	17416	86	-50.7	-82.5	228	6
2023-08-31T18:00	17437	86	-50.8	-82.6	231	6
2023-08-31T18:00	17460	86	-50.8	-82.6	235	6
2023-08-31T18:00	17483	85	-50.7	-82.5	238	6
2023-08-31T18:00	17503	85	-50.9	-82.7	240	6
2023-08-31T18:00	17527	85	-51.1	-82.8	241	6
2023-08-31T18:00	17552	85	-51.2	-82.9	241	6
2023-08-31T18:00	17576	84	-51.2	-82.9	239	6
2023-08-31T18:00	17602	84	-51.3	-82.4	236	6
2023-08-31T18:00	17623	84	-51.5	-82.5	232	6
2023-08-31T18:00	17646	83	-51.8	-82.8	229	7
2023-08-31T18:00	17670	83	-51.8	-82.8	228	7
2023-08-31T18:00	17693	83	-51.9	-83.4	228	7
2023-08-31T18:00	17716	82	-51.8	-83.3	230	7
2023-08-31T18:00	17740	82	-51.6	-83.2	234	7
2023-08-31T18:00	17762	82	-51.5	-83.1	238	8
2023-08-31T18:00	17786	82	-51.5	-83.1	242	8
2023-08-31T18:00	17808	81	-51.6	-83.2	245	8
2023-08-31T18:00	17831	81	-51.4	-83.0	249	7
2023-08-31T18:00	17857	81	-51.2	-82.9	252	7
2023-08-31T18:00	17881	80	-51.1	-82.8	256	6
2023-08-31T18:00	17904	80	-51.2	-82.9	260	5
2023-08-31T18:00	17929	80	-51.2	-82.9	263	4
2023-08-31T18:00	17954	79	-51.1	-82.8	266	4
2023-08-31T18:00	17977	79	-51.2	-82.9	268	3
2023-08-31T18:00	18001	79	-51.3	-82.9	270	3
2023-08-31T18:00	18026	79	-51.5	-83.1	272	2
2023-08-31T18:00	18048	78	-51.6	-83.2	274	2
2023-08-31T18:00	18073	78	-51.8	-83.3	277	2
2023-08-31T18:00	18097	78	-51.9	-82.8	281	1
2023-08-31T18:00	18122	77	-52.0	-82.9	289	1
2023-08-31T18:00	18145	77	-52.1	-83.0	303	1
2023-08-31T18:00	18169	77	-52.3	-83.1	332	0
2023-08-31T18:00	18194	77	-52.5	-83.3	30	0
2023-08-31T18:00	18217	76	-52.4	-83.2	85	1
2023-08-31T18:00	18242	76	-52.4	-83.2	116	1
2023-08-31T18:00	18269	76	-52.4	-83.2	136	1
2023-08-31T18:00	18291	75	-52.4	-83.2	150	2
2023-08-31T18:00	18315	75	-52.6	-83.3	160	2
2023-08-31T18:00	18341	75	-52.8	-83.5	166	3
2023-08-31T18:00	18366	75	-52.9	-83.6	170	3
2023-08-31T18:00	18390	74	-53.1	-83.7	175	4
2023-08-31T18:00	18415	74	-53.2	-83.8	180	4
2023-08-31T18:00	18440	74	-53.2	-83.8	184	4
2023-08-31T18:00	18465	73	-53.0	-83.6	188	4
2023-08-31T18:00	18489	73	-53.0	-84.2	190	4
2023-08-31T18:00	18513	73	-53.0	-84.2	188	4
2023-08-31T18:00	18535	73	-52.7	-84.0	183	4
2023-08-31T18:00	18560	72	-52.3	-83.7	172	4
2023-08-31T18:00	18585	72	-51.9	-83.4	158	4
2023-08-31T18:00	18611	72	-51.9	-83.4	144	4
2023-08-31T18:00	18633	72	-52.0	-83.5	133	4
2023-08-31T18:00	18660	71	-52.0	-83.5	126	4
2023-08-31T18:00	18681	71	-52.1	-83.5	123	4
2023-08-31T18:00	18705	71	-52.0	-83.5	123	4
2023-08-31T18:00	18728	70	-51.9	-83.4	125	5
2023-08-31T18:00	18754	70	-51.9	-83.4	130	5
2023-08-31T18:00	18780	70	-51.6	-83.2	136	5
2023-08-31T18:00	18804	70	-51.6	-83.8	143	5
2023-08-31T18:00	18828	69	-51.7	-83.9	151	5
2023-08-31T18:00	18853	69	-51.5	-83.7	160	5
2023-08-31T18:00	18875	69	-51.1	-83.4	168	5
2023-08-31T18:00	18900	69	-51.0	-83.3	176	5
2023-08-31T18:00	18923	68	-51.0	-83.3	182	6
2023-08-31T18:00	18949	68	-51.0	-83.3	187	6
2023-08-31T18:00	18971	68	-51.1	-83.4	190	6
2023-08-31T18:00	18992	68	-51.1	-83.4	194	7
2023-08-31T18:00	19015	67	-51.1	-83.4	197	7
2023-08-31T18:00	19038	67	-51.2	-83.5	200	7
2023-08-31T18:00	19064	67	-51.2	-83.5	203	7
2023-08-31T18:00	19089	67	-51.3	-83.6	206	7
2023-08-31T18:00	19110	66	-51.2	-83.5	209	6
2023-08-31T18:00	19132	66	-51.1	-83.4	212	6
2023-08-31T18:00	19155	66	-51.1	-83.4	214	5
2023-08-31T18:00	19178	66	-51.1	-83.4	217	5
2023-08-31T18:00	19203	66	-51.2	-83.5	220	5
2023-08-31T18:00	19225	65	-51.3	-83.6	223	4
2023-08-31T18:00	19249	65	-51.4	-83.6	227	4
2023-08-31T18:00	19275	65	-51.4	-83.6	231	3
2023-08-31T18:00	19297	65	-51.4	-83.6	235	3
2023-08-31T18:00	19319	64	-51.4	-83.6	239	3
2023-08-31T18:00	19345	64	-51.3	-83.6	242	3
2023-08-31T18:00	19370	64	-51.2	-83.5	246	2
2023-08-31T18:00	19395	64	-51.3	-83.6	250	2
2023-08-31T18:00	19419	63	-51.4	-83.6	255	2
2023-08-31T18:00	19445	63	-51.6	-83.2	264	1
2023-08-31T18:00	19469	63	-51.7	-83.2	288	0
2023-08-31T18:00	19495	63	-51.8	-83.3	41	0
2023-08-31T18:00	19516	62	-51.9	-83.4	71	1
2023-08-31T18:00	19544	62	-51.9	-83.4	82	2
2023-08-31T18:00	19567	62	-51.9	-83.4	90	3
2023-08-31T18:00	19589	62	-51.9	-83.4	97	3
2023-08-31T18:00	19615	61	-52.0	-83.5	103	4
2023-08-31T18:00	19639	61	-52.1	-83.5	108	4
2023-08-31T18:00	19665	61	-52.1	-83.5	112	5
2023-08-31T18:00	19689	61	-52.2	-83.6	117	5
2023-08-31T18:00	19714	61	-52.3	-83.7	121	6
2023-08-31T18:00	19739	60	-52.5	-83.8	125	6
2023-08-31T18:00	19765	60	-52.6	-83.9	130	6
2023-08-31T18:00	19791	60	-52.7	-84.0	135	6
2023-08-31T18:00	19819	60	-52.9	-84.1	140	6
2023-08-31T18:00	19842	59	-53.0	-84.2	145	6
2023-08-31T18:00	19869	59	-52.9	-84.1	150	6
2023-08-31T18:00	19891	59	-52.7	-84.0	155	6
2023-08-31T18:00	19919	59	-52.4	-83.8	161	6
2023-08-31T18:00	19942	58	-52.4	-83.8	166	6
2023-08-31T18:00	19969	58	-52.5	-83.8	172	6
2023-08-31T18:00	19995	58	-52.6	-83.9	178	6
2023-08-31T18:00	20013	58	-52.7	-84.0	184	6
2023-08-31T18:00	20041	58	-52.7	-84.0	190	6
2023-08-31T18:00	20065	57	-52.7	-84.6	195	6
2023-08-31T18:00	20089	57	-52.4	-84.4	199	6
2023-08-31T18:00	20112	57	-52.1	-84.2	202	5
2023-08-31T18:00	20138	57	-51.9	-84.0	204	5
2023-08-31T18:00	20161	57	-51.6	-83.8	206	5
2023-08-31T18:00	20185	56	-51.6	-83.8	208	5
2023-08-31T18:00	20209	56	-51.5	-83.7	209	5
2023-08-31T18:00	20231	56	-51.6	-83.8	210	6
2023-08-31T18:00	20259	56	-51.8	-83.9	211	6
2023-08-31T18:00	20279	55	-51.8	-83.9	212	7
2023-08-31T18:00	20304	55	-51.7	-83.9	214	7
2023-08-31T18:00	20325	55	-51.8	-83.9	215	7
2023-08-31T18:00	20350	55	-51.9	-84.0	215	8
2023-08-31T18:00	20375	55	-51.9	-84.0	215	8
2023-08-31T18:00	20399	54	-51.9	-84.0	215	7
2023-08-31T18:00	20421	54	-51.9	-84.0	215	7
2023-08-31T18:00	20444	54	-51.7	-83.9	215	7
2023-08-31T18:00	20469	54	-51.6	-83.8	216	6
2023-08-31T18:00	20491	54	-51.5	-83.7	218	5
2023-08-31T18:00	20515	54	-51.4	-83.6	222	5
2023-08-31T18:00	20537	53	-51.5	-83.7	227	4
2023-08-31T18:00	20563	53	-51.5	-83.7	230	4
2023-08-31T18:00	20586	53	-51.5	-83.7	230	3
2023-08-31T18:00	20609	53	-51.3	-83.6	226	2
2023-08-31T18:00	20633	53	-51.3	-83.6	217	2
2023-08-31T18:00	20660	52	-51.4	-83.6	201	1
2023-08-31T18:00	20683	52	-51.6	-83.8	182	1
2023-08-31T18:00	20710	52	-51.7	-83.9	166	1
2023-08-31T18:00	20733	52	-51.6	-83.8	160	1
2023-08-31T18:00	20758	52	-51.5	-83.7	163	1
2023-08-31T18:00	20779	51	-51.6	-83.8	170	1
2023-08-31T18:00	20806	51	-51.5	-83.7	180	1
2023-08-31T18:00	20833	51	-51.6	-83.8	190	2
2023-08-31T18:00	20858	51	-51.6	-83.8	200	2
2023-08-31T18:00	20879	51	-51.6	-83.8	208	2
2023-08-31T18:00	20908	50	-51.7	-83.9	213	3
2023-08-31T18:00	20935	50	-51.8	-83.9	215	3
2023-08-31T18:00	20961	50	-51.8	-83.9	214	3
2023-08-31T18:00	20986	50	-51.8	-83.9	212	4
2023-08-31T18:00	21012	50	-51.8	-83.9	208	4
2023-08-31T18:00	21037	49	-51.6	-83.8	203	4
2023-08-31T18:00	21062	49	-51.7	-83.9	198	4
2023-08-31T18:00	21090	49	-51.8	-83.9	193	4
2023-08-31T18:00	21113	49	-51.9	-84.0	189	4
2023-08-31T18:00	21142	49	-52.0	-84.1	189	4
2023-08-31T18:00	21168	48	-52.1	-84.2	192	3
2023-08-31T18:00	21197	48	-52.2	-84.2	199	3
2023-08-31T18:00	21222	48	-52.1	-84.2	210	3
2023-08-31T18:00	21249	48	-52.1	-84.2	223	3
2023-08-31T18:00	21273	48	-52.1	-84.2	233	3
2023-08-31T18:00	21300	47	-52.1	-84.2	240	3
2023-08-31T18:00	21322	47	-52.0	-84.1	245	3
2023-08-31T18:00	21351	47	-52.1	-84.2	250	4
2023-08-31T18:00	21377	47	-52.1	-84.2	255	4
2023-08-31T18:00	21399	47	-52.2	-84.2	259	5
2023-08-31T18:00	21422	47	-52.3	-84.3	265	5
2023-08-31T18:00	21448	46	-52.4	-84.4	270	6
2023-08-31T18:00	21473	46	-52.4	-84.4	275	6
2023-08-31T18:00	21496	46	-52.3	-84.3	280	6
2023-08-31T18:00	21520	46	-52.0	-84.1	286	6
2023-08-31T18:00	21543	46	-51.8	-83.9	293	5
2023-08-31T18:00	21572	45	-51.7	-83.9	300	5
2023-08-31T18:00	21596	45	-51.7	-83.9	308	4
2023-08-31T18:00	21621	45	-51.7	-83.9	317	4
2023-08-31T18:00	21645	45	-51.7	-83.9	327	3
2023-08-31T18:00	21668	45	-51.8	-83.9	337	3
2023-08-31T18:00	21692	45	-51.7	-83.9	347	3
2023-08-31T18:00	21717	44	-51.7	-83.9	353	2
2023-08-31T18:00	21741	44	-51.7	-83.9	353	2
2023-08-31T18:00	21765	44	-51.7	-83.9	348	2
2023-08-31T18:00	21793	44	-51.7	-83.9	341	2
2023-08-31T18:00	21817	44	-51.8	-83.9	338	2
2023-08-31T18:00	21838	44	-51.9	-84.0	339	2
2023-08-31T18:00	21868	43	-52.0	-84.1	345	2
2023-08-31T18:00	21894	43	-51.9	-84.0	355	2
2023-08-31T18:00	21912	43	-51.8	-83.9	5	2
2023-08-31T18:00	21936	43	-51.9	-84.0	14	2
2023-08-31T18:00	21963	43	-51.9	-84.0	24	2
2023-08-31T18:00	21984	43	-51.8	-83.9	37	2
2023-08-31T18:00	22009	42	-51.9	-84.0	54	2
2023-08-31T18:00	22034	42	-51.8	-83.9	69	2
2023-08-31T18:00	22059	42	-51.8	-83.9	79	2
2023-08-31T18:00	22088	42	-51.9	-84.0	84	3
2023-08-31T18:00	22112	42	-51.9	-84.0	85	3
2023-08-31T18:00	22139	42	-51.8	-83.9	84	3
2023-08-31T18:00	22165	42	-51.9	-84.0	82	3
2023-08-31T18:00	22192	41	-51.8	-83.9	77	2
2023-08-31T18:00	22215	41	-51.9	-84.0	71	2
2023-08-31T18:00	22239	41	-52.0	-84.1	64	2
2023-08-31T18:00	22265	41	-52.1	-84.2	56	2
2023-08-31T18:00	22291	41	-52.1	-84.2	50	2
2023-08-31T18:00	22313	41	-52.0	-84.1	45	2
2023-08-31T18:00	22345	40	-51.9	-84.0	41	3
2023-08-31T18:00	22369	40	-52.0	-84.1	41	3
2023-08-31T18:00	22398	40	-52.1	-84.2	46	3
2023-08-31T18:00	22423	40	-52.1	-84.2	55	2
2023-08-31T18:00	22450	40	-52.1	-84.2	69	3
2023-08-31T18:00	22479	40	-52.2	-84.2	83	3
2023-08-31T18:00	22506	39	-52.3	-84.3	96	3
2023-08-31T18:00	22534	39	-52.4	-84.4	107	3
2023-08-31T18:00	22560	39	-52.5	-84.4	116	4
2023-08-31T18:00	22590	39	-52.7	-84.6	123	4
2023-08-31T18:00	22615	39	-52.8	-84.7	128	4
2023-08-31T18:00	22637	39	-52.8	-84.7	131	4
2023-08-31T18:00	22663	38	-52.8	-84.7	131	4
2023-08-31T18:00	22691	38	-52.9	-84.7	130	4
2023-08-31T18:00	22713	38	-52.7	-84.6	126	3
2023-08-31T18:00	22741	38	-52.6	-84.5	120	2
2023-08-31T18:00	22771	38	-52.6	-84.5	113	2
2023-08-31T18:00	22791	38	-52.1	-84.8	113	1
2023-08-31T18:00	22821	37	-51.9	-84.7	122	1
2023-08-31T18:00	22850	37	-51.8	-84.6	136	2
2023-08-31T18:00	22879	37	-51.7	-84.5	147	2
2023-08-31T18:00	22901	37	-51.8	-84.6	156	2
2023-08-31T18:00	22926	37	-51.9	-84.7	165	3
2023-08-31T18:00	22950	37	-51.9	-84.7	175	3
2023-08-31T18:00	22976	37	-51.9	-84.7	187	3
2023-08-31T18:00	23002	36	-51.9	-84.7	199	3
2023-08-31T18:00	23027	36	-51.7	-84.5	209	4
2023-08-31T18:00	23054	36	-51.6	-84.5	215	4
2023-08-31T18:00	23080	36	-51.5	-84.4	220	5
2023-08-31T18:00	23102	36	-51.5	-84.4	223	5
2023-08-31T18:00	23128	36	-51.3	-84.3	224	5
2023-08-31T18:00	23152	36	-51.2	-84.2	224	5
2023-08-31T18:00	23181	35	-51.0	-84.0	223	4
2023-08-31T18:00	23207	35	-50.9	-84.0	221	4
2023-08-31T18:00	23232	35	-50.6	-83.7	218	3
2023-08-31T18:00	23254	35	-50.4	-83.6	214	3
2023-08-31T18:00	23282	35	-50.4	-83.6	209	2
2023-08-31T18:00	23306	35	-50.5	-83.7	203	2
2023-08-31T18:00	23331	35	-50.6	-83.7	197	2
2023-08-31T18:00	23360	35	-50.6	-83.7	190	2
2023-08-31T18:00	23379	34	-50.6	-83.7	182	2
2023-08-31T18:00	23408	34	-50.5	-83.7	176	2
2023-08-31T18:00	23430	34	-50.4	-83.6	172	3
2023-08-31T18:00	23453	34	-50.2	-83.5	170	3
2023-08-31T18:00	23481	34	-50.3	-83.5	170	3
2023-08-31T18:00	23504	34	-50.2	-83.5	174	4
2023-08-31T18:00	23530	34	-50.1	-84.2	180	4
2023-08-31T18:00	23558	33	-49.9	-84.0	188	4
2023-08-31T18:00	23583	33	-49.9	-84.0	196	4
2023-08-31T18:00	23604	33	-49.8	-84.0	203	4
2023-08-31T18:00	23634	33	-49.8	-84.0	209	5
2023-08-31T18:00	23659	33	-49.9	-84.0	214	6
2023-08-31T18:00	23686	33	-49.8	-83.2	218	6
2023-08-31T18:00	23708	33	-49.8	-83.2	221	7
2023-08-31T18:00	23733	33	-49.9	-83.2	224	7
2023-08-31T18:00	23762	32	-49.9	-83.2	228	7
2023-08-31T18:00	23785	32	-49.8	-84.0	233	7
2023-08-31T18:00	23810	32	-49.6	-83.8	240	6
2023-08-31T18:00	23840	32	-49.5	-83.7	248	6
2023-08-31T18:00	23867	32	-49.5	-83.7	256	5
2023-08-31T18:00	23889	32	-49.4	-83.7	264	5
2023-08-31T18:00	23917	32	-49.5	-83.7	271	5
2023-08-31T18:00	23939	32	-49.5	-83.7	275	4
2023-08-31T18:00	23967	31	-49.4	-83.7	278	4
2023-08-31T18:00	23994	31	-49.2	-83.5	280	4
2023-08-31T18:00	24022	31	-49.1	-83.4	283	4
2023-08-31T18:00	24044	31	-49.2	-83.5	286	4
2023-08-31T18:00	24073	31	-49.2	-83.5	293	3
2023-08-31T18:00	24099	31	-49.2	-83.5	305	2
2023-08-31T18:00	24122	31	-49.3	-83.6	327	2
2023-08-31T18:00	24155	31	-49.5	-83.7	356	2
2023-08-31T18:00	24173	30	-49.6	-83.8	16	2
2023-08-31T18:00	24206	30	-49.5	-83.7	23	2
2023-08-31T18:00	24230	30	-49.2	-83.5	19	2
2023-08-31T18:00	24257	30	-48.8	-83.2	2	1
2023-08-31T18:00	24286	30	-48.5	-83.0	330	1
2023-08-31T18:00	24310	30	-48.4	-82.9	302	1
2023-08-31T18:00	24343	30	-48.5	-83.0	289	2
2023-08-31T18:00	24366	30	-48.5	-83.0	285	2
2023-08-31T18:00	24392	29	-48.4	-82.9	289	1
2023-08-31T18:00	24420	29	-48.3	-82.9	304	1
2023-08-31T18:00	24450	29	-48.3	-82.9	326	1
2023-08-31T18:00	24482	29	-48.4	-82.9	342	1
2023-08-31T18:00	24501	29	-48.4	-82.9	341	1
2023-08-31T18:00	24533	29	-48.4	-82.9	322	1
2023-08-31T18:00	24563	29	-48.4	-82.9	297	2
2023-08-31T18:00	24584	29	-48.3	-82.9	281	2
2023-08-31T18:00	24616	29	-48.1	-82.7	272	3
2023-08-31T18:00	24641	28	-48.1	-82.7	267	3
2023-08-31T18:00	24669	28	-47.9	-82.6	264	3
2023-08-31T18:00	24695	28	-47.8	-82.5	262	3
2023-08-31T18:00	24717	28	-47.8	-82.5	261	3
2023-08-31T18:00	24747	28	-47.8	-82.5	262	2
2023-08-31T18:00	24773	28	-47.8	-82.5	263	2
2023-08-31T18:00	24803	28	-48.0	-82.7	262	2
2023-08-31T18:00	24828	28	-48.0	-82.7	258	2
2023-08-31T18:00	24842	28	-47.9	-82.6	252	2
2023-08-31T18:00	24874	27	-47.8	-82.5	247	3
2023-08-31T18:00	24910	27	-47.8	-82.5	243	3
2023-08-31T18:00	24934	27	-47.9	-82.6	241	3
2023-08-31T18:00	24958	27	-47.8	-82.5	240	3
2023-08-31T18:00	24984	27	-47.8	-82.5	239	3
2023-08-31T18:00	25012	27	-47.7	-82.4	236	3
2023-08-31T18:00	25034	27	-47.7	-82.4	233	3
2023-08-31T18:00	25058	27	-47.6	-82.4	230	3
2023-08-31T18:00	25084	27	-47.7	-82.4	229	3
2023-08-31T18:00	25115	26	-47.6	-83.3	230	3
2023-08-31T18:00	25137	26	-47.4	-83.1	232	3
2023-08-31T18:00	25162	26	-47.5	-83.2	234	2
2023-08-31T18:00	25193	26	-47.4	-83.1	232	2
2023-08-31T18:00	25219	26	-47.2	-83.0	223	2
2023-08-31T18:00	25242	26	-46.9	-82.8	200	2
2023-08-31T18:00	25263	26	-46.8	-82.7	171	2
2023-08-31T18:00	25296	26	-46.8	-82.7	152	2
2023-08-31T18:00	25324	26	-46.9	-82.8	143	3
2023-08-31T18:00	25351	26	-46.9	-82.8	141	3
2023-08-31T18:00	25381	25	-46.9	-82.8	142	4
2023-08-31T18:00	25402	25	-46.9	-82.8	146	4
2023-08-31T18:00	25427	25	-46.9	-82.8	153	4
2023-08-31T18:00	25465	25	-46.9	-82.8	160	5
2023-08-31T18:00	25488	25	-47.0	-82.9	166	5
2023-08-31T18:00	25510	25	-47.0	-82.9	171	6
2023-08-31T18:00	25544	25	-46.9	-82.8	175	6
2023-08-31T18:00	25567	25	-46.9	-82.8	179	6
2023-08-31T18:00	25596	25	-46.7	-82.6	183	6
2023-08-31T18:00	25627	24	-46.7	-82.6	186	6
2023-08-31T18:00	25653	24	-46.6	-82.6	189	7
2023-08-31T18:00	25679	24	-46.5	-82.5	190	7
2023-08-31T18:00	25710	24	-46.4	-82.4	191	7
2023-08-31T18:00	25745	24	-46.4	-82.4	191	8
2023-08-31T18:00	25760	24	-46.4	-82.4	190	8
2023-08-31T18:00	25800	24	-46.4	-82.4	190	9
2023-08-31T18:00	25823	24	-46.4	-82.4	191	9
2023-08-31T18:00	25850	24	-46.5	-82.5	192	9
2023-08-31T18:00	25878	24	-46.1	-82.2	193	9
2023-08-31T18:00	25900	23	-46.1	-82.2	194	9
2023-08-31T18:00	25934	23	-46.1	-82.2	194	9
2023-08-31T18:00	25963	23	-46.1	-82.2	195	9
2023-08-31T18:00	25982	23	-46.1	-82.2	197	9
2023-08-31T18:00	26016	23	-46.3	-82.4	199	9
2023-08-31T18:00	26038	23	-46.4	-82.4	202	9
2023-08-31T18:00	26070	23	-46.4	-82.4	205	8
2023-08-31T18:00	26095	23	-46.5	-82.5	210	8
2023-08-31T18:00	26118	23	-46.4	-82.4	215	7
2023-08-31T18:00	26149	23	-46.3	-82.4	219	7
2023-08-31T18:00	26174	23	-46.3	-82.4	224	7
2023-08-31T18:00	26202	22	-46.4	-82.4	230	6
2023-08-31T18:00	26227	22	-46.2	-82.3	237	6
2023-08-31T18:00	26254	22	-46.1	-82.2	243	6
2023-08-31T18:00	26278	22	-45.9	-82.1	250	6
2023-08-31T18:00	26311	22	-45.7	-81.9	255	6
2023-08-31T18:00	26329	22	-45.7	-81.9	257	6
2023-08-31T18:00	26358	22	-45.6	-81.9	258	6
2023-08-31T18:00	26380	22	-45.5	-81.8	258	6
2023-08-31T18:00	26410	22	-45.6	-81.9	257	5
2023-08-31T18:00	26432	22	-45.6	-81.9	257	5
2023-08-31T18:00	26465	22	-45.6	-81.9	257	5
2023-08-31T18:00	26490	22	-45.6	-81.9	257	5
2023-08-31T18:00	26516	21	-45.6	-81.9	257	5
2023-08-31T18:00	26537	21	-45.6	-81.9	256	5
2023-08-31T18:00	26560	21	-45.7	-81.9	254	5
2023-08-31T18:00	26595	21	-45.7	-81.9	252	6
2023-08-31T18:00	26618	21	-45.7	-81.9	250	6
2023-08-31T18:00	26643	21	-45.8	-82.0	248	7
2023-08-31T18:00	26667	21	-45.8	-82.0	246	7
2023-08-31T18:00	26694	21	-45.9	-82.1	245	8
2023-08-31T18:00	26726	21	-45.8	-82.0	245	8
2023-08-31T18:00	26753	21	-46.0	-82.1	245	9
2023-08-31T18:00	26776	21	-46.2	-82.3	246	9
2023-08-31T18:00	26804	20	-46.3	-82.4	248	9
2023-08-31T18:00	26829	20	-46.2	-82.3	250	9
2023-08-31T18:00	26862	20	-46.0	-82.1	252	9
2023-08-31T18:00	26889	20	-45.9	-82.1	253	8
2023-08-31T18:00	26917	20	-45.8	-82.0	254	8
2023-08-31T18:00	26944	20	-45.8	-82.0	253	8
2023-08-31T18:00	26967	20	-45.7	-83.0	253	8
2023-08-31T18:00	26997	20	-45.3	-82.7	253	8
2023-08-31T18:00	27028	20	-45.2	-82.7	254	9
2023-08-31T18:00	27062	20	-45.1	-82.6	256	9
2023-08-31T18:00	27078	20	-45.0	-82.5	260	9
2023-08-31T18:00	27123	20	-44.9	-82.5	264	9
2023-08-31T18:00	27137	19	-44.9	-82.5	270	9
2023-08-31T18:00	27172	19	-44.9	-82.5	275	9
2023-08-31T18:00	27198	19	-45.0	-82.5	281	9
2023-08-31T18:00	27226	19	-45.0	-82.5	286	8
2023-08-31T18:00	27250	19	-45.0	-82.5	291	8
2023-08-31T18:00	27288	19	-45.0	-82.5	296	8
2023-08-31T18:00	27304	19	-44.6	-82.2	301	8
2023-08-31T18:00	27343	19	-44.6	-82.2	306	8
2023-08-31T18:00	27364	19	-44.6	-82.2	310	8
2023-08-31T18:00	27394	19	-44.6	-82.2	313	8
2023-08-31T18:00	27417	19	-44.6	-82.2	315	8
2023-08-31T18:00	27451	19	-44.3	-82.0	317	8
2023-08-31T18:00	27476	19	-44.3	-82.0	318	8
2023-08-31T18:00	27498	18	-44.3	-82.0	319	8
2023-08-31T18:00	27533	18	-44.0	-81.8	321	8
2023-08-31T18:00	27553	18	-44.0	-81.8	324	8
2023-08-31T18:00	27592	18	-43.7	-81.6	327	8
2023-08-31T18:00	27614	18	-43.7	-81.6	331	7
2023-08-31T18:00	27640	18	-43.5	-81.5	336	7
2023-08-31T18:00	27674	18	-43.4	-81.4	341	7
2023-08-31T18:00	27710	18	-43.4	-81.4	346	7
2023-08-31T18:00	27733	18	-43.2	-81.3	351	7
2023-08-31T18:00	27755	18	-43.3	-81.3	355	8
2023-08-31T18:00	27782	18	-43.4	-81.4	360	8
2023-08-31T18:00	27810	18	-43.4	-81.4	4	8
2023-08-31T18:00	27844	18	-43.5	-81.5	9	8
2023-08-31T18:00	27868	17	-43.6	-81.5	14	8
2023-08-31T18:00	27900	17	-43.6	-81.5	18	8
2023-08-31T18:00	27919	17	-43.6	-81.5	22	7
2023-08-31T18:00	27951	17	-43.2	-81.3	26	6
2023-08-31T18:00	27979	17	-43.3	-81.3	30	6
2023-08-31T18:00	28014	17	-43.3	-81.3	36	5
2023-08-31T18:00	28034	17	-43.3	-81.3	44	4
2023-08-31T18:00	28069	17	-43.2	-81.3	55	3
2023-08-31T18:00	28094	17	-43.3	-81.3	71	2
2023-08-31T18:00	28117	17	-43.4	-81.4	90	2
2023-08-31T18:00	28145	17	-43.5	-81.5	114	1
2023-08-31T18:00	28173	17	-43.7	-81.6	149	1
2023-08-31T18:00	28202	17	-43.6	-81.5	195	1
2023-08-31T18:00	28233	17	-43.3	-81.3	234	1
2023-08-31T18:00	28255	17	-43.3	-81.3	257	2
2023-08-31T18:00	28283	16	-43.4	-81.4	273	2
2023-08-31T18:00	28319	16	-43.5	-81.5	285	3
2023-08-31T18:00	28338	16	-43.5	-81.5	292	3
2023-08-31T18:00	28374	16	-43.5	-81.5	297	3
2023-08-31T18:00	28394	16	-43.7	-81.6	300	4
2023-08-31T18:00	28429	16	-43.9	-81.8	301	4
2023-08-31T18:00	28445	16	-44.1	-81.9	301	5
2023-08-31T18:00	28483	16	-44.2	-82.0	302	5
2023-08-31T18:00	28515	16	-44.3	-82.0	303	6
2023-08-31T18:00	28540	16	-44.4	-82.1	307	6
2023-08-31T18:00	28569	16	-44.5	-82.2	312	6
2023-08-31T18:00	28600	16	-44.3	-82.0	318	5
2023-08-31T18:00	28628	16	-44.0	-81.8	324	5
2023-08-31T18:00	28654	16	-43.6	-81.5	331	4
2023-08-31T18:00	28687	16	-43.5	-81.5	336	3
2023-08-31T18:00	28708	15	-43.4	-81.4	337	3
2023-08-31T18:00	28742	15	-43.5	-81.5	332	3
2023-08-31T18:00	28768	15	-43.2	-81.3	326	3
2023-08-31T18:00	28797	15	-43.1	-81.2	323	3
2023-08-31T18:00	28823	15	-43.1	-81.2	322	4
2023-08-31T18:00	28853	15	-43.0	-81.1	323	4
2023-08-31T18:00	28880	15	-42.7	-80.9	326	3
2023-08-31T18:00	28912	15	-42.3	-80.6	329	3
2023-08-31T18:00	28947	15	-42.3	-80.6	328	3
2023-08-31T18:00	28967	15	-42.1	-80.5	323	2
2023-08-31T18:00	29000	15	-42.0	-80.4	313	2
2023-08-31T18:00	29026	15	-41.8	-80.3	301	3
2023-08-31T18:00	29057	15	-41.5	-80.1	290	3
2023-08-31T18:00	29092	15	-41.4	-80.0	281	3
2023-08-31T18:00	29116	15	-41.7	-80.2	275	3
2023-08-31T18:00	29155	14	-42.0	-80.4	273	4
2023-08-31T18:00	29184	14	-42.2	-80.6	274	4
2023-08-31T18:00	29208	14	-42.2	-80.6	278	4
2023-08-31T18:00	29250	14	-42.3	-80.6	285	5
2023-08-31T18:00	29270	14	-42.4	-80.7	292	5
2023-08-31T18:00	29306	14	-42.2	-80.6	301	5
2023-08-31T18:00	29329	14	-42.2	-80.6	310	5
2023-08-31T18:00	29358	14	-42.3	-80.6	319	5
2023-08-31T18:00	29388	14	-42.2	-80.6	328	5
2023-08-31T18:00	29425	14	-42.2	-80.6	338	5
2023-08-31T18:00	29466	14	-42.2	-80.6	349	5
2023-08-31T18:00	29479	14	-42.1	-80.5	1	5
2023-08-31T18:00	29520	14	-42.1	-80.5	13	5
2023-08-31T18:00	29551	14	-41.9	-80.4	24	5
2023-08-31T18:00	29578	14	-41.9	-80.4	33	6
2023-08-31T18:00	29618	14	-41.6	-80.1	39	6
2023-08-31T18:00	29638	13	-41.4	-80.0	43	7
2023-08-31T18:00	29673	13	-41.4	-80.0	46	7
2023-08-31T18:00	29695	13	-41.5	-80.1	48	7
2023-08-31T18:00	29739	13	-41.7	-80.2	49	7
2023-08-31T18:00	29770	13	-41.6	-80.1	51	7
2023-08-31T18:00	29791	13	-41.4	-80.0	52	7
2023-08-31T18:00	29818	13	-41.6	-80.1	55	7
2023-08-31T18:00	29852	13	-41.8	-80.3	57	7
2023-08-31T18:00	29890	13	-42.1	-80.5	61	7
2023-08-31T18:00	29897	13	-42.3	-80.6	64	7
2023-08-31T18:00	29934	13	-42.4	-80.7	67	7
2023-08-31T18:00	29963	13	-42.6	-80.8	71	7
2023-08-31T18:00	29995	13	-42.8	-81.0	75	7
2023-08-31T18:00	30030	13	-42.8	-81.0	80	7
2023-08-31T18:00	30054	13	-42.9	-81.1	86	7
2023-08-31T18:00	30078	13	-42.9	-81.1	92	7
2023-08-31T18:00	30104	13	-43.0	-81.1	99	8
2023-08-31T18:00	30141	13	-42.8	-81.0	104	8
2023-08-31T18:00	30169	12	-42.7	-80.9	108	9
2023-08-31T18:00	30197	12	-42.8	-81.0	111	9
2023-08-31T18:00	30218	12	-42.7	-80.9	115	9
2023-08-31T18:00	30255	12	-42.6	-80.8	119	10
2023-08-31T18:00	30274	12	-42.7	-80.9	123	10
2023-08-31T18:00	30304	12	-42.7	-80.9	127	10
2023-08-31T18:00	30318	12	-42.7	-80.9	131	10
2023-08-31T18:00	30358	12	-42.8	-81.0	136	11
2023-08-31T18:00	30384	12	-42.9	-81.1	140	10
2023-08-31T18:00	30415	12	-42.9	-81.1	144	10
2023-08-31T18:00	30447	12	-42.9	-81.1	148	10
2023-08-31T18:00	30488	12	-42.9	-81.1	152	9
2023-08-31T18:00	30494	12	-43.0	-81.1	157	9
2023-08-31T18:00	30528	12	-43.1	-81.2	163	8
2023-08-31T18:00	30550	12	-43.3	-81.3	169	8
2023-08-31T18:00	30583	12	-43.4	-81.4	176	7
2023-08-31T18:00	30611	12	-43.5	-81.5	183	7
2023-08-31T18:00	30633	12	-43.5	-81.5	188	7
2023-08-31T18:00	30666	12	-43.6	-81.5	192	6
2023-08-31T18:00	30697	12	-43.6	-81.5	192	5
2023-08-31T18:00	30723	11	-43.5	-81.5	188	5
2023-08-31T18:00	30754	11	-43.2	-81.3	180	4
2023-08-31T18:00	30781	11	-42.8	-81.0	166	4
2023-08-31T18:00	30797	11	-42.3	-80.6	151	3
2023-08-31T18:00	30828	11	-42.0	-80.4	138	4
2023-08-31T18:00	30862	11	-41.6	-80.1	127	4
2023-08-31T18:00	30896	11	-41.5	-80.1	118	4
2023-08-31T18:00	30918	11	-41.3	-79.9	110	4
2023-08-31T18:00	30955	11	-41.3	-79.9	103	3
2023-08-31T18:00	30997	11	-41.3	-79.9	98	3
2023-08-31T18:00	31006	11	-41.4	-80.0	94	3
2023-08-31T18:00	31024	11	-41.3	-79.9	93	2
2023-08-31T18:00	31064	11	-40.9	-79.7	98	2
2023-08-31T18:00	31088	11	-40.7	-79.5	107	2
2023-08-31T18:00	31132	11	-40.8	-79.6	119	2
2023-08-31T18:00	31154	11	-40.8	-79.6	131	2
2023-08-31T18:00	31176	11	-40.9	-79.7	141	2
2023-08-31T18:00	31218	11	-40.9	-79.7	149	2
2023-08-31T18:00	31254	11	-40.9	-79.7	157	1
2023-08-31T18:00	31272	11	-40.9	-79.7	168	1
2023-08-31T18:00	31307	11	-40.8	-79.6	199	0
2023-08-31T18:00	31336	10	-40.9	-79.7	265	0
2023-08-31T18:00	31367	10	-41.0	-79.7	288	1
2023-08-31T18:00	31395	10	-41.1	-79.8	298	1
2023-08-31T18:00	31443	10	-41.2	-79.9	310	1
2023-08-31T18:00	31461	10	-41.2	-79.9	329	1
2023-08-31T18:00	31503	10	-40.8	-79.6	353	1
2023-08-31T18:00	31507	10	-40.7	-79.5	10	1
2023-08-31T18:00	31551	10	-40.6	-79.5	19	2
2023-08-31T18:00	31572	10	-40.7	-79.5	23	2
2023-08-31T18:00	31604	10	-40.7	-79.5	24	3
2023-08-31T18:00	31629	10	-40.8	-79.6	25	4
2023-08-31T18:00	31663	10	-40.7	-79.5	26	4
2023-08-31T18:00	31681	10	-40.7	-79.5	28	5
2023-08-31T18:00	31715	10	-40.8	-79.6	31	5
2023-08-31T18:00	31747	10	-40.9	-79.7	34	6
2023-08-31T18:00	31791	10	-41.1	-79.8	37	6
2023-08-31T18:00	31811	10	-41.2	-79.9	40	7
2023-08-31T18:00	31837	10	-41.1	-79.8	44	8
2023-08-31T18:00	31862	10	-41.1	-79.8	49	8
2023-08-31T18:00	31895	10	-40.0	-79.0	54	8
2023-08-31T18:00	31934	10	-39.9	-79.0	59	8
2023-08-31T18:00	31944	10	-40.0	-79.0	64	9
2023-08-31T18:00	31979	10	-40.1	-79.1	69	9
2023-08-31T18:00	31996	10	-40.1	-79.1	74	9
2023-08-31T18:00	32037	9	-40.2	-79.2	79	8
2023-08-31T18:00	32049	9	-40.2	-79.2	84	8
2023-08-31T18:00	32106	9	-40.4	-79.3	90	8
2023-08-31T18:00	32124	9	-40.5	-79.4	96	8
2023-08-31T18:00	32153	9	-40.5	-79.4	103	8
2023-08-31T18:00	32184	9	-40.6	-79.5	110	8
2023-08-31T18:00	32216	9	-40.7	-79.5	116	8
2023-08-31T18:00	32246	9	-40.8	-79.6	122	8
2023-08-31T18:00	32269	9	-40.9	-79.7	128	8
2023-08-31T18:00	32292	9	-41.0	-79.7	133	9
2023-08-31T18:00	32314	9	-41.1	-79.8	138	9
2023-08-31T18:00	32338	9	-41.3	-79.9	142	9
2023-08-31T18:00	32376	9	-41.3	-79.9	145	9
2023-08-31T18:00	32401	9	-41.4	-80.0	148	9
2023-08-31T18:00	32440	9	-41.4	-80.0	149	9
2023-08-31T18:00	32485	9	-41.5	-80.1	152	8
2023-08-31T18:00	32523	9	-41.3	-79.9	153	8
2023-08-31T18:00	32532	9	-41.1	-79.8	155	7
2023-08-31T18:00	32583	9	-41.1	-79.8	157	6
2023-08-31T18:00	32600	9	-40.9	-79.7	159	6
2023-08-31T18:00	32634	9	-40.8	-79.6	161	5
2023-08-31T18:00	32665	9	-40.8	-79.6	164	5
2023-08-31T18:00	32676	9	-40.8	-79.6	164	4
2023-08-31T18:00	32722	9	-40.7	-79.5	164	4
2023-08-31T18:00	32730	9	-40.5	-79.4	162	3
2023-08-31T18:00	32792	8	-40.5	-79.4	160	3
2023-08-31T18:00	32816	8	-40.4	-79.3	157	2
2023-08-31T18:00	32842	8	-40.2	-79.2	152	2
2023-08-31T18:00	32866	8	-40.2	-79.2	142	1
2023-08-31T18:00	32889	8	-40.0	-79.0	118	1
2023-08-31T18:00	32920	8	-39.9	-79.0	71	1
2023-08-31T18:00	32947	8	-39.5	-78.7	44	1
2023-08-31T18:00	32977	8	-39.5	-78.7	37	2
2023-08-31T18:00	33000	8	-39.3	-78.5	36	3
2023-08-31T18:00	33029	8	-39.1	-78.4	39	3
2023-08-31T18:00	33079	8	-38.8	-78.2	42	4
2023-08-31T18:00	33085	8	-38.4	-77.9	44	4
2023-08-31T18:00	33124	8	-38.0	-77.6	46	4
2023-08-31T18:00	33151	8	-37.6	-77.4	49	4
2023-08-31T18:00	33175	8	-37.4	-77.2	52	4
2023-08-31T18:00	33188	8	-37.4	-77.2	56	4
2023-08-31T18:00	33222	8	-37.4	-77.2	62	5
2023-08-31T18:00	33249	8	-37.3	-77.2	68	6
2023-08-31T18:00	33289	8	-37.2	-77.1	74	6
